<?xml version="1.0" encoding="UTF-8"?>
<gpx creator="Garmin Connect" version="1.1"
  xsi:schemaLocation="http://www.topografix.com/GPX/1/1 http://www.topografix.com/GPX/11.xsd"
  xmlns="http://www.topografix.com/GPX/1/1"
  xmlns:ns3="http://www.garmin.com/xmlschemas/TrackPointExtension/v1"
  xmlns:ns2="http://www.garmin.com/xmlschemas/GpxExtensions/v3" xmlns:xsi="http://www.w3.org/2001/XMLSchema-instance">
  <metadata>
    <link href="connect.garmin.com">
      <text>Garmin Connect</text>
    </link>
    <time>2016-08-12T17:23:18.000Z</time>
  </metadata>
  <trk>
    <name>Les Dzumacs, col de la Ni et retour.</name>
    <desc>La piste des Dzumacs, col de la Ni et retour.</desc>
    <type>trail_running</type>
    <trkseg>
      <trkpt lat="-22.12626208551228046417236328125" lon="166.4395228587090969085693359375">
        <ele>25.3999996185302734375</ele>
        <time>2016-08-12T17:23:18.000Z</time>
        <extensions>
          <ns3:TrackPointExtension>
            <ns3:atemp>26.0</ns3:atemp>
            <ns3:hr>65</ns3:hr>
          </ns3:TrackPointExtension>
        </extensions>
      </trkpt>
      <trkpt lat="-22.1262564696371555328369140625" lon="166.439521349966526031494140625">
        <ele>25.3999996185302734375</ele>
        <time>2016-08-12T17:23:19.000Z</time>
        <extensions>
          <ns3:TrackPointExtension>
            <ns3:atemp>26.0</ns3:atemp>
            <ns3:hr>65</ns3:hr>
          </ns3:TrackPointExtension>
        </extensions>
      </trkpt>
      <trkpt lat="-22.12625018320977687835693359375" lon="166.43952168524265289306640625">
        <ele>25.3999996185302734375</ele>
        <time>2016-08-12T17:23:20.000Z</time>
        <extensions>
          <ns3:TrackPointExtension>
            <ns3:atemp>25.0</ns3:atemp>
            <ns3:hr>65</ns3:hr>
          </ns3:TrackPointExtension>
        </extensions>
      </trkpt>
      <trkpt lat="-22.126237191259860992431640625" lon="166.439526043832302093505859375">
        <ele>25.3999996185302734375</ele>
        <time>2016-08-12T17:23:21.000Z</time>
        <extensions>
          <ns3:TrackPointExtension>
            <ns3:atemp>25.0</ns3:atemp>
            <ns3:hr>65</ns3:hr>
          </ns3:TrackPointExtension>
        </extensions>
      </trkpt>
      <trkpt lat="-22.12622545659542083740234375" lon="166.43952629528939723968505859375">
        <ele>25.3999996185302734375</ele>
        <time>2016-08-12T17:23:22.000Z</time>
        <extensions>
          <ns3:TrackPointExtension>
            <ns3:atemp>25.0</ns3:atemp>
            <ns3:hr>65</ns3:hr>
          </ns3:TrackPointExtension>
        </extensions>
      </trkpt>
      <trkpt lat="-22.12621497921645641326904296875" lon="166.4395258761942386627197265625">
        <ele>25.200000762939453125</ele>
        <time>2016-08-12T17:23:23.000Z</time>
        <extensions>
          <ns3:TrackPointExtension>
            <ns3:atemp>25.0</ns3:atemp>
            <ns3:hr>70</ns3:hr>
          </ns3:TrackPointExtension>
        </extensions>
      </trkpt>
      <trkpt lat="-22.1262028254568576812744140625" lon="166.43952797167003154754638671875">
        <ele>25.200000762939453125</ele>
        <time>2016-08-12T17:23:24.000Z</time>
        <extensions>
          <ns3:TrackPointExtension>
            <ns3:atemp>25.0</ns3:atemp>
            <ns3:hr>70</ns3:hr>
          </ns3:TrackPointExtension>
        </extensions>
      </trkpt>
      <trkpt lat="-22.12619234807789325714111328125" lon="166.43952830694615840911865234375">
        <ele>25.200000762939453125</ele>
        <time>2016-08-12T17:23:25.000Z</time>
        <extensions>
          <ns3:TrackPointExtension>
            <ns3:atemp>25.0</ns3:atemp>
            <ns3:hr>70</ns3:hr>
          </ns3:TrackPointExtension>
        </extensions>
      </trkpt>
      <trkpt lat="-22.126176171004772186279296875" lon="166.4395315758883953094482421875">
        <ele>25.200000762939453125</ele>
        <time>2016-08-12T17:23:26.000Z</time>
        <extensions>
          <ns3:TrackPointExtension>
            <ns3:atemp>25.0</ns3:atemp>
            <ns3:hr>70</ns3:hr>
          </ns3:TrackPointExtension>
        </extensions>
      </trkpt>
      <trkpt lat="-22.12616133503615856170654296875" lon="166.43953434191644191741943359375">
        <ele>25.3999996185302734375</ele>
        <time>2016-08-12T17:23:27.000Z</time>
        <extensions>
          <ns3:TrackPointExtension>
            <ns3:atemp>25.0</ns3:atemp>
            <ns3:hr>70</ns3:hr>
          </ns3:TrackPointExtension>
        </extensions>
      </trkpt>
      <trkpt lat="-22.126145996153354644775390625" lon="166.43954238854348659515380859375">
        <ele>25.3999996185302734375</ele>
        <time>2016-08-12T17:23:28.000Z</time>
        <extensions>
          <ns3:TrackPointExtension>
            <ns3:atemp>25.0</ns3:atemp>
            <ns3:hr>70</ns3:hr>
          </ns3:TrackPointExtension>
        </extensions>
      </trkpt>
      <trkpt lat="-22.12613518349826335906982421875" lon="166.43954758532345294952392578125">
        <ele>25.6000003814697265625</ele>
        <time>2016-08-12T17:23:29.000Z</time>
        <extensions>
          <ns3:TrackPointExtension>
            <ns3:atemp>25.0</ns3:atemp>
            <ns3:hr>70</ns3:hr>
          </ns3:TrackPointExtension>
        </extensions>
      </trkpt>
      <trkpt lat="-22.12611892260611057281494140625" lon="166.43955445848405361175537109375">
        <ele>25.6000003814697265625</ele>
        <time>2016-08-12T17:23:30.000Z</time>
        <extensions>
          <ns3:TrackPointExtension>
            <ns3:atemp>25.0</ns3:atemp>
            <ns3:hr>70</ns3:hr>
          </ns3:TrackPointExtension>
        </extensions>
      </trkpt>
      <trkpt lat="-22.1261052601039409637451171875" lon="166.4395587332546710968017578125">
        <ele>25.6000003814697265625</ele>
        <time>2016-08-12T17:23:31.000Z</time>
        <extensions>
          <ns3:TrackPointExtension>
            <ns3:atemp>25.0</ns3:atemp>
            <ns3:hr>70</ns3:hr>
          </ns3:TrackPointExtension>
        </extensions>
      </trkpt>
      <trkpt lat="-22.126093022525310516357421875" lon="166.439562924206256866455078125">
        <ele>25.6000003814697265625</ele>
        <time>2016-08-12T17:23:32.000Z</time>
        <extensions>
          <ns3:TrackPointExtension>
            <ns3:atemp>25.0</ns3:atemp>
          </ns3:TrackPointExtension>
        </extensions>
      </trkpt>
      <trkpt lat="-22.12608187459409236907958984375" lon="166.43956619314849376678466796875">
        <ele>25.799999237060546875</ele>
        <time>2016-08-12T17:23:33.000Z</time>
        <extensions>
          <ns3:TrackPointExtension>
            <ns3:atemp>25.0</ns3:atemp>
            <ns3:hr>70</ns3:hr>
          </ns3:TrackPointExtension>
        </extensions>
      </trkpt>
      <trkpt lat="-22.1260700561106204986572265625" lon="166.43956703133881092071533203125">
        <ele>25.799999237060546875</ele>
        <time>2016-08-12T17:23:34.000Z</time>
        <extensions>
          <ns3:TrackPointExtension>
            <ns3:atemp>25.0</ns3:atemp>
            <ns3:hr>70</ns3:hr>
          </ns3:TrackPointExtension>
        </extensions>
      </trkpt>
      <trkpt lat="-22.12605823762714862823486328125" lon="166.43956887535750865936279296875">
        <ele>26</ele>
        <time>2016-08-12T17:23:35.000Z</time>
        <extensions>
          <ns3:TrackPointExtension>
            <ns3:atemp>25.0</ns3:atemp>
            <ns3:hr>70</ns3:hr>
          </ns3:TrackPointExtension>
        </extensions>
      </trkpt>
      <trkpt lat="-22.12604784406721591949462890625" lon="166.43957172520458698272705078125">
        <ele>26.200000762939453125</ele>
        <time>2016-08-12T17:23:36.000Z</time>
        <extensions>
          <ns3:TrackPointExtension>
            <ns3:atemp>25.0</ns3:atemp>
            <ns3:hr>73</ns3:hr>
          </ns3:TrackPointExtension>
        </extensions>
      </trkpt>
      <trkpt lat="-22.1260382048785686492919921875" lon="166.4395761676132678985595703125">
        <ele>26.200000762939453125</ele>
        <time>2016-08-12T17:23:37.000Z</time>
        <extensions>
          <ns3:TrackPointExtension>
            <ns3:atemp>25.0</ns3:atemp>
            <ns3:hr>73</ns3:hr>
          </ns3:TrackPointExtension>
        </extensions>
      </trkpt>
      <trkpt lat="-22.12602823041379451751708984375" lon="166.439579688012599945068359375">
        <ele>26.3999996185302734375</ele>
        <time>2016-08-12T17:23:38.000Z</time>
        <extensions>
          <ns3:TrackPointExtension>
            <ns3:atemp>25.0</ns3:atemp>
            <ns3:hr>73</ns3:hr>
          </ns3:TrackPointExtension>
        </extensions>
      </trkpt>
      <trkpt lat="-22.1260164119303226470947265625" lon="166.43957977183163166046142578125">
        <ele>26.3999996185302734375</ele>
        <time>2016-08-12T17:23:39.000Z</time>
        <extensions>
          <ns3:TrackPointExtension>
            <ns3:atemp>25.0</ns3:atemp>
            <ns3:hr>73</ns3:hr>
          </ns3:TrackPointExtension>
        </extensions>
      </trkpt>
      <trkpt lat="-22.12600559927523136138916015625" lon="166.43958211876451969146728515625">
        <ele>26.6000003814697265625</ele>
        <time>2016-08-12T17:23:40.000Z</time>
        <extensions>
          <ns3:TrackPointExtension>
            <ns3:atemp>25.0</ns3:atemp>
            <ns3:hr>73</ns3:hr>
          </ns3:TrackPointExtension>
        </extensions>
      </trkpt>
      <trkpt lat="-22.1259966306388378143310546875" lon="166.43958748318254947662353515625">
        <ele>26.6000003814697265625</ele>
        <time>2016-08-12T17:23:41.000Z</time>
        <extensions>
          <ns3:TrackPointExtension>
            <ns3:atemp>25.0</ns3:atemp>
            <ns3:hr>73</ns3:hr>
          </ns3:TrackPointExtension>
        </extensions>
      </trkpt>
      <trkpt lat="-22.12599000893533229827880859375" lon="166.43959251232445240020751953125">
        <ele>26.6000003814697265625</ele>
        <time>2016-08-12T17:23:42.000Z</time>
        <extensions>
          <ns3:TrackPointExtension>
            <ns3:atemp>25.0</ns3:atemp>
            <ns3:hr>74</ns3:hr>
          </ns3:TrackPointExtension>
        </extensions>
      </trkpt>
      <trkpt lat="-22.12598196230828762054443359375" lon="166.43959368579089641571044921875">
        <ele>27</ele>
        <time>2016-08-12T17:23:44.000Z</time>
        <extensions>
          <ns3:TrackPointExtension>
            <ns3:atemp>25.0</ns3:atemp>
            <ns3:hr>75</ns3:hr>
          </ns3:TrackPointExtension>
        </extensions>
      </trkpt>
      <trkpt lat="-22.12598129175603389739990234375" lon="166.43959284760057926177978515625">
        <ele>27</ele>
        <time>2016-08-12T17:23:45.000Z</time>
        <extensions>
          <ns3:TrackPointExtension>
            <ns3:atemp>25.0</ns3:atemp>
            <ns3:hr>75</ns3:hr>
          </ns3:TrackPointExtension>
        </extensions>
      </trkpt>
      <trkpt lat="-22.12598011828958988189697265625" lon="166.4395932666957378387451171875">
        <ele>27</ele>
        <time>2016-08-12T17:23:46.000Z</time>
        <extensions>
          <ns3:TrackPointExtension>
            <ns3:atemp>25.0</ns3:atemp>
            <ns3:hr>75</ns3:hr>
          </ns3:TrackPointExtension>
        </extensions>
      </trkpt>
      <trkpt lat="-22.12597810663282871246337890625" lon="166.43959343433380126953125">
        <ele>27</ele>
        <time>2016-08-12T17:23:47.000Z</time>
        <extensions>
          <ns3:TrackPointExtension>
            <ns3:atemp>25.0</ns3:atemp>
            <ns3:hr>75</ns3:hr>
          </ns3:TrackPointExtension>
        </extensions>
      </trkpt>
      <trkpt lat="-22.125982381403446197509765625" lon="166.4395929314196109771728515625">
        <ele>26.799999237060546875</ele>
        <time>2016-08-12T17:23:48.000Z</time>
        <extensions>
          <ns3:TrackPointExtension>
            <ns3:atemp>25.0</ns3:atemp>
            <ns3:hr>75</ns3:hr>
          </ns3:TrackPointExtension>
        </extensions>
      </trkpt>
      <trkpt lat="-22.12598397396504878997802734375" lon="166.43959284760057926177978515625">
        <ele>26.799999237060546875</ele>
        <time>2016-08-12T17:23:49.000Z</time>
        <extensions>
          <ns3:TrackPointExtension>
            <ns3:atemp>25.0</ns3:atemp>
            <ns3:hr>75</ns3:hr>
          </ns3:TrackPointExtension>
        </extensions>
      </trkpt>
      <trkpt lat="-22.1259855665266513824462890625" lon="166.4395912550389766693115234375">
        <ele>26.799999237060546875</ele>
        <time>2016-08-12T17:23:50.000Z</time>
        <extensions>
          <ns3:TrackPointExtension>
            <ns3:atemp>24.0</ns3:atemp>
            <ns3:hr>74</ns3:hr>
          </ns3:TrackPointExtension>
        </extensions>
      </trkpt>
      <trkpt lat="-22.12598531506955623626708984375" lon="166.4395902492105960845947265625">
        <ele>26.799999237060546875</ele>
        <time>2016-08-12T17:23:51.000Z</time>
        <extensions>
          <ns3:TrackPointExtension>
            <ns3:atemp>24.0</ns3:atemp>
            <ns3:hr>74</ns3:hr>
          </ns3:TrackPointExtension>
        </extensions>
      </trkpt>
      <trkpt lat="-22.1259828843176364898681640625" lon="166.4395902492105960845947265625">
        <ele>26.799999237060546875</ele>
        <time>2016-08-12T17:23:52.000Z</time>
        <extensions>
          <ns3:TrackPointExtension>
            <ns3:atemp>24.0</ns3:atemp>
            <ns3:hr>74</ns3:hr>
          </ns3:TrackPointExtension>
        </extensions>
      </trkpt>
      <trkpt lat="-22.1259926073253154754638671875" lon="166.439586393535137176513671875">
        <ele>27</ele>
        <time>2016-08-12T17:23:53.000Z</time>
        <extensions>
          <ns3:TrackPointExtension>
            <ns3:atemp>24.0</ns3:atemp>
            <ns3:hr>74</ns3:hr>
          </ns3:TrackPointExtension>
        </extensions>
      </trkpt>
      <trkpt lat="-22.12599185295403003692626953125" lon="166.439585387706756591796875">
        <ele>27</ele>
        <time>2016-08-12T17:23:54.000Z</time>
        <extensions>
          <ns3:TrackPointExtension>
            <ns3:atemp>24.0</ns3:atemp>
            <ns3:hr>74</ns3:hr>
          </ns3:TrackPointExtension>
        </extensions>
      </trkpt>
      <trkpt lat="-22.12599503807723522186279296875" lon="166.4395822025835514068603515625">
        <ele>27.200000762939453125</ele>
        <time>2016-08-12T17:23:55.000Z</time>
        <extensions>
          <ns3:TrackPointExtension>
            <ns3:atemp>24.0</ns3:atemp>
            <ns3:hr>74</ns3:hr>
          </ns3:TrackPointExtension>
        </extensions>
      </trkpt>
      <trkpt lat="-22.1259986422955989837646484375" lon="166.439581029117107391357421875">
        <ele>27.200000762939453125</ele>
        <time>2016-08-12T17:23:56.000Z</time>
        <extensions>
          <ns3:TrackPointExtension>
            <ns3:atemp>24.0</ns3:atemp>
            <ns3:hr>75</ns3:hr>
          </ns3:TrackPointExtension>
        </extensions>
      </trkpt>
      <trkpt lat="-22.12600015103816986083984375" lon="166.43958044238388538360595703125">
        <ele>27.200000762939453125</ele>
        <time>2016-08-12T17:23:57.000Z</time>
        <extensions>
          <ns3:TrackPointExtension>
            <ns3:atemp>24.0</ns3:atemp>
            <ns3:hr>75</ns3:hr>
          </ns3:TrackPointExtension>
        </extensions>
      </trkpt>
      <trkpt lat="-22.12599252350628376007080078125" lon="166.43958178348839282989501953125">
        <ele>27.3999996185302734375</ele>
        <time>2016-08-12T17:23:58.000Z</time>
        <extensions>
          <ns3:TrackPointExtension>
            <ns3:atemp>24.0</ns3:atemp>
            <ns3:hr>76</ns3:hr>
          </ns3:TrackPointExtension>
        </extensions>
      </trkpt>
      <trkpt lat="-22.12599436752498149871826171875" lon="166.4395786821842193603515625">
        <ele>27.6000003814697265625</ele>
        <time>2016-08-12T17:23:59.000Z</time>
        <extensions>
          <ns3:TrackPointExtension>
            <ns3:atemp>24.0</ns3:atemp>
            <ns3:hr>77</ns3:hr>
          </ns3:TrackPointExtension>
        </extensions>
      </trkpt>
      <trkpt lat="-22.1259926073253154754638671875" lon="166.439574994146823883056640625">
        <ele>27.6000003814697265625</ele>
        <time>2016-08-12T17:24:00.000Z</time>
        <extensions>
          <ns3:TrackPointExtension>
            <ns3:atemp>24.0</ns3:atemp>
            <ns3:hr>78</ns3:hr>
          </ns3:TrackPointExtension>
        </extensions>
      </trkpt>
      <trkpt lat="-22.1259929426014423370361328125" lon="166.43957608379423618316650390625">
        <ele>27.6000003814697265625</ele>
        <time>2016-08-12T17:24:01.000Z</time>
        <extensions>
          <ns3:TrackPointExtension>
            <ns3:atemp>24.0</ns3:atemp>
            <ns3:hr>78</ns3:hr>
          </ns3:TrackPointExtension>
        </extensions>
      </trkpt>
      <trkpt lat="-22.12599000893533229827880859375" lon="166.439572982490062713623046875">
        <ele>27.799999237060546875</ele>
        <time>2016-08-12T17:24:02.000Z</time>
        <extensions>
          <ns3:TrackPointExtension>
            <ns3:atemp>24.0</ns3:atemp>
            <ns3:hr>78</ns3:hr>
          </ns3:TrackPointExtension>
        </extensions>
      </trkpt>
      <trkpt lat="-22.125988416373729705810546875" lon="166.4395708031952381134033203125">
        <ele>27.799999237060546875</ele>
        <time>2016-08-12T17:24:03.000Z</time>
        <extensions>
          <ns3:TrackPointExtension>
            <ns3:atemp>24.0</ns3:atemp>
            <ns3:hr>78</ns3:hr>
          </ns3:TrackPointExtension>
        </extensions>
      </trkpt>
      <trkpt lat="-22.12598481215536594390869140625" lon="166.43956820480525493621826171875">
        <ele>27.6000003814697265625</ele>
        <time>2016-08-12T17:24:04.000Z</time>
        <extensions>
          <ns3:TrackPointExtension>
            <ns3:atemp>24.0</ns3:atemp>
            <ns3:hr>79</ns3:hr>
          </ns3:TrackPointExtension>
        </extensions>
      </trkpt>
      <trkpt lat="-22.12598246522247791290283203125" lon="166.4395654387772083282470703125">
        <ele>27.3999996185302734375</ele>
        <time>2016-08-12T17:24:05.000Z</time>
        <extensions>
          <ns3:TrackPointExtension>
            <ns3:atemp>24.0</ns3:atemp>
            <ns3:hr>80</ns3:hr>
          </ns3:TrackPointExtension>
        </extensions>
      </trkpt>
      <trkpt lat="-22.12598850019276142120361328125" lon="166.4395614154636859893798828125">
        <ele>27.3999996185302734375</ele>
        <time>2016-08-12T17:24:06.000Z</time>
        <extensions>
          <ns3:TrackPointExtension>
            <ns3:atemp>24.0</ns3:atemp>
            <ns3:hr>80</ns3:hr>
          </ns3:TrackPointExtension>
        </extensions>
      </trkpt>
      <trkpt lat="-22.12598363868892192840576171875" lon="166.43956200219690799713134765625">
        <ele>27.200000762939453125</ele>
        <time>2016-08-12T17:24:07.000Z</time>
        <extensions>
          <ns3:TrackPointExtension>
            <ns3:atemp>24.0</ns3:atemp>
            <ns3:hr>81</ns3:hr>
          </ns3:TrackPointExtension>
        </extensions>
      </trkpt>
      <trkpt lat="-22.12598196230828762054443359375" lon="166.43956267274916172027587890625">
        <ele>27.200000762939453125</ele>
        <time>2016-08-12T17:24:08.000Z</time>
        <extensions>
          <ns3:TrackPointExtension>
            <ns3:atemp>24.0</ns3:atemp>
            <ns3:hr>81</ns3:hr>
          </ns3:TrackPointExtension>
        </extensions>
      </trkpt>
      <trkpt lat="-22.1259845606982707977294921875" lon="166.439560241997241973876953125">
        <ele>27</ele>
        <time>2016-08-12T17:24:09.000Z</time>
        <extensions>
          <ns3:TrackPointExtension>
            <ns3:atemp>24.0</ns3:atemp>
            <ns3:hr>80</ns3:hr>
          </ns3:TrackPointExtension>
        </extensions>
      </trkpt>
      <trkpt lat="-22.12598732672631740570068359375" lon="166.4395577274262905120849609375">
        <ele>27</ele>
        <time>2016-08-12T17:24:10.000Z</time>
        <extensions>
          <ns3:TrackPointExtension>
            <ns3:atemp>24.0</ns3:atemp>
            <ns3:hr>80</ns3:hr>
          </ns3:TrackPointExtension>
        </extensions>
      </trkpt>
      <trkpt lat="-22.12598883546888828277587890625" lon="166.43955647014081478118896484375">
        <ele>27</ele>
        <time>2016-08-12T17:24:11.000Z</time>
        <extensions>
          <ns3:TrackPointExtension>
            <ns3:atemp>24.0</ns3:atemp>
            <ns3:hr>81</ns3:hr>
          </ns3:TrackPointExtension>
        </extensions>
      </trkpt>
      <trkpt lat="-22.12599168531596660614013671875" lon="166.43956015817821025848388671875">
        <ele>27</ele>
        <time>2016-08-12T17:24:12.000Z</time>
        <extensions>
          <ns3:TrackPointExtension>
            <ns3:atemp>24.0</ns3:atemp>
            <ns3:hr>81</ns3:hr>
          </ns3:TrackPointExtension>
        </extensions>
      </trkpt>
      <trkpt lat="-22.12599470280110836029052734375" lon="166.4395625889301300048828125">
        <ele>27</ele>
        <time>2016-08-12T17:24:13.000Z</time>
        <extensions>
          <ns3:TrackPointExtension>
            <ns3:atemp>24.0</ns3:atemp>
            <ns3:hr>81</ns3:hr>
          </ns3:TrackPointExtension>
        </extensions>
      </trkpt>
      <trkpt lat="-22.12599537335336208343505859375" lon="166.43956191837787628173828125">
        <ele>27</ele>
        <time>2016-08-12T17:24:14.000Z</time>
        <extensions>
          <ns3:TrackPointExtension>
            <ns3:atemp>24.0</ns3:atemp>
            <ns3:hr>81</ns3:hr>
          </ns3:TrackPointExtension>
        </extensions>
      </trkpt>
      <trkpt lat="-22.1259962953627109527587890625" lon="166.43956183455884456634521484375">
        <ele>27</ele>
        <time>2016-08-12T17:24:15.000Z</time>
        <extensions>
          <ns3:TrackPointExtension>
            <ns3:atemp>24.0</ns3:atemp>
            <ns3:hr>81</ns3:hr>
          </ns3:TrackPointExtension>
        </extensions>
      </trkpt>
      <trkpt lat="-22.1259956248104572296142578125" lon="166.4395614154636859893798828125">
        <ele>27</ele>
        <time>2016-08-12T17:24:16.000Z</time>
        <extensions>
          <ns3:TrackPointExtension>
            <ns3:atemp>24.0</ns3:atemp>
            <ns3:hr>82</ns3:hr>
          </ns3:TrackPointExtension>
        </extensions>
      </trkpt>
      <trkpt lat="-22.125997133553028106689453125" lon="166.4395617507398128509521484375">
        <ele>27</ele>
        <time>2016-08-12T17:24:17.000Z</time>
        <extensions>
          <ns3:TrackPointExtension>
            <ns3:atemp>24.0</ns3:atemp>
            <ns3:hr>82</ns3:hr>
          </ns3:TrackPointExtension>
        </extensions>
      </trkpt>
      <trkpt lat="-22.1259959600865840911865234375" lon="166.4395640976727008819580078125">
        <ele>27.200000762939453125</ele>
        <time>2016-08-12T17:24:18.000Z</time>
        <extensions>
          <ns3:TrackPointExtension>
            <ns3:atemp>24.0</ns3:atemp>
            <ns3:hr>82</ns3:hr>
          </ns3:TrackPointExtension>
        </extensions>
      </trkpt>
      <trkpt lat="-22.1259902603924274444580078125" lon="166.43956183455884456634521484375">
        <ele>27.3999996185302734375</ele>
        <time>2016-08-12T17:24:19.000Z</time>
        <extensions>
          <ns3:TrackPointExtension>
            <ns3:atemp>24.0</ns3:atemp>
            <ns3:hr>82</ns3:hr>
          </ns3:TrackPointExtension>
        </extensions>
      </trkpt>
      <trkpt lat="-22.12598816491663455963134765625" lon="166.4395625889301300048828125">
        <ele>27.3999996185302734375</ele>
        <time>2016-08-12T17:24:20.000Z</time>
        <extensions>
          <ns3:TrackPointExtension>
            <ns3:atemp>24.0</ns3:atemp>
            <ns3:hr>82</ns3:hr>
          </ns3:TrackPointExtension>
        </extensions>
      </trkpt>
      <trkpt lat="-22.125988416373729705810546875" lon="166.43956191837787628173828125">
        <ele>27.200000762939453125</ele>
        <time>2016-08-12T17:24:21.000Z</time>
        <extensions>
          <ns3:TrackPointExtension>
            <ns3:atemp>24.0</ns3:atemp>
            <ns3:hr>83</ns3:hr>
          </ns3:TrackPointExtension>
        </extensions>
      </trkpt>
      <trkpt lat="-22.12598699145019054412841796875" lon="166.4395634271204471588134765625">
        <ele>27.200000762939453125</ele>
        <time>2016-08-12T17:24:22.000Z</time>
        <extensions>
          <ns3:TrackPointExtension>
            <ns3:atemp>24.0</ns3:atemp>
            <ns3:hr>83</ns3:hr>
          </ns3:TrackPointExtension>
        </extensions>
      </trkpt>
      <trkpt lat="-22.1259825490415096282958984375" lon="166.43956367857754230499267578125">
        <ele>27.200000762939453125</ele>
        <time>2016-08-12T17:24:23.000Z</time>
        <extensions>
          <ns3:TrackPointExtension>
            <ns3:atemp>24.0</ns3:atemp>
            <ns3:hr>84</ns3:hr>
          </ns3:TrackPointExtension>
        </extensions>
      </trkpt>
      <trkpt lat="-22.12598112411797046661376953125" lon="166.4395627565681934356689453125">
        <ele>27.3999996185302734375</ele>
        <time>2016-08-12T17:24:24.000Z</time>
        <extensions>
          <ns3:TrackPointExtension>
            <ns3:atemp>24.0</ns3:atemp>
            <ns3:hr>85</ns3:hr>
          </ns3:TrackPointExtension>
        </extensions>
      </trkpt>
      <trkpt lat="-22.12597844190895557403564453125" lon="166.43956317566335201263427734375">
        <ele>27.3999996185302734375</ele>
        <time>2016-08-12T17:24:25.000Z</time>
        <extensions>
          <ns3:TrackPointExtension>
            <ns3:atemp>24.0</ns3:atemp>
            <ns3:hr>86</ns3:hr>
          </ns3:TrackPointExtension>
        </extensions>
      </trkpt>
      <trkpt lat="-22.1259761787950992584228515625" lon="166.439563930034637451171875">
        <ele>27.3999996185302734375</ele>
        <time>2016-08-12T17:24:26.000Z</time>
        <extensions>
          <ns3:TrackPointExtension>
            <ns3:atemp>24.0</ns3:atemp>
            <ns3:hr>86</ns3:hr>
          </ns3:TrackPointExtension>
        </extensions>
      </trkpt>
      <trkpt lat="-22.12597575969994068145751953125" lon="166.43956501968204975128173828125">
        <ele>27.3999996185302734375</ele>
        <time>2016-08-12T17:24:27.000Z</time>
        <extensions>
          <ns3:TrackPointExtension>
            <ns3:atemp>24.0</ns3:atemp>
            <ns3:hr>87</ns3:hr>
          </ns3:TrackPointExtension>
        </extensions>
      </trkpt>
      <trkpt lat="-22.125971652567386627197265625" lon="166.43956485204398632049560546875">
        <ele>27.3999996185302734375</ele>
        <time>2016-08-12T17:24:28.000Z</time>
        <extensions>
          <ns3:TrackPointExtension>
            <ns3:atemp>24.0</ns3:atemp>
            <ns3:hr>87</ns3:hr>
          </ns3:TrackPointExtension>
        </extensions>
      </trkpt>
      <trkpt lat="-22.125962935388088226318359375" lon="166.4395674504339694976806640625">
        <ele>27.3999996185302734375</ele>
        <time>2016-08-12T17:24:29.000Z</time>
        <extensions>
          <ns3:TrackPointExtension>
            <ns3:atemp>24.0</ns3:atemp>
            <ns3:hr>86</ns3:hr>
          </ns3:TrackPointExtension>
        </extensions>
      </trkpt>
      <trkpt lat="-22.12594927288591861724853515625" lon="166.4395711384713649749755859375">
        <ele>27.3999996185302734375</ele>
        <time>2016-08-12T17:24:30.000Z</time>
        <extensions>
          <ns3:TrackPointExtension>
            <ns3:atemp>24.0</ns3:atemp>
            <ns3:hr>86</ns3:hr>
          </ns3:TrackPointExtension>
        </extensions>
      </trkpt>
      <trkpt lat="-22.1259391307830810546875" lon="166.43957306630909442901611328125">
        <ele>27.3999996185302734375</ele>
        <time>2016-08-12T17:24:31.000Z</time>
        <extensions>
          <ns3:TrackPointExtension>
            <ns3:atemp>24.0</ns3:atemp>
            <ns3:hr>86</ns3:hr>
          </ns3:TrackPointExtension>
        </extensions>
      </trkpt>
      <trkpt lat="-22.1259278990328311920166015625" lon="166.43957206048071384429931640625">
        <ele>27.6000003814697265625</ele>
        <time>2016-08-12T17:24:32.000Z</time>
        <extensions>
          <ns3:TrackPointExtension>
            <ns3:atemp>24.0</ns3:atemp>
            <ns3:hr>87</ns3:hr>
          </ns3:TrackPointExtension>
        </extensions>
      </trkpt>
      <trkpt lat="-22.1259168349206447601318359375" lon="166.43957273103296756744384765625">
        <ele>27.6000003814697265625</ele>
        <time>2016-08-12T17:24:33.000Z</time>
        <extensions>
          <ns3:TrackPointExtension>
            <ns3:atemp>24.0</ns3:atemp>
            <ns3:hr>88</ns3:hr>
          </ns3:TrackPointExtension>
        </extensions>
      </trkpt>
      <trkpt lat="-22.1259057708084583282470703125" lon="166.4395728148519992828369140625">
        <ele>27.799999237060546875</ele>
        <time>2016-08-12T17:24:34.000Z</time>
        <extensions>
          <ns3:TrackPointExtension>
            <ns3:atemp>24.0</ns3:atemp>
            <ns3:hr>90</ns3:hr>
          </ns3:TrackPointExtension>
        </extensions>
      </trkpt>
      <trkpt lat="-22.12589445523917675018310546875" lon="166.4395759999752044677734375">
        <ele>27.799999237060546875</ele>
        <time>2016-08-12T17:24:35.000Z</time>
        <extensions>
          <ns3:TrackPointExtension>
            <ns3:atemp>24.0</ns3:atemp>
            <ns3:hr>91</ns3:hr>
          </ns3:TrackPointExtension>
        </extensions>
      </trkpt>
      <trkpt lat="-22.1258841454982757568359375" lon="166.4395795203745365142822265625">
        <ele>27.799999237060546875</ele>
        <time>2016-08-12T17:24:36.000Z</time>
        <extensions>
          <ns3:TrackPointExtension>
            <ns3:atemp>24.0</ns3:atemp>
            <ns3:hr>92</ns3:hr>
          </ns3:TrackPointExtension>
        </extensions>
      </trkpt>
      <trkpt lat="-22.1258729137480258941650390625" lon="166.43958178348839282989501953125">
        <ele>28</ele>
        <time>2016-08-12T17:24:37.000Z</time>
        <extensions>
          <ns3:TrackPointExtension>
            <ns3:atemp>24.0</ns3:atemp>
            <ns3:hr>93</ns3:hr>
          </ns3:TrackPointExtension>
        </extensions>
      </trkpt>
      <trkpt lat="-22.12585799396038055419921875" lon="166.439583711326122283935546875">
        <ele>28</ele>
        <time>2016-08-12T17:24:38.000Z</time>
        <extensions>
          <ns3:TrackPointExtension>
            <ns3:atemp>24.0</ns3:atemp>
            <ns3:hr>93</ns3:hr>
          </ns3:TrackPointExtension>
        </extensions>
      </trkpt>
      <trkpt lat="-22.12584299035370349884033203125" lon="166.4395832084119319915771484375">
        <ele>28</ele>
        <time>2016-08-12T17:24:39.000Z</time>
        <extensions>
          <ns3:TrackPointExtension>
            <ns3:atemp>24.0</ns3:atemp>
            <ns3:hr>93</ns3:hr>
          </ns3:TrackPointExtension>
        </extensions>
      </trkpt>
      <trkpt lat="-22.12582890875637531280517578125" lon="166.439586393535137176513671875">
        <ele>28.200000762939453125</ele>
        <time>2016-08-12T17:24:40.000Z</time>
        <extensions>
          <ns3:TrackPointExtension>
            <ns3:atemp>24.0</ns3:atemp>
            <ns3:hr>93</ns3:hr>
          </ns3:TrackPointExtension>
        </extensions>
      </trkpt>
      <trkpt lat="-22.12581641972064971923828125" lon="166.43958698026835918426513671875">
        <ele>28.200000762939453125</ele>
        <time>2016-08-12T17:24:41.000Z</time>
        <extensions>
          <ns3:TrackPointExtension>
            <ns3:atemp>24.0</ns3:atemp>
            <ns3:hr>93</ns3:hr>
          </ns3:TrackPointExtension>
        </extensions>
      </trkpt>
      <trkpt lat="-22.125802002847194671630859375" lon="166.439588405191898345947265625">
        <ele>28.200000762939453125</ele>
        <time>2016-08-12T17:24:42.000Z</time>
        <extensions>
          <ns3:TrackPointExtension>
            <ns3:atemp>24.0</ns3:atemp>
            <ns3:hr>93</ns3:hr>
          </ns3:TrackPointExtension>
        </extensions>
      </trkpt>
      <trkpt lat="-22.1257937885820865631103515625" lon="166.43959234468638896942138671875">
        <ele>28.3999996185302734375</ele>
        <time>2016-08-12T17:24:43.000Z</time>
        <extensions>
          <ns3:TrackPointExtension>
            <ns3:atemp>24.0</ns3:atemp>
            <ns3:hr>93</ns3:hr>
          </ns3:TrackPointExtension>
        </extensions>
      </trkpt>
      <trkpt lat="-22.1257860772311687469482421875" lon="166.43959653563797473907470703125">
        <ele>28.3999996185302734375</ele>
        <time>2016-08-12T17:24:44.000Z</time>
        <extensions>
          <ns3:TrackPointExtension>
            <ns3:atemp>24.0</ns3:atemp>
            <ns3:hr>94</ns3:hr>
          </ns3:TrackPointExtension>
        </extensions>
      </trkpt>
      <trkpt lat="-22.125770151615142822265625" lon="166.43959955312311649322509765625">
        <ele>28.6000003814697265625</ele>
        <time>2016-08-12T17:24:45.000Z</time>
        <extensions>
          <ns3:TrackPointExtension>
            <ns3:atemp>24.0</ns3:atemp>
            <ns3:hr>94</ns3:hr>
          </ns3:TrackPointExtension>
        </extensions>
      </trkpt>
      <trkpt lat="-22.12576101534068584442138671875" lon="166.43960081040859222412109375">
        <ele>28.799999237060546875</ele>
        <time>2016-08-12T17:24:46.000Z</time>
        <extensions>
          <ns3:TrackPointExtension>
            <ns3:atemp>24.0</ns3:atemp>
            <ns3:hr>95</ns3:hr>
          </ns3:TrackPointExtension>
        </extensions>
      </trkpt>
      <trkpt lat="-22.1257481910288333892822265625" lon="166.43960324116051197052001953125">
        <ele>28.799999237060546875</ele>
        <time>2016-08-12T17:24:47.000Z</time>
        <extensions>
          <ns3:TrackPointExtension>
            <ns3:atemp>24.0</ns3:atemp>
            <ns3:hr>95</ns3:hr>
          </ns3:TrackPointExtension>
        </extensions>
      </trkpt>
      <trkpt lat="-22.12573402561247348785400390625" lon="166.439607180655002593994140625">
        <ele>28.799999237060546875</ele>
        <time>2016-08-12T17:24:48.000Z</time>
        <extensions>
          <ns3:TrackPointExtension>
            <ns3:atemp>24.0</ns3:atemp>
            <ns3:hr>96</ns3:hr>
          </ns3:TrackPointExtension>
        </extensions>
      </trkpt>
      <trkpt lat="-22.12571994401514530181884765625" lon="166.4396100305020809173583984375">
        <ele>28.799999237060546875</ele>
        <time>2016-08-12T17:24:49.000Z</time>
        <extensions>
          <ns3:TrackPointExtension>
            <ns3:atemp>24.0</ns3:atemp>
            <ns3:hr>96</ns3:hr>
          </ns3:TrackPointExtension>
        </extensions>
      </trkpt>
      <trkpt lat="-22.125706784427165985107421875" lon="166.43961296416819095611572265625">
        <ele>29</ele>
        <time>2016-08-12T17:24:50.000Z</time>
        <extensions>
          <ns3:TrackPointExtension>
            <ns3:atemp>24.0</ns3:atemp>
            <ns3:hr>96</ns3:hr>
          </ns3:TrackPointExtension>
        </extensions>
      </trkpt>
      <trkpt lat="-22.125695385038852691650390625" lon="166.4396123774349689483642578125">
        <ele>29</ele>
        <time>2016-08-12T17:24:51.000Z</time>
        <extensions>
          <ns3:TrackPointExtension>
            <ns3:atemp>24.0</ns3:atemp>
            <ns3:hr>96</ns3:hr>
          </ns3:TrackPointExtension>
        </extensions>
      </trkpt>
      <trkpt lat="-22.12568339891731739044189453125" lon="166.43961489200592041015625">
        <ele>29.200000762939453125</ele>
        <time>2016-08-12T17:24:52.000Z</time>
        <extensions>
          <ns3:TrackPointExtension>
            <ns3:atemp>24.0</ns3:atemp>
            <ns3:hr>97</ns3:hr>
          </ns3:TrackPointExtension>
        </extensions>
      </trkpt>
      <trkpt lat="-22.12567099370062351226806640625" lon="166.439617574214935302734375">
        <ele>29.3999996185302734375</ele>
        <time>2016-08-12T17:24:53.000Z</time>
        <extensions>
          <ns3:TrackPointExtension>
            <ns3:atemp>24.0</ns3:atemp>
            <ns3:hr>97</ns3:hr>
          </ns3:TrackPointExtension>
        </extensions>
      </trkpt>
      <trkpt lat="-22.1256593428552150726318359375" lon="166.4396221004426479339599609375">
        <ele>29.6000003814697265625</ele>
        <time>2016-08-12T17:24:54.000Z</time>
        <extensions>
          <ns3:TrackPointExtension>
            <ns3:atemp>24.0</ns3:atemp>
            <ns3:hr>97</ns3:hr>
          </ns3:TrackPointExtension>
        </extensions>
      </trkpt>
      <trkpt lat="-22.12564945220947265625" lon="166.43962495028972625732421875">
        <ele>29.799999237060546875</ele>
        <time>2016-08-12T17:24:55.000Z</time>
        <extensions>
          <ns3:TrackPointExtension>
            <ns3:atemp>24.0</ns3:atemp>
            <ns3:hr>98</ns3:hr>
          </ns3:TrackPointExtension>
        </extensions>
      </trkpt>
      <trkpt lat="-22.1256355382502079010009765625" lon="166.43962838687002658843994140625">
        <ele>30</ele>
        <time>2016-08-12T17:24:56.000Z</time>
        <extensions>
          <ns3:TrackPointExtension>
            <ns3:atemp>24.0</ns3:atemp>
            <ns3:hr>98</ns3:hr>
          </ns3:TrackPointExtension>
        </extensions>
      </trkpt>
      <trkpt lat="-22.12562539614737033843994140625" lon="166.43963165581226348876953125">
        <ele>30</ele>
        <time>2016-08-12T17:24:57.000Z</time>
        <extensions>
          <ns3:TrackPointExtension>
            <ns3:atemp>24.0</ns3:atemp>
            <ns3:hr>99</ns3:hr>
          </ns3:TrackPointExtension>
        </extensions>
      </trkpt>
      <trkpt lat="-22.12560988962650299072265625" lon="166.43963341601192951202392578125">
        <ele>30</ele>
        <time>2016-08-12T17:24:58.000Z</time>
        <extensions>
          <ns3:TrackPointExtension>
            <ns3:atemp>24.0</ns3:atemp>
            <ns3:hr>100</ns3:hr>
          </ns3:TrackPointExtension>
        </extensions>
      </trkpt>
      <trkpt lat="-22.1255969814956188201904296875" lon="166.43963526003062725067138671875">
        <ele>30</ele>
        <time>2016-08-12T17:24:59.000Z</time>
        <extensions>
          <ns3:TrackPointExtension>
            <ns3:atemp>24.0</ns3:atemp>
            <ns3:hr>100</ns3:hr>
          </ns3:TrackPointExtension>
        </extensions>
      </trkpt>
      <trkpt lat="-22.125582396984100341796875" lon="166.43963702023029327392578125">
        <ele>30</ele>
        <time>2016-08-12T17:25:00.000Z</time>
        <extensions>
          <ns3:TrackPointExtension>
            <ns3:atemp>24.0</ns3:atemp>
            <ns3:hr>100</ns3:hr>
          </ns3:TrackPointExtension>
        </extensions>
      </trkpt>
      <trkpt lat="-22.12556806392967700958251953125" lon="166.4396368525922298431396484375">
        <ele>30</ele>
        <time>2016-08-12T17:25:01.000Z</time>
        <extensions>
          <ns3:TrackPointExtension>
            <ns3:atemp>24.0</ns3:atemp>
            <ns3:hr>100</ns3:hr>
          </ns3:TrackPointExtension>
        </extensions>
      </trkpt>
      <trkpt lat="-22.1255547367036342620849609375" lon="166.43963727168738842010498046875">
        <ele>30.200000762939453125</ele>
        <time>2016-08-12T17:25:02.000Z</time>
        <extensions>
          <ns3:TrackPointExtension>
            <ns3:atemp>24.0</ns3:atemp>
            <ns3:hr>101</ns3:hr>
          </ns3:TrackPointExtension>
        </extensions>
      </trkpt>
      <trkpt lat="-22.125538475811481475830078125" lon="166.4396385289728641510009765625">
        <ele>30.200000762939453125</ele>
        <time>2016-08-12T17:25:03.000Z</time>
        <extensions>
          <ns3:TrackPointExtension>
            <ns3:atemp>24.0</ns3:atemp>
            <ns3:hr>101</ns3:hr>
          </ns3:TrackPointExtension>
        </extensions>
      </trkpt>
      <trkpt lat="-22.12552514858543872833251953125" lon="166.43963894806802272796630859375">
        <ele>30.200000762939453125</ele>
        <time>2016-08-12T17:25:04.000Z</time>
        <extensions>
          <ns3:TrackPointExtension>
            <ns3:atemp>24.0</ns3:atemp>
            <ns3:hr>101</ns3:hr>
          </ns3:TrackPointExtension>
        </extensions>
      </trkpt>
      <trkpt lat="-22.1255128271877765655517578125" lon="166.43964129500091075897216796875">
        <ele>30.3999996185302734375</ele>
        <time>2016-08-12T17:25:05.000Z</time>
        <extensions>
          <ns3:TrackPointExtension>
            <ns3:atemp>24.0</ns3:atemp>
            <ns3:hr>101</ns3:hr>
          </ns3:TrackPointExtension>
        </extensions>
      </trkpt>
      <trkpt lat="-22.1255037747323513031005859375" lon="166.4396442286670207977294921875">
        <ele>30.6000003814697265625</ele>
        <time>2016-08-12T17:25:06.000Z</time>
        <extensions>
          <ns3:TrackPointExtension>
            <ns3:atemp>24.0</ns3:atemp>
            <ns3:hr>102</ns3:hr>
          </ns3:TrackPointExtension>
        </extensions>
      </trkpt>
      <trkpt lat="-22.12549195624887943267822265625" lon="166.43964531831443309783935546875">
        <ele>30.799999237060546875</ele>
        <time>2016-08-12T17:25:07.000Z</time>
        <extensions>
          <ns3:TrackPointExtension>
            <ns3:atemp>24.0</ns3:atemp>
            <ns3:hr>102</ns3:hr>
          </ns3:TrackPointExtension>
        </extensions>
      </trkpt>
      <trkpt lat="-22.125480808317661285400390625" lon="166.439648084342479705810546875">
        <ele>31</ele>
        <time>2016-08-12T17:25:08.000Z</time>
        <extensions>
          <ns3:TrackPointExtension>
            <ns3:atemp>24.0</ns3:atemp>
            <ns3:hr>102</ns3:hr>
          </ns3:TrackPointExtension>
        </extensions>
      </trkpt>
      <trkpt lat="-22.12547049857676029205322265625" lon="166.43965152092278003692626953125">
        <ele>31.200000762939453125</ele>
        <time>2016-08-12T17:25:09.000Z</time>
        <extensions>
          <ns3:TrackPointExtension>
            <ns3:atemp>24.0</ns3:atemp>
            <ns3:hr>102</ns3:hr>
          </ns3:TrackPointExtension>
        </extensions>
      </trkpt>
      <trkpt lat="-22.12545809336006641387939453125" lon="166.43965403549373149871826171875">
        <ele>31.3999996185302734375</ele>
        <time>2016-08-12T17:25:10.000Z</time>
        <extensions>
          <ns3:TrackPointExtension>
            <ns3:atemp>24.0</ns3:atemp>
            <ns3:hr>102</ns3:hr>
          </ns3:TrackPointExtension>
        </extensions>
      </trkpt>
      <trkpt lat="-22.1254464425146579742431640625" lon="166.439656130969524383544921875">
        <ele>31.3999996185302734375</ele>
        <time>2016-08-12T17:25:11.000Z</time>
        <extensions>
          <ns3:TrackPointExtension>
            <ns3:atemp>24.0</ns3:atemp>
            <ns3:hr>102</ns3:hr>
          </ns3:TrackPointExtension>
        </extensions>
      </trkpt>
      <trkpt lat="-22.12543596513569355010986328125" lon="166.4396573044359683990478515625">
        <ele>31.6000003814697265625</ele>
        <time>2016-08-12T17:25:12.000Z</time>
        <extensions>
          <ns3:TrackPointExtension>
            <ns3:atemp>24.0</ns3:atemp>
            <ns3:hr>101</ns3:hr>
          </ns3:TrackPointExtension>
        </extensions>
      </trkpt>
      <trkpt lat="-22.12542481720447540283203125" lon="166.43965990282595157623291015625">
        <ele>31.799999237060546875</ele>
        <time>2016-08-12T17:25:13.000Z</time>
        <extensions>
          <ns3:TrackPointExtension>
            <ns3:atemp>24.0</ns3:atemp>
            <ns3:hr>101</ns3:hr>
          </ns3:TrackPointExtension>
        </extensions>
      </trkpt>
      <trkpt lat="-22.12541601620614528656005859375" lon="166.4396630041301250457763671875">
        <ele>31.799999237060546875</ele>
        <time>2016-08-12T17:25:14.000Z</time>
        <extensions>
          <ns3:TrackPointExtension>
            <ns3:atemp>24.0</ns3:atemp>
            <ns3:hr>101</ns3:hr>
          </ns3:TrackPointExtension>
        </extensions>
      </trkpt>
      <trkpt lat="-22.1254021860659122467041015625" lon="166.4396671950817108154296875">
        <ele>32</ele>
        <time>2016-08-12T17:25:15.000Z</time>
        <extensions>
          <ns3:TrackPointExtension>
            <ns3:atemp>24.0</ns3:atemp>
            <ns3:hr>102</ns3:hr>
          </ns3:TrackPointExtension>
        </extensions>
      </trkpt>
      <trkpt lat="-22.12539204396307468414306640625" lon="166.43966862000524997711181640625">
        <ele>32</ele>
        <time>2016-08-12T17:25:16.000Z</time>
        <extensions>
          <ns3:TrackPointExtension>
            <ns3:atemp>24.0</ns3:atemp>
            <ns3:hr>102</ns3:hr>
          </ns3:TrackPointExtension>
        </extensions>
      </trkpt>
      <trkpt lat="-22.125376872718334197998046875" lon="166.43967281095683574676513671875">
        <ele>32.200000762939453125</ele>
        <time>2016-08-12T17:25:17.000Z</time>
        <extensions>
          <ns3:TrackPointExtension>
            <ns3:atemp>24.0</ns3:atemp>
            <ns3:hr>103</ns3:hr>
          </ns3:TrackPointExtension>
        </extensions>
      </trkpt>
      <trkpt lat="-22.12535440921783447265625" lon="166.4396779239177703857421875">
        <ele>32.200000762939453125</ele>
        <time>2016-08-12T17:25:19.000Z</time>
        <extensions>
          <ns3:TrackPointExtension>
            <ns3:atemp>23.0</ns3:atemp>
            <ns3:hr>103</ns3:hr>
          </ns3:TrackPointExtension>
        </extensions>
      </trkpt>
      <trkpt lat="-22.1253423392772674560546875" lon="166.43968370743095874786376953125">
        <ele>32.200000762939453125</ele>
        <time>2016-08-12T17:25:20.000Z</time>
        <extensions>
          <ns3:TrackPointExtension>
            <ns3:atemp>23.0</ns3:atemp>
            <ns3:hr>105</ns3:hr>
          </ns3:TrackPointExtension>
        </extensions>
      </trkpt>
      <trkpt lat="-22.12532959878444671630859375" lon="166.4396874792873859405517578125">
        <ele>32.40000152587890625</ele>
        <time>2016-08-12T17:25:21.000Z</time>
        <extensions>
          <ns3:TrackPointExtension>
            <ns3:atemp>23.0</ns3:atemp>
            <ns3:hr>105</ns3:hr>
          </ns3:TrackPointExtension>
        </extensions>
      </trkpt>
      <trkpt lat="-22.12531627155840396881103515625" lon="166.4396904967725276947021484375">
        <ele>32.40000152587890625</ele>
        <time>2016-08-12T17:25:22.000Z</time>
        <extensions>
          <ns3:TrackPointExtension>
            <ns3:atemp>23.0</ns3:atemp>
            <ns3:hr>105</ns3:hr>
          </ns3:TrackPointExtension>
        </extensions>
      </trkpt>
      <trkpt lat="-22.1253039501607418060302734375" lon="166.4396948553621768951416015625">
        <ele>32.40000152587890625</ele>
        <time>2016-08-12T17:25:23.000Z</time>
        <extensions>
          <ns3:TrackPointExtension>
            <ns3:atemp>23.0</ns3:atemp>
            <ns3:hr>106</ns3:hr>
          </ns3:TrackPointExtension>
        </extensions>
      </trkpt>
      <trkpt lat="-22.12529364041984081268310546875" lon="166.4396978728473186492919921875">
        <ele>32.59999847412109375</ele>
        <time>2016-08-12T17:25:24.000Z</time>
        <extensions>
          <ns3:TrackPointExtension>
            <ns3:atemp>23.0</ns3:atemp>
            <ns3:hr>106</ns3:hr>
          </ns3:TrackPointExtension>
        </extensions>
      </trkpt>
      <trkpt lat="-22.125283665955066680908203125" lon="166.43970047123730182647705078125">
        <ele>32.799999237060546875</ele>
        <time>2016-08-12T17:25:25.000Z</time>
        <extensions>
          <ns3:TrackPointExtension>
            <ns3:atemp>23.0</ns3:atemp>
            <ns3:hr>106</ns3:hr>
          </ns3:TrackPointExtension>
        </extensions>
      </trkpt>
      <trkpt lat="-22.12527251802384853363037109375" lon="166.43970617093145847320556640625">
        <ele>32.799999237060546875</ele>
        <time>2016-08-12T17:25:26.000Z</time>
        <extensions>
          <ns3:TrackPointExtension>
            <ns3:atemp>23.0</ns3:atemp>
            <ns3:hr>106</ns3:hr>
          </ns3:TrackPointExtension>
        </extensions>
      </trkpt>
      <trkpt lat="-22.12526346556842327117919921875" lon="166.43971212208271026611328125">
        <ele>33</ele>
        <time>2016-08-12T17:25:27.000Z</time>
        <extensions>
          <ns3:TrackPointExtension>
            <ns3:atemp>23.0</ns3:atemp>
            <ns3:hr>106</ns3:hr>
          </ns3:TrackPointExtension>
        </extensions>
      </trkpt>
      <trkpt lat="-22.12525323964655399322509765625" lon="166.4397127926349639892578125">
        <ele>33.200000762939453125</ele>
        <time>2016-08-12T17:25:28.000Z</time>
        <extensions>
          <ns3:TrackPointExtension>
            <ns3:atemp>23.0</ns3:atemp>
            <ns3:hr>107</ns3:hr>
          </ns3:TrackPointExtension>
        </extensions>
      </trkpt>
      <trkpt lat="-22.12524284608662128448486328125" lon="166.4397166483104228973388671875">
        <ele>33.40000152587890625</ele>
        <time>2016-08-12T17:25:29.000Z</time>
        <extensions>
          <ns3:TrackPointExtension>
            <ns3:atemp>23.0</ns3:atemp>
            <ns3:hr>108</ns3:hr>
          </ns3:TrackPointExtension>
        </extensions>
      </trkpt>
      <trkpt lat="-22.12523178197443485260009765625" lon="166.43971941433846950531005859375">
        <ele>33.40000152587890625</ele>
        <time>2016-08-12T17:25:30.000Z</time>
        <extensions>
          <ns3:TrackPointExtension>
            <ns3:atemp>23.0</ns3:atemp>
            <ns3:hr>108</ns3:hr>
          </ns3:TrackPointExtension>
        </extensions>
      </trkpt>
      <trkpt lat="-22.1252189576625823974609375" lon="166.4397154748439788818359375">
        <ele>33.59999847412109375</ele>
        <time>2016-08-12T17:25:31.000Z</time>
        <extensions>
          <ns3:TrackPointExtension>
            <ns3:atemp>23.0</ns3:atemp>
            <ns3:hr>108</ns3:hr>
          </ns3:TrackPointExtension>
        </extensions>
      </trkpt>
      <trkpt lat="-22.12520730681717395782470703125" lon="166.439714469015598297119140625">
        <ele>33.799999237060546875</ele>
        <time>2016-08-12T17:25:32.000Z</time>
        <extensions>
          <ns3:TrackPointExtension>
            <ns3:atemp>23.0</ns3:atemp>
            <ns3:hr>109</ns3:hr>
          </ns3:TrackPointExtension>
        </extensions>
      </trkpt>
      <trkpt lat="-22.1251948177814483642578125" lon="166.43971438519656658172607421875">
        <ele>34.200000762939453125</ele>
        <time>2016-08-12T17:25:33.000Z</time>
        <extensions>
          <ns3:TrackPointExtension>
            <ns3:atemp>23.0</ns3:atemp>
            <ns3:hr>110</ns3:hr>
          </ns3:TrackPointExtension>
        </extensions>
      </trkpt>
      <trkpt lat="-22.12518417276442050933837890625" lon="166.43971438519656658172607421875">
        <ele>34.40000152587890625</ele>
        <time>2016-08-12T17:25:34.000Z</time>
        <extensions>
          <ns3:TrackPointExtension>
            <ns3:atemp>23.0</ns3:atemp>
            <ns3:hr>110</ns3:hr>
          </ns3:TrackPointExtension>
        </extensions>
      </trkpt>
      <trkpt lat="-22.125173695385456085205078125" lon="166.43971337936818599700927734375">
        <ele>34.799999237060546875</ele>
        <time>2016-08-12T17:25:35.000Z</time>
        <extensions>
          <ns3:TrackPointExtension>
            <ns3:atemp>23.0</ns3:atemp>
            <ns3:hr>111</ns3:hr>
          </ns3:TrackPointExtension>
        </extensions>
      </trkpt>
      <trkpt lat="-22.125162295997142791748046875" lon="166.4397139661014080047607421875">
        <ele>35</ele>
        <time>2016-08-12T17:25:36.000Z</time>
        <extensions>
          <ns3:TrackPointExtension>
            <ns3:atemp>23.0</ns3:atemp>
            <ns3:hr>111</ns3:hr>
          </ns3:TrackPointExtension>
        </extensions>
      </trkpt>
      <trkpt lat="-22.1251507289707660675048828125" lon="166.439716480672359466552734375">
        <ele>35.40000152587890625</ele>
        <time>2016-08-12T17:25:37.000Z</time>
        <extensions>
          <ns3:TrackPointExtension>
            <ns3:atemp>23.0</ns3:atemp>
            <ns3:hr>111</ns3:hr>
          </ns3:TrackPointExtension>
        </extensions>
      </trkpt>
      <trkpt lat="-22.12513924576342105865478515625" lon="166.43971589393913745880126953125">
        <ele>35.59999847412109375</ele>
        <time>2016-08-12T17:25:38.000Z</time>
        <extensions>
          <ns3:TrackPointExtension>
            <ns3:atemp>23.0</ns3:atemp>
            <ns3:hr>112</ns3:hr>
          </ns3:TrackPointExtension>
        </extensions>
      </trkpt>
      <trkpt lat="-22.12512834928929805755615234375" lon="166.4397163130342960357666015625">
        <ele>35.799999237060546875</ele>
        <time>2016-08-12T17:25:39.000Z</time>
        <extensions>
          <ns3:TrackPointExtension>
            <ns3:atemp>23.0</ns3:atemp>
            <ns3:hr>113</ns3:hr>
          </ns3:TrackPointExtension>
        </extensions>
      </trkpt>
      <trkpt lat="-22.12511544115841388702392578125" lon="166.439716815948486328125">
        <ele>36</ele>
        <time>2016-08-12T17:25:40.000Z</time>
        <extensions>
          <ns3:TrackPointExtension>
            <ns3:atemp>23.0</ns3:atemp>
            <ns3:hr>113</ns3:hr>
          </ns3:TrackPointExtension>
        </extensions>
      </trkpt>
      <trkpt lat="-22.12510320357978343963623046875" lon="166.43971748650074005126953125">
        <ele>36</ele>
        <time>2016-08-12T17:25:41.000Z</time>
        <extensions>
          <ns3:TrackPointExtension>
            <ns3:atemp>23.0</ns3:atemp>
            <ns3:hr>113</ns3:hr>
          </ns3:TrackPointExtension>
        </extensions>
      </trkpt>
      <trkpt lat="-22.12509088218212127685546875" lon="166.43971748650074005126953125">
        <ele>36.200000762939453125</ele>
        <time>2016-08-12T17:25:42.000Z</time>
        <extensions>
          <ns3:TrackPointExtension>
            <ns3:atemp>23.0</ns3:atemp>
            <ns3:hr>113</ns3:hr>
          </ns3:TrackPointExtension>
        </extensions>
      </trkpt>
      <trkpt lat="-22.12507839314639568328857421875" lon="166.4397166483104228973388671875">
        <ele>36.200000762939453125</ele>
        <time>2016-08-12T17:25:43.000Z</time>
        <extensions>
          <ns3:TrackPointExtension>
            <ns3:atemp>23.0</ns3:atemp>
            <ns3:hr>114</ns3:hr>
          </ns3:TrackPointExtension>
        </extensions>
      </trkpt>
      <trkpt lat="-22.125067077577114105224609375" lon="166.4397153072059154510498046875">
        <ele>36.200000762939453125</ele>
        <time>2016-08-12T17:25:44.000Z</time>
        <extensions>
          <ns3:TrackPointExtension>
            <ns3:atemp>23.0</ns3:atemp>
            <ns3:hr>114</ns3:hr>
          </ns3:TrackPointExtension>
        </extensions>
      </trkpt>
      <trkpt lat="-22.1250555105507373809814453125" lon="166.43971337936818599700927734375">
        <ele>36.40000152587890625</ele>
        <time>2016-08-12T17:25:45.000Z</time>
        <extensions>
          <ns3:TrackPointExtension>
            <ns3:atemp>23.0</ns3:atemp>
            <ns3:hr>114</ns3:hr>
          </ns3:TrackPointExtension>
        </extensions>
      </trkpt>
      <trkpt lat="-22.12504369206726551055908203125" lon="166.4397116191685199737548828125">
        <ele>36.799999237060546875</ele>
        <time>2016-08-12T17:25:46.000Z</time>
        <extensions>
          <ns3:TrackPointExtension>
            <ns3:atemp>23.0</ns3:atemp>
            <ns3:hr>114</ns3:hr>
          </ns3:TrackPointExtension>
        </extensions>
      </trkpt>
      <trkpt lat="-22.12503899820148944854736328125" lon="166.43970952369272708892822265625">
        <ele>36.799999237060546875</ele>
        <time>2016-08-12T17:25:47.000Z</time>
        <extensions>
          <ns3:TrackPointExtension>
            <ns3:atemp>23.0</ns3:atemp>
            <ns3:hr>115</ns3:hr>
          </ns3:TrackPointExtension>
        </extensions>
      </trkpt>
      <trkpt lat="-22.1250377409160137176513671875" lon="166.43971220590174198150634765625">
        <ele>37.200000762939453125</ele>
        <time>2016-08-12T17:25:48.000Z</time>
        <extensions>
          <ns3:TrackPointExtension>
            <ns3:atemp>23.0</ns3:atemp>
            <ns3:hr>115</ns3:hr>
          </ns3:TrackPointExtension>
        </extensions>
      </trkpt>
      <trkpt lat="-22.12503430433571338653564453125" lon="166.439711786806583404541015625">
        <ele>37.40000152587890625</ele>
        <time>2016-08-12T17:25:49.000Z</time>
        <extensions>
          <ns3:TrackPointExtension>
            <ns3:atemp>23.0</ns3:atemp>
            <ns3:hr>115</ns3:hr>
          </ns3:TrackPointExtension>
        </extensions>
      </trkpt>
      <trkpt lat="-22.12503254413604736328125" lon="166.43970835022628307342529296875">
        <ele>37.59999847412109375</ele>
        <time>2016-08-12T17:25:50.000Z</time>
        <extensions>
          <ns3:TrackPointExtension>
            <ns3:atemp>23.0</ns3:atemp>
            <ns3:hr>115</ns3:hr>
          </ns3:TrackPointExtension>
        </extensions>
      </trkpt>
      <trkpt lat="-22.12502407841384410858154296875" lon="166.43970902077853679656982421875">
        <ele>37.59999847412109375</ele>
        <time>2016-08-12T17:25:52.000Z</time>
        <extensions>
          <ns3:TrackPointExtension>
            <ns3:atemp>23.0</ns3:atemp>
            <ns3:hr>113</ns3:hr>
          </ns3:TrackPointExtension>
        </extensions>
      </trkpt>
      <trkpt lat="-22.12500932626426219940185546875" lon="166.43971052952110767364501953125">
        <ele>37.59999847412109375</ele>
        <time>2016-08-12T17:25:53.000Z</time>
        <extensions>
          <ns3:TrackPointExtension>
            <ns3:atemp>23.0</ns3:atemp>
            <ns3:hr>111</ns3:hr>
          </ns3:TrackPointExtension>
        </extensions>
      </trkpt>
      <trkpt lat="-22.1249975077807903289794921875" lon="166.43971153534948825836181640625">
        <ele>37.59999847412109375</ele>
        <time>2016-08-12T17:25:54.000Z</time>
        <extensions>
          <ns3:TrackPointExtension>
            <ns3:atemp>23.0</ns3:atemp>
            <ns3:hr>110</ns3:hr>
          </ns3:TrackPointExtension>
        </extensions>
      </trkpt>
      <trkpt lat="-22.124984264373779296875" lon="166.4397101104259490966796875">
        <ele>37.799999237060546875</ele>
        <time>2016-08-12T17:25:55.000Z</time>
        <extensions>
          <ns3:TrackPointExtension>
            <ns3:atemp>23.0</ns3:atemp>
            <ns3:hr>110</ns3:hr>
          </ns3:TrackPointExtension>
        </extensions>
      </trkpt>
      <trkpt lat="-22.12497479282319545745849609375" lon="166.4397052489221096038818359375">
        <ele>38</ele>
        <time>2016-08-12T17:25:56.000Z</time>
        <extensions>
          <ns3:TrackPointExtension>
            <ns3:atemp>23.0</ns3:atemp>
            <ns3:hr>110</ns3:hr>
          </ns3:TrackPointExtension>
        </extensions>
      </trkpt>
      <trkpt lat="-22.12496104650199413299560546875" lon="166.43970164470374584197998046875">
        <ele>38.200000762939453125</ele>
        <time>2016-08-12T17:25:57.000Z</time>
        <extensions>
          <ns3:TrackPointExtension>
            <ns3:atemp>23.0</ns3:atemp>
            <ns3:hr>110</ns3:hr>
          </ns3:TrackPointExtension>
        </extensions>
      </trkpt>
      <trkpt lat="-22.1249319612979888916015625" lon="166.43969812430441379547119140625">
        <ele>38.40000152587890625</ele>
        <time>2016-08-12T17:25:58.000Z</time>
        <extensions>
          <ns3:TrackPointExtension>
            <ns3:atemp>23.0</ns3:atemp>
            <ns3:hr>110</ns3:hr>
          </ns3:TrackPointExtension>
        </extensions>
      </trkpt>
      <trkpt lat="-22.12491679005324840545654296875" lon="166.439695693552494049072265625">
        <ele>38.59999847412109375</ele>
        <time>2016-08-12T17:25:59.000Z</time>
        <extensions>
          <ns3:TrackPointExtension>
            <ns3:atemp>23.0</ns3:atemp>
            <ns3:hr>110</ns3:hr>
          </ns3:TrackPointExtension>
        </extensions>
      </trkpt>
      <trkpt lat="-22.124904803931713104248046875" lon="166.43969410099089145660400390625">
        <ele>38.799999237060546875</ele>
        <time>2016-08-12T17:26:00.000Z</time>
        <extensions>
          <ns3:TrackPointExtension>
            <ns3:atemp>23.0</ns3:atemp>
            <ns3:hr>110</ns3:hr>
          </ns3:TrackPointExtension>
        </extensions>
      </trkpt>
      <trkpt lat="-22.1248962543904781341552734375" lon="166.43969091586768627166748046875">
        <ele>38.799999237060546875</ele>
        <time>2016-08-12T17:26:01.000Z</time>
        <extensions>
          <ns3:TrackPointExtension>
            <ns3:atemp>23.0</ns3:atemp>
            <ns3:hr>110</ns3:hr>
          </ns3:TrackPointExtension>
        </extensions>
      </trkpt>
      <trkpt lat="-22.12488644756376743316650390625" lon="166.43968823365867137908935546875">
        <ele>39</ele>
        <time>2016-08-12T17:26:02.000Z</time>
        <extensions>
          <ns3:TrackPointExtension>
            <ns3:atemp>23.0</ns3:atemp>
            <ns3:hr>111</ns3:hr>
          </ns3:TrackPointExtension>
        </extensions>
      </trkpt>
      <trkpt lat="-22.1248734556138515472412109375" lon="166.439684964716434478759765625">
        <ele>39.200000762939453125</ele>
        <time>2016-08-12T17:26:03.000Z</time>
        <extensions>
          <ns3:TrackPointExtension>
            <ns3:atemp>23.0</ns3:atemp>
            <ns3:hr>112</ns3:hr>
          </ns3:TrackPointExtension>
        </extensions>
      </trkpt>
      <trkpt lat="-22.12486046366393566131591796875" lon="166.4396817795932292938232421875">
        <ele>39.40000152587890625</ele>
        <time>2016-08-12T17:26:04.000Z</time>
        <extensions>
          <ns3:TrackPointExtension>
            <ns3:atemp>23.0</ns3:atemp>
            <ns3:hr>112</ns3:hr>
          </ns3:TrackPointExtension>
        </extensions>
      </trkpt>
      <trkpt lat="-22.124847136437892913818359375" lon="166.439678929746150970458984375">
        <ele>39.59999847412109375</ele>
        <time>2016-08-12T17:26:05.000Z</time>
        <extensions>
          <ns3:TrackPointExtension>
            <ns3:atemp>23.0</ns3:atemp>
            <ns3:hr>113</ns3:hr>
          </ns3:TrackPointExtension>
        </extensions>
      </trkpt>
      <trkpt lat="-22.12483548559248447418212890625" lon="166.43967582844197750091552734375">
        <ele>39.799999237060546875</ele>
        <time>2016-08-12T17:26:06.000Z</time>
        <extensions>
          <ns3:TrackPointExtension>
            <ns3:atemp>23.0</ns3:atemp>
            <ns3:hr>113</ns3:hr>
          </ns3:TrackPointExtension>
        </extensions>
      </trkpt>
      <trkpt lat="-22.12482391856610774993896484375" lon="166.43967314623296260833740234375">
        <ele>40</ele>
        <time>2016-08-12T17:26:07.000Z</time>
        <extensions>
          <ns3:TrackPointExtension>
            <ns3:atemp>23.0</ns3:atemp>
            <ns3:hr>113</ns3:hr>
          </ns3:TrackPointExtension>
        </extensions>
      </trkpt>
      <trkpt lat="-22.1248110942542552947998046875" lon="166.43967188894748687744140625">
        <ele>40.200000762939453125</ele>
        <time>2016-08-12T17:26:08.000Z</time>
        <extensions>
          <ns3:TrackPointExtension>
            <ns3:atemp>23.0</ns3:atemp>
            <ns3:hr>114</ns3:hr>
          </ns3:TrackPointExtension>
        </extensions>
      </trkpt>
      <trkpt lat="-22.12479977868497371673583984375" lon="166.43967063166201114654541015625">
        <ele>40.40000152587890625</ele>
        <time>2016-08-12T17:26:09.000Z</time>
        <extensions>
          <ns3:TrackPointExtension>
            <ns3:atemp>23.0</ns3:atemp>
            <ns3:hr>114</ns3:hr>
          </ns3:TrackPointExtension>
        </extensions>
      </trkpt>
      <trkpt lat="-22.12478536181151866912841796875" lon="166.43966761417686939239501953125">
        <ele>40.799999237060546875</ele>
        <time>2016-08-12T17:26:10.000Z</time>
        <extensions>
          <ns3:TrackPointExtension>
            <ns3:atemp>23.0</ns3:atemp>
            <ns3:hr>114</ns3:hr>
          </ns3:TrackPointExtension>
        </extensions>
      </trkpt>
      <trkpt lat="-22.12477195076644420623779296875" lon="166.43966493196785449981689453125">
        <ele>41</ele>
        <time>2016-08-12T17:26:11.000Z</time>
        <extensions>
          <ns3:TrackPointExtension>
            <ns3:atemp>23.0</ns3:atemp>
            <ns3:hr>114</ns3:hr>
          </ns3:TrackPointExtension>
        </extensions>
      </trkpt>
      <trkpt lat="-22.12475971318781375885009765625" lon="166.439661495387554168701171875">
        <ele>41.200000762939453125</ele>
        <time>2016-08-12T17:26:12.000Z</time>
        <extensions>
          <ns3:TrackPointExtension>
            <ns3:atemp>23.0</ns3:atemp>
            <ns3:hr>115</ns3:hr>
          </ns3:TrackPointExtension>
        </extensions>
      </trkpt>
      <trkpt lat="-22.12474814616143703460693359375" lon="166.43965939991176128387451171875">
        <ele>41.40000152587890625</ele>
        <time>2016-08-12T17:26:13.000Z</time>
        <extensions>
          <ns3:TrackPointExtension>
            <ns3:atemp>23.0</ns3:atemp>
            <ns3:hr>115</ns3:hr>
          </ns3:TrackPointExtension>
        </extensions>
      </trkpt>
      <trkpt lat="-22.12473456747829914093017578125" lon="166.43965554423630237579345703125">
        <ele>41.59999847412109375</ele>
        <time>2016-08-12T17:26:14.000Z</time>
        <extensions>
          <ns3:TrackPointExtension>
            <ns3:atemp>23.0</ns3:atemp>
            <ns3:hr>115</ns3:hr>
          </ns3:TrackPointExtension>
        </extensions>
      </trkpt>
      <trkpt lat="-22.12472132407128810882568359375" lon="166.43965177237987518310546875">
        <ele>41.799999237060546875</ele>
        <time>2016-08-12T17:26:15.000Z</time>
        <extensions>
          <ns3:TrackPointExtension>
            <ns3:atemp>23.0</ns3:atemp>
            <ns3:hr>116</ns3:hr>
          </ns3:TrackPointExtension>
        </extensions>
      </trkpt>
      <trkpt lat="-22.12470590136945247650146484375" lon="166.4396489225327968597412109375">
        <ele>42</ele>
        <time>2016-08-12T17:26:16.000Z</time>
        <extensions>
          <ns3:TrackPointExtension>
            <ns3:atemp>23.0</ns3:atemp>
            <ns3:hr>117</ns3:hr>
          </ns3:TrackPointExtension>
        </extensions>
      </trkpt>
      <trkpt lat="-22.12469391524791717529296875" lon="166.4396432228386402130126953125">
        <ele>42.200000762939453125</ele>
        <time>2016-08-12T17:26:17.000Z</time>
        <extensions>
          <ns3:TrackPointExtension>
            <ns3:atemp>23.0</ns3:atemp>
            <ns3:hr>117</ns3:hr>
          </ns3:TrackPointExtension>
        </extensions>
      </trkpt>
      <trkpt lat="-22.1246823482215404510498046875" lon="166.43963978625833988189697265625">
        <ele>42.40000152587890625</ele>
        <time>2016-08-12T17:26:18.000Z</time>
        <extensions>
          <ns3:TrackPointExtension>
            <ns3:atemp>23.0</ns3:atemp>
            <ns3:hr>117</ns3:hr>
          </ns3:TrackPointExtension>
        </extensions>
      </trkpt>
      <trkpt lat="-22.1246709488332271575927734375" lon="166.43963634967803955078125">
        <ele>42.59999847412109375</ele>
        <time>2016-08-12T17:26:19.000Z</time>
        <extensions>
          <ns3:TrackPointExtension>
            <ns3:atemp>23.0</ns3:atemp>
            <ns3:hr>117</ns3:hr>
          </ns3:TrackPointExtension>
        </extensions>
      </trkpt>
      <trkpt lat="-22.12465929798781871795654296875" lon="166.43963408656418323516845703125">
        <ele>42.799999237060546875</ele>
        <time>2016-08-12T17:26:20.000Z</time>
        <extensions>
          <ns3:TrackPointExtension>
            <ns3:atemp>23.0</ns3:atemp>
            <ns3:hr>117</ns3:hr>
          </ns3:TrackPointExtension>
        </extensions>
      </trkpt>
      <trkpt lat="-22.12464437820017337799072265625" lon="166.43963509239256381988525390625">
        <ele>43</ele>
        <time>2016-08-12T17:26:21.000Z</time>
        <extensions>
          <ns3:TrackPointExtension>
            <ns3:atemp>23.0</ns3:atemp>
            <ns3:hr>117</ns3:hr>
          </ns3:TrackPointExtension>
        </extensions>
      </trkpt>
      <trkpt lat="-22.124627865850925445556640625" lon="166.439636014401912689208984375">
        <ele>43.40000152587890625</ele>
        <time>2016-08-12T17:26:22.000Z</time>
        <extensions>
          <ns3:TrackPointExtension>
            <ns3:atemp>23.0</ns3:atemp>
            <ns3:hr>117</ns3:hr>
          </ns3:TrackPointExtension>
        </extensions>
      </trkpt>
      <trkpt lat="-22.12461437098681926727294921875" lon="166.439636684954166412353515625">
        <ele>43.40000152587890625</ele>
        <time>2016-08-12T17:26:23.000Z</time>
        <extensions>
          <ns3:TrackPointExtension>
            <ns3:atemp>23.0</ns3:atemp>
          </ns3:TrackPointExtension>
        </extensions>
      </trkpt>
      <trkpt lat="-22.12460079230368137359619140625" lon="166.43963526003062725067138671875">
        <ele>43.59999847412109375</ele>
        <time>2016-08-12T17:26:24.000Z</time>
        <extensions>
          <ns3:TrackPointExtension>
            <ns3:atemp>23.0</ns3:atemp>
            <ns3:hr>117</ns3:hr>
          </ns3:TrackPointExtension>
        </extensions>
      </trkpt>
      <trkpt lat="-22.1245884709060192108154296875" lon="166.4396368525922298431396484375">
        <ele>43.799999237060546875</ele>
        <time>2016-08-12T17:26:25.000Z</time>
        <extensions>
          <ns3:TrackPointExtension>
            <ns3:atemp>23.0</ns3:atemp>
            <ns3:hr>117</ns3:hr>
          </ns3:TrackPointExtension>
        </extensions>
      </trkpt>
      <trkpt lat="-22.12457397021353244781494140625" lon="166.43963844515383243560791015625">
        <ele>43.799999237060546875</ele>
        <time>2016-08-12T17:26:26.000Z</time>
        <extensions>
          <ns3:TrackPointExtension>
            <ns3:atemp>23.0</ns3:atemp>
            <ns3:hr>116</ns3:hr>
          </ns3:TrackPointExtension>
        </extensions>
      </trkpt>
      <trkpt lat="-22.124561481177806854248046875" lon="166.439637355506420135498046875">
        <ele>44</ele>
        <time>2016-08-12T17:26:27.000Z</time>
        <extensions>
          <ns3:TrackPointExtension>
            <ns3:atemp>23.0</ns3:atemp>
            <ns3:hr>116</ns3:hr>
          </ns3:TrackPointExtension>
        </extensions>
      </trkpt>
      <trkpt lat="-22.12454983033239841461181640625" lon="166.43963643349707126617431640625">
        <ele>44.40000152587890625</ele>
        <time>2016-08-12T17:26:28.000Z</time>
        <extensions>
          <ns3:TrackPointExtension>
            <ns3:atemp>23.0</ns3:atemp>
            <ns3:hr>115</ns3:hr>
          </ns3:TrackPointExtension>
        </extensions>
      </trkpt>
      <trkpt lat="-22.1245368383824825286865234375" lon="166.43963609822094440460205078125">
        <ele>44.59999847412109375</ele>
        <time>2016-08-12T17:26:29.000Z</time>
        <extensions>
          <ns3:TrackPointExtension>
            <ns3:atemp>23.0</ns3:atemp>
            <ns3:hr>115</ns3:hr>
          </ns3:TrackPointExtension>
        </extensions>
      </trkpt>
      <trkpt lat="-22.1245083399116992950439453125" lon="166.4396417140960693359375">
        <ele>44.59999847412109375</ele>
        <time>2016-08-12T17:26:31.000Z</time>
        <extensions>
          <ns3:TrackPointExtension>
            <ns3:atemp>23.0</ns3:atemp>
            <ns3:hr>115</ns3:hr>
          </ns3:TrackPointExtension>
        </extensions>
      </trkpt>
      <trkpt lat="-22.1244942583143711090087890625" lon="166.43963777460157871246337890625">
        <ele>44.799999237060546875</ele>
        <time>2016-08-12T17:26:32.000Z</time>
        <extensions>
          <ns3:TrackPointExtension>
            <ns3:atemp>23.0</ns3:atemp>
            <ns3:hr>115</ns3:hr>
          </ns3:TrackPointExtension>
        </extensions>
      </trkpt>
      <trkpt lat="-22.12448143400251865386962890625" lon="166.43963492475450038909912109375">
        <ele>45.200000762939453125</ele>
        <time>2016-08-12T17:26:33.000Z</time>
        <extensions>
          <ns3:TrackPointExtension>
            <ns3:atemp>23.0</ns3:atemp>
            <ns3:hr>115</ns3:hr>
          </ns3:TrackPointExtension>
        </extensions>
      </trkpt>
      <trkpt lat="-22.1244687773287296295166015625" lon="166.4396328292787075042724609375">
        <ele>45.40000152587890625</ele>
        <time>2016-08-12T17:26:34.000Z</time>
        <extensions>
          <ns3:TrackPointExtension>
            <ns3:atemp>23.0</ns3:atemp>
            <ns3:hr>115</ns3:hr>
          </ns3:TrackPointExtension>
        </extensions>
      </trkpt>
      <trkpt lat="-22.12445394136011600494384765625" lon="166.43963006325066089630126953125">
        <ele>45.799999237060546875</ele>
        <time>2016-08-12T17:26:35.000Z</time>
        <extensions>
          <ns3:TrackPointExtension>
            <ns3:atemp>23.0</ns3:atemp>
            <ns3:hr>116</ns3:hr>
          </ns3:TrackPointExtension>
        </extensions>
      </trkpt>
      <trkpt lat="-22.12444019503891468048095703125" lon="166.43962654285132884979248046875">
        <ele>46</ele>
        <time>2016-08-12T17:26:36.000Z</time>
        <extensions>
          <ns3:TrackPointExtension>
            <ns3:atemp>23.0</ns3:atemp>
            <ns3:hr>116</ns3:hr>
          </ns3:TrackPointExtension>
        </extensions>
      </trkpt>
      <trkpt lat="-22.1244278736412525177001953125" lon="166.4396241120994091033935546875">
        <ele>46.200000762939453125</ele>
        <time>2016-08-12T17:26:37.000Z</time>
        <extensions>
          <ns3:TrackPointExtension>
            <ns3:atemp>23.0</ns3:atemp>
            <ns3:hr>117</ns3:hr>
          </ns3:TrackPointExtension>
        </extensions>
      </trkpt>
      <trkpt lat="-22.12441488169133663177490234375" lon="166.43962520174682140350341796875">
        <ele>46.40000152587890625</ele>
        <time>2016-08-12T17:26:38.000Z</time>
        <extensions>
          <ns3:TrackPointExtension>
            <ns3:atemp>23.0</ns3:atemp>
            <ns3:hr>117</ns3:hr>
          </ns3:TrackPointExtension>
        </extensions>
      </trkpt>
      <trkpt lat="-22.1244027279317378997802734375" lon="166.4396264590322971343994140625">
        <ele>46.59999847412109375</ele>
        <time>2016-08-12T17:26:39.000Z</time>
        <extensions>
          <ns3:TrackPointExtension>
            <ns3:atemp>23.0</ns3:atemp>
            <ns3:hr>118</ns3:hr>
          </ns3:TrackPointExtension>
        </extensions>
      </trkpt>
      <trkpt lat="-22.12439057417213916778564453125" lon="166.43962603993713855743408203125">
        <ele>46.59999847412109375</ele>
        <time>2016-08-12T17:26:40.000Z</time>
        <extensions>
          <ns3:TrackPointExtension>
            <ns3:atemp>23.0</ns3:atemp>
            <ns3:hr>118</ns3:hr>
          </ns3:TrackPointExtension>
        </extensions>
      </trkpt>
      <trkpt lat="-22.12437816895544528961181640625" lon="166.43962536938488483428955078125">
        <ele>46.799999237060546875</ele>
        <time>2016-08-12T17:26:41.000Z</time>
        <extensions>
          <ns3:TrackPointExtension>
            <ns3:atemp>23.0</ns3:atemp>
            <ns3:hr>118</ns3:hr>
          </ns3:TrackPointExtension>
        </extensions>
      </trkpt>
      <trkpt lat="-22.12436509318649768829345703125" lon="166.439625285565853118896484375">
        <ele>47.200000762939453125</ele>
        <time>2016-08-12T17:26:42.000Z</time>
        <extensions>
          <ns3:TrackPointExtension>
            <ns3:atemp>23.0</ns3:atemp>
            <ns3:hr>119</ns3:hr>
          </ns3:TrackPointExtension>
        </extensions>
      </trkpt>
      <trkpt lat="-22.12435117922723293304443359375" lon="166.43962168134748935699462890625">
        <ele>47.40000152587890625</ele>
        <time>2016-08-12T17:26:43.000Z</time>
        <extensions>
          <ns3:TrackPointExtension>
            <ns3:atemp>23.0</ns3:atemp>
            <ns3:hr>119</ns3:hr>
          </ns3:TrackPointExtension>
        </extensions>
      </trkpt>
      <trkpt lat="-22.12434363551437854766845703125" lon="166.43961749039590358734130859375">
        <ele>47.40000152587890625</ele>
        <time>2016-08-12T17:26:44.000Z</time>
        <extensions>
          <ns3:TrackPointExtension>
            <ns3:atemp>23.0</ns3:atemp>
            <ns3:hr>119</ns3:hr>
          </ns3:TrackPointExtension>
        </extensions>
      </trkpt>
      <trkpt lat="-22.1243326552212238311767578125" lon="166.4396130479872226715087890625">
        <ele>47.59999847412109375</ele>
        <time>2016-08-12T17:26:45.000Z</time>
        <extensions>
          <ns3:TrackPointExtension>
            <ns3:atemp>23.0</ns3:atemp>
            <ns3:hr>119</ns3:hr>
          </ns3:TrackPointExtension>
        </extensions>
      </trkpt>
      <trkpt lat="-22.12432150729000568389892578125" lon="166.43960927613079547882080078125">
        <ele>47.799999237060546875</ele>
        <time>2016-08-12T17:26:46.000Z</time>
        <extensions>
          <ns3:TrackPointExtension>
            <ns3:atemp>23.0</ns3:atemp>
            <ns3:hr>120</ns3:hr>
          </ns3:TrackPointExtension>
        </extensions>
      </trkpt>
      <trkpt lat="-22.124311029911041259765625" lon="166.4396086893975734710693359375">
        <ele>48.200000762939453125</ele>
        <time>2016-08-12T17:26:47.000Z</time>
        <extensions>
          <ns3:TrackPointExtension>
            <ns3:atemp>23.0</ns3:atemp>
            <ns3:hr>120</ns3:hr>
          </ns3:TrackPointExtension>
        </extensions>
      </trkpt>
      <trkpt lat="-22.1242997981607913970947265625" lon="166.43960676155984401702880859375">
        <ele>48.40000152587890625</ele>
        <time>2016-08-12T17:26:48.000Z</time>
        <extensions>
          <ns3:TrackPointExtension>
            <ns3:atemp>23.0</ns3:atemp>
            <ns3:hr>120</ns3:hr>
          </ns3:TrackPointExtension>
        </extensions>
      </trkpt>
      <trkpt lat="-22.12428965605795383453369140625" lon="166.4396066777408123016357421875">
        <ele>48.59999847412109375</ele>
        <time>2016-08-12T17:26:49.000Z</time>
        <extensions>
          <ns3:TrackPointExtension>
            <ns3:atemp>23.0</ns3:atemp>
            <ns3:hr>121</ns3:hr>
          </ns3:TrackPointExtension>
        </extensions>
      </trkpt>
      <trkpt lat="-22.1242786757647991180419921875" lon="166.439609527587890625">
        <ele>48.799999237060546875</ele>
        <time>2016-08-12T17:26:50.000Z</time>
        <extensions>
          <ns3:TrackPointExtension>
            <ns3:atemp>23.0</ns3:atemp>
            <ns3:hr>121</ns3:hr>
          </ns3:TrackPointExtension>
        </extensions>
      </trkpt>
      <trkpt lat="-22.1242639236152172088623046875" lon="166.439612209796905517578125">
        <ele>48.799999237060546875</ele>
        <time>2016-08-12T17:26:51.000Z</time>
        <extensions>
          <ns3:TrackPointExtension>
            <ns3:atemp>23.0</ns3:atemp>
            <ns3:hr>121</ns3:hr>
          </ns3:TrackPointExtension>
        </extensions>
      </trkpt>
      <trkpt lat="-22.12424866855144500732421875" lon="166.43961153924465179443359375">
        <ele>49</ele>
        <time>2016-08-12T17:26:52.000Z</time>
        <extensions>
          <ns3:TrackPointExtension>
            <ns3:atemp>23.0</ns3:atemp>
            <ns3:hr>121</ns3:hr>
          </ns3:TrackPointExtension>
        </extensions>
      </trkpt>
      <trkpt lat="-22.12422796525061130523681640625" lon="166.43961262889206409454345703125">
        <ele>49</ele>
        <time>2016-08-12T17:26:53.000Z</time>
        <extensions>
          <ns3:TrackPointExtension>
            <ns3:atemp>23.0</ns3:atemp>
            <ns3:hr>120</ns3:hr>
          </ns3:TrackPointExtension>
        </extensions>
      </trkpt>
      <trkpt lat="-22.12421405129134654998779296875" lon="166.43961128778755664825439453125">
        <ele>49</ele>
        <time>2016-08-12T17:26:54.000Z</time>
        <extensions>
          <ns3:TrackPointExtension>
            <ns3:atemp>23.0</ns3:atemp>
            <ns3:hr>119</ns3:hr>
          </ns3:TrackPointExtension>
        </extensions>
      </trkpt>
      <trkpt lat="-22.1242002211511135101318359375" lon="166.4396103657782077789306640625">
        <ele>49.200000762939453125</ele>
        <time>2016-08-12T17:26:55.000Z</time>
        <extensions>
          <ns3:TrackPointExtension>
            <ns3:atemp>23.0</ns3:atemp>
            <ns3:hr>119</ns3:hr>
          </ns3:TrackPointExtension>
        </extensions>
      </trkpt>
      <trkpt lat="-22.124186642467975616455078125" lon="166.4396066777408123016357421875">
        <ele>49.200000762939453125</ele>
        <time>2016-08-12T17:26:56.000Z</time>
        <extensions>
          <ns3:TrackPointExtension>
            <ns3:atemp>23.0</ns3:atemp>
            <ns3:hr>119</ns3:hr>
          </ns3:TrackPointExtension>
        </extensions>
      </trkpt>
      <trkpt lat="-22.1241794340312480926513671875" lon="166.43960039131343364715576171875">
        <ele>49.40000152587890625</ele>
        <time>2016-08-12T17:26:57.000Z</time>
        <extensions>
          <ns3:TrackPointExtension>
            <ns3:atemp>23.0</ns3:atemp>
            <ns3:hr>118</ns3:hr>
          </ns3:TrackPointExtension>
        </extensions>
      </trkpt>
      <trkpt lat="-22.12417197413742542266845703125" lon="166.4395925961434841156005859375">
        <ele>49.59999847412109375</ele>
        <time>2016-08-12T17:26:58.000Z</time>
        <extensions>
          <ns3:TrackPointExtension>
            <ns3:atemp>23.0</ns3:atemp>
            <ns3:hr>118</ns3:hr>
          </ns3:TrackPointExtension>
        </extensions>
      </trkpt>
      <trkpt lat="-22.12416493333876132965087890625" lon="166.439589746296405792236328125">
        <ele>49.799999237060546875</ele>
        <time>2016-08-12T17:26:59.000Z</time>
        <extensions>
          <ns3:TrackPointExtension>
            <ns3:atemp>22.0</ns3:atemp>
            <ns3:hr>118</ns3:hr>
          </ns3:TrackPointExtension>
        </extensions>
      </trkpt>
      <trkpt lat="-22.12415521033108234405517578125" lon="166.43958580680191516876220703125">
        <ele>50</ele>
        <time>2016-08-12T17:27:00.000Z</time>
        <extensions>
          <ns3:TrackPointExtension>
            <ns3:atemp>22.0</ns3:atemp>
            <ns3:hr>117</ns3:hr>
          </ns3:TrackPointExtension>
        </extensions>
      </trkpt>
      <trkpt lat="-22.12414548732340335845947265625" lon="166.4395832084119319915771484375">
        <ele>50.200000762939453125</ele>
        <time>2016-08-12T17:27:01.000Z</time>
        <extensions>
          <ns3:TrackPointExtension>
            <ns3:atemp>22.0</ns3:atemp>
            <ns3:hr>117</ns3:hr>
          </ns3:TrackPointExtension>
        </extensions>
      </trkpt>
      <trkpt lat="-22.12413542903959751129150390625" lon="166.4395811967551708221435546875">
        <ele>50.40000152587890625</ele>
        <time>2016-08-12T17:27:02.000Z</time>
        <extensions>
          <ns3:TrackPointExtension>
            <ns3:atemp>22.0</ns3:atemp>
            <ns3:hr>116</ns3:hr>
          </ns3:TrackPointExtension>
        </extensions>
      </trkpt>
      <trkpt lat="-22.1241244487464427947998046875" lon="166.43957725726068019866943359375">
        <ele>50.40000152587890625</ele>
        <time>2016-08-12T17:27:03.000Z</time>
        <extensions>
          <ns3:TrackPointExtension>
            <ns3:atemp>22.0</ns3:atemp>
            <ns3:hr>115</ns3:hr>
          </ns3:TrackPointExtension>
        </extensions>
      </trkpt>
      <trkpt lat="-22.1241113729774951934814453125" lon="166.4395734854042530059814453125">
        <ele>50.40000152587890625</ele>
        <time>2016-08-12T17:27:04.000Z</time>
        <extensions>
          <ns3:TrackPointExtension>
            <ns3:atemp>22.0</ns3:atemp>
            <ns3:hr>115</ns3:hr>
          </ns3:TrackPointExtension>
        </extensions>
      </trkpt>
      <trkpt lat="-22.12409854866564273834228515625" lon="166.43956904299557209014892578125">
        <ele>50.59999847412109375</ele>
        <time>2016-08-12T17:27:05.000Z</time>
        <extensions>
          <ns3:TrackPointExtension>
            <ns3:atemp>22.0</ns3:atemp>
            <ns3:hr>114</ns3:hr>
          </ns3:TrackPointExtension>
        </extensions>
      </trkpt>
      <trkpt lat="-22.12408698163926601409912109375" lon="166.43956460058689117431640625">
        <ele>50.799999237060546875</ele>
        <time>2016-08-12T17:27:06.000Z</time>
        <extensions>
          <ns3:TrackPointExtension>
            <ns3:atemp>22.0</ns3:atemp>
            <ns3:hr>114</ns3:hr>
          </ns3:TrackPointExtension>
        </extensions>
      </trkpt>
      <trkpt lat="-22.12407608516514301300048828125" lon="166.439560912549495697021484375">
        <ele>51</ele>
        <time>2016-08-12T17:27:07.000Z</time>
        <extensions>
          <ns3:TrackPointExtension>
            <ns3:atemp>22.0</ns3:atemp>
            <ns3:hr>113</ns3:hr>
          </ns3:TrackPointExtension>
        </extensions>
      </trkpt>
      <trkpt lat="-22.12406351231038570404052734375" lon="166.4395587332546710968017578125">
        <ele>51.200000762939453125</ele>
        <time>2016-08-12T17:27:08.000Z</time>
        <extensions>
          <ns3:TrackPointExtension>
            <ns3:atemp>22.0</ns3:atemp>
            <ns3:hr>113</ns3:hr>
          </ns3:TrackPointExtension>
        </extensions>
      </trkpt>
      <trkpt lat="-22.12404825724661350250244140625" lon="166.43955521285533905029296875">
        <ele>51.200000762939453125</ele>
        <time>2016-08-12T17:27:09.000Z</time>
        <extensions>
          <ns3:TrackPointExtension>
            <ns3:atemp>22.0</ns3:atemp>
            <ns3:hr>113</ns3:hr>
          </ns3:TrackPointExtension>
        </extensions>
      </trkpt>
      <trkpt lat="-22.12403384037315845489501953125" lon="166.4395520277321338653564453125">
        <ele>51.40000152587890625</ele>
        <time>2016-08-12T17:27:10.000Z</time>
        <extensions>
          <ns3:TrackPointExtension>
            <ns3:atemp>22.0</ns3:atemp>
            <ns3:hr>113</ns3:hr>
          </ns3:TrackPointExtension>
        </extensions>
      </trkpt>
      <trkpt lat="-22.1240205131471157073974609375" lon="166.439548172056674957275390625">
        <ele>51.40000152587890625</ele>
        <time>2016-08-12T17:27:11.000Z</time>
        <extensions>
          <ns3:TrackPointExtension>
            <ns3:atemp>22.0</ns3:atemp>
            <ns3:hr>113</ns3:hr>
          </ns3:TrackPointExtension>
        </extensions>
      </trkpt>
      <trkpt lat="-22.12400534190237522125244140625" lon="166.43954356200993061065673828125">
        <ele>51.59999847412109375</ele>
        <time>2016-08-12T17:27:12.000Z</time>
        <extensions>
          <ns3:TrackPointExtension>
            <ns3:atemp>22.0</ns3:atemp>
            <ns3:hr>113</ns3:hr>
          </ns3:TrackPointExtension>
        </extensions>
      </trkpt>
      <trkpt lat="-22.12399117648601531982421875" lon="166.43953836522996425628662109375">
        <ele>51.799999237060546875</ele>
        <time>2016-08-12T17:27:13.000Z</time>
        <extensions>
          <ns3:TrackPointExtension>
            <ns3:atemp>22.0</ns3:atemp>
            <ns3:hr>113</ns3:hr>
          </ns3:TrackPointExtension>
        </extensions>
      </trkpt>
      <trkpt lat="-22.123978100717067718505859375" lon="166.43953107297420501708984375">
        <ele>52</ele>
        <time>2016-08-12T17:27:14.000Z</time>
        <extensions>
          <ns3:TrackPointExtension>
            <ns3:atemp>22.0</ns3:atemp>
            <ns3:hr>113</ns3:hr>
          </ns3:TrackPointExtension>
        </extensions>
      </trkpt>
      <trkpt lat="-22.1239628456532955169677734375" lon="166.43952478654682636260986328125">
        <ele>52.200000762939453125</ele>
        <time>2016-08-12T17:27:15.000Z</time>
        <extensions>
          <ns3:TrackPointExtension>
            <ns3:atemp>22.0</ns3:atemp>
            <ns3:hr>113</ns3:hr>
          </ns3:TrackPointExtension>
        </extensions>
      </trkpt>
      <trkpt lat="-22.12394901551306247711181640625" lon="166.4395198412239551544189453125">
        <ele>52.200000762939453125</ele>
        <time>2016-08-12T17:27:16.000Z</time>
        <extensions>
          <ns3:TrackPointExtension>
            <ns3:atemp>22.0</ns3:atemp>
            <ns3:hr>113</ns3:hr>
          </ns3:TrackPointExtension>
        </extensions>
      </trkpt>
      <trkpt lat="-22.12393359281122684478759765625" lon="166.43951606936752796173095703125">
        <ele>52.40000152587890625</ele>
        <time>2016-08-12T17:27:17.000Z</time>
        <extensions>
          <ns3:TrackPointExtension>
            <ns3:atemp>22.0</ns3:atemp>
            <ns3:hr>113</ns3:hr>
          </ns3:TrackPointExtension>
        </extensions>
      </trkpt>
      <trkpt lat="-22.12391179986298084259033203125" lon="166.43950031138956546783447265625">
        <ele>52.40000152587890625</ele>
        <time>2016-08-12T17:27:19.000Z</time>
        <extensions>
          <ns3:TrackPointExtension>
            <ns3:atemp>22.0</ns3:atemp>
            <ns3:hr>113</ns3:hr>
          </ns3:TrackPointExtension>
        </extensions>
      </trkpt>
      <trkpt lat="-22.123898304998874664306640625" lon="166.4394923485815525054931640625">
        <ele>52.59999847412109375</ele>
        <time>2016-08-12T17:27:20.000Z</time>
        <extensions>
          <ns3:TrackPointExtension>
            <ns3:atemp>22.0</ns3:atemp>
            <ns3:hr>114</ns3:hr>
          </ns3:TrackPointExtension>
        </extensions>
      </trkpt>
      <trkpt lat="-22.12388715706765651702880859375" lon="166.4394846372306346893310546875">
        <ele>52.799999237060546875</ele>
        <time>2016-08-12T17:27:21.000Z</time>
        <extensions>
          <ns3:TrackPointExtension>
            <ns3:atemp>22.0</ns3:atemp>
            <ns3:hr>114</ns3:hr>
          </ns3:TrackPointExtension>
        </extensions>
      </trkpt>
      <trkpt lat="-22.1238750033080577850341796875" lon="166.43948011100292205810546875">
        <ele>52.799999237060546875</ele>
        <time>2016-08-12T17:27:22.000Z</time>
        <extensions>
          <ns3:TrackPointExtension>
            <ns3:atemp>22.0</ns3:atemp>
            <ns3:hr>114</ns3:hr>
          </ns3:TrackPointExtension>
        </extensions>
      </trkpt>
      <trkpt lat="-22.1238617599010467529296875" lon="166.439473740756511688232421875">
        <ele>53</ele>
        <time>2016-08-12T17:27:23.000Z</time>
        <extensions>
          <ns3:TrackPointExtension>
            <ns3:atemp>22.0</ns3:atemp>
            <ns3:hr>113</ns3:hr>
          </ns3:TrackPointExtension>
        </extensions>
      </trkpt>
      <trkpt lat="-22.1238481812179088592529296875" lon="166.4394692145287990570068359375">
        <ele>53</ele>
        <time>2016-08-12T17:27:24.000Z</time>
        <extensions>
          <ns3:TrackPointExtension>
            <ns3:atemp>22.0</ns3:atemp>
            <ns3:hr>113</ns3:hr>
          </ns3:TrackPointExtension>
        </extensions>
      </trkpt>
      <trkpt lat="-22.12383502162992954254150390625" lon="166.43946376629173755645751953125">
        <ele>53.200000762939453125</ele>
        <time>2016-08-12T17:27:25.000Z</time>
        <extensions>
          <ns3:TrackPointExtension>
            <ns3:atemp>22.0</ns3:atemp>
            <ns3:hr>113</ns3:hr>
          </ns3:TrackPointExtension>
        </extensions>
      </trkpt>
      <trkpt lat="-22.12382362224161624908447265625" lon="166.439454965293407440185546875">
        <ele>53.200000762939453125</ele>
        <time>2016-08-12T17:27:26.000Z</time>
        <extensions>
          <ns3:TrackPointExtension>
            <ns3:atemp>22.0</ns3:atemp>
            <ns3:hr>113</ns3:hr>
          </ns3:TrackPointExtension>
        </extensions>
      </trkpt>
      <trkpt lat="-22.12381423451006412506103515625" lon="166.439446918666362762451171875">
        <ele>53.40000152587890625</ele>
        <time>2016-08-12T17:27:27.000Z</time>
        <extensions>
          <ns3:TrackPointExtension>
            <ns3:atemp>22.0</ns3:atemp>
            <ns3:hr>113</ns3:hr>
          </ns3:TrackPointExtension>
        </extensions>
      </trkpt>
      <trkpt lat="-22.12380216456949710845947265625" lon="166.43944029696285724639892578125">
        <ele>53.40000152587890625</ele>
        <time>2016-08-12T17:27:28.000Z</time>
        <extensions>
          <ns3:TrackPointExtension>
            <ns3:atemp>22.0</ns3:atemp>
            <ns3:hr>112</ns3:hr>
          </ns3:TrackPointExtension>
        </extensions>
      </trkpt>
      <trkpt lat="-22.12378959171473979949951171875" lon="166.43943275325000286102294921875">
        <ele>53.59999847412109375</ele>
        <time>2016-08-12T17:27:29.000Z</time>
        <extensions>
          <ns3:TrackPointExtension>
            <ns3:atemp>22.0</ns3:atemp>
            <ns3:hr>112</ns3:hr>
          </ns3:TrackPointExtension>
        </extensions>
      </trkpt>
      <trkpt lat="-22.1237774379551410675048828125" lon="166.4394273050129413604736328125">
        <ele>53.799999237060546875</ele>
        <time>2016-08-12T17:27:30.000Z</time>
        <extensions>
          <ns3:TrackPointExtension>
            <ns3:atemp>22.0</ns3:atemp>
            <ns3:hr>112</ns3:hr>
          </ns3:TrackPointExtension>
        </extensions>
      </trkpt>
      <trkpt lat="-22.12376662530004978179931640625" lon="166.43942235969007015228271484375">
        <ele>54.200000762939453125</ele>
        <time>2016-08-12T17:27:31.000Z</time>
        <extensions>
          <ns3:TrackPointExtension>
            <ns3:atemp>22.0</ns3:atemp>
            <ns3:hr>112</ns3:hr>
          </ns3:TrackPointExtension>
        </extensions>
      </trkpt>
      <trkpt lat="-22.12375589646399021148681640625" lon="166.4394159056246280670166015625">
        <ele>54.200000762939453125</ele>
        <time>2016-08-12T17:27:32.000Z</time>
        <extensions>
          <ns3:TrackPointExtension>
            <ns3:atemp>22.0</ns3:atemp>
            <ns3:hr>111</ns3:hr>
          </ns3:TrackPointExtension>
        </extensions>
      </trkpt>
      <trkpt lat="-22.12374349124729633331298828125" lon="166.4394097030162811279296875">
        <ele>54.40000152587890625</ele>
        <time>2016-08-12T17:27:33.000Z</time>
        <extensions>
          <ns3:TrackPointExtension>
            <ns3:atemp>22.0</ns3:atemp>
            <ns3:hr>111</ns3:hr>
          </ns3:TrackPointExtension>
        </extensions>
      </trkpt>
      <trkpt lat="-22.12372991256415843963623046875" lon="166.439402997493743896484375">
        <ele>54.40000152587890625</ele>
        <time>2016-08-12T17:27:34.000Z</time>
        <extensions>
          <ns3:TrackPointExtension>
            <ns3:atemp>22.0</ns3:atemp>
            <ns3:hr>111</ns3:hr>
          </ns3:TrackPointExtension>
        </extensions>
      </trkpt>
      <trkpt lat="-22.12371750734746456146240234375" lon="166.4393988065421581268310546875">
        <ele>54.40000152587890625</ele>
        <time>2016-08-12T17:27:35.000Z</time>
        <extensions>
          <ns3:TrackPointExtension>
            <ns3:atemp>22.0</ns3:atemp>
            <ns3:hr>111</ns3:hr>
          </ns3:TrackPointExtension>
        </extensions>
      </trkpt>
      <trkpt lat="-22.12370376102626323699951171875" lon="166.4393947832286357879638671875">
        <ele>54.40000152587890625</ele>
        <time>2016-08-12T17:27:36.000Z</time>
        <extensions>
          <ns3:TrackPointExtension>
            <ns3:atemp>22.0</ns3:atemp>
            <ns3:hr>111</ns3:hr>
          </ns3:TrackPointExtension>
        </extensions>
      </trkpt>
      <trkpt lat="-22.1236939541995525360107421875" lon="166.43938832916319370269775390625">
        <ele>54.59999847412109375</ele>
        <time>2016-08-12T17:27:37.000Z</time>
        <extensions>
          <ns3:TrackPointExtension>
            <ns3:atemp>22.0</ns3:atemp>
            <ns3:hr>111</ns3:hr>
          </ns3:TrackPointExtension>
        </extensions>
      </trkpt>
      <trkpt lat="-22.1236849017441272735595703125" lon="166.43938086926937103271484375">
        <ele>54.799999237060546875</ele>
        <time>2016-08-12T17:27:38.000Z</time>
        <extensions>
          <ns3:TrackPointExtension>
            <ns3:atemp>22.0</ns3:atemp>
            <ns3:hr>110</ns3:hr>
          </ns3:TrackPointExtension>
        </extensions>
      </trkpt>
      <trkpt lat="-22.12367475964128971099853515625" lon="166.439374499022960662841796875">
        <ele>55.200000762939453125</ele>
        <time>2016-08-12T17:27:39.000Z</time>
        <extensions>
          <ns3:TrackPointExtension>
            <ns3:atemp>22.0</ns3:atemp>
            <ns3:hr>110</ns3:hr>
          </ns3:TrackPointExtension>
        </extensions>
      </trkpt>
      <trkpt lat="-22.123664282262325286865234375" lon="166.4393669553101062774658203125">
        <ele>55.40000152587890625</ele>
        <time>2016-08-12T17:27:40.000Z</time>
        <extensions>
          <ns3:TrackPointExtension>
            <ns3:atemp>22.0</ns3:atemp>
            <ns3:hr>110</ns3:hr>
          </ns3:TrackPointExtension>
        </extensions>
      </trkpt>
      <trkpt lat="-22.1236523799598217010498046875" lon="166.43935932777822017669677734375">
        <ele>55.59999847412109375</ele>
        <time>2016-08-12T17:27:41.000Z</time>
        <extensions>
          <ns3:TrackPointExtension>
            <ns3:atemp>22.0</ns3:atemp>
            <ns3:hr>110</ns3:hr>
          </ns3:TrackPointExtension>
        </extensions>
      </trkpt>
      <trkpt lat="-22.12364056147634983062744140625" lon="166.439351029694080352783203125">
        <ele>55.799999237060546875</ele>
        <time>2016-08-12T17:27:42.000Z</time>
        <extensions>
          <ns3:TrackPointExtension>
            <ns3:atemp>22.0</ns3:atemp>
            <ns3:hr>110</ns3:hr>
          </ns3:TrackPointExtension>
        </extensions>
      </trkpt>
      <trkpt lat="-22.12362832389771938323974609375" lon="166.43934340216219425201416015625">
        <ele>56</ele>
        <time>2016-08-12T17:27:43.000Z</time>
        <extensions>
          <ns3:TrackPointExtension>
            <ns3:atemp>22.0</ns3:atemp>
            <ns3:hr>109</ns3:hr>
          </ns3:TrackPointExtension>
        </extensions>
      </trkpt>
      <trkpt lat="-22.12361759506165981292724609375" lon="166.4393361099064350128173828125">
        <ele>56.200000762939453125</ele>
        <time>2016-08-12T17:27:44.000Z</time>
        <extensions>
          <ns3:TrackPointExtension>
            <ns3:atemp>22.0</ns3:atemp>
            <ns3:hr>109</ns3:hr>
          </ns3:TrackPointExtension>
        </extensions>
      </trkpt>
      <trkpt lat="-22.1236042678356170654296875" lon="166.43932999111711978912353515625">
        <ele>56.40000152587890625</ele>
        <time>2016-08-12T17:27:45.000Z</time>
        <extensions>
          <ns3:TrackPointExtension>
            <ns3:atemp>22.0</ns3:atemp>
            <ns3:hr>110</ns3:hr>
          </ns3:TrackPointExtension>
        </extensions>
      </trkpt>
      <trkpt lat="-22.12359194643795490264892578125" lon="166.4393211901187896728515625">
        <ele>56.59999847412109375</ele>
        <time>2016-08-12T17:27:46.000Z</time>
        <extensions>
          <ns3:TrackPointExtension>
            <ns3:atemp>22.0</ns3:atemp>
            <ns3:hr>110</ns3:hr>
          </ns3:TrackPointExtension>
        </extensions>
      </trkpt>
      <trkpt lat="-22.12358054704964160919189453125" lon="166.4393116347491741180419921875">
        <ele>56.59999847412109375</ele>
        <time>2016-08-12T17:27:47.000Z</time>
        <extensions>
          <ns3:TrackPointExtension>
            <ns3:atemp>22.0</ns3:atemp>
            <ns3:hr>110</ns3:hr>
          </ns3:TrackPointExtension>
        </extensions>
      </trkpt>
      <trkpt lat="-22.1235672198235988616943359375" lon="166.439305432140827178955078125">
        <ele>56.799999237060546875</ele>
        <time>2016-08-12T17:27:48.000Z</time>
        <extensions>
          <ns3:TrackPointExtension>
            <ns3:atemp>22.0</ns3:atemp>
            <ns3:hr>111</ns3:hr>
          </ns3:TrackPointExtension>
        </extensions>
      </trkpt>
      <trkpt lat="-22.123554982244968414306640625" lon="166.43930174410343170166015625">
        <ele>57</ele>
        <time>2016-08-12T17:27:49.000Z</time>
        <extensions>
          <ns3:TrackPointExtension>
            <ns3:atemp>22.0</ns3:atemp>
            <ns3:hr>111</ns3:hr>
          </ns3:TrackPointExtension>
        </extensions>
      </trkpt>
      <trkpt lat="-22.12354148738086223602294921875" lon="166.439300067722797393798828125">
        <ele>57.200000762939453125</ele>
        <time>2016-08-12T17:27:50.000Z</time>
        <extensions>
          <ns3:TrackPointExtension>
            <ns3:atemp>22.0</ns3:atemp>
            <ns3:hr>112</ns3:hr>
          </ns3:TrackPointExtension>
        </extensions>
      </trkpt>
      <trkpt lat="-22.12352824397385120391845703125" lon="166.43929562531411647796630859375">
        <ele>57.200000762939453125</ele>
        <time>2016-08-12T17:27:51.000Z</time>
        <extensions>
          <ns3:TrackPointExtension>
            <ns3:atemp>22.0</ns3:atemp>
            <ns3:hr>113</ns3:hr>
          </ns3:TrackPointExtension>
        </extensions>
      </trkpt>
      <trkpt lat="-22.1235142461955547332763671875" lon="166.43929244019091129302978515625">
        <ele>57.200000762939453125</ele>
        <time>2016-08-12T17:27:52.000Z</time>
        <extensions>
          <ns3:TrackPointExtension>
            <ns3:atemp>22.0</ns3:atemp>
            <ns3:hr>113</ns3:hr>
          </ns3:TrackPointExtension>
        </extensions>
      </trkpt>
      <trkpt lat="-22.1234991587698459625244140625" lon="166.43928891979157924652099609375">
        <ele>57.40000152587890625</ele>
        <time>2016-08-12T17:27:53.000Z</time>
        <extensions>
          <ns3:TrackPointExtension>
            <ns3:atemp>22.0</ns3:atemp>
            <ns3:hr>113</ns3:hr>
          </ns3:TrackPointExtension>
        </extensions>
      </trkpt>
      <trkpt lat="-22.12348381988704204559326171875" lon="166.43928992561995983123779296875">
        <ele>57.59999847412109375</ele>
        <time>2016-08-12T17:27:54.000Z</time>
        <extensions>
          <ns3:TrackPointExtension>
            <ns3:atemp>22.0</ns3:atemp>
            <ns3:hr>112</ns3:hr>
          </ns3:TrackPointExtension>
        </extensions>
      </trkpt>
      <trkpt lat="-22.1234703250229358673095703125" lon="166.4392915181815624237060546875">
        <ele>57.59999847412109375</ele>
        <time>2016-08-12T17:27:55.000Z</time>
        <extensions>
          <ns3:TrackPointExtension>
            <ns3:atemp>22.0</ns3:atemp>
            <ns3:hr>112</ns3:hr>
          </ns3:TrackPointExtension>
        </extensions>
      </trkpt>
      <trkpt lat="-22.12346018292009830474853515625" lon="166.43928707577288150787353515625">
        <ele>57.799999237060546875</ele>
        <time>2016-08-12T17:27:56.000Z</time>
        <extensions>
          <ns3:TrackPointExtension>
            <ns3:atemp>22.0</ns3:atemp>
            <ns3:hr>113</ns3:hr>
          </ns3:TrackPointExtension>
        </extensions>
      </trkpt>
      <trkpt lat="-22.1234505437314510345458984375" lon="166.43927986733615398406982421875">
        <ele>57.799999237060546875</ele>
        <time>2016-08-12T17:27:57.000Z</time>
        <extensions>
          <ns3:TrackPointExtension>
            <ns3:atemp>22.0</ns3:atemp>
            <ns3:hr>113</ns3:hr>
          </ns3:TrackPointExtension>
        </extensions>
      </trkpt>
      <trkpt lat="-22.12343864142894744873046875" lon="166.43927601166069507598876953125">
        <ele>58</ele>
        <time>2016-08-12T17:27:58.000Z</time>
        <extensions>
          <ns3:TrackPointExtension>
            <ns3:atemp>22.0</ns3:atemp>
            <ns3:hr>113</ns3:hr>
          </ns3:TrackPointExtension>
        </extensions>
      </trkpt>
      <trkpt lat="-22.12342523038387298583984375" lon="166.43927265889942646026611328125">
        <ele>58.40000152587890625</ele>
        <time>2016-08-12T17:27:59.000Z</time>
        <extensions>
          <ns3:TrackPointExtension>
            <ns3:atemp>22.0</ns3:atemp>
            <ns3:hr>113</ns3:hr>
          </ns3:TrackPointExtension>
        </extensions>
      </trkpt>
      <trkpt lat="-22.123410142958164215087890625" lon="166.43927232362329959869384765625">
        <ele>58.40000152587890625</ele>
        <time>2016-08-12T17:28:00.000Z</time>
        <extensions>
          <ns3:TrackPointExtension>
            <ns3:atemp>22.0</ns3:atemp>
            <ns3:hr>113</ns3:hr>
          </ns3:TrackPointExtension>
        </extensions>
      </trkpt>
      <trkpt lat="-22.1233972348272800445556640625" lon="166.43927047960460186004638671875">
        <ele>58.799999237060546875</ele>
        <time>2016-08-12T17:28:01.000Z</time>
        <extensions>
          <ns3:TrackPointExtension>
            <ns3:atemp>22.0</ns3:atemp>
            <ns3:hr>112</ns3:hr>
          </ns3:TrackPointExtension>
        </extensions>
      </trkpt>
      <trkpt lat="-22.1233855001628398895263671875" lon="166.4392667077481746673583984375">
        <ele>58.799999237060546875</ele>
        <time>2016-08-12T17:28:02.000Z</time>
        <extensions>
          <ns3:TrackPointExtension>
            <ns3:atemp>22.0</ns3:atemp>
            <ns3:hr>112</ns3:hr>
          </ns3:TrackPointExtension>
        </extensions>
      </trkpt>
      <trkpt lat="-22.123372592031955718994140625" lon="166.43926260061562061309814453125">
        <ele>59</ele>
        <time>2016-08-12T17:28:03.000Z</time>
        <extensions>
          <ns3:TrackPointExtension>
            <ns3:atemp>22.0</ns3:atemp>
            <ns3:hr>112</ns3:hr>
          </ns3:TrackPointExtension>
        </extensions>
      </trkpt>
      <trkpt lat="-22.123358510434627532958984375" lon="166.4392594993114471435546875">
        <ele>59.200000762939453125</ele>
        <time>2016-08-12T17:28:04.000Z</time>
        <extensions>
          <ns3:TrackPointExtension>
            <ns3:atemp>22.0</ns3:atemp>
            <ns3:hr>112</ns3:hr>
          </ns3:TrackPointExtension>
        </extensions>
      </trkpt>
      <trkpt lat="-22.12334417738020420074462890625" lon="166.43925623036921024322509765625">
        <ele>59.200000762939453125</ele>
        <time>2016-08-12T17:28:05.000Z</time>
        <extensions>
          <ns3:TrackPointExtension>
            <ns3:atemp>22.0</ns3:atemp>
            <ns3:hr>113</ns3:hr>
          </ns3:TrackPointExtension>
        </extensions>
      </trkpt>
      <trkpt lat="-22.1233328618109226226806640625" lon="166.4392519555985927581787109375">
        <ele>59.59999847412109375</ele>
        <time>2016-08-12T17:28:06.000Z</time>
        <extensions>
          <ns3:TrackPointExtension>
            <ns3:atemp>22.0</ns3:atemp>
            <ns3:hr>113</ns3:hr>
          </ns3:TrackPointExtension>
        </extensions>
      </trkpt>
      <trkpt lat="-22.123319618403911590576171875" lon="166.43924717791378498077392578125">
        <ele>59.59999847412109375</ele>
        <time>2016-08-12T17:28:07.000Z</time>
        <extensions>
          <ns3:TrackPointExtension>
            <ns3:atemp>22.0</ns3:atemp>
            <ns3:hr>113</ns3:hr>
          </ns3:TrackPointExtension>
        </extensions>
      </trkpt>
      <trkpt lat="-22.12330595590174198150634765625" lon="166.4392418973147869110107421875">
        <ele>59.799999237060546875</ele>
        <time>2016-08-12T17:28:08.000Z</time>
        <extensions>
          <ns3:TrackPointExtension>
            <ns3:atemp>22.0</ns3:atemp>
            <ns3:hr>113</ns3:hr>
          </ns3:TrackPointExtension>
        </extensions>
      </trkpt>
      <trkpt lat="-22.12328986264765262603759765625" lon="166.4392380416393280029296875">
        <ele>60</ele>
        <time>2016-08-12T17:28:09.000Z</time>
        <extensions>
          <ns3:TrackPointExtension>
            <ns3:atemp>22.0</ns3:atemp>
            <ns3:hr>113</ns3:hr>
          </ns3:TrackPointExtension>
        </extensions>
      </trkpt>
      <trkpt lat="-22.12327527813613414764404296875" lon="166.43923359923064708709716796875">
        <ele>60</ele>
        <time>2016-08-12T17:28:10.000Z</time>
        <extensions>
          <ns3:TrackPointExtension>
            <ns3:atemp>22.0</ns3:atemp>
            <ns3:hr>113</ns3:hr>
          </ns3:TrackPointExtension>
        </extensions>
      </trkpt>
      <trkpt lat="-22.1232634596526622772216796875" lon="166.43922857008874416351318359375">
        <ele>60.200000762939453125</ele>
        <time>2016-08-12T17:28:11.000Z</time>
        <extensions>
          <ns3:TrackPointExtension>
            <ns3:atemp>22.0</ns3:atemp>
            <ns3:hr>112</ns3:hr>
          </ns3:TrackPointExtension>
        </extensions>
      </trkpt>
      <trkpt lat="-22.12325063534080982208251953125" lon="166.4392241276800632476806640625">
        <ele>60.40000152587890625</ele>
        <time>2016-08-12T17:28:12.000Z</time>
        <extensions>
          <ns3:TrackPointExtension>
            <ns3:atemp>22.0</ns3:atemp>
            <ns3:hr>112</ns3:hr>
          </ns3:TrackPointExtension>
        </extensions>
      </trkpt>
      <trkpt lat="-22.12323454208672046661376953125" lon="166.43922253511846065521240234375">
        <ele>60.59999847412109375</ele>
        <time>2016-08-12T17:28:13.000Z</time>
        <extensions>
          <ns3:TrackPointExtension>
            <ns3:atemp>22.0</ns3:atemp>
            <ns3:hr>112</ns3:hr>
          </ns3:TrackPointExtension>
        </extensions>
      </trkpt>
      <trkpt lat="-22.1232185326516628265380859375" lon="166.43922328948974609375">
        <ele>61</ele>
        <time>2016-08-12T17:28:14.000Z</time>
        <extensions>
          <ns3:TrackPointExtension>
            <ns3:atemp>22.0</ns3:atemp>
            <ns3:hr>112</ns3:hr>
          </ns3:TrackPointExtension>
        </extensions>
      </trkpt>
      <trkpt lat="-22.12320386432111263275146484375" lon="166.439223624765872955322265625">
        <ele>61</ele>
        <time>2016-08-12T17:28:15.000Z</time>
        <extensions>
          <ns3:TrackPointExtension>
            <ns3:atemp>22.0</ns3:atemp>
            <ns3:hr>113</ns3:hr>
          </ns3:TrackPointExtension>
        </extensions>
      </trkpt>
      <trkpt lat="-22.12319078855216503143310546875" lon="166.4392217807471752166748046875">
        <ele>61.200000762939453125</ele>
        <time>2016-08-12T17:28:16.000Z</time>
        <extensions>
          <ns3:TrackPointExtension>
            <ns3:atemp>22.0</ns3:atemp>
            <ns3:hr>113</ns3:hr>
          </ns3:TrackPointExtension>
        </extensions>
      </trkpt>
      <trkpt lat="-22.1231782995164394378662109375" lon="166.43921934999525547027587890625">
        <ele>61.40000152587890625</ele>
        <time>2016-08-12T17:28:17.000Z</time>
        <extensions>
          <ns3:TrackPointExtension>
            <ns3:atemp>22.0</ns3:atemp>
            <ns3:hr>113</ns3:hr>
          </ns3:TrackPointExtension>
        </extensions>
      </trkpt>
      <trkpt lat="-22.123166732490062713623046875" lon="166.43921532668173313140869140625">
        <ele>61.59999847412109375</ele>
        <time>2016-08-12T17:28:18.000Z</time>
        <extensions>
          <ns3:TrackPointExtension>
            <ns3:atemp>22.0</ns3:atemp>
            <ns3:hr>113</ns3:hr>
          </ns3:TrackPointExtension>
        </extensions>
      </trkpt>
      <trkpt lat="-22.12315541692078113555908203125" lon="166.4392103813588619232177734375">
        <ele>61.799999237060546875</ele>
        <time>2016-08-12T17:28:19.000Z</time>
        <extensions>
          <ns3:TrackPointExtension>
            <ns3:atemp>22.0</ns3:atemp>
            <ns3:hr>113</ns3:hr>
          </ns3:TrackPointExtension>
        </extensions>
      </trkpt>
      <trkpt lat="-22.1231429278850555419921875" lon="166.4392076991498470306396484375">
        <ele>62</ele>
        <time>2016-08-12T17:28:20.000Z</time>
        <extensions>
          <ns3:TrackPointExtension>
            <ns3:atemp>22.0</ns3:atemp>
            <ns3:hr>113</ns3:hr>
          </ns3:TrackPointExtension>
        </extensions>
      </trkpt>
      <trkpt lat="-22.12311417795717716217041015625" lon="166.43920493312180042266845703125">
        <ele>62.200000762939453125</ele>
        <time>2016-08-12T17:28:22.000Z</time>
        <extensions>
          <ns3:TrackPointExtension>
            <ns3:atemp>22.0</ns3:atemp>
            <ns3:hr>113</ns3:hr>
          </ns3:TrackPointExtension>
        </extensions>
      </trkpt>
      <trkpt lat="-22.1231008507311344146728515625" lon="166.439200825989246368408203125">
        <ele>62.59999847412109375</ele>
        <time>2016-08-12T17:28:23.000Z</time>
        <extensions>
          <ns3:TrackPointExtension>
            <ns3:atemp>22.0</ns3:atemp>
            <ns3:hr>113</ns3:hr>
          </ns3:TrackPointExtension>
        </extensions>
      </trkpt>
      <trkpt lat="-22.12308936752378940582275390625" lon="166.43919873051345348358154296875">
        <ele>62.799999237060546875</ele>
        <time>2016-08-12T17:28:24.000Z</time>
        <extensions>
          <ns3:TrackPointExtension>
            <ns3:atemp>22.0</ns3:atemp>
            <ns3:hr>113</ns3:hr>
          </ns3:TrackPointExtension>
        </extensions>
      </trkpt>
      <trkpt lat="-22.123077549040317535400390625" lon="166.43919822759926319122314453125">
        <ele>63.200000762939453125</ele>
        <time>2016-08-12T17:28:25.000Z</time>
        <extensions>
          <ns3:TrackPointExtension>
            <ns3:atemp>22.0</ns3:atemp>
            <ns3:hr>114</ns3:hr>
          </ns3:TrackPointExtension>
        </extensions>
      </trkpt>
      <trkpt lat="-22.12306313216686248779296875" lon="166.43919873051345348358154296875">
        <ele>63.40000152587890625</ele>
        <time>2016-08-12T17:28:26.000Z</time>
        <extensions>
          <ns3:TrackPointExtension>
            <ns3:atemp>22.0</ns3:atemp>
            <ns3:hr>114</ns3:hr>
          </ns3:TrackPointExtension>
        </extensions>
      </trkpt>
      <trkpt lat="-22.12304729036986827850341796875" lon="166.43919873051345348358154296875">
        <ele>63.59999847412109375</ele>
        <time>2016-08-12T17:28:27.000Z</time>
        <extensions>
          <ns3:TrackPointExtension>
            <ns3:atemp>22.0</ns3:atemp>
            <ns3:hr>114</ns3:hr>
          </ns3:TrackPointExtension>
        </extensions>
      </trkpt>
      <trkpt lat="-22.123033963143825531005859375" lon="166.439196802675724029541015625">
        <ele>63.799999237060546875</ele>
        <time>2016-08-12T17:28:28.000Z</time>
        <extensions>
          <ns3:TrackPointExtension>
            <ns3:atemp>22.0</ns3:atemp>
            <ns3:hr>115</ns3:hr>
          </ns3:TrackPointExtension>
        </extensions>
      </trkpt>
      <trkpt lat="-22.12302013300359249114990234375" lon="166.4391983114182949066162109375">
        <ele>64</ele>
        <time>2016-08-12T17:28:29.000Z</time>
        <extensions>
          <ns3:TrackPointExtension>
            <ns3:atemp>22.0</ns3:atemp>
            <ns3:hr>114</ns3:hr>
          </ns3:TrackPointExtension>
        </extensions>
      </trkpt>
      <trkpt lat="-22.1230063028633594512939453125" lon="166.43920225091278553009033203125">
        <ele>64.1999969482421875</ele>
        <time>2016-08-12T17:28:30.000Z</time>
        <extensions>
          <ns3:TrackPointExtension>
            <ns3:atemp>22.0</ns3:atemp>
            <ns3:hr>115</ns3:hr>
          </ns3:TrackPointExtension>
        </extensions>
      </trkpt>
      <trkpt lat="-22.12299146689474582672119140625" lon="166.4392026700079441070556640625">
        <ele>64.40000152587890625</ele>
        <time>2016-08-12T17:28:31.000Z</time>
        <extensions>
          <ns3:TrackPointExtension>
            <ns3:atemp>22.0</ns3:atemp>
            <ns3:hr>115</ns3:hr>
          </ns3:TrackPointExtension>
        </extensions>
      </trkpt>
      <trkpt lat="-22.1229767985641956329345703125" lon="166.43920158036053180694580078125">
        <ele>64.59999847412109375</ele>
        <time>2016-08-12T17:28:32.000Z</time>
        <extensions>
          <ns3:TrackPointExtension>
            <ns3:atemp>22.0</ns3:atemp>
            <ns3:hr>115</ns3:hr>
          </ns3:TrackPointExtension>
        </extensions>
      </trkpt>
      <trkpt lat="-22.12296213023364543914794921875" lon="166.4392009936273097991943359375">
        <ele>64.8000030517578125</ele>
        <time>2016-08-12T17:28:33.000Z</time>
        <extensions>
          <ns3:TrackPointExtension>
            <ns3:atemp>22.0</ns3:atemp>
            <ns3:hr>115</ns3:hr>
          </ns3:TrackPointExtension>
        </extensions>
      </trkpt>
      <trkpt lat="-22.122946791350841522216796875" lon="166.439198143780231475830078125">
        <ele>64.8000030517578125</ele>
        <time>2016-08-12T17:28:34.000Z</time>
        <extensions>
          <ns3:TrackPointExtension>
            <ns3:atemp>22.0</ns3:atemp>
            <ns3:hr>115</ns3:hr>
          </ns3:TrackPointExtension>
        </extensions>
      </trkpt>
      <trkpt lat="-22.12293296121060848236083984375" lon="166.43919646739959716796875">
        <ele>65</ele>
        <time>2016-08-12T17:28:35.000Z</time>
        <extensions>
          <ns3:TrackPointExtension>
            <ns3:atemp>22.0</ns3:atemp>
            <ns3:hr>115</ns3:hr>
          </ns3:TrackPointExtension>
        </extensions>
      </trkpt>
      <trkpt lat="-22.12291896343231201171875" lon="166.4391946233808994293212890625">
        <ele>65.1999969482421875</ele>
        <time>2016-08-12T17:28:36.000Z</time>
        <extensions>
          <ns3:TrackPointExtension>
            <ns3:atemp>22.0</ns3:atemp>
            <ns3:hr>116</ns3:hr>
          </ns3:TrackPointExtension>
        </extensions>
      </trkpt>
      <trkpt lat="-22.12290463037788867950439453125" lon="166.439194120466709136962890625">
        <ele>65.40000152587890625</ele>
        <time>2016-08-12T17:28:37.000Z</time>
        <extensions>
          <ns3:TrackPointExtension>
            <ns3:atemp>22.0</ns3:atemp>
            <ns3:hr>116</ns3:hr>
          </ns3:TrackPointExtension>
        </extensions>
      </trkpt>
      <trkpt lat="-22.1228892914950847625732421875" lon="166.43919219262897968292236328125">
        <ele>65.59999847412109375</ele>
        <time>2016-08-12T17:28:38.000Z</time>
        <extensions>
          <ns3:TrackPointExtension>
            <ns3:atemp>22.0</ns3:atemp>
            <ns3:hr>116</ns3:hr>
          </ns3:TrackPointExtension>
        </extensions>
      </trkpt>
      <trkpt lat="-22.12287403643131256103515625" lon="166.4391899295151233673095703125">
        <ele>65.8000030517578125</ele>
        <time>2016-08-12T17:28:39.000Z</time>
        <extensions>
          <ns3:TrackPointExtension>
            <ns3:atemp>22.0</ns3:atemp>
            <ns3:hr>116</ns3:hr>
          </ns3:TrackPointExtension>
        </extensions>
      </trkpt>
      <trkpt lat="-22.12285769172012805938720703125" lon="166.43918749876320362091064453125">
        <ele>65.8000030517578125</ele>
        <time>2016-08-12T17:28:40.000Z</time>
        <extensions>
          <ns3:TrackPointExtension>
            <ns3:atemp>22.0</ns3:atemp>
            <ns3:hr>116</ns3:hr>
          </ns3:TrackPointExtension>
        </extensions>
      </trkpt>
      <trkpt lat="-22.1228425204753875732421875" lon="166.43918506801128387451171875">
        <ele>66</ele>
        <time>2016-08-12T17:28:41.000Z</time>
        <extensions>
          <ns3:TrackPointExtension>
            <ns3:atemp>22.0</ns3:atemp>
            <ns3:hr>116</ns3:hr>
          </ns3:TrackPointExtension>
        </extensions>
      </trkpt>
      <trkpt lat="-22.1228269301354885101318359375" lon="166.4391812123358249664306640625">
        <ele>66.1999969482421875</ele>
        <time>2016-08-12T17:28:42.000Z</time>
        <extensions>
          <ns3:TrackPointExtension>
            <ns3:atemp>22.0</ns3:atemp>
            <ns3:hr>116</ns3:hr>
          </ns3:TrackPointExtension>
        </extensions>
      </trkpt>
      <trkpt lat="-22.12281360290944576263427734375" lon="166.43918029032647609710693359375">
        <ele>66.1999969482421875</ele>
        <time>2016-08-12T17:28:43.000Z</time>
        <extensions>
          <ns3:TrackPointExtension>
            <ns3:atemp>22.0</ns3:atemp>
            <ns3:hr>116</ns3:hr>
          </ns3:TrackPointExtension>
        </extensions>
      </trkpt>
      <trkpt lat="-22.122799269855022430419921875" lon="166.4391803741455078125">
        <ele>66.40000152587890625</ele>
        <time>2016-08-12T17:28:44.000Z</time>
        <extensions>
          <ns3:TrackPointExtension>
            <ns3:atemp>22.0</ns3:atemp>
            <ns3:hr>116</ns3:hr>
          </ns3:TrackPointExtension>
        </extensions>
      </trkpt>
      <trkpt lat="-22.12278393097221851348876953125" lon="166.4391828887164592742919921875">
        <ele>66.40000152587890625</ele>
        <time>2016-08-12T17:28:45.000Z</time>
        <extensions>
          <ns3:TrackPointExtension>
            <ns3:atemp>22.0</ns3:atemp>
            <ns3:hr>117</ns3:hr>
          </ns3:TrackPointExtension>
        </extensions>
      </trkpt>
      <trkpt lat="-22.1227692626416683197021484375" lon="166.439186744391918182373046875">
        <ele>66.59999847412109375</ele>
        <time>2016-08-12T17:28:46.000Z</time>
        <extensions>
          <ns3:TrackPointExtension>
            <ns3:atemp>22.0</ns3:atemp>
            <ns3:hr>117</ns3:hr>
          </ns3:TrackPointExtension>
        </extensions>
      </trkpt>
      <trkpt lat="-22.12275601923465728759765625" lon="166.4391885884106159210205078125">
        <ele>66.59999847412109375</ele>
        <time>2016-08-12T17:28:47.000Z</time>
        <extensions>
          <ns3:TrackPointExtension>
            <ns3:atemp>22.0</ns3:atemp>
            <ns3:hr>117</ns3:hr>
          </ns3:TrackPointExtension>
        </extensions>
      </trkpt>
      <trkpt lat="-22.12274336256086826324462890625" lon="166.4391872473061084747314453125">
        <ele>66.59999847412109375</ele>
        <time>2016-08-12T17:28:48.000Z</time>
        <extensions>
          <ns3:TrackPointExtension>
            <ns3:atemp>22.0</ns3:atemp>
            <ns3:hr>117</ns3:hr>
          </ns3:TrackPointExtension>
        </extensions>
      </trkpt>
      <trkpt lat="-22.1227307058870792388916015625" lon="166.4391870796680450439453125">
        <ele>66.59999847412109375</ele>
        <time>2016-08-12T17:28:49.000Z</time>
        <extensions>
          <ns3:TrackPointExtension>
            <ns3:atemp>22.0</ns3:atemp>
            <ns3:hr>117</ns3:hr>
          </ns3:TrackPointExtension>
        </extensions>
      </trkpt>
      <trkpt lat="-22.122716121375560760498046875" lon="166.43918733112514019012451171875">
        <ele>67</ele>
        <time>2016-08-12T17:28:50.000Z</time>
        <extensions>
          <ns3:TrackPointExtension>
            <ns3:atemp>22.0</ns3:atemp>
            <ns3:hr>117</ns3:hr>
          </ns3:TrackPointExtension>
        </extensions>
      </trkpt>
      <trkpt lat="-22.1227022074162960052490234375" lon="166.43918733112514019012451171875">
        <ele>67.40000152587890625</ele>
        <time>2016-08-12T17:28:51.000Z</time>
        <extensions>
          <ns3:TrackPointExtension>
            <ns3:atemp>22.0</ns3:atemp>
            <ns3:hr>117</ns3:hr>
          </ns3:TrackPointExtension>
        </extensions>
      </trkpt>
      <trkpt lat="-22.1226874552667140960693359375" lon="166.43918632529675960540771484375">
        <ele>67.59999847412109375</ele>
        <time>2016-08-12T17:28:52.000Z</time>
        <extensions>
          <ns3:TrackPointExtension>
            <ns3:atemp>22.0</ns3:atemp>
            <ns3:hr>117</ns3:hr>
          </ns3:TrackPointExtension>
        </extensions>
      </trkpt>
      <trkpt lat="-22.12267278693616390228271484375" lon="166.43918548710644245147705078125">
        <ele>67.59999847412109375</ele>
        <time>2016-08-12T17:28:53.000Z</time>
        <extensions>
          <ns3:TrackPointExtension>
            <ns3:atemp>22.0</ns3:atemp>
            <ns3:hr>117</ns3:hr>
          </ns3:TrackPointExtension>
        </extensions>
      </trkpt>
      <trkpt lat="-22.1226586215198040008544921875" lon="166.43918749876320362091064453125">
        <ele>67.8000030517578125</ele>
        <time>2016-08-12T17:28:54.000Z</time>
        <extensions>
          <ns3:TrackPointExtension>
            <ns3:atemp>22.0</ns3:atemp>
            <ns3:hr>117</ns3:hr>
          </ns3:TrackPointExtension>
        </extensions>
      </trkpt>
      <trkpt lat="-22.122644372284412384033203125" lon="166.43918699584901332855224609375">
        <ele>68</ele>
        <time>2016-08-12T17:28:55.000Z</time>
        <extensions>
          <ns3:TrackPointExtension>
            <ns3:atemp>22.0</ns3:atemp>
            <ns3:hr>116</ns3:hr>
          </ns3:TrackPointExtension>
        </extensions>
      </trkpt>
      <trkpt lat="-22.12262936867773532867431640625" lon="166.43918515183031558990478515625">
        <ele>68</ele>
        <time>2016-08-12T17:28:56.000Z</time>
        <extensions>
          <ns3:TrackPointExtension>
            <ns3:atemp>22.0</ns3:atemp>
            <ns3:hr>116</ns3:hr>
          </ns3:TrackPointExtension>
        </extensions>
      </trkpt>
      <trkpt lat="-22.12261562235653400421142578125" lon="166.43918531946837902069091796875">
        <ele>68.1999969482421875</ele>
        <time>2016-08-12T17:28:57.000Z</time>
        <extensions>
          <ns3:TrackPointExtension>
            <ns3:atemp>22.0</ns3:atemp>
            <ns3:hr>116</ns3:hr>
          </ns3:TrackPointExtension>
        </extensions>
      </trkpt>
      <trkpt lat="-22.122602798044681549072265625" lon="166.43918582238256931304931640625">
        <ele>68.1999969482421875</ele>
        <time>2016-08-12T17:28:58.000Z</time>
        <extensions>
          <ns3:TrackPointExtension>
            <ns3:atemp>22.0</ns3:atemp>
            <ns3:hr>116</ns3:hr>
          </ns3:TrackPointExtension>
        </extensions>
      </trkpt>
      <trkpt lat="-22.122591398656368255615234375" lon="166.439186073839664459228515625">
        <ele>68.40000152587890625</ele>
        <time>2016-08-12T17:28:59.000Z</time>
        <extensions>
          <ns3:TrackPointExtension>
            <ns3:atemp>22.0</ns3:atemp>
            <ns3:hr>116</ns3:hr>
          </ns3:TrackPointExtension>
        </extensions>
      </trkpt>
      <trkpt lat="-22.12258092127740383148193359375" lon="166.439185403287410736083984375">
        <ele>68.59999847412109375</ele>
        <time>2016-08-12T17:29:00.000Z</time>
        <extensions>
          <ns3:TrackPointExtension>
            <ns3:atemp>22.0</ns3:atemp>
            <ns3:hr>115</ns3:hr>
          </ns3:TrackPointExtension>
        </extensions>
      </trkpt>
      <trkpt lat="-22.122569940984249114990234375" lon="166.43918314017355442047119140625">
        <ele>68.59999847412109375</ele>
        <time>2016-08-12T17:29:01.000Z</time>
        <extensions>
          <ns3:TrackPointExtension>
            <ns3:atemp>22.0</ns3:atemp>
            <ns3:hr>115</ns3:hr>
          </ns3:TrackPointExtension>
        </extensions>
      </trkpt>
      <trkpt lat="-22.122557871043682098388671875" lon="166.43918146379292011260986328125">
        <ele>68.8000030517578125</ele>
        <time>2016-08-12T17:29:02.000Z</time>
        <extensions>
          <ns3:TrackPointExtension>
            <ns3:atemp>22.0</ns3:atemp>
            <ns3:hr>115</ns3:hr>
          </ns3:TrackPointExtension>
        </extensions>
      </trkpt>
      <trkpt lat="-22.122545801103115081787109375" lon="166.43918096087872982025146484375">
        <ele>68.8000030517578125</ele>
        <time>2016-08-12T17:29:03.000Z</time>
        <extensions>
          <ns3:TrackPointExtension>
            <ns3:atemp>22.0</ns3:atemp>
            <ns3:hr>114</ns3:hr>
          </ns3:TrackPointExtension>
        </extensions>
      </trkpt>
      <trkpt lat="-22.1225338988006114959716796875" lon="166.4391751773655414581298828125">
        <ele>69</ele>
        <time>2016-08-12T17:29:04.000Z</time>
        <extensions>
          <ns3:TrackPointExtension>
            <ns3:atemp>22.0</ns3:atemp>
            <ns3:hr>113</ns3:hr>
          </ns3:TrackPointExtension>
        </extensions>
      </trkpt>
      <trkpt lat="-22.12252241559326648712158203125" lon="166.4391724951565265655517578125">
        <ele>69</ele>
        <time>2016-08-12T17:29:05.000Z</time>
        <extensions>
          <ns3:TrackPointExtension>
            <ns3:atemp>22.0</ns3:atemp>
            <ns3:hr>113</ns3:hr>
          </ns3:TrackPointExtension>
        </extensions>
      </trkpt>
      <trkpt lat="-22.122510261833667755126953125" lon="166.43916989676654338836669921875">
        <ele>69</ele>
        <time>2016-08-12T17:29:06.000Z</time>
        <extensions>
          <ns3:TrackPointExtension>
            <ns3:atemp>22.0</ns3:atemp>
            <ns3:hr>112</ns3:hr>
          </ns3:TrackPointExtension>
        </extensions>
      </trkpt>
      <trkpt lat="-22.1224966831505298614501953125" lon="166.4391681365668773651123046875">
        <ele>69.1999969482421875</ele>
        <time>2016-08-12T17:29:07.000Z</time>
        <extensions>
          <ns3:TrackPointExtension>
            <ns3:atemp>22.0</ns3:atemp>
            <ns3:hr>112</ns3:hr>
          </ns3:TrackPointExtension>
        </extensions>
      </trkpt>
      <trkpt lat="-22.12248134426772594451904296875" lon="166.43916721455752849578857421875">
        <ele>69.1999969482421875</ele>
        <time>2016-08-12T17:29:08.000Z</time>
        <extensions>
          <ns3:TrackPointExtension>
            <ns3:atemp>22.0</ns3:atemp>
            <ns3:hr>112</ns3:hr>
          </ns3:TrackPointExtension>
        </extensions>
      </trkpt>
      <trkpt lat="-22.122466675937175750732421875" lon="166.43916495144367218017578125">
        <ele>69.40000152587890625</ele>
        <time>2016-08-12T17:29:09.000Z</time>
        <extensions>
          <ns3:TrackPointExtension>
            <ns3:atemp>22.0</ns3:atemp>
            <ns3:hr>112</ns3:hr>
          </ns3:TrackPointExtension>
        </extensions>
      </trkpt>
      <trkpt lat="-22.1224524267017841339111328125" lon="166.4391657896339893341064453125">
        <ele>69.40000152587890625</ele>
        <time>2016-08-12T17:29:10.000Z</time>
        <extensions>
          <ns3:TrackPointExtension>
            <ns3:atemp>22.0</ns3:atemp>
            <ns3:hr>112</ns3:hr>
          </ns3:TrackPointExtension>
        </extensions>
      </trkpt>
      <trkpt lat="-22.12243759073317050933837890625" lon="166.43916704691946506500244140625">
        <ele>69.40000152587890625</ele>
        <time>2016-08-12T17:29:11.000Z</time>
        <extensions>
          <ns3:TrackPointExtension>
            <ns3:atemp>22.0</ns3:atemp>
            <ns3:hr>112</ns3:hr>
          </ns3:TrackPointExtension>
        </extensions>
      </trkpt>
      <trkpt lat="-22.12242334149777889251708984375" lon="166.4391644485294818878173828125">
        <ele>69.40000152587890625</ele>
        <time>2016-08-12T17:29:12.000Z</time>
        <extensions>
          <ns3:TrackPointExtension>
            <ns3:atemp>22.0</ns3:atemp>
            <ns3:hr>111</ns3:hr>
          </ns3:TrackPointExtension>
        </extensions>
      </trkpt>
      <trkpt lat="-22.12241093628108501434326171875" lon="166.439161598682403564453125">
        <ele>69.59999847412109375</ele>
        <time>2016-08-12T17:29:13.000Z</time>
        <extensions>
          <ns3:TrackPointExtension>
            <ns3:atemp>22.0</ns3:atemp>
            <ns3:hr>111</ns3:hr>
          </ns3:TrackPointExtension>
        </extensions>
      </trkpt>
      <trkpt lat="-22.1224007941782474517822265625" lon="166.43915866501629352569580078125">
        <ele>69.59999847412109375</ele>
        <time>2016-08-12T17:29:14.000Z</time>
        <extensions>
          <ns3:TrackPointExtension>
            <ns3:atemp>22.0</ns3:atemp>
            <ns3:hr>110</ns3:hr>
          </ns3:TrackPointExtension>
        </extensions>
      </trkpt>
      <trkpt lat="-22.1223892271518707275390625" lon="166.43915497697889804840087890625">
        <ele>69.59999847412109375</ele>
        <time>2016-08-12T17:29:15.000Z</time>
        <extensions>
          <ns3:TrackPointExtension>
            <ns3:atemp>22.0</ns3:atemp>
            <ns3:hr>110</ns3:hr>
          </ns3:TrackPointExtension>
        </extensions>
      </trkpt>
      <trkpt lat="-22.12237539701163768768310546875" lon="166.4391490258276462554931640625">
        <ele>69.8000030517578125</ele>
        <time>2016-08-12T17:29:16.000Z</time>
        <extensions>
          <ns3:TrackPointExtension>
            <ns3:atemp>22.0</ns3:atemp>
            <ns3:hr>109</ns3:hr>
          </ns3:TrackPointExtension>
        </extensions>
      </trkpt>
      <trkpt lat="-22.12236081250011920928955078125" lon="166.43914441578090190887451171875">
        <ele>69.8000030517578125</ele>
        <time>2016-08-12T17:29:17.000Z</time>
        <extensions>
          <ns3:TrackPointExtension>
            <ns3:atemp>22.0</ns3:atemp>
            <ns3:hr>109</ns3:hr>
          </ns3:TrackPointExtension>
        </extensions>
      </trkpt>
      <trkpt lat="-22.122345305979251861572265625" lon="166.43914374522864818572998046875">
        <ele>69.8000030517578125</ele>
        <time>2016-08-12T17:29:18.000Z</time>
        <extensions>
          <ns3:TrackPointExtension>
            <ns3:atemp>22.0</ns3:atemp>
            <ns3:hr>108</ns3:hr>
          </ns3:TrackPointExtension>
        </extensions>
      </trkpt>
      <trkpt lat="-22.12233063764870166778564453125" lon="166.4391436614096164703369140625">
        <ele>70</ele>
        <time>2016-08-12T17:29:19.000Z</time>
        <extensions>
          <ns3:TrackPointExtension>
            <ns3:atemp>22.0</ns3:atemp>
            <ns3:hr>108</ns3:hr>
          </ns3:TrackPointExtension>
        </extensions>
      </trkpt>
      <trkpt lat="-22.1223168075084686279296875" lon="166.43914525397121906280517578125">
        <ele>70</ele>
        <time>2016-08-12T17:29:20.000Z</time>
        <extensions>
          <ns3:TrackPointExtension>
            <ns3:atemp>22.0</ns3:atemp>
            <ns3:hr>108</ns3:hr>
          </ns3:TrackPointExtension>
        </extensions>
      </trkpt>
      <trkpt lat="-22.12230163626372814178466796875" lon="166.4391470141708850860595703125">
        <ele>70</ele>
        <time>2016-08-12T17:29:21.000Z</time>
        <extensions>
          <ns3:TrackPointExtension>
            <ns3:atemp>22.0</ns3:atemp>
            <ns3:hr>109</ns3:hr>
          </ns3:TrackPointExtension>
        </extensions>
      </trkpt>
      <trkpt lat="-22.12228755466639995574951171875" lon="166.43914642743766307830810546875">
        <ele>70</ele>
        <time>2016-08-12T17:29:22.000Z</time>
        <extensions>
          <ns3:TrackPointExtension>
            <ns3:atemp>22.0</ns3:atemp>
            <ns3:hr>109</ns3:hr>
          </ns3:TrackPointExtension>
        </extensions>
      </trkpt>
      <trkpt lat="-22.12227280251681804656982421875" lon="166.43914542160928249359130859375">
        <ele>70</ele>
        <time>2016-08-12T17:29:23.000Z</time>
        <extensions>
          <ns3:TrackPointExtension>
            <ns3:atemp>22.0</ns3:atemp>
            <ns3:hr>109</ns3:hr>
          </ns3:TrackPointExtension>
        </extensions>
      </trkpt>
      <trkpt lat="-22.12225737981498241424560546875" lon="166.43914391286671161651611328125">
        <ele>70</ele>
        <time>2016-08-12T17:29:24.000Z</time>
        <extensions>
          <ns3:TrackPointExtension>
            <ns3:atemp>22.0</ns3:atemp>
            <ns3:hr>108</ns3:hr>
          </ns3:TrackPointExtension>
        </extensions>
      </trkpt>
      <trkpt lat="-22.12224380113184452056884765625" lon="166.43914475105702877044677734375">
        <ele>70.1999969482421875</ele>
        <time>2016-08-12T17:29:25.000Z</time>
        <extensions>
          <ns3:TrackPointExtension>
            <ns3:atemp>22.0</ns3:atemp>
            <ns3:hr>108</ns3:hr>
          </ns3:TrackPointExtension>
        </extensions>
      </trkpt>
      <trkpt lat="-22.122230641543865203857421875" lon="166.4391486905515193939208984375">
        <ele>70.1999969482421875</ele>
        <time>2016-08-12T17:29:26.000Z</time>
        <extensions>
          <ns3:TrackPointExtension>
            <ns3:atemp>22.0</ns3:atemp>
            <ns3:hr>108</ns3:hr>
          </ns3:TrackPointExtension>
        </extensions>
      </trkpt>
      <trkpt lat="-22.1222204156219959259033203125" lon="166.43915195949375629425048828125">
        <ele>70.1999969482421875</ele>
        <time>2016-08-12T17:29:27.000Z</time>
        <extensions>
          <ns3:TrackPointExtension>
            <ns3:atemp>22.0</ns3:atemp>
            <ns3:hr>108</ns3:hr>
          </ns3:TrackPointExtension>
        </extensions>
      </trkpt>
      <trkpt lat="-22.12220616638660430908203125" lon="166.4391522109508514404296875">
        <ele>70.40000152587890625</ele>
        <time>2016-08-12T17:29:28.000Z</time>
        <extensions>
          <ns3:TrackPointExtension>
            <ns3:atemp>22.0</ns3:atemp>
            <ns3:hr>106</ns3:hr>
          </ns3:TrackPointExtension>
        </extensions>
      </trkpt>
      <trkpt lat="-22.1221892349421977996826171875" lon="166.439152546226978302001953125">
        <ele>70.40000152587890625</ele>
        <time>2016-08-12T17:29:29.000Z</time>
        <extensions>
          <ns3:TrackPointExtension>
            <ns3:atemp>22.0</ns3:atemp>
            <ns3:hr>106</ns3:hr>
          </ns3:TrackPointExtension>
        </extensions>
      </trkpt>
      <trkpt lat="-22.1221724711358547210693359375" lon="166.43915564753115177154541015625">
        <ele>70.40000152587890625</ele>
        <time>2016-08-12T17:29:30.000Z</time>
        <extensions>
          <ns3:TrackPointExtension>
            <ns3:atemp>22.0</ns3:atemp>
            <ns3:hr>106</ns3:hr>
          </ns3:TrackPointExtension>
        </extensions>
      </trkpt>
      <trkpt lat="-22.1221453137695789337158203125" lon="166.4391527138650417327880859375">
        <ele>70.59999847412109375</ele>
        <time>2016-08-12T17:29:32.000Z</time>
        <extensions>
          <ns3:TrackPointExtension>
            <ns3:atemp>22.0</ns3:atemp>
            <ns3:hr>107</ns3:hr>
          </ns3:TrackPointExtension>
        </extensions>
      </trkpt>
      <trkpt lat="-22.12213148362934589385986328125" lon="166.43915547989308834075927734375">
        <ele>70.59999847412109375</ele>
        <time>2016-08-12T17:29:33.000Z</time>
        <extensions>
          <ns3:TrackPointExtension>
            <ns3:atemp>22.0</ns3:atemp>
            <ns3:hr>110</ns3:hr>
          </ns3:TrackPointExtension>
        </extensions>
      </trkpt>
      <trkpt lat="-22.12212041951715946197509765625" lon="166.439158916473388671875">
        <ele>70.8000030517578125</ele>
        <time>2016-08-12T17:29:34.000Z</time>
        <extensions>
          <ns3:TrackPointExtension>
            <ns3:atemp>22.0</ns3:atemp>
            <ns3:hr>110</ns3:hr>
          </ns3:TrackPointExtension>
        </extensions>
      </trkpt>
      <trkpt lat="-22.12211086414754390716552734375" lon="166.43916335888206958770751953125">
        <ele>70.8000030517578125</ele>
        <time>2016-08-12T17:29:35.000Z</time>
        <extensions>
          <ns3:TrackPointExtension>
            <ns3:atemp>22.0</ns3:atemp>
            <ns3:hr>110</ns3:hr>
          </ns3:TrackPointExtension>
        </extensions>
      </trkpt>
      <trkpt lat="-22.12210021913051605224609375" lon="166.43916872330009937286376953125">
        <ele>71</ele>
        <time>2016-08-12T17:29:36.000Z</time>
        <extensions>
          <ns3:TrackPointExtension>
            <ns3:atemp>22.0</ns3:atemp>
            <ns3:hr>109</ns3:hr>
          </ns3:TrackPointExtension>
        </extensions>
      </trkpt>
      <trkpt lat="-22.12208773009479045867919921875" lon="166.439177691936492919921875">
        <ele>71</ele>
        <time>2016-08-12T17:29:37.000Z</time>
        <extensions>
          <ns3:TrackPointExtension>
            <ns3:atemp>22.0</ns3:atemp>
            <ns3:hr>109</ns3:hr>
          </ns3:TrackPointExtension>
        </extensions>
      </trkpt>
      <trkpt lat="-22.12207666598260402679443359375" lon="166.43918515183031558990478515625">
        <ele>71</ele>
        <time>2016-08-12T17:29:38.000Z</time>
        <extensions>
          <ns3:TrackPointExtension>
            <ns3:atemp>22.0</ns3:atemp>
            <ns3:hr>109</ns3:hr>
          </ns3:TrackPointExtension>
        </extensions>
      </trkpt>
      <trkpt lat="-22.1220665238797664642333984375" lon="166.4391949586570262908935546875">
        <ele>71.1999969482421875</ele>
        <time>2016-08-12T17:29:39.000Z</time>
        <extensions>
          <ns3:TrackPointExtension>
            <ns3:atemp>22.0</ns3:atemp>
            <ns3:hr>109</ns3:hr>
          </ns3:TrackPointExtension>
        </extensions>
      </trkpt>
      <trkpt lat="-22.122054286301136016845703125" lon="166.439204178750514984130859375">
        <ele>71.1999969482421875</ele>
        <time>2016-08-12T17:29:40.000Z</time>
        <extensions>
          <ns3:TrackPointExtension>
            <ns3:atemp>22.0</ns3:atemp>
            <ns3:hr>108</ns3:hr>
          </ns3:TrackPointExtension>
        </extensions>
      </trkpt>
      <trkpt lat="-22.12204079143702983856201171875" lon="166.43921457231044769287109375">
        <ele>71.40000152587890625</ele>
        <time>2016-08-12T17:29:41.000Z</time>
        <extensions>
          <ns3:TrackPointExtension>
            <ns3:atemp>22.0</ns3:atemp>
            <ns3:hr>109</ns3:hr>
          </ns3:TrackPointExtension>
        </extensions>
      </trkpt>
      <trkpt lat="-22.1220289729535579681396484375" lon="166.43922471441328525543212890625">
        <ele>71.40000152587890625</ele>
        <time>2016-08-12T17:29:42.000Z</time>
        <extensions>
          <ns3:TrackPointExtension>
            <ns3:atemp>22.0</ns3:atemp>
            <ns3:hr>109</ns3:hr>
          </ns3:TrackPointExtension>
        </extensions>
      </trkpt>
      <trkpt lat="-22.12201748974621295928955078125" lon="166.4392358623445034027099609375">
        <ele>71.59999847412109375</ele>
        <time>2016-08-12T17:29:43.000Z</time>
        <extensions>
          <ns3:TrackPointExtension>
            <ns3:atemp>22.0</ns3:atemp>
            <ns3:hr>109</ns3:hr>
          </ns3:TrackPointExtension>
        </extensions>
      </trkpt>
      <trkpt lat="-22.1220048330724239349365234375" lon="166.43924541771411895751953125">
        <ele>71.59999847412109375</ele>
        <time>2016-08-12T17:29:44.000Z</time>
        <extensions>
          <ns3:TrackPointExtension>
            <ns3:atemp>22.0</ns3:atemp>
            <ns3:hr>109</ns3:hr>
          </ns3:TrackPointExtension>
        </extensions>
      </trkpt>
      <trkpt lat="-22.12199200876057147979736328125" lon="166.43925505690276622772216796875">
        <ele>71.59999847412109375</ele>
        <time>2016-08-12T17:29:45.000Z</time>
        <extensions>
          <ns3:TrackPointExtension>
            <ns3:atemp>22.0</ns3:atemp>
            <ns3:hr>109</ns3:hr>
          </ns3:TrackPointExtension>
        </extensions>
      </trkpt>
      <trkpt lat="-22.12198111228644847869873046875" lon="166.43926461227238178253173828125">
        <ele>71.59999847412109375</ele>
        <time>2016-08-12T17:29:46.000Z</time>
        <extensions>
          <ns3:TrackPointExtension>
            <ns3:atemp>22.0</ns3:atemp>
            <ns3:hr>110</ns3:hr>
          </ns3:TrackPointExtension>
        </extensions>
      </trkpt>
      <trkpt lat="-22.1219706349074840545654296875" lon="166.43927567638456821441650390625">
        <ele>71.8000030517578125</ele>
        <time>2016-08-12T17:29:47.000Z</time>
        <extensions>
          <ns3:TrackPointExtension>
            <ns3:atemp>22.0</ns3:atemp>
            <ns3:hr>111</ns3:hr>
          </ns3:TrackPointExtension>
        </extensions>
      </trkpt>
      <trkpt lat="-22.12195931933820247650146484375" lon="166.4392861537635326385498046875">
        <ele>71.8000030517578125</ele>
        <time>2016-08-12T17:29:48.000Z</time>
        <extensions>
          <ns3:TrackPointExtension>
            <ns3:atemp>22.0</ns3:atemp>
            <ns3:hr>113</ns3:hr>
          </ns3:TrackPointExtension>
        </extensions>
      </trkpt>
      <trkpt lat="-22.121947668492794036865234375" lon="166.43929637968540191650390625">
        <ele>72</ele>
        <time>2016-08-12T17:29:49.000Z</time>
        <extensions>
          <ns3:TrackPointExtension>
            <ns3:atemp>22.0</ns3:atemp>
            <ns3:hr>113</ns3:hr>
          </ns3:TrackPointExtension>
        </extensions>
      </trkpt>
      <trkpt lat="-22.1219337545335292816162109375" lon="166.43930635415017604827880859375">
        <ele>72.1999969482421875</ele>
        <time>2016-08-12T17:29:50.000Z</time>
        <extensions>
          <ns3:TrackPointExtension>
            <ns3:atemp>22.0</ns3:atemp>
            <ns3:hr>113</ns3:hr>
          </ns3:TrackPointExtension>
        </extensions>
      </trkpt>
      <trkpt lat="-22.12191975675523281097412109375" lon="166.439317502081394195556640625">
        <ele>72.1999969482421875</ele>
        <time>2016-08-12T17:29:51.000Z</time>
        <extensions>
          <ns3:TrackPointExtension>
            <ns3:atemp>22.0</ns3:atemp>
            <ns3:hr>113</ns3:hr>
          </ns3:TrackPointExtension>
        </extensions>
      </trkpt>
      <trkpt lat="-22.12190735153853893280029296875" lon="166.43932898528873920440673828125">
        <ele>72.40000152587890625</ele>
        <time>2016-08-12T17:29:52.000Z</time>
        <extensions>
          <ns3:TrackPointExtension>
            <ns3:atemp>22.0</ns3:atemp>
            <ns3:hr>114</ns3:hr>
          </ns3:TrackPointExtension>
        </extensions>
      </trkpt>
      <trkpt lat="-22.12189544923603534698486328125" lon="166.4393421448767185211181640625">
        <ele>72.59999847412109375</ele>
        <time>2016-08-12T17:29:53.000Z</time>
        <extensions>
          <ns3:TrackPointExtension>
            <ns3:atemp>22.0</ns3:atemp>
            <ns3:hr>113</ns3:hr>
          </ns3:TrackPointExtension>
        </extensions>
      </trkpt>
      <trkpt lat="-22.121884636580944061279296875" lon="166.43935631029307842254638671875">
        <ele>72.59999847412109375</ele>
        <time>2016-08-12T17:29:54.000Z</time>
        <extensions>
          <ns3:TrackPointExtension>
            <ns3:atemp>22.0</ns3:atemp>
            <ns3:hr>113</ns3:hr>
          </ns3:TrackPointExtension>
        </extensions>
      </trkpt>
      <trkpt lat="-22.12187466211616992950439453125" lon="166.43937022425234317779541015625">
        <ele>72.8000030517578125</ele>
        <time>2016-08-12T17:29:55.000Z</time>
        <extensions>
          <ns3:TrackPointExtension>
            <ns3:atemp>22.0</ns3:atemp>
            <ns3:hr>113</ns3:hr>
          </ns3:TrackPointExtension>
        </extensions>
      </trkpt>
      <trkpt lat="-22.1218653582036495208740234375" lon="166.439383216202259063720703125">
        <ele>73</ele>
        <time>2016-08-12T17:29:56.000Z</time>
        <extensions>
          <ns3:TrackPointExtension>
            <ns3:atemp>22.0</ns3:atemp>
            <ns3:hr>114</ns3:hr>
          </ns3:TrackPointExtension>
        </extensions>
      </trkpt>
      <trkpt lat="-22.121856473386287689208984375" lon="166.43939536996185779571533203125">
        <ele>73.1999969482421875</ele>
        <time>2016-08-12T17:29:57.000Z</time>
        <extensions>
          <ns3:TrackPointExtension>
            <ns3:atemp>22.0</ns3:atemp>
            <ns3:hr>113</ns3:hr>
          </ns3:TrackPointExtension>
        </extensions>
      </trkpt>
      <trkpt lat="-22.12184582836925983428955078125" lon="166.4394078589975833892822265625">
        <ele>73.1999969482421875</ele>
        <time>2016-08-12T17:29:58.000Z</time>
        <extensions>
          <ns3:TrackPointExtension>
            <ns3:atemp>22.0</ns3:atemp>
            <ns3:hr>113</ns3:hr>
          </ns3:TrackPointExtension>
        </extensions>
      </trkpt>
      <trkpt lat="-22.12183535099029541015625" lon="166.43941707909107208251953125">
        <ele>73.40000152587890625</ele>
        <time>2016-08-12T17:29:59.000Z</time>
        <extensions>
          <ns3:TrackPointExtension>
            <ns3:atemp>22.0</ns3:atemp>
            <ns3:hr>112</ns3:hr>
          </ns3:TrackPointExtension>
        </extensions>
      </trkpt>
      <trkpt lat="-22.12182403542101383209228515625" lon="166.4394262991845607757568359375">
        <ele>73.59999847412109375</ele>
        <time>2016-08-12T17:30:00.000Z</time>
        <extensions>
          <ns3:TrackPointExtension>
            <ns3:atemp>22.0</ns3:atemp>
            <ns3:hr>113</ns3:hr>
          </ns3:TrackPointExtension>
        </extensions>
      </trkpt>
      <trkpt lat="-22.121810205280780792236328125" lon="166.439436860382556915283203125">
        <ele>73.8000030517578125</ele>
        <time>2016-08-12T17:30:01.000Z</time>
        <extensions>
          <ns3:TrackPointExtension>
            <ns3:atemp>22.0</ns3:atemp>
            <ns3:hr>114</ns3:hr>
          </ns3:TrackPointExtension>
        </extensions>
      </trkpt>
      <trkpt lat="-22.1217978000640869140625" lon="166.4394454099237918853759765625">
        <ele>73.8000030517578125</ele>
        <time>2016-08-12T17:30:02.000Z</time>
        <extensions>
          <ns3:TrackPointExtension>
            <ns3:atemp>22.0</ns3:atemp>
            <ns3:hr>113</ns3:hr>
          </ns3:TrackPointExtension>
        </extensions>
      </trkpt>
      <trkpt lat="-22.12178229354321956634521484375" lon="166.43945454619824886322021484375">
        <ele>74</ele>
        <time>2016-08-12T17:30:03.000Z</time>
        <extensions>
          <ns3:TrackPointExtension>
            <ns3:atemp>22.0</ns3:atemp>
            <ns3:hr>113</ns3:hr>
          </ns3:TrackPointExtension>
        </extensions>
      </trkpt>
      <trkpt lat="-22.12177030742168426513671875" lon="166.4394672028720378875732421875">
        <ele>74.1999969482421875</ele>
        <time>2016-08-12T17:30:04.000Z</time>
        <extensions>
          <ns3:TrackPointExtension>
            <ns3:atemp>22.0</ns3:atemp>
            <ns3:hr>114</ns3:hr>
          </ns3:TrackPointExtension>
        </extensions>
      </trkpt>
      <trkpt lat="-22.12176033295691013336181640625" lon="166.43947801552712917327880859375">
        <ele>74.40000152587890625</ele>
        <time>2016-08-12T17:30:05.000Z</time>
        <extensions>
          <ns3:TrackPointExtension>
            <ns3:atemp>22.0</ns3:atemp>
            <ns3:hr>115</ns3:hr>
          </ns3:TrackPointExtension>
        </extensions>
      </trkpt>
      <trkpt lat="-22.12174843065440654754638671875" lon="166.439488492906093597412109375">
        <ele>74.40000152587890625</ele>
        <time>2016-08-12T17:30:06.000Z</time>
        <extensions>
          <ns3:TrackPointExtension>
            <ns3:atemp>22.0</ns3:atemp>
            <ns3:hr>115</ns3:hr>
          </ns3:TrackPointExtension>
        </extensions>
      </trkpt>
      <trkpt lat="-22.12173753418028354644775390625" lon="166.43949729390442371368408203125">
        <ele>74.59999847412109375</ele>
        <time>2016-08-12T17:30:07.000Z</time>
        <extensions>
          <ns3:TrackPointExtension>
            <ns3:atemp>22.0</ns3:atemp>
            <ns3:hr>116</ns3:hr>
          </ns3:TrackPointExtension>
        </extensions>
      </trkpt>
      <trkpt lat="-22.12172512896358966827392578125" lon="166.43950332887470722198486328125">
        <ele>74.8000030517578125</ele>
        <time>2016-08-12T17:30:08.000Z</time>
        <extensions>
          <ns3:TrackPointExtension>
            <ns3:atemp>22.0</ns3:atemp>
            <ns3:hr>116</ns3:hr>
          </ns3:TrackPointExtension>
        </extensions>
      </trkpt>
      <trkpt lat="-22.12171322666108608245849609375" lon="166.43951087258756160736083984375">
        <ele>75</ele>
        <time>2016-08-12T17:30:09.000Z</time>
        <extensions>
          <ns3:TrackPointExtension>
            <ns3:atemp>22.0</ns3:atemp>
            <ns3:hr>116</ns3:hr>
          </ns3:TrackPointExtension>
        </extensions>
      </trkpt>
      <trkpt lat="-22.1217050962150096893310546875" lon="166.43951741047203540802001953125">
        <ele>75</ele>
        <time>2016-08-12T17:30:10.000Z</time>
        <extensions>
          <ns3:TrackPointExtension>
            <ns3:atemp>22.0</ns3:atemp>
            <ns3:hr>117</ns3:hr>
          </ns3:TrackPointExtension>
        </extensions>
      </trkpt>
      <trkpt lat="-22.12169361300766468048095703125" lon="166.439524702727794647216796875">
        <ele>75.1999969482421875</ele>
        <time>2016-08-12T17:30:11.000Z</time>
        <extensions>
          <ns3:TrackPointExtension>
            <ns3:atemp>22.0</ns3:atemp>
            <ns3:hr>117</ns3:hr>
          </ns3:TrackPointExtension>
        </extensions>
      </trkpt>
      <trkpt lat="-22.12168313562870025634765625" lon="166.43952914513647556304931640625">
        <ele>75.1999969482421875</ele>
        <time>2016-08-12T17:30:12.000Z</time>
        <extensions>
          <ns3:TrackPointExtension>
            <ns3:atemp>22.0</ns3:atemp>
            <ns3:hr>117</ns3:hr>
          </ns3:TrackPointExtension>
        </extensions>
      </trkpt>
      <trkpt lat="-22.12167634628713130950927734375" lon="166.4395335875451564788818359375">
        <ele>75.40000152587890625</ele>
        <time>2016-08-12T17:30:13.000Z</time>
        <extensions>
          <ns3:TrackPointExtension>
            <ns3:atemp>22.0</ns3:atemp>
            <ns3:hr>117</ns3:hr>
          </ns3:TrackPointExtension>
        </extensions>
      </trkpt>
      <trkpt lat="-22.121668048202991485595703125" lon="166.43953937105834484100341796875">
        <ele>75.40000152587890625</ele>
        <time>2016-08-12T17:30:14.000Z</time>
        <extensions>
          <ns3:TrackPointExtension>
            <ns3:atemp>22.0</ns3:atemp>
            <ns3:hr>117</ns3:hr>
          </ns3:TrackPointExtension>
        </extensions>
      </trkpt>
      <trkpt lat="-22.12165975011885166168212890625" lon="166.43954850733280181884765625">
        <ele>75.8000030517578125</ele>
        <time>2016-08-12T17:30:15.000Z</time>
        <extensions>
          <ns3:TrackPointExtension>
            <ns3:atemp>22.0</ns3:atemp>
            <ns3:hr>117</ns3:hr>
          </ns3:TrackPointExtension>
        </extensions>
      </trkpt>
      <trkpt lat="-22.12165053002536296844482421875" lon="166.4395553804934024810791015625">
        <ele>75.8000030517578125</ele>
        <time>2016-08-12T17:30:16.000Z</time>
        <extensions>
          <ns3:TrackPointExtension>
            <ns3:atemp>22.0</ns3:atemp>
            <ns3:hr>119</ns3:hr>
          </ns3:TrackPointExtension>
        </extensions>
      </trkpt>
      <trkpt lat="-22.1216454170644283294677734375" lon="166.43955789506435394287109375">
        <ele>76</ele>
        <time>2016-08-12T17:30:17.000Z</time>
        <extensions>
          <ns3:TrackPointExtension>
            <ns3:atemp>22.0</ns3:atemp>
            <ns3:hr>119</ns3:hr>
          </ns3:TrackPointExtension>
        </extensions>
      </trkpt>
      <trkpt lat="-22.12164332158863544464111328125" lon="166.43955764360725879669189453125">
        <ele>76</ele>
        <time>2016-08-12T17:30:18.000Z</time>
        <extensions>
          <ns3:TrackPointExtension>
            <ns3:atemp>22.0</ns3:atemp>
            <ns3:hr>118</ns3:hr>
          </ns3:TrackPointExtension>
        </extensions>
      </trkpt>
      <trkpt lat="-22.12163753807544708251953125" lon="166.439558565616607666015625">
        <ele>76</ele>
        <time>2016-08-12T17:30:20.000Z</time>
        <extensions>
          <ns3:TrackPointExtension>
            <ns3:atemp>22.0</ns3:atemp>
            <ns3:hr>116</ns3:hr>
          </ns3:TrackPointExtension>
        </extensions>
      </trkpt>
      <trkpt lat="-22.121636532247066497802734375" lon="166.4395587332546710968017578125">
        <ele>76</ele>
        <time>2016-08-12T17:30:22.000Z</time>
        <extensions>
          <ns3:TrackPointExtension>
            <ns3:atemp>22.0</ns3:atemp>
            <ns3:hr>115</ns3:hr>
          </ns3:TrackPointExtension>
        </extensions>
      </trkpt>
      <trkpt lat="-22.1216370351612567901611328125" lon="166.439558900892734527587890625">
        <ele>76</ele>
        <time>2016-08-12T17:30:23.000Z</time>
        <extensions>
          <ns3:TrackPointExtension>
            <ns3:atemp>22.0</ns3:atemp>
            <ns3:hr>115</ns3:hr>
          </ns3:TrackPointExtension>
        </extensions>
      </trkpt>
      <trkpt lat="-22.121635861694812774658203125" lon="166.43955931998789310455322265625">
        <ele>76</ele>
        <time>2016-08-12T17:30:24.000Z</time>
        <extensions>
          <ns3:TrackPointExtension>
            <ns3:atemp>22.0</ns3:atemp>
            <ns3:hr>115</ns3:hr>
          </ns3:TrackPointExtension>
        </extensions>
      </trkpt>
      <trkpt lat="-22.12163493968546390533447265625" lon="166.43955898471176624298095703125">
        <ele>76</ele>
        <time>2016-08-12T17:30:25.000Z</time>
        <extensions>
          <ns3:TrackPointExtension>
            <ns3:atemp>22.0</ns3:atemp>
            <ns3:hr>115</ns3:hr>
          </ns3:TrackPointExtension>
        </extensions>
      </trkpt>
      <trkpt lat="-22.1216296590864658355712890625" lon="166.4395600743591785430908203125">
        <ele>76</ele>
        <time>2016-08-12T17:30:26.000Z</time>
        <extensions>
          <ns3:TrackPointExtension>
            <ns3:atemp>22.0</ns3:atemp>
          </ns3:TrackPointExtension>
        </extensions>
      </trkpt>
      <trkpt lat="-22.12161742150783538818359375" lon="166.439569294452667236328125">
        <ele>76</ele>
        <time>2016-08-12T17:30:27.000Z</time>
        <extensions>
          <ns3:TrackPointExtension>
            <ns3:atemp>22.0</ns3:atemp>
            <ns3:hr>115</ns3:hr>
          </ns3:TrackPointExtension>
        </extensions>
      </trkpt>
      <trkpt lat="-22.12160023860633373260498046875" lon="166.4395818673074245452880859375">
        <ele>76.1999969482421875</ele>
        <time>2016-08-12T17:30:28.000Z</time>
        <extensions>
          <ns3:TrackPointExtension>
            <ns3:atemp>22.0</ns3:atemp>
            <ns3:hr>115</ns3:hr>
          </ns3:TrackPointExtension>
        </extensions>
      </trkpt>
      <trkpt lat="-22.12159068323671817779541015625" lon="166.43958932720124721527099609375">
        <ele>76.1999969482421875</ele>
        <time>2016-08-12T17:30:29.000Z</time>
        <extensions>
          <ns3:TrackPointExtension>
            <ns3:atemp>22.0</ns3:atemp>
            <ns3:hr>116</ns3:hr>
          </ns3:TrackPointExtension>
        </extensions>
      </trkpt>
      <trkpt lat="-22.121583558619022369384765625" lon="166.43959402106702327728271484375">
        <ele>76.40000152587890625</ele>
        <time>2016-08-12T17:30:30.000Z</time>
        <extensions>
          <ns3:TrackPointExtension>
            <ns3:atemp>22.0</ns3:atemp>
            <ns3:hr>116</ns3:hr>
          </ns3:TrackPointExtension>
        </extensions>
      </trkpt>
      <trkpt lat="-22.1215746738016605377197265625" lon="166.43960215151309967041015625">
        <ele>76.59999847412109375</ele>
        <time>2016-08-12T17:30:31.000Z</time>
        <extensions>
          <ns3:TrackPointExtension>
            <ns3:atemp>22.0</ns3:atemp>
            <ns3:hr>116</ns3:hr>
          </ns3:TrackPointExtension>
        </extensions>
      </trkpt>
      <trkpt lat="-22.121564783155918121337890625" lon="166.439609192311763763427734375">
        <ele>76.8000030517578125</ele>
        <time>2016-08-12T17:30:32.000Z</time>
        <extensions>
          <ns3:TrackPointExtension>
            <ns3:atemp>22.0</ns3:atemp>
            <ns3:hr>116</ns3:hr>
          </ns3:TrackPointExtension>
        </extensions>
      </trkpt>
      <trkpt lat="-22.121553719043731689453125" lon="166.43961799331009387969970703125">
        <ele>77</ele>
        <time>2016-08-12T17:30:33.000Z</time>
        <extensions>
          <ns3:TrackPointExtension>
            <ns3:atemp>22.0</ns3:atemp>
            <ns3:hr>116</ns3:hr>
          </ns3:TrackPointExtension>
        </extensions>
      </trkpt>
      <trkpt lat="-22.12154357694089412689208984375" lon="166.439627297222614288330078125">
        <ele>77.1999969482421875</ele>
        <time>2016-08-12T17:30:34.000Z</time>
        <extensions>
          <ns3:TrackPointExtension>
            <ns3:atemp>22.0</ns3:atemp>
            <ns3:hr>116</ns3:hr>
          </ns3:TrackPointExtension>
        </extensions>
      </trkpt>
      <trkpt lat="-22.121531255543231964111328125" lon="166.4396378584206104278564453125">
        <ele>77.40000152587890625</ele>
        <time>2016-08-12T17:30:35.000Z</time>
        <extensions>
          <ns3:TrackPointExtension>
            <ns3:atemp>22.0</ns3:atemp>
            <ns3:hr>114</ns3:hr>
          </ns3:TrackPointExtension>
        </extensions>
      </trkpt>
      <trkpt lat="-22.12151910178363323211669921875" lon="166.439648084342479705810546875">
        <ele>77.40000152587890625</ele>
        <time>2016-08-12T17:30:36.000Z</time>
        <extensions>
          <ns3:TrackPointExtension>
            <ns3:atemp>22.0</ns3:atemp>
            <ns3:hr>114</ns3:hr>
          </ns3:TrackPointExtension>
        </extensions>
      </trkpt>
      <trkpt lat="-22.1215082891285419464111328125" lon="166.439658813178539276123046875">
        <ele>77.59999847412109375</ele>
        <time>2016-08-12T17:30:37.000Z</time>
        <extensions>
          <ns3:TrackPointExtension>
            <ns3:atemp>22.0</ns3:atemp>
            <ns3:hr>114</ns3:hr>
          </ns3:TrackPointExtension>
        </extensions>
      </trkpt>
      <trkpt lat="-22.1214925311505794525146484375" lon="166.4396727271378040313720703125">
        <ele>77.8000030517578125</ele>
        <time>2016-08-12T17:30:38.000Z</time>
        <extensions>
          <ns3:TrackPointExtension>
            <ns3:atemp>22.0</ns3:atemp>
            <ns3:hr>114</ns3:hr>
          </ns3:TrackPointExtension>
        </extensions>
      </trkpt>
      <trkpt lat="-22.12148020975291728973388671875" lon="166.43968421034514904022216796875">
        <ele>78</ele>
        <time>2016-08-12T17:30:39.000Z</time>
        <extensions>
          <ns3:TrackPointExtension>
            <ns3:atemp>22.0</ns3:atemp>
            <ns3:hr>114</ns3:hr>
          </ns3:TrackPointExtension>
        </extensions>
      </trkpt>
      <trkpt lat="-22.12146990001201629638671875" lon="166.43969778902828693389892578125">
        <ele>78.1999969482421875</ele>
        <time>2016-08-12T17:30:40.000Z</time>
        <extensions>
          <ns3:TrackPointExtension>
            <ns3:atemp>22.0</ns3:atemp>
            <ns3:hr>115</ns3:hr>
          </ns3:TrackPointExtension>
        </extensions>
      </trkpt>
      <trkpt lat="-22.12146093137562274932861328125" lon="166.4397119544446468353271484375">
        <ele>78.40000152587890625</ele>
        <time>2016-08-12T17:30:41.000Z</time>
        <extensions>
          <ns3:TrackPointExtension>
            <ns3:atemp>22.0</ns3:atemp>
            <ns3:hr>116</ns3:hr>
          </ns3:TrackPointExtension>
        </extensions>
      </trkpt>
      <trkpt lat="-22.12145271711051464080810546875" lon="166.43972553312778472900390625">
        <ele>78.59999847412109375</ele>
        <time>2016-08-12T17:30:42.000Z</time>
        <extensions>
          <ns3:TrackPointExtension>
            <ns3:atemp>22.0</ns3:atemp>
            <ns3:hr>116</ns3:hr>
          </ns3:TrackPointExtension>
        </extensions>
      </trkpt>
      <trkpt lat="-22.12144374847412109375" lon="166.43973718397319316864013671875">
        <ele>78.8000030517578125</ele>
        <time>2016-08-12T17:30:43.000Z</time>
        <extensions>
          <ns3:TrackPointExtension>
            <ns3:atemp>22.0</ns3:atemp>
            <ns3:hr>117</ns3:hr>
          </ns3:TrackPointExtension>
        </extensions>
      </trkpt>
      <trkpt lat="-22.12143394164741039276123046875" lon="166.4397476613521575927734375">
        <ele>79.1999969482421875</ele>
        <time>2016-08-12T17:30:44.000Z</time>
        <extensions>
          <ns3:TrackPointExtension>
            <ns3:atemp>22.0</ns3:atemp>
            <ns3:hr>117</ns3:hr>
          </ns3:TrackPointExtension>
        </extensions>
      </trkpt>
      <trkpt lat="-22.121425308287143707275390625" lon="166.43975797109305858612060546875">
        <ele>79.40000152587890625</ele>
        <time>2016-08-12T17:30:45.000Z</time>
        <extensions>
          <ns3:TrackPointExtension>
            <ns3:atemp>22.0</ns3:atemp>
            <ns3:hr>118</ns3:hr>
          </ns3:TrackPointExtension>
        </extensions>
      </trkpt>
      <trkpt lat="-22.12141717784106731414794921875" lon="166.43977037630975246429443359375">
        <ele>79.59999847412109375</ele>
        <time>2016-08-12T17:30:46.000Z</time>
        <extensions>
          <ns3:TrackPointExtension>
            <ns3:atemp>22.0</ns3:atemp>
            <ns3:hr>118</ns3:hr>
          </ns3:TrackPointExtension>
        </extensions>
      </trkpt>
      <trkpt lat="-22.12140619754791259765625" lon="166.4397837035357952117919921875">
        <ele>79.59999847412109375</ele>
        <time>2016-08-12T17:30:47.000Z</time>
        <extensions>
          <ns3:TrackPointExtension>
            <ns3:atemp>22.0</ns3:atemp>
            <ns3:hr>118</ns3:hr>
          </ns3:TrackPointExtension>
        </extensions>
      </trkpt>
      <trkpt lat="-22.12139823473989963531494140625" lon="166.439794935286045074462890625">
        <ele>79.8000030517578125</ele>
        <time>2016-08-12T17:30:48.000Z</time>
        <extensions>
          <ns3:TrackPointExtension>
            <ns3:atemp>22.0</ns3:atemp>
            <ns3:hr>118</ns3:hr>
          </ns3:TrackPointExtension>
        </extensions>
      </trkpt>
      <trkpt lat="-22.12138834409415721893310546875" lon="166.439807005226612091064453125">
        <ele>80.1999969482421875</ele>
        <time>2016-08-12T17:30:49.000Z</time>
        <extensions>
          <ns3:TrackPointExtension>
            <ns3:atemp>22.0</ns3:atemp>
            <ns3:hr>119</ns3:hr>
          </ns3:TrackPointExtension>
        </extensions>
      </trkpt>
      <trkpt lat="-22.1213812194764614105224609375" lon="166.43981941044330596923828125">
        <ele>80.40000152587890625</ele>
        <time>2016-08-12T17:30:50.000Z</time>
        <extensions>
          <ns3:TrackPointExtension>
            <ns3:atemp>22.0</ns3:atemp>
            <ns3:hr>119</ns3:hr>
          </ns3:TrackPointExtension>
        </extensions>
      </trkpt>
      <trkpt lat="-22.12137577123939990997314453125" lon="166.43983022309839725494384765625">
        <ele>80.59999847412109375</ele>
        <time>2016-08-12T17:30:51.000Z</time>
        <extensions>
          <ns3:TrackPointExtension>
            <ns3:atemp>22.0</ns3:atemp>
            <ns3:hr>119</ns3:hr>
          </ns3:TrackPointExtension>
        </extensions>
      </trkpt>
      <trkpt lat="-22.1213694848120212554931640625" lon="166.43984179012477397918701171875">
        <ele>80.8000030517578125</ele>
        <time>2016-08-12T17:30:52.000Z</time>
        <extensions>
          <ns3:TrackPointExtension>
            <ns3:atemp>22.0</ns3:atemp>
            <ns3:hr>119</ns3:hr>
          </ns3:TrackPointExtension>
        </extensions>
      </trkpt>
      <trkpt lat="-22.1213624440133571624755859375" lon="166.439852602779865264892578125">
        <ele>81</ele>
        <time>2016-08-12T17:30:53.000Z</time>
        <extensions>
          <ns3:TrackPointExtension>
            <ns3:atemp>21.0</ns3:atemp>
            <ns3:hr>119</ns3:hr>
          </ns3:TrackPointExtension>
        </extensions>
      </trkpt>
      <trkpt lat="-22.12135766632854938507080078125" lon="166.43986442126333713531494140625">
        <ele>81.1999969482421875</ele>
        <time>2016-08-12T17:30:54.000Z</time>
        <extensions>
          <ns3:TrackPointExtension>
            <ns3:atemp>21.0</ns3:atemp>
            <ns3:hr>119</ns3:hr>
          </ns3:TrackPointExtension>
        </extensions>
      </trkpt>
      <trkpt lat="-22.12135196663439273834228515625" lon="166.439872719347476959228515625">
        <ele>81.40000152587890625</ele>
        <time>2016-08-12T17:30:55.000Z</time>
        <extensions>
          <ns3:TrackPointExtension>
            <ns3:atemp>21.0</ns3:atemp>
            <ns3:hr>119</ns3:hr>
          </ns3:TrackPointExtension>
        </extensions>
      </trkpt>
      <trkpt lat="-22.12133981287479400634765625" lon="166.4398782514035701751708984375">
        <ele>81.59999847412109375</ele>
        <time>2016-08-12T17:30:56.000Z</time>
        <extensions>
          <ns3:TrackPointExtension>
            <ns3:atemp>21.0</ns3:atemp>
            <ns3:hr>119</ns3:hr>
          </ns3:TrackPointExtension>
        </extensions>
      </trkpt>
      <trkpt lat="-22.12133134715259075164794921875" lon="166.43988604657351970672607421875">
        <ele>82</ele>
        <time>2016-08-12T17:30:57.000Z</time>
        <extensions>
          <ns3:TrackPointExtension>
            <ns3:atemp>21.0</ns3:atemp>
            <ns3:hr>119</ns3:hr>
          </ns3:TrackPointExtension>
        </extensions>
      </trkpt>
      <trkpt lat="-22.1213047765195369720458984375" lon="166.43990390002727508544921875">
        <ele>82.1999969482421875</ele>
        <time>2016-08-12T17:30:59.000Z</time>
        <extensions>
          <ns3:TrackPointExtension>
            <ns3:atemp>21.0</ns3:atemp>
            <ns3:hr>119</ns3:hr>
          </ns3:TrackPointExtension>
        </extensions>
      </trkpt>
      <trkpt lat="-22.121291868388652801513671875" lon="166.4399104379117488861083984375">
        <ele>82.40000152587890625</ele>
        <time>2016-08-12T17:31:00.000Z</time>
        <extensions>
          <ns3:TrackPointExtension>
            <ns3:atemp>21.0</ns3:atemp>
            <ns3:hr>119</ns3:hr>
          </ns3:TrackPointExtension>
        </extensions>
      </trkpt>
      <trkpt lat="-22.12128122337162494659423828125" lon="166.43991672433912754058837890625">
        <ele>82.59999847412109375</ele>
        <time>2016-08-12T17:31:01.000Z</time>
        <extensions>
          <ns3:TrackPointExtension>
            <ns3:atemp>21.0</ns3:atemp>
            <ns3:hr>119</ns3:hr>
          </ns3:TrackPointExtension>
        </extensions>
      </trkpt>
      <trkpt lat="-22.12127250619232654571533203125" lon="166.43992275930941104888916015625">
        <ele>82.8000030517578125</ele>
        <time>2016-08-12T17:31:02.000Z</time>
        <extensions>
          <ns3:TrackPointExtension>
            <ns3:atemp>21.0</ns3:atemp>
            <ns3:hr>119</ns3:hr>
          </ns3:TrackPointExtension>
        </extensions>
      </trkpt>
      <trkpt lat="-22.12126596830785274505615234375" lon="166.43992845900356769561767578125">
        <ele>83</ele>
        <time>2016-08-12T17:31:03.000Z</time>
        <extensions>
          <ns3:TrackPointExtension>
            <ns3:atemp>21.0</ns3:atemp>
            <ns3:hr>119</ns3:hr>
          </ns3:TrackPointExtension>
        </extensions>
      </trkpt>
      <trkpt lat="-22.12125725112855434417724609375" lon="166.43993340432643890380859375">
        <ele>83.1999969482421875</ele>
        <time>2016-08-12T17:31:04.000Z</time>
        <extensions>
          <ns3:TrackPointExtension>
            <ns3:atemp>21.0</ns3:atemp>
            <ns3:hr>119</ns3:hr>
          </ns3:TrackPointExtension>
        </extensions>
      </trkpt>
      <trkpt lat="-22.12124593555927276611328125" lon="166.4399379305541515350341796875">
        <ele>83.40000152587890625</ele>
        <time>2016-08-12T17:31:05.000Z</time>
        <extensions>
          <ns3:TrackPointExtension>
            <ns3:atemp>21.0</ns3:atemp>
            <ns3:hr>119</ns3:hr>
          </ns3:TrackPointExtension>
        </extensions>
      </trkpt>
      <trkpt lat="-22.12123579345643520355224609375" lon="166.43994354642927646636962890625">
        <ele>83.59999847412109375</ele>
        <time>2016-08-12T17:31:06.000Z</time>
        <extensions>
          <ns3:TrackPointExtension>
            <ns3:atemp>21.0</ns3:atemp>
            <ns3:hr>119</ns3:hr>
          </ns3:TrackPointExtension>
        </extensions>
      </trkpt>
      <trkpt lat="-22.12122607044875621795654296875" lon="166.4399503357708454132080078125">
        <ele>84</ele>
        <time>2016-08-12T17:31:07.000Z</time>
        <extensions>
          <ns3:TrackPointExtension>
            <ns3:atemp>21.0</ns3:atemp>
            <ns3:hr>119</ns3:hr>
          </ns3:TrackPointExtension>
        </extensions>
      </trkpt>
      <trkpt lat="-22.121218778192996978759765625" lon="166.43995729275047779083251953125">
        <ele>84.1999969482421875</ele>
        <time>2016-08-12T17:31:08.000Z</time>
        <extensions>
          <ns3:TrackPointExtension>
            <ns3:atemp>21.0</ns3:atemp>
            <ns3:hr>119</ns3:hr>
          </ns3:TrackPointExtension>
        </extensions>
      </trkpt>
      <trkpt lat="-22.12120947428047657012939453125" lon="166.4399635791778564453125">
        <ele>84.40000152587890625</ele>
        <time>2016-08-12T17:31:09.000Z</time>
        <extensions>
          <ns3:TrackPointExtension>
            <ns3:atemp>21.0</ns3:atemp>
            <ns3:hr>117</ns3:hr>
          </ns3:TrackPointExtension>
        </extensions>
      </trkpt>
      <trkpt lat="-22.1212036907672882080078125" lon="166.4399711228907108306884765625">
        <ele>84.59999847412109375</ele>
        <time>2016-08-12T17:31:10.000Z</time>
        <extensions>
          <ns3:TrackPointExtension>
            <ns3:atemp>21.0</ns3:atemp>
            <ns3:hr>115</ns3:hr>
          </ns3:TrackPointExtension>
        </extensions>
      </trkpt>
      <trkpt lat="-22.1211969852447509765625" lon="166.4399791695177555084228515625">
        <ele>84.8000030517578125</ele>
        <time>2016-08-12T17:31:11.000Z</time>
        <extensions>
          <ns3:TrackPointExtension>
            <ns3:atemp>21.0</ns3:atemp>
            <ns3:hr>115</ns3:hr>
          </ns3:TrackPointExtension>
        </extensions>
      </trkpt>
      <trkpt lat="-22.121189273893833160400390625" lon="166.4399865455925464630126953125">
        <ele>85</ele>
        <time>2016-08-12T17:31:12.000Z</time>
        <extensions>
          <ns3:TrackPointExtension>
            <ns3:atemp>21.0</ns3:atemp>
            <ns3:hr>115</ns3:hr>
          </ns3:TrackPointExtension>
        </extensions>
      </trkpt>
      <trkpt lat="-22.12117712013423442840576171875" lon="166.43999417312443256378173828125">
        <ele>85</ele>
        <time>2016-08-12T17:31:13.000Z</time>
        <extensions>
          <ns3:TrackPointExtension>
            <ns3:atemp>21.0</ns3:atemp>
            <ns3:hr>115</ns3:hr>
          </ns3:TrackPointExtension>
        </extensions>
      </trkpt>
      <trkpt lat="-22.12116806767880916595458984375" lon="166.44000180065631866455078125">
        <ele>85.1999969482421875</ele>
        <time>2016-08-12T17:31:14.000Z</time>
        <extensions>
          <ns3:TrackPointExtension>
            <ns3:atemp>21.0</ns3:atemp>
            <ns3:hr>115</ns3:hr>
          </ns3:TrackPointExtension>
        </extensions>
      </trkpt>
      <trkpt lat="-22.1211575902998447418212890625" lon="166.44000909291207790374755859375">
        <ele>85.40000152587890625</ele>
        <time>2016-08-12T17:31:15.000Z</time>
        <extensions>
          <ns3:TrackPointExtension>
            <ns3:atemp>21.0</ns3:atemp>
            <ns3:hr>115</ns3:hr>
          </ns3:TrackPointExtension>
        </extensions>
      </trkpt>
      <trkpt lat="-22.12114669382572174072265625" lon="166.44001630134880542755126953125">
        <ele>85.59999847412109375</ele>
        <time>2016-08-12T17:31:16.000Z</time>
        <extensions>
          <ns3:TrackPointExtension>
            <ns3:atemp>21.0</ns3:atemp>
            <ns3:hr>115</ns3:hr>
          </ns3:TrackPointExtension>
        </extensions>
      </trkpt>
      <trkpt lat="-22.12113596498966217041015625" lon="166.4400230906903743743896484375">
        <ele>85.8000030517578125</ele>
        <time>2016-08-12T17:31:17.000Z</time>
        <extensions>
          <ns3:TrackPointExtension>
            <ns3:atemp>21.0</ns3:atemp>
            <ns3:hr>115</ns3:hr>
          </ns3:TrackPointExtension>
        </extensions>
      </trkpt>
      <trkpt lat="-22.1211259067058563232421875" lon="166.4400294609367847442626953125">
        <ele>86.1999969482421875</ele>
        <time>2016-08-12T17:31:18.000Z</time>
        <extensions>
          <ns3:TrackPointExtension>
            <ns3:atemp>21.0</ns3:atemp>
            <ns3:hr>115</ns3:hr>
          </ns3:TrackPointExtension>
        </extensions>
      </trkpt>
      <trkpt lat="-22.1211153455078601837158203125" lon="166.44003557972609996795654296875">
        <ele>86.40000152587890625</ele>
        <time>2016-08-12T17:31:19.000Z</time>
        <extensions>
          <ns3:TrackPointExtension>
            <ns3:atemp>21.0</ns3:atemp>
            <ns3:hr>115</ns3:hr>
          </ns3:TrackPointExtension>
        </extensions>
      </trkpt>
      <trkpt lat="-22.12110352702438831329345703125" lon="166.4400438778102397918701171875">
        <ele>86.59999847412109375</ele>
        <time>2016-08-12T17:31:20.000Z</time>
        <extensions>
          <ns3:TrackPointExtension>
            <ns3:atemp>21.0</ns3:atemp>
            <ns3:hr>115</ns3:hr>
          </ns3:TrackPointExtension>
        </extensions>
      </trkpt>
      <trkpt lat="-22.12109304964542388916015625" lon="166.44005184061825275421142578125">
        <ele>86.8000030517578125</ele>
        <time>2016-08-12T17:31:21.000Z</time>
        <extensions>
          <ns3:TrackPointExtension>
            <ns3:atemp>21.0</ns3:atemp>
            <ns3:hr>114</ns3:hr>
          </ns3:TrackPointExtension>
        </extensions>
      </trkpt>
      <trkpt lat="-22.12108366191387176513671875" lon="166.440058462321758270263671875">
        <ele>87</ele>
        <time>2016-08-12T17:31:22.000Z</time>
        <extensions>
          <ns3:TrackPointExtension>
            <ns3:atemp>21.0</ns3:atemp>
            <ns3:hr>114</ns3:hr>
          </ns3:TrackPointExtension>
        </extensions>
      </trkpt>
      <trkpt lat="-22.121073268353939056396484375" lon="166.44006617367267608642578125">
        <ele>87.1999969482421875</ele>
        <time>2016-08-12T17:31:23.000Z</time>
        <extensions>
          <ns3:TrackPointExtension>
            <ns3:atemp>21.0</ns3:atemp>
            <ns3:hr>113</ns3:hr>
          </ns3:TrackPointExtension>
        </extensions>
      </trkpt>
      <trkpt lat="-22.121062539517879486083984375" lon="166.44007363356649875640869140625">
        <ele>87.40000152587890625</ele>
        <time>2016-08-12T17:31:24.000Z</time>
        <extensions>
          <ns3:TrackPointExtension>
            <ns3:atemp>21.0</ns3:atemp>
            <ns3:hr>113</ns3:hr>
          </ns3:TrackPointExtension>
        </extensions>
      </trkpt>
      <trkpt lat="-22.12105147540569305419921875" lon="166.44008285365998744964599609375">
        <ele>87.59999847412109375</ele>
        <time>2016-08-12T17:31:25.000Z</time>
        <extensions>
          <ns3:TrackPointExtension>
            <ns3:atemp>21.0</ns3:atemp>
            <ns3:hr>114</ns3:hr>
          </ns3:TrackPointExtension>
        </extensions>
      </trkpt>
      <trkpt lat="-22.1210422553122043609619140625" lon="166.440094001591205596923828125">
        <ele>87.8000030517578125</ele>
        <time>2016-08-12T17:31:26.000Z</time>
        <extensions>
          <ns3:TrackPointExtension>
            <ns3:atemp>21.0</ns3:atemp>
            <ns3:hr>114</ns3:hr>
          </ns3:TrackPointExtension>
        </extensions>
      </trkpt>
      <trkpt lat="-22.1210348792374134063720703125" lon="166.4401038922369480133056640625">
        <ele>88</ele>
        <time>2016-08-12T17:31:27.000Z</time>
        <extensions>
          <ns3:TrackPointExtension>
            <ns3:atemp>21.0</ns3:atemp>
            <ns3:hr>114</ns3:hr>
          </ns3:TrackPointExtension>
        </extensions>
      </trkpt>
      <trkpt lat="-22.1210254915058612823486328125" lon="166.4401136152446269989013671875">
        <ele>88.1999969482421875</ele>
        <time>2016-08-12T17:31:28.000Z</time>
        <extensions>
          <ns3:TrackPointExtension>
            <ns3:atemp>21.0</ns3:atemp>
            <ns3:hr>114</ns3:hr>
          </ns3:TrackPointExtension>
        </extensions>
      </trkpt>
      <trkpt lat="-22.1210164390504360198974609375" lon="166.440122835338115692138671875">
        <ele>88.40000152587890625</ele>
        <time>2016-08-12T17:31:29.000Z</time>
        <extensions>
          <ns3:TrackPointExtension>
            <ns3:atemp>21.0</ns3:atemp>
            <ns3:hr>113</ns3:hr>
          </ns3:TrackPointExtension>
        </extensions>
      </trkpt>
      <trkpt lat="-22.12100562639534473419189453125" lon="166.4401327259838581085205078125">
        <ele>88.59999847412109375</ele>
        <time>2016-08-12T17:31:30.000Z</time>
        <extensions>
          <ns3:TrackPointExtension>
            <ns3:atemp>22.0</ns3:atemp>
            <ns3:hr>113</ns3:hr>
          </ns3:TrackPointExtension>
        </extensions>
      </trkpt>
      <trkpt lat="-22.12099783122539520263671875" lon="166.4401417784392833709716796875">
        <ele>88.8000030517578125</ele>
        <time>2016-08-12T17:31:31.000Z</time>
        <extensions>
          <ns3:TrackPointExtension>
            <ns3:atemp>22.0</ns3:atemp>
            <ns3:hr>113</ns3:hr>
          </ns3:TrackPointExtension>
        </extensions>
      </trkpt>
      <trkpt lat="-22.12098701857030391693115234375" lon="166.44015141762793064117431640625">
        <ele>88.8000030517578125</ele>
        <time>2016-08-12T17:31:32.000Z</time>
        <extensions>
          <ns3:TrackPointExtension>
            <ns3:atemp>22.0</ns3:atemp>
            <ns3:hr>113</ns3:hr>
          </ns3:TrackPointExtension>
        </extensions>
      </trkpt>
      <trkpt lat="-22.12097628973424434661865234375" lon="166.44016164354979991912841796875">
        <ele>89</ele>
        <time>2016-08-12T17:31:33.000Z</time>
        <extensions>
          <ns3:TrackPointExtension>
            <ns3:atemp>22.0</ns3:atemp>
            <ns3:hr>113</ns3:hr>
          </ns3:TrackPointExtension>
        </extensions>
      </trkpt>
      <trkpt lat="-22.1209648065268993377685546875" lon="166.44017220474779605865478515625">
        <ele>89.1999969482421875</ele>
        <time>2016-08-12T17:31:34.000Z</time>
        <extensions>
          <ns3:TrackPointExtension>
            <ns3:atemp>22.0</ns3:atemp>
            <ns3:hr>113</ns3:hr>
          </ns3:TrackPointExtension>
        </extensions>
      </trkpt>
      <trkpt lat="-22.120957262814044952392578125" lon="166.4401820115745067596435546875">
        <ele>89.40000152587890625</ele>
        <time>2016-08-12T17:31:35.000Z</time>
        <extensions>
          <ns3:TrackPointExtension>
            <ns3:atemp>22.0</ns3:atemp>
            <ns3:hr>113</ns3:hr>
          </ns3:TrackPointExtension>
        </extensions>
      </trkpt>
      <trkpt lat="-22.1209470368921756744384765625" lon="166.44019299186766147613525390625">
        <ele>89.59999847412109375</ele>
        <time>2016-08-12T17:31:36.000Z</time>
        <extensions>
          <ns3:TrackPointExtension>
            <ns3:atemp>22.0</ns3:atemp>
            <ns3:hr>113</ns3:hr>
          </ns3:TrackPointExtension>
        </extensions>
      </trkpt>
      <trkpt lat="-22.120937816798686981201171875" lon="166.44020162522792816162109375">
        <ele>89.8000030517578125</ele>
        <time>2016-08-12T17:31:37.000Z</time>
        <extensions>
          <ns3:TrackPointExtension>
            <ns3:atemp>22.0</ns3:atemp>
            <ns3:hr>113</ns3:hr>
          </ns3:TrackPointExtension>
        </extensions>
      </trkpt>
      <trkpt lat="-22.12092809379100799560546875" lon="166.4402135275304317474365234375">
        <ele>90</ele>
        <time>2016-08-12T17:31:38.000Z</time>
        <extensions>
          <ns3:TrackPointExtension>
            <ns3:atemp>22.0</ns3:atemp>
            <ns3:hr>113</ns3:hr>
          </ns3:TrackPointExtension>
        </extensions>
      </trkpt>
      <trkpt lat="-22.12091711349785327911376953125" lon="166.44022668711841106414794921875">
        <ele>90.1999969482421875</ele>
        <time>2016-08-12T17:31:39.000Z</time>
        <extensions>
          <ns3:TrackPointExtension>
            <ns3:atemp>22.0</ns3:atemp>
            <ns3:hr>113</ns3:hr>
          </ns3:TrackPointExtension>
        </extensions>
      </trkpt>
      <trkpt lat="-22.12090705521404743194580078125" lon="166.44024177454411983489990234375">
        <ele>90.59999847412109375</ele>
        <time>2016-08-12T17:31:40.000Z</time>
        <extensions>
          <ns3:TrackPointExtension>
            <ns3:atemp>22.0</ns3:atemp>
            <ns3:hr>113</ns3:hr>
          </ns3:TrackPointExtension>
        </extensions>
      </trkpt>
      <trkpt lat="-22.12089884094893932342529296875" lon="166.4402567781507968902587890625">
        <ele>90.8000030517578125</ele>
        <time>2016-08-12T17:31:41.000Z</time>
        <extensions>
          <ns3:TrackPointExtension>
            <ns3:atemp>22.0</ns3:atemp>
            <ns3:hr>113</ns3:hr>
          </ns3:TrackPointExtension>
        </extensions>
      </trkpt>
      <trkpt lat="-22.12088878266513347625732421875" lon="166.440272368490695953369140625">
        <ele>91</ele>
        <time>2016-08-12T17:31:42.000Z</time>
        <extensions>
          <ns3:TrackPointExtension>
            <ns3:atemp>22.0</ns3:atemp>
            <ns3:hr>113</ns3:hr>
          </ns3:TrackPointExtension>
        </extensions>
      </trkpt>
      <trkpt lat="-22.1208783052861690521240234375" lon="166.44028653390705585479736328125">
        <ele>91.1999969482421875</ele>
        <time>2016-08-12T17:31:43.000Z</time>
        <extensions>
          <ns3:TrackPointExtension>
            <ns3:atemp>22.0</ns3:atemp>
            <ns3:hr>113</ns3:hr>
          </ns3:TrackPointExtension>
        </extensions>
      </trkpt>
      <trkpt lat="-22.12086816318333148956298828125" lon="166.4403013698756694793701171875">
        <ele>91.40000152587890625</ele>
        <time>2016-08-12T17:31:44.000Z</time>
        <extensions>
          <ns3:TrackPointExtension>
            <ns3:atemp>22.0</ns3:atemp>
            <ns3:hr>113</ns3:hr>
          </ns3:TrackPointExtension>
        </extensions>
      </trkpt>
      <trkpt lat="-22.12086011655628681182861328125" lon="166.44031654112040996551513671875">
        <ele>91.59999847412109375</ele>
        <time>2016-08-12T17:31:45.000Z</time>
        <extensions>
          <ns3:TrackPointExtension>
            <ns3:atemp>22.0</ns3:atemp>
            <ns3:hr>113</ns3:hr>
          </ns3:TrackPointExtension>
        </extensions>
      </trkpt>
      <trkpt lat="-22.12085441686213016510009765625" lon="166.44032810814678668975830078125">
        <ele>91.8000030517578125</ele>
        <time>2016-08-12T17:31:46.000Z</time>
        <extensions>
          <ns3:TrackPointExtension>
            <ns3:atemp>22.0</ns3:atemp>
            <ns3:hr>113</ns3:hr>
          </ns3:TrackPointExtension>
        </extensions>
      </trkpt>
      <trkpt lat="-22.1208471246063709259033203125" lon="166.4403409324586391448974609375">
        <ele>92</ele>
        <time>2016-08-12T17:31:47.000Z</time>
        <extensions>
          <ns3:TrackPointExtension>
            <ns3:atemp>22.0</ns3:atemp>
            <ns3:hr>113</ns3:hr>
          </ns3:TrackPointExtension>
        </extensions>
      </trkpt>
      <trkpt lat="-22.1208427660167217254638671875" lon="166.4403538405895233154296875">
        <ele>92.1999969482421875</ele>
        <time>2016-08-12T17:31:48.000Z</time>
        <extensions>
          <ns3:TrackPointExtension>
            <ns3:atemp>22.0</ns3:atemp>
            <ns3:hr>113</ns3:hr>
          </ns3:TrackPointExtension>
        </extensions>
      </trkpt>
      <trkpt lat="-22.12083647958934307098388671875" lon="166.44036767072975635528564453125">
        <ele>92.1999969482421875</ele>
        <time>2016-08-12T17:31:49.000Z</time>
        <extensions>
          <ns3:TrackPointExtension>
            <ns3:atemp>22.0</ns3:atemp>
            <ns3:hr>113</ns3:hr>
          </ns3:TrackPointExtension>
        </extensions>
      </trkpt>
      <trkpt lat="-22.1208296902477741241455078125" lon="166.44038133323192596435546875">
        <ele>92.40000152587890625</ele>
        <time>2016-08-12T17:31:50.000Z</time>
        <extensions>
          <ns3:TrackPointExtension>
            <ns3:atemp>22.0</ns3:atemp>
            <ns3:hr>113</ns3:hr>
          </ns3:TrackPointExtension>
        </extensions>
      </trkpt>
      <trkpt lat="-22.12082558311522006988525390625" lon="166.44039315171539783477783203125">
        <ele>92.59999847412109375</ele>
        <time>2016-08-12T17:31:51.000Z</time>
        <extensions>
          <ns3:TrackPointExtension>
            <ns3:atemp>22.0</ns3:atemp>
            <ns3:hr>113</ns3:hr>
          </ns3:TrackPointExtension>
        </extensions>
      </trkpt>
      <trkpt lat="-22.120819799602031707763671875" lon="166.44040471874177455902099609375">
        <ele>92.59999847412109375</ele>
        <time>2016-08-12T17:31:52.000Z</time>
        <extensions>
          <ns3:TrackPointExtension>
            <ns3:atemp>22.0</ns3:atemp>
            <ns3:hr>113</ns3:hr>
          </ns3:TrackPointExtension>
        </extensions>
      </trkpt>
      <trkpt lat="-22.12081049568951129913330078125" lon="166.44041754305362701416015625">
        <ele>92.8000030517578125</ele>
        <time>2016-08-12T17:31:53.000Z</time>
        <extensions>
          <ns3:TrackPointExtension>
            <ns3:atemp>22.0</ns3:atemp>
            <ns3:hr>113</ns3:hr>
          </ns3:TrackPointExtension>
        </extensions>
      </trkpt>
      <trkpt lat="-22.12080529890954494476318359375" lon="166.44042919389903545379638671875">
        <ele>93</ele>
        <time>2016-08-12T17:31:54.000Z</time>
        <extensions>
          <ns3:TrackPointExtension>
            <ns3:atemp>22.0</ns3:atemp>
            <ns3:hr>113</ns3:hr>
          </ns3:TrackPointExtension>
        </extensions>
      </trkpt>
      <trkpt lat="-22.12080077268183231353759765625" lon="166.44044101238250732421875">
        <ele>93.1999969482421875</ele>
        <time>2016-08-12T17:31:55.000Z</time>
        <extensions>
          <ns3:TrackPointExtension>
            <ns3:atemp>22.0</ns3:atemp>
            <ns3:hr>112</ns3:hr>
          </ns3:TrackPointExtension>
        </extensions>
      </trkpt>
      <trkpt lat="-22.120794318616390228271484375" lon="166.4404530823230743408203125">
        <ele>93.1999969482421875</ele>
        <time>2016-08-12T17:31:56.000Z</time>
        <extensions>
          <ns3:TrackPointExtension>
            <ns3:atemp>22.0</ns3:atemp>
            <ns3:hr>112</ns3:hr>
          </ns3:TrackPointExtension>
        </extensions>
      </trkpt>
      <trkpt lat="-22.12078685872256755828857421875" lon="166.44046523608267307281494140625">
        <ele>93.40000152587890625</ele>
        <time>2016-08-12T17:31:57.000Z</time>
        <extensions>
          <ns3:TrackPointExtension>
            <ns3:atemp>22.0</ns3:atemp>
            <ns3:hr>112</ns3:hr>
          </ns3:TrackPointExtension>
        </extensions>
      </trkpt>
      <trkpt lat="-22.120781578123569488525390625" lon="166.4404777251183986663818359375">
        <ele>93.59999847412109375</ele>
        <time>2016-08-12T17:31:58.000Z</time>
        <extensions>
          <ns3:TrackPointExtension>
            <ns3:atemp>22.0</ns3:atemp>
            <ns3:hr>112</ns3:hr>
          </ns3:TrackPointExtension>
        </extensions>
      </trkpt>
      <trkpt lat="-22.12077520787715911865234375" lon="166.4404908008873462677001953125">
        <ele>93.59999847412109375</ele>
        <time>2016-08-12T17:31:59.000Z</time>
        <extensions>
          <ns3:TrackPointExtension>
            <ns3:atemp>22.0</ns3:atemp>
            <ns3:hr>112</ns3:hr>
          </ns3:TrackPointExtension>
        </extensions>
      </trkpt>
      <trkpt lat="-22.1207679994404315948486328125" lon="166.44050396047532558441162109375">
        <ele>93.8000030517578125</ele>
        <time>2016-08-12T17:32:00.000Z</time>
        <extensions>
          <ns3:TrackPointExtension>
            <ns3:atemp>22.0</ns3:atemp>
            <ns3:hr>112</ns3:hr>
          </ns3:TrackPointExtension>
        </extensions>
      </trkpt>
      <trkpt lat="-22.120761461555957794189453125" lon="166.44051678478717803955078125">
        <ele>94</ele>
        <time>2016-08-12T17:32:01.000Z</time>
        <extensions>
          <ns3:TrackPointExtension>
            <ns3:atemp>22.0</ns3:atemp>
            <ns3:hr>112</ns3:hr>
          </ns3:TrackPointExtension>
        </extensions>
      </trkpt>
      <trkpt lat="-22.1207542531192302703857421875" lon="166.4405281841754913330078125">
        <ele>94</ele>
        <time>2016-08-12T17:32:02.000Z</time>
        <extensions>
          <ns3:TrackPointExtension>
            <ns3:atemp>22.0</ns3:atemp>
            <ns3:hr>112</ns3:hr>
          </ns3:TrackPointExtension>
        </extensions>
      </trkpt>
      <trkpt lat="-22.12074796669185161590576171875" lon="166.44054100848734378814697265625">
        <ele>94.1999969482421875</ele>
        <time>2016-08-12T17:32:03.000Z</time>
        <extensions>
          <ns3:TrackPointExtension>
            <ns3:atemp>22.0</ns3:atemp>
            <ns3:hr>112</ns3:hr>
          </ns3:TrackPointExtension>
        </extensions>
      </trkpt>
      <trkpt lat="-22.12074142880737781524658203125" lon="166.44055425189435482025146484375">
        <ele>94.1999969482421875</ele>
        <time>2016-08-12T17:32:04.000Z</time>
        <extensions>
          <ns3:TrackPointExtension>
            <ns3:atemp>22.0</ns3:atemp>
            <ns3:hr>112</ns3:hr>
          </ns3:TrackPointExtension>
        </extensions>
      </trkpt>
      <trkpt lat="-22.12073505856096744537353515625" lon="166.44056615419685840606689453125">
        <ele>94.40000152587890625</ele>
        <time>2016-08-12T17:32:05.000Z</time>
        <extensions>
          <ns3:TrackPointExtension>
            <ns3:atemp>22.0</ns3:atemp>
            <ns3:hr>112</ns3:hr>
          </ns3:TrackPointExtension>
        </extensions>
      </trkpt>
      <trkpt lat="-22.12073028087615966796875" lon="166.440581493079662322998046875">
        <ele>94.59999847412109375</ele>
        <time>2016-08-12T17:32:06.000Z</time>
        <extensions>
          <ns3:TrackPointExtension>
            <ns3:atemp>22.0</ns3:atemp>
            <ns3:hr>112</ns3:hr>
          </ns3:TrackPointExtension>
        </extensions>
      </trkpt>
      <trkpt lat="-22.1207249164581298828125" lon="166.44060068763792514801025390625">
        <ele>94.59999847412109375</ele>
        <time>2016-08-12T17:32:07.000Z</time>
        <extensions>
          <ns3:TrackPointExtension>
            <ns3:atemp>22.0</ns3:atemp>
            <ns3:hr>112</ns3:hr>
          </ns3:TrackPointExtension>
        </extensions>
      </trkpt>
      <trkpt lat="-22.12071762420237064361572265625" lon="166.440617032349109649658203125">
        <ele>94.8000030517578125</ele>
        <time>2016-08-12T17:32:08.000Z</time>
        <extensions>
          <ns3:TrackPointExtension>
            <ns3:atemp>22.0</ns3:atemp>
            <ns3:hr>112</ns3:hr>
          </ns3:TrackPointExtension>
        </extensions>
      </trkpt>
      <trkpt lat="-22.12071008048951625823974609375" lon="166.44063170067965984344482421875">
        <ele>95</ele>
        <time>2016-08-12T17:32:09.000Z</time>
        <extensions>
          <ns3:TrackPointExtension>
            <ns3:atemp>22.0</ns3:atemp>
            <ns3:hr>112</ns3:hr>
          </ns3:TrackPointExtension>
        </extensions>
      </trkpt>
      <trkpt lat="-22.120703123509883880615234375" lon="166.440641842782497406005859375">
        <ele>95</ele>
        <time>2016-08-12T17:32:10.000Z</time>
        <extensions>
          <ns3:TrackPointExtension>
            <ns3:atemp>22.0</ns3:atemp>
            <ns3:hr>112</ns3:hr>
          </ns3:TrackPointExtension>
        </extensions>
      </trkpt>
      <trkpt lat="-22.1206969209015369415283203125" lon="166.44065282307565212249755859375">
        <ele>95.1999969482421875</ele>
        <time>2016-08-12T17:32:11.000Z</time>
        <extensions>
          <ns3:TrackPointExtension>
            <ns3:atemp>22.0</ns3:atemp>
            <ns3:hr>112</ns3:hr>
          </ns3:TrackPointExtension>
        </extensions>
      </trkpt>
      <trkpt lat="-22.12069205939769744873046875" lon="166.440666653215885162353515625">
        <ele>95.1999969482421875</ele>
        <time>2016-08-12T17:32:12.000Z</time>
        <extensions>
          <ns3:TrackPointExtension>
            <ns3:atemp>22.0</ns3:atemp>
            <ns3:hr>112</ns3:hr>
          </ns3:TrackPointExtension>
        </extensions>
      </trkpt>
      <trkpt lat="-22.12068694643676280975341796875" lon="166.44068031571805477142333984375">
        <ele>95.1999969482421875</ele>
        <time>2016-08-12T17:32:13.000Z</time>
        <extensions>
          <ns3:TrackPointExtension>
            <ns3:atemp>22.0</ns3:atemp>
            <ns3:hr>112</ns3:hr>
          </ns3:TrackPointExtension>
        </extensions>
      </trkpt>
      <trkpt lat="-22.12068258784711360931396484375" lon="166.44069523550570011138916015625">
        <ele>95.40000152587890625</ele>
        <time>2016-08-12T17:32:14.000Z</time>
        <extensions>
          <ns3:TrackPointExtension>
            <ns3:atemp>22.0</ns3:atemp>
            <ns3:hr>112</ns3:hr>
          </ns3:TrackPointExtension>
        </extensions>
      </trkpt>
      <trkpt lat="-22.12067839689552783966064453125" lon="166.44071049056947231292724609375">
        <ele>95.59999847412109375</ele>
        <time>2016-08-12T17:32:15.000Z</time>
        <extensions>
          <ns3:TrackPointExtension>
            <ns3:atemp>22.0</ns3:atemp>
            <ns3:hr>112</ns3:hr>
          </ns3:TrackPointExtension>
        </extensions>
      </trkpt>
      <trkpt lat="-22.12067185901105403900146484375" lon="166.4407248236238956451416015625">
        <ele>95.8000030517578125</ele>
        <time>2016-08-12T17:32:16.000Z</time>
        <extensions>
          <ns3:TrackPointExtension>
            <ns3:atemp>22.0</ns3:atemp>
            <ns3:hr>112</ns3:hr>
          </ns3:TrackPointExtension>
        </extensions>
      </trkpt>
      <trkpt lat="-22.1206633932888507843017578125" lon="166.4407385699450969696044921875">
        <ele>96</ele>
        <time>2016-08-12T17:32:17.000Z</time>
        <extensions>
          <ns3:TrackPointExtension>
            <ns3:atemp>22.0</ns3:atemp>
            <ns3:hr>112</ns3:hr>
          </ns3:TrackPointExtension>
        </extensions>
      </trkpt>
      <trkpt lat="-22.12065425701439380645751953125" lon="166.44074904732406139373779296875">
        <ele>96</ele>
        <time>2016-08-12T17:32:18.000Z</time>
        <extensions>
          <ns3:TrackPointExtension>
            <ns3:atemp>22.0</ns3:atemp>
            <ns3:hr>112</ns3:hr>
          </ns3:TrackPointExtension>
        </extensions>
      </trkpt>
      <trkpt lat="-22.120646797120571136474609375" lon="166.44076086580753326416015625">
        <ele>96.1999969482421875</ele>
        <time>2016-08-12T17:32:19.000Z</time>
        <extensions>
          <ns3:TrackPointExtension>
            <ns3:atemp>22.0</ns3:atemp>
            <ns3:hr>112</ns3:hr>
          </ns3:TrackPointExtension>
        </extensions>
      </trkpt>
      <trkpt lat="-22.12063967250287532806396484375" lon="166.44077419303357601165771484375">
        <ele>96.1999969482421875</ele>
        <time>2016-08-12T17:32:20.000Z</time>
        <extensions>
          <ns3:TrackPointExtension>
            <ns3:atemp>22.0</ns3:atemp>
            <ns3:hr>112</ns3:hr>
          </ns3:TrackPointExtension>
        </extensions>
      </trkpt>
      <trkpt lat="-22.12063573300838470458984375" lon="166.44078559242188930511474609375">
        <ele>96.40000152587890625</ele>
        <time>2016-08-12T17:32:21.000Z</time>
        <extensions>
          <ns3:TrackPointExtension>
            <ns3:atemp>22.0</ns3:atemp>
            <ns3:hr>112</ns3:hr>
          </ns3:TrackPointExtension>
        </extensions>
      </trkpt>
      <trkpt lat="-22.12063028477132320404052734375" lon="166.4407975785434246063232421875">
        <ele>96.59999847412109375</ele>
        <time>2016-08-12T17:32:22.000Z</time>
        <extensions>
          <ns3:TrackPointExtension>
            <ns3:atemp>22.0</ns3:atemp>
            <ns3:hr>112</ns3:hr>
          </ns3:TrackPointExtension>
        </extensions>
      </trkpt>
      <trkpt lat="-22.1206234954297542572021484375" lon="166.44081442616879940032958984375">
        <ele>96.59999847412109375</ele>
        <time>2016-08-12T17:32:23.000Z</time>
        <extensions>
          <ns3:TrackPointExtension>
            <ns3:atemp>22.0</ns3:atemp>
            <ns3:hr>112</ns3:hr>
          </ns3:TrackPointExtension>
        </extensions>
      </trkpt>
      <trkpt lat="-22.12061737664043903350830078125" lon="166.4408257417380809783935546875">
        <ele>96.8000030517578125</ele>
        <time>2016-08-12T17:32:24.000Z</time>
        <extensions>
          <ns3:TrackPointExtension>
            <ns3:atemp>22.0</ns3:atemp>
            <ns3:hr>112</ns3:hr>
          </ns3:TrackPointExtension>
        </extensions>
      </trkpt>
      <trkpt lat="-22.12060983292758464813232421875" lon="166.44083571620285511016845703125">
        <ele>97</ele>
        <time>2016-08-12T17:32:25.000Z</time>
        <extensions>
          <ns3:TrackPointExtension>
            <ns3:atemp>22.0</ns3:atemp>
            <ns3:hr>113</ns3:hr>
          </ns3:TrackPointExtension>
        </extensions>
      </trkpt>
      <trkpt lat="-22.12060212157666683197021484375" lon="166.44084711559116840362548828125">
        <ele>97.1999969482421875</ele>
        <time>2016-08-12T17:32:26.000Z</time>
        <extensions>
          <ns3:TrackPointExtension>
            <ns3:atemp>22.0</ns3:atemp>
            <ns3:hr>113</ns3:hr>
          </ns3:TrackPointExtension>
        </extensions>
      </trkpt>
      <trkpt lat="-22.1205961704254150390625" lon="166.44085834734141826629638671875">
        <ele>97.40000152587890625</ele>
        <time>2016-08-12T17:32:27.000Z</time>
        <extensions>
          <ns3:TrackPointExtension>
            <ns3:atemp>22.0</ns3:atemp>
            <ns3:hr>113</ns3:hr>
          </ns3:TrackPointExtension>
        </extensions>
      </trkpt>
      <trkpt lat="-22.1205903030931949615478515625" lon="166.44087159074842929840087890625">
        <ele>97.59999847412109375</ele>
        <time>2016-08-12T17:32:28.000Z</time>
        <extensions>
          <ns3:TrackPointExtension>
            <ns3:atemp>22.0</ns3:atemp>
            <ns3:hr>113</ns3:hr>
          </ns3:TrackPointExtension>
        </extensions>
      </trkpt>
      <trkpt lat="-22.120582759380340576171875" lon="166.44088399596512317657470703125">
        <ele>97.8000030517578125</ele>
        <time>2016-08-12T17:32:29.000Z</time>
        <extensions>
          <ns3:TrackPointExtension>
            <ns3:atemp>22.0</ns3:atemp>
            <ns3:hr>113</ns3:hr>
          </ns3:TrackPointExtension>
        </extensions>
      </trkpt>
      <trkpt lat="-22.12057580240070819854736328125" lon="166.4408954791724681854248046875">
        <ele>97.8000030517578125</ele>
        <time>2016-08-12T17:32:30.000Z</time>
        <extensions>
          <ns3:TrackPointExtension>
            <ns3:atemp>22.0</ns3:atemp>
            <ns3:hr>113</ns3:hr>
          </ns3:TrackPointExtension>
        </extensions>
      </trkpt>
      <trkpt lat="-22.1205688454210758209228515625" lon="166.4409125782549381256103515625">
        <ele>98</ele>
        <time>2016-08-12T17:32:31.000Z</time>
        <extensions>
          <ns3:TrackPointExtension>
            <ns3:atemp>22.0</ns3:atemp>
            <ns3:hr>113</ns3:hr>
          </ns3:TrackPointExtension>
        </extensions>
      </trkpt>
      <trkpt lat="-22.1205607987940311431884765625" lon="166.440925486385822296142578125">
        <ele>98</ele>
        <time>2016-08-12T17:32:32.000Z</time>
        <extensions>
          <ns3:TrackPointExtension>
            <ns3:atemp>21.0</ns3:atemp>
            <ns3:hr>113</ns3:hr>
          </ns3:TrackPointExtension>
        </extensions>
      </trkpt>
      <trkpt lat="-22.1205530874431133270263671875" lon="166.44093495793640613555908203125">
        <ele>98.1999969482421875</ele>
        <time>2016-08-12T17:32:33.000Z</time>
        <extensions>
          <ns3:TrackPointExtension>
            <ns3:atemp>21.0</ns3:atemp>
            <ns3:hr>113</ns3:hr>
          </ns3:TrackPointExtension>
        </extensions>
      </trkpt>
      <trkpt lat="-22.1205497346818447113037109375" lon="166.44094669260084629058837890625">
        <ele>98.40000152587890625</ele>
        <time>2016-08-12T17:32:34.000Z</time>
        <extensions>
          <ns3:TrackPointExtension>
            <ns3:atemp>21.0</ns3:atemp>
            <ns3:hr>113</ns3:hr>
          </ns3:TrackPointExtension>
        </extensions>
      </trkpt>
      <trkpt lat="-22.1205438673496246337890625" lon="166.44096094183623790740966796875">
        <ele>98.59999847412109375</ele>
        <time>2016-08-12T17:32:35.000Z</time>
        <extensions>
          <ns3:TrackPointExtension>
            <ns3:atemp>21.0</ns3:atemp>
            <ns3:hr>113</ns3:hr>
          </ns3:TrackPointExtension>
        </extensions>
      </trkpt>
      <trkpt lat="-22.12053573690354824066162109375" lon="166.44096932373940944671630859375">
        <ele>98.8000030517578125</ele>
        <time>2016-08-12T17:32:36.000Z</time>
        <extensions>
          <ns3:TrackPointExtension>
            <ns3:atemp>21.0</ns3:atemp>
            <ns3:hr>113</ns3:hr>
          </ns3:TrackPointExtension>
        </extensions>
      </trkpt>
      <trkpt lat="-22.12053271941840648651123046875" lon="166.44097317941486835479736328125">
        <ele>99</ele>
        <time>2016-08-12T17:32:37.000Z</time>
        <extensions>
          <ns3:TrackPointExtension>
            <ns3:atemp>21.0</ns3:atemp>
            <ns3:hr>113</ns3:hr>
          </ns3:TrackPointExtension>
        </extensions>
      </trkpt>
      <trkpt lat="-22.1205317974090576171875" lon="166.44097669981420040130615234375">
        <ele>99</ele>
        <time>2016-08-12T17:32:39.000Z</time>
        <extensions>
          <ns3:TrackPointExtension>
            <ns3:atemp>21.0</ns3:atemp>
            <ns3:hr>113</ns3:hr>
          </ns3:TrackPointExtension>
        </extensions>
      </trkpt>
      <trkpt lat="-22.1205304563045501708984375" lon="166.440979801118373870849609375">
        <ele>98.8000030517578125</ele>
        <time>2016-08-12T17:32:41.000Z</time>
        <extensions>
          <ns3:TrackPointExtension>
            <ns3:atemp>21.0</ns3:atemp>
            <ns3:hr>113</ns3:hr>
          </ns3:TrackPointExtension>
        </extensions>
      </trkpt>
      <trkpt lat="-22.12053112685680389404296875" lon="166.44097946584224700927734375">
        <ele>99</ele>
        <time>2016-08-12T17:32:42.000Z</time>
        <extensions>
          <ns3:TrackPointExtension>
            <ns3:atemp>21.0</ns3:atemp>
            <ns3:hr>113</ns3:hr>
          </ns3:TrackPointExtension>
        </extensions>
      </trkpt>
      <trkpt lat="-22.120528779923915863037109375" lon="166.44098348915576934814453125">
        <ele>99</ele>
        <time>2016-08-12T17:32:43.000Z</time>
        <extensions>
          <ns3:TrackPointExtension>
            <ns3:atemp>21.0</ns3:atemp>
            <ns3:hr>113</ns3:hr>
          </ns3:TrackPointExtension>
        </extensions>
      </trkpt>
      <trkpt lat="-22.12053020484745502471923828125" lon="166.44098524935543537139892578125">
        <ele>98.8000030517578125</ele>
        <time>2016-08-12T17:32:45.000Z</time>
        <extensions>
          <ns3:TrackPointExtension>
            <ns3:atemp>21.0</ns3:atemp>
            <ns3:hr>113</ns3:hr>
          </ns3:TrackPointExtension>
        </extensions>
      </trkpt>
      <trkpt lat="-22.120534144341945648193359375" lon="166.44098809920251369476318359375">
        <ele>98.8000030517578125</ele>
        <time>2016-08-12T17:32:46.000Z</time>
        <extensions>
          <ns3:TrackPointExtension>
            <ns3:atemp>21.0</ns3:atemp>
            <ns3:hr>113</ns3:hr>
          </ns3:TrackPointExtension>
        </extensions>
      </trkpt>
      <trkpt lat="-22.12053380906581878662109375" lon="166.44099019467830657958984375">
        <ele>98.8000030517578125</ele>
        <time>2016-08-12T17:32:48.000Z</time>
        <extensions>
          <ns3:TrackPointExtension>
            <ns3:atemp>21.0</ns3:atemp>
            <ns3:hr>112</ns3:hr>
          </ns3:TrackPointExtension>
        </extensions>
      </trkpt>
      <trkpt lat="-22.12053422816097736358642578125" lon="166.44099078141152858734130859375">
        <ele>98.8000030517578125</ele>
        <time>2016-08-12T17:32:49.000Z</time>
        <extensions>
          <ns3:TrackPointExtension>
            <ns3:atemp>21.0</ns3:atemp>
            <ns3:hr>112</ns3:hr>
          </ns3:TrackPointExtension>
        </extensions>
      </trkpt>
      <trkpt lat="-22.1205331385135650634765625" lon="166.44099153578281402587890625">
        <ele>98.8000030517578125</ele>
        <time>2016-08-12T17:32:50.000Z</time>
        <extensions>
          <ns3:TrackPointExtension>
            <ns3:atemp>21.0</ns3:atemp>
            <ns3:hr>112</ns3:hr>
          </ns3:TrackPointExtension>
        </extensions>
      </trkpt>
      <trkpt lat="-22.1205329708755016326904296875" lon="166.44099195487797260284423828125">
        <ele>98.8000030517578125</ele>
        <time>2016-08-12T17:32:51.000Z</time>
        <extensions>
          <ns3:TrackPointExtension>
            <ns3:atemp>21.0</ns3:atemp>
            <ns3:hr>110</ns3:hr>
          </ns3:TrackPointExtension>
        </extensions>
      </trkpt>
      <trkpt lat="-22.12053322233259677886962890625" lon="166.4409922063350677490234375">
        <ele>98.8000030517578125</ele>
        <time>2016-08-12T17:32:52.000Z</time>
        <extensions>
          <ns3:TrackPointExtension>
            <ns3:atemp>21.0</ns3:atemp>
            <ns3:hr>110</ns3:hr>
          </ns3:TrackPointExtension>
        </extensions>
      </trkpt>
      <trkpt lat="-22.120530791580677032470703125" lon="166.44099413417279720306396484375">
        <ele>98.8000030517578125</ele>
        <time>2016-08-12T17:32:53.000Z</time>
        <extensions>
          <ns3:TrackPointExtension>
            <ns3:atemp>21.0</ns3:atemp>
            <ns3:hr>110</ns3:hr>
          </ns3:TrackPointExtension>
        </extensions>
      </trkpt>
      <trkpt lat="-22.120530791580677032470703125" lon="166.44099413417279720306396484375">
        <ele>98.8000030517578125</ele>
        <time>2016-08-12T17:32:54.000Z</time>
        <extensions>
          <ns3:TrackPointExtension>
            <ns3:atemp>21.0</ns3:atemp>
            <ns3:hr>109</ns3:hr>
          </ns3:TrackPointExtension>
        </extensions>
      </trkpt>
      <trkpt lat="-22.12053003720939159393310546875" lon="166.44099363125860691070556640625">
        <ele>98.8000030517578125</ele>
        <time>2016-08-12T17:32:55.000Z</time>
        <extensions>
          <ns3:TrackPointExtension>
            <ns3:atemp>21.0</ns3:atemp>
            <ns3:hr>109</ns3:hr>
          </ns3:TrackPointExtension>
        </extensions>
      </trkpt>
      <trkpt lat="-22.12052836082875728607177734375" lon="166.44099530763924121856689453125">
        <ele>98.8000030517578125</ele>
        <time>2016-08-12T17:32:56.000Z</time>
        <extensions>
          <ns3:TrackPointExtension>
            <ns3:atemp>21.0</ns3:atemp>
            <ns3:hr>107</ns3:hr>
          </ns3:TrackPointExtension>
        </extensions>
      </trkpt>
      <trkpt lat="-22.120526097714900970458984375" lon="166.4409984089434146881103515625">
        <ele>98.8000030517578125</ele>
        <time>2016-08-12T17:32:57.000Z</time>
        <extensions>
          <ns3:TrackPointExtension>
            <ns3:atemp>21.0</ns3:atemp>
            <ns3:hr>105</ns3:hr>
          </ns3:TrackPointExtension>
        </extensions>
      </trkpt>
      <trkpt lat="-22.1205242536962032318115234375" lon="166.44099949859082698822021484375">
        <ele>98.8000030517578125</ele>
        <time>2016-08-12T17:32:58.000Z</time>
        <extensions>
          <ns3:TrackPointExtension>
            <ns3:atemp>21.0</ns3:atemp>
            <ns3:hr>105</ns3:hr>
          </ns3:TrackPointExtension>
        </extensions>
      </trkpt>
      <trkpt lat="-22.120523415505886077880859375" lon="166.4410020969808101654052734375">
        <ele>98.8000030517578125</ele>
        <time>2016-08-12T17:32:59.000Z</time>
        <extensions>
          <ns3:TrackPointExtension>
            <ns3:atemp>21.0</ns3:atemp>
            <ns3:hr>104</ns3:hr>
          </ns3:TrackPointExtension>
        </extensions>
      </trkpt>
      <trkpt lat="-22.120522074401378631591796875" lon="166.441005952656269073486328125">
        <ele>98.8000030517578125</ele>
        <time>2016-08-12T17:33:00.000Z</time>
        <extensions>
          <ns3:TrackPointExtension>
            <ns3:atemp>21.0</ns3:atemp>
            <ns3:hr>103</ns3:hr>
          </ns3:TrackPointExtension>
        </extensions>
      </trkpt>
      <trkpt lat="-22.1205209009349346160888671875" lon="166.44100955687463283538818359375">
        <ele>98.8000030517578125</ele>
        <time>2016-08-12T17:33:01.000Z</time>
        <extensions>
          <ns3:TrackPointExtension>
            <ns3:atemp>21.0</ns3:atemp>
            <ns3:hr>102</ns3:hr>
          </ns3:TrackPointExtension>
        </extensions>
      </trkpt>
      <trkpt lat="-22.12052039802074432373046875" lon="166.441012658178806304931640625">
        <ele>98.8000030517578125</ele>
        <time>2016-08-12T17:33:03.000Z</time>
        <extensions>
          <ns3:TrackPointExtension>
            <ns3:atemp>21.0</ns3:atemp>
            <ns3:hr>100</ns3:hr>
          </ns3:TrackPointExtension>
        </extensions>
      </trkpt>
      <trkpt lat="-22.12051947601139545440673828125" lon="166.4410136640071868896484375">
        <ele>98.8000030517578125</ele>
        <time>2016-08-12T17:33:04.000Z</time>
        <extensions>
          <ns3:TrackPointExtension>
            <ns3:atemp>21.0</ns3:atemp>
            <ns3:hr>100</ns3:hr>
          </ns3:TrackPointExtension>
        </extensions>
      </trkpt>
      <trkpt lat="-22.12052098475396633148193359375" lon="166.4410155080258846282958984375">
        <ele>98.8000030517578125</ele>
        <time>2016-08-12T17:33:05.000Z</time>
        <extensions>
          <ns3:TrackPointExtension>
            <ns3:atemp>21.0</ns3:atemp>
            <ns3:hr>99</ns3:hr>
          </ns3:TrackPointExtension>
        </extensions>
      </trkpt>
      <trkpt lat="-22.12052173912525177001953125" lon="166.44101676531136035919189453125">
        <ele>98.8000030517578125</ele>
        <time>2016-08-12T17:33:07.000Z</time>
        <extensions>
          <ns3:TrackPointExtension>
            <ns3:atemp>21.0</ns3:atemp>
            <ns3:hr>97</ns3:hr>
          </ns3:TrackPointExtension>
        </extensions>
      </trkpt>
      <trkpt lat="-22.12052132003009319305419921875" lon="166.44101659767329692840576171875">
        <ele>98.8000030517578125</ele>
        <time>2016-08-12T17:33:08.000Z</time>
        <extensions>
          <ns3:TrackPointExtension>
            <ns3:atemp>21.0</ns3:atemp>
            <ns3:hr>95</ns3:hr>
          </ns3:TrackPointExtension>
        </extensions>
      </trkpt>
      <trkpt lat="-22.120520733296871185302734375" lon="166.44101626239717006683349609375">
        <ele>98.8000030517578125</ele>
        <time>2016-08-12T17:33:09.000Z</time>
        <extensions>
          <ns3:TrackPointExtension>
            <ns3:atemp>21.0</ns3:atemp>
            <ns3:hr>95</ns3:hr>
          </ns3:TrackPointExtension>
        </extensions>
      </trkpt>
      <trkpt lat="-22.1205198951065540313720703125" lon="166.44101710058748722076416015625">
        <ele>98.8000030517578125</ele>
        <time>2016-08-12T17:33:10.000Z</time>
        <extensions>
          <ns3:TrackPointExtension>
            <ns3:atemp>21.0</ns3:atemp>
            <ns3:hr>94</ns3:hr>
          </ns3:TrackPointExtension>
        </extensions>
      </trkpt>
      <trkpt lat="-22.120520062744617462158203125" lon="166.4410158433020114898681640625">
        <ele>98.8000030517578125</ele>
        <time>2016-08-12T17:33:11.000Z</time>
        <extensions>
          <ns3:TrackPointExtension>
            <ns3:atemp>21.0</ns3:atemp>
            <ns3:hr>94</ns3:hr>
          </ns3:TrackPointExtension>
        </extensions>
      </trkpt>
      <trkpt lat="-22.12051494978368282318115234375" lon="166.4410235546529293060302734375">
        <ele>98.8000030517578125</ele>
        <time>2016-08-12T17:33:12.000Z</time>
        <extensions>
          <ns3:TrackPointExtension>
            <ns3:atemp>21.0</ns3:atemp>
            <ns3:hr>94</ns3:hr>
          </ns3:TrackPointExtension>
        </extensions>
      </trkpt>
      <trkpt lat="-22.12051293812692165374755859375" lon="166.4410272426903247833251953125">
        <ele>98.8000030517578125</ele>
        <time>2016-08-12T17:33:13.000Z</time>
        <extensions>
          <ns3:TrackPointExtension>
            <ns3:atemp>21.0</ns3:atemp>
            <ns3:hr>94</ns3:hr>
          </ns3:TrackPointExtension>
        </extensions>
      </trkpt>
      <trkpt lat="-22.1205063164234161376953125" lon="166.44103671424090862274169921875">
        <ele>99</ele>
        <time>2016-08-12T17:33:14.000Z</time>
        <extensions>
          <ns3:TrackPointExtension>
            <ns3:atemp>21.0</ns3:atemp>
            <ns3:hr>94</ns3:hr>
          </ns3:TrackPointExtension>
        </extensions>
      </trkpt>
      <trkpt lat="-22.1204920671880245208740234375" lon="166.44105247221887111663818359375">
        <ele>99.40000152587890625</ele>
        <time>2016-08-12T17:33:15.000Z</time>
        <extensions>
          <ns3:TrackPointExtension>
            <ns3:atemp>21.0</ns3:atemp>
            <ns3:hr>94</ns3:hr>
          </ns3:TrackPointExtension>
        </extensions>
      </trkpt>
      <trkpt lat="-22.1204853616654872894287109375" lon="166.4410624466836452484130859375">
        <ele>99.40000152587890625</ele>
        <time>2016-08-12T17:33:16.000Z</time>
        <extensions>
          <ns3:TrackPointExtension>
            <ns3:atemp>22.0</ns3:atemp>
            <ns3:hr>94</ns3:hr>
          </ns3:TrackPointExtension>
        </extensions>
      </trkpt>
      <trkpt lat="-22.12048024870455265045166015625" lon="166.44107728265225887298583984375">
        <ele>99.59999847412109375</ele>
        <time>2016-08-12T17:33:17.000Z</time>
        <extensions>
          <ns3:TrackPointExtension>
            <ns3:atemp>22.0</ns3:atemp>
            <ns3:hr>94</ns3:hr>
          </ns3:TrackPointExtension>
        </extensions>
      </trkpt>
      <trkpt lat="-22.12047203443944454193115234375" lon="166.44108734093606472015380859375">
        <ele>99.8000030517578125</ele>
        <time>2016-08-12T17:33:18.000Z</time>
        <extensions>
          <ns3:TrackPointExtension>
            <ns3:atemp>22.0</ns3:atemp>
            <ns3:hr>95</ns3:hr>
          </ns3:TrackPointExtension>
        </extensions>
      </trkpt>
      <trkpt lat="-22.12046348489820957183837890625" lon="166.44109589047729969024658203125">
        <ele>100</ele>
        <time>2016-08-12T17:33:19.000Z</time>
        <extensions>
          <ns3:TrackPointExtension>
            <ns3:atemp>22.0</ns3:atemp>
            <ns3:hr>95</ns3:hr>
          </ns3:TrackPointExtension>
        </extensions>
      </trkpt>
      <trkpt lat="-22.120453678071498870849609375" lon="166.44110762514173984527587890625">
        <ele>100</ele>
        <time>2016-08-12T17:33:20.000Z</time>
        <extensions>
          <ns3:TrackPointExtension>
            <ns3:atemp>22.0</ns3:atemp>
            <ns3:hr>95</ns3:hr>
          </ns3:TrackPointExtension>
        </extensions>
      </trkpt>
      <trkpt lat="-22.12044286541640758514404296875" lon="166.441120617091655731201171875">
        <ele>100.1999969482421875</ele>
        <time>2016-08-12T17:33:21.000Z</time>
        <extensions>
          <ns3:TrackPointExtension>
            <ns3:atemp>22.0</ns3:atemp>
            <ns3:hr>97</ns3:hr>
          </ns3:TrackPointExtension>
        </extensions>
      </trkpt>
      <trkpt lat="-22.1204337291419506072998046875" lon="166.44113193266093730926513671875">
        <ele>100.40000152587890625</ele>
        <time>2016-08-12T17:33:22.000Z</time>
        <extensions>
          <ns3:TrackPointExtension>
            <ns3:atemp>22.0</ns3:atemp>
            <ns3:hr>97</ns3:hr>
          </ns3:TrackPointExtension>
        </extensions>
      </trkpt>
      <trkpt lat="-22.12042727507650852203369140625" lon="166.44114500842988491058349609375">
        <ele>100.59999847412109375</ele>
        <time>2016-08-12T17:33:23.000Z</time>
        <extensions>
          <ns3:TrackPointExtension>
            <ns3:atemp>22.0</ns3:atemp>
            <ns3:hr>97</ns3:hr>
          </ns3:TrackPointExtension>
        </extensions>
      </trkpt>
      <trkpt lat="-22.12042249739170074462890625" lon="166.4411559887230396270751953125">
        <ele>100.8000030517578125</ele>
        <time>2016-08-12T17:33:24.000Z</time>
        <extensions>
          <ns3:TrackPointExtension>
            <ns3:atemp>22.0</ns3:atemp>
            <ns3:hr>97</ns3:hr>
          </ns3:TrackPointExtension>
        </extensions>
      </trkpt>
      <trkpt lat="-22.12041570805013179779052734375" lon="166.44117015413939952850341796875">
        <ele>100.8000030517578125</ele>
        <time>2016-08-12T17:33:25.000Z</time>
        <extensions>
          <ns3:TrackPointExtension>
            <ns3:atemp>22.0</ns3:atemp>
            <ns3:hr>98</ns3:hr>
          </ns3:TrackPointExtension>
        </extensions>
      </trkpt>
      <trkpt lat="-22.1204092539846897125244140625" lon="166.441184990108013153076171875">
        <ele>101</ele>
        <time>2016-08-12T17:33:26.000Z</time>
        <extensions>
          <ns3:TrackPointExtension>
            <ns3:atemp>22.0</ns3:atemp>
            <ns3:hr>98</ns3:hr>
          </ns3:TrackPointExtension>
        </extensions>
      </trkpt>
      <trkpt lat="-22.12040397338569164276123046875" lon="166.4411995746195316314697265625">
        <ele>101.40000152587890625</ele>
        <time>2016-08-12T17:33:27.000Z</time>
        <extensions>
          <ns3:TrackPointExtension>
            <ns3:atemp>22.0</ns3:atemp>
            <ns3:hr>98</ns3:hr>
          </ns3:TrackPointExtension>
        </extensions>
      </trkpt>
      <trkpt lat="-22.12039827369153499603271484375" lon="166.441212482750415802001953125">
        <ele>101.59999847412109375</ele>
        <time>2016-08-12T17:33:28.000Z</time>
        <extensions>
          <ns3:TrackPointExtension>
            <ns3:atemp>22.0</ns3:atemp>
            <ns3:hr>99</ns3:hr>
          </ns3:TrackPointExtension>
        </extensions>
      </trkpt>
      <trkpt lat="-22.12039039470255374908447265625" lon="166.44122564233839511871337890625">
        <ele>101.8000030517578125</ele>
        <time>2016-08-12T17:33:29.000Z</time>
        <extensions>
          <ns3:TrackPointExtension>
            <ns3:atemp>22.0</ns3:atemp>
            <ns3:hr>100</ns3:hr>
          </ns3:TrackPointExtension>
        </extensions>
      </trkpt>
      <trkpt lat="-22.1203834377229213714599609375" lon="166.4412389695644378662109375">
        <ele>102</ele>
        <time>2016-08-12T17:33:30.000Z</time>
        <extensions>
          <ns3:TrackPointExtension>
            <ns3:atemp>22.0</ns3:atemp>
            <ns3:hr>100</ns3:hr>
          </ns3:TrackPointExtension>
        </extensions>
      </trkpt>
      <trkpt lat="-22.12037555873394012451171875" lon="166.44125036895275115966796875">
        <ele>102.1999969482421875</ele>
        <time>2016-08-12T17:33:31.000Z</time>
        <extensions>
          <ns3:TrackPointExtension>
            <ns3:atemp>22.0</ns3:atemp>
            <ns3:hr>100</ns3:hr>
          </ns3:TrackPointExtension>
        </extensions>
      </trkpt>
      <trkpt lat="-22.120368517935276031494140625" lon="166.44125975668430328369140625">
        <ele>102.1999969482421875</ele>
        <time>2016-08-12T17:33:32.000Z</time>
        <extensions>
          <ns3:TrackPointExtension>
            <ns3:atemp>22.0</ns3:atemp>
            <ns3:hr>103</ns3:hr>
          </ns3:TrackPointExtension>
        </extensions>
      </trkpt>
      <trkpt lat="-22.120361812412738800048828125" lon="166.44127090461552143096923828125">
        <ele>102.40000152587890625</ele>
        <time>2016-08-12T17:33:33.000Z</time>
        <extensions>
          <ns3:TrackPointExtension>
            <ns3:atemp>22.0</ns3:atemp>
            <ns3:hr>104</ns3:hr>
          </ns3:TrackPointExtension>
        </extensions>
      </trkpt>
      <trkpt lat="-22.12035636417567729949951171875" lon="166.4412813819944858551025390625">
        <ele>102.59999847412109375</ele>
        <time>2016-08-12T17:33:34.000Z</time>
        <extensions>
          <ns3:TrackPointExtension>
            <ns3:atemp>22.0</ns3:atemp>
            <ns3:hr>104</ns3:hr>
          </ns3:TrackPointExtension>
        </extensions>
      </trkpt>
      <trkpt lat="-22.120349407196044921875" lon="166.441293619573116302490234375">
        <ele>102.59999847412109375</ele>
        <time>2016-08-12T17:33:35.000Z</time>
        <extensions>
          <ns3:TrackPointExtension>
            <ns3:atemp>22.0</ns3:atemp>
            <ns3:hr>107</ns3:hr>
          </ns3:TrackPointExtension>
        </extensions>
      </trkpt>
      <trkpt lat="-22.12034127674996852874755859375" lon="166.44130661152303218841552734375">
        <ele>102.8000030517578125</ele>
        <time>2016-08-12T17:33:36.000Z</time>
        <extensions>
          <ns3:TrackPointExtension>
            <ns3:atemp>22.0</ns3:atemp>
            <ns3:hr>107</ns3:hr>
          </ns3:TrackPointExtension>
        </extensions>
      </trkpt>
      <trkpt lat="-22.120332308113574981689453125" lon="166.44131968729197978973388671875">
        <ele>102.59999847412109375</ele>
        <time>2016-08-12T17:33:37.000Z</time>
        <extensions>
          <ns3:TrackPointExtension>
            <ns3:atemp>22.0</ns3:atemp>
            <ns3:hr>109</ns3:hr>
          </ns3:TrackPointExtension>
        </extensions>
      </trkpt>
      <trkpt lat="-22.1203227527439594268798828125" lon="166.441331170499324798583984375">
        <ele>102.8000030517578125</ele>
        <time>2016-08-12T17:33:38.000Z</time>
        <extensions>
          <ns3:TrackPointExtension>
            <ns3:atemp>22.0</ns3:atemp>
            <ns3:hr>109</ns3:hr>
          </ns3:TrackPointExtension>
        </extensions>
      </trkpt>
      <trkpt lat="-22.12031378410756587982177734375" lon="166.4413434080779552459716796875">
        <ele>103</ele>
        <time>2016-08-12T17:33:39.000Z</time>
        <extensions>
          <ns3:TrackPointExtension>
            <ns3:atemp>22.0</ns3:atemp>
            <ns3:hr>109</ns3:hr>
          </ns3:TrackPointExtension>
        </extensions>
      </trkpt>
      <trkpt lat="-22.120307497680187225341796875" lon="166.44135656766593456268310546875">
        <ele>103.1999969482421875</ele>
        <time>2016-08-12T17:33:40.000Z</time>
        <extensions>
          <ns3:TrackPointExtension>
            <ns3:atemp>22.0</ns3:atemp>
            <ns3:hr>109</ns3:hr>
          </ns3:TrackPointExtension>
        </extensions>
      </trkpt>
      <trkpt lat="-22.12030070833861827850341796875" lon="166.4413695596158504486083984375">
        <ele>103.40000152587890625</ele>
        <time>2016-08-12T17:33:41.000Z</time>
        <extensions>
          <ns3:TrackPointExtension>
            <ns3:atemp>22.0</ns3:atemp>
            <ns3:hr>110</ns3:hr>
          </ns3:TrackPointExtension>
        </extensions>
      </trkpt>
      <trkpt lat="-22.12029282934963703155517578125" lon="166.44138221628963947296142578125">
        <ele>103.40000152587890625</ele>
        <time>2016-08-12T17:33:42.000Z</time>
        <extensions>
          <ns3:TrackPointExtension>
            <ns3:atemp>22.0</ns3:atemp>
            <ns3:hr>110</ns3:hr>
          </ns3:TrackPointExtension>
        </extensions>
      </trkpt>
      <trkpt lat="-22.1202855370938777923583984375" lon="166.44139587879180908203125">
        <ele>103.59999847412109375</ele>
        <time>2016-08-12T17:33:43.000Z</time>
        <extensions>
          <ns3:TrackPointExtension>
            <ns3:atemp>21.0</ns3:atemp>
            <ns3:hr>112</ns3:hr>
          </ns3:TrackPointExtension>
        </extensions>
      </trkpt>
      <trkpt lat="-22.12027908302843570709228515625" lon="166.4414064399898052215576171875">
        <ele>103.59999847412109375</ele>
        <time>2016-08-12T17:33:44.000Z</time>
        <extensions>
          <ns3:TrackPointExtension>
            <ns3:atemp>21.0</ns3:atemp>
            <ns3:hr>111</ns3:hr>
          </ns3:TrackPointExtension>
        </extensions>
      </trkpt>
      <trkpt lat="-22.12027070112526416778564453125" lon="166.44141666591167449951171875">
        <ele>103.8000030517578125</ele>
        <time>2016-08-12T17:33:45.000Z</time>
        <extensions>
          <ns3:TrackPointExtension>
            <ns3:atemp>21.0</ns3:atemp>
            <ns3:hr>112</ns3:hr>
          </ns3:TrackPointExtension>
        </extensions>
      </trkpt>
      <trkpt lat="-22.12026097811758518218994140625" lon="166.44142915494740009307861328125">
        <ele>103.8000030517578125</ele>
        <time>2016-08-12T17:33:46.000Z</time>
        <extensions>
          <ns3:TrackPointExtension>
            <ns3:atemp>21.0</ns3:atemp>
            <ns3:hr>112</ns3:hr>
          </ns3:TrackPointExtension>
        </extensions>
      </trkpt>
      <trkpt lat="-22.12025217711925506591796875" lon="166.44144005142152309417724609375">
        <ele>103.8000030517578125</ele>
        <time>2016-08-12T17:33:47.000Z</time>
        <extensions>
          <ns3:TrackPointExtension>
            <ns3:atemp>21.0</ns3:atemp>
            <ns3:hr>112</ns3:hr>
          </ns3:TrackPointExtension>
        </extensions>
      </trkpt>
      <trkpt lat="-22.12024387903511524200439453125" lon="166.4414523728191852569580078125">
        <ele>104</ele>
        <time>2016-08-12T17:33:48.000Z</time>
        <extensions>
          <ns3:TrackPointExtension>
            <ns3:atemp>21.0</ns3:atemp>
            <ns3:hr>111</ns3:hr>
          </ns3:TrackPointExtension>
        </extensions>
      </trkpt>
      <trkpt lat="-22.1202375926077365875244140625" lon="166.44146385602653026580810546875">
        <ele>104.1999969482421875</ele>
        <time>2016-08-12T17:33:49.000Z</time>
        <extensions>
          <ns3:TrackPointExtension>
            <ns3:atemp>21.0</ns3:atemp>
            <ns3:hr>111</ns3:hr>
          </ns3:TrackPointExtension>
        </extensions>
      </trkpt>
      <trkpt lat="-22.12023247964680194854736328125" lon="166.44147642888128757476806640625">
        <ele>104.40000152587890625</ele>
        <time>2016-08-12T17:33:50.000Z</time>
        <extensions>
          <ns3:TrackPointExtension>
            <ns3:atemp>21.0</ns3:atemp>
            <ns3:hr>111</ns3:hr>
          </ns3:TrackPointExtension>
        </extensions>
      </trkpt>
      <trkpt lat="-22.1202235110104084014892578125" lon="166.4414889179170131683349609375">
        <ele>104.40000152587890625</ele>
        <time>2016-08-12T17:33:51.000Z</time>
        <extensions>
          <ns3:TrackPointExtension>
            <ns3:atemp>21.0</ns3:atemp>
            <ns3:hr>111</ns3:hr>
          </ns3:TrackPointExtension>
        </extensions>
      </trkpt>
      <trkpt lat="-22.120216302573680877685546875" lon="166.44150123931467533111572265625">
        <ele>104.59999847412109375</ele>
        <time>2016-08-12T17:33:52.000Z</time>
        <extensions>
          <ns3:TrackPointExtension>
            <ns3:atemp>21.0</ns3:atemp>
            <ns3:hr>111</ns3:hr>
          </ns3:TrackPointExtension>
        </extensions>
      </trkpt>
      <trkpt lat="-22.12020800448954105377197265625" lon="166.441514231264591217041015625">
        <ele>104.59999847412109375</ele>
        <time>2016-08-12T17:33:53.000Z</time>
        <extensions>
          <ns3:TrackPointExtension>
            <ns3:atemp>21.0</ns3:atemp>
            <ns3:hr>112</ns3:hr>
          </ns3:TrackPointExtension>
        </extensions>
      </trkpt>
      <trkpt lat="-22.120198868215084075927734375" lon="166.44152688793838024139404296875">
        <ele>104.8000030517578125</ele>
        <time>2016-08-12T17:33:54.000Z</time>
        <extensions>
          <ns3:TrackPointExtension>
            <ns3:atemp>21.0</ns3:atemp>
            <ns3:hr>112</ns3:hr>
          </ns3:TrackPointExtension>
        </extensions>
      </trkpt>
      <trkpt lat="-22.12019492872059345245361328125" lon="166.44153677858412265777587890625">
        <ele>105</ele>
        <time>2016-08-12T17:33:55.000Z</time>
        <extensions>
          <ns3:TrackPointExtension>
            <ns3:atemp>21.0</ns3:atemp>
            <ns3:hr>112</ns3:hr>
          </ns3:TrackPointExtension>
        </extensions>
      </trkpt>
      <trkpt lat="-22.12018621154129505157470703125" lon="166.4415479265153408050537109375">
        <ele>105.1999969482421875</ele>
        <time>2016-08-12T17:33:56.000Z</time>
        <extensions>
          <ns3:TrackPointExtension>
            <ns3:atemp>21.0</ns3:atemp>
            <ns3:hr>112</ns3:hr>
          </ns3:TrackPointExtension>
        </extensions>
      </trkpt>
      <trkpt lat="-22.12017581798136234283447265625" lon="166.4415623433887958526611328125">
        <ele>105.40000152587890625</ele>
        <time>2016-08-12T17:33:57.000Z</time>
        <extensions>
          <ns3:TrackPointExtension>
            <ns3:atemp>21.0</ns3:atemp>
            <ns3:hr>112</ns3:hr>
          </ns3:TrackPointExtension>
        </extensions>
      </trkpt>
      <trkpt lat="-22.120168693363666534423828125" lon="166.4415744133293628692626953125">
        <ele>105.40000152587890625</ele>
        <time>2016-08-12T17:33:58.000Z</time>
        <extensions>
          <ns3:TrackPointExtension>
            <ns3:atemp>21.0</ns3:atemp>
            <ns3:hr>112</ns3:hr>
          </ns3:TrackPointExtension>
        </extensions>
      </trkpt>
      <trkpt lat="-22.12016089819371700286865234375" lon="166.441587321460247039794921875">
        <ele>105.59999847412109375</ele>
        <time>2016-08-12T17:33:59.000Z</time>
        <extensions>
          <ns3:TrackPointExtension>
            <ns3:atemp>21.0</ns3:atemp>
            <ns3:hr>114</ns3:hr>
          </ns3:TrackPointExtension>
        </extensions>
      </trkpt>
      <trkpt lat="-22.12015117518603801727294921875" lon="166.441597379744052886962890625">
        <ele>105.8000030517578125</ele>
        <time>2016-08-12T17:34:00.000Z</time>
        <extensions>
          <ns3:TrackPointExtension>
            <ns3:atemp>21.0</ns3:atemp>
            <ns3:hr>114</ns3:hr>
          </ns3:TrackPointExtension>
        </extensions>
      </trkpt>
      <trkpt lat="-22.120141871273517608642578125" lon="166.4416069351136684417724609375">
        <ele>105.8000030517578125</ele>
        <time>2016-08-12T17:34:01.000Z</time>
        <extensions>
          <ns3:TrackPointExtension>
            <ns3:atemp>21.0</ns3:atemp>
            <ns3:hr>115</ns3:hr>
          </ns3:TrackPointExtension>
        </extensions>
      </trkpt>
      <trkpt lat="-22.1201316453516483306884765625" lon="166.44161774776875972747802734375">
        <ele>106</ele>
        <time>2016-08-12T17:34:02.000Z</time>
        <extensions>
          <ns3:TrackPointExtension>
            <ns3:atemp>21.0</ns3:atemp>
            <ns3:hr>115</ns3:hr>
          </ns3:TrackPointExtension>
        </extensions>
      </trkpt>
      <trkpt lat="-22.12012083269655704498291015625" lon="166.44163249991834163665771484375">
        <ele>106.1999969482421875</ele>
        <time>2016-08-12T17:34:03.000Z</time>
        <extensions>
          <ns3:TrackPointExtension>
            <ns3:atemp>21.0</ns3:atemp>
            <ns3:hr>115</ns3:hr>
          </ns3:TrackPointExtension>
        </extensions>
      </trkpt>
      <trkpt lat="-22.1201115287840366363525390625" lon="166.44164741970598697662353515625">
        <ele>106.1999969482421875</ele>
        <time>2016-08-12T17:34:04.000Z</time>
        <extensions>
          <ns3:TrackPointExtension>
            <ns3:atemp>21.0</ns3:atemp>
            <ns3:hr>115</ns3:hr>
          </ns3:TrackPointExtension>
        </extensions>
      </trkpt>
      <trkpt lat="-22.12010256014764308929443359375" lon="166.4416612498462200164794921875">
        <ele>106.40000152587890625</ele>
        <time>2016-08-12T17:34:05.000Z</time>
        <extensions>
          <ns3:TrackPointExtension>
            <ns3:atemp>21.0</ns3:atemp>
            <ns3:hr>115</ns3:hr>
          </ns3:TrackPointExtension>
        </extensions>
      </trkpt>
      <trkpt lat="-22.1200951002538204193115234375" lon="166.4416756667196750640869140625">
        <ele>106.59999847412109375</ele>
        <time>2016-08-12T17:34:06.000Z</time>
        <extensions>
          <ns3:TrackPointExtension>
            <ns3:atemp>21.0</ns3:atemp>
            <ns3:hr>115</ns3:hr>
          </ns3:TrackPointExtension>
        </extensions>
      </trkpt>
      <trkpt lat="-22.12008546106517314910888671875" lon="166.4416877366602420806884765625">
        <ele>106.8000030517578125</ele>
        <time>2016-08-12T17:34:07.000Z</time>
        <extensions>
          <ns3:TrackPointExtension>
            <ns3:atemp>21.0</ns3:atemp>
            <ns3:hr>115</ns3:hr>
          </ns3:TrackPointExtension>
        </extensions>
      </trkpt>
      <trkpt lat="-22.120075486600399017333984375" lon="166.4417029917240142822265625">
        <ele>107</ele>
        <time>2016-08-12T17:34:08.000Z</time>
        <extensions>
          <ns3:TrackPointExtension>
            <ns3:atemp>21.0</ns3:atemp>
            <ns3:hr>115</ns3:hr>
          </ns3:TrackPointExtension>
        </extensions>
      </trkpt>
      <trkpt lat="-22.12006735615432262420654296875" lon="166.44171665422618389129638671875">
        <ele>107.1999969482421875</ele>
        <time>2016-08-12T17:34:09.000Z</time>
        <extensions>
          <ns3:TrackPointExtension>
            <ns3:atemp>21.0</ns3:atemp>
            <ns3:hr>115</ns3:hr>
          </ns3:TrackPointExtension>
        </extensions>
      </trkpt>
      <trkpt lat="-22.1200582198798656463623046875" lon="166.4417298138141632080078125">
        <ele>107.1999969482421875</ele>
        <time>2016-08-12T17:34:10.000Z</time>
        <extensions>
          <ns3:TrackPointExtension>
            <ns3:atemp>21.0</ns3:atemp>
            <ns3:hr>113</ns3:hr>
          </ns3:TrackPointExtension>
        </extensions>
      </trkpt>
      <trkpt lat="-22.120051346719264984130859375" lon="166.44174464978277683258056640625">
        <ele>107.40000152587890625</ele>
        <time>2016-08-12T17:34:11.000Z</time>
        <extensions>
          <ns3:TrackPointExtension>
            <ns3:atemp>21.0</ns3:atemp>
            <ns3:hr>113</ns3:hr>
          </ns3:TrackPointExtension>
        </extensions>
      </trkpt>
      <trkpt lat="-22.1200444735586643218994140625" lon="166.441757641732692718505859375">
        <ele>107.59999847412109375</ele>
        <time>2016-08-12T17:34:12.000Z</time>
        <extensions>
          <ns3:TrackPointExtension>
            <ns3:atemp>21.0</ns3:atemp>
            <ns3:hr>114</ns3:hr>
          </ns3:TrackPointExtension>
        </extensions>
      </trkpt>
      <trkpt lat="-22.120037265121936798095703125" lon="166.4417700469493865966796875">
        <ele>107.8000030517578125</ele>
        <time>2016-08-12T17:34:13.000Z</time>
        <extensions>
          <ns3:TrackPointExtension>
            <ns3:atemp>21.0</ns3:atemp>
            <ns3:hr>114</ns3:hr>
          </ns3:TrackPointExtension>
        </extensions>
      </trkpt>
      <trkpt lat="-22.12003047578036785125732421875" lon="166.44178253598511219024658203125">
        <ele>107.8000030517578125</ele>
        <time>2016-08-12T17:34:14.000Z</time>
        <extensions>
          <ns3:TrackPointExtension>
            <ns3:atemp>21.0</ns3:atemp>
            <ns3:hr>114</ns3:hr>
          </ns3:TrackPointExtension>
        </extensions>
      </trkpt>
      <trkpt lat="-22.12002410553395748138427734375" lon="166.44179577939212322235107421875">
        <ele>108</ele>
        <time>2016-08-12T17:34:15.000Z</time>
        <extensions>
          <ns3:TrackPointExtension>
            <ns3:atemp>21.0</ns3:atemp>
            <ns3:hr>114</ns3:hr>
          </ns3:TrackPointExtension>
        </extensions>
      </trkpt>
      <trkpt lat="-22.120017148554325103759765625" lon="166.44181053154170513153076171875">
        <ele>108.1999969482421875</ele>
        <time>2016-08-12T17:34:16.000Z</time>
        <extensions>
          <ns3:TrackPointExtension>
            <ns3:atemp>21.0</ns3:atemp>
            <ns3:hr>114</ns3:hr>
          </ns3:TrackPointExtension>
        </extensions>
      </trkpt>
      <trkpt lat="-22.1200062520802021026611328125" lon="166.44182427786290645599365234375">
        <ele>108.1999969482421875</ele>
        <time>2016-08-12T17:34:17.000Z</time>
        <extensions>
          <ns3:TrackPointExtension>
            <ns3:atemp>21.0</ns3:atemp>
            <ns3:hr>114</ns3:hr>
          </ns3:TrackPointExtension>
        </extensions>
      </trkpt>
      <trkpt lat="-22.11999845691025257110595703125" lon="166.4418352581560611724853515625">
        <ele>108.40000152587890625</ele>
        <time>2016-08-12T17:34:18.000Z</time>
        <extensions>
          <ns3:TrackPointExtension>
            <ns3:atemp>21.0</ns3:atemp>
            <ns3:hr>114</ns3:hr>
          </ns3:TrackPointExtension>
        </extensions>
      </trkpt>
      <trkpt lat="-22.11998906917870044708251953125" lon="166.44184908829629421234130859375">
        <ele>108.40000152587890625</ele>
        <time>2016-08-12T17:34:19.000Z</time>
        <extensions>
          <ns3:TrackPointExtension>
            <ns3:atemp>21.0</ns3:atemp>
            <ns3:hr>114</ns3:hr>
          </ns3:TrackPointExtension>
        </extensions>
      </trkpt>
      <trkpt lat="-22.1199821121990680694580078125" lon="166.4418627507984638214111328125">
        <ele>108.59999847412109375</ele>
        <time>2016-08-12T17:34:20.000Z</time>
        <extensions>
          <ns3:TrackPointExtension>
            <ns3:atemp>21.0</ns3:atemp>
            <ns3:hr>114</ns3:hr>
          </ns3:TrackPointExtension>
        </extensions>
      </trkpt>
      <trkpt lat="-22.11997549049556255340576171875" lon="166.4418744854629039764404296875">
        <ele>108.8000030517578125</ele>
        <time>2016-08-12T17:34:21.000Z</time>
        <extensions>
          <ns3:TrackPointExtension>
            <ns3:atemp>21.0</ns3:atemp>
            <ns3:hr>114</ns3:hr>
          </ns3:TrackPointExtension>
        </extensions>
      </trkpt>
      <trkpt lat="-22.119971215724945068359375" lon="166.441886723041534423828125">
        <ele>109</ele>
        <time>2016-08-12T17:34:22.000Z</time>
        <extensions>
          <ns3:TrackPointExtension>
            <ns3:atemp>21.0</ns3:atemp>
            <ns3:hr>114</ns3:hr>
          </ns3:TrackPointExtension>
        </extensions>
      </trkpt>
      <trkpt lat="-22.1199671924114227294921875" lon="166.4419006370007991790771484375">
        <ele>109.40000152587890625</ele>
        <time>2016-08-12T17:34:23.000Z</time>
        <extensions>
          <ns3:TrackPointExtension>
            <ns3:atemp>21.0</ns3:atemp>
            <ns3:hr>115</ns3:hr>
          </ns3:TrackPointExtension>
        </extensions>
      </trkpt>
      <trkpt lat="-22.1199630014598369598388671875" lon="166.4419157244265079498291015625">
        <ele>109.59999847412109375</ele>
        <time>2016-08-12T17:34:24.000Z</time>
        <extensions>
          <ns3:TrackPointExtension>
            <ns3:atemp>21.0</ns3:atemp>
            <ns3:hr>116</ns3:hr>
          </ns3:TrackPointExtension>
        </extensions>
      </trkpt>
      <trkpt lat="-22.1199623309075832366943359375" lon="166.4419288001954555511474609375">
        <ele>109.8000030517578125</ele>
        <time>2016-08-12T17:34:25.000Z</time>
        <extensions>
          <ns3:TrackPointExtension>
            <ns3:atemp>21.0</ns3:atemp>
            <ns3:hr>116</ns3:hr>
          </ns3:TrackPointExtension>
        </extensions>
      </trkpt>
      <trkpt lat="-22.1199566312134265899658203125" lon="166.44194078631699085235595703125">
        <ele>110.1999969482421875</ele>
        <time>2016-08-12T17:34:26.000Z</time>
        <extensions>
          <ns3:TrackPointExtension>
            <ns3:atemp>21.0</ns3:atemp>
            <ns3:hr>117</ns3:hr>
          </ns3:TrackPointExtension>
        </extensions>
      </trkpt>
      <trkpt lat="-22.119952104985713958740234375" lon="166.44195285625755786895751953125">
        <ele>110.40000152587890625</ele>
        <time>2016-08-12T17:34:27.000Z</time>
        <extensions>
          <ns3:TrackPointExtension>
            <ns3:atemp>21.0</ns3:atemp>
            <ns3:hr>118</ns3:hr>
          </ns3:TrackPointExtension>
        </extensions>
      </trkpt>
      <trkpt lat="-22.11994732730090618133544921875" lon="166.44196509383618831634521484375">
        <ele>110.40000152587890625</ele>
        <time>2016-08-12T17:34:28.000Z</time>
        <extensions>
          <ns3:TrackPointExtension>
            <ns3:atemp>21.0</ns3:atemp>
            <ns3:hr>118</ns3:hr>
          </ns3:TrackPointExtension>
        </extensions>
      </trkpt>
      <trkpt lat="-22.1199412085115909576416015625" lon="166.441977918148040771484375">
        <ele>110.40000152587890625</ele>
        <time>2016-08-12T17:34:29.000Z</time>
        <extensions>
          <ns3:TrackPointExtension>
            <ns3:atemp>21.0</ns3:atemp>
            <ns3:hr>119</ns3:hr>
          </ns3:TrackPointExtension>
        </extensions>
      </trkpt>
      <trkpt lat="-22.11993475444614887237548828125" lon="166.44199007190763950347900390625">
        <ele>110.40000152587890625</ele>
        <time>2016-08-12T17:34:30.000Z</time>
        <extensions>
          <ns3:TrackPointExtension>
            <ns3:atemp>21.0</ns3:atemp>
            <ns3:hr>119</ns3:hr>
          </ns3:TrackPointExtension>
        </extensions>
      </trkpt>
      <trkpt lat="-22.11992855183780193328857421875" lon="166.44200080074369907379150390625">
        <ele>110.59999847412109375</ele>
        <time>2016-08-12T17:34:31.000Z</time>
        <extensions>
          <ns3:TrackPointExtension>
            <ns3:atemp>21.0</ns3:atemp>
            <ns3:hr>119</ns3:hr>
          </ns3:TrackPointExtension>
        </extensions>
      </trkpt>
      <trkpt lat="-22.11992016993463039398193359375" lon="166.44201270304620265960693359375">
        <ele>110.8000030517578125</ele>
        <time>2016-08-12T17:34:32.000Z</time>
        <extensions>
          <ns3:TrackPointExtension>
            <ns3:atemp>21.0</ns3:atemp>
            <ns3:hr>119</ns3:hr>
          </ns3:TrackPointExtension>
        </extensions>
      </trkpt>
      <trkpt lat="-22.11991229094564914703369140625" lon="166.44202418625354766845703125">
        <ele>110.8000030517578125</ele>
        <time>2016-08-12T17:34:33.000Z</time>
        <extensions>
          <ns3:TrackPointExtension>
            <ns3:atemp>21.0</ns3:atemp>
            <ns3:hr>119</ns3:hr>
          </ns3:TrackPointExtension>
        </extensions>
      </trkpt>
      <trkpt lat="-22.11990474723279476165771484375" lon="166.44203684292733669281005859375">
        <ele>111</ele>
        <time>2016-08-12T17:34:34.000Z</time>
        <extensions>
          <ns3:TrackPointExtension>
            <ns3:atemp>21.0</ns3:atemp>
            <ns3:hr>119</ns3:hr>
          </ns3:TrackPointExtension>
        </extensions>
      </trkpt>
      <trkpt lat="-22.11989753879606723785400390625" lon="166.44205226562917232513427734375">
        <ele>111.1999969482421875</ele>
        <time>2016-08-12T17:34:35.000Z</time>
        <extensions>
          <ns3:TrackPointExtension>
            <ns3:atemp>21.0</ns3:atemp>
            <ns3:hr>119</ns3:hr>
          </ns3:TrackPointExtension>
        </extensions>
      </trkpt>
      <trkpt lat="-22.119890749454498291015625" lon="166.442065425217151641845703125">
        <ele>111.40000152587890625</ele>
        <time>2016-08-12T17:34:36.000Z</time>
        <extensions>
          <ns3:TrackPointExtension>
            <ns3:atemp>21.0</ns3:atemp>
            <ns3:hr>119</ns3:hr>
          </ns3:TrackPointExtension>
        </extensions>
      </trkpt>
      <trkpt lat="-22.11988429538905620574951171875" lon="166.4420773275196552276611328125">
        <ele>111.59999847412109375</ele>
        <time>2016-08-12T17:34:37.000Z</time>
        <extensions>
          <ns3:TrackPointExtension>
            <ns3:atemp>21.0</ns3:atemp>
            <ns3:hr>119</ns3:hr>
          </ns3:TrackPointExtension>
        </extensions>
      </trkpt>
      <trkpt lat="-22.119879014790058135986328125" lon="166.44209031946957111358642578125">
        <ele>112</ele>
        <time>2016-08-12T17:34:38.000Z</time>
        <extensions>
          <ns3:TrackPointExtension>
            <ns3:atemp>21.0</ns3:atemp>
            <ns3:hr>119</ns3:hr>
          </ns3:TrackPointExtension>
        </extensions>
      </trkpt>
      <trkpt lat="-22.1198733150959014892578125" lon="166.44210406579077243804931640625">
        <ele>112.1999969482421875</ele>
        <time>2016-08-12T17:34:39.000Z</time>
        <extensions>
          <ns3:TrackPointExtension>
            <ns3:atemp>21.0</ns3:atemp>
            <ns3:hr>120</ns3:hr>
          </ns3:TrackPointExtension>
        </extensions>
      </trkpt>
      <trkpt lat="-22.11986887268722057342529296875" lon="166.4421175606548786163330078125">
        <ele>112.40000152587890625</ele>
        <time>2016-08-12T17:34:40.000Z</time>
        <extensions>
          <ns3:TrackPointExtension>
            <ns3:atemp>21.0</ns3:atemp>
            <ns3:hr>120</ns3:hr>
          </ns3:TrackPointExtension>
        </extensions>
      </trkpt>
      <trkpt lat="-22.1198647655546665191650390625" lon="166.44213055260479450225830078125">
        <ele>112.8000030517578125</ele>
        <time>2016-08-12T17:34:41.000Z</time>
        <extensions>
          <ns3:TrackPointExtension>
            <ns3:atemp>21.0</ns3:atemp>
            <ns3:hr>121</ns3:hr>
          </ns3:TrackPointExtension>
        </extensions>
      </trkpt>
      <trkpt lat="-22.119857557117938995361328125" lon="166.44214622676372528076171875">
        <ele>113</ele>
        <time>2016-08-12T17:34:42.000Z</time>
        <extensions>
          <ns3:TrackPointExtension>
            <ns3:atemp>21.0</ns3:atemp>
            <ns3:hr>122</ns3:hr>
          </ns3:TrackPointExtension>
        </extensions>
      </trkpt>
      <trkpt lat="-22.11985118687152862548828125" lon="166.44215955398976802825927734375">
        <ele>113.1999969482421875</ele>
        <time>2016-08-12T17:34:43.000Z</time>
        <extensions>
          <ns3:TrackPointExtension>
            <ns3:atemp>21.0</ns3:atemp>
            <ns3:hr>122</ns3:hr>
          </ns3:TrackPointExtension>
        </extensions>
      </trkpt>
      <trkpt lat="-22.1198459900915622711181640625" lon="166.44217212684452533721923828125">
        <ele>113.1999969482421875</ele>
        <time>2016-08-12T17:34:44.000Z</time>
        <extensions>
          <ns3:TrackPointExtension>
            <ns3:atemp>21.0</ns3:atemp>
            <ns3:hr>122</ns3:hr>
          </ns3:TrackPointExtension>
        </extensions>
      </trkpt>
      <trkpt lat="-22.11983920074999332427978515625" lon="166.442184112966060638427734375">
        <ele>113.40000152587890625</ele>
        <time>2016-08-12T17:34:45.000Z</time>
        <extensions>
          <ns3:TrackPointExtension>
            <ns3:atemp>21.0</ns3:atemp>
            <ns3:hr>122</ns3:hr>
          </ns3:TrackPointExtension>
        </extensions>
      </trkpt>
      <trkpt lat="-22.11983165703713893890380859375" lon="166.44219324924051761627197265625">
        <ele>113.40000152587890625</ele>
        <time>2016-08-12T17:34:46.000Z</time>
        <extensions>
          <ns3:TrackPointExtension>
            <ns3:atemp>21.0</ns3:atemp>
            <ns3:hr>122</ns3:hr>
          </ns3:TrackPointExtension>
        </extensions>
      </trkpt>
      <trkpt lat="-22.1198248676955699920654296875" lon="166.44220716319978237152099609375">
        <ele>113.8000030517578125</ele>
        <time>2016-08-12T17:34:47.000Z</time>
        <extensions>
          <ns3:TrackPointExtension>
            <ns3:atemp>21.0</ns3:atemp>
            <ns3:hr>122</ns3:hr>
          </ns3:TrackPointExtension>
        </extensions>
      </trkpt>
      <trkpt lat="-22.11981556378304958343505859375" lon="166.4422206580638885498046875">
        <ele>114</ele>
        <time>2016-08-12T17:34:48.000Z</time>
        <extensions>
          <ns3:TrackPointExtension>
            <ns3:atemp>21.0</ns3:atemp>
            <ns3:hr>123</ns3:hr>
          </ns3:TrackPointExtension>
        </extensions>
      </trkpt>
      <trkpt lat="-22.11980500258505344390869140625" lon="166.44223381765186786651611328125">
        <ele>114.40000152587890625</ele>
        <time>2016-08-12T17:34:49.000Z</time>
        <extensions>
          <ns3:TrackPointExtension>
            <ns3:atemp>21.0</ns3:atemp>
            <ns3:hr>123</ns3:hr>
          </ns3:TrackPointExtension>
        </extensions>
      </trkpt>
      <trkpt lat="-22.11979595012962818145751953125" lon="166.44224789924919605255126953125">
        <ele>114.40000152587890625</ele>
        <time>2016-08-12T17:34:50.000Z</time>
        <extensions>
          <ns3:TrackPointExtension>
            <ns3:atemp>21.0</ns3:atemp>
            <ns3:hr>123</ns3:hr>
          </ns3:TrackPointExtension>
        </extensions>
      </trkpt>
      <trkpt lat="-22.119791172444820404052734375" lon="166.442262567579746246337890625">
        <ele>114.8000030517578125</ele>
        <time>2016-08-12T17:34:51.000Z</time>
        <extensions>
          <ns3:TrackPointExtension>
            <ns3:atemp>21.0</ns3:atemp>
            <ns3:hr>124</ns3:hr>
          </ns3:TrackPointExtension>
        </extensions>
      </trkpt>
      <trkpt lat="-22.1197873167693614959716796875" lon="166.44227874465286731719970703125">
        <ele>115</ele>
        <time>2016-08-12T17:34:52.000Z</time>
        <extensions>
          <ns3:TrackPointExtension>
            <ns3:atemp>21.0</ns3:atemp>
            <ns3:hr>124</ns3:hr>
          </ns3:TrackPointExtension>
        </extensions>
      </trkpt>
      <trkpt lat="-22.11978522129356861114501953125" lon="166.4422898925840854644775390625">
        <ele>115.1999969482421875</ele>
        <time>2016-08-12T17:34:53.000Z</time>
        <extensions>
          <ns3:TrackPointExtension>
            <ns3:atemp>21.0</ns3:atemp>
            <ns3:hr>124</ns3:hr>
          </ns3:TrackPointExtension>
        </extensions>
      </trkpt>
      <trkpt lat="-22.119781784713268280029296875" lon="166.442301459610462188720703125">
        <ele>115.40000152587890625</ele>
        <time>2016-08-12T17:34:54.000Z</time>
        <extensions>
          <ns3:TrackPointExtension>
            <ns3:atemp>21.0</ns3:atemp>
            <ns3:hr>124</ns3:hr>
          </ns3:TrackPointExtension>
        </extensions>
      </trkpt>
      <trkpt lat="-22.119778096675872802734375" lon="166.44231562502682209014892578125">
        <ele>115.59999847412109375</ele>
        <time>2016-08-12T17:34:55.000Z</time>
        <extensions>
          <ns3:TrackPointExtension>
            <ns3:atemp>21.0</ns3:atemp>
            <ns3:hr>124</ns3:hr>
          </ns3:TrackPointExtension>
        </extensions>
      </trkpt>
      <trkpt lat="-22.11977340281009674072265625" lon="166.44233121536672115325927734375">
        <ele>115.59999847412109375</ele>
        <time>2016-08-12T17:34:56.000Z</time>
        <extensions>
          <ns3:TrackPointExtension>
            <ns3:atemp>21.0</ns3:atemp>
            <ns3:hr>124</ns3:hr>
          </ns3:TrackPointExtension>
        </extensions>
      </trkpt>
      <trkpt lat="-22.11977113969624042510986328125" lon="166.4423458836972713470458984375">
        <ele>115.8000030517578125</ele>
        <time>2016-08-12T17:34:57.000Z</time>
        <extensions>
          <ns3:TrackPointExtension>
            <ns3:atemp>21.0</ns3:atemp>
            <ns3:hr>124</ns3:hr>
          </ns3:TrackPointExtension>
        </extensions>
      </trkpt>
      <trkpt lat="-22.119767032563686370849609375" lon="166.44236206077039241790771484375">
        <ele>116</ele>
        <time>2016-08-12T17:34:58.000Z</time>
        <extensions>
          <ns3:TrackPointExtension>
            <ns3:atemp>21.0</ns3:atemp>
            <ns3:hr>124</ns3:hr>
          </ns3:TrackPointExtension>
        </extensions>
      </trkpt>
      <trkpt lat="-22.11976460181176662445068359375" lon="166.44237597472965717315673828125">
        <ele>116.40000152587890625</ele>
        <time>2016-08-12T17:34:59.000Z</time>
        <extensions>
          <ns3:TrackPointExtension>
            <ns3:atemp>21.0</ns3:atemp>
            <ns3:hr>125</ns3:hr>
          </ns3:TrackPointExtension>
        </extensions>
      </trkpt>
      <trkpt lat="-22.1197645179927349090576171875" lon="166.4423898048698902130126953125">
        <ele>116.59999847412109375</ele>
        <time>2016-08-12T17:35:00.000Z</time>
        <extensions>
          <ns3:TrackPointExtension>
            <ns3:atemp>21.0</ns3:atemp>
            <ns3:hr>125</ns3:hr>
          </ns3:TrackPointExtension>
        </extensions>
      </trkpt>
      <trkpt lat="-22.11976468563079833984375" lon="166.44240397028625011444091796875">
        <ele>116.59999847412109375</ele>
        <time>2016-08-12T17:35:01.000Z</time>
        <extensions>
          <ns3:TrackPointExtension>
            <ns3:atemp>21.0</ns3:atemp>
            <ns3:hr>125</ns3:hr>
          </ns3:TrackPointExtension>
        </extensions>
      </trkpt>
      <trkpt lat="-22.11976267397403717041015625" lon="166.44241788424551486968994140625">
        <ele>116.8000030517578125</ele>
        <time>2016-08-12T17:35:02.000Z</time>
        <extensions>
          <ns3:TrackPointExtension>
            <ns3:atemp>21.0</ns3:atemp>
            <ns3:hr>125</ns3:hr>
          </ns3:TrackPointExtension>
        </extensions>
      </trkpt>
      <trkpt lat="-22.119760997593402862548828125" lon="166.44243582151830196380615234375">
        <ele>117</ele>
        <time>2016-08-12T17:35:03.000Z</time>
        <extensions>
          <ns3:TrackPointExtension>
            <ns3:atemp>21.0</ns3:atemp>
            <ns3:hr>125</ns3:hr>
          </ns3:TrackPointExtension>
        </extensions>
      </trkpt>
      <trkpt lat="-22.11976024322211742401123046875" lon="166.442453004419803619384765625">
        <ele>117</ele>
        <time>2016-08-12T17:35:04.000Z</time>
        <extensions>
          <ns3:TrackPointExtension>
            <ns3:atemp>21.0</ns3:atemp>
            <ns3:hr>125</ns3:hr>
          </ns3:TrackPointExtension>
        </extensions>
      </trkpt>
      <trkpt lat="-22.11976091377437114715576171875" lon="166.4424645714461803436279296875">
        <ele>117.1999969482421875</ele>
        <time>2016-08-12T17:35:05.000Z</time>
        <extensions>
          <ns3:TrackPointExtension>
            <ns3:atemp>21.0</ns3:atemp>
            <ns3:hr>125</ns3:hr>
          </ns3:TrackPointExtension>
        </extensions>
      </trkpt>
      <trkpt lat="-22.11976259015500545501708984375" lon="166.442474462091922760009765625">
        <ele>117.59999847412109375</ele>
        <time>2016-08-12T17:35:06.000Z</time>
        <extensions>
          <ns3:TrackPointExtension>
            <ns3:atemp>21.0</ns3:atemp>
            <ns3:hr>125</ns3:hr>
          </ns3:TrackPointExtension>
        </extensions>
      </trkpt>
      <trkpt lat="-22.1197631768882274627685546875" lon="166.4424856938421726226806640625">
        <ele>117.8000030517578125</ele>
        <time>2016-08-12T17:35:07.000Z</time>
        <extensions>
          <ns3:TrackPointExtension>
            <ns3:atemp>21.0</ns3:atemp>
            <ns3:hr>125</ns3:hr>
          </ns3:TrackPointExtension>
        </extensions>
      </trkpt>
      <trkpt lat="-22.1197631768882274627685546875" lon="166.44249784760177135467529296875">
        <ele>118</ele>
        <time>2016-08-12T17:35:08.000Z</time>
        <extensions>
          <ns3:TrackPointExtension>
            <ns3:atemp>21.0</ns3:atemp>
            <ns3:hr>125</ns3:hr>
          </ns3:TrackPointExtension>
        </extensions>
      </trkpt>
      <trkpt lat="-22.119762338697910308837890625" lon="166.4425118453800678253173828125">
        <ele>118.1999969482421875</ele>
        <time>2016-08-12T17:35:09.000Z</time>
        <extensions>
          <ns3:TrackPointExtension>
            <ns3:atemp>21.0</ns3:atemp>
            <ns3:hr>125</ns3:hr>
          </ns3:TrackPointExtension>
        </extensions>
      </trkpt>
      <trkpt lat="-22.1197661943733692169189453125" lon="166.44252751953899860382080078125">
        <ele>118.40000152587890625</ele>
        <time>2016-08-12T17:35:10.000Z</time>
        <extensions>
          <ns3:TrackPointExtension>
            <ns3:atemp>21.0</ns3:atemp>
            <ns3:hr>125</ns3:hr>
          </ns3:TrackPointExtension>
        </extensions>
      </trkpt>
      <trkpt lat="-22.11976761929690837860107421875" lon="166.4425425231456756591796875">
        <ele>118.59999847412109375</ele>
        <time>2016-08-12T17:35:11.000Z</time>
        <extensions>
          <ns3:TrackPointExtension>
            <ns3:atemp>21.0</ns3:atemp>
            <ns3:hr>125</ns3:hr>
          </ns3:TrackPointExtension>
        </extensions>
      </trkpt>
      <trkpt lat="-22.11977030150592327117919921875" lon="166.4425557665526866912841796875">
        <ele>118.8000030517578125</ele>
        <time>2016-08-12T17:35:12.000Z</time>
        <extensions>
          <ns3:TrackPointExtension>
            <ns3:atemp>21.0</ns3:atemp>
            <ns3:hr>125</ns3:hr>
          </ns3:TrackPointExtension>
        </extensions>
      </trkpt>
      <trkpt lat="-22.119772396981716156005859375" lon="166.4425685070455074310302734375">
        <ele>119</ele>
        <time>2016-08-12T17:35:13.000Z</time>
        <extensions>
          <ns3:TrackPointExtension>
            <ns3:atemp>21.0</ns3:atemp>
            <ns3:hr>125</ns3:hr>
          </ns3:TrackPointExtension>
        </extensions>
      </trkpt>
      <trkpt lat="-22.1197705529630184173583984375" lon="166.44258200190961360931396484375">
        <ele>119.1999969482421875</ele>
        <time>2016-08-12T17:35:14.000Z</time>
        <extensions>
          <ns3:TrackPointExtension>
            <ns3:atemp>21.0</ns3:atemp>
            <ns3:hr>124</ns3:hr>
          </ns3:TrackPointExtension>
        </extensions>
      </trkpt>
      <trkpt lat="-22.11976946331560611724853515625" lon="166.442595832049846649169921875">
        <ele>119.40000152587890625</ele>
        <time>2016-08-12T17:35:15.000Z</time>
        <extensions>
          <ns3:TrackPointExtension>
            <ns3:atemp>21.0</ns3:atemp>
            <ns3:hr>124</ns3:hr>
          </ns3:TrackPointExtension>
        </extensions>
      </trkpt>
      <trkpt lat="-22.1197695471346378326416015625" lon="166.442605219781398773193359375">
        <ele>119.59999847412109375</ele>
        <time>2016-08-12T17:35:16.000Z</time>
        <extensions>
          <ns3:TrackPointExtension>
            <ns3:atemp>21.0</ns3:atemp>
            <ns3:hr>124</ns3:hr>
          </ns3:TrackPointExtension>
        </extensions>
      </trkpt>
      <trkpt lat="-22.11976795457303524017333984375" lon="166.44261938519775867462158203125">
        <ele>119.8000030517578125</ele>
        <time>2016-08-12T17:35:17.000Z</time>
        <extensions>
          <ns3:TrackPointExtension>
            <ns3:atemp>21.0</ns3:atemp>
            <ns3:hr>124</ns3:hr>
          </ns3:TrackPointExtension>
        </extensions>
      </trkpt>
      <trkpt lat="-22.1197682060301303863525390625" lon="166.44263464026153087615966796875">
        <ele>120.1999969482421875</ele>
        <time>2016-08-12T17:35:18.000Z</time>
        <extensions>
          <ns3:TrackPointExtension>
            <ns3:atemp>21.0</ns3:atemp>
            <ns3:hr>124</ns3:hr>
          </ns3:TrackPointExtension>
        </extensions>
      </trkpt>
      <trkpt lat="-22.11976929567754268646240234375" lon="166.44264788366854190826416015625">
        <ele>120.40000152587890625</ele>
        <time>2016-08-12T17:35:19.000Z</time>
        <extensions>
          <ns3:TrackPointExtension>
            <ns3:atemp>21.0</ns3:atemp>
            <ns3:hr>124</ns3:hr>
          </ns3:TrackPointExtension>
        </extensions>
      </trkpt>
      <trkpt lat="-22.1197705529630184173583984375" lon="166.44266079179942607879638671875">
        <ele>120.59999847412109375</ele>
        <time>2016-08-12T17:35:20.000Z</time>
        <extensions>
          <ns3:TrackPointExtension>
            <ns3:atemp>21.0</ns3:atemp>
            <ns3:hr>124</ns3:hr>
          </ns3:TrackPointExtension>
        </extensions>
      </trkpt>
      <trkpt lat="-22.1197728998959064483642578125" lon="166.4426734484732151031494140625">
        <ele>120.8000030517578125</ele>
        <time>2016-08-12T17:35:21.000Z</time>
        <extensions>
          <ns3:TrackPointExtension>
            <ns3:atemp>21.0</ns3:atemp>
            <ns3:hr>124</ns3:hr>
          </ns3:TrackPointExtension>
        </extensions>
      </trkpt>
      <trkpt lat="-22.11977231316268444061279296875" lon="166.44268727861344814300537109375">
        <ele>121</ele>
        <time>2016-08-12T17:35:22.000Z</time>
        <extensions>
          <ns3:TrackPointExtension>
            <ns3:atemp>21.0</ns3:atemp>
            <ns3:hr>124</ns3:hr>
          </ns3:TrackPointExtension>
        </extensions>
      </trkpt>
      <trkpt lat="-22.1197708882391452789306640625" lon="166.442702114582061767578125">
        <ele>121.1999969482421875</ele>
        <time>2016-08-12T17:35:23.000Z</time>
        <extensions>
          <ns3:TrackPointExtension>
            <ns3:atemp>21.0</ns3:atemp>
            <ns3:hr>124</ns3:hr>
          </ns3:TrackPointExtension>
        </extensions>
      </trkpt>
      <trkpt lat="-22.119771055877208709716796875" lon="166.44271460361778736114501953125">
        <ele>121.40000152587890625</ele>
        <time>2016-08-12T17:35:24.000Z</time>
        <extensions>
          <ns3:TrackPointExtension>
            <ns3:atemp>21.0</ns3:atemp>
            <ns3:hr>126</ns3:hr>
          </ns3:TrackPointExtension>
        </extensions>
      </trkpt>
      <trkpt lat="-22.11977206170558929443359375" lon="166.44272767938673496246337890625">
        <ele>121.59999847412109375</ele>
        <time>2016-08-12T17:35:25.000Z</time>
        <extensions>
          <ns3:TrackPointExtension>
            <ns3:atemp>21.0</ns3:atemp>
            <ns3:hr>126</ns3:hr>
          </ns3:TrackPointExtension>
        </extensions>
      </trkpt>
      <trkpt lat="-22.11977197788655757904052734375" lon="166.4427410066127777099609375">
        <ele>122</ele>
        <time>2016-08-12T17:35:26.000Z</time>
        <extensions>
          <ns3:TrackPointExtension>
            <ns3:atemp>21.0</ns3:atemp>
            <ns3:hr>126</ns3:hr>
          </ns3:TrackPointExtension>
        </extensions>
      </trkpt>
      <trkpt lat="-22.11977533064782619476318359375" lon="166.442754082381725311279296875">
        <ele>122.1999969482421875</ele>
        <time>2016-08-12T17:35:27.000Z</time>
        <extensions>
          <ns3:TrackPointExtension>
            <ns3:atemp>21.0</ns3:atemp>
            <ns3:hr>126</ns3:hr>
          </ns3:TrackPointExtension>
        </extensions>
      </trkpt>
      <trkpt lat="-22.119775749742984771728515625" lon="166.4427693374454975128173828125">
        <ele>122.40000152587890625</ele>
        <time>2016-08-12T17:35:28.000Z</time>
        <extensions>
          <ns3:TrackPointExtension>
            <ns3:atemp>21.0</ns3:atemp>
            <ns3:hr>126</ns3:hr>
          </ns3:TrackPointExtension>
        </extensions>
      </trkpt>
      <trkpt lat="-22.1197796054184436798095703125" lon="166.44278735853731632232666015625">
        <ele>122.59999847412109375</ele>
        <time>2016-08-12T17:35:29.000Z</time>
        <extensions>
          <ns3:TrackPointExtension>
            <ns3:atemp>21.0</ns3:atemp>
            <ns3:hr>126</ns3:hr>
          </ns3:TrackPointExtension>
        </extensions>
      </trkpt>
      <trkpt lat="-22.11978555656969547271728515625" lon="166.442803703248500823974609375">
        <ele>122.8000030517578125</ele>
        <time>2016-08-12T17:35:30.000Z</time>
        <extensions>
          <ns3:TrackPointExtension>
            <ns3:atemp>21.0</ns3:atemp>
            <ns3:hr>126</ns3:hr>
          </ns3:TrackPointExtension>
        </extensions>
      </trkpt>
      <trkpt lat="-22.11978941224515438079833984375" lon="166.44281820394098758697509765625">
        <ele>123</ele>
        <time>2016-08-12T17:35:31.000Z</time>
        <extensions>
          <ns3:TrackPointExtension>
            <ns3:atemp>21.0</ns3:atemp>
            <ns3:hr>126</ns3:hr>
          </ns3:TrackPointExtension>
        </extensions>
      </trkpt>
      <trkpt lat="-22.11979343555867671966552734375" lon="166.44283127970993518829345703125">
        <ele>123.40000152587890625</ele>
        <time>2016-08-12T17:35:32.000Z</time>
        <extensions>
          <ns3:TrackPointExtension>
            <ns3:atemp>21.0</ns3:atemp>
            <ns3:hr>126</ns3:hr>
          </ns3:TrackPointExtension>
        </extensions>
      </trkpt>
      <trkpt lat="-22.11980835534632205963134765625" lon="166.44285893999040126800537109375">
        <ele>123.59999847412109375</ele>
        <time>2016-08-12T17:35:34.000Z</time>
        <extensions>
          <ns3:TrackPointExtension>
            <ns3:atemp>21.0</ns3:atemp>
            <ns3:hr>126</ns3:hr>
          </ns3:TrackPointExtension>
        </extensions>
      </trkpt>
      <trkpt lat="-22.11981388740241527557373046875" lon="166.44287352450191974639892578125">
        <ele>123.59999847412109375</ele>
        <time>2016-08-12T17:35:35.000Z</time>
        <extensions>
          <ns3:TrackPointExtension>
            <ns3:atemp>21.0</ns3:atemp>
            <ns3:hr>126</ns3:hr>
          </ns3:TrackPointExtension>
        </extensions>
      </trkpt>
      <trkpt lat="-22.11981832981109619140625" lon="166.44288743846118450164794921875">
        <ele>124</ele>
        <time>2016-08-12T17:35:36.000Z</time>
        <extensions>
          <ns3:TrackPointExtension>
            <ns3:atemp>21.0</ns3:atemp>
            <ns3:hr>126</ns3:hr>
          </ns3:TrackPointExtension>
        </extensions>
      </trkpt>
      <trkpt lat="-22.11982260458171367645263671875" lon="166.44290034659206867218017578125">
        <ele>124.40000152587890625</ele>
        <time>2016-08-12T17:35:37.000Z</time>
        <extensions>
          <ns3:TrackPointExtension>
            <ns3:atemp>21.0</ns3:atemp>
            <ns3:hr>126</ns3:hr>
          </ns3:TrackPointExtension>
        </extensions>
      </trkpt>
      <trkpt lat="-22.11982696317136287689208984375" lon="166.4429151825606822967529296875">
        <ele>124.59999847412109375</ele>
        <time>2016-08-12T17:35:38.000Z</time>
        <extensions>
          <ns3:TrackPointExtension>
            <ns3:atemp>21.0</ns3:atemp>
            <ns3:hr>126</ns3:hr>
          </ns3:TrackPointExtension>
        </extensions>
      </trkpt>
      <trkpt lat="-22.11983148939907550811767578125" lon="166.44292934797704219818115234375">
        <ele>124.8000030517578125</ele>
        <time>2016-08-12T17:35:39.000Z</time>
        <extensions>
          <ns3:TrackPointExtension>
            <ns3:atemp>21.0</ns3:atemp>
            <ns3:hr>126</ns3:hr>
          </ns3:TrackPointExtension>
        </extensions>
      </trkpt>
      <trkpt lat="-22.119835428893566131591796875" lon="166.44294326193630695343017578125">
        <ele>125</ele>
        <time>2016-08-12T17:35:40.000Z</time>
        <extensions>
          <ns3:TrackPointExtension>
            <ns3:atemp>21.0</ns3:atemp>
            <ns3:hr>126</ns3:hr>
          </ns3:TrackPointExtension>
        </extensions>
      </trkpt>
      <trkpt lat="-22.11984179913997650146484375" lon="166.4429560862481594085693359375">
        <ele>125.1999969482421875</ele>
        <time>2016-08-12T17:35:41.000Z</time>
        <extensions>
          <ns3:TrackPointExtension>
            <ns3:atemp>21.0</ns3:atemp>
            <ns3:hr>126</ns3:hr>
          </ns3:TrackPointExtension>
        </extensions>
      </trkpt>
      <trkpt lat="-22.1198473311960697174072265625" lon="166.44296773709356784820556640625">
        <ele>125.40000152587890625</ele>
        <time>2016-08-12T17:35:42.000Z</time>
        <extensions>
          <ns3:TrackPointExtension>
            <ns3:atemp>21.0</ns3:atemp>
            <ns3:hr>126</ns3:hr>
          </ns3:TrackPointExtension>
        </extensions>
      </trkpt>
      <trkpt lat="-22.119852192699909210205078125" lon="166.44298030994832515716552734375">
        <ele>125.8000030517578125</ele>
        <time>2016-08-12T17:35:43.000Z</time>
        <extensions>
          <ns3:TrackPointExtension>
            <ns3:atemp>21.0</ns3:atemp>
            <ns3:hr>126</ns3:hr>
          </ns3:TrackPointExtension>
        </extensions>
      </trkpt>
      <trkpt lat="-22.11985361762344837188720703125" lon="166.44299514591693878173828125">
        <ele>125.8000030517578125</ele>
        <time>2016-08-12T17:35:44.000Z</time>
        <extensions>
          <ns3:TrackPointExtension>
            <ns3:atemp>21.0</ns3:atemp>
            <ns3:hr>129</ns3:hr>
          </ns3:TrackPointExtension>
        </extensions>
      </trkpt>
      <trkpt lat="-22.11985294707119464874267578125" lon="166.44300931133329868316650390625">
        <ele>126</ele>
        <time>2016-08-12T17:35:45.000Z</time>
        <extensions>
          <ns3:TrackPointExtension>
            <ns3:atemp>21.0</ns3:atemp>
            <ns3:hr>129</ns3:hr>
          </ns3:TrackPointExtension>
        </extensions>
      </trkpt>
      <trkpt lat="-22.119852192699909210205078125" lon="166.4430231414735317230224609375">
        <ele>126.1999969482421875</ele>
        <time>2016-08-12T17:35:46.000Z</time>
        <extensions>
          <ns3:TrackPointExtension>
            <ns3:atemp>21.0</ns3:atemp>
            <ns3:hr>129</ns3:hr>
          </ns3:TrackPointExtension>
        </extensions>
      </trkpt>
      <trkpt lat="-22.11985160596668720245361328125" lon="166.44303713925182819366455078125">
        <ele>126.40000152587890625</ele>
        <time>2016-08-12T17:35:47.000Z</time>
        <extensions>
          <ns3:TrackPointExtension>
            <ns3:atemp>21.0</ns3:atemp>
            <ns3:hr>129</ns3:hr>
          </ns3:TrackPointExtension>
        </extensions>
      </trkpt>
      <trkpt lat="-22.1198503486812114715576171875" lon="166.44305138848721981048583984375">
        <ele>126.59999847412109375</ele>
        <time>2016-08-12T17:35:48.000Z</time>
        <extensions>
          <ns3:TrackPointExtension>
            <ns3:atemp>21.0</ns3:atemp>
            <ns3:hr>128</ns3:hr>
          </ns3:TrackPointExtension>
        </extensions>
      </trkpt>
      <trkpt lat="-22.1198466606438159942626953125" lon="166.44306630827486515045166015625">
        <ele>126.8000030517578125</ele>
        <time>2016-08-12T17:35:49.000Z</time>
        <extensions>
          <ns3:TrackPointExtension>
            <ns3:atemp>21.0</ns3:atemp>
            <ns3:hr>128</ns3:hr>
          </ns3:TrackPointExtension>
        </extensions>
      </trkpt>
      <trkpt lat="-22.11984582245349884033203125" lon="166.44308030605316162109375">
        <ele>127</ele>
        <time>2016-08-12T17:35:50.000Z</time>
        <extensions>
          <ns3:TrackPointExtension>
            <ns3:atemp>21.0</ns3:atemp>
            <ns3:hr>128</ns3:hr>
          </ns3:TrackPointExtension>
        </extensions>
      </trkpt>
      <trkpt lat="-22.11984942667186260223388671875" lon="166.44309447146952152252197265625">
        <ele>127</ele>
        <time>2016-08-12T17:35:51.000Z</time>
        <extensions>
          <ns3:TrackPointExtension>
            <ns3:atemp>21.0</ns3:atemp>
            <ns3:hr>128</ns3:hr>
          </ns3:TrackPointExtension>
        </extensions>
      </trkpt>
      <trkpt lat="-22.11985009722411632537841796875" lon="166.4431113190948963165283203125">
        <ele>127.1999969482421875</ele>
        <time>2016-08-12T17:35:52.000Z</time>
        <extensions>
          <ns3:TrackPointExtension>
            <ns3:atemp>21.0</ns3:atemp>
            <ns3:hr>128</ns3:hr>
          </ns3:TrackPointExtension>
        </extensions>
      </trkpt>
      <trkpt lat="-22.1198513545095920562744140625" lon="166.4431280829012393951416015625">
        <ele>127.40000152587890625</ele>
        <time>2016-08-12T17:35:53.000Z</time>
        <extensions>
          <ns3:TrackPointExtension>
            <ns3:atemp>21.0</ns3:atemp>
            <ns3:hr>128</ns3:hr>
          </ns3:TrackPointExtension>
        </extensions>
      </trkpt>
      <trkpt lat="-22.1198500134050846099853515625" lon="166.44314476288855075836181640625">
        <ele>127.40000152587890625</ele>
        <time>2016-08-12T17:35:54.000Z</time>
        <extensions>
          <ns3:TrackPointExtension>
            <ns3:atemp>21.0</ns3:atemp>
            <ns3:hr>128</ns3:hr>
          </ns3:TrackPointExtension>
        </extensions>
      </trkpt>
      <trkpt lat="-22.11984825320541858673095703125" lon="166.44315850920975208282470703125">
        <ele>127.59999847412109375</ele>
        <time>2016-08-12T17:35:55.000Z</time>
        <extensions>
          <ns3:TrackPointExtension>
            <ns3:atemp>21.0</ns3:atemp>
            <ns3:hr>128</ns3:hr>
          </ns3:TrackPointExtension>
        </extensions>
      </trkpt>
      <trkpt lat="-22.1198476664721965789794921875" lon="166.443171165883541107177734375">
        <ele>127.8000030517578125</ele>
        <time>2016-08-12T17:35:56.000Z</time>
        <extensions>
          <ns3:TrackPointExtension>
            <ns3:atemp>21.0</ns3:atemp>
            <ns3:hr>128</ns3:hr>
          </ns3:TrackPointExtension>
        </extensions>
      </trkpt>
      <trkpt lat="-22.11984808556735515594482421875" lon="166.44318382255733013153076171875">
        <ele>128.1999969482421875</ele>
        <time>2016-08-12T17:35:57.000Z</time>
        <extensions>
          <ns3:TrackPointExtension>
            <ns3:atemp>21.0</ns3:atemp>
            <ns3:hr>128</ns3:hr>
          </ns3:TrackPointExtension>
        </extensions>
      </trkpt>
      <trkpt lat="-22.11984691210091114044189453125" lon="166.4431968145072460174560546875">
        <ele>128.1999969482421875</ele>
        <time>2016-08-12T17:35:58.000Z</time>
        <extensions>
          <ns3:TrackPointExtension>
            <ns3:atemp>21.0</ns3:atemp>
            <ns3:hr>128</ns3:hr>
          </ns3:TrackPointExtension>
        </extensions>
      </trkpt>
      <trkpt lat="-22.1198419667780399322509765625" lon="166.44321181811392307281494140625">
        <ele>128.399993896484375</ele>
        <time>2016-08-12T17:35:59.000Z</time>
        <extensions>
          <ns3:TrackPointExtension>
            <ns3:atemp>21.0</ns3:atemp>
            <ns3:hr>128</ns3:hr>
          </ns3:TrackPointExtension>
        </extensions>
      </trkpt>
      <trkpt lat="-22.11983802728354930877685546875" lon="166.4432279951870441436767578125">
        <ele>128.600006103515625</ele>
        <time>2016-08-12T17:36:00.000Z</time>
        <extensions>
          <ns3:TrackPointExtension>
            <ns3:atemp>21.0</ns3:atemp>
            <ns3:hr>128</ns3:hr>
          </ns3:TrackPointExtension>
        </extensions>
      </trkpt>
      <trkpt lat="-22.11983375251293182373046875" lon="166.443241573870182037353515625">
        <ele>128.8000030517578125</ele>
        <time>2016-08-12T17:36:01.000Z</time>
        <extensions>
          <ns3:TrackPointExtension>
            <ns3:atemp>21.0</ns3:atemp>
            <ns3:hr>128</ns3:hr>
          </ns3:TrackPointExtension>
        </extensions>
      </trkpt>
      <trkpt lat="-22.119825370609760284423828125" lon="166.4432568289339542388916015625">
        <ele>129</ele>
        <time>2016-08-12T17:36:02.000Z</time>
        <extensions>
          <ns3:TrackPointExtension>
            <ns3:atemp>21.0</ns3:atemp>
            <ns3:hr>127</ns3:hr>
          </ns3:TrackPointExtension>
        </extensions>
      </trkpt>
      <trkpt lat="-22.1198161505162715911865234375" lon="166.4432720839977264404296875">
        <ele>129.1999969482421875</ele>
        <time>2016-08-12T17:36:03.000Z</time>
        <extensions>
          <ns3:TrackPointExtension>
            <ns3:atemp>21.0</ns3:atemp>
            <ns3:hr>127</ns3:hr>
          </ns3:TrackPointExtension>
        </extensions>
      </trkpt>
      <trkpt lat="-22.11981086991727352142333984375" lon="166.44328482449054718017578125">
        <ele>129.1999969482421875</ele>
        <time>2016-08-12T17:36:04.000Z</time>
        <extensions>
          <ns3:TrackPointExtension>
            <ns3:atemp>21.0</ns3:atemp>
            <ns3:hr>127</ns3:hr>
          </ns3:TrackPointExtension>
        </extensions>
      </trkpt>
      <trkpt lat="-22.11980265565216541290283203125" lon="166.44329957664012908935546875">
        <ele>129.399993896484375</ele>
        <time>2016-08-12T17:36:05.000Z</time>
        <extensions>
          <ns3:TrackPointExtension>
            <ns3:atemp>21.0</ns3:atemp>
            <ns3:hr>127</ns3:hr>
          </ns3:TrackPointExtension>
        </extensions>
      </trkpt>
      <trkpt lat="-22.1197940222918987274169921875" lon="166.4433144964277744293212890625">
        <ele>129.600006103515625</ele>
        <time>2016-08-12T17:36:06.000Z</time>
        <extensions>
          <ns3:TrackPointExtension>
            <ns3:atemp>21.0</ns3:atemp>
            <ns3:hr>128</ns3:hr>
          </ns3:TrackPointExtension>
        </extensions>
      </trkpt>
      <trkpt lat="-22.1197883225977420806884765625" lon="166.443331427872180938720703125">
        <ele>129.8000030517578125</ele>
        <time>2016-08-12T17:36:07.000Z</time>
        <extensions>
          <ns3:TrackPointExtension>
            <ns3:atemp>21.0</ns3:atemp>
            <ns3:hr>127</ns3:hr>
          </ns3:TrackPointExtension>
        </extensions>
      </trkpt>
      <trkpt lat="-22.119783796370029449462890625" lon="166.44334785640239715576171875">
        <ele>130</ele>
        <time>2016-08-12T17:36:08.000Z</time>
        <extensions>
          <ns3:TrackPointExtension>
            <ns3:atemp>21.0</ns3:atemp>
            <ns3:hr>127</ns3:hr>
          </ns3:TrackPointExtension>
        </extensions>
      </trkpt>
      <trkpt lat="-22.1197767555713653564453125" lon="166.443362273275852203369140625">
        <ele>130.1999969482421875</ele>
        <time>2016-08-12T17:36:09.000Z</time>
        <extensions>
          <ns3:TrackPointExtension>
            <ns3:atemp>21.0</ns3:atemp>
            <ns3:hr>127</ns3:hr>
          </ns3:TrackPointExtension>
        </extensions>
      </trkpt>
      <trkpt lat="-22.119772732257843017578125" lon="166.44337694160640239715576171875">
        <ele>130.399993896484375</ele>
        <time>2016-08-12T17:36:10.000Z</time>
        <extensions>
          <ns3:TrackPointExtension>
            <ns3:atemp>21.0</ns3:atemp>
            <ns3:hr>127</ns3:hr>
          </ns3:TrackPointExtension>
        </extensions>
      </trkpt>
      <trkpt lat="-22.1197695471346378326416015625" lon="166.4433912746608257293701171875">
        <ele>130.399993896484375</ele>
        <time>2016-08-12T17:36:11.000Z</time>
        <extensions>
          <ns3:TrackPointExtension>
            <ns3:atemp>21.0</ns3:atemp>
            <ns3:hr>127</ns3:hr>
          </ns3:TrackPointExtension>
        </extensions>
      </trkpt>
      <trkpt lat="-22.11976611055433750152587890625" lon="166.44340560771524906158447265625">
        <ele>130.600006103515625</ele>
        <time>2016-08-12T17:36:12.000Z</time>
        <extensions>
          <ns3:TrackPointExtension>
            <ns3:atemp>21.0</ns3:atemp>
            <ns3:hr>127</ns3:hr>
          </ns3:TrackPointExtension>
        </extensions>
      </trkpt>
      <trkpt lat="-22.11976292543113231658935546875" lon="166.443421952426433563232421875">
        <ele>130.8000030517578125</ele>
        <time>2016-08-12T17:36:13.000Z</time>
        <extensions>
          <ns3:TrackPointExtension>
            <ns3:atemp>21.0</ns3:atemp>
            <ns3:hr>126</ns3:hr>
          </ns3:TrackPointExtension>
        </extensions>
      </trkpt>
      <trkpt lat="-22.11976259015500545501708984375" lon="166.443437375128269195556640625">
        <ele>131</ele>
        <time>2016-08-12T17:36:14.000Z</time>
        <extensions>
          <ns3:TrackPointExtension>
            <ns3:atemp>21.0</ns3:atemp>
            <ns3:hr>125</ns3:hr>
          </ns3:TrackPointExtension>
        </extensions>
      </trkpt>
      <trkpt lat="-22.119762003421783447265625" lon="166.4434544742107391357421875">
        <ele>131.1999969482421875</ele>
        <time>2016-08-12T17:36:15.000Z</time>
        <extensions>
          <ns3:TrackPointExtension>
            <ns3:atemp>21.0</ns3:atemp>
            <ns3:hr>125</ns3:hr>
          </ns3:TrackPointExtension>
        </extensions>
      </trkpt>
      <trkpt lat="-22.11976242251694202423095703125" lon="166.443470232188701629638671875">
        <ele>131.399993896484375</ele>
        <time>2016-08-12T17:36:16.000Z</time>
        <extensions>
          <ns3:TrackPointExtension>
            <ns3:atemp>21.0</ns3:atemp>
            <ns3:hr>124</ns3:hr>
          </ns3:TrackPointExtension>
        </extensions>
      </trkpt>
      <trkpt lat="-22.119762338697910308837890625" lon="166.44348456524312496185302734375">
        <ele>131.600006103515625</ele>
        <time>2016-08-12T17:36:17.000Z</time>
        <extensions>
          <ns3:TrackPointExtension>
            <ns3:atemp>21.0</ns3:atemp>
            <ns3:hr>123</ns3:hr>
          </ns3:TrackPointExtension>
        </extensions>
      </trkpt>
      <trkpt lat="-22.11976644583046436309814453125" lon="166.443498395383358001708984375">
        <ele>131.8000030517578125</ele>
        <time>2016-08-12T17:36:18.000Z</time>
        <extensions>
          <ns3:TrackPointExtension>
            <ns3:atemp>21.0</ns3:atemp>
            <ns3:hr>123</ns3:hr>
          </ns3:TrackPointExtension>
        </extensions>
      </trkpt>
      <trkpt lat="-22.11977046914398670196533203125" lon="166.4435136504471302032470703125">
        <ele>132</ele>
        <time>2016-08-12T17:36:19.000Z</time>
        <extensions>
          <ns3:TrackPointExtension>
            <ns3:atemp>21.0</ns3:atemp>
            <ns3:hr>123</ns3:hr>
          </ns3:TrackPointExtension>
        </extensions>
      </trkpt>
      <trkpt lat="-22.11977398954331874847412109375" lon="166.44352898932993412017822265625">
        <ele>132.1999969482421875</ele>
        <time>2016-08-12T17:36:20.000Z</time>
        <extensions>
          <ns3:TrackPointExtension>
            <ns3:atemp>20.0</ns3:atemp>
            <ns3:hr>124</ns3:hr>
          </ns3:TrackPointExtension>
        </extensions>
      </trkpt>
      <trkpt lat="-22.1197826229035854339599609375" lon="166.4435438252985477447509765625">
        <ele>132.399993896484375</ele>
        <time>2016-08-12T17:36:21.000Z</time>
        <extensions>
          <ns3:TrackPointExtension>
            <ns3:atemp>20.0</ns3:atemp>
            <ns3:hr>124</ns3:hr>
          </ns3:TrackPointExtension>
        </extensions>
      </trkpt>
      <trkpt lat="-22.11978773586452007293701171875" lon="166.44355815835297107696533203125">
        <ele>132.600006103515625</ele>
        <time>2016-08-12T17:36:22.000Z</time>
        <extensions>
          <ns3:TrackPointExtension>
            <ns3:atemp>20.0</ns3:atemp>
            <ns3:hr>123</ns3:hr>
          </ns3:TrackPointExtension>
        </extensions>
      </trkpt>
      <trkpt lat="-22.11979393847286701202392578125" lon="166.4435709826648235321044921875">
        <ele>132.8000030517578125</ele>
        <time>2016-08-12T17:36:23.000Z</time>
        <extensions>
          <ns3:TrackPointExtension>
            <ns3:atemp>20.0</ns3:atemp>
            <ns3:hr>123</ns3:hr>
          </ns3:TrackPointExtension>
        </extensions>
      </trkpt>
      <trkpt lat="-22.1198013983666896820068359375" lon="166.443584226071834564208984375">
        <ele>133</ele>
        <time>2016-08-12T17:36:24.000Z</time>
        <extensions>
          <ns3:TrackPointExtension>
            <ns3:atemp>20.0</ns3:atemp>
            <ns3:hr>123</ns3:hr>
          </ns3:TrackPointExtension>
        </extensions>
      </trkpt>
      <trkpt lat="-22.11981095373630523681640625" lon="166.44359738565981388092041015625">
        <ele>133.1999969482421875</ele>
        <time>2016-08-12T17:36:25.000Z</time>
        <extensions>
          <ns3:TrackPointExtension>
            <ns3:atemp>20.0</ns3:atemp>
            <ns3:hr>123</ns3:hr>
          </ns3:TrackPointExtension>
        </extensions>
      </trkpt>
      <trkpt lat="-22.11982210166752338409423828125" lon="166.44361197017133235931396484375">
        <ele>133.399993896484375</ele>
        <time>2016-08-12T17:36:26.000Z</time>
        <extensions>
          <ns3:TrackPointExtension>
            <ns3:atemp>20.0</ns3:atemp>
            <ns3:hr>123</ns3:hr>
          </ns3:TrackPointExtension>
        </extensions>
      </trkpt>
      <trkpt lat="-22.11983299814164638519287109375" lon="166.4436259679496288299560546875">
        <ele>133.600006103515625</ele>
        <time>2016-08-12T17:36:27.000Z</time>
        <extensions>
          <ns3:TrackPointExtension>
            <ns3:atemp>20.0</ns3:atemp>
            <ns3:hr>123</ns3:hr>
          </ns3:TrackPointExtension>
        </extensions>
      </trkpt>
      <trkpt lat="-22.11984221823513507843017578125" lon="166.44363946281373500823974609375">
        <ele>133.8000030517578125</ele>
        <time>2016-08-12T17:36:28.000Z</time>
        <extensions>
          <ns3:TrackPointExtension>
            <ns3:atemp>20.0</ns3:atemp>
            <ns3:hr>125</ns3:hr>
          </ns3:TrackPointExtension>
        </extensions>
      </trkpt>
      <trkpt lat="-22.11985194124281406402587890625" lon="166.44365253858268260955810546875">
        <ele>134</ele>
        <time>2016-08-12T17:36:29.000Z</time>
        <extensions>
          <ns3:TrackPointExtension>
            <ns3:atemp>20.0</ns3:atemp>
            <ns3:hr>124</ns3:hr>
          </ns3:TrackPointExtension>
        </extensions>
      </trkpt>
      <trkpt lat="-22.1198610775172710418701171875" lon="166.4436641894280910491943359375">
        <ele>134.1999969482421875</ele>
        <time>2016-08-12T17:36:30.000Z</time>
        <extensions>
          <ns3:TrackPointExtension>
            <ns3:atemp>20.0</ns3:atemp>
            <ns3:hr>124</ns3:hr>
          </ns3:TrackPointExtension>
        </extensions>
      </trkpt>
      <trkpt lat="-22.119869291782379150390625" lon="166.4436765946447849273681640625">
        <ele>134.399993896484375</ele>
        <time>2016-08-12T17:36:31.000Z</time>
        <extensions>
          <ns3:TrackPointExtension>
            <ns3:atemp>20.0</ns3:atemp>
            <ns3:hr>124</ns3:hr>
          </ns3:TrackPointExtension>
        </extensions>
      </trkpt>
      <trkpt lat="-22.11987893097102642059326171875" lon="166.44368740729987621307373046875">
        <ele>134.600006103515625</ele>
        <time>2016-08-12T17:36:32.000Z</time>
        <extensions>
          <ns3:TrackPointExtension>
            <ns3:atemp>20.0</ns3:atemp>
            <ns3:hr>124</ns3:hr>
          </ns3:TrackPointExtension>
        </extensions>
      </trkpt>
      <trkpt lat="-22.11989083327353000640869140625" lon="166.44369729794561862945556640625">
        <ele>134.8000030517578125</ele>
        <time>2016-08-12T17:36:33.000Z</time>
        <extensions>
          <ns3:TrackPointExtension>
            <ns3:atemp>20.0</ns3:atemp>
            <ns3:hr>124</ns3:hr>
          </ns3:TrackPointExtension>
        </extensions>
      </trkpt>
      <trkpt lat="-22.11990072391927242279052734375" lon="166.4437071047723293304443359375">
        <ele>135</ele>
        <time>2016-08-12T17:36:34.000Z</time>
        <extensions>
          <ns3:TrackPointExtension>
            <ns3:atemp>20.0</ns3:atemp>
            <ns3:hr>124</ns3:hr>
          </ns3:TrackPointExtension>
        </extensions>
      </trkpt>
      <trkpt lat="-22.11991027928888797760009765625" lon="166.4437173306941986083984375">
        <ele>135.1999969482421875</ele>
        <time>2016-08-12T17:36:35.000Z</time>
        <extensions>
          <ns3:TrackPointExtension>
            <ns3:atemp>20.0</ns3:atemp>
            <ns3:hr>124</ns3:hr>
          </ns3:TrackPointExtension>
        </extensions>
      </trkpt>
      <trkpt lat="-22.11992117576301097869873046875" lon="166.443729065358638763427734375">
        <ele>135.399993896484375</ele>
        <time>2016-08-12T17:36:36.000Z</time>
        <extensions>
          <ns3:TrackPointExtension>
            <ns3:atemp>20.0</ns3:atemp>
            <ns3:hr>124</ns3:hr>
          </ns3:TrackPointExtension>
        </extensions>
      </trkpt>
      <trkpt lat="-22.11993257515132427215576171875" lon="166.44374080002307891845703125">
        <ele>135.600006103515625</ele>
        <time>2016-08-12T17:36:37.000Z</time>
        <extensions>
          <ns3:TrackPointExtension>
            <ns3:atemp>20.0</ns3:atemp>
            <ns3:hr>124</ns3:hr>
          </ns3:TrackPointExtension>
        </extensions>
      </trkpt>
      <trkpt lat="-22.119943387806415557861328125" lon="166.443751193583011627197265625">
        <ele>135.8000030517578125</ele>
        <time>2016-08-12T17:36:38.000Z</time>
        <extensions>
          <ns3:TrackPointExtension>
            <ns3:atemp>20.0</ns3:atemp>
            <ns3:hr>123</ns3:hr>
          </ns3:TrackPointExtension>
        </extensions>
      </trkpt>
      <trkpt lat="-22.11995436809957027435302734375" lon="166.4437617547810077667236328125">
        <ele>136</ele>
        <time>2016-08-12T17:36:39.000Z</time>
        <extensions>
          <ns3:TrackPointExtension>
            <ns3:atemp>20.0</ns3:atemp>
            <ns3:hr>124</ns3:hr>
          </ns3:TrackPointExtension>
        </extensions>
      </trkpt>
      <trkpt lat="-22.11996325291693210601806640625" lon="166.4437741599977016448974609375">
        <ele>136</ele>
        <time>2016-08-12T17:36:40.000Z</time>
        <extensions>
          <ns3:TrackPointExtension>
            <ns3:atemp>20.0</ns3:atemp>
            <ns3:hr>123</ns3:hr>
          </ns3:TrackPointExtension>
        </extensions>
      </trkpt>
      <trkpt lat="-22.11997230537235736846923828125" lon="166.4437862299382686614990234375">
        <ele>136.1999969482421875</ele>
        <time>2016-08-12T17:36:41.000Z</time>
        <extensions>
          <ns3:TrackPointExtension>
            <ns3:atemp>20.0</ns3:atemp>
            <ns3:hr>123</ns3:hr>
          </ns3:TrackPointExtension>
        </extensions>
      </trkpt>
      <trkpt lat="-22.11997951380908489227294921875" lon="166.4437979646027088165283203125">
        <ele>136.399993896484375</ele>
        <time>2016-08-12T17:36:42.000Z</time>
        <extensions>
          <ns3:TrackPointExtension>
            <ns3:atemp>20.0</ns3:atemp>
            <ns3:hr>123</ns3:hr>
          </ns3:TrackPointExtension>
        </extensions>
      </trkpt>
      <trkpt lat="-22.11998529732227325439453125" lon="166.4438130520284175872802734375">
        <ele>136.399993896484375</ele>
        <time>2016-08-12T17:36:43.000Z</time>
        <extensions>
          <ns3:TrackPointExtension>
            <ns3:atemp>20.0</ns3:atemp>
            <ns3:hr>124</ns3:hr>
          </ns3:TrackPointExtension>
        </extensions>
      </trkpt>
      <trkpt lat="-22.1199904941022396087646484375" lon="166.44382906146347522735595703125">
        <ele>136.399993896484375</ele>
        <time>2016-08-12T17:36:44.000Z</time>
        <extensions>
          <ns3:TrackPointExtension>
            <ns3:atemp>20.0</ns3:atemp>
            <ns3:hr>123</ns3:hr>
          </ns3:TrackPointExtension>
        </extensions>
      </trkpt>
      <trkpt lat="-22.119994349777698516845703125" lon="166.4438415504992008209228515625">
        <ele>136.600006103515625</ele>
        <time>2016-08-12T17:36:45.000Z</time>
        <extensions>
          <ns3:TrackPointExtension>
            <ns3:atemp>20.0</ns3:atemp>
            <ns3:hr>123</ns3:hr>
          </ns3:TrackPointExtension>
        </extensions>
      </trkpt>
      <trkpt lat="-22.11999929510056972503662109375" lon="166.44385336898267269134521484375">
        <ele>136.600006103515625</ele>
        <time>2016-08-12T17:36:46.000Z</time>
        <extensions>
          <ns3:TrackPointExtension>
            <ns3:atemp>20.0</ns3:atemp>
            <ns3:hr>122</ns3:hr>
          </ns3:TrackPointExtension>
        </extensions>
      </trkpt>
      <trkpt lat="-22.12000113911926746368408203125" lon="166.44386745058000087738037109375">
        <ele>136.8000030517578125</ele>
        <time>2016-08-12T17:36:47.000Z</time>
        <extensions>
          <ns3:TrackPointExtension>
            <ns3:atemp>20.0</ns3:atemp>
            <ns3:hr>122</ns3:hr>
          </ns3:TrackPointExtension>
        </extensions>
      </trkpt>
      <trkpt lat="-22.1200055815279483795166015625" lon="166.443880610167980194091796875">
        <ele>136.8000030517578125</ele>
        <time>2016-08-12T17:36:48.000Z</time>
        <extensions>
          <ns3:TrackPointExtension>
            <ns3:atemp>20.0</ns3:atemp>
            <ns3:hr>121</ns3:hr>
          </ns3:TrackPointExtension>
        </extensions>
      </trkpt>
      <trkpt lat="-22.12000851519405841827392578125" lon="166.44389569759368896484375">
        <ele>136.8000030517578125</ele>
        <time>2016-08-12T17:36:49.000Z</time>
        <extensions>
          <ns3:TrackPointExtension>
            <ns3:atemp>20.0</ns3:atemp>
            <ns3:hr>121</ns3:hr>
          </ns3:TrackPointExtension>
        </extensions>
      </trkpt>
      <trkpt lat="-22.1200122870504856109619140625" lon="166.44391271285712718963623046875">
        <ele>136.8000030517578125</ele>
        <time>2016-08-12T17:36:50.000Z</time>
        <extensions>
          <ns3:TrackPointExtension>
            <ns3:atemp>20.0</ns3:atemp>
            <ns3:hr>121</ns3:hr>
          </ns3:TrackPointExtension>
        </extensions>
      </trkpt>
      <trkpt lat="-22.12001505307853221893310546875" lon="166.44392947666347026824951171875">
        <ele>137</ele>
        <time>2016-08-12T17:36:51.000Z</time>
        <extensions>
          <ns3:TrackPointExtension>
            <ns3:atemp>20.0</ns3:atemp>
            <ns3:hr>121</ns3:hr>
          </ns3:TrackPointExtension>
        </extensions>
      </trkpt>
      <trkpt lat="-22.12001572363078594207763671875" lon="166.4439438097178936004638671875">
        <ele>137</ele>
        <time>2016-08-12T17:36:52.000Z</time>
        <extensions>
          <ns3:TrackPointExtension>
            <ns3:atemp>20.0</ns3:atemp>
            <ns3:hr>121</ns3:hr>
          </ns3:TrackPointExtension>
        </extensions>
      </trkpt>
      <trkpt lat="-22.1200179867446422576904296875" lon="166.443955712020397186279296875">
        <ele>137.1999969482421875</ele>
        <time>2016-08-12T17:36:53.000Z</time>
        <extensions>
          <ns3:TrackPointExtension>
            <ns3:atemp>20.0</ns3:atemp>
            <ns3:hr>121</ns3:hr>
          </ns3:TrackPointExtension>
        </extensions>
      </trkpt>
      <trkpt lat="-22.1200220100581645965576171875" lon="166.44397155381739139556884765625">
        <ele>137.399993896484375</ele>
        <time>2016-08-12T17:36:54.000Z</time>
        <extensions>
          <ns3:TrackPointExtension>
            <ns3:atemp>20.0</ns3:atemp>
            <ns3:hr>121</ns3:hr>
          </ns3:TrackPointExtension>
        </extensions>
      </trkpt>
      <trkpt lat="-22.12002494372427463531494140625" lon="166.44398898817598819732666015625">
        <ele>137.399993896484375</ele>
        <time>2016-08-12T17:36:55.000Z</time>
        <extensions>
          <ns3:TrackPointExtension>
            <ns3:atemp>20.0</ns3:atemp>
            <ns3:hr>120</ns3:hr>
          </ns3:TrackPointExtension>
        </extensions>
      </trkpt>
      <trkpt lat="-22.12002712301909923553466796875" lon="166.444006003439426422119140625">
        <ele>137.399993896484375</ele>
        <time>2016-08-12T17:36:56.000Z</time>
        <extensions>
          <ns3:TrackPointExtension>
            <ns3:atemp>20.0</ns3:atemp>
            <ns3:hr>120</ns3:hr>
          </ns3:TrackPointExtension>
        </extensions>
      </trkpt>
      <trkpt lat="-22.1200267039239406585693359375" lon="166.4440246112644672393798828125">
        <ele>137.600006103515625</ele>
        <time>2016-08-12T17:36:57.000Z</time>
        <extensions>
          <ns3:TrackPointExtension>
            <ns3:atemp>20.0</ns3:atemp>
            <ns3:hr>119</ns3:hr>
          </ns3:TrackPointExtension>
        </extensions>
      </trkpt>
      <trkpt lat="-22.12002896703779697418212890625" lon="166.4440400339663028717041015625">
        <ele>137.600006103515625</ele>
        <time>2016-08-12T17:36:58.000Z</time>
        <extensions>
          <ns3:TrackPointExtension>
            <ns3:atemp>20.0</ns3:atemp>
            <ns3:hr>119</ns3:hr>
          </ns3:TrackPointExtension>
        </extensions>
      </trkpt>
      <trkpt lat="-22.1200327388942241668701171875" lon="166.44405386410653591156005859375">
        <ele>137.8000030517578125</ele>
        <time>2016-08-12T17:36:59.000Z</time>
        <extensions>
          <ns3:TrackPointExtension>
            <ns3:atemp>20.0</ns3:atemp>
            <ns3:hr>119</ns3:hr>
          </ns3:TrackPointExtension>
        </extensions>
      </trkpt>
      <trkpt lat="-22.120035588741302490234375" lon="166.44406559877097606658935546875">
        <ele>137.8000030517578125</ele>
        <time>2016-08-12T17:37:00.000Z</time>
        <extensions>
          <ns3:TrackPointExtension>
            <ns3:atemp>20.0</ns3:atemp>
            <ns3:hr>119</ns3:hr>
          </ns3:TrackPointExtension>
        </extensions>
      </trkpt>
      <trkpt lat="-22.12003835476934909820556640625" lon="166.44408068619668483734130859375">
        <ele>138</ele>
        <time>2016-08-12T17:37:01.000Z</time>
        <extensions>
          <ns3:TrackPointExtension>
            <ns3:atemp>20.0</ns3:atemp>
            <ns3:hr>121</ns3:hr>
          </ns3:TrackPointExtension>
        </extensions>
      </trkpt>
      <trkpt lat="-22.12004028260707855224609375" lon="166.4440977014601230621337890625">
        <ele>138.1999969482421875</ele>
        <time>2016-08-12T17:37:02.000Z</time>
        <extensions>
          <ns3:TrackPointExtension>
            <ns3:atemp>20.0</ns3:atemp>
            <ns3:hr>122</ns3:hr>
          </ns3:TrackPointExtension>
        </extensions>
      </trkpt>
      <trkpt lat="-22.1200448088347911834716796875" lon="166.4441137947142124176025390625">
        <ele>138.399993896484375</ele>
        <time>2016-08-12T17:37:03.000Z</time>
        <extensions>
          <ns3:TrackPointExtension>
            <ns3:atemp>20.0</ns3:atemp>
            <ns3:hr>121</ns3:hr>
          </ns3:TrackPointExtension>
        </extensions>
      </trkpt>
      <trkpt lat="-22.12004975415766239166259765625" lon="166.44413114525377750396728515625">
        <ele>138.600006103515625</ele>
        <time>2016-08-12T17:37:04.000Z</time>
        <extensions>
          <ns3:TrackPointExtension>
            <ns3:atemp>20.0</ns3:atemp>
            <ns3:hr>120</ns3:hr>
          </ns3:TrackPointExtension>
        </extensions>
      </trkpt>
      <trkpt lat="-22.12005411274731159210205078125" lon="166.4441469870507717132568359375">
        <ele>138.600006103515625</ele>
        <time>2016-08-12T17:37:05.000Z</time>
        <extensions>
          <ns3:TrackPointExtension>
            <ns3:atemp>20.0</ns3:atemp>
            <ns3:hr>120</ns3:hr>
          </ns3:TrackPointExtension>
        </extensions>
      </trkpt>
      <trkpt lat="-22.12005746550858020782470703125" lon="166.44416366703808307647705078125">
        <ele>138.8000030517578125</ele>
        <time>2016-08-12T17:37:06.000Z</time>
        <extensions>
          <ns3:TrackPointExtension>
            <ns3:atemp>20.0</ns3:atemp>
            <ns3:hr>120</ns3:hr>
          </ns3:TrackPointExtension>
        </extensions>
      </trkpt>
      <trkpt lat="-22.12006014771759510040283203125" lon="166.444180011749267578125">
        <ele>138.8000030517578125</ele>
        <time>2016-08-12T17:37:07.000Z</time>
        <extensions>
          <ns3:TrackPointExtension>
            <ns3:atemp>20.0</ns3:atemp>
            <ns3:hr>120</ns3:hr>
          </ns3:TrackPointExtension>
        </extensions>
      </trkpt>
      <trkpt lat="-22.120062746107578277587890625" lon="166.44419677555561065673828125">
        <ele>139</ele>
        <time>2016-08-12T17:37:08.000Z</time>
        <extensions>
          <ns3:TrackPointExtension>
            <ns3:atemp>20.0</ns3:atemp>
            <ns3:hr>120</ns3:hr>
          </ns3:TrackPointExtension>
        </extensions>
      </trkpt>
      <trkpt lat="-22.12006534449756145477294921875" lon="166.4442135393619537353515625">
        <ele>139</ele>
        <time>2016-08-12T17:37:09.000Z</time>
        <extensions>
          <ns3:TrackPointExtension>
            <ns3:atemp>20.0</ns3:atemp>
            <ns3:hr>119</ns3:hr>
          </ns3:TrackPointExtension>
        </extensions>
      </trkpt>
      <trkpt lat="-22.12007045745849609375" lon="166.4442311413586139678955078125">
        <ele>139.1999969482421875</ele>
        <time>2016-08-12T17:37:10.000Z</time>
        <extensions>
          <ns3:TrackPointExtension>
            <ns3:atemp>20.0</ns3:atemp>
            <ns3:hr>119</ns3:hr>
          </ns3:TrackPointExtension>
        </extensions>
      </trkpt>
      <trkpt lat="-22.12008244358003139495849609375" lon="166.4442462287843227386474609375">
        <ele>139.1999969482421875</ele>
        <time>2016-08-12T17:37:11.000Z</time>
        <extensions>
          <ns3:TrackPointExtension>
            <ns3:atemp>20.0</ns3:atemp>
            <ns3:hr>118</ns3:hr>
          </ns3:TrackPointExtension>
        </extensions>
      </trkpt>
      <trkpt lat="-22.12008948437869548797607421875" lon="166.44425653852522373199462890625">
        <ele>139.399993896484375</ele>
        <time>2016-08-12T17:37:12.000Z</time>
        <extensions>
          <ns3:TrackPointExtension>
            <ns3:atemp>20.0</ns3:atemp>
            <ns3:hr>118</ns3:hr>
          </ns3:TrackPointExtension>
        </extensions>
      </trkpt>
      <trkpt lat="-22.12009334005415439605712890625" lon="166.4442606456577777862548828125">
        <ele>139.399993896484375</ele>
        <time>2016-08-12T17:37:13.000Z</time>
        <extensions>
          <ns3:TrackPointExtension>
            <ns3:atemp>20.0</ns3:atemp>
            <ns3:hr>118</ns3:hr>
          </ns3:TrackPointExtension>
        </extensions>
      </trkpt>
      <trkpt lat="-22.1200944297015666961669921875" lon="166.4442603103816509246826171875">
        <ele>139.600006103515625</ele>
        <time>2016-08-12T17:37:15.000Z</time>
        <extensions>
          <ns3:TrackPointExtension>
            <ns3:atemp>20.0</ns3:atemp>
            <ns3:hr>117</ns3:hr>
          </ns3:TrackPointExtension>
        </extensions>
      </trkpt>
      <trkpt lat="-22.12009317241609096527099609375" lon="166.44426022656261920928955078125">
        <ele>139.600006103515625</ele>
        <time>2016-08-12T17:37:16.000Z</time>
        <extensions>
          <ns3:TrackPointExtension>
            <ns3:atemp>20.0</ns3:atemp>
            <ns3:hr>116</ns3:hr>
          </ns3:TrackPointExtension>
        </extensions>
      </trkpt>
      <trkpt lat="-22.12009392678737640380859375" lon="166.44425922073423862457275390625">
        <ele>139.600006103515625</ele>
        <time>2016-08-12T17:37:17.000Z</time>
        <extensions>
          <ns3:TrackPointExtension>
            <ns3:atemp>20.0</ns3:atemp>
            <ns3:hr>115</ns3:hr>
          </ns3:TrackPointExtension>
        </extensions>
      </trkpt>
      <trkpt lat="-22.12009585462510585784912109375" lon="166.444258131086826324462890625">
        <ele>139.600006103515625</ele>
        <time>2016-08-12T17:37:18.000Z</time>
        <extensions>
          <ns3:TrackPointExtension>
            <ns3:atemp>20.0</ns3:atemp>
            <ns3:hr>115</ns3:hr>
          </ns3:TrackPointExtension>
        </extensions>
      </trkpt>
      <trkpt lat="-22.12009660899639129638671875" lon="166.44425653852522373199462890625">
        <ele>139.600006103515625</ele>
        <time>2016-08-12T17:37:20.000Z</time>
        <extensions>
          <ns3:TrackPointExtension>
            <ns3:atemp>20.0</ns3:atemp>
            <ns3:hr>115</ns3:hr>
          </ns3:TrackPointExtension>
        </extensions>
      </trkpt>
      <trkpt lat="-22.12009870447218418121337890625" lon="166.44425578415393829345703125">
        <ele>139.600006103515625</ele>
        <time>2016-08-12T17:37:21.000Z</time>
        <extensions>
          <ns3:TrackPointExtension>
            <ns3:atemp>20.0</ns3:atemp>
            <ns3:hr>115</ns3:hr>
          </ns3:TrackPointExtension>
        </extensions>
      </trkpt>
      <trkpt lat="-22.12010038085281848907470703125" lon="166.444264836609363555908203125">
        <ele>139.600006103515625</ele>
        <time>2016-08-12T17:37:22.000Z</time>
        <extensions>
          <ns3:TrackPointExtension>
            <ns3:atemp>20.0</ns3:atemp>
          </ns3:TrackPointExtension>
        </extensions>
      </trkpt>
      <trkpt lat="-22.1201054938137531280517578125" lon="166.44427481107413768768310546875">
        <ele>139.600006103515625</ele>
        <time>2016-08-12T17:37:23.000Z</time>
        <extensions>
          <ns3:TrackPointExtension>
            <ns3:atemp>20.0</ns3:atemp>
          </ns3:TrackPointExtension>
        </extensions>
      </trkpt>
      <trkpt lat="-22.12010675109922885894775390625" lon="166.4442924968898296356201171875">
        <ele>139.600006103515625</ele>
        <time>2016-08-12T17:37:24.000Z</time>
        <extensions>
          <ns3:TrackPointExtension>
            <ns3:atemp>20.0</ns3:atemp>
            <ns3:hr>114</ns3:hr>
          </ns3:TrackPointExtension>
        </extensions>
      </trkpt>
      <trkpt lat="-22.12011002004146575927734375" lon="166.444306410849094390869140625">
        <ele>139.8000030517578125</ele>
        <time>2016-08-12T17:37:25.000Z</time>
        <extensions>
          <ns3:TrackPointExtension>
            <ns3:atemp>20.0</ns3:atemp>
            <ns3:hr>114</ns3:hr>
          </ns3:TrackPointExtension>
        </extensions>
      </trkpt>
      <trkpt lat="-22.12011831812560558319091796875" lon="166.44432091154158115386962890625">
        <ele>139.8000030517578125</ele>
        <time>2016-08-12T17:37:26.000Z</time>
        <extensions>
          <ns3:TrackPointExtension>
            <ns3:atemp>20.0</ns3:atemp>
            <ns3:hr>114</ns3:hr>
          </ns3:TrackPointExtension>
        </extensions>
      </trkpt>
      <trkpt lat="-22.1201286278665065765380859375" lon="166.4443370886147022247314453125">
        <ele>140</ele>
        <time>2016-08-12T17:37:27.000Z</time>
        <extensions>
          <ns3:TrackPointExtension>
            <ns3:atemp>20.0</ns3:atemp>
            <ns3:hr>115</ns3:hr>
          </ns3:TrackPointExtension>
        </extensions>
      </trkpt>
      <trkpt lat="-22.1201393567025661468505859375" lon="166.44435645081102848052978515625">
        <ele>140</ele>
        <time>2016-08-12T17:37:28.000Z</time>
        <extensions>
          <ns3:TrackPointExtension>
            <ns3:atemp>20.0</ns3:atemp>
            <ns3:hr>116</ns3:hr>
          </ns3:TrackPointExtension>
        </extensions>
      </trkpt>
      <trkpt lat="-22.12014396674931049346923828125" lon="166.4443798363208770751953125">
        <ele>140</ele>
        <time>2016-08-12T17:37:29.000Z</time>
        <extensions>
          <ns3:TrackPointExtension>
            <ns3:atemp>20.0</ns3:atemp>
            <ns3:hr>116</ns3:hr>
          </ns3:TrackPointExtension>
        </extensions>
      </trkpt>
      <trkpt lat="-22.12014933116734027862548828125" lon="166.4444039762020111083984375">
        <ele>140.399993896484375</ele>
        <time>2016-08-12T17:37:30.000Z</time>
        <extensions>
          <ns3:TrackPointExtension>
            <ns3:atemp>20.0</ns3:atemp>
            <ns3:hr>119</ns3:hr>
          </ns3:TrackPointExtension>
        </extensions>
      </trkpt>
      <trkpt lat="-22.1201584674417972564697265625" lon="166.44442350603640079498291015625">
        <ele>140.399993896484375</ele>
        <time>2016-08-12T17:37:31.000Z</time>
        <extensions>
          <ns3:TrackPointExtension>
            <ns3:atemp>20.0</ns3:atemp>
            <ns3:hr>119</ns3:hr>
          </ns3:TrackPointExtension>
        </extensions>
      </trkpt>
      <trkpt lat="-22.12016341276466846466064453125" lon="166.44444630481302738189697265625">
        <ele>140.399993896484375</ele>
        <time>2016-08-12T17:37:32.000Z</time>
        <extensions>
          <ns3:TrackPointExtension>
            <ns3:atemp>20.0</ns3:atemp>
            <ns3:hr>119</ns3:hr>
          </ns3:TrackPointExtension>
        </extensions>
      </trkpt>
      <trkpt lat="-22.12016877718269824981689453125" lon="166.44446901977062225341796875">
        <ele>140.399993896484375</ele>
        <time>2016-08-12T17:37:33.000Z</time>
        <extensions>
          <ns3:TrackPointExtension>
            <ns3:atemp>20.0</ns3:atemp>
            <ns3:hr>119</ns3:hr>
          </ns3:TrackPointExtension>
        </extensions>
      </trkpt>
      <trkpt lat="-22.1201759018003940582275390625" lon="166.4444893039762973785400390625">
        <ele>140.399993896484375</ele>
        <time>2016-08-12T17:37:34.000Z</time>
        <extensions>
          <ns3:TrackPointExtension>
            <ns3:atemp>20.0</ns3:atemp>
            <ns3:hr>120</ns3:hr>
          </ns3:TrackPointExtension>
        </extensions>
      </trkpt>
      <trkpt lat="-22.1201816014945507049560546875" lon="166.44451101310551166534423828125">
        <ele>140.600006103515625</ele>
        <time>2016-08-12T17:37:35.000Z</time>
        <extensions>
          <ns3:TrackPointExtension>
            <ns3:atemp>20.0</ns3:atemp>
            <ns3:hr>121</ns3:hr>
          </ns3:TrackPointExtension>
        </extensions>
      </trkpt>
      <trkpt lat="-22.12018688209354877471923828125" lon="166.44453146494925022125244140625">
        <ele>141</ele>
        <time>2016-08-12T17:37:36.000Z</time>
        <extensions>
          <ns3:TrackPointExtension>
            <ns3:atemp>20.0</ns3:atemp>
            <ns3:hr>122</ns3:hr>
          </ns3:TrackPointExtension>
        </extensions>
      </trkpt>
      <trkpt lat="-22.12018939666450023651123046875" lon="166.444552503526210784912109375">
        <ele>141.600006103515625</ele>
        <time>2016-08-12T17:37:37.000Z</time>
        <extensions>
          <ns3:TrackPointExtension>
            <ns3:atemp>20.0</ns3:atemp>
            <ns3:hr>122</ns3:hr>
          </ns3:TrackPointExtension>
        </extensions>
      </trkpt>
      <trkpt lat="-22.12019341997802257537841796875" lon="166.44457404501736164093017578125">
        <ele>141.600006103515625</ele>
        <time>2016-08-12T17:37:38.000Z</time>
        <extensions>
          <ns3:TrackPointExtension>
            <ns3:atemp>20.0</ns3:atemp>
            <ns3:hr>121</ns3:hr>
          </ns3:TrackPointExtension>
        </extensions>
      </trkpt>
      <trkpt lat="-22.12019576691091060638427734375" lon="166.444594748318195343017578125">
        <ele>141.600006103515625</ele>
        <time>2016-08-12T17:37:39.000Z</time>
        <extensions>
          <ns3:TrackPointExtension>
            <ns3:atemp>20.0</ns3:atemp>
            <ns3:hr>122</ns3:hr>
          </ns3:TrackPointExtension>
        </extensions>
      </trkpt>
      <trkpt lat="-22.12020046077668666839599609375" lon="166.4446183852851390838623046875">
        <ele>142.1999969482421875</ele>
        <time>2016-08-12T17:37:40.000Z</time>
        <extensions>
          <ns3:TrackPointExtension>
            <ns3:atemp>20.0</ns3:atemp>
            <ns3:hr>122</ns3:hr>
          </ns3:TrackPointExtension>
        </extensions>
      </trkpt>
      <trkpt lat="-22.12020666338503360748291015625" lon="166.4446405135095119476318359375">
        <ele>142.399993896484375</ele>
        <time>2016-08-12T17:37:41.000Z</time>
        <extensions>
          <ns3:TrackPointExtension>
            <ns3:atemp>20.0</ns3:atemp>
            <ns3:hr>122</ns3:hr>
          </ns3:TrackPointExtension>
        </extensions>
      </trkpt>
      <trkpt lat="-22.120206914842128753662109375" lon="166.44466104917228221893310546875">
        <ele>142.1999969482421875</ele>
        <time>2016-08-12T17:37:42.000Z</time>
        <extensions>
          <ns3:TrackPointExtension>
            <ns3:atemp>20.0</ns3:atemp>
            <ns3:hr>122</ns3:hr>
          </ns3:TrackPointExtension>
        </extensions>
      </trkpt>
      <trkpt lat="-22.12021420709788799285888671875" lon="166.4446814171969890594482421875">
        <ele>142.399993896484375</ele>
        <time>2016-08-12T17:37:43.000Z</time>
        <extensions>
          <ns3:TrackPointExtension>
            <ns3:atemp>20.0</ns3:atemp>
            <ns3:hr>122</ns3:hr>
          </ns3:TrackPointExtension>
        </extensions>
      </trkpt>
      <trkpt lat="-22.120215632021427154541015625" lon="166.44470597617328166961669921875">
        <ele>142.600006103515625</ele>
        <time>2016-08-12T17:37:44.000Z</time>
        <extensions>
          <ns3:TrackPointExtension>
            <ns3:atemp>20.0</ns3:atemp>
            <ns3:hr>122</ns3:hr>
          </ns3:TrackPointExtension>
        </extensions>
      </trkpt>
      <trkpt lat="-22.12021806277334690093994140625" lon="166.44472810439765453338623046875">
        <ele>142.8000030517578125</ele>
        <time>2016-08-12T17:37:45.000Z</time>
        <extensions>
          <ns3:TrackPointExtension>
            <ns3:atemp>20.0</ns3:atemp>
            <ns3:hr>122</ns3:hr>
          </ns3:TrackPointExtension>
        </extensions>
      </trkpt>
      <trkpt lat="-22.12021864950656890869140625" lon="166.4447501488029956817626953125">
        <ele>142.8000030517578125</ele>
        <time>2016-08-12T17:37:46.000Z</time>
        <extensions>
          <ns3:TrackPointExtension>
            <ns3:atemp>20.0</ns3:atemp>
            <ns3:hr>122</ns3:hr>
          </ns3:TrackPointExtension>
        </extensions>
      </trkpt>
      <trkpt lat="-22.12021957151591777801513671875" lon="166.444771774113178253173828125">
        <ele>143.1999969482421875</ele>
        <time>2016-08-12T17:37:47.000Z</time>
        <extensions>
          <ns3:TrackPointExtension>
            <ns3:atemp>20.0</ns3:atemp>
            <ns3:hr>122</ns3:hr>
          </ns3:TrackPointExtension>
        </extensions>
      </trkpt>
      <trkpt lat="-22.12021990679204463958740234375" lon="166.44479415379464626312255859375">
        <ele>143.1999969482421875</ele>
        <time>2016-08-12T17:37:48.000Z</time>
        <extensions>
          <ns3:TrackPointExtension>
            <ns3:atemp>20.0</ns3:atemp>
            <ns3:hr>122</ns3:hr>
          </ns3:TrackPointExtension>
        </extensions>
      </trkpt>
      <trkpt lat="-22.1202245168387889862060546875" lon="166.44481443800032138824462890625">
        <ele>143</ele>
        <time>2016-08-12T17:37:49.000Z</time>
        <extensions>
          <ns3:TrackPointExtension>
            <ns3:atemp>20.0</ns3:atemp>
            <ns3:hr>122</ns3:hr>
          </ns3:TrackPointExtension>
        </extensions>
      </trkpt>
      <trkpt lat="-22.12022812105715274810791015625" lon="166.44483421929180622100830078125">
        <ele>143.1999969482421875</ele>
        <time>2016-08-12T17:37:50.000Z</time>
        <extensions>
          <ns3:TrackPointExtension>
            <ns3:atemp>20.0</ns3:atemp>
            <ns3:hr>122</ns3:hr>
          </ns3:TrackPointExtension>
        </extensions>
      </trkpt>
      <trkpt lat="-22.12022677995264530181884765625" lon="166.4448597840964794158935546875">
        <ele>143.1999969482421875</ele>
        <time>2016-08-12T17:37:51.000Z</time>
        <extensions>
          <ns3:TrackPointExtension>
            <ns3:atemp>20.0</ns3:atemp>
            <ns3:hr>122</ns3:hr>
          </ns3:TrackPointExtension>
        </extensions>
      </trkpt>
      <trkpt lat="-22.120230384171009063720703125" lon="166.444885432720184326171875">
        <ele>143.1999969482421875</ele>
        <time>2016-08-12T17:37:52.000Z</time>
        <extensions>
          <ns3:TrackPointExtension>
            <ns3:atemp>20.0</ns3:atemp>
            <ns3:hr>123</ns3:hr>
          </ns3:TrackPointExtension>
        </extensions>
      </trkpt>
      <trkpt lat="-22.12023549713194370269775390625" lon="166.44490890204906463623046875">
        <ele>143.399993896484375</ele>
        <time>2016-08-12T17:37:53.000Z</time>
        <extensions>
          <ns3:TrackPointExtension>
            <ns3:atemp>20.0</ns3:atemp>
            <ns3:hr>123</ns3:hr>
          </ns3:TrackPointExtension>
        </extensions>
      </trkpt>
      <trkpt lat="-22.1202439628541469573974609375" lon="166.44493304193019866943359375">
        <ele>143.600006103515625</ele>
        <time>2016-08-12T17:37:54.000Z</time>
        <extensions>
          <ns3:TrackPointExtension>
            <ns3:atemp>20.0</ns3:atemp>
            <ns3:hr>125</ns3:hr>
          </ns3:TrackPointExtension>
        </extensions>
      </trkpt>
      <trkpt lat="-22.1202516742050647735595703125" lon="166.444958187639713287353515625">
        <ele>143.8000030517578125</ele>
        <time>2016-08-12T17:37:55.000Z</time>
        <extensions>
          <ns3:TrackPointExtension>
            <ns3:atemp>20.0</ns3:atemp>
            <ns3:hr>125</ns3:hr>
          </ns3:TrackPointExtension>
        </extensions>
      </trkpt>
      <trkpt lat="-22.12025712244212627410888671875" lon="166.444979645311832427978515625">
        <ele>144</ele>
        <time>2016-08-12T17:37:56.000Z</time>
        <extensions>
          <ns3:TrackPointExtension>
            <ns3:atemp>20.0</ns3:atemp>
            <ns3:hr>125</ns3:hr>
          </ns3:TrackPointExtension>
        </extensions>
      </trkpt>
      <trkpt lat="-22.12025997228920459747314453125" lon="166.445003114640712738037109375">
        <ele>144.1999969482421875</ele>
        <time>2016-08-12T17:37:57.000Z</time>
        <extensions>
          <ns3:TrackPointExtension>
            <ns3:atemp>20.0</ns3:atemp>
            <ns3:hr>125</ns3:hr>
          </ns3:TrackPointExtension>
        </extensions>
      </trkpt>
      <trkpt lat="-22.120265923440456390380859375" lon="166.44502348266541957855224609375">
        <ele>144.1999969482421875</ele>
        <time>2016-08-12T17:37:58.000Z</time>
        <extensions>
          <ns3:TrackPointExtension>
            <ns3:atemp>20.0</ns3:atemp>
            <ns3:hr>125</ns3:hr>
          </ns3:TrackPointExtension>
        </extensions>
      </trkpt>
      <trkpt lat="-22.1202694438397884368896484375" lon="166.4450445212423801422119140625">
        <ele>144.399993896484375</ele>
        <time>2016-08-12T17:37:59.000Z</time>
        <extensions>
          <ns3:TrackPointExtension>
            <ns3:atemp>20.0</ns3:atemp>
            <ns3:hr>125</ns3:hr>
          </ns3:TrackPointExtension>
        </extensions>
      </trkpt>
      <trkpt lat="-22.12027472443878650665283203125" lon="166.4450686611235141754150390625">
        <ele>144.600006103515625</ele>
        <time>2016-08-12T17:38:00.000Z</time>
        <extensions>
          <ns3:TrackPointExtension>
            <ns3:atemp>20.0</ns3:atemp>
            <ns3:hr>125</ns3:hr>
          </ns3:TrackPointExtension>
        </extensions>
      </trkpt>
      <trkpt lat="-22.120280675590038299560546875" lon="166.4450924657285213470458984375">
        <ele>144.600006103515625</ele>
        <time>2016-08-12T17:38:01.000Z</time>
        <extensions>
          <ns3:TrackPointExtension>
            <ns3:atemp>20.0</ns3:atemp>
            <ns3:hr>125</ns3:hr>
          </ns3:TrackPointExtension>
        </extensions>
      </trkpt>
      <trkpt lat="-22.120288051664829254150390625" lon="166.4451115764677524566650390625">
        <ele>144.8000030517578125</ele>
        <time>2016-08-12T17:38:02.000Z</time>
        <extensions>
          <ns3:TrackPointExtension>
            <ns3:atemp>20.0</ns3:atemp>
            <ns3:hr>125</ns3:hr>
          </ns3:TrackPointExtension>
        </extensions>
      </trkpt>
      <trkpt lat="-22.1202962659299373626708984375" lon="166.44513261504471302032470703125">
        <ele>145</ele>
        <time>2016-08-12T17:38:03.000Z</time>
        <extensions>
          <ns3:TrackPointExtension>
            <ns3:atemp>20.0</ns3:atemp>
            <ns3:hr>125</ns3:hr>
          </ns3:TrackPointExtension>
        </extensions>
      </trkpt>
      <trkpt lat="-22.12030188180506229400634765625" lon="166.4451531507074832916259765625">
        <ele>144.8000030517578125</ele>
        <time>2016-08-12T17:38:04.000Z</time>
        <extensions>
          <ns3:TrackPointExtension>
            <ns3:atemp>20.0</ns3:atemp>
            <ns3:hr>125</ns3:hr>
          </ns3:TrackPointExtension>
        </extensions>
      </trkpt>
      <trkpt lat="-22.12030590511858463287353515625" lon="166.44517301581799983978271484375">
        <ele>145.1999969482421875</ele>
        <time>2016-08-12T17:38:05.000Z</time>
        <extensions>
          <ns3:TrackPointExtension>
            <ns3:atemp>20.0</ns3:atemp>
            <ns3:hr>125</ns3:hr>
          </ns3:TrackPointExtension>
        </extensions>
      </trkpt>
      <trkpt lat="-22.12030992843210697174072265625" lon="166.445197574794292449951171875">
        <ele>145.399993896484375</ele>
        <time>2016-08-12T17:38:06.000Z</time>
        <extensions>
          <ns3:TrackPointExtension>
            <ns3:atemp>20.0</ns3:atemp>
            <ns3:hr>125</ns3:hr>
          </ns3:TrackPointExtension>
        </extensions>
      </trkpt>
      <trkpt lat="-22.12031529285013675689697265625" lon="166.44521894864737987518310546875">
        <ele>145.399993896484375</ele>
        <time>2016-08-12T17:38:07.000Z</time>
        <extensions>
          <ns3:TrackPointExtension>
            <ns3:atemp>20.0</ns3:atemp>
            <ns3:hr>125</ns3:hr>
          </ns3:TrackPointExtension>
        </extensions>
      </trkpt>
      <trkpt lat="-22.12031655013561248779296875" lon="166.4452389813959598541259765625">
        <ele>145.600006103515625</ele>
        <time>2016-08-12T17:38:08.000Z</time>
        <extensions>
          <ns3:TrackPointExtension>
            <ns3:atemp>20.0</ns3:atemp>
            <ns3:hr>126</ns3:hr>
          </ns3:TrackPointExtension>
        </extensions>
      </trkpt>
      <trkpt lat="-22.1203143708407878875732421875" lon="166.4452621154487133026123046875">
        <ele>145.8000030517578125</ele>
        <time>2016-08-12T17:38:09.000Z</time>
        <extensions>
          <ns3:TrackPointExtension>
            <ns3:atemp>20.0</ns3:atemp>
            <ns3:hr>126</ns3:hr>
          </ns3:TrackPointExtension>
        </extensions>
      </trkpt>
      <trkpt lat="-22.120316214859485626220703125" lon="166.4452810585498809814453125">
        <ele>145.8000030517578125</ele>
        <time>2016-08-12T17:38:10.000Z</time>
        <extensions>
          <ns3:TrackPointExtension>
            <ns3:atemp>20.0</ns3:atemp>
            <ns3:hr>126</ns3:hr>
          </ns3:TrackPointExtension>
        </extensions>
      </trkpt>
      <trkpt lat="-22.12031311355531215667724609375" lon="166.4453010074794292449951171875">
        <ele>145.8000030517578125</ele>
        <time>2016-08-12T17:38:11.000Z</time>
        <extensions>
          <ns3:TrackPointExtension>
            <ns3:atemp>20.0</ns3:atemp>
            <ns3:hr>126</ns3:hr>
          </ns3:TrackPointExtension>
        </extensions>
      </trkpt>
      <trkpt lat="-22.12030976079404354095458984375" lon="166.44532204605638980865478515625">
        <ele>146</ele>
        <time>2016-08-12T17:38:12.000Z</time>
        <extensions>
          <ns3:TrackPointExtension>
            <ns3:atemp>20.0</ns3:atemp>
            <ns3:hr>126</ns3:hr>
          </ns3:TrackPointExtension>
        </extensions>
      </trkpt>
      <trkpt lat="-22.12030976079404354095458984375" lon="166.44534082151949405670166015625">
        <ele>146.1999969482421875</ele>
        <time>2016-08-12T17:38:13.000Z</time>
        <extensions>
          <ns3:TrackPointExtension>
            <ns3:atemp>20.0</ns3:atemp>
            <ns3:hr>126</ns3:hr>
          </ns3:TrackPointExtension>
        </extensions>
      </trkpt>
      <trkpt lat="-22.1203046478331089019775390625" lon="166.44536596722900867462158203125">
        <ele>146.600006103515625</ele>
        <time>2016-08-12T17:38:14.000Z</time>
        <extensions>
          <ns3:TrackPointExtension>
            <ns3:atemp>20.0</ns3:atemp>
            <ns3:hr>127</ns3:hr>
          </ns3:TrackPointExtension>
        </extensions>
      </trkpt>
      <trkpt lat="-22.12030188180506229400634765625" lon="166.445392034947872161865234375">
        <ele>146.8000030517578125</ele>
        <time>2016-08-12T17:38:15.000Z</time>
        <extensions>
          <ns3:TrackPointExtension>
            <ns3:atemp>20.0</ns3:atemp>
            <ns3:hr>127</ns3:hr>
          </ns3:TrackPointExtension>
        </extensions>
      </trkpt>
      <trkpt lat="-22.1203051507472991943359375" lon="166.44540913403034210205078125">
        <ele>147</ele>
        <time>2016-08-12T17:38:16.000Z</time>
        <extensions>
          <ns3:TrackPointExtension>
            <ns3:atemp>20.0</ns3:atemp>
            <ns3:hr>128</ns3:hr>
          </ns3:TrackPointExtension>
        </extensions>
      </trkpt>
      <trkpt lat="-22.12030422873795032501220703125" lon="166.44542925059795379638671875">
        <ele>147.1999969482421875</ele>
        <time>2016-08-12T17:38:17.000Z</time>
        <extensions>
          <ns3:TrackPointExtension>
            <ns3:atemp>20.0</ns3:atemp>
            <ns3:hr>128</ns3:hr>
          </ns3:TrackPointExtension>
        </extensions>
      </trkpt>
      <trkpt lat="-22.12030439637601375579833984375" lon="166.445448696613311767578125">
        <ele>147.1999969482421875</ele>
        <time>2016-08-12T17:38:18.000Z</time>
        <extensions>
          <ns3:TrackPointExtension>
            <ns3:atemp>20.0</ns3:atemp>
            <ns3:hr>128</ns3:hr>
          </ns3:TrackPointExtension>
        </extensions>
      </trkpt>
      <trkpt lat="-22.12030456401407718658447265625" lon="166.44546604715287685394287109375">
        <ele>147.399993896484375</ele>
        <time>2016-08-12T17:38:19.000Z</time>
        <extensions>
          <ns3:TrackPointExtension>
            <ns3:atemp>20.0</ns3:atemp>
            <ns3:hr>127</ns3:hr>
          </ns3:TrackPointExtension>
        </extensions>
      </trkpt>
      <trkpt lat="-22.1203029714524745941162109375" lon="166.44548297859728336334228515625">
        <ele>147.600006103515625</ele>
        <time>2016-08-12T17:38:20.000Z</time>
        <extensions>
          <ns3:TrackPointExtension>
            <ns3:atemp>20.0</ns3:atemp>
            <ns3:hr>128</ns3:hr>
          </ns3:TrackPointExtension>
        </extensions>
      </trkpt>
      <trkpt lat="-22.12029651738703250885009765625" lon="166.4454998262226581573486328125">
        <ele>147.8000030517578125</ele>
        <time>2016-08-12T17:38:21.000Z</time>
        <extensions>
          <ns3:TrackPointExtension>
            <ns3:atemp>20.0</ns3:atemp>
            <ns3:hr>129</ns3:hr>
          </ns3:TrackPointExtension>
        </extensions>
      </trkpt>
      <trkpt lat="-22.12029266171157360076904296875" lon="166.44551734440028667449951171875">
        <ele>148</ele>
        <time>2016-08-12T17:38:22.000Z</time>
        <extensions>
          <ns3:TrackPointExtension>
            <ns3:atemp>20.0</ns3:atemp>
            <ns3:hr>130</ns3:hr>
          </ns3:TrackPointExtension>
        </extensions>
      </trkpt>
      <trkpt lat="-22.12028972804546356201171875" lon="166.4455390535295009613037109375">
        <ele>148.399993896484375</ele>
        <time>2016-08-12T17:38:23.000Z</time>
        <extensions>
          <ns3:TrackPointExtension>
            <ns3:atemp>20.0</ns3:atemp>
            <ns3:hr>131</ns3:hr>
          </ns3:TrackPointExtension>
        </extensions>
      </trkpt>
      <trkpt lat="-22.12028679437935352325439453125" lon="166.4455591700971126556396484375">
        <ele>148.8000030517578125</ele>
        <time>2016-08-12T17:38:24.000Z</time>
        <extensions>
          <ns3:TrackPointExtension>
            <ns3:atemp>20.0</ns3:atemp>
            <ns3:hr>132</ns3:hr>
          </ns3:TrackPointExtension>
        </extensions>
      </trkpt>
      <trkpt lat="-22.120285369455814361572265625" lon="166.4455761015415191650390625">
        <ele>149</ele>
        <time>2016-08-12T17:38:25.000Z</time>
        <extensions>
          <ns3:TrackPointExtension>
            <ns3:atemp>20.0</ns3:atemp>
            <ns3:hr>133</ns3:hr>
          </ns3:TrackPointExtension>
        </extensions>
      </trkpt>
      <trkpt lat="-22.120284028351306915283203125" lon="166.44559957087039947509765625">
        <ele>149.1999969482421875</ele>
        <time>2016-08-12T17:38:26.000Z</time>
        <extensions>
          <ns3:TrackPointExtension>
            <ns3:atemp>20.0</ns3:atemp>
            <ns3:hr>134</ns3:hr>
          </ns3:TrackPointExtension>
        </extensions>
      </trkpt>
      <trkpt lat="-22.1202848665416240692138671875" lon="166.44562362693250179290771484375">
        <ele>149.399993896484375</ele>
        <time>2016-08-12T17:38:27.000Z</time>
        <extensions>
          <ns3:TrackPointExtension>
            <ns3:atemp>20.0</ns3:atemp>
            <ns3:hr>134</ns3:hr>
          </ns3:TrackPointExtension>
        </extensions>
      </trkpt>
      <trkpt lat="-22.1202845312654972076416015625" lon="166.44564709626138210296630859375">
        <ele>149.600006103515625</ele>
        <time>2016-08-12T17:38:28.000Z</time>
        <extensions>
          <ns3:TrackPointExtension>
            <ns3:atemp>20.0</ns3:atemp>
            <ns3:hr>135</ns3:hr>
          </ns3:TrackPointExtension>
        </extensions>
      </trkpt>
      <trkpt lat="-22.12028545327484607696533203125" lon="166.44567140378057956695556640625">
        <ele>149.8000030517578125</ele>
        <time>2016-08-12T17:38:29.000Z</time>
        <extensions>
          <ns3:TrackPointExtension>
            <ns3:atemp>20.0</ns3:atemp>
            <ns3:hr>135</ns3:hr>
          </ns3:TrackPointExtension>
        </extensions>
      </trkpt>
      <trkpt lat="-22.12028813548386096954345703125" lon="166.445695795118808746337890625">
        <ele>150</ele>
        <time>2016-08-12T17:38:30.000Z</time>
        <extensions>
          <ns3:TrackPointExtension>
            <ns3:atemp>20.0</ns3:atemp>
            <ns3:hr>135</ns3:hr>
          </ns3:TrackPointExtension>
        </extensions>
      </trkpt>
      <trkpt lat="-22.12029375135898590087890625" lon="166.4457174204289913177490234375">
        <ele>150.399993896484375</ele>
        <time>2016-08-12T17:38:31.000Z</time>
        <extensions>
          <ns3:TrackPointExtension>
            <ns3:atemp>20.0</ns3:atemp>
            <ns3:hr>136</ns3:hr>
          </ns3:TrackPointExtension>
        </extensions>
      </trkpt>
      <trkpt lat="-22.1202959306538105010986328125" lon="166.4457418955862522125244140625">
        <ele>150.600006103515625</ele>
        <time>2016-08-12T17:38:32.000Z</time>
        <extensions>
          <ns3:TrackPointExtension>
            <ns3:atemp>20.0</ns3:atemp>
            <ns3:hr>136</ns3:hr>
          </ns3:TrackPointExtension>
        </extensions>
      </trkpt>
      <trkpt lat="-22.12030288763344287872314453125" lon="166.445766203105449676513671875">
        <ele>150.8000030517578125</ele>
        <time>2016-08-12T17:38:33.000Z</time>
        <extensions>
          <ns3:TrackPointExtension>
            <ns3:atemp>20.0</ns3:atemp>
            <ns3:hr>136</ns3:hr>
          </ns3:TrackPointExtension>
        </extensions>
      </trkpt>
      <trkpt lat="-22.12031579576432704925537109375" lon="166.44578623585402965545654296875">
        <ele>150.8000030517578125</ele>
        <time>2016-08-12T17:38:34.000Z</time>
        <extensions>
          <ns3:TrackPointExtension>
            <ns3:atemp>20.0</ns3:atemp>
            <ns3:hr>136</ns3:hr>
          </ns3:TrackPointExtension>
        </extensions>
      </trkpt>
      <trkpt lat="-22.12033264338970184326171875" lon="166.44580584950745105743408203125">
        <ele>151</ele>
        <time>2016-08-12T17:38:35.000Z</time>
        <extensions>
          <ns3:TrackPointExtension>
            <ns3:atemp>20.0</ns3:atemp>
            <ns3:hr>136</ns3:hr>
          </ns3:TrackPointExtension>
        </extensions>
      </trkpt>
      <trkpt lat="-22.12035016156733036041259765625" lon="166.4458243735134601593017578125">
        <ele>151.1999969482421875</ele>
        <time>2016-08-12T17:38:36.000Z</time>
        <extensions>
          <ns3:TrackPointExtension>
            <ns3:atemp>20.0</ns3:atemp>
            <ns3:hr>137</ns3:hr>
          </ns3:TrackPointExtension>
        </extensions>
      </trkpt>
      <trkpt lat="-22.12036826647818088531494140625" lon="166.44584088586270809173583984375">
        <ele>151.399993896484375</ele>
        <time>2016-08-12T17:38:37.000Z</time>
        <extensions>
          <ns3:TrackPointExtension>
            <ns3:atemp>20.0</ns3:atemp>
            <ns3:hr>138</ns3:hr>
          </ns3:TrackPointExtension>
        </extensions>
      </trkpt>
      <trkpt lat="-22.12038687430322170257568359375" lon="166.44585597328841686248779296875">
        <ele>151.399993896484375</ele>
        <time>2016-08-12T17:38:38.000Z</time>
        <extensions>
          <ns3:TrackPointExtension>
            <ns3:atemp>20.0</ns3:atemp>
            <ns3:hr>138</ns3:hr>
          </ns3:TrackPointExtension>
        </extensions>
      </trkpt>
      <trkpt lat="-22.12040732614696025848388671875" lon="166.4458676241338253021240234375">
        <ele>151.8000030517578125</ele>
        <time>2016-08-12T17:38:39.000Z</time>
        <extensions>
          <ns3:TrackPointExtension>
            <ns3:atemp>20.0</ns3:atemp>
            <ns3:hr>138</ns3:hr>
          </ns3:TrackPointExtension>
        </extensions>
      </trkpt>
      <trkpt lat="-22.12042593397200107574462890625" lon="166.445880867540836334228515625">
        <ele>152</ele>
        <time>2016-08-12T17:38:40.000Z</time>
        <extensions>
          <ns3:TrackPointExtension>
            <ns3:atemp>20.0</ns3:atemp>
            <ns3:hr>139</ns3:hr>
          </ns3:TrackPointExtension>
        </extensions>
      </trkpt>
      <trkpt lat="-22.12044621817767620086669921875" lon="166.44589520059525966644287109375">
        <ele>152</ele>
        <time>2016-08-12T17:38:41.000Z</time>
        <extensions>
          <ns3:TrackPointExtension>
            <ns3:atemp>20.0</ns3:atemp>
            <ns3:hr>139</ns3:hr>
          </ns3:TrackPointExtension>
        </extensions>
      </trkpt>
      <trkpt lat="-22.1204682625830173492431640625" lon="166.44590777345001697540283203125">
        <ele>152</ele>
        <time>2016-08-12T17:38:42.000Z</time>
        <extensions>
          <ns3:TrackPointExtension>
            <ns3:atemp>20.0</ns3:atemp>
            <ns3:hr>139</ns3:hr>
          </ns3:TrackPointExtension>
        </extensions>
      </trkpt>
      <trkpt lat="-22.1204848587512969970703125" lon="166.4459229446947574615478515625">
        <ele>152</ele>
        <time>2016-08-12T17:38:43.000Z</time>
        <extensions>
          <ns3:TrackPointExtension>
            <ns3:atemp>20.0</ns3:atemp>
            <ns3:hr>139</ns3:hr>
          </ns3:TrackPointExtension>
        </extensions>
      </trkpt>
      <trkpt lat="-22.12050355039536952972412109375" lon="166.4459397085011005401611328125">
        <ele>152.1999969482421875</ele>
        <time>2016-08-12T17:38:44.000Z</time>
        <extensions>
          <ns3:TrackPointExtension>
            <ns3:atemp>20.0</ns3:atemp>
            <ns3:hr>139</ns3:hr>
          </ns3:TrackPointExtension>
        </extensions>
      </trkpt>
      <trkpt lat="-22.12052383460104465484619140625" lon="166.4459544606506824493408203125">
        <ele>152.1999969482421875</ele>
        <time>2016-08-12T17:38:45.000Z</time>
        <extensions>
          <ns3:TrackPointExtension>
            <ns3:atemp>20.0</ns3:atemp>
            <ns3:hr>139</ns3:hr>
          </ns3:TrackPointExtension>
        </extensions>
      </trkpt>
      <trkpt lat="-22.12054193951189517974853515625" lon="166.44596879370510578155517578125">
        <ele>152.600006103515625</ele>
        <time>2016-08-12T17:38:46.000Z</time>
        <extensions>
          <ns3:TrackPointExtension>
            <ns3:atemp>20.0</ns3:atemp>
            <ns3:hr>139</ns3:hr>
          </ns3:TrackPointExtension>
        </extensions>
      </trkpt>
      <trkpt lat="-22.1205594576895236968994140625" lon="166.445985138416290283203125">
        <ele>153</ele>
        <time>2016-08-12T17:38:47.000Z</time>
        <extensions>
          <ns3:TrackPointExtension>
            <ns3:atemp>20.0</ns3:atemp>
            <ns3:hr>140</ns3:hr>
          </ns3:TrackPointExtension>
        </extensions>
      </trkpt>
      <trkpt lat="-22.12057379074394702911376953125" lon="166.44600567407906055450439453125">
        <ele>153</ele>
        <time>2016-08-12T17:38:48.000Z</time>
        <extensions>
          <ns3:TrackPointExtension>
            <ns3:atemp>20.0</ns3:atemp>
            <ns3:hr>140</ns3:hr>
          </ns3:TrackPointExtension>
        </extensions>
      </trkpt>
      <trkpt lat="-22.12058552540838718414306640625" lon="166.44602629356086254119873046875">
        <ele>153</ele>
        <time>2016-08-12T17:38:49.000Z</time>
        <extensions>
          <ns3:TrackPointExtension>
            <ns3:atemp>20.0</ns3:atemp>
            <ns3:hr>140</ns3:hr>
          </ns3:TrackPointExtension>
        </extensions>
      </trkpt>
      <trkpt lat="-22.1205993555486202239990234375" lon="166.44604641012847423553466796875">
        <ele>153.1999969482421875</ele>
        <time>2016-08-12T17:38:50.000Z</time>
        <extensions>
          <ns3:TrackPointExtension>
            <ns3:atemp>20.0</ns3:atemp>
            <ns3:hr>140</ns3:hr>
          </ns3:TrackPointExtension>
        </extensions>
      </trkpt>
      <trkpt lat="-22.12061184458434581756591796875" lon="166.446065269410610198974609375">
        <ele>153.399993896484375</ele>
        <time>2016-08-12T17:38:51.000Z</time>
        <extensions>
          <ns3:TrackPointExtension>
            <ns3:atemp>20.0</ns3:atemp>
            <ns3:hr>140</ns3:hr>
          </ns3:TrackPointExtension>
        </extensions>
      </trkpt>
      <trkpt lat="-22.12062542326748371124267578125" lon="166.4460832066833972930908203125">
        <ele>153.8000030517578125</ele>
        <time>2016-08-12T17:38:52.000Z</time>
        <extensions>
          <ns3:TrackPointExtension>
            <ns3:atemp>20.0</ns3:atemp>
            <ns3:hr>140</ns3:hr>
          </ns3:TrackPointExtension>
        </extensions>
      </trkpt>
      <trkpt lat="-22.12063950486481189727783203125" lon="166.4461023174226284027099609375">
        <ele>153.8000030517578125</ele>
        <time>2016-08-12T17:38:53.000Z</time>
        <extensions>
          <ns3:TrackPointExtension>
            <ns3:atemp>20.0</ns3:atemp>
            <ns3:hr>140</ns3:hr>
          </ns3:TrackPointExtension>
        </extensions>
      </trkpt>
      <trkpt lat="-22.1206529997289180755615234375" lon="166.4461207576096057891845703125">
        <ele>153.8000030517578125</ele>
        <time>2016-08-12T17:38:54.000Z</time>
        <extensions>
          <ns3:TrackPointExtension>
            <ns3:atemp>20.0</ns3:atemp>
            <ns3:hr>140</ns3:hr>
          </ns3:TrackPointExtension>
        </extensions>
      </trkpt>
      <trkpt lat="-22.12066523730754852294921875" lon="166.446139700710773468017578125">
        <ele>153.8000030517578125</ele>
        <time>2016-08-12T17:38:55.000Z</time>
        <extensions>
          <ns3:TrackPointExtension>
            <ns3:atemp>20.0</ns3:atemp>
            <ns3:hr>139</ns3:hr>
          </ns3:TrackPointExtension>
        </extensions>
      </trkpt>
      <trkpt lat="-22.12067789398133754730224609375" lon="166.4461593143641948699951171875">
        <ele>154.1999969482421875</ele>
        <time>2016-08-12T17:38:56.000Z</time>
        <extensions>
          <ns3:TrackPointExtension>
            <ns3:atemp>20.0</ns3:atemp>
            <ns3:hr>140</ns3:hr>
          </ns3:TrackPointExtension>
        </extensions>
      </trkpt>
      <trkpt lat="-22.120688371360301971435546875" lon="166.44617783837020397186279296875">
        <ele>154.399993896484375</ele>
        <time>2016-08-12T17:38:57.000Z</time>
        <extensions>
          <ns3:TrackPointExtension>
            <ns3:atemp>20.0</ns3:atemp>
            <ns3:hr>140</ns3:hr>
          </ns3:TrackPointExtension>
        </extensions>
      </trkpt>
      <trkpt lat="-22.12069566361606121063232421875" lon="166.446198709309101104736328125">
        <ele>154.399993896484375</ele>
        <time>2016-08-12T17:38:58.000Z</time>
        <extensions>
          <ns3:TrackPointExtension>
            <ns3:atemp>20.0</ns3:atemp>
            <ns3:hr>140</ns3:hr>
          </ns3:TrackPointExtension>
        </extensions>
      </trkpt>
      <trkpt lat="-22.1207039617002010345458984375" lon="166.4462225139141082763671875">
        <ele>154.600006103515625</ele>
        <time>2016-08-12T17:38:59.000Z</time>
        <extensions>
          <ns3:TrackPointExtension>
            <ns3:atemp>20.0</ns3:atemp>
            <ns3:hr>140</ns3:hr>
          </ns3:TrackPointExtension>
        </extensions>
      </trkpt>
      <trkpt lat="-22.1207093261182308197021484375" lon="166.44624506123363971710205078125">
        <ele>154.8000030517578125</ele>
        <time>2016-08-12T17:39:00.000Z</time>
        <extensions>
          <ns3:TrackPointExtension>
            <ns3:atemp>20.0</ns3:atemp>
            <ns3:hr>140</ns3:hr>
          </ns3:TrackPointExtension>
        </extensions>
      </trkpt>
      <trkpt lat="-22.12071091867983341217041015625" lon="166.4462686143815517425537109375">
        <ele>155</ele>
        <time>2016-08-12T17:39:01.000Z</time>
        <extensions>
          <ns3:TrackPointExtension>
            <ns3:atemp>20.0</ns3:atemp>
            <ns3:hr>140</ns3:hr>
          </ns3:TrackPointExtension>
        </extensions>
      </trkpt>
      <trkpt lat="-22.1207141876220703125" lon="166.44629501737654209136962890625">
        <ele>155</ele>
        <time>2016-08-12T17:39:02.000Z</time>
        <extensions>
          <ns3:TrackPointExtension>
            <ns3:atemp>20.0</ns3:atemp>
            <ns3:hr>140</ns3:hr>
          </ns3:TrackPointExtension>
        </extensions>
      </trkpt>
      <trkpt lat="-22.12071661837399005889892578125" lon="166.44631949253380298614501953125">
        <ele>155.1999969482421875</ele>
        <time>2016-08-12T17:39:03.000Z</time>
        <extensions>
          <ns3:TrackPointExtension>
            <ns3:atemp>20.0</ns3:atemp>
            <ns3:hr>140</ns3:hr>
          </ns3:TrackPointExtension>
        </extensions>
      </trkpt>
      <trkpt lat="-22.1207167021930217742919921875" lon="166.44634212367236614227294921875">
        <ele>155.399993896484375</ele>
        <time>2016-08-12T17:39:04.000Z</time>
        <extensions>
          <ns3:TrackPointExtension>
            <ns3:atemp>20.0</ns3:atemp>
            <ns3:hr>140</ns3:hr>
          </ns3:TrackPointExtension>
        </extensions>
      </trkpt>
      <trkpt lat="-22.1207170374691486358642578125" lon="166.4463668502867221832275390625">
        <ele>155.399993896484375</ele>
        <time>2016-08-12T17:39:05.000Z</time>
        <extensions>
          <ns3:TrackPointExtension>
            <ns3:atemp>20.0</ns3:atemp>
            <ns3:hr>140</ns3:hr>
          </ns3:TrackPointExtension>
        </extensions>
      </trkpt>
      <trkpt lat="-22.12071661837399005889892578125" lon="166.44639224745333194732666015625">
        <ele>155.600006103515625</ele>
        <time>2016-08-12T17:39:06.000Z</time>
        <extensions>
          <ns3:TrackPointExtension>
            <ns3:atemp>20.0</ns3:atemp>
            <ns3:hr>140</ns3:hr>
          </ns3:TrackPointExtension>
        </extensions>
      </trkpt>
      <trkpt lat="-22.12071376852691173553466796875" lon="166.4464171417057514190673828125">
        <ele>155.600006103515625</ele>
        <time>2016-08-12T17:39:07.000Z</time>
        <extensions>
          <ns3:TrackPointExtension>
            <ns3:atemp>20.0</ns3:atemp>
            <ns3:hr>140</ns3:hr>
          </ns3:TrackPointExtension>
        </extensions>
      </trkpt>
      <trkpt lat="-22.1207096613943576812744140625" lon="166.44644404761493206024169921875">
        <ele>155.600006103515625</ele>
        <time>2016-08-12T17:39:08.000Z</time>
        <extensions>
          <ns3:TrackPointExtension>
            <ns3:atemp>20.0</ns3:atemp>
            <ns3:hr>140</ns3:hr>
          </ns3:TrackPointExtension>
        </extensions>
      </trkpt>
      <trkpt lat="-22.12071008048951625823974609375" lon="166.4464681036770343780517578125">
        <ele>155.8000030517578125</ele>
        <time>2016-08-12T17:39:09.000Z</time>
        <extensions>
          <ns3:TrackPointExtension>
            <ns3:atemp>20.0</ns3:atemp>
            <ns3:hr>140</ns3:hr>
          </ns3:TrackPointExtension>
        </extensions>
      </trkpt>
      <trkpt lat="-22.1207143552601337432861328125" lon="166.44649098627269268035888671875">
        <ele>155.8000030517578125</ele>
        <time>2016-08-12T17:39:10.000Z</time>
        <extensions>
          <ns3:TrackPointExtension>
            <ns3:atemp>20.0</ns3:atemp>
            <ns3:hr>140</ns3:hr>
          </ns3:TrackPointExtension>
        </extensions>
      </trkpt>
      <trkpt lat="-22.12072533555328845977783203125" lon="166.4465137012302875518798828125">
        <ele>155.600006103515625</ele>
        <time>2016-08-12T17:39:11.000Z</time>
        <extensions>
          <ns3:TrackPointExtension>
            <ns3:atemp>20.0</ns3:atemp>
            <ns3:hr>139</ns3:hr>
          </ns3:TrackPointExtension>
        </extensions>
      </trkpt>
      <trkpt lat="-22.1207351423799991607666015625" lon="166.4465371705591678619384765625">
        <ele>155.600006103515625</ele>
        <time>2016-08-12T17:39:12.000Z</time>
        <extensions>
          <ns3:TrackPointExtension>
            <ns3:atemp>20.0</ns3:atemp>
            <ns3:hr>139</ns3:hr>
          </ns3:TrackPointExtension>
        </extensions>
      </trkpt>
      <trkpt lat="-22.12074243463575839996337890625" lon="166.44656248390674591064453125">
        <ele>155.8000030517578125</ele>
        <time>2016-08-12T17:39:13.000Z</time>
        <extensions>
          <ns3:TrackPointExtension>
            <ns3:atemp>20.0</ns3:atemp>
            <ns3:hr>139</ns3:hr>
          </ns3:TrackPointExtension>
        </extensions>
      </trkpt>
      <trkpt lat="-22.120751403272151947021484375" lon="166.44658653996884822845458984375">
        <ele>155.600006103515625</ele>
        <time>2016-08-12T17:39:14.000Z</time>
        <extensions>
          <ns3:TrackPointExtension>
            <ns3:atemp>20.0</ns3:atemp>
            <ns3:hr>139</ns3:hr>
          </ns3:TrackPointExtension>
        </extensions>
      </trkpt>
      <trkpt lat="-22.120759449899196624755859375" lon="166.4466085843741893768310546875">
        <ele>155.600006103515625</ele>
        <time>2016-08-12T17:39:15.000Z</time>
        <extensions>
          <ns3:TrackPointExtension>
            <ns3:atemp>20.0</ns3:atemp>
            <ns3:hr>139</ns3:hr>
          </ns3:TrackPointExtension>
        </extensions>
      </trkpt>
      <trkpt lat="-22.1207643114030361175537109375" lon="166.44663264043629169464111328125">
        <ele>155.600006103515625</ele>
        <time>2016-08-12T17:39:16.000Z</time>
        <extensions>
          <ns3:TrackPointExtension>
            <ns3:atemp>20.0</ns3:atemp>
            <ns3:hr>139</ns3:hr>
          </ns3:TrackPointExtension>
        </extensions>
      </trkpt>
      <trkpt lat="-22.12076540105044841766357421875" lon="166.44666164182126522064208984375">
        <ele>155.600006103515625</ele>
        <time>2016-08-12T17:39:17.000Z</time>
        <extensions>
          <ns3:TrackPointExtension>
            <ns3:atemp>20.0</ns3:atemp>
            <ns3:hr>139</ns3:hr>
          </ns3:TrackPointExtension>
        </extensions>
      </trkpt>
      <trkpt lat="-22.12076690979301929473876953125" lon="166.44668745808303356170654296875">
        <ele>155.8000030517578125</ele>
        <time>2016-08-12T17:39:18.000Z</time>
        <extensions>
          <ns3:TrackPointExtension>
            <ns3:atemp>20.0</ns3:atemp>
            <ns3:hr>139</ns3:hr>
          </ns3:TrackPointExtension>
        </extensions>
      </trkpt>
      <trkpt lat="-22.120773531496524810791015625" lon="166.44671134650707244873046875">
        <ele>155.8000030517578125</ele>
        <time>2016-08-12T17:39:19.000Z</time>
        <extensions>
          <ns3:TrackPointExtension>
            <ns3:atemp>20.0</ns3:atemp>
            <ns3:hr>139</ns3:hr>
          </ns3:TrackPointExtension>
        </extensions>
      </trkpt>
      <trkpt lat="-22.1207780577242374420166015625" lon="166.44673657603561878204345703125">
        <ele>155.600006103515625</ele>
        <time>2016-08-12T17:39:20.000Z</time>
        <extensions>
          <ns3:TrackPointExtension>
            <ns3:atemp>20.0</ns3:atemp>
            <ns3:hr>139</ns3:hr>
          </ns3:TrackPointExtension>
        </extensions>
      </trkpt>
      <trkpt lat="-22.12078115902841091156005859375" lon="166.44676373340189456939697265625">
        <ele>155.399993896484375</ele>
        <time>2016-08-12T17:39:21.000Z</time>
        <extensions>
          <ns3:TrackPointExtension>
            <ns3:atemp>20.0</ns3:atemp>
            <ns3:hr>139</ns3:hr>
          </ns3:TrackPointExtension>
        </extensions>
      </trkpt>
      <trkpt lat="-22.12078568525612354278564453125" lon="166.4467862807214260101318359375">
        <ele>155.399993896484375</ele>
        <time>2016-08-12T17:39:22.000Z</time>
        <extensions>
          <ns3:TrackPointExtension>
            <ns3:atemp>20.0</ns3:atemp>
            <ns3:hr>139</ns3:hr>
          </ns3:TrackPointExtension>
        </extensions>
      </trkpt>
      <trkpt lat="-22.12078769691288471221923828125" lon="166.4468074031174182891845703125">
        <ele>155.1999969482421875</ele>
        <time>2016-08-12T17:39:23.000Z</time>
        <extensions>
          <ns3:TrackPointExtension>
            <ns3:atemp>20.0</ns3:atemp>
            <ns3:hr>139</ns3:hr>
          </ns3:TrackPointExtension>
        </extensions>
      </trkpt>
      <trkpt lat="-22.1207850985229015350341796875" lon="166.4468300342559814453125">
        <ele>155</ele>
        <time>2016-08-12T17:39:24.000Z</time>
        <extensions>
          <ns3:TrackPointExtension>
            <ns3:atemp>20.0</ns3:atemp>
            <ns3:hr>139</ns3:hr>
          </ns3:TrackPointExtension>
        </extensions>
      </trkpt>
      <trkpt lat="-22.120776884257793426513671875" lon="166.4468546770513057708740234375">
        <ele>154.8000030517578125</ele>
        <time>2016-08-12T17:39:25.000Z</time>
        <extensions>
          <ns3:TrackPointExtension>
            <ns3:atemp>20.0</ns3:atemp>
            <ns3:hr>138</ns3:hr>
          </ns3:TrackPointExtension>
        </extensions>
      </trkpt>
      <trkpt lat="-22.12077193893492221832275390625" lon="166.44687940366566181182861328125">
        <ele>154.600006103515625</ele>
        <time>2016-08-12T17:39:26.000Z</time>
        <extensions>
          <ns3:TrackPointExtension>
            <ns3:atemp>20.0</ns3:atemp>
            <ns3:hr>138</ns3:hr>
          </ns3:TrackPointExtension>
        </extensions>
      </trkpt>
      <trkpt lat="-22.1207676641643047332763671875" lon="166.4469009451568126678466796875">
        <ele>154.399993896484375</ele>
        <time>2016-08-12T17:39:27.000Z</time>
        <extensions>
          <ns3:TrackPointExtension>
            <ns3:atemp>20.0</ns3:atemp>
            <ns3:hr>138</ns3:hr>
          </ns3:TrackPointExtension>
        </extensions>
      </trkpt>
      <trkpt lat="-22.12075567804276943206787109375" lon="166.44692533649504184722900390625">
        <ele>154</ele>
        <time>2016-08-12T17:39:28.000Z</time>
        <extensions>
          <ns3:TrackPointExtension>
            <ns3:atemp>20.0</ns3:atemp>
            <ns3:hr>137</ns3:hr>
          </ns3:TrackPointExtension>
        </extensions>
      </trkpt>
      <trkpt lat="-22.12074293754994869232177734375" lon="166.44694997929036617279052734375">
        <ele>153.8000030517578125</ele>
        <time>2016-08-12T17:39:29.000Z</time>
        <extensions>
          <ns3:TrackPointExtension>
            <ns3:atemp>20.0</ns3:atemp>
            <ns3:hr>136</ns3:hr>
          </ns3:TrackPointExtension>
        </extensions>
      </trkpt>
      <trkpt lat="-22.12072919122874736785888671875" lon="166.446973197162151336669921875">
        <ele>153.600006103515625</ele>
        <time>2016-08-12T17:39:30.000Z</time>
        <extensions>
          <ns3:TrackPointExtension>
            <ns3:atemp>20.0</ns3:atemp>
            <ns3:hr>136</ns3:hr>
          </ns3:TrackPointExtension>
        </extensions>
      </trkpt>
      <trkpt lat="-22.12071544490754604339599609375" lon="166.4469998516142368316650390625">
        <ele>153.399993896484375</ele>
        <time>2016-08-12T17:39:31.000Z</time>
        <extensions>
          <ns3:TrackPointExtension>
            <ns3:atemp>20.0</ns3:atemp>
            <ns3:hr>136</ns3:hr>
          </ns3:TrackPointExtension>
        </extensions>
      </trkpt>
      <trkpt lat="-22.1207039617002010345458984375" lon="166.44702658988535404205322265625">
        <ele>152.8000030517578125</ele>
        <time>2016-08-12T17:39:32.000Z</time>
        <extensions>
          <ns3:TrackPointExtension>
            <ns3:atemp>20.0</ns3:atemp>
            <ns3:hr>136</ns3:hr>
          </ns3:TrackPointExtension>
        </extensions>
      </trkpt>
      <trkpt lat="-22.12069666944444179534912109375" lon="166.4470491372048854827880859375">
        <ele>152.8000030517578125</ele>
        <time>2016-08-12T17:39:33.000Z</time>
        <extensions>
          <ns3:TrackPointExtension>
            <ns3:atemp>20.0</ns3:atemp>
            <ns3:hr>136</ns3:hr>
          </ns3:TrackPointExtension>
        </extensions>
      </trkpt>
      <trkpt lat="-22.12068694643676280975341796875" lon="166.4470732770860195159912109375">
        <ele>152.600006103515625</ele>
        <time>2016-08-12T17:39:34.000Z</time>
        <extensions>
          <ns3:TrackPointExtension>
            <ns3:atemp>20.0</ns3:atemp>
            <ns3:hr>136</ns3:hr>
          </ns3:TrackPointExtension>
        </extensions>
      </trkpt>
      <trkpt lat="-22.120677642524242401123046875" lon="166.44709481857717037200927734375">
        <ele>152.600006103515625</ele>
        <time>2016-08-12T17:39:35.000Z</time>
        <extensions>
          <ns3:TrackPointExtension>
            <ns3:atemp>20.0</ns3:atemp>
            <ns3:hr>135</ns3:hr>
          </ns3:TrackPointExtension>
        </extensions>
      </trkpt>
      <trkpt lat="-22.120667584240436553955078125" lon="166.4471165277063846588134765625">
        <ele>152.600006103515625</ele>
        <time>2016-08-12T17:39:36.000Z</time>
        <extensions>
          <ns3:TrackPointExtension>
            <ns3:atemp>20.0</ns3:atemp>
            <ns3:hr>135</ns3:hr>
          </ns3:TrackPointExtension>
        </extensions>
      </trkpt>
      <trkpt lat="-22.12065308354794979095458984375" lon="166.44713873974978923797607421875">
        <ele>152.600006103515625</ele>
        <time>2016-08-12T17:39:37.000Z</time>
        <extensions>
          <ns3:TrackPointExtension>
            <ns3:atemp>20.0</ns3:atemp>
            <ns3:hr>134</ns3:hr>
          </ns3:TrackPointExtension>
        </extensions>
      </trkpt>
      <trkpt lat="-22.12064000777900218963623046875" lon="166.44715919159352779388427734375">
        <ele>152.600006103515625</ele>
        <time>2016-08-12T17:39:38.000Z</time>
        <extensions>
          <ns3:TrackPointExtension>
            <ns3:atemp>20.0</ns3:atemp>
            <ns3:hr>134</ns3:hr>
          </ns3:TrackPointExtension>
        </extensions>
      </trkpt>
      <trkpt lat="-22.12062743492424488067626953125" lon="166.447181403636932373046875">
        <ele>152.1999969482421875</ele>
        <time>2016-08-12T17:39:39.000Z</time>
        <extensions>
          <ns3:TrackPointExtension>
            <ns3:atemp>20.0</ns3:atemp>
            <ns3:hr>134</ns3:hr>
          </ns3:TrackPointExtension>
        </extensions>
      </trkpt>
      <trkpt lat="-22.120611257851123809814453125" lon="166.44720462150871753692626953125">
        <ele>152.1999969482421875</ele>
        <time>2016-08-12T17:39:40.000Z</time>
        <extensions>
          <ns3:TrackPointExtension>
            <ns3:atemp>20.0</ns3:atemp>
            <ns3:hr>133</ns3:hr>
          </ns3:TrackPointExtension>
        </extensions>
      </trkpt>
      <trkpt lat="-22.120600529015064239501953125" lon="166.44722356460988521575927734375">
        <ele>152.399993896484375</ele>
        <time>2016-08-12T17:39:41.000Z</time>
        <extensions>
          <ns3:TrackPointExtension>
            <ns3:atemp>20.0</ns3:atemp>
            <ns3:hr>133</ns3:hr>
          </ns3:TrackPointExtension>
        </extensions>
      </trkpt>
      <trkpt lat="-22.120587117969989776611328125" lon="166.44724200479686260223388671875">
        <ele>152.399993896484375</ele>
        <time>2016-08-12T17:39:42.000Z</time>
        <extensions>
          <ns3:TrackPointExtension>
            <ns3:atemp>20.0</ns3:atemp>
            <ns3:hr>133</ns3:hr>
          </ns3:TrackPointExtension>
        </extensions>
      </trkpt>
      <trkpt lat="-22.12057814933359622955322265625" lon="166.44725860096514225006103515625">
        <ele>152.1999969482421875</ele>
        <time>2016-08-12T17:39:43.000Z</time>
        <extensions>
          <ns3:TrackPointExtension>
            <ns3:atemp>20.0</ns3:atemp>
            <ns3:hr>133</ns3:hr>
          </ns3:TrackPointExtension>
        </extensions>
      </trkpt>
      <trkpt lat="-22.12056054733693599700927734375" lon="166.447277627885341644287109375">
        <ele>152.1999969482421875</ele>
        <time>2016-08-12T17:39:44.000Z</time>
        <extensions>
          <ns3:TrackPointExtension>
            <ns3:atemp>20.0</ns3:atemp>
            <ns3:hr>133</ns3:hr>
          </ns3:TrackPointExtension>
        </extensions>
      </trkpt>
      <trkpt lat="-22.12054395116865634918212890625" lon="166.44729732535779476165771484375">
        <ele>152.1999969482421875</ele>
        <time>2016-08-12T17:39:45.000Z</time>
        <extensions>
          <ns3:TrackPointExtension>
            <ns3:atemp>20.0</ns3:atemp>
            <ns3:hr>132</ns3:hr>
          </ns3:TrackPointExtension>
        </extensions>
      </trkpt>
      <trkpt lat="-22.1205225773155689239501953125" lon="166.44731643609702587127685546875">
        <ele>152.1999969482421875</ele>
        <time>2016-08-12T17:39:46.000Z</time>
        <extensions>
          <ns3:TrackPointExtension>
            <ns3:atemp>20.0</ns3:atemp>
            <ns3:hr>132</ns3:hr>
          </ns3:TrackPointExtension>
        </extensions>
      </trkpt>
      <trkpt lat="-22.1205004490911960601806640625" lon="166.4473354630172252655029296875">
        <ele>152</ele>
        <time>2016-08-12T17:39:47.000Z</time>
        <extensions>
          <ns3:TrackPointExtension>
            <ns3:atemp>20.0</ns3:atemp>
            <ns3:hr>132</ns3:hr>
          </ns3:TrackPointExtension>
        </extensions>
      </trkpt>
      <trkpt lat="-22.120485194027423858642578125" lon="166.447353400290012359619140625">
        <ele>152.1999969482421875</ele>
        <time>2016-08-12T17:39:48.000Z</time>
        <extensions>
          <ns3:TrackPointExtension>
            <ns3:atemp>20.0</ns3:atemp>
            <ns3:hr>132</ns3:hr>
          </ns3:TrackPointExtension>
        </extensions>
      </trkpt>
      <trkpt lat="-22.120467759668827056884765625" lon="166.4473704993724822998046875">
        <ele>152.399993896484375</ele>
        <time>2016-08-12T17:39:49.000Z</time>
        <extensions>
          <ns3:TrackPointExtension>
            <ns3:atemp>20.0</ns3:atemp>
            <ns3:hr>132</ns3:hr>
          </ns3:TrackPointExtension>
        </extensions>
      </trkpt>
      <trkpt lat="-22.1204431168735027313232421875" lon="166.44738717935979366302490234375">
        <ele>152.1999969482421875</ele>
        <time>2016-08-12T17:39:50.000Z</time>
        <extensions>
          <ns3:TrackPointExtension>
            <ns3:atemp>20.0</ns3:atemp>
            <ns3:hr>132</ns3:hr>
          </ns3:TrackPointExtension>
        </extensions>
      </trkpt>
      <trkpt lat="-22.1204280294477939605712890625" lon="166.44740494899451732635498046875">
        <ele>152</ele>
        <time>2016-08-12T17:39:51.000Z</time>
        <extensions>
          <ns3:TrackPointExtension>
            <ns3:atemp>20.0</ns3:atemp>
            <ns3:hr>132</ns3:hr>
          </ns3:TrackPointExtension>
        </extensions>
      </trkpt>
      <trkpt lat="-22.1204082481563091278076171875" lon="166.44742255099117755889892578125">
        <ele>152.1999969482421875</ele>
        <time>2016-08-12T17:39:52.000Z</time>
        <extensions>
          <ns3:TrackPointExtension>
            <ns3:atemp>20.0</ns3:atemp>
            <ns3:hr>132</ns3:hr>
          </ns3:TrackPointExtension>
        </extensions>
      </trkpt>
      <trkpt lat="-22.12038972415030002593994140625" lon="166.44743931479752063751220703125">
        <ele>152.1999969482421875</ele>
        <time>2016-08-12T17:39:53.000Z</time>
        <extensions>
          <ns3:TrackPointExtension>
            <ns3:atemp>20.0</ns3:atemp>
            <ns3:hr>132</ns3:hr>
          </ns3:TrackPointExtension>
        </extensions>
      </trkpt>
      <trkpt lat="-22.1203720383346080780029296875" lon="166.44745373167097568511962890625">
        <ele>152.1999969482421875</ele>
        <time>2016-08-12T17:39:54.000Z</time>
        <extensions>
          <ns3:TrackPointExtension>
            <ns3:atemp>20.0</ns3:atemp>
            <ns3:hr>132</ns3:hr>
          </ns3:TrackPointExtension>
        </extensions>
      </trkpt>
      <trkpt lat="-22.120356447994709014892578125" lon="166.4474699087440967559814453125">
        <ele>152.399993896484375</ele>
        <time>2016-08-12T17:39:55.000Z</time>
        <extensions>
          <ns3:TrackPointExtension>
            <ns3:atemp>20.0</ns3:atemp>
            <ns3:hr>131</ns3:hr>
          </ns3:TrackPointExtension>
        </extensions>
      </trkpt>
      <trkpt lat="-22.120345048606395721435546875" lon="166.44748340360820293426513671875">
        <ele>152.600006103515625</ele>
        <time>2016-08-12T17:39:56.000Z</time>
        <extensions>
          <ns3:TrackPointExtension>
            <ns3:atemp>20.0</ns3:atemp>
            <ns3:hr>131</ns3:hr>
          </ns3:TrackPointExtension>
        </extensions>
      </trkpt>
      <trkpt lat="-22.120325602591037750244140625" lon="166.44749321043491363525390625">
        <ele>152.600006103515625</ele>
        <time>2016-08-12T17:39:57.000Z</time>
        <extensions>
          <ns3:TrackPointExtension>
            <ns3:atemp>20.0</ns3:atemp>
            <ns3:hr>130</ns3:hr>
          </ns3:TrackPointExtension>
        </extensions>
      </trkpt>
      <trkpt lat="-22.12030171416699886322021484375" lon="166.4475057832896709442138671875">
        <ele>152.600006103515625</ele>
        <time>2016-08-12T17:39:58.000Z</time>
        <extensions>
          <ns3:TrackPointExtension>
            <ns3:atemp>20.0</ns3:atemp>
            <ns3:hr>130</ns3:hr>
          </ns3:TrackPointExtension>
        </extensions>
      </trkpt>
      <trkpt lat="-22.12028528563678264617919921875" lon="166.447519026696681976318359375">
        <ele>153</ele>
        <time>2016-08-12T17:39:59.000Z</time>
        <extensions>
          <ns3:TrackPointExtension>
            <ns3:atemp>20.0</ns3:atemp>
            <ns3:hr>130</ns3:hr>
          </ns3:TrackPointExtension>
        </extensions>
      </trkpt>
      <trkpt lat="-22.12027204222977161407470703125" lon="166.447532437741756439208984375">
        <ele>153.1999969482421875</ele>
        <time>2016-08-12T17:40:00.000Z</time>
        <extensions>
          <ns3:TrackPointExtension>
            <ns3:atemp>20.0</ns3:atemp>
            <ns3:hr>130</ns3:hr>
          </ns3:TrackPointExtension>
        </extensions>
      </trkpt>
      <trkpt lat="-22.12025888264179229736328125" lon="166.44754417240619659423828125">
        <ele>153.1999969482421875</ele>
        <time>2016-08-12T17:40:01.000Z</time>
        <extensions>
          <ns3:TrackPointExtension>
            <ns3:atemp>20.0</ns3:atemp>
            <ns3:hr>130</ns3:hr>
          </ns3:TrackPointExtension>
        </extensions>
      </trkpt>
      <trkpt lat="-22.1202422864735126495361328125" lon="166.44755951128900051116943359375">
        <ele>153.399993896484375</ele>
        <time>2016-08-12T17:40:02.000Z</time>
        <extensions>
          <ns3:TrackPointExtension>
            <ns3:atemp>20.0</ns3:atemp>
            <ns3:hr>131</ns3:hr>
          </ns3:TrackPointExtension>
        </extensions>
      </trkpt>
      <trkpt lat="-22.12021839804947376251220703125" lon="166.44757770001888275146484375">
        <ele>153.600006103515625</ele>
        <time>2016-08-12T17:40:03.000Z</time>
        <extensions>
          <ns3:TrackPointExtension>
            <ns3:atemp>20.0</ns3:atemp>
            <ns3:hr>131</ns3:hr>
          </ns3:TrackPointExtension>
        </extensions>
      </trkpt>
      <trkpt lat="-22.12019878439605236053466796875" lon="166.44759689457714557647705078125">
        <ele>153.600006103515625</ele>
        <time>2016-08-12T17:40:04.000Z</time>
        <extensions>
          <ns3:TrackPointExtension>
            <ns3:atemp>20.0</ns3:atemp>
            <ns3:hr>131</ns3:hr>
          </ns3:TrackPointExtension>
        </extensions>
      </trkpt>
      <trkpt lat="-22.1201822720468044281005859375" lon="166.44761483184993267059326171875">
        <ele>153.600006103515625</ele>
        <time>2016-08-12T17:40:05.000Z</time>
        <extensions>
          <ns3:TrackPointExtension>
            <ns3:atemp>20.0</ns3:atemp>
            <ns3:hr>132</ns3:hr>
          </ns3:TrackPointExtension>
        </extensions>
      </trkpt>
      <trkpt lat="-22.120159305632114410400390625" lon="166.44763411022722721099853515625">
        <ele>154</ele>
        <time>2016-08-12T17:40:06.000Z</time>
        <extensions>
          <ns3:TrackPointExtension>
            <ns3:atemp>20.0</ns3:atemp>
            <ns3:hr>132</ns3:hr>
          </ns3:TrackPointExtension>
        </extensions>
      </trkpt>
      <trkpt lat="-22.1201403625309467315673828125" lon="166.4476516284048557281494140625">
        <ele>154.1999969482421875</ele>
        <time>2016-08-12T17:40:07.000Z</time>
        <extensions>
          <ns3:TrackPointExtension>
            <ns3:atemp>20.0</ns3:atemp>
            <ns3:hr>131</ns3:hr>
          </ns3:TrackPointExtension>
        </extensions>
      </trkpt>
      <trkpt lat="-22.1201209165155887603759765625" lon="166.44766730256378650665283203125">
        <ele>154.399993896484375</ele>
        <time>2016-08-12T17:40:08.000Z</time>
        <extensions>
          <ns3:TrackPointExtension>
            <ns3:atemp>20.0</ns3:atemp>
            <ns3:hr>132</ns3:hr>
          </ns3:TrackPointExtension>
        </extensions>
      </trkpt>
      <trkpt lat="-22.12010465562343597412109375" lon="166.44768230617046356201171875">
        <ele>154.600006103515625</ele>
        <time>2016-08-12T17:40:09.000Z</time>
        <extensions>
          <ns3:TrackPointExtension>
            <ns3:atemp>20.0</ns3:atemp>
            <ns3:hr>132</ns3:hr>
          </ns3:TrackPointExtension>
        </extensions>
      </trkpt>
      <trkpt lat="-22.12008579634130001068115234375" lon="166.44769831560552120208740234375">
        <ele>155</ele>
        <time>2016-08-12T17:40:10.000Z</time>
        <extensions>
          <ns3:TrackPointExtension>
            <ns3:atemp>20.0</ns3:atemp>
            <ns3:hr>132</ns3:hr>
          </ns3:TrackPointExtension>
        </extensions>
      </trkpt>
      <trkpt lat="-22.120072804391384124755859375" lon="166.44771222956478595733642578125">
        <ele>155.399993896484375</ele>
        <time>2016-08-12T17:40:11.000Z</time>
        <extensions>
          <ns3:TrackPointExtension>
            <ns3:atemp>20.0</ns3:atemp>
            <ns3:hr>132</ns3:hr>
          </ns3:TrackPointExtension>
        </extensions>
      </trkpt>
      <trkpt lat="-22.120062746107578277587890625" lon="166.4477324299514293670654296875">
        <ele>155.600006103515625</ele>
        <time>2016-08-12T17:40:12.000Z</time>
        <extensions>
          <ns3:TrackPointExtension>
            <ns3:atemp>20.0</ns3:atemp>
            <ns3:hr>132</ns3:hr>
          </ns3:TrackPointExtension>
        </extensions>
      </trkpt>
      <trkpt lat="-22.12004967033863067626953125" lon="166.44775045104324817657470703125">
        <ele>156</ele>
        <time>2016-08-12T17:40:13.000Z</time>
        <extensions>
          <ns3:TrackPointExtension>
            <ns3:atemp>20.0</ns3:atemp>
            <ns3:hr>132</ns3:hr>
          </ns3:TrackPointExtension>
        </extensions>
      </trkpt>
      <trkpt lat="-22.12004120461642742156982421875" lon="166.44776939414441585540771484375">
        <ele>156.1999969482421875</ele>
        <time>2016-08-12T17:40:14.000Z</time>
        <extensions>
          <ns3:TrackPointExtension>
            <ns3:atemp>20.0</ns3:atemp>
            <ns3:hr>132</ns3:hr>
          </ns3:TrackPointExtension>
        </extensions>
      </trkpt>
      <trkpt lat="-22.12002913467586040496826171875" lon="166.44778733141720294952392578125">
        <ele>156.8000030517578125</ele>
        <time>2016-08-12T17:40:15.000Z</time>
        <extensions>
          <ns3:TrackPointExtension>
            <ns3:atemp>20.0</ns3:atemp>
            <ns3:hr>133</ns3:hr>
          </ns3:TrackPointExtension>
        </extensions>
      </trkpt>
      <trkpt lat="-22.12001907639205455780029296875" lon="166.4478028379380702972412109375">
        <ele>157</ele>
        <time>2016-08-12T17:40:16.000Z</time>
        <extensions>
          <ns3:TrackPointExtension>
            <ns3:atemp>20.0</ns3:atemp>
            <ns3:hr>133</ns3:hr>
          </ns3:TrackPointExtension>
        </extensions>
      </trkpt>
      <trkpt lat="-22.1200127899646759033203125" lon="166.44781884737312793731689453125">
        <ele>157.1999969482421875</ele>
        <time>2016-08-12T17:40:17.000Z</time>
        <extensions>
          <ns3:TrackPointExtension>
            <ns3:atemp>20.0</ns3:atemp>
            <ns3:hr>133</ns3:hr>
          </ns3:TrackPointExtension>
        </extensions>
      </trkpt>
      <trkpt lat="-22.12001136504113674163818359375" lon="166.44783879630267620086669921875">
        <ele>157.399993896484375</ele>
        <time>2016-08-12T17:40:18.000Z</time>
        <extensions>
          <ns3:TrackPointExtension>
            <ns3:atemp>20.0</ns3:atemp>
            <ns3:hr>133</ns3:hr>
          </ns3:TrackPointExtension>
        </extensions>
      </trkpt>
      <trkpt lat="-22.1200047433376312255859375" lon="166.44785790704190731048583984375">
        <ele>157.8000030517578125</ele>
        <time>2016-08-12T17:40:19.000Z</time>
        <extensions>
          <ns3:TrackPointExtension>
            <ns3:atemp>20.0</ns3:atemp>
            <ns3:hr>133</ns3:hr>
          </ns3:TrackPointExtension>
        </extensions>
      </trkpt>
      <trkpt lat="-22.1200018934905529022216796875" lon="166.4478776045143604278564453125">
        <ele>158</ele>
        <time>2016-08-12T17:40:20.000Z</time>
        <extensions>
          <ns3:TrackPointExtension>
            <ns3:atemp>20.0</ns3:atemp>
            <ns3:hr>134</ns3:hr>
          </ns3:TrackPointExtension>
        </extensions>
      </trkpt>
      <trkpt lat="-22.11999745108187198638916015625" lon="166.44790048711001873016357421875">
        <ele>158.1999969482421875</ele>
        <time>2016-08-12T17:40:21.000Z</time>
        <extensions>
          <ns3:TrackPointExtension>
            <ns3:atemp>20.0</ns3:atemp>
            <ns3:hr>134</ns3:hr>
          </ns3:TrackPointExtension>
        </extensions>
      </trkpt>
      <trkpt lat="-22.119988314807415008544921875" lon="166.4479232020676136016845703125">
        <ele>158.600006103515625</ele>
        <time>2016-08-12T17:40:22.000Z</time>
        <extensions>
          <ns3:TrackPointExtension>
            <ns3:atemp>20.0</ns3:atemp>
            <ns3:hr>134</ns3:hr>
          </ns3:TrackPointExtension>
        </extensions>
      </trkpt>
      <trkpt lat="-22.1199841238558292388916015625" lon="166.44794289954006671905517578125">
        <ele>158.600006103515625</ele>
        <time>2016-08-12T17:40:23.000Z</time>
        <extensions>
          <ns3:TrackPointExtension>
            <ns3:atemp>20.0</ns3:atemp>
            <ns3:hr>136</ns3:hr>
          </ns3:TrackPointExtension>
        </extensions>
      </trkpt>
      <trkpt lat="-22.11997934617102146148681640625" lon="166.44796335138380527496337890625">
        <ele>158.8000030517578125</ele>
        <time>2016-08-12T17:40:24.000Z</time>
        <extensions>
          <ns3:TrackPointExtension>
            <ns3:atemp>20.0</ns3:atemp>
            <ns3:hr>136</ns3:hr>
          </ns3:TrackPointExtension>
        </extensions>
      </trkpt>
      <trkpt lat="-22.11997750215232372283935546875" lon="166.44797944463789463043212890625">
        <ele>159.1999969482421875</ele>
        <time>2016-08-12T17:40:25.000Z</time>
        <extensions>
          <ns3:TrackPointExtension>
            <ns3:atemp>20.0</ns3:atemp>
            <ns3:hr>136</ns3:hr>
          </ns3:TrackPointExtension>
        </extensions>
      </trkpt>
      <trkpt lat="-22.1199660189449787139892578125" lon="166.44799478352069854736328125">
        <ele>159.399993896484375</ele>
        <time>2016-08-12T17:40:26.000Z</time>
        <extensions>
          <ns3:TrackPointExtension>
            <ns3:atemp>20.0</ns3:atemp>
            <ns3:hr>136</ns3:hr>
          </ns3:TrackPointExtension>
        </extensions>
      </trkpt>
      <trkpt lat="-22.11995939724147319793701171875" lon="166.44801045767962932586669921875">
        <ele>159.399993896484375</ele>
        <time>2016-08-12T17:40:27.000Z</time>
        <extensions>
          <ns3:TrackPointExtension>
            <ns3:atemp>20.0</ns3:atemp>
            <ns3:hr>136</ns3:hr>
          </ns3:TrackPointExtension>
        </extensions>
      </trkpt>
      <trkpt lat="-22.1199479140341281890869140625" lon="166.4480237849056720733642578125">
        <ele>159.600006103515625</ele>
        <time>2016-08-12T17:40:28.000Z</time>
        <extensions>
          <ns3:TrackPointExtension>
            <ns3:atemp>20.0</ns3:atemp>
            <ns3:hr>136</ns3:hr>
          </ns3:TrackPointExtension>
        </extensions>
      </trkpt>
      <trkpt lat="-22.11993257515132427215576171875" lon="166.4480395428836345672607421875">
        <ele>159.600006103515625</ele>
        <time>2016-08-12T17:40:29.000Z</time>
        <extensions>
          <ns3:TrackPointExtension>
            <ns3:atemp>20.0</ns3:atemp>
            <ns3:hr>136</ns3:hr>
          </ns3:TrackPointExtension>
        </extensions>
      </trkpt>
      <trkpt lat="-22.11991421878337860107421875" lon="166.4480556361377239227294921875">
        <ele>159.399993896484375</ele>
        <time>2016-08-12T17:40:30.000Z</time>
        <extensions>
          <ns3:TrackPointExtension>
            <ns3:atemp>20.0</ns3:atemp>
            <ns3:hr>137</ns3:hr>
          </ns3:TrackPointExtension>
        </extensions>
      </trkpt>
      <trkpt lat="-22.11989737115800380706787109375" lon="166.4480710588395595550537109375">
        <ele>159.600006103515625</ele>
        <time>2016-08-12T17:40:31.000Z</time>
        <extensions>
          <ns3:TrackPointExtension>
            <ns3:atemp>20.0</ns3:atemp>
            <ns3:hr>137</ns3:hr>
          </ns3:TrackPointExtension>
        </extensions>
      </trkpt>
      <trkpt lat="-22.11987708695232868194580078125" lon="166.4480893313884735107421875">
        <ele>159.600006103515625</ele>
        <time>2016-08-12T17:40:32.000Z</time>
        <extensions>
          <ns3:TrackPointExtension>
            <ns3:atemp>20.0</ns3:atemp>
            <ns3:hr>137</ns3:hr>
          </ns3:TrackPointExtension>
        </extensions>
      </trkpt>
      <trkpt lat="-22.11985697038471698760986328125" lon="166.44810802303254604339599609375">
        <ele>159.399993896484375</ele>
        <time>2016-08-12T17:40:33.000Z</time>
        <extensions>
          <ns3:TrackPointExtension>
            <ns3:atemp>20.0</ns3:atemp>
            <ns3:hr>137</ns3:hr>
          </ns3:TrackPointExtension>
        </extensions>
      </trkpt>
      <trkpt lat="-22.11984154768288135528564453125" lon="166.4481247030198574066162109375">
        <ele>159.399993896484375</ele>
        <time>2016-08-12T17:40:34.000Z</time>
        <extensions>
          <ns3:TrackPointExtension>
            <ns3:atemp>20.0</ns3:atemp>
            <ns3:hr>137</ns3:hr>
          </ns3:TrackPointExtension>
        </extensions>
      </trkpt>
      <trkpt lat="-22.11982461623847484588623046875" lon="166.4481411315500736236572265625">
        <ele>159.399993896484375</ele>
        <time>2016-08-12T17:40:35.000Z</time>
        <extensions>
          <ns3:TrackPointExtension>
            <ns3:atemp>20.0</ns3:atemp>
            <ns3:hr>137</ns3:hr>
          </ns3:TrackPointExtension>
        </extensions>
      </trkpt>
      <trkpt lat="-22.119803912937641143798828125" lon="166.44815613515675067901611328125">
        <ele>159.1999969482421875</ele>
        <time>2016-08-12T17:40:36.000Z</time>
        <extensions>
          <ns3:TrackPointExtension>
            <ns3:atemp>20.0</ns3:atemp>
            <ns3:hr>137</ns3:hr>
          </ns3:TrackPointExtension>
        </extensions>
      </trkpt>
      <trkpt lat="-22.119781784713268280029296875" lon="166.448170132935047149658203125">
        <ele>159.399993896484375</ele>
        <time>2016-08-12T17:40:37.000Z</time>
        <extensions>
          <ns3:TrackPointExtension>
            <ns3:atemp>20.0</ns3:atemp>
            <ns3:hr>138</ns3:hr>
          </ns3:TrackPointExtension>
        </extensions>
      </trkpt>
      <trkpt lat="-22.11976267397403717041015625" lon="166.4481833763420581817626953125">
        <ele>159.399993896484375</ele>
        <time>2016-08-12T17:40:38.000Z</time>
        <extensions>
          <ns3:TrackPointExtension>
            <ns3:atemp>20.0</ns3:atemp>
            <ns3:hr>138</ns3:hr>
          </ns3:TrackPointExtension>
        </extensions>
      </trkpt>
      <trkpt lat="-22.119744233787059783935546875" lon="166.4481991343200206756591796875">
        <ele>159.399993896484375</ele>
        <time>2016-08-12T17:40:39.000Z</time>
        <extensions>
          <ns3:TrackPointExtension>
            <ns3:atemp>20.0</ns3:atemp>
            <ns3:hr>138</ns3:hr>
          </ns3:TrackPointExtension>
        </extensions>
      </trkpt>
      <trkpt lat="-22.11972772143781185150146484375" lon="166.44821061752736568450927734375">
        <ele>159.399993896484375</ele>
        <time>2016-08-12T17:40:40.000Z</time>
        <extensions>
          <ns3:TrackPointExtension>
            <ns3:atemp>19.0</ns3:atemp>
            <ns3:hr>138</ns3:hr>
          </ns3:TrackPointExtension>
        </extensions>
      </trkpt>
      <trkpt lat="-22.119710035622119903564453125" lon="166.4482212625443935394287109375">
        <ele>159.399993896484375</ele>
        <time>2016-08-12T17:40:41.000Z</time>
        <extensions>
          <ns3:TrackPointExtension>
            <ns3:atemp>19.0</ns3:atemp>
            <ns3:hr>138</ns3:hr>
          </ns3:TrackPointExtension>
        </extensions>
      </trkpt>
      <trkpt lat="-22.11968732066452503204345703125" lon="166.44822813570499420166015625">
        <ele>159.1999969482421875</ele>
        <time>2016-08-12T17:40:42.000Z</time>
        <extensions>
          <ns3:TrackPointExtension>
            <ns3:atemp>19.0</ns3:atemp>
            <ns3:hr>138</ns3:hr>
          </ns3:TrackPointExtension>
        </extensions>
      </trkpt>
      <trkpt lat="-22.11966301314532756805419921875" lon="166.44823676906526088714599609375">
        <ele>159.1999969482421875</ele>
        <time>2016-08-12T17:40:43.000Z</time>
        <extensions>
          <ns3:TrackPointExtension>
            <ns3:atemp>19.0</ns3:atemp>
            <ns3:hr>139</ns3:hr>
          </ns3:TrackPointExtension>
        </extensions>
      </trkpt>
      <trkpt lat="-22.119650356471538543701171875" lon="166.4482551254332065582275390625">
        <ele>159.1999969482421875</ele>
        <time>2016-08-12T17:40:44.000Z</time>
        <extensions>
          <ns3:TrackPointExtension>
            <ns3:atemp>19.0</ns3:atemp>
            <ns3:hr>138</ns3:hr>
          </ns3:TrackPointExtension>
        </extensions>
      </trkpt>
      <trkpt lat="-22.11963300593197345733642578125" lon="166.44827046431601047515869140625">
        <ele>159.1999969482421875</ele>
        <time>2016-08-12T17:40:45.000Z</time>
        <extensions>
          <ns3:TrackPointExtension>
            <ns3:atemp>19.0</ns3:atemp>
            <ns3:hr>138</ns3:hr>
          </ns3:TrackPointExtension>
        </extensions>
      </trkpt>
      <trkpt lat="-22.11962428875267505645751953125" lon="166.4482883177697658538818359375">
        <ele>159.1999969482421875</ele>
        <time>2016-08-12T17:40:46.000Z</time>
        <extensions>
          <ns3:TrackPointExtension>
            <ns3:atemp>19.0</ns3:atemp>
            <ns3:hr>138</ns3:hr>
          </ns3:TrackPointExtension>
        </extensions>
      </trkpt>
      <trkpt lat="-22.1196176670491695404052734375" lon="166.44830415956676006317138671875">
        <ele>159.1999969482421875</ele>
        <time>2016-08-12T17:40:47.000Z</time>
        <extensions>
          <ns3:TrackPointExtension>
            <ns3:atemp>19.0</ns3:atemp>
            <ns3:hr>137</ns3:hr>
          </ns3:TrackPointExtension>
        </extensions>
      </trkpt>
      <trkpt lat="-22.11961892433464527130126953125" lon="166.44832427613437175750732421875">
        <ele>159.1999969482421875</ele>
        <time>2016-08-12T17:40:48.000Z</time>
        <extensions>
          <ns3:TrackPointExtension>
            <ns3:atemp>19.0</ns3:atemp>
            <ns3:hr>137</ns3:hr>
          </ns3:TrackPointExtension>
        </extensions>
      </trkpt>
      <trkpt lat="-22.11962982080876827239990234375" lon="166.448347158730030059814453125">
        <ele>159.1999969482421875</ele>
        <time>2016-08-12T17:40:49.000Z</time>
        <extensions>
          <ns3:TrackPointExtension>
            <ns3:atemp>19.0</ns3:atemp>
            <ns3:hr>136</ns3:hr>
          </ns3:TrackPointExtension>
        </extensions>
      </trkpt>
      <trkpt lat="-22.11964909918606281280517578125" lon="166.44836266525089740753173828125">
        <ele>159.399993896484375</ele>
        <time>2016-08-12T17:40:50.000Z</time>
        <extensions>
          <ns3:TrackPointExtension>
            <ns3:atemp>19.0</ns3:atemp>
            <ns3:hr>136</ns3:hr>
          </ns3:TrackPointExtension>
        </extensions>
      </trkpt>
      <trkpt lat="-22.11965882219374179840087890625" lon="166.4483714662492275238037109375">
        <ele>159.600006103515625</ele>
        <time>2016-08-12T17:40:51.000Z</time>
        <extensions>
          <ns3:TrackPointExtension>
            <ns3:atemp>19.0</ns3:atemp>
            <ns3:hr>135</ns3:hr>
          </ns3:TrackPointExtension>
        </extensions>
      </trkpt>
      <trkpt lat="-22.119671143591403961181640625" lon="166.448371298611164093017578125">
        <ele>160</ele>
        <time>2016-08-12T17:40:52.000Z</time>
        <extensions>
          <ns3:TrackPointExtension>
            <ns3:atemp>19.0</ns3:atemp>
            <ns3:hr>135</ns3:hr>
          </ns3:TrackPointExtension>
        </extensions>
      </trkpt>
      <trkpt lat="-22.1196877397596836090087890625" lon="166.44836434163153171539306640625">
        <ele>160.399993896484375</ele>
        <time>2016-08-12T17:40:53.000Z</time>
        <extensions>
          <ns3:TrackPointExtension>
            <ns3:atemp>19.0</ns3:atemp>
            <ns3:hr>135</ns3:hr>
          </ns3:TrackPointExtension>
        </extensions>
      </trkpt>
      <trkpt lat="-22.1197045035660266876220703125" lon="166.4483573846518993377685546875">
        <ele>160.600006103515625</ele>
        <time>2016-08-12T17:40:54.000Z</time>
        <extensions>
          <ns3:TrackPointExtension>
            <ns3:atemp>19.0</ns3:atemp>
            <ns3:hr>135</ns3:hr>
          </ns3:TrackPointExtension>
        </extensions>
      </trkpt>
      <trkpt lat="-22.11971531622111797332763671875" lon="166.4483523555099964141845703125">
        <ele>160.8000030517578125</ele>
        <time>2016-08-12T17:40:55.000Z</time>
        <extensions>
          <ns3:TrackPointExtension>
            <ns3:atemp>19.0</ns3:atemp>
            <ns3:hr>135</ns3:hr>
          </ns3:TrackPointExtension>
        </extensions>
      </trkpt>
      <trkpt lat="-22.119728811085224151611328125" lon="166.44834347069263458251953125">
        <ele>161.1999969482421875</ele>
        <time>2016-08-12T17:40:56.000Z</time>
        <extensions>
          <ns3:TrackPointExtension>
            <ns3:atemp>19.0</ns3:atemp>
            <ns3:hr>136</ns3:hr>
          </ns3:TrackPointExtension>
        </extensions>
      </trkpt>
      <trkpt lat="-22.11974130012094974517822265625" lon="166.44833215512335300445556640625">
        <ele>161.399993896484375</ele>
        <time>2016-08-12T17:40:57.000Z</time>
        <extensions>
          <ns3:TrackPointExtension>
            <ns3:atemp>19.0</ns3:atemp>
            <ns3:hr>135</ns3:hr>
          </ns3:TrackPointExtension>
        </extensions>
      </trkpt>
      <trkpt lat="-22.119756639003753662109375" lon="166.44832310266792774200439453125">
        <ele>161.600006103515625</ele>
        <time>2016-08-12T17:40:58.000Z</time>
        <extensions>
          <ns3:TrackPointExtension>
            <ns3:atemp>19.0</ns3:atemp>
            <ns3:hr>135</ns3:hr>
          </ns3:TrackPointExtension>
        </extensions>
      </trkpt>
      <trkpt lat="-22.1197698824107646942138671875" lon="166.44831606186926364898681640625">
        <ele>161.600006103515625</ele>
        <time>2016-08-12T17:40:59.000Z</time>
        <extensions>
          <ns3:TrackPointExtension>
            <ns3:atemp>19.0</ns3:atemp>
            <ns3:hr>135</ns3:hr>
          </ns3:TrackPointExtension>
        </extensions>
      </trkpt>
      <trkpt lat="-22.1197916753590106964111328125" lon="166.44830633886158466339111328125">
        <ele>161.8000030517578125</ele>
        <time>2016-08-12T17:41:00.000Z</time>
        <extensions>
          <ns3:TrackPointExtension>
            <ns3:atemp>19.0</ns3:atemp>
            <ns3:hr>135</ns3:hr>
          </ns3:TrackPointExtension>
        </extensions>
      </trkpt>
      <trkpt lat="-22.11981229484081268310546875" lon="166.44829787313938140869140625">
        <ele>162</ele>
        <time>2016-08-12T17:41:01.000Z</time>
        <extensions>
          <ns3:TrackPointExtension>
            <ns3:atemp>19.0</ns3:atemp>
            <ns3:hr>135</ns3:hr>
          </ns3:TrackPointExtension>
        </extensions>
      </trkpt>
      <trkpt lat="-22.119832076132297515869140625" lon="166.4482913352549076080322265625">
        <ele>162.399993896484375</ele>
        <time>2016-08-12T17:41:02.000Z</time>
        <extensions>
          <ns3:TrackPointExtension>
            <ns3:atemp>19.0</ns3:atemp>
            <ns3:hr>135</ns3:hr>
          </ns3:TrackPointExtension>
        </extensions>
      </trkpt>
      <trkpt lat="-22.1198607422411441802978515625" lon="166.4482869766652584075927734375">
        <ele>162.600006103515625</ele>
        <time>2016-08-12T17:41:03.000Z</time>
        <extensions>
          <ns3:TrackPointExtension>
            <ns3:atemp>19.0</ns3:atemp>
            <ns3:hr>135</ns3:hr>
          </ns3:TrackPointExtension>
        </extensions>
      </trkpt>
      <trkpt lat="-22.11988161318004131317138671875" lon="166.448281109333038330078125">
        <ele>162.600006103515625</ele>
        <time>2016-08-12T17:41:04.000Z</time>
        <extensions>
          <ns3:TrackPointExtension>
            <ns3:atemp>19.0</ns3:atemp>
            <ns3:hr>135</ns3:hr>
          </ns3:TrackPointExtension>
        </extensions>
      </trkpt>
      <trkpt lat="-22.119906842708587646484375" lon="166.448284797370433807373046875">
        <ele>162.8000030517578125</ele>
        <time>2016-08-12T17:41:05.000Z</time>
        <extensions>
          <ns3:TrackPointExtension>
            <ns3:atemp>19.0</ns3:atemp>
            <ns3:hr>135</ns3:hr>
          </ns3:TrackPointExtension>
        </extensions>
      </trkpt>
      <trkpt lat="-22.1199375204741954803466796875" lon="166.44829452037811279296875">
        <ele>163</ele>
        <time>2016-08-12T17:41:06.000Z</time>
        <extensions>
          <ns3:TrackPointExtension>
            <ns3:atemp>19.0</ns3:atemp>
            <ns3:hr>136</ns3:hr>
          </ns3:TrackPointExtension>
        </extensions>
      </trkpt>
      <trkpt lat="-22.11996115744113922119140625" lon="166.44829829223453998565673828125">
        <ele>163.1999969482421875</ele>
        <time>2016-08-12T17:41:07.000Z</time>
        <extensions>
          <ns3:TrackPointExtension>
            <ns3:atemp>19.0</ns3:atemp>
            <ns3:hr>136</ns3:hr>
          </ns3:TrackPointExtension>
        </extensions>
      </trkpt>
      <trkpt lat="-22.1199941821396350860595703125" lon="166.4483106136322021484375">
        <ele>163.600006103515625</ele>
        <time>2016-08-12T17:41:08.000Z</time>
        <extensions>
          <ns3:TrackPointExtension>
            <ns3:atemp>19.0</ns3:atemp>
            <ns3:hr>136</ns3:hr>
          </ns3:TrackPointExtension>
        </extensions>
      </trkpt>
      <trkpt lat="-22.1200183220207691192626953125" lon="166.44831270910799503326416015625">
        <ele>163.600006103515625</ele>
        <time>2016-08-12T17:41:09.000Z</time>
        <extensions>
          <ns3:TrackPointExtension>
            <ns3:atemp>19.0</ns3:atemp>
            <ns3:hr>136</ns3:hr>
          </ns3:TrackPointExtension>
        </extensions>
      </trkpt>
      <trkpt lat="-22.12004221044480800628662109375" lon="166.44831597805023193359375">
        <ele>164</ele>
        <time>2016-08-12T17:41:10.000Z</time>
        <extensions>
          <ns3:TrackPointExtension>
            <ns3:atemp>19.0</ns3:atemp>
            <ns3:hr>137</ns3:hr>
          </ns3:TrackPointExtension>
        </extensions>
      </trkpt>
      <trkpt lat="-22.12006299756467342376708984375" lon="166.44831555895507335662841796875">
        <ele>164</ele>
        <time>2016-08-12T17:41:11.000Z</time>
        <extensions>
          <ns3:TrackPointExtension>
            <ns3:atemp>19.0</ns3:atemp>
            <ns3:hr>137</ns3:hr>
          </ns3:TrackPointExtension>
        </extensions>
      </trkpt>
      <trkpt lat="-22.12008110247552394866943359375" lon="166.448312960565090179443359375">
        <ele>164</ele>
        <time>2016-08-12T17:41:12.000Z</time>
        <extensions>
          <ns3:TrackPointExtension>
            <ns3:atemp>19.0</ns3:atemp>
            <ns3:hr>137</ns3:hr>
          </ns3:TrackPointExtension>
        </extensions>
      </trkpt>
      <trkpt lat="-22.12009786628186702728271484375" lon="166.44831069745123386383056640625">
        <ele>164.1999969482421875</ele>
        <time>2016-08-12T17:41:13.000Z</time>
        <extensions>
          <ns3:TrackPointExtension>
            <ns3:atemp>19.0</ns3:atemp>
            <ns3:hr>138</ns3:hr>
          </ns3:TrackPointExtension>
        </extensions>
      </trkpt>
      <trkpt lat="-22.12011815048754215240478515625" lon="166.44830860197544097900390625">
        <ele>164.1999969482421875</ele>
        <time>2016-08-12T17:41:14.000Z</time>
        <extensions>
          <ns3:TrackPointExtension>
            <ns3:atemp>19.0</ns3:atemp>
            <ns3:hr>138</ns3:hr>
          </ns3:TrackPointExtension>
        </extensions>
      </trkpt>
      <trkpt lat="-22.12013558484613895416259765625" lon="166.448306255042552947998046875">
        <ele>164.1999969482421875</ele>
        <time>2016-08-12T17:41:15.000Z</time>
        <extensions>
          <ns3:TrackPointExtension>
            <ns3:atemp>19.0</ns3:atemp>
            <ns3:hr>138</ns3:hr>
          </ns3:TrackPointExtension>
        </extensions>
      </trkpt>
      <trkpt lat="-22.1201551146805286407470703125" lon="166.44830365665256977081298828125">
        <ele>164.1999969482421875</ele>
        <time>2016-08-12T17:41:16.000Z</time>
        <extensions>
          <ns3:TrackPointExtension>
            <ns3:atemp>19.0</ns3:atemp>
            <ns3:hr>138</ns3:hr>
          </ns3:TrackPointExtension>
        </extensions>
      </trkpt>
      <trkpt lat="-22.12018135003745555877685546875" lon="166.44829921424388885498046875">
        <ele>164.399993896484375</ele>
        <time>2016-08-12T17:41:17.000Z</time>
        <extensions>
          <ns3:TrackPointExtension>
            <ns3:atemp>19.0</ns3:atemp>
            <ns3:hr>139</ns3:hr>
          </ns3:TrackPointExtension>
        </extensions>
      </trkpt>
      <trkpt lat="-22.1202030591666698455810546875" lon="166.44829225726425647735595703125">
        <ele>164.1999969482421875</ele>
        <time>2016-08-12T17:41:18.000Z</time>
        <extensions>
          <ns3:TrackPointExtension>
            <ns3:atemp>19.0</ns3:atemp>
            <ns3:hr>139</ns3:hr>
          </ns3:TrackPointExtension>
        </extensions>
      </trkpt>
      <trkpt lat="-22.1202245168387889862060546875" lon="166.44828521646559238433837890625">
        <ele>164.1999969482421875</ele>
        <time>2016-08-12T17:41:19.000Z</time>
        <extensions>
          <ns3:TrackPointExtension>
            <ns3:atemp>19.0</ns3:atemp>
            <ns3:hr>138</ns3:hr>
          </ns3:TrackPointExtension>
        </extensions>
      </trkpt>
      <trkpt lat="-22.12024413049221038818359375" lon="166.44827884621918201446533203125">
        <ele>164.399993896484375</ele>
        <time>2016-08-12T17:41:20.000Z</time>
        <extensions>
          <ns3:TrackPointExtension>
            <ns3:atemp>19.0</ns3:atemp>
            <ns3:hr>139</ns3:hr>
          </ns3:TrackPointExtension>
        </extensions>
      </trkpt>
      <trkpt lat="-22.12026047520339488983154296875" lon="166.4482752420008182525634765625">
        <ele>164.399993896484375</ele>
        <time>2016-08-12T17:41:21.000Z</time>
        <extensions>
          <ns3:TrackPointExtension>
            <ns3:atemp>19.0</ns3:atemp>
            <ns3:hr>139</ns3:hr>
          </ns3:TrackPointExtension>
        </extensions>
      </trkpt>
      <trkpt lat="-22.12028528563678264617919921875" lon="166.44827063195407390594482421875">
        <ele>164.1999969482421875</ele>
        <time>2016-08-12T17:41:22.000Z</time>
        <extensions>
          <ns3:TrackPointExtension>
            <ns3:atemp>19.0</ns3:atemp>
            <ns3:hr>139</ns3:hr>
          </ns3:TrackPointExtension>
        </extensions>
      </trkpt>
      <trkpt lat="-22.12031562812626361846923828125" lon="166.4482658542692661285400390625">
        <ele>164.399993896484375</ele>
        <time>2016-08-12T17:41:23.000Z</time>
        <extensions>
          <ns3:TrackPointExtension>
            <ns3:atemp>19.0</ns3:atemp>
            <ns3:hr>139</ns3:hr>
          </ns3:TrackPointExtension>
        </extensions>
      </trkpt>
      <trkpt lat="-22.12034144438803195953369140625" lon="166.4482604898512363433837890625">
        <ele>164.399993896484375</ele>
        <time>2016-08-12T17:41:24.000Z</time>
        <extensions>
          <ns3:TrackPointExtension>
            <ns3:atemp>19.0</ns3:atemp>
            <ns3:hr>139</ns3:hr>
          </ns3:TrackPointExtension>
        </extensions>
      </trkpt>
      <trkpt lat="-22.120366506278514862060546875" lon="166.44825537689030170440673828125">
        <ele>164.399993896484375</ele>
        <time>2016-08-12T17:41:25.000Z</time>
        <extensions>
          <ns3:TrackPointExtension>
            <ns3:atemp>19.0</ns3:atemp>
            <ns3:hr>139</ns3:hr>
          </ns3:TrackPointExtension>
        </extensions>
      </trkpt>
      <trkpt lat="-22.12039425037801265716552734375" lon="166.44824850372970104217529296875">
        <ele>164.600006103515625</ele>
        <time>2016-08-12T17:41:26.000Z</time>
        <extensions>
          <ns3:TrackPointExtension>
            <ns3:atemp>19.0</ns3:atemp>
            <ns3:hr>139</ns3:hr>
          </ns3:TrackPointExtension>
        </extensions>
      </trkpt>
      <trkpt lat="-22.12042861618101596832275390625" lon="166.44824682734906673431396484375">
        <ele>164.600006103515625</ele>
        <time>2016-08-12T17:41:27.000Z</time>
        <extensions>
          <ns3:TrackPointExtension>
            <ns3:atemp>19.0</ns3:atemp>
            <ns3:hr>139</ns3:hr>
          </ns3:TrackPointExtension>
        </extensions>
      </trkpt>
      <trkpt lat="-22.12045828811824321746826171875" lon="166.44824263639748096466064453125">
        <ele>164.600006103515625</ele>
        <time>2016-08-12T17:41:28.000Z</time>
        <extensions>
          <ns3:TrackPointExtension>
            <ns3:atemp>19.0</ns3:atemp>
            <ns3:hr>138</ns3:hr>
          </ns3:TrackPointExtension>
        </extensions>
      </trkpt>
      <trkpt lat="-22.12048360146582126617431640625" lon="166.4482430554926395416259765625">
        <ele>164.600006103515625</ele>
        <time>2016-08-12T17:41:29.000Z</time>
        <extensions>
          <ns3:TrackPointExtension>
            <ns3:atemp>19.0</ns3:atemp>
            <ns3:hr>138</ns3:hr>
          </ns3:TrackPointExtension>
        </extensions>
      </trkpt>
      <trkpt lat="-22.1205108426511287689208984375" lon="166.44824967719614505767822265625">
        <ele>164.600006103515625</ele>
        <time>2016-08-12T17:41:30.000Z</time>
        <extensions>
          <ns3:TrackPointExtension>
            <ns3:atemp>19.0</ns3:atemp>
            <ns3:hr>139</ns3:hr>
          </ns3:TrackPointExtension>
        </extensions>
      </trkpt>
      <trkpt lat="-22.1205383352935314178466796875" lon="166.4482628367841243743896484375">
        <ele>164.600006103515625</ele>
        <time>2016-08-12T17:41:31.000Z</time>
        <extensions>
          <ns3:TrackPointExtension>
            <ns3:atemp>19.0</ns3:atemp>
            <ns3:hr>138</ns3:hr>
          </ns3:TrackPointExtension>
        </extensions>
      </trkpt>
      <trkpt lat="-22.12056641466915607452392578125" lon="166.4482744038105010986328125">
        <ele>164.600006103515625</ele>
        <time>2016-08-12T17:41:32.000Z</time>
        <extensions>
          <ns3:TrackPointExtension>
            <ns3:atemp>19.0</ns3:atemp>
            <ns3:hr>138</ns3:hr>
          </ns3:TrackPointExtension>
        </extensions>
      </trkpt>
      <trkpt lat="-22.120599858462810516357421875" lon="166.448286473751068115234375">
        <ele>164.8000030517578125</ele>
        <time>2016-08-12T17:41:33.000Z</time>
        <extensions>
          <ns3:TrackPointExtension>
            <ns3:atemp>19.0</ns3:atemp>
            <ns3:hr>138</ns3:hr>
          </ns3:TrackPointExtension>
        </extensions>
      </trkpt>
      <trkpt lat="-22.12063564918935298919677734375" lon="166.44830181263387203216552734375">
        <ele>165</ele>
        <time>2016-08-12T17:41:34.000Z</time>
        <extensions>
          <ns3:TrackPointExtension>
            <ns3:atemp>19.0</ns3:atemp>
            <ns3:hr>138</ns3:hr>
          </ns3:TrackPointExtension>
        </extensions>
      </trkpt>
      <trkpt lat="-22.120664902031421661376953125" lon="166.44831572659313678741455078125">
        <ele>165</ele>
        <time>2016-08-12T17:41:35.000Z</time>
        <extensions>
          <ns3:TrackPointExtension>
            <ns3:atemp>19.0</ns3:atemp>
            <ns3:hr>137</ns3:hr>
          </ns3:TrackPointExtension>
        </extensions>
      </trkpt>
      <trkpt lat="-22.12069205939769744873046875" lon="166.44832762889564037322998046875">
        <ele>165</ele>
        <time>2016-08-12T17:41:36.000Z</time>
        <extensions>
          <ns3:TrackPointExtension>
            <ns3:atemp>19.0</ns3:atemp>
            <ns3:hr>138</ns3:hr>
          </ns3:TrackPointExtension>
        </extensions>
      </trkpt>
      <trkpt lat="-22.120716534554958343505859375" lon="166.448337770998477935791015625">
        <ele>165.399993896484375</ele>
        <time>2016-08-12T17:41:37.000Z</time>
        <extensions>
          <ns3:TrackPointExtension>
            <ns3:atemp>19.0</ns3:atemp>
            <ns3:hr>137</ns3:hr>
          </ns3:TrackPointExtension>
        </extensions>
      </trkpt>
      <trkpt lat="-22.12074008770287036895751953125" lon="166.44834456034004688262939453125">
        <ele>165.399993896484375</ele>
        <time>2016-08-12T17:41:38.000Z</time>
        <extensions>
          <ns3:TrackPointExtension>
            <ns3:atemp>19.0</ns3:atemp>
            <ns3:hr>137</ns3:hr>
          </ns3:TrackPointExtension>
        </extensions>
      </trkpt>
      <trkpt lat="-22.12076020427048206329345703125" lon="166.44835327751934528350830078125">
        <ele>165.399993896484375</ele>
        <time>2016-08-12T17:41:39.000Z</time>
        <extensions>
          <ns3:TrackPointExtension>
            <ns3:atemp>19.0</ns3:atemp>
            <ns3:hr>137</ns3:hr>
          </ns3:TrackPointExtension>
        </extensions>
      </trkpt>
      <trkpt lat="-22.12078166194260120391845703125" lon="166.44835813902318477630615234375">
        <ele>165.8000030517578125</ele>
        <time>2016-08-12T17:41:40.000Z</time>
        <extensions>
          <ns3:TrackPointExtension>
            <ns3:atemp>19.0</ns3:atemp>
            <ns3:hr>137</ns3:hr>
          </ns3:TrackPointExtension>
        </extensions>
      </trkpt>
      <trkpt lat="-22.12080328725278377532958984375" lon="166.44836400635540485382080078125">
        <ele>166</ele>
        <time>2016-08-12T17:41:41.000Z</time>
        <extensions>
          <ns3:TrackPointExtension>
            <ns3:atemp>19.0</ns3:atemp>
            <ns3:hr>137</ns3:hr>
          </ns3:TrackPointExtension>
        </extensions>
      </trkpt>
      <trkpt lat="-22.120825164020061492919921875" lon="166.44837356172502040863037109375">
        <ele>166</ele>
        <time>2016-08-12T17:41:42.000Z</time>
        <extensions>
          <ns3:TrackPointExtension>
            <ns3:atemp>19.0</ns3:atemp>
            <ns3:hr>137</ns3:hr>
          </ns3:TrackPointExtension>
        </extensions>
      </trkpt>
      <trkpt lat="-22.1208434365689754486083984375" lon="166.4483821950852870941162109375">
        <ele>166.1999969482421875</ele>
        <time>2016-08-12T17:41:43.000Z</time>
        <extensions>
          <ns3:TrackPointExtension>
            <ns3:atemp>19.0</ns3:atemp>
            <ns3:hr>137</ns3:hr>
          </ns3:TrackPointExtension>
        </extensions>
      </trkpt>
      <trkpt lat="-22.12086246348917484283447265625" lon="166.4483909122645854949951171875">
        <ele>166.600006103515625</ele>
        <time>2016-08-12T17:41:44.000Z</time>
        <extensions>
          <ns3:TrackPointExtension>
            <ns3:atemp>19.0</ns3:atemp>
            <ns3:hr>138</ns3:hr>
          </ns3:TrackPointExtension>
        </extensions>
      </trkpt>
      <trkpt lat="-22.1208833344280719757080078125" lon="166.4483989588916301727294921875">
        <ele>166.600006103515625</ele>
        <time>2016-08-12T17:41:45.000Z</time>
        <extensions>
          <ns3:TrackPointExtension>
            <ns3:atemp>19.0</ns3:atemp>
            <ns3:hr>137</ns3:hr>
          </ns3:TrackPointExtension>
        </extensions>
      </trkpt>
      <trkpt lat="-22.1209021098911762237548828125" lon="166.44840650260448455810546875">
        <ele>166.8000030517578125</ele>
        <time>2016-08-12T17:41:46.000Z</time>
        <extensions>
          <ns3:TrackPointExtension>
            <ns3:atemp>19.0</ns3:atemp>
            <ns3:hr>137</ns3:hr>
          </ns3:TrackPointExtension>
        </extensions>
      </trkpt>
      <trkpt lat="-22.12092080153524875640869140625" lon="166.44841664470732212066650390625">
        <ele>167</ele>
        <time>2016-08-12T17:41:47.000Z</time>
        <extensions>
          <ns3:TrackPointExtension>
            <ns3:atemp>19.0</ns3:atemp>
            <ns3:hr>137</ns3:hr>
          </ns3:TrackPointExtension>
        </extensions>
      </trkpt>
      <trkpt lat="-22.1209406666457653045654296875" lon="166.448426283895969390869140625">
        <ele>167</ele>
        <time>2016-08-12T17:41:48.000Z</time>
        <extensions>
          <ns3:TrackPointExtension>
            <ns3:atemp>19.0</ns3:atemp>
            <ns3:hr>137</ns3:hr>
          </ns3:TrackPointExtension>
        </extensions>
      </trkpt>
      <trkpt lat="-22.12096271105110645294189453125" lon="166.4484361745417118072509765625">
        <ele>167.1999969482421875</ele>
        <time>2016-08-12T17:41:49.000Z</time>
        <extensions>
          <ns3:TrackPointExtension>
            <ns3:atemp>19.0</ns3:atemp>
            <ns3:hr>137</ns3:hr>
          </ns3:TrackPointExtension>
        </extensions>
      </trkpt>
      <trkpt lat="-22.1209778822958469390869140625" lon="166.44844539463520050048828125">
        <ele>167.1999969482421875</ele>
        <time>2016-08-12T17:41:50.000Z</time>
        <extensions>
          <ns3:TrackPointExtension>
            <ns3:atemp>19.0</ns3:atemp>
            <ns3:hr>137</ns3:hr>
          </ns3:TrackPointExtension>
        </extensions>
      </trkpt>
      <trkpt lat="-22.12098986841738224029541015625" lon="166.44845369271934032440185546875">
        <ele>167.600006103515625</ele>
        <time>2016-08-12T17:41:51.000Z</time>
        <extensions>
          <ns3:TrackPointExtension>
            <ns3:atemp>19.0</ns3:atemp>
            <ns3:hr>136</ns3:hr>
          </ns3:TrackPointExtension>
        </extensions>
      </trkpt>
      <trkpt lat="-22.12100260891020298004150390625" lon="166.44846274517476558685302734375">
        <ele>167.600006103515625</ele>
        <time>2016-08-12T17:41:52.000Z</time>
        <extensions>
          <ns3:TrackPointExtension>
            <ns3:atemp>19.0</ns3:atemp>
            <ns3:hr>137</ns3:hr>
          </ns3:TrackPointExtension>
        </extensions>
      </trkpt>
      <trkpt lat="-22.1210159361362457275390625" lon="166.44847162999212741851806640625">
        <ele>167.8000030517578125</ele>
        <time>2016-08-12T17:41:53.000Z</time>
        <extensions>
          <ns3:TrackPointExtension>
            <ns3:atemp>19.0</ns3:atemp>
            <ns3:hr>137</ns3:hr>
          </ns3:TrackPointExtension>
        </extensions>
      </trkpt>
      <trkpt lat="-22.1210293471813201904296875" lon="166.44847950898110866546630859375">
        <ele>168</ele>
        <time>2016-08-12T17:41:54.000Z</time>
        <extensions>
          <ns3:TrackPointExtension>
            <ns3:atemp>19.0</ns3:atemp>
            <ns3:hr>137</ns3:hr>
          </ns3:TrackPointExtension>
        </extensions>
      </trkpt>
      <trkpt lat="-22.1210409142076969146728515625" lon="166.44848537631332874298095703125">
        <ele>168.1999969482421875</ele>
        <time>2016-08-12T17:41:55.000Z</time>
        <extensions>
          <ns3:TrackPointExtension>
            <ns3:atemp>19.0</ns3:atemp>
            <ns3:hr>137</ns3:hr>
          </ns3:TrackPointExtension>
        </extensions>
      </trkpt>
      <trkpt lat="-22.12104166857898235321044921875" lon="166.44848923198878765106201171875">
        <ele>168.399993896484375</ele>
        <time>2016-08-12T17:41:56.000Z</time>
        <extensions>
          <ns3:TrackPointExtension>
            <ns3:atemp>19.0</ns3:atemp>
            <ns3:hr>137</ns3:hr>
          </ns3:TrackPointExtension>
        </extensions>
      </trkpt>
      <trkpt lat="-22.12103982456028461456298828125" lon="166.44848772324621677398681640625">
        <ele>168.600006103515625</ele>
        <time>2016-08-12T17:41:58.000Z</time>
        <extensions>
          <ns3:TrackPointExtension>
            <ns3:atemp>19.0</ns3:atemp>
            <ns3:hr>137</ns3:hr>
          </ns3:TrackPointExtension>
        </extensions>
      </trkpt>
      <trkpt lat="-22.12104166857898235321044921875" lon="166.44849007017910480499267578125">
        <ele>168.399993896484375</ele>
        <time>2016-08-12T17:42:00.000Z</time>
        <extensions>
          <ns3:TrackPointExtension>
            <ns3:atemp>19.0</ns3:atemp>
            <ns3:hr>136</ns3:hr>
          </ns3:TrackPointExtension>
        </extensions>
      </trkpt>
      <trkpt lat="-22.12104602716863155364990234375" lon="166.448492668569087982177734375">
        <ele>168.399993896484375</ele>
        <time>2016-08-12T17:42:01.000Z</time>
        <extensions>
          <ns3:TrackPointExtension>
            <ns3:atemp>19.0</ns3:atemp>
            <ns3:hr>135</ns3:hr>
          </ns3:TrackPointExtension>
        </extensions>
      </trkpt>
      <trkpt lat="-22.121051810681819915771484375" lon="166.448495350778102874755859375">
        <ele>168.600006103515625</ele>
        <time>2016-08-12T17:42:02.000Z</time>
        <extensions>
          <ns3:TrackPointExtension>
            <ns3:atemp>19.0</ns3:atemp>
            <ns3:hr>134</ns3:hr>
          </ns3:TrackPointExtension>
        </extensions>
      </trkpt>
      <trkpt lat="-22.1210596896708011627197265625" lon="166.4485018886625766754150390625">
        <ele>168.600006103515625</ele>
        <time>2016-08-12T17:42:03.000Z</time>
        <extensions>
          <ns3:TrackPointExtension>
            <ns3:atemp>19.0</ns3:atemp>
            <ns3:hr>134</ns3:hr>
          </ns3:TrackPointExtension>
        </extensions>
      </trkpt>
      <trkpt lat="-22.12106983177363872528076171875" lon="166.44850700162351131439208984375">
        <ele>168.8000030517578125</ele>
        <time>2016-08-12T17:42:04.000Z</time>
        <extensions>
          <ns3:TrackPointExtension>
            <ns3:atemp>19.0</ns3:atemp>
            <ns3:hr>133</ns3:hr>
          </ns3:TrackPointExtension>
        </extensions>
      </trkpt>
      <trkpt lat="-22.12108039297163486480712890625" lon="166.4485106058418750762939453125">
        <ele>168.8000030517578125</ele>
        <time>2016-08-12T17:42:05.000Z</time>
        <extensions>
          <ns3:TrackPointExtension>
            <ns3:atemp>19.0</ns3:atemp>
            <ns3:hr>132</ns3:hr>
          </ns3:TrackPointExtension>
        </extensions>
      </trkpt>
      <trkpt lat="-22.121089361608028411865234375" lon="166.4485166408121585845947265625">
        <ele>168.8000030517578125</ele>
        <time>2016-08-12T17:42:06.000Z</time>
        <extensions>
          <ns3:TrackPointExtension>
            <ns3:atemp>19.0</ns3:atemp>
            <ns3:hr>132</ns3:hr>
          </ns3:TrackPointExtension>
        </extensions>
      </trkpt>
      <trkpt lat="-22.12109648622572422027587890625" lon="166.44852024503052234649658203125">
        <ele>169</ele>
        <time>2016-08-12T17:42:07.000Z</time>
        <extensions>
          <ns3:TrackPointExtension>
            <ns3:atemp>19.0</ns3:atemp>
            <ns3:hr>132</ns3:hr>
          </ns3:TrackPointExtension>
        </extensions>
      </trkpt>
      <trkpt lat="-22.12110537104308605194091796875" lon="166.44852560944855213165283203125">
        <ele>169</ele>
        <time>2016-08-12T17:42:08.000Z</time>
        <extensions>
          <ns3:TrackPointExtension>
            <ns3:atemp>19.0</ns3:atemp>
            <ns3:hr>132</ns3:hr>
          </ns3:TrackPointExtension>
        </extensions>
      </trkpt>
      <trkpt lat="-22.12111274711787700653076171875" lon="166.4485318958759307861328125">
        <ele>169</ele>
        <time>2016-08-12T17:42:09.000Z</time>
        <extensions>
          <ns3:TrackPointExtension>
            <ns3:atemp>19.0</ns3:atemp>
            <ns3:hr>132</ns3:hr>
          </ns3:TrackPointExtension>
        </extensions>
      </trkpt>
      <trkpt lat="-22.1211232244968414306640625" lon="166.448540277779102325439453125">
        <ele>169.1999969482421875</ele>
        <time>2016-08-12T17:42:10.000Z</time>
        <extensions>
          <ns3:TrackPointExtension>
            <ns3:atemp>19.0</ns3:atemp>
            <ns3:hr>131</ns3:hr>
          </ns3:TrackPointExtension>
        </extensions>
      </trkpt>
      <trkpt lat="-22.12112917564809322357177734375" lon="166.44855000078678131103515625">
        <ele>169.1999969482421875</ele>
        <time>2016-08-12T17:42:11.000Z</time>
        <extensions>
          <ns3:TrackPointExtension>
            <ns3:atemp>19.0</ns3:atemp>
            <ns3:hr>131</ns3:hr>
          </ns3:TrackPointExtension>
        </extensions>
      </trkpt>
      <trkpt lat="-22.12113621644675731658935546875" lon="166.44856198690831661224365234375">
        <ele>169.1999969482421875</ele>
        <time>2016-08-12T17:42:12.000Z</time>
        <extensions>
          <ns3:TrackPointExtension>
            <ns3:atemp>19.0</ns3:atemp>
            <ns3:hr>130</ns3:hr>
          </ns3:TrackPointExtension>
        </extensions>
      </trkpt>
      <trkpt lat="-22.12114174850285053253173828125" lon="166.44857204519212245941162109375">
        <ele>169.1999969482421875</ele>
        <time>2016-08-12T17:42:13.000Z</time>
        <extensions>
          <ns3:TrackPointExtension>
            <ns3:atemp>19.0</ns3:atemp>
            <ns3:hr>130</ns3:hr>
          </ns3:TrackPointExtension>
        </extensions>
      </trkpt>
      <trkpt lat="-22.12114761583507061004638671875" lon="166.44858277402818202972412109375">
        <ele>169.399993896484375</ele>
        <time>2016-08-12T17:42:14.000Z</time>
        <extensions>
          <ns3:TrackPointExtension>
            <ns3:atemp>19.0</ns3:atemp>
            <ns3:hr>129</ns3:hr>
          </ns3:TrackPointExtension>
        </extensions>
      </trkpt>
      <trkpt lat="-22.1211569197475910186767578125" lon="166.44859652034938335418701171875">
        <ele>169.399993896484375</ele>
        <time>2016-08-12T17:42:15.000Z</time>
        <extensions>
          <ns3:TrackPointExtension>
            <ns3:atemp>19.0</ns3:atemp>
            <ns3:hr>128</ns3:hr>
          </ns3:TrackPointExtension>
        </extensions>
      </trkpt>
      <trkpt lat="-22.12116505019366741180419921875" lon="166.4486071653664112091064453125">
        <ele>169.600006103515625</ele>
        <time>2016-08-12T17:42:16.000Z</time>
        <extensions>
          <ns3:TrackPointExtension>
            <ns3:atemp>19.0</ns3:atemp>
            <ns3:hr>128</ns3:hr>
          </ns3:TrackPointExtension>
        </extensions>
      </trkpt>
      <trkpt lat="-22.121171168982982635498046875" lon="166.44862049259245395660400390625">
        <ele>169.600006103515625</ele>
        <time>2016-08-12T17:42:17.000Z</time>
        <extensions>
          <ns3:TrackPointExtension>
            <ns3:atemp>20.0</ns3:atemp>
            <ns3:hr>127</ns3:hr>
          </ns3:TrackPointExtension>
        </extensions>
      </trkpt>
      <trkpt lat="-22.12117753922939300537109375" lon="166.44863340072333812713623046875">
        <ele>169.600006103515625</ele>
        <time>2016-08-12T17:42:18.000Z</time>
        <extensions>
          <ns3:TrackPointExtension>
            <ns3:atemp>20.0</ns3:atemp>
            <ns3:hr>127</ns3:hr>
          </ns3:TrackPointExtension>
        </extensions>
      </trkpt>
      <trkpt lat="-22.12118156254291534423828125" lon="166.448650918900966644287109375">
        <ele>169.8000030517578125</ele>
        <time>2016-08-12T17:42:19.000Z</time>
        <extensions>
          <ns3:TrackPointExtension>
            <ns3:atemp>20.0</ns3:atemp>
            <ns3:hr>127</ns3:hr>
          </ns3:TrackPointExtension>
        </extensions>
      </trkpt>
      <trkpt lat="-22.121186591684818267822265625" lon="166.44866324029862880706787109375">
        <ele>170</ele>
        <time>2016-08-12T17:42:20.000Z</time>
        <extensions>
          <ns3:TrackPointExtension>
            <ns3:atemp>20.0</ns3:atemp>
            <ns3:hr>127</ns3:hr>
          </ns3:TrackPointExtension>
        </extensions>
      </trkpt>
      <trkpt lat="-22.12119321338832378387451171875" lon="166.44867346622049808502197265625">
        <ele>170</ele>
        <time>2016-08-12T17:42:21.000Z</time>
        <extensions>
          <ns3:TrackPointExtension>
            <ns3:atemp>20.0</ns3:atemp>
            <ns3:hr>126</ns3:hr>
          </ns3:TrackPointExtension>
        </extensions>
      </trkpt>
      <trkpt lat="-22.121197991073131561279296875" lon="166.44868100993335247039794921875">
        <ele>170.1999969482421875</ele>
        <time>2016-08-12T17:42:22.000Z</time>
        <extensions>
          <ns3:TrackPointExtension>
            <ns3:atemp>20.0</ns3:atemp>
            <ns3:hr>126</ns3:hr>
          </ns3:TrackPointExtension>
        </extensions>
      </trkpt>
      <trkpt lat="-22.12119488976895809173583984375" lon="166.448687128722667694091796875">
        <ele>170.399993896484375</ele>
        <time>2016-08-12T17:42:23.000Z</time>
        <extensions>
          <ns3:TrackPointExtension>
            <ns3:atemp>20.0</ns3:atemp>
            <ns3:hr>126</ns3:hr>
          </ns3:TrackPointExtension>
        </extensions>
      </trkpt>
      <trkpt lat="-22.1211904473602771759033203125" lon="166.448698528110980987548828125">
        <ele>170.399993896484375</ele>
        <time>2016-08-12T17:42:24.000Z</time>
        <extensions>
          <ns3:TrackPointExtension>
            <ns3:atemp>20.0</ns3:atemp>
            <ns3:hr>125</ns3:hr>
          </ns3:TrackPointExtension>
        </extensions>
      </trkpt>
      <trkpt lat="-22.12118935771286487579345703125" lon="166.4487094245851039886474609375">
        <ele>170.399993896484375</ele>
        <time>2016-08-12T17:42:25.000Z</time>
        <extensions>
          <ns3:TrackPointExtension>
            <ns3:atemp>20.0</ns3:atemp>
            <ns3:hr>125</ns3:hr>
          </ns3:TrackPointExtension>
        </extensions>
      </trkpt>
      <trkpt lat="-22.1211837418377399444580078125" lon="166.44872325472533702850341796875">
        <ele>170.600006103515625</ele>
        <time>2016-08-12T17:42:26.000Z</time>
        <extensions>
          <ns3:TrackPointExtension>
            <ns3:atemp>20.0</ns3:atemp>
            <ns3:hr>124</ns3:hr>
          </ns3:TrackPointExtension>
        </extensions>
      </trkpt>
      <trkpt lat="-22.121178209781646728515625" lon="166.44873750396072864532470703125">
        <ele>170.600006103515625</ele>
        <time>2016-08-12T17:42:27.000Z</time>
        <extensions>
          <ns3:TrackPointExtension>
            <ns3:atemp>20.0</ns3:atemp>
            <ns3:hr>124</ns3:hr>
          </ns3:TrackPointExtension>
        </extensions>
      </trkpt>
      <trkpt lat="-22.121172510087490081787109375" lon="166.44875208847224712371826171875">
        <ele>170.8000030517578125</ele>
        <time>2016-08-12T17:42:28.000Z</time>
        <extensions>
          <ns3:TrackPointExtension>
            <ns3:atemp>20.0</ns3:atemp>
            <ns3:hr>124</ns3:hr>
          </ns3:TrackPointExtension>
        </extensions>
      </trkpt>
      <trkpt lat="-22.12116924114525318145751953125" lon="166.448766253888607025146484375">
        <ele>170.8000030517578125</ele>
        <time>2016-08-12T17:42:29.000Z</time>
        <extensions>
          <ns3:TrackPointExtension>
            <ns3:atemp>20.0</ns3:atemp>
            <ns3:hr>123</ns3:hr>
          </ns3:TrackPointExtension>
        </extensions>
      </trkpt>
      <trkpt lat="-22.12116421200335025787353515625" lon="166.44877941347658634185791015625">
        <ele>170.8000030517578125</ele>
        <time>2016-08-12T17:42:30.000Z</time>
        <extensions>
          <ns3:TrackPointExtension>
            <ns3:atemp>20.0</ns3:atemp>
            <ns3:hr>123</ns3:hr>
          </ns3:TrackPointExtension>
        </extensions>
      </trkpt>
      <trkpt lat="-22.1211580932140350341796875" lon="166.44879274070262908935546875">
        <ele>171</ele>
        <time>2016-08-12T17:42:31.000Z</time>
        <extensions>
          <ns3:TrackPointExtension>
            <ns3:atemp>20.0</ns3:atemp>
            <ns3:hr>122</ns3:hr>
          </ns3:TrackPointExtension>
        </extensions>
      </trkpt>
      <trkpt lat="-22.1211518906056880950927734375" lon="166.4488053135573863983154296875">
        <ele>171</ele>
        <time>2016-08-12T17:42:32.000Z</time>
        <extensions>
          <ns3:TrackPointExtension>
            <ns3:atemp>20.0</ns3:atemp>
            <ns3:hr>122</ns3:hr>
          </ns3:TrackPointExtension>
        </extensions>
      </trkpt>
      <trkpt lat="-22.1211419999599456787109375" lon="166.44881897605955600738525390625">
        <ele>171.1999969482421875</ele>
        <time>2016-08-12T17:42:33.000Z</time>
        <extensions>
          <ns3:TrackPointExtension>
            <ns3:atemp>20.0</ns3:atemp>
            <ns3:hr>121</ns3:hr>
          </ns3:TrackPointExtension>
        </extensions>
      </trkpt>
      <trkpt lat="-22.12113671936094760894775390625" lon="166.44883087836205959320068359375">
        <ele>171.1999969482421875</ele>
        <time>2016-08-12T17:42:34.000Z</time>
        <extensions>
          <ns3:TrackPointExtension>
            <ns3:atemp>20.0</ns3:atemp>
            <ns3:hr>121</ns3:hr>
          </ns3:TrackPointExtension>
        </extensions>
      </trkpt>
      <trkpt lat="-22.1211307682096958160400390625" lon="166.44884311594069004058837890625">
        <ele>171.399993896484375</ele>
        <time>2016-08-12T17:42:35.000Z</time>
        <extensions>
          <ns3:TrackPointExtension>
            <ns3:atemp>20.0</ns3:atemp>
            <ns3:hr>120</ns3:hr>
          </ns3:TrackPointExtension>
        </extensions>
      </trkpt>
      <trkpt lat="-22.121124230325222015380859375" lon="166.44885602407157421112060546875">
        <ele>171.399993896484375</ele>
        <time>2016-08-12T17:42:36.000Z</time>
        <extensions>
          <ns3:TrackPointExtension>
            <ns3:atemp>20.0</ns3:atemp>
            <ns3:hr>120</ns3:hr>
          </ns3:TrackPointExtension>
        </extensions>
      </trkpt>
      <trkpt lat="-22.1211150102317333221435546875" lon="166.44886792637407779693603515625">
        <ele>171.600006103515625</ele>
        <time>2016-08-12T17:42:37.000Z</time>
        <extensions>
          <ns3:TrackPointExtension>
            <ns3:atemp>20.0</ns3:atemp>
            <ns3:hr>120</ns3:hr>
          </ns3:TrackPointExtension>
        </extensions>
      </trkpt>
      <trkpt lat="-22.12111123837530612945556640625" lon="166.44887387752532958984375">
        <ele>171.600006103515625</ele>
        <time>2016-08-12T17:42:38.000Z</time>
        <extensions>
          <ns3:TrackPointExtension>
            <ns3:atemp>20.0</ns3:atemp>
            <ns3:hr>120</ns3:hr>
          </ns3:TrackPointExtension>
        </extensions>
      </trkpt>
      <trkpt lat="-22.1211019344627857208251953125" lon="166.44888125360012054443359375">
        <ele>171.8000030517578125</ele>
        <time>2016-08-12T17:42:39.000Z</time>
        <extensions>
          <ns3:TrackPointExtension>
            <ns3:atemp>20.0</ns3:atemp>
            <ns3:hr>120</ns3:hr>
          </ns3:TrackPointExtension>
        </extensions>
      </trkpt>
      <trkpt lat="-22.12109179235994815826416015625" lon="166.448889635503292083740234375">
        <ele>171.8000030517578125</ele>
        <time>2016-08-12T17:42:40.000Z</time>
        <extensions>
          <ns3:TrackPointExtension>
            <ns3:atemp>20.0</ns3:atemp>
            <ns3:hr>120</ns3:hr>
          </ns3:TrackPointExtension>
        </extensions>
      </trkpt>
      <trkpt lat="-22.12108089588582515716552734375" lon="166.44889793358743190765380859375">
        <ele>171.8000030517578125</ele>
        <time>2016-08-12T17:42:41.000Z</time>
        <extensions>
          <ns3:TrackPointExtension>
            <ns3:atemp>20.0</ns3:atemp>
            <ns3:hr>120</ns3:hr>
          </ns3:TrackPointExtension>
        </extensions>
      </trkpt>
      <trkpt lat="-22.12107159197330474853515625" lon="166.4489042200148105621337890625">
        <ele>172</ele>
        <time>2016-08-12T17:42:42.000Z</time>
        <extensions>
          <ns3:TrackPointExtension>
            <ns3:atemp>20.0</ns3:atemp>
            <ns3:hr>120</ns3:hr>
          </ns3:TrackPointExtension>
        </extensions>
      </trkpt>
      <trkpt lat="-22.12106027640402317047119140625" lon="166.44891134463250637054443359375">
        <ele>172.1999969482421875</ele>
        <time>2016-08-12T17:42:43.000Z</time>
        <extensions>
          <ns3:TrackPointExtension>
            <ns3:atemp>20.0</ns3:atemp>
            <ns3:hr>120</ns3:hr>
          </ns3:TrackPointExtension>
        </extensions>
      </trkpt>
      <trkpt lat="-22.12104879319667816162109375" lon="166.448919475078582763671875">
        <ele>172.399993896484375</ele>
        <time>2016-08-12T17:42:44.000Z</time>
        <extensions>
          <ns3:TrackPointExtension>
            <ns3:atemp>20.0</ns3:atemp>
            <ns3:hr>119</ns3:hr>
          </ns3:TrackPointExtension>
        </extensions>
      </trkpt>
      <trkpt lat="-22.1210372261703014373779296875" lon="166.4489300362765789031982421875">
        <ele>172.399993896484375</ele>
        <time>2016-08-12T17:42:45.000Z</time>
        <extensions>
          <ns3:TrackPointExtension>
            <ns3:atemp>20.0</ns3:atemp>
            <ns3:hr>120</ns3:hr>
          </ns3:TrackPointExtension>
        </extensions>
      </trkpt>
      <trkpt lat="-22.1210271678864955902099609375" lon="166.44893732853233814239501953125">
        <ele>172.600006103515625</ele>
        <time>2016-08-12T17:42:46.000Z</time>
        <extensions>
          <ns3:TrackPointExtension>
            <ns3:atemp>20.0</ns3:atemp>
            <ns3:hr>120</ns3:hr>
          </ns3:TrackPointExtension>
        </extensions>
      </trkpt>
      <trkpt lat="-22.12101669050753116607666015625" lon="166.448945291340351104736328125">
        <ele>172.600006103515625</ele>
        <time>2016-08-12T17:42:47.000Z</time>
        <extensions>
          <ns3:TrackPointExtension>
            <ns3:atemp>20.0</ns3:atemp>
            <ns3:hr>120</ns3:hr>
          </ns3:TrackPointExtension>
        </extensions>
      </trkpt>
      <trkpt lat="-22.12100747041404247283935546875" lon="166.4489530026912689208984375">
        <ele>172.8000030517578125</ele>
        <time>2016-08-12T17:42:48.000Z</time>
        <extensions>
          <ns3:TrackPointExtension>
            <ns3:atemp>20.0</ns3:atemp>
            <ns3:hr>119</ns3:hr>
          </ns3:TrackPointExtension>
        </extensions>
      </trkpt>
      <trkpt lat="-22.12099825032055377960205078125" lon="166.4489608816802501678466796875">
        <ele>173</ele>
        <time>2016-08-12T17:42:49.000Z</time>
        <extensions>
          <ns3:TrackPointExtension>
            <ns3:atemp>20.0</ns3:atemp>
            <ns3:hr>120</ns3:hr>
          </ns3:TrackPointExtension>
        </extensions>
      </trkpt>
      <trkpt lat="-22.12098835967481136322021484375" lon="166.4489662460982799530029296875">
        <ele>173.1999969482421875</ele>
        <time>2016-08-12T17:42:50.000Z</time>
        <extensions>
          <ns3:TrackPointExtension>
            <ns3:atemp>20.0</ns3:atemp>
            <ns3:hr>120</ns3:hr>
          </ns3:TrackPointExtension>
        </extensions>
      </trkpt>
      <trkpt lat="-22.120980061590671539306640625" lon="166.44897052086889743804931640625">
        <ele>173.399993896484375</ele>
        <time>2016-08-12T17:42:51.000Z</time>
        <extensions>
          <ns3:TrackPointExtension>
            <ns3:atemp>20.0</ns3:atemp>
            <ns3:hr>120</ns3:hr>
          </ns3:TrackPointExtension>
        </extensions>
      </trkpt>
      <trkpt lat="-22.1209695003926753997802734375" lon="166.44897513091564178466796875">
        <ele>173.600006103515625</ele>
        <time>2016-08-12T17:42:52.000Z</time>
        <extensions>
          <ns3:TrackPointExtension>
            <ns3:atemp>20.0</ns3:atemp>
            <ns3:hr>120</ns3:hr>
          </ns3:TrackPointExtension>
        </extensions>
      </trkpt>
      <trkpt lat="-22.12095835246145725250244140625" lon="166.4489803276956081390380859375">
        <ele>173.8000030517578125</ele>
        <time>2016-08-12T17:42:53.000Z</time>
        <extensions>
          <ns3:TrackPointExtension>
            <ns3:atemp>20.0</ns3:atemp>
            <ns3:hr>120</ns3:hr>
          </ns3:TrackPointExtension>
        </extensions>
      </trkpt>
      <trkpt lat="-22.12094150483608245849609375" lon="166.4489887095987796783447265625">
        <ele>174</ele>
        <time>2016-08-12T17:42:54.000Z</time>
        <extensions>
          <ns3:TrackPointExtension>
            <ns3:atemp>20.0</ns3:atemp>
            <ns3:hr>120</ns3:hr>
          </ns3:TrackPointExtension>
        </extensions>
      </trkpt>
      <trkpt lat="-22.12092398665845394134521484375" lon="166.44899784587323665618896484375">
        <ele>174.1999969482421875</ele>
        <time>2016-08-12T17:42:55.000Z</time>
        <extensions>
          <ns3:TrackPointExtension>
            <ns3:atemp>20.0</ns3:atemp>
            <ns3:hr>120</ns3:hr>
          </ns3:TrackPointExtension>
        </extensions>
      </trkpt>
      <trkpt lat="-22.120904624462127685546875" lon="166.4490115083754062652587890625">
        <ele>174.8000030517578125</ele>
        <time>2016-08-12T17:42:56.000Z</time>
        <extensions>
          <ns3:TrackPointExtension>
            <ns3:atemp>20.0</ns3:atemp>
            <ns3:hr>121</ns3:hr>
          </ns3:TrackPointExtension>
        </extensions>
      </trkpt>
      <trkpt lat="-22.12088786065578460693359375" lon="166.4490252546966075897216796875">
        <ele>175.1999969482421875</ele>
        <time>2016-08-12T17:42:57.000Z</time>
        <extensions>
          <ns3:TrackPointExtension>
            <ns3:atemp>20.0</ns3:atemp>
            <ns3:hr>122</ns3:hr>
          </ns3:TrackPointExtension>
        </extensions>
      </trkpt>
      <trkpt lat="-22.1208642236888408660888671875" lon="166.4490406773984432220458984375">
        <ele>175.399993896484375</ele>
        <time>2016-08-12T17:42:58.000Z</time>
        <extensions>
          <ns3:TrackPointExtension>
            <ns3:atemp>20.0</ns3:atemp>
            <ns3:hr>122</ns3:hr>
          </ns3:TrackPointExtension>
        </extensions>
      </trkpt>
      <trkpt lat="-22.12083698250353336334228515625" lon="166.44905685447156429290771484375">
        <ele>175.399993896484375</ele>
        <time>2016-08-12T17:42:59.000Z</time>
        <extensions>
          <ns3:TrackPointExtension>
            <ns3:atemp>20.0</ns3:atemp>
            <ns3:hr>122</ns3:hr>
          </ns3:TrackPointExtension>
        </extensions>
      </trkpt>
      <trkpt lat="-22.1208139322698116302490234375" lon="166.44907445646822452545166015625">
        <ele>175.8000030517578125</ele>
        <time>2016-08-12T17:43:00.000Z</time>
        <extensions>
          <ns3:TrackPointExtension>
            <ns3:atemp>20.0</ns3:atemp>
            <ns3:hr>123</ns3:hr>
          </ns3:TrackPointExtension>
        </extensions>
      </trkpt>
      <trkpt lat="-22.120791971683502197265625" lon="166.4490899629890918731689453125">
        <ele>176</ele>
        <time>2016-08-12T17:43:01.000Z</time>
        <extensions>
          <ns3:TrackPointExtension>
            <ns3:atemp>20.0</ns3:atemp>
            <ns3:hr>124</ns3:hr>
          </ns3:TrackPointExtension>
        </extensions>
      </trkpt>
      <trkpt lat="-22.120772190392017364501953125" lon="166.44910714589059352874755859375">
        <ele>176</ele>
        <time>2016-08-12T17:43:02.000Z</time>
        <extensions>
          <ns3:TrackPointExtension>
            <ns3:atemp>20.0</ns3:atemp>
            <ns3:hr>125</ns3:hr>
          </ns3:TrackPointExtension>
        </extensions>
      </trkpt>
      <trkpt lat="-22.12074947543442249298095703125" lon="166.4491248317062854766845703125">
        <ele>176.1999969482421875</ele>
        <time>2016-08-12T17:43:03.000Z</time>
        <extensions>
          <ns3:TrackPointExtension>
            <ns3:atemp>20.0</ns3:atemp>
            <ns3:hr>126</ns3:hr>
          </ns3:TrackPointExtension>
        </extensions>
      </trkpt>
      <trkpt lat="-22.1207294426858425140380859375" lon="166.4491429366171360015869140625">
        <ele>176.600006103515625</ele>
        <time>2016-08-12T17:43:04.000Z</time>
        <extensions>
          <ns3:TrackPointExtension>
            <ns3:atemp>20.0</ns3:atemp>
            <ns3:hr>127</ns3:hr>
          </ns3:TrackPointExtension>
        </extensions>
      </trkpt>
      <trkpt lat="-22.120713852345943450927734375" lon="166.449162550270557403564453125">
        <ele>176.399993896484375</ele>
        <time>2016-08-12T17:43:05.000Z</time>
        <extensions>
          <ns3:TrackPointExtension>
            <ns3:atemp>20.0</ns3:atemp>
            <ns3:hr>128</ns3:hr>
          </ns3:TrackPointExtension>
        </extensions>
      </trkpt>
      <trkpt lat="-22.12069063447415828704833984375" lon="166.44920437596738338470458984375">
        <ele>176.399993896484375</ele>
        <time>2016-08-12T17:43:07.000Z</time>
        <extensions>
          <ns3:TrackPointExtension>
            <ns3:atemp>20.0</ns3:atemp>
            <ns3:hr>128</ns3:hr>
          </ns3:TrackPointExtension>
        </extensions>
      </trkpt>
      <trkpt lat="-22.1206747926771640777587890625" lon="166.449219547212123870849609375">
        <ele>176.399993896484375</ele>
        <time>2016-08-12T17:43:08.000Z</time>
        <extensions>
          <ns3:TrackPointExtension>
            <ns3:atemp>20.0</ns3:atemp>
            <ns3:hr>129</ns3:hr>
          </ns3:TrackPointExtension>
        </extensions>
      </trkpt>
      <trkpt lat="-22.12064914405345916748046875" lon="166.449230946600437164306640625">
        <ele>176.399993896484375</ele>
        <time>2016-08-12T17:43:09.000Z</time>
        <extensions>
          <ns3:TrackPointExtension>
            <ns3:atemp>20.0</ns3:atemp>
            <ns3:hr>129</ns3:hr>
          </ns3:TrackPointExtension>
        </extensions>
      </trkpt>
      <trkpt lat="-22.1206208132207393646240234375" lon="166.44924343563616275787353515625">
        <ele>176.600006103515625</ele>
        <time>2016-08-12T17:43:10.000Z</time>
        <extensions>
          <ns3:TrackPointExtension>
            <ns3:atemp>20.0</ns3:atemp>
            <ns3:hr>130</ns3:hr>
          </ns3:TrackPointExtension>
        </extensions>
      </trkpt>
      <trkpt lat="-22.12059977464377880096435546875" lon="166.44925408065319061279296875">
        <ele>176.8000030517578125</ele>
        <time>2016-08-12T17:43:11.000Z</time>
        <extensions>
          <ns3:TrackPointExtension>
            <ns3:atemp>20.0</ns3:atemp>
            <ns3:hr>130</ns3:hr>
          </ns3:TrackPointExtension>
        </extensions>
      </trkpt>
      <trkpt lat="-22.1205812506377696990966796875" lon="166.4492659829556941986083984375">
        <ele>177</ele>
        <time>2016-08-12T17:43:12.000Z</time>
        <extensions>
          <ns3:TrackPointExtension>
            <ns3:atemp>20.0</ns3:atemp>
            <ns3:hr>130</ns3:hr>
          </ns3:TrackPointExtension>
        </extensions>
      </trkpt>
      <trkpt lat="-22.12056423537433147430419921875" lon="166.44928500987589359283447265625">
        <ele>177</ele>
        <time>2016-08-12T17:43:13.000Z</time>
        <extensions>
          <ns3:TrackPointExtension>
            <ns3:atemp>20.0</ns3:atemp>
            <ns3:hr>130</ns3:hr>
          </ns3:TrackPointExtension>
        </extensions>
      </trkpt>
      <trkpt lat="-22.120550908148288726806640625" lon="166.44930345006287097930908203125">
        <ele>177</ele>
        <time>2016-08-12T17:43:14.000Z</time>
        <extensions>
          <ns3:TrackPointExtension>
            <ns3:atemp>20.0</ns3:atemp>
            <ns3:hr>131</ns3:hr>
          </ns3:TrackPointExtension>
        </extensions>
      </trkpt>
      <trkpt lat="-22.120532132685184478759765625" lon="166.44931870512664318084716796875">
        <ele>177.399993896484375</ele>
        <time>2016-08-12T17:43:15.000Z</time>
        <extensions>
          <ns3:TrackPointExtension>
            <ns3:atemp>20.0</ns3:atemp>
            <ns3:hr>131</ns3:hr>
          </ns3:TrackPointExtension>
        </extensions>
      </trkpt>
      <trkpt lat="-22.12051964364945888519287109375" lon="166.4493347145617008209228515625">
        <ele>177.8000030517578125</ele>
        <time>2016-08-12T17:43:16.000Z</time>
        <extensions>
          <ns3:TrackPointExtension>
            <ns3:atemp>20.0</ns3:atemp>
            <ns3:hr>131</ns3:hr>
          </ns3:TrackPointExtension>
        </extensions>
      </trkpt>
      <trkpt lat="-22.1205095015466213226318359375" lon="166.44935206510126590728759765625">
        <ele>177.8000030517578125</ele>
        <time>2016-08-12T17:43:17.000Z</time>
        <extensions>
          <ns3:TrackPointExtension>
            <ns3:atemp>20.0</ns3:atemp>
            <ns3:hr>131</ns3:hr>
          </ns3:TrackPointExtension>
        </extensions>
      </trkpt>
      <trkpt lat="-22.1204930730164051055908203125" lon="166.4493655599653720855712890625">
        <ele>177.8000030517578125</ele>
        <time>2016-08-12T17:43:18.000Z</time>
        <extensions>
          <ns3:TrackPointExtension>
            <ns3:atemp>20.0</ns3:atemp>
            <ns3:hr>132</ns3:hr>
          </ns3:TrackPointExtension>
        </extensions>
      </trkpt>
      <trkpt lat="-22.12048108689486980438232421875" lon="166.449382491409778594970703125">
        <ele>178.1999969482421875</ele>
        <time>2016-08-12T17:43:19.000Z</time>
        <extensions>
          <ns3:TrackPointExtension>
            <ns3:atemp>20.0</ns3:atemp>
            <ns3:hr>132</ns3:hr>
          </ns3:TrackPointExtension>
        </extensions>
      </trkpt>
      <trkpt lat="-22.12046113796532154083251953125" lon="166.44939891993999481201171875">
        <ele>178.399993896484375</ele>
        <time>2016-08-12T17:43:20.000Z</time>
        <extensions>
          <ns3:TrackPointExtension>
            <ns3:atemp>20.0</ns3:atemp>
            <ns3:hr>132</ns3:hr>
          </ns3:TrackPointExtension>
        </extensions>
      </trkpt>
      <trkpt lat="-22.1204427815973758697509765625" lon="166.449415683746337890625">
        <ele>178.399993896484375</ele>
        <time>2016-08-12T17:43:21.000Z</time>
        <extensions>
          <ns3:TrackPointExtension>
            <ns3:atemp>20.0</ns3:atemp>
            <ns3:hr>132</ns3:hr>
          </ns3:TrackPointExtension>
        </extensions>
      </trkpt>
      <trkpt lat="-22.12042308412492275238037109375" lon="166.44943018443882465362548828125">
        <ele>178.8000030517578125</ele>
        <time>2016-08-12T17:43:22.000Z</time>
        <extensions>
          <ns3:TrackPointExtension>
            <ns3:atemp>20.0</ns3:atemp>
            <ns3:hr>132</ns3:hr>
          </ns3:TrackPointExtension>
        </extensions>
      </trkpt>
      <trkpt lat="-22.12039299309253692626953125" lon="166.44944049417972564697265625">
        <ele>179.1999969482421875</ele>
        <time>2016-08-12T17:43:23.000Z</time>
        <extensions>
          <ns3:TrackPointExtension>
            <ns3:atemp>20.0</ns3:atemp>
            <ns3:hr>133</ns3:hr>
          </ns3:TrackPointExtension>
        </extensions>
      </trkpt>
      <trkpt lat="-22.12036885321140289306640625" lon="166.44945465959608554840087890625">
        <ele>179.1999969482421875</ele>
        <time>2016-08-12T17:43:24.000Z</time>
        <extensions>
          <ns3:TrackPointExtension>
            <ns3:atemp>20.0</ns3:atemp>
            <ns3:hr>133</ns3:hr>
          </ns3:TrackPointExtension>
        </extensions>
      </trkpt>
      <trkpt lat="-22.1203386783599853515625" lon="166.449466310441493988037109375">
        <ele>179.399993896484375</ele>
        <time>2016-08-12T17:43:25.000Z</time>
        <extensions>
          <ns3:TrackPointExtension>
            <ns3:atemp>20.0</ns3:atemp>
            <ns3:hr>133</ns3:hr>
          </ns3:TrackPointExtension>
        </extensions>
      </trkpt>
      <trkpt lat="-22.12031428702175617218017578125" lon="166.4494835771620273590087890625">
        <ele>179.8000030517578125</ele>
        <time>2016-08-12T17:43:26.000Z</time>
        <extensions>
          <ns3:TrackPointExtension>
            <ns3:atemp>20.0</ns3:atemp>
            <ns3:hr>134</ns3:hr>
          </ns3:TrackPointExtension>
        </extensions>
      </trkpt>
      <trkpt lat="-22.12028570473194122314453125" lon="166.44949615001678466796875">
        <ele>179.8000030517578125</ele>
        <time>2016-08-12T17:43:27.000Z</time>
        <extensions>
          <ns3:TrackPointExtension>
            <ns3:atemp>20.0</ns3:atemp>
            <ns3:hr>134</ns3:hr>
          </ns3:TrackPointExtension>
        </extensions>
      </trkpt>
      <trkpt lat="-22.1202660910785198211669921875" lon="166.44951199181377887725830078125">
        <ele>179.8000030517578125</ele>
        <time>2016-08-12T17:43:28.000Z</time>
        <extensions>
          <ns3:TrackPointExtension>
            <ns3:atemp>20.0</ns3:atemp>
            <ns3:hr>135</ns3:hr>
          </ns3:TrackPointExtension>
        </extensions>
      </trkpt>
      <trkpt lat="-22.12024421431124210357666015625" lon="166.44952925853431224822998046875">
        <ele>180.1999969482421875</ele>
        <time>2016-08-12T17:43:29.000Z</time>
        <extensions>
          <ns3:TrackPointExtension>
            <ns3:atemp>20.0</ns3:atemp>
            <ns3:hr>135</ns3:hr>
          </ns3:TrackPointExtension>
        </extensions>
      </trkpt>
      <trkpt lat="-22.1202268637716770172119140625" lon="166.44954375922679901123046875">
        <ele>180.1999969482421875</ele>
        <time>2016-08-12T17:43:30.000Z</time>
        <extensions>
          <ns3:TrackPointExtension>
            <ns3:atemp>20.0</ns3:atemp>
            <ns3:hr>135</ns3:hr>
          </ns3:TrackPointExtension>
        </extensions>
      </trkpt>
      <trkpt lat="-22.1202117763459682464599609375" lon="166.4495600201189517974853515625">
        <ele>180.1999969482421875</ele>
        <time>2016-08-12T17:43:31.000Z</time>
        <extensions>
          <ns3:TrackPointExtension>
            <ns3:atemp>20.0</ns3:atemp>
            <ns3:hr>135</ns3:hr>
          </ns3:TrackPointExtension>
        </extensions>
      </trkpt>
      <trkpt lat="-22.1201906539499759674072265625" lon="166.449576951563358306884765625">
        <ele>180.600006103515625</ele>
        <time>2016-08-12T17:43:32.000Z</time>
        <extensions>
          <ns3:TrackPointExtension>
            <ns3:atemp>20.0</ns3:atemp>
            <ns3:hr>136</ns3:hr>
          </ns3:TrackPointExtension>
        </extensions>
      </trkpt>
      <trkpt lat="-22.12016944773495197296142578125" lon="166.44958977587521076202392578125">
        <ele>180.8000030517578125</ele>
        <time>2016-08-12T17:43:33.000Z</time>
        <extensions>
          <ns3:TrackPointExtension>
            <ns3:atemp>20.0</ns3:atemp>
            <ns3:hr>137</ns3:hr>
          </ns3:TrackPointExtension>
        </extensions>
      </trkpt>
      <trkpt lat="-22.1201453916728496551513671875" lon="166.4496042765676975250244140625">
        <ele>180.8000030517578125</ele>
        <time>2016-08-12T17:43:34.000Z</time>
        <extensions>
          <ns3:TrackPointExtension>
            <ns3:atemp>20.0</ns3:atemp>
            <ns3:hr>137</ns3:hr>
          </ns3:TrackPointExtension>
        </extensions>
      </trkpt>
      <trkpt lat="-22.12012477219104766845703125" lon="166.44961944781243801116943359375">
        <ele>180.8000030517578125</ele>
        <time>2016-08-12T17:43:35.000Z</time>
        <extensions>
          <ns3:TrackPointExtension>
            <ns3:atemp>20.0</ns3:atemp>
            <ns3:hr>137</ns3:hr>
          </ns3:TrackPointExtension>
        </extensions>
      </trkpt>
      <trkpt lat="-22.12009954266250133514404296875" lon="166.449630260467529296875">
        <ele>181.1999969482421875</ele>
        <time>2016-08-12T17:43:36.000Z</time>
        <extensions>
          <ns3:TrackPointExtension>
            <ns3:atemp>20.0</ns3:atemp>
            <ns3:hr>138</ns3:hr>
          </ns3:TrackPointExtension>
        </extensions>
      </trkpt>
      <trkpt lat="-22.12007246911525726318359375" lon="166.44964165985584259033203125">
        <ele>181.399993896484375</ele>
        <time>2016-08-12T17:43:37.000Z</time>
        <extensions>
          <ns3:TrackPointExtension>
            <ns3:atemp>20.0</ns3:atemp>
            <ns3:hr>138</ns3:hr>
          </ns3:TrackPointExtension>
        </extensions>
      </trkpt>
      <trkpt lat="-22.120050676167011260986328125" lon="166.44965104758739471435546875">
        <ele>181.1999969482421875</ele>
        <time>2016-08-12T17:43:38.000Z</time>
        <extensions>
          <ns3:TrackPointExtension>
            <ns3:atemp>20.0</ns3:atemp>
            <ns3:hr>139</ns3:hr>
          </ns3:TrackPointExtension>
        </extensions>
      </trkpt>
      <trkpt lat="-22.12003667838871479034423828125" lon="166.4496691524982452392578125">
        <ele>181.399993896484375</ele>
        <time>2016-08-12T17:43:39.000Z</time>
        <extensions>
          <ns3:TrackPointExtension>
            <ns3:atemp>20.0</ns3:atemp>
            <ns3:hr>139</ns3:hr>
          </ns3:TrackPointExtension>
        </extensions>
      </trkpt>
      <trkpt lat="-22.12002427317202091217041015625" lon="166.4496884308755397796630859375">
        <ele>181.8000030517578125</ele>
        <time>2016-08-12T17:43:40.000Z</time>
        <extensions>
          <ns3:TrackPointExtension>
            <ns3:atemp>20.0</ns3:atemp>
            <ns3:hr>139</ns3:hr>
          </ns3:TrackPointExtension>
        </extensions>
      </trkpt>
      <trkpt lat="-22.1200099401175975799560546875" lon="166.4497045241296291351318359375">
        <ele>182</ele>
        <time>2016-08-12T17:43:41.000Z</time>
        <extensions>
          <ns3:TrackPointExtension>
            <ns3:atemp>20.0</ns3:atemp>
            <ns3:hr>139</ns3:hr>
          </ns3:TrackPointExtension>
        </extensions>
      </trkpt>
      <trkpt lat="-22.1199978701770305633544921875" lon="166.44972656853497028350830078125">
        <ele>182</ele>
        <time>2016-08-12T17:43:42.000Z</time>
        <extensions>
          <ns3:TrackPointExtension>
            <ns3:atemp>20.0</ns3:atemp>
            <ns3:hr>139</ns3:hr>
          </ns3:TrackPointExtension>
        </extensions>
      </trkpt>
      <trkpt lat="-22.11998923681676387786865234375" lon="166.449745930731296539306640625">
        <ele>182.1999969482421875</ele>
        <time>2016-08-12T17:43:43.000Z</time>
        <extensions>
          <ns3:TrackPointExtension>
            <ns3:atemp>20.0</ns3:atemp>
            <ns3:hr>139</ns3:hr>
          </ns3:TrackPointExtension>
        </extensions>
      </trkpt>
      <trkpt lat="-22.11998202838003635406494140625" lon="166.44976311363279819488525390625">
        <ele>182.399993896484375</ele>
        <time>2016-08-12T17:43:44.000Z</time>
        <extensions>
          <ns3:TrackPointExtension>
            <ns3:atemp>20.0</ns3:atemp>
            <ns3:hr>138</ns3:hr>
          </ns3:TrackPointExtension>
        </extensions>
      </trkpt>
      <trkpt lat="-22.11997079662978649139404296875" lon="166.4497809670865535736083984375">
        <ele>182.399993896484375</ele>
        <time>2016-08-12T17:43:45.000Z</time>
        <extensions>
          <ns3:TrackPointExtension>
            <ns3:atemp>20.0</ns3:atemp>
            <ns3:hr>138</ns3:hr>
          </ns3:TrackPointExtension>
        </extensions>
      </trkpt>
      <trkpt lat="-22.11996308527886867523193359375" lon="166.44979664124548435211181640625">
        <ele>182.8000030517578125</ele>
        <time>2016-08-12T17:43:46.000Z</time>
        <extensions>
          <ns3:TrackPointExtension>
            <ns3:atemp>20.0</ns3:atemp>
            <ns3:hr>137</ns3:hr>
          </ns3:TrackPointExtension>
        </extensions>
      </trkpt>
      <trkpt lat="-22.11995713412761688232421875" lon="166.44981340505182743072509765625">
        <ele>183</ele>
        <time>2016-08-12T17:43:47.000Z</time>
        <extensions>
          <ns3:TrackPointExtension>
            <ns3:atemp>20.0</ns3:atemp>
            <ns3:hr>137</ns3:hr>
          </ns3:TrackPointExtension>
        </extensions>
      </trkpt>
      <trkpt lat="-22.1199522726237773895263671875" lon="166.44983352161943912506103515625">
        <ele>183.1999969482421875</ele>
        <time>2016-08-12T17:43:48.000Z</time>
        <extensions>
          <ns3:TrackPointExtension>
            <ns3:atemp>20.0</ns3:atemp>
            <ns3:hr>137</ns3:hr>
          </ns3:TrackPointExtension>
        </extensions>
      </trkpt>
      <trkpt lat="-22.11993693374097347259521484375" lon="166.44984659738838672637939453125">
        <ele>183.1999969482421875</ele>
        <time>2016-08-12T17:43:49.000Z</time>
        <extensions>
          <ns3:TrackPointExtension>
            <ns3:atemp>20.0</ns3:atemp>
            <ns3:hr>137</ns3:hr>
          </ns3:TrackPointExtension>
        </extensions>
      </trkpt>
      <trkpt lat="-22.1199247799813747406005859375" lon="166.44985917024314403533935546875">
        <ele>183.1999969482421875</ele>
        <time>2016-08-12T17:43:50.000Z</time>
        <extensions>
          <ns3:TrackPointExtension>
            <ns3:atemp>20.0</ns3:atemp>
            <ns3:hr>137</ns3:hr>
          </ns3:TrackPointExtension>
        </extensions>
      </trkpt>
      <trkpt lat="-22.1199170686304569244384765625" lon="166.44987291656434535980224609375">
        <ele>183.1999969482421875</ele>
        <time>2016-08-12T17:43:51.000Z</time>
        <extensions>
          <ns3:TrackPointExtension>
            <ns3:atemp>20.0</ns3:atemp>
            <ns3:hr>137</ns3:hr>
          </ns3:TrackPointExtension>
        </extensions>
      </trkpt>
      <trkpt lat="-22.11990457959473133087158203125" lon="166.44988079555332660675048828125">
        <ele>183.399993896484375</ele>
        <time>2016-08-12T17:43:52.000Z</time>
        <extensions>
          <ns3:TrackPointExtension>
            <ns3:atemp>20.0</ns3:atemp>
            <ns3:hr>137</ns3:hr>
          </ns3:TrackPointExtension>
        </extensions>
      </trkpt>
      <trkpt lat="-22.1198840439319610595703125" lon="166.4498890936374664306640625">
        <ele>183.8000030517578125</ele>
        <time>2016-08-12T17:43:53.000Z</time>
        <extensions>
          <ns3:TrackPointExtension>
            <ns3:atemp>20.0</ns3:atemp>
            <ns3:hr>137</ns3:hr>
          </ns3:TrackPointExtension>
        </extensions>
      </trkpt>
      <trkpt lat="-22.11986501701176166534423828125" lon="166.44989605061709880828857421875">
        <ele>184.1999969482421875</ele>
        <time>2016-08-12T17:43:54.000Z</time>
        <extensions>
          <ns3:TrackPointExtension>
            <ns3:atemp>20.0</ns3:atemp>
            <ns3:hr>137</ns3:hr>
          </ns3:TrackPointExtension>
        </extensions>
      </trkpt>
      <trkpt lat="-22.1198491752147674560546875" lon="166.4499046839773654937744140625">
        <ele>184.1999969482421875</ele>
        <time>2016-08-12T17:43:55.000Z</time>
        <extensions>
          <ns3:TrackPointExtension>
            <ns3:atemp>20.0</ns3:atemp>
            <ns3:hr>137</ns3:hr>
          </ns3:TrackPointExtension>
        </extensions>
      </trkpt>
      <trkpt lat="-22.119834087789058685302734375" lon="166.4499159157276153564453125">
        <ele>184.1999969482421875</ele>
        <time>2016-08-12T17:43:56.000Z</time>
        <extensions>
          <ns3:TrackPointExtension>
            <ns3:atemp>20.0</ns3:atemp>
            <ns3:hr>138</ns3:hr>
          </ns3:TrackPointExtension>
        </extensions>
      </trkpt>
      <trkpt lat="-22.1198148094117641448974609375" lon="166.4499227888882160186767578125">
        <ele>184.8000030517578125</ele>
        <time>2016-08-12T17:43:57.000Z</time>
        <extensions>
          <ns3:TrackPointExtension>
            <ns3:atemp>20.0</ns3:atemp>
            <ns3:hr>138</ns3:hr>
          </ns3:TrackPointExtension>
        </extensions>
      </trkpt>
      <trkpt lat="-22.11979293264448642730712890625" lon="166.4499328471720218658447265625">
        <ele>184.8000030517578125</ele>
        <time>2016-08-12T17:43:58.000Z</time>
        <extensions>
          <ns3:TrackPointExtension>
            <ns3:atemp>20.0</ns3:atemp>
            <ns3:hr>138</ns3:hr>
          </ns3:TrackPointExtension>
        </extensions>
      </trkpt>
      <trkpt lat="-22.1197728998959064483642578125" lon="166.44994013942778110504150390625">
        <ele>184.8000030517578125</ele>
        <time>2016-08-12T17:43:59.000Z</time>
        <extensions>
          <ns3:TrackPointExtension>
            <ns3:atemp>20.0</ns3:atemp>
            <ns3:hr>138</ns3:hr>
          </ns3:TrackPointExtension>
        </extensions>
      </trkpt>
      <trkpt lat="-22.11975605227053165435791015625" lon="166.44994583912193775177001953125">
        <ele>185</ele>
        <time>2016-08-12T17:44:00.000Z</time>
        <extensions>
          <ns3:TrackPointExtension>
            <ns3:atemp>20.0</ns3:atemp>
            <ns3:hr>138</ns3:hr>
          </ns3:TrackPointExtension>
        </extensions>
      </trkpt>
      <trkpt lat="-22.11973744444549083709716796875" lon="166.44995388574898242950439453125">
        <ele>185.399993896484375</ele>
        <time>2016-08-12T17:44:01.000Z</time>
        <extensions>
          <ns3:TrackPointExtension>
            <ns3:atemp>20.0</ns3:atemp>
            <ns3:hr>138</ns3:hr>
          </ns3:TrackPointExtension>
        </extensions>
      </trkpt>
      <trkpt lat="-22.11971581913530826568603515625" lon="166.44996226765215396881103515625">
        <ele>185.399993896484375</ele>
        <time>2016-08-12T17:44:02.000Z</time>
        <extensions>
          <ns3:TrackPointExtension>
            <ns3:atemp>20.0</ns3:atemp>
            <ns3:hr>139</ns3:hr>
          </ns3:TrackPointExtension>
        </extensions>
      </trkpt>
      <trkpt lat="-22.11969855241477489471435546875" lon="166.44997148774564266204833984375">
        <ele>185.600006103515625</ele>
        <time>2016-08-12T17:44:03.000Z</time>
        <extensions>
          <ns3:TrackPointExtension>
            <ns3:atemp>20.0</ns3:atemp>
            <ns3:hr>139</ns3:hr>
          </ns3:TrackPointExtension>
        </extensions>
      </trkpt>
      <trkpt lat="-22.11967675946652889251708984375" lon="166.44998104311525821685791015625">
        <ele>185.8000030517578125</ele>
        <time>2016-08-12T17:44:04.000Z</time>
        <extensions>
          <ns3:TrackPointExtension>
            <ns3:atemp>20.0</ns3:atemp>
            <ns3:hr>139</ns3:hr>
          </ns3:TrackPointExtension>
        </extensions>
      </trkpt>
      <trkpt lat="-22.11965446360409259796142578125" lon="166.44998607225716114044189453125">
        <ele>186</ele>
        <time>2016-08-12T17:44:05.000Z</time>
        <extensions>
          <ns3:TrackPointExtension>
            <ns3:atemp>20.0</ns3:atemp>
            <ns3:hr>139</ns3:hr>
          </ns3:TrackPointExtension>
        </extensions>
      </trkpt>
      <trkpt lat="-22.1196319162845611572265625" lon="166.44999210722744464874267578125">
        <ele>186.1999969482421875</ele>
        <time>2016-08-12T17:44:06.000Z</time>
        <extensions>
          <ns3:TrackPointExtension>
            <ns3:atemp>20.0</ns3:atemp>
            <ns3:hr>139</ns3:hr>
          </ns3:TrackPointExtension>
        </extensions>
      </trkpt>
      <trkpt lat="-22.11961071006953716278076171875" lon="166.4499972201883792877197265625">
        <ele>186.600006103515625</ele>
        <time>2016-08-12T17:44:07.000Z</time>
        <extensions>
          <ns3:TrackPointExtension>
            <ns3:atemp>20.0</ns3:atemp>
            <ns3:hr>139</ns3:hr>
          </ns3:TrackPointExtension>
        </extensions>
      </trkpt>
      <trkpt lat="-22.1195915155112743377685546875" lon="166.4500025846064090728759765625">
        <ele>186.8000030517578125</ele>
        <time>2016-08-12T17:44:08.000Z</time>
        <extensions>
          <ns3:TrackPointExtension>
            <ns3:atemp>20.0</ns3:atemp>
            <ns3:hr>140</ns3:hr>
          </ns3:TrackPointExtension>
        </extensions>
      </trkpt>
      <trkpt lat="-22.1195680461823940277099609375" lon="166.45000870339572429656982421875">
        <ele>186.8000030517578125</ele>
        <time>2016-08-12T17:44:09.000Z</time>
        <extensions>
          <ns3:TrackPointExtension>
            <ns3:atemp>20.0</ns3:atemp>
            <ns3:hr>140</ns3:hr>
          </ns3:TrackPointExtension>
        </extensions>
      </trkpt>
      <trkpt lat="-22.1195472590625286102294921875" lon="166.45001322962343692779541015625">
        <ele>187</ele>
        <time>2016-08-12T17:44:10.000Z</time>
        <extensions>
          <ns3:TrackPointExtension>
            <ns3:atemp>20.0</ns3:atemp>
            <ns3:hr>140</ns3:hr>
          </ns3:TrackPointExtension>
        </extensions>
      </trkpt>
      <trkpt lat="-22.1195299923419952392578125" lon="166.450016498565673828125">
        <ele>187.1999969482421875</ele>
        <time>2016-08-12T17:44:11.000Z</time>
        <extensions>
          <ns3:TrackPointExtension>
            <ns3:atemp>20.0</ns3:atemp>
            <ns3:hr>140</ns3:hr>
          </ns3:TrackPointExtension>
        </extensions>
      </trkpt>
      <trkpt lat="-22.11950786411762237548828125" lon="166.45002295263111591339111328125">
        <ele>187.1999969482421875</ele>
        <time>2016-08-12T17:44:12.000Z</time>
        <extensions>
          <ns3:TrackPointExtension>
            <ns3:atemp>20.0</ns3:atemp>
            <ns3:hr>140</ns3:hr>
          </ns3:TrackPointExtension>
        </extensions>
      </trkpt>
      <trkpt lat="-22.119492106139659881591796875" lon="166.450029574334621429443359375">
        <ele>187.399993896484375</ele>
        <time>2016-08-12T17:44:13.000Z</time>
        <extensions>
          <ns3:TrackPointExtension>
            <ns3:atemp>20.0</ns3:atemp>
            <ns3:hr>140</ns3:hr>
          </ns3:TrackPointExtension>
        </extensions>
      </trkpt>
      <trkpt lat="-22.11947576142847537994384765625" lon="166.450031585991382598876953125">
        <ele>187.600006103515625</ele>
        <time>2016-08-12T17:44:14.000Z</time>
        <extensions>
          <ns3:TrackPointExtension>
            <ns3:atemp>20.0</ns3:atemp>
            <ns3:hr>140</ns3:hr>
          </ns3:TrackPointExtension>
        </extensions>
      </trkpt>
      <trkpt lat="-22.11945212446153163909912109375" lon="166.4500337652862071990966796875">
        <ele>187.600006103515625</ele>
        <time>2016-08-12T17:44:15.000Z</time>
        <extensions>
          <ns3:TrackPointExtension>
            <ns3:atemp>20.0</ns3:atemp>
            <ns3:hr>141</ns3:hr>
          </ns3:TrackPointExtension>
        </extensions>
      </trkpt>
      <trkpt lat="-22.119434438645839691162109375" lon="166.45003586076200008392333984375">
        <ele>187.600006103515625</ele>
        <time>2016-08-12T17:44:16.000Z</time>
        <extensions>
          <ns3:TrackPointExtension>
            <ns3:atemp>20.0</ns3:atemp>
            <ns3:hr>141</ns3:hr>
          </ns3:TrackPointExtension>
        </extensions>
      </trkpt>
      <trkpt lat="-22.11941390298306941986083984375" lon="166.4500377885997295379638671875">
        <ele>188</ele>
        <time>2016-08-12T17:44:17.000Z</time>
        <extensions>
          <ns3:TrackPointExtension>
            <ns3:atemp>20.0</ns3:atemp>
            <ns3:hr>141</ns3:hr>
          </ns3:TrackPointExtension>
        </extensions>
      </trkpt>
      <trkpt lat="-22.11939462460577487945556640625" lon="166.4500421471893787384033203125">
        <ele>188.1999969482421875</ele>
        <time>2016-08-12T17:44:18.000Z</time>
        <extensions>
          <ns3:TrackPointExtension>
            <ns3:atemp>20.0</ns3:atemp>
            <ns3:hr>141</ns3:hr>
          </ns3:TrackPointExtension>
        </extensions>
      </trkpt>
      <trkpt lat="-22.1193749271333217620849609375" lon="166.450043655931949615478515625">
        <ele>188.1999969482421875</ele>
        <time>2016-08-12T17:44:19.000Z</time>
        <extensions>
          <ns3:TrackPointExtension>
            <ns3:atemp>20.0</ns3:atemp>
            <ns3:hr>141</ns3:hr>
          </ns3:TrackPointExtension>
        </extensions>
      </trkpt>
      <trkpt lat="-22.119357325136661529541015625" lon="166.45004759542644023895263671875">
        <ele>188.399993896484375</ele>
        <time>2016-08-12T17:44:20.000Z</time>
        <extensions>
          <ns3:TrackPointExtension>
            <ns3:atemp>20.0</ns3:atemp>
            <ns3:hr>142</ns3:hr>
          </ns3:TrackPointExtension>
        </extensions>
      </trkpt>
      <trkpt lat="-22.11934156715869903564453125" lon="166.450051702558994293212890625">
        <ele>188.8000030517578125</ele>
        <time>2016-08-12T17:44:21.000Z</time>
        <extensions>
          <ns3:TrackPointExtension>
            <ns3:atemp>20.0</ns3:atemp>
            <ns3:hr>142</ns3:hr>
          </ns3:TrackPointExtension>
        </extensions>
      </trkpt>
      <trkpt lat="-22.119322456419467926025390625" lon="166.4500538818538188934326171875">
        <ele>189</ele>
        <time>2016-08-12T17:44:22.000Z</time>
        <extensions>
          <ns3:TrackPointExtension>
            <ns3:atemp>20.0</ns3:atemp>
            <ns3:hr>142</ns3:hr>
          </ns3:TrackPointExtension>
        </extensions>
      </trkpt>
      <trkpt lat="-22.11930527351796627044677734375" lon="166.45006100647151470184326171875">
        <ele>189</ele>
        <time>2016-08-12T17:44:23.000Z</time>
        <extensions>
          <ns3:TrackPointExtension>
            <ns3:atemp>20.0</ns3:atemp>
            <ns3:hr>142</ns3:hr>
          </ns3:TrackPointExtension>
        </extensions>
      </trkpt>
      <trkpt lat="-22.1192870847880840301513671875" lon="166.4500639401376247406005859375">
        <ele>189.399993896484375</ele>
        <time>2016-08-12T17:44:24.000Z</time>
        <extensions>
          <ns3:TrackPointExtension>
            <ns3:atemp>20.0</ns3:atemp>
            <ns3:hr>142</ns3:hr>
          </ns3:TrackPointExtension>
        </extensions>
      </trkpt>
      <trkpt lat="-22.119269482791423797607421875" lon="166.45006276667118072509765625">
        <ele>189.600006103515625</ele>
        <time>2016-08-12T17:44:25.000Z</time>
        <extensions>
          <ns3:TrackPointExtension>
            <ns3:atemp>20.0</ns3:atemp>
            <ns3:hr>142</ns3:hr>
          </ns3:TrackPointExtension>
        </extensions>
      </trkpt>
      <trkpt lat="-22.1192451752722263336181640625" lon="166.45005849190056324005126953125">
        <ele>189.600006103515625</ele>
        <time>2016-08-12T17:44:26.000Z</time>
        <extensions>
          <ns3:TrackPointExtension>
            <ns3:atemp>20.0</ns3:atemp>
            <ns3:hr>142</ns3:hr>
          </ns3:TrackPointExtension>
        </extensions>
      </trkpt>
      <trkpt lat="-22.11921508423984050750732421875" lon="166.45004994235932826995849609375">
        <ele>189.8000030517578125</ele>
        <time>2016-08-12T17:44:27.000Z</time>
        <extensions>
          <ns3:TrackPointExtension>
            <ns3:atemp>20.0</ns3:atemp>
            <ns3:hr>142</ns3:hr>
          </ns3:TrackPointExtension>
        </extensions>
      </trkpt>
      <trkpt lat="-22.11919178254902362823486328125" lon="166.4500486850738525390625">
        <ele>190</ele>
        <time>2016-08-12T17:44:28.000Z</time>
        <extensions>
          <ns3:TrackPointExtension>
            <ns3:atemp>20.0</ns3:atemp>
            <ns3:hr>142</ns3:hr>
          </ns3:TrackPointExtension>
        </extensions>
      </trkpt>
      <trkpt lat="-22.119166217744350433349609375" lon="166.45005337893962860107421875">
        <ele>190</ele>
        <time>2016-08-12T17:44:29.000Z</time>
        <extensions>
          <ns3:TrackPointExtension>
            <ns3:atemp>20.0</ns3:atemp>
            <ns3:hr>142</ns3:hr>
          </ns3:TrackPointExtension>
        </extensions>
      </trkpt>
      <trkpt lat="-22.11913880892097949981689453125" lon="166.4500527083873748779296875">
        <ele>190.1999969482421875</ele>
        <time>2016-08-12T17:44:30.000Z</time>
        <extensions>
          <ns3:TrackPointExtension>
            <ns3:atemp>20.0</ns3:atemp>
            <ns3:hr>143</ns3:hr>
          </ns3:TrackPointExtension>
        </extensions>
      </trkpt>
      <trkpt lat="-22.1191130764782428741455078125" lon="166.4500511996448040008544921875">
        <ele>190.600006103515625</ele>
        <time>2016-08-12T17:44:31.000Z</time>
        <extensions>
          <ns3:TrackPointExtension>
            <ns3:atemp>20.0</ns3:atemp>
            <ns3:hr>142</ns3:hr>
          </ns3:TrackPointExtension>
        </extensions>
      </trkpt>
      <trkpt lat="-22.11909321136772632598876953125" lon="166.45005446858704090118408203125">
        <ele>190.8000030517578125</ele>
        <time>2016-08-12T17:44:32.000Z</time>
        <extensions>
          <ns3:TrackPointExtension>
            <ns3:atemp>20.0</ns3:atemp>
            <ns3:hr>143</ns3:hr>
          </ns3:TrackPointExtension>
        </extensions>
      </trkpt>
      <trkpt lat="-22.11907192133367061614990234375" lon="166.45006285049021244049072265625">
        <ele>190.8000030517578125</ele>
        <time>2016-08-12T17:44:33.000Z</time>
        <extensions>
          <ns3:TrackPointExtension>
            <ns3:atemp>20.0</ns3:atemp>
            <ns3:hr>143</ns3:hr>
          </ns3:TrackPointExtension>
        </extensions>
      </trkpt>
      <trkpt lat="-22.11904711090028285980224609375" lon="166.4500714838504791259765625">
        <ele>191</ele>
        <time>2016-08-12T17:44:34.000Z</time>
        <extensions>
          <ns3:TrackPointExtension>
            <ns3:atemp>20.0</ns3:atemp>
            <ns3:hr>142</ns3:hr>
          </ns3:TrackPointExtension>
        </extensions>
      </trkpt>
      <trkpt lat="-22.11902615614235401153564453125" lon="166.45007777027785778045654296875">
        <ele>191.399993896484375</ele>
        <time>2016-08-12T17:44:35.000Z</time>
        <extensions>
          <ns3:TrackPointExtension>
            <ns3:atemp>20.0</ns3:atemp>
            <ns3:hr>143</ns3:hr>
          </ns3:TrackPointExtension>
        </extensions>
      </trkpt>
      <trkpt lat="-22.11901056580245494842529296875" lon="166.450087912380695343017578125">
        <ele>191.399993896484375</ele>
        <time>2016-08-12T17:44:36.000Z</time>
        <extensions>
          <ns3:TrackPointExtension>
            <ns3:atemp>20.0</ns3:atemp>
            <ns3:hr>143</ns3:hr>
          </ns3:TrackPointExtension>
        </extensions>
      </trkpt>
      <trkpt lat="-22.11898927576839923858642578125" lon="166.450099311769008636474609375">
        <ele>191.600006103515625</ele>
        <time>2016-08-12T17:44:37.000Z</time>
        <extensions>
          <ns3:TrackPointExtension>
            <ns3:atemp>20.0</ns3:atemp>
            <ns3:hr>142</ns3:hr>
          </ns3:TrackPointExtension>
        </extensions>
      </trkpt>
      <trkpt lat="-22.11896999739110469818115234375" lon="166.45011079497635364532470703125">
        <ele>191.8000030517578125</ele>
        <time>2016-08-12T17:44:38.000Z</time>
        <extensions>
          <ns3:TrackPointExtension>
            <ns3:atemp>20.0</ns3:atemp>
            <ns3:hr>143</ns3:hr>
          </ns3:TrackPointExtension>
        </extensions>
      </trkpt>
      <trkpt lat="-22.11895323358476161956787109375" lon="166.45012672059237957000732421875">
        <ele>191.8000030517578125</ele>
        <time>2016-08-12T17:44:39.000Z</time>
        <extensions>
          <ns3:TrackPointExtension>
            <ns3:atemp>20.0</ns3:atemp>
            <ns3:hr>143</ns3:hr>
          </ns3:TrackPointExtension>
        </extensions>
      </trkpt>
      <trkpt lat="-22.11893630214035511016845703125" lon="166.45013845525681972503662109375">
        <ele>191.8000030517578125</ele>
        <time>2016-08-12T17:44:40.000Z</time>
        <extensions>
          <ns3:TrackPointExtension>
            <ns3:atemp>20.0</ns3:atemp>
            <ns3:hr>143</ns3:hr>
          </ns3:TrackPointExtension>
        </extensions>
      </trkpt>
      <trkpt lat="-22.11891777813434600830078125" lon="166.450145244598388671875">
        <ele>192.1999969482421875</ele>
        <time>2016-08-12T17:44:41.000Z</time>
        <extensions>
          <ns3:TrackPointExtension>
            <ns3:atemp>20.0</ns3:atemp>
            <ns3:hr>143</ns3:hr>
          </ns3:TrackPointExtension>
        </extensions>
      </trkpt>
      <trkpt lat="-22.11890394799411296844482421875" lon="166.450158320367336273193359375">
        <ele>192.1999969482421875</ele>
        <time>2016-08-12T17:44:42.000Z</time>
        <extensions>
          <ns3:TrackPointExtension>
            <ns3:atemp>20.0</ns3:atemp>
            <ns3:hr>143</ns3:hr>
          </ns3:TrackPointExtension>
        </extensions>
      </trkpt>
      <trkpt lat="-22.11889472790062427520751953125" lon="166.4501698873937129974365234375">
        <ele>192.1999969482421875</ele>
        <time>2016-08-12T17:44:43.000Z</time>
        <extensions>
          <ns3:TrackPointExtension>
            <ns3:atemp>20.0</ns3:atemp>
            <ns3:hr>142</ns3:hr>
          </ns3:TrackPointExtension>
        </extensions>
      </trkpt>
      <trkpt lat="-22.11888416670262813568115234375" lon="166.45018103532493114471435546875">
        <ele>192.399993896484375</ele>
        <time>2016-08-12T17:44:44.000Z</time>
        <extensions>
          <ns3:TrackPointExtension>
            <ns3:atemp>20.0</ns3:atemp>
            <ns3:hr>143</ns3:hr>
          </ns3:TrackPointExtension>
        </extensions>
      </trkpt>
      <trkpt lat="-22.1188710071146488189697265625" lon="166.45019578747451305389404296875">
        <ele>192.399993896484375</ele>
        <time>2016-08-12T17:44:45.000Z</time>
        <extensions>
          <ns3:TrackPointExtension>
            <ns3:atemp>20.0</ns3:atemp>
            <ns3:hr>143</ns3:hr>
          </ns3:TrackPointExtension>
        </extensions>
      </trkpt>
      <trkpt lat="-22.11885885335505008697509765625" lon="166.4502067677676677703857421875">
        <ele>192.399993896484375</ele>
        <time>2016-08-12T17:44:46.000Z</time>
        <extensions>
          <ns3:TrackPointExtension>
            <ns3:atemp>20.0</ns3:atemp>
            <ns3:hr>143</ns3:hr>
          </ns3:TrackPointExtension>
        </extensions>
      </trkpt>
      <trkpt lat="-22.11884343065321445465087890625" lon="166.45021967589855194091796875">
        <ele>192.8000030517578125</ele>
        <time>2016-08-12T17:44:47.000Z</time>
        <extensions>
          <ns3:TrackPointExtension>
            <ns3:atemp>20.0</ns3:atemp>
            <ns3:hr>143</ns3:hr>
          </ns3:TrackPointExtension>
        </extensions>
      </trkpt>
      <trkpt lat="-22.1188245713710784912109375" lon="166.450234092772006988525390625">
        <ele>193</ele>
        <time>2016-08-12T17:44:48.000Z</time>
        <extensions>
          <ns3:TrackPointExtension>
            <ns3:atemp>20.0</ns3:atemp>
            <ns3:hr>143</ns3:hr>
          </ns3:TrackPointExtension>
        </extensions>
      </trkpt>
      <trkpt lat="-22.11880655027925968170166015625" lon="166.45024825818836688995361328125">
        <ele>193</ele>
        <time>2016-08-12T17:44:49.000Z</time>
        <extensions>
          <ns3:TrackPointExtension>
            <ns3:atemp>20.0</ns3:atemp>
            <ns3:hr>142</ns3:hr>
          </ns3:TrackPointExtension>
        </extensions>
      </trkpt>
      <trkpt lat="-22.11878366768360137939453125" lon="166.45025747828185558319091796875">
        <ele>193.1999969482421875</ele>
        <time>2016-08-12T17:44:50.000Z</time>
        <extensions>
          <ns3:TrackPointExtension>
            <ns3:atemp>20.0</ns3:atemp>
            <ns3:hr>143</ns3:hr>
          </ns3:TrackPointExtension>
        </extensions>
      </trkpt>
      <trkpt lat="-22.11876262910664081573486328125" lon="166.4502701349556446075439453125">
        <ele>193.600006103515625</ele>
        <time>2016-08-12T17:44:51.000Z</time>
        <extensions>
          <ns3:TrackPointExtension>
            <ns3:atemp>20.0</ns3:atemp>
            <ns3:hr>142</ns3:hr>
          </ns3:TrackPointExtension>
        </extensions>
      </trkpt>
      <trkpt lat="-22.1187452785670757293701171875" lon="166.45028212107717990875244140625">
        <ele>193.600006103515625</ele>
        <time>2016-08-12T17:44:52.000Z</time>
        <extensions>
          <ns3:TrackPointExtension>
            <ns3:atemp>20.0</ns3:atemp>
            <ns3:hr>142</ns3:hr>
          </ns3:TrackPointExtension>
        </extensions>
      </trkpt>
      <trkpt lat="-22.11871669627726078033447265625" lon="166.4502942748367786407470703125">
        <ele>193.8000030517578125</ele>
        <time>2016-08-12T17:44:53.000Z</time>
        <extensions>
          <ns3:TrackPointExtension>
            <ns3:atemp>20.0</ns3:atemp>
            <ns3:hr>142</ns3:hr>
          </ns3:TrackPointExtension>
        </extensions>
      </trkpt>
      <trkpt lat="-22.11869071237742900848388671875" lon="166.45031061954796314239501953125">
        <ele>194</ele>
        <time>2016-08-12T17:44:54.000Z</time>
        <extensions>
          <ns3:TrackPointExtension>
            <ns3:atemp>20.0</ns3:atemp>
            <ns3:hr>142</ns3:hr>
          </ns3:TrackPointExtension>
        </extensions>
      </trkpt>
      <trkpt lat="-22.1186688356101512908935546875" lon="166.4503267966210842132568359375">
        <ele>194.1999969482421875</ele>
        <time>2016-08-12T17:44:55.000Z</time>
        <extensions>
          <ns3:TrackPointExtension>
            <ns3:atemp>20.0</ns3:atemp>
            <ns3:hr>142</ns3:hr>
          </ns3:TrackPointExtension>
        </extensions>
      </trkpt>
      <trkpt lat="-22.11864679120481014251708984375" lon="166.4503438957035541534423828125">
        <ele>194.1999969482421875</ele>
        <time>2016-08-12T17:44:56.000Z</time>
        <extensions>
          <ns3:TrackPointExtension>
            <ns3:atemp>20.0</ns3:atemp>
            <ns3:hr>142</ns3:hr>
          </ns3:TrackPointExtension>
        </extensions>
      </trkpt>
      <trkpt lat="-22.11862248368561267852783203125" lon="166.45035454072058200836181640625">
        <ele>194.600006103515625</ele>
        <time>2016-08-12T17:44:57.000Z</time>
        <extensions>
          <ns3:TrackPointExtension>
            <ns3:atemp>20.0</ns3:atemp>
            <ns3:hr>142</ns3:hr>
          </ns3:TrackPointExtension>
        </extensions>
      </trkpt>
      <trkpt lat="-22.11860102601349353790283203125" lon="166.450366191565990447998046875">
        <ele>194.600006103515625</ele>
        <time>2016-08-12T17:44:58.000Z</time>
        <extensions>
          <ns3:TrackPointExtension>
            <ns3:atemp>20.0</ns3:atemp>
            <ns3:hr>142</ns3:hr>
          </ns3:TrackPointExtension>
        </extensions>
      </trkpt>
      <trkpt lat="-22.118576131761074066162109375" lon="166.45037666894495487213134765625">
        <ele>194.600006103515625</ele>
        <time>2016-08-12T17:44:59.000Z</time>
        <extensions>
          <ns3:TrackPointExtension>
            <ns3:atemp>20.0</ns3:atemp>
            <ns3:hr>142</ns3:hr>
          </ns3:TrackPointExtension>
        </extensions>
      </trkpt>
      <trkpt lat="-22.118551991879940032958984375" lon="166.45039041526615619659423828125">
        <ele>195</ele>
        <time>2016-08-12T17:45:00.000Z</time>
        <extensions>
          <ns3:TrackPointExtension>
            <ns3:atemp>20.0</ns3:atemp>
            <ns3:hr>142</ns3:hr>
          </ns3:TrackPointExtension>
        </extensions>
      </trkpt>
      <trkpt lat="-22.11853086948394775390625" lon="166.4504062570631504058837890625">
        <ele>195</ele>
        <time>2016-08-12T17:45:01.000Z</time>
        <extensions>
          <ns3:TrackPointExtension>
            <ns3:atemp>20.0</ns3:atemp>
            <ns3:hr>142</ns3:hr>
          </ns3:TrackPointExtension>
        </extensions>
      </trkpt>
      <trkpt lat="-22.1185058914124965667724609375" lon="166.45042075775563716888427734375">
        <ele>195.1999969482421875</ele>
        <time>2016-08-12T17:45:02.000Z</time>
        <extensions>
          <ns3:TrackPointExtension>
            <ns3:atemp>20.0</ns3:atemp>
            <ns3:hr>142</ns3:hr>
          </ns3:TrackPointExtension>
        </extensions>
      </trkpt>
      <trkpt lat="-22.11848267354071140289306640625" lon="166.450435929000377655029296875">
        <ele>195.399993896484375</ele>
        <time>2016-08-12T17:45:03.000Z</time>
        <extensions>
          <ns3:TrackPointExtension>
            <ns3:atemp>20.0</ns3:atemp>
            <ns3:hr>142</ns3:hr>
          </ns3:TrackPointExtension>
        </extensions>
      </trkpt>
      <trkpt lat="-22.118468843400478363037109375" lon="166.45044908858835697174072265625">
        <ele>195.399993896484375</ele>
        <time>2016-08-12T17:45:04.000Z</time>
        <extensions>
          <ns3:TrackPointExtension>
            <ns3:atemp>20.0</ns3:atemp>
            <ns3:hr>141</ns3:hr>
          </ns3:TrackPointExtension>
        </extensions>
      </trkpt>
      <trkpt lat="-22.11844881065189838409423828125" lon="166.45046099089086055755615234375">
        <ele>195.600006103515625</ele>
        <time>2016-08-12T17:45:05.000Z</time>
        <extensions>
          <ns3:TrackPointExtension>
            <ns3:atemp>20.0</ns3:atemp>
            <ns3:hr>141</ns3:hr>
          </ns3:TrackPointExtension>
        </extensions>
      </trkpt>
      <trkpt lat="-22.11843489669263362884521484375" lon="166.45047524012625217437744140625">
        <ele>196</ele>
        <time>2016-08-12T17:45:06.000Z</time>
        <extensions>
          <ns3:TrackPointExtension>
            <ns3:atemp>20.0</ns3:atemp>
            <ns3:hr>142</ns3:hr>
          </ns3:TrackPointExtension>
        </extensions>
      </trkpt>
      <trkpt lat="-22.118419893085956573486328125" lon="166.45048764534294605255126953125">
        <ele>196.1999969482421875</ele>
        <time>2016-08-12T17:45:07.000Z</time>
        <extensions>
          <ns3:TrackPointExtension>
            <ns3:atemp>20.0</ns3:atemp>
            <ns3:hr>141</ns3:hr>
          </ns3:TrackPointExtension>
        </extensions>
      </trkpt>
      <trkpt lat="-22.11840421892702579498291015625" lon="166.45050105638802051544189453125">
        <ele>196</ele>
        <time>2016-08-12T17:45:08.000Z</time>
        <extensions>
          <ns3:TrackPointExtension>
            <ns3:atemp>20.0</ns3:atemp>
            <ns3:hr>141</ns3:hr>
          </ns3:TrackPointExtension>
        </extensions>
      </trkpt>
      <trkpt lat="-22.1183878742158412933349609375" lon="166.450513713061809539794921875">
        <ele>196.399993896484375</ele>
        <time>2016-08-12T17:45:09.000Z</time>
        <extensions>
          <ns3:TrackPointExtension>
            <ns3:atemp>20.0</ns3:atemp>
            <ns3:hr>141</ns3:hr>
          </ns3:TrackPointExtension>
        </extensions>
      </trkpt>
      <trkpt lat="-22.11837588809430599212646484375" lon="166.45052838139235973358154296875">
        <ele>196.600006103515625</ele>
        <time>2016-08-12T17:45:10.000Z</time>
        <extensions>
          <ns3:TrackPointExtension>
            <ns3:atemp>20.0</ns3:atemp>
            <ns3:hr>141</ns3:hr>
          </ns3:TrackPointExtension>
        </extensions>
      </trkpt>
      <trkpt lat="-22.1183613874018192291259765625" lon="166.450538523495197296142578125">
        <ele>196.600006103515625</ele>
        <time>2016-08-12T17:45:11.000Z</time>
        <extensions>
          <ns3:TrackPointExtension>
            <ns3:atemp>20.0</ns3:atemp>
            <ns3:hr>141</ns3:hr>
          </ns3:TrackPointExtension>
        </extensions>
      </trkpt>
      <trkpt lat="-22.11834789253771305084228515625" lon="166.45054866559803485870361328125">
        <ele>197.1999969482421875</ele>
        <time>2016-08-12T17:45:12.000Z</time>
        <extensions>
          <ns3:TrackPointExtension>
            <ns3:atemp>20.0</ns3:atemp>
            <ns3:hr>141</ns3:hr>
          </ns3:TrackPointExtension>
        </extensions>
      </trkpt>
      <trkpt lat="-22.11833917535841464996337890625" lon="166.45056241191923618316650390625">
        <ele>197.399993896484375</ele>
        <time>2016-08-12T17:45:13.000Z</time>
        <extensions>
          <ns3:TrackPointExtension>
            <ns3:atemp>20.0</ns3:atemp>
            <ns3:hr>140</ns3:hr>
          </ns3:TrackPointExtension>
        </extensions>
      </trkpt>
      <trkpt lat="-22.1183302067220211029052734375" lon="166.45057247020304203033447265625">
        <ele>197.399993896484375</ele>
        <time>2016-08-12T17:45:14.000Z</time>
        <extensions>
          <ns3:TrackPointExtension>
            <ns3:atemp>20.0</ns3:atemp>
            <ns3:hr>140</ns3:hr>
          </ns3:TrackPointExtension>
        </extensions>
      </trkpt>
      <trkpt lat="-22.1183214895427227020263671875" lon="166.45058236084878444671630859375">
        <ele>197.8000030517578125</ele>
        <time>2016-08-12T17:45:15.000Z</time>
        <extensions>
          <ns3:TrackPointExtension>
            <ns3:atemp>20.0</ns3:atemp>
            <ns3:hr>140</ns3:hr>
          </ns3:TrackPointExtension>
        </extensions>
      </trkpt>
      <trkpt lat="-22.118307910859584808349609375" lon="166.45059342496097087860107421875">
        <ele>197.8000030517578125</ele>
        <time>2016-08-12T17:45:16.000Z</time>
        <extensions>
          <ns3:TrackPointExtension>
            <ns3:atemp>20.0</ns3:atemp>
            <ns3:hr>140</ns3:hr>
          </ns3:TrackPointExtension>
        </extensions>
      </trkpt>
      <trkpt lat="-22.11829525418579578399658203125" lon="166.45060834474861621856689453125">
        <ele>197.8000030517578125</ele>
        <time>2016-08-12T17:45:17.000Z</time>
        <extensions>
          <ns3:TrackPointExtension>
            <ns3:atemp>20.0</ns3:atemp>
            <ns3:hr>140</ns3:hr>
          </ns3:TrackPointExtension>
        </extensions>
      </trkpt>
      <trkpt lat="-22.11827807128429412841796875" lon="166.45061773248016834259033203125">
        <ele>198</ele>
        <time>2016-08-12T17:45:18.000Z</time>
        <extensions>
          <ns3:TrackPointExtension>
            <ns3:atemp>20.0</ns3:atemp>
            <ns3:hr>140</ns3:hr>
          </ns3:TrackPointExtension>
        </extensions>
      </trkpt>
      <trkpt lat="-22.11826197803020477294921875" lon="166.45062946714460849761962890625">
        <ele>198</ele>
        <time>2016-08-12T17:45:19.000Z</time>
        <extensions>
          <ns3:TrackPointExtension>
            <ns3:atemp>20.0</ns3:atemp>
            <ns3:hr>140</ns3:hr>
          </ns3:TrackPointExtension>
        </extensions>
      </trkpt>
      <trkpt lat="-22.11825502105057239532470703125" lon="166.45065226592123508453369140625">
        <ele>198.1999969482421875</ele>
        <time>2016-08-12T17:45:20.000Z</time>
        <extensions>
          <ns3:TrackPointExtension>
            <ns3:atemp>20.0</ns3:atemp>
            <ns3:hr>139</ns3:hr>
          </ns3:TrackPointExtension>
        </extensions>
      </trkpt>
      <trkpt lat="-22.118245549499988555908203125" lon="166.4506761543452739715576171875">
        <ele>198.399993896484375</ele>
        <time>2016-08-12T17:45:21.000Z</time>
        <extensions>
          <ns3:TrackPointExtension>
            <ns3:atemp>20.0</ns3:atemp>
            <ns3:hr>139</ns3:hr>
          </ns3:TrackPointExtension>
        </extensions>
      </trkpt>
      <trkpt lat="-22.11824261583387851715087890625" lon="166.450704149901866912841796875">
        <ele>198.1999969482421875</ele>
        <time>2016-08-12T17:45:22.000Z</time>
        <extensions>
          <ns3:TrackPointExtension>
            <ns3:atemp>20.0</ns3:atemp>
            <ns3:hr>139</ns3:hr>
          </ns3:TrackPointExtension>
        </extensions>
      </trkpt>
      <trkpt lat="-22.11824647150933742523193359375" lon="166.4507244341075420379638671875">
        <ele>198.1999969482421875</ele>
        <time>2016-08-12T17:45:23.000Z</time>
        <extensions>
          <ns3:TrackPointExtension>
            <ns3:atemp>20.0</ns3:atemp>
            <ns3:hr>139</ns3:hr>
          </ns3:TrackPointExtension>
        </extensions>
      </trkpt>
      <trkpt lat="-22.11825661361217498779296875" lon="166.4507428742945194244384765625">
        <ele>198.399993896484375</ele>
        <time>2016-08-12T17:45:24.000Z</time>
        <extensions>
          <ns3:TrackPointExtension>
            <ns3:atemp>20.0</ns3:atemp>
            <ns3:hr>139</ns3:hr>
          </ns3:TrackPointExtension>
        </extensions>
      </trkpt>
      <trkpt lat="-22.11827002465724945068359375" lon="166.45075804553925991058349609375">
        <ele>198.399993896484375</ele>
        <time>2016-08-12T17:45:25.000Z</time>
        <extensions>
          <ns3:TrackPointExtension>
            <ns3:atemp>20.0</ns3:atemp>
            <ns3:hr>139</ns3:hr>
          </ns3:TrackPointExtension>
        </extensions>
      </trkpt>
      <trkpt lat="-22.11829391308128833770751953125" lon="166.45077011547982692718505859375">
        <ele>198.399993896484375</ele>
        <time>2016-08-12T17:45:26.000Z</time>
        <extensions>
          <ns3:TrackPointExtension>
            <ns3:atemp>20.0</ns3:atemp>
            <ns3:hr>139</ns3:hr>
          </ns3:TrackPointExtension>
        </extensions>
      </trkpt>
      <trkpt lat="-22.118306569755077362060546875" lon="166.4507743902504444122314453125">
        <ele>198.600006103515625</ele>
        <time>2016-08-12T17:45:27.000Z</time>
        <extensions>
          <ns3:TrackPointExtension>
            <ns3:atemp>20.0</ns3:atemp>
            <ns3:hr>139</ns3:hr>
          </ns3:TrackPointExtension>
        </extensions>
      </trkpt>
      <trkpt lat="-22.11832760833203792572021484375" lon="166.45077732391655445098876953125">
        <ele>198.600006103515625</ele>
        <time>2016-08-12T17:45:28.000Z</time>
        <extensions>
          <ns3:TrackPointExtension>
            <ns3:atemp>20.0</ns3:atemp>
            <ns3:hr>139</ns3:hr>
          </ns3:TrackPointExtension>
        </extensions>
      </trkpt>
      <trkpt lat="-22.11834889836609363555908203125" lon="166.450775563716888427734375">
        <ele>198.600006103515625</ele>
        <time>2016-08-12T17:45:29.000Z</time>
        <extensions>
          <ns3:TrackPointExtension>
            <ns3:atemp>20.0</ns3:atemp>
            <ns3:hr>139</ns3:hr>
          </ns3:TrackPointExtension>
        </extensions>
      </trkpt>
      <trkpt lat="-22.118376307189464569091796875" lon="166.45077430643141269683837890625">
        <ele>198.8000030517578125</ele>
        <time>2016-08-12T17:45:30.000Z</time>
        <extensions>
          <ns3:TrackPointExtension>
            <ns3:atemp>20.0</ns3:atemp>
            <ns3:hr>139</ns3:hr>
          </ns3:TrackPointExtension>
        </extensions>
      </trkpt>
      <trkpt lat="-22.1184012852609157562255859375" lon="166.450772546231746673583984375">
        <ele>198.8000030517578125</ele>
        <time>2016-08-12T17:45:31.000Z</time>
        <extensions>
          <ns3:TrackPointExtension>
            <ns3:atemp>20.0</ns3:atemp>
            <ns3:hr>139</ns3:hr>
          </ns3:TrackPointExtension>
        </extensions>
      </trkpt>
      <trkpt lat="-22.11842617951333522796630859375" lon="166.45077195949852466583251953125">
        <ele>199</ele>
        <time>2016-08-12T17:45:32.000Z</time>
        <extensions>
          <ns3:TrackPointExtension>
            <ns3:atemp>20.0</ns3:atemp>
            <ns3:hr>139</ns3:hr>
          </ns3:TrackPointExtension>
        </extensions>
      </trkpt>
      <trkpt lat="-22.118452750146389007568359375" lon="166.4507693611085414886474609375">
        <ele>199.1999969482421875</ele>
        <time>2016-08-12T17:45:33.000Z</time>
        <extensions>
          <ns3:TrackPointExtension>
            <ns3:atemp>20.0</ns3:atemp>
            <ns3:hr>139</ns3:hr>
          </ns3:TrackPointExtension>
        </extensions>
      </trkpt>
      <trkpt lat="-22.1184750460088253021240234375" lon="166.4507661759853363037109375">
        <ele>199.1999969482421875</ele>
        <time>2016-08-12T17:45:34.000Z</time>
        <extensions>
          <ns3:TrackPointExtension>
            <ns3:atemp>20.0</ns3:atemp>
            <ns3:hr>139</ns3:hr>
          </ns3:TrackPointExtension>
        </extensions>
      </trkpt>
      <trkpt lat="-22.118494994938373565673828125" lon="166.45076290704309940338134765625">
        <ele>199.399993896484375</ele>
        <time>2016-08-12T17:45:35.000Z</time>
        <extensions>
          <ns3:TrackPointExtension>
            <ns3:atemp>20.0</ns3:atemp>
            <ns3:hr>139</ns3:hr>
          </ns3:TrackPointExtension>
        </extensions>
      </trkpt>
      <trkpt lat="-22.11851318366825580596923828125" lon="166.4507581293582916259765625">
        <ele>199.600006103515625</ele>
        <time>2016-08-12T17:45:36.000Z</time>
        <extensions>
          <ns3:TrackPointExtension>
            <ns3:atemp>20.0</ns3:atemp>
            <ns3:hr>139</ns3:hr>
          </ns3:TrackPointExtension>
        </extensions>
      </trkpt>
      <trkpt lat="-22.11852810345590114593505859375" lon="166.45075486041605472564697265625">
        <ele>199.8000030517578125</ele>
        <time>2016-08-12T17:45:37.000Z</time>
        <extensions>
          <ns3:TrackPointExtension>
            <ns3:atemp>20.0</ns3:atemp>
            <ns3:hr>139</ns3:hr>
          </ns3:TrackPointExtension>
        </extensions>
      </trkpt>
      <trkpt lat="-22.11855006404221057891845703125" lon="166.4507499150931835174560546875">
        <ele>200</ele>
        <time>2016-08-12T17:45:38.000Z</time>
        <extensions>
          <ns3:TrackPointExtension>
            <ns3:atemp>20.0</ns3:atemp>
            <ns3:hr>139</ns3:hr>
          </ns3:TrackPointExtension>
        </extensions>
      </trkpt>
      <trkpt lat="-22.1185756288468837738037109375" lon="166.45074832253158092498779296875">
        <ele>200</ele>
        <time>2016-08-12T17:45:39.000Z</time>
        <extensions>
          <ns3:TrackPointExtension>
            <ns3:atemp>20.0</ns3:atemp>
            <ns3:hr>139</ns3:hr>
          </ns3:TrackPointExtension>
        </extensions>
      </trkpt>
      <trkpt lat="-22.1185950748622417449951171875" lon="166.4507472328841686248779296875">
        <ele>200.399993896484375</ele>
        <time>2016-08-12T17:45:40.000Z</time>
        <extensions>
          <ns3:TrackPointExtension>
            <ns3:atemp>20.0</ns3:atemp>
            <ns3:hr>139</ns3:hr>
          </ns3:TrackPointExtension>
        </extensions>
      </trkpt>
      <trkpt lat="-22.11862281896173954010009765625" lon="166.450747735798358917236328125">
        <ele>200.8000030517578125</ele>
        <time>2016-08-12T17:45:41.000Z</time>
        <extensions>
          <ns3:TrackPointExtension>
            <ns3:atemp>20.0</ns3:atemp>
            <ns3:hr>139</ns3:hr>
          </ns3:TrackPointExtension>
        </extensions>
      </trkpt>
      <trkpt lat="-22.11865165270864963531494140625" lon="166.4507515914738178253173828125">
        <ele>200.8000030517578125</ele>
        <time>2016-08-12T17:45:42.000Z</time>
        <extensions>
          <ns3:TrackPointExtension>
            <ns3:atemp>20.0</ns3:atemp>
            <ns3:hr>139</ns3:hr>
          </ns3:TrackPointExtension>
        </extensions>
      </trkpt>
      <trkpt lat="-22.1186859346926212310791015625" lon="166.4507686905562877655029296875">
        <ele>200.8000030517578125</ele>
        <time>2016-08-12T17:45:43.000Z</time>
        <extensions>
          <ns3:TrackPointExtension>
            <ns3:atemp>20.0</ns3:atemp>
            <ns3:hr>139</ns3:hr>
          </ns3:TrackPointExtension>
        </extensions>
      </trkpt>
      <trkpt lat="-22.1187073923647403717041015625" lon="166.45077749155461788177490234375">
        <ele>200.8000030517578125</ele>
        <time>2016-08-12T17:45:44.000Z</time>
        <extensions>
          <ns3:TrackPointExtension>
            <ns3:atemp>20.0</ns3:atemp>
            <ns3:hr>139</ns3:hr>
          </ns3:TrackPointExtension>
        </extensions>
      </trkpt>
      <trkpt lat="-22.11872088722884654998779296875" lon="166.4507831074297428131103515625">
        <ele>201</ele>
        <time>2016-08-12T17:45:45.000Z</time>
        <extensions>
          <ns3:TrackPointExtension>
            <ns3:atemp>20.0</ns3:atemp>
            <ns3:hr>139</ns3:hr>
          </ns3:TrackPointExtension>
        </extensions>
      </trkpt>
      <trkpt lat="-22.1187241561710834503173828125" lon="166.4507831074297428131103515625">
        <ele>201.1999969482421875</ele>
        <time>2016-08-12T17:45:46.000Z</time>
        <extensions>
          <ns3:TrackPointExtension>
            <ns3:atemp>20.0</ns3:atemp>
            <ns3:hr>139</ns3:hr>
          </ns3:TrackPointExtension>
        </extensions>
      </trkpt>
      <trkpt lat="-22.11872373707592487335205078125" lon="166.45078361034393310546875">
        <ele>201.1999969482421875</ele>
        <time>2016-08-12T17:45:48.000Z</time>
        <extensions>
          <ns3:TrackPointExtension>
            <ns3:atemp>20.0</ns3:atemp>
            <ns3:hr>138</ns3:hr>
          </ns3:TrackPointExtension>
        </extensions>
      </trkpt>
      <trkpt lat="-22.11872088722884654998779296875" lon="166.4507834427058696746826171875">
        <ele>201.1999969482421875</ele>
        <time>2016-08-12T17:45:49.000Z</time>
        <extensions>
          <ns3:TrackPointExtension>
            <ns3:atemp>20.0</ns3:atemp>
            <ns3:hr>137</ns3:hr>
          </ns3:TrackPointExtension>
        </extensions>
      </trkpt>
      <trkpt lat="-22.1187191270291805267333984375" lon="166.45078218542039394378662109375">
        <ele>201.1999969482421875</ele>
        <time>2016-08-12T17:45:50.000Z</time>
        <extensions>
          <ns3:TrackPointExtension>
            <ns3:atemp>20.0</ns3:atemp>
            <ns3:hr>136</ns3:hr>
          </ns3:TrackPointExtension>
        </extensions>
      </trkpt>
      <trkpt lat="-22.11871619336307048797607421875" lon="166.4507804252207279205322265625">
        <ele>201.1999969482421875</ele>
        <time>2016-08-12T17:45:51.000Z</time>
        <extensions>
          <ns3:TrackPointExtension>
            <ns3:atemp>20.0</ns3:atemp>
            <ns3:hr>134</ns3:hr>
          </ns3:TrackPointExtension>
        </extensions>
      </trkpt>
      <trkpt lat="-22.1187191270291805267333984375" lon="166.45077799446880817413330078125">
        <ele>201.1999969482421875</ele>
        <time>2016-08-12T17:45:52.000Z</time>
        <extensions>
          <ns3:TrackPointExtension>
            <ns3:atemp>20.0</ns3:atemp>
            <ns3:hr>133</ns3:hr>
          </ns3:TrackPointExtension>
        </extensions>
      </trkpt>
      <trkpt lat="-22.118718624114990234375" lon="166.45077564753592014312744140625">
        <ele>201.1999969482421875</ele>
        <time>2016-08-12T17:45:53.000Z</time>
        <extensions>
          <ns3:TrackPointExtension>
            <ns3:atemp>20.0</ns3:atemp>
            <ns3:hr>131</ns3:hr>
          </ns3:TrackPointExtension>
        </extensions>
      </trkpt>
      <trkpt lat="-22.11872071959078311920166015625" lon="166.45077263005077838897705078125">
        <ele>201.1999969482421875</ele>
        <time>2016-08-12T17:45:55.000Z</time>
        <extensions>
          <ns3:TrackPointExtension>
            <ns3:atemp>20.0</ns3:atemp>
            <ns3:hr>130</ns3:hr>
          </ns3:TrackPointExtension>
        </extensions>
      </trkpt>
      <trkpt lat="-22.118728347122669219970703125" lon="166.450772546231746673583984375">
        <ele>201.1999969482421875</ele>
        <time>2016-08-12T17:45:56.000Z</time>
        <extensions>
          <ns3:TrackPointExtension>
            <ns3:atemp>20.0</ns3:atemp>
            <ns3:hr>130</ns3:hr>
          </ns3:TrackPointExtension>
        </extensions>
      </trkpt>
      <trkpt lat="-22.118747793138027191162109375" lon="166.4507790841162204742431640625">
        <ele>201.1999969482421875</ele>
        <time>2016-08-12T17:45:57.000Z</time>
        <extensions>
          <ns3:TrackPointExtension>
            <ns3:atemp>20.0</ns3:atemp>
            <ns3:hr>130</ns3:hr>
          </ns3:TrackPointExtension>
        </extensions>
      </trkpt>
      <trkpt lat="-22.1187717653810977935791015625" lon="166.45078402943909168243408203125">
        <ele>201.1999969482421875</ele>
        <time>2016-08-12T17:45:58.000Z</time>
        <extensions>
          <ns3:TrackPointExtension>
            <ns3:atemp>20.0</ns3:atemp>
            <ns3:hr>131</ns3:hr>
          </ns3:TrackPointExtension>
        </extensions>
      </trkpt>
      <trkpt lat="-22.118790037930011749267578125" lon="166.45078939385712146759033203125">
        <ele>201.1999969482421875</ele>
        <time>2016-08-12T17:45:59.000Z</time>
        <extensions>
          <ns3:TrackPointExtension>
            <ns3:atemp>20.0</ns3:atemp>
            <ns3:hr>131</ns3:hr>
          </ns3:TrackPointExtension>
        </extensions>
      </trkpt>
      <trkpt lat="-22.118808142840862274169921875" lon="166.45080129615962505340576171875">
        <ele>201.399993896484375</ele>
        <time>2016-08-12T17:46:00.000Z</time>
        <extensions>
          <ns3:TrackPointExtension>
            <ns3:atemp>20.0</ns3:atemp>
            <ns3:hr>131</ns3:hr>
          </ns3:TrackPointExtension>
        </extensions>
      </trkpt>
      <trkpt lat="-22.118833959102630615234375" lon="166.45081655122339725494384765625">
        <ele>201.600006103515625</ele>
        <time>2016-08-12T17:46:01.000Z</time>
        <extensions>
          <ns3:TrackPointExtension>
            <ns3:atemp>20.0</ns3:atemp>
            <ns3:hr>132</ns3:hr>
          </ns3:TrackPointExtension>
        </extensions>
      </trkpt>
      <trkpt lat="-22.11885734461247920989990234375" lon="166.450834907591342926025390625">
        <ele>201.600006103515625</ele>
        <time>2016-08-12T17:46:02.000Z</time>
        <extensions>
          <ns3:TrackPointExtension>
            <ns3:atemp>20.0</ns3:atemp>
            <ns3:hr>132</ns3:hr>
          </ns3:TrackPointExtension>
        </extensions>
      </trkpt>
      <trkpt lat="-22.11887863464653491973876953125" lon="166.450851671397686004638671875">
        <ele>201.8000030517578125</ele>
        <time>2016-08-12T17:46:03.000Z</time>
        <extensions>
          <ns3:TrackPointExtension>
            <ns3:atemp>20.0</ns3:atemp>
            <ns3:hr>132</ns3:hr>
          </ns3:TrackPointExtension>
        </extensions>
      </trkpt>
      <trkpt lat="-22.11889472790062427520751953125" lon="166.4508665911853313446044921875">
        <ele>202.1999969482421875</ele>
        <time>2016-08-12T17:46:04.000Z</time>
        <extensions>
          <ns3:TrackPointExtension>
            <ns3:atemp>20.0</ns3:atemp>
            <ns3:hr>133</ns3:hr>
          </ns3:TrackPointExtension>
        </extensions>
      </trkpt>
      <trkpt lat="-22.11890663020312786102294921875" lon="166.45088645629584789276123046875">
        <ele>202.399993896484375</ele>
        <time>2016-08-12T17:46:05.000Z</time>
        <extensions>
          <ns3:TrackPointExtension>
            <ns3:atemp>20.0</ns3:atemp>
            <ns3:hr>132</ns3:hr>
          </ns3:TrackPointExtension>
        </extensions>
      </trkpt>
      <trkpt lat="-22.11891652084887027740478515625" lon="166.45090439356863498687744140625">
        <ele>202.600006103515625</ele>
        <time>2016-08-12T17:46:06.000Z</time>
        <extensions>
          <ns3:TrackPointExtension>
            <ns3:atemp>20.0</ns3:atemp>
            <ns3:hr>132</ns3:hr>
          </ns3:TrackPointExtension>
        </extensions>
      </trkpt>
      <trkpt lat="-22.11892574094235897064208984375" lon="166.45092308521270751953125">
        <ele>202.600006103515625</ele>
        <time>2016-08-12T17:46:07.000Z</time>
        <extensions>
          <ns3:TrackPointExtension>
            <ns3:atemp>20.0</ns3:atemp>
            <ns3:hr>132</ns3:hr>
          </ns3:TrackPointExtension>
        </extensions>
      </trkpt>
      <trkpt lat="-22.118934206664562225341796875" lon="166.4509450457990169525146484375">
        <ele>202.8000030517578125</ele>
        <time>2016-08-12T17:46:08.000Z</time>
        <extensions>
          <ns3:TrackPointExtension>
            <ns3:atemp>20.0</ns3:atemp>
            <ns3:hr>132</ns3:hr>
          </ns3:TrackPointExtension>
        </extensions>
      </trkpt>
      <trkpt lat="-22.11894191801548004150390625" lon="166.450965665280818939208984375">
        <ele>202.8000030517578125</ele>
        <time>2016-08-12T17:46:09.000Z</time>
        <extensions>
          <ns3:TrackPointExtension>
            <ns3:atemp>20.0</ns3:atemp>
            <ns3:hr>131</ns3:hr>
          </ns3:TrackPointExtension>
        </extensions>
      </trkpt>
      <trkpt lat="-22.11894921027123928070068359375" lon="166.45098770968616008758544921875">
        <ele>202.8000030517578125</ele>
        <time>2016-08-12T17:46:10.000Z</time>
        <extensions>
          <ns3:TrackPointExtension>
            <ns3:atemp>20.0</ns3:atemp>
            <ns3:hr>131</ns3:hr>
          </ns3:TrackPointExtension>
        </extensions>
      </trkpt>
      <trkpt lat="-22.11895801126956939697265625" lon="166.45100749097764492034912109375">
        <ele>203.1999969482421875</ele>
        <time>2016-08-12T17:46:11.000Z</time>
        <extensions>
          <ns3:TrackPointExtension>
            <ns3:atemp>20.0</ns3:atemp>
            <ns3:hr>131</ns3:hr>
          </ns3:TrackPointExtension>
        </extensions>
      </trkpt>
      <trkpt lat="-22.11896329186856746673583984375" lon="166.451028697192668914794921875">
        <ele>203.1999969482421875</ele>
        <time>2016-08-12T17:46:12.000Z</time>
        <extensions>
          <ns3:TrackPointExtension>
            <ns3:atemp>20.0</ns3:atemp>
            <ns3:hr>131</ns3:hr>
          </ns3:TrackPointExtension>
        </extensions>
      </trkpt>
      <trkpt lat="-22.1189648844301700592041015625" lon="166.4510530047118663787841796875">
        <ele>203.1999969482421875</ele>
        <time>2016-08-12T17:46:13.000Z</time>
        <extensions>
          <ns3:TrackPointExtension>
            <ns3:atemp>20.0</ns3:atemp>
            <ns3:hr>131</ns3:hr>
          </ns3:TrackPointExtension>
        </extensions>
      </trkpt>
      <trkpt lat="-22.11896865628659725189208984375" lon="166.45107370801270008087158203125">
        <ele>203.8000030517578125</ele>
        <time>2016-08-12T17:46:14.000Z</time>
        <extensions>
          <ns3:TrackPointExtension>
            <ns3:atemp>20.0</ns3:atemp>
            <ns3:hr>131</ns3:hr>
          </ns3:TrackPointExtension>
        </extensions>
      </trkpt>
      <trkpt lat="-22.118971757590770721435546875" lon="166.45109466277062892913818359375">
        <ele>204</ele>
        <time>2016-08-12T17:46:15.000Z</time>
        <extensions>
          <ns3:TrackPointExtension>
            <ns3:atemp>20.0</ns3:atemp>
            <ns3:hr>131</ns3:hr>
          </ns3:TrackPointExtension>
        </extensions>
      </trkpt>
      <trkpt lat="-22.11897544562816619873046875" lon="166.4511173777282238006591796875">
        <ele>204</ele>
        <time>2016-08-12T17:46:16.000Z</time>
        <extensions>
          <ns3:TrackPointExtension>
            <ns3:atemp>20.0</ns3:atemp>
            <ns3:hr>131</ns3:hr>
          </ns3:TrackPointExtension>
        </extensions>
      </trkpt>
      <trkpt lat="-22.11897988803684711456298828125" lon="166.45113741047680377960205078125">
        <ele>204.1999969482421875</ele>
        <time>2016-08-12T17:46:17.000Z</time>
        <extensions>
          <ns3:TrackPointExtension>
            <ns3:atemp>20.0</ns3:atemp>
            <ns3:hr>131</ns3:hr>
          </ns3:TrackPointExtension>
        </extensions>
      </trkpt>
      <trkpt lat="-22.11897988803684711456298828125" lon="166.4511604607105255126953125">
        <ele>204.600006103515625</ele>
        <time>2016-08-12T17:46:18.000Z</time>
        <extensions>
          <ns3:TrackPointExtension>
            <ns3:atemp>20.0</ns3:atemp>
            <ns3:hr>131</ns3:hr>
          </ns3:TrackPointExtension>
        </extensions>
      </trkpt>
      <trkpt lat="-22.11898173205554485321044921875" lon="166.4511851035058498382568359375">
        <ele>204.600006103515625</ele>
        <time>2016-08-12T17:46:19.000Z</time>
        <extensions>
          <ns3:TrackPointExtension>
            <ns3:atemp>20.0</ns3:atemp>
            <ns3:hr>131</ns3:hr>
          </ns3:TrackPointExtension>
        </extensions>
      </trkpt>
      <trkpt lat="-22.1189866773784160614013671875" lon="166.45120480097830295562744140625">
        <ele>204.600006103515625</ele>
        <time>2016-08-12T17:46:20.000Z</time>
        <extensions>
          <ns3:TrackPointExtension>
            <ns3:atemp>20.0</ns3:atemp>
            <ns3:hr>131</ns3:hr>
          </ns3:TrackPointExtension>
        </extensions>
      </trkpt>
      <trkpt lat="-22.1189880184829235076904296875" lon="166.45122877322137355804443359375">
        <ele>205</ele>
        <time>2016-08-12T17:46:21.000Z</time>
        <extensions>
          <ns3:TrackPointExtension>
            <ns3:atemp>20.0</ns3:atemp>
            <ns3:hr>131</ns3:hr>
          </ns3:TrackPointExtension>
        </extensions>
      </trkpt>
      <trkpt lat="-22.1189893595874309539794921875" lon="166.45125039853155612945556640625">
        <ele>205.1999969482421875</ele>
        <time>2016-08-12T17:46:22.000Z</time>
        <extensions>
          <ns3:TrackPointExtension>
            <ns3:atemp>20.0</ns3:atemp>
            <ns3:hr>131</ns3:hr>
          </ns3:TrackPointExtension>
        </extensions>
      </trkpt>
      <trkpt lat="-22.11899287998676300048828125" lon="166.45127017982304096221923828125">
        <ele>205</ele>
        <time>2016-08-12T17:46:23.000Z</time>
        <extensions>
          <ns3:TrackPointExtension>
            <ns3:atemp>20.0</ns3:atemp>
            <ns3:hr>131</ns3:hr>
          </ns3:TrackPointExtension>
        </extensions>
      </trkpt>
      <trkpt lat="-22.11899916641414165496826171875" lon="166.45129197277128696441650390625">
        <ele>205.1999969482421875</ele>
        <time>2016-08-12T17:46:24.000Z</time>
        <extensions>
          <ns3:TrackPointExtension>
            <ns3:atemp>20.0</ns3:atemp>
            <ns3:hr>131</ns3:hr>
          </ns3:TrackPointExtension>
        </extensions>
      </trkpt>
      <trkpt lat="-22.1190057881176471710205078125" lon="166.45131275989115238189697265625">
        <ele>205.600006103515625</ele>
        <time>2016-08-12T17:46:25.000Z</time>
        <extensions>
          <ns3:TrackPointExtension>
            <ns3:atemp>20.0</ns3:atemp>
            <ns3:hr>131</ns3:hr>
          </ns3:TrackPointExtension>
        </extensions>
      </trkpt>
      <trkpt lat="-22.1190098114311695098876953125" lon="166.4513343013823032379150390625">
        <ele>205.8000030517578125</ele>
        <time>2016-08-12T17:46:26.000Z</time>
        <extensions>
          <ns3:TrackPointExtension>
            <ns3:atemp>20.0</ns3:atemp>
            <ns3:hr>131</ns3:hr>
          </ns3:TrackPointExtension>
        </extensions>
      </trkpt>
      <trkpt lat="-22.11901701986789703369140625" lon="166.4513554237782955169677734375">
        <ele>205.8000030517578125</ele>
        <time>2016-08-12T17:46:27.000Z</time>
        <extensions>
          <ns3:TrackPointExtension>
            <ns3:atemp>20.0</ns3:atemp>
            <ns3:hr>131</ns3:hr>
          </ns3:TrackPointExtension>
        </extensions>
      </trkpt>
      <trkpt lat="-22.11902582086622714996337890625" lon="166.45137344487011432647705078125">
        <ele>206.1999969482421875</ele>
        <time>2016-08-12T17:46:28.000Z</time>
        <extensions>
          <ns3:TrackPointExtension>
            <ns3:atemp>20.0</ns3:atemp>
            <ns3:hr>131</ns3:hr>
          </ns3:TrackPointExtension>
        </extensions>
      </trkpt>
      <trkpt lat="-22.11903085000813007354736328125" lon="166.45139473490417003631591796875">
        <ele>206.1999969482421875</ele>
        <time>2016-08-12T17:46:29.000Z</time>
        <extensions>
          <ns3:TrackPointExtension>
            <ns3:atemp>20.0</ns3:atemp>
            <ns3:hr>132</ns3:hr>
          </ns3:TrackPointExtension>
        </extensions>
      </trkpt>
      <trkpt lat="-22.119037806987762451171875" lon="166.451415605843067169189453125">
        <ele>206.1999969482421875</ele>
        <time>2016-08-12T17:46:30.000Z</time>
        <extensions>
          <ns3:TrackPointExtension>
            <ns3:atemp>20.0</ns3:atemp>
            <ns3:hr>132</ns3:hr>
          </ns3:TrackPointExtension>
        </extensions>
      </trkpt>
      <trkpt lat="-22.11904359050095081329345703125" lon="166.451437063515186309814453125">
        <ele>206.600006103515625</ele>
        <time>2016-08-12T17:46:31.000Z</time>
        <extensions>
          <ns3:TrackPointExtension>
            <ns3:atemp>20.0</ns3:atemp>
            <ns3:hr>132</ns3:hr>
          </ns3:TrackPointExtension>
        </extensions>
      </trkpt>
      <trkpt lat="-22.1190510503947734832763671875" lon="166.45145927555859088897705078125">
        <ele>207</ele>
        <time>2016-08-12T17:46:32.000Z</time>
        <extensions>
          <ns3:TrackPointExtension>
            <ns3:atemp>20.0</ns3:atemp>
            <ns3:hr>133</ns3:hr>
          </ns3:TrackPointExtension>
        </extensions>
      </trkpt>
      <trkpt lat="-22.11906052194535732269287109375" lon="166.45147805102169513702392578125">
        <ele>206.8000030517578125</ele>
        <time>2016-08-12T17:46:33.000Z</time>
        <extensions>
          <ns3:TrackPointExtension>
            <ns3:atemp>20.0</ns3:atemp>
            <ns3:hr>133</ns3:hr>
          </ns3:TrackPointExtension>
        </extensions>
      </trkpt>
      <trkpt lat="-22.11906689219176769256591796875" lon="166.45149766467511653900146484375">
        <ele>207</ele>
        <time>2016-08-12T17:46:34.000Z</time>
        <extensions>
          <ns3:TrackPointExtension>
            <ns3:atemp>20.0</ns3:atemp>
            <ns3:hr>133</ns3:hr>
          </ns3:TrackPointExtension>
        </extensions>
      </trkpt>
      <trkpt lat="-22.11907778866589069366455078125" lon="166.45152096636593341827392578125">
        <ele>207.399993896484375</ele>
        <time>2016-08-12T17:46:35.000Z</time>
        <extensions>
          <ns3:TrackPointExtension>
            <ns3:atemp>20.0</ns3:atemp>
            <ns3:hr>134</ns3:hr>
          </ns3:TrackPointExtension>
        </extensions>
      </trkpt>
      <trkpt lat="-22.11908650584518909454345703125" lon="166.451542340219020843505859375">
        <ele>207.399993896484375</ele>
        <time>2016-08-12T17:46:36.000Z</time>
        <extensions>
          <ns3:TrackPointExtension>
            <ns3:atemp>20.0</ns3:atemp>
            <ns3:hr>134</ns3:hr>
          </ns3:TrackPointExtension>
        </extensions>
      </trkpt>
      <trkpt lat="-22.11909522302448749542236328125" lon="166.4515643008053302764892578125">
        <ele>207.600006103515625</ele>
        <time>2016-08-12T17:46:37.000Z</time>
        <extensions>
          <ns3:TrackPointExtension>
            <ns3:atemp>20.0</ns3:atemp>
            <ns3:hr>134</ns3:hr>
          </ns3:TrackPointExtension>
        </extensions>
      </trkpt>
      <trkpt lat="-22.119104862213134765625" lon="166.45158533938229084014892578125">
        <ele>208.1999969482421875</ele>
        <time>2016-08-12T17:46:38.000Z</time>
        <extensions>
          <ns3:TrackPointExtension>
            <ns3:atemp>20.0</ns3:atemp>
            <ns3:hr>134</ns3:hr>
          </ns3:TrackPointExtension>
        </extensions>
      </trkpt>
      <trkpt lat="-22.11911500431597232818603515625" lon="166.4516035281121730804443359375">
        <ele>208.1999969482421875</ele>
        <time>2016-08-12T17:46:39.000Z</time>
        <extensions>
          <ns3:TrackPointExtension>
            <ns3:atemp>20.0</ns3:atemp>
            <ns3:hr>135</ns3:hr>
          </ns3:TrackPointExtension>
        </extensions>
      </trkpt>
      <trkpt lat="-22.11912707425653934478759765625" lon="166.45162305794656276702880859375">
        <ele>208.399993896484375</ele>
        <time>2016-08-12T17:46:40.000Z</time>
        <extensions>
          <ns3:TrackPointExtension>
            <ns3:atemp>20.0</ns3:atemp>
            <ns3:hr>134</ns3:hr>
          </ns3:TrackPointExtension>
        </extensions>
      </trkpt>
      <trkpt lat="-22.11913646198809146881103515625" lon="166.45164283923804759979248046875">
        <ele>208.8000030517578125</ele>
        <time>2016-08-12T17:46:41.000Z</time>
        <extensions>
          <ns3:TrackPointExtension>
            <ns3:atemp>20.0</ns3:atemp>
            <ns3:hr>135</ns3:hr>
          </ns3:TrackPointExtension>
        </extensions>
      </trkpt>
      <trkpt lat="-22.11914484389126300811767578125" lon="166.4516593515872955322265625">
        <ele>209</ele>
        <time>2016-08-12T17:46:42.000Z</time>
        <extensions>
          <ns3:TrackPointExtension>
            <ns3:atemp>20.0</ns3:atemp>
            <ns3:hr>135</ns3:hr>
          </ns3:TrackPointExtension>
        </extensions>
      </trkpt>
      <trkpt lat="-22.11915188468992710113525390625" lon="166.45167988725006580352783203125">
        <ele>209</ele>
        <time>2016-08-12T17:46:43.000Z</time>
        <extensions>
          <ns3:TrackPointExtension>
            <ns3:atemp>20.0</ns3:atemp>
            <ns3:hr>135</ns3:hr>
          </ns3:TrackPointExtension>
        </extensions>
      </trkpt>
      <trkpt lat="-22.1191573329269886016845703125" lon="166.4517004229128360748291015625">
        <ele>209.399993896484375</ele>
        <time>2016-08-12T17:46:44.000Z</time>
        <extensions>
          <ns3:TrackPointExtension>
            <ns3:atemp>20.0</ns3:atemp>
            <ns3:hr>135</ns3:hr>
          </ns3:TrackPointExtension>
        </extensions>
      </trkpt>
      <trkpt lat="-22.11916043423116207122802734375" lon="166.4517208747565746307373046875">
        <ele>209.600006103515625</ele>
        <time>2016-08-12T17:46:45.000Z</time>
        <extensions>
          <ns3:TrackPointExtension>
            <ns3:atemp>20.0</ns3:atemp>
            <ns3:hr>136</ns3:hr>
          </ns3:TrackPointExtension>
        </extensions>
      </trkpt>
      <trkpt lat="-22.11916261352598667144775390625" lon="166.45174107514321804046630859375">
        <ele>209.600006103515625</ele>
        <time>2016-08-12T17:46:46.000Z</time>
        <extensions>
          <ns3:TrackPointExtension>
            <ns3:atemp>20.0</ns3:atemp>
            <ns3:hr>136</ns3:hr>
          </ns3:TrackPointExtension>
        </extensions>
      </trkpt>
      <trkpt lat="-22.11916722357273101806640625" lon="166.45175800658762454986572265625">
        <ele>209.8000030517578125</ele>
        <time>2016-08-12T17:46:47.000Z</time>
        <extensions>
          <ns3:TrackPointExtension>
            <ns3:atemp>20.0</ns3:atemp>
            <ns3:hr>136</ns3:hr>
          </ns3:TrackPointExtension>
        </extensions>
      </trkpt>
      <trkpt lat="-22.11917124688625335693359375" lon="166.45177795551717281341552734375">
        <ele>210</ele>
        <time>2016-08-12T17:46:48.000Z</time>
        <extensions>
          <ns3:TrackPointExtension>
            <ns3:atemp>20.0</ns3:atemp>
            <ns3:hr>137</ns3:hr>
          </ns3:TrackPointExtension>
        </extensions>
      </trkpt>
      <trkpt lat="-22.11917820386588573455810546875" lon="166.45179857499897480010986328125">
        <ele>210.1999969482421875</ele>
        <time>2016-08-12T17:46:49.000Z</time>
        <extensions>
          <ns3:TrackPointExtension>
            <ns3:atemp>20.0</ns3:atemp>
            <ns3:hr>137</ns3:hr>
          </ns3:TrackPointExtension>
        </extensions>
      </trkpt>
      <trkpt lat="-22.11918273009359836578369140625" lon="166.451817937195301055908203125">
        <ele>210.1999969482421875</ele>
        <time>2016-08-12T17:46:50.000Z</time>
        <extensions>
          <ns3:TrackPointExtension>
            <ns3:atemp>20.0</ns3:atemp>
            <ns3:hr>138</ns3:hr>
          </ns3:TrackPointExtension>
        </extensions>
      </trkpt>
      <trkpt lat="-22.11918993853032588958740234375" lon="166.4518390595912933349609375">
        <ele>210.399993896484375</ele>
        <time>2016-08-12T17:46:51.000Z</time>
        <extensions>
          <ns3:TrackPointExtension>
            <ns3:atemp>20.0</ns3:atemp>
            <ns3:hr>138</ns3:hr>
          </ns3:TrackPointExtension>
        </extensions>
      </trkpt>
      <trkpt lat="-22.11919681169092655181884765625" lon="166.45185892470180988311767578125">
        <ele>210.600006103515625</ele>
        <time>2016-08-12T17:46:52.000Z</time>
        <extensions>
          <ns3:TrackPointExtension>
            <ns3:atemp>20.0</ns3:atemp>
            <ns3:hr>138</ns3:hr>
          </ns3:TrackPointExtension>
        </extensions>
      </trkpt>
      <trkpt lat="-22.11920284666121006011962890625" lon="166.4518797956407070159912109375">
        <ele>210.600006103515625</ele>
        <time>2016-08-12T17:46:53.000Z</time>
        <extensions>
          <ns3:TrackPointExtension>
            <ns3:atemp>20.0</ns3:atemp>
            <ns3:hr>138</ns3:hr>
          </ns3:TrackPointExtension>
        </extensions>
      </trkpt>
      <trkpt lat="-22.11921189911663532257080078125" lon="166.45189848728477954864501953125">
        <ele>210.600006103515625</ele>
        <time>2016-08-12T17:46:54.000Z</time>
        <extensions>
          <ns3:TrackPointExtension>
            <ns3:atemp>20.0</ns3:atemp>
            <ns3:hr>139</ns3:hr>
          </ns3:TrackPointExtension>
        </extensions>
      </trkpt>
      <trkpt lat="-22.11921877227723598480224609375" lon="166.4519160054624080657958984375">
        <ele>210.8000030517578125</ele>
        <time>2016-08-12T17:46:55.000Z</time>
        <extensions>
          <ns3:TrackPointExtension>
            <ns3:atemp>20.0</ns3:atemp>
            <ns3:hr>139</ns3:hr>
          </ns3:TrackPointExtension>
        </extensions>
      </trkpt>
      <trkpt lat="-22.11922195740044116973876953125" lon="166.45193763077259063720703125">
        <ele>210.8000030517578125</ele>
        <time>2016-08-12T17:46:56.000Z</time>
        <extensions>
          <ns3:TrackPointExtension>
            <ns3:atemp>20.0</ns3:atemp>
            <ns3:hr>139</ns3:hr>
          </ns3:TrackPointExtension>
        </extensions>
      </trkpt>
      <trkpt lat="-22.11922011338174343109130859375" lon="166.4519632793962955474853515625">
        <ele>210.8000030517578125</ele>
        <time>2016-08-12T17:46:57.000Z</time>
        <extensions>
          <ns3:TrackPointExtension>
            <ns3:atemp>20.0</ns3:atemp>
            <ns3:hr>139</ns3:hr>
          </ns3:TrackPointExtension>
        </extensions>
      </trkpt>
      <trkpt lat="-22.1192217059433460235595703125" lon="166.45198465324938297271728515625">
        <ele>211.1999969482421875</ele>
        <time>2016-08-12T17:46:58.000Z</time>
        <extensions>
          <ns3:TrackPointExtension>
            <ns3:atemp>20.0</ns3:atemp>
            <ns3:hr>139</ns3:hr>
          </ns3:TrackPointExtension>
        </extensions>
      </trkpt>
      <trkpt lat="-22.1192223764955997467041015625" lon="166.45200678147375583648681640625">
        <ele>211.399993896484375</ele>
        <time>2016-08-12T17:46:59.000Z</time>
        <extensions>
          <ns3:TrackPointExtension>
            <ns3:atemp>20.0</ns3:atemp>
            <ns3:hr>139</ns3:hr>
          </ns3:TrackPointExtension>
        </extensions>
      </trkpt>
      <trkpt lat="-22.11922229267656803131103515625" lon="166.4520294964313507080078125">
        <ele>211.399993896484375</ele>
        <time>2016-08-12T17:47:00.000Z</time>
        <extensions>
          <ns3:TrackPointExtension>
            <ns3:atemp>20.0</ns3:atemp>
            <ns3:hr>139</ns3:hr>
          </ns3:TrackPointExtension>
        </extensions>
      </trkpt>
      <trkpt lat="-22.119223214685916900634765625" lon="166.452046930789947509765625">
        <ele>211.600006103515625</ele>
        <time>2016-08-12T17:47:01.000Z</time>
        <extensions>
          <ns3:TrackPointExtension>
            <ns3:atemp>20.0</ns3:atemp>
            <ns3:hr>139</ns3:hr>
          </ns3:TrackPointExtension>
        </extensions>
      </trkpt>
      <trkpt lat="-22.11922195740044116973876953125" lon="166.45206964574754238128662109375">
        <ele>211.8000030517578125</ele>
        <time>2016-08-12T17:47:02.000Z</time>
        <extensions>
          <ns3:TrackPointExtension>
            <ns3:atemp>20.0</ns3:atemp>
            <ns3:hr>139</ns3:hr>
          </ns3:TrackPointExtension>
        </extensions>
      </trkpt>
      <trkpt lat="-22.11921977810561656951904296875" lon="166.452093534171581268310546875">
        <ele>211.8000030517578125</ele>
        <time>2016-08-12T17:47:03.000Z</time>
        <extensions>
          <ns3:TrackPointExtension>
            <ns3:atemp>20.0</ns3:atemp>
            <ns3:hr>138</ns3:hr>
          </ns3:TrackPointExtension>
        </extensions>
      </trkpt>
      <trkpt lat="-22.119218520820140838623046875" lon="166.4521151594817638397216796875">
        <ele>211.8000030517578125</ele>
        <time>2016-08-12T17:47:04.000Z</time>
        <extensions>
          <ns3:TrackPointExtension>
            <ns3:atemp>20.0</ns3:atemp>
            <ns3:hr>139</ns3:hr>
          </ns3:TrackPointExtension>
        </extensions>
      </trkpt>
      <trkpt lat="-22.1192161738872528076171875" lon="166.45214038901031017303466796875">
        <ele>212.1999969482421875</ele>
        <time>2016-08-12T17:47:05.000Z</time>
        <extensions>
          <ns3:TrackPointExtension>
            <ns3:atemp>20.0</ns3:atemp>
            <ns3:hr>138</ns3:hr>
          </ns3:TrackPointExtension>
        </extensions>
      </trkpt>
      <trkpt lat="-22.119215838611125946044921875" lon="166.45216335542500019073486328125">
        <ele>212.600006103515625</ele>
        <time>2016-08-12T17:47:06.000Z</time>
        <extensions>
          <ns3:TrackPointExtension>
            <ns3:atemp>20.0</ns3:atemp>
            <ns3:hr>138</ns3:hr>
          </ns3:TrackPointExtension>
        </extensions>
      </trkpt>
      <trkpt lat="-22.11921558715403079986572265625" lon="166.4521855674684047698974609375">
        <ele>212.399993896484375</ele>
        <time>2016-08-12T17:47:07.000Z</time>
        <extensions>
          <ns3:TrackPointExtension>
            <ns3:atemp>20.0</ns3:atemp>
            <ns3:hr>138</ns3:hr>
          </ns3:TrackPointExtension>
        </extensions>
      </trkpt>
      <trkpt lat="-22.119217179715633392333984375" lon="166.45220811478793621063232421875">
        <ele>212.600006103515625</ele>
        <time>2016-08-12T17:47:08.000Z</time>
        <extensions>
          <ns3:TrackPointExtension>
            <ns3:atemp>20.0</ns3:atemp>
            <ns3:hr>138</ns3:hr>
          </ns3:TrackPointExtension>
        </extensions>
      </trkpt>
      <trkpt lat="-22.1192210353910923004150390625" lon="166.45222730934619903564453125">
        <ele>213</ele>
        <time>2016-08-12T17:47:09.000Z</time>
        <extensions>
          <ns3:TrackPointExtension>
            <ns3:atemp>20.0</ns3:atemp>
            <ns3:hr>139</ns3:hr>
          </ns3:TrackPointExtension>
        </extensions>
      </trkpt>
      <trkpt lat="-22.11922078393399715423583984375" lon="166.45225119777023792266845703125">
        <ele>213</ele>
        <time>2016-08-12T17:47:10.000Z</time>
        <extensions>
          <ns3:TrackPointExtension>
            <ns3:atemp>20.0</ns3:atemp>
            <ns3:hr>139</ns3:hr>
          </ns3:TrackPointExtension>
        </extensions>
      </trkpt>
      <trkpt lat="-22.11921961046755313873291015625" lon="166.45227424800395965576171875">
        <ele>213.1999969482421875</ele>
        <time>2016-08-12T17:47:11.000Z</time>
        <extensions>
          <ns3:TrackPointExtension>
            <ns3:atemp>20.0</ns3:atemp>
            <ns3:hr>139</ns3:hr>
          </ns3:TrackPointExtension>
        </extensions>
      </trkpt>
      <trkpt lat="-22.11921810172498226165771484375" lon="166.4522958733141422271728515625">
        <ele>213.600006103515625</ele>
        <time>2016-08-12T17:47:12.000Z</time>
        <extensions>
          <ns3:TrackPointExtension>
            <ns3:atemp>20.0</ns3:atemp>
            <ns3:hr>138</ns3:hr>
          </ns3:TrackPointExtension>
        </extensions>
      </trkpt>
      <trkpt lat="-22.1192217059433460235595703125" lon="166.45231825299561023712158203125">
        <ele>213.8000030517578125</ele>
        <time>2016-08-12T17:47:13.000Z</time>
        <extensions>
          <ns3:TrackPointExtension>
            <ns3:atemp>20.0</ns3:atemp>
            <ns3:hr>139</ns3:hr>
          </ns3:TrackPointExtension>
        </extensions>
      </trkpt>
      <trkpt lat="-22.11922489106655120849609375" lon="166.4523377828299999237060546875">
        <ele>213.8000030517578125</ele>
        <time>2016-08-12T17:47:14.000Z</time>
        <extensions>
          <ns3:TrackPointExtension>
            <ns3:atemp>20.0</ns3:atemp>
            <ns3:hr>139</ns3:hr>
          </ns3:TrackPointExtension>
        </extensions>
      </trkpt>
      <trkpt lat="-22.11923159658908843994140625" lon="166.4523552171885967254638671875">
        <ele>214</ele>
        <time>2016-08-12T17:47:15.000Z</time>
        <extensions>
          <ns3:TrackPointExtension>
            <ns3:atemp>20.0</ns3:atemp>
            <ns3:hr>139</ns3:hr>
          </ns3:TrackPointExtension>
        </extensions>
      </trkpt>
      <trkpt lat="-22.11923964321613311767578125" lon="166.4523733220994472503662109375">
        <ele>214.600006103515625</ele>
        <time>2016-08-12T17:47:16.000Z</time>
        <extensions>
          <ns3:TrackPointExtension>
            <ns3:atemp>20.0</ns3:atemp>
            <ns3:hr>139</ns3:hr>
          </ns3:TrackPointExtension>
        </extensions>
      </trkpt>
      <trkpt lat="-22.119248025119304656982421875" lon="166.4523887448012828826904296875">
        <ele>214.8000030517578125</ele>
        <time>2016-08-12T17:47:17.000Z</time>
        <extensions>
          <ns3:TrackPointExtension>
            <ns3:atemp>20.0</ns3:atemp>
            <ns3:hr>139</ns3:hr>
          </ns3:TrackPointExtension>
        </extensions>
      </trkpt>
      <trkpt lat="-22.11925229988992214202880859375" lon="166.4524068497121334075927734375">
        <ele>215</ele>
        <time>2016-08-12T17:47:18.000Z</time>
        <extensions>
          <ns3:TrackPointExtension>
            <ns3:atemp>20.0</ns3:atemp>
            <ns3:hr>139</ns3:hr>
          </ns3:TrackPointExtension>
        </extensions>
      </trkpt>
      <trkpt lat="-22.119256071746349334716796875" lon="166.4524259604513645172119140625">
        <ele>215.399993896484375</ele>
        <time>2016-08-12T17:47:19.000Z</time>
        <extensions>
          <ns3:TrackPointExtension>
            <ns3:atemp>20.0</ns3:atemp>
            <ns3:hr>139</ns3:hr>
          </ns3:TrackPointExtension>
        </extensions>
      </trkpt>
      <trkpt lat="-22.11926319636404514312744140625" lon="166.45244582556188106536865234375">
        <ele>215.8000030517578125</ele>
        <time>2016-08-12T17:47:20.000Z</time>
        <extensions>
          <ns3:TrackPointExtension>
            <ns3:atemp>20.0</ns3:atemp>
            <ns3:hr>140</ns3:hr>
          </ns3:TrackPointExtension>
        </extensions>
      </trkpt>
      <trkpt lat="-22.1192740090191364288330078125" lon="166.45246728323400020599365234375">
        <ele>216</ele>
        <time>2016-08-12T17:47:21.000Z</time>
        <extensions>
          <ns3:TrackPointExtension>
            <ns3:atemp>20.0</ns3:atemp>
            <ns3:hr>140</ns3:hr>
          </ns3:TrackPointExtension>
        </extensions>
      </trkpt>
      <trkpt lat="-22.11927912198007106781005859375" lon="166.4524869807064533233642578125">
        <ele>216.1999969482421875</ele>
        <time>2016-08-12T17:47:22.000Z</time>
        <extensions>
          <ns3:TrackPointExtension>
            <ns3:atemp>20.0</ns3:atemp>
            <ns3:hr>140</ns3:hr>
          </ns3:TrackPointExtension>
        </extensions>
      </trkpt>
      <trkpt lat="-22.119280882179737091064453125" lon="166.4525084383785724639892578125">
        <ele>216.600006103515625</ele>
        <time>2016-08-12T17:47:23.000Z</time>
        <extensions>
          <ns3:TrackPointExtension>
            <ns3:atemp>20.0</ns3:atemp>
            <ns3:hr>140</ns3:hr>
          </ns3:TrackPointExtension>
        </extensions>
      </trkpt>
      <trkpt lat="-22.11928213946521282196044921875" lon="166.45253232680261135101318359375">
        <ele>217</ele>
        <time>2016-08-12T17:47:24.000Z</time>
        <extensions>
          <ns3:TrackPointExtension>
            <ns3:atemp>20.0</ns3:atemp>
            <ns3:hr>141</ns3:hr>
          </ns3:TrackPointExtension>
        </extensions>
      </trkpt>
      <trkpt lat="-22.11928264237940311431884765625" lon="166.452554874122142791748046875">
        <ele>217</ele>
        <time>2016-08-12T17:47:25.000Z</time>
        <extensions>
          <ns3:TrackPointExtension>
            <ns3:atemp>20.0</ns3:atemp>
            <ns3:hr>141</ns3:hr>
          </ns3:TrackPointExtension>
        </extensions>
      </trkpt>
      <trkpt lat="-22.11928465403616428375244140625" lon="166.4525766670703887939453125">
        <ele>217.399993896484375</ele>
        <time>2016-08-12T17:47:26.000Z</time>
        <extensions>
          <ns3:TrackPointExtension>
            <ns3:atemp>20.0</ns3:atemp>
            <ns3:hr>141</ns3:hr>
          </ns3:TrackPointExtension>
        </extensions>
      </trkpt>
      <trkpt lat="-22.11928934790194034576416015625" lon="166.4525982923805713653564453125">
        <ele>217.600006103515625</ele>
        <time>2016-08-12T17:47:27.000Z</time>
        <extensions>
          <ns3:TrackPointExtension>
            <ns3:atemp>20.0</ns3:atemp>
            <ns3:hr>141</ns3:hr>
          </ns3:TrackPointExtension>
        </extensions>
      </trkpt>
      <trkpt lat="-22.1192921139299869537353515625" lon="166.4526177383959293365478515625">
        <ele>217.600006103515625</ele>
        <time>2016-08-12T17:47:28.000Z</time>
        <extensions>
          <ns3:TrackPointExtension>
            <ns3:atemp>20.0</ns3:atemp>
            <ns3:hr>141</ns3:hr>
          </ns3:TrackPointExtension>
        </extensions>
      </trkpt>
      <trkpt lat="-22.11929596960544586181640625" lon="166.452637352049350738525390625">
        <ele>218</ele>
        <time>2016-08-12T17:47:29.000Z</time>
        <extensions>
          <ns3:TrackPointExtension>
            <ns3:atemp>20.0</ns3:atemp>
            <ns3:hr>142</ns3:hr>
          </ns3:TrackPointExtension>
        </extensions>
      </trkpt>
      <trkpt lat="-22.119298987090587615966796875" lon="166.4526576362550258636474609375">
        <ele>218</ele>
        <time>2016-08-12T17:47:30.000Z</time>
        <extensions>
          <ns3:TrackPointExtension>
            <ns3:atemp>20.0</ns3:atemp>
            <ns3:hr>142</ns3:hr>
          </ns3:TrackPointExtension>
        </extensions>
      </trkpt>
      <trkpt lat="-22.1192994900047779083251953125" lon="166.45267934538424015045166015625">
        <ele>218</ele>
        <time>2016-08-12T17:47:31.000Z</time>
        <extensions>
          <ns3:TrackPointExtension>
            <ns3:atemp>20.0</ns3:atemp>
            <ns3:hr>142</ns3:hr>
          </ns3:TrackPointExtension>
        </extensions>
      </trkpt>
      <trkpt lat="-22.11930359713733196258544921875" lon="166.45270298235118389129638671875">
        <ele>218.1999969482421875</ele>
        <time>2016-08-12T17:47:32.000Z</time>
        <extensions>
          <ns3:TrackPointExtension>
            <ns3:atemp>20.0</ns3:atemp>
            <ns3:hr>142</ns3:hr>
          </ns3:TrackPointExtension>
        </extensions>
      </trkpt>
      <trkpt lat="-22.11930938065052032470703125" lon="166.45272226072847843170166015625">
        <ele>218.600006103515625</ele>
        <time>2016-08-12T17:47:33.000Z</time>
        <extensions>
          <ns3:TrackPointExtension>
            <ns3:atemp>20.0</ns3:atemp>
            <ns3:hr>142</ns3:hr>
          </ns3:TrackPointExtension>
        </extensions>
      </trkpt>
      <trkpt lat="-22.11931482888758182525634765625" lon="166.45274220965802669525146484375">
        <ele>218.8000030517578125</ele>
        <time>2016-08-12T17:47:34.000Z</time>
        <extensions>
          <ns3:TrackPointExtension>
            <ns3:atemp>20.0</ns3:atemp>
            <ns3:hr>142</ns3:hr>
          </ns3:TrackPointExtension>
        </extensions>
      </trkpt>
      <trkpt lat="-22.11931767873466014862060546875" lon="166.4527635835111141204833984375">
        <ele>219</ele>
        <time>2016-08-12T17:47:35.000Z</time>
        <extensions>
          <ns3:TrackPointExtension>
            <ns3:atemp>20.0</ns3:atemp>
            <ns3:hr>142</ns3:hr>
          </ns3:TrackPointExtension>
        </extensions>
      </trkpt>
      <trkpt lat="-22.11931818164885044097900390625" lon="166.45278261043131351470947265625">
        <ele>219.399993896484375</ele>
        <time>2016-08-12T17:47:36.000Z</time>
        <extensions>
          <ns3:TrackPointExtension>
            <ns3:atemp>20.0</ns3:atemp>
            <ns3:hr>142</ns3:hr>
          </ns3:TrackPointExtension>
        </extensions>
      </trkpt>
      <trkpt lat="-22.1193189360201358795166015625" lon="166.45280322991311550140380859375">
        <ele>219.600006103515625</ele>
        <time>2016-08-12T17:47:37.000Z</time>
        <extensions>
          <ns3:TrackPointExtension>
            <ns3:atemp>20.0</ns3:atemp>
            <ns3:hr>142</ns3:hr>
          </ns3:TrackPointExtension>
        </extensions>
      </trkpt>
      <trkpt lat="-22.1193212829530239105224609375" lon="166.45282451994717121124267578125">
        <ele>219.600006103515625</ele>
        <time>2016-08-12T17:47:38.000Z</time>
        <extensions>
          <ns3:TrackPointExtension>
            <ns3:atemp>20.0</ns3:atemp>
            <ns3:hr>142</ns3:hr>
          </ns3:TrackPointExtension>
        </extensions>
      </trkpt>
      <trkpt lat="-22.119325138628482818603515625" lon="166.45284346304833889007568359375">
        <ele>220</ele>
        <time>2016-08-12T17:47:39.000Z</time>
        <extensions>
          <ns3:TrackPointExtension>
            <ns3:atemp>20.0</ns3:atemp>
            <ns3:hr>143</ns3:hr>
          </ns3:TrackPointExtension>
        </extensions>
      </trkpt>
      <trkpt lat="-22.11932706646621227264404296875" lon="166.4528634957969188690185546875">
        <ele>220.1999969482421875</ele>
        <time>2016-08-12T17:47:40.000Z</time>
        <extensions>
          <ns3:TrackPointExtension>
            <ns3:atemp>20.0</ns3:atemp>
            <ns3:hr>142</ns3:hr>
          </ns3:TrackPointExtension>
        </extensions>
      </trkpt>
      <trkpt lat="-22.11932907812297344207763671875" lon="166.45288671366870403289794921875">
        <ele>220.399993896484375</ele>
        <time>2016-08-12T17:47:41.000Z</time>
        <extensions>
          <ns3:TrackPointExtension>
            <ns3:atemp>20.0</ns3:atemp>
            <ns3:hr>143</ns3:hr>
          </ns3:TrackPointExtension>
        </extensions>
      </trkpt>
      <trkpt lat="-22.11933209560811519622802734375" lon="166.45290884189307689666748046875">
        <ele>220.8000030517578125</ele>
        <time>2016-08-12T17:47:42.000Z</time>
        <extensions>
          <ns3:TrackPointExtension>
            <ns3:atemp>20.0</ns3:atemp>
            <ns3:hr>143</ns3:hr>
          </ns3:TrackPointExtension>
        </extensions>
      </trkpt>
      <trkpt lat="-22.1193341910839080810546875" lon="166.4529322274029254913330078125">
        <ele>220.8000030517578125</ele>
        <time>2016-08-12T17:47:43.000Z</time>
        <extensions>
          <ns3:TrackPointExtension>
            <ns3:atemp>20.0</ns3:atemp>
            <ns3:hr>142</ns3:hr>
          </ns3:TrackPointExtension>
        </extensions>
      </trkpt>
      <trkpt lat="-22.11933695711195468902587890625" lon="166.45295326597988605499267578125">
        <ele>221</ele>
        <time>2016-08-12T17:47:44.000Z</time>
        <extensions>
          <ns3:TrackPointExtension>
            <ns3:atemp>20.0</ns3:atemp>
            <ns3:hr>143</ns3:hr>
          </ns3:TrackPointExtension>
        </extensions>
      </trkpt>
      <trkpt lat="-22.1193370409309864044189453125" lon="166.4529744721949100494384765625">
        <ele>221.1999969482421875</ele>
        <time>2016-08-12T17:47:45.000Z</time>
        <extensions>
          <ns3:TrackPointExtension>
            <ns3:atemp>20.0</ns3:atemp>
            <ns3:hr>143</ns3:hr>
          </ns3:TrackPointExtension>
        </extensions>
      </trkpt>
      <trkpt lat="-22.11933578364551067352294921875" lon="166.4529986120760440826416015625">
        <ele>221.1999969482421875</ele>
        <time>2016-08-12T17:47:46.000Z</time>
        <extensions>
          <ns3:TrackPointExtension>
            <ns3:atemp>20.0</ns3:atemp>
            <ns3:hr>143</ns3:hr>
          </ns3:TrackPointExtension>
        </extensions>
      </trkpt>
      <trkpt lat="-22.11934290826320648193359375" lon="166.453018225729465484619140625">
        <ele>221.399993896484375</ele>
        <time>2016-08-12T17:47:47.000Z</time>
        <extensions>
          <ns3:TrackPointExtension>
            <ns3:atemp>20.0</ns3:atemp>
            <ns3:hr>143</ns3:hr>
          </ns3:TrackPointExtension>
        </extensions>
      </trkpt>
      <trkpt lat="-22.11934919469058513641357421875" lon="166.45303926430642604827880859375">
        <ele>221.8000030517578125</ele>
        <time>2016-08-12T17:47:48.000Z</time>
        <extensions>
          <ns3:TrackPointExtension>
            <ns3:atemp>20.0</ns3:atemp>
            <ns3:hr>144</ns3:hr>
          </ns3:TrackPointExtension>
        </extensions>
      </trkpt>
      <trkpt lat="-22.119354307651519775390625" lon="166.45306273363530635833740234375">
        <ele>222</ele>
        <time>2016-08-12T17:47:49.000Z</time>
        <extensions>
          <ns3:TrackPointExtension>
            <ns3:atemp>20.0</ns3:atemp>
            <ns3:hr>144</ns3:hr>
          </ns3:TrackPointExtension>
        </extensions>
      </trkpt>
      <trkpt lat="-22.119359672069549560546875" lon="166.45308083854615688323974609375">
        <ele>222</ele>
        <time>2016-08-12T17:47:50.000Z</time>
        <extensions>
          <ns3:TrackPointExtension>
            <ns3:atemp>20.0</ns3:atemp>
            <ns3:hr>144</ns3:hr>
          </ns3:TrackPointExtension>
        </extensions>
      </trkpt>
      <trkpt lat="-22.1193648688495159149169921875" lon="166.45310078747570514678955078125">
        <ele>222.600006103515625</ele>
        <time>2016-08-12T17:47:51.000Z</time>
        <extensions>
          <ns3:TrackPointExtension>
            <ns3:atemp>20.0</ns3:atemp>
            <ns3:hr>144</ns3:hr>
          </ns3:TrackPointExtension>
        </extensions>
      </trkpt>
      <trkpt lat="-22.11937098763883113861083984375" lon="166.4531211555004119873046875">
        <ele>222.8000030517578125</ele>
        <time>2016-08-12T17:47:52.000Z</time>
        <extensions>
          <ns3:TrackPointExtension>
            <ns3:atemp>20.0</ns3:atemp>
            <ns3:hr>144</ns3:hr>
          </ns3:TrackPointExtension>
        </extensions>
      </trkpt>
      <trkpt lat="-22.1193789504468441009521484375" lon="166.4531357400119304656982421875">
        <ele>222.8000030517578125</ele>
        <time>2016-08-12T17:47:53.000Z</time>
        <extensions>
          <ns3:TrackPointExtension>
            <ns3:atemp>20.0</ns3:atemp>
            <ns3:hr>144</ns3:hr>
          </ns3:TrackPointExtension>
        </extensions>
      </trkpt>
      <trkpt lat="-22.11938674561679363250732421875" lon="166.45315510220825672149658203125">
        <ele>223.1999969482421875</ele>
        <time>2016-08-12T17:47:54.000Z</time>
        <extensions>
          <ns3:TrackPointExtension>
            <ns3:atemp>20.0</ns3:atemp>
            <ns3:hr>144</ns3:hr>
          </ns3:TrackPointExtension>
        </extensions>
      </trkpt>
      <trkpt lat="-22.11939194239675998687744140625" lon="166.45317438058555126190185546875">
        <ele>223.399993896484375</ele>
        <time>2016-08-12T17:47:55.000Z</time>
        <extensions>
          <ns3:TrackPointExtension>
            <ns3:atemp>20.0</ns3:atemp>
            <ns3:hr>144</ns3:hr>
          </ns3:TrackPointExtension>
        </extensions>
      </trkpt>
      <trkpt lat="-22.11939328350126743316650390625" lon="166.4531913958489894866943359375">
        <ele>223.600006103515625</ele>
        <time>2016-08-12T17:47:56.000Z</time>
        <extensions>
          <ns3:TrackPointExtension>
            <ns3:atemp>20.0</ns3:atemp>
            <ns3:hr>144</ns3:hr>
          </ns3:TrackPointExtension>
        </extensions>
      </trkpt>
      <trkpt lat="-22.119394876062870025634765625" lon="166.453209333121776580810546875">
        <ele>224</ele>
        <time>2016-08-12T17:47:57.000Z</time>
        <extensions>
          <ns3:TrackPointExtension>
            <ns3:atemp>20.0</ns3:atemp>
            <ns3:hr>144</ns3:hr>
          </ns3:TrackPointExtension>
        </extensions>
      </trkpt>
      <trkpt lat="-22.11939579807221889495849609375" lon="166.45322911441326141357421875">
        <ele>224.399993896484375</ele>
        <time>2016-08-12T17:47:58.000Z</time>
        <extensions>
          <ns3:TrackPointExtension>
            <ns3:atemp>20.0</ns3:atemp>
            <ns3:hr>144</ns3:hr>
          </ns3:TrackPointExtension>
        </extensions>
      </trkpt>
      <trkpt lat="-22.11939529515802860260009765625" lon="166.453244872391223907470703125">
        <ele>224.600006103515625</ele>
        <time>2016-08-12T17:47:59.000Z</time>
        <extensions>
          <ns3:TrackPointExtension>
            <ns3:atemp>20.0</ns3:atemp>
            <ns3:hr>145</ns3:hr>
          </ns3:TrackPointExtension>
        </extensions>
      </trkpt>
      <trkpt lat="-22.11938959546387195587158203125" lon="166.4532614685595035552978515625">
        <ele>224.8000030517578125</ele>
        <time>2016-08-12T17:48:00.000Z</time>
        <extensions>
          <ns3:TrackPointExtension>
            <ns3:atemp>20.0</ns3:atemp>
            <ns3:hr>144</ns3:hr>
          </ns3:TrackPointExtension>
        </extensions>
      </trkpt>
      <trkpt lat="-22.1193843148648738861083984375" lon="166.45327731035649776458740234375">
        <ele>225.399993896484375</ele>
        <time>2016-08-12T17:48:01.000Z</time>
        <extensions>
          <ns3:TrackPointExtension>
            <ns3:atemp>20.0</ns3:atemp>
            <ns3:hr>144</ns3:hr>
          </ns3:TrackPointExtension>
        </extensions>
      </trkpt>
      <trkpt lat="-22.11938314139842987060546875" lon="166.45328921265900135040283203125">
        <ele>225.600006103515625</ele>
        <time>2016-08-12T17:48:02.000Z</time>
        <extensions>
          <ns3:TrackPointExtension>
            <ns3:atemp>20.0</ns3:atemp>
            <ns3:hr>144</ns3:hr>
          </ns3:TrackPointExtension>
        </extensions>
      </trkpt>
      <trkpt lat="-22.1193792857229709625244140625" lon="166.45330228842794895172119140625">
        <ele>226.1999969482421875</ele>
        <time>2016-08-12T17:48:03.000Z</time>
        <extensions>
          <ns3:TrackPointExtension>
            <ns3:atemp>20.0</ns3:atemp>
            <ns3:hr>144</ns3:hr>
          </ns3:TrackPointExtension>
        </extensions>
      </trkpt>
      <trkpt lat="-22.1193715743720531463623046875" lon="166.45331838168203830718994140625">
        <ele>226.399993896484375</ele>
        <time>2016-08-12T17:48:04.000Z</time>
        <extensions>
          <ns3:TrackPointExtension>
            <ns3:atemp>20.0</ns3:atemp>
            <ns3:hr>144</ns3:hr>
          </ns3:TrackPointExtension>
        </extensions>
      </trkpt>
      <trkpt lat="-22.11936771869659423828125" lon="166.4533295296132564544677734375">
        <ele>226.399993896484375</ele>
        <time>2016-08-12T17:48:05.000Z</time>
        <extensions>
          <ns3:TrackPointExtension>
            <ns3:atemp>20.0</ns3:atemp>
            <ns3:hr>144</ns3:hr>
          </ns3:TrackPointExtension>
        </extensions>
      </trkpt>
      <trkpt lat="-22.119359336793422698974609375" lon="166.453341431915760040283203125">
        <ele>226.8000030517578125</ele>
        <time>2016-08-12T17:48:06.000Z</time>
        <extensions>
          <ns3:TrackPointExtension>
            <ns3:atemp>20.0</ns3:atemp>
            <ns3:hr>144</ns3:hr>
          </ns3:TrackPointExtension>
        </extensions>
      </trkpt>
      <trkpt lat="-22.1193497814238071441650390625" lon="166.45335559733211994171142578125">
        <ele>227</ele>
        <time>2016-08-12T17:48:07.000Z</time>
        <extensions>
          <ns3:TrackPointExtension>
            <ns3:atemp>20.0</ns3:atemp>
            <ns3:hr>144</ns3:hr>
          </ns3:TrackPointExtension>
        </extensions>
      </trkpt>
      <trkpt lat="-22.11934181861579418182373046875" lon="166.45336548797786235809326171875">
        <ele>227.1999969482421875</ele>
        <time>2016-08-12T17:48:08.000Z</time>
        <extensions>
          <ns3:TrackPointExtension>
            <ns3:atemp>20.0</ns3:atemp>
            <ns3:hr>144</ns3:hr>
          </ns3:TrackPointExtension>
        </extensions>
      </trkpt>
      <trkpt lat="-22.11933092214167118072509765625" lon="166.45337529480457305908203125">
        <ele>227.600006103515625</ele>
        <time>2016-08-12T17:48:09.000Z</time>
        <extensions>
          <ns3:TrackPointExtension>
            <ns3:atemp>20.0</ns3:atemp>
            <ns3:hr>145</ns3:hr>
          </ns3:TrackPointExtension>
        </extensions>
      </trkpt>
      <trkpt lat="-22.11931834928691387176513671875" lon="166.4533855207264423370361328125">
        <ele>227.8000030517578125</ele>
        <time>2016-08-12T17:48:10.000Z</time>
        <extensions>
          <ns3:TrackPointExtension>
            <ns3:atemp>20.0</ns3:atemp>
            <ns3:hr>145</ns3:hr>
          </ns3:TrackPointExtension>
        </extensions>
      </trkpt>
      <trkpt lat="-22.1193068660795688629150390625" lon="166.45339549519121646881103515625">
        <ele>228</ele>
        <time>2016-08-12T17:48:11.000Z</time>
        <extensions>
          <ns3:TrackPointExtension>
            <ns3:atemp>20.0</ns3:atemp>
            <ns3:hr>145</ns3:hr>
          </ns3:TrackPointExtension>
        </extensions>
      </trkpt>
      <trkpt lat="-22.1192944608628749847412109375" lon="166.45340748131275177001953125">
        <ele>228.399993896484375</ele>
        <time>2016-08-12T17:48:12.000Z</time>
        <extensions>
          <ns3:TrackPointExtension>
            <ns3:atemp>20.0</ns3:atemp>
            <ns3:hr>145</ns3:hr>
          </ns3:TrackPointExtension>
        </extensions>
      </trkpt>
      <trkpt lat="-22.11928079836070537567138671875" lon="166.45341678522527217864990234375">
        <ele>228.600006103515625</ele>
        <time>2016-08-12T17:48:13.000Z</time>
        <extensions>
          <ns3:TrackPointExtension>
            <ns3:atemp>20.0</ns3:atemp>
            <ns3:hr>145</ns3:hr>
          </ns3:TrackPointExtension>
        </extensions>
      </trkpt>
      <trkpt lat="-22.11926789022982120513916015625" lon="166.45342265255749225616455078125">
        <ele>228.8000030517578125</ele>
        <time>2016-08-12T17:48:14.000Z</time>
        <extensions>
          <ns3:TrackPointExtension>
            <ns3:atemp>20.0</ns3:atemp>
            <ns3:hr>145</ns3:hr>
          </ns3:TrackPointExtension>
        </extensions>
      </trkpt>
      <trkpt lat="-22.1192538924515247344970703125" lon="166.45343053154647350311279296875">
        <ele>229.1999969482421875</ele>
        <time>2016-08-12T17:48:15.000Z</time>
        <extensions>
          <ns3:TrackPointExtension>
            <ns3:atemp>20.0</ns3:atemp>
            <ns3:hr>145</ns3:hr>
          </ns3:TrackPointExtension>
        </extensions>
      </trkpt>
      <trkpt lat="-22.119240649044513702392578125" lon="166.453439332544803619384765625">
        <ele>229.399993896484375</ele>
        <time>2016-08-12T17:48:16.000Z</time>
        <extensions>
          <ns3:TrackPointExtension>
            <ns3:atemp>20.0</ns3:atemp>
            <ns3:hr>145</ns3:hr>
          </ns3:TrackPointExtension>
        </extensions>
      </trkpt>
      <trkpt lat="-22.11922623217105865478515625" lon="166.45344771444797515869140625">
        <ele>229.8000030517578125</ele>
        <time>2016-08-12T17:48:17.000Z</time>
        <extensions>
          <ns3:TrackPointExtension>
            <ns3:atemp>20.0</ns3:atemp>
            <ns3:hr>145</ns3:hr>
          </ns3:TrackPointExtension>
        </extensions>
      </trkpt>
      <trkpt lat="-22.11921139620244503021240234375" lon="166.45345441997051239013671875">
        <ele>230</ele>
        <time>2016-08-12T17:48:18.000Z</time>
        <extensions>
          <ns3:TrackPointExtension>
            <ns3:atemp>20.0</ns3:atemp>
            <ns3:hr>145</ns3:hr>
          </ns3:TrackPointExtension>
        </extensions>
      </trkpt>
      <trkpt lat="-22.11919697932898998260498046875" lon="166.453463472425937652587890625">
        <ele>230.1999969482421875</ele>
        <time>2016-08-12T17:48:19.000Z</time>
        <extensions>
          <ns3:TrackPointExtension>
            <ns3:atemp>20.0</ns3:atemp>
            <ns3:hr>145</ns3:hr>
          </ns3:TrackPointExtension>
        </extensions>
      </trkpt>
      <trkpt lat="-22.1191814728081226348876953125" lon="166.4534733630716800689697265625">
        <ele>230.600006103515625</ele>
        <time>2016-08-12T17:48:20.000Z</time>
        <extensions>
          <ns3:TrackPointExtension>
            <ns3:atemp>20.0</ns3:atemp>
            <ns3:hr>146</ns3:hr>
          </ns3:TrackPointExtension>
        </extensions>
      </trkpt>
      <trkpt lat="-22.1191677264869213104248046875" lon="166.4534810744225978851318359375">
        <ele>230.8000030517578125</ele>
        <time>2016-08-12T17:48:21.000Z</time>
        <extensions>
          <ns3:TrackPointExtension>
            <ns3:atemp>20.0</ns3:atemp>
            <ns3:hr>146</ns3:hr>
          </ns3:TrackPointExtension>
        </extensions>
      </trkpt>
      <trkpt lat="-22.11915389634668827056884765625" lon="166.45348769612610340118408203125">
        <ele>230.8000030517578125</ele>
        <time>2016-08-12T17:48:22.000Z</time>
        <extensions>
          <ns3:TrackPointExtension>
            <ns3:atemp>20.0</ns3:atemp>
            <ns3:hr>146</ns3:hr>
          </ns3:TrackPointExtension>
        </extensions>
      </trkpt>
      <trkpt lat="-22.11913797073066234588623046875" lon="166.45349440164864063262939453125">
        <ele>231.1999969482421875</ele>
        <time>2016-08-12T17:48:23.000Z</time>
        <extensions>
          <ns3:TrackPointExtension>
            <ns3:atemp>20.0</ns3:atemp>
            <ns3:hr>146</ns3:hr>
          </ns3:TrackPointExtension>
        </extensions>
      </trkpt>
      <trkpt lat="-22.1191187761723995208740234375" lon="166.45350010134279727935791015625">
        <ele>231.399993896484375</ele>
        <time>2016-08-12T17:48:24.000Z</time>
        <extensions>
          <ns3:TrackPointExtension>
            <ns3:atemp>20.0</ns3:atemp>
            <ns3:hr>147</ns3:hr>
          </ns3:TrackPointExtension>
        </extensions>
      </trkpt>
      <trkpt lat="-22.11910511367022991180419921875" lon="166.4535028673708438873291015625">
        <ele>231.399993896484375</ele>
        <time>2016-08-12T17:48:25.000Z</time>
        <extensions>
          <ns3:TrackPointExtension>
            <ns3:atemp>20.0</ns3:atemp>
            <ns3:hr>147</ns3:hr>
          </ns3:TrackPointExtension>
        </extensions>
      </trkpt>
      <trkpt lat="-22.11909119971096515655517578125" lon="166.453509740531444549560546875">
        <ele>231.8000030517578125</ele>
        <time>2016-08-12T17:48:26.000Z</time>
        <extensions>
          <ns3:TrackPointExtension>
            <ns3:atemp>20.0</ns3:atemp>
            <ns3:hr>147</ns3:hr>
          </ns3:TrackPointExtension>
        </extensions>
      </trkpt>
      <trkpt lat="-22.1190768666565418243408203125" lon="166.45351669751107692718505859375">
        <ele>231.8000030517578125</ele>
        <time>2016-08-12T17:48:27.000Z</time>
        <extensions>
          <ns3:TrackPointExtension>
            <ns3:atemp>20.0</ns3:atemp>
            <ns3:hr>147</ns3:hr>
          </ns3:TrackPointExtension>
        </extensions>
      </trkpt>
      <trkpt lat="-22.11906504817306995391845703125" lon="166.453525163233280181884765625">
        <ele>231.8000030517578125</ele>
        <time>2016-08-12T17:48:28.000Z</time>
        <extensions>
          <ns3:TrackPointExtension>
            <ns3:atemp>20.0</ns3:atemp>
            <ns3:hr>147</ns3:hr>
          </ns3:TrackPointExtension>
        </extensions>
      </trkpt>
      <trkpt lat="-22.11904895491898059844970703125" lon="166.4535357244312763214111328125">
        <ele>232.1999969482421875</ele>
        <time>2016-08-12T17:48:29.000Z</time>
        <extensions>
          <ns3:TrackPointExtension>
            <ns3:atemp>20.0</ns3:atemp>
            <ns3:hr>147</ns3:hr>
          </ns3:TrackPointExtension>
        </extensions>
      </trkpt>
      <trkpt lat="-22.1190302632749080657958984375" lon="166.4535503089427947998046875">
        <ele>232.399993896484375</ele>
        <time>2016-08-12T17:48:30.000Z</time>
        <extensions>
          <ns3:TrackPointExtension>
            <ns3:atemp>20.0</ns3:atemp>
            <ns3:hr>147</ns3:hr>
          </ns3:TrackPointExtension>
        </extensions>
      </trkpt>
      <trkpt lat="-22.1190171875059604644775390625" lon="166.45356480963528156280517578125">
        <ele>232.399993896484375</ele>
        <time>2016-08-12T17:48:31.000Z</time>
        <extensions>
          <ns3:TrackPointExtension>
            <ns3:atemp>20.0</ns3:atemp>
            <ns3:hr>148</ns3:hr>
          </ns3:TrackPointExtension>
        </extensions>
      </trkpt>
      <trkpt lat="-22.1190015971660614013671875" lon="166.4535806514322757720947265625">
        <ele>232.8000030517578125</ele>
        <time>2016-08-12T17:48:32.000Z</time>
        <extensions>
          <ns3:TrackPointExtension>
            <ns3:atemp>20.0</ns3:atemp>
            <ns3:hr>147</ns3:hr>
          </ns3:TrackPointExtension>
        </extensions>
      </trkpt>
      <trkpt lat="-22.1189863421022891998291015625" lon="166.45359716378152370452880859375">
        <ele>233</ele>
        <time>2016-08-12T17:48:33.000Z</time>
        <extensions>
          <ns3:TrackPointExtension>
            <ns3:atemp>20.0</ns3:atemp>
            <ns3:hr>147</ns3:hr>
          </ns3:TrackPointExtension>
        </extensions>
      </trkpt>
      <trkpt lat="-22.118975780904293060302734375" lon="166.45361141301691532135009765625">
        <ele>233</ele>
        <time>2016-08-12T17:48:34.000Z</time>
        <extensions>
          <ns3:TrackPointExtension>
            <ns3:atemp>20.0</ns3:atemp>
            <ns3:hr>148</ns3:hr>
          </ns3:TrackPointExtension>
        </extensions>
      </trkpt>
      <trkpt lat="-22.11896463297307491302490234375" lon="166.453627087175846099853515625">
        <ele>233.399993896484375</ele>
        <time>2016-08-12T17:48:35.000Z</time>
        <extensions>
          <ns3:TrackPointExtension>
            <ns3:atemp>20.0</ns3:atemp>
            <ns3:hr>148</ns3:hr>
          </ns3:TrackPointExtension>
        </extensions>
      </trkpt>
      <trkpt lat="-22.11895692162215709686279296875" lon="166.453647874295711517333984375">
        <ele>233.600006103515625</ele>
        <time>2016-08-12T17:48:36.000Z</time>
        <extensions>
          <ns3:TrackPointExtension>
            <ns3:atemp>20.0</ns3:atemp>
            <ns3:hr>148</ns3:hr>
          </ns3:TrackPointExtension>
        </extensions>
      </trkpt>
      <trkpt lat="-22.1189524792134761810302734375" lon="166.45366857759654521942138671875">
        <ele>233.8000030517578125</ele>
        <time>2016-08-12T17:48:37.000Z</time>
        <extensions>
          <ns3:TrackPointExtension>
            <ns3:atemp>20.0</ns3:atemp>
            <ns3:hr>147</ns3:hr>
          </ns3:TrackPointExtension>
        </extensions>
      </trkpt>
      <trkpt lat="-22.11894703097641468048095703125" lon="166.45369254983961582183837890625">
        <ele>234</ele>
        <time>2016-08-12T17:48:38.000Z</time>
        <extensions>
          <ns3:TrackPointExtension>
            <ns3:atemp>20.0</ns3:atemp>
            <ns3:hr>147</ns3:hr>
          </ns3:TrackPointExtension>
        </extensions>
      </trkpt>
      <trkpt lat="-22.118944264948368072509765625" lon="166.4537204615771770477294921875">
        <ele>234</ele>
        <time>2016-08-12T17:48:39.000Z</time>
        <extensions>
          <ns3:TrackPointExtension>
            <ns3:atemp>20.0</ns3:atemp>
            <ns3:hr>147</ns3:hr>
          </ns3:TrackPointExtension>
        </extensions>
      </trkpt>
      <trkpt lat="-22.1189452707767486572265625" lon="166.4537496306002140045166015625">
        <ele>234.1999969482421875</ele>
        <time>2016-08-12T17:48:40.000Z</time>
        <extensions>
          <ns3:TrackPointExtension>
            <ns3:atemp>20.0</ns3:atemp>
            <ns3:hr>148</ns3:hr>
          </ns3:TrackPointExtension>
        </extensions>
      </trkpt>
      <trkpt lat="-22.11894602514803409576416015625" lon="166.4537720941007137298583984375">
        <ele>234.1999969482421875</ele>
        <time>2016-08-12T17:48:41.000Z</time>
        <extensions>
          <ns3:TrackPointExtension>
            <ns3:atemp>20.0</ns3:atemp>
            <ns3:hr>147</ns3:hr>
          </ns3:TrackPointExtension>
        </extensions>
      </trkpt>
      <trkpt lat="-22.1189461089670658111572265625" lon="166.45379631780087947845458984375">
        <ele>234.399993896484375</ele>
        <time>2016-08-12T17:48:42.000Z</time>
        <extensions>
          <ns3:TrackPointExtension>
            <ns3:atemp>20.0</ns3:atemp>
            <ns3:hr>147</ns3:hr>
          </ns3:TrackPointExtension>
        </extensions>
      </trkpt>
      <trkpt lat="-22.11894233711063861846923828125" lon="166.453821547329425811767578125">
        <ele>234.600006103515625</ele>
        <time>2016-08-12T17:48:43.000Z</time>
        <extensions>
          <ns3:TrackPointExtension>
            <ns3:atemp>20.0</ns3:atemp>
            <ns3:hr>147</ns3:hr>
          </ns3:TrackPointExtension>
        </extensions>
      </trkpt>
      <trkpt lat="-22.11893789470195770263671875" lon="166.4538475312292575836181640625">
        <ele>235</ele>
        <time>2016-08-12T17:48:44.000Z</time>
        <extensions>
          <ns3:TrackPointExtension>
            <ns3:atemp>20.0</ns3:atemp>
            <ns3:hr>148</ns3:hr>
          </ns3:TrackPointExtension>
        </extensions>
      </trkpt>
      <trkpt lat="-22.11893496103584766387939453125" lon="166.45387393422424793243408203125">
        <ele>234.8000030517578125</ele>
        <time>2016-08-12T17:48:45.000Z</time>
        <extensions>
          <ns3:TrackPointExtension>
            <ns3:atemp>20.0</ns3:atemp>
            <ns3:hr>147</ns3:hr>
          </ns3:TrackPointExtension>
        </extensions>
      </trkpt>
      <trkpt lat="-22.118940912187099456787109375" lon="166.45394450984895229339599609375">
        <ele>235</ele>
        <time>2016-08-12T17:48:48.000Z</time>
        <extensions>
          <ns3:TrackPointExtension>
            <ns3:atemp>20.0</ns3:atemp>
            <ns3:hr>147</ns3:hr>
          </ns3:TrackPointExtension>
        </extensions>
      </trkpt>
      <trkpt lat="-22.11893915198743343353271484375" lon="166.45396647043526172637939453125">
        <ele>235</ele>
        <time>2016-08-12T17:48:49.000Z</time>
        <extensions>
          <ns3:TrackPointExtension>
            <ns3:atemp>20.0</ns3:atemp>
            <ns3:hr>147</ns3:hr>
          </ns3:TrackPointExtension>
        </extensions>
      </trkpt>
      <trkpt lat="-22.118934206664562225341796875" lon="166.45398960448801517486572265625">
        <ele>235</ele>
        <time>2016-08-12T17:48:50.000Z</time>
        <extensions>
          <ns3:TrackPointExtension>
            <ns3:atemp>20.0</ns3:atemp>
            <ns3:hr>147</ns3:hr>
          </ns3:TrackPointExtension>
        </extensions>
      </trkpt>
      <trkpt lat="-22.11892582476139068603515625" lon="166.454014666378498077392578125">
        <ele>235</ele>
        <time>2016-08-12T17:48:51.000Z</time>
        <extensions>
          <ns3:TrackPointExtension>
            <ns3:atemp>20.0</ns3:atemp>
            <ns3:hr>147</ns3:hr>
          </ns3:TrackPointExtension>
        </extensions>
      </trkpt>
      <trkpt lat="-22.118917442858219146728515625" lon="166.45404039882123470306396484375">
        <ele>235</ele>
        <time>2016-08-12T17:48:52.000Z</time>
        <extensions>
          <ns3:TrackPointExtension>
            <ns3:atemp>20.0</ns3:atemp>
            <ns3:hr>147</ns3:hr>
          </ns3:TrackPointExtension>
        </extensions>
      </trkpt>
      <trkpt lat="-22.11890813894569873809814453125" lon="166.4540668018162250518798828125">
        <ele>235</ele>
        <time>2016-08-12T17:48:53.000Z</time>
        <extensions>
          <ns3:TrackPointExtension>
            <ns3:atemp>20.0</ns3:atemp>
            <ns3:hr>147</ns3:hr>
          </ns3:TrackPointExtension>
        </extensions>
      </trkpt>
      <trkpt lat="-22.11890093050897121429443359375" lon="166.4540902711451053619384765625">
        <ele>235</ele>
        <time>2016-08-12T17:48:54.000Z</time>
        <extensions>
          <ns3:TrackPointExtension>
            <ns3:atemp>20.0</ns3:atemp>
            <ns3:hr>147</ns3:hr>
          </ns3:TrackPointExtension>
        </extensions>
      </trkpt>
      <trkpt lat="-22.1188944764435291290283203125" lon="166.45411013625562191009521484375">
        <ele>235</ele>
        <time>2016-08-12T17:48:55.000Z</time>
        <extensions>
          <ns3:TrackPointExtension>
            <ns3:atemp>20.0</ns3:atemp>
            <ns3:hr>147</ns3:hr>
          </ns3:TrackPointExtension>
        </extensions>
      </trkpt>
      <trkpt lat="-22.11888768710196018218994140625" lon="166.45412941463291645050048828125">
        <ele>235</ele>
        <time>2016-08-12T17:48:56.000Z</time>
        <extensions>
          <ns3:TrackPointExtension>
            <ns3:atemp>20.0</ns3:atemp>
            <ns3:hr>146</ns3:hr>
          </ns3:TrackPointExtension>
        </extensions>
      </trkpt>
      <trkpt lat="-22.11887964047491550445556640625" lon="166.4541486091911792755126953125">
        <ele>235</ele>
        <time>2016-08-12T17:48:57.000Z</time>
        <extensions>
          <ns3:TrackPointExtension>
            <ns3:atemp>20.0</ns3:atemp>
            <ns3:hr>146</ns3:hr>
          </ns3:TrackPointExtension>
        </extensions>
      </trkpt>
      <trkpt lat="-22.118871510028839111328125" lon="166.45416981540620326995849609375">
        <ele>234.8000030517578125</ele>
        <time>2016-08-12T17:48:58.000Z</time>
        <extensions>
          <ns3:TrackPointExtension>
            <ns3:atemp>20.0</ns3:atemp>
            <ns3:hr>146</ns3:hr>
          </ns3:TrackPointExtension>
        </extensions>
      </trkpt>
      <trkpt lat="-22.11886522360146045684814453125" lon="166.45419496111571788787841796875">
        <ele>235.1999969482421875</ele>
        <time>2016-08-12T17:48:59.000Z</time>
        <extensions>
          <ns3:TrackPointExtension>
            <ns3:atemp>20.0</ns3:atemp>
            <ns3:hr>146</ns3:hr>
          </ns3:TrackPointExtension>
        </extensions>
      </trkpt>
      <trkpt lat="-22.11885818280279636383056640625" lon="166.45421993918716907501220703125">
        <ele>235.1999969482421875</ele>
        <time>2016-08-12T17:49:00.000Z</time>
        <extensions>
          <ns3:TrackPointExtension>
            <ns3:atemp>20.0</ns3:atemp>
            <ns3:hr>145</ns3:hr>
          </ns3:TrackPointExtension>
        </extensions>
      </trkpt>
      <trkpt lat="-22.1188529022037982940673828125" lon="166.4542438276112079620361328125">
        <ele>235.1999969482421875</ele>
        <time>2016-08-12T17:49:01.000Z</time>
        <extensions>
          <ns3:TrackPointExtension>
            <ns3:atemp>20.0</ns3:atemp>
            <ns3:hr>145</ns3:hr>
          </ns3:TrackPointExtension>
        </extensions>
      </trkpt>
      <trkpt lat="-22.11885198019444942474365234375" lon="166.4542626030743122100830078125">
        <ele>235.399993896484375</ele>
        <time>2016-08-12T17:49:02.000Z</time>
        <extensions>
          <ns3:TrackPointExtension>
            <ns3:atemp>19.0</ns3:atemp>
            <ns3:hr>145</ns3:hr>
          </ns3:TrackPointExtension>
        </extensions>
      </trkpt>
      <trkpt lat="-22.1188492141664028167724609375" lon="166.4542827196419239044189453125">
        <ele>235.600006103515625</ele>
        <time>2016-08-12T17:49:03.000Z</time>
        <extensions>
          <ns3:TrackPointExtension>
            <ns3:atemp>19.0</ns3:atemp>
            <ns3:hr>144</ns3:hr>
          </ns3:TrackPointExtension>
        </extensions>
      </trkpt>
      <trkpt lat="-22.11884544230997562408447265625" lon="166.45430895499885082244873046875">
        <ele>235.8000030517578125</ele>
        <time>2016-08-12T17:49:04.000Z</time>
        <extensions>
          <ns3:TrackPointExtension>
            <ns3:atemp>19.0</ns3:atemp>
            <ns3:hr>144</ns3:hr>
          </ns3:TrackPointExtension>
        </extensions>
      </trkpt>
      <trkpt lat="-22.11884192191064357757568359375" lon="166.4543346874415874481201171875">
        <ele>235.8000030517578125</ele>
        <time>2016-08-12T17:49:05.000Z</time>
        <extensions>
          <ns3:TrackPointExtension>
            <ns3:atemp>19.0</ns3:atemp>
            <ns3:hr>144</ns3:hr>
          </ns3:TrackPointExtension>
        </extensions>
      </trkpt>
      <trkpt lat="-22.11883991025388240814208984375" lon="166.4543561451137065887451171875">
        <ele>235.600006103515625</ele>
        <time>2016-08-12T17:49:06.000Z</time>
        <extensions>
          <ns3:TrackPointExtension>
            <ns3:atemp>19.0</ns3:atemp>
            <ns3:hr>143</ns3:hr>
          </ns3:TrackPointExtension>
        </extensions>
      </trkpt>
      <trkpt lat="-22.118833959102630615234375" lon="166.4543782733380794525146484375">
        <ele>236</ele>
        <time>2016-08-12T17:49:07.000Z</time>
        <extensions>
          <ns3:TrackPointExtension>
            <ns3:atemp>19.0</ns3:atemp>
            <ns3:hr>143</ns3:hr>
          </ns3:TrackPointExtension>
        </extensions>
      </trkpt>
      <trkpt lat="-22.118827588856220245361328125" lon="166.45439931191504001617431640625">
        <ele>235.8000030517578125</ele>
        <time>2016-08-12T17:49:08.000Z</time>
        <extensions>
          <ns3:TrackPointExtension>
            <ns3:atemp>19.0</ns3:atemp>
            <ns3:hr>143</ns3:hr>
          </ns3:TrackPointExtension>
        </extensions>
      </trkpt>
      <trkpt lat="-22.11882255971431732177734375" lon="166.4544215239584445953369140625">
        <ele>235.8000030517578125</ele>
        <time>2016-08-12T17:49:09.000Z</time>
        <extensions>
          <ns3:TrackPointExtension>
            <ns3:atemp>19.0</ns3:atemp>
            <ns3:hr>142</ns3:hr>
          </ns3:TrackPointExtension>
        </extensions>
      </trkpt>
      <trkpt lat="-22.11881778202950954437255859375" lon="166.45444675348699092864990234375">
        <ele>236</ele>
        <time>2016-08-12T17:49:10.000Z</time>
        <extensions>
          <ns3:TrackPointExtension>
            <ns3:atemp>19.0</ns3:atemp>
            <ns3:hr>142</ns3:hr>
          </ns3:TrackPointExtension>
        </extensions>
      </trkpt>
      <trkpt lat="-22.11881543509662151336669921875" lon="166.45446854643523693084716796875">
        <ele>236.1999969482421875</ele>
        <time>2016-08-12T17:49:11.000Z</time>
        <extensions>
          <ns3:TrackPointExtension>
            <ns3:atemp>19.0</ns3:atemp>
            <ns3:hr>142</ns3:hr>
          </ns3:TrackPointExtension>
        </extensions>
      </trkpt>
      <trkpt lat="-22.11881090886890888214111328125" lon="166.45449251867830753326416015625">
        <ele>236.1999969482421875</ele>
        <time>2016-08-12T17:49:12.000Z</time>
        <extensions>
          <ns3:TrackPointExtension>
            <ns3:atemp>19.0</ns3:atemp>
            <ns3:hr>142</ns3:hr>
          </ns3:TrackPointExtension>
        </extensions>
      </trkpt>
      <trkpt lat="-22.1188096515834331512451171875" lon="166.45451665855944156646728515625">
        <ele>236.600006103515625</ele>
        <time>2016-08-12T17:49:13.000Z</time>
        <extensions>
          <ns3:TrackPointExtension>
            <ns3:atemp>19.0</ns3:atemp>
            <ns3:hr>142</ns3:hr>
          </ns3:TrackPointExtension>
        </extensions>
      </trkpt>
      <trkpt lat="-22.1188057959079742431640625" lon="166.4545395411550998687744140625">
        <ele>236.600006103515625</ele>
        <time>2016-08-12T17:49:14.000Z</time>
        <extensions>
          <ns3:TrackPointExtension>
            <ns3:atemp>19.0</ns3:atemp>
            <ns3:hr>142</ns3:hr>
          </ns3:TrackPointExtension>
        </extensions>
      </trkpt>
      <trkpt lat="-22.1188026107847690582275390625" lon="166.45456485450267791748046875">
        <ele>236.600006103515625</ele>
        <time>2016-08-12T17:49:15.000Z</time>
        <extensions>
          <ns3:TrackPointExtension>
            <ns3:atemp>19.0</ns3:atemp>
            <ns3:hr>141</ns3:hr>
          </ns3:TrackPointExtension>
        </extensions>
      </trkpt>
      <trkpt lat="-22.11879867129027843475341796875" lon="166.45459025166928768157958984375">
        <ele>236.8000030517578125</ele>
        <time>2016-08-12T17:49:16.000Z</time>
        <extensions>
          <ns3:TrackPointExtension>
            <ns3:atemp>19.0</ns3:atemp>
            <ns3:hr>141</ns3:hr>
          </ns3:TrackPointExtension>
        </extensions>
      </trkpt>
      <trkpt lat="-22.11879414506256580352783203125" lon="166.454613469541072845458984375">
        <ele>237</ele>
        <time>2016-08-12T17:49:17.000Z</time>
        <extensions>
          <ns3:TrackPointExtension>
            <ns3:atemp>19.0</ns3:atemp>
            <ns3:hr>140</ns3:hr>
          </ns3:TrackPointExtension>
        </extensions>
      </trkpt>
      <trkpt lat="-22.11878894828259944915771484375" lon="166.4546394534409046173095703125">
        <ele>236.8000030517578125</ele>
        <time>2016-08-12T17:49:18.000Z</time>
        <extensions>
          <ns3:TrackPointExtension>
            <ns3:atemp>19.0</ns3:atemp>
            <ns3:hr>140</ns3:hr>
          </ns3:TrackPointExtension>
        </extensions>
      </trkpt>
      <trkpt lat="-22.11878710426390171051025390625" lon="166.4546625874936580657958984375">
        <ele>236.8000030517578125</ele>
        <time>2016-08-12T17:49:19.000Z</time>
        <extensions>
          <ns3:TrackPointExtension>
            <ns3:atemp>19.0</ns3:atemp>
            <ns3:hr>140</ns3:hr>
          </ns3:TrackPointExtension>
        </extensions>
      </trkpt>
      <trkpt lat="-22.11878769099712371826171875" lon="166.4546830393373966217041015625">
        <ele>237</ele>
        <time>2016-08-12T17:49:20.000Z</time>
        <extensions>
          <ns3:TrackPointExtension>
            <ns3:atemp>19.0</ns3:atemp>
            <ns3:hr>140</ns3:hr>
          </ns3:TrackPointExtension>
        </extensions>
      </trkpt>
      <trkpt lat="-22.11878760717809200286865234375" lon="166.4547063410282135009765625">
        <ele>237.1999969482421875</ele>
        <time>2016-08-12T17:49:21.000Z</time>
        <extensions>
          <ns3:TrackPointExtension>
            <ns3:atemp>19.0</ns3:atemp>
            <ns3:hr>139</ns3:hr>
          </ns3:TrackPointExtension>
        </extensions>
      </trkpt>
      <trkpt lat="-22.11878291331231594085693359375" lon="166.45472981035709381103515625">
        <ele>237.1999969482421875</ele>
        <time>2016-08-12T17:49:22.000Z</time>
        <extensions>
          <ns3:TrackPointExtension>
            <ns3:atemp>19.0</ns3:atemp>
            <ns3:hr>139</ns3:hr>
          </ns3:TrackPointExtension>
        </extensions>
      </trkpt>
      <trkpt lat="-22.118781320750713348388671875" lon="166.45475336350500583648681640625">
        <ele>237.399993896484375</ele>
        <time>2016-08-12T17:49:23.000Z</time>
        <extensions>
          <ns3:TrackPointExtension>
            <ns3:atemp>19.0</ns3:atemp>
            <ns3:hr>139</ns3:hr>
          </ns3:TrackPointExtension>
        </extensions>
      </trkpt>
      <trkpt lat="-22.1187767945230007171630859375" lon="166.45477850921452045440673828125">
        <ele>237.600006103515625</ele>
        <time>2016-08-12T17:49:24.000Z</time>
        <extensions>
          <ns3:TrackPointExtension>
            <ns3:atemp>19.0</ns3:atemp>
            <ns3:hr>139</ns3:hr>
          </ns3:TrackPointExtension>
        </extensions>
      </trkpt>
      <trkpt lat="-22.11877117864787578582763671875" lon="166.45480164326727390289306640625">
        <ele>237.600006103515625</ele>
        <time>2016-08-12T17:49:25.000Z</time>
        <extensions>
          <ns3:TrackPointExtension>
            <ns3:atemp>19.0</ns3:atemp>
            <ns3:hr>138</ns3:hr>
          </ns3:TrackPointExtension>
        </extensions>
      </trkpt>
      <trkpt lat="-22.11876564659178256988525390625" lon="166.45482511259615421295166015625">
        <ele>237.8000030517578125</ele>
        <time>2016-08-12T17:49:26.000Z</time>
        <extensions>
          <ns3:TrackPointExtension>
            <ns3:atemp>19.0</ns3:atemp>
            <ns3:hr>138</ns3:hr>
          </ns3:TrackPointExtension>
        </extensions>
      </trkpt>
      <trkpt lat="-22.11876128800213336944580078125" lon="166.4548459835350513458251953125">
        <ele>238</ele>
        <time>2016-08-12T17:49:27.000Z</time>
        <extensions>
          <ns3:TrackPointExtension>
            <ns3:atemp>19.0</ns3:atemp>
            <ns3:hr>137</ns3:hr>
          </ns3:TrackPointExtension>
        </extensions>
      </trkpt>
      <trkpt lat="-22.11875592358410358428955078125" lon="166.45486467517912387847900390625">
        <ele>238</ele>
        <time>2016-08-12T17:49:28.000Z</time>
        <extensions>
          <ns3:TrackPointExtension>
            <ns3:atemp>19.0</ns3:atemp>
            <ns3:hr>137</ns3:hr>
          </ns3:TrackPointExtension>
        </extensions>
      </trkpt>
      <trkpt lat="-22.11875072680413722991943359375" lon="166.4548858813941478729248046875">
        <ele>238.1999969482421875</ele>
        <time>2016-08-12T17:49:29.000Z</time>
        <extensions>
          <ns3:TrackPointExtension>
            <ns3:atemp>19.0</ns3:atemp>
            <ns3:hr>137</ns3:hr>
          </ns3:TrackPointExtension>
        </extensions>
      </trkpt>
      <trkpt lat="-22.11874603293836116790771484375" lon="166.45490909926593303680419921875">
        <ele>238.1999969482421875</ele>
        <time>2016-08-12T17:49:30.000Z</time>
        <extensions>
          <ns3:TrackPointExtension>
            <ns3:atemp>19.0</ns3:atemp>
            <ns3:hr>136</ns3:hr>
          </ns3:TrackPointExtension>
        </extensions>
      </trkpt>
      <trkpt lat="-22.11874544620513916015625" lon="166.45492804236710071563720703125">
        <ele>238.1999969482421875</ele>
        <time>2016-08-12T17:49:31.000Z</time>
        <extensions>
          <ns3:TrackPointExtension>
            <ns3:atemp>19.0</ns3:atemp>
            <ns3:hr>136</ns3:hr>
          </ns3:TrackPointExtension>
        </extensions>
      </trkpt>
      <trkpt lat="-22.11874167434871196746826171875" lon="166.45494849421083927154541015625">
        <ele>238.399993896484375</ele>
        <time>2016-08-12T17:49:32.000Z</time>
        <extensions>
          <ns3:TrackPointExtension>
            <ns3:atemp>19.0</ns3:atemp>
            <ns3:hr>137</ns3:hr>
          </ns3:TrackPointExtension>
        </extensions>
      </trkpt>
      <trkpt lat="-22.11873404681682586669921875" lon="166.454970873892307281494140625">
        <ele>238.399993896484375</ele>
        <time>2016-08-12T17:49:33.000Z</time>
        <extensions>
          <ns3:TrackPointExtension>
            <ns3:atemp>19.0</ns3:atemp>
            <ns3:hr>136</ns3:hr>
          </ns3:TrackPointExtension>
        </extensions>
      </trkpt>
      <trkpt lat="-22.11872943677008152008056640625" lon="166.4549908228218555450439453125">
        <ele>238.600006103515625</ele>
        <time>2016-08-12T17:49:34.000Z</time>
        <extensions>
          <ns3:TrackPointExtension>
            <ns3:atemp>19.0</ns3:atemp>
            <ns3:hr>136</ns3:hr>
          </ns3:TrackPointExtension>
        </extensions>
      </trkpt>
      <trkpt lat="-22.11872273124754428863525390625" lon="166.45501487888395786285400390625">
        <ele>238.600006103515625</ele>
        <time>2016-08-12T17:49:35.000Z</time>
        <extensions>
          <ns3:TrackPointExtension>
            <ns3:atemp>19.0</ns3:atemp>
            <ns3:hr>136</ns3:hr>
          </ns3:TrackPointExtension>
        </extensions>
      </trkpt>
      <trkpt lat="-22.11871820501983165740966796875" lon="166.4550421200692653656005859375">
        <ele>238.8000030517578125</ele>
        <time>2016-08-12T17:49:36.000Z</time>
        <extensions>
          <ns3:TrackPointExtension>
            <ns3:atemp>19.0</ns3:atemp>
            <ns3:hr>135</ns3:hr>
          </ns3:TrackPointExtension>
        </extensions>
      </trkpt>
      <trkpt lat="-22.11871636100113391876220703125" lon="166.45506600849330425262451171875">
        <ele>238.8000030517578125</ele>
        <time>2016-08-12T17:49:37.000Z</time>
        <extensions>
          <ns3:TrackPointExtension>
            <ns3:atemp>19.0</ns3:atemp>
            <ns3:hr>135</ns3:hr>
          </ns3:TrackPointExtension>
        </extensions>
      </trkpt>
      <trkpt lat="-22.11871434934437274932861328125" lon="166.45508796907961368560791015625">
        <ele>239</ele>
        <time>2016-08-12T17:49:38.000Z</time>
        <extensions>
          <ns3:TrackPointExtension>
            <ns3:atemp>19.0</ns3:atemp>
            <ns3:hr>135</ns3:hr>
          </ns3:TrackPointExtension>
        </extensions>
      </trkpt>
      <trkpt lat="-22.11871393024921417236328125" lon="166.45510892383754253387451171875">
        <ele>239</ele>
        <time>2016-08-12T17:49:39.000Z</time>
        <extensions>
          <ns3:TrackPointExtension>
            <ns3:atemp>19.0</ns3:atemp>
            <ns3:hr>135</ns3:hr>
          </ns3:TrackPointExtension>
        </extensions>
      </trkpt>
      <trkpt lat="-22.1187157742679119110107421875" lon="166.45512811839580535888671875">
        <ele>239.1999969482421875</ele>
        <time>2016-08-12T17:49:40.000Z</time>
        <extensions>
          <ns3:TrackPointExtension>
            <ns3:atemp>19.0</ns3:atemp>
            <ns3:hr>135</ns3:hr>
          </ns3:TrackPointExtension>
        </extensions>
      </trkpt>
      <trkpt lat="-22.11871418170630931854248046875" lon="166.4551524259150028228759765625">
        <ele>239.399993896484375</ele>
        <time>2016-08-12T17:49:41.000Z</time>
        <extensions>
          <ns3:TrackPointExtension>
            <ns3:atemp>19.0</ns3:atemp>
            <ns3:hr>135</ns3:hr>
          </ns3:TrackPointExtension>
        </extensions>
      </trkpt>
      <trkpt lat="-22.11871258914470672607421875" lon="166.45517698489129543304443359375">
        <ele>239.600006103515625</ele>
        <time>2016-08-12T17:49:42.000Z</time>
        <extensions>
          <ns3:TrackPointExtension>
            <ns3:atemp>19.0</ns3:atemp>
            <ns3:hr>135</ns3:hr>
          </ns3:TrackPointExtension>
        </extensions>
      </trkpt>
      <trkpt lat="-22.11870831437408924102783203125" lon="166.45519777201116085052490234375">
        <ele>239.8000030517578125</ele>
        <time>2016-08-12T17:49:43.000Z</time>
        <extensions>
          <ns3:TrackPointExtension>
            <ns3:atemp>19.0</ns3:atemp>
            <ns3:hr>135</ns3:hr>
          </ns3:TrackPointExtension>
        </extensions>
      </trkpt>
      <trkpt lat="-22.11871300823986530303955078125" lon="166.45521797239780426025390625">
        <ele>239.8000030517578125</ele>
        <time>2016-08-12T17:49:44.000Z</time>
        <extensions>
          <ns3:TrackPointExtension>
            <ns3:atemp>19.0</ns3:atemp>
            <ns3:hr>135</ns3:hr>
          </ns3:TrackPointExtension>
        </extensions>
      </trkpt>
      <trkpt lat="-22.1187100745737552642822265625" lon="166.45523808896541595458984375">
        <ele>240</ele>
        <time>2016-08-12T17:49:45.000Z</time>
        <extensions>
          <ns3:TrackPointExtension>
            <ns3:atemp>19.0</ns3:atemp>
            <ns3:hr>135</ns3:hr>
          </ns3:TrackPointExtension>
        </extensions>
      </trkpt>
      <trkpt lat="-22.11870680563151836395263671875" lon="166.4552593789994716644287109375">
        <ele>240.1999969482421875</ele>
        <time>2016-08-12T17:49:46.000Z</time>
        <extensions>
          <ns3:TrackPointExtension>
            <ns3:atemp>19.0</ns3:atemp>
            <ns3:hr>135</ns3:hr>
          </ns3:TrackPointExtension>
        </extensions>
      </trkpt>
      <trkpt lat="-22.11870010010898113250732421875" lon="166.45528444088995456695556640625">
        <ele>240.1999969482421875</ele>
        <time>2016-08-12T17:49:47.000Z</time>
        <extensions>
          <ns3:TrackPointExtension>
            <ns3:atemp>19.0</ns3:atemp>
            <ns3:hr>135</ns3:hr>
          </ns3:TrackPointExtension>
        </extensions>
      </trkpt>
      <trkpt lat="-22.11869590915739536285400390625" lon="166.45530941896140575408935546875">
        <ele>240.399993896484375</ele>
        <time>2016-08-12T17:49:48.000Z</time>
        <extensions>
          <ns3:TrackPointExtension>
            <ns3:atemp>19.0</ns3:atemp>
            <ns3:hr>135</ns3:hr>
          </ns3:TrackPointExtension>
        </extensions>
      </trkpt>
      <trkpt lat="-22.11869993247091770172119140625" lon="166.45533037371933460235595703125">
        <ele>240.600006103515625</ele>
        <time>2016-08-12T17:49:49.000Z</time>
        <extensions>
          <ns3:TrackPointExtension>
            <ns3:atemp>19.0</ns3:atemp>
            <ns3:hr>135</ns3:hr>
          </ns3:TrackPointExtension>
        </extensions>
      </trkpt>
      <trkpt lat="-22.1187063865363597869873046875" lon="166.45535317249596118927001953125">
        <ele>240.600006103515625</ele>
        <time>2016-08-12T17:49:50.000Z</time>
        <extensions>
          <ns3:TrackPointExtension>
            <ns3:atemp>19.0</ns3:atemp>
            <ns3:hr>135</ns3:hr>
          </ns3:TrackPointExtension>
        </extensions>
      </trkpt>
      <trkpt lat="-22.118714265525341033935546875" lon="166.45537580363452434539794921875">
        <ele>240.600006103515625</ele>
        <time>2016-08-12T17:49:51.000Z</time>
        <extensions>
          <ns3:TrackPointExtension>
            <ns3:atemp>19.0</ns3:atemp>
            <ns3:hr>135</ns3:hr>
          </ns3:TrackPointExtension>
        </extensions>
      </trkpt>
      <trkpt lat="-22.11871971376240253448486328125" lon="166.45539499819278717041015625">
        <ele>240.8000030517578125</ele>
        <time>2016-08-12T17:49:52.000Z</time>
        <extensions>
          <ns3:TrackPointExtension>
            <ns3:atemp>19.0</ns3:atemp>
            <ns3:hr>135</ns3:hr>
          </ns3:TrackPointExtension>
        </extensions>
      </trkpt>
      <trkpt lat="-22.11871904321014881134033203125" lon="166.45541922189295291900634765625">
        <ele>241</ele>
        <time>2016-08-12T17:49:53.000Z</time>
        <extensions>
          <ns3:TrackPointExtension>
            <ns3:atemp>19.0</ns3:atemp>
            <ns3:hr>135</ns3:hr>
          </ns3:TrackPointExtension>
        </extensions>
      </trkpt>
      <trkpt lat="-22.11872088722884654998779296875" lon="166.4554441161453723907470703125">
        <ele>241.1999969482421875</ele>
        <time>2016-08-12T17:49:54.000Z</time>
        <extensions>
          <ns3:TrackPointExtension>
            <ns3:atemp>19.0</ns3:atemp>
            <ns3:hr>135</ns3:hr>
          </ns3:TrackPointExtension>
        </extensions>
      </trkpt>
      <trkpt lat="-22.118725664913654327392578125" lon="166.45546867512166500091552734375">
        <ele>241.399993896484375</ele>
        <time>2016-08-12T17:49:55.000Z</time>
        <extensions>
          <ns3:TrackPointExtension>
            <ns3:atemp>19.0</ns3:atemp>
            <ns3:hr>136</ns3:hr>
          </ns3:TrackPointExtension>
        </extensions>
      </trkpt>
      <trkpt lat="-22.11873698048293590545654296875" lon="166.455492563545703887939453125">
        <ele>241.600006103515625</ele>
        <time>2016-08-12T17:49:56.000Z</time>
        <extensions>
          <ns3:TrackPointExtension>
            <ns3:atemp>19.0</ns3:atemp>
            <ns3:hr>136</ns3:hr>
          </ns3:TrackPointExtension>
        </extensions>
      </trkpt>
      <trkpt lat="-22.11874611675739288330078125" lon="166.4555163681507110595703125">
        <ele>241.8000030517578125</ele>
        <time>2016-08-12T17:49:57.000Z</time>
        <extensions>
          <ns3:TrackPointExtension>
            <ns3:atemp>19.0</ns3:atemp>
            <ns3:hr>136</ns3:hr>
          </ns3:TrackPointExtension>
        </extensions>
      </trkpt>
      <trkpt lat="-22.118754498660564422607421875" lon="166.455539166927337646484375">
        <ele>242.1999969482421875</ele>
        <time>2016-08-12T17:49:58.000Z</time>
        <extensions>
          <ns3:TrackPointExtension>
            <ns3:atemp>19.0</ns3:atemp>
            <ns3:hr>136</ns3:hr>
          </ns3:TrackPointExtension>
        </extensions>
      </trkpt>
      <trkpt lat="-22.11876531131565570831298828125" lon="166.45556204952299594879150390625">
        <ele>242.1999969482421875</ele>
        <time>2016-08-12T17:49:59.000Z</time>
        <extensions>
          <ns3:TrackPointExtension>
            <ns3:atemp>19.0</ns3:atemp>
            <ns3:hr>137</ns3:hr>
          </ns3:TrackPointExtension>
        </extensions>
      </trkpt>
      <trkpt lat="-22.1187727712094783782958984375" lon="166.4555809088051319122314453125">
        <ele>242.1999969482421875</ele>
        <time>2016-08-12T17:50:00.000Z</time>
        <extensions>
          <ns3:TrackPointExtension>
            <ns3:atemp>19.0</ns3:atemp>
            <ns3:hr>137</ns3:hr>
          </ns3:TrackPointExtension>
        </extensions>
      </trkpt>
      <trkpt lat="-22.1187737770378589630126953125" lon="166.4556063897907733917236328125">
        <ele>242.399993896484375</ele>
        <time>2016-08-12T17:50:01.000Z</time>
        <extensions>
          <ns3:TrackPointExtension>
            <ns3:atemp>19.0</ns3:atemp>
            <ns3:hr>137</ns3:hr>
          </ns3:TrackPointExtension>
        </extensions>
      </trkpt>
      <trkpt lat="-22.1187788061797618865966796875" lon="166.45563497208058834075927734375">
        <ele>242.600006103515625</ele>
        <time>2016-08-12T17:50:02.000Z</time>
        <extensions>
          <ns3:TrackPointExtension>
            <ns3:atemp>19.0</ns3:atemp>
            <ns3:hr>137</ns3:hr>
          </ns3:TrackPointExtension>
        </extensions>
      </trkpt>
      <trkpt lat="-22.11878173984587192535400390625" lon="166.45565919578075408935546875">
        <ele>242.8000030517578125</ele>
        <time>2016-08-12T17:50:03.000Z</time>
        <extensions>
          <ns3:TrackPointExtension>
            <ns3:atemp>19.0</ns3:atemp>
            <ns3:hr>137</ns3:hr>
          </ns3:TrackPointExtension>
        </extensions>
      </trkpt>
      <trkpt lat="-22.1187928877770900726318359375" lon="166.45568065345287322998046875">
        <ele>243</ele>
        <time>2016-08-12T17:50:04.000Z</time>
        <extensions>
          <ns3:TrackPointExtension>
            <ns3:atemp>19.0</ns3:atemp>
            <ns3:hr>137</ns3:hr>
          </ns3:TrackPointExtension>
        </extensions>
      </trkpt>
      <trkpt lat="-22.11881090886890888214111328125" lon="166.45570236258208751678466796875">
        <ele>243</ele>
        <time>2016-08-12T17:50:05.000Z</time>
        <extensions>
          <ns3:TrackPointExtension>
            <ns3:atemp>19.0</ns3:atemp>
            <ns3:hr>137</ns3:hr>
          </ns3:TrackPointExtension>
        </extensions>
      </trkpt>
      <trkpt lat="-22.11882431991398334503173828125" lon="166.45572331734001636505126953125">
        <ele>243.1999969482421875</ele>
        <time>2016-08-12T17:50:06.000Z</time>
        <extensions>
          <ns3:TrackPointExtension>
            <ns3:atemp>19.0</ns3:atemp>
            <ns3:hr>137</ns3:hr>
          </ns3:TrackPointExtension>
        </extensions>
      </trkpt>
      <trkpt lat="-22.11884108372032642364501953125" lon="166.45574293099343776702880859375">
        <ele>243.399993896484375</ele>
        <time>2016-08-12T17:50:07.000Z</time>
        <extensions>
          <ns3:TrackPointExtension>
            <ns3:atemp>19.0</ns3:atemp>
            <ns3:hr>137</ns3:hr>
          </ns3:TrackPointExtension>
        </extensions>
      </trkpt>
      <trkpt lat="-22.1188565902411937713623046875" lon="166.4557606168091297149658203125">
        <ele>243.399993896484375</ele>
        <time>2016-08-12T17:50:08.000Z</time>
        <extensions>
          <ns3:TrackPointExtension>
            <ns3:atemp>19.0</ns3:atemp>
            <ns3:hr>138</ns3:hr>
          </ns3:TrackPointExtension>
        </extensions>
      </trkpt>
      <trkpt lat="-22.1188674867153167724609375" lon="166.45577880553901195526123046875">
        <ele>243.399993896484375</ele>
        <time>2016-08-12T17:50:09.000Z</time>
        <extensions>
          <ns3:TrackPointExtension>
            <ns3:atemp>19.0</ns3:atemp>
            <ns3:hr>137</ns3:hr>
          </ns3:TrackPointExtension>
        </extensions>
      </trkpt>
      <trkpt lat="-22.118879221379756927490234375" lon="166.455794312059879302978515625">
        <ele>243.600006103515625</ele>
        <time>2016-08-12T17:50:10.000Z</time>
        <extensions>
          <ns3:TrackPointExtension>
            <ns3:atemp>19.0</ns3:atemp>
            <ns3:hr>137</ns3:hr>
          </ns3:TrackPointExtension>
        </extensions>
      </trkpt>
      <trkpt lat="-22.1188924647867679595947265625" lon="166.45580998621881008148193359375">
        <ele>244</ele>
        <time>2016-08-12T17:50:11.000Z</time>
        <extensions>
          <ns3:TrackPointExtension>
            <ns3:atemp>19.0</ns3:atemp>
            <ns3:hr>138</ns3:hr>
          </ns3:TrackPointExtension>
        </extensions>
      </trkpt>
      <trkpt lat="-22.11890302598476409912109375" lon="166.45582951605319976806640625">
        <ele>244.1999969482421875</ele>
        <time>2016-08-12T17:50:12.000Z</time>
        <extensions>
          <ns3:TrackPointExtension>
            <ns3:atemp>19.0</ns3:atemp>
            <ns3:hr>137</ns3:hr>
          </ns3:TrackPointExtension>
        </extensions>
      </trkpt>
      <trkpt lat="-22.11891517974436283111572265625" lon="166.45585038699209690093994140625">
        <ele>244.1999969482421875</ele>
        <time>2016-08-12T17:50:13.000Z</time>
        <extensions>
          <ns3:TrackPointExtension>
            <ns3:atemp>19.0</ns3:atemp>
            <ns3:hr>138</ns3:hr>
          </ns3:TrackPointExtension>
        </extensions>
      </trkpt>
      <trkpt lat="-22.1189202927052974700927734375" lon="166.45587368868291378021240234375">
        <ele>244</ele>
        <time>2016-08-12T17:50:14.000Z</time>
        <extensions>
          <ns3:TrackPointExtension>
            <ns3:atemp>19.0</ns3:atemp>
            <ns3:hr>138</ns3:hr>
          </ns3:TrackPointExtension>
        </extensions>
      </trkpt>
      <trkpt lat="-22.1189300157129764556884765625" lon="166.45589464344084262847900390625">
        <ele>244.1999969482421875</ele>
        <time>2016-08-12T17:50:15.000Z</time>
        <extensions>
          <ns3:TrackPointExtension>
            <ns3:atemp>19.0</ns3:atemp>
            <ns3:hr>138</ns3:hr>
          </ns3:TrackPointExtension>
        </extensions>
      </trkpt>
      <trkpt lat="-22.1189417503774166107177734375" lon="166.4559171907603740692138671875">
        <ele>244.1999969482421875</ele>
        <time>2016-08-12T17:50:16.000Z</time>
        <extensions>
          <ns3:TrackPointExtension>
            <ns3:atemp>19.0</ns3:atemp>
            <ns3:hr>138</ns3:hr>
          </ns3:TrackPointExtension>
        </extensions>
      </trkpt>
      <trkpt lat="-22.11895122192800045013427734375" lon="166.45593973807990550994873046875">
        <ele>244.1999969482421875</ele>
        <time>2016-08-12T17:50:17.000Z</time>
        <extensions>
          <ns3:TrackPointExtension>
            <ns3:atemp>19.0</ns3:atemp>
            <ns3:hr>137</ns3:hr>
          </ns3:TrackPointExtension>
        </extensions>
      </trkpt>
      <trkpt lat="-22.11896413005888462066650390625" lon="166.45596086047589778900146484375">
        <ele>244.399993896484375</ele>
        <time>2016-08-12T17:50:18.000Z</time>
        <extensions>
          <ns3:TrackPointExtension>
            <ns3:atemp>19.0</ns3:atemp>
            <ns3:hr>137</ns3:hr>
          </ns3:TrackPointExtension>
        </extensions>
      </trkpt>
      <trkpt lat="-22.11897737346589565277099609375" lon="166.455983407795429229736328125">
        <ele>244.600006103515625</ele>
        <time>2016-08-12T17:50:19.000Z</time>
        <extensions>
          <ns3:TrackPointExtension>
            <ns3:atemp>19.0</ns3:atemp>
            <ns3:hr>136</ns3:hr>
          </ns3:TrackPointExtension>
        </extensions>
      </trkpt>
      <trkpt lat="-22.11898810230195522308349609375" lon="166.45600360818207263946533203125">
        <ele>244.8000030517578125</ele>
        <time>2016-08-12T17:50:20.000Z</time>
        <extensions>
          <ns3:TrackPointExtension>
            <ns3:atemp>19.0</ns3:atemp>
            <ns3:hr>135</ns3:hr>
          </ns3:TrackPointExtension>
        </extensions>
      </trkpt>
      <trkpt lat="-22.11899799294769763946533203125" lon="166.4560254849493503570556640625">
        <ele>244.8000030517578125</ele>
        <time>2016-08-12T17:50:21.000Z</time>
        <extensions>
          <ns3:TrackPointExtension>
            <ns3:atemp>19.0</ns3:atemp>
            <ns3:hr>135</ns3:hr>
          </ns3:TrackPointExtension>
        </extensions>
      </trkpt>
      <trkpt lat="-22.11900955997407436370849609375" lon="166.45604752935469150543212890625">
        <ele>245</ele>
        <time>2016-08-12T17:50:22.000Z</time>
        <extensions>
          <ns3:TrackPointExtension>
            <ns3:atemp>19.0</ns3:atemp>
            <ns3:hr>134</ns3:hr>
          </ns3:TrackPointExtension>
        </extensions>
      </trkpt>
      <trkpt lat="-22.11902104318141937255859375" lon="166.456065885722637176513671875">
        <ele>245.1999969482421875</ele>
        <time>2016-08-12T17:50:23.000Z</time>
        <extensions>
          <ns3:TrackPointExtension>
            <ns3:atemp>19.0</ns3:atemp>
            <ns3:hr>134</ns3:hr>
          </ns3:TrackPointExtension>
        </extensions>
      </trkpt>
      <trkpt lat="-22.11903654970228672027587890625" lon="166.45608432590961456298828125">
        <ele>245.1999969482421875</ele>
        <time>2016-08-12T17:50:24.000Z</time>
        <extensions>
          <ns3:TrackPointExtension>
            <ns3:atemp>19.0</ns3:atemp>
            <ns3:hr>133</ns3:hr>
          </ns3:TrackPointExtension>
        </extensions>
      </trkpt>
      <trkpt lat="-22.11905834265053272247314453125" lon="166.45610184408724308013916015625">
        <ele>245.399993896484375</ele>
        <time>2016-08-12T17:50:25.000Z</time>
        <extensions>
          <ns3:TrackPointExtension>
            <ns3:atemp>19.0</ns3:atemp>
            <ns3:hr>132</ns3:hr>
          </ns3:TrackPointExtension>
        </extensions>
      </trkpt>
      <trkpt lat="-22.11907334625720977783203125" lon="166.4561198651790618896484375">
        <ele>245.399993896484375</ele>
        <time>2016-08-12T17:50:26.000Z</time>
        <extensions>
          <ns3:TrackPointExtension>
            <ns3:atemp>19.0</ns3:atemp>
            <ns3:hr>131</ns3:hr>
          </ns3:TrackPointExtension>
        </extensions>
      </trkpt>
      <trkpt lat="-22.11908717639744281768798828125" lon="166.45613520406186580657958984375">
        <ele>245.600006103515625</ele>
        <time>2016-08-12T17:50:27.000Z</time>
        <extensions>
          <ns3:TrackPointExtension>
            <ns3:atemp>19.0</ns3:atemp>
            <ns3:hr>131</ns3:hr>
          </ns3:TrackPointExtension>
        </extensions>
      </trkpt>
      <trkpt lat="-22.11909949779510498046875" lon="166.45615230314433574676513671875">
        <ele>245.8000030517578125</ele>
        <time>2016-08-12T17:50:28.000Z</time>
        <extensions>
          <ns3:TrackPointExtension>
            <ns3:atemp>19.0</ns3:atemp>
            <ns3:hr>131</ns3:hr>
          </ns3:TrackPointExtension>
        </extensions>
      </trkpt>
      <trkpt lat="-22.11910595186054706573486328125" lon="166.45617174915969371795654296875">
        <ele>246</ele>
        <time>2016-08-12T17:50:29.000Z</time>
        <extensions>
          <ns3:TrackPointExtension>
            <ns3:atemp>19.0</ns3:atemp>
            <ns3:hr>131</ns3:hr>
          </ns3:TrackPointExtension>
        </extensions>
      </trkpt>
      <trkpt lat="-22.1191088855266571044921875" lon="166.45619253627955913543701171875">
        <ele>246</ele>
        <time>2016-08-12T17:50:30.000Z</time>
        <extensions>
          <ns3:TrackPointExtension>
            <ns3:atemp>19.0</ns3:atemp>
            <ns3:hr>132</ns3:hr>
          </ns3:TrackPointExtension>
        </extensions>
      </trkpt>
      <trkpt lat="-22.11911181919276714324951171875" lon="166.4562129043042659759521484375">
        <ele>246.399993896484375</ele>
        <time>2016-08-12T17:50:31.000Z</time>
        <extensions>
          <ns3:TrackPointExtension>
            <ns3:atemp>19.0</ns3:atemp>
            <ns3:hr>132</ns3:hr>
          </ns3:TrackPointExtension>
        </extensions>
      </trkpt>
      <trkpt lat="-22.11911399848759174346923828125" lon="166.45623184740543365478515625">
        <ele>246.399993896484375</ele>
        <time>2016-08-12T17:50:32.000Z</time>
        <extensions>
          <ns3:TrackPointExtension>
            <ns3:atemp>19.0</ns3:atemp>
            <ns3:hr>133</ns3:hr>
          </ns3:TrackPointExtension>
        </extensions>
      </trkpt>
      <trkpt lat="-22.11911584250628948211669921875" lon="166.45625062286853790283203125">
        <ele>246.600006103515625</ele>
        <time>2016-08-12T17:50:33.000Z</time>
        <extensions>
          <ns3:TrackPointExtension>
            <ns3:atemp>19.0</ns3:atemp>
            <ns3:hr>134</ns3:hr>
          </ns3:TrackPointExtension>
        </extensions>
      </trkpt>
      <trkpt lat="-22.11911399848759174346923828125" lon="166.4562695659697055816650390625">
        <ele>247</ele>
        <time>2016-08-12T17:50:34.000Z</time>
        <extensions>
          <ns3:TrackPointExtension>
            <ns3:atemp>19.0</ns3:atemp>
            <ns3:hr>134</ns3:hr>
          </ns3:TrackPointExtension>
        </extensions>
      </trkpt>
      <trkpt lat="-22.11910779587924480438232421875" lon="166.456285156309604644775390625">
        <ele>247</ele>
        <time>2016-08-12T17:50:35.000Z</time>
        <extensions>
          <ns3:TrackPointExtension>
            <ns3:atemp>19.0</ns3:atemp>
            <ns3:hr>134</ns3:hr>
          </ns3:TrackPointExtension>
        </extensions>
      </trkpt>
      <trkpt lat="-22.1190941333770751953125" lon="166.45630267448723316192626953125">
        <ele>247.1999969482421875</ele>
        <time>2016-08-12T17:50:36.000Z</time>
        <extensions>
          <ns3:TrackPointExtension>
            <ns3:atemp>19.0</ns3:atemp>
            <ns3:hr>135</ns3:hr>
          </ns3:TrackPointExtension>
        </extensions>
      </trkpt>
      <trkpt lat="-22.11907912977039813995361328125" lon="166.4563175104558467864990234375">
        <ele>247.399993896484375</ele>
        <time>2016-08-12T17:50:37.000Z</time>
        <extensions>
          <ns3:TrackPointExtension>
            <ns3:atemp>20.0</ns3:atemp>
            <ns3:hr>135</ns3:hr>
          </ns3:TrackPointExtension>
        </extensions>
      </trkpt>
      <trkpt lat="-22.1190637908875942230224609375" lon="166.456328742206096649169921875">
        <ele>247.600006103515625</ele>
        <time>2016-08-12T17:50:38.000Z</time>
        <extensions>
          <ns3:TrackPointExtension>
            <ns3:atemp>20.0</ns3:atemp>
            <ns3:hr>136</ns3:hr>
          </ns3:TrackPointExtension>
        </extensions>
      </trkpt>
      <trkpt lat="-22.1190471947193145751953125" lon="166.45633704029023647308349609375">
        <ele>247.8000030517578125</ele>
        <time>2016-08-12T17:50:39.000Z</time>
        <extensions>
          <ns3:TrackPointExtension>
            <ns3:atemp>20.0</ns3:atemp>
            <ns3:hr>136</ns3:hr>
          </ns3:TrackPointExtension>
        </extensions>
      </trkpt>
      <trkpt lat="-22.11902950890362262725830078125" lon="166.4563443325459957122802734375">
        <ele>248</ele>
        <time>2016-08-12T17:50:40.000Z</time>
        <extensions>
          <ns3:TrackPointExtension>
            <ns3:atemp>20.0</ns3:atemp>
            <ns3:hr>136</ns3:hr>
          </ns3:TrackPointExtension>
        </extensions>
      </trkpt>
      <trkpt lat="-22.11901123635470867156982421875" lon="166.456352882087230682373046875">
        <ele>247.8000030517578125</ele>
        <time>2016-08-12T17:50:41.000Z</time>
        <extensions>
          <ns3:TrackPointExtension>
            <ns3:atemp>20.0</ns3:atemp>
            <ns3:hr>137</ns3:hr>
          </ns3:TrackPointExtension>
        </extensions>
      </trkpt>
      <trkpt lat="-22.11899430491030216217041015625" lon="166.4563594199717044830322265625">
        <ele>248.1999969482421875</ele>
        <time>2016-08-12T17:50:42.000Z</time>
        <extensions>
          <ns3:TrackPointExtension>
            <ns3:atemp>20.0</ns3:atemp>
            <ns3:hr>137</ns3:hr>
          </ns3:TrackPointExtension>
        </extensions>
      </trkpt>
      <trkpt lat="-22.11897871457040309906005859375" lon="166.456364281475543975830078125">
        <ele>248.399993896484375</ele>
        <time>2016-08-12T17:50:43.000Z</time>
        <extensions>
          <ns3:TrackPointExtension>
            <ns3:atemp>20.0</ns3:atemp>
            <ns3:hr>137</ns3:hr>
          </ns3:TrackPointExtension>
        </extensions>
      </trkpt>
      <trkpt lat="-22.1189618669450283050537109375" lon="166.45636864006519317626953125">
        <ele>248.600006103515625</ele>
        <time>2016-08-12T17:50:44.000Z</time>
        <extensions>
          <ns3:TrackPointExtension>
            <ns3:atemp>20.0</ns3:atemp>
            <ns3:hr>136</ns3:hr>
          </ns3:TrackPointExtension>
        </extensions>
      </trkpt>
      <trkpt lat="-22.11894401349127292633056640625" lon="166.45637526176869869232177734375">
        <ele>248.8000030517578125</ele>
        <time>2016-08-12T17:50:45.000Z</time>
        <extensions>
          <ns3:TrackPointExtension>
            <ns3:atemp>20.0</ns3:atemp>
            <ns3:hr>136</ns3:hr>
          </ns3:TrackPointExtension>
        </extensions>
      </trkpt>
      <trkpt lat="-22.118930518627166748046875" lon="166.45638205111026763916015625">
        <ele>249</ele>
        <time>2016-08-12T17:50:46.000Z</time>
        <extensions>
          <ns3:TrackPointExtension>
            <ns3:atemp>20.0</ns3:atemp>
            <ns3:hr>136</ns3:hr>
          </ns3:TrackPointExtension>
        </extensions>
      </trkpt>
      <trkpt lat="-22.11891568265855312347412109375" lon="166.4563882537186145782470703125">
        <ele>249</ele>
        <time>2016-08-12T17:50:47.000Z</time>
        <extensions>
          <ns3:TrackPointExtension>
            <ns3:atemp>20.0</ns3:atemp>
            <ns3:hr>137</ns3:hr>
          </ns3:TrackPointExtension>
        </extensions>
      </trkpt>
      <trkpt lat="-22.11889564990997314453125" lon="166.45639806054532527923583984375">
        <ele>249.399993896484375</ele>
        <time>2016-08-12T17:50:48.000Z</time>
        <extensions>
          <ns3:TrackPointExtension>
            <ns3:atemp>20.0</ns3:atemp>
            <ns3:hr>137</ns3:hr>
          </ns3:TrackPointExtension>
        </extensions>
      </trkpt>
      <trkpt lat="-22.11887620389461517333984375" lon="166.45640619099140167236328125">
        <ele>249.600006103515625</ele>
        <time>2016-08-12T17:50:49.000Z</time>
        <extensions>
          <ns3:TrackPointExtension>
            <ns3:atemp>20.0</ns3:atemp>
            <ns3:hr>137</ns3:hr>
          </ns3:TrackPointExtension>
        </extensions>
      </trkpt>
      <trkpt lat="-22.11885985918343067169189453125" lon="166.45641583018004894256591796875">
        <ele>249.8000030517578125</ele>
        <time>2016-08-12T17:50:50.000Z</time>
        <extensions>
          <ns3:TrackPointExtension>
            <ns3:atemp>20.0</ns3:atemp>
            <ns3:hr>137</ns3:hr>
          </ns3:TrackPointExtension>
        </extensions>
      </trkpt>
      <trkpt lat="-22.11884175427258014678955078125" lon="166.45642555318772792816162109375">
        <ele>249.8000030517578125</ele>
        <time>2016-08-12T17:50:51.000Z</time>
        <extensions>
          <ns3:TrackPointExtension>
            <ns3:atemp>20.0</ns3:atemp>
            <ns3:hr>137</ns3:hr>
          </ns3:TrackPointExtension>
        </extensions>
      </trkpt>
      <trkpt lat="-22.11882800795137882232666015625" lon="166.456438042223453521728515625">
        <ele>250.1999969482421875</ele>
        <time>2016-08-12T17:50:52.000Z</time>
        <extensions>
          <ns3:TrackPointExtension>
            <ns3:atemp>20.0</ns3:atemp>
            <ns3:hr>138</ns3:hr>
          </ns3:TrackPointExtension>
        </extensions>
      </trkpt>
      <trkpt lat="-22.118811495602130889892578125" lon="166.4564509503543376922607421875">
        <ele>250.399993896484375</ele>
        <time>2016-08-12T17:50:53.000Z</time>
        <extensions>
          <ns3:TrackPointExtension>
            <ns3:atemp>20.0</ns3:atemp>
            <ns3:hr>138</ns3:hr>
          </ns3:TrackPointExtension>
        </extensions>
      </trkpt>
      <trkpt lat="-22.118789367377758026123046875" lon="166.456463523209095001220703125">
        <ele>250.600006103515625</ele>
        <time>2016-08-12T17:50:54.000Z</time>
        <extensions>
          <ns3:TrackPointExtension>
            <ns3:atemp>20.0</ns3:atemp>
            <ns3:hr>138</ns3:hr>
          </ns3:TrackPointExtension>
        </extensions>
      </trkpt>
      <trkpt lat="-22.118766568601131439208984375" lon="166.4564765989780426025390625">
        <ele>251</ele>
        <time>2016-08-12T17:50:55.000Z</time>
        <extensions>
          <ns3:TrackPointExtension>
            <ns3:atemp>20.0</ns3:atemp>
            <ns3:hr>139</ns3:hr>
          </ns3:TrackPointExtension>
        </extensions>
      </trkpt>
      <trkpt lat="-22.1187414228916168212890625" lon="166.4564935304224491119384765625">
        <ele>251</ele>
        <time>2016-08-12T17:50:56.000Z</time>
        <extensions>
          <ns3:TrackPointExtension>
            <ns3:atemp>20.0</ns3:atemp>
            <ns3:hr>138</ns3:hr>
          </ns3:TrackPointExtension>
        </extensions>
      </trkpt>
      <trkpt lat="-22.11871837265789508819580078125" lon="166.45651238970458507537841796875">
        <ele>251</ele>
        <time>2016-08-12T17:50:57.000Z</time>
        <extensions>
          <ns3:TrackPointExtension>
            <ns3:atemp>20.0</ns3:atemp>
            <ns3:hr>139</ns3:hr>
          </ns3:TrackPointExtension>
        </extensions>
      </trkpt>
      <trkpt lat="-22.11870244704186916351318359375" lon="166.45653091371059417724609375">
        <ele>251.1999969482421875</ele>
        <time>2016-08-12T17:50:58.000Z</time>
        <extensions>
          <ns3:TrackPointExtension>
            <ns3:atemp>20.0</ns3:atemp>
            <ns3:hr>139</ns3:hr>
          </ns3:TrackPointExtension>
        </extensions>
      </trkpt>
      <trkpt lat="-22.11869440041482448577880859375" lon="166.456554047763347625732421875">
        <ele>251.1999969482421875</ele>
        <time>2016-08-12T17:50:59.000Z</time>
        <extensions>
          <ns3:TrackPointExtension>
            <ns3:atemp>20.0</ns3:atemp>
            <ns3:hr>139</ns3:hr>
          </ns3:TrackPointExtension>
        </extensions>
      </trkpt>
      <trkpt lat="-22.11868987418711185455322265625" lon="166.456577517092227935791015625">
        <ele>251.1999969482421875</ele>
        <time>2016-08-12T17:51:00.000Z</time>
        <extensions>
          <ns3:TrackPointExtension>
            <ns3:atemp>20.0</ns3:atemp>
            <ns3:hr>139</ns3:hr>
          </ns3:TrackPointExtension>
        </extensions>
      </trkpt>
      <trkpt lat="-22.118680737912654876708984375" lon="166.4565984718501567840576171875">
        <ele>251.600006103515625</ele>
        <time>2016-08-12T17:51:01.000Z</time>
        <extensions>
          <ns3:TrackPointExtension>
            <ns3:atemp>20.0</ns3:atemp>
            <ns3:hr>139</ns3:hr>
          </ns3:TrackPointExtension>
        </extensions>
      </trkpt>
      <trkpt lat="-22.118668667972087860107421875" lon="166.45662319846451282501220703125">
        <ele>251.600006103515625</ele>
        <time>2016-08-12T17:51:02.000Z</time>
        <extensions>
          <ns3:TrackPointExtension>
            <ns3:atemp>20.0</ns3:atemp>
            <ns3:hr>139</ns3:hr>
          </ns3:TrackPointExtension>
        </extensions>
      </trkpt>
      <trkpt lat="-22.1186584420502185821533203125" lon="166.4566454105079174041748046875">
        <ele>251.600006103515625</ele>
        <time>2016-08-12T17:51:03.000Z</time>
        <extensions>
          <ns3:TrackPointExtension>
            <ns3:atemp>20.0</ns3:atemp>
            <ns3:hr>140</ns3:hr>
          </ns3:TrackPointExtension>
        </extensions>
      </trkpt>
      <trkpt lat="-22.1186529099941253662109375" lon="166.45666561089456081390380859375">
        <ele>252</ele>
        <time>2016-08-12T17:51:04.000Z</time>
        <extensions>
          <ns3:TrackPointExtension>
            <ns3:atemp>19.0</ns3:atemp>
            <ns3:hr>140</ns3:hr>
          </ns3:TrackPointExtension>
        </extensions>
      </trkpt>
      <trkpt lat="-22.11865081451833248138427734375" lon="166.4566893316805362701416015625">
        <ele>252</ele>
        <time>2016-08-12T17:51:05.000Z</time>
        <extensions>
          <ns3:TrackPointExtension>
            <ns3:atemp>19.0</ns3:atemp>
            <ns3:hr>140</ns3:hr>
          </ns3:TrackPointExtension>
        </extensions>
      </trkpt>
      <trkpt lat="-22.11865165270864963531494140625" lon="166.45671062171459197998046875">
        <ele>252</ele>
        <time>2016-08-12T17:51:06.000Z</time>
        <extensions>
          <ns3:TrackPointExtension>
            <ns3:atemp>19.0</ns3:atemp>
            <ns3:hr>140</ns3:hr>
          </ns3:TrackPointExtension>
        </extensions>
      </trkpt>
      <trkpt lat="-22.11865114979445934295654296875" lon="166.456732414662837982177734375">
        <ele>252.399993896484375</ele>
        <time>2016-08-12T17:51:07.000Z</time>
        <extensions>
          <ns3:TrackPointExtension>
            <ns3:atemp>19.0</ns3:atemp>
            <ns3:hr>140</ns3:hr>
          </ns3:TrackPointExtension>
        </extensions>
      </trkpt>
      <trkpt lat="-22.1186540834605693817138671875" lon="166.45675487816333770751953125">
        <ele>252.600006103515625</ele>
        <time>2016-08-12T17:51:08.000Z</time>
        <extensions>
          <ns3:TrackPointExtension>
            <ns3:atemp>19.0</ns3:atemp>
            <ns3:hr>140</ns3:hr>
          </ns3:TrackPointExtension>
        </extensions>
      </trkpt>
      <trkpt lat="-22.11866171099245548248291015625" lon="166.456776000559329986572265625">
        <ele>252.600006103515625</ele>
        <time>2016-08-12T17:51:09.000Z</time>
        <extensions>
          <ns3:TrackPointExtension>
            <ns3:atemp>19.0</ns3:atemp>
            <ns3:hr>140</ns3:hr>
          </ns3:TrackPointExtension>
        </extensions>
      </trkpt>
      <trkpt lat="-22.11866791360080242156982421875" lon="166.456798799335956573486328125">
        <ele>252.8000030517578125</ele>
        <time>2016-08-12T17:51:10.000Z</time>
        <extensions>
          <ns3:TrackPointExtension>
            <ns3:atemp>19.0</ns3:atemp>
            <ns3:hr>140</ns3:hr>
          </ns3:TrackPointExtension>
        </extensions>
      </trkpt>
      <trkpt lat="-22.1186797320842742919921875" lon="166.4568210951983928680419921875">
        <ele>253</ele>
        <time>2016-08-12T17:51:11.000Z</time>
        <extensions>
          <ns3:TrackPointExtension>
            <ns3:atemp>19.0</ns3:atemp>
            <ns3:hr>140</ns3:hr>
          </ns3:TrackPointExtension>
        </extensions>
      </trkpt>
      <trkpt lat="-22.11869272403419017791748046875" lon="166.4568428881466388702392578125">
        <ele>253</ele>
        <time>2016-08-12T17:51:12.000Z</time>
        <extensions>
          <ns3:TrackPointExtension>
            <ns3:atemp>19.0</ns3:atemp>
            <ns3:hr>140</ns3:hr>
          </ns3:TrackPointExtension>
        </extensions>
      </trkpt>
      <trkpt lat="-22.11870579980313777923583984375" lon="166.45686241798102855682373046875">
        <ele>253.1999969482421875</ele>
        <time>2016-08-12T17:51:13.000Z</time>
        <extensions>
          <ns3:TrackPointExtension>
            <ns3:atemp>19.0</ns3:atemp>
            <ns3:hr>139</ns3:hr>
          </ns3:TrackPointExtension>
        </extensions>
      </trkpt>
      <trkpt lat="-22.1187100745737552642822265625" lon="166.4568861387670040130615234375">
        <ele>253.399993896484375</ele>
        <time>2016-08-12T17:51:14.000Z</time>
        <extensions>
          <ns3:TrackPointExtension>
            <ns3:atemp>19.0</ns3:atemp>
            <ns3:hr>140</ns3:hr>
          </ns3:TrackPointExtension>
        </extensions>
      </trkpt>
      <trkpt lat="-22.11871619336307048797607421875" lon="166.456910111010074615478515625">
        <ele>253.399993896484375</ele>
        <time>2016-08-12T17:51:15.000Z</time>
        <extensions>
          <ns3:TrackPointExtension>
            <ns3:atemp>19.0</ns3:atemp>
            <ns3:hr>140</ns3:hr>
          </ns3:TrackPointExtension>
        </extensions>
      </trkpt>
      <trkpt lat="-22.1187298558652400970458984375" lon="166.45693450234830379486083984375">
        <ele>253.399993896484375</ele>
        <time>2016-08-12T17:51:16.000Z</time>
        <extensions>
          <ns3:TrackPointExtension>
            <ns3:atemp>19.0</ns3:atemp>
            <ns3:hr>140</ns3:hr>
          </ns3:TrackPointExtension>
        </extensions>
      </trkpt>
      <trkpt lat="-22.1187419258058071136474609375" lon="166.4569562114775180816650390625">
        <ele>253.8000030517578125</ele>
        <time>2016-08-12T17:51:17.000Z</time>
        <extensions>
          <ns3:TrackPointExtension>
            <ns3:atemp>19.0</ns3:atemp>
            <ns3:hr>140</ns3:hr>
          </ns3:TrackPointExtension>
        </extensions>
      </trkpt>
      <trkpt lat="-22.11875994689762592315673828125" lon="166.4569756574928760528564453125">
        <ele>254.1999969482421875</ele>
        <time>2016-08-12T17:51:18.000Z</time>
        <extensions>
          <ns3:TrackPointExtension>
            <ns3:atemp>19.0</ns3:atemp>
            <ns3:hr>140</ns3:hr>
          </ns3:TrackPointExtension>
        </extensions>
      </trkpt>
      <trkpt lat="-22.1187771297991275787353515625" lon="166.4569971151649951934814453125">
        <ele>254.1999969482421875</ele>
        <time>2016-08-12T17:51:19.000Z</time>
        <extensions>
          <ns3:TrackPointExtension>
            <ns3:atemp>19.0</ns3:atemp>
            <ns3:hr>140</ns3:hr>
          </ns3:TrackPointExtension>
        </extensions>
      </trkpt>
      <trkpt lat="-22.1187925525009632110595703125" lon="166.4570172317326068878173828125">
        <ele>254.1999969482421875</ele>
        <time>2016-08-12T17:51:20.000Z</time>
        <extensions>
          <ns3:TrackPointExtension>
            <ns3:atemp>19.0</ns3:atemp>
            <ns3:hr>140</ns3:hr>
          </ns3:TrackPointExtension>
        </extensions>
      </trkpt>
      <trkpt lat="-22.11880973540246486663818359375" lon="166.4570373483002185821533203125">
        <ele>254.399993896484375</ele>
        <time>2016-08-12T17:51:21.000Z</time>
        <extensions>
          <ns3:TrackPointExtension>
            <ns3:atemp>19.0</ns3:atemp>
            <ns3:hr>140</ns3:hr>
          </ns3:TrackPointExtension>
        </extensions>
      </trkpt>
      <trkpt lat="-22.1188280917704105377197265625" lon="166.457056961953639984130859375">
        <ele>254.399993896484375</ele>
        <time>2016-08-12T17:51:22.000Z</time>
        <extensions>
          <ns3:TrackPointExtension>
            <ns3:atemp>19.0</ns3:atemp>
            <ns3:hr>141</ns3:hr>
          </ns3:TrackPointExtension>
        </extensions>
      </trkpt>
      <trkpt lat="-22.11884125135838985443115234375" lon="166.4570752345025539398193359375">
        <ele>254.399993896484375</ele>
        <time>2016-08-12T17:51:23.000Z</time>
        <extensions>
          <ns3:TrackPointExtension>
            <ns3:atemp>19.0</ns3:atemp>
            <ns3:hr>140</ns3:hr>
          </ns3:TrackPointExtension>
        </extensions>
      </trkpt>
      <trkpt lat="-22.1188572607934474945068359375" lon="166.45709375850856304168701171875">
        <ele>254.8000030517578125</ele>
        <time>2016-08-12T17:51:24.000Z</time>
        <extensions>
          <ns3:TrackPointExtension>
            <ns3:atemp>19.0</ns3:atemp>
            <ns3:hr>140</ns3:hr>
          </ns3:TrackPointExtension>
        </extensions>
      </trkpt>
      <trkpt lat="-22.11887486279010772705078125" lon="166.4571122825145721435546875">
        <ele>255</ele>
        <time>2016-08-12T17:51:25.000Z</time>
        <extensions>
          <ns3:TrackPointExtension>
            <ns3:atemp>19.0</ns3:atemp>
            <ns3:hr>141</ns3:hr>
          </ns3:TrackPointExtension>
        </extensions>
      </trkpt>
      <trkpt lat="-22.118889279663562774658203125" lon="166.45712845958769321441650390625">
        <ele>255</ele>
        <time>2016-08-12T17:51:26.000Z</time>
        <extensions>
          <ns3:TrackPointExtension>
            <ns3:atemp>19.0</ns3:atemp>
            <ns3:hr>140</ns3:hr>
          </ns3:TrackPointExtension>
        </extensions>
      </trkpt>
      <trkpt lat="-22.11890168488025665283203125" lon="166.45714891143143177032470703125">
        <ele>255.1999969482421875</ele>
        <time>2016-08-12T17:51:27.000Z</time>
        <extensions>
          <ns3:TrackPointExtension>
            <ns3:atemp>19.0</ns3:atemp>
            <ns3:hr>141</ns3:hr>
          </ns3:TrackPointExtension>
        </extensions>
      </trkpt>
      <trkpt lat="-22.11891509592533111572265625" lon="166.4571671001613140106201171875">
        <ele>255.600006103515625</ele>
        <time>2016-08-12T17:51:28.000Z</time>
        <extensions>
          <ns3:TrackPointExtension>
            <ns3:atemp>19.0</ns3:atemp>
            <ns3:hr>140</ns3:hr>
          </ns3:TrackPointExtension>
        </extensions>
      </trkpt>
      <trkpt lat="-22.11892783641815185546875" lon="166.45718411542475223541259765625">
        <ele>255.600006103515625</ele>
        <time>2016-08-12T17:51:29.000Z</time>
        <extensions>
          <ns3:TrackPointExtension>
            <ns3:atemp>19.0</ns3:atemp>
            <ns3:hr>141</ns3:hr>
          </ns3:TrackPointExtension>
        </extensions>
      </trkpt>
      <trkpt lat="-22.11893931962549686431884765625" lon="166.457203142344951629638671875">
        <ele>255.600006103515625</ele>
        <time>2016-08-12T17:51:30.000Z</time>
        <extensions>
          <ns3:TrackPointExtension>
            <ns3:atemp>19.0</ns3:atemp>
            <ns3:hr>141</ns3:hr>
          </ns3:TrackPointExtension>
        </extensions>
      </trkpt>
      <trkpt lat="-22.118951641023159027099609375" lon="166.45722166635096073150634765625">
        <ele>256.20001220703125</ele>
        <time>2016-08-12T17:51:31.000Z</time>
        <extensions>
          <ns3:TrackPointExtension>
            <ns3:atemp>19.0</ns3:atemp>
            <ns3:hr>141</ns3:hr>
          </ns3:TrackPointExtension>
        </extensions>
      </trkpt>
      <trkpt lat="-22.118963040411472320556640625" lon="166.4572410285472869873046875">
        <ele>256.20001220703125</ele>
        <time>2016-08-12T17:51:32.000Z</time>
        <extensions>
          <ns3:TrackPointExtension>
            <ns3:atemp>19.0</ns3:atemp>
            <ns3:hr>141</ns3:hr>
          </ns3:TrackPointExtension>
        </extensions>
      </trkpt>
      <trkpt lat="-22.1189759485423564910888671875" lon="166.45725988782942295074462890625">
        <ele>256.20001220703125</ele>
        <time>2016-08-12T17:51:33.000Z</time>
        <extensions>
          <ns3:TrackPointExtension>
            <ns3:atemp>19.0</ns3:atemp>
            <ns3:hr>141</ns3:hr>
          </ns3:TrackPointExtension>
        </extensions>
      </trkpt>
      <trkpt lat="-22.1189866773784160614013671875" lon="166.45727782510221004486083984375">
        <ele>256.600006103515625</ele>
        <time>2016-08-12T17:51:34.000Z</time>
        <extensions>
          <ns3:TrackPointExtension>
            <ns3:atemp>19.0</ns3:atemp>
            <ns3:hr>141</ns3:hr>
          </ns3:TrackPointExtension>
        </extensions>
      </trkpt>
      <trkpt lat="-22.1189975738525390625" lon="166.4572978578507900238037109375">
        <ele>256.600006103515625</ele>
        <time>2016-08-12T17:51:35.000Z</time>
        <extensions>
          <ns3:TrackPointExtension>
            <ns3:atemp>19.0</ns3:atemp>
            <ns3:hr>141</ns3:hr>
          </ns3:TrackPointExtension>
        </extensions>
      </trkpt>
      <trkpt lat="-22.119005285203456878662109375" lon="166.457319147884845733642578125">
        <ele>256.600006103515625</ele>
        <time>2016-08-12T17:51:36.000Z</time>
        <extensions>
          <ns3:TrackPointExtension>
            <ns3:atemp>19.0</ns3:atemp>
            <ns3:hr>141</ns3:hr>
          </ns3:TrackPointExtension>
        </extensions>
      </trkpt>
      <trkpt lat="-22.11901165544986724853515625" lon="166.457337923347949981689453125">
        <ele>257</ele>
        <time>2016-08-12T17:51:37.000Z</time>
        <extensions>
          <ns3:TrackPointExtension>
            <ns3:atemp>19.0</ns3:atemp>
            <ns3:hr>140</ns3:hr>
          </ns3:TrackPointExtension>
        </extensions>
      </trkpt>
      <trkpt lat="-22.11901701986789703369140625" lon="166.4573590457439422607421875">
        <ele>257</ele>
        <time>2016-08-12T17:51:38.000Z</time>
        <extensions>
          <ns3:TrackPointExtension>
            <ns3:atemp>19.0</ns3:atemp>
            <ns3:hr>140</ns3:hr>
          </ns3:TrackPointExtension>
        </extensions>
      </trkpt>
      <trkpt lat="-22.1190230548381805419921875" lon="166.4573803357779979705810546875">
        <ele>257</ele>
        <time>2016-08-12T17:51:39.000Z</time>
        <extensions>
          <ns3:TrackPointExtension>
            <ns3:atemp>19.0</ns3:atemp>
            <ns3:hr>141</ns3:hr>
          </ns3:TrackPointExtension>
        </extensions>
      </trkpt>
      <trkpt lat="-22.11902665905654430389404296875" lon="166.4573987759649753570556640625">
        <ele>257.600006103515625</ele>
        <time>2016-08-12T17:51:40.000Z</time>
        <extensions>
          <ns3:TrackPointExtension>
            <ns3:atemp>19.0</ns3:atemp>
            <ns3:hr>140</ns3:hr>
          </ns3:TrackPointExtension>
        </extensions>
      </trkpt>
      <trkpt lat="-22.11903177201747894287109375" lon="166.45741830579936504364013671875">
        <ele>257.600006103515625</ele>
        <time>2016-08-12T17:51:41.000Z</time>
        <extensions>
          <ns3:TrackPointExtension>
            <ns3:atemp>19.0</ns3:atemp>
            <ns3:hr>141</ns3:hr>
          </ns3:TrackPointExtension>
        </extensions>
      </trkpt>
      <trkpt lat="-22.1190366335213184356689453125" lon="166.457440517842769622802734375">
        <ele>257.79998779296875</ele>
        <time>2016-08-12T17:51:42.000Z</time>
        <extensions>
          <ns3:TrackPointExtension>
            <ns3:atemp>19.0</ns3:atemp>
            <ns3:hr>141</ns3:hr>
          </ns3:TrackPointExtension>
        </extensions>
      </trkpt>
      <trkpt lat="-22.11904074065387248992919921875" lon="166.45746298134326934814453125">
        <ele>257.79998779296875</ele>
        <time>2016-08-12T17:51:43.000Z</time>
        <extensions>
          <ns3:TrackPointExtension>
            <ns3:atemp>19.0</ns3:atemp>
            <ns3:hr>140</ns3:hr>
          </ns3:TrackPointExtension>
        </extensions>
      </trkpt>
      <trkpt lat="-22.1190376393496990203857421875" lon="166.4574869535863399505615234375">
        <ele>258</ele>
        <time>2016-08-12T17:51:44.000Z</time>
        <extensions>
          <ns3:TrackPointExtension>
            <ns3:atemp>19.0</ns3:atemp>
            <ns3:hr>140</ns3:hr>
          </ns3:TrackPointExtension>
        </extensions>
      </trkpt>
      <trkpt lat="-22.11903302930295467376708984375" lon="166.4575084112584590911865234375">
        <ele>258</ele>
        <time>2016-08-12T17:51:45.000Z</time>
        <extensions>
          <ns3:TrackPointExtension>
            <ns3:atemp>19.0</ns3:atemp>
            <ns3:hr>140</ns3:hr>
          </ns3:TrackPointExtension>
        </extensions>
      </trkpt>
      <trkpt lat="-22.11902900598943233489990234375" lon="166.4575255103409290313720703125">
        <ele>258</ele>
        <time>2016-08-12T17:51:46.000Z</time>
        <extensions>
          <ns3:TrackPointExtension>
            <ns3:atemp>19.0</ns3:atemp>
            <ns3:hr>140</ns3:hr>
          </ns3:TrackPointExtension>
        </extensions>
      </trkpt>
      <trkpt lat="-22.11901970207691192626953125" lon="166.45754369907081127166748046875">
        <ele>258</ele>
        <time>2016-08-12T17:51:47.000Z</time>
        <extensions>
          <ns3:TrackPointExtension>
            <ns3:atemp>19.0</ns3:atemp>
            <ns3:hr>140</ns3:hr>
          </ns3:TrackPointExtension>
        </extensions>
      </trkpt>
      <trkpt lat="-22.11900704540312290191650390625" lon="166.45756448619067668914794921875">
        <ele>258.20001220703125</ele>
        <time>2016-08-12T17:51:48.000Z</time>
        <extensions>
          <ns3:TrackPointExtension>
            <ns3:atemp>19.0</ns3:atemp>
            <ns3:hr>141</ns3:hr>
          </ns3:TrackPointExtension>
        </extensions>
      </trkpt>
      <trkpt lat="-22.119001261889934539794921875" lon="166.45758342929184436798095703125">
        <ele>258.399993896484375</ele>
        <time>2016-08-12T17:51:49.000Z</time>
        <extensions>
          <ns3:TrackPointExtension>
            <ns3:atemp>19.0</ns3:atemp>
            <ns3:hr>140</ns3:hr>
          </ns3:TrackPointExtension>
        </extensions>
      </trkpt>
      <trkpt lat="-22.118996568024158477783203125" lon="166.45760270766913890838623046875">
        <ele>258.399993896484375</ele>
        <time>2016-08-12T17:51:50.000Z</time>
        <extensions>
          <ns3:TrackPointExtension>
            <ns3:atemp>19.0</ns3:atemp>
            <ns3:hr>140</ns3:hr>
          </ns3:TrackPointExtension>
        </extensions>
      </trkpt>
      <trkpt lat="-22.11899179033935070037841796875" lon="166.4576213993132114410400390625">
        <ele>258.600006103515625</ele>
        <time>2016-08-12T17:51:51.000Z</time>
        <extensions>
          <ns3:TrackPointExtension>
            <ns3:atemp>19.0</ns3:atemp>
            <ns3:hr>141</ns3:hr>
          </ns3:TrackPointExtension>
        </extensions>
      </trkpt>
      <trkpt lat="-22.118983156979084014892578125" lon="166.45763942040503025054931640625">
        <ele>259</ele>
        <time>2016-08-12T17:51:52.000Z</time>
        <extensions>
          <ns3:TrackPointExtension>
            <ns3:atemp>19.0</ns3:atemp>
            <ns3:hr>140</ns3:hr>
          </ns3:TrackPointExtension>
        </extensions>
      </trkpt>
      <trkpt lat="-22.11897267960011959075927734375" lon="166.45765534602105617523193359375">
        <ele>259</ele>
        <time>2016-08-12T17:51:53.000Z</time>
        <extensions>
          <ns3:TrackPointExtension>
            <ns3:atemp>19.0</ns3:atemp>
            <ns3:hr>141</ns3:hr>
          </ns3:TrackPointExtension>
        </extensions>
      </trkpt>
      <trkpt lat="-22.1189635433256626129150390625" lon="166.45766892470419406890869140625">
        <ele>259.399993896484375</ele>
        <time>2016-08-12T17:51:54.000Z</time>
        <extensions>
          <ns3:TrackPointExtension>
            <ns3:atemp>19.0</ns3:atemp>
            <ns3:hr>141</ns3:hr>
          </ns3:TrackPointExtension>
        </extensions>
      </trkpt>
      <trkpt lat="-22.11895407177507877349853515625" lon="166.45768283866345882415771484375">
        <ele>259.600006103515625</ele>
        <time>2016-08-12T17:51:55.000Z</time>
        <extensions>
          <ns3:TrackPointExtension>
            <ns3:atemp>19.0</ns3:atemp>
            <ns3:hr>140</ns3:hr>
          </ns3:TrackPointExtension>
        </extensions>
      </trkpt>
      <trkpt lat="-22.11894418112933635711669921875" lon="166.4577001892030239105224609375">
        <ele>259.600006103515625</ele>
        <time>2016-08-12T17:51:56.000Z</time>
        <extensions>
          <ns3:TrackPointExtension>
            <ns3:atemp>19.0</ns3:atemp>
            <ns3:hr>140</ns3:hr>
          </ns3:TrackPointExtension>
        </extensions>
      </trkpt>
      <trkpt lat="-22.1189380623400211334228515625" lon="166.45771636627614498138427734375">
        <ele>260</ele>
        <time>2016-08-12T17:51:57.000Z</time>
        <extensions>
          <ns3:TrackPointExtension>
            <ns3:atemp>19.0</ns3:atemp>
            <ns3:hr>141</ns3:hr>
          </ns3:TrackPointExtension>
        </extensions>
      </trkpt>
      <trkpt lat="-22.118931524455547332763671875" lon="166.4577313698828220367431640625">
        <ele>260.20001220703125</ele>
        <time>2016-08-12T17:51:58.000Z</time>
        <extensions>
          <ns3:TrackPointExtension>
            <ns3:atemp>19.0</ns3:atemp>
            <ns3:hr>140</ns3:hr>
          </ns3:TrackPointExtension>
        </extensions>
      </trkpt>
      <trkpt lat="-22.1189202927052974700927734375" lon="166.4577494747936725616455078125">
        <ele>260.20001220703125</ele>
        <time>2016-08-12T17:51:59.000Z</time>
        <extensions>
          <ns3:TrackPointExtension>
            <ns3:atemp>19.0</ns3:atemp>
            <ns3:hr>140</ns3:hr>
          </ns3:TrackPointExtension>
        </extensions>
      </trkpt>
      <trkpt lat="-22.118912078440189361572265625" lon="166.4577659033238887786865234375">
        <ele>260.600006103515625</ele>
        <time>2016-08-12T17:52:00.000Z</time>
        <extensions>
          <ns3:TrackPointExtension>
            <ns3:atemp>19.0</ns3:atemp>
            <ns3:hr>141</ns3:hr>
          </ns3:TrackPointExtension>
        </extensions>
      </trkpt>
      <trkpt lat="-22.1188995055854320526123046875" lon="166.457781828939914703369140625">
        <ele>261</ele>
        <time>2016-08-12T17:52:01.000Z</time>
        <extensions>
          <ns3:TrackPointExtension>
            <ns3:atemp>19.0</ns3:atemp>
            <ns3:hr>140</ns3:hr>
          </ns3:TrackPointExtension>
        </extensions>
      </trkpt>
      <trkpt lat="-22.1188884414732456207275390625" lon="166.45779968239367008209228515625">
        <ele>261</ele>
        <time>2016-08-12T17:52:02.000Z</time>
        <extensions>
          <ns3:TrackPointExtension>
            <ns3:atemp>19.0</ns3:atemp>
            <ns3:hr>141</ns3:hr>
          </ns3:TrackPointExtension>
        </extensions>
      </trkpt>
      <trkpt lat="-22.118877209722995758056640625" lon="166.45781661383807659149169921875">
        <ele>261.20001220703125</ele>
        <time>2016-08-12T17:52:03.000Z</time>
        <extensions>
          <ns3:TrackPointExtension>
            <ns3:atemp>19.0</ns3:atemp>
            <ns3:hr>141</ns3:hr>
          </ns3:TrackPointExtension>
        </extensions>
      </trkpt>
      <trkpt lat="-22.11886413395404815673828125" lon="166.45783245563507080078125">
        <ele>261.600006103515625</ele>
        <time>2016-08-12T17:52:04.000Z</time>
        <extensions>
          <ns3:TrackPointExtension>
            <ns3:atemp>19.0</ns3:atemp>
            <ns3:hr>141</ns3:hr>
          </ns3:TrackPointExtension>
        </extensions>
      </trkpt>
      <trkpt lat="-22.11885164491832256317138671875" lon="166.4578497223556041717529296875">
        <ele>261.600006103515625</ele>
        <time>2016-08-12T17:52:05.000Z</time>
        <extensions>
          <ns3:TrackPointExtension>
            <ns3:atemp>19.0</ns3:atemp>
            <ns3:hr>141</ns3:hr>
          </ns3:TrackPointExtension>
        </extensions>
      </trkpt>
      <trkpt lat="-22.1188411675393581390380859375" lon="166.45786455832421779632568359375">
        <ele>261.600006103515625</ele>
        <time>2016-08-12T17:52:06.000Z</time>
        <extensions>
          <ns3:TrackPointExtension>
            <ns3:atemp>19.0</ns3:atemp>
            <ns3:hr>142</ns3:hr>
          </ns3:TrackPointExtension>
        </extensions>
      </trkpt>
      <trkpt lat="-22.1188299357891082763671875" lon="166.45788148976862430572509765625">
        <ele>262</ele>
        <time>2016-08-12T17:52:07.000Z</time>
        <extensions>
          <ns3:TrackPointExtension>
            <ns3:atemp>19.0</ns3:atemp>
            <ns3:hr>142</ns3:hr>
          </ns3:TrackPointExtension>
        </extensions>
      </trkpt>
      <trkpt lat="-22.11882147006690502166748046875" lon="166.457902528345584869384765625">
        <ele>262</ele>
        <time>2016-08-12T17:52:08.000Z</time>
        <extensions>
          <ns3:TrackPointExtension>
            <ns3:atemp>19.0</ns3:atemp>
            <ns3:hr>142</ns3:hr>
          </ns3:TrackPointExtension>
        </extensions>
      </trkpt>
      <trkpt lat="-22.11881719529628753662109375" lon="166.45792029798030853271484375">
        <ele>262.20001220703125</ele>
        <time>2016-08-12T17:52:09.000Z</time>
        <extensions>
          <ns3:TrackPointExtension>
            <ns3:atemp>19.0</ns3:atemp>
            <ns3:hr>142</ns3:hr>
          </ns3:TrackPointExtension>
        </extensions>
      </trkpt>
      <trkpt lat="-22.1188089810311794281005859375" lon="166.45793898962438106536865234375">
        <ele>262.399993896484375</ele>
        <time>2016-08-12T17:52:10.000Z</time>
        <extensions>
          <ns3:TrackPointExtension>
            <ns3:atemp>19.0</ns3:atemp>
            <ns3:hr>142</ns3:hr>
          </ns3:TrackPointExtension>
        </extensions>
      </trkpt>
      <trkpt lat="-22.1187982521951198577880859375" lon="166.45795726217329502105712890625">
        <ele>262.399993896484375</ele>
        <time>2016-08-12T17:52:11.000Z</time>
        <extensions>
          <ns3:TrackPointExtension>
            <ns3:atemp>19.0</ns3:atemp>
            <ns3:hr>142</ns3:hr>
          </ns3:TrackPointExtension>
        </extensions>
      </trkpt>
      <trkpt lat="-22.1187912113964557647705078125" lon="166.45797855220735073089599609375">
        <ele>262.399993896484375</ele>
        <time>2016-08-12T17:52:12.000Z</time>
        <extensions>
          <ns3:TrackPointExtension>
            <ns3:atemp>19.0</ns3:atemp>
            <ns3:hr>143</ns3:hr>
          </ns3:TrackPointExtension>
        </extensions>
      </trkpt>
      <trkpt lat="-22.11878945119678974151611328125" lon="166.45799967460334300994873046875">
        <ele>262.600006103515625</ele>
        <time>2016-08-12T17:52:13.000Z</time>
        <extensions>
          <ns3:TrackPointExtension>
            <ns3:atemp>19.0</ns3:atemp>
            <ns3:hr>143</ns3:hr>
          </ns3:TrackPointExtension>
        </extensions>
      </trkpt>
      <trkpt lat="-22.11878425441682338714599609375" lon="166.458018533885478973388671875">
        <ele>262.600006103515625</ele>
        <time>2016-08-12T17:52:14.000Z</time>
        <extensions>
          <ns3:TrackPointExtension>
            <ns3:atemp>19.0</ns3:atemp>
            <ns3:hr>143</ns3:hr>
          </ns3:TrackPointExtension>
        </extensions>
      </trkpt>
      <trkpt lat="-22.118777967989444732666015625" lon="166.45803705789148807525634765625">
        <ele>262.79998779296875</ele>
        <time>2016-08-12T17:52:15.000Z</time>
        <extensions>
          <ns3:TrackPointExtension>
            <ns3:atemp>19.0</ns3:atemp>
            <ns3:hr>143</ns3:hr>
          </ns3:TrackPointExtension>
        </extensions>
      </trkpt>
      <trkpt lat="-22.1187707595527172088623046875" lon="166.45805801264941692352294921875">
        <ele>263.20001220703125</ele>
        <time>2016-08-12T17:52:16.000Z</time>
        <extensions>
          <ns3:TrackPointExtension>
            <ns3:atemp>19.0</ns3:atemp>
            <ns3:hr>142</ns3:hr>
          </ns3:TrackPointExtension>
        </extensions>
      </trkpt>
      <trkpt lat="-22.11876564659178256988525390625" lon="166.45807720720767974853515625">
        <ele>263.399993896484375</ele>
        <time>2016-08-12T17:52:17.000Z</time>
        <extensions>
          <ns3:TrackPointExtension>
            <ns3:atemp>19.0</ns3:atemp>
            <ns3:hr>143</ns3:hr>
          </ns3:TrackPointExtension>
        </extensions>
      </trkpt>
      <trkpt lat="-22.11875592358410358428955078125" lon="166.458097659051418304443359375">
        <ele>263.600006103515625</ele>
        <time>2016-08-12T17:52:18.000Z</time>
        <extensions>
          <ns3:TrackPointExtension>
            <ns3:atemp>19.0</ns3:atemp>
            <ns3:hr>143</ns3:hr>
          </ns3:TrackPointExtension>
        </extensions>
      </trkpt>
      <trkpt lat="-22.11874854750931262969970703125" lon="166.4581202901899814605712890625">
        <ele>263.79998779296875</ele>
        <time>2016-08-12T17:52:19.000Z</time>
        <extensions>
          <ns3:TrackPointExtension>
            <ns3:atemp>19.0</ns3:atemp>
            <ns3:hr>142</ns3:hr>
          </ns3:TrackPointExtension>
        </extensions>
      </trkpt>
      <trkpt lat="-22.1187446080148220062255859375" lon="166.45814166404306888580322265625">
        <ele>264</ele>
        <time>2016-08-12T17:52:20.000Z</time>
        <extensions>
          <ns3:TrackPointExtension>
            <ns3:atemp>19.0</ns3:atemp>
            <ns3:hr>143</ns3:hr>
          </ns3:TrackPointExtension>
        </extensions>
      </trkpt>
      <trkpt lat="-22.11873932741582393646240234375" lon="166.4581632055342197418212890625">
        <ele>264</ele>
        <time>2016-08-12T17:52:21.000Z</time>
        <extensions>
          <ns3:TrackPointExtension>
            <ns3:atemp>19.0</ns3:atemp>
            <ns3:hr>142</ns3:hr>
          </ns3:TrackPointExtension>
        </extensions>
      </trkpt>
      <trkpt lat="-22.118735723197460174560546875" lon="166.45818843506276607513427734375">
        <ele>264.20001220703125</ele>
        <time>2016-08-12T17:52:22.000Z</time>
        <extensions>
          <ns3:TrackPointExtension>
            <ns3:atemp>19.0</ns3:atemp>
            <ns3:hr>142</ns3:hr>
          </ns3:TrackPointExtension>
        </extensions>
      </trkpt>
      <trkpt lat="-22.11873044259846210479736328125" lon="166.458210311830043792724609375">
        <ele>264.399993896484375</ele>
        <time>2016-08-12T17:52:23.000Z</time>
        <extensions>
          <ns3:TrackPointExtension>
            <ns3:atemp>19.0</ns3:atemp>
            <ns3:hr>142</ns3:hr>
          </ns3:TrackPointExtension>
        </extensions>
      </trkpt>
      <trkpt lat="-22.11872197687625885009765625" lon="166.458232440054416656494140625">
        <ele>264.399993896484375</ele>
        <time>2016-08-12T17:52:24.000Z</time>
        <extensions>
          <ns3:TrackPointExtension>
            <ns3:atemp>19.0</ns3:atemp>
            <ns3:hr>142</ns3:hr>
          </ns3:TrackPointExtension>
        </extensions>
      </trkpt>
      <trkpt lat="-22.11871317587792873382568359375" lon="166.4582550711929798126220703125">
        <ele>264.79998779296875</ele>
        <time>2016-08-12T17:52:25.000Z</time>
        <extensions>
          <ns3:TrackPointExtension>
            <ns3:atemp>19.0</ns3:atemp>
            <ns3:hr>142</ns3:hr>
          </ns3:TrackPointExtension>
        </extensions>
      </trkpt>
      <trkpt lat="-22.11870529688894748687744140625" lon="166.4582758583128452301025390625">
        <ele>264.79998779296875</ele>
        <time>2016-08-12T17:52:26.000Z</time>
        <extensions>
          <ns3:TrackPointExtension>
            <ns3:atemp>19.0</ns3:atemp>
            <ns3:hr>142</ns3:hr>
          </ns3:TrackPointExtension>
        </extensions>
      </trkpt>
      <trkpt lat="-22.11869758553802967071533203125" lon="166.458301506936550140380859375">
        <ele>264.79998779296875</ele>
        <time>2016-08-12T17:52:27.000Z</time>
        <extensions>
          <ns3:TrackPointExtension>
            <ns3:atemp>19.0</ns3:atemp>
            <ns3:hr>142</ns3:hr>
          </ns3:TrackPointExtension>
        </extensions>
      </trkpt>
      <trkpt lat="-22.1186896227300167083740234375" lon="166.4583246409893035888671875">
        <ele>265.20001220703125</ele>
        <time>2016-08-12T17:52:28.000Z</time>
        <extensions>
          <ns3:TrackPointExtension>
            <ns3:atemp>19.0</ns3:atemp>
            <ns3:hr>141</ns3:hr>
          </ns3:TrackPointExtension>
        </extensions>
      </trkpt>
      <trkpt lat="-22.11867763660848140716552734375" lon="166.458343751728534698486328125">
        <ele>265.20001220703125</ele>
        <time>2016-08-12T17:52:29.000Z</time>
        <extensions>
          <ns3:TrackPointExtension>
            <ns3:atemp>19.0</ns3:atemp>
            <ns3:hr>141</ns3:hr>
          </ns3:TrackPointExtension>
        </extensions>
      </trkpt>
      <trkpt lat="-22.1186671592295169830322265625" lon="166.4583616890013217926025390625">
        <ele>265.20001220703125</ele>
        <time>2016-08-12T17:52:30.000Z</time>
        <extensions>
          <ns3:TrackPointExtension>
            <ns3:atemp>19.0</ns3:atemp>
            <ns3:hr>141</ns3:hr>
          </ns3:TrackPointExtension>
        </extensions>
      </trkpt>
      <trkpt lat="-22.1186555922031402587890625" lon="166.4583774469792842864990234375">
        <ele>265.600006103515625</ele>
        <time>2016-08-12T17:52:31.000Z</time>
        <extensions>
          <ns3:TrackPointExtension>
            <ns3:atemp>19.0</ns3:atemp>
            <ns3:hr>141</ns3:hr>
          </ns3:TrackPointExtension>
        </extensions>
      </trkpt>
      <trkpt lat="-22.11864125914871692657470703125" lon="166.45839345641434192657470703125">
        <ele>265.600006103515625</ele>
        <time>2016-08-12T17:52:32.000Z</time>
        <extensions>
          <ns3:TrackPointExtension>
            <ns3:atemp>19.0</ns3:atemp>
            <ns3:hr>141</ns3:hr>
          </ns3:TrackPointExtension>
        </extensions>
      </trkpt>
      <trkpt lat="-22.11862541735172271728515625" lon="166.4584126509726047515869140625">
        <ele>265.600006103515625</ele>
        <time>2016-08-12T17:52:33.000Z</time>
        <extensions>
          <ns3:TrackPointExtension>
            <ns3:atemp>19.0</ns3:atemp>
            <ns3:hr>141</ns3:hr>
          </ns3:TrackPointExtension>
        </extensions>
      </trkpt>
      <trkpt lat="-22.11861577816307544708251953125" lon="166.45843016915023326873779296875">
        <ele>266</ele>
        <time>2016-08-12T17:52:34.000Z</time>
        <extensions>
          <ns3:TrackPointExtension>
            <ns3:atemp>19.0</ns3:atemp>
            <ns3:hr>141</ns3:hr>
          </ns3:TrackPointExtension>
        </extensions>
      </trkpt>
      <trkpt lat="-22.11860471405088901519775390625" lon="166.45845003426074981689453125">
        <ele>266.20001220703125</ele>
        <time>2016-08-12T17:52:35.000Z</time>
        <extensions>
          <ns3:TrackPointExtension>
            <ns3:atemp>19.0</ns3:atemp>
            <ns3:hr>142</ns3:hr>
          </ns3:TrackPointExtension>
        </extensions>
      </trkpt>
      <trkpt lat="-22.1185950748622417449951171875" lon="166.45847476087510585784912109375">
        <ele>266.20001220703125</ele>
        <time>2016-08-12T17:52:36.000Z</time>
        <extensions>
          <ns3:TrackPointExtension>
            <ns3:atemp>19.0</ns3:atemp>
            <ns3:hr>142</ns3:hr>
          </ns3:TrackPointExtension>
        </extensions>
      </trkpt>
      <trkpt lat="-22.118589542806148529052734375" lon="166.4584947936236858367919921875">
        <ele>266.399993896484375</ele>
        <time>2016-08-12T17:52:37.000Z</time>
        <extensions>
          <ns3:TrackPointExtension>
            <ns3:atemp>19.0</ns3:atemp>
            <ns3:hr>141</ns3:hr>
          </ns3:TrackPointExtension>
        </extensions>
      </trkpt>
      <trkpt lat="-22.118579484522342681884765625" lon="166.45851532928645610809326171875">
        <ele>266.79998779296875</ele>
        <time>2016-08-12T17:52:38.000Z</time>
        <extensions>
          <ns3:TrackPointExtension>
            <ns3:atemp>19.0</ns3:atemp>
            <ns3:hr>142</ns3:hr>
          </ns3:TrackPointExtension>
        </extensions>
      </trkpt>
      <trkpt lat="-22.11856900714337825775146484375" lon="166.45854081027209758758544921875">
        <ele>266.79998779296875</ele>
        <time>2016-08-12T17:52:39.000Z</time>
        <extensions>
          <ns3:TrackPointExtension>
            <ns3:atemp>19.0</ns3:atemp>
            <ns3:hr>142</ns3:hr>
          </ns3:TrackPointExtension>
        </extensions>
      </trkpt>
      <trkpt lat="-22.118564732372760772705078125" lon="166.4585658721625804901123046875">
        <ele>266.79998779296875</ele>
        <time>2016-08-12T17:52:40.000Z</time>
        <extensions>
          <ns3:TrackPointExtension>
            <ns3:atemp>19.0</ns3:atemp>
            <ns3:hr>142</ns3:hr>
          </ns3:TrackPointExtension>
        </extensions>
      </trkpt>
      <trkpt lat="-22.11856682784855365753173828125" lon="166.45858925767242908477783203125">
        <ele>266.79998779296875</ele>
        <time>2016-08-12T17:52:41.000Z</time>
        <extensions>
          <ns3:TrackPointExtension>
            <ns3:atemp>19.0</ns3:atemp>
            <ns3:hr>142</ns3:hr>
          </ns3:TrackPointExtension>
        </extensions>
      </trkpt>
      <trkpt lat="-22.11856640875339508056640625" lon="166.45860954187810420989990234375">
        <ele>266.79998779296875</ele>
        <time>2016-08-12T17:52:42.000Z</time>
        <extensions>
          <ns3:TrackPointExtension>
            <ns3:atemp>19.0</ns3:atemp>
            <ns3:hr>142</ns3:hr>
          </ns3:TrackPointExtension>
        </extensions>
      </trkpt>
      <trkpt lat="-22.11856146343052387237548828125" lon="166.45862697623670101165771484375">
        <ele>267</ele>
        <time>2016-08-12T17:52:43.000Z</time>
        <extensions>
          <ns3:TrackPointExtension>
            <ns3:atemp>19.0</ns3:atemp>
            <ns3:hr>142</ns3:hr>
          </ns3:TrackPointExtension>
        </extensions>
      </trkpt>
      <trkpt lat="-22.11855408735573291778564453125" lon="166.45864608697593212127685546875">
        <ele>267.399993896484375</ele>
        <time>2016-08-12T17:52:44.000Z</time>
        <extensions>
          <ns3:TrackPointExtension>
            <ns3:atemp>19.0</ns3:atemp>
            <ns3:hr>142</ns3:hr>
          </ns3:TrackPointExtension>
        </extensions>
      </trkpt>
      <trkpt lat="-22.118549980223178863525390625" lon="166.45866955630481243133544921875">
        <ele>267.399993896484375</ele>
        <time>2016-08-12T17:52:45.000Z</time>
        <extensions>
          <ns3:TrackPointExtension>
            <ns3:atemp>19.0</ns3:atemp>
            <ns3:hr>142</ns3:hr>
          </ns3:TrackPointExtension>
        </extensions>
      </trkpt>
      <trkpt lat="-22.11854335851967334747314453125" lon="166.4586912654340267181396484375">
        <ele>267.399993896484375</ele>
        <time>2016-08-12T17:52:46.000Z</time>
        <extensions>
          <ns3:TrackPointExtension>
            <ns3:atemp>19.0</ns3:atemp>
            <ns3:hr>142</ns3:hr>
          </ns3:TrackPointExtension>
        </extensions>
      </trkpt>
      <trkpt lat="-22.1185400895774364471435546875" lon="166.4587123878300189971923828125">
        <ele>267.399993896484375</ele>
        <time>2016-08-12T17:52:47.000Z</time>
        <extensions>
          <ns3:TrackPointExtension>
            <ns3:atemp>19.0</ns3:atemp>
            <ns3:hr>142</ns3:hr>
          </ns3:TrackPointExtension>
        </extensions>
      </trkpt>
      <trkpt lat="-22.11853397078812122344970703125" lon="166.4587323367595672607421875">
        <ele>267.399993896484375</ele>
        <time>2016-08-12T17:52:48.000Z</time>
        <extensions>
          <ns3:TrackPointExtension>
            <ns3:atemp>19.0</ns3:atemp>
            <ns3:hr>143</ns3:hr>
          </ns3:TrackPointExtension>
        </extensions>
      </trkpt>
      <trkpt lat="-22.11852349340915679931640625" lon="166.45874918438494205474853515625">
        <ele>267.600006103515625</ele>
        <time>2016-08-12T17:52:49.000Z</time>
        <extensions>
          <ns3:TrackPointExtension>
            <ns3:atemp>19.0</ns3:atemp>
            <ns3:hr>142</ns3:hr>
          </ns3:TrackPointExtension>
        </extensions>
      </trkpt>
      <trkpt lat="-22.11850832216441631317138671875" lon="166.4587672054767608642578125">
        <ele>268</ele>
        <time>2016-08-12T17:52:50.000Z</time>
        <extensions>
          <ns3:TrackPointExtension>
            <ns3:atemp>19.0</ns3:atemp>
            <ns3:hr>142</ns3:hr>
          </ns3:TrackPointExtension>
        </extensions>
      </trkpt>
      <trkpt lat="-22.11849239654839038848876953125" lon="166.45878723822534084320068359375">
        <ele>268.399993896484375</ele>
        <time>2016-08-12T17:52:51.000Z</time>
        <extensions>
          <ns3:TrackPointExtension>
            <ns3:atemp>19.0</ns3:atemp>
            <ns3:hr>142</ns3:hr>
          </ns3:TrackPointExtension>
        </extensions>
      </trkpt>
      <trkpt lat="-22.11846984922885894775390625" lon="166.45880618132650852203369140625">
        <ele>268.600006103515625</ele>
        <time>2016-08-12T17:52:52.000Z</time>
        <extensions>
          <ns3:TrackPointExtension>
            <ns3:atemp>19.0</ns3:atemp>
            <ns3:hr>142</ns3:hr>
          </ns3:TrackPointExtension>
        </extensions>
      </trkpt>
      <trkpt lat="-22.11844679899513721466064453125" lon="166.4588247053325176239013671875">
        <ele>268.79998779296875</ele>
        <time>2016-08-12T17:52:53.000Z</time>
        <extensions>
          <ns3:TrackPointExtension>
            <ns3:atemp>19.0</ns3:atemp>
            <ns3:hr>142</ns3:hr>
          </ns3:TrackPointExtension>
        </extensions>
      </trkpt>
      <trkpt lat="-22.11842869408428668975830078125" lon="166.45884222351014614105224609375">
        <ele>269</ele>
        <time>2016-08-12T17:52:54.000Z</time>
        <extensions>
          <ns3:TrackPointExtension>
            <ns3:atemp>19.0</ns3:atemp>
            <ns3:hr>142</ns3:hr>
          </ns3:TrackPointExtension>
        </extensions>
      </trkpt>
      <trkpt lat="-22.118421234190464019775390625" lon="166.45885529927909374237060546875">
        <ele>269.399993896484375</ele>
        <time>2016-08-12T17:52:55.000Z</time>
        <extensions>
          <ns3:TrackPointExtension>
            <ns3:atemp>19.0</ns3:atemp>
            <ns3:hr>142</ns3:hr>
          </ns3:TrackPointExtension>
        </extensions>
      </trkpt>
      <trkpt lat="-22.11840874515473842620849609375" lon="166.4588664472103118896484375">
        <ele>269.600006103515625</ele>
        <time>2016-08-12T17:52:56.000Z</time>
        <extensions>
          <ns3:TrackPointExtension>
            <ns3:atemp>19.0</ns3:atemp>
            <ns3:hr>141</ns3:hr>
          </ns3:TrackPointExtension>
        </extensions>
      </trkpt>
      <trkpt lat="-22.11839231662452220916748046875" lon="166.4588790200650691986083984375">
        <ele>269.600006103515625</ele>
        <time>2016-08-12T17:52:57.000Z</time>
        <extensions>
          <ns3:TrackPointExtension>
            <ns3:atemp>19.0</ns3:atemp>
            <ns3:hr>141</ns3:hr>
          </ns3:TrackPointExtension>
        </extensions>
      </trkpt>
      <trkpt lat="-22.11837504990398883819580078125" lon="166.45889301784336566925048828125">
        <ele>270</ele>
        <time>2016-08-12T17:52:58.000Z</time>
        <extensions>
          <ns3:TrackPointExtension>
            <ns3:atemp>19.0</ns3:atemp>
            <ns3:hr>141</ns3:hr>
          </ns3:TrackPointExtension>
        </extensions>
      </trkpt>
      <trkpt lat="-22.11836256086826324462890625" lon="166.45890542306005954742431640625">
        <ele>270</ele>
        <time>2016-08-12T17:52:59.000Z</time>
        <extensions>
          <ns3:TrackPointExtension>
            <ns3:atemp>19.0</ns3:atemp>
            <ns3:hr>141</ns3:hr>
          </ns3:TrackPointExtension>
        </extensions>
      </trkpt>
      <trkpt lat="-22.1183456294238567352294921875" lon="166.45891900174319744110107421875">
        <ele>270</ele>
        <time>2016-08-12T17:53:00.000Z</time>
        <extensions>
          <ns3:TrackPointExtension>
            <ns3:atemp>19.0</ns3:atemp>
            <ns3:hr>141</ns3:hr>
          </ns3:TrackPointExtension>
        </extensions>
      </trkpt>
      <trkpt lat="-22.1183278597891330718994140625" lon="166.4589329995214939117431640625">
        <ele>270.20001220703125</ele>
        <time>2016-08-12T17:53:01.000Z</time>
        <extensions>
          <ns3:TrackPointExtension>
            <ns3:atemp>19.0</ns3:atemp>
            <ns3:hr>142</ns3:hr>
          </ns3:TrackPointExtension>
        </extensions>
      </trkpt>
      <trkpt lat="-22.11831017397344112396240234375" lon="166.4589457400143146514892578125">
        <ele>270.600006103515625</ele>
        <time>2016-08-12T17:53:02.000Z</time>
        <extensions>
          <ns3:TrackPointExtension>
            <ns3:atemp>19.0</ns3:atemp>
            <ns3:hr>142</ns3:hr>
          </ns3:TrackPointExtension>
        </extensions>
      </trkpt>
      <trkpt lat="-22.118295170366764068603515625" lon="166.458958648145198822021484375">
        <ele>270.600006103515625</ele>
        <time>2016-08-12T17:53:03.000Z</time>
        <extensions>
          <ns3:TrackPointExtension>
            <ns3:atemp>19.0</ns3:atemp>
            <ns3:hr>142</ns3:hr>
          </ns3:TrackPointExtension>
        </extensions>
      </trkpt>
      <trkpt lat="-22.118276394903659820556640625" lon="166.45896635949611663818359375">
        <ele>270.79998779296875</ele>
        <time>2016-08-12T17:53:04.000Z</time>
        <extensions>
          <ns3:TrackPointExtension>
            <ns3:atemp>19.0</ns3:atemp>
            <ns3:hr>142</ns3:hr>
          </ns3:TrackPointExtension>
        </extensions>
      </trkpt>
      <trkpt lat="-22.11825435049831867218017578125" lon="166.45897733978927135467529296875">
        <ele>271.20001220703125</ele>
        <time>2016-08-12T17:53:05.000Z</time>
        <extensions>
          <ns3:TrackPointExtension>
            <ns3:atemp>19.0</ns3:atemp>
            <ns3:hr>142</ns3:hr>
          </ns3:TrackPointExtension>
        </extensions>
      </trkpt>
      <trkpt lat="-22.11823641322553157806396484375" lon="166.45899125374853610992431640625">
        <ele>271.399993896484375</ele>
        <time>2016-08-12T17:53:06.000Z</time>
        <extensions>
          <ns3:TrackPointExtension>
            <ns3:atemp>19.0</ns3:atemp>
            <ns3:hr>142</ns3:hr>
          </ns3:TrackPointExtension>
        </extensions>
      </trkpt>
      <trkpt lat="-22.11822954006493091583251953125" lon="166.45901036448776721954345703125">
        <ele>271.20001220703125</ele>
        <time>2016-08-12T17:53:07.000Z</time>
        <extensions>
          <ns3:TrackPointExtension>
            <ns3:atemp>19.0</ns3:atemp>
            <ns3:hr>142</ns3:hr>
          </ns3:TrackPointExtension>
        </extensions>
      </trkpt>
      <trkpt lat="-22.11821906268596649169921875" lon="166.4590235240757465362548828125">
        <ele>271.399993896484375</ele>
        <time>2016-08-12T17:53:08.000Z</time>
        <extensions>
          <ns3:TrackPointExtension>
            <ns3:atemp>19.0</ns3:atemp>
            <ns3:hr>143</ns3:hr>
          </ns3:TrackPointExtension>
        </extensions>
      </trkpt>
      <trkpt lat="-22.1182118542492389678955078125" lon="166.45903584547340869903564453125">
        <ele>271.399993896484375</ele>
        <time>2016-08-12T17:53:09.000Z</time>
        <extensions>
          <ns3:TrackPointExtension>
            <ns3:atemp>19.0</ns3:atemp>
            <ns3:hr>143</ns3:hr>
          </ns3:TrackPointExtension>
        </extensions>
      </trkpt>
      <trkpt lat="-22.11819584481418132781982421875" lon="166.45905126817524433135986328125">
        <ele>271.600006103515625</ele>
        <time>2016-08-12T17:53:10.000Z</time>
        <extensions>
          <ns3:TrackPointExtension>
            <ns3:atemp>19.0</ns3:atemp>
            <ns3:hr>143</ns3:hr>
          </ns3:TrackPointExtension>
        </extensions>
      </trkpt>
      <trkpt lat="-22.1181793324649333953857421875" lon="166.45906266756355762481689453125">
        <ele>271.79998779296875</ele>
        <time>2016-08-12T17:53:11.000Z</time>
        <extensions>
          <ns3:TrackPointExtension>
            <ns3:atemp>19.0</ns3:atemp>
            <ns3:hr>143</ns3:hr>
          </ns3:TrackPointExtension>
        </extensions>
      </trkpt>
      <trkpt lat="-22.1181618981063365936279296875" lon="166.4590744860470294952392578125">
        <ele>272</ele>
        <time>2016-08-12T17:53:12.000Z</time>
        <extensions>
          <ns3:TrackPointExtension>
            <ns3:atemp>19.0</ns3:atemp>
            <ns3:hr>143</ns3:hr>
          </ns3:TrackPointExtension>
        </extensions>
      </trkpt>
      <trkpt lat="-22.1181481517851352691650390625" lon="166.45908764563500881195068359375">
        <ele>272</ele>
        <time>2016-08-12T17:53:13.000Z</time>
        <extensions>
          <ns3:TrackPointExtension>
            <ns3:atemp>19.0</ns3:atemp>
            <ns3:hr>143</ns3:hr>
          </ns3:TrackPointExtension>
        </extensions>
      </trkpt>
      <trkpt lat="-22.1181320585310459136962890625" lon="166.45910206250846385955810546875">
        <ele>272.20001220703125</ele>
        <time>2016-08-12T17:53:14.000Z</time>
        <extensions>
          <ns3:TrackPointExtension>
            <ns3:atemp>19.0</ns3:atemp>
            <ns3:hr>143</ns3:hr>
          </ns3:TrackPointExtension>
        </extensions>
      </trkpt>
      <trkpt lat="-22.118114791810512542724609375" lon="166.4591239392757415771484375">
        <ele>272.600006103515625</ele>
        <time>2016-08-12T17:53:15.000Z</time>
        <extensions>
          <ns3:TrackPointExtension>
            <ns3:atemp>19.0</ns3:atemp>
            <ns3:hr>143</ns3:hr>
          </ns3:TrackPointExtension>
        </extensions>
      </trkpt>
      <trkpt lat="-22.1181012131273746490478515625" lon="166.45914682187139987945556640625">
        <ele>272.79998779296875</ele>
        <time>2016-08-12T17:53:16.000Z</time>
        <extensions>
          <ns3:TrackPointExtension>
            <ns3:atemp>19.0</ns3:atemp>
            <ns3:hr>143</ns3:hr>
          </ns3:TrackPointExtension>
        </extensions>
      </trkpt>
      <trkpt lat="-22.11808763444423675537109375" lon="166.45916509442031383514404296875">
        <ele>272.600006103515625</ele>
        <time>2016-08-12T17:53:17.000Z</time>
        <extensions>
          <ns3:TrackPointExtension>
            <ns3:atemp>19.0</ns3:atemp>
            <ns3:hr>143</ns3:hr>
          </ns3:TrackPointExtension>
        </extensions>
      </trkpt>
      <trkpt lat="-22.1180696971714496612548828125" lon="166.4591837860643863677978515625">
        <ele>273</ele>
        <time>2016-08-12T17:53:18.000Z</time>
        <extensions>
          <ns3:TrackPointExtension>
            <ns3:atemp>19.0</ns3:atemp>
            <ns3:hr>143</ns3:hr>
          </ns3:TrackPointExtension>
        </extensions>
      </trkpt>
      <trkpt lat="-22.118059806525707244873046875" lon="166.45919912494719028472900390625">
        <ele>273</ele>
        <time>2016-08-12T17:53:19.000Z</time>
        <extensions>
          <ns3:TrackPointExtension>
            <ns3:atemp>19.0</ns3:atemp>
            <ns3:hr>143</ns3:hr>
          </ns3:TrackPointExtension>
        </extensions>
      </trkpt>
      <trkpt lat="-22.1180509217083454132080078125" lon="166.45921639166772365570068359375">
        <ele>273</ele>
        <time>2016-08-12T17:53:20.000Z</time>
        <extensions>
          <ns3:TrackPointExtension>
            <ns3:atemp>19.0</ns3:atemp>
            <ns3:hr>143</ns3:hr>
          </ns3:TrackPointExtension>
        </extensions>
      </trkpt>
      <trkpt lat="-22.118040025234222412109375" lon="166.4592381007969379425048828125">
        <ele>273.20001220703125</ele>
        <time>2016-08-12T17:53:21.000Z</time>
        <extensions>
          <ns3:TrackPointExtension>
            <ns3:atemp>19.0</ns3:atemp>
            <ns3:hr>144</ns3:hr>
          </ns3:TrackPointExtension>
        </extensions>
      </trkpt>
      <trkpt lat="-22.118028290569782257080078125" lon="166.4592588879168033599853515625">
        <ele>273.399993896484375</ele>
        <time>2016-08-12T17:53:22.000Z</time>
        <extensions>
          <ns3:TrackPointExtension>
            <ns3:atemp>19.0</ns3:atemp>
            <ns3:hr>144</ns3:hr>
          </ns3:TrackPointExtension>
        </extensions>
      </trkpt>
      <trkpt lat="-22.11801865138113498687744140625" lon="166.45927992649376392364501953125">
        <ele>273.600006103515625</ele>
        <time>2016-08-12T17:53:23.000Z</time>
        <extensions>
          <ns3:TrackPointExtension>
            <ns3:atemp>19.0</ns3:atemp>
            <ns3:hr>144</ns3:hr>
          </ns3:TrackPointExtension>
        </extensions>
      </trkpt>
      <trkpt lat="-22.118009515106678009033203125" lon="166.45930289290845394134521484375">
        <ele>273.600006103515625</ele>
        <time>2016-08-12T17:53:24.000Z</time>
        <extensions>
          <ns3:TrackPointExtension>
            <ns3:atemp>19.0</ns3:atemp>
            <ns3:hr>144</ns3:hr>
          </ns3:TrackPointExtension>
        </extensions>
      </trkpt>
      <trkpt lat="-22.11800725199282169342041015625" lon="166.459325440227985382080078125">
        <ele>274</ele>
        <time>2016-08-12T17:53:25.000Z</time>
        <extensions>
          <ns3:TrackPointExtension>
            <ns3:atemp>19.0</ns3:atemp>
            <ns3:hr>144</ns3:hr>
          </ns3:TrackPointExtension>
        </extensions>
      </trkpt>
      <trkpt lat="-22.11800104938447475433349609375" lon="166.45934991538524627685546875">
        <ele>274</ele>
        <time>2016-08-12T17:53:26.000Z</time>
        <extensions>
          <ns3:TrackPointExtension>
            <ns3:atemp>19.0</ns3:atemp>
            <ns3:hr>143</ns3:hr>
          </ns3:TrackPointExtension>
        </extensions>
      </trkpt>
      <trkpt lat="-22.11799233220517635345458984375" lon="166.45937397144734859466552734375">
        <ele>274</ele>
        <time>2016-08-12T17:53:27.000Z</time>
        <extensions>
          <ns3:TrackPointExtension>
            <ns3:atemp>19.0</ns3:atemp>
            <ns3:hr>144</ns3:hr>
          </ns3:TrackPointExtension>
        </extensions>
      </trkpt>
      <trkpt lat="-22.117989063262939453125" lon="166.45939392037689685821533203125">
        <ele>274.399993896484375</ele>
        <time>2016-08-12T17:53:28.000Z</time>
        <extensions>
          <ns3:TrackPointExtension>
            <ns3:atemp>19.0</ns3:atemp>
            <ns3:hr>144</ns3:hr>
          </ns3:TrackPointExtension>
        </extensions>
      </trkpt>
      <trkpt lat="-22.11797707714140415191650390625" lon="166.459417641162872314453125">
        <ele>274.600006103515625</ele>
        <time>2016-08-12T17:53:29.000Z</time>
        <extensions>
          <ns3:TrackPointExtension>
            <ns3:atemp>19.0</ns3:atemp>
            <ns3:hr>143</ns3:hr>
          </ns3:TrackPointExtension>
        </extensions>
      </trkpt>
      <trkpt lat="-22.117968611419200897216796875" lon="166.4594364166259765625">
        <ele>274.600006103515625</ele>
        <time>2016-08-12T17:53:30.000Z</time>
        <extensions>
          <ns3:TrackPointExtension>
            <ns3:atemp>19.0</ns3:atemp>
            <ns3:hr>144</ns3:hr>
          </ns3:TrackPointExtension>
        </extensions>
      </trkpt>
      <trkpt lat="-22.1179640851914882659912109375" lon="166.45945427007973194122314453125">
        <ele>274.79998779296875</ele>
        <time>2016-08-12T17:53:31.000Z</time>
        <extensions>
          <ns3:TrackPointExtension>
            <ns3:atemp>19.0</ns3:atemp>
            <ns3:hr>144</ns3:hr>
          </ns3:TrackPointExtension>
        </extensions>
      </trkpt>
      <trkpt lat="-22.11795360781252384185791015625" lon="166.459478326141834259033203125">
        <ele>275.20001220703125</ele>
        <time>2016-08-12T17:53:32.000Z</time>
        <extensions>
          <ns3:TrackPointExtension>
            <ns3:atemp>19.0</ns3:atemp>
            <ns3:hr>143</ns3:hr>
          </ns3:TrackPointExtension>
        </extensions>
      </trkpt>
      <trkpt lat="-22.1179526858031749725341796875" lon="166.45949743688106536865234375">
        <ele>275</ele>
        <time>2016-08-12T17:53:33.000Z</time>
        <extensions>
          <ns3:TrackPointExtension>
            <ns3:atemp>19.0</ns3:atemp>
            <ns3:hr>144</ns3:hr>
          </ns3:TrackPointExtension>
        </extensions>
      </trkpt>
      <trkpt lat="-22.1179459802806377410888671875" lon="166.45952065475285053253173828125">
        <ele>275.399993896484375</ele>
        <time>2016-08-12T17:53:34.000Z</time>
        <extensions>
          <ns3:TrackPointExtension>
            <ns3:atemp>19.0</ns3:atemp>
            <ns3:hr>144</ns3:hr>
          </ns3:TrackPointExtension>
        </extensions>
      </trkpt>
      <trkpt lat="-22.11793206632137298583984375" lon="166.4595450460910797119140625">
        <ele>275.600006103515625</ele>
        <time>2016-08-12T17:53:35.000Z</time>
        <extensions>
          <ns3:TrackPointExtension>
            <ns3:atemp>19.0</ns3:atemp>
            <ns3:hr>144</ns3:hr>
          </ns3:TrackPointExtension>
        </extensions>
      </trkpt>
      <trkpt lat="-22.11792008019983768463134765625" lon="166.4595643244683742523193359375">
        <ele>275.79998779296875</ele>
        <time>2016-08-12T17:53:36.000Z</time>
        <extensions>
          <ns3:TrackPointExtension>
            <ns3:atemp>19.0</ns3:atemp>
            <ns3:hr>144</ns3:hr>
          </ns3:TrackPointExtension>
        </extensions>
      </trkpt>
      <trkpt lat="-22.1179084293544292449951171875" lon="166.45958318375051021575927734375">
        <ele>275.79998779296875</ele>
        <time>2016-08-12T17:53:37.000Z</time>
        <extensions>
          <ns3:TrackPointExtension>
            <ns3:atemp>19.0</ns3:atemp>
            <ns3:hr>144</ns3:hr>
          </ns3:TrackPointExtension>
        </extensions>
      </trkpt>
      <trkpt lat="-22.11789627559483051300048828125" lon="166.4596038870513439178466796875">
        <ele>276.20001220703125</ele>
        <time>2016-08-12T17:53:38.000Z</time>
        <extensions>
          <ns3:TrackPointExtension>
            <ns3:atemp>19.0</ns3:atemp>
            <ns3:hr>144</ns3:hr>
          </ns3:TrackPointExtension>
        </extensions>
      </trkpt>
      <trkpt lat="-22.1178920008242130279541015625" lon="166.45961922593414783477783203125">
        <ele>276.399993896484375</ele>
        <time>2016-08-12T17:53:39.000Z</time>
        <extensions>
          <ns3:TrackPointExtension>
            <ns3:atemp>19.0</ns3:atemp>
            <ns3:hr>143</ns3:hr>
          </ns3:TrackPointExtension>
        </extensions>
      </trkpt>
      <trkpt lat="-22.11788001470267772674560546875" lon="166.45963716320693492889404296875">
        <ele>276.399993896484375</ele>
        <time>2016-08-12T17:53:40.000Z</time>
        <extensions>
          <ns3:TrackPointExtension>
            <ns3:atemp>19.0</ns3:atemp>
            <ns3:hr>144</ns3:hr>
          </ns3:TrackPointExtension>
        </extensions>
      </trkpt>
      <trkpt lat="-22.1178735606372356414794921875" lon="166.45965476520359516143798828125">
        <ele>276.79998779296875</ele>
        <time>2016-08-12T17:53:41.000Z</time>
        <extensions>
          <ns3:TrackPointExtension>
            <ns3:atemp>19.0</ns3:atemp>
            <ns3:hr>144</ns3:hr>
          </ns3:TrackPointExtension>
        </extensions>
      </trkpt>
      <trkpt lat="-22.1178692020475864410400390625" lon="166.459671445190906524658203125">
        <ele>277</ele>
        <time>2016-08-12T17:53:42.000Z</time>
        <extensions>
          <ns3:TrackPointExtension>
            <ns3:atemp>19.0</ns3:atemp>
            <ns3:hr>144</ns3:hr>
          </ns3:TrackPointExtension>
        </extensions>
      </trkpt>
      <trkpt lat="-22.11785486899316310882568359375" lon="166.45969164557754993438720703125">
        <ele>277</ele>
        <time>2016-08-12T17:53:43.000Z</time>
        <extensions>
          <ns3:TrackPointExtension>
            <ns3:atemp>19.0</ns3:atemp>
            <ns3:hr>144</ns3:hr>
          </ns3:TrackPointExtension>
        </extensions>
      </trkpt>
      <trkpt lat="-22.11785553954541683197021484375" lon="166.459707319736480712890625">
        <ele>277.20001220703125</ele>
        <time>2016-08-12T17:53:44.000Z</time>
        <extensions>
          <ns3:TrackPointExtension>
            <ns3:atemp>19.0</ns3:atemp>
            <ns3:hr>144</ns3:hr>
          </ns3:TrackPointExtension>
        </extensions>
      </trkpt>
      <trkpt lat="-22.1178482472896575927734375" lon="166.459725089371204376220703125">
        <ele>277.600006103515625</ele>
        <time>2016-08-12T17:53:45.000Z</time>
        <extensions>
          <ns3:TrackPointExtension>
            <ns3:atemp>19.0</ns3:atemp>
            <ns3:hr>143</ns3:hr>
          </ns3:TrackPointExtension>
        </extensions>
      </trkpt>
      <trkpt lat="-22.1178360097110271453857421875" lon="166.4597450383007526397705078125">
        <ele>277.600006103515625</ele>
        <time>2016-08-12T17:53:46.000Z</time>
        <extensions>
          <ns3:TrackPointExtension>
            <ns3:atemp>19.0</ns3:atemp>
            <ns3:hr>144</ns3:hr>
          </ns3:TrackPointExtension>
        </extensions>
      </trkpt>
      <trkpt lat="-22.11782838217914104461669921875" lon="166.45976238884031772613525390625">
        <ele>277.600006103515625</ele>
        <time>2016-08-12T17:53:47.000Z</time>
        <extensions>
          <ns3:TrackPointExtension>
            <ns3:atemp>19.0</ns3:atemp>
            <ns3:hr>144</ns3:hr>
          </ns3:TrackPointExtension>
        </extensions>
      </trkpt>
      <trkpt lat="-22.11781715042889118194580078125" lon="166.459784097969532012939453125">
        <ele>277.79998779296875</ele>
        <time>2016-08-12T17:53:48.000Z</time>
        <extensions>
          <ns3:TrackPointExtension>
            <ns3:atemp>19.0</ns3:atemp>
            <ns3:hr>143</ns3:hr>
          </ns3:TrackPointExtension>
        </extensions>
      </trkpt>
      <trkpt lat="-22.11781136691570281982421875" lon="166.45980496890842914581298828125">
        <ele>277.79998779296875</ele>
        <time>2016-08-12T17:53:49.000Z</time>
        <extensions>
          <ns3:TrackPointExtension>
            <ns3:atemp>19.0</ns3:atemp>
            <ns3:hr>143</ns3:hr>
          </ns3:TrackPointExtension>
        </extensions>
      </trkpt>
      <trkpt lat="-22.1178081817924976348876953125" lon="166.45982273854315280914306640625">
        <ele>277.79998779296875</ele>
        <time>2016-08-12T17:53:50.000Z</time>
        <extensions>
          <ns3:TrackPointExtension>
            <ns3:atemp>19.0</ns3:atemp>
            <ns3:hr>144</ns3:hr>
          </ns3:TrackPointExtension>
        </extensions>
      </trkpt>
      <trkpt lat="-22.11779686622321605682373046875" lon="166.4598439447581768035888671875">
        <ele>278.20001220703125</ele>
        <time>2016-08-12T17:53:51.000Z</time>
        <extensions>
          <ns3:TrackPointExtension>
            <ns3:atemp>19.0</ns3:atemp>
            <ns3:hr>143</ns3:hr>
          </ns3:TrackPointExtension>
        </extensions>
      </trkpt>
      <trkpt lat="-22.11778848432004451751708984375" lon="166.4598669111728668212890625">
        <ele>278.399993896484375</ele>
        <time>2016-08-12T17:53:52.000Z</time>
        <extensions>
          <ns3:TrackPointExtension>
            <ns3:atemp>19.0</ns3:atemp>
            <ns3:hr>143</ns3:hr>
          </ns3:TrackPointExtension>
        </extensions>
      </trkpt>
      <trkpt lat="-22.11778563447296619415283203125" lon="166.4598871953785419464111328125">
        <ele>278.399993896484375</ele>
        <time>2016-08-12T17:53:53.000Z</time>
        <extensions>
          <ns3:TrackPointExtension>
            <ns3:atemp>19.0</ns3:atemp>
            <ns3:hr>144</ns3:hr>
          </ns3:TrackPointExtension>
        </extensions>
      </trkpt>
      <trkpt lat="-22.11777993477880954742431640625" lon="166.45991141907870769500732421875">
        <ele>279</ele>
        <time>2016-08-12T17:53:54.000Z</time>
        <extensions>
          <ns3:TrackPointExtension>
            <ns3:atemp>19.0</ns3:atemp>
            <ns3:hr>143</ns3:hr>
          </ns3:TrackPointExtension>
        </extensions>
      </trkpt>
      <trkpt lat="-22.1177783422172069549560546875" lon="166.4599321223795413970947265625">
        <ele>279.20001220703125</ele>
        <time>2016-08-12T17:53:55.000Z</time>
        <extensions>
          <ns3:TrackPointExtension>
            <ns3:atemp>19.0</ns3:atemp>
            <ns3:hr>143</ns3:hr>
          </ns3:TrackPointExtension>
        </extensions>
      </trkpt>
      <trkpt lat="-22.1177763305604457855224609375" lon="166.4599529094994068145751953125">
        <ele>279</ele>
        <time>2016-08-12T17:53:56.000Z</time>
        <extensions>
          <ns3:TrackPointExtension>
            <ns3:atemp>19.0</ns3:atemp>
            <ns3:hr>144</ns3:hr>
          </ns3:TrackPointExtension>
        </extensions>
      </trkpt>
      <trkpt lat="-22.11777909658849239349365234375" lon="166.4599797315895557403564453125">
        <ele>279.20001220703125</ele>
        <time>2016-08-12T17:53:57.000Z</time>
        <extensions>
          <ns3:TrackPointExtension>
            <ns3:atemp>19.0</ns3:atemp>
            <ns3:hr>143</ns3:hr>
          </ns3:TrackPointExtension>
        </extensions>
      </trkpt>
      <trkpt lat="-22.11778161115944385528564453125" lon="166.4600005187094211578369140625">
        <ele>279.399993896484375</ele>
        <time>2016-08-12T17:53:58.000Z</time>
        <extensions>
          <ns3:TrackPointExtension>
            <ns3:atemp>19.0</ns3:atemp>
            <ns3:hr>143</ns3:hr>
          </ns3:TrackPointExtension>
        </extensions>
      </trkpt>
      <trkpt lat="-22.11778261698782444000244140625" lon="166.46002390421926975250244140625">
        <ele>279.20001220703125</ele>
        <time>2016-08-12T17:53:59.000Z</time>
        <extensions>
          <ns3:TrackPointExtension>
            <ns3:atemp>19.0</ns3:atemp>
            <ns3:hr>144</ns3:hr>
          </ns3:TrackPointExtension>
        </extensions>
      </trkpt>
      <trkpt lat="-22.11778429336845874786376953125" lon="166.46004854701459407806396484375">
        <ele>279.600006103515625</ele>
        <time>2016-08-12T17:54:00.000Z</time>
        <extensions>
          <ns3:TrackPointExtension>
            <ns3:atemp>19.0</ns3:atemp>
            <ns3:hr>143</ns3:hr>
          </ns3:TrackPointExtension>
        </extensions>
      </trkpt>
      <trkpt lat="-22.117782868444919586181640625" lon="166.46006983704864978790283203125">
        <ele>280</ele>
        <time>2016-08-12T17:54:01.000Z</time>
        <extensions>
          <ns3:TrackPointExtension>
            <ns3:atemp>19.0</ns3:atemp>
            <ns3:hr>143</ns3:hr>
          </ns3:TrackPointExtension>
        </extensions>
      </trkpt>
      <trkpt lat="-22.11778278462588787078857421875" lon="166.4600923843681812286376953125">
        <ele>280</ele>
        <time>2016-08-12T17:54:02.000Z</time>
        <extensions>
          <ns3:TrackPointExtension>
            <ns3:atemp>19.0</ns3:atemp>
            <ns3:hr>143</ns3:hr>
          </ns3:TrackPointExtension>
        </extensions>
      </trkpt>
      <trkpt lat="-22.11778546683490276336669921875" lon="166.46011929027736186981201171875">
        <ele>280</ele>
        <time>2016-08-12T17:54:03.000Z</time>
        <extensions>
          <ns3:TrackPointExtension>
            <ns3:atemp>19.0</ns3:atemp>
            <ns3:hr>143</ns3:hr>
          </ns3:TrackPointExtension>
        </extensions>
      </trkpt>
      <trkpt lat="-22.11778454482555389404296875" lon="166.46014343015849590301513671875">
        <ele>280.399993896484375</ele>
        <time>2016-08-12T17:54:04.000Z</time>
        <extensions>
          <ns3:TrackPointExtension>
            <ns3:atemp>19.0</ns3:atemp>
            <ns3:hr>143</ns3:hr>
          </ns3:TrackPointExtension>
        </extensions>
      </trkpt>
      <trkpt lat="-22.11778529919683933258056640625" lon="166.460168324410915374755859375">
        <ele>280.399993896484375</ele>
        <time>2016-08-12T17:54:05.000Z</time>
        <extensions>
          <ns3:TrackPointExtension>
            <ns3:atemp>19.0</ns3:atemp>
            <ns3:hr>143</ns3:hr>
          </ns3:TrackPointExtension>
        </extensions>
      </trkpt>
      <trkpt lat="-22.11778898723423480987548828125" lon="166.4601956494152545928955078125">
        <ele>280.600006103515625</ele>
        <time>2016-08-12T17:54:06.000Z</time>
        <extensions>
          <ns3:TrackPointExtension>
            <ns3:atemp>19.0</ns3:atemp>
            <ns3:hr>143</ns3:hr>
          </ns3:TrackPointExtension>
        </extensions>
      </trkpt>
      <trkpt lat="-22.11779720149934291839599609375" lon="166.460217945277690887451171875">
        <ele>281</ele>
        <time>2016-08-12T17:54:07.000Z</time>
        <extensions>
          <ns3:TrackPointExtension>
            <ns3:atemp>19.0</ns3:atemp>
            <ns3:hr>143</ns3:hr>
          </ns3:TrackPointExtension>
        </extensions>
      </trkpt>
      <trkpt lat="-22.11780575104057788848876953125" lon="166.46024066023528575897216796875">
        <ele>281</ele>
        <time>2016-08-12T17:54:08.000Z</time>
        <extensions>
          <ns3:TrackPointExtension>
            <ns3:atemp>19.0</ns3:atemp>
            <ns3:hr>143</ns3:hr>
          </ns3:TrackPointExtension>
        </extensions>
      </trkpt>
      <trkpt lat="-22.1178152225911617279052734375" lon="166.4602657221257686614990234375">
        <ele>281.20001220703125</ele>
        <time>2016-08-12T17:54:09.000Z</time>
        <extensions>
          <ns3:TrackPointExtension>
            <ns3:atemp>19.0</ns3:atemp>
            <ns3:hr>143</ns3:hr>
          </ns3:TrackPointExtension>
        </extensions>
      </trkpt>
      <trkpt lat="-22.1178202517330646514892578125" lon="166.4602858386933803558349609375">
        <ele>281.399993896484375</ele>
        <time>2016-08-12T17:54:10.000Z</time>
        <extensions>
          <ns3:TrackPointExtension>
            <ns3:atemp>19.0</ns3:atemp>
            <ns3:hr>143</ns3:hr>
          </ns3:TrackPointExtension>
        </extensions>
      </trkpt>
      <trkpt lat="-22.11782301776111125946044921875" lon="166.46030972711741924285888671875">
        <ele>281.399993896484375</ele>
        <time>2016-08-12T17:54:11.000Z</time>
        <extensions>
          <ns3:TrackPointExtension>
            <ns3:atemp>19.0</ns3:atemp>
            <ns3:hr>142</ns3:hr>
          </ns3:TrackPointExtension>
        </extensions>
      </trkpt>
      <trkpt lat="-22.11782880127429962158203125" lon="166.46033420227468013763427734375">
        <ele>281.79998779296875</ele>
        <time>2016-08-12T17:54:12.000Z</time>
        <extensions>
          <ns3:TrackPointExtension>
            <ns3:atemp>19.0</ns3:atemp>
            <ns3:hr>143</ns3:hr>
          </ns3:TrackPointExtension>
        </extensions>
      </trkpt>
      <trkpt lat="-22.11783860810101032257080078125" lon="166.46035264246165752410888671875">
        <ele>281.79998779296875</ele>
        <time>2016-08-12T17:54:13.000Z</time>
        <extensions>
          <ns3:TrackPointExtension>
            <ns3:atemp>19.0</ns3:atemp>
            <ns3:hr>143</ns3:hr>
          </ns3:TrackPointExtension>
        </extensions>
      </trkpt>
      <trkpt lat="-22.117848582565784454345703125" lon="166.46037410013377666473388671875">
        <ele>282</ele>
        <time>2016-08-12T17:54:14.000Z</time>
        <extensions>
          <ns3:TrackPointExtension>
            <ns3:atemp>19.0</ns3:atemp>
            <ns3:hr>142</ns3:hr>
          </ns3:TrackPointExtension>
        </extensions>
      </trkpt>
      <trkpt lat="-22.1178638376295566558837890625" lon="166.4603961445391178131103515625">
        <ele>282.399993896484375</ele>
        <time>2016-08-12T17:54:15.000Z</time>
        <extensions>
          <ns3:TrackPointExtension>
            <ns3:atemp>19.0</ns3:atemp>
            <ns3:hr>142</ns3:hr>
          </ns3:TrackPointExtension>
        </extensions>
      </trkpt>
      <trkpt lat="-22.11787347681820392608642578125" lon="166.460420787334442138671875">
        <ele>282.399993896484375</ele>
        <time>2016-08-12T17:54:16.000Z</time>
        <extensions>
          <ns3:TrackPointExtension>
            <ns3:atemp>19.0</ns3:atemp>
            <ns3:hr>142</ns3:hr>
          </ns3:TrackPointExtension>
        </extensions>
      </trkpt>
      <trkpt lat="-22.11788202635943889617919921875" lon="166.46044534631073474884033203125">
        <ele>282.399993896484375</ele>
        <time>2016-08-12T17:54:17.000Z</time>
        <extensions>
          <ns3:TrackPointExtension>
            <ns3:atemp>19.0</ns3:atemp>
            <ns3:hr>142</ns3:hr>
          </ns3:TrackPointExtension>
        </extensions>
      </trkpt>
      <trkpt lat="-22.1178893186151981353759765625" lon="166.46046831272542476654052734375">
        <ele>282.600006103515625</ele>
        <time>2016-08-12T17:54:18.000Z</time>
        <extensions>
          <ns3:TrackPointExtension>
            <ns3:atemp>19.0</ns3:atemp>
            <ns3:hr>142</ns3:hr>
          </ns3:TrackPointExtension>
        </extensions>
      </trkpt>
      <trkpt lat="-22.1178925037384033203125" lon="166.460490189492702484130859375">
        <ele>282.600006103515625</ele>
        <time>2016-08-12T17:54:19.000Z</time>
        <extensions>
          <ns3:TrackPointExtension>
            <ns3:atemp>19.0</ns3:atemp>
            <ns3:hr>142</ns3:hr>
          </ns3:TrackPointExtension>
        </extensions>
      </trkpt>
      <trkpt lat="-22.11789795197546482086181640625" lon="166.46051206625998020172119140625">
        <ele>282.79998779296875</ele>
        <time>2016-08-12T17:54:20.000Z</time>
        <extensions>
          <ns3:TrackPointExtension>
            <ns3:atemp>19.0</ns3:atemp>
            <ns3:hr>142</ns3:hr>
          </ns3:TrackPointExtension>
        </extensions>
      </trkpt>
      <trkpt lat="-22.11790314875543117523193359375" lon="166.46053276956081390380859375">
        <ele>283</ele>
        <time>2016-08-12T17:54:21.000Z</time>
        <extensions>
          <ns3:TrackPointExtension>
            <ns3:atemp>19.0</ns3:atemp>
            <ns3:hr>142</ns3:hr>
          </ns3:TrackPointExtension>
        </extensions>
      </trkpt>
      <trkpt lat="-22.11791153065860271453857421875" lon="166.46055330522358417510986328125">
        <ele>283.399993896484375</ele>
        <time>2016-08-12T17:54:22.000Z</time>
        <extensions>
          <ns3:TrackPointExtension>
            <ns3:atemp>19.0</ns3:atemp>
            <ns3:hr>142</ns3:hr>
          </ns3:TrackPointExtension>
        </extensions>
      </trkpt>
      <trkpt lat="-22.11791471578180789947509765625" lon="166.46057643927633762359619140625">
        <ele>283.399993896484375</ele>
        <time>2016-08-12T17:54:23.000Z</time>
        <extensions>
          <ns3:TrackPointExtension>
            <ns3:atemp>19.0</ns3:atemp>
            <ns3:hr>142</ns3:hr>
          </ns3:TrackPointExtension>
        </extensions>
      </trkpt>
      <trkpt lat="-22.11791689507663249969482421875" lon="166.46059487946331501007080078125">
        <ele>283.600006103515625</ele>
        <time>2016-08-12T17:54:24.000Z</time>
        <extensions>
          <ns3:TrackPointExtension>
            <ns3:atemp>19.0</ns3:atemp>
            <ns3:hr>143</ns3:hr>
          </ns3:TrackPointExtension>
        </extensions>
      </trkpt>
      <trkpt lat="-22.11791823618113994598388671875" lon="166.46061432547867298126220703125">
        <ele>284</ele>
        <time>2016-08-12T17:54:25.000Z</time>
        <extensions>
          <ns3:TrackPointExtension>
            <ns3:atemp>19.0</ns3:atemp>
            <ns3:hr>143</ns3:hr>
          </ns3:TrackPointExtension>
        </extensions>
      </trkpt>
      <trkpt lat="-22.1179218403995037078857421875" lon="166.4606355316936969757080078125">
        <ele>284</ele>
        <time>2016-08-12T17:54:26.000Z</time>
        <extensions>
          <ns3:TrackPointExtension>
            <ns3:atemp>19.0</ns3:atemp>
            <ns3:hr>143</ns3:hr>
          </ns3:TrackPointExtension>
        </extensions>
      </trkpt>
      <trkpt lat="-22.11792695336043834686279296875" lon="166.46065589971840381622314453125">
        <ele>284.20001220703125</ele>
        <time>2016-08-12T17:54:27.000Z</time>
        <extensions>
          <ns3:TrackPointExtension>
            <ns3:atemp>19.0</ns3:atemp>
            <ns3:hr>143</ns3:hr>
          </ns3:TrackPointExtension>
        </extensions>
      </trkpt>
      <trkpt lat="-22.1179272048175334930419921875" lon="166.46067903377115726470947265625">
        <ele>284.600006103515625</ele>
        <time>2016-08-12T17:54:28.000Z</time>
        <extensions>
          <ns3:TrackPointExtension>
            <ns3:atemp>19.0</ns3:atemp>
            <ns3:hr>143</ns3:hr>
          </ns3:TrackPointExtension>
        </extensions>
      </trkpt>
      <trkpt lat="-22.11792645044624805450439453125" lon="166.46070317365229129791259765625">
        <ele>284.600006103515625</ele>
        <time>2016-08-12T17:54:29.000Z</time>
        <extensions>
          <ns3:TrackPointExtension>
            <ns3:atemp>19.0</ns3:atemp>
            <ns3:hr>143</ns3:hr>
          </ns3:TrackPointExtension>
        </extensions>
      </trkpt>
      <trkpt lat="-22.11792762391269207000732421875" lon="166.4607237093150615692138671875">
        <ele>284.600006103515625</ele>
        <time>2016-08-12T17:54:30.000Z</time>
        <extensions>
          <ns3:TrackPointExtension>
            <ns3:atemp>19.0</ns3:atemp>
            <ns3:hr>143</ns3:hr>
          </ns3:TrackPointExtension>
        </extensions>
      </trkpt>
      <trkpt lat="-22.11793198250234127044677734375" lon="166.46074340678751468658447265625">
        <ele>285</ele>
        <time>2016-08-12T17:54:31.000Z</time>
        <extensions>
          <ns3:TrackPointExtension>
            <ns3:atemp>19.0</ns3:atemp>
            <ns3:hr>143</ns3:hr>
          </ns3:TrackPointExtension>
        </extensions>
      </trkpt>
      <trkpt lat="-22.1179362572729587554931640625" lon="166.4607652835547924041748046875">
        <ele>285.20001220703125</ele>
        <time>2016-08-12T17:54:32.000Z</time>
        <extensions>
          <ns3:TrackPointExtension>
            <ns3:atemp>19.0</ns3:atemp>
            <ns3:hr>143</ns3:hr>
          </ns3:TrackPointExtension>
        </extensions>
      </trkpt>
      <trkpt lat="-22.11794019676744937896728515625" lon="166.46078632213175296783447265625">
        <ele>285</ele>
        <time>2016-08-12T17:54:33.000Z</time>
        <extensions>
          <ns3:TrackPointExtension>
            <ns3:atemp>19.0</ns3:atemp>
            <ns3:hr>143</ns3:hr>
          </ns3:TrackPointExtension>
        </extensions>
      </trkpt>
      <trkpt lat="-22.117943130433559417724609375" lon="166.46080878563225269317626953125">
        <ele>285.399993896484375</ele>
        <time>2016-08-12T17:54:34.000Z</time>
        <extensions>
          <ns3:TrackPointExtension>
            <ns3:atemp>19.0</ns3:atemp>
            <ns3:hr>143</ns3:hr>
          </ns3:TrackPointExtension>
        </extensions>
      </trkpt>
      <trkpt lat="-22.11794656701385974884033203125" lon="166.46082940511405467987060546875">
        <ele>285.399993896484375</ele>
        <time>2016-08-12T17:54:35.000Z</time>
        <extensions>
          <ns3:TrackPointExtension>
            <ns3:atemp>19.0</ns3:atemp>
            <ns3:hr>143</ns3:hr>
          </ns3:TrackPointExtension>
        </extensions>
      </trkpt>
      <trkpt lat="-22.1179483272135257720947265625" lon="166.46084784530103206634521484375">
        <ele>285.399993896484375</ele>
        <time>2016-08-12T17:54:36.000Z</time>
        <extensions>
          <ns3:TrackPointExtension>
            <ns3:atemp>19.0</ns3:atemp>
            <ns3:hr>142</ns3:hr>
          </ns3:TrackPointExtension>
        </extensions>
      </trkpt>
      <trkpt lat="-22.1179476566612720489501953125" lon="166.46086997352540493011474609375">
        <ele>285.399993896484375</ele>
        <time>2016-08-12T17:54:37.000Z</time>
        <extensions>
          <ns3:TrackPointExtension>
            <ns3:atemp>19.0</ns3:atemp>
            <ns3:hr>143</ns3:hr>
          </ns3:TrackPointExtension>
        </extensions>
      </trkpt>
      <trkpt lat="-22.11794547736644744873046875" lon="166.46088975481688976287841796875">
        <ele>285.600006103515625</ele>
        <time>2016-08-12T17:54:38.000Z</time>
        <extensions>
          <ns3:TrackPointExtension>
            <ns3:atemp>19.0</ns3:atemp>
            <ns3:hr>143</ns3:hr>
          </ns3:TrackPointExtension>
        </extensions>
      </trkpt>
      <trkpt lat="-22.1179456450045108795166015625" lon="166.46090383641421794891357421875">
        <ele>285.600006103515625</ele>
        <time>2016-08-12T17:54:39.000Z</time>
        <extensions>
          <ns3:TrackPointExtension>
            <ns3:atemp>19.0</ns3:atemp>
            <ns3:hr>142</ns3:hr>
          </ns3:TrackPointExtension>
        </extensions>
      </trkpt>
      <trkpt lat="-22.11794271133840084075927734375" lon="166.46092261187732219696044921875">
        <ele>285.79998779296875</ele>
        <time>2016-08-12T17:54:40.000Z</time>
        <extensions>
          <ns3:TrackPointExtension>
            <ns3:atemp>19.0</ns3:atemp>
            <ns3:hr>142</ns3:hr>
          </ns3:TrackPointExtension>
        </extensions>
      </trkpt>
      <trkpt lat="-22.11793902330100536346435546875" lon="166.4609423093497753143310546875">
        <ele>286.20001220703125</ele>
        <time>2016-08-12T17:54:41.000Z</time>
        <extensions>
          <ns3:TrackPointExtension>
            <ns3:atemp>19.0</ns3:atemp>
            <ns3:hr>142</ns3:hr>
          </ns3:TrackPointExtension>
        </extensions>
      </trkpt>
      <trkpt lat="-22.1179349161684513092041015625" lon="166.46096200682222843170166015625">
        <ele>286.20001220703125</ele>
        <time>2016-08-12T17:54:42.000Z</time>
        <extensions>
          <ns3:TrackPointExtension>
            <ns3:atemp>19.0</ns3:atemp>
            <ns3:hr>142</ns3:hr>
          </ns3:TrackPointExtension>
        </extensions>
      </trkpt>
      <trkpt lat="-22.1179302223026752471923828125" lon="166.46098203957080841064453125">
        <ele>286.20001220703125</ele>
        <time>2016-08-12T17:54:43.000Z</time>
        <extensions>
          <ns3:TrackPointExtension>
            <ns3:atemp>19.0</ns3:atemp>
            <ns3:hr>142</ns3:hr>
          </ns3:TrackPointExtension>
        </extensions>
      </trkpt>
      <trkpt lat="-22.11792628280818462371826171875" lon="166.461000144481658935546875">
        <ele>286.399993896484375</ele>
        <time>2016-08-12T17:54:44.000Z</time>
        <extensions>
          <ns3:TrackPointExtension>
            <ns3:atemp>19.0</ns3:atemp>
            <ns3:hr>142</ns3:hr>
          </ns3:TrackPointExtension>
        </extensions>
      </trkpt>
      <trkpt lat="-22.11792133748531341552734375" lon="166.46101984195411205291748046875">
        <ele>286.600006103515625</ele>
        <time>2016-08-12T17:54:45.000Z</time>
        <extensions>
          <ns3:TrackPointExtension>
            <ns3:atemp>19.0</ns3:atemp>
            <ns3:hr>141</ns3:hr>
          </ns3:TrackPointExtension>
        </extensions>
      </trkpt>
      <trkpt lat="-22.1179127879440784454345703125" lon="166.46104079671204090118408203125">
        <ele>286.79998779296875</ele>
        <time>2016-08-12T17:54:46.000Z</time>
        <extensions>
          <ns3:TrackPointExtension>
            <ns3:atemp>19.0</ns3:atemp>
            <ns3:hr>141</ns3:hr>
          </ns3:TrackPointExtension>
        </extensions>
      </trkpt>
      <trkpt lat="-22.1178980357944965362548828125" lon="166.46106208674609661102294921875">
        <ele>287</ele>
        <time>2016-08-12T17:54:47.000Z</time>
        <extensions>
          <ns3:TrackPointExtension>
            <ns3:atemp>19.0</ns3:atemp>
            <ns3:hr>141</ns3:hr>
          </ns3:TrackPointExtension>
        </extensions>
      </trkpt>
      <trkpt lat="-22.11788051761686801910400390625" lon="166.46108086220920085906982421875">
        <ele>287.20001220703125</ele>
        <time>2016-08-12T17:54:48.000Z</time>
        <extensions>
          <ns3:TrackPointExtension>
            <ns3:atemp>19.0</ns3:atemp>
            <ns3:hr>141</ns3:hr>
          </ns3:TrackPointExtension>
        </extensions>
      </trkpt>
      <trkpt lat="-22.11785973049700260162353515625" lon="166.46109678782522678375244140625">
        <ele>287.399993896484375</ele>
        <time>2016-08-12T17:54:49.000Z</time>
        <extensions>
          <ns3:TrackPointExtension>
            <ns3:atemp>19.0</ns3:atemp>
            <ns3:hr>141</ns3:hr>
          </ns3:TrackPointExtension>
        </extensions>
      </trkpt>
      <trkpt lat="-22.1178510971367359161376953125" lon="166.4611092768609523773193359375">
        <ele>287.600006103515625</ele>
        <time>2016-08-12T17:54:50.000Z</time>
        <extensions>
          <ns3:TrackPointExtension>
            <ns3:atemp>19.0</ns3:atemp>
            <ns3:hr>141</ns3:hr>
          </ns3:TrackPointExtension>
        </extensions>
      </trkpt>
      <trkpt lat="-22.11783844046294689178466796875" lon="166.46112796850502490997314453125">
        <ele>287.79998779296875</ele>
        <time>2016-08-12T17:54:51.000Z</time>
        <extensions>
          <ns3:TrackPointExtension>
            <ns3:atemp>19.0</ns3:atemp>
            <ns3:hr>140</ns3:hr>
          </ns3:TrackPointExtension>
        </extensions>
      </trkpt>
      <trkpt lat="-22.11782402358949184417724609375" lon="166.46114674396812915802001953125">
        <ele>288</ele>
        <time>2016-08-12T17:54:52.000Z</time>
        <extensions>
          <ns3:TrackPointExtension>
            <ns3:atemp>19.0</ns3:atemp>
            <ns3:hr>140</ns3:hr>
          </ns3:TrackPointExtension>
        </extensions>
      </trkpt>
      <trkpt lat="-22.1178108640015125274658203125" lon="166.4611625857651233673095703125">
        <ele>288</ele>
        <time>2016-08-12T17:54:53.000Z</time>
        <extensions>
          <ns3:TrackPointExtension>
            <ns3:atemp>19.0</ns3:atemp>
            <ns3:hr>141</ns3:hr>
          </ns3:TrackPointExtension>
        </extensions>
      </trkpt>
      <trkpt lat="-22.11779502220451831817626953125" lon="166.4611830376088619232177734375">
        <ele>288</ele>
        <time>2016-08-12T17:54:54.000Z</time>
        <extensions>
          <ns3:TrackPointExtension>
            <ns3:atemp>19.0</ns3:atemp>
            <ns3:hr>140</ns3:hr>
          </ns3:TrackPointExtension>
        </extensions>
      </trkpt>
      <trkpt lat="-22.11777976714074611663818359375" lon="166.46120290271937847137451171875">
        <ele>288.399993896484375</ele>
        <time>2016-08-12T17:54:55.000Z</time>
        <extensions>
          <ns3:TrackPointExtension>
            <ns3:atemp>19.0</ns3:atemp>
            <ns3:hr>140</ns3:hr>
          </ns3:TrackPointExtension>
        </extensions>
      </trkpt>
      <trkpt lat="-22.11776887066662311553955078125" lon="166.46122067235410213470458984375">
        <ele>288.79998779296875</ele>
        <time>2016-08-12T17:54:56.000Z</time>
        <extensions>
          <ns3:TrackPointExtension>
            <ns3:atemp>19.0</ns3:atemp>
            <ns3:hr>141</ns3:hr>
          </ns3:TrackPointExtension>
        </extensions>
      </trkpt>
      <trkpt lat="-22.11775898002088069915771484375" lon="166.4612393639981746673583984375">
        <ele>288.79998779296875</ele>
        <time>2016-08-12T17:54:57.000Z</time>
        <extensions>
          <ns3:TrackPointExtension>
            <ns3:atemp>19.0</ns3:atemp>
            <ns3:hr>140</ns3:hr>
          </ns3:TrackPointExtension>
        </extensions>
      </trkpt>
      <trkpt lat="-22.117750681936740875244140625" lon="166.461257971823215484619140625">
        <ele>289</ele>
        <time>2016-08-12T17:54:58.000Z</time>
        <extensions>
          <ns3:TrackPointExtension>
            <ns3:atemp>19.0</ns3:atemp>
            <ns3:hr>140</ns3:hr>
          </ns3:TrackPointExtension>
        </extensions>
      </trkpt>
      <trkpt lat="-22.11774162948131561279296875" lon="166.46127641201019287109375">
        <ele>289</ele>
        <time>2016-08-12T17:54:59.000Z</time>
        <extensions>
          <ns3:TrackPointExtension>
            <ns3:atemp>19.0</ns3:atemp>
            <ns3:hr>140</ns3:hr>
          </ns3:TrackPointExtension>
        </extensions>
      </trkpt>
      <trkpt lat="-22.1177327446639537811279296875" lon="166.4612953551113605499267578125">
        <ele>289</ele>
        <time>2016-08-12T17:55:00.000Z</time>
        <extensions>
          <ns3:TrackPointExtension>
            <ns3:atemp>19.0</ns3:atemp>
            <ns3:hr>140</ns3:hr>
          </ns3:TrackPointExtension>
        </extensions>
      </trkpt>
      <trkpt lat="-22.1177226863801479339599609375" lon="166.46131337620317935943603515625">
        <ele>289.20001220703125</ele>
        <time>2016-08-12T17:55:01.000Z</time>
        <extensions>
          <ns3:TrackPointExtension>
            <ns3:atemp>19.0</ns3:atemp>
            <ns3:hr>140</ns3:hr>
          </ns3:TrackPointExtension>
        </extensions>
      </trkpt>
      <trkpt lat="-22.11771254427731037139892578125" lon="166.46132913418114185333251953125">
        <ele>289.399993896484375</ele>
        <time>2016-08-12T17:55:02.000Z</time>
        <extensions>
          <ns3:TrackPointExtension>
            <ns3:atemp>19.0</ns3:atemp>
            <ns3:hr>139</ns3:hr>
          </ns3:TrackPointExtension>
        </extensions>
      </trkpt>
      <trkpt lat="-22.117705084383487701416015625" lon="166.4613526873290538787841796875">
        <ele>289.399993896484375</ele>
        <time>2016-08-12T17:55:03.000Z</time>
        <extensions>
          <ns3:TrackPointExtension>
            <ns3:atemp>19.0</ns3:atemp>
            <ns3:hr>139</ns3:hr>
          </ns3:TrackPointExtension>
        </extensions>
      </trkpt>
      <trkpt lat="-22.1176993846893310546875" lon="166.46137456409633159637451171875">
        <ele>289.600006103515625</ele>
        <time>2016-08-12T17:55:04.000Z</time>
        <extensions>
          <ns3:TrackPointExtension>
            <ns3:atemp>19.0</ns3:atemp>
            <ns3:hr>139</ns3:hr>
          </ns3:TrackPointExtension>
        </extensions>
      </trkpt>
      <trkpt lat="-22.11769259534776210784912109375" lon="166.46139216609299182891845703125">
        <ele>289.600006103515625</ele>
        <time>2016-08-12T17:55:05.000Z</time>
        <extensions>
          <ns3:TrackPointExtension>
            <ns3:atemp>19.0</ns3:atemp>
            <ns3:hr>139</ns3:hr>
          </ns3:TrackPointExtension>
        </extensions>
      </trkpt>
      <trkpt lat="-22.11768798530101776123046875" lon="166.46141312085092067718505859375">
        <ele>289.79998779296875</ele>
        <time>2016-08-12T17:55:06.000Z</time>
        <extensions>
          <ns3:TrackPointExtension>
            <ns3:atemp>19.0</ns3:atemp>
            <ns3:hr>139</ns3:hr>
          </ns3:TrackPointExtension>
        </extensions>
      </trkpt>
      <trkpt lat="-22.11768354289233684539794921875" lon="166.46143021993339061737060546875">
        <ele>290</ele>
        <time>2016-08-12T17:55:07.000Z</time>
        <extensions>
          <ns3:TrackPointExtension>
            <ns3:atemp>19.0</ns3:atemp>
            <ns3:hr>140</ns3:hr>
          </ns3:TrackPointExtension>
        </extensions>
      </trkpt>
      <trkpt lat="-22.11767457425594329833984375" lon="166.46144614554941654205322265625">
        <ele>290.20001220703125</ele>
        <time>2016-08-12T17:55:08.000Z</time>
        <extensions>
          <ns3:TrackPointExtension>
            <ns3:atemp>19.0</ns3:atemp>
            <ns3:hr>139</ns3:hr>
          </ns3:TrackPointExtension>
        </extensions>
      </trkpt>
      <trkpt lat="-22.11766929365694522857666015625" lon="166.4614680223166942596435546875">
        <ele>290.20001220703125</ele>
        <time>2016-08-12T17:55:09.000Z</time>
        <extensions>
          <ns3:TrackPointExtension>
            <ns3:atemp>19.0</ns3:atemp>
            <ns3:hr>139</ns3:hr>
          </ns3:TrackPointExtension>
        </extensions>
      </trkpt>
      <trkpt lat="-22.11766744963824748992919921875" lon="166.461487300693988800048828125">
        <ele>290.600006103515625</ele>
        <time>2016-08-12T17:55:10.000Z</time>
        <extensions>
          <ns3:TrackPointExtension>
            <ns3:atemp>19.0</ns3:atemp>
            <ns3:hr>139</ns3:hr>
          </ns3:TrackPointExtension>
        </extensions>
      </trkpt>
      <trkpt lat="-22.117663510143756866455078125" lon="166.4615030586719512939453125">
        <ele>290.600006103515625</ele>
        <time>2016-08-12T17:55:11.000Z</time>
        <extensions>
          <ns3:TrackPointExtension>
            <ns3:atemp>19.0</ns3:atemp>
            <ns3:hr>139</ns3:hr>
          </ns3:TrackPointExtension>
        </extensions>
      </trkpt>
      <trkpt lat="-22.11765672080218791961669921875" lon="166.46152476780116558074951171875">
        <ele>290.79998779296875</ele>
        <time>2016-08-12T17:55:12.000Z</time>
        <extensions>
          <ns3:TrackPointExtension>
            <ns3:atemp>19.0</ns3:atemp>
            <ns3:hr>139</ns3:hr>
          </ns3:TrackPointExtension>
        </extensions>
      </trkpt>
      <trkpt lat="-22.117651440203189849853515625" lon="166.46154505200684070587158203125">
        <ele>290.79998779296875</ele>
        <time>2016-08-12T17:55:13.000Z</time>
        <extensions>
          <ns3:TrackPointExtension>
            <ns3:atemp>19.0</ns3:atemp>
            <ns3:hr>139</ns3:hr>
          </ns3:TrackPointExtension>
        </extensions>
      </trkpt>
      <trkpt lat="-22.1176459081470966339111328125" lon="166.46156416274607181549072265625">
        <ele>291</ele>
        <time>2016-08-12T17:55:14.000Z</time>
        <extensions>
          <ns3:TrackPointExtension>
            <ns3:atemp>19.0</ns3:atemp>
            <ns3:hr>139</ns3:hr>
          </ns3:TrackPointExtension>
        </extensions>
      </trkpt>
      <trkpt lat="-22.117644064128398895263671875" lon="166.46158562041819095611572265625">
        <ele>291.20001220703125</ele>
        <time>2016-08-12T17:55:15.000Z</time>
        <extensions>
          <ns3:TrackPointExtension>
            <ns3:atemp>19.0</ns3:atemp>
            <ns3:hr>139</ns3:hr>
          </ns3:TrackPointExtension>
        </extensions>
      </trkpt>
      <trkpt lat="-22.117642052471637725830078125" lon="166.4616031385958194732666015625">
        <ele>291.600006103515625</ele>
        <time>2016-08-12T17:55:16.000Z</time>
        <extensions>
          <ns3:TrackPointExtension>
            <ns3:atemp>19.0</ns3:atemp>
            <ns3:hr>139</ns3:hr>
          </ns3:TrackPointExtension>
        </extensions>
      </trkpt>
      <trkpt lat="-22.11763693951070308685302734375" lon="166.46162149496376514434814453125">
        <ele>291.600006103515625</ele>
        <time>2016-08-12T17:55:17.000Z</time>
        <extensions>
          <ns3:TrackPointExtension>
            <ns3:atemp>19.0</ns3:atemp>
            <ns3:hr>139</ns3:hr>
          </ns3:TrackPointExtension>
        </extensions>
      </trkpt>
      <trkpt lat="-22.1176291443407535552978515625" lon="166.46164446137845516204833984375">
        <ele>291.79998779296875</ele>
        <time>2016-08-12T17:55:18.000Z</time>
        <extensions>
          <ns3:TrackPointExtension>
            <ns3:atemp>19.0</ns3:atemp>
            <ns3:hr>139</ns3:hr>
          </ns3:TrackPointExtension>
        </extensions>
      </trkpt>
      <trkpt lat="-22.11762302555143833160400390625" lon="166.461664326488971710205078125">
        <ele>292.20001220703125</ele>
        <time>2016-08-12T17:55:19.000Z</time>
        <extensions>
          <ns3:TrackPointExtension>
            <ns3:atemp>19.0</ns3:atemp>
            <ns3:hr>138</ns3:hr>
          </ns3:TrackPointExtension>
        </extensions>
      </trkpt>
      <trkpt lat="-22.11761347018182277679443359375" lon="166.46168435923755168914794921875">
        <ele>292.399993896484375</ele>
        <time>2016-08-12T17:55:20.000Z</time>
        <extensions>
          <ns3:TrackPointExtension>
            <ns3:atemp>19.0</ns3:atemp>
            <ns3:hr>139</ns3:hr>
          </ns3:TrackPointExtension>
        </extensions>
      </trkpt>
      <trkpt lat="-22.1176050044596195220947265625" lon="166.4617070741951465606689453125">
        <ele>292.399993896484375</ele>
        <time>2016-08-12T17:55:21.000Z</time>
        <extensions>
          <ns3:TrackPointExtension>
            <ns3:atemp>19.0</ns3:atemp>
            <ns3:hr>139</ns3:hr>
          </ns3:TrackPointExtension>
        </extensions>
      </trkpt>
      <trkpt lat="-22.11760123260319232940673828125" lon="166.46172635257244110107421875">
        <ele>292.79998779296875</ele>
        <time>2016-08-12T17:55:22.000Z</time>
        <extensions>
          <ns3:TrackPointExtension>
            <ns3:atemp>19.0</ns3:atemp>
            <ns3:hr>139</ns3:hr>
          </ns3:TrackPointExtension>
        </extensions>
      </trkpt>
      <trkpt lat="-22.11759838275611400604248046875" lon="166.4617476426064968109130859375">
        <ele>293</ele>
        <time>2016-08-12T17:55:23.000Z</time>
        <extensions>
          <ns3:TrackPointExtension>
            <ns3:atemp>19.0</ns3:atemp>
            <ns3:hr>139</ns3:hr>
          </ns3:TrackPointExtension>
        </extensions>
      </trkpt>
      <trkpt lat="-22.11759603582322597503662109375" lon="166.4617727883160114288330078125">
        <ele>293</ele>
        <time>2016-08-12T17:55:24.000Z</time>
        <extensions>
          <ns3:TrackPointExtension>
            <ns3:atemp>19.0</ns3:atemp>
            <ns3:hr>139</ns3:hr>
          </ns3:TrackPointExtension>
        </extensions>
      </trkpt>
      <trkpt lat="-22.11759821511805057525634765625" lon="166.46179382689297199249267578125">
        <ele>293.20001220703125</ele>
        <time>2016-08-12T17:55:25.000Z</time>
        <extensions>
          <ns3:TrackPointExtension>
            <ns3:atemp>19.0</ns3:atemp>
            <ns3:hr>139</ns3:hr>
          </ns3:TrackPointExtension>
        </extensions>
      </trkpt>
      <trkpt lat="-22.11759720928966999053955078125" lon="166.4618195593357086181640625">
        <ele>293.20001220703125</ele>
        <time>2016-08-12T17:55:26.000Z</time>
        <extensions>
          <ns3:TrackPointExtension>
            <ns3:atemp>19.0</ns3:atemp>
            <ns3:hr>139</ns3:hr>
          </ns3:TrackPointExtension>
        </extensions>
      </trkpt>
      <trkpt lat="-22.117595113813877105712890625" lon="166.46184445358812808990478515625">
        <ele>293.399993896484375</ele>
        <time>2016-08-12T17:55:27.000Z</time>
        <extensions>
          <ns3:TrackPointExtension>
            <ns3:atemp>19.0</ns3:atemp>
            <ns3:hr>139</ns3:hr>
          </ns3:TrackPointExtension>
        </extensions>
      </trkpt>
      <trkpt lat="-22.11759620346128940582275390625" lon="166.4618651568889617919921875">
        <ele>293.600006103515625</ele>
        <time>2016-08-12T17:55:28.000Z</time>
        <extensions>
          <ns3:TrackPointExtension>
            <ns3:atemp>19.0</ns3:atemp>
            <ns3:hr>139</ns3:hr>
          </ns3:TrackPointExtension>
        </extensions>
      </trkpt>
      <trkpt lat="-22.117593102157115936279296875" lon="166.4618874527513980865478515625">
        <ele>293.600006103515625</ele>
        <time>2016-08-12T17:55:29.000Z</time>
        <extensions>
          <ns3:TrackPointExtension>
            <ns3:atemp>19.0</ns3:atemp>
            <ns3:hr>140</ns3:hr>
          </ns3:TrackPointExtension>
        </extensions>
      </trkpt>
      <trkpt lat="-22.11759050376713275909423828125" lon="166.46190916188061237335205078125">
        <ele>294</ele>
        <time>2016-08-12T17:55:30.000Z</time>
        <extensions>
          <ns3:TrackPointExtension>
            <ns3:atemp>19.0</ns3:atemp>
            <ns3:hr>140</ns3:hr>
          </ns3:TrackPointExtension>
        </extensions>
      </trkpt>
      <trkpt lat="-22.11758899502456188201904296875" lon="166.46193011663854122161865234375">
        <ele>294.399993896484375</ele>
        <time>2016-08-12T17:55:31.000Z</time>
        <extensions>
          <ns3:TrackPointExtension>
            <ns3:atemp>19.0</ns3:atemp>
            <ns3:hr>140</ns3:hr>
          </ns3:TrackPointExtension>
        </extensions>
      </trkpt>
      <trkpt lat="-22.11758782155811786651611328125" lon="166.461952663958072662353515625">
        <ele>294.20001220703125</ele>
        <time>2016-08-12T17:55:32.000Z</time>
        <extensions>
          <ns3:TrackPointExtension>
            <ns3:atemp>19.0</ns3:atemp>
            <ns3:hr>140</ns3:hr>
          </ns3:TrackPointExtension>
        </extensions>
      </trkpt>
      <trkpt lat="-22.1175875701010227203369140625" lon="166.46197672002017498016357421875">
        <ele>294.399993896484375</ele>
        <time>2016-08-12T17:55:33.000Z</time>
        <extensions>
          <ns3:TrackPointExtension>
            <ns3:atemp>19.0</ns3:atemp>
            <ns3:hr>140</ns3:hr>
          </ns3:TrackPointExtension>
        </extensions>
      </trkpt>
      <trkpt lat="-22.11758933030068874359130859375" lon="166.46199985407292842864990234375">
        <ele>294.79998779296875</ele>
        <time>2016-08-12T17:55:34.000Z</time>
        <extensions>
          <ns3:TrackPointExtension>
            <ns3:atemp>19.0</ns3:atemp>
            <ns3:hr>141</ns3:hr>
          </ns3:TrackPointExtension>
        </extensions>
      </trkpt>
      <trkpt lat="-22.1175912581384181976318359375" lon="166.46202315576374530792236328125">
        <ele>294.79998779296875</ele>
        <time>2016-08-12T17:55:35.000Z</time>
        <extensions>
          <ns3:TrackPointExtension>
            <ns3:atemp>19.0</ns3:atemp>
            <ns3:hr>141</ns3:hr>
          </ns3:TrackPointExtension>
        </extensions>
      </trkpt>
      <trkpt lat="-22.11759033612906932830810546875" lon="166.462044529616832733154296875">
        <ele>294.79998779296875</ele>
        <time>2016-08-12T17:55:36.000Z</time>
        <extensions>
          <ns3:TrackPointExtension>
            <ns3:atemp>19.0</ns3:atemp>
            <ns3:hr>141</ns3:hr>
          </ns3:TrackPointExtension>
        </extensions>
      </trkpt>
      <trkpt lat="-22.117584049701690673828125" lon="166.46206556819379329681396484375">
        <ele>295.20001220703125</ele>
        <time>2016-08-12T17:55:37.000Z</time>
        <extensions>
          <ns3:TrackPointExtension>
            <ns3:atemp>19.0</ns3:atemp>
            <ns3:hr>141</ns3:hr>
          </ns3:TrackPointExtension>
        </extensions>
      </trkpt>
      <trkpt lat="-22.1175805293023586273193359375" lon="166.46208685822784900665283203125">
        <ele>295.20001220703125</ele>
        <time>2016-08-12T17:55:38.000Z</time>
        <extensions>
          <ns3:TrackPointExtension>
            <ns3:atemp>19.0</ns3:atemp>
            <ns3:hr>141</ns3:hr>
          </ns3:TrackPointExtension>
        </extensions>
      </trkpt>
      <trkpt lat="-22.11757005192339420318603515625" lon="166.4621067233383655548095703125">
        <ele>295.20001220703125</ele>
        <time>2016-08-12T17:55:39.000Z</time>
        <extensions>
          <ns3:TrackPointExtension>
            <ns3:atemp>19.0</ns3:atemp>
            <ns3:hr>141</ns3:hr>
          </ns3:TrackPointExtension>
        </extensions>
      </trkpt>
      <trkpt lat="-22.11756468750536441802978515625" lon="166.46212474443018436431884765625">
        <ele>295.399993896484375</ele>
        <time>2016-08-12T17:55:40.000Z</time>
        <extensions>
          <ns3:TrackPointExtension>
            <ns3:atemp>19.0</ns3:atemp>
            <ns3:hr>141</ns3:hr>
          </ns3:TrackPointExtension>
        </extensions>
      </trkpt>
      <trkpt lat="-22.1175590716302394866943359375" lon="166.46214368753135204315185546875">
        <ele>295.79998779296875</ele>
        <time>2016-08-12T17:55:41.000Z</time>
        <extensions>
          <ns3:TrackPointExtension>
            <ns3:atemp>19.0</ns3:atemp>
            <ns3:hr>141</ns3:hr>
          </ns3:TrackPointExtension>
        </extensions>
      </trkpt>
      <trkpt lat="-22.1175587363541126251220703125" lon="166.4621613733470439910888671875">
        <ele>295.79998779296875</ele>
        <time>2016-08-12T17:55:42.000Z</time>
        <extensions>
          <ns3:TrackPointExtension>
            <ns3:atemp>19.0</ns3:atemp>
            <ns3:hr>141</ns3:hr>
          </ns3:TrackPointExtension>
        </extensions>
      </trkpt>
      <trkpt lat="-22.11754691787064075469970703125" lon="166.4621851779520511627197265625">
        <ele>296.20001220703125</ele>
        <time>2016-08-12T17:55:43.000Z</time>
        <extensions>
          <ns3:TrackPointExtension>
            <ns3:atemp>19.0</ns3:atemp>
            <ns3:hr>141</ns3:hr>
          </ns3:TrackPointExtension>
        </extensions>
      </trkpt>
      <trkpt lat="-22.117535434663295745849609375" lon="166.462206803262233734130859375">
        <ele>296.20001220703125</ele>
        <time>2016-08-12T17:55:44.000Z</time>
        <extensions>
          <ns3:TrackPointExtension>
            <ns3:atemp>19.0</ns3:atemp>
            <ns3:hr>141</ns3:hr>
          </ns3:TrackPointExtension>
        </extensions>
      </trkpt>
      <trkpt lat="-22.11752914823591709136962890625" lon="166.46222515963017940521240234375">
        <ele>296.20001220703125</ele>
        <time>2016-08-12T17:55:45.000Z</time>
        <extensions>
          <ns3:TrackPointExtension>
            <ns3:atemp>19.0</ns3:atemp>
            <ns3:hr>140</ns3:hr>
          </ns3:TrackPointExtension>
        </extensions>
      </trkpt>
      <trkpt lat="-22.11751255206763744354248046875" lon="166.4622441865503787994384765625">
        <ele>296.399993896484375</ele>
        <time>2016-08-12T17:55:46.000Z</time>
        <extensions>
          <ns3:TrackPointExtension>
            <ns3:atemp>19.0</ns3:atemp>
            <ns3:hr>141</ns3:hr>
          </ns3:TrackPointExtension>
        </extensions>
      </trkpt>
      <trkpt lat="-22.117496542632579803466796875" lon="166.46226472221314907073974609375">
        <ele>296.399993896484375</ele>
        <time>2016-08-12T17:55:47.000Z</time>
        <extensions>
          <ns3:TrackPointExtension>
            <ns3:atemp>19.0</ns3:atemp>
            <ns3:hr>141</ns3:hr>
          </ns3:TrackPointExtension>
        </extensions>
      </trkpt>
      <trkpt lat="-22.11748816072940826416015625" lon="166.46228617988526821136474609375">
        <ele>296.399993896484375</ele>
        <time>2016-08-12T17:55:48.000Z</time>
        <extensions>
          <ns3:TrackPointExtension>
            <ns3:atemp>19.0</ns3:atemp>
            <ns3:hr>141</ns3:hr>
          </ns3:TrackPointExtension>
        </extensions>
      </trkpt>
      <trkpt lat="-22.11747935973107814788818359375" lon="166.4623038657009601593017578125">
        <ele>296.399993896484375</ele>
        <time>2016-08-12T17:55:49.000Z</time>
        <extensions>
          <ns3:TrackPointExtension>
            <ns3:atemp>19.0</ns3:atemp>
            <ns3:hr>141</ns3:hr>
          </ns3:TrackPointExtension>
        </extensions>
      </trkpt>
      <trkpt lat="-22.11746804416179656982421875" lon="166.46232054568827152252197265625">
        <ele>296.399993896484375</ele>
        <time>2016-08-12T17:55:50.000Z</time>
        <extensions>
          <ns3:TrackPointExtension>
            <ns3:atemp>19.0</ns3:atemp>
            <ns3:hr>141</ns3:hr>
          </ns3:TrackPointExtension>
        </extensions>
      </trkpt>
      <trkpt lat="-22.11745471693575382232666015625" lon="166.4623377285897731781005859375">
        <ele>296.79998779296875</ele>
        <time>2016-08-12T17:55:51.000Z</time>
        <extensions>
          <ns3:TrackPointExtension>
            <ns3:atemp>19.0</ns3:atemp>
            <ns3:hr>141</ns3:hr>
          </ns3:TrackPointExtension>
        </extensions>
      </trkpt>
      <trkpt lat="-22.11743979714810848236083984375" lon="166.4623571746051311492919921875">
        <ele>297</ele>
        <time>2016-08-12T17:55:52.000Z</time>
        <extensions>
          <ns3:TrackPointExtension>
            <ns3:atemp>19.0</ns3:atemp>
            <ns3:hr>141</ns3:hr>
          </ns3:TrackPointExtension>
        </extensions>
      </trkpt>
      <trkpt lat="-22.1174351871013641357421875" lon="166.462377123534679412841796875">
        <ele>297</ele>
        <time>2016-08-12T17:55:53.000Z</time>
        <extensions>
          <ns3:TrackPointExtension>
            <ns3:atemp>19.0</ns3:atemp>
            <ns3:hr>141</ns3:hr>
          </ns3:TrackPointExtension>
        </extensions>
      </trkpt>
      <trkpt lat="-22.1174320019781589508056640625" lon="166.46239757537841796875">
        <ele>297</ele>
        <time>2016-08-12T17:55:54.000Z</time>
        <extensions>
          <ns3:TrackPointExtension>
            <ns3:atemp>19.0</ns3:atemp>
            <ns3:hr>141</ns3:hr>
          </ns3:TrackPointExtension>
        </extensions>
      </trkpt>
      <trkpt lat="-22.117428481578826904296875" lon="166.46241878159344196319580078125">
        <ele>297.399993896484375</ele>
        <time>2016-08-12T17:55:55.000Z</time>
        <extensions>
          <ns3:TrackPointExtension>
            <ns3:atemp>19.0</ns3:atemp>
            <ns3:hr>141</ns3:hr>
          </ns3:TrackPointExtension>
        </extensions>
      </trkpt>
      <trkpt lat="-22.1174246259033679962158203125" lon="166.4624396525323390960693359375">
        <ele>297.600006103515625</ele>
        <time>2016-08-12T17:55:56.000Z</time>
        <extensions>
          <ns3:TrackPointExtension>
            <ns3:atemp>19.0</ns3:atemp>
            <ns3:hr>141</ns3:hr>
          </ns3:TrackPointExtension>
        </extensions>
      </trkpt>
      <trkpt lat="-22.1174189262092113494873046875" lon="166.46246018819510936737060546875">
        <ele>297.600006103515625</ele>
        <time>2016-08-12T17:55:57.000Z</time>
        <extensions>
          <ns3:TrackPointExtension>
            <ns3:atemp>19.0</ns3:atemp>
            <ns3:hr>141</ns3:hr>
          </ns3:TrackPointExtension>
        </extensions>
      </trkpt>
      <trkpt lat="-22.11741331033408641815185546875" lon="166.46247963421046733856201171875">
        <ele>297.79998779296875</ele>
        <time>2016-08-12T17:55:58.000Z</time>
        <extensions>
          <ns3:TrackPointExtension>
            <ns3:atemp>19.0</ns3:atemp>
            <ns3:hr>141</ns3:hr>
          </ns3:TrackPointExtension>
        </extensions>
      </trkpt>
      <trkpt lat="-22.11741180159151554107666015625" lon="166.46250025369226932525634765625">
        <ele>297.79998779296875</ele>
        <time>2016-08-12T17:55:59.000Z</time>
        <extensions>
          <ns3:TrackPointExtension>
            <ns3:atemp>19.0</ns3:atemp>
            <ns3:hr>141</ns3:hr>
          </ns3:TrackPointExtension>
        </extensions>
      </trkpt>
      <trkpt lat="-22.11741046048700809478759765625" lon="166.4625214599072933197021484375">
        <ele>298.20001220703125</ele>
        <time>2016-08-12T17:56:00.000Z</time>
        <extensions>
          <ns3:TrackPointExtension>
            <ns3:atemp>19.0</ns3:atemp>
            <ns3:hr>141</ns3:hr>
          </ns3:TrackPointExtension>
        </extensions>
      </trkpt>
      <trkpt lat="-22.11741096340119838714599609375" lon="166.46253998391330242156982421875">
        <ele>298.399993896484375</ele>
        <time>2016-08-12T17:56:01.000Z</time>
        <extensions>
          <ns3:TrackPointExtension>
            <ns3:atemp>19.0</ns3:atemp>
            <ns3:hr>141</ns3:hr>
          </ns3:TrackPointExtension>
        </extensions>
      </trkpt>
      <trkpt lat="-22.11741431616246700286865234375" lon="166.46256278268992900848388671875">
        <ele>298.600006103515625</ele>
        <time>2016-08-12T17:56:02.000Z</time>
        <extensions>
          <ns3:TrackPointExtension>
            <ns3:atemp>19.0</ns3:atemp>
            <ns3:hr>141</ns3:hr>
          </ns3:TrackPointExtension>
        </extensions>
      </trkpt>
      <trkpt lat="-22.1174159087240695953369140625" lon="166.46258608438074588775634765625">
        <ele>298.79998779296875</ele>
        <time>2016-08-12T17:56:03.000Z</time>
        <extensions>
          <ns3:TrackPointExtension>
            <ns3:atemp>19.0</ns3:atemp>
            <ns3:hr>141</ns3:hr>
          </ns3:TrackPointExtension>
        </extensions>
      </trkpt>
      <trkpt lat="-22.1174162440001964569091796875" lon="166.46260770969092845916748046875">
        <ele>298.79998779296875</ele>
        <time>2016-08-12T17:56:04.000Z</time>
        <extensions>
          <ns3:TrackPointExtension>
            <ns3:atemp>19.0</ns3:atemp>
            <ns3:hr>141</ns3:hr>
          </ns3:TrackPointExtension>
        </extensions>
      </trkpt>
      <trkpt lat="-22.11741699837148189544677734375" lon="166.46262824535369873046875">
        <ele>299.20001220703125</ele>
        <time>2016-08-12T17:56:05.000Z</time>
        <extensions>
          <ns3:TrackPointExtension>
            <ns3:atemp>19.0</ns3:atemp>
            <ns3:hr>142</ns3:hr>
          </ns3:TrackPointExtension>
        </extensions>
      </trkpt>
      <trkpt lat="-22.11741314269602298736572265625" lon="166.462649367749691009521484375">
        <ele>299.399993896484375</ele>
        <time>2016-08-12T17:56:06.000Z</time>
        <extensions>
          <ns3:TrackPointExtension>
            <ns3:atemp>19.0</ns3:atemp>
            <ns3:hr>141</ns3:hr>
          </ns3:TrackPointExtension>
        </extensions>
      </trkpt>
      <trkpt lat="-22.11740459315478801727294921875" lon="166.46267342381179332733154296875">
        <ele>299.399993896484375</ele>
        <time>2016-08-12T17:56:07.000Z</time>
        <extensions>
          <ns3:TrackPointExtension>
            <ns3:atemp>19.0</ns3:atemp>
            <ns3:hr>141</ns3:hr>
          </ns3:TrackPointExtension>
        </extensions>
      </trkpt>
      <trkpt lat="-22.11740107275545597076416015625" lon="166.462696976959705352783203125">
        <ele>299.399993896484375</ele>
        <time>2016-08-12T17:56:08.000Z</time>
        <extensions>
          <ns3:TrackPointExtension>
            <ns3:atemp>19.0</ns3:atemp>
            <ns3:hr>141</ns3:hr>
          </ns3:TrackPointExtension>
        </extensions>
      </trkpt>
      <trkpt lat="-22.1173967979848384857177734375" lon="166.46272103302180767059326171875">
        <ele>299.79998779296875</ele>
        <time>2016-08-12T17:56:09.000Z</time>
        <extensions>
          <ns3:TrackPointExtension>
            <ns3:atemp>19.0</ns3:atemp>
            <ns3:hr>142</ns3:hr>
          </ns3:TrackPointExtension>
        </extensions>
      </trkpt>
      <trkpt lat="-22.1173974685370922088623046875" lon="166.4627440832555294036865234375">
        <ele>300</ele>
        <time>2016-08-12T17:56:10.000Z</time>
        <extensions>
          <ns3:TrackPointExtension>
            <ns3:atemp>19.0</ns3:atemp>
            <ns3:hr>142</ns3:hr>
          </ns3:TrackPointExtension>
        </extensions>
      </trkpt>
      <trkpt lat="-22.11740006692707538604736328125" lon="166.46276629529893398284912109375">
        <ele>300.20001220703125</ele>
        <time>2016-08-12T17:56:11.000Z</time>
        <extensions>
          <ns3:TrackPointExtension>
            <ns3:atemp>19.0</ns3:atemp>
            <ns3:hr>142</ns3:hr>
          </ns3:TrackPointExtension>
        </extensions>
      </trkpt>
      <trkpt lat="-22.11739839054644107818603515625" lon="166.46278875879943370819091796875">
        <ele>300.20001220703125</ele>
        <time>2016-08-12T17:56:12.000Z</time>
        <extensions>
          <ns3:TrackPointExtension>
            <ns3:atemp>19.0</ns3:atemp>
            <ns3:hr>142</ns3:hr>
          </ns3:TrackPointExtension>
        </extensions>
      </trkpt>
      <trkpt lat="-22.11739964783191680908203125" lon="166.46280988119542598724365234375">
        <ele>300.399993896484375</ele>
        <time>2016-08-12T17:56:13.000Z</time>
        <extensions>
          <ns3:TrackPointExtension>
            <ns3:atemp>19.0</ns3:atemp>
            <ns3:hr>142</ns3:hr>
          </ns3:TrackPointExtension>
        </extensions>
      </trkpt>
      <trkpt lat="-22.11739839054644107818603515625" lon="166.46283284761011600494384765625">
        <ele>300.600006103515625</ele>
        <time>2016-08-12T17:56:14.000Z</time>
        <extensions>
          <ns3:TrackPointExtension>
            <ns3:atemp>19.0</ns3:atemp>
            <ns3:hr>142</ns3:hr>
          </ns3:TrackPointExtension>
        </extensions>
      </trkpt>
      <trkpt lat="-22.1173989772796630859375" lon="166.4629040099680423736572265625">
        <ele>300.79998779296875</ele>
        <time>2016-08-12T17:56:17.000Z</time>
        <extensions>
          <ns3:TrackPointExtension>
            <ns3:atemp>19.0</ns3:atemp>
            <ns3:hr>142</ns3:hr>
          </ns3:TrackPointExtension>
        </extensions>
      </trkpt>
      <trkpt lat="-22.11740006692707538604736328125" lon="166.46292404271662235260009765625">
        <ele>300.79998779296875</ele>
        <time>2016-08-12T17:56:18.000Z</time>
        <extensions>
          <ns3:TrackPointExtension>
            <ns3:atemp>19.0</ns3:atemp>
            <ns3:hr>142</ns3:hr>
          </ns3:TrackPointExtension>
        </extensions>
      </trkpt>
      <trkpt lat="-22.11739839054644107818603515625" lon="166.46294835023581981658935546875">
        <ele>301.20001220703125</ele>
        <time>2016-08-12T17:56:19.000Z</time>
        <extensions>
          <ns3:TrackPointExtension>
            <ns3:atemp>19.0</ns3:atemp>
            <ns3:hr>142</ns3:hr>
          </ns3:TrackPointExtension>
        </extensions>
      </trkpt>
      <trkpt lat="-22.117398642003536224365234375" lon="166.46297349594533443450927734375">
        <ele>301.399993896484375</ele>
        <time>2016-08-12T17:56:20.000Z</time>
        <extensions>
          <ns3:TrackPointExtension>
            <ns3:atemp>19.0</ns3:atemp>
            <ns3:hr>141</ns3:hr>
          </ns3:TrackPointExtension>
        </extensions>
      </trkpt>
      <trkpt lat="-22.1173944510519504547119140625" lon="166.46299830637872219085693359375">
        <ele>301.79998779296875</ele>
        <time>2016-08-12T17:56:21.000Z</time>
        <extensions>
          <ns3:TrackPointExtension>
            <ns3:atemp>19.0</ns3:atemp>
            <ns3:hr>141</ns3:hr>
          </ns3:TrackPointExtension>
        </extensions>
      </trkpt>
      <trkpt lat="-22.1173927746713161468505859375" lon="166.4630253799259662628173828125">
        <ele>302.20001220703125</ele>
        <time>2016-08-12T17:56:22.000Z</time>
        <extensions>
          <ns3:TrackPointExtension>
            <ns3:atemp>19.0</ns3:atemp>
            <ns3:hr>142</ns3:hr>
          </ns3:TrackPointExtension>
        </extensions>
      </trkpt>
      <trkpt lat="-22.11738967336714267730712890625" lon="166.46305077709257602691650390625">
        <ele>302.20001220703125</ele>
        <time>2016-08-12T17:56:23.000Z</time>
        <extensions>
          <ns3:TrackPointExtension>
            <ns3:atemp>19.0</ns3:atemp>
            <ns3:hr>141</ns3:hr>
          </ns3:TrackPointExtension>
        </extensions>
      </trkpt>
      <trkpt lat="-22.1173897571861743927001953125" lon="166.46307391114532947540283203125">
        <ele>302.399993896484375</ele>
        <time>2016-08-12T17:56:24.000Z</time>
        <extensions>
          <ns3:TrackPointExtension>
            <ns3:atemp>19.0</ns3:atemp>
            <ns3:hr>142</ns3:hr>
          </ns3:TrackPointExtension>
        </extensions>
      </trkpt>
      <trkpt lat="-22.11738900281488895416259765625" lon="166.4630991406738758087158203125">
        <ele>302.600006103515625</ele>
        <time>2016-08-12T17:56:25.000Z</time>
        <extensions>
          <ns3:TrackPointExtension>
            <ns3:atemp>19.0</ns3:atemp>
            <ns3:hr>142</ns3:hr>
          </ns3:TrackPointExtension>
        </extensions>
      </trkpt>
      <trkpt lat="-22.117387242615222930908203125" lon="166.46312135271728038787841796875">
        <ele>302.600006103515625</ele>
        <time>2016-08-12T17:56:26.000Z</time>
        <extensions>
          <ns3:TrackPointExtension>
            <ns3:atemp>19.0</ns3:atemp>
            <ns3:hr>142</ns3:hr>
          </ns3:TrackPointExtension>
        </extensions>
      </trkpt>
      <trkpt lat="-22.11738112382590770721435546875" lon="166.46314431913197040557861328125">
        <ele>302.79998779296875</ele>
        <time>2016-08-12T17:56:27.000Z</time>
        <extensions>
          <ns3:TrackPointExtension>
            <ns3:atemp>19.0</ns3:atemp>
            <ns3:hr>143</ns3:hr>
          </ns3:TrackPointExtension>
        </extensions>
      </trkpt>
      <trkpt lat="-22.11737458594143390655517578125" lon="166.4631658606231212615966796875">
        <ele>303</ele>
        <time>2016-08-12T17:56:28.000Z</time>
        <extensions>
          <ns3:TrackPointExtension>
            <ns3:atemp>19.0</ns3:atemp>
            <ns3:hr>143</ns3:hr>
          </ns3:TrackPointExtension>
        </extensions>
      </trkpt>
      <trkpt lat="-22.11736586876213550567626953125" lon="166.46318681538105010986328125">
        <ele>303.20001220703125</ele>
        <time>2016-08-12T17:56:29.000Z</time>
        <extensions>
          <ns3:TrackPointExtension>
            <ns3:atemp>19.0</ns3:atemp>
            <ns3:hr>143</ns3:hr>
          </ns3:TrackPointExtension>
        </extensions>
      </trkpt>
      <trkpt lat="-22.11735681630671024322509765625" lon="166.4632070995867252349853515625">
        <ele>303.20001220703125</ele>
        <time>2016-08-12T17:56:30.000Z</time>
        <extensions>
          <ns3:TrackPointExtension>
            <ns3:atemp>19.0</ns3:atemp>
            <ns3:hr>143</ns3:hr>
          </ns3:TrackPointExtension>
        </extensions>
      </trkpt>
      <trkpt lat="-22.11734675802290439605712890625" lon="166.46322495304048061370849609375">
        <ele>303.399993896484375</ele>
        <time>2016-08-12T17:56:31.000Z</time>
        <extensions>
          <ns3:TrackPointExtension>
            <ns3:atemp>19.0</ns3:atemp>
            <ns3:hr>143</ns3:hr>
          </ns3:TrackPointExtension>
        </extensions>
      </trkpt>
      <trkpt lat="-22.11733586154878139495849609375" lon="166.46323987282812595367431640625">
        <ele>303.399993896484375</ele>
        <time>2016-08-12T17:56:32.000Z</time>
        <extensions>
          <ns3:TrackPointExtension>
            <ns3:atemp>19.0</ns3:atemp>
            <ns3:hr>143</ns3:hr>
          </ns3:TrackPointExtension>
        </extensions>
      </trkpt>
      <trkpt lat="-22.11732161231338977813720703125" lon="166.4632537029683589935302734375">
        <ele>303.600006103515625</ele>
        <time>2016-08-12T17:56:33.000Z</time>
        <extensions>
          <ns3:TrackPointExtension>
            <ns3:atemp>19.0</ns3:atemp>
            <ns3:hr>143</ns3:hr>
          </ns3:TrackPointExtension>
        </extensions>
      </trkpt>
      <trkpt lat="-22.11730585433542728424072265625" lon="166.4632657729089260101318359375">
        <ele>303.600006103515625</ele>
        <time>2016-08-12T17:56:34.000Z</time>
        <extensions>
          <ns3:TrackPointExtension>
            <ns3:atemp>19.0</ns3:atemp>
            <ns3:hr>143</ns3:hr>
          </ns3:TrackPointExtension>
        </extensions>
      </trkpt>
      <trkpt lat="-22.11727953515946865081787109375" lon="166.4632813632488250732421875">
        <ele>303.79998779296875</ele>
        <time>2016-08-12T17:56:35.000Z</time>
        <extensions>
          <ns3:TrackPointExtension>
            <ns3:atemp>19.0</ns3:atemp>
            <ns3:hr>143</ns3:hr>
          </ns3:TrackPointExtension>
        </extensions>
      </trkpt>
      <trkpt lat="-22.11726545356214046478271484375" lon="166.46329318173229694366455078125">
        <ele>304.20001220703125</ele>
        <time>2016-08-12T17:56:36.000Z</time>
        <extensions>
          <ns3:TrackPointExtension>
            <ns3:atemp>19.0</ns3:atemp>
            <ns3:hr>143</ns3:hr>
          </ns3:TrackPointExtension>
        </extensions>
      </trkpt>
      <trkpt lat="-22.1172502823173999786376953125" lon="166.463301144540309906005859375">
        <ele>304.399993896484375</ele>
        <time>2016-08-12T17:56:37.000Z</time>
        <extensions>
          <ns3:TrackPointExtension>
            <ns3:atemp>19.0</ns3:atemp>
            <ns3:hr>143</ns3:hr>
          </ns3:TrackPointExtension>
        </extensions>
      </trkpt>
      <trkpt lat="-22.11724064312875270843505859375" lon="166.46330441348254680633544921875">
        <ele>304.600006103515625</ele>
        <time>2016-08-12T17:56:38.000Z</time>
        <extensions>
          <ns3:TrackPointExtension>
            <ns3:atemp>19.0</ns3:atemp>
            <ns3:hr>143</ns3:hr>
          </ns3:TrackPointExtension>
        </extensions>
      </trkpt>
      <trkpt lat="-22.11723142303526401519775390625" lon="166.46330491639673709869384765625">
        <ele>304.79998779296875</ele>
        <time>2016-08-12T17:56:39.000Z</time>
        <extensions>
          <ns3:TrackPointExtension>
            <ns3:atemp>19.0</ns3:atemp>
            <ns3:hr>143</ns3:hr>
          </ns3:TrackPointExtension>
        </extensions>
      </trkpt>
      <trkpt lat="-22.11721482686698436737060546875" lon="166.463303156197071075439453125">
        <ele>305</ele>
        <time>2016-08-12T17:56:40.000Z</time>
        <extensions>
          <ns3:TrackPointExtension>
            <ns3:atemp>19.0</ns3:atemp>
            <ns3:hr>143</ns3:hr>
          </ns3:TrackPointExtension>
        </extensions>
      </trkpt>
      <trkpt lat="-22.11719982326030731201171875" lon="166.46330055780708789825439453125">
        <ele>305</ele>
        <time>2016-08-12T17:56:41.000Z</time>
        <extensions>
          <ns3:TrackPointExtension>
            <ns3:atemp>19.0</ns3:atemp>
            <ns3:hr>143</ns3:hr>
          </ns3:TrackPointExtension>
        </extensions>
      </trkpt>
      <trkpt lat="-22.11718549020588397979736328125" lon="166.463299803435802459716796875">
        <ele>305.20001220703125</ele>
        <time>2016-08-12T17:56:42.000Z</time>
        <extensions>
          <ns3:TrackPointExtension>
            <ns3:atemp>19.0</ns3:atemp>
            <ns3:hr>143</ns3:hr>
          </ns3:TrackPointExtension>
        </extensions>
      </trkpt>
      <trkpt lat="-22.1171688102185726165771484375" lon="166.46329469047486782073974609375">
        <ele>305.600006103515625</ele>
        <time>2016-08-12T17:56:43.000Z</time>
        <extensions>
          <ns3:TrackPointExtension>
            <ns3:atemp>19.0</ns3:atemp>
            <ns3:hr>143</ns3:hr>
          </ns3:TrackPointExtension>
        </extensions>
      </trkpt>
      <trkpt lat="-22.11715422570705413818359375" lon="166.46329200826585292816162109375">
        <ele>305.79998779296875</ele>
        <time>2016-08-12T17:56:44.000Z</time>
        <extensions>
          <ns3:TrackPointExtension>
            <ns3:atemp>19.0</ns3:atemp>
            <ns3:hr>143</ns3:hr>
          </ns3:TrackPointExtension>
        </extensions>
      </trkpt>
      <trkpt lat="-22.11713788099586963653564453125" lon="166.4632889069616794586181640625">
        <ele>306.20001220703125</ele>
        <time>2016-08-12T17:56:45.000Z</time>
        <extensions>
          <ns3:TrackPointExtension>
            <ns3:atemp>19.0</ns3:atemp>
            <ns3:hr>143</ns3:hr>
          </ns3:TrackPointExtension>
        </extensions>
      </trkpt>
      <trkpt lat="-22.1171205304563045501708984375" lon="166.46328337490558624267578125">
        <ele>306.399993896484375</ele>
        <time>2016-08-12T17:56:46.000Z</time>
        <extensions>
          <ns3:TrackPointExtension>
            <ns3:atemp>19.0</ns3:atemp>
            <ns3:hr>143</ns3:hr>
          </ns3:TrackPointExtension>
        </extensions>
      </trkpt>
      <trkpt lat="-22.11710535921156406402587890625" lon="166.463279016315937042236328125">
        <ele>306.399993896484375</ele>
        <time>2016-08-12T17:56:47.000Z</time>
        <extensions>
          <ns3:TrackPointExtension>
            <ns3:atemp>19.0</ns3:atemp>
            <ns3:hr>143</ns3:hr>
          </ns3:TrackPointExtension>
        </extensions>
      </trkpt>
      <trkpt lat="-22.11708842776715755462646484375" lon="166.46327189169824123382568359375">
        <ele>306.79998779296875</ele>
        <time>2016-08-12T17:56:48.000Z</time>
        <extensions>
          <ns3:TrackPointExtension>
            <ns3:atemp>19.0</ns3:atemp>
            <ns3:hr>143</ns3:hr>
          </ns3:TrackPointExtension>
        </extensions>
      </trkpt>
      <trkpt lat="-22.1170692332088947296142578125" lon="166.46326384507119655609130859375">
        <ele>306.79998779296875</ele>
        <time>2016-08-12T17:56:49.000Z</time>
        <extensions>
          <ns3:TrackPointExtension>
            <ns3:atemp>19.0</ns3:atemp>
            <ns3:hr>144</ns3:hr>
          </ns3:TrackPointExtension>
        </extensions>
      </trkpt>
      <trkpt lat="-22.11705205030739307403564453125" lon="166.46325311623513698577880859375">
        <ele>307</ele>
        <time>2016-08-12T17:56:50.000Z</time>
        <extensions>
          <ns3:TrackPointExtension>
            <ns3:atemp>19.0</ns3:atemp>
            <ns3:hr>144</ns3:hr>
          </ns3:TrackPointExtension>
        </extensions>
      </trkpt>
      <trkpt lat="-22.11703352630138397216796875" lon="166.4632396213710308074951171875">
        <ele>307.399993896484375</ele>
        <time>2016-08-12T17:56:51.000Z</time>
        <extensions>
          <ns3:TrackPointExtension>
            <ns3:atemp>19.0</ns3:atemp>
            <ns3:hr>144</ns3:hr>
          </ns3:TrackPointExtension>
        </extensions>
      </trkpt>
      <trkpt lat="-22.1170172654092311859130859375" lon="166.46322109736502170562744140625">
        <ele>307.79998779296875</ele>
        <time>2016-08-12T17:56:52.000Z</time>
        <extensions>
          <ns3:TrackPointExtension>
            <ns3:atemp>19.0</ns3:atemp>
            <ns3:hr>144</ns3:hr>
          </ns3:TrackPointExtension>
        </extensions>
      </trkpt>
      <trkpt lat="-22.11700058542191982269287109375" lon="166.4632050879299640655517578125">
        <ele>307.79998779296875</ele>
        <time>2016-08-12T17:56:53.000Z</time>
        <extensions>
          <ns3:TrackPointExtension>
            <ns3:atemp>19.0</ns3:atemp>
            <ns3:hr>145</ns3:hr>
          </ns3:TrackPointExtension>
        </extensions>
      </trkpt>
      <trkpt lat="-22.116982229053974151611328125" lon="166.46318807266652584075927734375">
        <ele>307.79998779296875</ele>
        <time>2016-08-12T17:56:54.000Z</time>
        <extensions>
          <ns3:TrackPointExtension>
            <ns3:atemp>19.0</ns3:atemp>
            <ns3:hr>145</ns3:hr>
          </ns3:TrackPointExtension>
        </extensions>
      </trkpt>
      <trkpt lat="-22.1169642917811870574951171875" lon="166.46317030303180217742919921875">
        <ele>308.20001220703125</ele>
        <time>2016-08-12T17:56:55.000Z</time>
        <extensions>
          <ns3:TrackPointExtension>
            <ns3:atemp>19.0</ns3:atemp>
            <ns3:hr>144</ns3:hr>
          </ns3:TrackPointExtension>
        </extensions>
      </trkpt>
      <trkpt lat="-22.1169505454599857330322265625" lon="166.46315395832061767578125">
        <ele>308.20001220703125</ele>
        <time>2016-08-12T17:56:56.000Z</time>
        <extensions>
          <ns3:TrackPointExtension>
            <ns3:atemp>19.0</ns3:atemp>
            <ns3:hr>145</ns3:hr>
          </ns3:TrackPointExtension>
        </extensions>
      </trkpt>
      <trkpt lat="-22.1169364638626575469970703125" lon="166.4631383679807186126708984375">
        <ele>308</ele>
        <time>2016-08-12T17:56:57.000Z</time>
        <extensions>
          <ns3:TrackPointExtension>
            <ns3:atemp>19.0</ns3:atemp>
            <ns3:hr>145</ns3:hr>
          </ns3:TrackPointExtension>
        </extensions>
      </trkpt>
      <trkpt lat="-22.11692447774112224578857421875" lon="166.4631236158311367034912109375">
        <ele>308.399993896484375</ele>
        <time>2016-08-12T17:56:58.000Z</time>
        <extensions>
          <ns3:TrackPointExtension>
            <ns3:atemp>19.0</ns3:atemp>
            <ns3:hr>144</ns3:hr>
          </ns3:TrackPointExtension>
        </extensions>
      </trkpt>
      <trkpt lat="-22.11691089905798435211181640625" lon="166.4631078578531742095947265625">
        <ele>308.79998779296875</ele>
        <time>2016-08-12T17:56:59.000Z</time>
        <extensions>
          <ns3:TrackPointExtension>
            <ns3:atemp>19.0</ns3:atemp>
            <ns3:hr>144</ns3:hr>
          </ns3:TrackPointExtension>
        </extensions>
      </trkpt>
      <trkpt lat="-22.11689497344195842742919921875" lon="166.46308958530426025390625">
        <ele>308.79998779296875</ele>
        <time>2016-08-12T17:57:00.000Z</time>
        <extensions>
          <ns3:TrackPointExtension>
            <ns3:atemp>19.0</ns3:atemp>
            <ns3:hr>145</ns3:hr>
          </ns3:TrackPointExtension>
        </extensions>
      </trkpt>
      <trkpt lat="-22.11688089184463024139404296875" lon="166.46307391114532947540283203125">
        <ele>308.600006103515625</ele>
        <time>2016-08-12T17:57:01.000Z</time>
        <extensions>
          <ns3:TrackPointExtension>
            <ns3:atemp>19.0</ns3:atemp>
            <ns3:hr>145</ns3:hr>
          </ns3:TrackPointExtension>
        </extensions>
      </trkpt>
      <trkpt lat="-22.11686429567635059356689453125" lon="166.4630605839192867279052734375">
        <ele>308.600006103515625</ele>
        <time>2016-08-12T17:57:02.000Z</time>
        <extensions>
          <ns3:TrackPointExtension>
            <ns3:atemp>19.0</ns3:atemp>
            <ns3:hr>144</ns3:hr>
          </ns3:TrackPointExtension>
        </extensions>
      </trkpt>
      <trkpt lat="-22.11684577167034149169921875" lon="166.463044323027133941650390625">
        <ele>308.79998779296875</ele>
        <time>2016-08-12T17:57:03.000Z</time>
        <extensions>
          <ns3:TrackPointExtension>
            <ns3:atemp>19.0</ns3:atemp>
            <ns3:hr>144</ns3:hr>
          </ns3:TrackPointExtension>
        </extensions>
      </trkpt>
      <trkpt lat="-22.1168291755020618438720703125" lon="166.463030911982059478759765625">
        <ele>309</ele>
        <time>2016-08-12T17:57:04.000Z</time>
        <extensions>
          <ns3:TrackPointExtension>
            <ns3:atemp>19.0</ns3:atemp>
            <ns3:hr>144</ns3:hr>
          </ns3:TrackPointExtension>
        </extensions>
      </trkpt>
      <trkpt lat="-22.11681819520890712738037109375" lon="166.46301557309925556182861328125">
        <ele>309</ele>
        <time>2016-08-12T17:57:05.000Z</time>
        <extensions>
          <ns3:TrackPointExtension>
            <ns3:atemp>19.0</ns3:atemp>
            <ns3:hr>145</ns3:hr>
          </ns3:TrackPointExtension>
        </extensions>
      </trkpt>
      <trkpt lat="-22.1168048679828643798828125" lon="166.46299746818840503692626953125">
        <ele>309</ele>
        <time>2016-08-12T17:57:06.000Z</time>
        <extensions>
          <ns3:TrackPointExtension>
            <ns3:atemp>19.0</ns3:atemp>
            <ns3:hr>144</ns3:hr>
          </ns3:TrackPointExtension>
        </extensions>
      </trkpt>
      <trkpt lat="-22.11678802035748958587646484375" lon="166.4629817940294742584228515625">
        <ele>309</ele>
        <time>2016-08-12T17:57:07.000Z</time>
        <extensions>
          <ns3:TrackPointExtension>
            <ns3:atemp>19.0</ns3:atemp>
            <ns3:hr>144</ns3:hr>
          </ns3:TrackPointExtension>
        </extensions>
      </trkpt>
      <trkpt lat="-22.116769663989543914794921875" lon="166.462972573935985565185546875">
        <ele>309</ele>
        <time>2016-08-12T17:57:08.000Z</time>
        <extensions>
          <ns3:TrackPointExtension>
            <ns3:atemp>19.0</ns3:atemp>
            <ns3:hr>144</ns3:hr>
          </ns3:TrackPointExtension>
        </extensions>
      </trkpt>
      <trkpt lat="-22.1167503856122493743896484375" lon="166.46296394057571887969970703125">
        <ele>309.399993896484375</ele>
        <time>2016-08-12T17:57:09.000Z</time>
        <extensions>
          <ns3:TrackPointExtension>
            <ns3:atemp>19.0</ns3:atemp>
            <ns3:hr>144</ns3:hr>
          </ns3:TrackPointExtension>
        </extensions>
      </trkpt>
      <trkpt lat="-22.1167297661304473876953125" lon="166.46295622922480106353759765625">
        <ele>309.600006103515625</ele>
        <time>2016-08-12T17:57:10.000Z</time>
        <extensions>
          <ns3:TrackPointExtension>
            <ns3:atemp>19.0</ns3:atemp>
            <ns3:hr>144</ns3:hr>
          </ns3:TrackPointExtension>
        </extensions>
      </trkpt>
      <trkpt lat="-22.11671107448637485504150390625" lon="166.4629496075212955474853515625">
        <ele>309.79998779296875</ele>
        <time>2016-08-12T17:57:11.000Z</time>
        <extensions>
          <ns3:TrackPointExtension>
            <ns3:atemp>19.0</ns3:atemp>
            <ns3:hr>144</ns3:hr>
          </ns3:TrackPointExtension>
        </extensions>
      </trkpt>
      <trkpt lat="-22.1166900359094142913818359375" lon="166.4629447460174560546875">
        <ele>310.20001220703125</ele>
        <time>2016-08-12T17:57:12.000Z</time>
        <extensions>
          <ns3:TrackPointExtension>
            <ns3:atemp>19.0</ns3:atemp>
            <ns3:hr>144</ns3:hr>
          </ns3:TrackPointExtension>
        </extensions>
      </trkpt>
      <trkpt lat="-22.11667033843696117401123046875" lon="166.46294114179909229278564453125">
        <ele>310.20001220703125</ele>
        <time>2016-08-12T17:57:13.000Z</time>
        <extensions>
          <ns3:TrackPointExtension>
            <ns3:atemp>19.0</ns3:atemp>
            <ns3:hr>145</ns3:hr>
          </ns3:TrackPointExtension>
        </extensions>
      </trkpt>
      <trkpt lat="-22.11665340699255466461181640625" lon="166.46293778903782367706298828125">
        <ele>310.399993896484375</ele>
        <time>2016-08-12T17:57:14.000Z</time>
        <extensions>
          <ns3:TrackPointExtension>
            <ns3:atemp>19.0</ns3:atemp>
            <ns3:hr>144</ns3:hr>
          </ns3:TrackPointExtension>
        </extensions>
      </trkpt>
      <trkpt lat="-22.11663362570106983184814453125" lon="166.46293376572430133819580078125">
        <ele>310.600006103515625</ele>
        <time>2016-08-12T17:57:15.000Z</time>
        <extensions>
          <ns3:TrackPointExtension>
            <ns3:atemp>19.0</ns3:atemp>
            <ns3:hr>144</ns3:hr>
          </ns3:TrackPointExtension>
        </extensions>
      </trkpt>
      <trkpt lat="-22.1166132576763629913330078125" lon="166.462927646934986114501953125">
        <ele>310.600006103515625</ele>
        <time>2016-08-12T17:57:16.000Z</time>
        <extensions>
          <ns3:TrackPointExtension>
            <ns3:atemp>19.0</ns3:atemp>
            <ns3:hr>144</ns3:hr>
          </ns3:TrackPointExtension>
        </extensions>
      </trkpt>
      <trkpt lat="-22.11659506894648075103759765625" lon="166.46292471326887607574462890625">
        <ele>311</ele>
        <time>2016-08-12T17:57:17.000Z</time>
        <extensions>
          <ns3:TrackPointExtension>
            <ns3:atemp>19.0</ns3:atemp>
            <ns3:hr>144</ns3:hr>
          </ns3:TrackPointExtension>
        </extensions>
      </trkpt>
      <trkpt lat="-22.11657486855983734130859375" lon="166.4629232883453369140625">
        <ele>311.20001220703125</ele>
        <time>2016-08-12T17:57:18.000Z</time>
        <extensions>
          <ns3:TrackPointExtension>
            <ns3:atemp>19.0</ns3:atemp>
            <ns3:hr>144</ns3:hr>
          </ns3:TrackPointExtension>
        </extensions>
      </trkpt>
      <trkpt lat="-22.1165559254586696624755859375" lon="166.4629224501550197601318359375">
        <ele>311.20001220703125</ele>
        <time>2016-08-12T17:57:19.000Z</time>
        <extensions>
          <ns3:TrackPointExtension>
            <ns3:atemp>19.0</ns3:atemp>
            <ns3:hr>145</ns3:hr>
          </ns3:TrackPointExtension>
        </extensions>
      </trkpt>
      <trkpt lat="-22.11653505451977252960205078125" lon="166.4629246294498443603515625">
        <ele>311.399993896484375</ele>
        <time>2016-08-12T17:57:20.000Z</time>
        <extensions>
          <ns3:TrackPointExtension>
            <ns3:atemp>19.0</ns3:atemp>
            <ns3:hr>145</ns3:hr>
          </ns3:TrackPointExtension>
        </extensions>
      </trkpt>
      <trkpt lat="-22.11651426739990711212158203125" lon="166.462923623621463775634765625">
        <ele>311.600006103515625</ele>
        <time>2016-08-12T17:57:21.000Z</time>
        <extensions>
          <ns3:TrackPointExtension>
            <ns3:atemp>19.0</ns3:atemp>
            <ns3:hr>144</ns3:hr>
          </ns3:TrackPointExtension>
        </extensions>
      </trkpt>
      <trkpt lat="-22.11649733595550060272216796875" lon="166.46292186342179775238037109375">
        <ele>311.600006103515625</ele>
        <time>2016-08-12T17:57:22.000Z</time>
        <extensions>
          <ns3:TrackPointExtension>
            <ns3:atemp>19.0</ns3:atemp>
            <ns3:hr>144</ns3:hr>
          </ns3:TrackPointExtension>
        </extensions>
      </trkpt>
      <trkpt lat="-22.11647990159690380096435546875" lon="166.46292337216436862945556640625">
        <ele>312</ele>
        <time>2016-08-12T17:57:23.000Z</time>
        <extensions>
          <ns3:TrackPointExtension>
            <ns3:atemp>19.0</ns3:atemp>
            <ns3:hr>145</ns3:hr>
          </ns3:TrackPointExtension>
        </extensions>
      </trkpt>
      <trkpt lat="-22.11645961739122867584228515625" lon="166.462925635278224945068359375">
        <ele>312.20001220703125</ele>
        <time>2016-08-12T17:57:24.000Z</time>
        <extensions>
          <ns3:TrackPointExtension>
            <ns3:atemp>19.0</ns3:atemp>
            <ns3:hr>145</ns3:hr>
          </ns3:TrackPointExtension>
        </extensions>
      </trkpt>
      <trkpt lat="-22.116439752280712127685546875" lon="166.46292856894433498382568359375">
        <ele>312.20001220703125</ele>
        <time>2016-08-12T17:57:25.000Z</time>
        <extensions>
          <ns3:TrackPointExtension>
            <ns3:atemp>19.0</ns3:atemp>
            <ns3:hr>144</ns3:hr>
          </ns3:TrackPointExtension>
        </extensions>
      </trkpt>
      <trkpt lat="-22.1164208091795444488525390625" lon="166.46293259225785732269287109375">
        <ele>312.600006103515625</ele>
        <time>2016-08-12T17:57:26.000Z</time>
        <extensions>
          <ns3:TrackPointExtension>
            <ns3:atemp>19.0</ns3:atemp>
            <ns3:hr>144</ns3:hr>
          </ns3:TrackPointExtension>
        </extensions>
      </trkpt>
      <trkpt lat="-22.1164003573358058929443359375" lon="166.462936364114284515380859375">
        <ele>312.79998779296875</ele>
        <time>2016-08-12T17:57:27.000Z</time>
        <extensions>
          <ns3:TrackPointExtension>
            <ns3:atemp>19.0</ns3:atemp>
            <ns3:hr>145</ns3:hr>
          </ns3:TrackPointExtension>
        </extensions>
      </trkpt>
      <trkpt lat="-22.1163802407681941986083984375" lon="166.46294013597071170806884765625">
        <ele>312.600006103515625</ele>
        <time>2016-08-12T17:57:28.000Z</time>
        <extensions>
          <ns3:TrackPointExtension>
            <ns3:atemp>19.0</ns3:atemp>
            <ns3:hr>145</ns3:hr>
          </ns3:TrackPointExtension>
        </extensions>
      </trkpt>
      <trkpt lat="-22.11636037565767765045166015625" lon="166.46294265054166316986083984375">
        <ele>313</ele>
        <time>2016-08-12T17:57:29.000Z</time>
        <extensions>
          <ns3:TrackPointExtension>
            <ns3:atemp>19.0</ns3:atemp>
            <ns3:hr>145</ns3:hr>
          </ns3:TrackPointExtension>
        </extensions>
      </trkpt>
      <trkpt lat="-22.116340510547161102294921875" lon="166.4629452489316463470458984375">
        <ele>313.399993896484375</ele>
        <time>2016-08-12T17:57:30.000Z</time>
        <extensions>
          <ns3:TrackPointExtension>
            <ns3:atemp>19.0</ns3:atemp>
            <ns3:hr>145</ns3:hr>
          </ns3:TrackPointExtension>
        </extensions>
      </trkpt>
      <trkpt lat="-22.11632416583597660064697265625" lon="166.462947092950344085693359375">
        <ele>313.399993896484375</ele>
        <time>2016-08-12T17:57:31.000Z</time>
        <extensions>
          <ns3:TrackPointExtension>
            <ns3:atemp>19.0</ns3:atemp>
            <ns3:hr>145</ns3:hr>
          </ns3:TrackPointExtension>
        </extensions>
      </trkpt>
      <trkpt lat="-22.116304971277713775634765625" lon="166.46294566802680492401123046875">
        <ele>313.600006103515625</ele>
        <time>2016-08-12T17:57:32.000Z</time>
        <extensions>
          <ns3:TrackPointExtension>
            <ns3:atemp>19.0</ns3:atemp>
            <ns3:hr>145</ns3:hr>
          </ns3:TrackPointExtension>
        </extensions>
      </trkpt>
      <trkpt lat="-22.1162830106914043426513671875" lon="166.46294348873198032379150390625">
        <ele>313.79998779296875</ele>
        <time>2016-08-12T17:57:33.000Z</time>
        <extensions>
          <ns3:TrackPointExtension>
            <ns3:atemp>19.0</ns3:atemp>
            <ns3:hr>145</ns3:hr>
          </ns3:TrackPointExtension>
        </extensions>
      </trkpt>
      <trkpt lat="-22.11626247502863407135009765625" lon="166.46294030360877513885498046875">
        <ele>313.79998779296875</ele>
        <time>2016-08-12T17:57:34.000Z</time>
        <extensions>
          <ns3:TrackPointExtension>
            <ns3:atemp>19.0</ns3:atemp>
            <ns3:hr>145</ns3:hr>
          </ns3:TrackPointExtension>
        </extensions>
      </trkpt>
      <trkpt lat="-22.11624101735651493072509765625" lon="166.4629341848194599151611328125">
        <ele>314</ele>
        <time>2016-08-12T17:57:35.000Z</time>
        <extensions>
          <ns3:TrackPointExtension>
            <ns3:atemp>19.0</ns3:atemp>
            <ns3:hr>145</ns3:hr>
          </ns3:TrackPointExtension>
        </extensions>
      </trkpt>
      <trkpt lat="-22.11622157134115695953369140625" lon="166.46292789839208126068115234375">
        <ele>314.20001220703125</ele>
        <time>2016-08-12T17:57:36.000Z</time>
        <extensions>
          <ns3:TrackPointExtension>
            <ns3:atemp>19.0</ns3:atemp>
            <ns3:hr>145</ns3:hr>
          </ns3:TrackPointExtension>
        </extensions>
      </trkpt>
      <trkpt lat="-22.1162040531635284423828125" lon="166.46292421035468578338623046875">
        <ele>314.20001220703125</ele>
        <time>2016-08-12T17:57:37.000Z</time>
        <extensions>
          <ns3:TrackPointExtension>
            <ns3:atemp>19.0</ns3:atemp>
            <ns3:hr>145</ns3:hr>
          </ns3:TrackPointExtension>
        </extensions>
      </trkpt>
      <trkpt lat="-22.11618251167237758636474609375" lon="166.4629197679460048675537109375">
        <ele>314.399993896484375</ele>
        <time>2016-08-12T17:57:38.000Z</time>
        <extensions>
          <ns3:TrackPointExtension>
            <ns3:atemp>19.0</ns3:atemp>
            <ns3:hr>145</ns3:hr>
          </ns3:TrackPointExtension>
        </extensions>
      </trkpt>
      <trkpt lat="-22.116162814199924468994140625" lon="166.4629147388041019439697265625">
        <ele>314.79998779296875</ele>
        <time>2016-08-12T17:57:39.000Z</time>
        <extensions>
          <ns3:TrackPointExtension>
            <ns3:atemp>19.0</ns3:atemp>
            <ns3:hr>145</ns3:hr>
          </ns3:TrackPointExtension>
        </extensions>
      </trkpt>
      <trkpt lat="-22.11614311672747135162353515625" lon="166.46290920674800872802734375">
        <ele>314.79998779296875</ele>
        <time>2016-08-12T17:57:40.000Z</time>
        <extensions>
          <ns3:TrackPointExtension>
            <ns3:atemp>19.0</ns3:atemp>
            <ns3:hr>145</ns3:hr>
          </ns3:TrackPointExtension>
        </extensions>
      </trkpt>
      <trkpt lat="-22.11612165905535221099853515625" lon="166.46290895529091358184814453125">
        <ele>314.79998779296875</ele>
        <time>2016-08-12T17:57:41.000Z</time>
        <extensions>
          <ns3:TrackPointExtension>
            <ns3:atemp>19.0</ns3:atemp>
            <ns3:hr>146</ns3:hr>
          </ns3:TrackPointExtension>
        </extensions>
      </trkpt>
      <trkpt lat="-22.1161022968590259552001953125" lon="166.4629070274531841278076171875">
        <ele>315</ele>
        <time>2016-08-12T17:57:42.000Z</time>
        <extensions>
          <ns3:TrackPointExtension>
            <ns3:atemp>19.0</ns3:atemp>
            <ns3:hr>146</ns3:hr>
          </ns3:TrackPointExtension>
        </extensions>
      </trkpt>
      <trkpt lat="-22.11608343757688999176025390625" lon="166.462908871471881866455078125">
        <ele>315.20001220703125</ele>
        <time>2016-08-12T17:57:43.000Z</time>
        <extensions>
          <ns3:TrackPointExtension>
            <ns3:atemp>19.0</ns3:atemp>
            <ns3:hr>146</ns3:hr>
          </ns3:TrackPointExtension>
        </extensions>
      </trkpt>
      <trkpt lat="-22.116062231361865997314453125" lon="166.4629150740802288055419921875">
        <ele>315.20001220703125</ele>
        <time>2016-08-12T17:57:44.000Z</time>
        <extensions>
          <ns3:TrackPointExtension>
            <ns3:atemp>19.0</ns3:atemp>
            <ns3:hr>146</ns3:hr>
          </ns3:TrackPointExtension>
        </extensions>
      </trkpt>
      <trkpt lat="-22.1160431206226348876953125" lon="166.46292203105986118316650390625">
        <ele>315.79998779296875</ele>
        <time>2016-08-12T17:57:45.000Z</time>
        <extensions>
          <ns3:TrackPointExtension>
            <ns3:atemp>19.0</ns3:atemp>
            <ns3:hr>146</ns3:hr>
          </ns3:TrackPointExtension>
        </extensions>
      </trkpt>
      <trkpt lat="-22.11602509953081607818603515625" lon="166.4629281498491764068603515625">
        <ele>316</ele>
        <time>2016-08-12T17:57:46.000Z</time>
        <extensions>
          <ns3:TrackPointExtension>
            <ns3:atemp>19.0</ns3:atemp>
            <ns3:hr>146</ns3:hr>
          </ns3:TrackPointExtension>
        </extensions>
      </trkpt>
      <trkpt lat="-22.11600582115352153778076171875" lon="166.4629358612000942230224609375">
        <ele>316</ele>
        <time>2016-08-12T17:57:47.000Z</time>
        <extensions>
          <ns3:TrackPointExtension>
            <ns3:atemp>19.0</ns3:atemp>
            <ns3:hr>145</ns3:hr>
          </ns3:TrackPointExtension>
        </extensions>
      </trkpt>
      <trkpt lat="-22.11598821915686130523681640625" lon="166.4629418961703777313232421875">
        <ele>316.399993896484375</ele>
        <time>2016-08-12T17:57:48.000Z</time>
        <extensions>
          <ns3:TrackPointExtension>
            <ns3:atemp>19.0</ns3:atemp>
            <ns3:hr>145</ns3:hr>
          </ns3:TrackPointExtension>
        </extensions>
      </trkpt>
      <trkpt lat="-22.11597028188407421112060546875" lon="166.46294868551194667816162109375">
        <ele>316.79998779296875</ele>
        <time>2016-08-12T17:57:49.000Z</time>
        <extensions>
          <ns3:TrackPointExtension>
            <ns3:atemp>19.0</ns3:atemp>
            <ns3:hr>146</ns3:hr>
          </ns3:TrackPointExtension>
        </extensions>
      </trkpt>
      <trkpt lat="-22.11595259606838226318359375" lon="166.46295614540576934814453125">
        <ele>317</ele>
        <time>2016-08-12T17:57:50.000Z</time>
        <extensions>
          <ns3:TrackPointExtension>
            <ns3:atemp>19.0</ns3:atemp>
            <ns3:hr>146</ns3:hr>
          </ns3:TrackPointExtension>
        </extensions>
      </trkpt>
      <trkpt lat="-22.11593507789075374603271484375" lon="166.4629626832902431488037109375">
        <ele>317.20001220703125</ele>
        <time>2016-08-12T17:57:51.000Z</time>
        <extensions>
          <ns3:TrackPointExtension>
            <ns3:atemp>19.0</ns3:atemp>
            <ns3:hr>145</ns3:hr>
          </ns3:TrackPointExtension>
        </extensions>
      </trkpt>
      <trkpt lat="-22.115914709866046905517578125" lon="166.462965868413448333740234375">
        <ele>317.399993896484375</ele>
        <time>2016-08-12T17:57:52.000Z</time>
        <extensions>
          <ns3:TrackPointExtension>
            <ns3:atemp>19.0</ns3:atemp>
            <ns3:hr>145</ns3:hr>
          </ns3:TrackPointExtension>
        </extensions>
      </trkpt>
      <trkpt lat="-22.115893922746181488037109375" lon="166.46296695806086063385009765625">
        <ele>317.600006103515625</ele>
        <time>2016-08-12T17:57:53.000Z</time>
        <extensions>
          <ns3:TrackPointExtension>
            <ns3:atemp>19.0</ns3:atemp>
            <ns3:hr>145</ns3:hr>
          </ns3:TrackPointExtension>
        </extensions>
      </trkpt>
      <trkpt lat="-22.11587623693048954010009765625" lon="166.46297014318406581878662109375">
        <ele>317.79998779296875</ele>
        <time>2016-08-12T17:57:54.000Z</time>
        <extensions>
          <ns3:TrackPointExtension>
            <ns3:atemp>19.0</ns3:atemp>
            <ns3:hr>145</ns3:hr>
          </ns3:TrackPointExtension>
        </extensions>
      </trkpt>
      <trkpt lat="-22.11585796438157558441162109375" lon="166.46297517232596874237060546875">
        <ele>317.79998779296875</ele>
        <time>2016-08-12T17:57:55.000Z</time>
        <extensions>
          <ns3:TrackPointExtension>
            <ns3:atemp>19.0</ns3:atemp>
            <ns3:hr>145</ns3:hr>
          </ns3:TrackPointExtension>
        </extensions>
      </trkpt>
      <trkpt lat="-22.115835584700107574462890625" lon="166.462979614734649658203125">
        <ele>318</ele>
        <time>2016-08-12T17:57:56.000Z</time>
        <extensions>
          <ns3:TrackPointExtension>
            <ns3:atemp>19.0</ns3:atemp>
            <ns3:hr>145</ns3:hr>
          </ns3:TrackPointExtension>
        </extensions>
      </trkpt>
      <trkpt lat="-22.11581571958959102630615234375" lon="166.46298296749591827392578125">
        <ele>318.399993896484375</ele>
        <time>2016-08-12T17:57:57.000Z</time>
        <extensions>
          <ns3:TrackPointExtension>
            <ns3:atemp>19.0</ns3:atemp>
            <ns3:hr>145</ns3:hr>
          </ns3:TrackPointExtension>
        </extensions>
      </trkpt>
      <trkpt lat="-22.11579694412648677825927734375" lon="166.4629844762384891510009765625">
        <ele>318.399993896484375</ele>
        <time>2016-08-12T17:57:58.000Z</time>
        <extensions>
          <ns3:TrackPointExtension>
            <ns3:atemp>19.0</ns3:atemp>
            <ns3:hr>145</ns3:hr>
          </ns3:TrackPointExtension>
        </extensions>
      </trkpt>
      <trkpt lat="-22.11577883921563625335693359375" lon="166.462983973324298858642578125">
        <ele>318.600006103515625</ele>
        <time>2016-08-12T17:57:59.000Z</time>
        <extensions>
          <ns3:TrackPointExtension>
            <ns3:atemp>19.0</ns3:atemp>
            <ns3:hr>145</ns3:hr>
          </ns3:TrackPointExtension>
        </extensions>
      </trkpt>
      <trkpt lat="-22.1157586388289928436279296875" lon="166.4629848115146160125732421875">
        <ele>319</ele>
        <time>2016-08-12T17:58:00.000Z</time>
        <extensions>
          <ns3:TrackPointExtension>
            <ns3:atemp>19.0</ns3:atemp>
            <ns3:hr>146</ns3:hr>
          </ns3:TrackPointExtension>
        </extensions>
      </trkpt>
      <trkpt lat="-22.11573642678558826446533203125" lon="166.46298673935234546661376953125">
        <ele>319</ele>
        <time>2016-08-12T17:58:01.000Z</time>
        <extensions>
          <ns3:TrackPointExtension>
            <ns3:atemp>19.0</ns3:atemp>
            <ns3:hr>146</ns3:hr>
          </ns3:TrackPointExtension>
        </extensions>
      </trkpt>
      <trkpt lat="-22.11571631021797657012939453125" lon="166.46298833191394805908203125">
        <ele>319</ele>
        <time>2016-08-12T17:58:02.000Z</time>
        <extensions>
          <ns3:TrackPointExtension>
            <ns3:atemp>19.0</ns3:atemp>
            <ns3:hr>145</ns3:hr>
          </ns3:TrackPointExtension>
        </extensions>
      </trkpt>
      <trkpt lat="-22.1156979538500308990478515625" lon="166.4629884995520114898681640625">
        <ele>319.20001220703125</ele>
        <time>2016-08-12T17:58:03.000Z</time>
        <extensions>
          <ns3:TrackPointExtension>
            <ns3:atemp>19.0</ns3:atemp>
            <ns3:hr>145</ns3:hr>
          </ns3:TrackPointExtension>
        </extensions>
      </trkpt>
      <trkpt lat="-22.1156775020062923431396484375" lon="166.46298875100910663604736328125">
        <ele>319.399993896484375</ele>
        <time>2016-08-12T17:58:04.000Z</time>
        <extensions>
          <ns3:TrackPointExtension>
            <ns3:atemp>19.0</ns3:atemp>
            <ns3:hr>145</ns3:hr>
          </ns3:TrackPointExtension>
        </extensions>
      </trkpt>
      <trkpt lat="-22.1156547032296657562255859375" lon="166.462990678846836090087890625">
        <ele>319.20001220703125</ele>
        <time>2016-08-12T17:58:05.000Z</time>
        <extensions>
          <ns3:TrackPointExtension>
            <ns3:atemp>19.0</ns3:atemp>
            <ns3:hr>145</ns3:hr>
          </ns3:TrackPointExtension>
        </extensions>
      </trkpt>
      <trkpt lat="-22.11563131771981716156005859375" lon="166.46299210377037525177001953125">
        <ele>319.20001220703125</ele>
        <time>2016-08-12T17:58:06.000Z</time>
        <extensions>
          <ns3:TrackPointExtension>
            <ns3:atemp>19.0</ns3:atemp>
            <ns3:hr>145</ns3:hr>
          </ns3:TrackPointExtension>
        </extensions>
      </trkpt>
      <trkpt lat="-22.11560986004769802093505859375" lon="166.46299294196069240570068359375">
        <ele>319.600006103515625</ele>
        <time>2016-08-12T17:58:07.000Z</time>
        <extensions>
          <ns3:TrackPointExtension>
            <ns3:atemp>19.0</ns3:atemp>
            <ns3:hr>145</ns3:hr>
          </ns3:TrackPointExtension>
        </extensions>
      </trkpt>
      <trkpt lat="-22.11558957584202289581298828125" lon="166.46299310959875583648681640625">
        <ele>319.600006103515625</ele>
        <time>2016-08-12T17:58:08.000Z</time>
        <extensions>
          <ns3:TrackPointExtension>
            <ns3:atemp>19.0</ns3:atemp>
            <ns3:hr>145</ns3:hr>
          </ns3:TrackPointExtension>
        </extensions>
      </trkpt>
      <trkpt lat="-22.11556711234152317047119140625" lon="166.46299461834132671356201171875">
        <ele>319.600006103515625</ele>
        <time>2016-08-12T17:58:09.000Z</time>
        <extensions>
          <ns3:TrackPointExtension>
            <ns3:atemp>19.0</ns3:atemp>
            <ns3:hr>144</ns3:hr>
          </ns3:TrackPointExtension>
        </extensions>
      </trkpt>
      <trkpt lat="-22.11554850451648235321044921875" lon="166.4629968814551830291748046875">
        <ele>319.79998779296875</ele>
        <time>2016-08-12T17:58:10.000Z</time>
        <extensions>
          <ns3:TrackPointExtension>
            <ns3:atemp>19.0</ns3:atemp>
            <ns3:hr>144</ns3:hr>
          </ns3:TrackPointExtension>
        </extensions>
      </trkpt>
      <trkpt lat="-22.1155313216149806976318359375" lon="166.462999396026134490966796875">
        <ele>320</ele>
        <time>2016-08-12T17:58:11.000Z</time>
        <extensions>
          <ns3:TrackPointExtension>
            <ns3:atemp>19.0</ns3:atemp>
            <ns3:hr>144</ns3:hr>
          </ns3:TrackPointExtension>
        </extensions>
      </trkpt>
      <trkpt lat="-22.11550910957157611846923828125" lon="166.4630029164254665374755859375">
        <ele>320</ele>
        <time>2016-08-12T17:58:12.000Z</time>
        <extensions>
          <ns3:TrackPointExtension>
            <ns3:atemp>19.0</ns3:atemp>
            <ns3:hr>144</ns3:hr>
          </ns3:TrackPointExtension>
        </extensions>
      </trkpt>
      <trkpt lat="-22.11548815481364727020263671875" lon="166.46300576627254486083984375">
        <ele>320.399993896484375</ele>
        <time>2016-08-12T17:58:13.000Z</time>
        <extensions>
          <ns3:TrackPointExtension>
            <ns3:atemp>19.0</ns3:atemp>
            <ns3:hr>144</ns3:hr>
          </ns3:TrackPointExtension>
        </extensions>
      </trkpt>
      <trkpt lat="-22.11546711623668670654296875" lon="166.463006101548671722412109375">
        <ele>320.399993896484375</ele>
        <time>2016-08-12T17:58:14.000Z</time>
        <extensions>
          <ns3:TrackPointExtension>
            <ns3:atemp>19.0</ns3:atemp>
            <ns3:hr>145</ns3:hr>
          </ns3:TrackPointExtension>
        </extensions>
      </trkpt>
      <trkpt lat="-22.115442641079425811767578125" lon="166.4630089513957500457763671875">
        <ele>320.20001220703125</ele>
        <time>2016-08-12T17:58:15.000Z</time>
        <extensions>
          <ns3:TrackPointExtension>
            <ns3:atemp>19.0</ns3:atemp>
            <ns3:hr>144</ns3:hr>
          </ns3:TrackPointExtension>
        </extensions>
      </trkpt>
      <trkpt lat="-22.11542042903602123260498046875" lon="166.46301389671862125396728515625">
        <ele>320.399993896484375</ele>
        <time>2016-08-12T17:58:16.000Z</time>
        <extensions>
          <ns3:TrackPointExtension>
            <ns3:atemp>19.0</ns3:atemp>
            <ns3:hr>144</ns3:hr>
          </ns3:TrackPointExtension>
        </extensions>
      </trkpt>
      <trkpt lat="-22.1153988875448703765869140625" lon="166.46302060224115848541259765625">
        <ele>320.600006103515625</ele>
        <time>2016-08-12T17:58:17.000Z</time>
        <extensions>
          <ns3:TrackPointExtension>
            <ns3:atemp>19.0</ns3:atemp>
            <ns3:hr>145</ns3:hr>
          </ns3:TrackPointExtension>
        </extensions>
      </trkpt>
      <trkpt lat="-22.11537281982600688934326171875" lon="166.46302856504917144775390625">
        <ele>320.600006103515625</ele>
        <time>2016-08-12T17:58:18.000Z</time>
        <extensions>
          <ns3:TrackPointExtension>
            <ns3:atemp>19.0</ns3:atemp>
            <ns3:hr>144</ns3:hr>
          </ns3:TrackPointExtension>
        </extensions>
      </trkpt>
      <trkpt lat="-22.11534834466874599456787109375" lon="166.46303602494299411773681640625">
        <ele>321</ele>
        <time>2016-08-12T17:58:19.000Z</time>
        <extensions>
          <ns3:TrackPointExtension>
            <ns3:atemp>19.0</ns3:atemp>
            <ns3:hr>144</ns3:hr>
          </ns3:TrackPointExtension>
        </extensions>
      </trkpt>
      <trkpt lat="-22.11532370187342166900634765625" lon="166.4630468375980854034423828125">
        <ele>321</ele>
        <time>2016-08-12T17:58:20.000Z</time>
        <extensions>
          <ns3:TrackPointExtension>
            <ns3:atemp>19.0</ns3:atemp>
            <ns3:hr>145</ns3:hr>
          </ns3:TrackPointExtension>
        </extensions>
      </trkpt>
      <trkpt lat="-22.11529939435422420501708984375" lon="166.46305580623447895050048828125">
        <ele>321.20001220703125</ele>
        <time>2016-08-12T17:58:21.000Z</time>
        <extensions>
          <ns3:TrackPointExtension>
            <ns3:atemp>19.0</ns3:atemp>
            <ns3:hr>145</ns3:hr>
          </ns3:TrackPointExtension>
        </extensions>
      </trkpt>
      <trkpt lat="-22.11527793668210506439208984375" lon="166.46306200884282588958740234375">
        <ele>321.399993896484375</ele>
        <time>2016-08-12T17:58:22.000Z</time>
        <extensions>
          <ns3:TrackPointExtension>
            <ns3:atemp>19.0</ns3:atemp>
            <ns3:hr>145</ns3:hr>
          </ns3:TrackPointExtension>
        </extensions>
      </trkpt>
      <trkpt lat="-22.11525597609579563140869140625" lon="166.463067792356014251708984375">
        <ele>321.600006103515625</ele>
        <time>2016-08-12T17:58:23.000Z</time>
        <extensions>
          <ns3:TrackPointExtension>
            <ns3:atemp>19.0</ns3:atemp>
            <ns3:hr>145</ns3:hr>
          </ns3:TrackPointExtension>
        </extensions>
      </trkpt>
      <trkpt lat="-22.11523384787142276763916015625" lon="166.4630756713449954986572265625">
        <ele>321.600006103515625</ele>
        <time>2016-08-12T17:58:24.000Z</time>
        <extensions>
          <ns3:TrackPointExtension>
            <ns3:atemp>19.0</ns3:atemp>
            <ns3:hr>145</ns3:hr>
          </ns3:TrackPointExtension>
        </extensions>
      </trkpt>
      <trkpt lat="-22.11521373130381107330322265625" lon="166.4630820415914058685302734375">
        <ele>322</ele>
        <time>2016-08-12T17:58:25.000Z</time>
        <extensions>
          <ns3:TrackPointExtension>
            <ns3:atemp>19.0</ns3:atemp>
            <ns3:hr>145</ns3:hr>
          </ns3:TrackPointExtension>
        </extensions>
      </trkpt>
      <trkpt lat="-22.1151926927268505096435546875" lon="166.46308899857103824615478515625">
        <ele>322.20001220703125</ele>
        <time>2016-08-12T17:58:26.000Z</time>
        <extensions>
          <ns3:TrackPointExtension>
            <ns3:atemp>19.0</ns3:atemp>
            <ns3:hr>144</ns3:hr>
          </ns3:TrackPointExtension>
        </extensions>
      </trkpt>
      <trkpt lat="-22.1151714026927947998046875" lon="166.4630962908267974853515625">
        <ele>322.20001220703125</ele>
        <time>2016-08-12T17:58:27.000Z</time>
        <extensions>
          <ns3:TrackPointExtension>
            <ns3:atemp>19.0</ns3:atemp>
            <ns3:hr>145</ns3:hr>
          </ns3:TrackPointExtension>
        </extensions>
      </trkpt>
      <trkpt lat="-22.1151524595916271209716796875" lon="166.46310542710125446319580078125">
        <ele>322.20001220703125</ele>
        <time>2016-08-12T17:58:28.000Z</time>
        <extensions>
          <ns3:TrackPointExtension>
            <ns3:atemp>19.0</ns3:atemp>
            <ns3:hr>145</ns3:hr>
          </ns3:TrackPointExtension>
        </extensions>
      </trkpt>
      <trkpt lat="-22.11513477377593517303466796875" lon="166.46311364136636257171630859375">
        <ele>322.20001220703125</ele>
        <time>2016-08-12T17:58:29.000Z</time>
        <extensions>
          <ns3:TrackPointExtension>
            <ns3:atemp>19.0</ns3:atemp>
            <ns3:hr>144</ns3:hr>
          </ns3:TrackPointExtension>
        </extensions>
      </trkpt>
      <trkpt lat="-22.1151175908744335174560546875" lon="166.4631195925176143646240234375">
        <ele>322.399993896484375</ele>
        <time>2016-08-12T17:58:30.000Z</time>
        <extensions>
          <ns3:TrackPointExtension>
            <ns3:atemp>19.0</ns3:atemp>
            <ns3:hr>144</ns3:hr>
          </ns3:TrackPointExtension>
        </extensions>
      </trkpt>
      <trkpt lat="-22.1150998212397098541259765625" lon="166.46312504075467586517333984375">
        <ele>322.399993896484375</ele>
        <time>2016-08-12T17:58:31.000Z</time>
        <extensions>
          <ns3:TrackPointExtension>
            <ns3:atemp>19.0</ns3:atemp>
            <ns3:hr>144</ns3:hr>
          </ns3:TrackPointExtension>
        </extensions>
      </trkpt>
      <trkpt lat="-22.11507962085306644439697265625" lon="166.463126800954341888427734375">
        <ele>322.79998779296875</ele>
        <time>2016-08-12T17:58:32.000Z</time>
        <extensions>
          <ns3:TrackPointExtension>
            <ns3:atemp>19.0</ns3:atemp>
            <ns3:hr>144</ns3:hr>
          </ns3:TrackPointExtension>
        </extensions>
      </trkpt>
      <trkpt lat="-22.11506151594221591949462890625" lon="166.46312755532562732696533203125">
        <ele>323.20001220703125</ele>
        <time>2016-08-12T17:58:33.000Z</time>
        <extensions>
          <ns3:TrackPointExtension>
            <ns3:atemp>19.0</ns3:atemp>
            <ns3:hr>144</ns3:hr>
          </ns3:TrackPointExtension>
        </extensions>
      </trkpt>
      <trkpt lat="-22.11504399776458740234375" lon="166.4631239511072635650634765625">
        <ele>323.399993896484375</ele>
        <time>2016-08-12T17:58:34.000Z</time>
        <extensions>
          <ns3:TrackPointExtension>
            <ns3:atemp>19.0</ns3:atemp>
            <ns3:hr>144</ns3:hr>
          </ns3:TrackPointExtension>
        </extensions>
      </trkpt>
      <trkpt lat="-22.11502228863537311553955078125" lon="166.46312135271728038787841796875">
        <ele>323.600006103515625</ele>
        <time>2016-08-12T17:58:35.000Z</time>
        <extensions>
          <ns3:TrackPointExtension>
            <ns3:atemp>19.0</ns3:atemp>
            <ns3:hr>144</ns3:hr>
          </ns3:TrackPointExtension>
        </extensions>
      </trkpt>
      <trkpt lat="-22.1150024235248565673828125" lon="166.463120095431804656982421875">
        <ele>324</ele>
        <time>2016-08-12T17:58:36.000Z</time>
        <extensions>
          <ns3:TrackPointExtension>
            <ns3:atemp>19.0</ns3:atemp>
            <ns3:hr>144</ns3:hr>
          </ns3:TrackPointExtension>
        </extensions>
      </trkpt>
      <trkpt lat="-22.1149831451475620269775390625" lon="166.46311582066118717193603515625">
        <ele>324</ele>
        <time>2016-08-12T17:58:37.000Z</time>
        <extensions>
          <ns3:TrackPointExtension>
            <ns3:atemp>19.0</ns3:atemp>
            <ns3:hr>144</ns3:hr>
          </ns3:TrackPointExtension>
        </extensions>
      </trkpt>
      <trkpt lat="-22.11496361531317234039306640625" lon="166.463110037147998809814453125">
        <ele>324</ele>
        <time>2016-08-12T17:58:38.000Z</time>
        <extensions>
          <ns3:TrackPointExtension>
            <ns3:atemp>19.0</ns3:atemp>
            <ns3:hr>144</ns3:hr>
          </ns3:TrackPointExtension>
        </extensions>
      </trkpt>
      <trkpt lat="-22.11494668386876583099365234375" lon="166.46310324780642986297607421875">
        <ele>324.20001220703125</ele>
        <time>2016-08-12T17:58:39.000Z</time>
        <extensions>
          <ns3:TrackPointExtension>
            <ns3:atemp>19.0</ns3:atemp>
            <ns3:hr>144</ns3:hr>
          </ns3:TrackPointExtension>
        </extensions>
      </trkpt>
      <trkpt lat="-22.114926315844058990478515625" lon="166.46309670992195606231689453125">
        <ele>324.20001220703125</ele>
        <time>2016-08-12T17:58:40.000Z</time>
        <extensions>
          <ns3:TrackPointExtension>
            <ns3:atemp>19.0</ns3:atemp>
            <ns3:hr>144</ns3:hr>
          </ns3:TrackPointExtension>
        </extensions>
      </trkpt>
      <trkpt lat="-22.1149053610861301422119140625" lon="166.46309151314198970794677734375">
        <ele>324.399993896484375</ele>
        <time>2016-08-12T17:58:41.000Z</time>
        <extensions>
          <ns3:TrackPointExtension>
            <ns3:atemp>19.0</ns3:atemp>
            <ns3:hr>144</ns3:hr>
          </ns3:TrackPointExtension>
        </extensions>
      </trkpt>
      <trkpt lat="-22.11488851346075534820556640625" lon="166.4630884118378162384033203125">
        <ele>324.600006103515625</ele>
        <time>2016-08-12T17:58:42.000Z</time>
        <extensions>
          <ns3:TrackPointExtension>
            <ns3:atemp>19.0</ns3:atemp>
            <ns3:hr>144</ns3:hr>
          </ns3:TrackPointExtension>
        </extensions>
      </trkpt>
      <trkpt lat="-22.11486957035958766937255859375" lon="166.463084556162357330322265625">
        <ele>324.600006103515625</ele>
        <time>2016-08-12T17:58:43.000Z</time>
        <extensions>
          <ns3:TrackPointExtension>
            <ns3:atemp>19.0</ns3:atemp>
            <ns3:hr>143</ns3:hr>
          </ns3:TrackPointExtension>
        </extensions>
      </trkpt>
      <trkpt lat="-22.11485381238162517547607421875" lon="166.46307961083948612213134765625">
        <ele>324.600006103515625</ele>
        <time>2016-08-12T17:58:44.000Z</time>
        <extensions>
          <ns3:TrackPointExtension>
            <ns3:atemp>19.0</ns3:atemp>
            <ns3:hr>144</ns3:hr>
          </ns3:TrackPointExtension>
        </extensions>
      </trkpt>
      <trkpt lat="-22.11483679711818695068359375" lon="166.4630726538598537445068359375">
        <ele>325</ele>
        <time>2016-08-12T17:58:45.000Z</time>
        <extensions>
          <ns3:TrackPointExtension>
            <ns3:atemp>19.0</ns3:atemp>
            <ns3:hr>143</ns3:hr>
          </ns3:TrackPointExtension>
        </extensions>
      </trkpt>
      <trkpt lat="-22.11481575854122638702392578125" lon="166.463069804012775421142578125">
        <ele>325</ele>
        <time>2016-08-12T17:58:46.000Z</time>
        <extensions>
          <ns3:TrackPointExtension>
            <ns3:atemp>19.0</ns3:atemp>
            <ns3:hr>143</ns3:hr>
          </ns3:TrackPointExtension>
        </extensions>
      </trkpt>
      <trkpt lat="-22.11479497142136096954345703125" lon="166.46307022310793399810791015625">
        <ele>325.20001220703125</ele>
        <time>2016-08-12T17:58:47.000Z</time>
        <extensions>
          <ns3:TrackPointExtension>
            <ns3:atemp>19.0</ns3:atemp>
            <ns3:hr>143</ns3:hr>
          </ns3:TrackPointExtension>
        </extensions>
      </trkpt>
      <trkpt lat="-22.11477552540600299835205078125" lon="166.46306888200342655181884765625">
        <ele>325.600006103515625</ele>
        <time>2016-08-12T17:58:48.000Z</time>
        <extensions>
          <ns3:TrackPointExtension>
            <ns3:atemp>19.0</ns3:atemp>
            <ns3:hr>143</ns3:hr>
          </ns3:TrackPointExtension>
        </extensions>
      </trkpt>
      <trkpt lat="-22.11475607939064502716064453125" lon="166.4630659483373165130615234375">
        <ele>325.600006103515625</ele>
        <time>2016-08-12T17:58:49.000Z</time>
        <extensions>
          <ns3:TrackPointExtension>
            <ns3:atemp>19.0</ns3:atemp>
            <ns3:hr>143</ns3:hr>
          </ns3:TrackPointExtension>
        </extensions>
      </trkpt>
      <trkpt lat="-22.114737890660762786865234375" lon="166.46306469105184078216552734375">
        <ele>325.600006103515625</ele>
        <time>2016-08-12T17:58:50.000Z</time>
        <extensions>
          <ns3:TrackPointExtension>
            <ns3:atemp>19.0</ns3:atemp>
            <ns3:hr>143</ns3:hr>
          </ns3:TrackPointExtension>
        </extensions>
      </trkpt>
      <trkpt lat="-22.1147199533879756927490234375" lon="166.4630599133670330047607421875">
        <ele>326</ele>
        <time>2016-08-12T17:58:51.000Z</time>
        <extensions>
          <ns3:TrackPointExtension>
            <ns3:atemp>19.0</ns3:atemp>
            <ns3:hr>144</ns3:hr>
          </ns3:TrackPointExtension>
        </extensions>
      </trkpt>
      <trkpt lat="-22.11470000445842742919921875" lon="166.46305480040609836578369140625">
        <ele>326.20001220703125</ele>
        <time>2016-08-12T17:58:52.000Z</time>
        <extensions>
          <ns3:TrackPointExtension>
            <ns3:atemp>19.0</ns3:atemp>
            <ns3:hr>143</ns3:hr>
          </ns3:TrackPointExtension>
        </extensions>
      </trkpt>
      <trkpt lat="-22.11468030698597431182861328125" lon="166.46304977126419544219970703125">
        <ele>326.20001220703125</ele>
        <time>2016-08-12T17:58:53.000Z</time>
        <extensions>
          <ns3:TrackPointExtension>
            <ns3:atemp>19.0</ns3:atemp>
            <ns3:hr>143</ns3:hr>
          </ns3:TrackPointExtension>
        </extensions>
      </trkpt>
      <trkpt lat="-22.11465901695191860198974609375" lon="166.46304658614099025726318359375">
        <ele>326.600006103515625</ele>
        <time>2016-08-12T17:58:54.000Z</time>
        <extensions>
          <ns3:TrackPointExtension>
            <ns3:atemp>19.0</ns3:atemp>
            <ns3:hr>144</ns3:hr>
          </ns3:TrackPointExtension>
        </extensions>
      </trkpt>
      <trkpt lat="-22.11463839747011661529541015625" lon="166.46304440684616565704345703125">
        <ele>326.600006103515625</ele>
        <time>2016-08-12T17:58:55.000Z</time>
        <extensions>
          <ns3:TrackPointExtension>
            <ns3:atemp>19.0</ns3:atemp>
            <ns3:hr>144</ns3:hr>
          </ns3:TrackPointExtension>
        </extensions>
      </trkpt>
      <trkpt lat="-22.1146203763782978057861328125" lon="166.463044993579387664794921875">
        <ele>326.399993896484375</ele>
        <time>2016-08-12T17:58:56.000Z</time>
        <extensions>
          <ns3:TrackPointExtension>
            <ns3:atemp>19.0</ns3:atemp>
            <ns3:hr>143</ns3:hr>
          </ns3:TrackPointExtension>
        </extensions>
      </trkpt>
      <trkpt lat="-22.114601098001003265380859375" lon="166.46304105408489704132080078125">
        <ele>326.600006103515625</ele>
        <time>2016-08-12T17:58:57.000Z</time>
        <extensions>
          <ns3:TrackPointExtension>
            <ns3:atemp>19.0</ns3:atemp>
            <ns3:hr>144</ns3:hr>
          </ns3:TrackPointExtension>
        </extensions>
      </trkpt>
      <trkpt lat="-22.11457972414791584014892578125" lon="166.4630334265530109405517578125">
        <ele>326.79998779296875</ele>
        <time>2016-08-12T17:58:58.000Z</time>
        <extensions>
          <ns3:TrackPointExtension>
            <ns3:atemp>19.0</ns3:atemp>
            <ns3:hr>144</ns3:hr>
          </ns3:TrackPointExtension>
        </extensions>
      </trkpt>
      <trkpt lat="-22.11456094868481159210205078125" lon="166.46302797831594944000244140625">
        <ele>326.79998779296875</ele>
        <time>2016-08-12T17:58:59.000Z</time>
        <extensions>
          <ns3:TrackPointExtension>
            <ns3:atemp>19.0</ns3:atemp>
            <ns3:hr>144</ns3:hr>
          </ns3:TrackPointExtension>
        </extensions>
      </trkpt>
      <trkpt lat="-22.11454133503139019012451171875" lon="166.46302445791661739349365234375">
        <ele>327.20001220703125</ele>
        <time>2016-08-12T17:59:00.000Z</time>
        <extensions>
          <ns3:TrackPointExtension>
            <ns3:atemp>19.0</ns3:atemp>
            <ns3:hr>144</ns3:hr>
          </ns3:TrackPointExtension>
        </extensions>
      </trkpt>
      <trkpt lat="-22.1145197935402393341064453125" lon="166.46302211098372936248779296875">
        <ele>327.399993896484375</ele>
        <time>2016-08-12T17:59:01.000Z</time>
        <extensions>
          <ns3:TrackPointExtension>
            <ns3:atemp>19.0</ns3:atemp>
            <ns3:hr>144</ns3:hr>
          </ns3:TrackPointExtension>
        </extensions>
      </trkpt>
      <trkpt lat="-22.11450177244842052459716796875" lon="166.4630186744034290313720703125">
        <ele>327.399993896484375</ele>
        <time>2016-08-12T17:59:02.000Z</time>
        <extensions>
          <ns3:TrackPointExtension>
            <ns3:atemp>19.0</ns3:atemp>
            <ns3:hr>144</ns3:hr>
          </ns3:TrackPointExtension>
        </extensions>
      </trkpt>
      <trkpt lat="-22.114482410252094268798828125" lon="166.46301289089024066925048828125">
        <ele>327.600006103515625</ele>
        <time>2016-08-12T17:59:03.000Z</time>
        <extensions>
          <ns3:TrackPointExtension>
            <ns3:atemp>19.0</ns3:atemp>
            <ns3:hr>143</ns3:hr>
          </ns3:TrackPointExtension>
        </extensions>
      </trkpt>
      <trkpt lat="-22.11446204222738742828369140625" lon="166.46300786174833774566650390625">
        <ele>328</ele>
        <time>2016-08-12T17:59:04.000Z</time>
        <extensions>
          <ns3:TrackPointExtension>
            <ns3:atemp>19.0</ns3:atemp>
            <ns3:hr>144</ns3:hr>
          </ns3:TrackPointExtension>
        </extensions>
      </trkpt>
      <trkpt lat="-22.114442177116870880126953125" lon="166.46300266496837139129638671875">
        <ele>327.79998779296875</ele>
        <time>2016-08-12T17:59:05.000Z</time>
        <extensions>
          <ns3:TrackPointExtension>
            <ns3:atemp>19.0</ns3:atemp>
            <ns3:hr>143</ns3:hr>
          </ns3:TrackPointExtension>
        </extensions>
      </trkpt>
      <trkpt lat="-22.1144212223589420318603515625" lon="166.46299679763615131378173828125">
        <ele>328</ele>
        <time>2016-08-12T17:59:06.000Z</time>
        <extensions>
          <ns3:TrackPointExtension>
            <ns3:atemp>19.0</ns3:atemp>
            <ns3:hr>143</ns3:hr>
          </ns3:TrackPointExtension>
        </extensions>
      </trkpt>
      <trkpt lat="-22.1143997646868228912353515625" lon="166.462993361055850982666015625">
        <ele>328.20001220703125</ele>
        <time>2016-08-12T17:59:07.000Z</time>
        <extensions>
          <ns3:TrackPointExtension>
            <ns3:atemp>19.0</ns3:atemp>
            <ns3:hr>143</ns3:hr>
          </ns3:TrackPointExtension>
        </extensions>
      </trkpt>
      <trkpt lat="-22.11437520571053028106689453125" lon="166.4629890024662017822265625">
        <ele>328.20001220703125</ele>
        <time>2016-08-12T17:59:08.000Z</time>
        <extensions>
          <ns3:TrackPointExtension>
            <ns3:atemp>19.0</ns3:atemp>
            <ns3:hr>144</ns3:hr>
          </ns3:TrackPointExtension>
        </extensions>
      </trkpt>
      <trkpt lat="-22.1143524907529354095458984375" lon="166.4629804529249668121337890625">
        <ele>328.399993896484375</ele>
        <time>2016-08-12T17:59:09.000Z</time>
        <extensions>
          <ns3:TrackPointExtension>
            <ns3:atemp>19.0</ns3:atemp>
            <ns3:hr>143</ns3:hr>
          </ns3:TrackPointExtension>
        </extensions>
      </trkpt>
      <trkpt lat="-22.11432994343340396881103515625" lon="166.46297483704984188079833984375">
        <ele>328.399993896484375</ele>
        <time>2016-08-12T17:59:10.000Z</time>
        <extensions>
          <ns3:TrackPointExtension>
            <ns3:atemp>19.0</ns3:atemp>
            <ns3:hr>143</ns3:hr>
          </ns3:TrackPointExtension>
        </extensions>
      </trkpt>
      <trkpt lat="-22.11430865339934825897216796875" lon="166.46297232247889041900634765625">
        <ele>328.399993896484375</ele>
        <time>2016-08-12T17:59:11.000Z</time>
        <extensions>
          <ns3:TrackPointExtension>
            <ns3:atemp>19.0</ns3:atemp>
            <ns3:hr>144</ns3:hr>
          </ns3:TrackPointExtension>
        </extensions>
      </trkpt>
      <trkpt lat="-22.11429121904075145721435546875" lon="166.4629755914211273193359375">
        <ele>328.399993896484375</ele>
        <time>2016-08-12T17:59:12.000Z</time>
        <extensions>
          <ns3:TrackPointExtension>
            <ns3:atemp>19.0</ns3:atemp>
            <ns3:hr>144</ns3:hr>
          </ns3:TrackPointExtension>
        </extensions>
      </trkpt>
      <trkpt lat="-22.11427889764308929443359375" lon="166.46297768689692020416259765625">
        <ele>328.399993896484375</ele>
        <time>2016-08-12T17:59:13.000Z</time>
        <extensions>
          <ns3:TrackPointExtension>
            <ns3:atemp>19.0</ns3:atemp>
            <ns3:hr>143</ns3:hr>
          </ns3:TrackPointExtension>
        </extensions>
      </trkpt>
      <trkpt lat="-22.114271856844425201416015625" lon="166.4629811234772205352783203125">
        <ele>328.399993896484375</ele>
        <time>2016-08-12T17:59:14.000Z</time>
        <extensions>
          <ns3:TrackPointExtension>
            <ns3:atemp>19.0</ns3:atemp>
            <ns3:hr>143</ns3:hr>
          </ns3:TrackPointExtension>
        </extensions>
      </trkpt>
      <trkpt lat="-22.114267833530902862548828125" lon="166.46298271603882312774658203125">
        <ele>328.399993896484375</ele>
        <time>2016-08-12T17:59:15.000Z</time>
        <extensions>
          <ns3:TrackPointExtension>
            <ns3:atemp>19.0</ns3:atemp>
            <ns3:hr>143</ns3:hr>
          </ns3:TrackPointExtension>
        </extensions>
      </trkpt>
      <trkpt lat="-22.114266492426395416259765625" lon="166.4629851467907428741455078125">
        <ele>328.399993896484375</ele>
        <time>2016-08-12T17:59:16.000Z</time>
        <extensions>
          <ns3:TrackPointExtension>
            <ns3:atemp>19.0</ns3:atemp>
            <ns3:hr>142</ns3:hr>
          </ns3:TrackPointExtension>
        </extensions>
      </trkpt>
      <trkpt lat="-22.1142696775496006011962890625" lon="166.46298824809491634368896484375">
        <ele>328.399993896484375</ele>
        <time>2016-08-12T17:59:18.000Z</time>
        <extensions>
          <ns3:TrackPointExtension>
            <ns3:atemp>19.0</ns3:atemp>
            <ns3:hr>140</ns3:hr>
          </ns3:TrackPointExtension>
        </extensions>
      </trkpt>
      <trkpt lat="-22.11427127011120319366455078125" lon="166.462991349399089813232421875">
        <ele>328.399993896484375</ele>
        <time>2016-08-12T17:59:19.000Z</time>
        <extensions>
          <ns3:TrackPointExtension>
            <ns3:atemp>19.0</ns3:atemp>
            <ns3:hr>140</ns3:hr>
          </ns3:TrackPointExtension>
        </extensions>
      </trkpt>
      <trkpt lat="-22.114272527396678924560546875" lon="166.46299378015100955963134765625">
        <ele>328.600006103515625</ele>
        <time>2016-08-12T17:59:20.000Z</time>
        <extensions>
          <ns3:TrackPointExtension>
            <ns3:atemp>19.0</ns3:atemp>
            <ns3:hr>139</ns3:hr>
          </ns3:TrackPointExtension>
        </extensions>
      </trkpt>
      <trkpt lat="-22.1142723597586154937744140625" lon="166.462995707988739013671875">
        <ele>328.600006103515625</ele>
        <time>2016-08-12T17:59:22.000Z</time>
        <extensions>
          <ns3:TrackPointExtension>
            <ns3:atemp>19.0</ns3:atemp>
            <ns3:hr>138</ns3:hr>
          </ns3:TrackPointExtension>
        </extensions>
      </trkpt>
      <trkpt lat="-22.11427353322505950927734375" lon="166.4629965461790561676025390625">
        <ele>328.600006103515625</ele>
        <time>2016-08-12T17:59:23.000Z</time>
        <extensions>
          <ns3:TrackPointExtension>
            <ns3:atemp>19.0</ns3:atemp>
            <ns3:hr>137</ns3:hr>
          </ns3:TrackPointExtension>
        </extensions>
      </trkpt>
      <trkpt lat="-22.11427378468215465545654296875" lon="166.4629931934177875518798828125">
        <ele>328.600006103515625</ele>
        <time>2016-08-12T17:59:24.000Z</time>
        <extensions>
          <ns3:TrackPointExtension>
            <ns3:atemp>19.0</ns3:atemp>
            <ns3:hr>137</ns3:hr>
          </ns3:TrackPointExtension>
        </extensions>
      </trkpt>
      <trkpt lat="-22.11426573805510997772216796875" lon="166.462987996637821197509765625">
        <ele>328.600006103515625</ele>
        <time>2016-08-12T17:59:25.000Z</time>
        <extensions>
          <ns3:TrackPointExtension>
            <ns3:atemp>19.0</ns3:atemp>
            <ns3:hr>137</ns3:hr>
          </ns3:TrackPointExtension>
        </extensions>
      </trkpt>
      <trkpt lat="-22.11425249464809894561767578125" lon="166.4629827998578548431396484375">
        <ele>328.79998779296875</ele>
        <time>2016-08-12T17:59:26.000Z</time>
        <extensions>
          <ns3:TrackPointExtension>
            <ns3:atemp>19.0</ns3:atemp>
            <ns3:hr>137</ns3:hr>
          </ns3:TrackPointExtension>
        </extensions>
      </trkpt>
      <trkpt lat="-22.11423707194626331329345703125" lon="166.46297919563949108123779296875">
        <ele>329</ele>
        <time>2016-08-12T17:59:27.000Z</time>
        <extensions>
          <ns3:TrackPointExtension>
            <ns3:atemp>19.0</ns3:atemp>
            <ns3:hr>137</ns3:hr>
          </ns3:TrackPointExtension>
        </extensions>
      </trkpt>
      <trkpt lat="-22.114218212664127349853515625" lon="166.46297316066920757293701171875">
        <ele>329</ele>
        <time>2016-08-12T17:59:28.000Z</time>
        <extensions>
          <ns3:TrackPointExtension>
            <ns3:atemp>19.0</ns3:atemp>
            <ns3:hr>138</ns3:hr>
          </ns3:TrackPointExtension>
        </extensions>
      </trkpt>
      <trkpt lat="-22.1141999401152133941650390625" lon="166.4629667066037654876708984375">
        <ele>329.20001220703125</ele>
        <time>2016-08-12T17:59:29.000Z</time>
        <extensions>
          <ns3:TrackPointExtension>
            <ns3:atemp>19.0</ns3:atemp>
            <ns3:hr>138</ns3:hr>
          </ns3:TrackPointExtension>
        </extensions>
      </trkpt>
      <trkpt lat="-22.11418091319501399993896484375" lon="166.46295974962413311004638671875">
        <ele>329.79998779296875</ele>
        <time>2016-08-12T17:59:30.000Z</time>
        <extensions>
          <ns3:TrackPointExtension>
            <ns3:atemp>19.0</ns3:atemp>
            <ns3:hr>138</ns3:hr>
          </ns3:TrackPointExtension>
        </extensions>
      </trkpt>
      <trkpt lat="-22.1141597069799900054931640625" lon="166.4629541337490081787109375">
        <ele>329.79998779296875</ele>
        <time>2016-08-12T17:59:31.000Z</time>
        <extensions>
          <ns3:TrackPointExtension>
            <ns3:atemp>19.0</ns3:atemp>
            <ns3:hr>138</ns3:hr>
          </ns3:TrackPointExtension>
        </extensions>
      </trkpt>
      <trkpt lat="-22.11413950659334659576416015625" lon="166.46295036189258098602294921875">
        <ele>329.79998779296875</ele>
        <time>2016-08-12T17:59:32.000Z</time>
        <extensions>
          <ns3:TrackPointExtension>
            <ns3:atemp>19.0</ns3:atemp>
            <ns3:hr>138</ns3:hr>
          </ns3:TrackPointExtension>
        </extensions>
      </trkpt>
      <trkpt lat="-22.11411922238767147064208984375" lon="166.4629455842077732086181640625">
        <ele>330</ele>
        <time>2016-08-12T17:59:33.000Z</time>
        <extensions>
          <ns3:TrackPointExtension>
            <ns3:atemp>19.0</ns3:atemp>
            <ns3:hr>137</ns3:hr>
          </ns3:TrackPointExtension>
        </extensions>
      </trkpt>
      <trkpt lat="-22.11409709416329860687255859375" lon="166.46294030360877513885498046875">
        <ele>330</ele>
        <time>2016-08-12T17:59:34.000Z</time>
        <extensions>
          <ns3:TrackPointExtension>
            <ns3:atemp>19.0</ns3:atemp>
            <ns3:hr>137</ns3:hr>
          </ns3:TrackPointExtension>
        </extensions>
      </trkpt>
      <trkpt lat="-22.11407907307147979736328125" lon="166.4629365317523479461669921875">
        <ele>330</ele>
        <time>2016-08-12T17:59:35.000Z</time>
        <extensions>
          <ns3:TrackPointExtension>
            <ns3:atemp>19.0</ns3:atemp>
            <ns3:hr>137</ns3:hr>
          </ns3:TrackPointExtension>
        </extensions>
      </trkpt>
      <trkpt lat="-22.11405971087515354156494140625" lon="166.4629301615059375762939453125">
        <ele>330.20001220703125</ele>
        <time>2016-08-12T17:59:36.000Z</time>
        <extensions>
          <ns3:TrackPointExtension>
            <ns3:atemp>19.0</ns3:atemp>
            <ns3:hr>137</ns3:hr>
          </ns3:TrackPointExtension>
        </extensions>
      </trkpt>
      <trkpt lat="-22.11404026485979557037353515625" lon="166.46292555145919322967529296875">
        <ele>330.600006103515625</ele>
        <time>2016-08-12T17:59:37.000Z</time>
        <extensions>
          <ns3:TrackPointExtension>
            <ns3:atemp>19.0</ns3:atemp>
            <ns3:hr>137</ns3:hr>
          </ns3:TrackPointExtension>
        </extensions>
      </trkpt>
      <trkpt lat="-22.11402182467281818389892578125" lon="166.46292538382112979888916015625">
        <ele>330.399993896484375</ele>
        <time>2016-08-12T17:59:38.000Z</time>
        <extensions>
          <ns3:TrackPointExtension>
            <ns3:atemp>19.0</ns3:atemp>
            <ns3:hr>137</ns3:hr>
          </ns3:TrackPointExtension>
        </extensions>
      </trkpt>
      <trkpt lat="-22.11399852298200130462646484375" lon="166.462924294173717498779296875">
        <ele>330.79998779296875</ele>
        <time>2016-08-12T17:59:39.000Z</time>
        <extensions>
          <ns3:TrackPointExtension>
            <ns3:atemp>19.0</ns3:atemp>
            <ns3:hr>137</ns3:hr>
          </ns3:TrackPointExtension>
        </extensions>
      </trkpt>
      <trkpt lat="-22.113978154957294464111328125" lon="166.46292504854500293731689453125">
        <ele>331.20001220703125</ele>
        <time>2016-08-12T17:59:40.000Z</time>
        <extensions>
          <ns3:TrackPointExtension>
            <ns3:atemp>19.0</ns3:atemp>
            <ns3:hr>137</ns3:hr>
          </ns3:TrackPointExtension>
        </extensions>
      </trkpt>
      <trkpt lat="-22.11395745165646076202392578125" lon="166.4629246294498443603515625">
        <ele>331.20001220703125</ele>
        <time>2016-08-12T17:59:41.000Z</time>
        <extensions>
          <ns3:TrackPointExtension>
            <ns3:atemp>19.0</ns3:atemp>
            <ns3:hr>137</ns3:hr>
          </ns3:TrackPointExtension>
        </extensions>
      </trkpt>
      <trkpt lat="-22.1139349043369293212890625" lon="166.4629247970879077911376953125">
        <ele>331.20001220703125</ele>
        <time>2016-08-12T17:59:42.000Z</time>
        <extensions>
          <ns3:TrackPointExtension>
            <ns3:atemp>19.0</ns3:atemp>
            <ns3:hr>137</ns3:hr>
          </ns3:TrackPointExtension>
        </extensions>
      </trkpt>
      <trkpt lat="-22.113914787769317626953125" lon="166.4629224501550197601318359375">
        <ele>331.600006103515625</ele>
        <time>2016-08-12T17:59:43.000Z</time>
        <extensions>
          <ns3:TrackPointExtension>
            <ns3:atemp>19.0</ns3:atemp>
            <ns3:hr>137</ns3:hr>
          </ns3:TrackPointExtension>
        </extensions>
      </trkpt>
      <trkpt lat="-22.11389400064945220947265625" lon="166.46292186342179775238037109375">
        <ele>331.79998779296875</ele>
        <time>2016-08-12T17:59:44.000Z</time>
        <extensions>
          <ns3:TrackPointExtension>
            <ns3:atemp>19.0</ns3:atemp>
            <ns3:hr>137</ns3:hr>
          </ns3:TrackPointExtension>
        </extensions>
      </trkpt>
      <trkpt lat="-22.11387120187282562255859375" lon="166.46292035467922687530517578125">
        <ele>331.79998779296875</ele>
        <time>2016-08-12T17:59:45.000Z</time>
        <extensions>
          <ns3:TrackPointExtension>
            <ns3:atemp>19.0</ns3:atemp>
            <ns3:hr>136</ns3:hr>
          </ns3:TrackPointExtension>
        </extensions>
      </trkpt>
      <trkpt lat="-22.11385150440037250518798828125" lon="166.46291968412697315216064453125">
        <ele>332</ele>
        <time>2016-08-12T17:59:46.000Z</time>
        <extensions>
          <ns3:TrackPointExtension>
            <ns3:atemp>19.0</ns3:atemp>
            <ns3:hr>136</ns3:hr>
          </ns3:TrackPointExtension>
        </extensions>
      </trkpt>
      <trkpt lat="-22.11383163928985595703125" lon="166.46291188895702362060546875">
        <ele>332.399993896484375</ele>
        <time>2016-08-12T17:59:47.000Z</time>
        <extensions>
          <ns3:TrackPointExtension>
            <ns3:atemp>19.0</ns3:atemp>
            <ns3:hr>136</ns3:hr>
          </ns3:TrackPointExtension>
        </extensions>
      </trkpt>
      <trkpt lat="-22.113811187446117401123046875" lon="166.462903507053852081298828125">
        <ele>332.399993896484375</ele>
        <time>2016-08-12T17:59:48.000Z</time>
        <extensions>
          <ns3:TrackPointExtension>
            <ns3:atemp>19.0</ns3:atemp>
            <ns3:hr>135</ns3:hr>
          </ns3:TrackPointExtension>
        </extensions>
      </trkpt>
      <trkpt lat="-22.1137912385165691375732421875" lon="166.4628973044455051422119140625">
        <ele>332.79998779296875</ele>
        <time>2016-08-12T17:59:49.000Z</time>
        <extensions>
          <ns3:TrackPointExtension>
            <ns3:atemp>19.0</ns3:atemp>
            <ns3:hr>136</ns3:hr>
          </ns3:TrackPointExtension>
        </extensions>
      </trkpt>
      <trkpt lat="-22.1137704513967037200927734375" lon="166.46289017982780933380126953125">
        <ele>333</ele>
        <time>2016-08-12T17:59:50.000Z</time>
        <extensions>
          <ns3:TrackPointExtension>
            <ns3:atemp>19.0</ns3:atemp>
            <ns3:hr>136</ns3:hr>
          </ns3:TrackPointExtension>
        </extensions>
      </trkpt>
      <trkpt lat="-22.11374941281974315643310546875" lon="166.46288372576236724853515625">
        <ele>332.79998779296875</ele>
        <time>2016-08-12T17:59:51.000Z</time>
        <extensions>
          <ns3:TrackPointExtension>
            <ns3:atemp>19.0</ns3:atemp>
            <ns3:hr>136</ns3:hr>
          </ns3:TrackPointExtension>
        </extensions>
      </trkpt>
      <trkpt lat="-22.11373097263276576995849609375" lon="166.46287291310727596282958984375">
        <ele>333</ele>
        <time>2016-08-12T17:59:52.000Z</time>
        <extensions>
          <ns3:TrackPointExtension>
            <ns3:atemp>19.0</ns3:atemp>
            <ns3:hr>136</ns3:hr>
          </ns3:TrackPointExtension>
        </extensions>
      </trkpt>
      <trkpt lat="-22.1137107722461223602294921875" lon="166.46285916678607463836669921875">
        <ele>333.600006103515625</ele>
        <time>2016-08-12T17:59:53.000Z</time>
        <extensions>
          <ns3:TrackPointExtension>
            <ns3:atemp>19.0</ns3:atemp>
            <ns3:hr>136</ns3:hr>
          </ns3:TrackPointExtension>
        </extensions>
      </trkpt>
      <trkpt lat="-22.1136936731636524200439453125" lon="166.462845504283905029296875">
        <ele>333.600006103515625</ele>
        <time>2016-08-12T17:59:54.000Z</time>
        <extensions>
          <ns3:TrackPointExtension>
            <ns3:atemp>19.0</ns3:atemp>
            <ns3:hr>136</ns3:hr>
          </ns3:TrackPointExtension>
        </extensions>
      </trkpt>
      <trkpt lat="-22.11367531679570674896240234375" lon="166.46283217705786228179931640625">
        <ele>333.600006103515625</ele>
        <time>2016-08-12T17:59:55.000Z</time>
        <extensions>
          <ns3:TrackPointExtension>
            <ns3:atemp>19.0</ns3:atemp>
            <ns3:hr>136</ns3:hr>
          </ns3:TrackPointExtension>
        </extensions>
      </trkpt>
      <trkpt lat="-22.11365335620939731597900390625" lon="166.46282027475535869598388671875">
        <ele>334</ele>
        <time>2016-08-12T17:59:56.000Z</time>
        <extensions>
          <ns3:TrackPointExtension>
            <ns3:atemp>19.0</ns3:atemp>
            <ns3:hr>136</ns3:hr>
          </ns3:TrackPointExtension>
        </extensions>
      </trkpt>
      <trkpt lat="-22.11363474838435649871826171875" lon="166.46281264722347259521484375">
        <ele>334</ele>
        <time>2016-08-12T17:59:57.000Z</time>
        <extensions>
          <ns3:TrackPointExtension>
            <ns3:atemp>19.0</ns3:atemp>
            <ns3:hr>136</ns3:hr>
          </ns3:TrackPointExtension>
        </extensions>
      </trkpt>
      <trkpt lat="-22.1136165596544742584228515625" lon="166.46280133165419101715087890625">
        <ele>333.79998779296875</ele>
        <time>2016-08-12T17:59:58.000Z</time>
        <extensions>
          <ns3:TrackPointExtension>
            <ns3:atemp>19.0</ns3:atemp>
            <ns3:hr>136</ns3:hr>
          </ns3:TrackPointExtension>
        </extensions>
      </trkpt>
      <trkpt lat="-22.113597951829433441162109375" lon="166.46278942935168743133544921875">
        <ele>334.20001220703125</ele>
        <time>2016-08-12T17:59:59.000Z</time>
        <extensions>
          <ns3:TrackPointExtension>
            <ns3:atemp>19.0</ns3:atemp>
            <ns3:hr>135</ns3:hr>
          </ns3:TrackPointExtension>
        </extensions>
      </trkpt>
      <trkpt lat="-22.1135803498327732086181640625" lon="166.46277970634400844573974609375">
        <ele>334.399993896484375</ele>
        <time>2016-08-12T18:00:00.000Z</time>
        <extensions>
          <ns3:TrackPointExtension>
            <ns3:atemp>19.0</ns3:atemp>
            <ns3:hr>135</ns3:hr>
          </ns3:TrackPointExtension>
        </extensions>
      </trkpt>
      <trkpt lat="-22.11356534622609615325927734375" lon="166.4627655409276485443115234375">
        <ele>334.20001220703125</ele>
        <time>2016-08-12T18:00:01.000Z</time>
        <extensions>
          <ns3:TrackPointExtension>
            <ns3:atemp>19.0</ns3:atemp>
            <ns3:hr>135</ns3:hr>
          </ns3:TrackPointExtension>
        </extensions>
      </trkpt>
      <trkpt lat="-22.11355268955230712890625" lon="166.46275095641613006591796875">
        <ele>334.600006103515625</ele>
        <time>2016-08-12T18:00:02.000Z</time>
        <extensions>
          <ns3:TrackPointExtension>
            <ns3:atemp>19.0</ns3:atemp>
            <ns3:hr>135</ns3:hr>
          </ns3:TrackPointExtension>
        </extensions>
      </trkpt>
      <trkpt lat="-22.11353735066950321197509765625" lon="166.4627353660762310028076171875">
        <ele>334.79998779296875</ele>
        <time>2016-08-12T18:00:03.000Z</time>
        <extensions>
          <ns3:TrackPointExtension>
            <ns3:atemp>19.0</ns3:atemp>
            <ns3:hr>135</ns3:hr>
          </ns3:TrackPointExtension>
        </extensions>
      </trkpt>
      <trkpt lat="-22.1135196648538112640380859375" lon="166.462719440460205078125">
        <ele>334.79998779296875</ele>
        <time>2016-08-12T18:00:04.000Z</time>
        <extensions>
          <ns3:TrackPointExtension>
            <ns3:atemp>19.0</ns3:atemp>
            <ns3:hr>135</ns3:hr>
          </ns3:TrackPointExtension>
        </extensions>
      </trkpt>
      <trkpt lat="-22.1135059185326099395751953125" lon="166.4627035148441791534423828125">
        <ele>335</ele>
        <time>2016-08-12T18:00:05.000Z</time>
        <extensions>
          <ns3:TrackPointExtension>
            <ns3:atemp>19.0</ns3:atemp>
            <ns3:hr>135</ns3:hr>
          </ns3:TrackPointExtension>
        </extensions>
      </trkpt>
      <trkpt lat="-22.11349326185882091522216796875" lon="166.46268616430461406707763671875">
        <ele>335.20001220703125</ele>
        <time>2016-08-12T18:00:06.000Z</time>
        <extensions>
          <ns3:TrackPointExtension>
            <ns3:atemp>19.0</ns3:atemp>
            <ns3:hr>136</ns3:hr>
          </ns3:TrackPointExtension>
        </extensions>
      </trkpt>
      <trkpt lat="-22.1134767495095729827880859375" lon="166.46266914904117584228515625">
        <ele>335.399993896484375</ele>
        <time>2016-08-12T18:00:07.000Z</time>
        <extensions>
          <ns3:TrackPointExtension>
            <ns3:atemp>19.0</ns3:atemp>
            <ns3:hr>136</ns3:hr>
          </ns3:TrackPointExtension>
        </extensions>
      </trkpt>
      <trkpt lat="-22.11346090771257877349853515625" lon="166.4626555703580379486083984375">
        <ele>335.399993896484375</ele>
        <time>2016-08-12T18:00:08.000Z</time>
        <extensions>
          <ns3:TrackPointExtension>
            <ns3:atemp>19.0</ns3:atemp>
            <ns3:hr>136</ns3:hr>
          </ns3:TrackPointExtension>
        </extensions>
      </trkpt>
      <trkpt lat="-22.1134499274194240570068359375" lon="166.46263536997139453887939453125">
        <ele>335.600006103515625</ele>
        <time>2016-08-12T18:00:09.000Z</time>
        <extensions>
          <ns3:TrackPointExtension>
            <ns3:atemp>19.0</ns3:atemp>
            <ns3:hr>136</ns3:hr>
          </ns3:TrackPointExtension>
        </extensions>
      </trkpt>
      <trkpt lat="-22.11343534290790557861328125" lon="166.4626163430511951446533203125">
        <ele>335.600006103515625</ele>
        <time>2016-08-12T18:00:10.000Z</time>
        <extensions>
          <ns3:TrackPointExtension>
            <ns3:atemp>19.0</ns3:atemp>
            <ns3:hr>136</ns3:hr>
          </ns3:TrackPointExtension>
        </extensions>
      </trkpt>
      <trkpt lat="-22.11342453025281429290771484375" lon="166.46259807050228118896484375">
        <ele>335.600006103515625</ele>
        <time>2016-08-12T18:00:11.000Z</time>
        <extensions>
          <ns3:TrackPointExtension>
            <ns3:atemp>19.0</ns3:atemp>
            <ns3:hr>136</ns3:hr>
          </ns3:TrackPointExtension>
        </extensions>
      </trkpt>
      <trkpt lat="-22.1134117059409618377685546875" lon="166.46258105523884296417236328125">
        <ele>336.20001220703125</ele>
        <time>2016-08-12T18:00:12.000Z</time>
        <extensions>
          <ns3:TrackPointExtension>
            <ns3:atemp>19.0</ns3:atemp>
            <ns3:hr>136</ns3:hr>
          </ns3:TrackPointExtension>
        </extensions>
      </trkpt>
      <trkpt lat="-22.1133982948958873748779296875" lon="166.4625625312328338623046875">
        <ele>336.20001220703125</ele>
        <time>2016-08-12T18:00:13.000Z</time>
        <extensions>
          <ns3:TrackPointExtension>
            <ns3:atemp>19.0</ns3:atemp>
            <ns3:hr>136</ns3:hr>
          </ns3:TrackPointExtension>
        </extensions>
      </trkpt>
      <trkpt lat="-22.1133852191269397735595703125" lon="166.46254484541714191436767578125">
        <ele>336.20001220703125</ele>
        <time>2016-08-12T18:00:14.000Z</time>
        <extensions>
          <ns3:TrackPointExtension>
            <ns3:atemp>19.0</ns3:atemp>
            <ns3:hr>136</ns3:hr>
          </ns3:TrackPointExtension>
        </extensions>
      </trkpt>
      <trkpt lat="-22.1133718080818653106689453125" lon="166.46252573467791080474853515625">
        <ele>336.600006103515625</ele>
        <time>2016-08-12T18:00:15.000Z</time>
        <extensions>
          <ns3:TrackPointExtension>
            <ns3:atemp>19.0</ns3:atemp>
            <ns3:hr>135</ns3:hr>
          </ns3:TrackPointExtension>
        </extensions>
      </trkpt>
      <trkpt lat="-22.11335881613194942474365234375" lon="166.46250830031931400299072265625">
        <ele>336.79998779296875</ele>
        <time>2016-08-12T18:00:16.000Z</time>
        <extensions>
          <ns3:TrackPointExtension>
            <ns3:atemp>19.0</ns3:atemp>
            <ns3:hr>134</ns3:hr>
          </ns3:TrackPointExtension>
        </extensions>
      </trkpt>
      <trkpt lat="-22.1133486740291118621826171875" lon="166.462489776313304901123046875">
        <ele>336.79998779296875</ele>
        <time>2016-08-12T18:00:17.000Z</time>
        <extensions>
          <ns3:TrackPointExtension>
            <ns3:atemp>19.0</ns3:atemp>
            <ns3:hr>134</ns3:hr>
          </ns3:TrackPointExtension>
        </extensions>
      </trkpt>
      <trkpt lat="-22.1133379451930522918701171875" lon="166.462470330297946929931640625">
        <ele>336.79998779296875</ele>
        <time>2016-08-12T18:00:18.000Z</time>
        <extensions>
          <ns3:TrackPointExtension>
            <ns3:atemp>19.0</ns3:atemp>
            <ns3:hr>133</ns3:hr>
          </ns3:TrackPointExtension>
        </extensions>
      </trkpt>
      <trkpt lat="-22.11333015002310276031494140625" lon="166.462450884282588958740234375">
        <ele>337</ele>
        <time>2016-08-12T18:00:19.000Z</time>
        <extensions>
          <ns3:TrackPointExtension>
            <ns3:atemp>19.0</ns3:atemp>
            <ns3:hr>133</ns3:hr>
          </ns3:TrackPointExtension>
        </extensions>
      </trkpt>
      <trkpt lat="-22.113328389823436737060546875" lon="166.4624292589724063873291015625">
        <ele>337</ele>
        <time>2016-08-12T18:00:20.000Z</time>
        <extensions>
          <ns3:TrackPointExtension>
            <ns3:atemp>19.0</ns3:atemp>
            <ns3:hr>134</ns3:hr>
          </ns3:TrackPointExtension>
        </extensions>
      </trkpt>
      <trkpt lat="-22.11332361213862895965576171875" lon="166.462410651147365570068359375">
        <ele>337.399993896484375</ele>
        <time>2016-08-12T18:00:21.000Z</time>
        <extensions>
          <ns3:TrackPointExtension>
            <ns3:atemp>19.0</ns3:atemp>
            <ns3:hr>134</ns3:hr>
          </ns3:TrackPointExtension>
        </extensions>
      </trkpt>
      <trkpt lat="-22.11331791244447231292724609375" lon="166.4623937197029590606689453125">
        <ele>337.600006103515625</ele>
        <time>2016-08-12T18:00:22.000Z</time>
        <extensions>
          <ns3:TrackPointExtension>
            <ns3:atemp>19.0</ns3:atemp>
            <ns3:hr>135</ns3:hr>
          </ns3:TrackPointExtension>
        </extensions>
      </trkpt>
      <trkpt lat="-22.11331288330256938934326171875" lon="166.4623762853443622589111328125">
        <ele>337.600006103515625</ele>
        <time>2016-08-12T18:00:23.000Z</time>
        <extensions>
          <ns3:TrackPointExtension>
            <ns3:atemp>19.0</ns3:atemp>
            <ns3:hr>135</ns3:hr>
          </ns3:TrackPointExtension>
        </extensions>
      </trkpt>
      <trkpt lat="-22.113310284912586212158203125" lon="166.462359018623828887939453125">
        <ele>337.79998779296875</ele>
        <time>2016-08-12T18:00:24.000Z</time>
        <extensions>
          <ns3:TrackPointExtension>
            <ns3:atemp>19.0</ns3:atemp>
            <ns3:hr>136</ns3:hr>
          </ns3:TrackPointExtension>
        </extensions>
      </trkpt>
      <trkpt lat="-22.1133099496364593505859375" lon="166.4623400755226612091064453125">
        <ele>338.20001220703125</ele>
        <time>2016-08-12T18:00:25.000Z</time>
        <extensions>
          <ns3:TrackPointExtension>
            <ns3:atemp>19.0</ns3:atemp>
            <ns3:hr>137</ns3:hr>
          </ns3:TrackPointExtension>
        </extensions>
      </trkpt>
      <trkpt lat="-22.11331330239772796630859375" lon="166.462319791316986083984375">
        <ele>338.600006103515625</ele>
        <time>2016-08-12T18:00:26.000Z</time>
        <extensions>
          <ns3:TrackPointExtension>
            <ns3:atemp>19.0</ns3:atemp>
            <ns3:hr>137</ns3:hr>
          </ns3:TrackPointExtension>
        </extensions>
      </trkpt>
      <trkpt lat="-22.11331908591091632843017578125" lon="166.4622988365590572357177734375">
        <ele>338.600006103515625</ele>
        <time>2016-08-12T18:00:27.000Z</time>
        <extensions>
          <ns3:TrackPointExtension>
            <ns3:atemp>19.0</ns3:atemp>
            <ns3:hr>137</ns3:hr>
          </ns3:TrackPointExtension>
        </extensions>
      </trkpt>
      <trkpt lat="-22.113325037062168121337890625" lon="166.4622803963720798492431640625">
        <ele>338.600006103515625</ele>
        <time>2016-08-12T18:00:28.000Z</time>
        <extensions>
          <ns3:TrackPointExtension>
            <ns3:atemp>19.0</ns3:atemp>
            <ns3:hr>138</ns3:hr>
          </ns3:TrackPointExtension>
        </extensions>
      </trkpt>
      <trkpt lat="-22.1133335866034030914306640625" lon="166.46226170472800731658935546875">
        <ele>338.600006103515625</ele>
        <time>2016-08-12T18:00:29.000Z</time>
        <extensions>
          <ns3:TrackPointExtension>
            <ns3:atemp>19.0</ns3:atemp>
            <ns3:hr>138</ns3:hr>
          </ns3:TrackPointExtension>
        </extensions>
      </trkpt>
      <trkpt lat="-22.11334322579205036163330078125" lon="166.46224007941782474517822265625">
        <ele>338.79998779296875</ele>
        <time>2016-08-12T18:00:30.000Z</time>
        <extensions>
          <ns3:TrackPointExtension>
            <ns3:atemp>19.0</ns3:atemp>
            <ns3:hr>139</ns3:hr>
          </ns3:TrackPointExtension>
        </extensions>
      </trkpt>
      <trkpt lat="-22.113353870809078216552734375" lon="166.46222247742116451263427734375">
        <ele>338.79998779296875</ele>
        <time>2016-08-12T18:00:31.000Z</time>
        <extensions>
          <ns3:TrackPointExtension>
            <ns3:atemp>19.0</ns3:atemp>
            <ns3:hr>139</ns3:hr>
          </ns3:TrackPointExtension>
        </extensions>
      </trkpt>
      <trkpt lat="-22.11336635984480381011962890625" lon="166.462204791605472564697265625">
        <ele>339</ele>
        <time>2016-08-12T18:00:32.000Z</time>
        <extensions>
          <ns3:TrackPointExtension>
            <ns3:atemp>19.0</ns3:atemp>
            <ns3:hr>139</ns3:hr>
          </ns3:TrackPointExtension>
        </extensions>
      </trkpt>
      <trkpt lat="-22.1133775077760219573974609375" lon="166.4621843397617340087890625">
        <ele>339.399993896484375</ele>
        <time>2016-08-12T18:00:33.000Z</time>
        <extensions>
          <ns3:TrackPointExtension>
            <ns3:atemp>19.0</ns3:atemp>
            <ns3:hr>140</ns3:hr>
          </ns3:TrackPointExtension>
        </extensions>
      </trkpt>
      <trkpt lat="-22.11338681168854236602783203125" lon="166.46216715686023235321044921875">
        <ele>339.399993896484375</ele>
        <time>2016-08-12T18:00:34.000Z</time>
        <extensions>
          <ns3:TrackPointExtension>
            <ns3:atemp>19.0</ns3:atemp>
            <ns3:hr>140</ns3:hr>
          </ns3:TrackPointExtension>
        </extensions>
      </trkpt>
      <trkpt lat="-22.11340122856199741363525390625" lon="166.462149806320667266845703125">
        <ele>339.600006103515625</ele>
        <time>2016-08-12T18:00:35.000Z</time>
        <extensions>
          <ns3:TrackPointExtension>
            <ns3:atemp>19.0</ns3:atemp>
            <ns3:hr>140</ns3:hr>
          </ns3:TrackPointExtension>
        </extensions>
      </trkpt>
      <trkpt lat="-22.11341522634029388427734375" lon="166.46213128231465816497802734375">
        <ele>339.79998779296875</ele>
        <time>2016-08-12T18:00:36.000Z</time>
        <extensions>
          <ns3:TrackPointExtension>
            <ns3:atemp>19.0</ns3:atemp>
            <ns3:hr>140</ns3:hr>
          </ns3:TrackPointExtension>
        </extensions>
      </trkpt>
      <trkpt lat="-22.11342872120440006256103515625" lon="166.46211384795606136322021484375">
        <ele>340</ele>
        <time>2016-08-12T18:00:37.000Z</time>
        <extensions>
          <ns3:TrackPointExtension>
            <ns3:atemp>19.0</ns3:atemp>
            <ns3:hr>140</ns3:hr>
          </ns3:TrackPointExtension>
        </extensions>
      </trkpt>
      <trkpt lat="-22.11344062350690364837646484375" lon="166.4620956592261791229248046875">
        <ele>340</ele>
        <time>2016-08-12T18:00:38.000Z</time>
        <extensions>
          <ns3:TrackPointExtension>
            <ns3:atemp>19.0</ns3:atemp>
            <ns3:hr>140</ns3:hr>
          </ns3:TrackPointExtension>
        </extensions>
      </trkpt>
      <trkpt lat="-22.11345151998102664947509765625" lon="166.4620799012482166290283203125">
        <ele>340.399993896484375</ele>
        <time>2016-08-12T18:00:39.000Z</time>
        <extensions>
          <ns3:TrackPointExtension>
            <ns3:atemp>19.0</ns3:atemp>
            <ns3:hr>141</ns3:hr>
          </ns3:TrackPointExtension>
        </extensions>
      </trkpt>
      <trkpt lat="-22.11345688439905643463134765625" lon="166.46206473000347614288330078125">
        <ele>340.600006103515625</ele>
        <time>2016-08-12T18:00:40.000Z</time>
        <extensions>
          <ns3:TrackPointExtension>
            <ns3:atemp>19.0</ns3:atemp>
            <ns3:hr>141</ns3:hr>
          </ns3:TrackPointExtension>
        </extensions>
      </trkpt>
      <trkpt lat="-22.11346342228353023529052734375" lon="166.46204679273068904876708984375">
        <ele>340.79998779296875</ele>
        <time>2016-08-12T18:00:41.000Z</time>
        <extensions>
          <ns3:TrackPointExtension>
            <ns3:atemp>19.0</ns3:atemp>
            <ns3:hr>141</ns3:hr>
          </ns3:TrackPointExtension>
        </extensions>
      </trkpt>
      <trkpt lat="-22.11347046308219432830810546875" lon="166.46202868781983852386474609375">
        <ele>341.20001220703125</ele>
        <time>2016-08-12T18:00:42.000Z</time>
        <extensions>
          <ns3:TrackPointExtension>
            <ns3:atemp>19.0</ns3:atemp>
            <ns3:hr>141</ns3:hr>
          </ns3:TrackPointExtension>
        </extensions>
      </trkpt>
      <trkpt lat="-22.11347783915698528289794921875" lon="166.46201024763286113739013671875">
        <ele>341.399993896484375</ele>
        <time>2016-08-12T18:00:43.000Z</time>
        <extensions>
          <ns3:TrackPointExtension>
            <ns3:atemp>19.0</ns3:atemp>
            <ns3:hr>141</ns3:hr>
          </ns3:TrackPointExtension>
        </extensions>
      </trkpt>
      <trkpt lat="-22.1134844608604907989501953125" lon="166.461992561817169189453125">
        <ele>341.600006103515625</ele>
        <time>2016-08-12T18:00:44.000Z</time>
        <extensions>
          <ns3:TrackPointExtension>
            <ns3:atemp>19.0</ns3:atemp>
            <ns3:hr>141</ns3:hr>
          </ns3:TrackPointExtension>
        </extensions>
      </trkpt>
      <trkpt lat="-22.11349074728786945343017578125" lon="166.46197311580181121826171875">
        <ele>342</ele>
        <time>2016-08-12T18:00:45.000Z</time>
        <extensions>
          <ns3:TrackPointExtension>
            <ns3:atemp>19.0</ns3:atemp>
            <ns3:hr>141</ns3:hr>
          </ns3:TrackPointExtension>
        </extensions>
      </trkpt>
      <trkpt lat="-22.11349326185882091522216796875" lon="166.4619538374245166778564453125">
        <ele>342.20001220703125</ele>
        <time>2016-08-12T18:00:46.000Z</time>
        <extensions>
          <ns3:TrackPointExtension>
            <ns3:atemp>19.0</ns3:atemp>
            <ns3:hr>141</ns3:hr>
          </ns3:TrackPointExtension>
        </extensions>
      </trkpt>
      <trkpt lat="-22.1134898252785205841064453125" lon="166.4619347266852855682373046875">
        <ele>342.600006103515625</ele>
        <time>2016-08-12T18:00:47.000Z</time>
        <extensions>
          <ns3:TrackPointExtension>
            <ns3:atemp>19.0</ns3:atemp>
            <ns3:hr>141</ns3:hr>
          </ns3:TrackPointExtension>
        </extensions>
      </trkpt>
      <trkpt lat="-22.11349410004913806915283203125" lon="166.46191419102251529693603515625">
        <ele>342.600006103515625</ele>
        <time>2016-08-12T18:00:48.000Z</time>
        <extensions>
          <ns3:TrackPointExtension>
            <ns3:atemp>19.0</ns3:atemp>
            <ns3:hr>141</ns3:hr>
          </ns3:TrackPointExtension>
        </extensions>
      </trkpt>
      <trkpt lat="-22.113498039543628692626953125" lon="166.46189105696976184844970703125">
        <ele>342.600006103515625</ele>
        <time>2016-08-12T18:00:49.000Z</time>
        <extensions>
          <ns3:TrackPointExtension>
            <ns3:atemp>19.0</ns3:atemp>
            <ns3:hr>141</ns3:hr>
          </ns3:TrackPointExtension>
        </extensions>
      </trkpt>
      <trkpt lat="-22.11350600235164165496826171875" lon="166.46186708472669124603271484375">
        <ele>342.600006103515625</ele>
        <time>2016-08-12T18:00:50.000Z</time>
        <extensions>
          <ns3:TrackPointExtension>
            <ns3:atemp>19.0</ns3:atemp>
            <ns3:hr>142</ns3:hr>
          </ns3:TrackPointExtension>
        </extensions>
      </trkpt>
      <trkpt lat="-22.11351304315030574798583984375" lon="166.4618482254445552825927734375">
        <ele>343</ele>
        <time>2016-08-12T18:00:51.000Z</time>
        <extensions>
          <ns3:TrackPointExtension>
            <ns3:atemp>19.0</ns3:atemp>
            <ns3:hr>142</ns3:hr>
          </ns3:TrackPointExtension>
        </extensions>
      </trkpt>
      <trkpt lat="-22.1135196648538112640380859375" lon="166.46182827651500701904296875">
        <ele>343</ele>
        <time>2016-08-12T18:00:52.000Z</time>
        <extensions>
          <ns3:TrackPointExtension>
            <ns3:atemp>19.0</ns3:atemp>
            <ns3:hr>141</ns3:hr>
          </ns3:TrackPointExtension>
        </extensions>
      </trkpt>
      <trkpt lat="-22.11352226324379444122314453125" lon="166.46180338226258754730224609375">
        <ele>343</ele>
        <time>2016-08-12T18:00:53.000Z</time>
        <extensions>
          <ns3:TrackPointExtension>
            <ns3:atemp>19.0</ns3:atemp>
            <ns3:hr>142</ns3:hr>
          </ns3:TrackPointExtension>
        </extensions>
      </trkpt>
      <trkpt lat="-22.113524191081523895263671875" lon="166.46178309805691242218017578125">
        <ele>343.20001220703125</ele>
        <time>2016-08-12T18:00:54.000Z</time>
        <extensions>
          <ns3:TrackPointExtension>
            <ns3:atemp>19.0</ns3:atemp>
            <ns3:hr>142</ns3:hr>
          </ns3:TrackPointExtension>
        </extensions>
      </trkpt>
      <trkpt lat="-22.11352746002376079559326171875" lon="166.46175979636609554290771484375">
        <ele>343.399993896484375</ele>
        <time>2016-08-12T18:00:55.000Z</time>
        <extensions>
          <ns3:TrackPointExtension>
            <ns3:atemp>19.0</ns3:atemp>
            <ns3:hr>142</ns3:hr>
          </ns3:TrackPointExtension>
        </extensions>
      </trkpt>
      <trkpt lat="-22.11352913640439510345458984375" lon="166.46173515357077121734619140625">
        <ele>343.399993896484375</ele>
        <time>2016-08-12T18:00:56.000Z</time>
        <extensions>
          <ns3:TrackPointExtension>
            <ns3:atemp>19.0</ns3:atemp>
            <ns3:hr>142</ns3:hr>
          </ns3:TrackPointExtension>
        </extensions>
      </trkpt>
      <trkpt lat="-22.11352746002376079559326171875" lon="166.4617127738893032073974609375">
        <ele>343.79998779296875</ele>
        <time>2016-08-12T18:00:57.000Z</time>
        <extensions>
          <ns3:TrackPointExtension>
            <ns3:atemp>19.0</ns3:atemp>
            <ns3:hr>142</ns3:hr>
          </ns3:TrackPointExtension>
        </extensions>
      </trkpt>
      <trkpt lat="-22.11352226324379444122314453125" lon="166.4616896398365497589111328125">
        <ele>344</ele>
        <time>2016-08-12T18:00:58.000Z</time>
        <extensions>
          <ns3:TrackPointExtension>
            <ns3:atemp>19.0</ns3:atemp>
            <ns3:hr>142</ns3:hr>
          </ns3:TrackPointExtension>
        </extensions>
      </trkpt>
      <trkpt lat="-22.113517820835113525390625" lon="166.46166893653571605682373046875">
        <ele>344</ele>
        <time>2016-08-12T18:00:59.000Z</time>
        <extensions>
          <ns3:TrackPointExtension>
            <ns3:atemp>19.0</ns3:atemp>
            <ns3:hr>142</ns3:hr>
          </ns3:TrackPointExtension>
        </extensions>
      </trkpt>
      <trkpt lat="-22.11351941339671611785888671875" lon="166.46164999343454837799072265625">
        <ele>344.20001220703125</ele>
        <time>2016-08-12T18:01:00.000Z</time>
        <extensions>
          <ns3:TrackPointExtension>
            <ns3:atemp>19.0</ns3:atemp>
            <ns3:hr>143</ns3:hr>
          </ns3:TrackPointExtension>
        </extensions>
      </trkpt>
      <trkpt lat="-22.11352058686316013336181640625" lon="166.46162769757211208343505859375">
        <ele>344.399993896484375</ele>
        <time>2016-08-12T18:01:01.000Z</time>
        <extensions>
          <ns3:TrackPointExtension>
            <ns3:atemp>19.0</ns3:atemp>
            <ns3:hr>143</ns3:hr>
          </ns3:TrackPointExtension>
        </extensions>
      </trkpt>
      <trkpt lat="-22.11352176032960414886474609375" lon="166.46160523407161235809326171875">
        <ele>344.20001220703125</ele>
        <time>2016-08-12T18:01:02.000Z</time>
        <extensions>
          <ns3:TrackPointExtension>
            <ns3:atemp>19.0</ns3:atemp>
            <ns3:hr>143</ns3:hr>
          </ns3:TrackPointExtension>
        </extensions>
      </trkpt>
      <trkpt lat="-22.11352611891925334930419921875" lon="166.46158444695174694061279296875">
        <ele>344.399993896484375</ele>
        <time>2016-08-12T18:01:03.000Z</time>
        <extensions>
          <ns3:TrackPointExtension>
            <ns3:atemp>19.0</ns3:atemp>
            <ns3:hr>143</ns3:hr>
          </ns3:TrackPointExtension>
        </extensions>
      </trkpt>
      <trkpt lat="-22.1135300584137439727783203125" lon="166.46156164817512035369873046875">
        <ele>344.79998779296875</ele>
        <time>2016-08-12T18:01:04.000Z</time>
        <extensions>
          <ns3:TrackPointExtension>
            <ns3:atemp>19.0</ns3:atemp>
            <ns3:hr>143</ns3:hr>
          </ns3:TrackPointExtension>
        </extensions>
      </trkpt>
      <trkpt lat="-22.113534249365329742431640625" lon="166.4615406095981597900390625">
        <ele>344.79998779296875</ele>
        <time>2016-08-12T18:01:05.000Z</time>
        <extensions>
          <ns3:TrackPointExtension>
            <ns3:atemp>19.0</ns3:atemp>
            <ns3:hr>143</ns3:hr>
          </ns3:TrackPointExtension>
        </extensions>
      </trkpt>
      <trkpt lat="-22.113535590469837188720703125" lon="166.46151772700250148773193359375">
        <ele>344.79998779296875</ele>
        <time>2016-08-12T18:01:06.000Z</time>
        <extensions>
          <ns3:TrackPointExtension>
            <ns3:atemp>19.0</ns3:atemp>
            <ns3:hr>143</ns3:hr>
          </ns3:TrackPointExtension>
        </extensions>
      </trkpt>
      <trkpt lat="-22.11353567428886890411376953125" lon="166.4614941738545894622802734375">
        <ele>345.20001220703125</ele>
        <time>2016-08-12T18:01:07.000Z</time>
        <extensions>
          <ns3:TrackPointExtension>
            <ns3:atemp>19.0</ns3:atemp>
            <ns3:hr>143</ns3:hr>
          </ns3:TrackPointExtension>
        </extensions>
      </trkpt>
      <trkpt lat="-22.1135387755930423736572265625" lon="166.46147288382053375244140625">
        <ele>345.20001220703125</ele>
        <time>2016-08-12T18:01:08.000Z</time>
        <extensions>
          <ns3:TrackPointExtension>
            <ns3:atemp>19.0</ns3:atemp>
            <ns3:hr>144</ns3:hr>
          </ns3:TrackPointExtension>
        </extensions>
      </trkpt>
      <trkpt lat="-22.1135427989065647125244140625" lon="166.46145150996744632720947265625">
        <ele>345.20001220703125</ele>
        <time>2016-08-12T18:01:09.000Z</time>
        <extensions>
          <ns3:TrackPointExtension>
            <ns3:atemp>19.0</ns3:atemp>
            <ns3:hr>144</ns3:hr>
          </ns3:TrackPointExtension>
        </extensions>
      </trkpt>
      <trkpt lat="-22.11354799568653106689453125" lon="166.46143089048564434051513671875">
        <ele>345.399993896484375</ele>
        <time>2016-08-12T18:01:10.000Z</time>
        <extensions>
          <ns3:TrackPointExtension>
            <ns3:atemp>19.0</ns3:atemp>
            <ns3:hr>144</ns3:hr>
          </ns3:TrackPointExtension>
        </extensions>
      </trkpt>
      <trkpt lat="-22.11355579085648059844970703125" lon="166.461411528289318084716796875">
        <ele>345.399993896484375</ele>
        <time>2016-08-12T18:01:11.000Z</time>
        <extensions>
          <ns3:TrackPointExtension>
            <ns3:atemp>19.0</ns3:atemp>
            <ns3:hr>143</ns3:hr>
          </ns3:TrackPointExtension>
        </extensions>
      </trkpt>
      <trkpt lat="-22.11355738341808319091796875" lon="166.461388729512691497802734375">
        <ele>345.399993896484375</ele>
        <time>2016-08-12T18:01:12.000Z</time>
        <extensions>
          <ns3:TrackPointExtension>
            <ns3:atemp>19.0</ns3:atemp>
            <ns3:hr>144</ns3:hr>
          </ns3:TrackPointExtension>
        </extensions>
      </trkpt>
      <trkpt lat="-22.113560400903224945068359375" lon="166.4613681100308895111083984375">
        <ele>345.600006103515625</ele>
        <time>2016-08-12T18:01:13.000Z</time>
        <extensions>
          <ns3:TrackPointExtension>
            <ns3:atemp>19.0</ns3:atemp>
            <ns3:hr>144</ns3:hr>
          </ns3:TrackPointExtension>
        </extensions>
      </trkpt>
      <trkpt lat="-22.1135696209967136383056640625" lon="166.4613469876348972320556640625">
        <ele>345.79998779296875</ele>
        <time>2016-08-12T18:01:14.000Z</time>
        <extensions>
          <ns3:TrackPointExtension>
            <ns3:atemp>19.0</ns3:atemp>
            <ns3:hr>144</ns3:hr>
          </ns3:TrackPointExtension>
        </extensions>
      </trkpt>
      <trkpt lat="-22.11357926018536090850830078125" lon="166.46132402122020721435546875">
        <ele>346</ele>
        <time>2016-08-12T18:01:15.000Z</time>
        <extensions>
          <ns3:TrackPointExtension>
            <ns3:atemp>19.0</ns3:atemp>
            <ns3:hr>144</ns3:hr>
          </ns3:TrackPointExtension>
        </extensions>
      </trkpt>
      <trkpt lat="-22.1135883964598178863525390625" lon="166.46130247972905635833740234375">
        <ele>346</ele>
        <time>2016-08-12T18:01:16.000Z</time>
        <extensions>
          <ns3:TrackPointExtension>
            <ns3:atemp>19.0</ns3:atemp>
            <ns3:hr>144</ns3:hr>
          </ns3:TrackPointExtension>
        </extensions>
      </trkpt>
      <trkpt lat="-22.11360222660005092620849609375" lon="166.46128403954207897186279296875">
        <ele>346.20001220703125</ele>
        <time>2016-08-12T18:01:17.000Z</time>
        <extensions>
          <ns3:TrackPointExtension>
            <ns3:atemp>19.0</ns3:atemp>
            <ns3:hr>143</ns3:hr>
          </ns3:TrackPointExtension>
        </extensions>
      </trkpt>
      <trkpt lat="-22.11361706256866455078125" lon="166.46126911975443363189697265625">
        <ele>346</ele>
        <time>2016-08-12T18:01:18.000Z</time>
        <extensions>
          <ns3:TrackPointExtension>
            <ns3:atemp>19.0</ns3:atemp>
            <ns3:hr>144</ns3:hr>
          </ns3:TrackPointExtension>
        </extensions>
      </trkpt>
      <trkpt lat="-22.11362980306148529052734375" lon="166.46125721745193004608154296875">
        <ele>346.20001220703125</ele>
        <time>2016-08-12T18:01:19.000Z</time>
        <extensions>
          <ns3:TrackPointExtension>
            <ns3:atemp>19.0</ns3:atemp>
            <ns3:hr>144</ns3:hr>
          </ns3:TrackPointExtension>
        </extensions>
      </trkpt>
      <trkpt lat="-22.11364447139203548431396484375" lon="166.4612430520355701446533203125">
        <ele>346.600006103515625</ele>
        <time>2016-08-12T18:01:20.000Z</time>
        <extensions>
          <ns3:TrackPointExtension>
            <ns3:atemp>19.0</ns3:atemp>
            <ns3:hr>143</ns3:hr>
          </ns3:TrackPointExtension>
        </extensions>
      </trkpt>
      <trkpt lat="-22.113657630980014801025390625" lon="166.46122612059116363525390625">
        <ele>346.79998779296875</ele>
        <time>2016-08-12T18:01:21.000Z</time>
        <extensions>
          <ns3:TrackPointExtension>
            <ns3:atemp>19.0</ns3:atemp>
            <ns3:hr>143</ns3:hr>
          </ns3:TrackPointExtension>
        </extensions>
      </trkpt>
      <trkpt lat="-22.11366827599704265594482421875" lon="166.46121136844158172607421875">
        <ele>346.600006103515625</ele>
        <time>2016-08-12T18:01:22.000Z</time>
        <extensions>
          <ns3:TrackPointExtension>
            <ns3:atemp>19.0</ns3:atemp>
            <ns3:hr>144</ns3:hr>
          </ns3:TrackPointExtension>
        </extensions>
      </trkpt>
      <trkpt lat="-22.11368403397500514984130859375" lon="166.46119661629199981689453125">
        <ele>347</ele>
        <time>2016-08-12T18:01:23.000Z</time>
        <extensions>
          <ns3:TrackPointExtension>
            <ns3:atemp>19.0</ns3:atemp>
            <ns3:hr>143</ns3:hr>
          </ns3:TrackPointExtension>
        </extensions>
      </trkpt>
      <trkpt lat="-22.113700211048126220703125" lon="166.4611830376088619232177734375">
        <ele>347.20001220703125</ele>
        <time>2016-08-12T18:01:24.000Z</time>
        <extensions>
          <ns3:TrackPointExtension>
            <ns3:atemp>19.0</ns3:atemp>
            <ns3:hr>144</ns3:hr>
          </ns3:TrackPointExtension>
        </extensions>
      </trkpt>
      <trkpt lat="-22.1137137897312641143798828125" lon="166.461172141134738922119140625">
        <ele>347.20001220703125</ele>
        <time>2016-08-12T18:01:25.000Z</time>
        <extensions>
          <ns3:TrackPointExtension>
            <ns3:atemp>19.0</ns3:atemp>
            <ns3:hr>144</ns3:hr>
          </ns3:TrackPointExtension>
        </extensions>
      </trkpt>
      <trkpt lat="-22.11372829042375087738037109375" lon="166.4611612446606159210205078125">
        <ele>347.600006103515625</ele>
        <time>2016-08-12T18:01:26.000Z</time>
        <extensions>
          <ns3:TrackPointExtension>
            <ns3:atemp>19.0</ns3:atemp>
            <ns3:hr>144</ns3:hr>
          </ns3:TrackPointExtension>
        </extensions>
      </trkpt>
      <trkpt lat="-22.1137463115155696868896484375" lon="166.46115428768098354339599609375">
        <ele>347.79998779296875</ele>
        <time>2016-08-12T18:01:27.000Z</time>
        <extensions>
          <ns3:TrackPointExtension>
            <ns3:atemp>19.0</ns3:atemp>
            <ns3:hr>144</ns3:hr>
          </ns3:TrackPointExtension>
        </extensions>
      </trkpt>
      <trkpt lat="-22.1137613989412784576416015625" lon="166.46114590577781200408935546875">
        <ele>347.79998779296875</ele>
        <time>2016-08-12T18:01:28.000Z</time>
        <extensions>
          <ns3:TrackPointExtension>
            <ns3:atemp>19.0</ns3:atemp>
            <ns3:hr>144</ns3:hr>
          </ns3:TrackPointExtension>
        </extensions>
      </trkpt>
      <trkpt lat="-22.11377640254795551300048828125" lon="166.461135260760784149169921875">
        <ele>348</ele>
        <time>2016-08-12T18:01:29.000Z</time>
        <extensions>
          <ns3:TrackPointExtension>
            <ns3:atemp>19.0</ns3:atemp>
            <ns3:hr>144</ns3:hr>
          </ns3:TrackPointExtension>
        </extensions>
      </trkpt>
      <trkpt lat="-22.1137909032404422760009765625" lon="166.461125873029232025146484375">
        <ele>348.20001220703125</ele>
        <time>2016-08-12T18:01:30.000Z</time>
        <extensions>
          <ns3:TrackPointExtension>
            <ns3:atemp>19.0</ns3:atemp>
            <ns3:hr>144</ns3:hr>
          </ns3:TrackPointExtension>
        </extensions>
      </trkpt>
      <trkpt lat="-22.11380842141807079315185546875" lon="166.4611195027828216552734375">
        <ele>348.20001220703125</ele>
        <time>2016-08-12T18:01:31.000Z</time>
        <extensions>
          <ns3:TrackPointExtension>
            <ns3:atemp>19.0</ns3:atemp>
            <ns3:hr>143</ns3:hr>
          </ns3:TrackPointExtension>
        </extensions>
      </trkpt>
      <trkpt lat="-22.11382619105279445648193359375" lon="166.46111271344125270843505859375">
        <ele>348.600006103515625</ele>
        <time>2016-08-12T18:01:32.000Z</time>
        <extensions>
          <ns3:TrackPointExtension>
            <ns3:atemp>19.0</ns3:atemp>
            <ns3:hr>144</ns3:hr>
          </ns3:TrackPointExtension>
        </extensions>
      </trkpt>
      <trkpt lat="-22.11384597234427928924560546875" lon="166.46110718138515949249267578125">
        <ele>348.600006103515625</ele>
        <time>2016-08-12T18:01:33.000Z</time>
        <extensions>
          <ns3:TrackPointExtension>
            <ns3:atemp>19.0</ns3:atemp>
            <ns3:hr>144</ns3:hr>
          </ns3:TrackPointExtension>
        </extensions>
      </trkpt>
      <trkpt lat="-22.1138626523315906524658203125" lon="166.4611005596816539764404296875">
        <ele>349</ele>
        <time>2016-08-12T18:01:34.000Z</time>
        <extensions>
          <ns3:TrackPointExtension>
            <ns3:atemp>19.0</ns3:atemp>
            <ns3:hr>143</ns3:hr>
          </ns3:TrackPointExtension>
        </extensions>
      </trkpt>
      <trkpt lat="-22.11388017050921916961669921875" lon="166.4610921777784824371337890625">
        <ele>349.20001220703125</ele>
        <time>2016-08-12T18:01:35.000Z</time>
        <extensions>
          <ns3:TrackPointExtension>
            <ns3:atemp>19.0</ns3:atemp>
            <ns3:hr>143</ns3:hr>
          </ns3:TrackPointExtension>
        </extensions>
      </trkpt>
      <trkpt lat="-22.11389592848718166351318359375" lon="166.461084298789501190185546875">
        <ele>349.20001220703125</ele>
        <time>2016-08-12T18:01:36.000Z</time>
        <extensions>
          <ns3:TrackPointExtension>
            <ns3:atemp>19.0</ns3:atemp>
            <ns3:hr>144</ns3:hr>
          </ns3:TrackPointExtension>
        </extensions>
      </trkpt>
      <trkpt lat="-22.11391034536063671112060546875" lon="166.4610777609050273895263671875">
        <ele>349.600006103515625</ele>
        <time>2016-08-12T18:01:37.000Z</time>
        <extensions>
          <ns3:TrackPointExtension>
            <ns3:atemp>19.0</ns3:atemp>
            <ns3:hr>143</ns3:hr>
          </ns3:TrackPointExtension>
        </extensions>
      </trkpt>
      <trkpt lat="-22.11392677389085292816162109375" lon="166.46106745116412639617919921875">
        <ele>350</ele>
        <time>2016-08-12T18:01:38.000Z</time>
        <extensions>
          <ns3:TrackPointExtension>
            <ns3:atemp>19.0</ns3:atemp>
            <ns3:hr>143</ns3:hr>
          </ns3:TrackPointExtension>
        </extensions>
      </trkpt>
      <trkpt lat="-22.11394228041172027587890625" lon="166.4610576443374156951904296875">
        <ele>350</ele>
        <time>2016-08-12T18:01:39.000Z</time>
        <extensions>
          <ns3:TrackPointExtension>
            <ns3:atemp>19.0</ns3:atemp>
            <ns3:hr>144</ns3:hr>
          </ns3:TrackPointExtension>
        </extensions>
      </trkpt>
      <trkpt lat="-22.113958038389682769775390625" lon="166.46104901097714900970458984375">
        <ele>350.399993896484375</ele>
        <time>2016-08-12T18:01:40.000Z</time>
        <extensions>
          <ns3:TrackPointExtension>
            <ns3:atemp>19.0</ns3:atemp>
            <ns3:hr>144</ns3:hr>
          </ns3:TrackPointExtension>
        </extensions>
      </trkpt>
      <trkpt lat="-22.1139753051102161407470703125" lon="166.4610398747026920318603515625">
        <ele>350.79998779296875</ele>
        <time>2016-08-12T18:01:41.000Z</time>
        <extensions>
          <ns3:TrackPointExtension>
            <ns3:atemp>19.0</ns3:atemp>
            <ns3:hr>144</ns3:hr>
          </ns3:TrackPointExtension>
        </extensions>
      </trkpt>
      <trkpt lat="-22.113991566002368927001953125" lon="166.46102964878082275390625">
        <ele>350.79998779296875</ele>
        <time>2016-08-12T18:01:42.000Z</time>
        <extensions>
          <ns3:TrackPointExtension>
            <ns3:atemp>19.0</ns3:atemp>
            <ns3:hr>144</ns3:hr>
          </ns3:TrackPointExtension>
        </extensions>
      </trkpt>
      <trkpt lat="-22.1140068210661411285400390625" lon="166.4610200934112071990966796875">
        <ele>351</ele>
        <time>2016-08-12T18:01:43.000Z</time>
        <extensions>
          <ns3:TrackPointExtension>
            <ns3:atemp>19.0</ns3:atemp>
            <ns3:hr>144</ns3:hr>
          </ns3:TrackPointExtension>
        </extensions>
      </trkpt>
      <trkpt lat="-22.1140222437679767608642578125" lon="166.46100861020386219024658203125">
        <ele>351.399993896484375</ele>
        <time>2016-08-12T18:01:44.000Z</time>
        <extensions>
          <ns3:TrackPointExtension>
            <ns3:atemp>19.0</ns3:atemp>
            <ns3:hr>143</ns3:hr>
          </ns3:TrackPointExtension>
        </extensions>
      </trkpt>
      <trkpt lat="-22.1140406839549541473388671875" lon="166.46099519915878772735595703125">
        <ele>351.600006103515625</ele>
        <time>2016-08-12T18:01:45.000Z</time>
        <extensions>
          <ns3:TrackPointExtension>
            <ns3:atemp>19.0</ns3:atemp>
            <ns3:hr>143</ns3:hr>
          </ns3:TrackPointExtension>
        </extensions>
      </trkpt>
      <trkpt lat="-22.11405870504677295684814453125" lon="166.4609818719327449798583984375">
        <ele>351.79998779296875</ele>
        <time>2016-08-12T18:01:46.000Z</time>
        <extensions>
          <ns3:TrackPointExtension>
            <ns3:atemp>19.0</ns3:atemp>
            <ns3:hr>143</ns3:hr>
          </ns3:TrackPointExtension>
        </extensions>
      </trkpt>
      <trkpt lat="-22.1140768937766551971435546875" lon="166.46096938289701938629150390625">
        <ele>352</ele>
        <time>2016-08-12T18:01:47.000Z</time>
        <extensions>
          <ns3:TrackPointExtension>
            <ns3:atemp>19.0</ns3:atemp>
            <ns3:hr>144</ns3:hr>
          </ns3:TrackPointExtension>
        </extensions>
      </trkpt>
      <trkpt lat="-22.11409307084977626800537109375" lon="166.46095781587064266204833984375">
        <ele>352.20001220703125</ele>
        <time>2016-08-12T18:01:48.000Z</time>
        <extensions>
          <ns3:TrackPointExtension>
            <ns3:atemp>19.0</ns3:atemp>
            <ns3:hr>144</ns3:hr>
          </ns3:TrackPointExtension>
        </extensions>
      </trkpt>
      <trkpt lat="-22.11410799063742160797119140625" lon="166.46094339899718761444091796875">
        <ele>352.600006103515625</ele>
        <time>2016-08-12T18:01:49.000Z</time>
        <extensions>
          <ns3:TrackPointExtension>
            <ns3:atemp>19.0</ns3:atemp>
            <ns3:hr>143</ns3:hr>
          </ns3:TrackPointExtension>
        </extensions>
      </trkpt>
      <trkpt lat="-22.114125005900859832763671875" lon="166.460928060114383697509765625">
        <ele>352.600006103515625</ele>
        <time>2016-08-12T18:01:50.000Z</time>
        <extensions>
          <ns3:TrackPointExtension>
            <ns3:atemp>19.0</ns3:atemp>
            <ns3:hr>144</ns3:hr>
          </ns3:TrackPointExtension>
        </extensions>
      </trkpt>
      <trkpt lat="-22.114139758050441741943359375" lon="166.46091691218316555023193359375">
        <ele>352.600006103515625</ele>
        <time>2016-08-12T18:01:51.000Z</time>
        <extensions>
          <ns3:TrackPointExtension>
            <ns3:atemp>19.0</ns3:atemp>
            <ns3:hr>144</ns3:hr>
          </ns3:TrackPointExtension>
        </extensions>
      </trkpt>
      <trkpt lat="-22.11415744386613368988037109375" lon="166.46090182475745677947998046875">
        <ele>352.600006103515625</ele>
        <time>2016-08-12T18:01:52.000Z</time>
        <extensions>
          <ns3:TrackPointExtension>
            <ns3:atemp>19.0</ns3:atemp>
            <ns3:hr>144</ns3:hr>
          </ns3:TrackPointExtension>
        </extensions>
      </trkpt>
      <trkpt lat="-22.11417940445244312286376953125" lon="166.46088489331305027008056640625">
        <ele>352.79998779296875</ele>
        <time>2016-08-12T18:01:53.000Z</time>
        <extensions>
          <ns3:TrackPointExtension>
            <ns3:atemp>19.0</ns3:atemp>
            <ns3:hr>144</ns3:hr>
          </ns3:TrackPointExtension>
        </extensions>
      </trkpt>
      <trkpt lat="-22.11419734172523021697998046875" lon="166.4608685486018657684326171875">
        <ele>353.20001220703125</ele>
        <time>2016-08-12T18:01:54.000Z</time>
        <extensions>
          <ns3:TrackPointExtension>
            <ns3:atemp>19.0</ns3:atemp>
            <ns3:hr>144</ns3:hr>
          </ns3:TrackPointExtension>
        </extensions>
      </trkpt>
      <trkpt lat="-22.1142099983990192413330078125" lon="166.46085320971906185150146484375">
        <ele>353.20001220703125</ele>
        <time>2016-08-12T18:01:55.000Z</time>
        <extensions>
          <ns3:TrackPointExtension>
            <ns3:atemp>19.0</ns3:atemp>
            <ns3:hr>144</ns3:hr>
          </ns3:TrackPointExtension>
        </extensions>
      </trkpt>
      <trkpt lat="-22.1142234094440937042236328125" lon="166.46083652973175048828125">
        <ele>353.399993896484375</ele>
        <time>2016-08-12T18:01:56.000Z</time>
        <extensions>
          <ns3:TrackPointExtension>
            <ns3:atemp>19.0</ns3:atemp>
            <ns3:hr>144</ns3:hr>
          </ns3:TrackPointExtension>
        </extensions>
      </trkpt>
      <trkpt lat="-22.1142348088324069976806640625" lon="166.46082001738250255584716796875">
        <ele>353.79998779296875</ele>
        <time>2016-08-12T18:01:57.000Z</time>
        <extensions>
          <ns3:TrackPointExtension>
            <ns3:atemp>19.0</ns3:atemp>
            <ns3:hr>144</ns3:hr>
          </ns3:TrackPointExtension>
        </extensions>
      </trkpt>
      <trkpt lat="-22.11424629203975200653076171875" lon="166.4608028344810009002685546875">
        <ele>353.79998779296875</ele>
        <time>2016-08-12T18:01:58.000Z</time>
        <extensions>
          <ns3:TrackPointExtension>
            <ns3:atemp>19.0</ns3:atemp>
            <ns3:hr>144</ns3:hr>
          </ns3:TrackPointExtension>
        </extensions>
      </trkpt>
      <trkpt lat="-22.1142592839896678924560546875" lon="166.46078246645629405975341796875">
        <ele>354.20001220703125</ele>
        <time>2016-08-12T18:01:59.000Z</time>
        <extensions>
          <ns3:TrackPointExtension>
            <ns3:atemp>19.0</ns3:atemp>
            <ns3:hr>144</ns3:hr>
          </ns3:TrackPointExtension>
        </extensions>
      </trkpt>
      <trkpt lat="-22.11427219212055206298828125" lon="166.46076352335512638092041015625">
        <ele>354.399993896484375</ele>
        <time>2016-08-12T18:02:00.000Z</time>
        <extensions>
          <ns3:TrackPointExtension>
            <ns3:atemp>19.0</ns3:atemp>
            <ns3:hr>144</ns3:hr>
          </ns3:TrackPointExtension>
        </extensions>
      </trkpt>
      <trkpt lat="-22.11428166367113590240478515625" lon="166.4607481844723224639892578125">
        <ele>354.20001220703125</ele>
        <time>2016-08-12T18:02:01.000Z</time>
        <extensions>
          <ns3:TrackPointExtension>
            <ns3:atemp>19.0</ns3:atemp>
            <ns3:hr>144</ns3:hr>
          </ns3:TrackPointExtension>
        </extensions>
      </trkpt>
      <trkpt lat="-22.11429105140268802642822265625" lon="166.46072966046631336212158203125">
        <ele>354.600006103515625</ele>
        <time>2016-08-12T18:02:02.000Z</time>
        <extensions>
          <ns3:TrackPointExtension>
            <ns3:atemp>19.0</ns3:atemp>
            <ns3:hr>144</ns3:hr>
          </ns3:TrackPointExtension>
        </extensions>
      </trkpt>
      <trkpt lat="-22.1143023669719696044921875" lon="166.4607118070125579833984375">
        <ele>354.79998779296875</ele>
        <time>2016-08-12T18:02:03.000Z</time>
        <extensions>
          <ns3:TrackPointExtension>
            <ns3:atemp>19.0</ns3:atemp>
            <ns3:hr>144</ns3:hr>
          </ns3:TrackPointExtension>
        </extensions>
      </trkpt>
      <trkpt lat="-22.11431133560836315155029296875" lon="166.460694372653961181640625">
        <ele>354.79998779296875</ele>
        <time>2016-08-12T18:02:04.000Z</time>
        <extensions>
          <ns3:TrackPointExtension>
            <ns3:atemp>19.0</ns3:atemp>
            <ns3:hr>144</ns3:hr>
          </ns3:TrackPointExtension>
        </extensions>
      </trkpt>
      <trkpt lat="-22.11431778967380523681640625" lon="166.460672914981842041015625">
        <ele>355.20001220703125</ele>
        <time>2016-08-12T18:02:05.000Z</time>
        <extensions>
          <ns3:TrackPointExtension>
            <ns3:atemp>19.0</ns3:atemp>
            <ns3:hr>144</ns3:hr>
          </ns3:TrackPointExtension>
        </extensions>
      </trkpt>
      <trkpt lat="-22.11432474665343761444091796875" lon="166.46065212786197662353515625">
        <ele>355.399993896484375</ele>
        <time>2016-08-12T18:02:06.000Z</time>
        <extensions>
          <ns3:TrackPointExtension>
            <ns3:atemp>19.0</ns3:atemp>
            <ns3:hr>144</ns3:hr>
          </ns3:TrackPointExtension>
        </extensions>
      </trkpt>
      <trkpt lat="-22.11432910524308681488037109375" lon="166.46063444204628467559814453125">
        <ele>355.600006103515625</ele>
        <time>2016-08-12T18:02:07.000Z</time>
        <extensions>
          <ns3:TrackPointExtension>
            <ns3:atemp>19.0</ns3:atemp>
            <ns3:hr>144</ns3:hr>
          </ns3:TrackPointExtension>
        </extensions>
      </trkpt>
      <trkpt lat="-22.11433178745210170745849609375" lon="166.46061248145997524261474609375">
        <ele>356</ele>
        <time>2016-08-12T18:02:08.000Z</time>
        <extensions>
          <ns3:TrackPointExtension>
            <ns3:atemp>19.0</ns3:atemp>
            <ns3:hr>144</ns3:hr>
          </ns3:TrackPointExtension>
        </extensions>
      </trkpt>
      <trkpt lat="-22.11433514021337032318115234375" lon="166.46059035323560237884521484375">
        <ele>356</ele>
        <time>2016-08-12T18:02:09.000Z</time>
        <extensions>
          <ns3:TrackPointExtension>
            <ns3:atemp>19.0</ns3:atemp>
            <ns3:hr>144</ns3:hr>
          </ns3:TrackPointExtension>
        </extensions>
      </trkpt>
      <trkpt lat="-22.1143390797078609466552734375" lon="166.4605704881250858306884765625">
        <ele>356.20001220703125</ele>
        <time>2016-08-12T18:02:10.000Z</time>
        <extensions>
          <ns3:TrackPointExtension>
            <ns3:atemp>19.0</ns3:atemp>
            <ns3:hr>144</ns3:hr>
          </ns3:TrackPointExtension>
        </extensions>
      </trkpt>
      <trkpt lat="-22.1143407560884952545166015625" lon="166.46054944954812526702880859375">
        <ele>356.399993896484375</ele>
        <time>2016-08-12T18:02:11.000Z</time>
        <extensions>
          <ns3:TrackPointExtension>
            <ns3:atemp>19.0</ns3:atemp>
            <ns3:hr>145</ns3:hr>
          </ns3:TrackPointExtension>
        </extensions>
      </trkpt>
      <trkpt lat="-22.1143431030213832855224609375" lon="166.46052983589470386505126953125">
        <ele>356.600006103515625</ele>
        <time>2016-08-12T18:02:12.000Z</time>
        <extensions>
          <ns3:TrackPointExtension>
            <ns3:atemp>19.0</ns3:atemp>
            <ns3:hr>145</ns3:hr>
          </ns3:TrackPointExtension>
        </extensions>
      </trkpt>
      <trkpt lat="-22.11434184573590755462646484375" lon="166.46051122806966304779052734375">
        <ele>357</ele>
        <time>2016-08-12T18:02:13.000Z</time>
        <extensions>
          <ns3:TrackPointExtension>
            <ns3:atemp>19.0</ns3:atemp>
            <ns3:hr>145</ns3:hr>
          </ns3:TrackPointExtension>
        </extensions>
      </trkpt>
      <trkpt lat="-22.114340923726558685302734375" lon="166.46049127914011478424072265625">
        <ele>357.20001220703125</ele>
        <time>2016-08-12T18:02:14.000Z</time>
        <extensions>
          <ns3:TrackPointExtension>
            <ns3:atemp>19.0</ns3:atemp>
            <ns3:hr>145</ns3:hr>
          </ns3:TrackPointExtension>
        </extensions>
      </trkpt>
      <trkpt lat="-22.1143387444317340850830078125" lon="166.46047107875347137451171875">
        <ele>357.600006103515625</ele>
        <time>2016-08-12T18:02:15.000Z</time>
        <extensions>
          <ns3:TrackPointExtension>
            <ns3:atemp>19.0</ns3:atemp>
            <ns3:hr>145</ns3:hr>
          </ns3:TrackPointExtension>
        </extensions>
      </trkpt>
      <trkpt lat="-22.114338241517543792724609375" lon="166.46045205183327198028564453125">
        <ele>357.79998779296875</ele>
        <time>2016-08-12T18:02:16.000Z</time>
        <extensions>
          <ns3:TrackPointExtension>
            <ns3:atemp>19.0</ns3:atemp>
            <ns3:hr>145</ns3:hr>
          </ns3:TrackPointExtension>
        </extensions>
      </trkpt>
      <trkpt lat="-22.11433731950819492340087890625" lon="166.46043227054178714752197265625">
        <ele>358</ele>
        <time>2016-08-12T18:02:17.000Z</time>
        <extensions>
          <ns3:TrackPointExtension>
            <ns3:atemp>19.0</ns3:atemp>
            <ns3:hr>145</ns3:hr>
          </ns3:TrackPointExtension>
        </extensions>
      </trkpt>
      <trkpt lat="-22.11433681659400463104248046875" lon="166.4604108966886997222900390625">
        <ele>358.399993896484375</ele>
        <time>2016-08-12T18:02:18.000Z</time>
        <extensions>
          <ns3:TrackPointExtension>
            <ns3:atemp>19.0</ns3:atemp>
            <ns3:hr>145</ns3:hr>
          </ns3:TrackPointExtension>
        </extensions>
      </trkpt>
      <trkpt lat="-22.1143347211182117462158203125" lon="166.46039254032075405120849609375">
        <ele>358.600006103515625</ele>
        <time>2016-08-12T18:02:19.000Z</time>
        <extensions>
          <ns3:TrackPointExtension>
            <ns3:atemp>19.0</ns3:atemp>
            <ns3:hr>145</ns3:hr>
          </ns3:TrackPointExtension>
        </extensions>
      </trkpt>
      <trkpt lat="-22.11433044634759426116943359375" lon="166.460376195609569549560546875">
        <ele>359</ele>
        <time>2016-08-12T18:02:20.000Z</time>
        <extensions>
          <ns3:TrackPointExtension>
            <ns3:atemp>19.0</ns3:atemp>
            <ns3:hr>145</ns3:hr>
          </ns3:TrackPointExtension>
        </extensions>
      </trkpt>
      <trkpt lat="-22.1143249981105327606201171875" lon="166.46035582758486270904541015625">
        <ele>359.399993896484375</ele>
        <time>2016-08-12T18:02:21.000Z</time>
        <extensions>
          <ns3:TrackPointExtension>
            <ns3:atemp>19.0</ns3:atemp>
            <ns3:hr>145</ns3:hr>
          </ns3:TrackPointExtension>
        </extensions>
      </trkpt>
      <trkpt lat="-22.11432122625410556793212890625" lon="166.46033470518887042999267578125">
        <ele>359.399993896484375</ele>
        <time>2016-08-12T18:02:22.000Z</time>
        <extensions>
          <ns3:TrackPointExtension>
            <ns3:atemp>19.0</ns3:atemp>
            <ns3:hr>145</ns3:hr>
          </ns3:TrackPointExtension>
        </extensions>
      </trkpt>
      <trkpt lat="-22.11431435309350490570068359375" lon="166.46031542681157588958740234375">
        <ele>359.79998779296875</ele>
        <time>2016-08-12T18:02:23.000Z</time>
        <extensions>
          <ns3:TrackPointExtension>
            <ns3:atemp>19.0</ns3:atemp>
            <ns3:hr>145</ns3:hr>
          </ns3:TrackPointExtension>
        </extensions>
      </trkpt>
      <trkpt lat="-22.114304713904857635498046875" lon="166.460295058786869049072265625">
        <ele>360</ele>
        <time>2016-08-12T18:02:24.000Z</time>
        <extensions>
          <ns3:TrackPointExtension>
            <ns3:atemp>19.0</ns3:atemp>
            <ns3:hr>145</ns3:hr>
          </ns3:TrackPointExtension>
        </extensions>
      </trkpt>
      <trkpt lat="-22.1142938174307346343994140625" lon="166.46027603186666965484619140625">
        <ele>360</ele>
        <time>2016-08-12T18:02:25.000Z</time>
        <extensions>
          <ns3:TrackPointExtension>
            <ns3:atemp>19.0</ns3:atemp>
            <ns3:hr>146</ns3:hr>
          </ns3:TrackPointExtension>
        </extensions>
      </trkpt>
      <trkpt lat="-22.11428116075694561004638671875" lon="166.46025826223194599151611328125">
        <ele>360.20001220703125</ele>
        <time>2016-08-12T18:02:26.000Z</time>
        <extensions>
          <ns3:TrackPointExtension>
            <ns3:atemp>19.0</ns3:atemp>
            <ns3:hr>146</ns3:hr>
          </ns3:TrackPointExtension>
        </extensions>
      </trkpt>
      <trkpt lat="-22.11426816880702972412109375" lon="166.460240744054317474365234375">
        <ele>360.600006103515625</ele>
        <time>2016-08-12T18:02:27.000Z</time>
        <extensions>
          <ns3:TrackPointExtension>
            <ns3:atemp>19.0</ns3:atemp>
            <ns3:hr>146</ns3:hr>
          </ns3:TrackPointExtension>
        </extensions>
      </trkpt>
      <trkpt lat="-22.11425878107547760009765625" lon="166.460222639143466949462890625">
        <ele>360.79998779296875</ele>
        <time>2016-08-12T18:02:28.000Z</time>
        <extensions>
          <ns3:TrackPointExtension>
            <ns3:atemp>19.0</ns3:atemp>
            <ns3:hr>146</ns3:hr>
          </ns3:TrackPointExtension>
        </extensions>
      </trkpt>
      <trkpt lat="-22.11424830369651317596435546875" lon="166.46020294167101383209228515625">
        <ele>361</ele>
        <time>2016-08-12T18:02:29.000Z</time>
        <extensions>
          <ns3:TrackPointExtension>
            <ns3:atemp>19.0</ns3:atemp>
            <ns3:hr>146</ns3:hr>
          </ns3:TrackPointExtension>
        </extensions>
      </trkpt>
      <trkpt lat="-22.11423757486045360565185546875" lon="166.46018282510340213775634765625">
        <ele>361</ele>
        <time>2016-08-12T18:02:30.000Z</time>
        <extensions>
          <ns3:TrackPointExtension>
            <ns3:atemp>19.0</ns3:atemp>
            <ns3:hr>147</ns3:hr>
          </ns3:TrackPointExtension>
        </extensions>
      </trkpt>
      <trkpt lat="-22.11422734893858432769775390625" lon="166.460163630545139312744140625">
        <ele>361</ele>
        <time>2016-08-12T18:02:31.000Z</time>
        <extensions>
          <ns3:TrackPointExtension>
            <ns3:atemp>19.0</ns3:atemp>
            <ns3:hr>147</ns3:hr>
          </ns3:TrackPointExtension>
        </extensions>
      </trkpt>
      <trkpt lat="-22.114215530455112457275390625" lon="166.46014376543462276458740234375">
        <ele>361.399993896484375</ele>
        <time>2016-08-12T18:02:32.000Z</time>
        <extensions>
          <ns3:TrackPointExtension>
            <ns3:atemp>19.0</ns3:atemp>
            <ns3:hr>146</ns3:hr>
          </ns3:TrackPointExtension>
        </extensions>
      </trkpt>
      <trkpt lat="-22.11420270614326000213623046875" lon="166.46012448705732822418212890625">
        <ele>361.399993896484375</ele>
        <time>2016-08-12T18:02:33.000Z</time>
        <extensions>
          <ns3:TrackPointExtension>
            <ns3:atemp>19.0</ns3:atemp>
            <ns3:hr>147</ns3:hr>
          </ns3:TrackPointExtension>
        </extensions>
      </trkpt>
      <trkpt lat="-22.1141915582120418548583984375" lon="166.46010227501392364501953125">
        <ele>361.600006103515625</ele>
        <time>2016-08-12T18:02:34.000Z</time>
        <extensions>
          <ns3:TrackPointExtension>
            <ns3:atemp>19.0</ns3:atemp>
            <ns3:hr>147</ns3:hr>
          </ns3:TrackPointExtension>
        </extensions>
      </trkpt>
      <trkpt lat="-22.114175967872142791748046875" lon="166.46008375100791454315185546875">
        <ele>361.79998779296875</ele>
        <time>2016-08-12T18:02:35.000Z</time>
        <extensions>
          <ns3:TrackPointExtension>
            <ns3:atemp>19.0</ns3:atemp>
            <ns3:hr>147</ns3:hr>
          </ns3:TrackPointExtension>
        </extensions>
      </trkpt>
      <trkpt lat="-22.11416481994092464447021484375" lon="166.46006447263062000274658203125">
        <ele>361.79998779296875</ele>
        <time>2016-08-12T18:02:36.000Z</time>
        <extensions>
          <ns3:TrackPointExtension>
            <ns3:atemp>19.0</ns3:atemp>
            <ns3:hr>147</ns3:hr>
          </ns3:TrackPointExtension>
        </extensions>
      </trkpt>
      <trkpt lat="-22.11415576748549938201904296875" lon="166.46004586480557918548583984375">
        <ele>362</ele>
        <time>2016-08-12T18:02:37.000Z</time>
        <extensions>
          <ns3:TrackPointExtension>
            <ns3:atemp>19.0</ns3:atemp>
            <ns3:hr>147</ns3:hr>
          </ns3:TrackPointExtension>
        </extensions>
      </trkpt>
      <trkpt lat="-22.11414470337331295013427734375" lon="166.4600236527621746063232421875">
        <ele>362.20001220703125</ele>
        <time>2016-08-12T18:02:38.000Z</time>
        <extensions>
          <ns3:TrackPointExtension>
            <ns3:atemp>19.0</ns3:atemp>
            <ns3:hr>148</ns3:hr>
          </ns3:TrackPointExtension>
        </extensions>
      </trkpt>
      <trkpt lat="-22.11413028649985790252685546875" lon="166.46000630222260951995849609375">
        <ele>362.20001220703125</ele>
        <time>2016-08-12T18:02:39.000Z</time>
        <extensions>
          <ns3:TrackPointExtension>
            <ns3:atemp>19.0</ns3:atemp>
            <ns3:hr>148</ns3:hr>
          </ns3:TrackPointExtension>
        </extensions>
      </trkpt>
      <trkpt lat="-22.11411528289318084716796875" lon="166.4599924720823764801025390625">
        <ele>362.399993896484375</ele>
        <time>2016-08-12T18:02:40.000Z</time>
        <extensions>
          <ns3:TrackPointExtension>
            <ns3:atemp>19.0</ns3:atemp>
            <ns3:hr>147</ns3:hr>
          </ns3:TrackPointExtension>
        </extensions>
      </trkpt>
      <trkpt lat="-22.114099524915218353271484375" lon="166.45997495390474796295166015625">
        <ele>362.600006103515625</ele>
        <time>2016-08-12T18:02:41.000Z</time>
        <extensions>
          <ns3:TrackPointExtension>
            <ns3:atemp>19.0</ns3:atemp>
            <ns3:hr>148</ns3:hr>
          </ns3:TrackPointExtension>
        </extensions>
      </trkpt>
      <trkpt lat="-22.11408636532723903656005859375" lon="166.45995676517486572265625">
        <ele>362.79998779296875</ele>
        <time>2016-08-12T18:02:42.000Z</time>
        <extensions>
          <ns3:TrackPointExtension>
            <ns3:atemp>19.0</ns3:atemp>
            <ns3:hr>148</ns3:hr>
          </ns3:TrackPointExtension>
        </extensions>
      </trkpt>
      <trkpt lat="-22.1140752173960208892822265625" lon="166.459941677749156951904296875">
        <ele>362.79998779296875</ele>
        <time>2016-08-12T18:02:43.000Z</time>
        <extensions>
          <ns3:TrackPointExtension>
            <ns3:atemp>19.0</ns3:atemp>
            <ns3:hr>148</ns3:hr>
          </ns3:TrackPointExtension>
        </extensions>
      </trkpt>
      <trkpt lat="-22.114062644541263580322265625" lon="166.459924913942813873291015625">
        <ele>363</ele>
        <time>2016-08-12T18:02:44.000Z</time>
        <extensions>
          <ns3:TrackPointExtension>
            <ns3:atemp>19.0</ns3:atemp>
            <ns3:hr>147</ns3:hr>
          </ns3:TrackPointExtension>
        </extensions>
      </trkpt>
      <trkpt lat="-22.11405267007648944854736328125" lon="166.45990823395550251007080078125">
        <ele>363.20001220703125</ele>
        <time>2016-08-12T18:02:45.000Z</time>
        <extensions>
          <ns3:TrackPointExtension>
            <ns3:atemp>19.0</ns3:atemp>
            <ns3:hr>147</ns3:hr>
          </ns3:TrackPointExtension>
        </extensions>
      </trkpt>
      <trkpt lat="-22.11404076777398586273193359375" lon="166.4598932303488254547119140625">
        <ele>363.399993896484375</ele>
        <time>2016-08-12T18:02:46.000Z</time>
        <extensions>
          <ns3:TrackPointExtension>
            <ns3:atemp>19.0</ns3:atemp>
            <ns3:hr>147</ns3:hr>
          </ns3:TrackPointExtension>
        </extensions>
      </trkpt>
      <trkpt lat="-22.11402350105345249176025390625" lon="166.4598788134753704071044921875">
        <ele>363.79998779296875</ele>
        <time>2016-08-12T18:02:47.000Z</time>
        <extensions>
          <ns3:TrackPointExtension>
            <ns3:atemp>19.0</ns3:atemp>
            <ns3:hr>147</ns3:hr>
          </ns3:TrackPointExtension>
        </extensions>
      </trkpt>
      <trkpt lat="-22.11400791071355342864990234375" lon="166.4598650671541690826416015625">
        <ele>364</ele>
        <time>2016-08-12T18:02:48.000Z</time>
        <extensions>
          <ns3:TrackPointExtension>
            <ns3:atemp>19.0</ns3:atemp>
            <ns3:hr>147</ns3:hr>
          </ns3:TrackPointExtension>
        </extensions>
      </trkpt>
      <trkpt lat="-22.11398963816463947296142578125" lon="166.45985090173780918121337890625">
        <ele>364</ele>
        <time>2016-08-12T18:02:49.000Z</time>
        <extensions>
          <ns3:TrackPointExtension>
            <ns3:atemp>19.0</ns3:atemp>
            <ns3:hr>147</ns3:hr>
          </ns3:TrackPointExtension>
        </extensions>
      </trkpt>
      <trkpt lat="-22.1139699406921863555908203125" lon="166.459837071597576141357421875">
        <ele>364.399993896484375</ele>
        <time>2016-08-12T18:02:50.000Z</time>
        <extensions>
          <ns3:TrackPointExtension>
            <ns3:atemp>19.0</ns3:atemp>
            <ns3:hr>147</ns3:hr>
          </ns3:TrackPointExtension>
        </extensions>
      </trkpt>
      <trkpt lat="-22.11395074613392353057861328125" lon="166.45982542075216770172119140625">
        <ele>364.399993896484375</ele>
        <time>2016-08-12T18:02:51.000Z</time>
        <extensions>
          <ns3:TrackPointExtension>
            <ns3:atemp>19.0</ns3:atemp>
            <ns3:hr>147</ns3:hr>
          </ns3:TrackPointExtension>
        </extensions>
      </trkpt>
      <trkpt lat="-22.1139330603182315826416015625" lon="166.45981318317353725433349609375">
        <ele>364.399993896484375</ele>
        <time>2016-08-12T18:02:52.000Z</time>
        <extensions>
          <ns3:TrackPointExtension>
            <ns3:atemp>19.0</ns3:atemp>
            <ns3:hr>147</ns3:hr>
          </ns3:TrackPointExtension>
        </extensions>
      </trkpt>
      <trkpt lat="-22.1139139495790004730224609375" lon="166.4598010294139385223388671875">
        <ele>364.79998779296875</ele>
        <time>2016-08-12T18:02:53.000Z</time>
        <extensions>
          <ns3:TrackPointExtension>
            <ns3:atemp>19.0</ns3:atemp>
            <ns3:hr>147</ns3:hr>
          </ns3:TrackPointExtension>
        </extensions>
      </trkpt>
      <trkpt lat="-22.11389324627816677093505859375" lon="166.45979155786335468292236328125">
        <ele>365</ele>
        <time>2016-08-12T18:02:54.000Z</time>
        <extensions>
          <ns3:TrackPointExtension>
            <ns3:atemp>19.0</ns3:atemp>
            <ns3:hr>147</ns3:hr>
          </ns3:TrackPointExtension>
        </extensions>
      </trkpt>
      <trkpt lat="-22.1138706989586353302001953125" lon="166.45978317596018314361572265625">
        <ele>365</ele>
        <time>2016-08-12T18:02:55.000Z</time>
        <extensions>
          <ns3:TrackPointExtension>
            <ns3:atemp>19.0</ns3:atemp>
            <ns3:hr>147</ns3:hr>
          </ns3:TrackPointExtension>
        </extensions>
      </trkpt>
      <trkpt lat="-22.11384840309619903564453125" lon="166.45977781154215335845947265625">
        <ele>365.20001220703125</ele>
        <time>2016-08-12T18:02:56.000Z</time>
        <extensions>
          <ns3:TrackPointExtension>
            <ns3:atemp>19.0</ns3:atemp>
            <ns3:hr>147</ns3:hr>
          </ns3:TrackPointExtension>
        </extensions>
      </trkpt>
      <trkpt lat="-22.11382870562374591827392578125" lon="166.45977236330509185791015625">
        <ele>365.399993896484375</ele>
        <time>2016-08-12T18:02:57.000Z</time>
        <extensions>
          <ns3:TrackPointExtension>
            <ns3:atemp>19.0</ns3:atemp>
            <ns3:hr>147</ns3:hr>
          </ns3:TrackPointExtension>
        </extensions>
      </trkpt>
      <trkpt lat="-22.11380758322775363922119140625" lon="166.4597671665251255035400390625">
        <ele>365.600006103515625</ele>
        <time>2016-08-12T18:02:58.000Z</time>
        <extensions>
          <ns3:TrackPointExtension>
            <ns3:atemp>19.0</ns3:atemp>
            <ns3:hr>147</ns3:hr>
          </ns3:TrackPointExtension>
        </extensions>
      </trkpt>
      <trkpt lat="-22.1137875504791736602783203125" lon="166.459764651954174041748046875">
        <ele>365.79998779296875</ele>
        <time>2016-08-12T18:02:59.000Z</time>
        <extensions>
          <ns3:TrackPointExtension>
            <ns3:atemp>19.0</ns3:atemp>
            <ns3:hr>146</ns3:hr>
          </ns3:TrackPointExtension>
        </extensions>
      </trkpt>
      <trkpt lat="-22.11376818828284740447998046875" lon="166.4597644843161106109619140625">
        <ele>365.79998779296875</ele>
        <time>2016-08-12T18:03:00.000Z</time>
        <extensions>
          <ns3:TrackPointExtension>
            <ns3:atemp>19.0</ns3:atemp>
            <ns3:hr>146</ns3:hr>
          </ns3:TrackPointExtension>
        </extensions>
      </trkpt>
      <trkpt lat="-22.113749496638774871826171875" lon="166.4597574435174465179443359375">
        <ele>365.79998779296875</ele>
        <time>2016-08-12T18:03:01.000Z</time>
        <extensions>
          <ns3:TrackPointExtension>
            <ns3:atemp>19.0</ns3:atemp>
            <ns3:hr>146</ns3:hr>
          </ns3:TrackPointExtension>
        </extensions>
      </trkpt>
      <trkpt lat="-22.1137310564517974853515625" lon="166.45975149236619472503662109375">
        <ele>366.20001220703125</ele>
        <time>2016-08-12T18:03:02.000Z</time>
        <extensions>
          <ns3:TrackPointExtension>
            <ns3:atemp>19.0</ns3:atemp>
            <ns3:hr>146</ns3:hr>
          </ns3:TrackPointExtension>
        </extensions>
      </trkpt>
      <trkpt lat="-22.11371102370321750640869140625" lon="166.45974948070943355560302734375">
        <ele>366.399993896484375</ele>
        <time>2016-08-12T18:03:03.000Z</time>
        <extensions>
          <ns3:TrackPointExtension>
            <ns3:atemp>19.0</ns3:atemp>
            <ns3:hr>146</ns3:hr>
          </ns3:TrackPointExtension>
        </extensions>
      </trkpt>
      <trkpt lat="-22.11368822492659091949462890625" lon="166.45974931307137012481689453125">
        <ele>366.399993896484375</ele>
        <time>2016-08-12T18:03:04.000Z</time>
        <extensions>
          <ns3:TrackPointExtension>
            <ns3:atemp>19.0</ns3:atemp>
            <ns3:hr>146</ns3:hr>
          </ns3:TrackPointExtension>
        </extensions>
      </trkpt>
      <trkpt lat="-22.11366609670221805572509765625" lon="166.45974964834749698638916015625">
        <ele>366.79998779296875</ele>
        <time>2016-08-12T18:03:05.000Z</time>
        <extensions>
          <ns3:TrackPointExtension>
            <ns3:atemp>19.0</ns3:atemp>
            <ns3:hr>146</ns3:hr>
          </ns3:TrackPointExtension>
        </extensions>
      </trkpt>
      <trkpt lat="-22.11364262737333774566650390625" lon="166.45975065417587757110595703125">
        <ele>367</ele>
        <time>2016-08-12T18:03:06.000Z</time>
        <extensions>
          <ns3:TrackPointExtension>
            <ns3:atemp>19.0</ns3:atemp>
            <ns3:hr>146</ns3:hr>
          </ns3:TrackPointExtension>
        </extensions>
      </trkpt>
      <trkpt lat="-22.1136192418634891510009765625" lon="166.459752582013607025146484375">
        <ele>367</ele>
        <time>2016-08-12T18:03:07.000Z</time>
        <extensions>
          <ns3:TrackPointExtension>
            <ns3:atemp>19.0</ns3:atemp>
            <ns3:hr>146</ns3:hr>
          </ns3:TrackPointExtension>
        </extensions>
      </trkpt>
      <trkpt lat="-22.11359987966716289520263671875" lon="166.4597547613084316253662109375">
        <ele>367.399993896484375</ele>
        <time>2016-08-12T18:03:08.000Z</time>
        <extensions>
          <ns3:TrackPointExtension>
            <ns3:atemp>19.0</ns3:atemp>
            <ns3:hr>146</ns3:hr>
          </ns3:TrackPointExtension>
        </extensions>
      </trkpt>
      <trkpt lat="-22.11358311586081981658935546875" lon="166.45975484512746334075927734375">
        <ele>367.399993896484375</ele>
        <time>2016-08-12T18:03:09.000Z</time>
        <extensions>
          <ns3:TrackPointExtension>
            <ns3:atemp>19.0</ns3:atemp>
            <ns3:hr>146</ns3:hr>
          </ns3:TrackPointExtension>
        </extensions>
      </trkpt>
      <trkpt lat="-22.113561742007732391357421875" lon="166.4597550965845584869384765625">
        <ele>367.399993896484375</ele>
        <time>2016-08-12T18:03:10.000Z</time>
        <extensions>
          <ns3:TrackPointExtension>
            <ns3:atemp>19.0</ns3:atemp>
            <ns3:hr>146</ns3:hr>
          </ns3:TrackPointExtension>
        </extensions>
      </trkpt>
      <trkpt lat="-22.1135407872498035430908203125" lon="166.4597591198980808258056640625">
        <ele>367.79998779296875</ele>
        <time>2016-08-12T18:03:11.000Z</time>
        <extensions>
          <ns3:TrackPointExtension>
            <ns3:atemp>19.0</ns3:atemp>
            <ns3:hr>146</ns3:hr>
          </ns3:TrackPointExtension>
        </extensions>
      </trkpt>
      <trkpt lat="-22.1135189943015575408935546875" lon="166.4597601257264614105224609375">
        <ele>368</ele>
        <time>2016-08-12T18:03:12.000Z</time>
        <extensions>
          <ns3:TrackPointExtension>
            <ns3:atemp>19.0</ns3:atemp>
            <ns3:hr>146</ns3:hr>
          </ns3:TrackPointExtension>
        </extensions>
      </trkpt>
      <trkpt lat="-22.11349678225815296173095703125" lon="166.45975819788873195648193359375">
        <ele>368.20001220703125</ele>
        <time>2016-08-12T18:03:13.000Z</time>
        <extensions>
          <ns3:TrackPointExtension>
            <ns3:atemp>19.0</ns3:atemp>
            <ns3:hr>146</ns3:hr>
          </ns3:TrackPointExtension>
        </extensions>
      </trkpt>
      <trkpt lat="-22.11347616277635097503662109375" lon="166.459757946431636810302734375">
        <ele>368.600006103515625</ele>
        <time>2016-08-12T18:03:14.000Z</time>
        <extensions>
          <ns3:TrackPointExtension>
            <ns3:atemp>19.0</ns3:atemp>
            <ns3:hr>146</ns3:hr>
          </ns3:TrackPointExtension>
        </extensions>
      </trkpt>
      <trkpt lat="-22.113454453647136688232421875" lon="166.4597537554800510406494140625">
        <ele>368.600006103515625</ele>
        <time>2016-08-12T18:03:15.000Z</time>
        <extensions>
          <ns3:TrackPointExtension>
            <ns3:atemp>19.0</ns3:atemp>
            <ns3:hr>146</ns3:hr>
          </ns3:TrackPointExtension>
        </extensions>
      </trkpt>
      <trkpt lat="-22.11343266069889068603515625" lon="166.4597470499575138092041015625">
        <ele>368.600006103515625</ele>
        <time>2016-08-12T18:03:16.000Z</time>
        <extensions>
          <ns3:TrackPointExtension>
            <ns3:atemp>19.0</ns3:atemp>
            <ns3:hr>146</ns3:hr>
          </ns3:TrackPointExtension>
        </extensions>
      </trkpt>
      <trkpt lat="-22.1134117059409618377685546875" lon="166.45974344573915004730224609375">
        <ele>368.79998779296875</ele>
        <time>2016-08-12T18:03:17.000Z</time>
        <extensions>
          <ns3:TrackPointExtension>
            <ns3:atemp>19.0</ns3:atemp>
            <ns3:hr>146</ns3:hr>
          </ns3:TrackPointExtension>
        </extensions>
      </trkpt>
      <trkpt lat="-22.11339049972593784332275390625" lon="166.4597376622259616851806640625">
        <ele>368.79998779296875</ele>
        <time>2016-08-12T18:03:18.000Z</time>
        <extensions>
          <ns3:TrackPointExtension>
            <ns3:atemp>19.0</ns3:atemp>
            <ns3:hr>146</ns3:hr>
          </ns3:TrackPointExtension>
        </extensions>
      </trkpt>
      <trkpt lat="-22.1133697964251041412353515625" lon="166.45973213016986846923828125">
        <ele>368.79998779296875</ele>
        <time>2016-08-12T18:03:19.000Z</time>
        <extensions>
          <ns3:TrackPointExtension>
            <ns3:atemp>19.0</ns3:atemp>
            <ns3:hr>147</ns3:hr>
          </ns3:TrackPointExtension>
        </extensions>
      </trkpt>
      <trkpt lat="-22.11335076950490474700927734375" lon="166.45973053760826587677001953125">
        <ele>369.20001220703125</ele>
        <time>2016-08-12T18:03:20.000Z</time>
        <extensions>
          <ns3:TrackPointExtension>
            <ns3:atemp>19.0</ns3:atemp>
            <ns3:hr>146</ns3:hr>
          </ns3:TrackPointExtension>
        </extensions>
      </trkpt>
      <trkpt lat="-22.11332914419472217559814453125" lon="166.45972617901861667633056640625">
        <ele>369.600006103515625</ele>
        <time>2016-08-12T18:03:21.000Z</time>
        <extensions>
          <ns3:TrackPointExtension>
            <ns3:atemp>19.0</ns3:atemp>
            <ns3:hr>147</ns3:hr>
          </ns3:TrackPointExtension>
        </extensions>
      </trkpt>
      <trkpt lat="-22.113308273255825042724609375" lon="166.459722407162189483642578125">
        <ele>369.600006103515625</ele>
        <time>2016-08-12T18:03:22.000Z</time>
        <extensions>
          <ns3:TrackPointExtension>
            <ns3:atemp>19.0</ns3:atemp>
            <ns3:hr>147</ns3:hr>
          </ns3:TrackPointExtension>
        </extensions>
      </trkpt>
      <trkpt lat="-22.1132886596024036407470703125" lon="166.459717713296413421630859375">
        <ele>369.79998779296875</ele>
        <time>2016-08-12T18:03:23.000Z</time>
        <extensions>
          <ns3:TrackPointExtension>
            <ns3:atemp>19.0</ns3:atemp>
            <ns3:hr>147</ns3:hr>
          </ns3:TrackPointExtension>
        </extensions>
      </trkpt>
      <trkpt lat="-22.1132670342922210693359375" lon="166.45971243269741535186767578125">
        <ele>370</ele>
        <time>2016-08-12T18:03:24.000Z</time>
        <extensions>
          <ns3:TrackPointExtension>
            <ns3:atemp>19.0</ns3:atemp>
            <ns3:hr>147</ns3:hr>
          </ns3:TrackPointExtension>
        </extensions>
      </trkpt>
      <trkpt lat="-22.113246582448482513427734375" lon="166.45970673300325870513916015625">
        <ele>369.79998779296875</ele>
        <time>2016-08-12T18:03:25.000Z</time>
        <extensions>
          <ns3:TrackPointExtension>
            <ns3:atemp>19.0</ns3:atemp>
            <ns3:hr>147</ns3:hr>
          </ns3:TrackPointExtension>
        </extensions>
      </trkpt>
      <trkpt lat="-22.11322537623345851898193359375" lon="166.459702961146831512451171875">
        <ele>370.20001220703125</ele>
        <time>2016-08-12T18:03:26.000Z</time>
        <extensions>
          <ns3:TrackPointExtension>
            <ns3:atemp>19.0</ns3:atemp>
            <ns3:hr>147</ns3:hr>
          </ns3:TrackPointExtension>
        </extensions>
      </trkpt>
      <trkpt lat="-22.113203667104244232177734375" lon="166.45969935692846775054931640625">
        <ele>370.20001220703125</ele>
        <time>2016-08-12T18:03:27.000Z</time>
        <extensions>
          <ns3:TrackPointExtension>
            <ns3:atemp>19.0</ns3:atemp>
            <ns3:hr>147</ns3:hr>
          </ns3:TrackPointExtension>
        </extensions>
      </trkpt>
      <trkpt lat="-22.11318514309823513031005859375" lon="166.45969457924365997314453125">
        <ele>370.20001220703125</ele>
        <time>2016-08-12T18:03:28.000Z</time>
        <extensions>
          <ns3:TrackPointExtension>
            <ns3:atemp>19.0</ns3:atemp>
            <ns3:hr>147</ns3:hr>
          </ns3:TrackPointExtension>
        </extensions>
      </trkpt>
      <trkpt lat="-22.113167457282543182373046875" lon="166.45968778990209102630615234375">
        <ele>370.399993896484375</ele>
        <time>2016-08-12T18:03:29.000Z</time>
        <extensions>
          <ns3:TrackPointExtension>
            <ns3:atemp>19.0</ns3:atemp>
            <ns3:hr>147</ns3:hr>
          </ns3:TrackPointExtension>
        </extensions>
      </trkpt>
      <trkpt lat="-22.1131485141813755035400390625" lon="166.4596789889037609100341796875">
        <ele>370.79998779296875</ele>
        <time>2016-08-12T18:03:30.000Z</time>
        <extensions>
          <ns3:TrackPointExtension>
            <ns3:atemp>19.0</ns3:atemp>
            <ns3:hr>147</ns3:hr>
          </ns3:TrackPointExtension>
        </extensions>
      </trkpt>
      <trkpt lat="-22.113130576908588409423828125" lon="166.459668762981891632080078125">
        <ele>370.600006103515625</ele>
        <time>2016-08-12T18:03:31.000Z</time>
        <extensions>
          <ns3:TrackPointExtension>
            <ns3:atemp>19.0</ns3:atemp>
            <ns3:hr>147</ns3:hr>
          </ns3:TrackPointExtension>
        </extensions>
      </trkpt>
      <trkpt lat="-22.113108448684215545654296875" lon="166.45965878851711750030517578125">
        <ele>370.79998779296875</ele>
        <time>2016-08-12T18:03:32.000Z</time>
        <extensions>
          <ns3:TrackPointExtension>
            <ns3:atemp>19.0</ns3:atemp>
            <ns3:hr>147</ns3:hr>
          </ns3:TrackPointExtension>
        </extensions>
      </trkpt>
      <trkpt lat="-22.11308657191693782806396484375" lon="166.45964873023331165313720703125">
        <ele>371</ele>
        <time>2016-08-12T18:03:33.000Z</time>
        <extensions>
          <ns3:TrackPointExtension>
            <ns3:atemp>19.0</ns3:atemp>
            <ns3:hr>146</ns3:hr>
          </ns3:TrackPointExtension>
        </extensions>
      </trkpt>
      <trkpt lat="-22.11307131685316562652587890625" lon="166.45963548682630062103271484375">
        <ele>371.20001220703125</ele>
        <time>2016-08-12T18:03:34.000Z</time>
        <extensions>
          <ns3:TrackPointExtension>
            <ns3:atemp>19.0</ns3:atemp>
            <ns3:hr>147</ns3:hr>
          </ns3:TrackPointExtension>
        </extensions>
      </trkpt>
      <trkpt lat="-22.11305757053196430206298828125" lon="166.45962039940059185028076171875">
        <ele>371.399993896484375</ele>
        <time>2016-08-12T18:03:35.000Z</time>
        <extensions>
          <ns3:TrackPointExtension>
            <ns3:atemp>19.0</ns3:atemp>
            <ns3:hr>147</ns3:hr>
          </ns3:TrackPointExtension>
        </extensions>
      </trkpt>
      <trkpt lat="-22.1130444109439849853515625" lon="166.459605060517787933349609375">
        <ele>371.79998779296875</ele>
        <time>2016-08-12T18:03:36.000Z</time>
        <extensions>
          <ns3:TrackPointExtension>
            <ns3:atemp>19.0</ns3:atemp>
            <ns3:hr>146</ns3:hr>
          </ns3:TrackPointExtension>
        </extensions>
      </trkpt>
      <trkpt lat="-22.113035358488559722900390625" lon="166.45958938635885715484619140625">
        <ele>371.79998779296875</ele>
        <time>2016-08-12T18:03:37.000Z</time>
        <extensions>
          <ns3:TrackPointExtension>
            <ns3:atemp>19.0</ns3:atemp>
            <ns3:hr>146</ns3:hr>
          </ns3:TrackPointExtension>
        </extensions>
      </trkpt>
      <trkpt lat="-22.11302890442311763763427734375" lon="166.459570862352848052978515625">
        <ele>372</ele>
        <time>2016-08-12T18:03:38.000Z</time>
        <extensions>
          <ns3:TrackPointExtension>
            <ns3:atemp>19.0</ns3:atemp>
            <ns3:hr>146</ns3:hr>
          </ns3:TrackPointExtension>
        </extensions>
      </trkpt>
      <trkpt lat="-22.1130234561860561370849609375" lon="166.45955384708940982818603515625">
        <ele>372.20001220703125</ele>
        <time>2016-08-12T18:03:39.000Z</time>
        <extensions>
          <ns3:TrackPointExtension>
            <ns3:atemp>19.0</ns3:atemp>
            <ns3:hr>146</ns3:hr>
          </ns3:TrackPointExtension>
        </extensions>
      </trkpt>
      <trkpt lat="-22.113018594682216644287109375" lon="166.4595371671020984649658203125">
        <ele>372.399993896484375</ele>
        <time>2016-08-12T18:03:40.000Z</time>
        <extensions>
          <ns3:TrackPointExtension>
            <ns3:atemp>19.0</ns3:atemp>
            <ns3:hr>146</ns3:hr>
          </ns3:TrackPointExtension>
        </extensions>
      </trkpt>
      <trkpt lat="-22.1130122244358062744140625" lon="166.459519565105438232421875">
        <ele>372.399993896484375</ele>
        <time>2016-08-12T18:03:41.000Z</time>
        <extensions>
          <ns3:TrackPointExtension>
            <ns3:atemp>19.0</ns3:atemp>
            <ns3:hr>146</ns3:hr>
          </ns3:TrackPointExtension>
        </extensions>
      </trkpt>
      <trkpt lat="-22.113005854189395904541015625" lon="166.45950154401361942291259765625">
        <ele>373</ele>
        <time>2016-08-12T18:03:42.000Z</time>
        <extensions>
          <ns3:TrackPointExtension>
            <ns3:atemp>19.0</ns3:atemp>
            <ns3:hr>146</ns3:hr>
          </ns3:TrackPointExtension>
        </extensions>
      </trkpt>
      <trkpt lat="-22.1130014955997467041015625" lon="166.45948469638824462890625">
        <ele>373</ele>
        <time>2016-08-12T18:03:43.000Z</time>
        <extensions>
          <ns3:TrackPointExtension>
            <ns3:atemp>19.0</ns3:atemp>
            <ns3:hr>146</ns3:hr>
          </ns3:TrackPointExtension>
        </extensions>
      </trkpt>
      <trkpt lat="-22.1129976399242877960205078125" lon="166.45946399308741092681884765625">
        <ele>373</ele>
        <time>2016-08-12T18:03:44.000Z</time>
        <extensions>
          <ns3:TrackPointExtension>
            <ns3:atemp>19.0</ns3:atemp>
            <ns3:hr>146</ns3:hr>
          </ns3:TrackPointExtension>
        </extensions>
      </trkpt>
      <trkpt lat="-22.1129966340959072113037109375" lon="166.45944287069141864776611328125">
        <ele>373.399993896484375</ele>
        <time>2016-08-12T18:03:45.000Z</time>
        <extensions>
          <ns3:TrackPointExtension>
            <ns3:atemp>19.0</ns3:atemp>
            <ns3:hr>146</ns3:hr>
          </ns3:TrackPointExtension>
        </extensions>
      </trkpt>
      <trkpt lat="-22.11299504153430461883544921875" lon="166.4594235084950923919677734375">
        <ele>373.600006103515625</ele>
        <time>2016-08-12T18:03:46.000Z</time>
        <extensions>
          <ns3:TrackPointExtension>
            <ns3:atemp>19.0</ns3:atemp>
            <ns3:hr>146</ns3:hr>
          </ns3:TrackPointExtension>
        </extensions>
      </trkpt>
      <trkpt lat="-22.11299034766852855682373046875" lon="166.459405906498432159423828125">
        <ele>373.600006103515625</ele>
        <time>2016-08-12T18:03:47.000Z</time>
        <extensions>
          <ns3:TrackPointExtension>
            <ns3:atemp>19.0</ns3:atemp>
            <ns3:hr>145</ns3:hr>
          </ns3:TrackPointExtension>
        </extensions>
      </trkpt>
      <trkpt lat="-22.11298607289791107177734375" lon="166.45938922651112079620361328125">
        <ele>373.79998779296875</ele>
        <time>2016-08-12T18:03:48.000Z</time>
        <extensions>
          <ns3:TrackPointExtension>
            <ns3:atemp>19.0</ns3:atemp>
            <ns3:hr>145</ns3:hr>
          </ns3:TrackPointExtension>
        </extensions>
      </trkpt>
      <trkpt lat="-22.1129818819463253021240234375" lon="166.45937447436153888702392578125">
        <ele>374</ele>
        <time>2016-08-12T18:03:49.000Z</time>
        <extensions>
          <ns3:TrackPointExtension>
            <ns3:atemp>19.0</ns3:atemp>
            <ns3:hr>145</ns3:hr>
          </ns3:TrackPointExtension>
        </extensions>
      </trkpt>
      <trkpt lat="-22.1129812113940715789794921875" lon="166.45935670472681522369384765625">
        <ele>374</ele>
        <time>2016-08-12T18:03:50.000Z</time>
        <extensions>
          <ns3:TrackPointExtension>
            <ns3:atemp>19.0</ns3:atemp>
            <ns3:hr>145</ns3:hr>
          </ns3:TrackPointExtension>
        </extensions>
      </trkpt>
      <trkpt lat="-22.11298313923180103302001953125" lon="166.4593390189111232757568359375">
        <ele>374.399993896484375</ele>
        <time>2016-08-12T18:03:51.000Z</time>
        <extensions>
          <ns3:TrackPointExtension>
            <ns3:atemp>19.0</ns3:atemp>
            <ns3:hr>144</ns3:hr>
          </ns3:TrackPointExtension>
        </extensions>
      </trkpt>
      <trkpt lat="-22.1129827201366424560546875" lon="166.45931915380060672760009765625">
        <ele>374.600006103515625</ele>
        <time>2016-08-12T18:03:52.000Z</time>
        <extensions>
          <ns3:TrackPointExtension>
            <ns3:atemp>19.0</ns3:atemp>
            <ns3:hr>144</ns3:hr>
          </ns3:TrackPointExtension>
        </extensions>
      </trkpt>
      <trkpt lat="-22.112979702651500701904296875" lon="166.4592982828617095947265625">
        <ele>374.399993896484375</ele>
        <time>2016-08-12T18:03:53.000Z</time>
        <extensions>
          <ns3:TrackPointExtension>
            <ns3:atemp>19.0</ns3:atemp>
            <ns3:hr>144</ns3:hr>
          </ns3:TrackPointExtension>
        </extensions>
      </trkpt>
      <trkpt lat="-22.112977690994739532470703125" lon="166.45928009413182735443115234375">
        <ele>374.79998779296875</ele>
        <time>2016-08-12T18:03:54.000Z</time>
        <extensions>
          <ns3:TrackPointExtension>
            <ns3:atemp>19.0</ns3:atemp>
            <ns3:hr>143</ns3:hr>
          </ns3:TrackPointExtension>
        </extensions>
      </trkpt>
      <trkpt lat="-22.11298045702278614044189453125" lon="166.45925846882164478302001953125">
        <ele>375</ele>
        <time>2016-08-12T18:03:55.000Z</time>
        <extensions>
          <ns3:TrackPointExtension>
            <ns3:atemp>19.0</ns3:atemp>
            <ns3:hr>143</ns3:hr>
          </ns3:TrackPointExtension>
        </extensions>
      </trkpt>
      <trkpt lat="-22.11297978647053241729736328125" lon="166.459240615367889404296875">
        <ele>375.20001220703125</ele>
        <time>2016-08-12T18:03:56.000Z</time>
        <extensions>
          <ns3:TrackPointExtension>
            <ns3:atemp>19.0</ns3:atemp>
            <ns3:hr>143</ns3:hr>
          </ns3:TrackPointExtension>
        </extensions>
      </trkpt>
      <trkpt lat="-22.11297660134732723236083984375" lon="166.45922410301864147186279296875">
        <ele>375.600006103515625</ele>
        <time>2016-08-12T18:03:57.000Z</time>
        <extensions>
          <ns3:TrackPointExtension>
            <ns3:atemp>19.0</ns3:atemp>
            <ns3:hr>143</ns3:hr>
          </ns3:TrackPointExtension>
        </extensions>
      </trkpt>
      <trkpt lat="-22.11297827772796154022216796875" lon="166.4592017233371734619140625">
        <ele>376</ele>
        <time>2016-08-12T18:03:58.000Z</time>
        <extensions>
          <ns3:TrackPointExtension>
            <ns3:atemp>19.0</ns3:atemp>
            <ns3:hr>143</ns3:hr>
          </ns3:TrackPointExtension>
        </extensions>
      </trkpt>
      <trkpt lat="-22.11297534406185150146484375" lon="166.45918227732181549072265625">
        <ele>376.20001220703125</ele>
        <time>2016-08-12T18:03:59.000Z</time>
        <extensions>
          <ns3:TrackPointExtension>
            <ns3:atemp>19.0</ns3:atemp>
            <ns3:hr>144</ns3:hr>
          </ns3:TrackPointExtension>
        </extensions>
      </trkpt>
      <trkpt lat="-22.112970985472202301025390625" lon="166.4591656811535358428955078125">
        <ele>376.399993896484375</ele>
        <time>2016-08-12T18:04:00.000Z</time>
        <extensions>
          <ns3:TrackPointExtension>
            <ns3:atemp>19.0</ns3:atemp>
            <ns3:hr>144</ns3:hr>
          </ns3:TrackPointExtension>
        </extensions>
      </trkpt>
      <trkpt lat="-22.112970985472202301025390625" lon="166.45914548076689243316650390625">
        <ele>376.600006103515625</ele>
        <time>2016-08-12T18:04:01.000Z</time>
        <extensions>
          <ns3:TrackPointExtension>
            <ns3:atemp>19.0</ns3:atemp>
            <ns3:hr>144</ns3:hr>
          </ns3:TrackPointExtension>
        </extensions>
      </trkpt>
      <trkpt lat="-22.11296352557837963104248046875" lon="166.45912687294185161590576171875">
        <ele>376.600006103515625</ele>
        <time>2016-08-12T18:04:02.000Z</time>
        <extensions>
          <ns3:TrackPointExtension>
            <ns3:atemp>19.0</ns3:atemp>
            <ns3:hr>143</ns3:hr>
          </ns3:TrackPointExtension>
        </extensions>
      </trkpt>
      <trkpt lat="-22.11295715533196926116943359375" lon="166.45910960622131824493408203125">
        <ele>377</ele>
        <time>2016-08-12T18:04:03.000Z</time>
        <extensions>
          <ns3:TrackPointExtension>
            <ns3:atemp>19.0</ns3:atemp>
            <ns3:hr>144</ns3:hr>
          </ns3:TrackPointExtension>
        </extensions>
      </trkpt>
      <trkpt lat="-22.11295380257070064544677734375" lon="166.459090746939182281494140625">
        <ele>377</ele>
        <time>2016-08-12T18:04:04.000Z</time>
        <extensions>
          <ns3:TrackPointExtension>
            <ns3:atemp>19.0</ns3:atemp>
            <ns3:hr>144</ns3:hr>
          </ns3:TrackPointExtension>
        </extensions>
      </trkpt>
      <trkpt lat="-22.1129496954381465911865234375" lon="166.459073312580585479736328125">
        <ele>377</ele>
        <time>2016-08-12T18:04:05.000Z</time>
        <extensions>
          <ns3:TrackPointExtension>
            <ns3:atemp>19.0</ns3:atemp>
            <ns3:hr>144</ns3:hr>
          </ns3:TrackPointExtension>
        </extensions>
      </trkpt>
      <trkpt lat="-22.11294718086719512939453125" lon="166.45905487239360809326171875">
        <ele>377.399993896484375</ele>
        <time>2016-08-12T18:04:06.000Z</time>
        <extensions>
          <ns3:TrackPointExtension>
            <ns3:atemp>19.0</ns3:atemp>
            <ns3:hr>144</ns3:hr>
          </ns3:TrackPointExtension>
        </extensions>
      </trkpt>
      <trkpt lat="-22.11294625885784626007080078125" lon="166.4590352587401866912841796875">
        <ele>377.600006103515625</ele>
        <time>2016-08-12T18:04:07.000Z</time>
        <extensions>
          <ns3:TrackPointExtension>
            <ns3:atemp>19.0</ns3:atemp>
            <ns3:hr>144</ns3:hr>
          </ns3:TrackPointExtension>
        </extensions>
      </trkpt>
      <trkpt lat="-22.1129483543336391448974609375" lon="166.4590151421725749969482421875">
        <ele>377.600006103515625</ele>
        <time>2016-08-12T18:04:08.000Z</time>
        <extensions>
          <ns3:TrackPointExtension>
            <ns3:atemp>19.0</ns3:atemp>
            <ns3:hr>144</ns3:hr>
          </ns3:TrackPointExtension>
        </extensions>
      </trkpt>
      <trkpt lat="-22.11295447312295436859130859375" lon="166.45899125374853610992431640625">
        <ele>378</ele>
        <time>2016-08-12T18:04:09.000Z</time>
        <extensions>
          <ns3:TrackPointExtension>
            <ns3:atemp>19.0</ns3:atemp>
            <ns3:hr>144</ns3:hr>
          </ns3:TrackPointExtension>
        </extensions>
      </trkpt>
      <trkpt lat="-22.11295715533196926116943359375" lon="166.45896770060062408447265625">
        <ele>378.20001220703125</ele>
        <time>2016-08-12T18:04:10.000Z</time>
        <extensions>
          <ns3:TrackPointExtension>
            <ns3:atemp>19.0</ns3:atemp>
            <ns3:hr>144</ns3:hr>
          </ns3:TrackPointExtension>
        </extensions>
      </trkpt>
      <trkpt lat="-22.1129553951323032379150390625" lon="166.4589487574994564056396484375">
        <ele>378.20001220703125</ele>
        <time>2016-08-12T18:04:11.000Z</time>
        <extensions>
          <ns3:TrackPointExtension>
            <ns3:atemp>19.0</ns3:atemp>
            <ns3:hr>144</ns3:hr>
          </ns3:TrackPointExtension>
        </extensions>
      </trkpt>
      <trkpt lat="-22.1129564009606838226318359375" lon="166.45893006585538387298583984375">
        <ele>378.399993896484375</ele>
        <time>2016-08-12T18:04:12.000Z</time>
        <extensions>
          <ns3:TrackPointExtension>
            <ns3:atemp>19.0</ns3:atemp>
            <ns3:hr>144</ns3:hr>
          </ns3:TrackPointExtension>
        </extensions>
      </trkpt>
      <trkpt lat="-22.112964950501918792724609375" lon="166.45891112275421619415283203125">
        <ele>378.399993896484375</ele>
        <time>2016-08-12T18:04:13.000Z</time>
        <extensions>
          <ns3:TrackPointExtension>
            <ns3:atemp>19.0</ns3:atemp>
            <ns3:hr>144</ns3:hr>
          </ns3:TrackPointExtension>
        </extensions>
      </trkpt>
      <trkpt lat="-22.1129678003489971160888671875" lon="166.45889570005238056182861328125">
        <ele>378.600006103515625</ele>
        <time>2016-08-12T18:04:14.000Z</time>
        <extensions>
          <ns3:TrackPointExtension>
            <ns3:atemp>19.0</ns3:atemp>
            <ns3:hr>143</ns3:hr>
          </ns3:TrackPointExtension>
        </extensions>
      </trkpt>
      <trkpt lat="-22.112970314919948577880859375" lon="166.45887784659862518310546875">
        <ele>378.79998779296875</ele>
        <time>2016-08-12T18:04:15.000Z</time>
        <extensions>
          <ns3:TrackPointExtension>
            <ns3:atemp>19.0</ns3:atemp>
            <ns3:hr>143</ns3:hr>
          </ns3:TrackPointExtension>
        </extensions>
      </trkpt>
      <trkpt lat="-22.11297609843313694000244140625" lon="166.4588562212884426116943359375">
        <ele>379</ele>
        <time>2016-08-12T18:04:16.000Z</time>
        <extensions>
          <ns3:TrackPointExtension>
            <ns3:atemp>19.0</ns3:atemp>
            <ns3:hr>143</ns3:hr>
          </ns3:TrackPointExtension>
        </extensions>
      </trkpt>
      <trkpt lat="-22.11297911591827869415283203125" lon="166.4588367752730846405029296875">
        <ele>379.20001220703125</ele>
        <time>2016-08-12T18:04:17.000Z</time>
        <extensions>
          <ns3:TrackPointExtension>
            <ns3:atemp>19.0</ns3:atemp>
            <ns3:hr>143</ns3:hr>
          </ns3:TrackPointExtension>
        </extensions>
      </trkpt>
      <trkpt lat="-22.11298196576535701751708984375" lon="166.45881892181932926177978515625">
        <ele>379.399993896484375</ele>
        <time>2016-08-12T18:04:18.000Z</time>
        <extensions>
          <ns3:TrackPointExtension>
            <ns3:atemp>19.0</ns3:atemp>
            <ns3:hr>143</ns3:hr>
          </ns3:TrackPointExtension>
        </extensions>
      </trkpt>
      <trkpt lat="-22.11299554444849491119384765625" lon="166.45879595540463924407958984375">
        <ele>379.399993896484375</ele>
        <time>2016-08-12T18:04:19.000Z</time>
        <extensions>
          <ns3:TrackPointExtension>
            <ns3:atemp>19.0</ns3:atemp>
            <ns3:hr>143</ns3:hr>
          </ns3:TrackPointExtension>
        </extensions>
      </trkpt>
      <trkpt lat="-22.11300023831427097320556640625" lon="166.458778269588947296142578125">
        <ele>379.79998779296875</ele>
        <time>2016-08-12T18:04:20.000Z</time>
        <extensions>
          <ns3:TrackPointExtension>
            <ns3:atemp>19.0</ns3:atemp>
            <ns3:hr>143</ns3:hr>
          </ns3:TrackPointExtension>
        </extensions>
      </trkpt>
      <trkpt lat="-22.11300409398972988128662109375" lon="166.4587604999542236328125">
        <ele>379.79998779296875</ele>
        <time>2016-08-12T18:04:21.000Z</time>
        <extensions>
          <ns3:TrackPointExtension>
            <ns3:atemp>19.0</ns3:atemp>
            <ns3:hr>143</ns3:hr>
          </ns3:TrackPointExtension>
        </extensions>
      </trkpt>
      <trkpt lat="-22.1130080334842205047607421875" lon="166.45873971283435821533203125">
        <ele>380</ele>
        <time>2016-08-12T18:04:22.000Z</time>
        <extensions>
          <ns3:TrackPointExtension>
            <ns3:atemp>19.0</ns3:atemp>
            <ns3:hr>143</ns3:hr>
          </ns3:TrackPointExtension>
        </extensions>
      </trkpt>
      <trkpt lat="-22.113010548055171966552734375" lon="166.45872169174253940582275390625">
        <ele>380.399993896484375</ele>
        <time>2016-08-12T18:04:23.000Z</time>
        <extensions>
          <ns3:TrackPointExtension>
            <ns3:atemp>19.0</ns3:atemp>
            <ns3:hr>144</ns3:hr>
          </ns3:TrackPointExtension>
        </extensions>
      </trkpt>
      <trkpt lat="-22.113010548055171966552734375" lon="166.45870358683168888092041015625">
        <ele>380.399993896484375</ele>
        <time>2016-08-12T18:04:24.000Z</time>
        <extensions>
          <ns3:TrackPointExtension>
            <ns3:atemp>19.0</ns3:atemp>
            <ns3:hr>143</ns3:hr>
          </ns3:TrackPointExtension>
        </extensions>
      </trkpt>
      <trkpt lat="-22.1130127273499965667724609375" lon="166.45868078805506229400634765625">
        <ele>380.79998779296875</ele>
        <time>2016-08-12T18:04:25.000Z</time>
        <extensions>
          <ns3:TrackPointExtension>
            <ns3:atemp>19.0</ns3:atemp>
            <ns3:hr>143</ns3:hr>
          </ns3:TrackPointExtension>
        </extensions>
      </trkpt>
      <trkpt lat="-22.11301289498805999755859375" lon="166.45866167731583118438720703125">
        <ele>381</ele>
        <time>2016-08-12T18:04:26.000Z</time>
        <extensions>
          <ns3:TrackPointExtension>
            <ns3:atemp>19.0</ns3:atemp>
            <ns3:hr>144</ns3:hr>
          </ns3:TrackPointExtension>
        </extensions>
      </trkpt>
      <trkpt lat="-22.1130147390067577362060546875" lon="166.4586436562240123748779296875">
        <ele>381.20001220703125</ele>
        <time>2016-08-12T18:04:27.000Z</time>
        <extensions>
          <ns3:TrackPointExtension>
            <ns3:atemp>19.0</ns3:atemp>
            <ns3:hr>143</ns3:hr>
          </ns3:TrackPointExtension>
        </extensions>
      </trkpt>
      <trkpt lat="-22.11301716975867748260498046875" lon="166.45862102508544921875">
        <ele>381.399993896484375</ele>
        <time>2016-08-12T18:04:28.000Z</time>
        <extensions>
          <ns3:TrackPointExtension>
            <ns3:atemp>19.0</ns3:atemp>
            <ns3:hr>143</ns3:hr>
          </ns3:TrackPointExtension>
        </extensions>
      </trkpt>
      <trkpt lat="-22.11302136071026325225830078125" lon="166.45860166288912296295166015625">
        <ele>381.600006103515625</ele>
        <time>2016-08-12T18:04:29.000Z</time>
        <extensions>
          <ns3:TrackPointExtension>
            <ns3:atemp>19.0</ns3:atemp>
            <ns3:hr>143</ns3:hr>
          </ns3:TrackPointExtension>
        </extensions>
      </trkpt>
      <trkpt lat="-22.11302387528121471405029296875" lon="166.45858489908277988433837890625">
        <ele>381.600006103515625</ele>
        <time>2016-08-12T18:04:30.000Z</time>
        <extensions>
          <ns3:TrackPointExtension>
            <ns3:atemp>19.0</ns3:atemp>
            <ns3:hr>143</ns3:hr>
          </ns3:TrackPointExtension>
        </extensions>
      </trkpt>
      <trkpt lat="-22.11302907206118106842041015625" lon="166.4585645310580730438232421875">
        <ele>382</ele>
        <time>2016-08-12T18:04:31.000Z</time>
        <extensions>
          <ns3:TrackPointExtension>
            <ns3:atemp>19.0</ns3:atemp>
            <ns3:hr>143</ns3:hr>
          </ns3:TrackPointExtension>
        </extensions>
      </trkpt>
      <trkpt lat="-22.11303644813597202301025390625" lon="166.45854416303336620330810546875">
        <ele>382.20001220703125</ele>
        <time>2016-08-12T18:04:32.000Z</time>
        <extensions>
          <ns3:TrackPointExtension>
            <ns3:atemp>19.0</ns3:atemp>
            <ns3:hr>143</ns3:hr>
          </ns3:TrackPointExtension>
        </extensions>
      </trkpt>
      <trkpt lat="-22.113040387630462646484375" lon="166.45852454937994480133056640625">
        <ele>382.20001220703125</ele>
        <time>2016-08-12T18:04:33.000Z</time>
        <extensions>
          <ns3:TrackPointExtension>
            <ns3:atemp>19.0</ns3:atemp>
            <ns3:hr>143</ns3:hr>
          </ns3:TrackPointExtension>
        </extensions>
      </trkpt>
      <trkpt lat="-22.113053463399410247802734375" lon="166.45850024186074733734130859375">
        <ele>382.600006103515625</ele>
        <time>2016-08-12T18:04:34.000Z</time>
        <extensions>
          <ns3:TrackPointExtension>
            <ns3:atemp>19.0</ns3:atemp>
            <ns3:hr>143</ns3:hr>
          </ns3:TrackPointExtension>
        </extensions>
      </trkpt>
      <trkpt lat="-22.11305991746485233306884765625" lon="166.45847911946475505828857421875">
        <ele>382.79998779296875</ele>
        <time>2016-08-12T18:04:35.000Z</time>
        <extensions>
          <ns3:TrackPointExtension>
            <ns3:atemp>19.0</ns3:atemp>
            <ns3:hr>144</ns3:hr>
          </ns3:TrackPointExtension>
        </extensions>
      </trkpt>
      <trkpt lat="-22.11305958218872547149658203125" lon="166.4584548957645893096923828125">
        <ele>382.79998779296875</ele>
        <time>2016-08-12T18:04:36.000Z</time>
        <extensions>
          <ns3:TrackPointExtension>
            <ns3:atemp>19.0</ns3:atemp>
            <ns3:hr>144</ns3:hr>
          </ns3:TrackPointExtension>
        </extensions>
      </trkpt>
      <trkpt lat="-22.11306092329323291778564453125" lon="166.458430252969264984130859375">
        <ele>383</ele>
        <time>2016-08-12T18:04:37.000Z</time>
        <extensions>
          <ns3:TrackPointExtension>
            <ns3:atemp>19.0</ns3:atemp>
            <ns3:hr>144</ns3:hr>
          </ns3:TrackPointExtension>
        </extensions>
      </trkpt>
      <trkpt lat="-22.11306008510291576385498046875" lon="166.45841172896325588226318359375">
        <ele>383.20001220703125</ele>
        <time>2016-08-12T18:04:38.000Z</time>
        <extensions>
          <ns3:TrackPointExtension>
            <ns3:atemp>19.0</ns3:atemp>
            <ns3:hr>144</ns3:hr>
          </ns3:TrackPointExtension>
        </extensions>
      </trkpt>
      <trkpt lat="-22.1130579896271228790283203125" lon="166.4583901874721050262451171875">
        <ele>383.20001220703125</ele>
        <time>2016-08-12T18:04:39.000Z</time>
        <extensions>
          <ns3:TrackPointExtension>
            <ns3:atemp>19.0</ns3:atemp>
            <ns3:hr>144</ns3:hr>
          </ns3:TrackPointExtension>
        </extensions>
      </trkpt>
      <trkpt lat="-22.113054804503917694091796875" lon="166.45836629904806613922119140625">
        <ele>383.399993896484375</ele>
        <time>2016-08-12T18:04:40.000Z</time>
        <extensions>
          <ns3:TrackPointExtension>
            <ns3:atemp>19.0</ns3:atemp>
            <ns3:hr>144</ns3:hr>
          </ns3:TrackPointExtension>
        </extensions>
      </trkpt>
      <trkpt lat="-22.1130539663136005401611328125" lon="166.45834567956626415252685546875">
        <ele>383.600006103515625</ele>
        <time>2016-08-12T18:04:41.000Z</time>
        <extensions>
          <ns3:TrackPointExtension>
            <ns3:atemp>19.0</ns3:atemp>
            <ns3:hr>144</ns3:hr>
          </ns3:TrackPointExtension>
        </extensions>
      </trkpt>
      <trkpt lat="-22.1130497753620147705078125" lon="166.458326317369937896728515625">
        <ele>383.600006103515625</ele>
        <time>2016-08-12T18:04:42.000Z</time>
        <extensions>
          <ns3:TrackPointExtension>
            <ns3:atemp>19.0</ns3:atemp>
            <ns3:hr>144</ns3:hr>
          </ns3:TrackPointExtension>
        </extensions>
      </trkpt>
      <trkpt lat="-22.11304348893463611602783203125" lon="166.4583060331642627716064453125">
        <ele>384</ele>
        <time>2016-08-12T18:04:43.000Z</time>
        <extensions>
          <ns3:TrackPointExtension>
            <ns3:atemp>19.0</ns3:atemp>
            <ns3:hr>145</ns3:hr>
          </ns3:TrackPointExtension>
        </extensions>
      </trkpt>
      <trkpt lat="-22.11303426884114742279052734375" lon="166.45829019136726856231689453125">
        <ele>384.20001220703125</ele>
        <time>2016-08-12T18:04:44.000Z</time>
        <extensions>
          <ns3:TrackPointExtension>
            <ns3:atemp>19.0</ns3:atemp>
            <ns3:hr>145</ns3:hr>
          </ns3:TrackPointExtension>
        </extensions>
      </trkpt>
      <trkpt lat="-22.11302404291927814483642578125" lon="166.458272673189640045166015625">
        <ele>384.20001220703125</ele>
        <time>2016-08-12T18:04:45.000Z</time>
        <extensions>
          <ns3:TrackPointExtension>
            <ns3:atemp>19.0</ns3:atemp>
            <ns3:hr>145</ns3:hr>
          </ns3:TrackPointExtension>
        </extensions>
      </trkpt>
      <trkpt lat="-22.113011889159679412841796875" lon="166.4582554064691066741943359375">
        <ele>384.399993896484375</ele>
        <time>2016-08-12T18:04:46.000Z</time>
        <extensions>
          <ns3:TrackPointExtension>
            <ns3:atemp>19.0</ns3:atemp>
            <ns3:hr>145</ns3:hr>
          </ns3:TrackPointExtension>
        </extensions>
      </trkpt>
      <trkpt lat="-22.11300040595233440399169921875" lon="166.45824015140533447265625">
        <ele>384.399993896484375</ele>
        <time>2016-08-12T18:04:47.000Z</time>
        <extensions>
          <ns3:TrackPointExtension>
            <ns3:atemp>19.0</ns3:atemp>
            <ns3:hr>145</ns3:hr>
          </ns3:TrackPointExtension>
        </extensions>
      </trkpt>
      <trkpt lat="-22.112985737621784210205078125" lon="166.45822145976126194000244140625">
        <ele>384.600006103515625</ele>
        <time>2016-08-12T18:04:48.000Z</time>
        <extensions>
          <ns3:TrackPointExtension>
            <ns3:atemp>19.0</ns3:atemp>
            <ns3:hr>145</ns3:hr>
          </ns3:TrackPointExtension>
        </extensions>
      </trkpt>
      <trkpt lat="-22.11296771652996540069580078125" lon="166.45820352248847484588623046875">
        <ele>385</ele>
        <time>2016-08-12T18:04:49.000Z</time>
        <extensions>
          <ns3:TrackPointExtension>
            <ns3:atemp>19.0</ns3:atemp>
            <ns3:hr>146</ns3:hr>
          </ns3:TrackPointExtension>
        </extensions>
      </trkpt>
      <trkpt lat="-22.1129532158374786376953125" lon="166.458184830844402313232421875">
        <ele>385</ele>
        <time>2016-08-12T18:04:50.000Z</time>
        <extensions>
          <ns3:TrackPointExtension>
            <ns3:atemp>19.0</ns3:atemp>
            <ns3:hr>145</ns3:hr>
          </ns3:TrackPointExtension>
        </extensions>
      </trkpt>
      <trkpt lat="-22.1129393018782138824462890625" lon="166.45816781558096408843994140625">
        <ele>385.399993896484375</ele>
        <time>2016-08-12T18:04:51.000Z</time>
        <extensions>
          <ns3:TrackPointExtension>
            <ns3:atemp>19.0</ns3:atemp>
            <ns3:hr>146</ns3:hr>
          </ns3:TrackPointExtension>
        </extensions>
      </trkpt>
      <trkpt lat="-22.11292781867086887359619140625" lon="166.458150632679462432861328125">
        <ele>385.600006103515625</ele>
        <time>2016-08-12T18:04:52.000Z</time>
        <extensions>
          <ns3:TrackPointExtension>
            <ns3:atemp>19.0</ns3:atemp>
            <ns3:hr>146</ns3:hr>
          </ns3:TrackPointExtension>
        </extensions>
      </trkpt>
      <trkpt lat="-22.1129222027957439422607421875" lon="166.45813261158764362335205078125">
        <ele>385.600006103515625</ele>
        <time>2016-08-12T18:04:53.000Z</time>
        <extensions>
          <ns3:TrackPointExtension>
            <ns3:atemp>19.0</ns3:atemp>
            <ns3:hr>146</ns3:hr>
          </ns3:TrackPointExtension>
        </extensions>
      </trkpt>
      <trkpt lat="-22.1129156649112701416015625" lon="166.45811249502003192901611328125">
        <ele>386</ele>
        <time>2016-08-12T18:04:54.000Z</time>
        <extensions>
          <ns3:TrackPointExtension>
            <ns3:atemp>19.0</ns3:atemp>
            <ns3:hr>147</ns3:hr>
          </ns3:TrackPointExtension>
        </extensions>
      </trkpt>
      <trkpt lat="-22.1129037626087665557861328125" lon="166.45809506066143512725830078125">
        <ele>386.20001220703125</ele>
        <time>2016-08-12T18:04:55.000Z</time>
        <extensions>
          <ns3:TrackPointExtension>
            <ns3:atemp>19.0</ns3:atemp>
            <ns3:hr>146</ns3:hr>
          </ns3:TrackPointExtension>
        </extensions>
      </trkpt>
      <trkpt lat="-22.112892530858516693115234375" lon="166.458076536655426025390625">
        <ele>386.399993896484375</ele>
        <time>2016-08-12T18:04:56.000Z</time>
        <extensions>
          <ns3:TrackPointExtension>
            <ns3:atemp>19.0</ns3:atemp>
            <ns3:hr>147</ns3:hr>
          </ns3:TrackPointExtension>
        </extensions>
      </trkpt>
      <trkpt lat="-22.1128833107650279998779296875" lon="166.4580555818974971771240234375">
        <ele>386.600006103515625</ele>
        <time>2016-08-12T18:04:57.000Z</time>
        <extensions>
          <ns3:TrackPointExtension>
            <ns3:atemp>19.0</ns3:atemp>
            <ns3:hr>147</ns3:hr>
          </ns3:TrackPointExtension>
        </extensions>
      </trkpt>
      <trkpt lat="-22.1128745935857295989990234375" lon="166.4580371417105197906494140625">
        <ele>387</ele>
        <time>2016-08-12T18:04:58.000Z</time>
        <extensions>
          <ns3:TrackPointExtension>
            <ns3:atemp>19.0</ns3:atemp>
            <ns3:hr>148</ns3:hr>
          </ns3:TrackPointExtension>
        </extensions>
      </trkpt>
      <trkpt lat="-22.11287132464349269866943359375" lon="166.4580166898667812347412109375">
        <ele>387</ele>
        <time>2016-08-12T18:04:59.000Z</time>
        <extensions>
          <ns3:TrackPointExtension>
            <ns3:atemp>19.0</ns3:atemp>
            <ns3:hr>147</ns3:hr>
          </ns3:TrackPointExtension>
        </extensions>
      </trkpt>
      <trkpt lat="-22.11286160163581371307373046875" lon="166.45799699239432811737060546875">
        <ele>387.20001220703125</ele>
        <time>2016-08-12T18:05:00.000Z</time>
        <extensions>
          <ns3:TrackPointExtension>
            <ns3:atemp>19.0</ns3:atemp>
            <ns3:hr>147</ns3:hr>
          </ns3:TrackPointExtension>
        </extensions>
      </trkpt>
      <trkpt lat="-22.1128524653613567352294921875" lon="166.45797737874090671539306640625">
        <ele>387.20001220703125</ele>
        <time>2016-08-12T18:05:01.000Z</time>
        <extensions>
          <ns3:TrackPointExtension>
            <ns3:atemp>19.0</ns3:atemp>
            <ns3:hr>148</ns3:hr>
          </ns3:TrackPointExtension>
        </extensions>
      </trkpt>
      <trkpt lat="-22.112839221954345703125" lon="166.4579627104103565216064453125">
        <ele>387.399993896484375</ele>
        <time>2016-08-12T18:05:02.000Z</time>
        <extensions>
          <ns3:TrackPointExtension>
            <ns3:atemp>19.0</ns3:atemp>
            <ns3:hr>148</ns3:hr>
          </ns3:TrackPointExtension>
        </extensions>
      </trkpt>
      <trkpt lat="-22.1128226257860660552978515625" lon="166.45794603042304515838623046875">
        <ele>387.600006103515625</ele>
        <time>2016-08-12T18:05:03.000Z</time>
        <extensions>
          <ns3:TrackPointExtension>
            <ns3:atemp>19.0</ns3:atemp>
            <ns3:hr>147</ns3:hr>
          </ns3:TrackPointExtension>
        </extensions>
      </trkpt>
      <trkpt lat="-22.11280996911227703094482421875" lon="166.4579303562641143798828125">
        <ele>387.79998779296875</ele>
        <time>2016-08-12T18:05:04.000Z</time>
        <extensions>
          <ns3:TrackPointExtension>
            <ns3:atemp>19.0</ns3:atemp>
            <ns3:hr>147</ns3:hr>
          </ns3:TrackPointExtension>
        </extensions>
      </trkpt>
      <trkpt lat="-22.1128018386662006378173828125" lon="166.4579154364764690399169921875">
        <ele>388</ele>
        <time>2016-08-12T18:05:05.000Z</time>
        <extensions>
          <ns3:TrackPointExtension>
            <ns3:atemp>19.0</ns3:atemp>
            <ns3:hr>147</ns3:hr>
          </ns3:TrackPointExtension>
        </extensions>
      </trkpt>
      <trkpt lat="-22.11279504932463169097900390625" lon="166.45789791829884052276611328125">
        <ele>388.399993896484375</ele>
        <time>2016-08-12T18:05:06.000Z</time>
        <extensions>
          <ns3:TrackPointExtension>
            <ns3:atemp>19.0</ns3:atemp>
            <ns3:hr>148</ns3:hr>
          </ns3:TrackPointExtension>
        </extensions>
      </trkpt>
      <trkpt lat="-22.1127854101359844207763671875" lon="166.457880400121212005615234375">
        <ele>388.399993896484375</ele>
        <time>2016-08-12T18:05:07.000Z</time>
        <extensions>
          <ns3:TrackPointExtension>
            <ns3:atemp>19.0</ns3:atemp>
            <ns3:hr>148</ns3:hr>
          </ns3:TrackPointExtension>
        </extensions>
      </trkpt>
      <trkpt lat="-22.11277878843247890472412109375" lon="166.457862965762615203857421875">
        <ele>388.600006103515625</ele>
        <time>2016-08-12T18:05:08.000Z</time>
        <extensions>
          <ns3:TrackPointExtension>
            <ns3:atemp>19.0</ns3:atemp>
            <ns3:hr>147</ns3:hr>
          </ns3:TrackPointExtension>
        </extensions>
      </trkpt>
      <trkpt lat="-22.112773843109607696533203125" lon="166.45784519612789154052734375">
        <ele>389</ele>
        <time>2016-08-12T18:05:09.000Z</time>
        <extensions>
          <ns3:TrackPointExtension>
            <ns3:atemp>19.0</ns3:atemp>
            <ns3:hr>147</ns3:hr>
          </ns3:TrackPointExtension>
        </extensions>
      </trkpt>
      <trkpt lat="-22.11276755668222904205322265625" lon="166.457828767597675323486328125">
        <ele>389.20001220703125</ele>
        <time>2016-08-12T18:05:10.000Z</time>
        <extensions>
          <ns3:TrackPointExtension>
            <ns3:atemp>19.0</ns3:atemp>
            <ns3:hr>147</ns3:hr>
          </ns3:TrackPointExtension>
        </extensions>
      </trkpt>
      <trkpt lat="-22.11276571266353130340576171875" lon="166.45781644620001316070556640625">
        <ele>389.399993896484375</ele>
        <time>2016-08-12T18:05:11.000Z</time>
        <extensions>
          <ns3:TrackPointExtension>
            <ns3:atemp>19.0</ns3:atemp>
            <ns3:hr>147</ns3:hr>
          </ns3:TrackPointExtension>
        </extensions>
      </trkpt>
      <trkpt lat="-22.11276873014867305755615234375" lon="166.4578014425933361053466796875">
        <ele>390</ele>
        <time>2016-08-12T18:05:12.000Z</time>
        <extensions>
          <ns3:TrackPointExtension>
            <ns3:atemp>19.0</ns3:atemp>
            <ns3:hr>147</ns3:hr>
          </ns3:TrackPointExtension>
        </extensions>
      </trkpt>
      <trkpt lat="-22.1127735078334808349609375" lon="166.457783170044422149658203125">
        <ele>390</ele>
        <time>2016-08-12T18:05:13.000Z</time>
        <extensions>
          <ns3:TrackPointExtension>
            <ns3:atemp>19.0</ns3:atemp>
            <ns3:hr>146</ns3:hr>
          </ns3:TrackPointExtension>
        </extensions>
      </trkpt>
      <trkpt lat="-22.11277493275701999664306640625" lon="166.45776598714292049407958984375">
        <ele>390</ele>
        <time>2016-08-12T18:05:14.000Z</time>
        <extensions>
          <ns3:TrackPointExtension>
            <ns3:atemp>19.0</ns3:atemp>
            <ns3:hr>146</ns3:hr>
          </ns3:TrackPointExtension>
        </extensions>
      </trkpt>
      <trkpt lat="-22.11278029717504978179931640625" lon="166.45774855278432369232177734375">
        <ele>389.79998779296875</ele>
        <time>2016-08-12T18:05:15.000Z</time>
        <extensions>
          <ns3:TrackPointExtension>
            <ns3:atemp>19.0</ns3:atemp>
            <ns3:hr>146</ns3:hr>
          </ns3:TrackPointExtension>
        </extensions>
      </trkpt>
      <trkpt lat="-22.11278683505952358245849609375" lon="166.4577320404350757598876953125">
        <ele>390</ele>
        <time>2016-08-12T18:05:16.000Z</time>
        <extensions>
          <ns3:TrackPointExtension>
            <ns3:atemp>19.0</ns3:atemp>
            <ns3:hr>147</ns3:hr>
          </ns3:TrackPointExtension>
        </extensions>
      </trkpt>
      <trkpt lat="-22.11279102601110935211181640625" lon="166.45771418698132038116455078125">
        <ele>390.20001220703125</ele>
        <time>2016-08-12T18:05:17.000Z</time>
        <extensions>
          <ns3:TrackPointExtension>
            <ns3:atemp>19.0</ns3:atemp>
            <ns3:hr>146</ns3:hr>
          </ns3:TrackPointExtension>
        </extensions>
      </trkpt>
      <trkpt lat="-22.112794630229473114013671875" lon="166.4576961658895015716552734375">
        <ele>390.20001220703125</ele>
        <time>2016-08-12T18:05:18.000Z</time>
        <extensions>
          <ns3:TrackPointExtension>
            <ns3:atemp>19.0</ns3:atemp>
            <ns3:hr>146</ns3:hr>
          </ns3:TrackPointExtension>
        </extensions>
      </trkpt>
      <trkpt lat="-22.1127991564571857452392578125" lon="166.457679904997348785400390625">
        <ele>390.600006103515625</ele>
        <time>2016-08-12T18:05:19.000Z</time>
        <extensions>
          <ns3:TrackPointExtension>
            <ns3:atemp>19.0</ns3:atemp>
            <ns3:hr>146</ns3:hr>
          </ns3:TrackPointExtension>
        </extensions>
      </trkpt>
      <trkpt lat="-22.1128018386662006378173828125" lon="166.45766439847648143768310546875">
        <ele>390.79998779296875</ele>
        <time>2016-08-12T18:05:20.000Z</time>
        <extensions>
          <ns3:TrackPointExtension>
            <ns3:atemp>19.0</ns3:atemp>
            <ns3:hr>146</ns3:hr>
          </ns3:TrackPointExtension>
        </extensions>
      </trkpt>
      <trkpt lat="-22.11279404349625110626220703125" lon="166.45764981396496295928955078125">
        <ele>390.79998779296875</ele>
        <time>2016-08-12T18:05:21.000Z</time>
        <extensions>
          <ns3:TrackPointExtension>
            <ns3:atemp>19.0</ns3:atemp>
            <ns3:hr>146</ns3:hr>
          </ns3:TrackPointExtension>
        </extensions>
      </trkpt>
      <trkpt lat="-22.11279689334332942962646484375" lon="166.45763254724442958831787109375">
        <ele>390.79998779296875</ele>
        <time>2016-08-12T18:05:22.000Z</time>
        <extensions>
          <ns3:TrackPointExtension>
            <ns3:atemp>19.0</ns3:atemp>
            <ns3:hr>146</ns3:hr>
          </ns3:TrackPointExtension>
        </extensions>
      </trkpt>
      <trkpt lat="-22.11280410178005695343017578125" lon="166.457616202533245086669921875">
        <ele>390.79998779296875</ele>
        <time>2016-08-12T18:05:23.000Z</time>
        <extensions>
          <ns3:TrackPointExtension>
            <ns3:atemp>19.0</ns3:atemp>
            <ns3:hr>146</ns3:hr>
          </ns3:TrackPointExtension>
        </extensions>
      </trkpt>
      <trkpt lat="-22.11281717754900455474853515625" lon="166.457593403756618499755859375">
        <ele>391.20001220703125</ele>
        <time>2016-08-12T18:05:24.000Z</time>
        <extensions>
          <ns3:TrackPointExtension>
            <ns3:atemp>19.0</ns3:atemp>
            <ns3:hr>146</ns3:hr>
          </ns3:TrackPointExtension>
        </extensions>
      </trkpt>
      <trkpt lat="-22.11282505653798580169677734375" lon="166.4575747959315776824951171875">
        <ele>391.399993896484375</ele>
        <time>2016-08-12T18:05:25.000Z</time>
        <extensions>
          <ns3:TrackPointExtension>
            <ns3:atemp>19.0</ns3:atemp>
            <ns3:hr>146</ns3:hr>
          </ns3:TrackPointExtension>
        </extensions>
      </trkpt>
      <trkpt lat="-22.11283260025084018707275390625" lon="166.45755995996296405792236328125">
        <ele>391.600006103515625</ele>
        <time>2016-08-12T18:05:26.000Z</time>
        <extensions>
          <ns3:TrackPointExtension>
            <ns3:atemp>19.0</ns3:atemp>
            <ns3:hr>145</ns3:hr>
          </ns3:TrackPointExtension>
        </extensions>
      </trkpt>
      <trkpt lat="-22.1128400601446628570556640625" lon="166.457541100680828094482421875">
        <ele>391.79998779296875</ele>
        <time>2016-08-12T18:05:27.000Z</time>
        <extensions>
          <ns3:TrackPointExtension>
            <ns3:atemp>19.0</ns3:atemp>
            <ns3:hr>145</ns3:hr>
          </ns3:TrackPointExtension>
        </extensions>
      </trkpt>
      <trkpt lat="-22.1128481067717075347900390625" lon="166.45752240903675556182861328125">
        <ele>392.20001220703125</ele>
        <time>2016-08-12T18:05:28.000Z</time>
        <extensions>
          <ns3:TrackPointExtension>
            <ns3:atemp>19.0</ns3:atemp>
            <ns3:hr>145</ns3:hr>
          </ns3:TrackPointExtension>
        </extensions>
      </trkpt>
      <trkpt lat="-22.11285489611327648162841796875" lon="166.457502208650112152099609375">
        <ele>392.399993896484375</ele>
        <time>2016-08-12T18:05:29.000Z</time>
        <extensions>
          <ns3:TrackPointExtension>
            <ns3:atemp>19.0</ns3:atemp>
            <ns3:hr>145</ns3:hr>
          </ns3:TrackPointExtension>
        </extensions>
      </trkpt>
      <trkpt lat="-22.11285908706486225128173828125" lon="166.45748066715896129608154296875">
        <ele>392.399993896484375</ele>
        <time>2016-08-12T18:05:30.000Z</time>
        <extensions>
          <ns3:TrackPointExtension>
            <ns3:atemp>19.0</ns3:atemp>
            <ns3:hr>145</ns3:hr>
          </ns3:TrackPointExtension>
        </extensions>
      </trkpt>
      <trkpt lat="-22.11286495439708232879638671875" lon="166.45746055059134960174560546875">
        <ele>392.600006103515625</ele>
        <time>2016-08-12T18:05:31.000Z</time>
        <extensions>
          <ns3:TrackPointExtension>
            <ns3:atemp>19.0</ns3:atemp>
            <ns3:hr>145</ns3:hr>
          </ns3:TrackPointExtension>
        </extensions>
      </trkpt>
      <trkpt lat="-22.112873755395412445068359375" lon="166.457441188395023345947265625">
        <ele>392.79998779296875</ele>
        <time>2016-08-12T18:05:32.000Z</time>
        <extensions>
          <ns3:TrackPointExtension>
            <ns3:atemp>19.0</ns3:atemp>
            <ns3:hr>145</ns3:hr>
          </ns3:TrackPointExtension>
        </extensions>
      </trkpt>
      <trkpt lat="-22.11288289166986942291259765625" lon="166.45742031745612621307373046875">
        <ele>392.79998779296875</ele>
        <time>2016-08-12T18:05:33.000Z</time>
        <extensions>
          <ns3:TrackPointExtension>
            <ns3:atemp>19.0</ns3:atemp>
            <ns3:hr>145</ns3:hr>
          </ns3:TrackPointExtension>
        </extensions>
      </trkpt>
      <trkpt lat="-22.11288817226886749267578125" lon="166.4573984406888484954833984375">
        <ele>393.20001220703125</ele>
        <time>2016-08-12T18:05:34.000Z</time>
        <extensions>
          <ns3:TrackPointExtension>
            <ns3:atemp>19.0</ns3:atemp>
            <ns3:hr>145</ns3:hr>
          </ns3:TrackPointExtension>
        </extensions>
      </trkpt>
      <trkpt lat="-22.11289647035300731658935546875" lon="166.4573729597032070159912109375">
        <ele>393.600006103515625</ele>
        <time>2016-08-12T18:05:35.000Z</time>
        <extensions>
          <ns3:TrackPointExtension>
            <ns3:atemp>19.0</ns3:atemp>
            <ns3:hr>146</ns3:hr>
          </ns3:TrackPointExtension>
        </extensions>
      </trkpt>
      <trkpt lat="-22.112906277179718017578125" lon="166.4573461376130580902099609375">
        <ele>393.399993896484375</ele>
        <time>2016-08-12T18:05:36.000Z</time>
        <extensions>
          <ns3:TrackPointExtension>
            <ns3:atemp>19.0</ns3:atemp>
            <ns3:hr>146</ns3:hr>
          </ns3:TrackPointExtension>
        </extensions>
      </trkpt>
      <trkpt lat="-22.1129087917506694793701171875" lon="166.457327865064144134521484375">
        <ele>393.600006103515625</ele>
        <time>2016-08-12T18:05:37.000Z</time>
        <extensions>
          <ns3:TrackPointExtension>
            <ns3:atemp>19.0</ns3:atemp>
            <ns3:hr>146</ns3:hr>
          </ns3:TrackPointExtension>
        </extensions>
      </trkpt>
      <trkpt lat="-22.11291558109223842620849609375" lon="166.45730607211589813232421875">
        <ele>393.79998779296875</ele>
        <time>2016-08-12T18:05:38.000Z</time>
        <extensions>
          <ns3:TrackPointExtension>
            <ns3:atemp>19.0</ns3:atemp>
            <ns3:hr>146</ns3:hr>
          </ns3:TrackPointExtension>
        </extensions>
      </trkpt>
      <trkpt lat="-22.11294173263013362884521484375" lon="166.4572522602975368499755859375">
        <ele>393.79998779296875</ele>
        <time>2016-08-12T18:05:41.000Z</time>
        <extensions>
          <ns3:TrackPointExtension>
            <ns3:atemp>19.0</ns3:atemp>
            <ns3:hr>146</ns3:hr>
          </ns3:TrackPointExtension>
        </extensions>
      </trkpt>
      <trkpt lat="-22.112949192523956298828125" lon="166.4572371728718280792236328125">
        <ele>394</ele>
        <time>2016-08-12T18:05:42.000Z</time>
        <extensions>
          <ns3:TrackPointExtension>
            <ns3:atemp>19.0</ns3:atemp>
            <ns3:hr>145</ns3:hr>
          </ns3:TrackPointExtension>
        </extensions>
      </trkpt>
      <trkpt lat="-22.1129580773413181304931640625" lon="166.4572220854461193084716796875">
        <ele>394</ele>
        <time>2016-08-12T18:05:43.000Z</time>
        <extensions>
          <ns3:TrackPointExtension>
            <ns3:atemp>19.0</ns3:atemp>
            <ns3:hr>146</ns3:hr>
          </ns3:TrackPointExtension>
        </extensions>
      </trkpt>
      <trkpt lat="-22.11296201683580875396728515625" lon="166.45720825530588626861572265625">
        <ele>394.399993896484375</ele>
        <time>2016-08-12T18:05:44.000Z</time>
        <extensions>
          <ns3:TrackPointExtension>
            <ns3:atemp>19.0</ns3:atemp>
            <ns3:hr>146</ns3:hr>
          </ns3:TrackPointExtension>
        </extensions>
      </trkpt>
      <trkpt lat="-22.11296863853931427001953125" lon="166.45719165913760662078857421875">
        <ele>395</ele>
        <time>2016-08-12T18:05:45.000Z</time>
        <extensions>
          <ns3:TrackPointExtension>
            <ns3:atemp>19.0</ns3:atemp>
            <ns3:hr>146</ns3:hr>
          </ns3:TrackPointExtension>
        </extensions>
      </trkpt>
      <trkpt lat="-22.11297576315701007843017578125" lon="166.4571768231689929962158203125">
        <ele>395.399993896484375</ele>
        <time>2016-08-12T18:05:46.000Z</time>
        <extensions>
          <ns3:TrackPointExtension>
            <ns3:atemp>19.0</ns3:atemp>
            <ns3:hr>146</ns3:hr>
          </ns3:TrackPointExtension>
        </extensions>
      </trkpt>
      <trkpt lat="-22.11298330686986446380615234375" lon="166.4571603946387767791748046875">
        <ele>395.399993896484375</ele>
        <time>2016-08-12T18:05:47.000Z</time>
        <extensions>
          <ns3:TrackPointExtension>
            <ns3:atemp>19.0</ns3:atemp>
            <ns3:hr>145</ns3:hr>
          </ns3:TrackPointExtension>
        </extensions>
      </trkpt>
      <trkpt lat="-22.11298967711627483367919921875" lon="166.457140780985355377197265625">
        <ele>396</ele>
        <time>2016-08-12T18:05:48.000Z</time>
        <extensions>
          <ns3:TrackPointExtension>
            <ns3:atemp>19.0</ns3:atemp>
            <ns3:hr>146</ns3:hr>
          </ns3:TrackPointExtension>
        </extensions>
      </trkpt>
      <trkpt lat="-22.11299604736268520355224609375" lon="166.45712326280772686004638671875">
        <ele>396.20001220703125</ele>
        <time>2016-08-12T18:05:49.000Z</time>
        <extensions>
          <ns3:TrackPointExtension>
            <ns3:atemp>19.0</ns3:atemp>
            <ns3:hr>146</ns3:hr>
          </ns3:TrackPointExtension>
        </extensions>
      </trkpt>
      <trkpt lat="-22.11299889720976352691650390625" lon="166.4571013860404491424560546875">
        <ele>396.20001220703125</ele>
        <time>2016-08-12T18:05:50.000Z</time>
        <extensions>
          <ns3:TrackPointExtension>
            <ns3:atemp>19.0</ns3:atemp>
            <ns3:hr>145</ns3:hr>
          </ns3:TrackPointExtension>
        </extensions>
      </trkpt>
      <trkpt lat="-22.1130033396184444427490234375" lon="166.457081101834774017333984375">
        <ele>396.20001220703125</ele>
        <time>2016-08-12T18:05:51.000Z</time>
        <extensions>
          <ns3:TrackPointExtension>
            <ns3:atemp>19.0</ns3:atemp>
            <ns3:hr>145</ns3:hr>
          </ns3:TrackPointExtension>
        </extensions>
      </trkpt>
      <trkpt lat="-22.1129999868571758270263671875" lon="166.4570628292858600616455078125">
        <ele>396.399993896484375</ele>
        <time>2016-08-12T18:05:52.000Z</time>
        <extensions>
          <ns3:TrackPointExtension>
            <ns3:atemp>19.0</ns3:atemp>
            <ns3:hr>146</ns3:hr>
          </ns3:TrackPointExtension>
        </extensions>
      </trkpt>
      <trkpt lat="-22.11298246867954730987548828125" lon="166.45704279653728008270263671875">
        <ele>396.600006103515625</ele>
        <time>2016-08-12T18:05:53.000Z</time>
        <extensions>
          <ns3:TrackPointExtension>
            <ns3:atemp>19.0</ns3:atemp>
            <ns3:hr>146</ns3:hr>
          </ns3:TrackPointExtension>
        </extensions>
      </trkpt>
      <trkpt lat="-22.112967967987060546875" lon="166.45702184177935123443603515625">
        <ele>396.600006103515625</ele>
        <time>2016-08-12T18:05:54.000Z</time>
        <extensions>
          <ns3:TrackPointExtension>
            <ns3:atemp>19.0</ns3:atemp>
            <ns3:hr>145</ns3:hr>
          </ns3:TrackPointExtension>
        </extensions>
      </trkpt>
      <trkpt lat="-22.11295950226485729217529296875" lon="166.45700071938335895538330078125">
        <ele>397</ele>
        <time>2016-08-12T18:05:55.000Z</time>
        <extensions>
          <ns3:TrackPointExtension>
            <ns3:atemp>19.0</ns3:atemp>
            <ns3:hr>145</ns3:hr>
          </ns3:TrackPointExtension>
        </extensions>
      </trkpt>
      <trkpt lat="-22.11294449865818023681640625" lon="166.456978507339954376220703125">
        <ele>397</ele>
        <time>2016-08-12T18:05:56.000Z</time>
        <extensions>
          <ns3:TrackPointExtension>
            <ns3:atemp>19.0</ns3:atemp>
            <ns3:hr>146</ns3:hr>
          </ns3:TrackPointExtension>
        </extensions>
      </trkpt>
      <trkpt lat="-22.112933434545993804931640625" lon="166.4569558762013912200927734375">
        <ele>397.20001220703125</ele>
        <time>2016-08-12T18:05:57.000Z</time>
        <extensions>
          <ns3:TrackPointExtension>
            <ns3:atemp>19.0</ns3:atemp>
            <ns3:hr>146</ns3:hr>
          </ns3:TrackPointExtension>
        </extensions>
      </trkpt>
      <trkpt lat="-22.112922370433807373046875" lon="166.45693198777735233306884765625">
        <ele>397.600006103515625</ele>
        <time>2016-08-12T18:05:58.000Z</time>
        <extensions>
          <ns3:TrackPointExtension>
            <ns3:atemp>19.0</ns3:atemp>
            <ns3:hr>145</ns3:hr>
          </ns3:TrackPointExtension>
        </extensions>
      </trkpt>
      <trkpt lat="-22.11291021667420864105224609375" lon="166.45690784789621829986572265625">
        <ele>397.600006103515625</ele>
        <time>2016-08-12T18:05:59.000Z</time>
        <extensions>
          <ns3:TrackPointExtension>
            <ns3:atemp>19.0</ns3:atemp>
            <ns3:hr>145</ns3:hr>
          </ns3:TrackPointExtension>
        </extensions>
      </trkpt>
      <trkpt lat="-22.11289965547621250152587890625" lon="166.4568871445953845977783203125">
        <ele>397.600006103515625</ele>
        <time>2016-08-12T18:06:00.000Z</time>
        <extensions>
          <ns3:TrackPointExtension>
            <ns3:atemp>19.0</ns3:atemp>
            <ns3:hr>145</ns3:hr>
          </ns3:TrackPointExtension>
        </extensions>
      </trkpt>
      <trkpt lat="-22.11289010010659694671630859375" lon="166.45686627365648746490478515625">
        <ele>397.79998779296875</ele>
        <time>2016-08-12T18:06:01.000Z</time>
        <extensions>
          <ns3:TrackPointExtension>
            <ns3:atemp>19.0</ns3:atemp>
            <ns3:hr>145</ns3:hr>
          </ns3:TrackPointExtension>
        </extensions>
      </trkpt>
      <trkpt lat="-22.11287585087120532989501953125" lon="166.456848084926605224609375">
        <ele>398</ele>
        <time>2016-08-12T18:06:02.000Z</time>
        <extensions>
          <ns3:TrackPointExtension>
            <ns3:atemp>19.0</ns3:atemp>
            <ns3:hr>144</ns3:hr>
          </ns3:TrackPointExtension>
        </extensions>
      </trkpt>
      <trkpt lat="-22.112864367663860321044921875" lon="166.45683039911091327667236328125">
        <ele>398.20001220703125</ele>
        <time>2016-08-12T18:06:03.000Z</time>
        <extensions>
          <ns3:TrackPointExtension>
            <ns3:atemp>19.0</ns3:atemp>
            <ns3:hr>144</ns3:hr>
          </ns3:TrackPointExtension>
        </extensions>
      </trkpt>
      <trkpt lat="-22.112858332693576812744140625" lon="166.45680424757301807403564453125">
        <ele>398.399993896484375</ele>
        <time>2016-08-12T18:06:04.000Z</time>
        <extensions>
          <ns3:TrackPointExtension>
            <ns3:atemp>19.0</ns3:atemp>
            <ns3:hr>144</ns3:hr>
          </ns3:TrackPointExtension>
        </extensions>
      </trkpt>
      <trkpt lat="-22.1128528006374835968017578125" lon="166.4567805267870426177978515625">
        <ele>398.600006103515625</ele>
        <time>2016-08-12T18:06:05.000Z</time>
        <extensions>
          <ns3:TrackPointExtension>
            <ns3:atemp>19.0</ns3:atemp>
            <ns3:hr>144</ns3:hr>
          </ns3:TrackPointExtension>
        </extensions>
      </trkpt>
      <trkpt lat="-22.11284098215401172637939453125" lon="166.4567617513239383697509765625">
        <ele>398.79998779296875</ele>
        <time>2016-08-12T18:06:06.000Z</time>
        <extensions>
          <ns3:TrackPointExtension>
            <ns3:atemp>19.0</ns3:atemp>
            <ns3:hr>144</ns3:hr>
          </ns3:TrackPointExtension>
        </extensions>
      </trkpt>
      <trkpt lat="-22.1128333546221256256103515625" lon="166.45674414932727813720703125">
        <ele>399.399993896484375</ele>
        <time>2016-08-12T18:06:07.000Z</time>
        <extensions>
          <ns3:TrackPointExtension>
            <ns3:atemp>19.0</ns3:atemp>
            <ns3:hr>144</ns3:hr>
          </ns3:TrackPointExtension>
        </extensions>
      </trkpt>
      <trkpt lat="-22.11281902156770229339599609375" lon="166.456727720797061920166015625">
        <ele>399.600006103515625</ele>
        <time>2016-08-12T18:06:08.000Z</time>
        <extensions>
          <ns3:TrackPointExtension>
            <ns3:atemp>19.0</ns3:atemp>
            <ns3:hr>144</ns3:hr>
          </ns3:TrackPointExtension>
        </extensions>
      </trkpt>
      <trkpt lat="-22.1128082089126110076904296875" lon="166.45671120844781398773193359375">
        <ele>399.600006103515625</ele>
        <time>2016-08-12T18:06:09.000Z</time>
        <extensions>
          <ns3:TrackPointExtension>
            <ns3:atemp>19.0</ns3:atemp>
            <ns3:hr>144</ns3:hr>
          </ns3:TrackPointExtension>
        </extensions>
      </trkpt>
      <trkpt lat="-22.11278968490660190582275390625" lon="166.456694863736629486083984375">
        <ele>399.79998779296875</ele>
        <time>2016-08-12T18:06:10.000Z</time>
        <extensions>
          <ns3:TrackPointExtension>
            <ns3:atemp>19.0</ns3:atemp>
            <ns3:hr>144</ns3:hr>
          </ns3:TrackPointExtension>
        </extensions>
      </trkpt>
      <trkpt lat="-22.11276747286319732666015625" lon="166.45667986012995243072509765625">
        <ele>400.20001220703125</ele>
        <time>2016-08-12T18:06:11.000Z</time>
        <extensions>
          <ns3:TrackPointExtension>
            <ns3:atemp>19.0</ns3:atemp>
            <ns3:hr>144</ns3:hr>
          </ns3:TrackPointExtension>
        </extensions>
      </trkpt>
      <trkpt lat="-22.11275213398039340972900390625" lon="166.456671059131622314453125">
        <ele>400.20001220703125</ele>
        <time>2016-08-12T18:06:12.000Z</time>
        <extensions>
          <ns3:TrackPointExtension>
            <ns3:atemp>19.0</ns3:atemp>
            <ns3:hr>144</ns3:hr>
          </ns3:TrackPointExtension>
        </extensions>
      </trkpt>
      <trkpt lat="-22.11273570545017719268798828125" lon="166.4566621743142604827880859375">
        <ele>400.399993896484375</ele>
        <time>2016-08-12T18:06:13.000Z</time>
        <extensions>
          <ns3:TrackPointExtension>
            <ns3:atemp>19.0</ns3:atemp>
            <ns3:hr>144</ns3:hr>
          </ns3:TrackPointExtension>
        </extensions>
      </trkpt>
      <trkpt lat="-22.1127212047576904296875" lon="166.4566477574408054351806640625">
        <ele>400.600006103515625</ele>
        <time>2016-08-12T18:06:14.000Z</time>
        <extensions>
          <ns3:TrackPointExtension>
            <ns3:atemp>19.0</ns3:atemp>
            <ns3:hr>144</ns3:hr>
          </ns3:TrackPointExtension>
        </extensions>
      </trkpt>
      <trkpt lat="-22.1127103082835674285888671875" lon="166.4566309936344623565673828125">
        <ele>400.600006103515625</ele>
        <time>2016-08-12T18:06:15.000Z</time>
        <extensions>
          <ns3:TrackPointExtension>
            <ns3:atemp>19.0</ns3:atemp>
            <ns3:hr>144</ns3:hr>
          </ns3:TrackPointExtension>
        </extensions>
      </trkpt>
      <trkpt lat="-22.112694717943668365478515625" lon="166.4566187560558319091796875">
        <ele>400.79998779296875</ele>
        <time>2016-08-12T18:06:16.000Z</time>
        <extensions>
          <ns3:TrackPointExtension>
            <ns3:atemp>19.0</ns3:atemp>
            <ns3:hr>144</ns3:hr>
          </ns3:TrackPointExtension>
        </extensions>
      </trkpt>
      <trkpt lat="-22.1126844920217990875244140625" lon="166.45660174079239368438720703125">
        <ele>401.20001220703125</ele>
        <time>2016-08-12T18:06:17.000Z</time>
        <extensions>
          <ns3:TrackPointExtension>
            <ns3:atemp>19.0</ns3:atemp>
            <ns3:hr>144</ns3:hr>
          </ns3:TrackPointExtension>
        </extensions>
      </trkpt>
      <trkpt lat="-22.1126724220812320709228515625" lon="166.45658615045249462127685546875">
        <ele>401.600006103515625</ele>
        <time>2016-08-12T18:06:18.000Z</time>
        <extensions>
          <ns3:TrackPointExtension>
            <ns3:atemp>19.0</ns3:atemp>
            <ns3:hr>144</ns3:hr>
          </ns3:TrackPointExtension>
        </extensions>
      </trkpt>
      <trkpt lat="-22.1126549877226352691650390625" lon="166.45657693035900592803955078125">
        <ele>401.79998779296875</ele>
        <time>2016-08-12T18:06:19.000Z</time>
        <extensions>
          <ns3:TrackPointExtension>
            <ns3:atemp>19.0</ns3:atemp>
            <ns3:hr>144</ns3:hr>
          </ns3:TrackPointExtension>
        </extensions>
      </trkpt>
      <trkpt lat="-22.11264199577271938323974609375" lon="166.456568799912929534912109375">
        <ele>402.20001220703125</ele>
        <time>2016-08-12T18:06:20.000Z</time>
        <extensions>
          <ns3:TrackPointExtension>
            <ns3:atemp>19.0</ns3:atemp>
            <ns3:hr>144</ns3:hr>
          </ns3:TrackPointExtension>
        </extensions>
      </trkpt>
      <trkpt lat="-22.11263277567923069000244140625" lon="166.45656201057136058807373046875">
        <ele>402.399993896484375</ele>
        <time>2016-08-12T18:06:21.000Z</time>
        <extensions>
          <ns3:TrackPointExtension>
            <ns3:atemp>19.0</ns3:atemp>
            <ns3:hr>145</ns3:hr>
          </ns3:TrackPointExtension>
        </extensions>
      </trkpt>
      <trkpt lat="-22.1126134134829044342041015625" lon="166.45656150765717029571533203125">
        <ele>402.399993896484375</ele>
        <time>2016-08-12T18:06:22.000Z</time>
        <extensions>
          <ns3:TrackPointExtension>
            <ns3:atemp>19.0</ns3:atemp>
            <ns3:hr>145</ns3:hr>
          </ns3:TrackPointExtension>
        </extensions>
      </trkpt>
      <trkpt lat="-22.11259103380143642425537109375" lon="166.45656586624681949615478515625">
        <ele>402.600006103515625</ele>
        <time>2016-08-12T18:06:23.000Z</time>
        <extensions>
          <ns3:TrackPointExtension>
            <ns3:atemp>19.0</ns3:atemp>
            <ns3:hr>145</ns3:hr>
          </ns3:TrackPointExtension>
        </extensions>
      </trkpt>
      <trkpt lat="-22.1125741861760616302490234375" lon="166.45657072775065898895263671875">
        <ele>402.79998779296875</ele>
        <time>2016-08-12T18:06:24.000Z</time>
        <extensions>
          <ns3:TrackPointExtension>
            <ns3:atemp>19.0</ns3:atemp>
            <ns3:hr>145</ns3:hr>
          </ns3:TrackPointExtension>
        </extensions>
      </trkpt>
      <trkpt lat="-22.112547196447849273681640625" lon="166.4565652795135974884033203125">
        <ele>403</ele>
        <time>2016-08-12T18:06:25.000Z</time>
        <extensions>
          <ns3:TrackPointExtension>
            <ns3:atemp>19.0</ns3:atemp>
            <ns3:hr>145</ns3:hr>
          </ns3:TrackPointExtension>
        </extensions>
      </trkpt>
      <trkpt lat="-22.11252062581479549407958984375" lon="166.4565599150955677032470703125">
        <ele>403.20001220703125</ele>
        <time>2016-08-12T18:06:26.000Z</time>
        <extensions>
          <ns3:TrackPointExtension>
            <ns3:atemp>19.0</ns3:atemp>
            <ns3:hr>145</ns3:hr>
          </ns3:TrackPointExtension>
        </extensions>
      </trkpt>
      <trkpt lat="-22.112484164535999298095703125" lon="166.45655329339206218719482421875">
        <ele>403.399993896484375</ele>
        <time>2016-08-12T18:06:27.000Z</time>
        <extensions>
          <ns3:TrackPointExtension>
            <ns3:atemp>19.0</ns3:atemp>
            <ns3:hr>145</ns3:hr>
          </ns3:TrackPointExtension>
        </extensions>
      </trkpt>
      <trkpt lat="-22.11244803853332996368408203125" lon="166.45654692314565181732177734375">
        <ele>403.600006103515625</ele>
        <time>2016-08-12T18:06:28.000Z</time>
        <extensions>
          <ns3:TrackPointExtension>
            <ns3:atemp>19.0</ns3:atemp>
            <ns3:hr>145</ns3:hr>
          </ns3:TrackPointExtension>
        </extensions>
      </trkpt>
      <trkpt lat="-22.1124233119189739227294921875" lon="166.45654273219406604766845703125">
        <ele>403.79998779296875</ele>
        <time>2016-08-12T18:06:29.000Z</time>
        <extensions>
          <ns3:TrackPointExtension>
            <ns3:atemp>19.0</ns3:atemp>
            <ns3:hr>145</ns3:hr>
          </ns3:TrackPointExtension>
        </extensions>
      </trkpt>
      <trkpt lat="-22.11240160278975963592529296875" lon="166.45654222927987575531005859375">
        <ele>404</ele>
        <time>2016-08-12T18:06:30.000Z</time>
        <extensions>
          <ns3:TrackPointExtension>
            <ns3:atemp>19.0</ns3:atemp>
            <ns3:hr>146</ns3:hr>
          </ns3:TrackPointExtension>
        </extensions>
      </trkpt>
      <trkpt lat="-22.11237947456538677215576171875" lon="166.45653904415667057037353515625">
        <ele>404.20001220703125</ele>
        <time>2016-08-12T18:06:31.000Z</time>
        <extensions>
          <ns3:TrackPointExtension>
            <ns3:atemp>19.0</ns3:atemp>
            <ns3:hr>146</ns3:hr>
          </ns3:TrackPointExtension>
        </extensions>
      </trkpt>
      <trkpt lat="-22.11235751397907733917236328125" lon="166.45653988234698772430419921875">
        <ele>404.600006103515625</ele>
        <time>2016-08-12T18:06:32.000Z</time>
        <extensions>
          <ns3:TrackPointExtension>
            <ns3:atemp>19.0</ns3:atemp>
            <ns3:hr>146</ns3:hr>
          </ns3:TrackPointExtension>
        </extensions>
      </trkpt>
      <trkpt lat="-22.1123455278575420379638671875" lon="166.45653300918638706207275390625">
        <ele>404.600006103515625</ele>
        <time>2016-08-12T18:06:33.000Z</time>
        <extensions>
          <ns3:TrackPointExtension>
            <ns3:atemp>19.0</ns3:atemp>
            <ns3:hr>146</ns3:hr>
          </ns3:TrackPointExtension>
        </extensions>
      </trkpt>
      <trkpt lat="-22.112323231995105743408203125" lon="166.4565275609493255615234375">
        <ele>405</ele>
        <time>2016-08-12T18:06:34.000Z</time>
        <extensions>
          <ns3:TrackPointExtension>
            <ns3:atemp>19.0</ns3:atemp>
            <ns3:hr>146</ns3:hr>
          </ns3:TrackPointExtension>
        </extensions>
      </trkpt>
      <trkpt lat="-22.11229984648525714874267578125" lon="166.456523872911930084228515625">
        <ele>405.20001220703125</ele>
        <time>2016-08-12T18:06:35.000Z</time>
        <extensions>
          <ns3:TrackPointExtension>
            <ns3:atemp>19.0</ns3:atemp>
            <ns3:hr>146</ns3:hr>
          </ns3:TrackPointExtension>
        </extensions>
      </trkpt>
      <trkpt lat="-22.11227553896605968475341796875" lon="166.4565213583409786224365234375">
        <ele>405.20001220703125</ele>
        <time>2016-08-12T18:06:36.000Z</time>
        <extensions>
          <ns3:TrackPointExtension>
            <ns3:atemp>19.0</ns3:atemp>
            <ns3:hr>146</ns3:hr>
          </ns3:TrackPointExtension>
        </extensions>
      </trkpt>
      <trkpt lat="-22.11225458420813083648681640625" lon="166.456511802971363067626953125">
        <ele>405.600006103515625</ele>
        <time>2016-08-12T18:06:37.000Z</time>
        <extensions>
          <ns3:TrackPointExtension>
            <ns3:atemp>19.0</ns3:atemp>
            <ns3:hr>146</ns3:hr>
          </ns3:TrackPointExtension>
        </extensions>
      </trkpt>
      <trkpt lat="-22.1122348867356777191162109375" lon="166.4565022476017475128173828125">
        <ele>405.79998779296875</ele>
        <time>2016-08-12T18:06:38.000Z</time>
        <extensions>
          <ns3:TrackPointExtension>
            <ns3:atemp>19.0</ns3:atemp>
            <ns3:hr>146</ns3:hr>
          </ns3:TrackPointExtension>
        </extensions>
      </trkpt>
      <trkpt lat="-22.11221552453935146331787109375" lon="166.45649964921176433563232421875">
        <ele>405.79998779296875</ele>
        <time>2016-08-12T18:06:39.000Z</time>
        <extensions>
          <ns3:TrackPointExtension>
            <ns3:atemp>19.0</ns3:atemp>
            <ns3:hr>146</ns3:hr>
          </ns3:TrackPointExtension>
        </extensions>
      </trkpt>
      <trkpt lat="-22.11220127530395984649658203125" lon="166.45648305304348468780517578125">
        <ele>406.20001220703125</ele>
        <time>2016-08-12T18:06:40.000Z</time>
        <extensions>
          <ns3:TrackPointExtension>
            <ns3:atemp>19.0</ns3:atemp>
            <ns3:hr>146</ns3:hr>
          </ns3:TrackPointExtension>
        </extensions>
      </trkpt>
      <trkpt lat="-22.112185768783092498779296875" lon="166.45646679215133190155029296875">
        <ele>406.20001220703125</ele>
        <time>2016-08-12T18:06:41.000Z</time>
        <extensions>
          <ns3:TrackPointExtension>
            <ns3:atemp>19.0</ns3:atemp>
            <ns3:hr>146</ns3:hr>
          </ns3:TrackPointExtension>
        </extensions>
      </trkpt>
      <trkpt lat="-22.1121715195477008819580078125" lon="166.456452123820781707763671875">
        <ele>406.399993896484375</ele>
        <time>2016-08-12T18:06:42.000Z</time>
        <extensions>
          <ns3:TrackPointExtension>
            <ns3:atemp>19.0</ns3:atemp>
            <ns3:hr>146</ns3:hr>
          </ns3:TrackPointExtension>
        </extensions>
      </trkpt>
      <trkpt lat="-22.1121644787490367889404296875" lon="166.4564284868538379669189453125">
        <ele>406.600006103515625</ele>
        <time>2016-08-12T18:06:43.000Z</time>
        <extensions>
          <ns3:TrackPointExtension>
            <ns3:atemp>19.0</ns3:atemp>
            <ns3:hr>146</ns3:hr>
          </ns3:TrackPointExtension>
        </extensions>
      </trkpt>
      <trkpt lat="-22.11215869523584842681884765625" lon="166.45640996284782886505126953125">
        <ele>406.79998779296875</ele>
        <time>2016-08-12T18:06:44.000Z</time>
        <extensions>
          <ns3:TrackPointExtension>
            <ns3:atemp>19.0</ns3:atemp>
            <ns3:hr>146</ns3:hr>
          </ns3:TrackPointExtension>
        </extensions>
      </trkpt>
      <trkpt lat="-22.112152911722660064697265625" lon="166.45639521069824695587158203125">
        <ele>407</ele>
        <time>2016-08-12T18:06:45.000Z</time>
        <extensions>
          <ns3:TrackPointExtension>
            <ns3:atemp>19.0</ns3:atemp>
            <ns3:hr>146</ns3:hr>
          </ns3:TrackPointExtension>
        </extensions>
      </trkpt>
      <trkpt lat="-22.11215190589427947998046875" lon="166.45637257955968379974365234375">
        <ele>407.399993896484375</ele>
        <time>2016-08-12T18:06:46.000Z</time>
        <extensions>
          <ns3:TrackPointExtension>
            <ns3:atemp>19.0</ns3:atemp>
            <ns3:hr>146</ns3:hr>
          </ns3:TrackPointExtension>
        </extensions>
      </trkpt>
      <trkpt lat="-22.112152241170406341552734375" lon="166.45635120570659637451171875">
        <ele>407.600006103515625</ele>
        <time>2016-08-12T18:06:47.000Z</time>
        <extensions>
          <ns3:TrackPointExtension>
            <ns3:atemp>19.0</ns3:atemp>
            <ns3:hr>146</ns3:hr>
          </ns3:TrackPointExtension>
        </extensions>
      </trkpt>
      <trkpt lat="-22.11215064860880374908447265625" lon="166.45633905194699764251708984375">
        <ele>407.600006103515625</ele>
        <time>2016-08-12T18:06:48.000Z</time>
        <extensions>
          <ns3:TrackPointExtension>
            <ns3:atemp>19.0</ns3:atemp>
            <ns3:hr>146</ns3:hr>
          </ns3:TrackPointExtension>
        </extensions>
      </trkpt>
      <trkpt lat="-22.1121539175510406494140625" lon="166.4563245512545108795166015625">
        <ele>407.79998779296875</ele>
        <time>2016-08-12T18:06:49.000Z</time>
        <extensions>
          <ns3:TrackPointExtension>
            <ns3:atemp>19.0</ns3:atemp>
            <ns3:hr>146</ns3:hr>
          </ns3:TrackPointExtension>
        </extensions>
      </trkpt>
      <trkpt lat="-22.1121571026742458343505859375" lon="166.45630837418138980865478515625">
        <ele>408</ele>
        <time>2016-08-12T18:06:50.000Z</time>
        <extensions>
          <ns3:TrackPointExtension>
            <ns3:atemp>19.0</ns3:atemp>
            <ns3:hr>145</ns3:hr>
          </ns3:TrackPointExtension>
        </extensions>
      </trkpt>
      <trkpt lat="-22.1121584437787532806396484375" lon="166.45629496313631534576416015625">
        <ele>408.399993896484375</ele>
        <time>2016-08-12T18:06:51.000Z</time>
        <extensions>
          <ns3:TrackPointExtension>
            <ns3:atemp>19.0</ns3:atemp>
            <ns3:hr>146</ns3:hr>
          </ns3:TrackPointExtension>
        </extensions>
      </trkpt>
      <trkpt lat="-22.11215735413134098052978515625" lon="166.45627451129257678985595703125">
        <ele>408.600006103515625</ele>
        <time>2016-08-12T18:06:52.000Z</time>
        <extensions>
          <ns3:TrackPointExtension>
            <ns3:atemp>19.0</ns3:atemp>
            <ns3:hr>146</ns3:hr>
          </ns3:TrackPointExtension>
        </extensions>
      </trkpt>
      <trkpt lat="-22.11215685121715068817138671875" lon="166.4562528021633625030517578125">
        <ele>408.79998779296875</ele>
        <time>2016-08-12T18:06:53.000Z</time>
        <extensions>
          <ns3:TrackPointExtension>
            <ns3:atemp>19.0</ns3:atemp>
            <ns3:hr>146</ns3:hr>
          </ns3:TrackPointExtension>
        </extensions>
      </trkpt>
      <trkpt lat="-22.11215483956038951873779296875" lon="166.45623511634767055511474609375">
        <ele>409.20001220703125</ele>
        <time>2016-08-12T18:06:54.000Z</time>
        <extensions>
          <ns3:TrackPointExtension>
            <ns3:atemp>19.0</ns3:atemp>
            <ns3:hr>146</ns3:hr>
          </ns3:TrackPointExtension>
        </extensions>
      </trkpt>
      <trkpt lat="-22.1121547557413578033447265625" lon="166.45621516741812229156494140625">
        <ele>409.399993896484375</ele>
        <time>2016-08-12T18:06:55.000Z</time>
        <extensions>
          <ns3:TrackPointExtension>
            <ns3:atemp>19.0</ns3:atemp>
            <ns3:hr>146</ns3:hr>
          </ns3:TrackPointExtension>
        </extensions>
      </trkpt>
      <trkpt lat="-22.11215416900813579559326171875" lon="166.4561978168785572052001953125">
        <ele>409.399993896484375</ele>
        <time>2016-08-12T18:06:56.000Z</time>
        <extensions>
          <ns3:TrackPointExtension>
            <ns3:atemp>19.0</ns3:atemp>
            <ns3:hr>146</ns3:hr>
          </ns3:TrackPointExtension>
        </extensions>
      </trkpt>
      <trkpt lat="-22.112152911722660064697265625" lon="166.4561815559864044189453125">
        <ele>410</ele>
        <time>2016-08-12T18:06:57.000Z</time>
        <extensions>
          <ns3:TrackPointExtension>
            <ns3:atemp>19.0</ns3:atemp>
            <ns3:hr>146</ns3:hr>
          </ns3:TrackPointExtension>
        </extensions>
      </trkpt>
      <trkpt lat="-22.11215618066489696502685546875" lon="166.4561599306762218475341796875">
        <ele>410</ele>
        <time>2016-08-12T18:06:58.000Z</time>
        <extensions>
          <ns3:TrackPointExtension>
            <ns3:atemp>19.0</ns3:atemp>
            <ns3:hr>146</ns3:hr>
          </ns3:TrackPointExtension>
        </extensions>
      </trkpt>
      <trkpt lat="-22.11215416900813579559326171875" lon="166.45614199340343475341796875">
        <ele>410.20001220703125</ele>
        <time>2016-08-12T18:06:59.000Z</time>
        <extensions>
          <ns3:TrackPointExtension>
            <ns3:atemp>19.0</ns3:atemp>
            <ns3:hr>145</ns3:hr>
          </ns3:TrackPointExtension>
        </extensions>
      </trkpt>
      <trkpt lat="-22.1121539175510406494140625" lon="166.45612397231161594390869140625">
        <ele>410.399993896484375</ele>
        <time>2016-08-12T18:07:00.000Z</time>
        <extensions>
          <ns3:TrackPointExtension>
            <ns3:atemp>19.0</ns3:atemp>
            <ns3:hr>146</ns3:hr>
          </ns3:TrackPointExtension>
        </extensions>
      </trkpt>
      <trkpt lat="-22.1121547557413578033447265625" lon="166.45609949715435504913330078125">
        <ele>410.600006103515625</ele>
        <time>2016-08-12T18:07:01.000Z</time>
        <extensions>
          <ns3:TrackPointExtension>
            <ns3:atemp>19.0</ns3:atemp>
            <ns3:hr>146</ns3:hr>
          </ns3:TrackPointExtension>
        </extensions>
      </trkpt>
      <trkpt lat="-22.11215785704553127288818359375" lon="166.45607686601579189300537109375">
        <ele>410.600006103515625</ele>
        <time>2016-08-12T18:07:02.000Z</time>
        <extensions>
          <ns3:TrackPointExtension>
            <ns3:atemp>19.0</ns3:atemp>
            <ns3:hr>146</ns3:hr>
          </ns3:TrackPointExtension>
        </extensions>
      </trkpt>
      <trkpt lat="-22.1121537499129772186279296875" lon="166.456059515476226806640625">
        <ele>410.600006103515625</ele>
        <time>2016-08-12T18:07:03.000Z</time>
        <extensions>
          <ns3:TrackPointExtension>
            <ns3:atemp>19.0</ns3:atemp>
            <ns3:hr>146</ns3:hr>
          </ns3:TrackPointExtension>
        </extensions>
      </trkpt>
      <trkpt lat="-22.11214729584753513336181640625" lon="166.45603897981345653533935546875">
        <ele>410.79998779296875</ele>
        <time>2016-08-12T18:07:04.000Z</time>
        <extensions>
          <ns3:TrackPointExtension>
            <ns3:atemp>19.0</ns3:atemp>
            <ns3:hr>146</ns3:hr>
          </ns3:TrackPointExtension>
        </extensions>
      </trkpt>
      <trkpt lat="-22.11214461363852024078369140625" lon="166.4560191147029399871826171875">
        <ele>411</ele>
        <time>2016-08-12T18:07:05.000Z</time>
        <extensions>
          <ns3:TrackPointExtension>
            <ns3:atemp>19.0</ns3:atemp>
            <ns3:hr>146</ns3:hr>
          </ns3:TrackPointExtension>
        </extensions>
      </trkpt>
      <trkpt lat="-22.1121423505246639251708984375" lon="166.45600142888724803924560546875">
        <ele>411.20001220703125</ele>
        <time>2016-08-12T18:07:06.000Z</time>
        <extensions>
          <ns3:TrackPointExtension>
            <ns3:atemp>19.0</ns3:atemp>
            <ns3:hr>146</ns3:hr>
          </ns3:TrackPointExtension>
        </extensions>
      </trkpt>
      <trkpt lat="-22.11214008741080760955810546875" lon="166.455981731414794921875">
        <ele>411.399993896484375</ele>
        <time>2016-08-12T18:07:07.000Z</time>
        <extensions>
          <ns3:TrackPointExtension>
            <ns3:atemp>19.0</ns3:atemp>
            <ns3:hr>146</ns3:hr>
          </ns3:TrackPointExtension>
        </extensions>
      </trkpt>
      <trkpt lat="-22.11213606409728527069091796875" lon="166.45596270449459552764892578125">
        <ele>411.600006103515625</ele>
        <time>2016-08-12T18:07:08.000Z</time>
        <extensions>
          <ns3:TrackPointExtension>
            <ns3:atemp>19.0</ns3:atemp>
            <ns3:hr>146</ns3:hr>
          </ns3:TrackPointExtension>
        </extensions>
      </trkpt>
      <trkpt lat="-22.1121336333453655242919921875" lon="166.45594476722180843353271484375">
        <ele>411.600006103515625</ele>
        <time>2016-08-12T18:07:09.000Z</time>
        <extensions>
          <ns3:TrackPointExtension>
            <ns3:atemp>19.0</ns3:atemp>
            <ns3:hr>146</ns3:hr>
          </ns3:TrackPointExtension>
        </extensions>
      </trkpt>
      <trkpt lat="-22.1121343038976192474365234375" lon="166.455925405025482177734375">
        <ele>411.79998779296875</ele>
        <time>2016-08-12T18:07:10.000Z</time>
        <extensions>
          <ns3:TrackPointExtension>
            <ns3:atemp>19.0</ns3:atemp>
            <ns3:hr>147</ns3:hr>
          </ns3:TrackPointExtension>
        </extensions>
      </trkpt>
      <trkpt lat="-22.11213807575404644012451171875" lon="166.455903947353363037109375">
        <ele>412</ele>
        <time>2016-08-12T18:07:11.000Z</time>
        <extensions>
          <ns3:TrackPointExtension>
            <ns3:atemp>19.0</ns3:atemp>
            <ns3:hr>147</ns3:hr>
          </ns3:TrackPointExtension>
        </extensions>
      </trkpt>
      <trkpt lat="-22.11213715374469757080078125" lon="166.4558838307857513427734375">
        <ele>412</ele>
        <time>2016-08-12T18:07:12.000Z</time>
        <extensions>
          <ns3:TrackPointExtension>
            <ns3:atemp>19.0</ns3:atemp>
            <ns3:hr>146</ns3:hr>
          </ns3:TrackPointExtension>
        </extensions>
      </trkpt>
      <trkpt lat="-22.1121353097259998321533203125" lon="166.45586614497005939483642578125">
        <ele>412.399993896484375</ele>
        <time>2016-08-12T18:07:13.000Z</time>
        <extensions>
          <ns3:TrackPointExtension>
            <ns3:atemp>19.0</ns3:atemp>
            <ns3:hr>147</ns3:hr>
          </ns3:TrackPointExtension>
        </extensions>
      </trkpt>
      <trkpt lat="-22.11213313043117523193359375" lon="166.4558467827737331390380859375">
        <ele>412.600006103515625</ele>
        <time>2016-08-12T18:07:14.000Z</time>
        <extensions>
          <ns3:TrackPointExtension>
            <ns3:atemp>19.0</ns3:atemp>
            <ns3:hr>147</ns3:hr>
          </ns3:TrackPointExtension>
        </extensions>
      </trkpt>
      <trkpt lat="-22.11213053204119205474853515625" lon="166.45583010278642177581787109375">
        <ele>412.600006103515625</ele>
        <time>2016-08-12T18:07:15.000Z</time>
        <extensions>
          <ns3:TrackPointExtension>
            <ns3:atemp>19.0</ns3:atemp>
            <ns3:hr>147</ns3:hr>
          </ns3:TrackPointExtension>
        </extensions>
      </trkpt>
      <trkpt lat="-22.1121279336512088775634765625" lon="166.4558156020939350128173828125">
        <ele>412.79998779296875</ele>
        <time>2016-08-12T18:07:16.000Z</time>
        <extensions>
          <ns3:TrackPointExtension>
            <ns3:atemp>19.0</ns3:atemp>
            <ns3:hr>147</ns3:hr>
          </ns3:TrackPointExtension>
        </extensions>
      </trkpt>
      <trkpt lat="-22.1121259219944477081298828125" lon="166.455800347030162811279296875">
        <ele>413.20001220703125</ele>
        <time>2016-08-12T18:07:17.000Z</time>
        <extensions>
          <ns3:TrackPointExtension>
            <ns3:atemp>19.0</ns3:atemp>
            <ns3:hr>146</ns3:hr>
          </ns3:TrackPointExtension>
        </extensions>
      </trkpt>
      <trkpt lat="-22.11212080903351306915283203125" lon="166.4557854272425174713134765625">
        <ele>413.399993896484375</ele>
        <time>2016-08-12T18:07:18.000Z</time>
        <extensions>
          <ns3:TrackPointExtension>
            <ns3:atemp>19.0</ns3:atemp>
            <ns3:hr>146</ns3:hr>
          </ns3:TrackPointExtension>
        </extensions>
      </trkpt>
      <trkpt lat="-22.11211829446256160736083984375" lon="166.45576925016939640045166015625">
        <ele>413.600006103515625</ele>
        <time>2016-08-12T18:07:19.000Z</time>
        <extensions>
          <ns3:TrackPointExtension>
            <ns3:atemp>19.0</ns3:atemp>
            <ns3:hr>147</ns3:hr>
          </ns3:TrackPointExtension>
        </extensions>
      </trkpt>
      <trkpt lat="-22.11210756562650203704833984375" lon="166.4557524025440216064453125">
        <ele>413.79998779296875</ele>
        <time>2016-08-12T18:07:20.000Z</time>
        <extensions>
          <ns3:TrackPointExtension>
            <ns3:atemp>19.0</ns3:atemp>
            <ns3:hr>147</ns3:hr>
          </ns3:TrackPointExtension>
        </extensions>
      </trkpt>
      <trkpt lat="-22.11209633387625217437744140625" lon="166.45573840476572513580322265625">
        <ele>414.20001220703125</ele>
        <time>2016-08-12T18:07:21.000Z</time>
        <extensions>
          <ns3:TrackPointExtension>
            <ns3:atemp>19.0</ns3:atemp>
            <ns3:hr>147</ns3:hr>
          </ns3:TrackPointExtension>
        </extensions>
      </trkpt>
      <trkpt lat="-22.11208594031631946563720703125" lon="166.4557244069874286651611328125">
        <ele>414.399993896484375</ele>
        <time>2016-08-12T18:07:22.000Z</time>
        <extensions>
          <ns3:TrackPointExtension>
            <ns3:atemp>19.0</ns3:atemp>
            <ns3:hr>146</ns3:hr>
          </ns3:TrackPointExtension>
        </extensions>
      </trkpt>
      <trkpt lat="-22.112076468765735626220703125" lon="166.45570856519043445587158203125">
        <ele>414.600006103515625</ele>
        <time>2016-08-12T18:07:23.000Z</time>
        <extensions>
          <ns3:TrackPointExtension>
            <ns3:atemp>19.0</ns3:atemp>
            <ns3:hr>146</ns3:hr>
          </ns3:TrackPointExtension>
        </extensions>
      </trkpt>
      <trkpt lat="-22.112059034407138824462890625" lon="166.45569381304085254669189453125">
        <ele>415</ele>
        <time>2016-08-12T18:07:24.000Z</time>
        <extensions>
          <ns3:TrackPointExtension>
            <ns3:atemp>19.0</ns3:atemp>
            <ns3:hr>146</ns3:hr>
          </ns3:TrackPointExtension>
        </extensions>
      </trkpt>
      <trkpt lat="-22.1120434440672397613525390625" lon="166.4556761272251605987548828125">
        <ele>415.20001220703125</ele>
        <time>2016-08-12T18:07:25.000Z</time>
        <extensions>
          <ns3:TrackPointExtension>
            <ns3:atemp>19.0</ns3:atemp>
            <ns3:hr>147</ns3:hr>
          </ns3:TrackPointExtension>
        </extensions>
      </trkpt>
      <trkpt lat="-22.11202994920313358306884765625" lon="166.45565517246723175048828125">
        <ele>415.20001220703125</ele>
        <time>2016-08-12T18:07:26.000Z</time>
        <extensions>
          <ns3:TrackPointExtension>
            <ns3:atemp>19.0</ns3:atemp>
            <ns3:hr>146</ns3:hr>
          </ns3:TrackPointExtension>
        </extensions>
      </trkpt>
      <trkpt lat="-22.11201586760580539703369140625" lon="166.4556372351944446563720703125">
        <ele>415.399993896484375</ele>
        <time>2016-08-12T18:07:27.000Z</time>
        <extensions>
          <ns3:TrackPointExtension>
            <ns3:atemp>19.0</ns3:atemp>
            <ns3:hr>146</ns3:hr>
          </ns3:TrackPointExtension>
        </extensions>
      </trkpt>
      <trkpt lat="-22.11200329475104808807373046875" lon="166.4556181244552135467529296875">
        <ele>415.399993896484375</ele>
        <time>2016-08-12T18:07:28.000Z</time>
        <extensions>
          <ns3:TrackPointExtension>
            <ns3:atemp>19.0</ns3:atemp>
            <ns3:hr>147</ns3:hr>
          </ns3:TrackPointExtension>
        </extensions>
      </trkpt>
      <trkpt lat="-22.11198753677308559417724609375" lon="166.4555983431637287139892578125">
        <ele>415.600006103515625</ele>
        <time>2016-08-12T18:07:29.000Z</time>
        <extensions>
          <ns3:TrackPointExtension>
            <ns3:atemp>19.0</ns3:atemp>
            <ns3:hr>147</ns3:hr>
          </ns3:TrackPointExtension>
        </extensions>
      </trkpt>
      <trkpt lat="-22.11197127588093280792236328125" lon="166.45558216609060764312744140625">
        <ele>415.600006103515625</ele>
        <time>2016-08-12T18:07:30.000Z</time>
        <extensions>
          <ns3:TrackPointExtension>
            <ns3:atemp>19.0</ns3:atemp>
            <ns3:hr>147</ns3:hr>
          </ns3:TrackPointExtension>
        </extensions>
      </trkpt>
      <trkpt lat="-22.11194797419011592864990234375" lon="166.45556741394102573394775390625">
        <ele>415.600006103515625</ele>
        <time>2016-08-12T18:07:31.000Z</time>
        <extensions>
          <ns3:TrackPointExtension>
            <ns3:atemp>19.0</ns3:atemp>
            <ns3:hr>147</ns3:hr>
          </ns3:TrackPointExtension>
        </extensions>
      </trkpt>
      <trkpt lat="-22.11192634887993335723876953125" lon="166.45555467344820499420166015625">
        <ele>416</ele>
        <time>2016-08-12T18:07:32.000Z</time>
        <extensions>
          <ns3:TrackPointExtension>
            <ns3:atemp>19.0</ns3:atemp>
            <ns3:hr>147</ns3:hr>
          </ns3:TrackPointExtension>
        </extensions>
      </trkpt>
      <trkpt lat="-22.111912183463573455810546875" lon="166.45554008893668651580810546875">
        <ele>416</ele>
        <time>2016-08-12T18:07:33.000Z</time>
        <extensions>
          <ns3:TrackPointExtension>
            <ns3:atemp>19.0</ns3:atemp>
            <ns3:hr>147</ns3:hr>
          </ns3:TrackPointExtension>
        </extensions>
      </trkpt>
      <trkpt lat="-22.1118992753326892852783203125" lon="166.4555242471396923065185546875">
        <ele>416.20001220703125</ele>
        <time>2016-08-12T18:07:34.000Z</time>
        <extensions>
          <ns3:TrackPointExtension>
            <ns3:atemp>19.0</ns3:atemp>
            <ns3:hr>147</ns3:hr>
          </ns3:TrackPointExtension>
        </extensions>
      </trkpt>
      <trkpt lat="-22.1118843555450439453125" lon="166.45550840534269809722900390625">
        <ele>416.600006103515625</ele>
        <time>2016-08-12T18:07:35.000Z</time>
        <extensions>
          <ns3:TrackPointExtension>
            <ns3:atemp>19.0</ns3:atemp>
            <ns3:hr>147</ns3:hr>
          </ns3:TrackPointExtension>
        </extensions>
      </trkpt>
      <trkpt lat="-22.11187161505222320556640625" lon="166.4554927311837673187255859375">
        <ele>416.600006103515625</ele>
        <time>2016-08-12T18:07:36.000Z</time>
        <extensions>
          <ns3:TrackPointExtension>
            <ns3:atemp>19.0</ns3:atemp>
            <ns3:hr>146</ns3:hr>
          </ns3:TrackPointExtension>
        </extensions>
      </trkpt>
      <trkpt lat="-22.111854515969753265380859375" lon="166.45547471009194850921630859375">
        <ele>416.600006103515625</ele>
        <time>2016-08-12T18:07:37.000Z</time>
        <extensions>
          <ns3:TrackPointExtension>
            <ns3:atemp>19.0</ns3:atemp>
            <ns3:hr>147</ns3:hr>
          </ns3:TrackPointExtension>
        </extensions>
      </trkpt>
      <trkpt lat="-22.11184118874371051788330078125" lon="166.4554548449814319610595703125">
        <ele>416.79998779296875</ele>
        <time>2016-08-12T18:07:38.000Z</time>
        <extensions>
          <ns3:TrackPointExtension>
            <ns3:atemp>19.0</ns3:atemp>
            <ns3:hr>147</ns3:hr>
          </ns3:TrackPointExtension>
        </extensions>
      </trkpt>
      <trkpt lat="-22.11183062754571437835693359375" lon="166.4554357342422008514404296875">
        <ele>417</ele>
        <time>2016-08-12T18:07:39.000Z</time>
        <extensions>
          <ns3:TrackPointExtension>
            <ns3:atemp>19.0</ns3:atemp>
            <ns3:hr>147</ns3:hr>
          </ns3:TrackPointExtension>
        </extensions>
      </trkpt>
      <trkpt lat="-22.1118240058422088623046875" lon="166.45541352219879627227783203125">
        <ele>417</ele>
        <time>2016-08-12T18:07:40.000Z</time>
        <extensions>
          <ns3:TrackPointExtension>
            <ns3:atemp>19.0</ns3:atemp>
            <ns3:hr>146</ns3:hr>
          </ns3:TrackPointExtension>
        </extensions>
      </trkpt>
      <trkpt lat="-22.1118186414241790771484375" lon="166.45539273507893085479736328125">
        <ele>417.399993896484375</ele>
        <time>2016-08-12T18:07:41.000Z</time>
        <extensions>
          <ns3:TrackPointExtension>
            <ns3:atemp>19.0</ns3:atemp>
            <ns3:hr>147</ns3:hr>
          </ns3:TrackPointExtension>
        </extensions>
      </trkpt>
      <trkpt lat="-22.111821658909320831298828125" lon="166.4553715288639068603515625">
        <ele>417.600006103515625</ele>
        <time>2016-08-12T18:07:42.000Z</time>
        <extensions>
          <ns3:TrackPointExtension>
            <ns3:atemp>19.0</ns3:atemp>
            <ns3:hr>146</ns3:hr>
          </ns3:TrackPointExtension>
        </extensions>
      </trkpt>
      <trkpt lat="-22.1118211559951305389404296875" lon="166.455349065363407135009765625">
        <ele>417.600006103515625</ele>
        <time>2016-08-12T18:07:43.000Z</time>
        <extensions>
          <ns3:TrackPointExtension>
            <ns3:atemp>19.0</ns3:atemp>
            <ns3:hr>146</ns3:hr>
          </ns3:TrackPointExtension>
        </extensions>
      </trkpt>
      <trkpt lat="-22.111822329461574554443359375" lon="166.45533154718577861785888671875">
        <ele>417.79998779296875</ele>
        <time>2016-08-12T18:07:44.000Z</time>
        <extensions>
          <ns3:TrackPointExtension>
            <ns3:atemp>19.0</ns3:atemp>
            <ns3:hr>146</ns3:hr>
          </ns3:TrackPointExtension>
        </extensions>
      </trkpt>
      <trkpt lat="-22.11182744242250919342041015625" lon="166.45531511865556240081787109375">
        <ele>418.20001220703125</ele>
        <time>2016-08-12T18:07:45.000Z</time>
        <extensions>
          <ns3:TrackPointExtension>
            <ns3:atemp>19.0</ns3:atemp>
            <ns3:hr>146</ns3:hr>
          </ns3:TrackPointExtension>
        </extensions>
      </trkpt>
      <trkpt lat="-22.1118318848311901092529296875" lon="166.45529466681182384490966796875">
        <ele>418.20001220703125</ele>
        <time>2016-08-12T18:07:46.000Z</time>
        <extensions>
          <ns3:TrackPointExtension>
            <ns3:atemp>19.0</ns3:atemp>
            <ns3:hr>146</ns3:hr>
          </ns3:TrackPointExtension>
        </extensions>
      </trkpt>
      <trkpt lat="-22.11182928644120693206787109375" lon="166.4552758075296878814697265625">
        <ele>418.399993896484375</ele>
        <time>2016-08-12T18:07:47.000Z</time>
        <extensions>
          <ns3:TrackPointExtension>
            <ns3:atemp>19.0</ns3:atemp>
            <ns3:hr>146</ns3:hr>
          </ns3:TrackPointExtension>
        </extensions>
      </trkpt>
      <trkpt lat="-22.11182325147092342376708984375" lon="166.4552617259323596954345703125">
        <ele>418.79998779296875</ele>
        <time>2016-08-12T18:07:48.000Z</time>
        <extensions>
          <ns3:TrackPointExtension>
            <ns3:atemp>19.0</ns3:atemp>
            <ns3:hr>146</ns3:hr>
          </ns3:TrackPointExtension>
        </extensions>
      </trkpt>
      <trkpt lat="-22.11181637831032276153564453125" lon="166.455244459211826324462890625">
        <ele>418.79998779296875</ele>
        <time>2016-08-12T18:07:49.000Z</time>
        <extensions>
          <ns3:TrackPointExtension>
            <ns3:atemp>19.0</ns3:atemp>
            <ns3:hr>146</ns3:hr>
          </ns3:TrackPointExtension>
        </extensions>
      </trkpt>
      <trkpt lat="-22.11181235499680042266845703125" lon="166.45522727631032466888427734375">
        <ele>419</ele>
        <time>2016-08-12T18:07:50.000Z</time>
        <extensions>
          <ns3:TrackPointExtension>
            <ns3:atemp>19.0</ns3:atemp>
            <ns3:hr>146</ns3:hr>
          </ns3:TrackPointExtension>
        </extensions>
      </trkpt>
      <trkpt lat="-22.1118087507784366607666015625" lon="166.4552064053714275360107421875">
        <ele>419.20001220703125</ele>
        <time>2016-08-12T18:07:51.000Z</time>
        <extensions>
          <ns3:TrackPointExtension>
            <ns3:atemp>19.0</ns3:atemp>
            <ns3:hr>145</ns3:hr>
          </ns3:TrackPointExtension>
        </extensions>
      </trkpt>
      <trkpt lat="-22.1118017099797725677490234375" lon="166.455184780061244964599609375">
        <ele>419.20001220703125</ele>
        <time>2016-08-12T18:07:52.000Z</time>
        <extensions>
          <ns3:TrackPointExtension>
            <ns3:atemp>19.0</ns3:atemp>
            <ns3:hr>145</ns3:hr>
          </ns3:TrackPointExtension>
        </extensions>
      </trkpt>
      <trkpt lat="-22.11179785430431365966796875" lon="166.45516566932201385498046875">
        <ele>419.399993896484375</ele>
        <time>2016-08-12T18:07:53.000Z</time>
        <extensions>
          <ns3:TrackPointExtension>
            <ns3:atemp>19.0</ns3:atemp>
            <ns3:hr>145</ns3:hr>
          </ns3:TrackPointExtension>
        </extensions>
      </trkpt>
      <trkpt lat="-22.1117945015430450439453125" lon="166.45514396019279956817626953125">
        <ele>419.600006103515625</ele>
        <time>2016-08-12T18:07:54.000Z</time>
        <extensions>
          <ns3:TrackPointExtension>
            <ns3:atemp>19.0</ns3:atemp>
            <ns3:hr>145</ns3:hr>
          </ns3:TrackPointExtension>
        </extensions>
      </trkpt>
      <trkpt lat="-22.1117879636585712432861328125" lon="166.45512300543487071990966796875">
        <ele>419.600006103515625</ele>
        <time>2016-08-12T18:07:55.000Z</time>
        <extensions>
          <ns3:TrackPointExtension>
            <ns3:atemp>19.0</ns3:atemp>
            <ns3:hr>145</ns3:hr>
          </ns3:TrackPointExtension>
        </extensions>
      </trkpt>
      <trkpt lat="-22.111785449087619781494140625" lon="166.455098949372768402099609375">
        <ele>420</ele>
        <time>2016-08-12T18:07:56.000Z</time>
        <extensions>
          <ns3:TrackPointExtension>
            <ns3:atemp>19.0</ns3:atemp>
            <ns3:hr>145</ns3:hr>
          </ns3:TrackPointExtension>
        </extensions>
      </trkpt>
      <trkpt lat="-22.1117859520018100738525390625" lon="166.4550746418535709381103515625">
        <ele>420</ele>
        <time>2016-08-12T18:07:57.000Z</time>
        <extensions>
          <ns3:TrackPointExtension>
            <ns3:atemp>19.0</ns3:atemp>
            <ns3:hr>145</ns3:hr>
          </ns3:TrackPointExtension>
        </extensions>
      </trkpt>
      <trkpt lat="-22.11178469471633434295654296875" lon="166.45505393855273723602294921875">
        <ele>420.20001220703125</ele>
        <time>2016-08-12T18:07:58.000Z</time>
        <extensions>
          <ns3:TrackPointExtension>
            <ns3:atemp>19.0</ns3:atemp>
            <ns3:hr>145</ns3:hr>
          </ns3:TrackPointExtension>
        </extensions>
      </trkpt>
      <trkpt lat="-22.111783437430858612060546875" lon="166.45503616891801357269287109375">
        <ele>420.399993896484375</ele>
        <time>2016-08-12T18:07:59.000Z</time>
        <extensions>
          <ns3:TrackPointExtension>
            <ns3:atemp>19.0</ns3:atemp>
            <ns3:hr>145</ns3:hr>
          </ns3:TrackPointExtension>
        </extensions>
      </trkpt>
      <trkpt lat="-22.11177832446992397308349609375" lon="166.45501756109297275543212890625">
        <ele>420.600006103515625</ele>
        <time>2016-08-12T18:08:00.000Z</time>
        <extensions>
          <ns3:TrackPointExtension>
            <ns3:atemp>19.0</ns3:atemp>
            <ns3:hr>145</ns3:hr>
          </ns3:TrackPointExtension>
        </extensions>
      </trkpt>
      <trkpt lat="-22.11177044548094272613525390625" lon="166.45500062964856624603271484375">
        <ele>420.79998779296875</ele>
        <time>2016-08-12T18:08:01.000Z</time>
        <extensions>
          <ns3:TrackPointExtension>
            <ns3:atemp>19.0</ns3:atemp>
            <ns3:hr>145</ns3:hr>
          </ns3:TrackPointExtension>
        </extensions>
      </trkpt>
      <trkpt lat="-22.111766338348388671875" lon="166.45498017780482769012451171875">
        <ele>421.20001220703125</ele>
        <time>2016-08-12T18:08:02.000Z</time>
        <extensions>
          <ns3:TrackPointExtension>
            <ns3:atemp>19.0</ns3:atemp>
            <ns3:hr>145</ns3:hr>
          </ns3:TrackPointExtension>
        </extensions>
      </trkpt>
      <trkpt lat="-22.1117596328258514404296875" lon="166.45496073178946971893310546875">
        <ele>421.399993896484375</ele>
        <time>2016-08-12T18:08:03.000Z</time>
        <extensions>
          <ns3:TrackPointExtension>
            <ns3:atemp>19.0</ns3:atemp>
            <ns3:hr>144</ns3:hr>
          </ns3:TrackPointExtension>
        </extensions>
      </trkpt>
      <trkpt lat="-22.1117457188665866851806640625" lon="166.45494312979280948638916015625">
        <ele>421.600006103515625</ele>
        <time>2016-08-12T18:08:04.000Z</time>
        <extensions>
          <ns3:TrackPointExtension>
            <ns3:atemp>19.0</ns3:atemp>
            <ns3:hr>144</ns3:hr>
          </ns3:TrackPointExtension>
        </extensions>
      </trkpt>
      <trkpt lat="-22.111737169325351715087890625" lon="166.45492368377745151519775390625">
        <ele>421.79998779296875</ele>
        <time>2016-08-12T18:08:05.000Z</time>
        <extensions>
          <ns3:TrackPointExtension>
            <ns3:atemp>19.0</ns3:atemp>
            <ns3:hr>145</ns3:hr>
          </ns3:TrackPointExtension>
        </extensions>
      </trkpt>
      <trkpt lat="-22.1117168851196765899658203125" lon="166.45490708760917186737060546875">
        <ele>421.79998779296875</ele>
        <time>2016-08-12T18:08:06.000Z</time>
        <extensions>
          <ns3:TrackPointExtension>
            <ns3:atemp>19.0</ns3:atemp>
            <ns3:hr>145</ns3:hr>
          </ns3:TrackPointExtension>
        </extensions>
      </trkpt>
      <trkpt lat="-22.1117021329700946807861328125" lon="166.454890407621860504150390625">
        <ele>422</ele>
        <time>2016-08-12T18:08:07.000Z</time>
        <extensions>
          <ns3:TrackPointExtension>
            <ns3:atemp>19.0</ns3:atemp>
            <ns3:hr>144</ns3:hr>
          </ns3:TrackPointExtension>
        </extensions>
      </trkpt>
      <trkpt lat="-22.11169148795306682586669921875" lon="166.45487330853939056396484375">
        <ele>422.399993896484375</ele>
        <time>2016-08-12T18:08:08.000Z</time>
        <extensions>
          <ns3:TrackPointExtension>
            <ns3:atemp>19.0</ns3:atemp>
            <ns3:hr>144</ns3:hr>
          </ns3:TrackPointExtension>
        </extensions>
      </trkpt>
      <trkpt lat="-22.11167581379413604736328125" lon="166.45485511980950832366943359375">
        <ele>422.600006103515625</ele>
        <time>2016-08-12T18:08:09.000Z</time>
        <extensions>
          <ns3:TrackPointExtension>
            <ns3:atemp>19.0</ns3:atemp>
            <ns3:hr>145</ns3:hr>
          </ns3:TrackPointExtension>
        </extensions>
      </trkpt>
      <trkpt lat="-22.11166382767260074615478515625" lon="166.4548372663557529449462890625">
        <ele>422.79998779296875</ele>
        <time>2016-08-12T18:08:10.000Z</time>
        <extensions>
          <ns3:TrackPointExtension>
            <ns3:atemp>19.0</ns3:atemp>
            <ns3:hr>144</ns3:hr>
          </ns3:TrackPointExtension>
        </extensions>
      </trkpt>
      <trkpt lat="-22.11165226064622402191162109375" lon="166.454822681844234466552734375">
        <ele>423</ele>
        <time>2016-08-12T18:08:11.000Z</time>
        <extensions>
          <ns3:TrackPointExtension>
            <ns3:atemp>19.0</ns3:atemp>
            <ns3:hr>144</ns3:hr>
          </ns3:TrackPointExtension>
        </extensions>
      </trkpt>
      <trkpt lat="-22.11164287291467189788818359375" lon="166.4548034034669399261474609375">
        <ele>423</ele>
        <time>2016-08-12T18:08:12.000Z</time>
        <extensions>
          <ns3:TrackPointExtension>
            <ns3:atemp>19.0</ns3:atemp>
            <ns3:hr>144</ns3:hr>
          </ns3:TrackPointExtension>
        </extensions>
      </trkpt>
      <trkpt lat="-22.11162610910832881927490234375" lon="166.454785801470279693603515625">
        <ele>423.399993896484375</ele>
        <time>2016-08-12T18:08:13.000Z</time>
        <extensions>
          <ns3:TrackPointExtension>
            <ns3:atemp>19.0</ns3:atemp>
            <ns3:hr>144</ns3:hr>
          </ns3:TrackPointExtension>
        </extensions>
      </trkpt>
      <trkpt lat="-22.11161571554839611053466796875" lon="166.45476543344557285308837890625">
        <ele>423.600006103515625</ele>
        <time>2016-08-12T18:08:14.000Z</time>
        <extensions>
          <ns3:TrackPointExtension>
            <ns3:atemp>19.0</ns3:atemp>
            <ns3:hr>144</ns3:hr>
          </ns3:TrackPointExtension>
        </extensions>
      </trkpt>
      <trkpt lat="-22.1115958504378795623779296875" lon="166.45474866963922977447509765625">
        <ele>423.600006103515625</ele>
        <time>2016-08-12T18:08:15.000Z</time>
        <extensions>
          <ns3:TrackPointExtension>
            <ns3:atemp>19.0</ns3:atemp>
            <ns3:hr>143</ns3:hr>
          </ns3:TrackPointExtension>
        </extensions>
      </trkpt>
      <trkpt lat="-22.1115790866315364837646484375" lon="166.45473509095609188079833984375">
        <ele>423.79998779296875</ele>
        <time>2016-08-12T18:08:16.000Z</time>
        <extensions>
          <ns3:TrackPointExtension>
            <ns3:atemp>19.0</ns3:atemp>
            <ns3:hr>142</ns3:hr>
          </ns3:TrackPointExtension>
        </extensions>
      </trkpt>
      <trkpt lat="-22.111568190157413482666015625" lon="166.45471916534006595611572265625">
        <ele>423.79998779296875</ele>
        <time>2016-08-12T18:08:17.000Z</time>
        <extensions>
          <ns3:TrackPointExtension>
            <ns3:atemp>19.0</ns3:atemp>
            <ns3:hr>142</ns3:hr>
          </ns3:TrackPointExtension>
        </extensions>
      </trkpt>
      <trkpt lat="-22.11155109107494354248046875" lon="166.45470793358981609344482421875">
        <ele>424</ele>
        <time>2016-08-12T18:08:18.000Z</time>
        <extensions>
          <ns3:TrackPointExtension>
            <ns3:atemp>19.0</ns3:atemp>
            <ns3:hr>141</ns3:hr>
          </ns3:TrackPointExtension>
        </extensions>
      </trkpt>
      <trkpt lat="-22.11153290234506130218505859375" lon="166.4546956121921539306640625">
        <ele>424.20001220703125</ele>
        <time>2016-08-12T18:08:19.000Z</time>
        <extensions>
          <ns3:TrackPointExtension>
            <ns3:atemp>19.0</ns3:atemp>
            <ns3:hr>140</ns3:hr>
          </ns3:TrackPointExtension>
        </extensions>
      </trkpt>
      <trkpt lat="-22.11150792427361011505126953125" lon="166.45469083450734615325927734375">
        <ele>424.20001220703125</ele>
        <time>2016-08-12T18:08:20.000Z</time>
        <extensions>
          <ns3:TrackPointExtension>
            <ns3:atemp>19.0</ns3:atemp>
            <ns3:hr>140</ns3:hr>
          </ns3:TrackPointExtension>
        </extensions>
      </trkpt>
      <trkpt lat="-22.11148663423955440521240234375" lon="166.45468161441385746002197265625">
        <ele>424.399993896484375</ele>
        <time>2016-08-12T18:08:21.000Z</time>
        <extensions>
          <ns3:TrackPointExtension>
            <ns3:atemp>19.0</ns3:atemp>
            <ns3:hr>139</ns3:hr>
          </ns3:TrackPointExtension>
        </extensions>
      </trkpt>
      <trkpt lat="-22.1114637516438961029052734375" lon="166.45466987974941730499267578125">
        <ele>424.600006103515625</ele>
        <time>2016-08-12T18:08:22.000Z</time>
        <extensions>
          <ns3:TrackPointExtension>
            <ns3:atemp>19.0</ns3:atemp>
            <ns3:hr>139</ns3:hr>
          </ns3:TrackPointExtension>
        </extensions>
      </trkpt>
      <trkpt lat="-22.11143843829631805419921875" lon="166.45466350950300693511962890625">
        <ele>424.79998779296875</ele>
        <time>2016-08-12T18:08:23.000Z</time>
        <extensions>
          <ns3:TrackPointExtension>
            <ns3:atemp>19.0</ns3:atemp>
            <ns3:hr>138</ns3:hr>
          </ns3:TrackPointExtension>
        </extensions>
      </trkpt>
      <trkpt lat="-22.11141069419682025909423828125" lon="166.45466015674173831939697265625">
        <ele>424.79998779296875</ele>
        <time>2016-08-12T18:08:24.000Z</time>
        <extensions>
          <ns3:TrackPointExtension>
            <ns3:atemp>19.0</ns3:atemp>
            <ns3:hr>138</ns3:hr>
          </ns3:TrackPointExtension>
        </extensions>
      </trkpt>
      <trkpt lat="-22.1113812737166881561279296875" lon="166.45466887392103672027587890625">
        <ele>425.20001220703125</ele>
        <time>2016-08-12T18:08:25.000Z</time>
        <extensions>
          <ns3:TrackPointExtension>
            <ns3:atemp>19.0</ns3:atemp>
            <ns3:hr>138</ns3:hr>
          </ns3:TrackPointExtension>
        </extensions>
      </trkpt>
      <trkpt lat="-22.1113571338355541229248046875" lon="166.454666443169116973876953125">
        <ele>425.399993896484375</ele>
        <time>2016-08-12T18:08:26.000Z</time>
        <extensions>
          <ns3:TrackPointExtension>
            <ns3:atemp>19.0</ns3:atemp>
            <ns3:hr>137</ns3:hr>
          </ns3:TrackPointExtension>
        </extensions>
      </trkpt>
      <trkpt lat="-22.11133643053472042083740234375" lon="166.4546666108071804046630859375">
        <ele>425.399993896484375</ele>
        <time>2016-08-12T18:08:27.000Z</time>
        <extensions>
          <ns3:TrackPointExtension>
            <ns3:atemp>19.0</ns3:atemp>
            <ns3:hr>138</ns3:hr>
          </ns3:TrackPointExtension>
        </extensions>
      </trkpt>
      <trkpt lat="-22.1113128773868083953857421875" lon="166.45467809401452541351318359375">
        <ele>425.79998779296875</ele>
        <time>2016-08-12T18:08:28.000Z</time>
        <extensions>
          <ns3:TrackPointExtension>
            <ns3:atemp>19.0</ns3:atemp>
            <ns3:hr>138</ns3:hr>
          </ns3:TrackPointExtension>
        </extensions>
      </trkpt>
      <trkpt lat="-22.11129385046660900115966796875" lon="166.45468312315642833709716796875">
        <ele>426</ele>
        <time>2016-08-12T18:08:29.000Z</time>
        <extensions>
          <ns3:TrackPointExtension>
            <ns3:atemp>19.0</ns3:atemp>
            <ns3:hr>138</ns3:hr>
          </ns3:TrackPointExtension>
        </extensions>
      </trkpt>
      <trkpt lat="-22.111272476613521575927734375" lon="166.45467574708163738250732421875">
        <ele>426.20001220703125</ele>
        <time>2016-08-12T18:08:30.000Z</time>
        <extensions>
          <ns3:TrackPointExtension>
            <ns3:atemp>19.0</ns3:atemp>
            <ns3:hr>139</ns3:hr>
          </ns3:TrackPointExtension>
        </extensions>
      </trkpt>
      <trkpt lat="-22.11125764064490795135498046875" lon="166.45466233603656291961669921875">
        <ele>426.20001220703125</ele>
        <time>2016-08-12T18:08:31.000Z</time>
        <extensions>
          <ns3:TrackPointExtension>
            <ns3:atemp>19.0</ns3:atemp>
            <ns3:hr>139</ns3:hr>
          </ns3:TrackPointExtension>
        </extensions>
      </trkpt>
      <trkpt lat="-22.111242972314357757568359375" lon="166.454655714333057403564453125">
        <ele>426.20001220703125</ele>
        <time>2016-08-12T18:08:32.000Z</time>
        <extensions>
          <ns3:TrackPointExtension>
            <ns3:atemp>19.0</ns3:atemp>
            <ns3:hr>140</ns3:hr>
          </ns3:TrackPointExtension>
        </extensions>
      </trkpt>
      <trkpt lat="-22.11123266257345676422119140625" lon="166.45465428940951824188232421875">
        <ele>426.20001220703125</ele>
        <time>2016-08-12T18:08:33.000Z</time>
        <extensions>
          <ns3:TrackPointExtension>
            <ns3:atemp>19.0</ns3:atemp>
            <ns3:hr>140</ns3:hr>
          </ns3:TrackPointExtension>
        </extensions>
      </trkpt>
      <trkpt lat="-22.1112260408699512481689453125" lon="166.4546526968479156494140625">
        <ele>426</ele>
        <time>2016-08-12T18:08:34.000Z</time>
        <extensions>
          <ns3:TrackPointExtension>
            <ns3:atemp>19.0</ns3:atemp>
            <ns3:hr>141</ns3:hr>
          </ns3:TrackPointExtension>
        </extensions>
      </trkpt>
      <trkpt lat="-22.11122109554708003997802734375" lon="166.45465412177145481109619140625">
        <ele>426</ele>
        <time>2016-08-12T18:08:35.000Z</time>
        <extensions>
          <ns3:TrackPointExtension>
            <ns3:atemp>19.0</ns3:atemp>
            <ns3:hr>141</ns3:hr>
          </ns3:TrackPointExtension>
        </extensions>
      </trkpt>
      <trkpt lat="-22.1112139709293842315673828125" lon="166.454655043780803680419921875">
        <ele>426</ele>
        <time>2016-08-12T18:08:36.000Z</time>
        <extensions>
          <ns3:TrackPointExtension>
            <ns3:atemp>19.0</ns3:atemp>
            <ns3:hr>141</ns3:hr>
          </ns3:TrackPointExtension>
        </extensions>
      </trkpt>
      <trkpt lat="-22.11120584048330783843994140625" lon="166.4546526968479156494140625">
        <ele>426</ele>
        <time>2016-08-12T18:08:37.000Z</time>
        <extensions>
          <ns3:TrackPointExtension>
            <ns3:atemp>19.0</ns3:atemp>
            <ns3:hr>141</ns3:hr>
          </ns3:TrackPointExtension>
        </extensions>
      </trkpt>
      <trkpt lat="-22.11119301617145538330078125" lon="166.45465202629566192626953125">
        <ele>426.20001220703125</ele>
        <time>2016-08-12T18:08:38.000Z</time>
        <extensions>
          <ns3:TrackPointExtension>
            <ns3:atemp>19.0</ns3:atemp>
            <ns3:hr>141</ns3:hr>
          </ns3:TrackPointExtension>
        </extensions>
      </trkpt>
      <trkpt lat="-22.11117801256477832794189453125" lon="166.454656384885311126708984375">
        <ele>426.600006103515625</ele>
        <time>2016-08-12T18:08:39.000Z</time>
        <extensions>
          <ns3:TrackPointExtension>
            <ns3:atemp>19.0</ns3:atemp>
            <ns3:hr>141</ns3:hr>
          </ns3:TrackPointExtension>
        </extensions>
      </trkpt>
      <trkpt lat="-22.11116577498614788055419921875" lon="166.45466082729399204254150390625">
        <ele>426.600006103515625</ele>
        <time>2016-08-12T18:08:40.000Z</time>
        <extensions>
          <ns3:TrackPointExtension>
            <ns3:atemp>19.0</ns3:atemp>
            <ns3:hr>141</ns3:hr>
          </ns3:TrackPointExtension>
        </extensions>
      </trkpt>
      <trkpt lat="-22.111152447760105133056640625" lon="166.45467105321586132049560546875">
        <ele>426.600006103515625</ele>
        <time>2016-08-12T18:08:41.000Z</time>
        <extensions>
          <ns3:TrackPointExtension>
            <ns3:atemp>19.0</ns3:atemp>
            <ns3:hr>141</ns3:hr>
          </ns3:TrackPointExtension>
        </extensions>
      </trkpt>
      <trkpt lat="-22.11113727651536464691162109375" lon="166.4546833746135234832763671875">
        <ele>426.79998779296875</ele>
        <time>2016-08-12T18:08:42.000Z</time>
        <extensions>
          <ns3:TrackPointExtension>
            <ns3:atemp>19.0</ns3:atemp>
            <ns3:hr>142</ns3:hr>
          </ns3:TrackPointExtension>
        </extensions>
      </trkpt>
      <trkpt lat="-22.11111900396645069122314453125" lon="166.45469502545893192291259765625">
        <ele>426.79998779296875</ele>
        <time>2016-08-12T18:08:43.000Z</time>
        <extensions>
          <ns3:TrackPointExtension>
            <ns3:atemp>19.0</ns3:atemp>
            <ns3:hr>142</ns3:hr>
          </ns3:TrackPointExtension>
        </extensions>
      </trkpt>
      <trkpt lat="-22.1111033298075199127197265625" lon="166.4547118730843067169189453125">
        <ele>426.600006103515625</ele>
        <time>2016-08-12T18:08:44.000Z</time>
        <extensions>
          <ns3:TrackPointExtension>
            <ns3:atemp>19.0</ns3:atemp>
            <ns3:hr>142</ns3:hr>
          </ns3:TrackPointExtension>
        </extensions>
      </trkpt>
      <trkpt lat="-22.11109000258147716522216796875" lon="166.45472520031034946441650390625">
        <ele>426.79998779296875</ele>
        <time>2016-08-12T18:08:45.000Z</time>
        <extensions>
          <ns3:TrackPointExtension>
            <ns3:atemp>19.0</ns3:atemp>
            <ns3:hr>142</ns3:hr>
          </ns3:TrackPointExtension>
        </extensions>
      </trkpt>
      <trkpt lat="-22.11107005365192890167236328125" lon="166.45473911426961421966552734375">
        <ele>426.79998779296875</ele>
        <time>2016-08-12T18:08:46.000Z</time>
        <extensions>
          <ns3:TrackPointExtension>
            <ns3:atemp>19.0</ns3:atemp>
            <ns3:hr>142</ns3:hr>
          </ns3:TrackPointExtension>
        </extensions>
      </trkpt>
      <trkpt lat="-22.11105194874107837677001953125" lon="166.45475939847528934478759765625">
        <ele>427</ele>
        <time>2016-08-12T18:08:47.000Z</time>
        <extensions>
          <ns3:TrackPointExtension>
            <ns3:atemp>19.0</ns3:atemp>
            <ns3:hr>142</ns3:hr>
          </ns3:TrackPointExtension>
        </extensions>
      </trkpt>
      <trkpt lat="-22.11103853769600391387939453125" lon="166.45477834157645702362060546875">
        <ele>427.20001220703125</ele>
        <time>2016-08-12T18:08:48.000Z</time>
        <extensions>
          <ns3:TrackPointExtension>
            <ns3:atemp>19.0</ns3:atemp>
            <ns3:hr>142</ns3:hr>
          </ns3:TrackPointExtension>
        </extensions>
      </trkpt>
      <trkpt lat="-22.111024372279644012451171875" lon="166.45479292608797550201416015625">
        <ele>427.399993896484375</ele>
        <time>2016-08-12T18:08:49.000Z</time>
        <extensions>
          <ns3:TrackPointExtension>
            <ns3:atemp>19.0</ns3:atemp>
            <ns3:hr>141</ns3:hr>
          </ns3:TrackPointExtension>
        </extensions>
      </trkpt>
      <trkpt lat="-22.1110077761113643646240234375" lon="166.454806588590145111083984375">
        <ele>427.399993896484375</ele>
        <time>2016-08-12T18:08:50.000Z</time>
        <extensions>
          <ns3:TrackPointExtension>
            <ns3:atemp>19.0</ns3:atemp>
            <ns3:hr>141</ns3:hr>
          </ns3:TrackPointExtension>
        </extensions>
      </trkpt>
      <trkpt lat="-22.110997550189495086669921875" lon="166.45481639541685581207275390625">
        <ele>427.600006103515625</ele>
        <time>2016-08-12T18:08:51.000Z</time>
        <extensions>
          <ns3:TrackPointExtension>
            <ns3:atemp>19.0</ns3:atemp>
            <ns3:hr>141</ns3:hr>
          </ns3:TrackPointExtension>
        </extensions>
      </trkpt>
      <trkpt lat="-22.1109779365360736846923828125" lon="166.45482963882386684417724609375">
        <ele>427.79998779296875</ele>
        <time>2016-08-12T18:08:52.000Z</time>
        <extensions>
          <ns3:TrackPointExtension>
            <ns3:atemp>19.0</ns3:atemp>
            <ns3:hr>141</ns3:hr>
          </ns3:TrackPointExtension>
        </extensions>
      </trkpt>
      <trkpt lat="-22.11095320992171764373779296875" lon="166.4548493362963199615478515625">
        <ele>428</ele>
        <time>2016-08-12T18:08:53.000Z</time>
        <extensions>
          <ns3:TrackPointExtension>
            <ns3:atemp>19.0</ns3:atemp>
            <ns3:hr>140</ns3:hr>
          </ns3:TrackPointExtension>
        </extensions>
      </trkpt>
      <trkpt lat="-22.1109373681247234344482421875" lon="166.45486392080783843994140625">
        <ele>428</ele>
        <time>2016-08-12T18:08:54.000Z</time>
        <extensions>
          <ns3:TrackPointExtension>
            <ns3:atemp>19.0</ns3:atemp>
            <ns3:hr>141</ns3:hr>
          </ns3:TrackPointExtension>
        </extensions>
      </trkpt>
      <trkpt lat="-22.11091465316712856292724609375" lon="166.45487674511969089508056640625">
        <ele>428.399993896484375</ele>
        <time>2016-08-12T18:08:55.000Z</time>
        <extensions>
          <ns3:TrackPointExtension>
            <ns3:atemp>19.0</ns3:atemp>
            <ns3:hr>140</ns3:hr>
          </ns3:TrackPointExtension>
        </extensions>
      </trkpt>
      <trkpt lat="-22.11089621298015117645263671875" lon="166.45489082671701908111572265625">
        <ele>428.600006103515625</ele>
        <time>2016-08-12T18:08:56.000Z</time>
        <extensions>
          <ns3:TrackPointExtension>
            <ns3:atemp>19.0</ns3:atemp>
            <ns3:hr>140</ns3:hr>
          </ns3:TrackPointExtension>
        </extensions>
      </trkpt>
      <trkpt lat="-22.1108830533921718597412109375" lon="166.454903818666934967041015625">
        <ele>428.399993896484375</ele>
        <time>2016-08-12T18:08:57.000Z</time>
        <extensions>
          <ns3:TrackPointExtension>
            <ns3:atemp>19.0</ns3:atemp>
            <ns3:hr>140</ns3:hr>
          </ns3:TrackPointExtension>
        </extensions>
      </trkpt>
      <trkpt lat="-22.11086670868098735809326171875" lon="166.454918570816516876220703125">
        <ele>428.600006103515625</ele>
        <time>2016-08-12T18:08:58.000Z</time>
        <extensions>
          <ns3:TrackPointExtension>
            <ns3:atemp>19.0</ns3:atemp>
            <ns3:hr>140</ns3:hr>
          </ns3:TrackPointExtension>
        </extensions>
      </trkpt>
      <trkpt lat="-22.11085178889334201812744140625" lon="166.45493307150900363922119140625">
        <ele>429</ele>
        <time>2016-08-12T18:08:59.000Z</time>
        <extensions>
          <ns3:TrackPointExtension>
            <ns3:atemp>19.0</ns3:atemp>
            <ns3:hr>140</ns3:hr>
          </ns3:TrackPointExtension>
        </extensions>
      </trkpt>
      <trkpt lat="-22.1108327619731426239013671875" lon="166.45494849421083927154541015625">
        <ele>429</ele>
        <time>2016-08-12T18:09:00.000Z</time>
        <extensions>
          <ns3:TrackPointExtension>
            <ns3:atemp>19.0</ns3:atemp>
            <ns3:hr>140</ns3:hr>
          </ns3:TrackPointExtension>
        </extensions>
      </trkpt>
      <trkpt lat="-22.11081708781421184539794921875" lon="166.454962827265262603759765625">
        <ele>428.79998779296875</ele>
        <time>2016-08-12T18:09:01.000Z</time>
        <extensions>
          <ns3:TrackPointExtension>
            <ns3:atemp>19.0</ns3:atemp>
            <ns3:hr>141</ns3:hr>
          </ns3:TrackPointExtension>
        </extensions>
      </trkpt>
      <trkpt lat="-22.11079579778015613555908203125" lon="166.45497850142419338226318359375">
        <ele>429</ele>
        <time>2016-08-12T18:09:02.000Z</time>
        <extensions>
          <ns3:TrackPointExtension>
            <ns3:atemp>19.0</ns3:atemp>
            <ns3:hr>140</ns3:hr>
          </ns3:TrackPointExtension>
        </extensions>
      </trkpt>
      <trkpt lat="-22.110770232975482940673828125" lon="166.45499811507761478424072265625">
        <ele>429.20001220703125</ele>
        <time>2016-08-12T18:09:03.000Z</time>
        <extensions>
          <ns3:TrackPointExtension>
            <ns3:atemp>19.0</ns3:atemp>
            <ns3:hr>141</ns3:hr>
          </ns3:TrackPointExtension>
        </extensions>
      </trkpt>
      <trkpt lat="-22.110747434198856353759765625" lon="166.45501538179814815521240234375">
        <ele>429.20001220703125</ele>
        <time>2016-08-12T18:09:04.000Z</time>
        <extensions>
          <ns3:TrackPointExtension>
            <ns3:atemp>19.0</ns3:atemp>
            <ns3:hr>141</ns3:hr>
          </ns3:TrackPointExtension>
        </extensions>
      </trkpt>
      <trkpt lat="-22.11072371341288089752197265625" lon="166.45502862520515918731689453125">
        <ele>429.20001220703125</ele>
        <time>2016-08-12T18:09:05.000Z</time>
        <extensions>
          <ns3:TrackPointExtension>
            <ns3:atemp>19.0</ns3:atemp>
            <ns3:hr>140</ns3:hr>
          </ns3:TrackPointExtension>
        </extensions>
      </trkpt>
      <trkpt lat="-22.110701166093349456787109375" lon="166.455040276050567626953125">
        <ele>429.399993896484375</ele>
        <time>2016-08-12T18:09:06.000Z</time>
        <extensions>
          <ns3:TrackPointExtension>
            <ns3:atemp>19.0</ns3:atemp>
            <ns3:hr>141</ns3:hr>
          </ns3:TrackPointExtension>
        </extensions>
      </trkpt>
      <trkpt lat="-22.1106788702309131622314453125" lon="166.45505410619080066680908203125">
        <ele>429.399993896484375</ele>
        <time>2016-08-12T18:09:07.000Z</time>
        <extensions>
          <ns3:TrackPointExtension>
            <ns3:atemp>19.0</ns3:atemp>
            <ns3:hr>140</ns3:hr>
          </ns3:TrackPointExtension>
        </extensions>
      </trkpt>
      <trkpt lat="-22.11066068150103092193603515625" lon="166.4550679363310337066650390625">
        <ele>429.20001220703125</ele>
        <time>2016-08-12T18:09:08.000Z</time>
        <extensions>
          <ns3:TrackPointExtension>
            <ns3:atemp>19.0</ns3:atemp>
            <ns3:hr>140</ns3:hr>
          </ns3:TrackPointExtension>
        </extensions>
      </trkpt>
      <trkpt lat="-22.11064140312373638153076171875" lon="166.4550826884806156158447265625">
        <ele>429.399993896484375</ele>
        <time>2016-08-12T18:09:09.000Z</time>
        <extensions>
          <ns3:TrackPointExtension>
            <ns3:atemp>19.0</ns3:atemp>
            <ns3:hr>140</ns3:hr>
          </ns3:TrackPointExtension>
        </extensions>
      </trkpt>
      <trkpt lat="-22.11061458103358745574951171875" lon="166.4550991170108318328857421875">
        <ele>429.79998779296875</ele>
        <time>2016-08-12T18:09:10.000Z</time>
        <extensions>
          <ns3:TrackPointExtension>
            <ns3:atemp>19.0</ns3:atemp>
            <ns3:hr>140</ns3:hr>
          </ns3:TrackPointExtension>
        </extensions>
      </trkpt>
      <trkpt lat="-22.11059262044727802276611328125" lon="166.4551121927797794342041015625">
        <ele>429.600006103515625</ele>
        <time>2016-08-12T18:09:11.000Z</time>
        <extensions>
          <ns3:TrackPointExtension>
            <ns3:atemp>19.0</ns3:atemp>
            <ns3:hr>140</ns3:hr>
          </ns3:TrackPointExtension>
        </extensions>
      </trkpt>
      <trkpt lat="-22.11057300679385662078857421875" lon="166.4551220834255218505859375">
        <ele>429.600006103515625</ele>
        <time>2016-08-12T18:09:12.000Z</time>
        <extensions>
          <ns3:TrackPointExtension>
            <ns3:atemp>19.0</ns3:atemp>
            <ns3:hr>140</ns3:hr>
          </ns3:TrackPointExtension>
        </extensions>
      </trkpt>
      <trkpt lat="-22.1105561591684818267822265625" lon="166.45513172261416912078857421875">
        <ele>429.79998779296875</ele>
        <time>2016-08-12T18:09:13.000Z</time>
        <extensions>
          <ns3:TrackPointExtension>
            <ns3:atemp>19.0</ns3:atemp>
            <ns3:hr>140</ns3:hr>
          </ns3:TrackPointExtension>
        </extensions>
      </trkpt>
      <trkpt lat="-22.1105373837053775787353515625" lon="166.45514211617410182952880859375">
        <ele>430</ele>
        <time>2016-08-12T18:09:14.000Z</time>
        <extensions>
          <ns3:TrackPointExtension>
            <ns3:atemp>19.0</ns3:atemp>
            <ns3:hr>140</ns3:hr>
          </ns3:TrackPointExtension>
        </extensions>
      </trkpt>
      <trkpt lat="-22.1105176024138927459716796875" lon="166.45515033043920993804931640625">
        <ele>430</ele>
        <time>2016-08-12T18:09:15.000Z</time>
        <extensions>
          <ns3:TrackPointExtension>
            <ns3:atemp>19.0</ns3:atemp>
            <ns3:hr>140</ns3:hr>
          </ns3:TrackPointExtension>
        </extensions>
      </trkpt>
      <trkpt lat="-22.11049974896013736724853515625" lon="166.4551587961614131927490234375">
        <ele>430</ele>
        <time>2016-08-12T18:09:16.000Z</time>
        <extensions>
          <ns3:TrackPointExtension>
            <ns3:atemp>19.0</ns3:atemp>
            <ns3:hr>140</ns3:hr>
          </ns3:TrackPointExtension>
        </extensions>
      </trkpt>
      <trkpt lat="-22.110479213297367095947265625" lon="166.45516701042652130126953125">
        <ele>430.399993896484375</ele>
        <time>2016-08-12T18:09:17.000Z</time>
        <extensions>
          <ns3:TrackPointExtension>
            <ns3:atemp>19.0</ns3:atemp>
            <ns3:hr>140</ns3:hr>
          </ns3:TrackPointExtension>
        </extensions>
      </trkpt>
      <trkpt lat="-22.11046278476715087890625" lon="166.45517547614872455596923828125">
        <ele>430.20001220703125</ele>
        <time>2016-08-12T18:09:18.000Z</time>
        <extensions>
          <ns3:TrackPointExtension>
            <ns3:atemp>19.0</ns3:atemp>
            <ns3:hr>140</ns3:hr>
          </ns3:TrackPointExtension>
        </extensions>
      </trkpt>
      <trkpt lat="-22.1104466915130615234375" lon="166.45518201403319835662841796875">
        <ele>430.20001220703125</ele>
        <time>2016-08-12T18:09:19.000Z</time>
        <extensions>
          <ns3:TrackPointExtension>
            <ns3:atemp>19.0</ns3:atemp>
            <ns3:hr>140</ns3:hr>
          </ns3:TrackPointExtension>
        </extensions>
      </trkpt>
      <trkpt lat="-22.11042481474578380584716796875" lon="166.455190815031528472900390625">
        <ele>430.399993896484375</ele>
        <time>2016-08-12T18:09:20.000Z</time>
        <extensions>
          <ns3:TrackPointExtension>
            <ns3:atemp>19.0</ns3:atemp>
            <ns3:hr>140</ns3:hr>
          </ns3:TrackPointExtension>
        </extensions>
      </trkpt>
      <trkpt lat="-22.1104039438068866729736328125" lon="166.45519944839179515838623046875">
        <ele>430.600006103515625</ele>
        <time>2016-08-12T18:09:21.000Z</time>
        <extensions>
          <ns3:TrackPointExtension>
            <ns3:atemp>19.0</ns3:atemp>
            <ns3:hr>140</ns3:hr>
          </ns3:TrackPointExtension>
        </extensions>
      </trkpt>
      <trkpt lat="-22.1103861741721630096435546875" lon="166.4552050642669200897216796875">
        <ele>430.399993896484375</ele>
        <time>2016-08-12T18:09:22.000Z</time>
        <extensions>
          <ns3:TrackPointExtension>
            <ns3:atemp>19.0</ns3:atemp>
            <ns3:hr>140</ns3:hr>
          </ns3:TrackPointExtension>
        </extensions>
      </trkpt>
      <trkpt lat="-22.11036362685263156890869140625" lon="166.4552114345133304595947265625">
        <ele>430.600006103515625</ele>
        <time>2016-08-12T18:09:23.000Z</time>
        <extensions>
          <ns3:TrackPointExtension>
            <ns3:atemp>19.0</ns3:atemp>
            <ns3:hr>140</ns3:hr>
          </ns3:TrackPointExtension>
        </extensions>
      </trkpt>
      <trkpt lat="-22.11034535430371761322021484375" lon="166.45521772094070911407470703125">
        <ele>430.79998779296875</ele>
        <time>2016-08-12T18:09:24.000Z</time>
        <extensions>
          <ns3:TrackPointExtension>
            <ns3:atemp>19.0</ns3:atemp>
            <ns3:hr>139</ns3:hr>
          </ns3:TrackPointExtension>
        </extensions>
      </trkpt>
      <trkpt lat="-22.1103281714022159576416015625" lon="166.45522761158645153045654296875">
        <ele>430.79998779296875</ele>
        <time>2016-08-12T18:09:25.000Z</time>
        <extensions>
          <ns3:TrackPointExtension>
            <ns3:atemp>19.0</ns3:atemp>
            <ns3:hr>139</ns3:hr>
          </ns3:TrackPointExtension>
        </extensions>
      </trkpt>
      <trkpt lat="-22.1103085577487945556640625" lon="166.455239094793796539306640625">
        <ele>430.79998779296875</ele>
        <time>2016-08-12T18:09:26.000Z</time>
        <extensions>
          <ns3:TrackPointExtension>
            <ns3:atemp>19.0</ns3:atemp>
            <ns3:hr>139</ns3:hr>
          </ns3:TrackPointExtension>
        </extensions>
      </trkpt>
      <trkpt lat="-22.1102852560579776763916015625" lon="166.4552526734769344329833984375">
        <ele>431.20001220703125</ele>
        <time>2016-08-12T18:09:27.000Z</time>
        <extensions>
          <ns3:TrackPointExtension>
            <ns3:atemp>19.0</ns3:atemp>
            <ns3:hr>139</ns3:hr>
          </ns3:TrackPointExtension>
        </extensions>
      </trkpt>
      <trkpt lat="-22.1102621220052242279052734375" lon="166.455264575779438018798828125">
        <ele>431.20001220703125</ele>
        <time>2016-08-12T18:09:28.000Z</time>
        <extensions>
          <ns3:TrackPointExtension>
            <ns3:atemp>19.0</ns3:atemp>
            <ns3:hr>139</ns3:hr>
          </ns3:TrackPointExtension>
        </extensions>
      </trkpt>
      <trkpt lat="-22.1102386526763439178466796875" lon="166.4552791602909564971923828125">
        <ele>431.20001220703125</ele>
        <time>2016-08-12T18:09:29.000Z</time>
        <extensions>
          <ns3:TrackPointExtension>
            <ns3:atemp>19.0</ns3:atemp>
            <ns3:hr>139</ns3:hr>
          </ns3:TrackPointExtension>
        </extensions>
      </trkpt>
      <trkpt lat="-22.11022465489804744720458984375" lon="166.4552937448024749755859375">
        <ele>431.600006103515625</ele>
        <time>2016-08-12T18:09:30.000Z</time>
        <extensions>
          <ns3:TrackPointExtension>
            <ns3:atemp>19.0</ns3:atemp>
            <ns3:hr>139</ns3:hr>
          </ns3:TrackPointExtension>
        </extensions>
      </trkpt>
      <trkpt lat="-22.1102108247578144073486328125" lon="166.45531444810330867767333984375">
        <ele>431.79998779296875</ele>
        <time>2016-08-12T18:09:31.000Z</time>
        <extensions>
          <ns3:TrackPointExtension>
            <ns3:atemp>19.0</ns3:atemp>
            <ns3:hr>139</ns3:hr>
          </ns3:TrackPointExtension>
        </extensions>
      </trkpt>
      <trkpt lat="-22.11019498296082019805908203125" lon="166.4553304575383663177490234375">
        <ele>431.79998779296875</ele>
        <time>2016-08-12T18:09:32.000Z</time>
        <extensions>
          <ns3:TrackPointExtension>
            <ns3:atemp>19.0</ns3:atemp>
            <ns3:hr>139</ns3:hr>
          </ns3:TrackPointExtension>
        </extensions>
      </trkpt>
      <trkpt lat="-22.11017914116382598876953125" lon="166.4553462155163288116455078125">
        <ele>431.79998779296875</ele>
        <time>2016-08-12T18:09:33.000Z</time>
        <extensions>
          <ns3:TrackPointExtension>
            <ns3:atemp>19.0</ns3:atemp>
            <ns3:hr>139</ns3:hr>
          </ns3:TrackPointExtension>
        </extensions>
      </trkpt>
      <trkpt lat="-22.11016614921391010284423828125" lon="166.45536147058010101318359375">
        <ele>432</ele>
        <time>2016-08-12T18:09:34.000Z</time>
        <extensions>
          <ns3:TrackPointExtension>
            <ns3:atemp>19.0</ns3:atemp>
            <ns3:hr>139</ns3:hr>
          </ns3:TrackPointExtension>
        </extensions>
      </trkpt>
      <trkpt lat="-22.110148966312408447265625" lon="166.45537622272968292236328125">
        <ele>432</ele>
        <time>2016-08-12T18:09:35.000Z</time>
        <extensions>
          <ns3:TrackPointExtension>
            <ns3:atemp>19.0</ns3:atemp>
            <ns3:hr>139</ns3:hr>
          </ns3:TrackPointExtension>
        </extensions>
      </trkpt>
      <trkpt lat="-22.11012843064963817596435546875" lon="166.45538988523185253143310546875">
        <ele>432</ele>
        <time>2016-08-12T18:09:36.000Z</time>
        <extensions>
          <ns3:TrackPointExtension>
            <ns3:atemp>19.0</ns3:atemp>
            <ns3:hr>139</ns3:hr>
          </ns3:TrackPointExtension>
        </extensions>
      </trkpt>
      <trkpt lat="-22.11011116392910480499267578125" lon="166.455402374267578125">
        <ele>432</ele>
        <time>2016-08-12T18:09:37.000Z</time>
        <extensions>
          <ns3:TrackPointExtension>
            <ns3:atemp>19.0</ns3:atemp>
            <ns3:hr>139</ns3:hr>
          </ns3:TrackPointExtension>
        </extensions>
      </trkpt>
      <trkpt lat="-22.11009356193244457244873046875" lon="166.45540983416140079498291015625">
        <ele>432.399993896484375</ele>
        <time>2016-08-12T18:09:38.000Z</time>
        <extensions>
          <ns3:TrackPointExtension>
            <ns3:atemp>19.0</ns3:atemp>
            <ns3:hr>139</ns3:hr>
          </ns3:TrackPointExtension>
        </extensions>
      </trkpt>
      <trkpt lat="-22.11007830686867237091064453125" lon="166.45541637204587459564208984375">
        <ele>432.600006103515625</ele>
        <time>2016-08-12T18:09:39.000Z</time>
        <extensions>
          <ns3:TrackPointExtension>
            <ns3:atemp>19.0</ns3:atemp>
            <ns3:hr>140</ns3:hr>
          </ns3:TrackPointExtension>
        </extensions>
      </trkpt>
      <trkpt lat="-22.1100622974336147308349609375" lon="166.45542140118777751922607421875">
        <ele>432.399993896484375</ele>
        <time>2016-08-12T18:09:40.000Z</time>
        <extensions>
          <ns3:TrackPointExtension>
            <ns3:atemp>19.0</ns3:atemp>
            <ns3:hr>140</ns3:hr>
          </ns3:TrackPointExtension>
        </extensions>
      </trkpt>
      <trkpt lat="-22.1100462041795253753662109375" lon="166.4554270170629024505615234375">
        <ele>432.399993896484375</ele>
        <time>2016-08-12T18:09:41.000Z</time>
        <extensions>
          <ns3:TrackPointExtension>
            <ns3:atemp>19.0</ns3:atemp>
            <ns3:hr>140</ns3:hr>
          </ns3:TrackPointExtension>
        </extensions>
      </trkpt>
      <trkpt lat="-22.11002835072576999664306640625" lon="166.45543120801448822021484375">
        <ele>432.600006103515625</ele>
        <time>2016-08-12T18:09:42.000Z</time>
        <extensions>
          <ns3:TrackPointExtension>
            <ns3:atemp>19.0</ns3:atemp>
            <ns3:hr>140</ns3:hr>
          </ns3:TrackPointExtension>
        </extensions>
      </trkpt>
      <trkpt lat="-22.11000882089138031005859375" lon="166.455439589917659759521484375">
        <ele>432.600006103515625</ele>
        <time>2016-08-12T18:09:43.000Z</time>
        <extensions>
          <ns3:TrackPointExtension>
            <ns3:atemp>19.0</ns3:atemp>
            <ns3:hr>140</ns3:hr>
          </ns3:TrackPointExtension>
        </extensions>
      </trkpt>
      <trkpt lat="-22.1099908836185932159423828125" lon="166.4554407633841037750244140625">
        <ele>432.399993896484375</ele>
        <time>2016-08-12T18:09:44.000Z</time>
        <extensions>
          <ns3:TrackPointExtension>
            <ns3:atemp>19.0</ns3:atemp>
            <ns3:hr>139</ns3:hr>
          </ns3:TrackPointExtension>
        </extensions>
      </trkpt>
      <trkpt lat="-22.10997403599321842193603515625" lon="166.455435566604137420654296875">
        <ele>432.20001220703125</ele>
        <time>2016-08-12T18:09:45.000Z</time>
        <extensions>
          <ns3:TrackPointExtension>
            <ns3:atemp>19.0</ns3:atemp>
            <ns3:hr>140</ns3:hr>
          </ns3:TrackPointExtension>
        </extensions>
      </trkpt>
      <trkpt lat="-22.10995576344430446624755859375" lon="166.45543196238577365875244140625">
        <ele>432.20001220703125</ele>
        <time>2016-08-12T18:09:46.000Z</time>
        <extensions>
          <ns3:TrackPointExtension>
            <ns3:atemp>19.0</ns3:atemp>
            <ns3:hr>139</ns3:hr>
          </ns3:TrackPointExtension>
        </extensions>
      </trkpt>
      <trkpt lat="-22.1099345572292804718017578125" lon="166.45542592741549015045166015625">
        <ele>432.20001220703125</ele>
        <time>2016-08-12T18:09:47.000Z</time>
        <extensions>
          <ns3:TrackPointExtension>
            <ns3:atemp>19.0</ns3:atemp>
            <ns3:hr>139</ns3:hr>
          </ns3:TrackPointExtension>
        </extensions>
      </trkpt>
      <trkpt lat="-22.10991670377552509307861328125" lon="166.45541570149362087249755859375">
        <ele>432.600006103515625</ele>
        <time>2016-08-12T18:09:48.000Z</time>
        <extensions>
          <ns3:TrackPointExtension>
            <ns3:atemp>19.0</ns3:atemp>
            <ns3:hr>139</ns3:hr>
          </ns3:TrackPointExtension>
        </extensions>
      </trkpt>
      <trkpt lat="-22.109898515045642852783203125" lon="166.455408744513988494873046875">
        <ele>432.600006103515625</ele>
        <time>2016-08-12T18:09:49.000Z</time>
        <extensions>
          <ns3:TrackPointExtension>
            <ns3:atemp>19.0</ns3:atemp>
            <ns3:hr>139</ns3:hr>
          </ns3:TrackPointExtension>
        </extensions>
      </trkpt>
      <trkpt lat="-22.109881751239299774169921875" lon="166.4553981833159923553466796875">
        <ele>432.79998779296875</ele>
        <time>2016-08-12T18:09:50.000Z</time>
        <extensions>
          <ns3:TrackPointExtension>
            <ns3:atemp>19.0</ns3:atemp>
            <ns3:hr>139</ns3:hr>
          </ns3:TrackPointExtension>
        </extensions>
      </trkpt>
      <trkpt lat="-22.10986373014748096466064453125" lon="166.4553857780992984771728515625">
        <ele>432.79998779296875</ele>
        <time>2016-08-12T18:09:51.000Z</time>
        <extensions>
          <ns3:TrackPointExtension>
            <ns3:atemp>19.0</ns3:atemp>
            <ns3:hr>138</ns3:hr>
          </ns3:TrackPointExtension>
        </extensions>
      </trkpt>
      <trkpt lat="-22.109846211969852447509765625" lon="166.45537488162517547607421875">
        <ele>432.79998779296875</ele>
        <time>2016-08-12T18:09:52.000Z</time>
        <extensions>
          <ns3:TrackPointExtension>
            <ns3:atemp>19.0</ns3:atemp>
            <ns3:hr>139</ns3:hr>
          </ns3:TrackPointExtension>
        </extensions>
      </trkpt>
      <trkpt lat="-22.1098265983164310455322265625" lon="166.45535971038043498992919921875">
        <ele>432.79998779296875</ele>
        <time>2016-08-12T18:09:53.000Z</time>
        <extensions>
          <ns3:TrackPointExtension>
            <ns3:atemp>19.0</ns3:atemp>
            <ns3:hr>138</ns3:hr>
          </ns3:TrackPointExtension>
        </extensions>
      </trkpt>
      <trkpt lat="-22.10980757139623165130615234375" lon="166.45534629933536052703857421875">
        <ele>433.20001220703125</ele>
        <time>2016-08-12T18:09:54.000Z</time>
        <extensions>
          <ns3:TrackPointExtension>
            <ns3:atemp>19.0</ns3:atemp>
            <ns3:hr>138</ns3:hr>
          </ns3:TrackPointExtension>
        </extensions>
      </trkpt>
      <trkpt lat="-22.10979022085666656494140625" lon="166.455334313213825225830078125">
        <ele>433.600006103515625</ele>
        <time>2016-08-12T18:09:55.000Z</time>
        <extensions>
          <ns3:TrackPointExtension>
            <ns3:atemp>19.0</ns3:atemp>
            <ns3:hr>139</ns3:hr>
          </ns3:TrackPointExtension>
        </extensions>
      </trkpt>
      <trkpt lat="-22.10977613925933837890625" lon="166.45532031543552875518798828125">
        <ele>433.600006103515625</ele>
        <time>2016-08-12T18:09:56.000Z</time>
        <extensions>
          <ns3:TrackPointExtension>
            <ns3:atemp>19.0</ns3:atemp>
            <ns3:hr>139</ns3:hr>
          </ns3:TrackPointExtension>
        </extensions>
      </trkpt>
      <trkpt lat="-22.1097662486135959625244140625" lon="166.45530707202851772308349609375">
        <ele>433.79998779296875</ele>
        <time>2016-08-12T18:09:57.000Z</time>
        <extensions>
          <ns3:TrackPointExtension>
            <ns3:atemp>19.0</ns3:atemp>
            <ns3:hr>139</ns3:hr>
          </ns3:TrackPointExtension>
        </extensions>
      </trkpt>
      <trkpt lat="-22.10975593887269496917724609375" lon="166.45529533736407756805419921875">
        <ele>434.20001220703125</ele>
        <time>2016-08-12T18:09:58.000Z</time>
        <extensions>
          <ns3:TrackPointExtension>
            <ns3:atemp>19.0</ns3:atemp>
            <ns3:hr>138</ns3:hr>
          </ns3:TrackPointExtension>
        </extensions>
      </trkpt>
      <trkpt lat="-22.10974252782762050628662109375" lon="166.45528360269963741302490234375">
        <ele>434.600006103515625</ele>
        <time>2016-08-12T18:09:59.000Z</time>
        <extensions>
          <ns3:TrackPointExtension>
            <ns3:atemp>19.0</ns3:atemp>
            <ns3:hr>139</ns3:hr>
          </ns3:TrackPointExtension>
        </extensions>
      </trkpt>
      <trkpt lat="-22.1097283624112606048583984375" lon="166.45527362823486328125">
        <ele>434.600006103515625</ele>
        <time>2016-08-12T18:10:00.000Z</time>
        <extensions>
          <ns3:TrackPointExtension>
            <ns3:atemp>19.0</ns3:atemp>
            <ns3:hr>139</ns3:hr>
          </ns3:TrackPointExtension>
        </extensions>
      </trkpt>
      <trkpt lat="-22.10971369408071041107177734375" lon="166.45526449196040630340576171875">
        <ele>435</ele>
        <time>2016-08-12T18:10:01.000Z</time>
        <extensions>
          <ns3:TrackPointExtension>
            <ns3:atemp>19.0</ns3:atemp>
            <ns3:hr>139</ns3:hr>
          </ns3:TrackPointExtension>
        </extensions>
      </trkpt>
      <trkpt lat="-22.10969894193112850189208984375" lon="166.45525493659079074859619140625">
        <ele>435.399993896484375</ele>
        <time>2016-08-12T18:10:02.000Z</time>
        <extensions>
          <ns3:TrackPointExtension>
            <ns3:atemp>19.0</ns3:atemp>
            <ns3:hr>139</ns3:hr>
          </ns3:TrackPointExtension>
        </extensions>
      </trkpt>
      <trkpt lat="-22.10968351922929286956787109375" lon="166.45524571649730205535888671875">
        <ele>435.20001220703125</ele>
        <time>2016-08-12T18:10:03.000Z</time>
        <extensions>
          <ns3:TrackPointExtension>
            <ns3:atemp>19.0</ns3:atemp>
            <ns3:hr>139</ns3:hr>
          </ns3:TrackPointExtension>
        </extensions>
      </trkpt>
      <trkpt lat="-22.10966759361326694488525390625" lon="166.45523951388895511627197265625">
        <ele>435.600006103515625</ele>
        <time>2016-08-12T18:10:04.000Z</time>
        <extensions>
          <ns3:TrackPointExtension>
            <ns3:atemp>19.0</ns3:atemp>
            <ns3:hr>139</ns3:hr>
          </ns3:TrackPointExtension>
        </extensions>
      </trkpt>
      <trkpt lat="-22.1096509136259555816650390625" lon="166.45523129962384700775146484375">
        <ele>436</ele>
        <time>2016-08-12T18:10:05.000Z</time>
        <extensions>
          <ns3:TrackPointExtension>
            <ns3:atemp>19.0</ns3:atemp>
            <ns3:hr>139</ns3:hr>
          </ns3:TrackPointExtension>
        </extensions>
      </trkpt>
      <trkpt lat="-22.10963599383831024169921875" lon="166.45522526465356349945068359375">
        <ele>436</ele>
        <time>2016-08-12T18:10:06.000Z</time>
        <extensions>
          <ns3:TrackPointExtension>
            <ns3:atemp>19.0</ns3:atemp>
            <ns3:hr>139</ns3:hr>
          </ns3:TrackPointExtension>
        </extensions>
      </trkpt>
      <trkpt lat="-22.10961814038455486297607421875" lon="166.45521872676908969879150390625">
        <ele>436.20001220703125</ele>
        <time>2016-08-12T18:10:07.000Z</time>
        <extensions>
          <ns3:TrackPointExtension>
            <ns3:atemp>19.0</ns3:atemp>
            <ns3:hr>140</ns3:hr>
          </ns3:TrackPointExtension>
        </extensions>
      </trkpt>
      <trkpt lat="-22.10959819145500659942626953125" lon="166.455212943255901336669921875">
        <ele>436.79998779296875</ele>
        <time>2016-08-12T18:10:08.000Z</time>
        <extensions>
          <ns3:TrackPointExtension>
            <ns3:atemp>19.0</ns3:atemp>
            <ns3:hr>140</ns3:hr>
          </ns3:TrackPointExtension>
        </extensions>
      </trkpt>
      <trkpt lat="-22.109580338001251220703125" lon="166.45520850084722042083740234375">
        <ele>437</ele>
        <time>2016-08-12T18:10:09.000Z</time>
        <extensions>
          <ns3:TrackPointExtension>
            <ns3:atemp>19.0</ns3:atemp>
            <ns3:hr>140</ns3:hr>
          </ns3:TrackPointExtension>
        </extensions>
      </trkpt>
      <trkpt lat="-22.1095674298703670501708984375" lon="166.45520347170531749725341796875">
        <ele>437.399993896484375</ele>
        <time>2016-08-12T18:10:10.000Z</time>
        <extensions>
          <ns3:TrackPointExtension>
            <ns3:atemp>19.0</ns3:atemp>
            <ns3:hr>140</ns3:hr>
          </ns3:TrackPointExtension>
        </extensions>
      </trkpt>
      <trkpt lat="-22.10955494083464145660400390625" lon="166.4551980234682559967041015625">
        <ele>437.79998779296875</ele>
        <time>2016-08-12T18:10:11.000Z</time>
        <extensions>
          <ns3:TrackPointExtension>
            <ns3:atemp>19.0</ns3:atemp>
            <ns3:hr>140</ns3:hr>
          </ns3:TrackPointExtension>
        </extensions>
      </trkpt>
      <trkpt lat="-22.109540440142154693603515625" lon="166.455192156136035919189453125">
        <ele>438</ele>
        <time>2016-08-12T18:10:12.000Z</time>
        <extensions>
          <ns3:TrackPointExtension>
            <ns3:atemp>19.0</ns3:atemp>
            <ns3:hr>140</ns3:hr>
          </ns3:TrackPointExtension>
        </extensions>
      </trkpt>
      <trkpt lat="-22.1095255203545093536376953125" lon="166.45518654026091098785400390625">
        <ele>438.399993896484375</ele>
        <time>2016-08-12T18:10:13.000Z</time>
        <extensions>
          <ns3:TrackPointExtension>
            <ns3:atemp>19.0</ns3:atemp>
            <ns3:hr>141</ns3:hr>
          </ns3:TrackPointExtension>
        </extensions>
      </trkpt>
      <trkpt lat="-22.10951236076653003692626953125" lon="166.45517899654805660247802734375">
        <ele>438.600006103515625</ele>
        <time>2016-08-12T18:10:14.000Z</time>
        <extensions>
          <ns3:TrackPointExtension>
            <ns3:atemp>19.0</ns3:atemp>
            <ns3:hr>141</ns3:hr>
          </ns3:TrackPointExtension>
        </extensions>
      </trkpt>
      <trkpt lat="-22.1094990335404872894287109375" lon="166.455172039568424224853515625">
        <ele>438.79998779296875</ele>
        <time>2016-08-12T18:10:15.000Z</time>
        <extensions>
          <ns3:TrackPointExtension>
            <ns3:atemp>19.0</ns3:atemp>
            <ns3:hr>141</ns3:hr>
          </ns3:TrackPointExtension>
        </extensions>
      </trkpt>
      <trkpt lat="-22.10948620922863483428955078125" lon="166.45516835153102874755859375">
        <ele>439</ele>
        <time>2016-08-12T18:10:16.000Z</time>
        <extensions>
          <ns3:TrackPointExtension>
            <ns3:atemp>19.0</ns3:atemp>
            <ns3:hr>141</ns3:hr>
          </ns3:TrackPointExtension>
        </extensions>
      </trkpt>
      <trkpt lat="-22.10947330109775066375732421875" lon="166.45516793243587017059326171875">
        <ele>439.20001220703125</ele>
        <time>2016-08-12T18:10:17.000Z</time>
        <extensions>
          <ns3:TrackPointExtension>
            <ns3:atemp>19.0</ns3:atemp>
            <ns3:hr>141</ns3:hr>
          </ns3:TrackPointExtension>
        </extensions>
      </trkpt>
      <trkpt lat="-22.1094591356813907623291015625" lon="166.45516525022685527801513671875">
        <ele>439.399993896484375</ele>
        <time>2016-08-12T18:10:18.000Z</time>
        <extensions>
          <ns3:TrackPointExtension>
            <ns3:atemp>19.0</ns3:atemp>
            <ns3:hr>141</ns3:hr>
          </ns3:TrackPointExtension>
        </extensions>
      </trkpt>
      <trkpt lat="-22.10944530554115772247314453125" lon="166.45516307093203067779541015625">
        <ele>439.399993896484375</ele>
        <time>2016-08-12T18:10:19.000Z</time>
        <extensions>
          <ns3:TrackPointExtension>
            <ns3:atemp>19.0</ns3:atemp>
            <ns3:hr>141</ns3:hr>
          </ns3:TrackPointExtension>
        </extensions>
      </trkpt>
      <trkpt lat="-22.10943105630576610565185546875" lon="166.4551621489226818084716796875">
        <ele>439.79998779296875</ele>
        <time>2016-08-12T18:10:20.000Z</time>
        <extensions>
          <ns3:TrackPointExtension>
            <ns3:atemp>19.0</ns3:atemp>
            <ns3:hr>141</ns3:hr>
          </ns3:TrackPointExtension>
        </extensions>
      </trkpt>
      <trkpt lat="-22.1094153821468353271484375" lon="166.45516374148428440093994140625">
        <ele>440.20001220703125</ele>
        <time>2016-08-12T18:10:21.000Z</time>
        <extensions>
          <ns3:TrackPointExtension>
            <ns3:atemp>19.0</ns3:atemp>
            <ns3:hr>142</ns3:hr>
          </ns3:TrackPointExtension>
        </extensions>
      </trkpt>
      <trkpt lat="-22.10939861834049224853515625" lon="166.4551665075123310089111328125">
        <ele>440.20001220703125</ele>
        <time>2016-08-12T18:10:22.000Z</time>
        <extensions>
          <ns3:TrackPointExtension>
            <ns3:atemp>19.0</ns3:atemp>
            <ns3:hr>142</ns3:hr>
          </ns3:TrackPointExtension>
        </extensions>
      </trkpt>
      <trkpt lat="-22.10938294418156147003173828125" lon="166.4551718719303607940673828125">
        <ele>440.399993896484375</ele>
        <time>2016-08-12T18:10:23.000Z</time>
        <extensions>
          <ns3:TrackPointExtension>
            <ns3:atemp>19.0</ns3:atemp>
            <ns3:hr>142</ns3:hr>
          </ns3:TrackPointExtension>
        </extensions>
      </trkpt>
      <trkpt lat="-22.1093659289181232452392578125" lon="166.4551809243857860565185546875">
        <ele>440.79998779296875</ele>
        <time>2016-08-12T18:10:24.000Z</time>
        <extensions>
          <ns3:TrackPointExtension>
            <ns3:atemp>19.0</ns3:atemp>
            <ns3:hr>142</ns3:hr>
          </ns3:TrackPointExtension>
        </extensions>
      </trkpt>
      <trkpt lat="-22.10934841074049472808837890625" lon="166.4551893062889575958251953125">
        <ele>441.20001220703125</ele>
        <time>2016-08-12T18:10:25.000Z</time>
        <extensions>
          <ns3:TrackPointExtension>
            <ns3:atemp>19.0</ns3:atemp>
            <ns3:hr>142</ns3:hr>
          </ns3:TrackPointExtension>
        </extensions>
      </trkpt>
      <trkpt lat="-22.10932728834450244903564453125" lon="166.45519861020147800445556640625">
        <ele>441</ele>
        <time>2016-08-12T18:10:26.000Z</time>
        <extensions>
          <ns3:TrackPointExtension>
            <ns3:atemp>19.0</ns3:atemp>
            <ns3:hr>143</ns3:hr>
          </ns3:TrackPointExtension>
        </extensions>
      </trkpt>
      <trkpt lat="-22.10930784232914447784423828125" lon="166.45521084778010845184326171875">
        <ele>441.399993896484375</ele>
        <time>2016-08-12T18:10:27.000Z</time>
        <extensions>
          <ns3:TrackPointExtension>
            <ns3:atemp>19.0</ns3:atemp>
            <ns3:hr>143</ns3:hr>
          </ns3:TrackPointExtension>
        </extensions>
      </trkpt>
      <trkpt lat="-22.1092888154089450836181640625" lon="166.455222330987453460693359375">
        <ele>441.399993896484375</ele>
        <time>2016-08-12T18:10:28.000Z</time>
        <extensions>
          <ns3:TrackPointExtension>
            <ns3:atemp>19.0</ns3:atemp>
            <ns3:hr>144</ns3:hr>
          </ns3:TrackPointExtension>
        </extensions>
      </trkpt>
      <trkpt lat="-22.10926509462296962738037109375" lon="166.45523406565189361572265625">
        <ele>441.20001220703125</ele>
        <time>2016-08-12T18:10:29.000Z</time>
        <extensions>
          <ns3:TrackPointExtension>
            <ns3:atemp>19.0</ns3:atemp>
            <ns3:hr>144</ns3:hr>
          </ns3:TrackPointExtension>
        </extensions>
      </trkpt>
      <trkpt lat="-22.10924263112246990203857421875" lon="166.45524336956441402435302734375">
        <ele>441.399993896484375</ele>
        <time>2016-08-12T18:10:30.000Z</time>
        <extensions>
          <ns3:TrackPointExtension>
            <ns3:atemp>19.0</ns3:atemp>
            <ns3:hr>144</ns3:hr>
          </ns3:TrackPointExtension>
        </extensions>
      </trkpt>
      <trkpt lat="-22.10922301746904850006103515625" lon="166.45525292493402957916259765625">
        <ele>441.79998779296875</ele>
        <time>2016-08-12T18:10:31.000Z</time>
        <extensions>
          <ns3:TrackPointExtension>
            <ns3:atemp>19.0</ns3:atemp>
            <ns3:hr>144</ns3:hr>
          </ns3:TrackPointExtension>
        </extensions>
      </trkpt>
      <trkpt lat="-22.10920306853950023651123046875" lon="166.45526113919913768768310546875">
        <ele>441.600006103515625</ele>
        <time>2016-08-12T18:10:32.000Z</time>
        <extensions>
          <ns3:TrackPointExtension>
            <ns3:atemp>19.0</ns3:atemp>
            <ns3:hr>144</ns3:hr>
          </ns3:TrackPointExtension>
        </extensions>
      </trkpt>
      <trkpt lat="-22.1091795153915882110595703125" lon="166.455269940197467803955078125">
        <ele>441.79998779296875</ele>
        <time>2016-08-12T18:10:33.000Z</time>
        <extensions>
          <ns3:TrackPointExtension>
            <ns3:atemp>19.0</ns3:atemp>
            <ns3:hr>144</ns3:hr>
          </ns3:TrackPointExtension>
        </extensions>
      </trkpt>
      <trkpt lat="-22.10915713571012020111083984375" lon="166.45527924410998821258544921875">
        <ele>442</ele>
        <time>2016-08-12T18:10:34.000Z</time>
        <extensions>
          <ns3:TrackPointExtension>
            <ns3:atemp>19.0</ns3:atemp>
            <ns3:hr>144</ns3:hr>
          </ns3:TrackPointExtension>
        </extensions>
      </trkpt>
      <trkpt lat="-22.10913710296154022216796875" lon="166.45529030822217464447021484375">
        <ele>442</ele>
        <time>2016-08-12T18:10:35.000Z</time>
        <extensions>
          <ns3:TrackPointExtension>
            <ns3:atemp>19.0</ns3:atemp>
            <ns3:hr>144</ns3:hr>
          </ns3:TrackPointExtension>
        </extensions>
      </trkpt>
      <trkpt lat="-22.10911556147038936614990234375" lon="166.4552999474108219146728515625">
        <ele>442</ele>
        <time>2016-08-12T18:10:36.000Z</time>
        <extensions>
          <ns3:TrackPointExtension>
            <ns3:atemp>19.0</ns3:atemp>
            <ns3:hr>144</ns3:hr>
          </ns3:TrackPointExtension>
        </extensions>
      </trkpt>
      <trkpt lat="-22.1090970374643802642822265625" lon="166.455309502780437469482421875">
        <ele>442.20001220703125</ele>
        <time>2016-08-12T18:10:37.000Z</time>
        <extensions>
          <ns3:TrackPointExtension>
            <ns3:atemp>18.0</ns3:atemp>
            <ns3:hr>144</ns3:hr>
          </ns3:TrackPointExtension>
        </extensions>
      </trkpt>
      <trkpt lat="-22.1090779267251491546630859375" lon="166.455318219959735870361328125">
        <ele>442.20001220703125</ele>
        <time>2016-08-12T18:10:38.000Z</time>
        <extensions>
          <ns3:TrackPointExtension>
            <ns3:atemp>18.0</ns3:atemp>
            <ns3:hr>145</ns3:hr>
          </ns3:TrackPointExtension>
        </extensions>
      </trkpt>
      <trkpt lat="-22.1090547926723957061767578125" lon="166.455327607691287994384765625">
        <ele>442.20001220703125</ele>
        <time>2016-08-12T18:10:39.000Z</time>
        <extensions>
          <ns3:TrackPointExtension>
            <ns3:atemp>18.0</ns3:atemp>
            <ns3:hr>144</ns3:hr>
          </ns3:TrackPointExtension>
        </extensions>
      </trkpt>
      <trkpt lat="-22.1090313233435153961181640625" lon="166.4553405158221721649169921875">
        <ele>442.399993896484375</ele>
        <time>2016-08-12T18:10:40.000Z</time>
        <extensions>
          <ns3:TrackPointExtension>
            <ns3:atemp>18.0</ns3:atemp>
            <ns3:hr>144</ns3:hr>
          </ns3:TrackPointExtension>
        </extensions>
      </trkpt>
      <trkpt lat="-22.10900944657623767852783203125" lon="166.45534948445856571197509765625">
        <ele>442.600006103515625</ele>
        <time>2016-08-12T18:10:41.000Z</time>
        <extensions>
          <ns3:TrackPointExtension>
            <ns3:atemp>18.0</ns3:atemp>
            <ns3:hr>144</ns3:hr>
          </ns3:TrackPointExtension>
        </extensions>
      </trkpt>
      <trkpt lat="-22.10898832418024539947509765625" lon="166.45535635761916637420654296875">
        <ele>442.600006103515625</ele>
        <time>2016-08-12T18:10:42.000Z</time>
        <extensions>
          <ns3:TrackPointExtension>
            <ns3:atemp>18.0</ns3:atemp>
            <ns3:hr>144</ns3:hr>
          </ns3:TrackPointExtension>
        </extensions>
      </trkpt>
      <trkpt lat="-22.10896812379360198974609375" lon="166.45536138676106929779052734375">
        <ele>442.600006103515625</ele>
        <time>2016-08-12T18:10:43.000Z</time>
        <extensions>
          <ns3:TrackPointExtension>
            <ns3:atemp>18.0</ns3:atemp>
            <ns3:hr>144</ns3:hr>
          </ns3:TrackPointExtension>
        </extensions>
      </trkpt>
      <trkpt lat="-22.10894825868308544158935546875" lon="166.455367505550384521484375">
        <ele>442.20001220703125</ele>
        <time>2016-08-12T18:10:44.000Z</time>
        <extensions>
          <ns3:TrackPointExtension>
            <ns3:atemp>18.0</ns3:atemp>
            <ns3:hr>144</ns3:hr>
          </ns3:TrackPointExtension>
        </extensions>
      </trkpt>
      <trkpt lat="-22.1089273877441883087158203125" lon="166.4553757198154926300048828125">
        <ele>442</ele>
        <time>2016-08-12T18:10:45.000Z</time>
        <extensions>
          <ns3:TrackPointExtension>
            <ns3:atemp>18.0</ns3:atemp>
            <ns3:hr>144</ns3:hr>
          </ns3:TrackPointExtension>
        </extensions>
      </trkpt>
      <trkpt lat="-22.10890132002532482147216796875" lon="166.45538552664220333099365234375">
        <ele>442.20001220703125</ele>
        <time>2016-08-12T18:10:46.000Z</time>
        <extensions>
          <ns3:TrackPointExtension>
            <ns3:atemp>18.0</ns3:atemp>
            <ns3:hr>144</ns3:hr>
          </ns3:TrackPointExtension>
        </extensions>
      </trkpt>
      <trkpt lat="-22.1088764257729053497314453125" lon="166.4554055593907833099365234375">
        <ele>442.399993896484375</ele>
        <time>2016-08-12T18:10:47.000Z</time>
        <extensions>
          <ns3:TrackPointExtension>
            <ns3:atemp>18.0</ns3:atemp>
            <ns3:hr>144</ns3:hr>
          </ns3:TrackPointExtension>
        </extensions>
      </trkpt>
      <trkpt lat="-22.1088522858917713165283203125" lon="166.45542894490063190460205078125">
        <ele>442.399993896484375</ele>
        <time>2016-08-12T18:10:48.000Z</time>
        <extensions>
          <ns3:TrackPointExtension>
            <ns3:atemp>18.0</ns3:atemp>
            <ns3:hr>143</ns3:hr>
          </ns3:TrackPointExtension>
        </extensions>
      </trkpt>
      <trkpt lat="-22.10883124731481075286865234375" lon="166.45545266568660736083984375">
        <ele>442.20001220703125</ele>
        <time>2016-08-12T18:10:49.000Z</time>
        <extensions>
          <ns3:TrackPointExtension>
            <ns3:atemp>18.0</ns3:atemp>
            <ns3:hr>143</ns3:hr>
          </ns3:TrackPointExtension>
        </extensions>
      </trkpt>
      <trkpt lat="-22.1088200993835926055908203125" lon="166.4554749615490436553955078125">
        <ele>442.399993896484375</ele>
        <time>2016-08-12T18:10:50.000Z</time>
        <extensions>
          <ns3:TrackPointExtension>
            <ns3:atemp>18.0</ns3:atemp>
            <ns3:hr>143</ns3:hr>
          </ns3:TrackPointExtension>
        </extensions>
      </trkpt>
      <trkpt lat="-22.10881196893751621246337890625" lon="166.45549499429762363433837890625">
        <ele>442.600006103515625</ele>
        <time>2016-08-12T18:10:51.000Z</time>
        <extensions>
          <ns3:TrackPointExtension>
            <ns3:atemp>18.0</ns3:atemp>
            <ns3:hr>143</ns3:hr>
          </ns3:TrackPointExtension>
        </extensions>
      </trkpt>
      <trkpt lat="-22.10880408994853496551513671875" lon="166.45551435649394989013671875">
        <ele>442.79998779296875</ele>
        <time>2016-08-12T18:10:52.000Z</time>
        <extensions>
          <ns3:TrackPointExtension>
            <ns3:atemp>18.0</ns3:atemp>
            <ns3:hr>143</ns3:hr>
          </ns3:TrackPointExtension>
        </extensions>
      </trkpt>
      <trkpt lat="-22.10879587568342685699462890625" lon="166.45553556270897388458251953125">
        <ele>442.600006103515625</ele>
        <time>2016-08-12T18:10:53.000Z</time>
        <extensions>
          <ns3:TrackPointExtension>
            <ns3:atemp>18.0</ns3:atemp>
            <ns3:hr>143</ns3:hr>
          </ns3:TrackPointExtension>
        </extensions>
      </trkpt>
      <trkpt lat="-22.10878833197057247161865234375" lon="166.4555574394762516021728515625">
        <ele>442.600006103515625</ele>
        <time>2016-08-12T18:10:54.000Z</time>
        <extensions>
          <ns3:TrackPointExtension>
            <ns3:atemp>18.0</ns3:atemp>
            <ns3:hr>143</ns3:hr>
          </ns3:TrackPointExtension>
        </extensions>
      </trkpt>
      <trkpt lat="-22.10878313519060611724853515625" lon="166.455575712025165557861328125">
        <ele>442.79998779296875</ele>
        <time>2016-08-12T18:10:55.000Z</time>
        <extensions>
          <ns3:TrackPointExtension>
            <ns3:atemp>18.0</ns3:atemp>
            <ns3:hr>142</ns3:hr>
          </ns3:TrackPointExtension>
        </extensions>
      </trkpt>
      <trkpt lat="-22.10877374745905399322509765625" lon="166.45559775643050670623779296875">
        <ele>443</ele>
        <time>2016-08-12T18:10:56.000Z</time>
        <extensions>
          <ns3:TrackPointExtension>
            <ns3:atemp>18.0</ns3:atemp>
            <ns3:hr>142</ns3:hr>
          </ns3:TrackPointExtension>
        </extensions>
      </trkpt>
      <trkpt lat="-22.1087671257555484771728515625" lon="166.45561737008392810821533203125">
        <ele>443.399993896484375</ele>
        <time>2016-08-12T18:10:57.000Z</time>
        <extensions>
          <ns3:TrackPointExtension>
            <ns3:atemp>18.0</ns3:atemp>
            <ns3:hr>142</ns3:hr>
          </ns3:TrackPointExtension>
        </extensions>
      </trkpt>
      <trkpt lat="-22.10876301862299442291259765625" lon="166.45563094876706600189208984375">
        <ele>443.600006103515625</ele>
        <time>2016-08-12T18:10:58.000Z</time>
        <extensions>
          <ns3:TrackPointExtension>
            <ns3:atemp>18.0</ns3:atemp>
            <ns3:hr>142</ns3:hr>
          </ns3:TrackPointExtension>
        </extensions>
      </trkpt>
      <trkpt lat="-22.10875614546239376068115234375" lon="166.4556504786014556884765625">
        <ele>443.79998779296875</ele>
        <time>2016-08-12T18:10:59.000Z</time>
        <extensions>
          <ns3:TrackPointExtension>
            <ns3:atemp>18.0</ns3:atemp>
            <ns3:hr>142</ns3:hr>
          </ns3:TrackPointExtension>
        </extensions>
      </trkpt>
      <trkpt lat="-22.10874709300696849822998046875" lon="166.4556717686355113983154296875">
        <ele>444</ele>
        <time>2016-08-12T18:11:00.000Z</time>
        <extensions>
          <ns3:TrackPointExtension>
            <ns3:atemp>18.0</ns3:atemp>
            <ns3:hr>141</ns3:hr>
          </ns3:TrackPointExtension>
        </extensions>
      </trkpt>
      <trkpt lat="-22.108737118542194366455078125" lon="166.455689705908298492431640625">
        <ele>444.399993896484375</ele>
        <time>2016-08-12T18:11:01.000Z</time>
        <extensions>
          <ns3:TrackPointExtension>
            <ns3:atemp>18.0</ns3:atemp>
            <ns3:hr>141</ns3:hr>
          </ns3:TrackPointExtension>
        </extensions>
      </trkpt>
      <trkpt lat="-22.108727395534515380859375" lon="166.45570588298141956329345703125">
        <ele>444.399993896484375</ele>
        <time>2016-08-12T18:11:02.000Z</time>
        <extensions>
          <ns3:TrackPointExtension>
            <ns3:atemp>18.0</ns3:atemp>
            <ns3:hr>141</ns3:hr>
          </ns3:TrackPointExtension>
        </extensions>
      </trkpt>
      <trkpt lat="-22.10871289484202861785888671875" lon="166.4557220600545406341552734375">
        <ele>444.600006103515625</ele>
        <time>2016-08-12T18:11:03.000Z</time>
        <extensions>
          <ns3:TrackPointExtension>
            <ns3:atemp>18.0</ns3:atemp>
            <ns3:hr>141</ns3:hr>
          </ns3:TrackPointExtension>
        </extensions>
      </trkpt>
      <trkpt lat="-22.108697555959224700927734375" lon="166.45573974587023258209228515625">
        <ele>444.79998779296875</ele>
        <time>2016-08-12T18:11:04.000Z</time>
        <extensions>
          <ns3:TrackPointExtension>
            <ns3:atemp>18.0</ns3:atemp>
            <ns3:hr>141</ns3:hr>
          </ns3:TrackPointExtension>
        </extensions>
      </trkpt>
      <trkpt lat="-22.1086846478283405303955078125" lon="166.4557606168091297149658203125">
        <ele>445</ele>
        <time>2016-08-12T18:11:05.000Z</time>
        <extensions>
          <ns3:TrackPointExtension>
            <ns3:atemp>18.0</ns3:atemp>
            <ns3:hr>141</ns3:hr>
          </ns3:TrackPointExtension>
        </extensions>
      </trkpt>
      <trkpt lat="-22.1086682192981243133544921875" lon="166.4557814039289951324462890625">
        <ele>445</ele>
        <time>2016-08-12T18:11:06.000Z</time>
        <extensions>
          <ns3:TrackPointExtension>
            <ns3:atemp>18.0</ns3:atemp>
            <ns3:hr>141</ns3:hr>
          </ns3:TrackPointExtension>
        </extensions>
      </trkpt>
      <trkpt lat="-22.108651287853717803955078125" lon="166.4558008499443531036376953125">
        <ele>445.399993896484375</ele>
        <time>2016-08-12T18:11:07.000Z</time>
        <extensions>
          <ns3:TrackPointExtension>
            <ns3:atemp>18.0</ns3:atemp>
            <ns3:hr>141</ns3:hr>
          </ns3:TrackPointExtension>
        </extensions>
      </trkpt>
      <trkpt lat="-22.10863326676189899444580078125" lon="166.45582054741680622100830078125">
        <ele>445.600006103515625</ele>
        <time>2016-08-12T18:11:08.000Z</time>
        <extensions>
          <ns3:TrackPointExtension>
            <ns3:atemp>18.0</ns3:atemp>
            <ns3:hr>141</ns3:hr>
          </ns3:TrackPointExtension>
        </extensions>
      </trkpt>
      <trkpt lat="-22.108618430793285369873046875" lon="166.45583647303283214569091796875">
        <ele>445.79998779296875</ele>
        <time>2016-08-12T18:11:09.000Z</time>
        <extensions>
          <ns3:TrackPointExtension>
            <ns3:atemp>18.0</ns3:atemp>
            <ns3:hr>142</ns3:hr>
          </ns3:TrackPointExtension>
        </extensions>
      </trkpt>
      <trkpt lat="-22.10860543884336948394775390625" lon="166.45585072226822376251220703125">
        <ele>446</ele>
        <time>2016-08-12T18:11:10.000Z</time>
        <extensions>
          <ns3:TrackPointExtension>
            <ns3:atemp>18.0</ns3:atemp>
            <ns3:hr>142</ns3:hr>
          </ns3:TrackPointExtension>
        </extensions>
      </trkpt>
      <trkpt lat="-22.108587585389614105224609375" lon="166.45586798898875713348388671875">
        <ele>446.20001220703125</ele>
        <time>2016-08-12T18:11:11.000Z</time>
        <extensions>
          <ns3:TrackPointExtension>
            <ns3:atemp>18.0</ns3:atemp>
            <ns3:hr>142</ns3:hr>
          </ns3:TrackPointExtension>
        </extensions>
      </trkpt>
      <trkpt lat="-22.10857157595455646514892578125" lon="166.45588408224284648895263671875">
        <ele>446.20001220703125</ele>
        <time>2016-08-12T18:11:12.000Z</time>
        <extensions>
          <ns3:TrackPointExtension>
            <ns3:atemp>18.0</ns3:atemp>
            <ns3:hr>142</ns3:hr>
          </ns3:TrackPointExtension>
        </extensions>
      </trkpt>
      <trkpt lat="-22.108558081090450286865234375" lon="166.455898582935333251953125">
        <ele>446.399993896484375</ele>
        <time>2016-08-12T18:11:13.000Z</time>
        <extensions>
          <ns3:TrackPointExtension>
            <ns3:atemp>18.0</ns3:atemp>
            <ns3:hr>143</ns3:hr>
          </ns3:TrackPointExtension>
        </extensions>
      </trkpt>
      <trkpt lat="-22.10854073055088520050048828125" lon="166.455915011465549468994140625">
        <ele>446.399993896484375</ele>
        <time>2016-08-12T18:11:14.000Z</time>
        <extensions>
          <ns3:TrackPointExtension>
            <ns3:atemp>18.0</ns3:atemp>
            <ns3:hr>142</ns3:hr>
          </ns3:TrackPointExtension>
        </extensions>
      </trkpt>
      <trkpt lat="-22.1085237152874469757080078125" lon="166.455929763615131378173828125">
        <ele>446.399993896484375</ele>
        <time>2016-08-12T18:11:15.000Z</time>
        <extensions>
          <ns3:TrackPointExtension>
            <ns3:atemp>18.0</ns3:atemp>
            <ns3:hr>143</ns3:hr>
          </ns3:TrackPointExtension>
        </extensions>
      </trkpt>
      <trkpt lat="-22.10850737057626247406005859375" lon="166.45594661124050617218017578125">
        <ele>446.79998779296875</ele>
        <time>2016-08-12T18:11:16.000Z</time>
        <extensions>
          <ns3:TrackPointExtension>
            <ns3:atemp>18.0</ns3:atemp>
            <ns3:hr>143</ns3:hr>
          </ns3:TrackPointExtension>
        </extensions>
      </trkpt>
      <trkpt lat="-22.10849496535956859588623046875" lon="166.4559641294181346893310546875">
        <ele>447</ele>
        <time>2016-08-12T18:11:17.000Z</time>
        <extensions>
          <ns3:TrackPointExtension>
            <ns3:atemp>18.0</ns3:atemp>
            <ns3:hr>142</ns3:hr>
          </ns3:TrackPointExtension>
        </extensions>
      </trkpt>
      <trkpt lat="-22.10848800837993621826171875" lon="166.4559812285006046295166015625">
        <ele>447</ele>
        <time>2016-08-12T18:11:18.000Z</time>
        <extensions>
          <ns3:TrackPointExtension>
            <ns3:atemp>18.0</ns3:atemp>
            <ns3:hr>142</ns3:hr>
          </ns3:TrackPointExtension>
        </extensions>
      </trkpt>
      <trkpt lat="-22.10847652517259120941162109375" lon="166.4560013450682163238525390625">
        <ele>447.399993896484375</ele>
        <time>2016-08-12T18:11:19.000Z</time>
        <extensions>
          <ns3:TrackPointExtension>
            <ns3:atemp>18.0</ns3:atemp>
            <ns3:hr>143</ns3:hr>
          </ns3:TrackPointExtension>
        </extensions>
      </trkpt>
      <trkpt lat="-22.10846529342234134674072265625" lon="166.4560221321880817413330078125">
        <ele>447.600006103515625</ele>
        <time>2016-08-12T18:11:20.000Z</time>
        <extensions>
          <ns3:TrackPointExtension>
            <ns3:atemp>18.0</ns3:atemp>
            <ns3:hr>143</ns3:hr>
          </ns3:TrackPointExtension>
        </extensions>
      </trkpt>
      <trkpt lat="-22.1084536425769329071044921875" lon="166.4560412429273128509521484375">
        <ele>447.600006103515625</ele>
        <time>2016-08-12T18:11:21.000Z</time>
        <extensions>
          <ns3:TrackPointExtension>
            <ns3:atemp>18.0</ns3:atemp>
            <ns3:hr>143</ns3:hr>
          </ns3:TrackPointExtension>
        </extensions>
      </trkpt>
      <trkpt lat="-22.10844299755990505218505859375" lon="166.45605959929525852203369140625">
        <ele>448</ele>
        <time>2016-08-12T18:11:22.000Z</time>
        <extensions>
          <ns3:TrackPointExtension>
            <ns3:atemp>18.0</ns3:atemp>
            <ns3:hr>143</ns3:hr>
          </ns3:TrackPointExtension>
        </extensions>
      </trkpt>
      <trkpt lat="-22.10842807777225971221923828125" lon="166.45607820712029933929443359375">
        <ele>448</ele>
        <time>2016-08-12T18:11:23.000Z</time>
        <extensions>
          <ns3:TrackPointExtension>
            <ns3:atemp>18.0</ns3:atemp>
            <ns3:hr>143</ns3:hr>
          </ns3:TrackPointExtension>
        </extensions>
      </trkpt>
      <trkpt lat="-22.1084137447178363800048828125" lon="166.45609178580343723297119140625">
        <ele>448</ele>
        <time>2016-08-12T18:11:24.000Z</time>
        <extensions>
          <ns3:TrackPointExtension>
            <ns3:atemp>18.0</ns3:atemp>
            <ns3:hr>143</ns3:hr>
          </ns3:TrackPointExtension>
        </extensions>
      </trkpt>
      <trkpt lat="-22.10839622654020786285400390625" lon="166.456107459962368011474609375">
        <ele>448.399993896484375</ele>
        <time>2016-08-12T18:11:25.000Z</time>
        <extensions>
          <ns3:TrackPointExtension>
            <ns3:atemp>18.0</ns3:atemp>
            <ns3:hr>144</ns3:hr>
          </ns3:TrackPointExtension>
        </extensions>
      </trkpt>
      <trkpt lat="-22.10838935337960720062255859375" lon="166.45612430758774280548095703125">
        <ele>448.600006103515625</ele>
        <time>2016-08-12T18:11:26.000Z</time>
        <extensions>
          <ns3:TrackPointExtension>
            <ns3:atemp>18.0</ns3:atemp>
            <ns3:hr>144</ns3:hr>
          </ns3:TrackPointExtension>
        </extensions>
      </trkpt>
      <trkpt lat="-22.108382396399974822998046875" lon="166.45614123903214931488037109375">
        <ele>448.600006103515625</ele>
        <time>2016-08-12T18:11:27.000Z</time>
        <extensions>
          <ns3:TrackPointExtension>
            <ns3:atemp>18.0</ns3:atemp>
            <ns3:hr>143</ns3:hr>
          </ns3:TrackPointExtension>
        </extensions>
      </trkpt>
      <trkpt lat="-22.10837493650615215301513671875" lon="166.45615875720977783203125">
        <ele>448.600006103515625</ele>
        <time>2016-08-12T18:11:28.000Z</time>
        <extensions>
          <ns3:TrackPointExtension>
            <ns3:atemp>18.0</ns3:atemp>
            <ns3:hr>143</ns3:hr>
          </ns3:TrackPointExtension>
        </extensions>
      </trkpt>
      <trkpt lat="-22.10836588405072689056396484375" lon="166.4561777003109455108642578125">
        <ele>448.600006103515625</ele>
        <time>2016-08-12T18:11:29.000Z</time>
        <extensions>
          <ns3:TrackPointExtension>
            <ns3:atemp>18.0</ns3:atemp>
            <ns3:hr>143</ns3:hr>
          </ns3:TrackPointExtension>
        </extensions>
      </trkpt>
      <trkpt lat="-22.1083577536046504974365234375" lon="166.45619295537471771240234375">
        <ele>449</ele>
        <time>2016-08-12T18:11:30.000Z</time>
        <extensions>
          <ns3:TrackPointExtension>
            <ns3:atemp>18.0</ns3:atemp>
            <ns3:hr>143</ns3:hr>
          </ns3:TrackPointExtension>
        </extensions>
      </trkpt>
      <trkpt lat="-22.10834492929279804229736328125" lon="166.45621047355234622955322265625">
        <ele>449.20001220703125</ele>
        <time>2016-08-12T18:11:31.000Z</time>
        <extensions>
          <ns3:TrackPointExtension>
            <ns3:atemp>18.0</ns3:atemp>
            <ns3:hr>143</ns3:hr>
          </ns3:TrackPointExtension>
        </extensions>
      </trkpt>
      <trkpt lat="-22.10833537392318248748779296875" lon="166.4562300033867359161376953125">
        <ele>449.399993896484375</ele>
        <time>2016-08-12T18:11:32.000Z</time>
        <extensions>
          <ns3:TrackPointExtension>
            <ns3:atemp>18.0</ns3:atemp>
            <ns3:hr>143</ns3:hr>
          </ns3:TrackPointExtension>
        </extensions>
      </trkpt>
      <trkpt lat="-22.10832095704972743988037109375" lon="166.4562494494020938873291015625">
        <ele>449.399993896484375</ele>
        <time>2016-08-12T18:11:33.000Z</time>
        <extensions>
          <ns3:TrackPointExtension>
            <ns3:atemp>18.0</ns3:atemp>
            <ns3:hr>143</ns3:hr>
          </ns3:TrackPointExtension>
        </extensions>
      </trkpt>
      <trkpt lat="-22.1083134971559047698974609375" lon="166.4562809653580188751220703125">
        <ele>449.79998779296875</ele>
        <time>2016-08-12T18:11:34.000Z</time>
        <extensions>
          <ns3:TrackPointExtension>
            <ns3:atemp>18.0</ns3:atemp>
            <ns3:hr>143</ns3:hr>
          </ns3:TrackPointExtension>
        </extensions>
      </trkpt>
      <trkpt lat="-22.108304612338542938232421875" lon="166.45630351267755031585693359375">
        <ele>449.79998779296875</ele>
        <time>2016-08-12T18:11:35.000Z</time>
        <extensions>
          <ns3:TrackPointExtension>
            <ns3:atemp>18.0</ns3:atemp>
            <ns3:hr>142</ns3:hr>
          </ns3:TrackPointExtension>
        </extensions>
      </trkpt>
      <trkpt lat="-22.10829748772084712982177734375" lon="166.456321366131305694580078125">
        <ele>449.79998779296875</ele>
        <time>2016-08-12T18:11:36.000Z</time>
        <extensions>
          <ns3:TrackPointExtension>
            <ns3:atemp>18.0</ns3:atemp>
            <ns3:hr>143</ns3:hr>
          </ns3:TrackPointExtension>
        </extensions>
      </trkpt>
      <trkpt lat="-22.10829011164605617523193359375" lon="166.456334777176380157470703125">
        <ele>450</ele>
        <time>2016-08-12T18:11:37.000Z</time>
        <extensions>
          <ns3:TrackPointExtension>
            <ns3:atemp>18.0</ns3:atemp>
            <ns3:hr>142</ns3:hr>
          </ns3:TrackPointExtension>
        </extensions>
      </trkpt>
      <trkpt lat="-22.10828483104705810546875" lon="166.4563451707363128662109375">
        <ele>450.20001220703125</ele>
        <time>2016-08-12T18:11:38.000Z</time>
        <extensions>
          <ns3:TrackPointExtension>
            <ns3:atemp>18.0</ns3:atemp>
            <ns3:hr>142</ns3:hr>
          </ns3:TrackPointExtension>
        </extensions>
      </trkpt>
      <trkpt lat="-22.1082754433155059814453125" lon="166.4563600905239582061767578125">
        <ele>450.399993896484375</ele>
        <time>2016-08-12T18:11:39.000Z</time>
        <extensions>
          <ns3:TrackPointExtension>
            <ns3:atemp>18.0</ns3:atemp>
            <ns3:hr>142</ns3:hr>
          </ns3:TrackPointExtension>
        </extensions>
      </trkpt>
      <trkpt lat="-22.10826328955590724945068359375" lon="166.45637802779674530029296875">
        <ele>450.79998779296875</ele>
        <time>2016-08-12T18:11:40.000Z</time>
        <extensions>
          <ns3:TrackPointExtension>
            <ns3:atemp>18.0</ns3:atemp>
            <ns3:hr>142</ns3:hr>
          </ns3:TrackPointExtension>
        </extensions>
      </trkpt>
      <trkpt lat="-22.10825373418629169464111328125" lon="166.456395126879215240478515625">
        <ele>450.79998779296875</ele>
        <time>2016-08-12T18:11:41.000Z</time>
        <extensions>
          <ns3:TrackPointExtension>
            <ns3:atemp>18.0</ns3:atemp>
            <ns3:hr>142</ns3:hr>
          </ns3:TrackPointExtension>
        </extensions>
      </trkpt>
      <trkpt lat="-22.1082387305796146392822265625" lon="166.4564130641520023345947265625">
        <ele>451</ele>
        <time>2016-08-12T18:11:42.000Z</time>
        <extensions>
          <ns3:TrackPointExtension>
            <ns3:atemp>18.0</ns3:atemp>
            <ns3:hr>142</ns3:hr>
          </ns3:TrackPointExtension>
        </extensions>
      </trkpt>
      <trkpt lat="-22.1082276664674282073974609375" lon="166.4564301632344722747802734375">
        <ele>451.399993896484375</ele>
        <time>2016-08-12T18:11:43.000Z</time>
        <extensions>
          <ns3:TrackPointExtension>
            <ns3:atemp>18.0</ns3:atemp>
            <ns3:hr>143</ns3:hr>
          </ns3:TrackPointExtension>
        </extensions>
      </trkpt>
      <trkpt lat="-22.10822112858295440673828125" lon="166.4564452506601810455322265625">
        <ele>451.20001220703125</ele>
        <time>2016-08-12T18:11:44.000Z</time>
        <extensions>
          <ns3:TrackPointExtension>
            <ns3:atemp>18.0</ns3:atemp>
            <ns3:hr>142</ns3:hr>
          </ns3:TrackPointExtension>
        </extensions>
      </trkpt>
      <trkpt lat="-22.1082119084894657135009765625" lon="166.4564623497426509857177734375">
        <ele>451.399993896484375</ele>
        <time>2016-08-12T18:11:45.000Z</time>
        <extensions>
          <ns3:TrackPointExtension>
            <ns3:atemp>18.0</ns3:atemp>
            <ns3:hr>142</ns3:hr>
          </ns3:TrackPointExtension>
        </extensions>
      </trkpt>
      <trkpt lat="-22.1082038618624210357666015625" lon="166.4564804546535015106201171875">
        <ele>451.79998779296875</ele>
        <time>2016-08-12T18:11:46.000Z</time>
        <extensions>
          <ns3:TrackPointExtension>
            <ns3:atemp>18.0</ns3:atemp>
            <ns3:hr>143</ns3:hr>
          </ns3:TrackPointExtension>
        </extensions>
      </trkpt>
      <trkpt lat="-22.10819288156926631927490234375" lon="166.45649730227887630462646484375">
        <ele>451.600006103515625</ele>
        <time>2016-08-12T18:11:47.000Z</time>
        <extensions>
          <ns3:TrackPointExtension>
            <ns3:atemp>18.0</ns3:atemp>
            <ns3:hr>142</ns3:hr>
          </ns3:TrackPointExtension>
        </extensions>
      </trkpt>
      <trkpt lat="-22.10817913524806499481201171875" lon="166.45651557482779026031494140625">
        <ele>451.79998779296875</ele>
        <time>2016-08-12T18:11:48.000Z</time>
        <extensions>
          <ns3:TrackPointExtension>
            <ns3:atemp>18.0</ns3:atemp>
            <ns3:hr>143</ns3:hr>
          </ns3:TrackPointExtension>
        </extensions>
      </trkpt>
      <trkpt lat="-22.1081632934510707855224609375" lon="166.45653669722378253936767578125">
        <ele>452.20001220703125</ele>
        <time>2016-08-12T18:11:49.000Z</time>
        <extensions>
          <ns3:TrackPointExtension>
            <ns3:atemp>18.0</ns3:atemp>
            <ns3:hr>143</ns3:hr>
          </ns3:TrackPointExtension>
        </extensions>
      </trkpt>
      <trkpt lat="-22.10815650410950183868408203125" lon="166.4565532095730304718017578125">
        <ele>452.20001220703125</ele>
        <time>2016-08-12T18:11:50.000Z</time>
        <extensions>
          <ns3:TrackPointExtension>
            <ns3:atemp>18.0</ns3:atemp>
            <ns3:hr>143</ns3:hr>
          </ns3:TrackPointExtension>
        </extensions>
      </trkpt>
      <trkpt lat="-22.10814560763537883758544921875" lon="166.456570811569690704345703125">
        <ele>452.399993896484375</ele>
        <time>2016-08-12T18:11:51.000Z</time>
        <extensions>
          <ns3:TrackPointExtension>
            <ns3:atemp>18.0</ns3:atemp>
            <ns3:hr>143</ns3:hr>
          </ns3:TrackPointExtension>
        </extensions>
      </trkpt>
      <trkpt lat="-22.10813286714255809783935546875" lon="166.45658698864281177520751953125">
        <ele>452.600006103515625</ele>
        <time>2016-08-12T18:11:52.000Z</time>
        <extensions>
          <ns3:TrackPointExtension>
            <ns3:atemp>18.0</ns3:atemp>
            <ns3:hr>143</ns3:hr>
          </ns3:TrackPointExtension>
        </extensions>
      </trkpt>
      <trkpt lat="-22.10811828263103961944580078125" lon="166.45660241134464740753173828125">
        <ele>452.600006103515625</ele>
        <time>2016-08-12T18:11:53.000Z</time>
        <extensions>
          <ns3:TrackPointExtension>
            <ns3:atemp>18.0</ns3:atemp>
            <ns3:hr>143</ns3:hr>
          </ns3:TrackPointExtension>
        </extensions>
      </trkpt>
      <trkpt lat="-22.108104787766933441162109375" lon="166.4566159062087535858154296875">
        <ele>452.79998779296875</ele>
        <time>2016-08-12T18:11:54.000Z</time>
        <extensions>
          <ns3:TrackPointExtension>
            <ns3:atemp>18.0</ns3:atemp>
            <ns3:hr>142</ns3:hr>
          </ns3:TrackPointExtension>
        </extensions>
      </trkpt>
      <trkpt lat="-22.1080925501883029937744140625" lon="166.4566309936344623565673828125">
        <ele>453.20001220703125</ele>
        <time>2016-08-12T18:11:55.000Z</time>
        <extensions>
          <ns3:TrackPointExtension>
            <ns3:atemp>18.0</ns3:atemp>
            <ns3:hr>143</ns3:hr>
          </ns3:TrackPointExtension>
        </extensions>
      </trkpt>
      <trkpt lat="-22.10807788185775279998779296875" lon="166.45664599724113941192626953125">
        <ele>453.20001220703125</ele>
        <time>2016-08-12T18:11:56.000Z</time>
        <extensions>
          <ns3:TrackPointExtension>
            <ns3:atemp>18.0</ns3:atemp>
            <ns3:hr>143</ns3:hr>
          </ns3:TrackPointExtension>
        </extensions>
      </trkpt>
      <trkpt lat="-22.10806581191718578338623046875" lon="166.456661336123943328857421875">
        <ele>453.600006103515625</ele>
        <time>2016-08-12T18:11:57.000Z</time>
        <extensions>
          <ns3:TrackPointExtension>
            <ns3:atemp>18.0</ns3:atemp>
            <ns3:hr>143</ns3:hr>
          </ns3:TrackPointExtension>
        </extensions>
      </trkpt>
      <trkpt lat="-22.10806195624172687530517578125" lon="166.45667466334998607635498046875">
        <ele>454</ele>
        <time>2016-08-12T18:11:58.000Z</time>
        <extensions>
          <ns3:TrackPointExtension>
            <ns3:atemp>18.0</ns3:atemp>
            <ns3:hr>143</ns3:hr>
          </ns3:TrackPointExtension>
        </extensions>
      </trkpt>
      <trkpt lat="-22.1080539934337139129638671875" lon="166.45668639801442623138427734375">
        <ele>454</ele>
        <time>2016-08-12T18:11:59.000Z</time>
        <extensions>
          <ns3:TrackPointExtension>
            <ns3:atemp>18.0</ns3:atemp>
            <ns3:hr>143</ns3:hr>
          </ns3:TrackPointExtension>
        </extensions>
      </trkpt>
      <trkpt lat="-22.10804276168346405029296875" lon="166.45669930614531040191650390625">
        <ele>454.20001220703125</ele>
        <time>2016-08-12T18:12:00.000Z</time>
        <extensions>
          <ns3:TrackPointExtension>
            <ns3:atemp>18.0</ns3:atemp>
            <ns3:hr>143</ns3:hr>
          </ns3:TrackPointExtension>
        </extensions>
      </trkpt>
      <trkpt lat="-22.1080305241048336029052734375" lon="166.45671456120908260345458984375">
        <ele>454.399993896484375</ele>
        <time>2016-08-12T18:12:01.000Z</time>
        <extensions>
          <ns3:TrackPointExtension>
            <ns3:atemp>18.0</ns3:atemp>
            <ns3:hr>143</ns3:hr>
          </ns3:TrackPointExtension>
        </extensions>
      </trkpt>
      <trkpt lat="-22.10801032371819019317626953125" lon="166.45672998391091823577880859375">
        <ele>454.600006103515625</ele>
        <time>2016-08-12T18:12:02.000Z</time>
        <extensions>
          <ns3:TrackPointExtension>
            <ns3:atemp>18.0</ns3:atemp>
            <ns3:hr>143</ns3:hr>
          </ns3:TrackPointExtension>
        </extensions>
      </trkpt>
      <trkpt lat="-22.107991464436054229736328125" lon="166.45675227977335453033447265625">
        <ele>454.600006103515625</ele>
        <time>2016-08-12T18:12:03.000Z</time>
        <extensions>
          <ns3:TrackPointExtension>
            <ns3:atemp>18.0</ns3:atemp>
            <ns3:hr>143</ns3:hr>
          </ns3:TrackPointExtension>
        </extensions>
      </trkpt>
      <trkpt lat="-22.10797914303839206695556640625" lon="166.45676292479038238525390625">
        <ele>454.79998779296875</ele>
        <time>2016-08-12T18:12:04.000Z</time>
        <extensions>
          <ns3:TrackPointExtension>
            <ns3:atemp>18.0</ns3:atemp>
            <ns3:hr>143</ns3:hr>
          </ns3:TrackPointExtension>
        </extensions>
      </trkpt>
      <trkpt lat="-22.107963301241397857666015625" lon="166.45676753483712673187255859375">
        <ele>454.79998779296875</ele>
        <time>2016-08-12T18:12:05.000Z</time>
        <extensions>
          <ns3:TrackPointExtension>
            <ns3:atemp>18.0</ns3:atemp>
            <ns3:hr>143</ns3:hr>
          </ns3:TrackPointExtension>
        </extensions>
      </trkpt>
      <trkpt lat="-22.1079621277749538421630859375" lon="166.456771306693553924560546875">
        <ele>455</ele>
        <time>2016-08-12T18:12:06.000Z</time>
        <extensions>
          <ns3:TrackPointExtension>
            <ns3:atemp>18.0</ns3:atemp>
            <ns3:hr>143</ns3:hr>
          </ns3:TrackPointExtension>
        </extensions>
      </trkpt>
      <trkpt lat="-22.107956595718860626220703125" lon="166.4567741565406322479248046875">
        <ele>455.20001220703125</ele>
        <time>2016-08-12T18:12:07.000Z</time>
        <extensions>
          <ns3:TrackPointExtension>
            <ns3:atemp>18.0</ns3:atemp>
            <ns3:hr>143</ns3:hr>
          </ns3:TrackPointExtension>
        </extensions>
      </trkpt>
      <trkpt lat="-22.10794745944440364837646484375" lon="166.456775665283203125">
        <ele>455.399993896484375</ele>
        <time>2016-08-12T18:12:08.000Z</time>
        <extensions>
          <ns3:TrackPointExtension>
            <ns3:atemp>18.0</ns3:atemp>
            <ns3:hr>143</ns3:hr>
          </ns3:TrackPointExtension>
        </extensions>
      </trkpt>
      <trkpt lat="-22.10793304257094860076904296875" lon="166.45677524618804454803466796875">
        <ele>455.600006103515625</ele>
        <time>2016-08-12T18:12:09.000Z</time>
        <extensions>
          <ns3:TrackPointExtension>
            <ns3:atemp>18.0</ns3:atemp>
            <ns3:hr>143</ns3:hr>
          </ns3:TrackPointExtension>
        </extensions>
      </trkpt>
      <trkpt lat="-22.1079198829829692840576171875" lon="166.456773318350315093994140625">
        <ele>455.600006103515625</ele>
        <time>2016-08-12T18:12:10.000Z</time>
        <extensions>
          <ns3:TrackPointExtension>
            <ns3:atemp>18.0</ns3:atemp>
            <ns3:hr>143</ns3:hr>
          </ns3:TrackPointExtension>
        </extensions>
      </trkpt>
      <trkpt lat="-22.1079071424901485443115234375" lon="166.45676870830357074737548828125">
        <ele>455.79998779296875</ele>
        <time>2016-08-12T18:12:11.000Z</time>
        <extensions>
          <ns3:TrackPointExtension>
            <ns3:atemp>18.0</ns3:atemp>
            <ns3:hr>143</ns3:hr>
          </ns3:TrackPointExtension>
        </extensions>
      </trkpt>
      <trkpt lat="-22.1078883670270442962646484375" lon="166.45676066167652606964111328125">
        <ele>456</ele>
        <time>2016-08-12T18:12:12.000Z</time>
        <extensions>
          <ns3:TrackPointExtension>
            <ns3:atemp>18.0</ns3:atemp>
            <ns3:hr>143</ns3:hr>
          </ns3:TrackPointExtension>
        </extensions>
      </trkpt>
      <trkpt lat="-22.10787286050617694854736328125" lon="166.4567513577640056610107421875">
        <ele>456.20001220703125</ele>
        <time>2016-08-12T18:12:13.000Z</time>
        <extensions>
          <ns3:TrackPointExtension>
            <ns3:atemp>18.0</ns3:atemp>
            <ns3:hr>143</ns3:hr>
          </ns3:TrackPointExtension>
        </extensions>
      </trkpt>
      <trkpt lat="-22.10785559378564357757568359375" lon="166.45674121566116809844970703125">
        <ele>456.20001220703125</ele>
        <time>2016-08-12T18:12:14.000Z</time>
        <extensions>
          <ns3:TrackPointExtension>
            <ns3:atemp>18.0</ns3:atemp>
            <ns3:hr>143</ns3:hr>
          </ns3:TrackPointExtension>
        </extensions>
      </trkpt>
      <trkpt lat="-22.107836566865444183349609375" lon="166.45673451013863086700439453125">
        <ele>456.600006103515625</ele>
        <time>2016-08-12T18:12:15.000Z</time>
        <extensions>
          <ns3:TrackPointExtension>
            <ns3:atemp>18.0</ns3:atemp>
            <ns3:hr>142</ns3:hr>
          </ns3:TrackPointExtension>
        </extensions>
      </trkpt>
      <trkpt lat="-22.10781854577362537384033203125" lon="166.4567278884351253509521484375">
        <ele>456.79998779296875</ele>
        <time>2016-08-12T18:12:16.000Z</time>
        <extensions>
          <ns3:TrackPointExtension>
            <ns3:atemp>18.0</ns3:atemp>
            <ns3:hr>143</ns3:hr>
          </ns3:TrackPointExtension>
        </extensions>
      </trkpt>
      <trkpt lat="-22.10780404508113861083984375" lon="166.45672227256000041961669921875">
        <ele>457</ele>
        <time>2016-08-12T18:12:17.000Z</time>
        <extensions>
          <ns3:TrackPointExtension>
            <ns3:atemp>18.0</ns3:atemp>
            <ns3:hr>143</ns3:hr>
          </ns3:TrackPointExtension>
        </extensions>
      </trkpt>
      <trkpt lat="-22.10779071785509586334228515625" lon="166.45671271719038486480712890625">
        <ele>457</ele>
        <time>2016-08-12T18:12:18.000Z</time>
        <extensions>
          <ns3:TrackPointExtension>
            <ns3:atemp>18.0</ns3:atemp>
            <ns3:hr>143</ns3:hr>
          </ns3:TrackPointExtension>
        </extensions>
      </trkpt>
      <trkpt lat="-22.107777893543243408203125" lon="166.45670467056334018707275390625">
        <ele>456.79998779296875</ele>
        <time>2016-08-12T18:12:19.000Z</time>
        <extensions>
          <ns3:TrackPointExtension>
            <ns3:atemp>18.0</ns3:atemp>
            <ns3:hr>143</ns3:hr>
          </ns3:TrackPointExtension>
        </extensions>
      </trkpt>
      <trkpt lat="-22.10775953717529773712158203125" lon="166.4566993899643421173095703125">
        <ele>457</ele>
        <time>2016-08-12T18:12:20.000Z</time>
        <extensions>
          <ns3:TrackPointExtension>
            <ns3:atemp>18.0</ns3:atemp>
            <ns3:hr>143</ns3:hr>
          </ns3:TrackPointExtension>
        </extensions>
      </trkpt>
      <trkpt lat="-22.10773606784641742706298828125" lon="166.45669746212661266326904296875">
        <ele>457</ele>
        <time>2016-08-12T18:12:21.000Z</time>
        <extensions>
          <ns3:TrackPointExtension>
            <ns3:atemp>18.0</ns3:atemp>
            <ns3:hr>143</ns3:hr>
          </ns3:TrackPointExtension>
        </extensions>
      </trkpt>
      <trkpt lat="-22.1077160350978374481201171875" lon="166.456696875393390655517578125">
        <ele>457</ele>
        <time>2016-08-12T18:12:22.000Z</time>
        <extensions>
          <ns3:TrackPointExtension>
            <ns3:atemp>18.0</ns3:atemp>
            <ns3:hr>143</ns3:hr>
          </ns3:TrackPointExtension>
        </extensions>
      </trkpt>
      <trkpt lat="-22.10769600234925746917724609375" lon="166.4566953666508197784423828125">
        <ele>457.20001220703125</ele>
        <time>2016-08-12T18:12:23.000Z</time>
        <extensions>
          <ns3:TrackPointExtension>
            <ns3:atemp>18.0</ns3:atemp>
            <ns3:hr>143</ns3:hr>
          </ns3:TrackPointExtension>
        </extensions>
      </trkpt>
      <trkpt lat="-22.10767739452421665191650390625" lon="166.45669310353696346282958984375">
        <ele>457.600006103515625</ele>
        <time>2016-08-12T18:12:24.000Z</time>
        <extensions>
          <ns3:TrackPointExtension>
            <ns3:atemp>18.0</ns3:atemp>
            <ns3:hr>143</ns3:hr>
          </ns3:TrackPointExtension>
        </extensions>
      </trkpt>
      <trkpt lat="-22.10765895433723926544189453125" lon="166.45669209770858287811279296875">
        <ele>457.79998779296875</ele>
        <time>2016-08-12T18:12:25.000Z</time>
        <extensions>
          <ns3:TrackPointExtension>
            <ns3:atemp>18.0</ns3:atemp>
            <ns3:hr>143</ns3:hr>
          </ns3:TrackPointExtension>
        </extensions>
      </trkpt>
      <trkpt lat="-22.10764101706445217132568359375" lon="166.4566923491656780242919921875">
        <ele>457.79998779296875</ele>
        <time>2016-08-12T18:12:26.000Z</time>
        <extensions>
          <ns3:TrackPointExtension>
            <ns3:atemp>18.0</ns3:atemp>
            <ns3:hr>143</ns3:hr>
          </ns3:TrackPointExtension>
        </extensions>
      </trkpt>
      <trkpt lat="-22.10762207396328449249267578125" lon="166.45669528283178806304931640625">
        <ele>458</ele>
        <time>2016-08-12T18:12:27.000Z</time>
        <extensions>
          <ns3:TrackPointExtension>
            <ns3:atemp>18.0</ns3:atemp>
            <ns3:hr>143</ns3:hr>
          </ns3:TrackPointExtension>
        </extensions>
      </trkpt>
      <trkpt lat="-22.107603214681148529052734375" lon="166.45669712685048580169677734375">
        <ele>458.20001220703125</ele>
        <time>2016-08-12T18:12:28.000Z</time>
        <extensions>
          <ns3:TrackPointExtension>
            <ns3:atemp>18.0</ns3:atemp>
            <ns3:hr>143</ns3:hr>
          </ns3:TrackPointExtension>
        </extensions>
      </trkpt>
      <trkpt lat="-22.10758217610418796539306640625" lon="166.456698887050151824951171875">
        <ele>458.20001220703125</ele>
        <time>2016-08-12T18:12:29.000Z</time>
        <extensions>
          <ns3:TrackPointExtension>
            <ns3:atemp>18.0</ns3:atemp>
            <ns3:hr>142</ns3:hr>
          </ns3:TrackPointExtension>
        </extensions>
      </trkpt>
      <trkpt lat="-22.10756189189851284027099609375" lon="166.456700228154659271240234375">
        <ele>458.399993896484375</ele>
        <time>2016-08-12T18:12:30.000Z</time>
        <extensions>
          <ns3:TrackPointExtension>
            <ns3:atemp>18.0</ns3:atemp>
            <ns3:hr>142</ns3:hr>
          </ns3:TrackPointExtension>
        </extensions>
      </trkpt>
      <trkpt lat="-22.107548229396343231201171875" lon="166.45670031197369098663330078125">
        <ele>458.600006103515625</ele>
        <time>2016-08-12T18:12:31.000Z</time>
        <extensions>
          <ns3:TrackPointExtension>
            <ns3:atemp>18.0</ns3:atemp>
            <ns3:hr>142</ns3:hr>
          </ns3:TrackPointExtension>
        </extensions>
      </trkpt>
      <trkpt lat="-22.107532136142253875732421875" lon="166.4567034132778644561767578125">
        <ele>458.600006103515625</ele>
        <time>2016-08-12T18:12:32.000Z</time>
        <extensions>
          <ns3:TrackPointExtension>
            <ns3:atemp>18.0</ns3:atemp>
            <ns3:hr>142</ns3:hr>
          </ns3:TrackPointExtension>
        </extensions>
      </trkpt>
      <trkpt lat="-22.10751570761203765869140625" lon="166.45671238191425800323486328125">
        <ele>458.79998779296875</ele>
        <time>2016-08-12T18:12:33.000Z</time>
        <extensions>
          <ns3:TrackPointExtension>
            <ns3:atemp>18.0</ns3:atemp>
            <ns3:hr>142</ns3:hr>
          </ns3:TrackPointExtension>
        </extensions>
      </trkpt>
      <trkpt lat="-22.107497937977313995361328125" lon="166.4567221887409687042236328125">
        <ele>459</ele>
        <time>2016-08-12T18:12:34.000Z</time>
        <extensions>
          <ns3:TrackPointExtension>
            <ns3:atemp>18.0</ns3:atemp>
            <ns3:hr>142</ns3:hr>
          </ns3:TrackPointExtension>
        </extensions>
      </trkpt>
      <trkpt lat="-22.1074796654284000396728515625" lon="166.4567275531589984893798828125">
        <ele>459.20001220703125</ele>
        <time>2016-08-12T18:12:35.000Z</time>
        <extensions>
          <ns3:TrackPointExtension>
            <ns3:atemp>18.0</ns3:atemp>
            <ns3:hr>142</ns3:hr>
          </ns3:TrackPointExtension>
        </extensions>
      </trkpt>
      <trkpt lat="-22.10745778866112232208251953125" lon="166.4567339234054088592529296875">
        <ele>459.20001220703125</ele>
        <time>2016-08-12T18:12:36.000Z</time>
        <extensions>
          <ns3:TrackPointExtension>
            <ns3:atemp>18.0</ns3:atemp>
            <ns3:hr>142</ns3:hr>
          </ns3:TrackPointExtension>
        </extensions>
      </trkpt>
      <trkpt lat="-22.10743851028382778167724609375" lon="166.45674121566116809844970703125">
        <ele>459.399993896484375</ele>
        <time>2016-08-12T18:12:37.000Z</time>
        <extensions>
          <ns3:TrackPointExtension>
            <ns3:atemp>18.0</ns3:atemp>
            <ns3:hr>142</ns3:hr>
          </ns3:TrackPointExtension>
        </extensions>
      </trkpt>
      <trkpt lat="-22.1074199862778186798095703125" lon="166.45674574188888072967529296875">
        <ele>459.600006103515625</ele>
        <time>2016-08-12T18:12:38.000Z</time>
        <extensions>
          <ns3:TrackPointExtension>
            <ns3:atemp>18.0</ns3:atemp>
            <ns3:hr>142</ns3:hr>
          </ns3:TrackPointExtension>
        </extensions>
      </trkpt>
      <trkpt lat="-22.1074025519192218780517578125" lon="166.45674775354564189910888671875">
        <ele>459.79998779296875</ele>
        <time>2016-08-12T18:12:39.000Z</time>
        <extensions>
          <ns3:TrackPointExtension>
            <ns3:atemp>18.0</ns3:atemp>
            <ns3:hr>142</ns3:hr>
          </ns3:TrackPointExtension>
        </extensions>
      </trkpt>
      <trkpt lat="-22.107386291027069091796875" lon="166.45674590952694416046142578125">
        <ele>460</ele>
        <time>2016-08-12T18:12:40.000Z</time>
        <extensions>
          <ns3:TrackPointExtension>
            <ns3:atemp>18.0</ns3:atemp>
            <ns3:hr>142</ns3:hr>
          </ns3:TrackPointExtension>
        </extensions>
      </trkpt>
      <trkpt lat="-22.10736592300236225128173828125" lon="166.45674540661275386810302734375">
        <ele>460</ele>
        <time>2016-08-12T18:12:41.000Z</time>
        <extensions>
          <ns3:TrackPointExtension>
            <ns3:atemp>18.0</ns3:atemp>
            <ns3:hr>142</ns3:hr>
          </ns3:TrackPointExtension>
        </extensions>
      </trkpt>
      <trkpt lat="-22.10734580643475055694580078125" lon="166.4567449875175952911376953125">
        <ele>460.20001220703125</ele>
        <time>2016-08-12T18:12:42.000Z</time>
        <extensions>
          <ns3:TrackPointExtension>
            <ns3:atemp>18.0</ns3:atemp>
            <ns3:hr>141</ns3:hr>
          </ns3:TrackPointExtension>
        </extensions>
      </trkpt>
      <trkpt lat="-22.10732636041939258575439453125" lon="166.45674289204180240631103515625">
        <ele>460.399993896484375</ele>
        <time>2016-08-12T18:12:43.000Z</time>
        <extensions>
          <ns3:TrackPointExtension>
            <ns3:atemp>18.0</ns3:atemp>
            <ns3:hr>141</ns3:hr>
          </ns3:TrackPointExtension>
        </extensions>
      </trkpt>
      <trkpt lat="-22.10730657912790775299072265625" lon="166.45674020983278751373291015625">
        <ele>460.79998779296875</ele>
        <time>2016-08-12T18:12:44.000Z</time>
        <extensions>
          <ns3:TrackPointExtension>
            <ns3:atemp>18.0</ns3:atemp>
            <ns3:hr>141</ns3:hr>
          </ns3:TrackPointExtension>
        </extensions>
      </trkpt>
      <trkpt lat="-22.107288055121898651123046875" lon="166.45673484541475772857666015625">
        <ele>460.79998779296875</ele>
        <time>2016-08-12T18:12:45.000Z</time>
        <extensions>
          <ns3:TrackPointExtension>
            <ns3:atemp>18.0</ns3:atemp>
            <ns3:hr>141</ns3:hr>
          </ns3:TrackPointExtension>
        </extensions>
      </trkpt>
      <trkpt lat="-22.1072701178491115570068359375" lon="166.45672671496868133544921875">
        <ele>461</ele>
        <time>2016-08-12T18:12:46.000Z</time>
        <extensions>
          <ns3:TrackPointExtension>
            <ns3:atemp>18.0</ns3:atemp>
            <ns3:hr>142</ns3:hr>
          </ns3:TrackPointExtension>
        </extensions>
      </trkpt>
      <trkpt lat="-22.10724941454827785491943359375" lon="166.4567188359797000885009765625">
        <ele>461.399993896484375</ele>
        <time>2016-08-12T18:12:47.000Z</time>
        <extensions>
          <ns3:TrackPointExtension>
            <ns3:atemp>18.0</ns3:atemp>
            <ns3:hr>141</ns3:hr>
          </ns3:TrackPointExtension>
        </extensions>
      </trkpt>
      <trkpt lat="-22.10722871124744415283203125" lon="166.4567126333713531494140625">
        <ele>461.399993896484375</ele>
        <time>2016-08-12T18:12:48.000Z</time>
        <extensions>
          <ns3:TrackPointExtension>
            <ns3:atemp>18.0</ns3:atemp>
            <ns3:hr>141</ns3:hr>
          </ns3:TrackPointExtension>
        </extensions>
      </trkpt>
      <trkpt lat="-22.10720784030854701995849609375" lon="166.45670928061008453369140625">
        <ele>461.79998779296875</ele>
        <time>2016-08-12T18:12:49.000Z</time>
        <extensions>
          <ns3:TrackPointExtension>
            <ns3:atemp>18.0</ns3:atemp>
            <ns3:hr>141</ns3:hr>
          </ns3:TrackPointExtension>
        </extensions>
      </trkpt>
      <trkpt lat="-22.1071851253509521484375" lon="166.45670215599238872528076171875">
        <ele>461.79998779296875</ele>
        <time>2016-08-12T18:12:50.000Z</time>
        <extensions>
          <ns3:TrackPointExtension>
            <ns3:atemp>18.0</ns3:atemp>
            <ns3:hr>141</ns3:hr>
          </ns3:TrackPointExtension>
        </extensions>
      </trkpt>
      <trkpt lat="-22.10716492496430873870849609375" lon="166.4566930197179317474365234375">
        <ele>461.79998779296875</ele>
        <time>2016-08-12T18:12:51.000Z</time>
        <extensions>
          <ns3:TrackPointExtension>
            <ns3:atemp>18.0</ns3:atemp>
            <ns3:hr>141</ns3:hr>
          </ns3:TrackPointExtension>
        </extensions>
      </trkpt>
      <trkpt lat="-22.10714631713926792144775390625" lon="166.45668606273829936981201171875">
        <ele>462</ele>
        <time>2016-08-12T18:12:52.000Z</time>
        <extensions>
          <ns3:TrackPointExtension>
            <ns3:atemp>18.0</ns3:atemp>
            <ns3:hr>142</ns3:hr>
          </ns3:TrackPointExtension>
        </extensions>
      </trkpt>
      <trkpt lat="-22.10712687112390995025634765625" lon="166.4566829614341259002685546875">
        <ele>462.399993896484375</ele>
        <time>2016-08-12T18:12:53.000Z</time>
        <extensions>
          <ns3:TrackPointExtension>
            <ns3:atemp>18.0</ns3:atemp>
            <ns3:hr>141</ns3:hr>
          </ns3:TrackPointExtension>
        </extensions>
      </trkpt>
      <trkpt lat="-22.107107006013393402099609375" lon="166.45668002776801586151123046875">
        <ele>462.399993896484375</ele>
        <time>2016-08-12T18:12:54.000Z</time>
        <extensions>
          <ns3:TrackPointExtension>
            <ns3:atemp>18.0</ns3:atemp>
            <ns3:hr>141</ns3:hr>
          </ns3:TrackPointExtension>
        </extensions>
      </trkpt>
      <trkpt lat="-22.1070887334644794464111328125" lon="166.45667969249188899993896484375">
        <ele>462.600006103515625</ele>
        <time>2016-08-12T18:12:55.000Z</time>
        <extensions>
          <ns3:TrackPointExtension>
            <ns3:atemp>18.0</ns3:atemp>
            <ns3:hr>142</ns3:hr>
          </ns3:TrackPointExtension>
        </extensions>
      </trkpt>
      <trkpt lat="-22.10707205347716808319091796875" lon="166.45668505690991878509521484375">
        <ele>462.79998779296875</ele>
        <time>2016-08-12T18:12:56.000Z</time>
        <extensions>
          <ns3:TrackPointExtension>
            <ns3:atemp>18.0</ns3:atemp>
            <ns3:hr>142</ns3:hr>
          </ns3:TrackPointExtension>
        </extensions>
      </trkpt>
      <trkpt lat="-22.1070550382137298583984375" lon="166.45669662393629550933837890625">
        <ele>463</ele>
        <time>2016-08-12T18:12:57.000Z</time>
        <extensions>
          <ns3:TrackPointExtension>
            <ns3:atemp>18.0</ns3:atemp>
            <ns3:hr>141</ns3:hr>
          </ns3:TrackPointExtension>
        </extensions>
      </trkpt>
      <trkpt lat="-22.10703559219837188720703125" lon="166.45671372301876544952392578125">
        <ele>463.20001220703125</ele>
        <time>2016-08-12T18:12:58.000Z</time>
        <extensions>
          <ns3:TrackPointExtension>
            <ns3:atemp>18.0</ns3:atemp>
            <ns3:hr>141</ns3:hr>
          </ns3:TrackPointExtension>
        </extensions>
      </trkpt>
      <trkpt lat="-22.1070201694965362548828125" lon="166.45673342049121856689453125">
        <ele>463.399993896484375</ele>
        <time>2016-08-12T18:12:59.000Z</time>
        <extensions>
          <ns3:TrackPointExtension>
            <ns3:atemp>18.0</ns3:atemp>
            <ns3:hr>142</ns3:hr>
          </ns3:TrackPointExtension>
        </extensions>
      </trkpt>
      <trkpt lat="-22.10700533352792263031005859375" lon="166.45675747655332088470458984375">
        <ele>463.399993896484375</ele>
        <time>2016-08-12T18:13:00.000Z</time>
        <extensions>
          <ns3:TrackPointExtension>
            <ns3:atemp>18.0</ns3:atemp>
            <ns3:hr>142</ns3:hr>
          </ns3:TrackPointExtension>
        </extensions>
      </trkpt>
      <trkpt lat="-22.10699326358735561370849609375" lon="166.4567768387496471405029296875">
        <ele>463.600006103515625</ele>
        <time>2016-08-12T18:13:01.000Z</time>
        <extensions>
          <ns3:TrackPointExtension>
            <ns3:atemp>18.0</ns3:atemp>
            <ns3:hr>141</ns3:hr>
          </ns3:TrackPointExtension>
        </extensions>
      </trkpt>
      <trkpt lat="-22.1069790981709957122802734375" lon="166.45679469220340251922607421875">
        <ele>463.79998779296875</ele>
        <time>2016-08-12T18:13:02.000Z</time>
        <extensions>
          <ns3:TrackPointExtension>
            <ns3:atemp>18.0</ns3:atemp>
            <ns3:hr>141</ns3:hr>
          </ns3:TrackPointExtension>
        </extensions>
      </trkpt>
      <trkpt lat="-22.10696124471724033355712890625" lon="166.4568150602281093597412109375">
        <ele>463.79998779296875</ele>
        <time>2016-08-12T18:13:03.000Z</time>
        <extensions>
          <ns3:TrackPointExtension>
            <ns3:atemp>18.0</ns3:atemp>
            <ns3:hr>142</ns3:hr>
          </ns3:TrackPointExtension>
        </extensions>
      </trkpt>
      <trkpt lat="-22.10694515146315097808837890625" lon="166.45683609880506992340087890625">
        <ele>463.79998779296875</ele>
        <time>2016-08-12T18:13:04.000Z</time>
        <extensions>
          <ns3:TrackPointExtension>
            <ns3:atemp>18.0</ns3:atemp>
            <ns3:hr>142</ns3:hr>
          </ns3:TrackPointExtension>
        </extensions>
      </trkpt>
      <trkpt lat="-22.10692889057099819183349609375" lon="166.45685990341007709503173828125">
        <ele>463.79998779296875</ele>
        <time>2016-08-12T18:13:05.000Z</time>
        <extensions>
          <ns3:TrackPointExtension>
            <ns3:atemp>18.0</ns3:atemp>
            <ns3:hr>141</ns3:hr>
          </ns3:TrackPointExtension>
        </extensions>
      </trkpt>
      <trkpt lat="-22.1069137193262577056884765625" lon="166.45688471384346485137939453125">
        <ele>464</ele>
        <time>2016-08-12T18:13:06.000Z</time>
        <extensions>
          <ns3:TrackPointExtension>
            <ns3:atemp>18.0</ns3:atemp>
            <ns3:hr>142</ns3:hr>
          </ns3:TrackPointExtension>
        </extensions>
      </trkpt>
      <trkpt lat="-22.10690072737634181976318359375" lon="166.4569082669913768768310546875">
        <ele>464</ele>
        <time>2016-08-12T18:13:07.000Z</time>
        <extensions>
          <ns3:TrackPointExtension>
            <ns3:atemp>18.0</ns3:atemp>
            <ns3:hr>142</ns3:hr>
          </ns3:TrackPointExtension>
        </extensions>
      </trkpt>
      <trkpt lat="-22.10688966326415538787841796875" lon="166.4569298923015594482421875">
        <ele>464.20001220703125</ele>
        <time>2016-08-12T18:13:08.000Z</time>
        <extensions>
          <ns3:TrackPointExtension>
            <ns3:atemp>18.0</ns3:atemp>
            <ns3:hr>142</ns3:hr>
          </ns3:TrackPointExtension>
        </extensions>
      </trkpt>
      <trkpt lat="-22.1068833768367767333984375" lon="166.45695076324045658111572265625">
        <ele>464.20001220703125</ele>
        <time>2016-08-12T18:13:09.000Z</time>
        <extensions>
          <ns3:TrackPointExtension>
            <ns3:atemp>18.0</ns3:atemp>
            <ns3:hr>142</ns3:hr>
          </ns3:TrackPointExtension>
        </extensions>
      </trkpt>
      <trkpt lat="-22.1068778447806835174560546875" lon="166.45696853287518024444580078125">
        <ele>464.600006103515625</ele>
        <time>2016-08-12T18:13:10.000Z</time>
        <extensions>
          <ns3:TrackPointExtension>
            <ns3:atemp>18.0</ns3:atemp>
            <ns3:hr>142</ns3:hr>
          </ns3:TrackPointExtension>
        </extensions>
      </trkpt>
      <trkpt lat="-22.10687273181974887847900390625" lon="166.456989236176013946533203125">
        <ele>465</ele>
        <time>2016-08-12T18:13:11.000Z</time>
        <extensions>
          <ns3:TrackPointExtension>
            <ns3:atemp>18.0</ns3:atemp>
            <ns3:hr>142</ns3:hr>
          </ns3:TrackPointExtension>
        </extensions>
      </trkpt>
      <trkpt lat="-22.10686703212559223175048828125" lon="166.4570105262100696563720703125">
        <ele>465.20001220703125</ele>
        <time>2016-08-12T18:13:12.000Z</time>
        <extensions>
          <ns3:TrackPointExtension>
            <ns3:atemp>18.0</ns3:atemp>
            <ns3:hr>142</ns3:hr>
          </ns3:TrackPointExtension>
        </extensions>
      </trkpt>
      <trkpt lat="-22.10686317645013332366943359375" lon="166.457030810415744781494140625">
        <ele>465.20001220703125</ele>
        <time>2016-08-12T18:13:13.000Z</time>
        <extensions>
          <ns3:TrackPointExtension>
            <ns3:atemp>18.0</ns3:atemp>
            <ns3:hr>142</ns3:hr>
          </ns3:TrackPointExtension>
        </extensions>
      </trkpt>
      <trkpt lat="-22.10685764439404010772705078125" lon="166.45705117844045162200927734375">
        <ele>465.20001220703125</ele>
        <time>2016-08-12T18:13:14.000Z</time>
        <extensions>
          <ns3:TrackPointExtension>
            <ns3:atemp>18.0</ns3:atemp>
            <ns3:hr>143</ns3:hr>
          </ns3:TrackPointExtension>
        </extensions>
      </trkpt>
      <trkpt lat="-22.10685295052826404571533203125" lon="166.45706911571323871612548828125">
        <ele>465.20001220703125</ele>
        <time>2016-08-12T18:13:15.000Z</time>
        <extensions>
          <ns3:TrackPointExtension>
            <ns3:atemp>18.0</ns3:atemp>
            <ns3:hr>143</ns3:hr>
          </ns3:TrackPointExtension>
        </extensions>
      </trkpt>
      <trkpt lat="-22.1068431437015533447265625" lon="166.45709124393761157989501953125">
        <ele>465.399993896484375</ele>
        <time>2016-08-12T18:13:16.000Z</time>
        <extensions>
          <ns3:TrackPointExtension>
            <ns3:atemp>18.0</ns3:atemp>
            <ns3:hr>143</ns3:hr>
          </ns3:TrackPointExtension>
        </extensions>
      </trkpt>
      <trkpt lat="-22.10682998411357402801513671875" lon="166.45711488090455532073974609375">
        <ele>465.79998779296875</ele>
        <time>2016-08-12T18:13:17.000Z</time>
        <extensions>
          <ns3:TrackPointExtension>
            <ns3:atemp>18.0</ns3:atemp>
            <ns3:hr>143</ns3:hr>
          </ns3:TrackPointExtension>
        </extensions>
      </trkpt>
      <trkpt lat="-22.10682076402008533477783203125" lon="166.45713382400572299957275390625">
        <ele>466.20001220703125</ele>
        <time>2016-08-12T18:13:18.000Z</time>
        <extensions>
          <ns3:TrackPointExtension>
            <ns3:atemp>18.0</ns3:atemp>
            <ns3:hr>142</ns3:hr>
          </ns3:TrackPointExtension>
        </extensions>
      </trkpt>
      <trkpt lat="-22.1068121306598186492919921875" lon="166.45715528167784214019775390625">
        <ele>466.20001220703125</ele>
        <time>2016-08-12T18:13:19.000Z</time>
        <extensions>
          <ns3:TrackPointExtension>
            <ns3:atemp>18.0</ns3:atemp>
            <ns3:hr>142</ns3:hr>
          </ns3:TrackPointExtension>
        </extensions>
      </trkpt>
      <trkpt lat="-22.10680165328085422515869140625" lon="166.4571778289973735809326171875">
        <ele>466.600006103515625</ele>
        <time>2016-08-12T18:13:20.000Z</time>
        <extensions>
          <ns3:TrackPointExtension>
            <ns3:atemp>18.0</ns3:atemp>
            <ns3:hr>142</ns3:hr>
          </ns3:TrackPointExtension>
        </extensions>
      </trkpt>
      <trkpt lat="-22.10679243318736553192138671875" lon="166.45719601772725582122802734375">
        <ele>466.79998779296875</ele>
        <time>2016-08-12T18:13:21.000Z</time>
        <extensions>
          <ns3:TrackPointExtension>
            <ns3:atemp>18.0</ns3:atemp>
            <ns3:hr>142</ns3:hr>
          </ns3:TrackPointExtension>
        </extensions>
      </trkpt>
      <trkpt lat="-22.10678287781774997711181640625" lon="166.45720607601106166839599609375">
        <ele>466.79998779296875</ele>
        <time>2016-08-12T18:13:22.000Z</time>
        <extensions>
          <ns3:TrackPointExtension>
            <ns3:atemp>18.0</ns3:atemp>
            <ns3:hr>142</ns3:hr>
          </ns3:TrackPointExtension>
        </extensions>
      </trkpt>
      <trkpt lat="-22.1067745797336101531982421875" lon="166.45721814595162868499755859375">
        <ele>467</ele>
        <time>2016-08-12T18:13:23.000Z</time>
        <extensions>
          <ns3:TrackPointExtension>
            <ns3:atemp>18.0</ns3:atemp>
            <ns3:hr>142</ns3:hr>
          </ns3:TrackPointExtension>
        </extensions>
      </trkpt>
      <trkpt lat="-22.1067655272781848907470703125" lon="166.45722803659737110137939453125">
        <ele>467.20001220703125</ele>
        <time>2016-08-12T18:13:24.000Z</time>
        <extensions>
          <ns3:TrackPointExtension>
            <ns3:atemp>18.0</ns3:atemp>
            <ns3:hr>142</ns3:hr>
          </ns3:TrackPointExtension>
        </extensions>
      </trkpt>
      <trkpt lat="-22.1067531220614910125732421875" lon="166.4572341553866863250732421875">
        <ele>467.399993896484375</ele>
        <time>2016-08-12T18:13:25.000Z</time>
        <extensions>
          <ns3:TrackPointExtension>
            <ns3:atemp>18.0</ns3:atemp>
            <ns3:hr>142</ns3:hr>
          </ns3:TrackPointExtension>
        </extensions>
      </trkpt>
      <trkpt lat="-22.10673979483544826507568359375" lon="166.4572284556925296783447265625">
        <ele>467.600006103515625</ele>
        <time>2016-08-12T18:13:26.000Z</time>
        <extensions>
          <ns3:TrackPointExtension>
            <ns3:atemp>18.0</ns3:atemp>
            <ns3:hr>142</ns3:hr>
          </ns3:TrackPointExtension>
        </extensions>
      </trkpt>
      <trkpt lat="-22.10672621615231037139892578125" lon="166.45721797831356525421142578125">
        <ele>467.600006103515625</ele>
        <time>2016-08-12T18:13:27.000Z</time>
        <extensions>
          <ns3:TrackPointExtension>
            <ns3:atemp>18.0</ns3:atemp>
            <ns3:hr>142</ns3:hr>
          </ns3:TrackPointExtension>
        </extensions>
      </trkpt>
      <trkpt lat="-22.10671163164079189300537109375" lon="166.457210518419742584228515625">
        <ele>468</ele>
        <time>2016-08-12T18:13:28.000Z</time>
        <extensions>
          <ns3:TrackPointExtension>
            <ns3:atemp>18.0</ns3:atemp>
            <ns3:hr>143</ns3:hr>
          </ns3:TrackPointExtension>
        </extensions>
      </trkpt>
      <trkpt lat="-22.10669637657701969146728515625" lon="166.45720372907817363739013671875">
        <ele>468.399993896484375</ele>
        <time>2016-08-12T18:13:29.000Z</time>
        <extensions>
          <ns3:TrackPointExtension>
            <ns3:atemp>18.0</ns3:atemp>
            <ns3:hr>142</ns3:hr>
          </ns3:TrackPointExtension>
        </extensions>
      </trkpt>
      <trkpt lat="-22.1066813729703426361083984375" lon="166.45719610154628753662109375">
        <ele>468.399993896484375</ele>
        <time>2016-08-12T18:13:30.000Z</time>
        <extensions>
          <ns3:TrackPointExtension>
            <ns3:atemp>18.0</ns3:atemp>
            <ns3:hr>143</ns3:hr>
          </ns3:TrackPointExtension>
        </extensions>
      </trkpt>
      <trkpt lat="-22.10667190141975879669189453125" lon="166.45718403160572052001953125">
        <ele>468.600006103515625</ele>
        <time>2016-08-12T18:13:31.000Z</time>
        <extensions>
          <ns3:TrackPointExtension>
            <ns3:atemp>18.0</ns3:atemp>
            <ns3:hr>143</ns3:hr>
          </ns3:TrackPointExtension>
        </extensions>
      </trkpt>
      <trkpt lat="-22.1066607534885406494140625" lon="166.45717053674161434173583984375">
        <ele>468.79998779296875</ele>
        <time>2016-08-12T18:13:32.000Z</time>
        <extensions>
          <ns3:TrackPointExtension>
            <ns3:atemp>18.0</ns3:atemp>
            <ns3:hr>143</ns3:hr>
          </ns3:TrackPointExtension>
        </extensions>
      </trkpt>
      <trkpt lat="-22.10664943791925907135009765625" lon="166.45715586841106414794921875">
        <ele>469</ele>
        <time>2016-08-12T18:13:33.000Z</time>
        <extensions>
          <ns3:TrackPointExtension>
            <ns3:atemp>18.0</ns3:atemp>
            <ns3:hr>143</ns3:hr>
          </ns3:TrackPointExtension>
        </extensions>
      </trkpt>
      <trkpt lat="-22.10663921199738979339599609375" lon="166.4571406133472919464111328125">
        <ele>469.20001220703125</ele>
        <time>2016-08-12T18:13:34.000Z</time>
        <extensions>
          <ns3:TrackPointExtension>
            <ns3:atemp>18.0</ns3:atemp>
            <ns3:hr>143</ns3:hr>
          </ns3:TrackPointExtension>
        </extensions>
      </trkpt>
      <trkpt lat="-22.1066366136074066162109375" lon="166.45711873658001422882080078125">
        <ele>469.399993896484375</ele>
        <time>2016-08-12T18:13:35.000Z</time>
        <extensions>
          <ns3:TrackPointExtension>
            <ns3:atemp>18.0</ns3:atemp>
            <ns3:hr>144</ns3:hr>
          </ns3:TrackPointExtension>
        </extensions>
      </trkpt>
      <trkpt lat="-22.10663250647485256195068359375" lon="166.45709694363176822662353515625">
        <ele>469.79998779296875</ele>
        <time>2016-08-12T18:13:36.000Z</time>
        <extensions>
          <ns3:TrackPointExtension>
            <ns3:atemp>18.0</ns3:atemp>
            <ns3:hr>144</ns3:hr>
          </ns3:TrackPointExtension>
        </extensions>
      </trkpt>
      <trkpt lat="-22.1066260524094104766845703125" lon="166.457077078521251678466796875">
        <ele>469.79998779296875</ele>
        <time>2016-08-12T18:13:37.000Z</time>
        <extensions>
          <ns3:TrackPointExtension>
            <ns3:atemp>18.0</ns3:atemp>
            <ns3:hr>143</ns3:hr>
          </ns3:TrackPointExtension>
        </extensions>
      </trkpt>
      <trkpt lat="-22.106618173420429229736328125" lon="166.45705771632492542266845703125">
        <ele>469.79998779296875</ele>
        <time>2016-08-12T18:13:38.000Z</time>
        <extensions>
          <ns3:TrackPointExtension>
            <ns3:atemp>18.0</ns3:atemp>
            <ns3:hr>144</ns3:hr>
          </ns3:TrackPointExtension>
        </extensions>
      </trkpt>
      <trkpt lat="-22.10660920478403568267822265625" lon="166.45703894086182117462158203125">
        <ele>470.20001220703125</ele>
        <time>2016-08-12T18:13:39.000Z</time>
        <extensions>
          <ns3:TrackPointExtension>
            <ns3:atemp>18.0</ns3:atemp>
            <ns3:hr>144</ns3:hr>
          </ns3:TrackPointExtension>
        </extensions>
      </trkpt>
      <trkpt lat="-22.106602080166339874267578125" lon="166.4570189081132411956787109375">
        <ele>470.20001220703125</ele>
        <time>2016-08-12T18:13:40.000Z</time>
        <extensions>
          <ns3:TrackPointExtension>
            <ns3:atemp>18.0</ns3:atemp>
            <ns3:hr>144</ns3:hr>
          </ns3:TrackPointExtension>
        </extensions>
      </trkpt>
      <trkpt lat="-22.10658741183578968048095703125" lon="166.456999294459819793701171875">
        <ele>470.20001220703125</ele>
        <time>2016-08-12T18:13:41.000Z</time>
        <extensions>
          <ns3:TrackPointExtension>
            <ns3:atemp>18.0</ns3:atemp>
            <ns3:hr>144</ns3:hr>
          </ns3:TrackPointExtension>
        </extensions>
      </trkpt>
      <trkpt lat="-22.10657131858170032501220703125" lon="166.4569826982915401458740234375">
        <ele>470.399993896484375</ele>
        <time>2016-08-12T18:13:42.000Z</time>
        <extensions>
          <ns3:TrackPointExtension>
            <ns3:atemp>18.0</ns3:atemp>
            <ns3:hr>144</ns3:hr>
          </ns3:TrackPointExtension>
        </extensions>
      </trkpt>
      <trkpt lat="-22.1065588295459747314453125" lon="166.45696819759905338287353515625">
        <ele>470.600006103515625</ele>
        <time>2016-08-12T18:13:43.000Z</time>
        <extensions>
          <ns3:TrackPointExtension>
            <ns3:atemp>18.0</ns3:atemp>
            <ns3:hr>144</ns3:hr>
          </ns3:TrackPointExtension>
        </extensions>
      </trkpt>
      <trkpt lat="-22.10654600523412227630615234375" lon="166.45695126615464687347412109375">
        <ele>470.79998779296875</ele>
        <time>2016-08-12T18:13:44.000Z</time>
        <extensions>
          <ns3:TrackPointExtension>
            <ns3:atemp>18.0</ns3:atemp>
            <ns3:hr>144</ns3:hr>
          </ns3:TrackPointExtension>
        </extensions>
      </trkpt>
      <trkpt lat="-22.10653360001742839813232421875" lon="166.4569364301860332489013671875">
        <ele>471</ele>
        <time>2016-08-12T18:13:45.000Z</time>
        <extensions>
          <ns3:TrackPointExtension>
            <ns3:atemp>18.0</ns3:atemp>
            <ns3:hr>145</ns3:hr>
          </ns3:TrackPointExtension>
        </extensions>
      </trkpt>
      <trkpt lat="-22.1065217815339565277099609375" lon="166.4569240249693393707275390625">
        <ele>471.20001220703125</ele>
        <time>2016-08-12T18:13:46.000Z</time>
        <extensions>
          <ns3:TrackPointExtension>
            <ns3:atemp>18.0</ns3:atemp>
            <ns3:hr>145</ns3:hr>
          </ns3:TrackPointExtension>
        </extensions>
      </trkpt>
      <trkpt lat="-22.10650308988988399505615234375" lon="166.45691220648586750030517578125">
        <ele>471.399993896484375</ele>
        <time>2016-08-12T18:13:47.000Z</time>
        <extensions>
          <ns3:TrackPointExtension>
            <ns3:atemp>18.0</ns3:atemp>
            <ns3:hr>144</ns3:hr>
          </ns3:TrackPointExtension>
        </extensions>
      </trkpt>
      <trkpt lat="-22.1064862422645092010498046875" lon="166.45690214820206165313720703125">
        <ele>471.399993896484375</ele>
        <time>2016-08-12T18:13:48.000Z</time>
        <extensions>
          <ns3:TrackPointExtension>
            <ns3:atemp>18.0</ns3:atemp>
            <ns3:hr>144</ns3:hr>
          </ns3:TrackPointExtension>
        </extensions>
      </trkpt>
      <trkpt lat="-22.1064735017716884613037109375" lon="166.45688890479505062103271484375">
        <ele>471.79998779296875</ele>
        <time>2016-08-12T18:13:49.000Z</time>
        <extensions>
          <ns3:TrackPointExtension>
            <ns3:atemp>18.0</ns3:atemp>
            <ns3:hr>145</ns3:hr>
          </ns3:TrackPointExtension>
        </extensions>
      </trkpt>
      <trkpt lat="-22.10646168328821659088134765625" lon="166.45687230862677097320556640625">
        <ele>472</ele>
        <time>2016-08-12T18:13:50.000Z</time>
        <extensions>
          <ns3:TrackPointExtension>
            <ns3:atemp>18.0</ns3:atemp>
            <ns3:hr>145</ns3:hr>
          </ns3:TrackPointExtension>
        </extensions>
      </trkpt>
      <trkpt lat="-22.10645162500441074371337890625" lon="166.4568562991917133331298828125">
        <ele>472</ele>
        <time>2016-08-12T18:13:51.000Z</time>
        <extensions>
          <ns3:TrackPointExtension>
            <ns3:atemp>18.0</ns3:atemp>
            <ns3:hr>144</ns3:hr>
          </ns3:TrackPointExtension>
        </extensions>
      </trkpt>
      <trkpt lat="-22.10643804632127285003662109375" lon="166.456837691366672515869140625">
        <ele>472.399993896484375</ele>
        <time>2016-08-12T18:13:52.000Z</time>
        <extensions>
          <ns3:TrackPointExtension>
            <ns3:atemp>18.0</ns3:atemp>
            <ns3:hr>144</ns3:hr>
          </ns3:TrackPointExtension>
        </extensions>
      </trkpt>
      <trkpt lat="-22.1064279042184352874755859375" lon="166.45681547932326793670654296875">
        <ele>472.600006103515625</ele>
        <time>2016-08-12T18:13:53.000Z</time>
        <extensions>
          <ns3:TrackPointExtension>
            <ns3:atemp>18.0</ns3:atemp>
            <ns3:hr>145</ns3:hr>
          </ns3:TrackPointExtension>
        </extensions>
      </trkpt>
      <trkpt lat="-22.10641943849623203277587890625" lon="166.4567972905933856964111328125">
        <ele>472.600006103515625</ele>
        <time>2016-08-12T18:13:54.000Z</time>
        <extensions>
          <ns3:TrackPointExtension>
            <ns3:atemp>18.0</ns3:atemp>
            <ns3:hr>144</ns3:hr>
          </ns3:TrackPointExtension>
        </extensions>
      </trkpt>
      <trkpt lat="-22.10641038604080677032470703125" lon="166.45677759312093257904052734375">
        <ele>473</ele>
        <time>2016-08-12T18:13:55.000Z</time>
        <extensions>
          <ns3:TrackPointExtension>
            <ns3:atemp>18.0</ns3:atemp>
            <ns3:hr>144</ns3:hr>
          </ns3:TrackPointExtension>
        </extensions>
      </trkpt>
      <trkpt lat="-22.10640284232795238494873046875" lon="166.45675814710557460784912109375">
        <ele>473.399993896484375</ele>
        <time>2016-08-12T18:13:56.000Z</time>
        <extensions>
          <ns3:TrackPointExtension>
            <ns3:atemp>18.0</ns3:atemp>
            <ns3:hr>145</ns3:hr>
          </ns3:TrackPointExtension>
        </extensions>
      </trkpt>
      <trkpt lat="-22.1063987351953983306884765625" lon="166.456741131842136383056640625">
        <ele>473.600006103515625</ele>
        <time>2016-08-12T18:13:57.000Z</time>
        <extensions>
          <ns3:TrackPointExtension>
            <ns3:atemp>18.0</ns3:atemp>
            <ns3:hr>145</ns3:hr>
          </ns3:TrackPointExtension>
        </extensions>
      </trkpt>
      <trkpt lat="-22.1063898503780364990234375" lon="166.4567220211029052734375">
        <ele>473.600006103515625</ele>
        <time>2016-08-12T18:13:58.000Z</time>
        <extensions>
          <ns3:TrackPointExtension>
            <ns3:atemp>18.0</ns3:atemp>
            <ns3:hr>144</ns3:hr>
          </ns3:TrackPointExtension>
        </extensions>
      </trkpt>
      <trkpt lat="-22.10637920536100864410400390625" lon="166.45670400001108646392822265625">
        <ele>474</ele>
        <time>2016-08-12T18:13:59.000Z</time>
        <extensions>
          <ns3:TrackPointExtension>
            <ns3:atemp>18.0</ns3:atemp>
            <ns3:hr>145</ns3:hr>
          </ns3:TrackPointExtension>
        </extensions>
      </trkpt>
      <trkpt lat="-22.10637132637202739715576171875" lon="166.45668606273829936981201171875">
        <ele>474</ele>
        <time>2016-08-12T18:14:00.000Z</time>
        <extensions>
          <ns3:TrackPointExtension>
            <ns3:atemp>18.0</ns3:atemp>
            <ns3:hr>145</ns3:hr>
          </ns3:TrackPointExtension>
        </extensions>
      </trkpt>
      <trkpt lat="-22.10636503994464874267578125" lon="166.4566668681800365447998046875">
        <ele>473.79998779296875</ele>
        <time>2016-08-12T18:14:01.000Z</time>
        <extensions>
          <ns3:TrackPointExtension>
            <ns3:atemp>18.0</ns3:atemp>
            <ns3:hr>144</ns3:hr>
          </ns3:TrackPointExtension>
        </extensions>
      </trkpt>
      <trkpt lat="-22.10636076517403125762939453125" lon="166.4566477574408054351806640625">
        <ele>474.20001220703125</ele>
        <time>2016-08-12T18:14:02.000Z</time>
        <extensions>
          <ns3:TrackPointExtension>
            <ns3:atemp>18.0</ns3:atemp>
            <ns3:hr>145</ns3:hr>
          </ns3:TrackPointExtension>
        </extensions>
      </trkpt>
      <trkpt lat="-22.10635657422244548797607421875" lon="166.45663082599639892578125">
        <ele>474.20001220703125</ele>
        <time>2016-08-12T18:14:03.000Z</time>
        <extensions>
          <ns3:TrackPointExtension>
            <ns3:atemp>18.0</ns3:atemp>
            <ns3:hr>145</ns3:hr>
          </ns3:TrackPointExtension>
        </extensions>
      </trkpt>
      <trkpt lat="-22.106349952518939971923828125" lon="166.4566122181713581085205078125">
        <ele>474.20001220703125</ele>
        <time>2016-08-12T18:14:04.000Z</time>
        <extensions>
          <ns3:TrackPointExtension>
            <ns3:atemp>18.0</ns3:atemp>
            <ns3:hr>145</ns3:hr>
          </ns3:TrackPointExtension>
        </extensions>
      </trkpt>
      <trkpt lat="-22.10634232498705387115478515625" lon="166.4565951190888881683349609375">
        <ele>474.399993896484375</ele>
        <time>2016-08-12T18:14:05.000Z</time>
        <extensions>
          <ns3:TrackPointExtension>
            <ns3:atemp>18.0</ns3:atemp>
            <ns3:hr>145</ns3:hr>
          </ns3:TrackPointExtension>
        </extensions>
      </trkpt>
      <trkpt lat="-22.10633729584515094757080078125" lon="166.4565766789019107818603515625">
        <ele>474.600006103515625</ele>
        <time>2016-08-12T18:14:06.000Z</time>
        <extensions>
          <ns3:TrackPointExtension>
            <ns3:atemp>18.0</ns3:atemp>
            <ns3:hr>145</ns3:hr>
          </ns3:TrackPointExtension>
        </extensions>
      </trkpt>
      <trkpt lat="-22.10633285343647003173828125" lon="166.45655505359172821044921875">
        <ele>474.600006103515625</ele>
        <time>2016-08-12T18:14:07.000Z</time>
        <extensions>
          <ns3:TrackPointExtension>
            <ns3:atemp>18.0</ns3:atemp>
            <ns3:hr>145</ns3:hr>
          </ns3:TrackPointExtension>
        </extensions>
      </trkpt>
      <trkpt lat="-22.10632807575166225433349609375" lon="166.4565356075763702392578125">
        <ele>474.79998779296875</ele>
        <time>2016-08-12T18:14:08.000Z</time>
        <extensions>
          <ns3:TrackPointExtension>
            <ns3:atemp>18.0</ns3:atemp>
            <ns3:hr>145</ns3:hr>
          </ns3:TrackPointExtension>
        </extensions>
      </trkpt>
      <trkpt lat="-22.10632053203880786895751953125" lon="166.45651758648455142974853515625">
        <ele>475.20001220703125</ele>
        <time>2016-08-12T18:14:09.000Z</time>
        <extensions>
          <ns3:TrackPointExtension>
            <ns3:atemp>18.0</ns3:atemp>
            <ns3:hr>145</ns3:hr>
          </ns3:TrackPointExtension>
        </extensions>
      </trkpt>
      <trkpt lat="-22.10631399415433406829833984375" lon="166.456496715545654296875">
        <ele>475.20001220703125</ele>
        <time>2016-08-12T18:14:10.000Z</time>
        <extensions>
          <ns3:TrackPointExtension>
            <ns3:atemp>18.0</ns3:atemp>
            <ns3:hr>145</ns3:hr>
          </ns3:TrackPointExtension>
        </extensions>
      </trkpt>
      <trkpt lat="-22.10630871355533599853515625" lon="166.45647718571126461029052734375">
        <ele>475.20001220703125</ele>
        <time>2016-08-12T18:14:11.000Z</time>
        <extensions>
          <ns3:TrackPointExtension>
            <ns3:atemp>18.0</ns3:atemp>
            <ns3:hr>145</ns3:hr>
          </ns3:TrackPointExtension>
        </extensions>
      </trkpt>
      <trkpt lat="-22.106307707726955413818359375" lon="166.45645556040108203887939453125">
        <ele>475.600006103515625</ele>
        <time>2016-08-12T18:14:12.000Z</time>
        <extensions>
          <ns3:TrackPointExtension>
            <ns3:atemp>18.0</ns3:atemp>
            <ns3:hr>145</ns3:hr>
          </ns3:TrackPointExtension>
        </extensions>
      </trkpt>
      <trkpt lat="-22.10630829446017742156982421875" lon="166.456434689462184906005859375">
        <ele>475.600006103515625</ele>
        <time>2016-08-12T18:14:13.000Z</time>
        <extensions>
          <ns3:TrackPointExtension>
            <ns3:atemp>18.0</ns3:atemp>
            <ns3:hr>145</ns3:hr>
          </ns3:TrackPointExtension>
        </extensions>
      </trkpt>
      <trkpt lat="-22.106307037174701690673828125" lon="166.45641599781811237335205078125">
        <ele>475.600006103515625</ele>
        <time>2016-08-12T18:14:14.000Z</time>
        <extensions>
          <ns3:TrackPointExtension>
            <ns3:atemp>18.0</ns3:atemp>
            <ns3:hr>145</ns3:hr>
          </ns3:TrackPointExtension>
        </extensions>
      </trkpt>
      <trkpt lat="-22.1063045226037502288818359375" lon="166.4563949592411518096923828125">
        <ele>476</ele>
        <time>2016-08-12T18:14:15.000Z</time>
        <extensions>
          <ns3:TrackPointExtension>
            <ns3:atemp>18.0</ns3:atemp>
            <ns3:hr>144</ns3:hr>
          </ns3:TrackPointExtension>
        </extensions>
      </trkpt>
      <trkpt lat="-22.10630008019506931304931640625" lon="166.456376016139984130859375">
        <ele>476</ele>
        <time>2016-08-12T18:14:16.000Z</time>
        <extensions>
          <ns3:TrackPointExtension>
            <ns3:atemp>18.0</ns3:atemp>
            <ns3:hr>145</ns3:hr>
          </ns3:TrackPointExtension>
        </extensions>
      </trkpt>
      <trkpt lat="-22.1063011698424816131591796875" lon="166.4563560672104358673095703125">
        <ele>476</ele>
        <time>2016-08-12T18:14:17.000Z</time>
        <extensions>
          <ns3:TrackPointExtension>
            <ns3:atemp>18.0</ns3:atemp>
            <ns3:hr>145</ns3:hr>
          </ns3:TrackPointExtension>
        </extensions>
      </trkpt>
      <trkpt lat="-22.10630225948989391326904296875" lon="166.45633402280509471893310546875">
        <ele>476.20001220703125</ele>
        <time>2016-08-12T18:14:18.000Z</time>
        <extensions>
          <ns3:TrackPointExtension>
            <ns3:atemp>18.0</ns3:atemp>
            <ns3:hr>144</ns3:hr>
          </ns3:TrackPointExtension>
        </extensions>
      </trkpt>
      <trkpt lat="-22.106303684413433074951171875" lon="166.4563154987990856170654296875">
        <ele>476.20001220703125</ele>
        <time>2016-08-12T18:14:19.000Z</time>
        <extensions>
          <ns3:TrackPointExtension>
            <ns3:atemp>18.0</ns3:atemp>
            <ns3:hr>145</ns3:hr>
          </ns3:TrackPointExtension>
        </extensions>
      </trkpt>
      <trkpt lat="-22.106307707726955413818359375" lon="166.45629764534533023834228515625">
        <ele>476.20001220703125</ele>
        <time>2016-08-12T18:14:20.000Z</time>
        <extensions>
          <ns3:TrackPointExtension>
            <ns3:atemp>18.0</ns3:atemp>
            <ns3:hr>145</ns3:hr>
          </ns3:TrackPointExtension>
        </extensions>
      </trkpt>
      <trkpt lat="-22.1063093841075897216796875" lon="166.4562779478728771209716796875">
        <ele>476.399993896484375</ele>
        <time>2016-08-12T18:14:21.000Z</time>
        <extensions>
          <ns3:TrackPointExtension>
            <ns3:atemp>18.0</ns3:atemp>
            <ns3:hr>145</ns3:hr>
          </ns3:TrackPointExtension>
        </extensions>
      </trkpt>
      <trkpt lat="-22.10631013847887516021728515625" lon="166.45625942386686801910400390625">
        <ele>476.600006103515625</ele>
        <time>2016-08-12T18:14:22.000Z</time>
        <extensions>
          <ns3:TrackPointExtension>
            <ns3:atemp>18.0</ns3:atemp>
            <ns3:hr>144</ns3:hr>
          </ns3:TrackPointExtension>
        </extensions>
      </trkpt>
      <trkpt lat="-22.10631248541176319122314453125" lon="166.45623796619474887847900390625">
        <ele>476.600006103515625</ele>
        <time>2016-08-12T18:14:23.000Z</time>
        <extensions>
          <ns3:TrackPointExtension>
            <ns3:atemp>18.0</ns3:atemp>
            <ns3:hr>144</ns3:hr>
          </ns3:TrackPointExtension>
        </extensions>
      </trkpt>
      <trkpt lat="-22.10631282068789005279541015625" lon="166.456215418875217437744140625">
        <ele>477</ele>
        <time>2016-08-12T18:14:24.000Z</time>
        <extensions>
          <ns3:TrackPointExtension>
            <ns3:atemp>18.0</ns3:atemp>
            <ns3:hr>144</ns3:hr>
          </ns3:TrackPointExtension>
        </extensions>
      </trkpt>
      <trkpt lat="-22.10631248541176319122314453125" lon="166.4561951346695423126220703125">
        <ele>477</ele>
        <time>2016-08-12T18:14:25.000Z</time>
        <extensions>
          <ns3:TrackPointExtension>
            <ns3:atemp>18.0</ns3:atemp>
            <ns3:hr>144</ns3:hr>
          </ns3:TrackPointExtension>
        </extensions>
      </trkpt>
      <trkpt lat="-22.106310389935970306396484375" lon="166.4561740122735500335693359375">
        <ele>477</ele>
        <time>2016-08-12T18:14:26.000Z</time>
        <extensions>
          <ns3:TrackPointExtension>
            <ns3:atemp>18.0</ns3:atemp>
            <ns3:hr>144</ns3:hr>
          </ns3:TrackPointExtension>
        </extensions>
      </trkpt>
      <trkpt lat="-22.10630879737436771392822265625" lon="166.45615347661077976226806640625">
        <ele>477.20001220703125</ele>
        <time>2016-08-12T18:14:27.000Z</time>
        <extensions>
          <ns3:TrackPointExtension>
            <ns3:atemp>18.0</ns3:atemp>
            <ns3:hr>144</ns3:hr>
          </ns3:TrackPointExtension>
        </extensions>
      </trkpt>
      <trkpt lat="-22.10630309768021106719970703125" lon="166.45613704808056354522705078125">
        <ele>477.399993896484375</ele>
        <time>2016-08-12T18:14:28.000Z</time>
        <extensions>
          <ns3:TrackPointExtension>
            <ns3:atemp>18.0</ns3:atemp>
            <ns3:hr>144</ns3:hr>
          </ns3:TrackPointExtension>
        </extensions>
      </trkpt>
      <trkpt lat="-22.1063013374805450439453125" lon="166.4561190269887447357177734375">
        <ele>477.399993896484375</ele>
        <time>2016-08-12T18:14:29.000Z</time>
        <extensions>
          <ns3:TrackPointExtension>
            <ns3:atemp>18.0</ns3:atemp>
            <ns3:hr>144</ns3:hr>
          </ns3:TrackPointExtension>
        </extensions>
      </trkpt>
      <trkpt lat="-22.10630125366151332855224609375" lon="166.4560999162495136260986328125">
        <ele>477.600006103515625</ele>
        <time>2016-08-12T18:14:30.000Z</time>
        <extensions>
          <ns3:TrackPointExtension>
            <ns3:atemp>18.0</ns3:atemp>
            <ns3:hr>144</ns3:hr>
          </ns3:TrackPointExtension>
        </extensions>
      </trkpt>
      <trkpt lat="-22.106301672756671905517578125" lon="166.45608172751963138580322265625">
        <ele>477.600006103515625</ele>
        <time>2016-08-12T18:14:31.000Z</time>
        <extensions>
          <ns3:TrackPointExtension>
            <ns3:atemp>18.0</ns3:atemp>
            <ns3:hr>144</ns3:hr>
          </ns3:TrackPointExtension>
        </extensions>
      </trkpt>
      <trkpt lat="-22.106303684413433074951171875" lon="166.456061191856861114501953125">
        <ele>477.79998779296875</ele>
        <time>2016-08-12T18:14:32.000Z</time>
        <extensions>
          <ns3:TrackPointExtension>
            <ns3:atemp>18.0</ns3:atemp>
            <ns3:hr>144</ns3:hr>
          </ns3:TrackPointExtension>
        </extensions>
      </trkpt>
      <trkpt lat="-22.10630544461309909820556640625" lon="166.4560412429273128509521484375">
        <ele>478</ele>
        <time>2016-08-12T18:14:33.000Z</time>
        <extensions>
          <ns3:TrackPointExtension>
            <ns3:atemp>18.0</ns3:atemp>
            <ns3:hr>143</ns3:hr>
          </ns3:TrackPointExtension>
        </extensions>
      </trkpt>
      <trkpt lat="-22.106306366622447967529296875" lon="166.45602171309292316436767578125">
        <ele>478</ele>
        <time>2016-08-12T18:14:34.000Z</time>
        <extensions>
          <ns3:TrackPointExtension>
            <ns3:atemp>18.0</ns3:atemp>
            <ns3:hr>144</ns3:hr>
          </ns3:TrackPointExtension>
        </extensions>
      </trkpt>
      <trkpt lat="-22.10630812682211399078369140625" lon="166.4560010097920894622802734375">
        <ele>478.399993896484375</ele>
        <time>2016-08-12T18:14:35.000Z</time>
        <extensions>
          <ns3:TrackPointExtension>
            <ns3:atemp>18.0</ns3:atemp>
            <ns3:hr>143</ns3:hr>
          </ns3:TrackPointExtension>
        </extensions>
      </trkpt>
      <trkpt lat="-22.10631114430725574493408203125" lon="166.455981396138668060302734375">
        <ele>478.600006103515625</ele>
        <time>2016-08-12T18:14:36.000Z</time>
        <extensions>
          <ns3:TrackPointExtension>
            <ns3:atemp>18.0</ns3:atemp>
            <ns3:hr>143</ns3:hr>
          </ns3:TrackPointExtension>
        </extensions>
      </trkpt>
      <trkpt lat="-22.1063145808875560760498046875" lon="166.45596220158040523529052734375">
        <ele>478.79998779296875</ele>
        <time>2016-08-12T18:14:37.000Z</time>
        <extensions>
          <ns3:TrackPointExtension>
            <ns3:atemp>18.0</ns3:atemp>
            <ns3:hr>143</ns3:hr>
          </ns3:TrackPointExtension>
        </extensions>
      </trkpt>
      <trkpt lat="-22.10631868802011013031005859375" lon="166.45594091154634952545166015625">
        <ele>479</ele>
        <time>2016-08-12T18:14:38.000Z</time>
        <extensions>
          <ns3:TrackPointExtension>
            <ns3:atemp>18.0</ns3:atemp>
            <ns3:hr>144</ns3:hr>
          </ns3:TrackPointExtension>
        </extensions>
      </trkpt>
      <trkpt lat="-22.10632388480007648468017578125" lon="166.4559212140738964080810546875">
        <ele>479.20001220703125</ele>
        <time>2016-08-12T18:14:39.000Z</time>
        <extensions>
          <ns3:TrackPointExtension>
            <ns3:atemp>18.0</ns3:atemp>
            <ns3:hr>143</ns3:hr>
          </ns3:TrackPointExtension>
        </extensions>
      </trkpt>
      <trkpt lat="-22.10632883012294769287109375" lon="166.45590285770595073699951171875">
        <ele>479.399993896484375</ele>
        <time>2016-08-12T18:14:40.000Z</time>
        <extensions>
          <ns3:TrackPointExtension>
            <ns3:atemp>18.0</ns3:atemp>
            <ns3:hr>143</ns3:hr>
          </ns3:TrackPointExtension>
        </extensions>
      </trkpt>
      <trkpt lat="-22.10633478127419948577880859375" lon="166.45588324405252933502197265625">
        <ele>479.399993896484375</ele>
        <time>2016-08-12T18:14:41.000Z</time>
        <extensions>
          <ns3:TrackPointExtension>
            <ns3:atemp>18.0</ns3:atemp>
            <ns3:hr>143</ns3:hr>
          </ns3:TrackPointExtension>
        </extensions>
      </trkpt>
      <trkpt lat="-22.10634198971092700958251953125" lon="166.4558648876845836639404296875">
        <ele>479.600006103515625</ele>
        <time>2016-08-12T18:14:42.000Z</time>
        <extensions>
          <ns3:TrackPointExtension>
            <ns3:atemp>18.0</ns3:atemp>
            <ns3:hr>143</ns3:hr>
          </ns3:TrackPointExtension>
        </extensions>
      </trkpt>
      <trkpt lat="-22.10634835995733737945556640625" lon="166.45584804005920886993408203125">
        <ele>479.600006103515625</ele>
        <time>2016-08-12T18:14:43.000Z</time>
        <extensions>
          <ns3:TrackPointExtension>
            <ns3:atemp>18.0</ns3:atemp>
            <ns3:hr>143</ns3:hr>
          </ns3:TrackPointExtension>
        </extensions>
      </trkpt>
      <trkpt lat="-22.1063531376421451568603515625" lon="166.45582859404385089874267578125">
        <ele>479.79998779296875</ele>
        <time>2016-08-12T18:14:44.000Z</time>
        <extensions>
          <ns3:TrackPointExtension>
            <ns3:atemp>18.0</ns3:atemp>
            <ns3:hr>143</ns3:hr>
          </ns3:TrackPointExtension>
        </extensions>
      </trkpt>
      <trkpt lat="-22.1063561551272869110107421875" lon="166.4558065496385097503662109375">
        <ele>480.20001220703125</ele>
        <time>2016-08-12T18:14:45.000Z</time>
        <extensions>
          <ns3:TrackPointExtension>
            <ns3:atemp>18.0</ns3:atemp>
            <ns3:hr>143</ns3:hr>
          </ns3:TrackPointExtension>
        </extensions>
      </trkpt>
      <trkpt lat="-22.10635758005082607269287109375" lon="166.45578769035637378692626953125">
        <ele>480.20001220703125</ele>
        <time>2016-08-12T18:14:46.000Z</time>
        <extensions>
          <ns3:TrackPointExtension>
            <ns3:atemp>18.0</ns3:atemp>
            <ns3:hr>142</ns3:hr>
          </ns3:TrackPointExtension>
        </extensions>
      </trkpt>
      <trkpt lat="-22.1063561551272869110107421875" lon="166.45576656796038150787353515625">
        <ele>480.399993896484375</ele>
        <time>2016-08-12T18:14:47.000Z</time>
        <extensions>
          <ns3:TrackPointExtension>
            <ns3:atemp>18.0</ns3:atemp>
            <ns3:hr>142</ns3:hr>
          </ns3:TrackPointExtension>
        </extensions>
      </trkpt>
      <trkpt lat="-22.10635288618505001068115234375" lon="166.455744691193103790283203125">
        <ele>480.600006103515625</ele>
        <time>2016-08-12T18:14:48.000Z</time>
        <extensions>
          <ns3:TrackPointExtension>
            <ns3:atemp>18.0</ns3:atemp>
            <ns3:hr>142</ns3:hr>
          </ns3:TrackPointExtension>
        </extensions>
      </trkpt>
      <trkpt lat="-22.1063531376421451568603515625" lon="166.45572482608258724212646484375">
        <ele>480.399993896484375</ele>
        <time>2016-08-12T18:14:49.000Z</time>
        <extensions>
          <ns3:TrackPointExtension>
            <ns3:atemp>18.0</ns3:atemp>
            <ns3:hr>142</ns3:hr>
          </ns3:TrackPointExtension>
        </extensions>
      </trkpt>
      <trkpt lat="-22.1063548140227794647216796875" lon="166.45570253022015094757080078125">
        <ele>481</ele>
        <time>2016-08-12T18:14:50.000Z</time>
        <extensions>
          <ns3:TrackPointExtension>
            <ns3:atemp>18.0</ns3:atemp>
            <ns3:hr>142</ns3:hr>
          </ns3:TrackPointExtension>
        </extensions>
      </trkpt>
      <trkpt lat="-22.10635607130825519561767578125" lon="166.4556798152625560760498046875">
        <ele>481.20001220703125</ele>
        <time>2016-08-12T18:14:51.000Z</time>
        <extensions>
          <ns3:TrackPointExtension>
            <ns3:atemp>18.0</ns3:atemp>
            <ns3:hr>142</ns3:hr>
          </ns3:TrackPointExtension>
        </extensions>
      </trkpt>
      <trkpt lat="-22.10635942406952381134033203125" lon="166.4556596986949443817138671875">
        <ele>481.399993896484375</ele>
        <time>2016-08-12T18:14:52.000Z</time>
        <extensions>
          <ns3:TrackPointExtension>
            <ns3:atemp>18.0</ns3:atemp>
            <ns3:hr>142</ns3:hr>
          </ns3:TrackPointExtension>
        </extensions>
      </trkpt>
      <trkpt lat="-22.10636327974498271942138671875" lon="166.4556392468512058258056640625">
        <ele>481.399993896484375</ele>
        <time>2016-08-12T18:14:53.000Z</time>
        <extensions>
          <ns3:TrackPointExtension>
            <ns3:atemp>18.0</ns3:atemp>
            <ns3:hr>141</ns3:hr>
          </ns3:TrackPointExtension>
        </extensions>
      </trkpt>
      <trkpt lat="-22.1063675545156002044677734375" lon="166.45561896264553070068359375">
        <ele>481.399993896484375</ele>
        <time>2016-08-12T18:14:54.000Z</time>
        <extensions>
          <ns3:TrackPointExtension>
            <ns3:atemp>18.0</ns3:atemp>
            <ns3:hr>142</ns3:hr>
          </ns3:TrackPointExtension>
        </extensions>
      </trkpt>
      <trkpt lat="-22.106370739638805389404296875" lon="166.45559742115437984466552734375">
        <ele>481.600006103515625</ele>
        <time>2016-08-12T18:14:55.000Z</time>
        <extensions>
          <ns3:TrackPointExtension>
            <ns3:atemp>18.0</ns3:atemp>
            <ns3:hr>141</ns3:hr>
          </ns3:TrackPointExtension>
        </extensions>
      </trkpt>
      <trkpt lat="-22.1063695661723613739013671875" lon="166.4555735327303409576416015625">
        <ele>481.79998779296875</ele>
        <time>2016-08-12T18:14:56.000Z</time>
        <extensions>
          <ns3:TrackPointExtension>
            <ns3:atemp>18.0</ns3:atemp>
            <ns3:hr>141</ns3:hr>
          </ns3:TrackPointExtension>
        </extensions>
      </trkpt>
      <trkpt lat="-22.1063675545156002044677734375" lon="166.4555510692298412322998046875">
        <ele>482.20001220703125</ele>
        <time>2016-08-12T18:14:57.000Z</time>
        <extensions>
          <ns3:TrackPointExtension>
            <ns3:atemp>18.0</ns3:atemp>
            <ns3:hr>141</ns3:hr>
          </ns3:TrackPointExtension>
        </extensions>
      </trkpt>
      <trkpt lat="-22.1063662134110927581787109375" lon="166.4555289410054683685302734375">
        <ele>482.20001220703125</ele>
        <time>2016-08-12T18:14:58.000Z</time>
        <extensions>
          <ns3:TrackPointExtension>
            <ns3:atemp>18.0</ns3:atemp>
            <ns3:hr>141</ns3:hr>
          </ns3:TrackPointExtension>
        </extensions>
      </trkpt>
      <trkpt lat="-22.106366045773029327392578125" lon="166.455503962934017181396484375">
        <ele>482.399993896484375</ele>
        <time>2016-08-12T18:14:59.000Z</time>
        <extensions>
          <ns3:TrackPointExtension>
            <ns3:atemp>18.0</ns3:atemp>
            <ns3:hr>141</ns3:hr>
          </ns3:TrackPointExtension>
        </extensions>
      </trkpt>
      <trkpt lat="-22.106360681354999542236328125" lon="166.455481834709644317626953125">
        <ele>482.20001220703125</ele>
        <time>2016-08-12T18:15:00.000Z</time>
        <extensions>
          <ns3:TrackPointExtension>
            <ns3:atemp>18.0</ns3:atemp>
            <ns3:hr>141</ns3:hr>
          </ns3:TrackPointExtension>
        </extensions>
      </trkpt>
      <trkpt lat="-22.1063554845750331878662109375" lon="166.455461718142032623291015625">
        <ele>482.20001220703125</ele>
        <time>2016-08-12T18:15:01.000Z</time>
        <extensions>
          <ns3:TrackPointExtension>
            <ns3:atemp>18.0</ns3:atemp>
            <ns3:hr>141</ns3:hr>
          </ns3:TrackPointExtension>
        </extensions>
      </trkpt>
      <trkpt lat="-22.106349281966686248779296875" lon="166.45544067956507205963134765625">
        <ele>482.600006103515625</ele>
        <time>2016-08-12T18:15:02.000Z</time>
        <extensions>
          <ns3:TrackPointExtension>
            <ns3:atemp>18.0</ns3:atemp>
            <ns3:hr>140</ns3:hr>
          </ns3:TrackPointExtension>
        </extensions>
      </trkpt>
      <trkpt lat="-22.10634081624448299407958984375" lon="166.45541972480714321136474609375">
        <ele>482.79998779296875</ele>
        <time>2016-08-12T18:15:03.000Z</time>
        <extensions>
          <ns3:TrackPointExtension>
            <ns3:atemp>18.0</ns3:atemp>
            <ns3:hr>140</ns3:hr>
          </ns3:TrackPointExtension>
        </extensions>
      </trkpt>
      <trkpt lat="-22.10633109323680400848388671875" lon="166.4554008655250072479248046875">
        <ele>483</ele>
        <time>2016-08-12T18:15:04.000Z</time>
        <extensions>
          <ns3:TrackPointExtension>
            <ns3:atemp>18.0</ns3:atemp>
            <ns3:hr>140</ns3:hr>
          </ns3:TrackPointExtension>
        </extensions>
      </trkpt>
      <trkpt lat="-22.10632078349590301513671875" lon="166.45538334734737873077392578125">
        <ele>483.20001220703125</ele>
        <time>2016-08-12T18:15:05.000Z</time>
        <extensions>
          <ns3:TrackPointExtension>
            <ns3:atemp>18.0</ns3:atemp>
            <ns3:hr>140</ns3:hr>
          </ns3:TrackPointExtension>
        </extensions>
      </trkpt>
      <trkpt lat="-22.1063098870217800140380859375" lon="166.455365829169750213623046875">
        <ele>483.20001220703125</ele>
        <time>2016-08-12T18:15:06.000Z</time>
        <extensions>
          <ns3:TrackPointExtension>
            <ns3:atemp>18.0</ns3:atemp>
            <ns3:hr>140</ns3:hr>
          </ns3:TrackPointExtension>
        </extensions>
      </trkpt>
      <trkpt lat="-22.106296978890895843505859375" lon="166.45534629933536052703857421875">
        <ele>483.399993896484375</ele>
        <time>2016-08-12T18:15:07.000Z</time>
        <extensions>
          <ns3:TrackPointExtension>
            <ns3:atemp>18.0</ns3:atemp>
            <ns3:hr>140</ns3:hr>
          </ns3:TrackPointExtension>
        </extensions>
      </trkpt>
      <trkpt lat="-22.10628398694097995758056640625" lon="166.45532534457743167877197265625">
        <ele>483.399993896484375</ele>
        <time>2016-08-12T18:15:08.000Z</time>
        <extensions>
          <ns3:TrackPointExtension>
            <ns3:atemp>18.0</ns3:atemp>
            <ns3:hr>140</ns3:hr>
          </ns3:TrackPointExtension>
        </extensions>
      </trkpt>
      <trkpt lat="-22.10626990534365177154541015625" lon="166.4553063176572322845458984375">
        <ele>483.399993896484375</ele>
        <time>2016-08-12T18:15:09.000Z</time>
        <extensions>
          <ns3:TrackPointExtension>
            <ns3:atemp>18.0</ns3:atemp>
            <ns3:hr>140</ns3:hr>
          </ns3:TrackPointExtension>
        </extensions>
      </trkpt>
      <trkpt lat="-22.10625909268856048583984375" lon="166.45528770983219146728515625">
        <ele>483.399993896484375</ele>
        <time>2016-08-12T18:15:10.000Z</time>
        <extensions>
          <ns3:TrackPointExtension>
            <ns3:atemp>18.0</ns3:atemp>
            <ns3:hr>140</ns3:hr>
          </ns3:TrackPointExtension>
        </extensions>
      </trkpt>
      <trkpt lat="-22.1062530577182769775390625" lon="166.4552680961787700653076171875">
        <ele>483.399993896484375</ele>
        <time>2016-08-12T18:15:11.000Z</time>
        <extensions>
          <ns3:TrackPointExtension>
            <ns3:atemp>18.0</ns3:atemp>
            <ns3:hr>140</ns3:hr>
          </ns3:TrackPointExtension>
        </extensions>
      </trkpt>
      <trkpt lat="-22.10624727420508861541748046875" lon="166.45524890162050724029541015625">
        <ele>483.600006103515625</ele>
        <time>2016-08-12T18:15:12.000Z</time>
        <extensions>
          <ns3:TrackPointExtension>
            <ns3:atemp>18.0</ns3:atemp>
            <ns3:hr>140</ns3:hr>
          </ns3:TrackPointExtension>
        </extensions>
      </trkpt>
      <trkpt lat="-22.1062409877777099609375" lon="166.45523163489997386932373046875">
        <ele>484</ele>
        <time>2016-08-12T18:15:13.000Z</time>
        <extensions>
          <ns3:TrackPointExtension>
            <ns3:atemp>18.0</ns3:atemp>
            <ns3:hr>140</ns3:hr>
          </ns3:TrackPointExtension>
        </extensions>
      </trkpt>
      <trkpt lat="-22.10623235441744327545166015625" lon="166.455210931599140167236328125">
        <ele>484.20001220703125</ele>
        <time>2016-08-12T18:15:14.000Z</time>
        <extensions>
          <ns3:TrackPointExtension>
            <ns3:atemp>18.0</ns3:atemp>
            <ns3:hr>140</ns3:hr>
          </ns3:TrackPointExtension>
        </extensions>
      </trkpt>
      <trkpt lat="-22.1062267385423183441162109375" lon="166.45519039593636989593505859375">
        <ele>484.20001220703125</ele>
        <time>2016-08-12T18:15:15.000Z</time>
        <extensions>
          <ns3:TrackPointExtension>
            <ns3:atemp>18.0</ns3:atemp>
            <ns3:hr>140</ns3:hr>
          </ns3:TrackPointExtension>
        </extensions>
      </trkpt>
      <trkpt lat="-22.106222547590732574462890625" lon="166.45516960881650447845458984375">
        <ele>484.20001220703125</ele>
        <time>2016-08-12T18:15:16.000Z</time>
        <extensions>
          <ns3:TrackPointExtension>
            <ns3:atemp>18.0</ns3:atemp>
            <ns3:hr>140</ns3:hr>
          </ns3:TrackPointExtension>
        </extensions>
      </trkpt>
      <trkpt lat="-22.10621626116335391998291015625" lon="166.45514580421149730682373046875">
        <ele>484.399993896484375</ele>
        <time>2016-08-12T18:15:17.000Z</time>
        <extensions>
          <ns3:TrackPointExtension>
            <ns3:atemp>18.0</ns3:atemp>
            <ns3:hr>140</ns3:hr>
          </ns3:TrackPointExtension>
        </extensions>
      </trkpt>
      <trkpt lat="-22.1062089689075946807861328125" lon="166.45512585528194904327392578125">
        <ele>484.79998779296875</ele>
        <time>2016-08-12T18:15:18.000Z</time>
        <extensions>
          <ns3:TrackPointExtension>
            <ns3:atemp>18.0</ns3:atemp>
            <ns3:hr>140</ns3:hr>
          </ns3:TrackPointExtension>
        </extensions>
      </trkpt>
      <trkpt lat="-22.106201760470867156982421875" lon="166.4551044814288616180419921875">
        <ele>485</ele>
        <time>2016-08-12T18:15:19.000Z</time>
        <extensions>
          <ns3:TrackPointExtension>
            <ns3:atemp>18.0</ns3:atemp>
            <ns3:hr>140</ns3:hr>
          </ns3:TrackPointExtension>
        </extensions>
      </trkpt>
      <trkpt lat="-22.10619497112929821014404296875" lon="166.455083191394805908203125">
        <ele>485.20001220703125</ele>
        <time>2016-08-12T18:15:20.000Z</time>
        <extensions>
          <ns3:TrackPointExtension>
            <ns3:atemp>18.0</ns3:atemp>
            <ns3:hr>140</ns3:hr>
          </ns3:TrackPointExtension>
        </extensions>
      </trkpt>
      <trkpt lat="-22.10619078017771244049072265625" lon="166.45506097935140132904052734375">
        <ele>485.20001220703125</ele>
        <time>2016-08-12T18:15:21.000Z</time>
        <extensions>
          <ns3:TrackPointExtension>
            <ns3:atemp>18.0</ns3:atemp>
            <ns3:hr>140</ns3:hr>
          </ns3:TrackPointExtension>
        </extensions>
      </trkpt>
      <trkpt lat="-22.1061841584742069244384765625" lon="166.455037593841552734375">
        <ele>485.600006103515625</ele>
        <time>2016-08-12T18:15:22.000Z</time>
        <extensions>
          <ns3:TrackPointExtension>
            <ns3:atemp>18.0</ns3:atemp>
            <ns3:hr>140</ns3:hr>
          </ns3:TrackPointExtension>
        </extensions>
      </trkpt>
      <trkpt lat="-22.10617401637136936187744140625" lon="166.45501588471233844757080078125">
        <ele>485.79998779296875</ele>
        <time>2016-08-12T18:15:23.000Z</time>
        <extensions>
          <ns3:TrackPointExtension>
            <ns3:atemp>18.0</ns3:atemp>
            <ns3:hr>140</ns3:hr>
          </ns3:TrackPointExtension>
        </extensions>
      </trkpt>
      <trkpt lat="-22.10616680793464183807373046875" lon="166.4549938403069972991943359375">
        <ele>485.600006103515625</ele>
        <time>2016-08-12T18:15:24.000Z</time>
        <extensions>
          <ns3:TrackPointExtension>
            <ns3:atemp>18.0</ns3:atemp>
            <ns3:hr>140</ns3:hr>
          </ns3:TrackPointExtension>
        </extensions>
      </trkpt>
      <trkpt lat="-22.1061603538691997528076171875" lon="166.45497380755841732025146484375">
        <ele>485.600006103515625</ele>
        <time>2016-08-12T18:15:25.000Z</time>
        <extensions>
          <ns3:TrackPointExtension>
            <ns3:atemp>18.0</ns3:atemp>
            <ns3:hr>140</ns3:hr>
          </ns3:TrackPointExtension>
        </extensions>
      </trkpt>
      <trkpt lat="-22.10615540854632854461669921875" lon="166.454954110085964202880859375">
        <ele>485.79998779296875</ele>
        <time>2016-08-12T18:15:26.000Z</time>
        <extensions>
          <ns3:TrackPointExtension>
            <ns3:atemp>18.0</ns3:atemp>
            <ns3:hr>140</ns3:hr>
          </ns3:TrackPointExtension>
        </extensions>
      </trkpt>
      <trkpt lat="-22.10615071468055248260498046875" lon="166.45493231713771820068359375">
        <ele>485.79998779296875</ele>
        <time>2016-08-12T18:15:27.000Z</time>
        <extensions>
          <ns3:TrackPointExtension>
            <ns3:atemp>18.0</ns3:atemp>
            <ns3:hr>140</ns3:hr>
          </ns3:TrackPointExtension>
        </extensions>
      </trkpt>
      <trkpt lat="-22.1061415784060955047607421875" lon="166.4549110271036624908447265625">
        <ele>486.20001220703125</ele>
        <time>2016-08-12T18:15:28.000Z</time>
        <extensions>
          <ns3:TrackPointExtension>
            <ns3:atemp>18.0</ns3:atemp>
            <ns3:hr>141</ns3:hr>
          </ns3:TrackPointExtension>
        </extensions>
      </trkpt>
      <trkpt lat="-22.1061350405216217041015625" lon="166.4548902399837970733642578125">
        <ele>486.399993896484375</ele>
        <time>2016-08-12T18:15:29.000Z</time>
        <extensions>
          <ns3:TrackPointExtension>
            <ns3:atemp>18.0</ns3:atemp>
            <ns3:hr>141</ns3:hr>
          </ns3:TrackPointExtension>
        </extensions>
      </trkpt>
      <trkpt lat="-22.10613026283681392669677734375" lon="166.45486936904489994049072265625">
        <ele>486.399993896484375</ele>
        <time>2016-08-12T18:15:30.000Z</time>
        <extensions>
          <ns3:TrackPointExtension>
            <ns3:atemp>18.0</ns3:atemp>
            <ns3:hr>141</ns3:hr>
          </ns3:TrackPointExtension>
        </extensions>
      </trkpt>
      <trkpt lat="-22.10612540133297443389892578125" lon="166.45484740845859050750732421875">
        <ele>486.600006103515625</ele>
        <time>2016-08-12T18:15:31.000Z</time>
        <extensions>
          <ns3:TrackPointExtension>
            <ns3:atemp>18.0</ns3:atemp>
            <ns3:hr>141</ns3:hr>
          </ns3:TrackPointExtension>
        </extensions>
      </trkpt>
      <trkpt lat="-22.1061194501817226409912109375" lon="166.454828046262264251708984375">
        <ele>486.600006103515625</ele>
        <time>2016-08-12T18:15:32.000Z</time>
        <extensions>
          <ns3:TrackPointExtension>
            <ns3:atemp>18.0</ns3:atemp>
            <ns3:hr>141</ns3:hr>
          </ns3:TrackPointExtension>
        </extensions>
      </trkpt>
      <trkpt lat="-22.10611567832529544830322265625" lon="166.4548054151237010955810546875">
        <ele>486.600006103515625</ele>
        <time>2016-08-12T18:15:33.000Z</time>
        <extensions>
          <ns3:TrackPointExtension>
            <ns3:atemp>18.0</ns3:atemp>
            <ns3:hr>141</ns3:hr>
          </ns3:TrackPointExtension>
        </extensions>
      </trkpt>
      <trkpt lat="-22.10611081682145595550537109375" lon="166.4547839574515819549560546875">
        <ele>486.79998779296875</ele>
        <time>2016-08-12T18:15:34.000Z</time>
        <extensions>
          <ns3:TrackPointExtension>
            <ns3:atemp>18.0</ns3:atemp>
            <ns3:hr>141</ns3:hr>
          </ns3:TrackPointExtension>
        </extensions>
      </trkpt>
      <trkpt lat="-22.1061046980321407318115234375" lon="166.45476400852203369140625">
        <ele>487.20001220703125</ele>
        <time>2016-08-12T18:15:35.000Z</time>
        <extensions>
          <ns3:TrackPointExtension>
            <ns3:atemp>18.0</ns3:atemp>
            <ns3:hr>141</ns3:hr>
          </ns3:TrackPointExtension>
        </extensions>
      </trkpt>
      <trkpt lat="-22.10610377602279186248779296875" lon="166.45474095828831195831298828125">
        <ele>487.20001220703125</ele>
        <time>2016-08-12T18:15:36.000Z</time>
        <extensions>
          <ns3:TrackPointExtension>
            <ns3:atemp>18.0</ns3:atemp>
            <ns3:hr>141</ns3:hr>
          </ns3:TrackPointExtension>
        </extensions>
      </trkpt>
      <trkpt lat="-22.10610277019441127777099609375" lon="166.45472176373004913330078125">
        <ele>487.399993896484375</ele>
        <time>2016-08-12T18:15:37.000Z</time>
        <extensions>
          <ns3:TrackPointExtension>
            <ns3:atemp>18.0</ns3:atemp>
            <ns3:hr>141</ns3:hr>
          </ns3:TrackPointExtension>
        </extensions>
      </trkpt>
      <trkpt lat="-22.106105200946331024169921875" lon="166.45470164716243743896484375">
        <ele>487.79998779296875</ele>
        <time>2016-08-12T18:15:38.000Z</time>
        <extensions>
          <ns3:TrackPointExtension>
            <ns3:atemp>18.0</ns3:atemp>
            <ns3:hr>141</ns3:hr>
          </ns3:TrackPointExtension>
        </extensions>
      </trkpt>
      <trkpt lat="-22.10610620677471160888671875" lon="166.45468060858547687530517578125">
        <ele>487.79998779296875</ele>
        <time>2016-08-12T18:15:39.000Z</time>
        <extensions>
          <ns3:TrackPointExtension>
            <ns3:atemp>18.0</ns3:atemp>
            <ns3:hr>141</ns3:hr>
          </ns3:TrackPointExtension>
        </extensions>
      </trkpt>
      <trkpt lat="-22.10611023008823394775390625" lon="166.45466149784624576568603515625">
        <ele>487.79998779296875</ele>
        <time>2016-08-12T18:15:40.000Z</time>
        <extensions>
          <ns3:TrackPointExtension>
            <ns3:atemp>18.0</ns3:atemp>
            <ns3:hr>140</ns3:hr>
          </ns3:TrackPointExtension>
        </extensions>
      </trkpt>
      <trkpt lat="-22.1061162650585174560546875" lon="166.454644314944744110107421875">
        <ele>488.20001220703125</ele>
        <time>2016-08-12T18:15:41.000Z</time>
        <extensions>
          <ns3:TrackPointExtension>
            <ns3:atemp>18.0</ns3:atemp>
            <ns3:hr>140</ns3:hr>
          </ns3:TrackPointExtension>
        </extensions>
      </trkpt>
      <trkpt lat="-22.10612204857170581817626953125" lon="166.4546247012913227081298828125">
        <ele>488.20001220703125</ele>
        <time>2016-08-12T18:15:42.000Z</time>
        <extensions>
          <ns3:TrackPointExtension>
            <ns3:atemp>18.0</ns3:atemp>
            <ns3:hr>140</ns3:hr>
          </ns3:TrackPointExtension>
        </extensions>
      </trkpt>
      <trkpt lat="-22.10612607188522815704345703125" lon="166.45460567437112331390380859375">
        <ele>488.20001220703125</ele>
        <time>2016-08-12T18:15:43.000Z</time>
        <extensions>
          <ns3:TrackPointExtension>
            <ns3:atemp>18.0</ns3:atemp>
            <ns3:hr>140</ns3:hr>
          </ns3:TrackPointExtension>
        </extensions>
      </trkpt>
      <trkpt lat="-22.10613436996936798095703125" lon="166.45458689890801906585693359375">
        <ele>488.600006103515625</ele>
        <time>2016-08-12T18:15:44.000Z</time>
        <extensions>
          <ns3:TrackPointExtension>
            <ns3:atemp>18.0</ns3:atemp>
            <ns3:hr>141</ns3:hr>
          </ns3:TrackPointExtension>
        </extensions>
      </trkpt>
      <trkpt lat="-22.10614266805350780487060546875" lon="166.4545666985213756561279296875">
        <ele>488.600006103515625</ele>
        <time>2016-08-12T18:15:45.000Z</time>
        <extensions>
          <ns3:TrackPointExtension>
            <ns3:atemp>18.0</ns3:atemp>
            <ns3:hr>140</ns3:hr>
          </ns3:TrackPointExtension>
        </extensions>
      </trkpt>
      <trkpt lat="-22.10615088231861591339111328125" lon="166.454548425972461700439453125">
        <ele>488.600006103515625</ele>
        <time>2016-08-12T18:15:46.000Z</time>
        <extensions>
          <ns3:TrackPointExtension>
            <ns3:atemp>18.0</ns3:atemp>
            <ns3:hr>141</ns3:hr>
          </ns3:TrackPointExtension>
        </extensions>
      </trkpt>
      <trkpt lat="-22.1061623655259609222412109375" lon="166.45453141070902347564697265625">
        <ele>488.79998779296875</ele>
        <time>2016-08-12T18:15:47.000Z</time>
        <extensions>
          <ns3:TrackPointExtension>
            <ns3:atemp>18.0</ns3:atemp>
            <ns3:hr>141</ns3:hr>
          </ns3:TrackPointExtension>
        </extensions>
      </trkpt>
      <trkpt lat="-22.1061717532575130462646484375" lon="166.4545137248933315277099609375">
        <ele>489</ele>
        <time>2016-08-12T18:15:48.000Z</time>
        <extensions>
          <ns3:TrackPointExtension>
            <ns3:atemp>18.0</ns3:atemp>
            <ns3:hr>140</ns3:hr>
          </ns3:TrackPointExtension>
        </extensions>
      </trkpt>
      <trkpt lat="-22.1061794646084308624267578125" lon="166.45449721254408359527587890625">
        <ele>489.20001220703125</ele>
        <time>2016-08-12T18:15:49.000Z</time>
        <extensions>
          <ns3:TrackPointExtension>
            <ns3:atemp>18.0</ns3:atemp>
            <ns3:hr>141</ns3:hr>
          </ns3:TrackPointExtension>
        </extensions>
      </trkpt>
      <trkpt lat="-22.10618801414966583251953125" lon="166.4544785209000110626220703125">
        <ele>489.399993896484375</ele>
        <time>2016-08-12T18:15:50.000Z</time>
        <extensions>
          <ns3:TrackPointExtension>
            <ns3:atemp>18.0</ns3:atemp>
            <ns3:hr>141</ns3:hr>
          </ns3:TrackPointExtension>
        </extensions>
      </trkpt>
      <trkpt lat="-22.10619480349123477935791015625" lon="166.4544610865414142608642578125">
        <ele>489.600006103515625</ele>
        <time>2016-08-12T18:15:51.000Z</time>
        <extensions>
          <ns3:TrackPointExtension>
            <ns3:atemp>18.0</ns3:atemp>
            <ns3:hr>140</ns3:hr>
          </ns3:TrackPointExtension>
        </extensions>
      </trkpt>
      <trkpt lat="-22.10619983263313770294189453125" lon="166.45444574765861034393310546875">
        <ele>489.600006103515625</ele>
        <time>2016-08-12T18:15:52.000Z</time>
        <extensions>
          <ns3:TrackPointExtension>
            <ns3:atemp>18.0</ns3:atemp>
            <ns3:hr>141</ns3:hr>
          </ns3:TrackPointExtension>
        </extensions>
      </trkpt>
      <trkpt lat="-22.10620804689824581146240234375" lon="166.454427726566791534423828125">
        <ele>489.79998779296875</ele>
        <time>2016-08-12T18:15:53.000Z</time>
        <extensions>
          <ns3:TrackPointExtension>
            <ns3:atemp>18.0</ns3:atemp>
            <ns3:hr>140</ns3:hr>
          </ns3:TrackPointExtension>
        </extensions>
      </trkpt>
      <trkpt lat="-22.1062153391540050506591796875" lon="166.454409621655941009521484375">
        <ele>490</ele>
        <time>2016-08-12T18:15:54.000Z</time>
        <extensions>
          <ns3:TrackPointExtension>
            <ns3:atemp>18.0</ns3:atemp>
            <ns3:hr>140</ns3:hr>
          </ns3:TrackPointExtension>
        </extensions>
      </trkpt>
      <trkpt lat="-22.106220535933971405029296875" lon="166.45439495332539081573486328125">
        <ele>490</ele>
        <time>2016-08-12T18:15:55.000Z</time>
        <extensions>
          <ns3:TrackPointExtension>
            <ns3:atemp>18.0</ns3:atemp>
            <ns3:hr>140</ns3:hr>
          </ns3:TrackPointExtension>
        </extensions>
      </trkpt>
      <trkpt lat="-22.106229923665523529052734375" lon="166.45437668077647686004638671875">
        <ele>490.20001220703125</ele>
        <time>2016-08-12T18:15:56.000Z</time>
        <extensions>
          <ns3:TrackPointExtension>
            <ns3:atemp>18.0</ns3:atemp>
            <ns3:hr>140</ns3:hr>
          </ns3:TrackPointExtension>
        </extensions>
      </trkpt>
      <trkpt lat="-22.106236629188060760498046875" lon="166.4543594978749752044677734375">
        <ele>490.399993896484375</ele>
        <time>2016-08-12T18:15:57.000Z</time>
        <extensions>
          <ns3:TrackPointExtension>
            <ns3:atemp>18.0</ns3:atemp>
            <ns3:hr>140</ns3:hr>
          </ns3:TrackPointExtension>
        </extensions>
      </trkpt>
      <trkpt lat="-22.1062450110912322998046875" lon="166.454343236982822418212890625">
        <ele>490.399993896484375</ele>
        <time>2016-08-12T18:15:58.000Z</time>
        <extensions>
          <ns3:TrackPointExtension>
            <ns3:atemp>18.0</ns3:atemp>
            <ns3:hr>140</ns3:hr>
          </ns3:TrackPointExtension>
        </extensions>
      </trkpt>
      <trkpt lat="-22.10625163279473781585693359375" lon="166.45432345569133758544921875">
        <ele>490.79998779296875</ele>
        <time>2016-08-12T18:15:59.000Z</time>
        <extensions>
          <ns3:TrackPointExtension>
            <ns3:atemp>18.0</ns3:atemp>
            <ns3:hr>140</ns3:hr>
          </ns3:TrackPointExtension>
        </extensions>
      </trkpt>
      <trkpt lat="-22.10625900886952877044677734375" lon="166.4543035067617893218994140625">
        <ele>491</ele>
        <time>2016-08-12T18:16:00.000Z</time>
        <extensions>
          <ns3:TrackPointExtension>
            <ns3:atemp>18.0</ns3:atemp>
            <ns3:hr>140</ns3:hr>
          </ns3:TrackPointExtension>
        </extensions>
      </trkpt>
      <trkpt lat="-22.10627191700041294097900390625" lon="166.45428481511771678924560546875">
        <ele>490.79998779296875</ele>
        <time>2016-08-12T18:16:01.000Z</time>
        <extensions>
          <ns3:TrackPointExtension>
            <ns3:atemp>18.0</ns3:atemp>
            <ns3:hr>140</ns3:hr>
          </ns3:TrackPointExtension>
        </extensions>
      </trkpt>
      <trkpt lat="-22.10628323256969451904296875" lon="166.4542646147310733795166015625">
        <ele>491</ele>
        <time>2016-08-12T18:16:02.000Z</time>
        <extensions>
          <ns3:TrackPointExtension>
            <ns3:atemp>18.0</ns3:atemp>
            <ns3:hr>140</ns3:hr>
          </ns3:TrackPointExtension>
        </extensions>
      </trkpt>
      <trkpt lat="-22.106293626129627227783203125" lon="166.45424743182957172393798828125">
        <ele>491.20001220703125</ele>
        <time>2016-08-12T18:16:03.000Z</time>
        <extensions>
          <ns3:TrackPointExtension>
            <ns3:atemp>18.0</ns3:atemp>
            <ns3:hr>140</ns3:hr>
          </ns3:TrackPointExtension>
        </extensions>
      </trkpt>
      <trkpt lat="-22.1063051931560039520263671875" lon="166.45422915928065776824951171875">
        <ele>491.399993896484375</ele>
        <time>2016-08-12T18:16:04.000Z</time>
        <extensions>
          <ns3:TrackPointExtension>
            <ns3:atemp>18.0</ns3:atemp>
            <ns3:hr>140</ns3:hr>
          </ns3:TrackPointExtension>
        </extensions>
      </trkpt>
      <trkpt lat="-22.10631935857236385345458984375" lon="166.45421004854142665863037109375">
        <ele>491.79998779296875</ele>
        <time>2016-08-12T18:16:05.000Z</time>
        <extensions>
          <ns3:TrackPointExtension>
            <ns3:atemp>18.0</ns3:atemp>
            <ns3:hr>140</ns3:hr>
          </ns3:TrackPointExtension>
        </extensions>
      </trkpt>
      <trkpt lat="-22.1063313446938991546630859375" lon="166.45419311709702014923095703125">
        <ele>491.79998779296875</ele>
        <time>2016-08-12T18:16:06.000Z</time>
        <extensions>
          <ns3:TrackPointExtension>
            <ns3:atemp>18.0</ns3:atemp>
            <ns3:hr>140</ns3:hr>
          </ns3:TrackPointExtension>
        </extensions>
      </trkpt>
      <trkpt lat="-22.10634148679673671722412109375" lon="166.454173587262630462646484375">
        <ele>491.79998779296875</ele>
        <time>2016-08-12T18:16:07.000Z</time>
        <extensions>
          <ns3:TrackPointExtension>
            <ns3:atemp>18.0</ns3:atemp>
            <ns3:hr>140</ns3:hr>
          </ns3:TrackPointExtension>
        </extensions>
      </trkpt>
      <trkpt lat="-22.1063522994518280029296875" lon="166.45415321923792362213134765625">
        <ele>491.79998779296875</ele>
        <time>2016-08-12T18:16:08.000Z</time>
        <extensions>
          <ns3:TrackPointExtension>
            <ns3:atemp>18.0</ns3:atemp>
            <ns3:hr>140</ns3:hr>
          </ns3:TrackPointExtension>
        </extensions>
      </trkpt>
      <trkpt lat="-22.1063645370304584503173828125" lon="166.454136036336421966552734375">
        <ele>491.79998779296875</ele>
        <time>2016-08-12T18:16:09.000Z</time>
        <extensions>
          <ns3:TrackPointExtension>
            <ns3:atemp>18.0</ns3:atemp>
            <ns3:hr>140</ns3:hr>
          </ns3:TrackPointExtension>
        </extensions>
      </trkpt>
      <trkpt lat="-22.106378786265850067138671875" lon="166.45411784760653972625732421875">
        <ele>492</ele>
        <time>2016-08-12T18:16:10.000Z</time>
        <extensions>
          <ns3:TrackPointExtension>
            <ns3:atemp>18.0</ns3:atemp>
            <ns3:hr>140</ns3:hr>
          </ns3:TrackPointExtension>
        </extensions>
      </trkpt>
      <trkpt lat="-22.10638649761676788330078125" lon="166.454095803201198577880859375">
        <ele>492.20001220703125</ele>
        <time>2016-08-12T18:16:11.000Z</time>
        <extensions>
          <ns3:TrackPointExtension>
            <ns3:atemp>18.0</ns3:atemp>
            <ns3:hr>140</ns3:hr>
          </ns3:TrackPointExtension>
        </extensions>
      </trkpt>
      <trkpt lat="-22.10639362223446369171142578125" lon="166.45407593809068202972412109375">
        <ele>492.20001220703125</ele>
        <time>2016-08-12T18:16:12.000Z</time>
        <extensions>
          <ns3:TrackPointExtension>
            <ns3:atemp>18.0</ns3:atemp>
            <ns3:hr>140</ns3:hr>
          </ns3:TrackPointExtension>
        </extensions>
      </trkpt>
      <trkpt lat="-22.1064027585089206695556640625" lon="166.4540537260472774505615234375">
        <ele>492.20001220703125</ele>
        <time>2016-08-12T18:16:13.000Z</time>
        <extensions>
          <ns3:TrackPointExtension>
            <ns3:atemp>18.0</ns3:atemp>
            <ns3:hr>140</ns3:hr>
          </ns3:TrackPointExtension>
        </extensions>
      </trkpt>
      <trkpt lat="-22.10641063749790191650390625" lon="166.4540295861661434173583984375">
        <ele>492.399993896484375</ele>
        <time>2016-08-12T18:16:14.000Z</time>
        <extensions>
          <ns3:TrackPointExtension>
            <ns3:atemp>18.0</ns3:atemp>
            <ns3:hr>140</ns3:hr>
          </ns3:TrackPointExtension>
        </extensions>
      </trkpt>
      <trkpt lat="-22.10641524754464626312255859375" lon="166.45401097834110260009765625">
        <ele>492.399993896484375</ele>
        <time>2016-08-12T18:16:15.000Z</time>
        <extensions>
          <ns3:TrackPointExtension>
            <ns3:atemp>18.0</ns3:atemp>
            <ns3:hr>140</ns3:hr>
          </ns3:TrackPointExtension>
        </extensions>
      </trkpt>
      <trkpt lat="-22.10642002522945404052734375" lon="166.453988514840602874755859375">
        <ele>492.399993896484375</ele>
        <time>2016-08-12T18:16:16.000Z</time>
        <extensions>
          <ns3:TrackPointExtension>
            <ns3:atemp>18.0</ns3:atemp>
            <ns3:hr>140</ns3:hr>
          </ns3:TrackPointExtension>
        </extensions>
      </trkpt>
      <trkpt lat="-22.10642337799072265625" lon="166.45396362058818340301513671875">
        <ele>492.600006103515625</ele>
        <time>2016-08-12T18:16:17.000Z</time>
        <extensions>
          <ns3:TrackPointExtension>
            <ns3:atemp>18.0</ns3:atemp>
            <ns3:hr>140</ns3:hr>
          </ns3:TrackPointExtension>
        </extensions>
      </trkpt>
      <trkpt lat="-22.1064245514571666717529296875" lon="166.453940235078334808349609375">
        <ele>492.79998779296875</ele>
        <time>2016-08-12T18:16:18.000Z</time>
        <extensions>
          <ns3:TrackPointExtension>
            <ns3:atemp>18.0</ns3:atemp>
            <ns3:hr>141</ns3:hr>
          </ns3:TrackPointExtension>
        </extensions>
      </trkpt>
      <trkpt lat="-22.10642597638070583343505859375" lon="166.45391567610204219818115234375">
        <ele>493</ele>
        <time>2016-08-12T18:16:19.000Z</time>
        <extensions>
          <ns3:TrackPointExtension>
            <ns3:atemp>18.0</ns3:atemp>
            <ns3:hr>141</ns3:hr>
          </ns3:TrackPointExtension>
        </extensions>
      </trkpt>
      <trkpt lat="-22.1064218692481517791748046875" lon="166.45389296114444732666015625">
        <ele>493.20001220703125</ele>
        <time>2016-08-12T18:16:20.000Z</time>
        <extensions>
          <ns3:TrackPointExtension>
            <ns3:atemp>18.0</ns3:atemp>
            <ns3:hr>140</ns3:hr>
          </ns3:TrackPointExtension>
        </extensions>
      </trkpt>
      <trkpt lat="-22.10641801357269287109375" lon="166.4538730122148990631103515625">
        <ele>493.20001220703125</ele>
        <time>2016-08-12T18:16:21.000Z</time>
        <extensions>
          <ns3:TrackPointExtension>
            <ns3:atemp>18.0</ns3:atemp>
            <ns3:hr>141</ns3:hr>
          </ns3:TrackPointExtension>
        </extensions>
      </trkpt>
      <trkpt lat="-22.1064161695539951324462890625" lon="166.45385214127600193023681640625">
        <ele>493.600006103515625</ele>
        <time>2016-08-12T18:16:22.000Z</time>
        <extensions>
          <ns3:TrackPointExtension>
            <ns3:atemp>18.0</ns3:atemp>
            <ns3:hr>140</ns3:hr>
          </ns3:TrackPointExtension>
        </extensions>
      </trkpt>
      <trkpt lat="-22.1064139902591705322265625" lon="166.4538300968706607818603515625">
        <ele>493.600006103515625</ele>
        <time>2016-08-12T18:16:23.000Z</time>
        <extensions>
          <ns3:TrackPointExtension>
            <ns3:atemp>18.0</ns3:atemp>
            <ns3:hr>140</ns3:hr>
          </ns3:TrackPointExtension>
        </extensions>
      </trkpt>
      <trkpt lat="-22.10640971548855304718017578125" lon="166.4538104832172393798828125">
        <ele>493.79998779296875</ele>
        <time>2016-08-12T18:16:24.000Z</time>
        <extensions>
          <ns3:TrackPointExtension>
            <ns3:atemp>18.0</ns3:atemp>
            <ns3:hr>140</ns3:hr>
          </ns3:TrackPointExtension>
        </extensions>
      </trkpt>
      <trkpt lat="-22.1064064465463161468505859375" lon="166.453789360821247100830078125">
        <ele>494</ele>
        <time>2016-08-12T18:16:25.000Z</time>
        <extensions>
          <ns3:TrackPointExtension>
            <ns3:atemp>18.0</ns3:atemp>
            <ns3:hr>140</ns3:hr>
          </ns3:TrackPointExtension>
        </extensions>
      </trkpt>
      <trkpt lat="-22.106403596699237823486328125" lon="166.4537663944065570831298828125">
        <ele>494.20001220703125</ele>
        <time>2016-08-12T18:16:26.000Z</time>
        <extensions>
          <ns3:TrackPointExtension>
            <ns3:atemp>18.0</ns3:atemp>
            <ns3:hr>140</ns3:hr>
          </ns3:TrackPointExtension>
        </extensions>
      </trkpt>
      <trkpt lat="-22.10640133358538150787353515625" lon="166.45374719984829425811767578125">
        <ele>494.20001220703125</ele>
        <time>2016-08-12T18:16:27.000Z</time>
        <extensions>
          <ns3:TrackPointExtension>
            <ns3:atemp>18.0</ns3:atemp>
            <ns3:hr>140</ns3:hr>
          </ns3:TrackPointExtension>
        </extensions>
      </trkpt>
      <trkpt lat="-22.10640183649957180023193359375" lon="166.45372708328068256378173828125">
        <ele>494.399993896484375</ele>
        <time>2016-08-12T18:16:28.000Z</time>
        <extensions>
          <ns3:TrackPointExtension>
            <ns3:atemp>18.0</ns3:atemp>
            <ns3:hr>141</ns3:hr>
          </ns3:TrackPointExtension>
        </extensions>
      </trkpt>
      <trkpt lat="-22.10640267468988895416259765625" lon="166.4537057094275951385498046875">
        <ele>494.600006103515625</ele>
        <time>2016-08-12T18:16:29.000Z</time>
        <extensions>
          <ns3:TrackPointExtension>
            <ns3:atemp>18.0</ns3:atemp>
            <ns3:hr>140</ns3:hr>
          </ns3:TrackPointExtension>
        </extensions>
      </trkpt>
      <trkpt lat="-22.106401585042476654052734375" lon="166.45368500612676143646240234375">
        <ele>494.600006103515625</ele>
        <time>2016-08-12T18:16:30.000Z</time>
        <extensions>
          <ns3:TrackPointExtension>
            <ns3:atemp>18.0</ns3:atemp>
            <ns3:hr>140</ns3:hr>
          </ns3:TrackPointExtension>
        </extensions>
      </trkpt>
      <trkpt lat="-22.1064007468521595001220703125" lon="166.45366187207400798797607421875">
        <ele>495</ele>
        <time>2016-08-12T18:16:31.000Z</time>
        <extensions>
          <ns3:TrackPointExtension>
            <ns3:atemp>18.0</ns3:atemp>
            <ns3:hr>140</ns3:hr>
          </ns3:TrackPointExtension>
        </extensions>
      </trkpt>
      <trkpt lat="-22.1063990704715251922607421875" lon="166.45363806746900081634521484375">
        <ele>495</ele>
        <time>2016-08-12T18:16:32.000Z</time>
        <extensions>
          <ns3:TrackPointExtension>
            <ns3:atemp>18.0</ns3:atemp>
            <ns3:hr>140</ns3:hr>
          </ns3:TrackPointExtension>
        </extensions>
      </trkpt>
      <trkpt lat="-22.106396220624446868896484375" lon="166.4536165259778499603271484375">
        <ele>495</ele>
        <time>2016-08-12T18:16:33.000Z</time>
        <extensions>
          <ns3:TrackPointExtension>
            <ns3:atemp>18.0</ns3:atemp>
            <ns3:hr>140</ns3:hr>
          </ns3:TrackPointExtension>
        </extensions>
      </trkpt>
      <trkpt lat="-22.10639345459640026092529296875" lon="166.45359314046800136566162109375">
        <ele>495.20001220703125</ele>
        <time>2016-08-12T18:16:34.000Z</time>
        <extensions>
          <ns3:TrackPointExtension>
            <ns3:atemp>18.0</ns3:atemp>
            <ns3:hr>141</ns3:hr>
          </ns3:TrackPointExtension>
        </extensions>
      </trkpt>
      <trkpt lat="-22.10639186203479766845703125" lon="166.45356983877718448638916015625">
        <ele>495.399993896484375</ele>
        <time>2016-08-12T18:16:35.000Z</time>
        <extensions>
          <ns3:TrackPointExtension>
            <ns3:atemp>18.0</ns3:atemp>
            <ns3:hr>140</ns3:hr>
          </ns3:TrackPointExtension>
        </extensions>
      </trkpt>
      <trkpt lat="-22.10639043711125850677490234375" lon="166.45354938693344593048095703125">
        <ele>495.399993896484375</ele>
        <time>2016-08-12T18:16:36.000Z</time>
        <extensions>
          <ns3:TrackPointExtension>
            <ns3:atemp>18.0</ns3:atemp>
            <ns3:hr>141</ns3:hr>
          </ns3:TrackPointExtension>
        </extensions>
      </trkpt>
      <trkpt lat="-22.10639026947319507598876953125" lon="166.4535261690616607666015625">
        <ele>495.600006103515625</ele>
        <time>2016-08-12T18:16:37.000Z</time>
        <extensions>
          <ns3:TrackPointExtension>
            <ns3:atemp>18.0</ns3:atemp>
            <ns3:hr>141</ns3:hr>
          </ns3:TrackPointExtension>
        </extensions>
      </trkpt>
      <trkpt lat="-22.1063873358070850372314453125" lon="166.45350496284663677215576171875">
        <ele>495.79998779296875</ele>
        <time>2016-08-12T18:16:38.000Z</time>
        <extensions>
          <ns3:TrackPointExtension>
            <ns3:atemp>18.0</ns3:atemp>
            <ns3:hr>141</ns3:hr>
          </ns3:TrackPointExtension>
        </extensions>
      </trkpt>
      <trkpt lat="-22.10638205520808696746826171875" lon="166.45348501391708850860595703125">
        <ele>496</ele>
        <time>2016-08-12T18:16:39.000Z</time>
        <extensions>
          <ns3:TrackPointExtension>
            <ns3:atemp>18.0</ns3:atemp>
            <ns3:hr>141</ns3:hr>
          </ns3:TrackPointExtension>
        </extensions>
      </trkpt>
      <trkpt lat="-22.10637635551393032073974609375" lon="166.45346355624496936798095703125">
        <ele>496.20001220703125</ele>
        <time>2016-08-12T18:16:40.000Z</time>
        <extensions>
          <ns3:TrackPointExtension>
            <ns3:atemp>18.0</ns3:atemp>
            <ns3:hr>141</ns3:hr>
          </ns3:TrackPointExtension>
        </extensions>
      </trkpt>
      <trkpt lat="-22.10637015290558338165283203125" lon="166.45344209857285022735595703125">
        <ele>496.399993896484375</ele>
        <time>2016-08-12T18:16:41.000Z</time>
        <extensions>
          <ns3:TrackPointExtension>
            <ns3:atemp>18.0</ns3:atemp>
            <ns3:hr>141</ns3:hr>
          </ns3:TrackPointExtension>
        </extensions>
      </trkpt>
      <trkpt lat="-22.1063662134110927581787109375" lon="166.45342089235782623291015625">
        <ele>496.600006103515625</ele>
        <time>2016-08-12T18:16:42.000Z</time>
        <extensions>
          <ns3:TrackPointExtension>
            <ns3:atemp>18.0</ns3:atemp>
            <ns3:hr>141</ns3:hr>
          </ns3:TrackPointExtension>
        </extensions>
      </trkpt>
      <trkpt lat="-22.106362022459506988525390625" lon="166.45340002141892910003662109375">
        <ele>496.79998779296875</ele>
        <time>2016-08-12T18:16:43.000Z</time>
        <extensions>
          <ns3:TrackPointExtension>
            <ns3:atemp>18.0</ns3:atemp>
            <ns3:hr>141</ns3:hr>
          </ns3:TrackPointExtension>
        </extensions>
      </trkpt>
      <trkpt lat="-22.106362022459506988525390625" lon="166.4533781446516513824462890625">
        <ele>496.79998779296875</ele>
        <time>2016-08-12T18:16:44.000Z</time>
        <extensions>
          <ns3:TrackPointExtension>
            <ns3:atemp>18.0</ns3:atemp>
            <ns3:hr>141</ns3:hr>
          </ns3:TrackPointExtension>
        </extensions>
      </trkpt>
      <trkpt lat="-22.1063621900975704193115234375" lon="166.45335744135081768035888671875">
        <ele>496.600006103515625</ele>
        <time>2016-08-12T18:16:45.000Z</time>
        <extensions>
          <ns3:TrackPointExtension>
            <ns3:atemp>18.0</ns3:atemp>
            <ns3:hr>141</ns3:hr>
          </ns3:TrackPointExtension>
        </extensions>
      </trkpt>
      <trkpt lat="-22.10636076517403125762939453125" lon="166.45333665423095226287841796875">
        <ele>496.600006103515625</ele>
        <time>2016-08-12T18:16:46.000Z</time>
        <extensions>
          <ns3:TrackPointExtension>
            <ns3:atemp>18.0</ns3:atemp>
            <ns3:hr>141</ns3:hr>
          </ns3:TrackPointExtension>
        </extensions>
      </trkpt>
      <trkpt lat="-22.10636026225984096527099609375" lon="166.4533147774636745452880859375">
        <ele>496.79998779296875</ele>
        <time>2016-08-12T18:16:47.000Z</time>
        <extensions>
          <ns3:TrackPointExtension>
            <ns3:atemp>18.0</ns3:atemp>
            <ns3:hr>141</ns3:hr>
          </ns3:TrackPointExtension>
        </extensions>
      </trkpt>
      <trkpt lat="-22.106361351907253265380859375" lon="166.45329407416284084320068359375">
        <ele>497</ele>
        <time>2016-08-12T18:16:48.000Z</time>
        <extensions>
          <ns3:TrackPointExtension>
            <ns3:atemp>18.0</ns3:atemp>
            <ns3:hr>141</ns3:hr>
          </ns3:TrackPointExtension>
        </extensions>
      </trkpt>
      <trkpt lat="-22.1063662134110927581787109375" lon="166.453273035585880279541015625">
        <ele>497.20001220703125</ele>
        <time>2016-08-12T18:16:49.000Z</time>
        <extensions>
          <ns3:TrackPointExtension>
            <ns3:atemp>18.0</ns3:atemp>
            <ns3:hr>141</ns3:hr>
          </ns3:TrackPointExtension>
        </extensions>
      </trkpt>
      <trkpt lat="-22.1063697338104248046875" lon="166.45325300283730030059814453125">
        <ele>497.600006103515625</ele>
        <time>2016-08-12T18:16:50.000Z</time>
        <extensions>
          <ns3:TrackPointExtension>
            <ns3:atemp>18.0</ns3:atemp>
            <ns3:hr>141</ns3:hr>
          </ns3:TrackPointExtension>
        </extensions>
      </trkpt>
      <trkpt lat="-22.1063699014484882354736328125" lon="166.45323489792644977569580078125">
        <ele>497.79998779296875</ele>
        <time>2016-08-12T18:16:51.000Z</time>
        <extensions>
          <ns3:TrackPointExtension>
            <ns3:atemp>18.0</ns3:atemp>
            <ns3:hr>141</ns3:hr>
          </ns3:TrackPointExtension>
        </extensions>
      </trkpt>
      <trkpt lat="-22.10637308657169342041015625" lon="166.45321411080658435821533203125">
        <ele>498</ele>
        <time>2016-08-12T18:16:52.000Z</time>
        <extensions>
          <ns3:TrackPointExtension>
            <ns3:atemp>18.0</ns3:atemp>
            <ns3:hr>142</ns3:hr>
          </ns3:TrackPointExtension>
        </extensions>
      </trkpt>
      <trkpt lat="-22.10637669079005718231201171875" lon="166.45319382660090923309326171875">
        <ele>498.20001220703125</ele>
        <time>2016-08-12T18:16:53.000Z</time>
        <extensions>
          <ns3:TrackPointExtension>
            <ns3:atemp>18.0</ns3:atemp>
            <ns3:hr>142</ns3:hr>
          </ns3:TrackPointExtension>
        </extensions>
      </trkpt>
      <trkpt lat="-22.10637987591326236724853515625" lon="166.45317220129072666168212890625">
        <ele>498</ele>
        <time>2016-08-12T18:16:54.000Z</time>
        <extensions>
          <ns3:TrackPointExtension>
            <ns3:atemp>18.0</ns3:atemp>
            <ns3:hr>141</ns3:hr>
          </ns3:TrackPointExtension>
        </extensions>
      </trkpt>
      <trkpt lat="-22.10638322867453098297119140625" lon="166.4531508274376392364501953125">
        <ele>498</ele>
        <time>2016-08-12T18:16:55.000Z</time>
        <extensions>
          <ns3:TrackPointExtension>
            <ns3:atemp>18.0</ns3:atemp>
            <ns3:hr>142</ns3:hr>
          </ns3:TrackPointExtension>
        </extensions>
      </trkpt>
      <trkpt lat="-22.10638389922678470611572265625" lon="166.453130878508090972900390625">
        <ele>498</ele>
        <time>2016-08-12T18:16:56.000Z</time>
        <extensions>
          <ns3:TrackPointExtension>
            <ns3:atemp>18.0</ns3:atemp>
            <ns3:hr>142</ns3:hr>
          </ns3:TrackPointExtension>
        </extensions>
      </trkpt>
      <trkpt lat="-22.10638389922678470611572265625" lon="166.45311218686401844024658203125">
        <ele>498.20001220703125</ele>
        <time>2016-08-12T18:16:57.000Z</time>
        <extensions>
          <ns3:TrackPointExtension>
            <ns3:atemp>18.0</ns3:atemp>
            <ns3:hr>141</ns3:hr>
          </ns3:TrackPointExtension>
        </extensions>
      </trkpt>
      <trkpt lat="-22.10638406686484813690185546875" lon="166.453093327581882476806640625">
        <ele>498.399993896484375</ele>
        <time>2016-08-12T18:16:58.000Z</time>
        <extensions>
          <ns3:TrackPointExtension>
            <ns3:atemp>18.0</ns3:atemp>
            <ns3:hr>141</ns3:hr>
          </ns3:TrackPointExtension>
        </extensions>
      </trkpt>
      <trkpt lat="-22.10638188757002353668212890625" lon="166.45307363010942935943603515625">
        <ele>498.79998779296875</ele>
        <time>2016-08-12T18:16:59.000Z</time>
        <extensions>
          <ns3:TrackPointExtension>
            <ns3:atemp>18.0</ns3:atemp>
            <ns3:hr>141</ns3:hr>
          </ns3:TrackPointExtension>
        </extensions>
      </trkpt>
      <trkpt lat="-22.10637920536100864410400390625" lon="166.45305284298956394195556640625">
        <ele>499</ele>
        <time>2016-08-12T18:17:00.000Z</time>
        <extensions>
          <ns3:TrackPointExtension>
            <ns3:atemp>18.0</ns3:atemp>
            <ns3:hr>141</ns3:hr>
          </ns3:TrackPointExtension>
        </extensions>
      </trkpt>
      <trkpt lat="-22.106376104056835174560546875" lon="166.45303222350776195526123046875">
        <ele>499</ele>
        <time>2016-08-12T18:17:01.000Z</time>
        <extensions>
          <ns3:TrackPointExtension>
            <ns3:atemp>18.0</ns3:atemp>
            <ns3:hr>141</ns3:hr>
          </ns3:TrackPointExtension>
        </extensions>
      </trkpt>
      <trkpt lat="-22.106374092400074005126953125" lon="166.45301185548305511474609375">
        <ele>499.20001220703125</ele>
        <time>2016-08-12T18:17:02.000Z</time>
        <extensions>
          <ns3:TrackPointExtension>
            <ns3:atemp>18.0</ns3:atemp>
            <ns3:hr>140</ns3:hr>
          </ns3:TrackPointExtension>
        </extensions>
      </trkpt>
      <trkpt lat="-22.10636948235332965850830078125" lon="166.4529915712773799896240234375">
        <ele>499.399993896484375</ele>
        <time>2016-08-12T18:17:03.000Z</time>
        <extensions>
          <ns3:TrackPointExtension>
            <ns3:atemp>18.0</ns3:atemp>
            <ns3:hr>140</ns3:hr>
          </ns3:TrackPointExtension>
        </extensions>
      </trkpt>
      <trkpt lat="-22.106361687183380126953125" lon="166.45297304727137088775634765625">
        <ele>499.600006103515625</ele>
        <time>2016-08-12T18:17:04.000Z</time>
        <extensions>
          <ns3:TrackPointExtension>
            <ns3:atemp>18.0</ns3:atemp>
            <ns3:hr>140</ns3:hr>
          </ns3:TrackPointExtension>
        </extensions>
      </trkpt>
      <trkpt lat="-22.10635489784181118011474609375" lon="166.452955193817615509033203125">
        <ele>499.79998779296875</ele>
        <time>2016-08-12T18:17:05.000Z</time>
        <extensions>
          <ns3:TrackPointExtension>
            <ns3:atemp>18.0</ns3:atemp>
            <ns3:hr>140</ns3:hr>
          </ns3:TrackPointExtension>
        </extensions>
      </trkpt>
      <trkpt lat="-22.10634802468121051788330078125" lon="166.45293784327805042266845703125">
        <ele>500</ele>
        <time>2016-08-12T18:17:06.000Z</time>
        <extensions>
          <ns3:TrackPointExtension>
            <ns3:atemp>18.0</ns3:atemp>
            <ns3:hr>140</ns3:hr>
          </ns3:TrackPointExtension>
        </extensions>
      </trkpt>
      <trkpt lat="-22.10634224116802215576171875" lon="166.45291973836719989776611328125">
        <ele>500.20001220703125</ele>
        <time>2016-08-12T18:17:07.000Z</time>
        <extensions>
          <ns3:TrackPointExtension>
            <ns3:atemp>18.0</ns3:atemp>
            <ns3:hr>140</ns3:hr>
          </ns3:TrackPointExtension>
        </extensions>
      </trkpt>
      <trkpt lat="-22.106337212026119232177734375" lon="166.452900208532810211181640625">
        <ele>500.20001220703125</ele>
        <time>2016-08-12T18:17:08.000Z</time>
        <extensions>
          <ns3:TrackPointExtension>
            <ns3:atemp>18.0</ns3:atemp>
            <ns3:hr>140</ns3:hr>
          </ns3:TrackPointExtension>
        </extensions>
      </trkpt>
      <trkpt lat="-22.10633461363613605499267578125" lon="166.45288101397454738616943359375">
        <ele>500.20001220703125</ele>
        <time>2016-08-12T18:17:09.000Z</time>
        <extensions>
          <ns3:TrackPointExtension>
            <ns3:atemp>18.0</ns3:atemp>
            <ns3:hr>140</ns3:hr>
          </ns3:TrackPointExtension>
        </extensions>
      </trkpt>
      <trkpt lat="-22.10633293725550174713134765625" lon="166.45286156795918941497802734375">
        <ele>500.399993896484375</ele>
        <time>2016-08-12T18:17:10.000Z</time>
        <extensions>
          <ns3:TrackPointExtension>
            <ns3:atemp>18.0</ns3:atemp>
            <ns3:hr>141</ns3:hr>
          </ns3:TrackPointExtension>
        </extensions>
      </trkpt>
      <trkpt lat="-22.10633444599807262420654296875" lon="166.452842541038990020751953125">
        <ele>500.600006103515625</ele>
        <time>2016-08-12T18:17:11.000Z</time>
        <extensions>
          <ns3:TrackPointExtension>
            <ns3:atemp>18.0</ns3:atemp>
            <ns3:hr>141</ns3:hr>
          </ns3:TrackPointExtension>
        </extensions>
      </trkpt>
      <trkpt lat="-22.10633679293096065521240234375" lon="166.45282368175685405731201171875">
        <ele>500.79998779296875</ele>
        <time>2016-08-12T18:17:12.000Z</time>
        <extensions>
          <ns3:TrackPointExtension>
            <ns3:atemp>18.0</ns3:atemp>
            <ns3:hr>141</ns3:hr>
          </ns3:TrackPointExtension>
        </extensions>
      </trkpt>
      <trkpt lat="-22.10633712820708751678466796875" lon="166.45280574448406696319580078125">
        <ele>501</ele>
        <time>2016-08-12T18:17:13.000Z</time>
        <extensions>
          <ns3:TrackPointExtension>
            <ns3:atemp>18.0</ns3:atemp>
            <ns3:hr>141</ns3:hr>
          </ns3:TrackPointExtension>
        </extensions>
      </trkpt>
      <trkpt lat="-22.10633612237870693206787109375" lon="166.45278654992580413818359375">
        <ele>501.20001220703125</ele>
        <time>2016-08-12T18:17:14.000Z</time>
        <extensions>
          <ns3:TrackPointExtension>
            <ns3:atemp>18.0</ns3:atemp>
            <ns3:hr>141</ns3:hr>
          </ns3:TrackPointExtension>
        </extensions>
      </trkpt>
      <trkpt lat="-22.10633419454097747802734375" lon="166.45276819355785846710205078125">
        <ele>501.79998779296875</ele>
        <time>2016-08-12T18:17:15.000Z</time>
        <extensions>
          <ns3:TrackPointExtension>
            <ns3:atemp>18.0</ns3:atemp>
            <ns3:hr>141</ns3:hr>
          </ns3:TrackPointExtension>
        </extensions>
      </trkpt>
      <trkpt lat="-22.1063336916267871856689453125" lon="166.4527495019137859344482421875">
        <ele>502</ele>
        <time>2016-08-12T18:17:16.000Z</time>
        <extensions>
          <ns3:TrackPointExtension>
            <ns3:atemp>18.0</ns3:atemp>
            <ns3:hr>141</ns3:hr>
          </ns3:TrackPointExtension>
        </extensions>
      </trkpt>
      <trkpt lat="-22.106331847608089447021484375" lon="166.452728547155857086181640625">
        <ele>502.20001220703125</ele>
        <time>2016-08-12T18:17:17.000Z</time>
        <extensions>
          <ns3:TrackPointExtension>
            <ns3:atemp>18.0</ns3:atemp>
            <ns3:hr>142</ns3:hr>
          </ns3:TrackPointExtension>
        </extensions>
      </trkpt>
      <trkpt lat="-22.1063286624848842620849609375" lon="166.45270868204534053802490234375">
        <ele>502.600006103515625</ele>
        <time>2016-08-12T18:17:18.000Z</time>
        <extensions>
          <ns3:TrackPointExtension>
            <ns3:atemp>18.0</ns3:atemp>
            <ns3:hr>142</ns3:hr>
          </ns3:TrackPointExtension>
        </extensions>
      </trkpt>
      <trkpt lat="-22.106326483190059661865234375" lon="166.45268823020160198211669921875">
        <ele>502.600006103515625</ele>
        <time>2016-08-12T18:17:19.000Z</time>
        <extensions>
          <ns3:TrackPointExtension>
            <ns3:atemp>18.0</ns3:atemp>
            <ns3:hr>142</ns3:hr>
          </ns3:TrackPointExtension>
        </extensions>
      </trkpt>
      <trkpt lat="-22.10632304660975933074951171875" lon="166.4526666887104511260986328125">
        <ele>502.79998779296875</ele>
        <time>2016-08-12T18:17:20.000Z</time>
        <extensions>
          <ns3:TrackPointExtension>
            <ns3:atemp>18.0</ns3:atemp>
            <ns3:hr>142</ns3:hr>
          </ns3:TrackPointExtension>
        </extensions>
      </trkpt>
      <trkpt lat="-22.10631818510591983795166015625" lon="166.45264699123799800872802734375">
        <ele>502.79998779296875</ele>
        <time>2016-08-12T18:17:21.000Z</time>
        <extensions>
          <ns3:TrackPointExtension>
            <ns3:atemp>18.0</ns3:atemp>
            <ns3:hr>142</ns3:hr>
          </ns3:TrackPointExtension>
        </extensions>
      </trkpt>
      <trkpt lat="-22.1063118986785411834716796875" lon="166.452627964317798614501953125">
        <ele>502.79998779296875</ele>
        <time>2016-08-12T18:17:22.000Z</time>
        <extensions>
          <ns3:TrackPointExtension>
            <ns3:atemp>18.0</ns3:atemp>
            <ns3:hr>142</ns3:hr>
          </ns3:TrackPointExtension>
        </extensions>
      </trkpt>
      <trkpt lat="-22.1063004992902278900146484375" lon="166.452608518302440643310546875">
        <ele>503.20001220703125</ele>
        <time>2016-08-12T18:17:23.000Z</time>
        <extensions>
          <ns3:TrackPointExtension>
            <ns3:atemp>18.0</ns3:atemp>
            <ns3:hr>142</ns3:hr>
          </ns3:TrackPointExtension>
        </extensions>
      </trkpt>
      <trkpt lat="-22.10629387758672237396240234375" lon="166.45258781500160694122314453125">
        <ele>503.20001220703125</ele>
        <time>2016-08-12T18:17:24.000Z</time>
        <extensions>
          <ns3:TrackPointExtension>
            <ns3:atemp>18.0</ns3:atemp>
            <ns3:hr>142</ns3:hr>
          </ns3:TrackPointExtension>
        </extensions>
      </trkpt>
      <trkpt lat="-22.1062860824167728424072265625" lon="166.4525677822530269622802734375">
        <ele>503.399993896484375</ele>
        <time>2016-08-12T18:17:25.000Z</time>
        <extensions>
          <ns3:TrackPointExtension>
            <ns3:atemp>18.0</ns3:atemp>
            <ns3:hr>142</ns3:hr>
          </ns3:TrackPointExtension>
        </extensions>
      </trkpt>
      <trkpt lat="-22.10627677850425243377685546875" lon="166.45254406146705150604248046875">
        <ele>503.600006103515625</ele>
        <time>2016-08-12T18:17:26.000Z</time>
        <extensions>
          <ns3:TrackPointExtension>
            <ns3:atemp>18.0</ns3:atemp>
            <ns3:hr>143</ns3:hr>
          </ns3:TrackPointExtension>
        </extensions>
      </trkpt>
      <trkpt lat="-22.1062713302671909332275390625" lon="166.4525228552520275115966796875">
        <ele>503.79998779296875</ele>
        <time>2016-08-12T18:17:27.000Z</time>
        <extensions>
          <ns3:TrackPointExtension>
            <ns3:atemp>18.0</ns3:atemp>
            <ns3:hr>143</ns3:hr>
          </ns3:TrackPointExtension>
        </extensions>
      </trkpt>
      <trkpt lat="-22.10626177489757537841796875" lon="166.4525044150650501251220703125">
        <ele>504</ele>
        <time>2016-08-12T18:17:28.000Z</time>
        <extensions>
          <ns3:TrackPointExtension>
            <ns3:atemp>18.0</ns3:atemp>
            <ns3:hr>143</ns3:hr>
          </ns3:TrackPointExtension>
        </extensions>
      </trkpt>
      <trkpt lat="-22.10624895058572292327880859375" lon="166.452484466135501861572265625">
        <ele>504.20001220703125</ele>
        <time>2016-08-12T18:17:29.000Z</time>
        <extensions>
          <ns3:TrackPointExtension>
            <ns3:atemp>18.0</ns3:atemp>
            <ns3:hr>143</ns3:hr>
          </ns3:TrackPointExtension>
        </extensions>
      </trkpt>
      <trkpt lat="-22.10623688064515590667724609375" lon="166.4524675346910953521728515625">
        <ele>504.20001220703125</ele>
        <time>2016-08-12T18:17:30.000Z</time>
        <extensions>
          <ns3:TrackPointExtension>
            <ns3:atemp>18.0</ns3:atemp>
            <ns3:hr>143</ns3:hr>
          </ns3:TrackPointExtension>
        </extensions>
      </trkpt>
      <trkpt lat="-22.10622598417103290557861328125" lon="166.45245253108441829681396484375">
        <ele>504.20001220703125</ele>
        <time>2016-08-12T18:17:31.000Z</time>
        <extensions>
          <ns3:TrackPointExtension>
            <ns3:atemp>18.0</ns3:atemp>
            <ns3:hr>143</ns3:hr>
          </ns3:TrackPointExtension>
        </extensions>
      </trkpt>
      <trkpt lat="-22.10621274076402187347412109375" lon="166.45243694074451923370361328125">
        <ele>504.20001220703125</ele>
        <time>2016-08-12T18:17:32.000Z</time>
        <extensions>
          <ns3:TrackPointExtension>
            <ns3:atemp>18.0</ns3:atemp>
            <ns3:hr>143</ns3:hr>
          </ns3:TrackPointExtension>
        </extensions>
      </trkpt>
      <trkpt lat="-22.10620276629924774169921875" lon="166.45242185331881046295166015625">
        <ele>504.399993896484375</ele>
        <time>2016-08-12T18:17:33.000Z</time>
        <extensions>
          <ns3:TrackPointExtension>
            <ns3:atemp>18.0</ns3:atemp>
            <ns3:hr>143</ns3:hr>
          </ns3:TrackPointExtension>
        </extensions>
      </trkpt>
      <trkpt lat="-22.10619379766285419464111328125" lon="166.452400647103786468505859375">
        <ele>504.79998779296875</ele>
        <time>2016-08-12T18:17:34.000Z</time>
        <extensions>
          <ns3:TrackPointExtension>
            <ns3:atemp>18.0</ns3:atemp>
            <ns3:hr>143</ns3:hr>
          </ns3:TrackPointExtension>
        </extensions>
      </trkpt>
      <trkpt lat="-22.10618223063647747039794921875" lon="166.45237994380295276641845703125">
        <ele>505</ele>
        <time>2016-08-12T18:17:35.000Z</time>
        <extensions>
          <ns3:TrackPointExtension>
            <ns3:atemp>18.0</ns3:atemp>
            <ns3:hr>143</ns3:hr>
          </ns3:TrackPointExtension>
        </extensions>
      </trkpt>
      <trkpt lat="-22.10616764612495899200439453125" lon="166.452362425625324249267578125">
        <ele>505</ele>
        <time>2016-08-12T18:17:36.000Z</time>
        <extensions>
          <ns3:TrackPointExtension>
            <ns3:atemp>18.0</ns3:atemp>
            <ns3:hr>143</ns3:hr>
          </ns3:TrackPointExtension>
        </extensions>
      </trkpt>
      <trkpt lat="-22.1061519719660282135009765625" lon="166.45234390161931514739990234375">
        <ele>505.399993896484375</ele>
        <time>2016-08-12T18:17:37.000Z</time>
        <extensions>
          <ns3:TrackPointExtension>
            <ns3:atemp>18.0</ns3:atemp>
            <ns3:hr>143</ns3:hr>
          </ns3:TrackPointExtension>
        </extensions>
      </trkpt>
      <trkpt lat="-22.1061395667493343353271484375" lon="166.45232428796589374542236328125">
        <ele>505.600006103515625</ele>
        <time>2016-08-12T18:17:38.000Z</time>
        <extensions>
          <ns3:TrackPointExtension>
            <ns3:atemp>18.0</ns3:atemp>
            <ns3:hr>143</ns3:hr>
          </ns3:TrackPointExtension>
        </extensions>
      </trkpt>
      <trkpt lat="-22.106127999722957611083984375" lon="166.452306769788265228271484375">
        <ele>505.600006103515625</ele>
        <time>2016-08-12T18:17:39.000Z</time>
        <extensions>
          <ns3:TrackPointExtension>
            <ns3:atemp>18.0</ns3:atemp>
            <ns3:hr>143</ns3:hr>
          </ns3:TrackPointExtension>
        </extensions>
      </trkpt>
      <trkpt lat="-22.10611115209758281707763671875" lon="166.4522898383438587188720703125">
        <ele>506</ele>
        <time>2016-08-12T18:17:40.000Z</time>
        <extensions>
          <ns3:TrackPointExtension>
            <ns3:atemp>18.0</ns3:atemp>
            <ns3:hr>143</ns3:hr>
          </ns3:TrackPointExtension>
        </extensions>
      </trkpt>
      <trkpt lat="-22.10609522648155689239501953125" lon="166.45227232016623020172119140625">
        <ele>506.20001220703125</ele>
        <time>2016-08-12T18:17:41.000Z</time>
        <extensions>
          <ns3:TrackPointExtension>
            <ns3:atemp>18.0</ns3:atemp>
            <ns3:hr>143</ns3:hr>
          </ns3:TrackPointExtension>
        </extensions>
      </trkpt>
      <trkpt lat="-22.10608215071260929107666015625" lon="166.4522546343505382537841796875">
        <ele>506</ele>
        <time>2016-08-12T18:17:42.000Z</time>
        <extensions>
          <ns3:TrackPointExtension>
            <ns3:atemp>18.0</ns3:atemp>
            <ns3:hr>143</ns3:hr>
          </ns3:TrackPointExtension>
        </extensions>
      </trkpt>
      <trkpt lat="-22.1060691587626934051513671875" lon="166.4522375352680683135986328125">
        <ele>506.399993896484375</ele>
        <time>2016-08-12T18:17:43.000Z</time>
        <extensions>
          <ns3:TrackPointExtension>
            <ns3:atemp>18.0</ns3:atemp>
            <ns3:hr>142</ns3:hr>
          </ns3:TrackPointExtension>
        </extensions>
      </trkpt>
      <trkpt lat="-22.1060540713369846343994140625" lon="166.45222253166139125823974609375">
        <ele>506.79998779296875</ele>
        <time>2016-08-12T18:17:44.000Z</time>
        <extensions>
          <ns3:TrackPointExtension>
            <ns3:atemp>18.0</ns3:atemp>
            <ns3:hr>143</ns3:hr>
          </ns3:TrackPointExtension>
        </extensions>
      </trkpt>
      <trkpt lat="-22.10604040883481502532958984375" lon="166.4522097073495388031005859375">
        <ele>506.600006103515625</ele>
        <time>2016-08-12T18:17:45.000Z</time>
        <extensions>
          <ns3:TrackPointExtension>
            <ns3:atemp>18.0</ns3:atemp>
            <ns3:hr>143</ns3:hr>
          </ns3:TrackPointExtension>
        </extensions>
      </trkpt>
      <trkpt lat="-22.10602481849491596221923828125" lon="166.4521959610283374786376953125">
        <ele>507</ele>
        <time>2016-08-12T18:17:46.000Z</time>
        <extensions>
          <ns3:TrackPointExtension>
            <ns3:atemp>18.0</ns3:atemp>
            <ns3:hr>142</ns3:hr>
          </ns3:TrackPointExtension>
        </extensions>
      </trkpt>
      <trkpt lat="-22.106009311974048614501953125" lon="166.4521798677742481231689453125">
        <ele>507</ele>
        <time>2016-08-12T18:17:47.000Z</time>
        <extensions>
          <ns3:TrackPointExtension>
            <ns3:atemp>18.0</ns3:atemp>
            <ns3:hr>142</ns3:hr>
          </ns3:TrackPointExtension>
        </extensions>
      </trkpt>
      <trkpt lat="-22.1059974096715450286865234375" lon="166.4521614275872707366943359375">
        <ele>507</ele>
        <time>2016-08-12T18:17:48.000Z</time>
        <extensions>
          <ns3:TrackPointExtension>
            <ns3:atemp>18.0</ns3:atemp>
            <ns3:hr>142</ns3:hr>
          </ns3:TrackPointExtension>
        </extensions>
      </trkpt>
      <trkpt lat="-22.10598207078874111175537109375" lon="166.4521429874002933502197265625">
        <ele>507.399993896484375</ele>
        <time>2016-08-12T18:17:49.000Z</time>
        <extensions>
          <ns3:TrackPointExtension>
            <ns3:atemp>18.0</ns3:atemp>
            <ns3:hr>142</ns3:hr>
          </ns3:TrackPointExtension>
        </extensions>
      </trkpt>
      <trkpt lat="-22.10596430115401744842529296875" lon="166.45212982781231403350830078125">
        <ele>507.600006103515625</ele>
        <time>2016-08-12T18:17:50.000Z</time>
        <extensions>
          <ns3:TrackPointExtension>
            <ns3:atemp>18.0</ns3:atemp>
            <ns3:hr>142</ns3:hr>
          </ns3:TrackPointExtension>
        </extensions>
      </trkpt>
      <trkpt lat="-22.10594854317605495452880859375" lon="166.45211926661431789398193359375">
        <ele>507.600006103515625</ele>
        <time>2016-08-12T18:17:51.000Z</time>
        <extensions>
          <ns3:TrackPointExtension>
            <ns3:atemp>18.0</ns3:atemp>
            <ns3:hr>142</ns3:hr>
          </ns3:TrackPointExtension>
        </extensions>
      </trkpt>
      <trkpt lat="-22.105930186808109283447265625" lon="166.45210837014019489288330078125">
        <ele>507.600006103515625</ele>
        <time>2016-08-12T18:17:52.000Z</time>
        <extensions>
          <ns3:TrackPointExtension>
            <ns3:atemp>18.0</ns3:atemp>
            <ns3:hr>142</ns3:hr>
          </ns3:TrackPointExtension>
        </extensions>
      </trkpt>
      <trkpt lat="-22.10590998642146587371826171875" lon="166.45210267044603824615478515625">
        <ele>507.79998779296875</ele>
        <time>2016-08-12T18:17:53.000Z</time>
        <extensions>
          <ns3:TrackPointExtension>
            <ns3:atemp>18.0</ns3:atemp>
            <ns3:hr>142</ns3:hr>
          </ns3:TrackPointExtension>
        </extensions>
      </trkpt>
      <trkpt lat="-22.10589154623448848724365234375" lon="166.4520967192947864532470703125">
        <ele>508</ele>
        <time>2016-08-12T18:17:54.000Z</time>
        <extensions>
          <ns3:TrackPointExtension>
            <ns3:atemp>18.0</ns3:atemp>
            <ns3:hr>142</ns3:hr>
          </ns3:TrackPointExtension>
        </extensions>
      </trkpt>
      <trkpt lat="-22.10587226785719394683837890625" lon="166.45208775065839290618896484375">
        <ele>508.20001220703125</ele>
        <time>2016-08-12T18:17:55.000Z</time>
        <extensions>
          <ns3:TrackPointExtension>
            <ns3:atemp>18.0</ns3:atemp>
            <ns3:hr>142</ns3:hr>
          </ns3:TrackPointExtension>
        </extensions>
      </trkpt>
      <trkpt lat="-22.10585533641278743743896484375" lon="166.45207920111715793609619140625">
        <ele>508.399993896484375</ele>
        <time>2016-08-12T18:17:56.000Z</time>
        <extensions>
          <ns3:TrackPointExtension>
            <ns3:atemp>18.0</ns3:atemp>
            <ns3:hr>142</ns3:hr>
          </ns3:TrackPointExtension>
        </extensions>
      </trkpt>
      <trkpt lat="-22.1058384887874126434326171875" lon="166.45207232795655727386474609375">
        <ele>508.79998779296875</ele>
        <time>2016-08-12T18:17:57.000Z</time>
        <extensions>
          <ns3:TrackPointExtension>
            <ns3:atemp>18.0</ns3:atemp>
            <ns3:hr>142</ns3:hr>
          </ns3:TrackPointExtension>
        </extensions>
      </trkpt>
      <trkpt lat="-22.10581845603883266448974609375" lon="166.452063024044036865234375">
        <ele>508.79998779296875</ele>
        <time>2016-08-12T18:17:58.000Z</time>
        <extensions>
          <ns3:TrackPointExtension>
            <ns3:atemp>18.0</ns3:atemp>
            <ns3:hr>142</ns3:hr>
          </ns3:TrackPointExtension>
        </extensions>
      </trkpt>
      <trkpt lat="-22.105803787708282470703125" lon="166.452053301036357879638671875">
        <ele>508.79998779296875</ele>
        <time>2016-08-12T18:17:59.000Z</time>
        <extensions>
          <ns3:TrackPointExtension>
            <ns3:atemp>18.0</ns3:atemp>
            <ns3:hr>141</ns3:hr>
          </ns3:TrackPointExtension>
        </extensions>
      </trkpt>
      <trkpt lat="-22.10579230450093746185302734375" lon="166.45204223692417144775390625">
        <ele>509</ele>
        <time>2016-08-12T18:18:00.000Z</time>
        <extensions>
          <ns3:TrackPointExtension>
            <ns3:atemp>18.0</ns3:atemp>
            <ns3:hr>141</ns3:hr>
          </ns3:TrackPointExtension>
        </extensions>
      </trkpt>
      <trkpt lat="-22.1057764627039432525634765625" lon="166.452025808393955230712890625">
        <ele>509.20001220703125</ele>
        <time>2016-08-12T18:18:01.000Z</time>
        <extensions>
          <ns3:TrackPointExtension>
            <ns3:atemp>18.0</ns3:atemp>
            <ns3:hr>141</ns3:hr>
          </ns3:TrackPointExtension>
        </extensions>
      </trkpt>
      <trkpt lat="-22.10576028563082218170166015625" lon="166.452011726796627044677734375">
        <ele>509.600006103515625</ele>
        <time>2016-08-12T18:18:02.000Z</time>
        <extensions>
          <ns3:TrackPointExtension>
            <ns3:atemp>18.0</ns3:atemp>
            <ns3:hr>142</ns3:hr>
          </ns3:TrackPointExtension>
        </extensions>
      </trkpt>
      <trkpt lat="-22.105745114386081695556640625" lon="166.4519964717328548431396484375">
        <ele>509.600006103515625</ele>
        <time>2016-08-12T18:18:03.000Z</time>
        <extensions>
          <ns3:TrackPointExtension>
            <ns3:atemp>18.0</ns3:atemp>
            <ns3:hr>141</ns3:hr>
          </ns3:TrackPointExtension>
        </extensions>
      </trkpt>
      <trkpt lat="-22.1057271771132946014404296875" lon="166.45197995938360691070556640625">
        <ele>509.79998779296875</ele>
        <time>2016-08-12T18:18:04.000Z</time>
        <extensions>
          <ns3:TrackPointExtension>
            <ns3:atemp>18.0</ns3:atemp>
            <ns3:hr>141</ns3:hr>
          </ns3:TrackPointExtension>
        </extensions>
      </trkpt>
      <trkpt lat="-22.10570982657372951507568359375" lon="166.45196847617626190185546875">
        <ele>509.79998779296875</ele>
        <time>2016-08-12T18:18:05.000Z</time>
        <extensions>
          <ns3:TrackPointExtension>
            <ns3:atemp>18.0</ns3:atemp>
            <ns3:hr>142</ns3:hr>
          </ns3:TrackPointExtension>
        </extensions>
      </trkpt>
      <trkpt lat="-22.10569306276738643646240234375" lon="166.45195640623569488525390625">
        <ele>510</ele>
        <time>2016-08-12T18:18:06.000Z</time>
        <extensions>
          <ns3:TrackPointExtension>
            <ns3:atemp>18.0</ns3:atemp>
            <ns3:hr>141</ns3:hr>
          </ns3:TrackPointExtension>
        </extensions>
      </trkpt>
      <trkpt lat="-22.10567562840878963470458984375" lon="166.45194232463836669921875">
        <ele>510</ele>
        <time>2016-08-12T18:18:07.000Z</time>
        <extensions>
          <ns3:TrackPointExtension>
            <ns3:atemp>18.0</ns3:atemp>
            <ns3:hr>141</ns3:hr>
          </ns3:TrackPointExtension>
        </extensions>
      </trkpt>
      <trkpt lat="-22.10565702058374881744384765625" lon="166.45193285308778285980224609375">
        <ele>510.20001220703125</ele>
        <time>2016-08-12T18:18:08.000Z</time>
        <extensions>
          <ns3:TrackPointExtension>
            <ns3:atemp>18.0</ns3:atemp>
            <ns3:hr>142</ns3:hr>
          </ns3:TrackPointExtension>
        </extensions>
      </trkpt>
      <trkpt lat="-22.10563992150127887725830078125" lon="166.45192463882267475128173828125">
        <ele>510.600006103515625</ele>
        <time>2016-08-12T18:18:09.000Z</time>
        <extensions>
          <ns3:TrackPointExtension>
            <ns3:atemp>18.0</ns3:atemp>
            <ns3:hr>141</ns3:hr>
          </ns3:TrackPointExtension>
        </extensions>
      </trkpt>
      <trkpt lat="-22.10562131367623805999755859375" lon="166.4519190229475498199462890625">
        <ele>510.600006103515625</ele>
        <time>2016-08-12T18:18:10.000Z</time>
        <extensions>
          <ns3:TrackPointExtension>
            <ns3:atemp>18.0</ns3:atemp>
            <ns3:hr>141</ns3:hr>
          </ns3:TrackPointExtension>
        </extensions>
      </trkpt>
      <trkpt lat="-22.10560061037540435791015625" lon="166.4519156701862812042236328125">
        <ele>510.79998779296875</ele>
        <time>2016-08-12T18:18:11.000Z</time>
        <extensions>
          <ns3:TrackPointExtension>
            <ns3:atemp>18.0</ns3:atemp>
            <ns3:hr>142</ns3:hr>
          </ns3:TrackPointExtension>
        </extensions>
      </trkpt>
      <trkpt lat="-22.105579487979412078857421875" lon="166.45191214978694915771484375">
        <ele>511</ele>
        <time>2016-08-12T18:18:12.000Z</time>
        <extensions>
          <ns3:TrackPointExtension>
            <ns3:atemp>18.0</ns3:atemp>
            <ns3:hr>142</ns3:hr>
          </ns3:TrackPointExtension>
        </extensions>
      </trkpt>
      <trkpt lat="-22.105558030307292938232421875" lon="166.4519049413502216339111328125">
        <ele>511</ele>
        <time>2016-08-12T18:18:13.000Z</time>
        <extensions>
          <ns3:TrackPointExtension>
            <ns3:atemp>18.0</ns3:atemp>
            <ns3:hr>141</ns3:hr>
          </ns3:TrackPointExtension>
        </extensions>
      </trkpt>
      <trkpt lat="-22.10553816519677639007568359375" lon="166.45190142095088958740234375">
        <ele>511.20001220703125</ele>
        <time>2016-08-12T18:18:14.000Z</time>
        <extensions>
          <ns3:TrackPointExtension>
            <ns3:atemp>18.0</ns3:atemp>
            <ns3:hr>141</ns3:hr>
          </ns3:TrackPointExtension>
        </extensions>
      </trkpt>
      <trkpt lat="-22.1055186353623867034912109375" lon="166.45189882256090641021728515625">
        <ele>511.399993896484375</ele>
        <time>2016-08-12T18:18:15.000Z</time>
        <extensions>
          <ns3:TrackPointExtension>
            <ns3:atemp>18.0</ns3:atemp>
            <ns3:hr>141</ns3:hr>
          </ns3:TrackPointExtension>
        </extensions>
      </trkpt>
      <trkpt lat="-22.1054951660335063934326171875" lon="166.45189412869513034820556640625">
        <ele>511.399993896484375</ele>
        <time>2016-08-12T18:18:16.000Z</time>
        <extensions>
          <ns3:TrackPointExtension>
            <ns3:atemp>18.0</ns3:atemp>
            <ns3:hr>141</ns3:hr>
          </ns3:TrackPointExtension>
        </extensions>
      </trkpt>
      <trkpt lat="-22.10547412745654582977294921875" lon="166.451891027390956878662109375">
        <ele>511.79998779296875</ele>
        <time>2016-08-12T18:18:17.000Z</time>
        <extensions>
          <ns3:TrackPointExtension>
            <ns3:atemp>18.0</ns3:atemp>
            <ns3:hr>141</ns3:hr>
          </ns3:TrackPointExtension>
        </extensions>
      </trkpt>
      <trkpt lat="-22.10545401088893413543701171875" lon="166.45188423804938793182373046875">
        <ele>512</ele>
        <time>2016-08-12T18:18:18.000Z</time>
        <extensions>
          <ns3:TrackPointExtension>
            <ns3:atemp>18.0</ns3:atemp>
            <ns3:hr>141</ns3:hr>
          </ns3:TrackPointExtension>
        </extensions>
      </trkpt>
      <trkpt lat="-22.1054349839687347412109375" lon="166.45187652669847011566162109375">
        <ele>512</ele>
        <time>2016-08-12T18:18:19.000Z</time>
        <extensions>
          <ns3:TrackPointExtension>
            <ns3:atemp>18.0</ns3:atemp>
            <ns3:hr>141</ns3:hr>
          </ns3:TrackPointExtension>
        </extensions>
      </trkpt>
      <trkpt lat="-22.10542090237140655517578125" lon="166.45187049172818660736083984375">
        <ele>512.20001220703125</ele>
        <time>2016-08-12T18:18:20.000Z</time>
        <extensions>
          <ns3:TrackPointExtension>
            <ns3:atemp>18.0</ns3:atemp>
            <ns3:hr>141</ns3:hr>
          </ns3:TrackPointExtension>
        </extensions>
      </trkpt>
      <trkpt lat="-22.1054160408675670623779296875" lon="166.45186831243336200714111328125">
        <ele>512.20001220703125</ele>
        <time>2016-08-12T18:18:21.000Z</time>
        <extensions>
          <ns3:TrackPointExtension>
            <ns3:atemp>18.0</ns3:atemp>
            <ns3:hr>141</ns3:hr>
          </ns3:TrackPointExtension>
        </extensions>
      </trkpt>
      <trkpt lat="-22.1054180525243282318115234375" lon="166.451866887509822845458984375">
        <ele>512.4000244140625</ele>
        <time>2016-08-12T18:18:23.000Z</time>
        <extensions>
          <ns3:TrackPointExtension>
            <ns3:atemp>18.0</ns3:atemp>
            <ns3:hr>141</ns3:hr>
          </ns3:TrackPointExtension>
        </extensions>
      </trkpt>
      <trkpt lat="-22.10542048327624797821044921875" lon="166.4518712460994720458984375">
        <ele>512.4000244140625</ele>
        <time>2016-08-12T18:18:24.000Z</time>
        <extensions>
          <ns3:TrackPointExtension>
            <ns3:atemp>18.0</ns3:atemp>
            <ns3:hr>141</ns3:hr>
          </ns3:TrackPointExtension>
        </extensions>
      </trkpt>
      <trkpt lat="-22.10542215965688228607177734375" lon="166.45187384448945522308349609375">
        <ele>512.4000244140625</ele>
        <time>2016-08-12T18:18:25.000Z</time>
        <extensions>
          <ns3:TrackPointExtension>
            <ns3:atemp>18.0</ns3:atemp>
            <ns3:hr>141</ns3:hr>
          </ns3:TrackPointExtension>
        </extensions>
      </trkpt>
      <trkpt lat="-22.10542358458042144775390625" lon="166.45187920890748500823974609375">
        <ele>512.4000244140625</ele>
        <time>2016-08-12T18:18:26.000Z</time>
        <extensions>
          <ns3:TrackPointExtension>
            <ns3:atemp>18.0</ns3:atemp>
            <ns3:hr>140</ns3:hr>
          </ns3:TrackPointExtension>
        </extensions>
      </trkpt>
      <trkpt lat="-22.10542584769427776336669921875" lon="166.45188189111649990081787109375">
        <ele>512.4000244140625</ele>
        <time>2016-08-12T18:18:27.000Z</time>
        <extensions>
          <ns3:TrackPointExtension>
            <ns3:atemp>18.0</ns3:atemp>
            <ns3:hr>140</ns3:hr>
          </ns3:TrackPointExtension>
        </extensions>
      </trkpt>
      <trkpt lat="-22.1054269373416900634765625" lon="166.45188323222100734710693359375">
        <ele>512.5999755859375</ele>
        <time>2016-08-12T18:18:29.000Z</time>
        <extensions>
          <ns3:TrackPointExtension>
            <ns3:atemp>18.0</ns3:atemp>
            <ns3:hr>138</ns3:hr>
          </ns3:TrackPointExtension>
        </extensions>
      </trkpt>
      <trkpt lat="-22.10542869754135608673095703125" lon="166.45188398659229278564453125">
        <ele>512.5999755859375</ele>
        <time>2016-08-12T18:18:30.000Z</time>
        <extensions>
          <ns3:TrackPointExtension>
            <ns3:atemp>18.0</ns3:atemp>
            <ns3:hr>137</ns3:hr>
          </ns3:TrackPointExtension>
        </extensions>
      </trkpt>
      <trkpt lat="-22.105428613722324371337890625" lon="166.45188725553452968597412109375">
        <ele>512.5999755859375</ele>
        <time>2016-08-12T18:18:31.000Z</time>
        <extensions>
          <ns3:TrackPointExtension>
            <ns3:atemp>18.0</ns3:atemp>
            <ns3:hr>137</ns3:hr>
          </ns3:TrackPointExtension>
        </extensions>
      </trkpt>
      <trkpt lat="-22.10542199201881885528564453125" lon="166.45188800990581512451171875">
        <ele>512.4000244140625</ele>
        <time>2016-08-12T18:18:32.000Z</time>
        <extensions>
          <ns3:TrackPointExtension>
            <ns3:atemp>18.0</ns3:atemp>
            <ns3:hr>137</ns3:hr>
          </ns3:TrackPointExtension>
        </extensions>
      </trkpt>
      <trkpt lat="-22.10542132146656513214111328125" lon="166.4518948830664157867431640625">
        <ele>512.5999755859375</ele>
        <time>2016-08-12T18:18:33.000Z</time>
        <extensions>
          <ns3:TrackPointExtension>
            <ns3:atemp>18.0</ns3:atemp>
            <ns3:hr>137</ns3:hr>
          </ns3:TrackPointExtension>
        </extensions>
      </trkpt>
      <trkpt lat="-22.105413861572742462158203125" lon="166.45188800990581512451171875">
        <ele>512.5999755859375</ele>
        <time>2016-08-12T18:18:34.000Z</time>
        <extensions>
          <ns3:TrackPointExtension>
            <ns3:atemp>18.0</ns3:atemp>
            <ns3:hr>138</ns3:hr>
          </ns3:TrackPointExtension>
        </extensions>
      </trkpt>
      <trkpt lat="-22.10540304891765117645263671875" lon="166.45188004709780216217041015625">
        <ele>512.79998779296875</ele>
        <time>2016-08-12T18:18:35.000Z</time>
        <extensions>
          <ns3:TrackPointExtension>
            <ns3:atemp>18.0</ns3:atemp>
            <ns3:hr>138</ns3:hr>
          </ns3:TrackPointExtension>
        </extensions>
      </trkpt>
      <trkpt lat="-22.10538812913000583648681640625" lon="166.45186797715723514556884765625">
        <ele>512.5999755859375</ele>
        <time>2016-08-12T18:18:36.000Z</time>
        <extensions>
          <ns3:TrackPointExtension>
            <ns3:atemp>18.0</ns3:atemp>
            <ns3:hr>139</ns3:hr>
          </ns3:TrackPointExtension>
        </extensions>
      </trkpt>
      <trkpt lat="-22.1053711138665676116943359375" lon="166.45185590721666812896728515625">
        <ele>512.5999755859375</ele>
        <time>2016-08-12T18:18:37.000Z</time>
        <extensions>
          <ns3:TrackPointExtension>
            <ns3:atemp>18.0</ns3:atemp>
            <ns3:hr>139</ns3:hr>
          </ns3:TrackPointExtension>
        </extensions>
      </trkpt>
      <trkpt lat="-22.105350159108638763427734375" lon="166.4518417418003082275390625">
        <ele>512.79998779296875</ele>
        <time>2016-08-12T18:18:38.000Z</time>
        <extensions>
          <ns3:TrackPointExtension>
            <ns3:atemp>18.0</ns3:atemp>
            <ns3:hr>140</ns3:hr>
          </ns3:TrackPointExtension>
        </extensions>
      </trkpt>
      <trkpt lat="-22.105331718921661376953125" lon="166.4518321864306926727294921875">
        <ele>513</ele>
        <time>2016-08-12T18:18:39.000Z</time>
        <extensions>
          <ns3:TrackPointExtension>
            <ns3:atemp>18.0</ns3:atemp>
            <ns3:hr>140</ns3:hr>
          </ns3:TrackPointExtension>
        </extensions>
      </trkpt>
      <trkpt lat="-22.105311267077922821044921875" lon="166.45182489417493343353271484375">
        <ele>513</ele>
        <time>2016-08-12T18:18:40.000Z</time>
        <extensions>
          <ns3:TrackPointExtension>
            <ns3:atemp>18.0</ns3:atemp>
            <ns3:hr>140</ns3:hr>
          </ns3:TrackPointExtension>
        </extensions>
      </trkpt>
      <trkpt lat="-22.10529291070997714996337890625" lon="166.45182305015623569488525390625">
        <ele>513.20001220703125</ele>
        <time>2016-08-12T18:18:41.000Z</time>
        <extensions>
          <ns3:TrackPointExtension>
            <ns3:atemp>18.0</ns3:atemp>
            <ns3:hr>140</ns3:hr>
          </ns3:TrackPointExtension>
        </extensions>
      </trkpt>
      <trkpt lat="-22.10527363233268260955810546875" lon="166.4518176019191741943359375">
        <ele>513.79998779296875</ele>
        <time>2016-08-12T18:18:42.000Z</time>
        <extensions>
          <ns3:TrackPointExtension>
            <ns3:atemp>18.0</ns3:atemp>
            <ns3:hr>140</ns3:hr>
          </ns3:TrackPointExtension>
        </extensions>
      </trkpt>
      <trkpt lat="-22.105254940688610076904296875" lon="166.4518067054450511932373046875">
        <ele>514</ele>
        <time>2016-08-12T18:18:43.000Z</time>
        <extensions>
          <ns3:TrackPointExtension>
            <ns3:atemp>18.0</ns3:atemp>
            <ns3:hr>140</ns3:hr>
          </ns3:TrackPointExtension>
        </extensions>
      </trkpt>
      <trkpt lat="-22.1052363328635692596435546875" lon="166.4517943002283573150634765625">
        <ele>514.20001220703125</ele>
        <time>2016-08-12T18:18:44.000Z</time>
        <extensions>
          <ns3:TrackPointExtension>
            <ns3:atemp>18.0</ns3:atemp>
            <ns3:hr>140</ns3:hr>
          </ns3:TrackPointExtension>
        </extensions>
      </trkpt>
      <trkpt lat="-22.105216719210147857666015625" lon="166.4517798833549022674560546875">
        <ele>514.20001220703125</ele>
        <time>2016-08-12T18:18:45.000Z</time>
        <extensions>
          <ns3:TrackPointExtension>
            <ns3:atemp>18.0</ns3:atemp>
            <ns3:hr>139</ns3:hr>
          </ns3:TrackPointExtension>
        </extensions>
      </trkpt>
      <trkpt lat="-22.10519936867058277130126953125" lon="166.451764293015003204345703125">
        <ele>514.5999755859375</ele>
        <time>2016-08-12T18:18:46.000Z</time>
        <extensions>
          <ns3:TrackPointExtension>
            <ns3:atemp>18.0</ns3:atemp>
            <ns3:hr>139</ns3:hr>
          </ns3:TrackPointExtension>
        </extensions>
      </trkpt>
      <trkpt lat="-22.10518612526357173919677734375" lon="166.4517480321228504180908203125">
        <ele>514.5999755859375</ele>
        <time>2016-08-12T18:18:47.000Z</time>
        <extensions>
          <ns3:TrackPointExtension>
            <ns3:atemp>18.0</ns3:atemp>
            <ns3:hr>139</ns3:hr>
          </ns3:TrackPointExtension>
        </extensions>
      </trkpt>
      <trkpt lat="-22.105171121656894683837890625" lon="166.45173269324004650115966796875">
        <ele>514.5999755859375</ele>
        <time>2016-08-12T18:18:48.000Z</time>
        <extensions>
          <ns3:TrackPointExtension>
            <ns3:atemp>18.0</ns3:atemp>
            <ns3:hr>138</ns3:hr>
          </ns3:TrackPointExtension>
        </extensions>
      </trkpt>
      <trkpt lat="-22.10515712387859821319580078125" lon="166.45171844400465488433837890625">
        <ele>515</ele>
        <time>2016-08-12T18:18:49.000Z</time>
        <extensions>
          <ns3:TrackPointExtension>
            <ns3:atemp>18.0</ns3:atemp>
            <ns3:hr>138</ns3:hr>
          </ns3:TrackPointExtension>
        </extensions>
      </trkpt>
      <trkpt lat="-22.1051481552422046661376953125" lon="166.451699249446392059326171875">
        <ele>515.20001220703125</ele>
        <time>2016-08-12T18:18:50.000Z</time>
        <extensions>
          <ns3:TrackPointExtension>
            <ns3:atemp>18.0</ns3:atemp>
            <ns3:hr>138</ns3:hr>
          </ns3:TrackPointExtension>
        </extensions>
      </trkpt>
      <trkpt lat="-22.10513868369162082672119140625" lon="166.451676785945892333984375">
        <ele>515</ele>
        <time>2016-08-12T18:18:51.000Z</time>
        <extensions>
          <ns3:TrackPointExtension>
            <ns3:atemp>18.0</ns3:atemp>
            <ns3:hr>138</ns3:hr>
          </ns3:TrackPointExtension>
        </extensions>
      </trkpt>
      <trkpt lat="-22.10512963123619556427001953125" lon="166.45165692083537578582763671875">
        <ele>515.4000244140625</ele>
        <time>2016-08-12T18:18:52.000Z</time>
        <extensions>
          <ns3:TrackPointExtension>
            <ns3:atemp>18.0</ns3:atemp>
            <ns3:hr>137</ns3:hr>
          </ns3:TrackPointExtension>
        </extensions>
      </trkpt>
      <trkpt lat="-22.105121500790119171142578125" lon="166.4516373910009860992431640625">
        <ele>515.5999755859375</ele>
        <time>2016-08-12T18:18:53.000Z</time>
        <extensions>
          <ns3:TrackPointExtension>
            <ns3:atemp>18.0</ns3:atemp>
            <ns3:hr>137</ns3:hr>
          </ns3:TrackPointExtension>
        </extensions>
      </trkpt>
      <trkpt lat="-22.10511588491499423980712890625" lon="166.45161618478596210479736328125">
        <ele>515.4000244140625</ele>
        <time>2016-08-12T18:18:54.000Z</time>
        <extensions>
          <ns3:TrackPointExtension>
            <ns3:atemp>18.0</ns3:atemp>
            <ns3:hr>137</ns3:hr>
          </ns3:TrackPointExtension>
        </extensions>
      </trkpt>
      <trkpt lat="-22.105109430849552154541015625" lon="166.45159657113254070281982421875">
        <ele>515.4000244140625</ele>
        <time>2016-08-12T18:18:55.000Z</time>
        <extensions>
          <ns3:TrackPointExtension>
            <ns3:atemp>18.0</ns3:atemp>
            <ns3:hr>137</ns3:hr>
          </ns3:TrackPointExtension>
        </extensions>
      </trkpt>
      <trkpt lat="-22.105104066431522369384765625" lon="166.45157427527010440826416015625">
        <ele>515.79998779296875</ele>
        <time>2016-08-12T18:18:56.000Z</time>
        <extensions>
          <ns3:TrackPointExtension>
            <ns3:atemp>18.0</ns3:atemp>
            <ns3:hr>136</ns3:hr>
          </ns3:TrackPointExtension>
        </extensions>
      </trkpt>
      <trkpt lat="-22.10506224073469638824462890625" lon="166.4514982514083385467529296875">
        <ele>515.79998779296875</ele>
        <time>2016-08-12T18:19:00.000Z</time>
        <extensions>
          <ns3:TrackPointExtension>
            <ns3:atemp>18.0</ns3:atemp>
            <ns3:hr>136</ns3:hr>
          </ns3:TrackPointExtension>
        </extensions>
      </trkpt>
      <trkpt lat="-22.10505017079412937164306640625" lon="166.4514828287065029144287109375">
        <ele>516.20001220703125</ele>
        <time>2016-08-12T18:19:01.000Z</time>
        <extensions>
          <ns3:TrackPointExtension>
            <ns3:atemp>18.0</ns3:atemp>
            <ns3:hr>135</ns3:hr>
          </ns3:TrackPointExtension>
        </extensions>
      </trkpt>
      <trkpt lat="-22.1050326526165008544921875" lon="166.45146463997662067413330078125">
        <ele>516.4000244140625</ele>
        <time>2016-08-12T18:19:02.000Z</time>
        <extensions>
          <ns3:TrackPointExtension>
            <ns3:atemp>18.0</ns3:atemp>
            <ns3:hr>135</ns3:hr>
          </ns3:TrackPointExtension>
        </extensions>
      </trkpt>
      <trkpt lat="-22.10501798428595066070556640625" lon="166.4514493010938167572021484375">
        <ele>516.4000244140625</ele>
        <time>2016-08-12T18:19:03.000Z</time>
        <extensions>
          <ns3:TrackPointExtension>
            <ns3:atemp>18.0</ns3:atemp>
            <ns3:hr>135</ns3:hr>
          </ns3:TrackPointExtension>
        </extensions>
      </trkpt>
      <trkpt lat="-22.10500356741249561309814453125" lon="166.451435722410678863525390625">
        <ele>516.20001220703125</ele>
        <time>2016-08-12T18:19:04.000Z</time>
        <extensions>
          <ns3:TrackPointExtension>
            <ns3:atemp>18.0</ns3:atemp>
            <ns3:hr>135</ns3:hr>
          </ns3:TrackPointExtension>
        </extensions>
      </trkpt>
      <trkpt lat="-22.10498395375907421112060546875" lon="166.451422311365604400634765625">
        <ele>516.4000244140625</ele>
        <time>2016-08-12T18:19:05.000Z</time>
        <extensions>
          <ns3:TrackPointExtension>
            <ns3:atemp>18.0</ns3:atemp>
            <ns3:hr>135</ns3:hr>
          </ns3:TrackPointExtension>
        </extensions>
      </trkpt>
      <trkpt lat="-22.10496869869530200958251953125" lon="166.45140781067311763763427734375">
        <ele>516.79998779296875</ele>
        <time>2016-08-12T18:19:06.000Z</time>
        <extensions>
          <ns3:TrackPointExtension>
            <ns3:atemp>18.0</ns3:atemp>
            <ns3:hr>135</ns3:hr>
          </ns3:TrackPointExtension>
        </extensions>
      </trkpt>
      <trkpt lat="-22.10495579056441783905029296875" lon="166.4513943158090114593505859375">
        <ele>516.5999755859375</ele>
        <time>2016-08-12T18:19:07.000Z</time>
        <extensions>
          <ns3:TrackPointExtension>
            <ns3:atemp>18.0</ns3:atemp>
            <ns3:hr>135</ns3:hr>
          </ns3:TrackPointExtension>
        </extensions>
      </trkpt>
      <trkpt lat="-22.10494020022451877593994140625" lon="166.45137830637395381927490234375">
        <ele>516.5999755859375</ele>
        <time>2016-08-12T18:19:08.000Z</time>
        <extensions>
          <ns3:TrackPointExtension>
            <ns3:atemp>18.0</ns3:atemp>
            <ns3:hr>135</ns3:hr>
          </ns3:TrackPointExtension>
        </extensions>
      </trkpt>
      <trkpt lat="-22.1049255318939685821533203125" lon="166.45136120729148387908935546875">
        <ele>517</ele>
        <time>2016-08-12T18:19:09.000Z</time>
        <extensions>
          <ns3:TrackPointExtension>
            <ns3:atemp>18.0</ns3:atemp>
            <ns3:hr>135</ns3:hr>
          </ns3:TrackPointExtension>
        </extensions>
      </trkpt>
      <trkpt lat="-22.1049084328114986419677734375" lon="166.4513482153415679931640625">
        <ele>517.20001220703125</ele>
        <time>2016-08-12T18:19:10.000Z</time>
        <extensions>
          <ns3:TrackPointExtension>
            <ns3:atemp>18.0</ns3:atemp>
            <ns3:hr>135</ns3:hr>
          </ns3:TrackPointExtension>
        </extensions>
      </trkpt>
      <trkpt lat="-22.10488848388195037841796875" lon="166.45133857615292072296142578125">
        <ele>517.4000244140625</ele>
        <time>2016-08-12T18:19:11.000Z</time>
        <extensions>
          <ns3:TrackPointExtension>
            <ns3:atemp>18.0</ns3:atemp>
            <ns3:hr>135</ns3:hr>
          </ns3:TrackPointExtension>
        </extensions>
      </trkpt>
      <trkpt lat="-22.10486794821918010711669921875" lon="166.45133321173489093780517578125">
        <ele>517.4000244140625</ele>
        <time>2016-08-12T18:19:12.000Z</time>
        <extensions>
          <ns3:TrackPointExtension>
            <ns3:atemp>18.0</ns3:atemp>
            <ns3:hr>134</ns3:hr>
          </ns3:TrackPointExtension>
        </extensions>
      </trkpt>
      <trkpt lat="-22.1048464067280292510986328125" lon="166.45132684148848056793212890625">
        <ele>517.79998779296875</ele>
        <time>2016-08-12T18:19:13.000Z</time>
        <extensions>
          <ns3:TrackPointExtension>
            <ns3:atemp>18.0</ns3:atemp>
            <ns3:hr>135</ns3:hr>
          </ns3:TrackPointExtension>
        </extensions>
      </trkpt>
      <trkpt lat="-22.1048289723694324493408203125" lon="166.4513212256133556365966796875">
        <ele>517.79998779296875</ele>
        <time>2016-08-12T18:19:14.000Z</time>
        <extensions>
          <ns3:TrackPointExtension>
            <ns3:atemp>18.0</ns3:atemp>
            <ns3:hr>134</ns3:hr>
          </ns3:TrackPointExtension>
        </extensions>
      </trkpt>
      <trkpt lat="-22.104811705648899078369140625" lon="166.4513160288333892822265625">
        <ele>517.79998779296875</ele>
        <time>2016-08-12T18:19:15.000Z</time>
        <extensions>
          <ns3:TrackPointExtension>
            <ns3:atemp>18.0</ns3:atemp>
            <ns3:hr>135</ns3:hr>
          </ns3:TrackPointExtension>
        </extensions>
      </trkpt>
      <trkpt lat="-22.10479234345257282257080078125" lon="166.45131309516727924346923828125">
        <ele>518</ele>
        <time>2016-08-12T18:19:16.000Z</time>
        <extensions>
          <ns3:TrackPointExtension>
            <ns3:atemp>18.0</ns3:atemp>
            <ns3:hr>135</ns3:hr>
          </ns3:TrackPointExtension>
        </extensions>
      </trkpt>
      <trkpt lat="-22.10477055050432682037353515625" lon="166.45131158642470836639404296875">
        <ele>518</ele>
        <time>2016-08-12T18:19:17.000Z</time>
        <extensions>
          <ns3:TrackPointExtension>
            <ns3:atemp>18.0</ns3:atemp>
            <ns3:hr>134</ns3:hr>
          </ns3:TrackPointExtension>
        </extensions>
      </trkpt>
      <trkpt lat="-22.10475244559347629547119140625" lon="166.4513108320534229278564453125">
        <ele>518.20001220703125</ele>
        <time>2016-08-12T18:19:18.000Z</time>
        <extensions>
          <ns3:TrackPointExtension>
            <ns3:atemp>18.0</ns3:atemp>
            <ns3:hr>134</ns3:hr>
          </ns3:TrackPointExtension>
        </extensions>
      </trkpt>
      <trkpt lat="-22.10473082028329372406005859375" lon="166.45131326280534267425537109375">
        <ele>518.5999755859375</ele>
        <time>2016-08-12T18:19:19.000Z</time>
        <extensions>
          <ns3:TrackPointExtension>
            <ns3:atemp>18.0</ns3:atemp>
            <ns3:hr>134</ns3:hr>
          </ns3:TrackPointExtension>
        </extensions>
      </trkpt>
      <trkpt lat="-22.1047079376876354217529296875" lon="166.4513172022998332977294921875">
        <ele>518.79998779296875</ele>
        <time>2016-08-12T18:19:20.000Z</time>
        <extensions>
          <ns3:TrackPointExtension>
            <ns3:atemp>18.0</ns3:atemp>
            <ns3:hr>135</ns3:hr>
          </ns3:TrackPointExtension>
        </extensions>
      </trkpt>
      <trkpt lat="-22.1046888269484043121337890625" lon="166.45132315345108509063720703125">
        <ele>518.79998779296875</ele>
        <time>2016-08-12T18:19:21.000Z</time>
        <extensions>
          <ns3:TrackPointExtension>
            <ns3:atemp>18.0</ns3:atemp>
            <ns3:hr>134</ns3:hr>
          </ns3:TrackPointExtension>
        </extensions>
      </trkpt>
      <trkpt lat="-22.10466912947595119476318359375" lon="166.45132969133555889129638671875">
        <ele>519.4000244140625</ele>
        <time>2016-08-12T18:19:22.000Z</time>
        <extensions>
          <ns3:TrackPointExtension>
            <ns3:atemp>18.0</ns3:atemp>
            <ns3:hr>135</ns3:hr>
          </ns3:TrackPointExtension>
        </extensions>
      </trkpt>
      <trkpt lat="-22.1046490967273712158203125" lon="166.45133572630584239959716796875">
        <ele>519.4000244140625</ele>
        <time>2016-08-12T18:19:23.000Z</time>
        <extensions>
          <ns3:TrackPointExtension>
            <ns3:atemp>18.0</ns3:atemp>
            <ns3:hr>135</ns3:hr>
          </ns3:TrackPointExtension>
        </extensions>
      </trkpt>
      <trkpt lat="-22.10462830960750579833984375" lon="166.451339162886142730712890625">
        <ele>519.4000244140625</ele>
        <time>2016-08-12T18:19:24.000Z</time>
        <extensions>
          <ns3:TrackPointExtension>
            <ns3:atemp>18.0</ns3:atemp>
            <ns3:hr>135</ns3:hr>
          </ns3:TrackPointExtension>
        </extensions>
      </trkpt>
      <trkpt lat="-22.10460844449698925018310546875" lon="166.45134293474256992340087890625">
        <ele>519.5999755859375</ele>
        <time>2016-08-12T18:19:25.000Z</time>
        <extensions>
          <ns3:TrackPointExtension>
            <ns3:atemp>18.0</ns3:atemp>
            <ns3:hr>135</ns3:hr>
          </ns3:TrackPointExtension>
        </extensions>
      </trkpt>
      <trkpt lat="-22.104587741196155548095703125" lon="166.45135014317929744720458984375">
        <ele>519.5999755859375</ele>
        <time>2016-08-12T18:19:26.000Z</time>
        <extensions>
          <ns3:TrackPointExtension>
            <ns3:atemp>18.0</ns3:atemp>
            <ns3:hr>135</ns3:hr>
          </ns3:TrackPointExtension>
        </extensions>
      </trkpt>
      <trkpt lat="-22.104566954076290130615234375" lon="166.451360285282135009765625">
        <ele>519.79998779296875</ele>
        <time>2016-08-12T18:19:27.000Z</time>
        <extensions>
          <ns3:TrackPointExtension>
            <ns3:atemp>18.0</ns3:atemp>
            <ns3:hr>135</ns3:hr>
          </ns3:TrackPointExtension>
        </extensions>
      </trkpt>
      <trkpt lat="-22.10454323329031467437744140625" lon="166.451365649700164794921875">
        <ele>520</ele>
        <time>2016-08-12T18:19:28.000Z</time>
        <extensions>
          <ns3:TrackPointExtension>
            <ns3:atemp>18.0</ns3:atemp>
            <ns3:hr>135</ns3:hr>
          </ns3:TrackPointExtension>
        </extensions>
      </trkpt>
      <trkpt lat="-22.1045221947133541107177734375" lon="166.45136757753789424896240234375">
        <ele>520.20001220703125</ele>
        <time>2016-08-12T18:19:29.000Z</time>
        <extensions>
          <ns3:TrackPointExtension>
            <ns3:atemp>18.0</ns3:atemp>
            <ns3:hr>135</ns3:hr>
          </ns3:TrackPointExtension>
        </extensions>
      </trkpt>
      <trkpt lat="-22.1045014075934886932373046875" lon="166.45136632025241851806640625">
        <ele>520.5999755859375</ele>
        <time>2016-08-12T18:19:30.000Z</time>
        <extensions>
          <ns3:TrackPointExtension>
            <ns3:atemp>18.0</ns3:atemp>
            <ns3:hr>136</ns3:hr>
          </ns3:TrackPointExtension>
        </extensions>
      </trkpt>
      <trkpt lat="-22.1044752560555934906005859375" lon="166.451362632215023040771484375">
        <ele>520.79998779296875</ele>
        <time>2016-08-12T18:19:31.000Z</time>
        <extensions>
          <ns3:TrackPointExtension>
            <ns3:atemp>18.0</ns3:atemp>
            <ns3:hr>136</ns3:hr>
          </ns3:TrackPointExtension>
        </extensions>
      </trkpt>
      <trkpt lat="-22.10445270873606204986572265625" lon="166.45136271603405475616455078125">
        <ele>520.79998779296875</ele>
        <time>2016-08-12T18:19:32.000Z</time>
        <extensions>
          <ns3:TrackPointExtension>
            <ns3:atemp>18.0</ns3:atemp>
            <ns3:hr>136</ns3:hr>
          </ns3:TrackPointExtension>
        </extensions>
      </trkpt>
      <trkpt lat="-22.10443384945392608642578125" lon="166.45136229693889617919921875">
        <ele>521</ele>
        <time>2016-08-12T18:19:33.000Z</time>
        <extensions>
          <ns3:TrackPointExtension>
            <ns3:atemp>18.0</ns3:atemp>
            <ns3:hr>136</ns3:hr>
          </ns3:TrackPointExtension>
        </extensions>
      </trkpt>
      <trkpt lat="-22.10441130213439464569091796875" lon="166.4513611234724521636962890625">
        <ele>521.4000244140625</ele>
        <time>2016-08-12T18:19:34.000Z</time>
        <extensions>
          <ns3:TrackPointExtension>
            <ns3:atemp>18.0</ns3:atemp>
            <ns3:hr>136</ns3:hr>
          </ns3:TrackPointExtension>
        </extensions>
      </trkpt>
      <trkpt lat="-22.10439227521419525146484375" lon="166.45136154256761074066162109375">
        <ele>521.4000244140625</ele>
        <time>2016-08-12T18:19:35.000Z</time>
        <extensions>
          <ns3:TrackPointExtension>
            <ns3:atemp>18.0</ns3:atemp>
            <ns3:hr>136</ns3:hr>
          </ns3:TrackPointExtension>
        </extensions>
      </trkpt>
      <trkpt lat="-22.10437760688364505767822265625" lon="166.45136204548180103302001953125">
        <ele>521.4000244140625</ele>
        <time>2016-08-12T18:19:36.000Z</time>
        <extensions>
          <ns3:TrackPointExtension>
            <ns3:atemp>18.0</ns3:atemp>
            <ns3:hr>136</ns3:hr>
          </ns3:TrackPointExtension>
        </extensions>
      </trkpt>
      <trkpt lat="-22.1043575741350650787353515625" lon="166.4513597823679447174072265625">
        <ele>521.4000244140625</ele>
        <time>2016-08-12T18:19:37.000Z</time>
        <extensions>
          <ns3:TrackPointExtension>
            <ns3:atemp>18.0</ns3:atemp>
            <ns3:hr>137</ns3:hr>
          </ns3:TrackPointExtension>
        </extensions>
      </trkpt>
      <trkpt lat="-22.10433653555810451507568359375" lon="166.45135399885475635528564453125">
        <ele>521.5999755859375</ele>
        <time>2016-08-12T18:19:38.000Z</time>
        <extensions>
          <ns3:TrackPointExtension>
            <ns3:atemp>18.0</ns3:atemp>
            <ns3:hr>137</ns3:hr>
          </ns3:TrackPointExtension>
        </extensions>
      </trkpt>
      <trkpt lat="-22.1043193526566028594970703125" lon="166.45134679041802883148193359375">
        <ele>521.5999755859375</ele>
        <time>2016-08-12T18:19:39.000Z</time>
        <extensions>
          <ns3:TrackPointExtension>
            <ns3:atemp>18.0</ns3:atemp>
            <ns3:hr>137</ns3:hr>
          </ns3:TrackPointExtension>
        </extensions>
      </trkpt>
      <trkpt lat="-22.10430250503122806549072265625" lon="166.45133991725742816925048828125">
        <ele>521.79998779296875</ele>
        <time>2016-08-12T18:19:40.000Z</time>
        <extensions>
          <ns3:TrackPointExtension>
            <ns3:atemp>18.0</ns3:atemp>
            <ns3:hr>137</ns3:hr>
          </ns3:TrackPointExtension>
        </extensions>
      </trkpt>
      <trkpt lat="-22.10428498685359954833984375" lon="166.451331116259098052978515625">
        <ele>522</ele>
        <time>2016-08-12T18:19:41.000Z</time>
        <extensions>
          <ns3:TrackPointExtension>
            <ns3:atemp>18.0</ns3:atemp>
            <ns3:hr>137</ns3:hr>
          </ns3:TrackPointExtension>
        </extensions>
      </trkpt>
      <trkpt lat="-22.1042690612375736236572265625" lon="166.45132432691752910614013671875">
        <ele>522</ele>
        <time>2016-08-12T18:19:42.000Z</time>
        <extensions>
          <ns3:TrackPointExtension>
            <ns3:atemp>18.0</ns3:atemp>
            <ns3:hr>137</ns3:hr>
          </ns3:TrackPointExtension>
        </extensions>
      </trkpt>
      <trkpt lat="-22.10425120778381824493408203125" lon="166.45131862722337245941162109375">
        <ele>522.20001220703125</ele>
        <time>2016-08-12T18:19:43.000Z</time>
        <extensions>
          <ns3:TrackPointExtension>
            <ns3:atemp>18.0</ns3:atemp>
            <ns3:hr>137</ns3:hr>
          </ns3:TrackPointExtension>
        </extensions>
      </trkpt>
      <trkpt lat="-22.1042333543300628662109375" lon="166.4513111673295497894287109375">
        <ele>522.20001220703125</ele>
        <time>2016-08-12T18:19:44.000Z</time>
        <extensions>
          <ns3:TrackPointExtension>
            <ns3:atemp>18.0</ns3:atemp>
            <ns3:hr>138</ns3:hr>
          </ns3:TrackPointExtension>
        </extensions>
      </trkpt>
      <trkpt lat="-22.1042172610759735107421875" lon="166.45130353979766368865966796875">
        <ele>522.20001220703125</ele>
        <time>2016-08-12T18:19:45.000Z</time>
        <extensions>
          <ns3:TrackPointExtension>
            <ns3:atemp>18.0</ns3:atemp>
            <ns3:hr>138</ns3:hr>
          </ns3:TrackPointExtension>
        </extensions>
      </trkpt>
      <trkpt lat="-22.10420091636478900909423828125" lon="166.4512940682470798492431640625">
        <ele>522.5999755859375</ele>
        <time>2016-08-12T18:19:46.000Z</time>
        <extensions>
          <ns3:TrackPointExtension>
            <ns3:atemp>18.0</ns3:atemp>
            <ns3:hr>138</ns3:hr>
          </ns3:TrackPointExtension>
        </extensions>
      </trkpt>
      <trkpt lat="-22.10418482311069965362548828125" lon="166.45128409378230571746826171875">
        <ele>522.79998779296875</ele>
        <time>2016-08-12T18:19:47.000Z</time>
        <extensions>
          <ns3:TrackPointExtension>
            <ns3:atemp>18.0</ns3:atemp>
            <ns3:hr>138</ns3:hr>
          </ns3:TrackPointExtension>
        </extensions>
      </trkpt>
      <trkpt lat="-22.10416965186595916748046875" lon="166.45127286203205585479736328125">
        <ele>523.20001220703125</ele>
        <time>2016-08-12T18:19:48.000Z</time>
        <extensions>
          <ns3:TrackPointExtension>
            <ns3:atemp>18.0</ns3:atemp>
            <ns3:hr>138</ns3:hr>
          </ns3:TrackPointExtension>
        </extensions>
      </trkpt>
      <trkpt lat="-22.104152552783489227294921875" lon="166.45126280374825000762939453125">
        <ele>523.20001220703125</ele>
        <time>2016-08-12T18:19:49.000Z</time>
        <extensions>
          <ns3:TrackPointExtension>
            <ns3:atemp>18.0</ns3:atemp>
            <ns3:hr>138</ns3:hr>
          </ns3:TrackPointExtension>
        </extensions>
      </trkpt>
      <trkpt lat="-22.10413402877748012542724609375" lon="166.451256014406681060791015625">
        <ele>523.20001220703125</ele>
        <time>2016-08-12T18:19:50.000Z</time>
        <extensions>
          <ns3:TrackPointExtension>
            <ns3:atemp>18.0</ns3:atemp>
            <ns3:hr>138</ns3:hr>
          </ns3:TrackPointExtension>
        </extensions>
      </trkpt>
      <trkpt lat="-22.1041178517043590545654296875" lon="166.45125324837863445281982421875">
        <ele>523</ele>
        <time>2016-08-12T18:19:51.000Z</time>
        <extensions>
          <ns3:TrackPointExtension>
            <ns3:atemp>18.0</ns3:atemp>
            <ns3:hr>138</ns3:hr>
          </ns3:TrackPointExtension>
        </extensions>
      </trkpt>
      <trkpt lat="-22.10410335101187229156494140625" lon="166.45124721340835094451904296875">
        <ele>523</ele>
        <time>2016-08-12T18:19:52.000Z</time>
        <extensions>
          <ns3:TrackPointExtension>
            <ns3:atemp>18.0</ns3:atemp>
            <ns3:hr>139</ns3:hr>
          </ns3:TrackPointExtension>
        </extensions>
      </trkpt>
      <trkpt lat="-22.1040853299200534820556640625" lon="166.4512410946190357208251953125">
        <ele>523.20001220703125</ele>
        <time>2016-08-12T18:19:53.000Z</time>
        <extensions>
          <ns3:TrackPointExtension>
            <ns3:atemp>18.0</ns3:atemp>
            <ns3:hr>139</ns3:hr>
          </ns3:TrackPointExtension>
        </extensions>
      </trkpt>
      <trkpt lat="-22.104068063199520111083984375" lon="166.451234556734561920166015625">
        <ele>523.5999755859375</ele>
        <time>2016-08-12T18:19:54.000Z</time>
        <extensions>
          <ns3:TrackPointExtension>
            <ns3:atemp>18.0</ns3:atemp>
            <ns3:hr>139</ns3:hr>
          </ns3:TrackPointExtension>
        </extensions>
      </trkpt>
      <trkpt lat="-22.10404735989868640899658203125" lon="166.4512253366410732269287109375">
        <ele>523.79998779296875</ele>
        <time>2016-08-12T18:19:55.000Z</time>
        <extensions>
          <ns3:TrackPointExtension>
            <ns3:atemp>18.0</ns3:atemp>
            <ns3:hr>139</ns3:hr>
          </ns3:TrackPointExtension>
        </extensions>
      </trkpt>
      <trkpt lat="-22.10402615368366241455078125" lon="166.4512186311185359954833984375">
        <ele>523.79998779296875</ele>
        <time>2016-08-12T18:19:56.000Z</time>
        <extensions>
          <ns3:TrackPointExtension>
            <ns3:atemp>18.0</ns3:atemp>
            <ns3:hr>139</ns3:hr>
          </ns3:TrackPointExtension>
        </extensions>
      </trkpt>
      <trkpt lat="-22.10400913842022418975830078125" lon="166.45121301524341106414794921875">
        <ele>523.5999755859375</ele>
        <time>2016-08-12T18:19:57.000Z</time>
        <extensions>
          <ns3:TrackPointExtension>
            <ns3:atemp>18.0</ns3:atemp>
            <ns3:hr>139</ns3:hr>
          </ns3:TrackPointExtension>
        </extensions>
      </trkpt>
      <trkpt lat="-22.103991620242595672607421875" lon="166.45120865665376186370849609375">
        <ele>523.5999755859375</ele>
        <time>2016-08-12T18:19:58.000Z</time>
        <extensions>
          <ns3:TrackPointExtension>
            <ns3:atemp>18.0</ns3:atemp>
            <ns3:hr>139</ns3:hr>
          </ns3:TrackPointExtension>
        </extensions>
      </trkpt>
      <trkpt lat="-22.1039740182459354400634765625" lon="166.45120765082538127899169921875">
        <ele>523.5999755859375</ele>
        <time>2016-08-12T18:19:59.000Z</time>
        <extensions>
          <ns3:TrackPointExtension>
            <ns3:atemp>18.0</ns3:atemp>
            <ns3:hr>139</ns3:hr>
          </ns3:TrackPointExtension>
        </extensions>
      </trkpt>
      <trkpt lat="-22.103957422077655792236328125" lon="166.4512065611779689788818359375">
        <ele>524</ele>
        <time>2016-08-12T18:20:00.000Z</time>
        <extensions>
          <ns3:TrackPointExtension>
            <ns3:atemp>18.0</ns3:atemp>
            <ns3:hr>139</ns3:hr>
          </ns3:TrackPointExtension>
        </extensions>
      </trkpt>
      <trkpt lat="-22.10393588058650493621826171875" lon="166.4512085728347301483154296875">
        <ele>524.4000244140625</ele>
        <time>2016-08-12T18:20:01.000Z</time>
        <extensions>
          <ns3:TrackPointExtension>
            <ns3:atemp>18.0</ns3:atemp>
            <ns3:hr>139</ns3:hr>
          </ns3:TrackPointExtension>
        </extensions>
      </trkpt>
      <trkpt lat="-22.10391257889568805694580078125" lon="166.45120966248214244842529296875">
        <ele>524.5999755859375</ele>
        <time>2016-08-12T18:20:02.000Z</time>
        <extensions>
          <ns3:TrackPointExtension>
            <ns3:atemp>18.0</ns3:atemp>
            <ns3:hr>139</ns3:hr>
          </ns3:TrackPointExtension>
        </extensions>
      </trkpt>
      <trkpt lat="-22.10389338433742523193359375" lon="166.45120983012020587921142578125">
        <ele>524.79998779296875</ele>
        <time>2016-08-12T18:20:03.000Z</time>
        <extensions>
          <ns3:TrackPointExtension>
            <ns3:atemp>18.0</ns3:atemp>
            <ns3:hr>139</ns3:hr>
          </ns3:TrackPointExtension>
        </extensions>
      </trkpt>
      <trkpt lat="-22.1038731001317501068115234375" lon="166.45120765082538127899169921875">
        <ele>525</ele>
        <time>2016-08-12T18:20:04.000Z</time>
        <extensions>
          <ns3:TrackPointExtension>
            <ns3:atemp>18.0</ns3:atemp>
            <ns3:hr>139</ns3:hr>
          </ns3:TrackPointExtension>
        </extensions>
      </trkpt>
      <trkpt lat="-22.1038549952208995819091796875" lon="166.45120404660701751708984375">
        <ele>525</ele>
        <time>2016-08-12T18:20:05.000Z</time>
        <extensions>
          <ns3:TrackPointExtension>
            <ns3:atemp>18.0</ns3:atemp>
            <ns3:hr>139</ns3:hr>
          </ns3:TrackPointExtension>
        </extensions>
      </trkpt>
      <trkpt lat="-22.10384032689034938812255859375" lon="166.45120295695960521697998046875">
        <ele>525.20001220703125</ele>
        <time>2016-08-12T18:20:06.000Z</time>
        <extensions>
          <ns3:TrackPointExtension>
            <ns3:atemp>18.0</ns3:atemp>
            <ns3:hr>139</ns3:hr>
          </ns3:TrackPointExtension>
        </extensions>
      </trkpt>
      <trkpt lat="-22.1038201265037059783935546875" lon="166.45119625143706798553466796875">
        <ele>525.4000244140625</ele>
        <time>2016-08-12T18:20:07.000Z</time>
        <extensions>
          <ns3:TrackPointExtension>
            <ns3:atemp>18.0</ns3:atemp>
            <ns3:hr>139</ns3:hr>
          </ns3:TrackPointExtension>
        </extensions>
      </trkpt>
      <trkpt lat="-22.10379824973642826080322265625" lon="166.451188959181308746337890625">
        <ele>525.79998779296875</ele>
        <time>2016-08-12T18:20:08.000Z</time>
        <extensions>
          <ns3:TrackPointExtension>
            <ns3:atemp>18.0</ns3:atemp>
            <ns3:hr>139</ns3:hr>
          </ns3:TrackPointExtension>
        </extensions>
      </trkpt>
      <trkpt lat="-22.10378048010170459747314453125" lon="166.45118351094424724578857421875">
        <ele>526</ele>
        <time>2016-08-12T18:20:09.000Z</time>
        <extensions>
          <ns3:TrackPointExtension>
            <ns3:atemp>18.0</ns3:atemp>
            <ns3:hr>139</ns3:hr>
          </ns3:TrackPointExtension>
        </extensions>
      </trkpt>
      <trkpt lat="-22.1037651412189006805419921875" lon="166.45117320120334625244140625">
        <ele>526.20001220703125</ele>
        <time>2016-08-12T18:20:10.000Z</time>
        <extensions>
          <ns3:TrackPointExtension>
            <ns3:atemp>18.0</ns3:atemp>
            <ns3:hr>140</ns3:hr>
          </ns3:TrackPointExtension>
        </extensions>
      </trkpt>
      <trkpt lat="-22.10374896414577960968017578125" lon="166.4511626400053501129150390625">
        <ele>526.4000244140625</ele>
        <time>2016-08-12T18:20:11.000Z</time>
        <extensions>
          <ns3:TrackPointExtension>
            <ns3:atemp>18.0</ns3:atemp>
            <ns3:hr>139</ns3:hr>
          </ns3:TrackPointExtension>
        </extensions>
      </trkpt>
      <trkpt lat="-22.103735469281673431396484375" lon="166.45115333609282970428466796875">
        <ele>526.5999755859375</ele>
        <time>2016-08-12T18:20:12.000Z</time>
        <extensions>
          <ns3:TrackPointExtension>
            <ns3:atemp>18.0</ns3:atemp>
            <ns3:hr>140</ns3:hr>
          </ns3:TrackPointExtension>
        </extensions>
      </trkpt>
      <trkpt lat="-22.1037175320088863372802734375" lon="166.4511458761990070343017578125">
        <ele>526.5999755859375</ele>
        <time>2016-08-12T18:20:13.000Z</time>
        <extensions>
          <ns3:TrackPointExtension>
            <ns3:atemp>18.0</ns3:atemp>
            <ns3:hr>140</ns3:hr>
          </ns3:TrackPointExtension>
        </extensions>
      </trkpt>
      <trkpt lat="-22.10370051674544811248779296875" lon="166.45113439299166202545166015625">
        <ele>526.79998779296875</ele>
        <time>2016-08-12T18:20:14.000Z</time>
        <extensions>
          <ns3:TrackPointExtension>
            <ns3:atemp>18.0</ns3:atemp>
            <ns3:hr>139</ns3:hr>
          </ns3:TrackPointExtension>
        </extensions>
      </trkpt>
      <trkpt lat="-22.1036826632916927337646484375" lon="166.4511250890791416168212890625">
        <ele>527</ele>
        <time>2016-08-12T18:20:15.000Z</time>
        <extensions>
          <ns3:TrackPointExtension>
            <ns3:atemp>18.0</ns3:atemp>
            <ns3:hr>140</ns3:hr>
          </ns3:TrackPointExtension>
        </extensions>
      </trkpt>
      <trkpt lat="-22.10366581566631793975830078125" lon="166.45111176185309886932373046875">
        <ele>527</ele>
        <time>2016-08-12T18:20:16.000Z</time>
        <extensions>
          <ns3:TrackPointExtension>
            <ns3:atemp>18.0</ns3:atemp>
            <ns3:hr>140</ns3:hr>
          </ns3:TrackPointExtension>
        </extensions>
      </trkpt>
      <trkpt lat="-22.103648968040943145751953125" lon="166.45109868608415126800537109375">
        <ele>527.20001220703125</ele>
        <time>2016-08-12T18:20:17.000Z</time>
        <extensions>
          <ns3:TrackPointExtension>
            <ns3:atemp>18.0</ns3:atemp>
            <ns3:hr>140</ns3:hr>
          </ns3:TrackPointExtension>
        </extensions>
      </trkpt>
      <trkpt lat="-22.1036387421190738677978515625" lon="166.451083682477474212646484375">
        <ele>527.5999755859375</ele>
        <time>2016-08-12T18:20:18.000Z</time>
        <extensions>
          <ns3:TrackPointExtension>
            <ns3:atemp>18.0</ns3:atemp>
            <ns3:hr>140</ns3:hr>
          </ns3:TrackPointExtension>
        </extensions>
      </trkpt>
      <trkpt lat="-22.10363186895847320556640625" lon="166.45106599666178226470947265625">
        <ele>527.5999755859375</ele>
        <time>2016-08-12T18:20:19.000Z</time>
        <extensions>
          <ns3:TrackPointExtension>
            <ns3:atemp>18.0</ns3:atemp>
            <ns3:hr>140</ns3:hr>
          </ns3:TrackPointExtension>
        </extensions>
      </trkpt>
      <trkpt lat="-22.1036199666559696197509765625" lon="166.45104856230318546295166015625">
        <ele>527.79998779296875</ele>
        <time>2016-08-12T18:20:20.000Z</time>
        <extensions>
          <ns3:TrackPointExtension>
            <ns3:atemp>18.0</ns3:atemp>
            <ns3:hr>140</ns3:hr>
          </ns3:TrackPointExtension>
        </extensions>
      </trkpt>
      <trkpt lat="-22.10360647179186344146728515625" lon="166.45103196613490581512451171875">
        <ele>528</ele>
        <time>2016-08-12T18:20:21.000Z</time>
        <extensions>
          <ns3:TrackPointExtension>
            <ns3:atemp>18.0</ns3:atemp>
            <ns3:hr>140</ns3:hr>
          </ns3:TrackPointExtension>
        </extensions>
      </trkpt>
      <trkpt lat="-22.1035896241664886474609375" lon="166.45101922564208507537841796875">
        <ele>528</ele>
        <time>2016-08-12T18:20:22.000Z</time>
        <extensions>
          <ns3:TrackPointExtension>
            <ns3:atemp>18.0</ns3:atemp>
            <ns3:hr>140</ns3:hr>
          </ns3:TrackPointExtension>
        </extensions>
      </trkpt>
      <trkpt lat="-22.1035753749310970306396484375" lon="166.4510084129869937896728515625">
        <ele>528.4000244140625</ele>
        <time>2016-08-12T18:20:23.000Z</time>
        <extensions>
          <ns3:TrackPointExtension>
            <ns3:atemp>18.0</ns3:atemp>
            <ns3:hr>140</ns3:hr>
          </ns3:TrackPointExtension>
        </extensions>
      </trkpt>
      <trkpt lat="-22.10356003604829311370849609375" lon="166.45099776796996593475341796875">
        <ele>528.5999755859375</ele>
        <time>2016-08-12T18:20:24.000Z</time>
        <extensions>
          <ns3:TrackPointExtension>
            <ns3:atemp>18.0</ns3:atemp>
            <ns3:hr>140</ns3:hr>
          </ns3:TrackPointExtension>
        </extensions>
      </trkpt>
      <trkpt lat="-22.10354159586131572723388671875" lon="166.45098544657230377197265625">
        <ele>528.79998779296875</ele>
        <time>2016-08-12T18:20:25.000Z</time>
        <extensions>
          <ns3:TrackPointExtension>
            <ns3:atemp>18.0</ns3:atemp>
            <ns3:hr>140</ns3:hr>
          </ns3:TrackPointExtension>
        </extensions>
      </trkpt>
      <trkpt lat="-22.1035225689411163330078125" lon="166.450972370803356170654296875">
        <ele>528.79998779296875</ele>
        <time>2016-08-12T18:20:26.000Z</time>
        <extensions>
          <ns3:TrackPointExtension>
            <ns3:atemp>18.0</ns3:atemp>
            <ns3:hr>140</ns3:hr>
          </ns3:TrackPointExtension>
        </extensions>
      </trkpt>
      <trkpt lat="-22.10350555367767810821533203125" lon="166.45096139051020145416259765625">
        <ele>528.79998779296875</ele>
        <time>2016-08-12T18:20:27.000Z</time>
        <extensions>
          <ns3:TrackPointExtension>
            <ns3:atemp>18.0</ns3:atemp>
            <ns3:hr>140</ns3:hr>
          </ns3:TrackPointExtension>
        </extensions>
      </trkpt>
      <trkpt lat="-22.103487364947795867919921875" lon="166.45095133222639560699462890625">
        <ele>529</ele>
        <time>2016-08-12T18:20:28.000Z</time>
        <extensions>
          <ns3:TrackPointExtension>
            <ns3:atemp>18.0</ns3:atemp>
            <ns3:hr>140</ns3:hr>
          </ns3:TrackPointExtension>
        </extensions>
      </trkpt>
      <trkpt lat="-22.10346221923828125" lon="166.45094546489417552947998046875">
        <ele>529</ele>
        <time>2016-08-12T18:20:29.000Z</time>
        <extensions>
          <ns3:TrackPointExtension>
            <ns3:atemp>18.0</ns3:atemp>
            <ns3:hr>140</ns3:hr>
          </ns3:TrackPointExtension>
        </extensions>
      </trkpt>
      <trkpt lat="-22.1034409292042255401611328125" lon="166.4509426988661289215087890625">
        <ele>529</ele>
        <time>2016-08-12T18:20:30.000Z</time>
        <extensions>
          <ns3:TrackPointExtension>
            <ns3:atemp>18.0</ns3:atemp>
            <ns3:hr>140</ns3:hr>
          </ns3:TrackPointExtension>
        </extensions>
      </trkpt>
      <trkpt lat="-22.1034214831888675689697265625" lon="166.45094026811420917510986328125">
        <ele>529.20001220703125</ele>
        <time>2016-08-12T18:20:31.000Z</time>
        <extensions>
          <ns3:TrackPointExtension>
            <ns3:atemp>18.0</ns3:atemp>
            <ns3:hr>140</ns3:hr>
          </ns3:TrackPointExtension>
        </extensions>
      </trkpt>
      <trkpt lat="-22.103400528430938720703125" lon="166.45093607716262340545654296875">
        <ele>529.5999755859375</ele>
        <time>2016-08-12T18:20:32.000Z</time>
        <extensions>
          <ns3:TrackPointExtension>
            <ns3:atemp>18.0</ns3:atemp>
            <ns3:hr>140</ns3:hr>
          </ns3:TrackPointExtension>
        </extensions>
      </trkpt>
      <trkpt lat="-22.10337848402559757232666015625" lon="166.45093171857297420501708984375">
        <ele>529.5999755859375</ele>
        <time>2016-08-12T18:20:33.000Z</time>
        <extensions>
          <ns3:TrackPointExtension>
            <ns3:atemp>18.0</ns3:atemp>
            <ns3:hr>140</ns3:hr>
          </ns3:TrackPointExtension>
        </extensions>
      </trkpt>
      <trkpt lat="-22.10336004383862018585205078125" lon="166.4509269408881664276123046875">
        <ele>529.79998779296875</ele>
        <time>2016-08-12T18:20:34.000Z</time>
        <extensions>
          <ns3:TrackPointExtension>
            <ns3:atemp>18.0</ns3:atemp>
            <ns3:hr>140</ns3:hr>
          </ns3:TrackPointExtension>
        </extensions>
      </trkpt>
      <trkpt lat="-22.1033455431461334228515625" lon="166.45092149265110492706298828125">
        <ele>530</ele>
        <time>2016-08-12T18:20:35.000Z</time>
        <extensions>
          <ns3:TrackPointExtension>
            <ns3:atemp>18.0</ns3:atemp>
            <ns3:hr>140</ns3:hr>
          </ns3:TrackPointExtension>
        </extensions>
      </trkpt>
      <trkpt lat="-22.10332618094980716705322265625" lon="166.45091579295694828033447265625">
        <ele>530.20001220703125</ele>
        <time>2016-08-12T18:20:36.000Z</time>
        <extensions>
          <ns3:TrackPointExtension>
            <ns3:atemp>18.0</ns3:atemp>
            <ns3:hr>140</ns3:hr>
          </ns3:TrackPointExtension>
        </extensions>
      </trkpt>
      <trkpt lat="-22.1033064834773540496826171875" lon="166.45090757869184017181396484375">
        <ele>530</ele>
        <time>2016-08-12T18:20:37.000Z</time>
        <extensions>
          <ns3:TrackPointExtension>
            <ns3:atemp>18.0</ns3:atemp>
            <ns3:hr>141</ns3:hr>
          </ns3:TrackPointExtension>
        </extensions>
      </trkpt>
      <trkpt lat="-22.1032836847007274627685546875" lon="166.45090154372155666351318359375">
        <ele>530</ele>
        <time>2016-08-12T18:20:38.000Z</time>
        <extensions>
          <ns3:TrackPointExtension>
            <ns3:atemp>18.0</ns3:atemp>
            <ns3:hr>141</ns3:hr>
          </ns3:TrackPointExtension>
        </extensions>
      </trkpt>
      <trkpt lat="-22.10326147265732288360595703125" lon="166.450895927846431732177734375">
        <ele>530.20001220703125</ele>
        <time>2016-08-12T18:20:39.000Z</time>
        <extensions>
          <ns3:TrackPointExtension>
            <ns3:atemp>18.0</ns3:atemp>
            <ns3:hr>141</ns3:hr>
          </ns3:TrackPointExtension>
        </extensions>
      </trkpt>
      <trkpt lat="-22.103239931166172027587890625" lon="166.45088830031454563140869140625">
        <ele>530.4000244140625</ele>
        <time>2016-08-12T18:20:40.000Z</time>
        <extensions>
          <ns3:TrackPointExtension>
            <ns3:atemp>18.0</ns3:atemp>
            <ns3:hr>140</ns3:hr>
          </ns3:TrackPointExtension>
        </extensions>
      </trkpt>
      <trkpt lat="-22.1032166294753551483154296875" lon="166.45088494755327701568603515625">
        <ele>530.4000244140625</ele>
        <time>2016-08-12T18:20:41.000Z</time>
        <extensions>
          <ns3:TrackPointExtension>
            <ns3:atemp>18.0</ns3:atemp>
            <ns3:hr>141</ns3:hr>
          </ns3:TrackPointExtension>
        </extensions>
      </trkpt>
      <trkpt lat="-22.10319542326033115386962890625" lon="166.45088008604943752288818359375">
        <ele>530.5999755859375</ele>
        <time>2016-08-12T18:20:42.000Z</time>
        <extensions>
          <ns3:TrackPointExtension>
            <ns3:atemp>18.0</ns3:atemp>
            <ns3:hr>140</ns3:hr>
          </ns3:TrackPointExtension>
        </extensions>
      </trkpt>
      <trkpt lat="-22.1031733788549900054931640625" lon="166.45087103359401226043701171875">
        <ele>530.5999755859375</ele>
        <time>2016-08-12T18:20:43.000Z</time>
        <extensions>
          <ns3:TrackPointExtension>
            <ns3:atemp>18.0</ns3:atemp>
            <ns3:hr>139</ns3:hr>
          </ns3:TrackPointExtension>
        </extensions>
      </trkpt>
      <trkpt lat="-22.10315133444964885711669921875" lon="166.450864411890506744384765625">
        <ele>530.79998779296875</ele>
        <time>2016-08-12T18:20:44.000Z</time>
        <extensions>
          <ns3:TrackPointExtension>
            <ns3:atemp>18.0</ns3:atemp>
            <ns3:hr>139</ns3:hr>
          </ns3:TrackPointExtension>
        </extensions>
      </trkpt>
      <trkpt lat="-22.10313004441559314727783203125" lon="166.45086416043341159820556640625">
        <ele>531</ele>
        <time>2016-08-12T18:20:45.000Z</time>
        <extensions>
          <ns3:TrackPointExtension>
            <ns3:atemp>18.0</ns3:atemp>
            <ns3:hr>139</ns3:hr>
          </ns3:TrackPointExtension>
        </extensions>
      </trkpt>
      <trkpt lat="-22.10311059840023517608642578125" lon="166.45086499862372875213623046875">
        <ele>531</ele>
        <time>2016-08-12T18:20:46.000Z</time>
        <extensions>
          <ns3:TrackPointExtension>
            <ns3:atemp>18.0</ns3:atemp>
            <ns3:hr>138</ns3:hr>
          </ns3:TrackPointExtension>
        </extensions>
      </trkpt>
      <trkpt lat="-22.103091068565845489501953125" lon="166.45086131058633327484130859375">
        <ele>531</ele>
        <time>2016-08-12T18:20:47.000Z</time>
        <extensions>
          <ns3:TrackPointExtension>
            <ns3:atemp>18.0</ns3:atemp>
            <ns3:hr>138</ns3:hr>
          </ns3:TrackPointExtension>
        </extensions>
      </trkpt>
      <trkpt lat="-22.10306868888437747955322265625" lon="166.45085678435862064361572265625">
        <ele>531</ele>
        <time>2016-08-12T18:20:48.000Z</time>
        <extensions>
          <ns3:TrackPointExtension>
            <ns3:atemp>18.0</ns3:atemp>
            <ns3:hr>138</ns3:hr>
          </ns3:TrackPointExtension>
        </extensions>
      </trkpt>
      <trkpt lat="-22.10305259563028812408447265625" lon="166.45085594616830348968505859375">
        <ele>531.20001220703125</ele>
        <time>2016-08-12T18:20:49.000Z</time>
        <extensions>
          <ns3:TrackPointExtension>
            <ns3:atemp>18.0</ns3:atemp>
            <ns3:hr>138</ns3:hr>
          </ns3:TrackPointExtension>
        </extensions>
      </trkpt>
      <trkpt lat="-22.10303373634815216064453125" lon="166.4508612267673015594482421875">
        <ele>531.4000244140625</ele>
        <time>2016-08-12T18:20:50.000Z</time>
        <extensions>
          <ns3:TrackPointExtension>
            <ns3:atemp>18.0</ns3:atemp>
            <ns3:hr>137</ns3:hr>
          </ns3:TrackPointExtension>
        </extensions>
      </trkpt>
      <trkpt lat="-22.10301571525633335113525390625" lon="166.45086717791855335235595703125">
        <ele>531.4000244140625</ele>
        <time>2016-08-12T18:20:51.000Z</time>
        <extensions>
          <ns3:TrackPointExtension>
            <ns3:atemp>18.0</ns3:atemp>
            <ns3:hr>137</ns3:hr>
          </ns3:TrackPointExtension>
        </extensions>
      </trkpt>
      <trkpt lat="-22.10300079546868801116943359375" lon="166.450872123241424560546875">
        <ele>531.79998779296875</ele>
        <time>2016-08-12T18:20:52.000Z</time>
        <extensions>
          <ns3:TrackPointExtension>
            <ns3:atemp>18.0</ns3:atemp>
            <ns3:hr>138</ns3:hr>
          </ns3:TrackPointExtension>
        </extensions>
      </trkpt>
      <trkpt lat="-22.1029849536716938018798828125" lon="166.4508759789168834686279296875">
        <ele>532</ele>
        <time>2016-08-12T18:20:53.000Z</time>
        <extensions>
          <ns3:TrackPointExtension>
            <ns3:atemp>18.0</ns3:atemp>
            <ns3:hr>137</ns3:hr>
          </ns3:TrackPointExtension>
        </extensions>
      </trkpt>
      <trkpt lat="-22.10296693257987499237060546875" lon="166.45087874494493007659912109375">
        <ele>532.20001220703125</ele>
        <time>2016-08-12T18:20:54.000Z</time>
        <extensions>
          <ns3:TrackPointExtension>
            <ns3:atemp>18.0</ns3:atemp>
            <ns3:hr>137</ns3:hr>
          </ns3:TrackPointExtension>
        </extensions>
      </trkpt>
      <trkpt lat="-22.10295268334448337554931640625" lon="166.45088410936295986175537109375">
        <ele>532.4000244140625</ele>
        <time>2016-08-12T18:20:55.000Z</time>
        <extensions>
          <ns3:TrackPointExtension>
            <ns3:atemp>18.0</ns3:atemp>
            <ns3:hr>138</ns3:hr>
          </ns3:TrackPointExtension>
        </extensions>
      </trkpt>
      <trkpt lat="-22.10293424315750598907470703125" lon="166.4508920721709728240966796875">
        <ele>532.5999755859375</ele>
        <time>2016-08-12T18:20:56.000Z</time>
        <extensions>
          <ns3:TrackPointExtension>
            <ns3:atemp>18.0</ns3:atemp>
            <ns3:hr>138</ns3:hr>
          </ns3:TrackPointExtension>
        </extensions>
      </trkpt>
      <trkpt lat="-22.1029108576476573944091796875" lon="166.45089467056095600128173828125">
        <ele>532.79998779296875</ele>
        <time>2016-08-12T18:20:57.000Z</time>
        <extensions>
          <ns3:TrackPointExtension>
            <ns3:atemp>18.0</ns3:atemp>
            <ns3:hr>138</ns3:hr>
          </ns3:TrackPointExtension>
        </extensions>
      </trkpt>
      <trkpt lat="-22.1028917469084262847900390625" lon="166.4508922398090362548828125">
        <ele>532.79998779296875</ele>
        <time>2016-08-12T18:20:58.000Z</time>
        <extensions>
          <ns3:TrackPointExtension>
            <ns3:atemp>18.0</ns3:atemp>
            <ns3:hr>138</ns3:hr>
          </ns3:TrackPointExtension>
        </extensions>
      </trkpt>
      <trkpt lat="-22.102873139083385467529296875" lon="166.4508860372006893157958984375">
        <ele>533.4000244140625</ele>
        <time>2016-08-12T18:20:59.000Z</time>
        <extensions>
          <ns3:TrackPointExtension>
            <ns3:atemp>18.0</ns3:atemp>
            <ns3:hr>139</ns3:hr>
          </ns3:TrackPointExtension>
        </extensions>
      </trkpt>
      <trkpt lat="-22.102853693068027496337890625" lon="166.45087941549718379974365234375">
        <ele>533.4000244140625</ele>
        <time>2016-08-12T18:21:00.000Z</time>
        <extensions>
          <ns3:TrackPointExtension>
            <ns3:atemp>18.0</ns3:atemp>
            <ns3:hr>139</ns3:hr>
          </ns3:TrackPointExtension>
        </extensions>
      </trkpt>
      <trkpt lat="-22.10283684544265270233154296875" lon="166.45087270997464656829833984375">
        <ele>533.5999755859375</ele>
        <time>2016-08-12T18:21:01.000Z</time>
        <extensions>
          <ns3:TrackPointExtension>
            <ns3:atemp>18.0</ns3:atemp>
            <ns3:hr>139</ns3:hr>
          </ns3:TrackPointExtension>
        </extensions>
      </trkpt>
      <trkpt lat="-22.10282041691243648529052734375" lon="166.450866758823394775390625">
        <ele>533.79998779296875</ele>
        <time>2016-08-12T18:21:02.000Z</time>
        <extensions>
          <ns3:TrackPointExtension>
            <ns3:atemp>18.0</ns3:atemp>
            <ns3:hr>140</ns3:hr>
          </ns3:TrackPointExtension>
        </extensions>
      </trkpt>
      <trkpt lat="-22.102801389992237091064453125" lon="166.4508578740060329437255859375">
        <ele>533.79998779296875</ele>
        <time>2016-08-12T18:21:03.000Z</time>
        <extensions>
          <ns3:TrackPointExtension>
            <ns3:atemp>18.0</ns3:atemp>
            <ns3:hr>140</ns3:hr>
          </ns3:TrackPointExtension>
        </extensions>
      </trkpt>
      <trkpt lat="-22.1027804352343082427978515625" lon="166.45085024647414684295654296875">
        <ele>533.79998779296875</ele>
        <time>2016-08-12T18:21:04.000Z</time>
        <extensions>
          <ns3:TrackPointExtension>
            <ns3:atemp>18.0</ns3:atemp>
            <ns3:hr>140</ns3:hr>
          </ns3:TrackPointExtension>
        </extensions>
      </trkpt>
      <trkpt lat="-22.1027603186666965484619140625" lon="166.45084354095160961151123046875">
        <ele>534</ele>
        <time>2016-08-12T18:21:05.000Z</time>
        <extensions>
          <ns3:TrackPointExtension>
            <ns3:atemp>18.0</ns3:atemp>
            <ns3:hr>140</ns3:hr>
          </ns3:TrackPointExtension>
        </extensions>
      </trkpt>
      <trkpt lat="-22.10274414159357547760009765625" lon="166.45083817653357982635498046875">
        <ele>534.20001220703125</ele>
        <time>2016-08-12T18:21:06.000Z</time>
        <extensions>
          <ns3:TrackPointExtension>
            <ns3:atemp>18.0</ns3:atemp>
            <ns3:hr>140</ns3:hr>
          </ns3:TrackPointExtension>
        </extensions>
      </trkpt>
      <trkpt lat="-22.1027286350727081298828125" lon="166.45083080045878887176513671875">
        <ele>534.4000244140625</ele>
        <time>2016-08-12T18:21:07.000Z</time>
        <extensions>
          <ns3:TrackPointExtension>
            <ns3:atemp>18.0</ns3:atemp>
            <ns3:hr>140</ns3:hr>
          </ns3:TrackPointExtension>
        </extensions>
      </trkpt>
      <trkpt lat="-22.1027103625237941741943359375" lon="166.45082292146980762481689453125">
        <ele>534.4000244140625</ele>
        <time>2016-08-12T18:21:08.000Z</time>
        <extensions>
          <ns3:TrackPointExtension>
            <ns3:atemp>18.0</ns3:atemp>
            <ns3:hr>141</ns3:hr>
          </ns3:TrackPointExtension>
        </extensions>
      </trkpt>
      <trkpt lat="-22.10269468836486339569091796875" lon="166.45081018097698688507080078125">
        <ele>534.4000244140625</ele>
        <time>2016-08-12T18:21:09.000Z</time>
        <extensions>
          <ns3:TrackPointExtension>
            <ns3:atemp>18.0</ns3:atemp>
            <ns3:hr>141</ns3:hr>
          </ns3:TrackPointExtension>
        </extensions>
      </trkpt>
      <trkpt lat="-22.10267909802496433258056640625" lon="166.4507995359599590301513671875">
        <ele>534.79998779296875</ele>
        <time>2016-08-12T18:21:10.000Z</time>
        <extensions>
          <ns3:TrackPointExtension>
            <ns3:atemp>18.0</ns3:atemp>
            <ns3:hr>141</ns3:hr>
          </ns3:TrackPointExtension>
        </extensions>
      </trkpt>
      <trkpt lat="-22.1026627533137798309326171875" lon="166.450787298381328582763671875">
        <ele>535.20001220703125</ele>
        <time>2016-08-12T18:21:11.000Z</time>
        <extensions>
          <ns3:TrackPointExtension>
            <ns3:atemp>18.0</ns3:atemp>
            <ns3:hr>141</ns3:hr>
          </ns3:TrackPointExtension>
        </extensions>
      </trkpt>
      <trkpt lat="-22.1026481688022613525390625" lon="166.45077313296496868133544921875">
        <ele>535.4000244140625</ele>
        <time>2016-08-12T18:21:12.000Z</time>
        <extensions>
          <ns3:TrackPointExtension>
            <ns3:atemp>18.0</ns3:atemp>
            <ns3:hr>141</ns3:hr>
          </ns3:TrackPointExtension>
        </extensions>
      </trkpt>
      <trkpt lat="-22.10263299755752086639404296875" lon="166.4507636614143848419189453125">
        <ele>535.4000244140625</ele>
        <time>2016-08-12T18:21:13.000Z</time>
        <extensions>
          <ns3:TrackPointExtension>
            <ns3:atemp>18.0</ns3:atemp>
            <ns3:hr>141</ns3:hr>
          </ns3:TrackPointExtension>
        </extensions>
      </trkpt>
      <trkpt lat="-22.10261740721762180328369140625" lon="166.45075184293091297149658203125">
        <ele>535.4000244140625</ele>
        <time>2016-08-12T18:21:14.000Z</time>
        <extensions>
          <ns3:TrackPointExtension>
            <ns3:atemp>18.0</ns3:atemp>
            <ns3:hr>141</ns3:hr>
          </ns3:TrackPointExtension>
        </extensions>
      </trkpt>
      <trkpt lat="-22.102600224316120147705078125" lon="166.45074128173291683197021484375">
        <ele>535.5999755859375</ele>
        <time>2016-08-12T18:21:15.000Z</time>
        <extensions>
          <ns3:TrackPointExtension>
            <ns3:atemp>18.0</ns3:atemp>
            <ns3:hr>141</ns3:hr>
          </ns3:TrackPointExtension>
        </extensions>
      </trkpt>
      <trkpt lat="-22.1025832928717136383056640625" lon="166.450730971992015838623046875">
        <ele>536</ele>
        <time>2016-08-12T18:21:16.000Z</time>
        <extensions>
          <ns3:TrackPointExtension>
            <ns3:atemp>18.0</ns3:atemp>
            <ns3:hr>142</ns3:hr>
          </ns3:TrackPointExtension>
        </extensions>
      </trkpt>
      <trkpt lat="-22.1025661937892436981201171875" lon="166.45071915350854396820068359375">
        <ele>536</ele>
        <time>2016-08-12T18:21:17.000Z</time>
        <extensions>
          <ns3:TrackPointExtension>
            <ns3:atemp>18.0</ns3:atemp>
            <ns3:hr>141</ns3:hr>
          </ns3:TrackPointExtension>
        </extensions>
      </trkpt>
      <trkpt lat="-22.1025450713932514190673828125" lon="166.45070792175829410552978515625">
        <ele>536</ele>
        <time>2016-08-12T18:21:18.000Z</time>
        <extensions>
          <ns3:TrackPointExtension>
            <ns3:atemp>18.0</ns3:atemp>
            <ns3:hr>142</ns3:hr>
          </ns3:TrackPointExtension>
        </extensions>
      </trkpt>
      <trkpt lat="-22.10252470336854457855224609375" lon="166.4507016353309154510498046875">
        <ele>536.4000244140625</ele>
        <time>2016-08-12T18:21:19.000Z</time>
        <extensions>
          <ns3:TrackPointExtension>
            <ns3:atemp>18.0</ns3:atemp>
            <ns3:hr>142</ns3:hr>
          </ns3:TrackPointExtension>
        </extensions>
      </trkpt>
      <trkpt lat="-22.10250626318156719207763671875" lon="166.450696103274822235107421875">
        <ele>536.5999755859375</ele>
        <time>2016-08-12T18:21:20.000Z</time>
        <extensions>
          <ns3:TrackPointExtension>
            <ns3:atemp>18.0</ns3:atemp>
            <ns3:hr>142</ns3:hr>
          </ns3:TrackPointExtension>
        </extensions>
      </trkpt>
      <trkpt lat="-22.10248782299458980560302734375" lon="166.4506888948380947113037109375">
        <ele>536.5999755859375</ele>
        <time>2016-08-12T18:21:21.000Z</time>
        <extensions>
          <ns3:TrackPointExtension>
            <ns3:atemp>18.0</ns3:atemp>
            <ns3:hr>142</ns3:hr>
          </ns3:TrackPointExtension>
        </extensions>
      </trkpt>
      <trkpt lat="-22.10247625596821308135986328125" lon="166.450681351125240325927734375">
        <ele>537.20001220703125</ele>
        <time>2016-08-12T18:21:22.000Z</time>
        <extensions>
          <ns3:TrackPointExtension>
            <ns3:atemp>18.0</ns3:atemp>
            <ns3:hr>143</ns3:hr>
          </ns3:TrackPointExtension>
        </extensions>
      </trkpt>
      <trkpt lat="-22.10246234200894832611083984375" lon="166.45067087374627590179443359375">
        <ele>537.20001220703125</ele>
        <time>2016-08-12T18:21:23.000Z</time>
        <extensions>
          <ns3:TrackPointExtension>
            <ns3:atemp>18.0</ns3:atemp>
            <ns3:hr>143</ns3:hr>
          </ns3:TrackPointExtension>
        </extensions>
      </trkpt>
      <trkpt lat="-22.1024458296597003936767578125" lon="166.4506570436060428619384765625">
        <ele>537.20001220703125</ele>
        <time>2016-08-12T18:21:24.000Z</time>
        <extensions>
          <ns3:TrackPointExtension>
            <ns3:atemp>18.0</ns3:atemp>
            <ns3:hr>143</ns3:hr>
          </ns3:TrackPointExtension>
        </extensions>
      </trkpt>
      <trkpt lat="-22.10242814384400844573974609375" lon="166.4506436325609683990478515625">
        <ele>537.4000244140625</ele>
        <time>2016-08-12T18:21:25.000Z</time>
        <extensions>
          <ns3:TrackPointExtension>
            <ns3:atemp>18.0</ns3:atemp>
            <ns3:hr>143</ns3:hr>
          </ns3:TrackPointExtension>
        </extensions>
      </trkpt>
      <trkpt lat="-22.1024148166179656982421875" lon="166.450636424124240875244140625">
        <ele>537.4000244140625</ele>
        <time>2016-08-12T18:21:26.000Z</time>
        <extensions>
          <ns3:TrackPointExtension>
            <ns3:atemp>18.0</ns3:atemp>
            <ns3:hr>143</ns3:hr>
          </ns3:TrackPointExtension>
        </extensions>
      </trkpt>
      <trkpt lat="-22.102401070296764373779296875" lon="166.4506332390010356903076171875">
        <ele>537.4000244140625</ele>
        <time>2016-08-12T18:21:27.000Z</time>
        <extensions>
          <ns3:TrackPointExtension>
            <ns3:atemp>18.0</ns3:atemp>
            <ns3:hr>144</ns3:hr>
          </ns3:TrackPointExtension>
        </extensions>
      </trkpt>
      <trkpt lat="-22.10238455794751644134521484375" lon="166.45062762312591075897216796875">
        <ele>537.4000244140625</ele>
        <time>2016-08-12T18:21:28.000Z</time>
        <extensions>
          <ns3:TrackPointExtension>
            <ns3:atemp>18.0</ns3:atemp>
            <ns3:hr>144</ns3:hr>
          </ns3:TrackPointExtension>
        </extensions>
      </trkpt>
      <trkpt lat="-22.10236645303666591644287109375" lon="166.450627706944942474365234375">
        <ele>537.5999755859375</ele>
        <time>2016-08-12T18:21:29.000Z</time>
        <extensions>
          <ns3:TrackPointExtension>
            <ns3:atemp>18.0</ns3:atemp>
            <ns3:hr>144</ns3:hr>
          </ns3:TrackPointExtension>
        </extensions>
      </trkpt>
      <trkpt lat="-22.10234231315553188323974609375" lon="166.4506267011165618896484375">
        <ele>538</ele>
        <time>2016-08-12T18:21:30.000Z</time>
        <extensions>
          <ns3:TrackPointExtension>
            <ns3:atemp>18.0</ns3:atemp>
            <ns3:hr>144</ns3:hr>
          </ns3:TrackPointExtension>
        </extensions>
      </trkpt>
      <trkpt lat="-22.10231515578925609588623046875" lon="166.450623683631420135498046875">
        <ele>537.79998779296875</ele>
        <time>2016-08-12T18:21:31.000Z</time>
        <extensions>
          <ns3:TrackPointExtension>
            <ns3:atemp>18.0</ns3:atemp>
            <ns3:hr>144</ns3:hr>
          </ns3:TrackPointExtension>
        </extensions>
      </trkpt>
      <trkpt lat="-22.102296464145183563232421875" lon="166.450625695288181304931640625">
        <ele>537.79998779296875</ele>
        <time>2016-08-12T18:21:32.000Z</time>
        <extensions>
          <ns3:TrackPointExtension>
            <ns3:atemp>18.0</ns3:atemp>
            <ns3:hr>144</ns3:hr>
          </ns3:TrackPointExtension>
        </extensions>
      </trkpt>
      <trkpt lat="-22.102280370891094207763671875" lon="166.45062862895429134368896484375">
        <ele>537.79998779296875</ele>
        <time>2016-08-12T18:21:33.000Z</time>
        <extensions>
          <ns3:TrackPointExtension>
            <ns3:atemp>18.0</ns3:atemp>
            <ns3:hr>144</ns3:hr>
          </ns3:TrackPointExtension>
        </extensions>
      </trkpt>
      <trkpt lat="-22.1022594161331653594970703125" lon="166.4506288804113864898681640625">
        <ele>537.79998779296875</ele>
        <time>2016-08-12T18:21:34.000Z</time>
        <extensions>
          <ns3:TrackPointExtension>
            <ns3:atemp>18.0</ns3:atemp>
            <ns3:hr>144</ns3:hr>
          </ns3:TrackPointExtension>
        </extensions>
      </trkpt>
      <trkpt lat="-22.102243490517139434814453125" lon="166.4506349153816699981689453125">
        <ele>538.20001220703125</ele>
        <time>2016-08-12T18:21:35.000Z</time>
        <extensions>
          <ns3:TrackPointExtension>
            <ns3:atemp>18.0</ns3:atemp>
            <ns3:hr>144</ns3:hr>
          </ns3:TrackPointExtension>
        </extensions>
      </trkpt>
      <trkpt lat="-22.1022243797779083251953125" lon="166.4506379328668117523193359375">
        <ele>538.4000244140625</ele>
        <time>2016-08-12T18:21:36.000Z</time>
        <extensions>
          <ns3:TrackPointExtension>
            <ns3:atemp>18.0</ns3:atemp>
            <ns3:hr>144</ns3:hr>
          </ns3:TrackPointExtension>
        </extensions>
      </trkpt>
      <trkpt lat="-22.102204598486423492431640625" lon="166.45064212381839752197265625">
        <ele>538.20001220703125</ele>
        <time>2016-08-12T18:21:37.000Z</time>
        <extensions>
          <ns3:TrackPointExtension>
            <ns3:atemp>18.0</ns3:atemp>
            <ns3:hr>144</ns3:hr>
          </ns3:TrackPointExtension>
        </extensions>
      </trkpt>
      <trkpt lat="-22.1021836437284946441650390625" lon="166.4506493322551250457763671875">
        <ele>538.4000244140625</ele>
        <time>2016-08-12T18:21:38.000Z</time>
        <extensions>
          <ns3:TrackPointExtension>
            <ns3:atemp>18.0</ns3:atemp>
            <ns3:hr>144</ns3:hr>
          </ns3:TrackPointExtension>
        </extensions>
      </trkpt>
      <trkpt lat="-22.10216796956956386566162109375" lon="166.45065494813024997711181640625">
        <ele>538.4000244140625</ele>
        <time>2016-08-12T18:21:39.000Z</time>
        <extensions>
          <ns3:TrackPointExtension>
            <ns3:atemp>18.0</ns3:atemp>
            <ns3:hr>144</ns3:hr>
          </ns3:TrackPointExtension>
        </extensions>
      </trkpt>
      <trkpt lat="-22.10214986465871334075927734375" lon="166.45066089928150177001953125">
        <ele>538.20001220703125</ele>
        <time>2016-08-12T18:21:40.000Z</time>
        <extensions>
          <ns3:TrackPointExtension>
            <ns3:atemp>18.0</ns3:atemp>
            <ns3:hr>144</ns3:hr>
          </ns3:TrackPointExtension>
        </extensions>
      </trkpt>
      <trkpt lat="-22.10213293321430683135986328125" lon="166.45066919736564159393310546875">
        <ele>538.20001220703125</ele>
        <time>2016-08-12T18:21:41.000Z</time>
        <extensions>
          <ns3:TrackPointExtension>
            <ns3:atemp>18.0</ns3:atemp>
            <ns3:hr>144</ns3:hr>
          </ns3:TrackPointExtension>
        </extensions>
      </trkpt>
      <trkpt lat="-22.1021031774580478668212890625" lon="166.4506694488227367401123046875">
        <ele>538.4000244140625</ele>
        <time>2016-08-12T18:21:42.000Z</time>
        <extensions>
          <ns3:TrackPointExtension>
            <ns3:atemp>18.0</ns3:atemp>
            <ns3:hr>144</ns3:hr>
          </ns3:TrackPointExtension>
        </extensions>
      </trkpt>
      <trkpt lat="-22.10207778029143810272216796875" lon="166.450669281184673309326171875">
        <ele>538.4000244140625</ele>
        <time>2016-08-12T18:21:43.000Z</time>
        <extensions>
          <ns3:TrackPointExtension>
            <ns3:atemp>18.0</ns3:atemp>
            <ns3:hr>143</ns3:hr>
          </ns3:TrackPointExtension>
        </extensions>
      </trkpt>
      <trkpt lat="-22.10204961709678173065185546875" lon="166.45066718570888042449951171875">
        <ele>538.4000244140625</ele>
        <time>2016-08-12T18:21:44.000Z</time>
        <extensions>
          <ns3:TrackPointExtension>
            <ns3:atemp>18.0</ns3:atemp>
            <ns3:hr>143</ns3:hr>
          </ns3:TrackPointExtension>
        </extensions>
      </trkpt>
      <trkpt lat="-22.10202413611114025115966796875" lon="166.45065796561539173126220703125">
        <ele>538.20001220703125</ele>
        <time>2016-08-12T18:21:45.000Z</time>
        <extensions>
          <ns3:TrackPointExtension>
            <ns3:atemp>18.0</ns3:atemp>
            <ns3:hr>143</ns3:hr>
          </ns3:TrackPointExtension>
        </extensions>
      </trkpt>
      <trkpt lat="-22.10200016386806964874267578125" lon="166.45065360702574253082275390625">
        <ele>538.20001220703125</ele>
        <time>2016-08-12T18:21:46.000Z</time>
        <extensions>
          <ns3:TrackPointExtension>
            <ns3:atemp>18.0</ns3:atemp>
            <ns3:hr>142</ns3:hr>
          </ns3:TrackPointExtension>
        </extensions>
      </trkpt>
      <trkpt lat="-22.101976610720157623291015625" lon="166.45065377466380596160888671875">
        <ele>538.20001220703125</ele>
        <time>2016-08-12T18:21:47.000Z</time>
        <extensions>
          <ns3:TrackPointExtension>
            <ns3:atemp>18.0</ns3:atemp>
            <ns3:hr>142</ns3:hr>
          </ns3:TrackPointExtension>
        </extensions>
      </trkpt>
      <trkpt lat="-22.10195054300129413604736328125" lon="166.45065729506313800811767578125">
        <ele>538.4000244140625</ele>
        <time>2016-08-12T18:21:48.000Z</time>
        <extensions>
          <ns3:TrackPointExtension>
            <ns3:atemp>18.0</ns3:atemp>
            <ns3:hr>142</ns3:hr>
          </ns3:TrackPointExtension>
        </extensions>
      </trkpt>
      <trkpt lat="-22.1019238047301769256591796875" lon="166.4506580494344234466552734375">
        <ele>538.4000244140625</ele>
        <time>2016-08-12T18:21:49.000Z</time>
        <extensions>
          <ns3:TrackPointExtension>
            <ns3:atemp>18.0</ns3:atemp>
            <ns3:hr>141</ns3:hr>
          </ns3:TrackPointExtension>
        </extensions>
      </trkpt>
      <trkpt lat="-22.1019003354012966156005859375" lon="166.45065964199602603912353515625">
        <ele>538.4000244140625</ele>
        <time>2016-08-12T18:21:50.000Z</time>
        <extensions>
          <ns3:TrackPointExtension>
            <ns3:atemp>18.0</ns3:atemp>
            <ns3:hr>141</ns3:hr>
          </ns3:TrackPointExtension>
        </extensions>
      </trkpt>
      <trkpt lat="-22.10187233984470367431640625" lon="166.45066299475729465484619140625">
        <ele>538.4000244140625</ele>
        <time>2016-08-12T18:21:51.000Z</time>
        <extensions>
          <ns3:TrackPointExtension>
            <ns3:atemp>18.0</ns3:atemp>
            <ns3:hr>142</ns3:hr>
          </ns3:TrackPointExtension>
        </extensions>
      </trkpt>
      <trkpt lat="-22.1018480323255062103271484375" lon="166.45066467113792896270751953125">
        <ele>538.4000244140625</ele>
        <time>2016-08-12T18:21:52.000Z</time>
        <extensions>
          <ns3:TrackPointExtension>
            <ns3:atemp>18.0</ns3:atemp>
            <ns3:hr>141</ns3:hr>
          </ns3:TrackPointExtension>
        </extensions>
      </trkpt>
      <trkpt lat="-22.10182112641632556915283203125" lon="166.4506671018898487091064453125">
        <ele>538.5999755859375</ele>
        <time>2016-08-12T18:21:53.000Z</time>
        <extensions>
          <ns3:TrackPointExtension>
            <ns3:atemp>18.0</ns3:atemp>
            <ns3:hr>141</ns3:hr>
          </ns3:TrackPointExtension>
        </extensions>
      </trkpt>
      <trkpt lat="-22.10179782472550868988037109375" lon="166.45067104138433933258056640625">
        <ele>538.79998779296875</ele>
        <time>2016-08-12T18:21:54.000Z</time>
        <extensions>
          <ns3:TrackPointExtension>
            <ns3:atemp>18.0</ns3:atemp>
            <ns3:hr>141</ns3:hr>
          </ns3:TrackPointExtension>
        </extensions>
      </trkpt>
      <trkpt lat="-22.101775109767913818359375" lon="166.4506764896214008331298828125">
        <ele>539</ele>
        <time>2016-08-12T18:21:55.000Z</time>
        <extensions>
          <ns3:TrackPointExtension>
            <ns3:atemp>18.0</ns3:atemp>
            <ns3:hr>142</ns3:hr>
          </ns3:TrackPointExtension>
        </extensions>
      </trkpt>
      <trkpt lat="-22.1017521433532238006591796875" lon="166.45068478770554065704345703125">
        <ele>539</ele>
        <time>2016-08-12T18:21:56.000Z</time>
        <extensions>
          <ns3:TrackPointExtension>
            <ns3:atemp>18.0</ns3:atemp>
            <ns3:hr>141</ns3:hr>
          </ns3:TrackPointExtension>
        </extensions>
      </trkpt>
      <trkpt lat="-22.10172540508210659027099609375" lon="166.450693421065807342529296875">
        <ele>539</ele>
        <time>2016-08-12T18:21:57.000Z</time>
        <extensions>
          <ns3:TrackPointExtension>
            <ns3:atemp>18.0</ns3:atemp>
            <ns3:hr>141</ns3:hr>
          </ns3:TrackPointExtension>
        </extensions>
      </trkpt>
      <trkpt lat="-22.10170679725706577301025390625" lon="166.45070808939635753631591796875">
        <ele>539</ele>
        <time>2016-08-12T18:21:58.000Z</time>
        <extensions>
          <ns3:TrackPointExtension>
            <ns3:atemp>18.0</ns3:atemp>
            <ns3:hr>141</ns3:hr>
          </ns3:TrackPointExtension>
        </extensions>
      </trkpt>
      <trkpt lat="-22.10168902762234210968017578125" lon="166.450724266469478607177734375">
        <ele>539.20001220703125</ele>
        <time>2016-08-12T18:21:59.000Z</time>
        <extensions>
          <ns3:TrackPointExtension>
            <ns3:atemp>18.0</ns3:atemp>
            <ns3:hr>140</ns3:hr>
          </ns3:TrackPointExtension>
        </extensions>
      </trkpt>
      <trkpt lat="-22.10166991688311100006103515625" lon="166.450742371380329132080078125">
        <ele>539.20001220703125</ele>
        <time>2016-08-12T18:22:00.000Z</time>
        <extensions>
          <ns3:TrackPointExtension>
            <ns3:atemp>18.0</ns3:atemp>
            <ns3:hr>140</ns3:hr>
          </ns3:TrackPointExtension>
        </extensions>
      </trkpt>
      <trkpt lat="-22.10165147669613361358642578125" lon="166.45075955428183078765869140625">
        <ele>539.5999755859375</ele>
        <time>2016-08-12T18:22:01.000Z</time>
        <extensions>
          <ns3:TrackPointExtension>
            <ns3:atemp>18.0</ns3:atemp>
            <ns3:hr>140</ns3:hr>
          </ns3:TrackPointExtension>
        </extensions>
      </trkpt>
      <trkpt lat="-22.10163270123302936553955078125" lon="166.4507767371833324432373046875">
        <ele>539.79998779296875</ele>
        <time>2016-08-12T18:22:02.000Z</time>
        <extensions>
          <ns3:TrackPointExtension>
            <ns3:atemp>18.0</ns3:atemp>
            <ns3:hr>140</ns3:hr>
          </ns3:TrackPointExtension>
        </extensions>
      </trkpt>
      <trkpt lat="-22.101619541645050048828125" lon="166.45079408772289752960205078125">
        <ele>539.79998779296875</ele>
        <time>2016-08-12T18:22:03.000Z</time>
        <extensions>
          <ns3:TrackPointExtension>
            <ns3:atemp>18.0</ns3:atemp>
            <ns3:hr>140</ns3:hr>
          </ns3:TrackPointExtension>
        </extensions>
      </trkpt>
      <trkpt lat="-22.1016036160290241241455078125" lon="166.450815461575984954833984375">
        <ele>539.79998779296875</ele>
        <time>2016-08-12T18:22:04.000Z</time>
        <extensions>
          <ns3:TrackPointExtension>
            <ns3:atemp>18.0</ns3:atemp>
            <ns3:hr>140</ns3:hr>
          </ns3:TrackPointExtension>
        </extensions>
      </trkpt>
      <trkpt lat="-22.1015855111181735992431640625" lon="166.4508330635726451873779296875">
        <ele>539.5999755859375</ele>
        <time>2016-08-12T18:22:05.000Z</time>
        <extensions>
          <ns3:TrackPointExtension>
            <ns3:atemp>18.0</ns3:atemp>
            <ns3:hr>140</ns3:hr>
          </ns3:TrackPointExtension>
        </extensions>
      </trkpt>
      <trkpt lat="-22.1015630476176738739013671875" lon="166.450848989188671112060546875">
        <ele>539.79998779296875</ele>
        <time>2016-08-12T18:22:06.000Z</time>
        <extensions>
          <ns3:TrackPointExtension>
            <ns3:atemp>18.0</ns3:atemp>
            <ns3:hr>140</ns3:hr>
          </ns3:TrackPointExtension>
        </extensions>
      </trkpt>
      <trkpt lat="-22.101544104516506195068359375" lon="166.4508642442524433135986328125">
        <ele>540</ele>
        <time>2016-08-12T18:22:07.000Z</time>
        <extensions>
          <ns3:TrackPointExtension>
            <ns3:atemp>18.0</ns3:atemp>
            <ns3:hr>140</ns3:hr>
          </ns3:TrackPointExtension>
        </extensions>
      </trkpt>
      <trkpt lat="-22.10152574814856052398681640625" lon="166.45087815821170806884765625">
        <ele>540</ele>
        <time>2016-08-12T18:22:08.000Z</time>
        <extensions>
          <ns3:TrackPointExtension>
            <ns3:atemp>18.0</ns3:atemp>
            <ns3:hr>140</ns3:hr>
          </ns3:TrackPointExtension>
        </extensions>
      </trkpt>
      <trkpt lat="-22.1015067212283611297607421875" lon="166.45088796503841876983642578125">
        <ele>540</ele>
        <time>2016-08-12T18:22:09.000Z</time>
        <extensions>
          <ns3:TrackPointExtension>
            <ns3:atemp>18.0</ns3:atemp>
            <ns3:hr>140</ns3:hr>
          </ns3:TrackPointExtension>
        </extensions>
      </trkpt>
      <trkpt lat="-22.10148534737527370452880859375" lon="166.45089886151254177093505859375">
        <ele>540.20001220703125</ele>
        <time>2016-08-12T18:22:10.000Z</time>
        <extensions>
          <ns3:TrackPointExtension>
            <ns3:atemp>18.0</ns3:atemp>
            <ns3:hr>140</ns3:hr>
          </ns3:TrackPointExtension>
        </extensions>
      </trkpt>
      <trkpt lat="-22.1014651469886302947998046875" lon="166.45091042853891849517822265625">
        <ele>540.20001220703125</ele>
        <time>2016-08-12T18:22:11.000Z</time>
        <extensions>
          <ns3:TrackPointExtension>
            <ns3:atemp>18.0</ns3:atemp>
            <ns3:hr>140</ns3:hr>
          </ns3:TrackPointExtension>
        </extensions>
      </trkpt>
      <trkpt lat="-22.10144628770649433135986328125" lon="166.4509222470223903656005859375">
        <ele>540.4000244140625</ele>
        <time>2016-08-12T18:22:12.000Z</time>
        <extensions>
          <ns3:TrackPointExtension>
            <ns3:atemp>18.0</ns3:atemp>
            <ns3:hr>140</ns3:hr>
          </ns3:TrackPointExtension>
        </extensions>
      </trkpt>
      <trkpt lat="-22.10142709314823150634765625" lon="166.4509351551532745361328125">
        <ele>540.4000244140625</ele>
        <time>2016-08-12T18:22:13.000Z</time>
        <extensions>
          <ns3:TrackPointExtension>
            <ns3:atemp>18.0</ns3:atemp>
            <ns3:hr>140</ns3:hr>
          </ns3:TrackPointExtension>
        </extensions>
      </trkpt>
      <trkpt lat="-22.10141192190349102020263671875" lon="166.4509487338364124298095703125">
        <ele>540.5999755859375</ele>
        <time>2016-08-12T18:22:14.000Z</time>
        <extensions>
          <ns3:TrackPointExtension>
            <ns3:atemp>18.0</ns3:atemp>
            <ns3:hr>140</ns3:hr>
          </ns3:TrackPointExtension>
        </extensions>
      </trkpt>
      <trkpt lat="-22.1013974212110042572021484375" lon="166.4509611390531063079833984375">
        <ele>541</ele>
        <time>2016-08-12T18:22:15.000Z</time>
        <extensions>
          <ns3:TrackPointExtension>
            <ns3:atemp>18.0</ns3:atemp>
            <ns3:hr>140</ns3:hr>
          </ns3:TrackPointExtension>
        </extensions>
      </trkpt>
      <trkpt lat="-22.10137889720499515533447265625" lon="166.45097547210752964019775390625">
        <ele>541</ele>
        <time>2016-08-12T18:22:16.000Z</time>
        <extensions>
          <ns3:TrackPointExtension>
            <ns3:atemp>18.0</ns3:atemp>
            <ns3:hr>140</ns3:hr>
          </ns3:TrackPointExtension>
        </extensions>
      </trkpt>
      <trkpt lat="-22.1013608761131763458251953125" lon="166.4509882964193820953369140625">
        <ele>541.20001220703125</ele>
        <time>2016-08-12T18:22:17.000Z</time>
        <extensions>
          <ns3:TrackPointExtension>
            <ns3:atemp>18.0</ns3:atemp>
            <ns3:hr>140</ns3:hr>
          </ns3:TrackPointExtension>
        </extensions>
      </trkpt>
      <trkpt lat="-22.1013437770307064056396484375" lon="166.4509996958076953887939453125">
        <ele>541.4000244140625</ele>
        <time>2016-08-12T18:22:18.000Z</time>
        <extensions>
          <ns3:TrackPointExtension>
            <ns3:atemp>18.0</ns3:atemp>
            <ns3:hr>139</ns3:hr>
          </ns3:TrackPointExtension>
        </extensions>
      </trkpt>
      <trkpt lat="-22.10132458247244358062744140625" lon="166.45101386122405529022216796875">
        <ele>541.5999755859375</ele>
        <time>2016-08-12T18:22:19.000Z</time>
        <extensions>
          <ns3:TrackPointExtension>
            <ns3:atemp>18.0</ns3:atemp>
            <ns3:hr>139</ns3:hr>
          </ns3:TrackPointExtension>
        </extensions>
      </trkpt>
      <trkpt lat="-22.101302705705165863037109375" lon="166.45102567970752716064453125">
        <ele>541.5999755859375</ele>
        <time>2016-08-12T18:22:20.000Z</time>
        <extensions>
          <ns3:TrackPointExtension>
            <ns3:atemp>18.0</ns3:atemp>
            <ns3:hr>140</ns3:hr>
          </ns3:TrackPointExtension>
        </extensions>
      </trkpt>
      <trkpt lat="-22.10128535516560077667236328125" lon="166.45103666000068187713623046875">
        <ele>541.79998779296875</ele>
        <time>2016-08-12T18:22:21.000Z</time>
        <extensions>
          <ns3:TrackPointExtension>
            <ns3:atemp>18.0</ns3:atemp>
            <ns3:hr>139</ns3:hr>
          </ns3:TrackPointExtension>
        </extensions>
      </trkpt>
      <trkpt lat="-22.1012629754841327667236328125" lon="166.451048143208026885986328125">
        <ele>541.79998779296875</ele>
        <time>2016-08-12T18:22:22.000Z</time>
        <extensions>
          <ns3:TrackPointExtension>
            <ns3:atemp>18.0</ns3:atemp>
            <ns3:hr>139</ns3:hr>
          </ns3:TrackPointExtension>
        </extensions>
      </trkpt>
      <trkpt lat="-22.10124143399298191070556640625" lon="166.4510556869208812713623046875">
        <ele>542</ele>
        <time>2016-08-12T18:22:23.000Z</time>
        <extensions>
          <ns3:TrackPointExtension>
            <ns3:atemp>18.0</ns3:atemp>
            <ns3:hr>140</ns3:hr>
          </ns3:TrackPointExtension>
        </extensions>
      </trkpt>
      <trkpt lat="-22.101225592195987701416015625" lon="166.45106432028114795684814453125">
        <ele>542.20001220703125</ele>
        <time>2016-08-12T18:22:24.000Z</time>
        <extensions>
          <ns3:TrackPointExtension>
            <ns3:atemp>18.0</ns3:atemp>
            <ns3:hr>139</ns3:hr>
          </ns3:TrackPointExtension>
        </extensions>
      </trkpt>
      <trkpt lat="-22.1012053079903125762939453125" lon="166.45107136107981204986572265625">
        <ele>542.20001220703125</ele>
        <time>2016-08-12T18:22:25.000Z</time>
        <extensions>
          <ns3:TrackPointExtension>
            <ns3:atemp>18.0</ns3:atemp>
            <ns3:hr>140</ns3:hr>
          </ns3:TrackPointExtension>
        </extensions>
      </trkpt>
      <trkpt lat="-22.10118561051785945892333984375" lon="166.45107152871787548065185546875">
        <ele>542.5999755859375</ele>
        <time>2016-08-12T18:22:26.000Z</time>
        <extensions>
          <ns3:TrackPointExtension>
            <ns3:atemp>18.0</ns3:atemp>
            <ns3:hr>140</ns3:hr>
          </ns3:TrackPointExtension>
        </extensions>
      </trkpt>
      <trkpt lat="-22.1011714451014995574951171875" lon="166.4510701037943363189697265625">
        <ele>542.5999755859375</ele>
        <time>2016-08-12T18:22:27.000Z</time>
        <extensions>
          <ns3:TrackPointExtension>
            <ns3:atemp>18.0</ns3:atemp>
            <ns3:hr>140</ns3:hr>
          </ns3:TrackPointExtension>
        </extensions>
      </trkpt>
      <trkpt lat="-22.1011530049145221710205078125" lon="166.45106750540435314178466796875">
        <ele>542.79998779296875</ele>
        <time>2016-08-12T18:22:28.000Z</time>
        <extensions>
          <ns3:TrackPointExtension>
            <ns3:atemp>18.0</ns3:atemp>
            <ns3:hr>140</ns3:hr>
          </ns3:TrackPointExtension>
        </extensions>
      </trkpt>
      <trkpt lat="-22.10113766603171825408935546875" lon="166.45106197334825992584228515625">
        <ele>543</ele>
        <time>2016-08-12T18:22:29.000Z</time>
        <extensions>
          <ns3:TrackPointExtension>
            <ns3:atemp>18.0</ns3:atemp>
            <ns3:hr>140</ns3:hr>
          </ns3:TrackPointExtension>
        </extensions>
      </trkpt>
      <trkpt lat="-22.10112132132053375244140625" lon="166.451054848730564117431640625">
        <ele>543.20001220703125</ele>
        <time>2016-08-12T18:22:30.000Z</time>
        <extensions>
          <ns3:TrackPointExtension>
            <ns3:atemp>18.0</ns3:atemp>
            <ns3:hr>140</ns3:hr>
          </ns3:TrackPointExtension>
        </extensions>
      </trkpt>
      <trkpt lat="-22.1011037193238735198974609375" lon="166.4510478079319000244140625">
        <ele>543.20001220703125</ele>
        <time>2016-08-12T18:22:31.000Z</time>
        <extensions>
          <ns3:TrackPointExtension>
            <ns3:atemp>18.0</ns3:atemp>
            <ns3:hr>141</ns3:hr>
          </ns3:TrackPointExtension>
        </extensions>
      </trkpt>
      <trkpt lat="-22.10108486004173755645751953125" lon="166.45103774964809417724609375">
        <ele>543.4000244140625</ele>
        <time>2016-08-12T18:22:32.000Z</time>
        <extensions>
          <ns3:TrackPointExtension>
            <ns3:atemp>18.0</ns3:atemp>
            <ns3:hr>141</ns3:hr>
          </ns3:TrackPointExtension>
        </extensions>
      </trkpt>
      <trkpt lat="-22.10107010789215564727783203125" lon="166.451032049953937530517578125">
        <ele>543.5999755859375</ele>
        <time>2016-08-12T18:22:33.000Z</time>
        <extensions>
          <ns3:TrackPointExtension>
            <ns3:atemp>18.0</ns3:atemp>
            <ns3:hr>140</ns3:hr>
          </ns3:TrackPointExtension>
        </extensions>
      </trkpt>
      <trkpt lat="-22.10105585865676403045654296875" lon="166.45102643407881259918212890625">
        <ele>543.5999755859375</ele>
        <time>2016-08-12T18:22:34.000Z</time>
        <extensions>
          <ns3:TrackPointExtension>
            <ns3:atemp>18.0</ns3:atemp>
            <ns3:hr>141</ns3:hr>
          </ns3:TrackPointExtension>
        </extensions>
      </trkpt>
      <trkpt lat="-22.10103943012654781341552734375" lon="166.45101939328014850616455078125">
        <ele>543.79998779296875</ele>
        <time>2016-08-12T18:22:35.000Z</time>
        <extensions>
          <ns3:TrackPointExtension>
            <ns3:atemp>18.0</ns3:atemp>
            <ns3:hr>141</ns3:hr>
          </ns3:TrackPointExtension>
        </extensions>
      </trkpt>
      <trkpt lat="-22.10102216340601444244384765625" lon="166.4510090835392475128173828125">
        <ele>544</ele>
        <time>2016-08-12T18:22:36.000Z</time>
        <extensions>
          <ns3:TrackPointExtension>
            <ns3:atemp>18.0</ns3:atemp>
            <ns3:hr>141</ns3:hr>
          </ns3:TrackPointExtension>
        </extensions>
      </trkpt>
      <trkpt lat="-22.1010058186948299407958984375" lon="166.450999192893505096435546875">
        <ele>544</ele>
        <time>2016-08-12T18:22:37.000Z</time>
        <extensions>
          <ns3:TrackPointExtension>
            <ns3:atemp>18.0</ns3:atemp>
            <ns3:hr>141</ns3:hr>
          </ns3:TrackPointExtension>
        </extensions>
      </trkpt>
      <trkpt lat="-22.10098846815526485443115234375" lon="166.45099273882806301116943359375">
        <ele>544.20001220703125</ele>
        <time>2016-08-12T18:22:38.000Z</time>
        <extensions>
          <ns3:TrackPointExtension>
            <ns3:atemp>18.0</ns3:atemp>
            <ns3:hr>141</ns3:hr>
          </ns3:TrackPointExtension>
        </extensions>
      </trkpt>
      <trkpt lat="-22.100979499518871307373046875" lon="166.45098888315260410308837890625">
        <ele>544.20001220703125</ele>
        <time>2016-08-12T18:22:39.000Z</time>
        <extensions>
          <ns3:TrackPointExtension>
            <ns3:atemp>18.0</ns3:atemp>
            <ns3:hr>141</ns3:hr>
          </ns3:TrackPointExtension>
        </extensions>
      </trkpt>
      <trkpt lat="-22.1009610593318939208984375" lon="166.45098050124943256378173828125">
        <ele>544.4000244140625</ele>
        <time>2016-08-12T18:22:40.000Z</time>
        <extensions>
          <ns3:TrackPointExtension>
            <ns3:atemp>18.0</ns3:atemp>
            <ns3:hr>142</ns3:hr>
          </ns3:TrackPointExtension>
        </extensions>
      </trkpt>
      <trkpt lat="-22.1009528450667858123779296875" lon="166.45096507854759693145751953125">
        <ele>544.4000244140625</ele>
        <time>2016-08-12T18:22:41.000Z</time>
        <extensions>
          <ns3:TrackPointExtension>
            <ns3:atemp>18.0</ns3:atemp>
            <ns3:hr>142</ns3:hr>
          </ns3:TrackPointExtension>
        </extensions>
      </trkpt>
      <trkpt lat="-22.10093935020267963409423828125" lon="166.45095326006412506103515625">
        <ele>544.5999755859375</ele>
        <time>2016-08-12T18:22:42.000Z</time>
        <extensions>
          <ns3:TrackPointExtension>
            <ns3:atemp>18.0</ns3:atemp>
            <ns3:hr>142</ns3:hr>
          </ns3:TrackPointExtension>
        </extensions>
      </trkpt>
      <trkpt lat="-22.10092610679566860198974609375" lon="166.450941525399684906005859375">
        <ele>545.20001220703125</ele>
        <time>2016-08-12T18:22:43.000Z</time>
        <extensions>
          <ns3:TrackPointExtension>
            <ns3:atemp>18.0</ns3:atemp>
            <ns3:hr>142</ns3:hr>
          </ns3:TrackPointExtension>
        </extensions>
      </trkpt>
      <trkpt lat="-22.10091370157897472381591796875" lon="166.45092635415494441986083984375">
        <ele>545.20001220703125</ele>
        <time>2016-08-12T18:22:44.000Z</time>
        <extensions>
          <ns3:TrackPointExtension>
            <ns3:atemp>18.0</ns3:atemp>
            <ns3:hr>142</ns3:hr>
          </ns3:TrackPointExtension>
        </extensions>
      </trkpt>
      <trkpt lat="-22.10089693777263164520263671875" lon="166.45091227255761623382568359375">
        <ele>545.4000244140625</ele>
        <time>2016-08-12T18:22:45.000Z</time>
        <extensions>
          <ns3:TrackPointExtension>
            <ns3:atemp>18.0</ns3:atemp>
            <ns3:hr>142</ns3:hr>
          </ns3:TrackPointExtension>
        </extensions>
      </trkpt>
      <trkpt lat="-22.10088168270885944366455078125" lon="166.4508967660367488861083984375">
        <ele>545.4000244140625</ele>
        <time>2016-08-12T18:22:46.000Z</time>
        <extensions>
          <ns3:TrackPointExtension>
            <ns3:atemp>18.0</ns3:atemp>
            <ns3:hr>142</ns3:hr>
          </ns3:TrackPointExtension>
        </extensions>
      </trkpt>
      <trkpt lat="-22.10086810402572154998779296875" lon="166.45088293589651584625244140625">
        <ele>545.5999755859375</ele>
        <time>2016-08-12T18:22:47.000Z</time>
        <extensions>
          <ns3:TrackPointExtension>
            <ns3:atemp>18.0</ns3:atemp>
            <ns3:hr>141</ns3:hr>
          </ns3:TrackPointExtension>
        </extensions>
      </trkpt>
      <trkpt lat="-22.100856117904186248779296875" lon="166.45086684264242649078369140625">
        <ele>545.5999755859375</ele>
        <time>2016-08-12T18:22:48.000Z</time>
        <extensions>
          <ns3:TrackPointExtension>
            <ns3:atemp>18.0</ns3:atemp>
            <ns3:hr>141</ns3:hr>
          </ns3:TrackPointExtension>
        </extensions>
      </trkpt>
      <trkpt lat="-22.100841701030731201171875" lon="166.45085074938833713531494140625">
        <ele>545.79998779296875</ele>
        <time>2016-08-12T18:22:49.000Z</time>
        <extensions>
          <ns3:TrackPointExtension>
            <ns3:atemp>18.0</ns3:atemp>
            <ns3:hr>141</ns3:hr>
          </ns3:TrackPointExtension>
        </extensions>
      </trkpt>
      <trkpt lat="-22.1008323132991790771484375" lon="166.45083281211555004119873046875">
        <ele>546</ele>
        <time>2016-08-12T18:22:50.000Z</time>
        <extensions>
          <ns3:TrackPointExtension>
            <ns3:atemp>18.0</ns3:atemp>
            <ns3:hr>141</ns3:hr>
          </ns3:TrackPointExtension>
        </extensions>
      </trkpt>
      <trkpt lat="-22.10081714205443859100341796875" lon="166.4508183114230632781982421875">
        <ele>546</ele>
        <time>2016-08-12T18:22:51.000Z</time>
        <extensions>
          <ns3:TrackPointExtension>
            <ns3:atemp>18.0</ns3:atemp>
            <ns3:hr>142</ns3:hr>
          </ns3:TrackPointExtension>
        </extensions>
      </trkpt>
      <trkpt lat="-22.1008033119142055511474609375" lon="166.450804732739925384521484375">
        <ele>546.20001220703125</ele>
        <time>2016-08-12T18:22:52.000Z</time>
        <extensions>
          <ns3:TrackPointExtension>
            <ns3:atemp>18.0</ns3:atemp>
            <ns3:hr>141</ns3:hr>
          </ns3:TrackPointExtension>
        </extensions>
      </trkpt>
      <trkpt lat="-22.10079199634492397308349609375" lon="166.45078838802874088287353515625">
        <ele>546.4000244140625</ele>
        <time>2016-08-12T18:22:53.000Z</time>
        <extensions>
          <ns3:TrackPointExtension>
            <ns3:atemp>18.0</ns3:atemp>
            <ns3:hr>141</ns3:hr>
          </ns3:TrackPointExtension>
        </extensions>
      </trkpt>
      <trkpt lat="-22.1007788367569446563720703125" lon="166.4507757313549518585205078125">
        <ele>546.5999755859375</ele>
        <time>2016-08-12T18:22:54.000Z</time>
        <extensions>
          <ns3:TrackPointExtension>
            <ns3:atemp>18.0</ns3:atemp>
            <ns3:hr>141</ns3:hr>
          </ns3:TrackPointExtension>
        </extensions>
      </trkpt>
      <trkpt lat="-22.10076349787414073944091796875" lon="166.45076491869986057281494140625">
        <ele>546.79998779296875</ele>
        <time>2016-08-12T18:22:55.000Z</time>
        <extensions>
          <ns3:TrackPointExtension>
            <ns3:atemp>18.0</ns3:atemp>
            <ns3:hr>142</ns3:hr>
          </ns3:TrackPointExtension>
        </extensions>
      </trkpt>
      <trkpt lat="-22.100750170648097991943359375" lon="166.45075209438800811767578125">
        <ele>547</ele>
        <time>2016-08-12T18:22:56.000Z</time>
        <extensions>
          <ns3:TrackPointExtension>
            <ns3:atemp>18.0</ns3:atemp>
            <ns3:hr>141</ns3:hr>
          </ns3:TrackPointExtension>
        </extensions>
      </trkpt>
      <trkpt lat="-22.10073684342205524444580078125" lon="166.4507375098764896392822265625">
        <ele>547.4000244140625</ele>
        <time>2016-08-12T18:22:57.000Z</time>
        <extensions>
          <ns3:TrackPointExtension>
            <ns3:atemp>18.0</ns3:atemp>
            <ns3:hr>141</ns3:hr>
          </ns3:TrackPointExtension>
        </extensions>
      </trkpt>
      <trkpt lat="-22.1007191576063632965087890625" lon="166.4507247693836688995361328125">
        <ele>547.5999755859375</ele>
        <time>2016-08-12T18:22:58.000Z</time>
        <extensions>
          <ns3:TrackPointExtension>
            <ns3:atemp>18.0</ns3:atemp>
            <ns3:hr>142</ns3:hr>
          </ns3:TrackPointExtension>
        </extensions>
      </trkpt>
      <trkpt lat="-22.100702561438083648681640625" lon="166.45071261562407016754150390625">
        <ele>547.4000244140625</ele>
        <time>2016-08-12T18:22:59.000Z</time>
        <extensions>
          <ns3:TrackPointExtension>
            <ns3:atemp>18.0</ns3:atemp>
            <ns3:hr>141</ns3:hr>
          </ns3:TrackPointExtension>
        </extensions>
      </trkpt>
      <trkpt lat="-22.10068680346012115478515625" lon="166.4506969414651393890380859375">
        <ele>547.4000244140625</ele>
        <time>2016-08-12T18:23:00.000Z</time>
        <extensions>
          <ns3:TrackPointExtension>
            <ns3:atemp>18.0</ns3:atemp>
            <ns3:hr>141</ns3:hr>
          </ns3:TrackPointExtension>
        </extensions>
      </trkpt>
      <trkpt lat="-22.1006686985492706298828125" lon="166.4506848715245723724365234375">
        <ele>547.5999755859375</ele>
        <time>2016-08-12T18:23:01.000Z</time>
        <extensions>
          <ns3:TrackPointExtension>
            <ns3:atemp>18.0</ns3:atemp>
            <ns3:hr>142</ns3:hr>
          </ns3:TrackPointExtension>
        </extensions>
      </trkpt>
      <trkpt lat="-22.1006477437913417816162109375" lon="166.45067573525011539459228515625">
        <ele>547.5999755859375</ele>
        <time>2016-08-12T18:23:02.000Z</time>
        <extensions>
          <ns3:TrackPointExtension>
            <ns3:atemp>18.0</ns3:atemp>
            <ns3:hr>141</ns3:hr>
          </ns3:TrackPointExtension>
        </extensions>
      </trkpt>
      <trkpt lat="-22.1006319858133792877197265625" lon="166.45066634751856327056884765625">
        <ele>548</ele>
        <time>2016-08-12T18:23:03.000Z</time>
        <extensions>
          <ns3:TrackPointExtension>
            <ns3:atemp>18.0</ns3:atemp>
            <ns3:hr>141</ns3:hr>
          </ns3:TrackPointExtension>
        </extensions>
      </trkpt>
      <trkpt lat="-22.10061547346413135528564453125" lon="166.4506593905389308929443359375">
        <ele>548.20001220703125</ele>
        <time>2016-08-12T18:23:04.000Z</time>
        <extensions>
          <ns3:TrackPointExtension>
            <ns3:atemp>18.0</ns3:atemp>
            <ns3:hr>141</ns3:hr>
          </ns3:TrackPointExtension>
        </extensions>
      </trkpt>
      <trkpt lat="-22.10059887729585170745849609375" lon="166.45065662451088428497314453125">
        <ele>548.4000244140625</ele>
        <time>2016-08-12T18:23:05.000Z</time>
        <extensions>
          <ns3:TrackPointExtension>
            <ns3:atemp>18.0</ns3:atemp>
            <ns3:hr>141</ns3:hr>
          </ns3:TrackPointExtension>
        </extensions>
      </trkpt>
      <trkpt lat="-22.10058161057531833648681640625" lon="166.45065494813024997711181640625">
        <ele>548.4000244140625</ele>
        <time>2016-08-12T18:23:06.000Z</time>
        <extensions>
          <ns3:TrackPointExtension>
            <ns3:atemp>18.0</ns3:atemp>
            <ns3:hr>141</ns3:hr>
          </ns3:TrackPointExtension>
        </extensions>
      </trkpt>
      <trkpt lat="-22.10056434385478496551513671875" lon="166.45065008662641048431396484375">
        <ele>548.5999755859375</ele>
        <time>2016-08-12T18:23:07.000Z</time>
        <extensions>
          <ns3:TrackPointExtension>
            <ns3:atemp>18.0</ns3:atemp>
            <ns3:hr>141</ns3:hr>
          </ns3:TrackPointExtension>
        </extensions>
      </trkpt>
      <trkpt lat="-22.1005498431622982025146484375" lon="166.45064455457031726837158203125">
        <ele>548.5999755859375</ele>
        <time>2016-08-12T18:23:08.000Z</time>
        <extensions>
          <ns3:TrackPointExtension>
            <ns3:atemp>18.0</ns3:atemp>
            <ns3:hr>141</ns3:hr>
          </ns3:TrackPointExtension>
        </extensions>
      </trkpt>
      <trkpt lat="-22.10053366608917713165283203125" lon="166.45064187236130237579345703125">
        <ele>548.5999755859375</ele>
        <time>2016-08-12T18:23:09.000Z</time>
        <extensions>
          <ns3:TrackPointExtension>
            <ns3:atemp>18.0</ns3:atemp>
            <ns3:hr>140</ns3:hr>
          </ns3:TrackPointExtension>
        </extensions>
      </trkpt>
      <trkpt lat="-22.100514806807041168212890625" lon="166.45063902251422405242919921875">
        <ele>549</ele>
        <time>2016-08-12T18:23:10.000Z</time>
        <extensions>
          <ns3:TrackPointExtension>
            <ns3:atemp>18.0</ns3:atemp>
            <ns3:hr>140</ns3:hr>
          </ns3:TrackPointExtension>
        </extensions>
      </trkpt>
      <trkpt lat="-22.100495360791683197021484375" lon="166.4506416209042072296142578125">
        <ele>549.20001220703125</ele>
        <time>2016-08-12T18:23:11.000Z</time>
        <extensions>
          <ns3:TrackPointExtension>
            <ns3:atemp>18.0</ns3:atemp>
            <ns3:hr>141</ns3:hr>
          </ns3:TrackPointExtension>
        </extensions>
      </trkpt>
      <trkpt lat="-22.10047893226146697998046875" lon="166.4506456442177295684814453125">
        <ele>549.4000244140625</ele>
        <time>2016-08-12T18:23:12.000Z</time>
        <extensions>
          <ns3:TrackPointExtension>
            <ns3:atemp>18.0</ns3:atemp>
            <ns3:hr>141</ns3:hr>
          </ns3:TrackPointExtension>
        </extensions>
      </trkpt>
      <trkpt lat="-22.10046040825545787811279296875" lon="166.450649835169315338134765625">
        <ele>549.5999755859375</ele>
        <time>2016-08-12T18:23:13.000Z</time>
        <extensions>
          <ns3:TrackPointExtension>
            <ns3:atemp>18.0</ns3:atemp>
            <ns3:hr>141</ns3:hr>
          </ns3:TrackPointExtension>
        </extensions>
      </trkpt>
      <trkpt lat="-22.10044414736330509185791015625" lon="166.45065628923475742340087890625">
        <ele>549.79998779296875</ele>
        <time>2016-08-12T18:23:14.000Z</time>
        <extensions>
          <ns3:TrackPointExtension>
            <ns3:atemp>18.0</ns3:atemp>
            <ns3:hr>140</ns3:hr>
          </ns3:TrackPointExtension>
        </extensions>
      </trkpt>
      <trkpt lat="-22.10043140687048435211181640625" lon="166.450666598975658416748046875">
        <ele>550</ele>
        <time>2016-08-12T18:23:15.000Z</time>
        <extensions>
          <ns3:TrackPointExtension>
            <ns3:atemp>18.0</ns3:atemp>
            <ns3:hr>140</ns3:hr>
          </ns3:TrackPointExtension>
        </extensions>
      </trkpt>
      <trkpt lat="-22.10041212849318981170654296875" lon="166.450672633945941925048828125">
        <ele>550.20001220703125</ele>
        <time>2016-08-12T18:23:16.000Z</time>
        <extensions>
          <ns3:TrackPointExtension>
            <ns3:atemp>18.0</ns3:atemp>
            <ns3:hr>141</ns3:hr>
          </ns3:TrackPointExtension>
        </extensions>
      </trkpt>
      <trkpt lat="-22.1003915928304195404052734375" lon="166.45067833364009857177734375">
        <ele>550.20001220703125</ele>
        <time>2016-08-12T18:23:17.000Z</time>
        <extensions>
          <ns3:TrackPointExtension>
            <ns3:atemp>18.0</ns3:atemp>
            <ns3:hr>140</ns3:hr>
          </ns3:TrackPointExtension>
        </extensions>
      </trkpt>
      <trkpt lat="-22.10037407465279102325439453125" lon="166.45068210549652576446533203125">
        <ele>550.20001220703125</ele>
        <time>2016-08-12T18:23:18.000Z</time>
        <extensions>
          <ns3:TrackPointExtension>
            <ns3:atemp>18.0</ns3:atemp>
            <ns3:hr>140</ns3:hr>
          </ns3:TrackPointExtension>
        </extensions>
      </trkpt>
      <trkpt lat="-22.10035697557032108306884765625" lon="166.45068378187716007232666015625">
        <ele>550.20001220703125</ele>
        <time>2016-08-12T18:23:19.000Z</time>
        <extensions>
          <ns3:TrackPointExtension>
            <ns3:atemp>18.0</ns3:atemp>
            <ns3:hr>141</ns3:hr>
          </ns3:TrackPointExtension>
        </extensions>
      </trkpt>
      <trkpt lat="-22.10034356452524662017822265625" lon="166.450684033334255218505859375">
        <ele>550.20001220703125</ele>
        <time>2016-08-12T18:23:20.000Z</time>
        <extensions>
          <ns3:TrackPointExtension>
            <ns3:atemp>18.0</ns3:atemp>
            <ns3:hr>140</ns3:hr>
          </ns3:TrackPointExtension>
        </extensions>
      </trkpt>
      <trkpt lat="-22.10032747127115726470947265625" lon="166.45068026147782802581787109375">
        <ele>550.4000244140625</ele>
        <time>2016-08-12T18:23:21.000Z</time>
        <extensions>
          <ns3:TrackPointExtension>
            <ns3:atemp>18.0</ns3:atemp>
            <ns3:hr>141</ns3:hr>
          </ns3:TrackPointExtension>
        </extensions>
      </trkpt>
      <trkpt lat="-22.1003047563135623931884765625" lon="166.45068227313458919525146484375">
        <ele>550.4000244140625</ele>
        <time>2016-08-12T18:23:22.000Z</time>
        <extensions>
          <ns3:TrackPointExtension>
            <ns3:atemp>18.0</ns3:atemp>
            <ns3:hr>140</ns3:hr>
          </ns3:TrackPointExtension>
        </extensions>
      </trkpt>
      <trkpt lat="-22.1002836339175701141357421875" lon="166.45067824982106685638427734375">
        <ele>550.4000244140625</ele>
        <time>2016-08-12T18:23:23.000Z</time>
        <extensions>
          <ns3:TrackPointExtension>
            <ns3:atemp>18.0</ns3:atemp>
            <ns3:hr>140</ns3:hr>
          </ns3:TrackPointExtension>
        </extensions>
      </trkpt>
      <trkpt lat="-22.10026661865413188934326171875" lon="166.45067104138433933258056640625">
        <ele>550.4000244140625</ele>
        <time>2016-08-12T18:23:24.000Z</time>
        <extensions>
          <ns3:TrackPointExtension>
            <ns3:atemp>18.0</ns3:atemp>
            <ns3:hr>140</ns3:hr>
          </ns3:TrackPointExtension>
        </extensions>
      </trkpt>
      <trkpt lat="-22.10025035776197910308837890625" lon="166.4506627433001995086669921875">
        <ele>550.4000244140625</ele>
        <time>2016-08-12T18:23:25.000Z</time>
        <extensions>
          <ns3:TrackPointExtension>
            <ns3:atemp>18.0</ns3:atemp>
            <ns3:hr>140</ns3:hr>
          </ns3:TrackPointExtension>
        </extensions>
      </trkpt>
      <trkpt lat="-22.100235857069492340087890625" lon="166.45065511576831340789794921875">
        <ele>550.5999755859375</ele>
        <time>2016-08-12T18:23:26.000Z</time>
        <extensions>
          <ns3:TrackPointExtension>
            <ns3:atemp>18.0</ns3:atemp>
            <ns3:hr>140</ns3:hr>
          </ns3:TrackPointExtension>
        </extensions>
      </trkpt>
      <trkpt lat="-22.1002207696437835693359375" lon="166.4506494998931884765625">
        <ele>551</ele>
        <time>2016-08-12T18:23:27.000Z</time>
        <extensions>
          <ns3:TrackPointExtension>
            <ns3:atemp>18.0</ns3:atemp>
            <ns3:hr>140</ns3:hr>
          </ns3:TrackPointExtension>
        </extensions>
      </trkpt>
      <trkpt lat="-22.10020576603710651397705078125" lon="166.45064522512257099151611328125">
        <ele>551</ele>
        <time>2016-08-12T18:23:28.000Z</time>
        <extensions>
          <ns3:TrackPointExtension>
            <ns3:atemp>18.0</ns3:atemp>
            <ns3:hr>140</ns3:hr>
          </ns3:TrackPointExtension>
        </extensions>
      </trkpt>
      <trkpt lat="-22.1001910977065563201904296875" lon="166.4506422914564609527587890625">
        <ele>551</ele>
        <time>2016-08-12T18:23:29.000Z</time>
        <extensions>
          <ns3:TrackPointExtension>
            <ns3:atemp>18.0</ns3:atemp>
            <ns3:hr>140</ns3:hr>
          </ns3:TrackPointExtension>
        </extensions>
      </trkpt>
      <trkpt lat="-22.1001763455569744110107421875" lon="166.4506399445235729217529296875">
        <ele>551</ele>
        <time>2016-08-12T18:23:30.000Z</time>
        <extensions>
          <ns3:TrackPointExtension>
            <ns3:atemp>18.0</ns3:atemp>
            <ns3:hr>139</ns3:hr>
          </ns3:TrackPointExtension>
        </extensions>
      </trkpt>
      <trkpt lat="-22.10016067139804363250732421875" lon="166.45063164643943309783935546875">
        <ele>551</ele>
        <time>2016-08-12T18:23:31.000Z</time>
        <extensions>
          <ns3:TrackPointExtension>
            <ns3:atemp>18.0</ns3:atemp>
            <ns3:hr>139</ns3:hr>
          </ns3:TrackPointExtension>
        </extensions>
      </trkpt>
      <trkpt lat="-22.100142650306224822998046875" lon="166.45062829367816448211669921875">
        <ele>551</ele>
        <time>2016-08-12T18:23:32.000Z</time>
        <extensions>
          <ns3:TrackPointExtension>
            <ns3:atemp>18.0</ns3:atemp>
            <ns3:hr>139</ns3:hr>
          </ns3:TrackPointExtension>
        </extensions>
      </trkpt>
      <trkpt lat="-22.100127227604389190673828125" lon="166.45062242634594440460205078125">
        <ele>551.20001220703125</ele>
        <time>2016-08-12T18:23:33.000Z</time>
        <extensions>
          <ns3:TrackPointExtension>
            <ns3:atemp>18.0</ns3:atemp>
            <ns3:hr>139</ns3:hr>
          </ns3:TrackPointExtension>
        </extensions>
      </trkpt>
      <trkpt lat="-22.10011004470288753509521484375" lon="166.450614966452121734619140625">
        <ele>551.20001220703125</ele>
        <time>2016-08-12T18:23:34.000Z</time>
        <extensions>
          <ns3:TrackPointExtension>
            <ns3:atemp>18.0</ns3:atemp>
            <ns3:hr>139</ns3:hr>
          </ns3:TrackPointExtension>
        </extensions>
      </trkpt>
      <trkpt lat="-22.100092358887195587158203125" lon="166.45061018876731395721435546875">
        <ele>551.20001220703125</ele>
        <time>2016-08-12T18:23:35.000Z</time>
        <extensions>
          <ns3:TrackPointExtension>
            <ns3:atemp>18.0</ns3:atemp>
            <ns3:hr>138</ns3:hr>
          </ns3:TrackPointExtension>
        </extensions>
      </trkpt>
      <trkpt lat="-22.10008355788886547088623046875" lon="166.45060666836798191070556640625">
        <ele>551.4000244140625</ele>
        <time>2016-08-12T18:23:36.000Z</time>
        <extensions>
          <ns3:TrackPointExtension>
            <ns3:atemp>18.0</ns3:atemp>
            <ns3:hr>138</ns3:hr>
          </ns3:TrackPointExtension>
        </extensions>
      </trkpt>
      <trkpt lat="-22.10006914101541042327880859375" lon="166.45060415379703044891357421875">
        <ele>551.5999755859375</ele>
        <time>2016-08-12T18:23:37.000Z</time>
        <extensions>
          <ns3:TrackPointExtension>
            <ns3:atemp>18.0</ns3:atemp>
            <ns3:hr>138</ns3:hr>
          </ns3:TrackPointExtension>
        </extensions>
      </trkpt>
      <trkpt lat="-22.10005187429487705230712890625" lon="166.450600214302539825439453125">
        <ele>552</ele>
        <time>2016-08-12T18:23:38.000Z</time>
        <extensions>
          <ns3:TrackPointExtension>
            <ns3:atemp>18.0</ns3:atemp>
            <ns3:hr>138</ns3:hr>
          </ns3:TrackPointExtension>
        </extensions>
      </trkpt>
      <trkpt lat="-22.10003242827951908111572265625" lon="166.45059694536030292510986328125">
        <ele>552.20001220703125</ele>
        <time>2016-08-12T18:23:39.000Z</time>
        <extensions>
          <ns3:TrackPointExtension>
            <ns3:atemp>18.0</ns3:atemp>
            <ns3:hr>137</ns3:hr>
          </ns3:TrackPointExtension>
        </extensions>
      </trkpt>
      <trkpt lat="-22.100012563169002532958984375" lon="166.450593508780002593994140625">
        <ele>552.5999755859375</ele>
        <time>2016-08-12T18:23:40.000Z</time>
        <extensions>
          <ns3:TrackPointExtension>
            <ns3:atemp>18.0</ns3:atemp>
            <ns3:hr>137</ns3:hr>
          </ns3:TrackPointExtension>
        </extensions>
      </trkpt>
      <trkpt lat="-22.0999909378588199615478515625" lon="166.45059174858033657073974609375">
        <ele>552.5999755859375</ele>
        <time>2016-08-12T18:23:41.000Z</time>
        <extensions>
          <ns3:TrackPointExtension>
            <ns3:atemp>18.0</ns3:atemp>
            <ns3:hr>137</ns3:hr>
          </ns3:TrackPointExtension>
        </extensions>
      </trkpt>
      <trkpt lat="-22.099970988929271697998046875" lon="166.450590156018733978271484375">
        <ele>552.5999755859375</ele>
        <time>2016-08-12T18:23:42.000Z</time>
        <extensions>
          <ns3:TrackPointExtension>
            <ns3:atemp>18.0</ns3:atemp>
            <ns3:hr>137</ns3:hr>
          </ns3:TrackPointExtension>
        </extensions>
      </trkpt>
      <trkpt lat="-22.09995196200907230377197265625" lon="166.45059023983776569366455078125">
        <ele>552.79998779296875</ele>
        <time>2016-08-12T18:23:43.000Z</time>
        <extensions>
          <ns3:TrackPointExtension>
            <ns3:atemp>18.0</ns3:atemp>
            <ns3:hr>137</ns3:hr>
          </ns3:TrackPointExtension>
        </extensions>
      </trkpt>
      <trkpt lat="-22.09993402473628520965576171875" lon="166.45059459842741489410400390625">
        <ele>553</ele>
        <time>2016-08-12T18:23:44.000Z</time>
        <extensions>
          <ns3:TrackPointExtension>
            <ns3:atemp>18.0</ns3:atemp>
            <ns3:hr>137</ns3:hr>
          </ns3:TrackPointExtension>
        </extensions>
      </trkpt>
      <trkpt lat="-22.09991659037768840789794921875" lon="166.4506013877689838409423828125">
        <ele>553.20001220703125</ele>
        <time>2016-08-12T18:23:45.000Z</time>
        <extensions>
          <ns3:TrackPointExtension>
            <ns3:atemp>18.0</ns3:atemp>
            <ns3:hr>137</ns3:hr>
          </ns3:TrackPointExtension>
        </extensions>
      </trkpt>
      <trkpt lat="-22.09989831782877445220947265625" lon="166.45060859620571136474609375">
        <ele>553.4000244140625</ele>
        <time>2016-08-12T18:23:46.000Z</time>
        <extensions>
          <ns3:TrackPointExtension>
            <ns3:atemp>18.0</ns3:atemp>
            <ns3:hr>137</ns3:hr>
          </ns3:TrackPointExtension>
        </extensions>
      </trkpt>
      <trkpt lat="-22.09988222457468509674072265625" lon="166.45061454735696315765380859375">
        <ele>553.4000244140625</ele>
        <time>2016-08-12T18:23:47.000Z</time>
        <extensions>
          <ns3:TrackPointExtension>
            <ns3:atemp>18.0</ns3:atemp>
            <ns3:hr>137</ns3:hr>
          </ns3:TrackPointExtension>
        </extensions>
      </trkpt>
      <trkpt lat="-22.09986344911158084869384765625" lon="166.4506161399185657501220703125">
        <ele>553.5999755859375</ele>
        <time>2016-08-12T18:23:48.000Z</time>
        <extensions>
          <ns3:TrackPointExtension>
            <ns3:atemp>18.0</ns3:atemp>
            <ns3:hr>137</ns3:hr>
          </ns3:TrackPointExtension>
        </extensions>
      </trkpt>
      <trkpt lat="-22.09984802640974521636962890625" lon="166.45062309689819812774658203125">
        <ele>553.79998779296875</ele>
        <time>2016-08-12T18:23:49.000Z</time>
        <extensions>
          <ns3:TrackPointExtension>
            <ns3:atemp>18.0</ns3:atemp>
            <ns3:hr>137</ns3:hr>
          </ns3:TrackPointExtension>
        </extensions>
      </trkpt>
      <trkpt lat="-22.09981936030089855194091796875" lon="166.45062628202140331268310546875">
        <ele>553.79998779296875</ele>
        <time>2016-08-12T18:23:50.000Z</time>
        <extensions>
          <ns3:TrackPointExtension>
            <ns3:atemp>18.0</ns3:atemp>
            <ns3:hr>137</ns3:hr>
          </ns3:TrackPointExtension>
        </extensions>
      </trkpt>
      <trkpt lat="-22.09979773499071598052978515625" lon="166.45063717849552631378173828125">
        <ele>553.79998779296875</ele>
        <time>2016-08-12T18:23:51.000Z</time>
        <extensions>
          <ns3:TrackPointExtension>
            <ns3:atemp>18.0</ns3:atemp>
            <ns3:hr>137</ns3:hr>
          </ns3:TrackPointExtension>
        </extensions>
      </trkpt>
      <trkpt lat="-22.09977728314697742462158203125" lon="166.4506459794938564300537109375">
        <ele>553.5999755859375</ele>
        <time>2016-08-12T18:23:52.000Z</time>
        <extensions>
          <ns3:TrackPointExtension>
            <ns3:atemp>18.0</ns3:atemp>
            <ns3:hr>137</ns3:hr>
          </ns3:TrackPointExtension>
        </extensions>
      </trkpt>
      <trkpt lat="-22.099760435521602630615234375" lon="166.45065553486347198486328125">
        <ele>553.79998779296875</ele>
        <time>2016-08-12T18:23:53.000Z</time>
        <extensions>
          <ns3:TrackPointExtension>
            <ns3:atemp>18.0</ns3:atemp>
            <ns3:hr>137</ns3:hr>
          </ns3:TrackPointExtension>
        </extensions>
      </trkpt>
      <trkpt lat="-22.0997433364391326904296875" lon="166.4506671018898487091064453125">
        <ele>554</ele>
        <time>2016-08-12T18:23:54.000Z</time>
        <extensions>
          <ns3:TrackPointExtension>
            <ns3:atemp>18.0</ns3:atemp>
            <ns3:hr>137</ns3:hr>
          </ns3:TrackPointExtension>
        </extensions>
      </trkpt>
      <trkpt lat="-22.099731266498565673828125" lon="166.450676657259464263916015625">
        <ele>554.20001220703125</ele>
        <time>2016-08-12T18:23:55.000Z</time>
        <extensions>
          <ns3:TrackPointExtension>
            <ns3:atemp>18.0</ns3:atemp>
            <ns3:hr>137</ns3:hr>
          </ns3:TrackPointExtension>
        </extensions>
      </trkpt>
      <trkpt lat="-22.09971995092928409576416015625" lon="166.45068772137165069580078125">
        <ele>554.4000244140625</ele>
        <time>2016-08-12T18:23:56.000Z</time>
        <extensions>
          <ns3:TrackPointExtension>
            <ns3:atemp>18.0</ns3:atemp>
            <ns3:hr>138</ns3:hr>
          </ns3:TrackPointExtension>
        </extensions>
      </trkpt>
      <trkpt lat="-22.0997086353600025177001953125" lon="166.4506969414651393890380859375">
        <ele>554.4000244140625</ele>
        <time>2016-08-12T18:23:57.000Z</time>
        <extensions>
          <ns3:TrackPointExtension>
            <ns3:atemp>18.0</ns3:atemp>
            <ns3:hr>138</ns3:hr>
          </ns3:TrackPointExtension>
        </extensions>
      </trkpt>
      <trkpt lat="-22.09968709386885166168212890625" lon="166.4507090114057064056396484375">
        <ele>554.4000244140625</ele>
        <time>2016-08-12T18:23:58.000Z</time>
        <extensions>
          <ns3:TrackPointExtension>
            <ns3:atemp>18.0</ns3:atemp>
            <ns3:hr>137</ns3:hr>
          </ns3:TrackPointExtension>
        </extensions>
      </trkpt>
      <trkpt lat="-22.0996684022247791290283203125" lon="166.45071730948984622955322265625">
        <ele>554.5999755859375</ele>
        <time>2016-08-12T18:23:59.000Z</time>
        <extensions>
          <ns3:TrackPointExtension>
            <ns3:atemp>18.0</ns3:atemp>
            <ns3:hr>138</ns3:hr>
          </ns3:TrackPointExtension>
        </extensions>
      </trkpt>
      <trkpt lat="-22.09964836947619915008544921875" lon="166.45072661340236663818359375">
        <ele>554.5999755859375</ele>
        <time>2016-08-12T18:24:00.000Z</time>
        <extensions>
          <ns3:TrackPointExtension>
            <ns3:atemp>18.0</ns3:atemp>
            <ns3:hr>138</ns3:hr>
          </ns3:TrackPointExtension>
        </extensions>
      </trkpt>
      <trkpt lat="-22.0996318571269512176513671875" lon="166.45073507912456989288330078125">
        <ele>554.79998779296875</ele>
        <time>2016-08-12T18:24:01.000Z</time>
        <extensions>
          <ns3:TrackPointExtension>
            <ns3:atemp>18.0</ns3:atemp>
            <ns3:hr>138</ns3:hr>
          </ns3:TrackPointExtension>
        </extensions>
      </trkpt>
      <trkpt lat="-22.09962196648120880126953125" lon="166.4507428742945194244384765625">
        <ele>555</ele>
        <time>2016-08-12T18:24:02.000Z</time>
        <extensions>
          <ns3:TrackPointExtension>
            <ns3:atemp>18.0</ns3:atemp>
            <ns3:hr>138</ns3:hr>
          </ns3:TrackPointExtension>
        </extensions>
      </trkpt>
      <trkpt lat="-22.09960629232227802276611328125" lon="166.45075217820703983306884765625">
        <ele>555</ele>
        <time>2016-08-12T18:24:03.000Z</time>
        <extensions>
          <ns3:TrackPointExtension>
            <ns3:atemp>18.0</ns3:atemp>
            <ns3:hr>138</ns3:hr>
          </ns3:TrackPointExtension>
        </extensions>
      </trkpt>
      <trkpt lat="-22.09959019906818866729736328125" lon="166.45076257176697254180908203125">
        <ele>555</ele>
        <time>2016-08-12T18:24:04.000Z</time>
        <extensions>
          <ns3:TrackPointExtension>
            <ns3:atemp>18.0</ns3:atemp>
            <ns3:hr>138</ns3:hr>
          </ns3:TrackPointExtension>
        </extensions>
      </trkpt>
      <trkpt lat="-22.09957729093730449676513671875" lon="166.45077221095561981201171875">
        <ele>555</ele>
        <time>2016-08-12T18:24:05.000Z</time>
        <extensions>
          <ns3:TrackPointExtension>
            <ns3:atemp>18.0</ns3:atemp>
            <ns3:hr>138</ns3:hr>
          </ns3:TrackPointExtension>
        </extensions>
      </trkpt>
      <trkpt lat="-22.09956186823546886444091796875" lon="166.4507821016013622283935546875">
        <ele>555</ele>
        <time>2016-08-12T18:24:06.000Z</time>
        <extensions>
          <ns3:TrackPointExtension>
            <ns3:atemp>18.0</ns3:atemp>
            <ns3:hr>138</ns3:hr>
          </ns3:TrackPointExtension>
        </extensions>
      </trkpt>
      <trkpt lat="-22.09954946301877498626708984375" lon="166.45079006440937519073486328125">
        <ele>555</ele>
        <time>2016-08-12T18:24:07.000Z</time>
        <extensions>
          <ns3:TrackPointExtension>
            <ns3:atemp>18.0</ns3:atemp>
            <ns3:hr>138</ns3:hr>
          </ns3:TrackPointExtension>
        </extensions>
      </trkpt>
      <trkpt lat="-22.09953689016401767730712890625" lon="166.450798697769641876220703125">
        <ele>555.20001220703125</ele>
        <time>2016-08-12T18:24:08.000Z</time>
        <extensions>
          <ns3:TrackPointExtension>
            <ns3:atemp>18.0</ns3:atemp>
            <ns3:hr>138</ns3:hr>
          </ns3:TrackPointExtension>
        </extensions>
      </trkpt>
      <trkpt lat="-22.099519707262516021728515625" lon="166.45080707967281341552734375">
        <ele>555.20001220703125</ele>
        <time>2016-08-12T18:24:09.000Z</time>
        <extensions>
          <ns3:TrackPointExtension>
            <ns3:atemp>18.0</ns3:atemp>
            <ns3:hr>138</ns3:hr>
          </ns3:TrackPointExtension>
        </extensions>
      </trkpt>
      <trkpt lat="-22.0995064638555049896240234375" lon="166.4508144557476043701171875">
        <ele>555.4000244140625</ele>
        <time>2016-08-12T18:24:10.000Z</time>
        <extensions>
          <ns3:TrackPointExtension>
            <ns3:atemp>17.0</ns3:atemp>
            <ns3:hr>137</ns3:hr>
          </ns3:TrackPointExtension>
        </extensions>
      </trkpt>
      <trkpt lat="-22.09949363954365253448486328125" lon="166.4508233405649662017822265625">
        <ele>555.4000244140625</ele>
        <time>2016-08-12T18:24:11.000Z</time>
        <extensions>
          <ns3:TrackPointExtension>
            <ns3:atemp>17.0</ns3:atemp>
            <ns3:hr>138</ns3:hr>
          </ns3:TrackPointExtension>
        </extensions>
      </trkpt>
      <trkpt lat="-22.09948492236435413360595703125" lon="166.45083398558199405670166015625">
        <ele>555.5999755859375</ele>
        <time>2016-08-12T18:24:12.000Z</time>
        <extensions>
          <ns3:TrackPointExtension>
            <ns3:atemp>17.0</ns3:atemp>
            <ns3:hr>138</ns3:hr>
          </ns3:TrackPointExtension>
        </extensions>
      </trkpt>
      <trkpt lat="-22.09947444498538970947265625" lon="166.45084303803741931915283203125">
        <ele>555.5999755859375</ele>
        <time>2016-08-12T18:24:13.000Z</time>
        <extensions>
          <ns3:TrackPointExtension>
            <ns3:atemp>17.0</ns3:atemp>
            <ns3:hr>137</ns3:hr>
          </ns3:TrackPointExtension>
        </extensions>
      </trkpt>
      <trkpt lat="-22.099462039768695831298828125" lon="166.45085670053958892822265625">
        <ele>555.79998779296875</ele>
        <time>2016-08-12T18:24:14.000Z</time>
        <extensions>
          <ns3:TrackPointExtension>
            <ns3:atemp>17.0</ns3:atemp>
            <ns3:hr>137</ns3:hr>
          </ns3:TrackPointExtension>
        </extensions>
      </trkpt>
      <trkpt lat="-22.09944955073297023773193359375" lon="166.45086935721337795257568359375">
        <ele>555.79998779296875</ele>
        <time>2016-08-12T18:24:15.000Z</time>
        <extensions>
          <ns3:TrackPointExtension>
            <ns3:atemp>17.0</ns3:atemp>
            <ns3:hr>137</ns3:hr>
          </ns3:TrackPointExtension>
        </extensions>
      </trkpt>
      <trkpt lat="-22.09943848662078380584716796875" lon="166.4508800022304058074951171875">
        <ele>556</ele>
        <time>2016-08-12T18:24:16.000Z</time>
        <extensions>
          <ns3:TrackPointExtension>
            <ns3:atemp>17.0</ns3:atemp>
            <ns3:hr>138</ns3:hr>
          </ns3:TrackPointExtension>
        </extensions>
      </trkpt>
      <trkpt lat="-22.09942541085183620452880859375" lon="166.4508895576000213623046875">
        <ele>556.20001220703125</ele>
        <time>2016-08-12T18:24:17.000Z</time>
        <extensions>
          <ns3:TrackPointExtension>
            <ns3:atemp>17.0</ns3:atemp>
            <ns3:hr>138</ns3:hr>
          </ns3:TrackPointExtension>
        </extensions>
      </trkpt>
      <trkpt lat="-22.0994122512638568878173828125" lon="166.4508976042270660400390625">
        <ele>556.4000244140625</ele>
        <time>2016-08-12T18:24:18.000Z</time>
        <extensions>
          <ns3:TrackPointExtension>
            <ns3:atemp>17.0</ns3:atemp>
            <ns3:hr>138</ns3:hr>
          </ns3:TrackPointExtension>
        </extensions>
      </trkpt>
      <trkpt lat="-22.0993917994201183319091796875" lon="166.45090724341571331024169921875">
        <ele>556.5999755859375</ele>
        <time>2016-08-12T18:24:19.000Z</time>
        <extensions>
          <ns3:TrackPointExtension>
            <ns3:atemp>17.0</ns3:atemp>
            <ns3:hr>138</ns3:hr>
          </ns3:TrackPointExtension>
        </extensions>
      </trkpt>
      <trkpt lat="-22.0993730239570140838623046875" lon="166.45091478712856769561767578125">
        <ele>556.5999755859375</ele>
        <time>2016-08-12T18:24:20.000Z</time>
        <extensions>
          <ns3:TrackPointExtension>
            <ns3:atemp>17.0</ns3:atemp>
            <ns3:hr>138</ns3:hr>
          </ns3:TrackPointExtension>
        </extensions>
      </trkpt>
      <trkpt lat="-22.09935600869357585906982421875" lon="166.45091964863240718841552734375">
        <ele>556.79998779296875</ele>
        <time>2016-08-12T18:24:21.000Z</time>
        <extensions>
          <ns3:TrackPointExtension>
            <ns3:atemp>17.0</ns3:atemp>
            <ns3:hr>138</ns3:hr>
          </ns3:TrackPointExtension>
        </extensions>
      </trkpt>
      <trkpt lat="-22.0993398316204547882080078125" lon="166.4509269408881664276123046875">
        <ele>556.79998779296875</ele>
        <time>2016-08-12T18:24:22.000Z</time>
        <extensions>
          <ns3:TrackPointExtension>
            <ns3:atemp>17.0</ns3:atemp>
            <ns3:hr>139</ns3:hr>
          </ns3:TrackPointExtension>
        </extensions>
      </trkpt>
      <trkpt lat="-22.0993180386722087860107421875" lon="166.4509323053061962127685546875">
        <ele>556.79998779296875</ele>
        <time>2016-08-12T18:24:23.000Z</time>
        <extensions>
          <ns3:TrackPointExtension>
            <ns3:atemp>17.0</ns3:atemp>
            <ns3:hr>139</ns3:hr>
          </ns3:TrackPointExtension>
        </extensions>
      </trkpt>
      <trkpt lat="-22.0992955751717090606689453125" lon="166.45093691535294055938720703125">
        <ele>557</ele>
        <time>2016-08-12T18:24:24.000Z</time>
        <extensions>
          <ns3:TrackPointExtension>
            <ns3:atemp>17.0</ns3:atemp>
            <ns3:hr>139</ns3:hr>
          </ns3:TrackPointExtension>
        </extensions>
      </trkpt>
      <trkpt lat="-22.099276296794414520263671875" lon="166.45094362087547779083251953125">
        <ele>557.20001220703125</ele>
        <time>2016-08-12T18:24:25.000Z</time>
        <extensions>
          <ns3:TrackPointExtension>
            <ns3:atemp>17.0</ns3:atemp>
            <ns3:hr>139</ns3:hr>
          </ns3:TrackPointExtension>
        </extensions>
      </trkpt>
      <trkpt lat="-22.09925609640777111053466796875" lon="166.45095066167414188385009765625">
        <ele>557.4000244140625</ele>
        <time>2016-08-12T18:24:26.000Z</time>
        <extensions>
          <ns3:TrackPointExtension>
            <ns3:atemp>17.0</ns3:atemp>
            <ns3:hr>139</ns3:hr>
          </ns3:TrackPointExtension>
        </extensions>
      </trkpt>
      <trkpt lat="-22.099236734211444854736328125" lon="166.4509564451873302459716796875">
        <ele>557.5999755859375</ele>
        <time>2016-08-12T18:24:27.000Z</time>
        <extensions>
          <ns3:TrackPointExtension>
            <ns3:atemp>17.0</ns3:atemp>
            <ns3:hr>138</ns3:hr>
          </ns3:TrackPointExtension>
        </extensions>
      </trkpt>
      <trkpt lat="-22.099217288196086883544921875" lon="166.4509601332247257232666015625">
        <ele>557.5999755859375</ele>
        <time>2016-08-12T18:24:28.000Z</time>
        <extensions>
          <ns3:TrackPointExtension>
            <ns3:atemp>17.0</ns3:atemp>
            <ns3:hr>139</ns3:hr>
          </ns3:TrackPointExtension>
        </extensions>
      </trkpt>
      <trkpt lat="-22.0991988480091094970703125" lon="166.4509614743292331695556640625">
        <ele>557.79998779296875</ele>
        <time>2016-08-12T18:24:29.000Z</time>
        <extensions>
          <ns3:TrackPointExtension>
            <ns3:atemp>17.0</ns3:atemp>
            <ns3:hr>138</ns3:hr>
          </ns3:TrackPointExtension>
        </extensions>
      </trkpt>
      <trkpt lat="-22.09918283857405185699462890625" lon="166.45096264779567718505859375">
        <ele>557.79998779296875</ele>
        <time>2016-08-12T18:24:30.000Z</time>
        <extensions>
          <ns3:TrackPointExtension>
            <ns3:atemp>17.0</ns3:atemp>
            <ns3:hr>138</ns3:hr>
          </ns3:TrackPointExtension>
        </extensions>
      </trkpt>
      <trkpt lat="-22.0991666615009307861328125" lon="166.4509654976427555084228515625">
        <ele>558</ele>
        <time>2016-08-12T18:24:31.000Z</time>
        <extensions>
          <ns3:TrackPointExtension>
            <ns3:atemp>17.0</ns3:atemp>
            <ns3:hr>139</ns3:hr>
          </ns3:TrackPointExtension>
        </extensions>
      </trkpt>
      <trkpt lat="-22.099150232970714569091796875" lon="166.45096759311854839324951171875">
        <ele>558.20001220703125</ele>
        <time>2016-08-12T18:24:32.000Z</time>
        <extensions>
          <ns3:TrackPointExtension>
            <ns3:atemp>17.0</ns3:atemp>
            <ns3:hr>139</ns3:hr>
          </ns3:TrackPointExtension>
        </extensions>
      </trkpt>
      <trkpt lat="-22.0991326309740543365478515625" lon="166.4509673416614532470703125">
        <ele>558.4000244140625</ele>
        <time>2016-08-12T18:24:33.000Z</time>
        <extensions>
          <ns3:TrackPointExtension>
            <ns3:atemp>17.0</ns3:atemp>
            <ns3:hr>139</ns3:hr>
          </ns3:TrackPointExtension>
        </extensions>
      </trkpt>
      <trkpt lat="-22.09911276586353778839111328125" lon="166.45096859894692897796630859375">
        <ele>558.5999755859375</ele>
        <time>2016-08-12T18:24:34.000Z</time>
        <extensions>
          <ns3:TrackPointExtension>
            <ns3:atemp>17.0</ns3:atemp>
            <ns3:hr>139</ns3:hr>
          </ns3:TrackPointExtension>
        </extensions>
      </trkpt>
      <trkpt lat="-22.09909566678106784820556640625" lon="166.45097144879400730133056640625">
        <ele>558.5999755859375</ele>
        <time>2016-08-12T18:24:35.000Z</time>
        <extensions>
          <ns3:TrackPointExtension>
            <ns3:atemp>17.0</ns3:atemp>
            <ns3:hr>139</ns3:hr>
          </ns3:TrackPointExtension>
        </extensions>
      </trkpt>
      <trkpt lat="-22.099077142775058746337890625" lon="166.45097597502171993255615234375">
        <ele>558.5999755859375</ele>
        <time>2016-08-12T18:24:36.000Z</time>
        <extensions>
          <ns3:TrackPointExtension>
            <ns3:atemp>17.0</ns3:atemp>
            <ns3:hr>139</ns3:hr>
          </ns3:TrackPointExtension>
        </extensions>
      </trkpt>
      <trkpt lat="-22.0990555174648761749267578125" lon="166.45098301582038402557373046875">
        <ele>558.79998779296875</ele>
        <time>2016-08-12T18:24:37.000Z</time>
        <extensions>
          <ns3:TrackPointExtension>
            <ns3:atemp>17.0</ns3:atemp>
            <ns3:hr>139</ns3:hr>
          </ns3:TrackPointExtension>
        </extensions>
      </trkpt>
      <trkpt lat="-22.09903858602046966552734375" lon="166.45098754204809665679931640625">
        <ele>559</ele>
        <time>2016-08-12T18:24:38.000Z</time>
        <extensions>
          <ns3:TrackPointExtension>
            <ns3:atemp>17.0</ns3:atemp>
            <ns3:hr>139</ns3:hr>
          </ns3:TrackPointExtension>
        </extensions>
      </trkpt>
      <trkpt lat="-22.099020481109619140625" lon="166.450989134609699249267578125">
        <ele>559.20001220703125</ele>
        <time>2016-08-12T18:24:39.000Z</time>
        <extensions>
          <ns3:TrackPointExtension>
            <ns3:atemp>17.0</ns3:atemp>
            <ns3:hr>139</ns3:hr>
          </ns3:TrackPointExtension>
        </extensions>
      </trkpt>
      <trkpt lat="-22.09900497458875179290771484375" lon="166.450995504856109619140625">
        <ele>559.4000244140625</ele>
        <time>2016-08-12T18:24:40.000Z</time>
        <extensions>
          <ns3:TrackPointExtension>
            <ns3:atemp>17.0</ns3:atemp>
            <ns3:hr>140</ns3:hr>
          </ns3:TrackPointExtension>
        </extensions>
      </trkpt>
      <trkpt lat="-22.0989874564111232757568359375" lon="166.4510023780167102813720703125">
        <ele>559.4000244140625</ele>
        <time>2016-08-12T18:24:41.000Z</time>
        <extensions>
          <ns3:TrackPointExtension>
            <ns3:atemp>17.0</ns3:atemp>
            <ns3:hr>140</ns3:hr>
          </ns3:TrackPointExtension>
        </extensions>
      </trkpt>
      <trkpt lat="-22.09897060878574848175048828125" lon="166.45100816152989864349365234375">
        <ele>559.5999755859375</ele>
        <time>2016-08-12T18:24:42.000Z</time>
        <extensions>
          <ns3:TrackPointExtension>
            <ns3:atemp>17.0</ns3:atemp>
            <ns3:hr>139</ns3:hr>
          </ns3:TrackPointExtension>
        </extensions>
      </trkpt>
      <trkpt lat="-22.09895635955035686492919921875" lon="166.4510142803192138671875">
        <ele>559.79998779296875</ele>
        <time>2016-08-12T18:24:43.000Z</time>
        <extensions>
          <ns3:TrackPointExtension>
            <ns3:atemp>17.0</ns3:atemp>
            <ns3:hr>140</ns3:hr>
          </ns3:TrackPointExtension>
        </extensions>
      </trkpt>
      <trkpt lat="-22.09894630126655101776123046875" lon="166.45102408714592456817626953125">
        <ele>560</ele>
        <time>2016-08-12T18:24:44.000Z</time>
        <extensions>
          <ns3:TrackPointExtension>
            <ns3:atemp>17.0</ns3:atemp>
            <ns3:hr>140</ns3:hr>
          </ns3:TrackPointExtension>
        </extensions>
      </trkpt>
      <trkpt lat="-22.0989291183650493621826171875" lon="166.45102844573557376861572265625">
        <ele>560.20001220703125</ele>
        <time>2016-08-12T18:24:45.000Z</time>
        <extensions>
          <ns3:TrackPointExtension>
            <ns3:atemp>17.0</ns3:atemp>
            <ns3:hr>140</ns3:hr>
          </ns3:TrackPointExtension>
        </extensions>
      </trkpt>
      <trkpt lat="-22.0989133603870868682861328125" lon="166.45104051567614078521728515625">
        <ele>560.5999755859375</ele>
        <time>2016-08-12T18:24:46.000Z</time>
        <extensions>
          <ns3:TrackPointExtension>
            <ns3:atemp>17.0</ns3:atemp>
            <ns3:hr>140</ns3:hr>
          </ns3:TrackPointExtension>
        </extensions>
      </trkpt>
      <trkpt lat="-22.0988952554762363433837890625" lon="166.45105141215026378631591796875">
        <ele>560.79998779296875</ele>
        <time>2016-08-12T18:24:47.000Z</time>
        <extensions>
          <ns3:TrackPointExtension>
            <ns3:atemp>17.0</ns3:atemp>
            <ns3:hr>140</ns3:hr>
          </ns3:TrackPointExtension>
        </extensions>
      </trkpt>
      <trkpt lat="-22.09887689910829067230224609375" lon="166.45106633193790912628173828125">
        <ele>561</ele>
        <time>2016-08-12T18:24:48.000Z</time>
        <extensions>
          <ns3:TrackPointExtension>
            <ns3:atemp>17.0</ns3:atemp>
            <ns3:hr>140</ns3:hr>
          </ns3:TrackPointExtension>
        </extensions>
      </trkpt>
      <trkpt lat="-22.0988620631396770477294921875" lon="166.4510791562497615814208984375">
        <ele>561.4000244140625</ele>
        <time>2016-08-12T18:24:49.000Z</time>
        <extensions>
          <ns3:TrackPointExtension>
            <ns3:atemp>17.0</ns3:atemp>
            <ns3:hr>141</ns3:hr>
          </ns3:TrackPointExtension>
        </extensions>
      </trkpt>
      <trkpt lat="-22.0988523401319980621337890625" lon="166.45108996890485286712646484375">
        <ele>561.79998779296875</ele>
        <time>2016-08-12T18:24:50.000Z</time>
        <extensions>
          <ns3:TrackPointExtension>
            <ns3:atemp>17.0</ns3:atemp>
            <ns3:hr>141</ns3:hr>
          </ns3:TrackPointExtension>
        </extensions>
      </trkpt>
      <trkpt lat="-22.098841108381748199462890625" lon="166.4511012844741344451904296875">
        <ele>561.79998779296875</ele>
        <time>2016-08-12T18:24:51.000Z</time>
        <extensions>
          <ns3:TrackPointExtension>
            <ns3:atemp>17.0</ns3:atemp>
            <ns3:hr>141</ns3:hr>
          </ns3:TrackPointExtension>
        </extensions>
      </trkpt>
      <trkpt lat="-22.09882124327123165130615234375" lon="166.451113857328891754150390625">
        <ele>562</ele>
        <time>2016-08-12T18:24:52.000Z</time>
        <extensions>
          <ns3:TrackPointExtension>
            <ns3:atemp>17.0</ns3:atemp>
            <ns3:hr>141</ns3:hr>
          </ns3:TrackPointExtension>
        </extensions>
      </trkpt>
      <trkpt lat="-22.0988013781607151031494140625" lon="166.451124586164951324462890625">
        <ele>562</ele>
        <time>2016-08-12T18:24:53.000Z</time>
        <extensions>
          <ns3:TrackPointExtension>
            <ns3:atemp>17.0</ns3:atemp>
            <ns3:hr>141</ns3:hr>
          </ns3:TrackPointExtension>
        </extensions>
      </trkpt>
      <trkpt lat="-22.09878872148692607879638671875" lon="166.45113254897296428680419921875">
        <ele>562</ele>
        <time>2016-08-12T18:24:54.000Z</time>
        <extensions>
          <ns3:TrackPointExtension>
            <ns3:atemp>17.0</ns3:atemp>
            <ns3:hr>141</ns3:hr>
          </ns3:TrackPointExtension>
        </extensions>
      </trkpt>
      <trkpt lat="-22.098770700395107269287109375" lon="166.45114243961870670318603515625">
        <ele>562</ele>
        <time>2016-08-12T18:24:55.000Z</time>
        <extensions>
          <ns3:TrackPointExtension>
            <ns3:atemp>17.0</ns3:atemp>
            <ns3:hr>141</ns3:hr>
          </ns3:TrackPointExtension>
        </extensions>
      </trkpt>
      <trkpt lat="-22.0987504161894321441650390625" lon="166.4511522464454174041748046875">
        <ele>562</ele>
        <time>2016-08-12T18:24:56.000Z</time>
        <extensions>
          <ns3:TrackPointExtension>
            <ns3:atemp>17.0</ns3:atemp>
            <ns3:hr>141</ns3:hr>
          </ns3:TrackPointExtension>
        </extensions>
      </trkpt>
      <trkpt lat="-22.0987245999276638031005859375" lon="166.45115635357797145843505859375">
        <ele>562</ele>
        <time>2016-08-12T18:24:57.000Z</time>
        <extensions>
          <ns3:TrackPointExtension>
            <ns3:atemp>17.0</ns3:atemp>
            <ns3:hr>141</ns3:hr>
          </ns3:TrackPointExtension>
        </extensions>
      </trkpt>
      <trkpt lat="-22.0987053215503692626953125" lon="166.45116381347179412841796875">
        <ele>562.20001220703125</ele>
        <time>2016-08-12T18:24:58.000Z</time>
        <extensions>
          <ns3:TrackPointExtension>
            <ns3:atemp>17.0</ns3:atemp>
            <ns3:hr>140</ns3:hr>
          </ns3:TrackPointExtension>
        </extensions>
      </trkpt>
      <trkpt lat="-22.09867975674569606781005859375" lon="166.45117512904107570648193359375">
        <ele>562.20001220703125</ele>
        <time>2016-08-12T18:24:59.000Z</time>
        <extensions>
          <ns3:TrackPointExtension>
            <ns3:atemp>17.0</ns3:atemp>
            <ns3:hr>141</ns3:hr>
          </ns3:TrackPointExtension>
        </extensions>
      </trkpt>
      <trkpt lat="-22.09865829907357692718505859375" lon="166.4511894620954990386962890625">
        <ele>562.20001220703125</ele>
        <time>2016-08-12T18:25:00.000Z</time>
        <extensions>
          <ns3:TrackPointExtension>
            <ns3:atemp>17.0</ns3:atemp>
            <ns3:hr>141</ns3:hr>
          </ns3:TrackPointExtension>
        </extensions>
      </trkpt>
      <trkpt lat="-22.098633237183094024658203125" lon="166.4512038789689540863037109375">
        <ele>562.20001220703125</ele>
        <time>2016-08-12T18:25:01.000Z</time>
        <extensions>
          <ns3:TrackPointExtension>
            <ns3:atemp>17.0</ns3:atemp>
            <ns3:hr>140</ns3:hr>
          </ns3:TrackPointExtension>
        </extensions>
      </trkpt>
      <trkpt lat="-22.09861278533935546875" lon="166.451216451823711395263671875">
        <ele>562</ele>
        <time>2016-08-12T18:25:02.000Z</time>
        <extensions>
          <ns3:TrackPointExtension>
            <ns3:atemp>17.0</ns3:atemp>
            <ns3:hr>140</ns3:hr>
          </ns3:TrackPointExtension>
        </extensions>
      </trkpt>
      <trkpt lat="-22.09859392605721950531005859375" lon="166.45122944377362728118896484375">
        <ele>562.4000244140625</ele>
        <time>2016-08-12T18:25:03.000Z</time>
        <extensions>
          <ns3:TrackPointExtension>
            <ns3:atemp>17.0</ns3:atemp>
            <ns3:hr>140</ns3:hr>
          </ns3:TrackPointExtension>
        </extensions>
      </trkpt>
      <trkpt lat="-22.09858034737408161163330078125" lon="166.45124285481870174407958984375">
        <ele>562.5999755859375</ele>
        <time>2016-08-12T18:25:04.000Z</time>
        <extensions>
          <ns3:TrackPointExtension>
            <ns3:atemp>17.0</ns3:atemp>
            <ns3:hr>139</ns3:hr>
          </ns3:TrackPointExtension>
        </extensions>
      </trkpt>
      <trkpt lat="-22.09856676869094371795654296875" lon="166.45125626586377620697021484375">
        <ele>562.5999755859375</ele>
        <time>2016-08-12T18:25:05.000Z</time>
        <extensions>
          <ns3:TrackPointExtension>
            <ns3:atemp>17.0</ns3:atemp>
            <ns3:hr>139</ns3:hr>
          </ns3:TrackPointExtension>
        </extensions>
      </trkpt>
      <trkpt lat="-22.09855503402650356292724609375" lon="166.45127244293689727783203125">
        <ele>562.79998779296875</ele>
        <time>2016-08-12T18:25:06.000Z</time>
        <extensions>
          <ns3:TrackPointExtension>
            <ns3:atemp>17.0</ns3:atemp>
            <ns3:hr>140</ns3:hr>
          </ns3:TrackPointExtension>
        </extensions>
      </trkpt>
      <trkpt lat="-22.09854916669428348541259765625" lon="166.45128862001001834869384765625">
        <ele>563</ele>
        <time>2016-08-12T18:25:07.000Z</time>
        <extensions>
          <ns3:TrackPointExtension>
            <ns3:atemp>17.0</ns3:atemp>
            <ns3:hr>139</ns3:hr>
          </ns3:TrackPointExtension>
        </extensions>
      </trkpt>
      <trkpt lat="-22.0985438860952854156494140625" lon="166.45130404271185398101806640625">
        <ele>563</ele>
        <time>2016-08-12T18:25:08.000Z</time>
        <extensions>
          <ns3:TrackPointExtension>
            <ns3:atemp>17.0</ns3:atemp>
            <ns3:hr>139</ns3:hr>
          </ns3:TrackPointExtension>
        </extensions>
      </trkpt>
      <trkpt lat="-22.09853424690663814544677734375" lon="166.4513213932514190673828125">
        <ele>563.20001220703125</ele>
        <time>2016-08-12T18:25:09.000Z</time>
        <extensions>
          <ns3:TrackPointExtension>
            <ns3:atemp>17.0</ns3:atemp>
            <ns3:hr>139</ns3:hr>
          </ns3:TrackPointExtension>
        </extensions>
      </trkpt>
      <trkpt lat="-22.09852494299411773681640625" lon="166.45133807323873043060302734375">
        <ele>563.4000244140625</ele>
        <time>2016-08-12T18:25:10.000Z</time>
        <extensions>
          <ns3:TrackPointExtension>
            <ns3:atemp>17.0</ns3:atemp>
            <ns3:hr>139</ns3:hr>
          </ns3:TrackPointExtension>
        </extensions>
      </trkpt>
      <trkpt lat="-22.09851312451064586639404296875" lon="166.45135751925408840179443359375">
        <ele>563.5999755859375</ele>
        <time>2016-08-12T18:25:11.000Z</time>
        <extensions>
          <ns3:TrackPointExtension>
            <ns3:atemp>17.0</ns3:atemp>
            <ns3:hr>139</ns3:hr>
          </ns3:TrackPointExtension>
        </extensions>
      </trkpt>
      <trkpt lat="-22.09850482642650604248046875" lon="166.451375372707843780517578125">
        <ele>563.79998779296875</ele>
        <time>2016-08-12T18:25:12.000Z</time>
        <extensions>
          <ns3:TrackPointExtension>
            <ns3:atemp>17.0</ns3:atemp>
            <ns3:hr>139</ns3:hr>
          </ns3:TrackPointExtension>
        </extensions>
      </trkpt>
      <trkpt lat="-22.09849284030497074127197265625" lon="166.45139138214290142059326171875">
        <ele>564</ele>
        <time>2016-08-12T18:25:13.000Z</time>
        <extensions>
          <ns3:TrackPointExtension>
            <ns3:atemp>17.0</ns3:atemp>
            <ns3:hr>139</ns3:hr>
          </ns3:TrackPointExtension>
        </extensions>
      </trkpt>
      <trkpt lat="-22.09848244674503803253173828125" lon="166.45140546374022960662841796875">
        <ele>564.20001220703125</ele>
        <time>2016-08-12T18:25:14.000Z</time>
        <extensions>
          <ns3:TrackPointExtension>
            <ns3:atemp>17.0</ns3:atemp>
            <ns3:hr>139</ns3:hr>
          </ns3:TrackPointExtension>
        </extensions>
      </trkpt>
      <trkpt lat="-22.0984733104705810546875" lon="166.45142189227044582366943359375">
        <ele>564.4000244140625</ele>
        <time>2016-08-12T18:25:15.000Z</time>
        <extensions>
          <ns3:TrackPointExtension>
            <ns3:atemp>17.0</ns3:atemp>
            <ns3:hr>139</ns3:hr>
          </ns3:TrackPointExtension>
        </extensions>
      </trkpt>
      <trkpt lat="-22.09846367128193378448486328125" lon="166.45143899135291576385498046875">
        <ele>564.5999755859375</ele>
        <time>2016-08-12T18:25:16.000Z</time>
        <extensions>
          <ns3:TrackPointExtension>
            <ns3:atemp>17.0</ns3:atemp>
            <ns3:hr>139</ns3:hr>
          </ns3:TrackPointExtension>
        </extensions>
      </trkpt>
      <trkpt lat="-22.09845277480781078338623046875" lon="166.45145215094089508056640625">
        <ele>564.79998779296875</ele>
        <time>2016-08-12T18:25:17.000Z</time>
        <extensions>
          <ns3:TrackPointExtension>
            <ns3:atemp>17.0</ns3:atemp>
            <ns3:hr>139</ns3:hr>
          </ns3:TrackPointExtension>
        </extensions>
      </trkpt>
      <trkpt lat="-22.09844171069562435150146484375" lon="166.451461873948574066162109375">
        <ele>564.79998779296875</ele>
        <time>2016-08-12T18:25:18.000Z</time>
        <extensions>
          <ns3:TrackPointExtension>
            <ns3:atemp>17.0</ns3:atemp>
            <ns3:hr>139</ns3:hr>
          </ns3:TrackPointExtension>
        </extensions>
      </trkpt>
      <trkpt lat="-22.0984282158315181732177734375" lon="166.4514717645943164825439453125">
        <ele>564.79998779296875</ele>
        <time>2016-08-12T18:25:19.000Z</time>
        <extensions>
          <ns3:TrackPointExtension>
            <ns3:atemp>17.0</ns3:atemp>
            <ns3:hr>140</ns3:hr>
          </ns3:TrackPointExtension>
        </extensions>
      </trkpt>
      <trkpt lat="-22.09841287694871425628662109375" lon="166.4514771290123462677001953125">
        <ele>565</ele>
        <time>2016-08-12T18:25:20.000Z</time>
        <extensions>
          <ns3:TrackPointExtension>
            <ns3:atemp>17.0</ns3:atemp>
            <ns3:hr>139</ns3:hr>
          </ns3:TrackPointExtension>
        </extensions>
      </trkpt>
      <trkpt lat="-22.09839561022818088531494140625" lon="166.4514823257923126220703125">
        <ele>565.5999755859375</ele>
        <time>2016-08-12T18:25:21.000Z</time>
        <extensions>
          <ns3:TrackPointExtension>
            <ns3:atemp>17.0</ns3:atemp>
            <ns3:hr>140</ns3:hr>
          </ns3:TrackPointExtension>
        </extensions>
      </trkpt>
      <trkpt lat="-22.0983789302408695220947265625" lon="166.45148391835391521453857421875">
        <ele>565.79998779296875</ele>
        <time>2016-08-12T18:25:22.000Z</time>
        <extensions>
          <ns3:TrackPointExtension>
            <ns3:atemp>17.0</ns3:atemp>
            <ns3:hr>140</ns3:hr>
          </ns3:TrackPointExtension>
        </extensions>
      </trkpt>
      <trkpt lat="-22.09836359135806560516357421875" lon="166.4514781348407268524169921875">
        <ele>566.20001220703125</ele>
        <time>2016-08-12T18:25:23.000Z</time>
        <extensions>
          <ns3:TrackPointExtension>
            <ns3:atemp>17.0</ns3:atemp>
            <ns3:hr>139</ns3:hr>
          </ns3:TrackPointExtension>
        </extensions>
      </trkpt>
      <trkpt lat="-22.09834582172334194183349609375" lon="166.45147134549915790557861328125">
        <ele>566.4000244140625</ele>
        <time>2016-08-12T18:25:24.000Z</time>
        <extensions>
          <ns3:TrackPointExtension>
            <ns3:atemp>17.0</ns3:atemp>
            <ns3:hr>140</ns3:hr>
          </ns3:TrackPointExtension>
        </extensions>
      </trkpt>
      <trkpt lat="-22.0983262918889522552490234375" lon="166.45146497525274753570556640625">
        <ele>566.79998779296875</ele>
        <time>2016-08-12T18:25:25.000Z</time>
        <extensions>
          <ns3:TrackPointExtension>
            <ns3:atemp>17.0</ns3:atemp>
            <ns3:hr>140</ns3:hr>
          </ns3:TrackPointExtension>
        </extensions>
      </trkpt>
      <trkpt lat="-22.09831036627292633056640625" lon="166.45145961083471775054931640625">
        <ele>566.79998779296875</ele>
        <time>2016-08-12T18:25:26.000Z</time>
        <extensions>
          <ns3:TrackPointExtension>
            <ns3:atemp>17.0</ns3:atemp>
            <ns3:hr>140</ns3:hr>
          </ns3:TrackPointExtension>
        </extensions>
      </trkpt>
      <trkpt lat="-22.09829050116240978240966796875" lon="166.4514563418924808502197265625">
        <ele>567</ele>
        <time>2016-08-12T18:25:27.000Z</time>
        <extensions>
          <ns3:TrackPointExtension>
            <ns3:atemp>17.0</ns3:atemp>
            <ns3:hr>140</ns3:hr>
          </ns3:TrackPointExtension>
        </extensions>
      </trkpt>
      <trkpt lat="-22.09827071987092494964599609375" lon="166.45145223475992679595947265625">
        <ele>567.20001220703125</ele>
        <time>2016-08-12T18:25:28.000Z</time>
        <extensions>
          <ns3:TrackPointExtension>
            <ns3:atemp>17.0</ns3:atemp>
            <ns3:hr>140</ns3:hr>
          </ns3:TrackPointExtension>
        </extensions>
      </trkpt>
      <trkpt lat="-22.0982525311410427093505859375" lon="166.45144888199865818023681640625">
        <ele>567.20001220703125</ele>
        <time>2016-08-12T18:25:29.000Z</time>
        <extensions>
          <ns3:TrackPointExtension>
            <ns3:atemp>17.0</ns3:atemp>
            <ns3:hr>140</ns3:hr>
          </ns3:TrackPointExtension>
        </extensions>
      </trkpt>
      <trkpt lat="-22.098234929144382476806640625" lon="166.45144200883805751800537109375">
        <ele>567.5999755859375</ele>
        <time>2016-08-12T18:25:30.000Z</time>
        <extensions>
          <ns3:TrackPointExtension>
            <ns3:atemp>17.0</ns3:atemp>
            <ns3:hr>141</ns3:hr>
          </ns3:TrackPointExtension>
        </extensions>
      </trkpt>
      <trkpt lat="-22.098216153681278228759765625" lon="166.451434381306171417236328125">
        <ele>567.79998779296875</ele>
        <time>2016-08-12T18:25:31.000Z</time>
        <extensions>
          <ns3:TrackPointExtension>
            <ns3:atemp>17.0</ns3:atemp>
            <ns3:hr>141</ns3:hr>
          </ns3:TrackPointExtension>
        </extensions>
      </trkpt>
      <trkpt lat="-22.09819771349430084228515625" lon="166.45142323337495326995849609375">
        <ele>567.5999755859375</ele>
        <time>2016-08-12T18:25:32.000Z</time>
        <extensions>
          <ns3:TrackPointExtension>
            <ns3:atemp>17.0</ns3:atemp>
            <ns3:hr>141</ns3:hr>
          </ns3:TrackPointExtension>
        </extensions>
      </trkpt>
      <trkpt lat="-22.09817432798445224761962890625" lon="166.45141384564340114593505859375">
        <ele>567.79998779296875</ele>
        <time>2016-08-12T18:25:33.000Z</time>
        <extensions>
          <ns3:TrackPointExtension>
            <ns3:atemp>17.0</ns3:atemp>
            <ns3:hr>142</ns3:hr>
          </ns3:TrackPointExtension>
        </extensions>
      </trkpt>
      <trkpt lat="-22.0981569774448871612548828125" lon="166.45140663720667362213134765625">
        <ele>568</ele>
        <time>2016-08-12T18:25:34.000Z</time>
        <extensions>
          <ns3:TrackPointExtension>
            <ns3:atemp>17.0</ns3:atemp>
            <ns3:hr>142</ns3:hr>
          </ns3:TrackPointExtension>
        </extensions>
      </trkpt>
      <trkpt lat="-22.09814063273370265960693359375" lon="166.45139741711318492889404296875">
        <ele>568</ele>
        <time>2016-08-12T18:25:35.000Z</time>
        <extensions>
          <ns3:TrackPointExtension>
            <ns3:atemp>17.0</ns3:atemp>
            <ns3:hr>142</ns3:hr>
          </ns3:TrackPointExtension>
        </extensions>
      </trkpt>
      <trkpt lat="-22.0981200970709323883056640625" lon="166.4513916335999965667724609375">
        <ele>568.20001220703125</ele>
        <time>2016-08-12T18:25:36.000Z</time>
        <extensions>
          <ns3:TrackPointExtension>
            <ns3:atemp>17.0</ns3:atemp>
            <ns3:hr>142</ns3:hr>
          </ns3:TrackPointExtension>
        </extensions>
      </trkpt>
      <trkpt lat="-22.0981018245220184326171875" lon="166.4513899572193622589111328125">
        <ele>568.4000244140625</ele>
        <time>2016-08-12T18:25:37.000Z</time>
        <extensions>
          <ns3:TrackPointExtension>
            <ns3:atemp>17.0</ns3:atemp>
            <ns3:hr>143</ns3:hr>
          </ns3:TrackPointExtension>
        </extensions>
      </trkpt>
      <trkpt lat="-22.0980845578014850616455078125" lon="166.4513872750103473663330078125">
        <ele>568.20001220703125</ele>
        <time>2016-08-12T18:25:38.000Z</time>
        <extensions>
          <ns3:TrackPointExtension>
            <ns3:atemp>17.0</ns3:atemp>
            <ns3:hr>143</ns3:hr>
          </ns3:TrackPointExtension>
        </extensions>
      </trkpt>
      <trkpt lat="-22.098062597215175628662109375" lon="166.451383419334888458251953125">
        <ele>568.4000244140625</ele>
        <time>2016-08-12T18:25:39.000Z</time>
        <extensions>
          <ns3:TrackPointExtension>
            <ns3:atemp>17.0</ns3:atemp>
            <ns3:hr>143</ns3:hr>
          </ns3:TrackPointExtension>
        </extensions>
      </trkpt>
      <trkpt lat="-22.09804424084722995758056640625" lon="166.45138098858296871185302734375">
        <ele>568.4000244140625</ele>
        <time>2016-08-12T18:25:40.000Z</time>
        <extensions>
          <ns3:TrackPointExtension>
            <ns3:atemp>17.0</ns3:atemp>
            <ns3:hr>143</ns3:hr>
          </ns3:TrackPointExtension>
        </extensions>
      </trkpt>
      <trkpt lat="-22.09802831523120403289794921875" lon="166.4513777196407318115234375">
        <ele>568.4000244140625</ele>
        <time>2016-08-12T18:25:41.000Z</time>
        <extensions>
          <ns3:TrackPointExtension>
            <ns3:atemp>17.0</ns3:atemp>
            <ns3:hr>143</ns3:hr>
          </ns3:TrackPointExtension>
        </extensions>
      </trkpt>
      <trkpt lat="-22.098012305796146392822265625" lon="166.45137646235525608062744140625">
        <ele>568.5999755859375</ele>
        <time>2016-08-12T18:25:42.000Z</time>
        <extensions>
          <ns3:TrackPointExtension>
            <ns3:atemp>17.0</ns3:atemp>
            <ns3:hr>143</ns3:hr>
          </ns3:TrackPointExtension>
        </extensions>
      </trkpt>
      <trkpt lat="-22.097993195056915283203125" lon="166.4513755403459072113037109375">
        <ele>568.79998779296875</ele>
        <time>2016-08-12T18:25:43.000Z</time>
        <extensions>
          <ns3:TrackPointExtension>
            <ns3:atemp>17.0</ns3:atemp>
            <ns3:hr>143</ns3:hr>
          </ns3:TrackPointExtension>
        </extensions>
      </trkpt>
      <trkpt lat="-22.09797835908830165863037109375" lon="166.451372019946575164794921875">
        <ele>568.79998779296875</ele>
        <time>2016-08-12T18:25:44.000Z</time>
        <extensions>
          <ns3:TrackPointExtension>
            <ns3:atemp>17.0</ns3:atemp>
            <ns3:hr>143</ns3:hr>
          </ns3:TrackPointExtension>
        </extensions>
      </trkpt>
      <trkpt lat="-22.09796025417745113372802734375" lon="166.4513688348233699798583984375">
        <ele>569</ele>
        <time>2016-08-12T18:25:45.000Z</time>
        <extensions>
          <ns3:TrackPointExtension>
            <ns3:atemp>17.0</ns3:atemp>
            <ns3:hr>143</ns3:hr>
          </ns3:TrackPointExtension>
        </extensions>
      </trkpt>
      <trkpt lat="-22.09794332273304462432861328125" lon="166.4513705112040042877197265625">
        <ele>569.20001220703125</ele>
        <time>2016-08-12T18:25:46.000Z</time>
        <extensions>
          <ns3:TrackPointExtension>
            <ns3:atemp>17.0</ns3:atemp>
            <ns3:hr>143</ns3:hr>
          </ns3:TrackPointExtension>
        </extensions>
      </trkpt>
      <trkpt lat="-22.0979279838502407073974609375" lon="166.45137344487011432647705078125">
        <ele>569.4000244140625</ele>
        <time>2016-08-12T18:25:47.000Z</time>
        <extensions>
          <ns3:TrackPointExtension>
            <ns3:atemp>17.0</ns3:atemp>
            <ns3:hr>143</ns3:hr>
          </ns3:TrackPointExtension>
        </extensions>
      </trkpt>
      <trkpt lat="-22.09790878929197788238525390625" lon="166.451381407678127288818359375">
        <ele>569.5999755859375</ele>
        <time>2016-08-12T18:25:48.000Z</time>
        <extensions>
          <ns3:TrackPointExtension>
            <ns3:atemp>17.0</ns3:atemp>
            <ns3:hr>143</ns3:hr>
          </ns3:TrackPointExtension>
        </extensions>
      </trkpt>
      <trkpt lat="-22.09788548760116100311279296875" lon="166.45138920284807682037353515625">
        <ele>569.5999755859375</ele>
        <time>2016-08-12T18:25:49.000Z</time>
        <extensions>
          <ns3:TrackPointExtension>
            <ns3:atemp>17.0</ns3:atemp>
            <ns3:hr>143</ns3:hr>
          </ns3:TrackPointExtension>
        </extensions>
      </trkpt>
      <trkpt lat="-22.09786738269031047821044921875" lon="166.4513949863612651824951171875">
        <ele>569.79998779296875</ele>
        <time>2016-08-12T18:25:50.000Z</time>
        <extensions>
          <ns3:TrackPointExtension>
            <ns3:atemp>17.0</ns3:atemp>
            <ns3:hr>143</ns3:hr>
          </ns3:TrackPointExtension>
        </extensions>
      </trkpt>
      <trkpt lat="-22.09784676320850849151611328125" lon="166.45139792002737522125244140625">
        <ele>569.79998779296875</ele>
        <time>2016-08-12T18:25:51.000Z</time>
        <extensions>
          <ns3:TrackPointExtension>
            <ns3:atemp>17.0</ns3:atemp>
            <ns3:hr>142</ns3:hr>
          </ns3:TrackPointExtension>
        </extensions>
      </trkpt>
      <trkpt lat="-22.097826562821865081787109375" lon="166.4513980038464069366455078125">
        <ele>570</ele>
        <time>2016-08-12T18:25:52.000Z</time>
        <extensions>
          <ns3:TrackPointExtension>
            <ns3:atemp>17.0</ns3:atemp>
            <ns3:hr>142</ns3:hr>
          </ns3:TrackPointExtension>
        </extensions>
      </trkpt>
      <trkpt lat="-22.09780937992036342620849609375" lon="166.45139448344707489013671875">
        <ele>570.20001220703125</ele>
        <time>2016-08-12T18:25:53.000Z</time>
        <extensions>
          <ns3:TrackPointExtension>
            <ns3:atemp>17.0</ns3:atemp>
            <ns3:hr>142</ns3:hr>
          </ns3:TrackPointExtension>
        </extensions>
      </trkpt>
      <trkpt lat="-22.097791694104671478271484375" lon="166.45139138214290142059326171875">
        <ele>570.4000244140625</ele>
        <time>2016-08-12T18:25:54.000Z</time>
        <extensions>
          <ns3:TrackPointExtension>
            <ns3:atemp>17.0</ns3:atemp>
            <ns3:hr>142</ns3:hr>
          </ns3:TrackPointExtension>
        </extensions>
      </trkpt>
      <trkpt lat="-22.097771577537059783935546875" lon="166.45138786174356937408447265625">
        <ele>570.4000244140625</ele>
        <time>2016-08-12T18:25:55.000Z</time>
        <extensions>
          <ns3:TrackPointExtension>
            <ns3:atemp>17.0</ns3:atemp>
            <ns3:hr>142</ns3:hr>
          </ns3:TrackPointExtension>
        </extensions>
      </trkpt>
      <trkpt lat="-22.09775472991168498992919921875" lon="166.4513862691819667816162109375">
        <ele>570.5999755859375</ele>
        <time>2016-08-12T18:25:56.000Z</time>
        <extensions>
          <ns3:TrackPointExtension>
            <ns3:atemp>17.0</ns3:atemp>
            <ns3:hr>142</ns3:hr>
          </ns3:TrackPointExtension>
        </extensions>
      </trkpt>
      <trkpt lat="-22.0977375470101833343505859375" lon="166.45138517953455448150634765625">
        <ele>570.79998779296875</ele>
        <time>2016-08-12T18:25:57.000Z</time>
        <extensions>
          <ns3:TrackPointExtension>
            <ns3:atemp>17.0</ns3:atemp>
            <ns3:hr>142</ns3:hr>
          </ns3:TrackPointExtension>
        </extensions>
      </trkpt>
      <trkpt lat="-22.0977177657186985015869140625" lon="166.4513852633535861968994140625">
        <ele>571</ele>
        <time>2016-08-12T18:25:58.000Z</time>
        <extensions>
          <ns3:TrackPointExtension>
            <ns3:atemp>17.0</ns3:atemp>
            <ns3:hr>141</ns3:hr>
          </ns3:TrackPointExtension>
        </extensions>
      </trkpt>
      <trkpt lat="-22.09769991226494312286376953125" lon="166.45138551481068134307861328125">
        <ele>571</ele>
        <time>2016-08-12T18:25:59.000Z</time>
        <extensions>
          <ns3:TrackPointExtension>
            <ns3:atemp>17.0</ns3:atemp>
            <ns3:hr>141</ns3:hr>
          </ns3:TrackPointExtension>
        </extensions>
      </trkpt>
      <trkpt lat="-22.097683735191822052001953125" lon="166.45138333551585674285888671875">
        <ele>571.20001220703125</ele>
        <time>2016-08-12T18:26:00.000Z</time>
        <extensions>
          <ns3:TrackPointExtension>
            <ns3:atemp>17.0</ns3:atemp>
            <ns3:hr>142</ns3:hr>
          </ns3:TrackPointExtension>
        </extensions>
      </trkpt>
      <trkpt lat="-22.09766663610935211181640625" lon="166.4513782225549221038818359375">
        <ele>571.4000244140625</ele>
        <time>2016-08-12T18:26:01.000Z</time>
        <extensions>
          <ns3:TrackPointExtension>
            <ns3:atemp>17.0</ns3:atemp>
            <ns3:hr>142</ns3:hr>
          </ns3:TrackPointExtension>
        </extensions>
      </trkpt>
      <trkpt lat="-22.0976510457694530487060546875" lon="166.45137243904173374176025390625">
        <ele>571.5999755859375</ele>
        <time>2016-08-12T18:26:02.000Z</time>
        <extensions>
          <ns3:TrackPointExtension>
            <ns3:atemp>17.0</ns3:atemp>
            <ns3:hr>141</ns3:hr>
          </ns3:TrackPointExtension>
        </extensions>
      </trkpt>
      <trkpt lat="-22.097634784877300262451171875" lon="166.45136556588113307952880859375">
        <ele>572</ele>
        <time>2016-08-12T18:26:03.000Z</time>
        <extensions>
          <ns3:TrackPointExtension>
            <ns3:atemp>17.0</ns3:atemp>
            <ns3:hr>142</ns3:hr>
          </ns3:TrackPointExtension>
        </extensions>
      </trkpt>
      <trkpt lat="-22.09762036800384521484375" lon="166.45135735161602497100830078125">
        <ele>572</ele>
        <time>2016-08-12T18:26:04.000Z</time>
        <extensions>
          <ns3:TrackPointExtension>
            <ns3:atemp>17.0</ns3:atemp>
            <ns3:hr>142</ns3:hr>
          </ns3:TrackPointExtension>
        </extensions>
      </trkpt>
      <trkpt lat="-22.09760469384491443634033203125" lon="166.45134964026510715484619140625">
        <ele>572.20001220703125</ele>
        <time>2016-08-12T18:26:05.000Z</time>
        <extensions>
          <ns3:TrackPointExtension>
            <ns3:atemp>17.0</ns3:atemp>
            <ns3:hr>142</ns3:hr>
          </ns3:TrackPointExtension>
        </extensions>
      </trkpt>
      <trkpt lat="-22.097589187324047088623046875" lon="166.4513413421809673309326171875">
        <ele>572.20001220703125</ele>
        <time>2016-08-12T18:26:06.000Z</time>
        <extensions>
          <ns3:TrackPointExtension>
            <ns3:atemp>17.0</ns3:atemp>
            <ns3:hr>142</ns3:hr>
          </ns3:TrackPointExtension>
        </extensions>
      </trkpt>
      <trkpt lat="-22.09756479598581790924072265625" lon="166.45133170299232006072998046875">
        <ele>572.20001220703125</ele>
        <time>2016-08-12T18:26:07.000Z</time>
        <extensions>
          <ns3:TrackPointExtension>
            <ns3:atemp>17.0</ns3:atemp>
            <ns3:hr>142</ns3:hr>
          </ns3:TrackPointExtension>
        </extensions>
      </trkpt>
      <trkpt lat="-22.097544260323047637939453125" lon="166.45132214762270450592041015625">
        <ele>572.4000244140625</ele>
        <time>2016-08-12T18:26:08.000Z</time>
        <extensions>
          <ns3:TrackPointExtension>
            <ns3:atemp>17.0</ns3:atemp>
            <ns3:hr>142</ns3:hr>
          </ns3:TrackPointExtension>
        </extensions>
      </trkpt>
      <trkpt lat="-22.09752875380218029022216796875" lon="166.45131141878664493560791015625">
        <ele>572.5999755859375</ele>
        <time>2016-08-12T18:26:09.000Z</time>
        <extensions>
          <ns3:TrackPointExtension>
            <ns3:atemp>17.0</ns3:atemp>
            <ns3:hr>142</ns3:hr>
          </ns3:TrackPointExtension>
        </extensions>
      </trkpt>
      <trkpt lat="-22.09750981070101261138916015625" lon="166.45130060613155364990234375">
        <ele>572.5999755859375</ele>
        <time>2016-08-12T18:26:10.000Z</time>
        <extensions>
          <ns3:TrackPointExtension>
            <ns3:atemp>17.0</ns3:atemp>
            <ns3:hr>142</ns3:hr>
          </ns3:TrackPointExtension>
        </extensions>
      </trkpt>
      <trkpt lat="-22.0974927954375743865966796875" lon="166.45129146985709667205810546875">
        <ele>572.79998779296875</ele>
        <time>2016-08-12T18:26:11.000Z</time>
        <extensions>
          <ns3:TrackPointExtension>
            <ns3:atemp>17.0</ns3:atemp>
            <ns3:hr>143</ns3:hr>
          </ns3:TrackPointExtension>
        </extensions>
      </trkpt>
      <trkpt lat="-22.09747477434575557708740234375" lon="166.451285518705844879150390625">
        <ele>573</ele>
        <time>2016-08-12T18:26:12.000Z</time>
        <extensions>
          <ns3:TrackPointExtension>
            <ns3:atemp>17.0</ns3:atemp>
            <ns3:hr>142</ns3:hr>
          </ns3:TrackPointExtension>
        </extensions>
      </trkpt>
      <trkpt lat="-22.09745650179684162139892578125" lon="166.4512779749929904937744140625">
        <ele>573</ele>
        <time>2016-08-12T18:26:13.000Z</time>
        <extensions>
          <ns3:TrackPointExtension>
            <ns3:atemp>17.0</ns3:atemp>
            <ns3:hr>143</ns3:hr>
          </ns3:TrackPointExtension>
        </extensions>
      </trkpt>
      <trkpt lat="-22.0974431745707988739013671875" lon="166.45126950927078723907470703125">
        <ele>573.20001220703125</ele>
        <time>2016-08-12T18:26:14.000Z</time>
        <extensions>
          <ns3:TrackPointExtension>
            <ns3:atemp>17.0</ns3:atemp>
            <ns3:hr>143</ns3:hr>
          </ns3:TrackPointExtension>
        </extensions>
      </trkpt>
      <trkpt lat="-22.097427584230899810791015625" lon="166.45126280374825000762939453125">
        <ele>573.4000244140625</ele>
        <time>2016-08-12T18:26:15.000Z</time>
        <extensions>
          <ns3:TrackPointExtension>
            <ns3:atemp>17.0</ns3:atemp>
            <ns3:hr>143</ns3:hr>
          </ns3:TrackPointExtension>
        </extensions>
      </trkpt>
      <trkpt lat="-22.097407467663288116455078125" lon="166.45125626586377620697021484375">
        <ele>573.4000244140625</ele>
        <time>2016-08-12T18:26:16.000Z</time>
        <extensions>
          <ns3:TrackPointExtension>
            <ns3:atemp>17.0</ns3:atemp>
            <ns3:hr>143</ns3:hr>
          </ns3:TrackPointExtension>
        </extensions>
      </trkpt>
      <trkpt lat="-22.09738994948565959930419921875" lon="166.4512516558170318603515625">
        <ele>573.5999755859375</ele>
        <time>2016-08-12T18:26:17.000Z</time>
        <extensions>
          <ns3:TrackPointExtension>
            <ns3:atemp>17.0</ns3:atemp>
            <ns3:hr>143</ns3:hr>
          </ns3:TrackPointExtension>
        </extensions>
      </trkpt>
      <trkpt lat="-22.097369916737079620361328125" lon="166.45124637521803379058837890625">
        <ele>573.79998779296875</ele>
        <time>2016-08-12T18:26:18.000Z</time>
        <extensions>
          <ns3:TrackPointExtension>
            <ns3:atemp>17.0</ns3:atemp>
            <ns3:hr>143</ns3:hr>
          </ns3:TrackPointExtension>
        </extensions>
      </trkpt>
      <trkpt lat="-22.097349464893341064453125" lon="166.451239250600337982177734375">
        <ele>573.79998779296875</ele>
        <time>2016-08-12T18:26:19.000Z</time>
        <extensions>
          <ns3:TrackPointExtension>
            <ns3:atemp>17.0</ns3:atemp>
            <ns3:hr>143</ns3:hr>
          </ns3:TrackPointExtension>
        </extensions>
      </trkpt>
      <trkpt lat="-22.09733244962990283966064453125" lon="166.45123179070651531219482421875">
        <ele>574</ele>
        <time>2016-08-12T18:26:20.000Z</time>
        <extensions>
          <ns3:TrackPointExtension>
            <ns3:atemp>17.0</ns3:atemp>
            <ns3:hr>143</ns3:hr>
          </ns3:TrackPointExtension>
        </extensions>
      </trkpt>
      <trkpt lat="-22.0973167754709720611572265625" lon="166.45122013986110687255859375">
        <ele>574.20001220703125</ele>
        <time>2016-08-12T18:26:21.000Z</time>
        <extensions>
          <ns3:TrackPointExtension>
            <ns3:atemp>17.0</ns3:atemp>
            <ns3:hr>144</ns3:hr>
          </ns3:TrackPointExtension>
        </extensions>
      </trkpt>
      <trkpt lat="-22.09729850292205810546875" lon="166.45120882429182529449462890625">
        <ele>574.20001220703125</ele>
        <time>2016-08-12T18:26:22.000Z</time>
        <extensions>
          <ns3:TrackPointExtension>
            <ns3:atemp>17.0</ns3:atemp>
            <ns3:hr>143</ns3:hr>
          </ns3:TrackPointExtension>
        </extensions>
      </trkpt>
      <trkpt lat="-22.09728039801120758056640625" lon="166.45119792781770229339599609375">
        <ele>574.5999755859375</ele>
        <time>2016-08-12T18:26:23.000Z</time>
        <extensions>
          <ns3:TrackPointExtension>
            <ns3:atemp>17.0</ns3:atemp>
            <ns3:hr>143</ns3:hr>
          </ns3:TrackPointExtension>
        </extensions>
      </trkpt>
      <trkpt lat="-22.09726296365261077880859375" lon="166.45118636079132556915283203125">
        <ele>574.79998779296875</ele>
        <time>2016-08-12T18:26:24.000Z</time>
        <extensions>
          <ns3:TrackPointExtension>
            <ns3:atemp>17.0</ns3:atemp>
            <ns3:hr>143</ns3:hr>
          </ns3:TrackPointExtension>
        </extensions>
      </trkpt>
      <trkpt lat="-22.09724561311304569244384765625" lon="166.451171524822711944580078125">
        <ele>574.79998779296875</ele>
        <time>2016-08-12T18:26:25.000Z</time>
        <extensions>
          <ns3:TrackPointExtension>
            <ns3:atemp>17.0</ns3:atemp>
            <ns3:hr>143</ns3:hr>
          </ns3:TrackPointExtension>
        </extensions>
      </trkpt>
      <trkpt lat="-22.09723211824893951416015625" lon="166.4511559344828128814697265625">
        <ele>575</ele>
        <time>2016-08-12T18:26:26.000Z</time>
        <extensions>
          <ns3:TrackPointExtension>
            <ns3:atemp>17.0</ns3:atemp>
            <ns3:hr>143</ns3:hr>
          </ns3:TrackPointExtension>
        </extensions>
      </trkpt>
      <trkpt lat="-22.0972205512225627899169921875" lon="166.45114227198064327239990234375">
        <ele>575</ele>
        <time>2016-08-12T18:26:27.000Z</time>
        <extensions>
          <ns3:TrackPointExtension>
            <ns3:atemp>17.0</ns3:atemp>
            <ns3:hr>143</ns3:hr>
          </ns3:TrackPointExtension>
        </extensions>
      </trkpt>
      <trkpt lat="-22.09720537997782230377197265625" lon="166.4511271007359027862548828125">
        <ele>575</ele>
        <time>2016-08-12T18:26:28.000Z</time>
        <extensions>
          <ns3:TrackPointExtension>
            <ns3:atemp>17.0</ns3:atemp>
            <ns3:hr>143</ns3:hr>
          </ns3:TrackPointExtension>
        </extensions>
      </trkpt>
      <trkpt lat="-22.09719314239919185638427734375" lon="166.45111083984375">
        <ele>575.20001220703125</ele>
        <time>2016-08-12T18:26:29.000Z</time>
        <extensions>
          <ns3:TrackPointExtension>
            <ns3:atemp>17.0</ns3:atemp>
            <ns3:hr>143</ns3:hr>
          </ns3:TrackPointExtension>
        </extensions>
      </trkpt>
      <trkpt lat="-22.09718073718249797821044921875" lon="166.45109164528548717498779296875">
        <ele>575.20001220703125</ele>
        <time>2016-08-12T18:26:30.000Z</time>
        <extensions>
          <ns3:TrackPointExtension>
            <ns3:atemp>17.0</ns3:atemp>
            <ns3:hr>142</ns3:hr>
          </ns3:TrackPointExtension>
        </extensions>
      </trkpt>
      <trkpt lat="-22.09717168472707271575927734375" lon="166.45107395946979522705078125">
        <ele>575.20001220703125</ele>
        <time>2016-08-12T18:26:31.000Z</time>
        <extensions>
          <ns3:TrackPointExtension>
            <ns3:atemp>17.0</ns3:atemp>
            <ns3:hr>142</ns3:hr>
          </ns3:TrackPointExtension>
        </extensions>
      </trkpt>
      <trkpt lat="-22.09716514684259891510009765625" lon="166.45106096751987934112548828125">
        <ele>575.20001220703125</ele>
        <time>2016-08-12T18:26:32.000Z</time>
        <extensions>
          <ns3:TrackPointExtension>
            <ns3:atemp>17.0</ns3:atemp>
            <ns3:hr>142</ns3:hr>
          </ns3:TrackPointExtension>
        </extensions>
      </trkpt>
      <trkpt lat="-22.0971551723778247833251953125" lon="166.45104822702705860137939453125">
        <ele>575.4000244140625</ele>
        <time>2016-08-12T18:26:33.000Z</time>
        <extensions>
          <ns3:TrackPointExtension>
            <ns3:atemp>17.0</ns3:atemp>
            <ns3:hr>142</ns3:hr>
          </ns3:TrackPointExtension>
        </extensions>
      </trkpt>
      <trkpt lat="-22.097145617008209228515625" lon="166.451031379401683807373046875">
        <ele>575.79998779296875</ele>
        <time>2016-08-12T18:26:34.000Z</time>
        <extensions>
          <ns3:TrackPointExtension>
            <ns3:atemp>17.0</ns3:atemp>
            <ns3:hr>141</ns3:hr>
          </ns3:TrackPointExtension>
        </extensions>
      </trkpt>
      <trkpt lat="-22.09713346324861049652099609375" lon="166.4510184712707996368408203125">
        <ele>576.20001220703125</ele>
        <time>2016-08-12T18:26:35.000Z</time>
        <extensions>
          <ns3:TrackPointExtension>
            <ns3:atemp>17.0</ns3:atemp>
            <ns3:hr>142</ns3:hr>
          </ns3:TrackPointExtension>
        </extensions>
      </trkpt>
      <trkpt lat="-22.0971192978322505950927734375" lon="166.4510100893676280975341796875">
        <ele>576.4000244140625</ele>
        <time>2016-08-12T18:26:36.000Z</time>
        <extensions>
          <ns3:TrackPointExtension>
            <ns3:atemp>17.0</ns3:atemp>
            <ns3:hr>141</ns3:hr>
          </ns3:TrackPointExtension>
        </extensions>
      </trkpt>
      <trkpt lat="-22.0971021987497806549072265625" lon="166.450999192893505096435546875">
        <ele>576.4000244140625</ele>
        <time>2016-08-12T18:26:37.000Z</time>
        <extensions>
          <ns3:TrackPointExtension>
            <ns3:atemp>17.0</ns3:atemp>
            <ns3:hr>141</ns3:hr>
          </ns3:TrackPointExtension>
        </extensions>
      </trkpt>
      <trkpt lat="-22.09709289483726024627685546875" lon="166.45098452456295490264892578125">
        <ele>576.5999755859375</ele>
        <time>2016-08-12T18:26:38.000Z</time>
        <extensions>
          <ns3:TrackPointExtension>
            <ns3:atemp>17.0</ns3:atemp>
            <ns3:hr>141</ns3:hr>
          </ns3:TrackPointExtension>
        </extensions>
      </trkpt>
      <trkpt lat="-22.09708233363926410675048828125" lon="166.4509732089936733245849609375">
        <ele>576.79998779296875</ele>
        <time>2016-08-12T18:26:39.000Z</time>
        <extensions>
          <ns3:TrackPointExtension>
            <ns3:atemp>17.0</ns3:atemp>
            <ns3:hr>140</ns3:hr>
          </ns3:TrackPointExtension>
        </extensions>
      </trkpt>
      <trkpt lat="-22.09706858731806278228759765625" lon="166.45095904357731342315673828125">
        <ele>576.79998779296875</ele>
        <time>2016-08-12T18:26:40.000Z</time>
        <extensions>
          <ns3:TrackPointExtension>
            <ns3:atemp>17.0</ns3:atemp>
            <ns3:hr>140</ns3:hr>
          </ns3:TrackPointExtension>
        </extensions>
      </trkpt>
      <trkpt lat="-22.0970572717487812042236328125" lon="166.45094714127480983734130859375">
        <ele>577</ele>
        <time>2016-08-12T18:26:41.000Z</time>
        <extensions>
          <ns3:TrackPointExtension>
            <ns3:atemp>17.0</ns3:atemp>
            <ns3:hr>140</ns3:hr>
          </ns3:TrackPointExtension>
        </extensions>
      </trkpt>
      <trkpt lat="-22.09705115295946598052978515625" lon="166.45093381404876708984375">
        <ele>577.4000244140625</ele>
        <time>2016-08-12T18:26:42.000Z</time>
        <extensions>
          <ns3:TrackPointExtension>
            <ns3:atemp>17.0</ns3:atemp>
            <ns3:hr>140</ns3:hr>
          </ns3:TrackPointExtension>
        </extensions>
      </trkpt>
      <trkpt lat="-22.09704796783626079559326171875" lon="166.4509175531566143035888671875">
        <ele>577.5999755859375</ele>
        <time>2016-08-12T18:26:43.000Z</time>
        <extensions>
          <ns3:TrackPointExtension>
            <ns3:atemp>17.0</ns3:atemp>
            <ns3:hr>140</ns3:hr>
          </ns3:TrackPointExtension>
        </extensions>
      </trkpt>
      <trkpt lat="-22.097046710550785064697265625" lon="166.4509004540741443634033203125">
        <ele>577.5999755859375</ele>
        <time>2016-08-12T18:26:44.000Z</time>
        <extensions>
          <ns3:TrackPointExtension>
            <ns3:atemp>18.0</ns3:atemp>
            <ns3:hr>139</ns3:hr>
          </ns3:TrackPointExtension>
        </extensions>
      </trkpt>
      <trkpt lat="-22.09704277105629444122314453125" lon="166.4508836902678012847900390625">
        <ele>577.79998779296875</ele>
        <time>2016-08-12T18:26:45.000Z</time>
        <extensions>
          <ns3:TrackPointExtension>
            <ns3:atemp>18.0</ns3:atemp>
            <ns3:hr>139</ns3:hr>
          </ns3:TrackPointExtension>
        </extensions>
      </trkpt>
      <trkpt lat="-22.09703774191439151763916015625" lon="166.45086474716663360595703125">
        <ele>577.79998779296875</ele>
        <time>2016-08-12T18:26:46.000Z</time>
        <extensions>
          <ns3:TrackPointExtension>
            <ns3:atemp>18.0</ns3:atemp>
            <ns3:hr>139</ns3:hr>
          </ns3:TrackPointExtension>
        </extensions>
      </trkpt>
      <trkpt lat="-22.09703070111572742462158203125" lon="166.45084722898900508880615234375">
        <ele>577.79998779296875</ele>
        <time>2016-08-12T18:26:47.000Z</time>
        <extensions>
          <ns3:TrackPointExtension>
            <ns3:atemp>18.0</ns3:atemp>
            <ns3:hr>140</ns3:hr>
          </ns3:TrackPointExtension>
        </extensions>
      </trkpt>
      <trkpt lat="-22.0970244146883487701416015625" lon="166.45082929171621799468994140625">
        <ele>578.20001220703125</ele>
        <time>2016-08-12T18:26:48.000Z</time>
        <extensions>
          <ns3:TrackPointExtension>
            <ns3:atemp>18.0</ns3:atemp>
            <ns3:hr>139</ns3:hr>
          </ns3:TrackPointExtension>
        </extensions>
      </trkpt>
      <trkpt lat="-22.09701192565262317657470703125" lon="166.45081043243408203125">
        <ele>578.20001220703125</ele>
        <time>2016-08-12T18:26:49.000Z</time>
        <extensions>
          <ns3:TrackPointExtension>
            <ns3:atemp>18.0</ns3:atemp>
            <ns3:hr>139</ns3:hr>
          </ns3:TrackPointExtension>
        </extensions>
      </trkpt>
      <trkpt lat="-22.097002454102039337158203125" lon="166.45079274661839008331298828125">
        <ele>578.20001220703125</ele>
        <time>2016-08-12T18:26:50.000Z</time>
        <extensions>
          <ns3:TrackPointExtension>
            <ns3:atemp>18.0</ns3:atemp>
            <ns3:hr>139</ns3:hr>
          </ns3:TrackPointExtension>
        </extensions>
      </trkpt>
      <trkpt lat="-22.09699214436113834381103515625" lon="166.45077757537364959716796875">
        <ele>578.4000244140625</ele>
        <time>2016-08-12T18:26:51.000Z</time>
        <extensions>
          <ns3:TrackPointExtension>
            <ns3:atemp>18.0</ns3:atemp>
            <ns3:hr>139</ns3:hr>
          </ns3:TrackPointExtension>
        </extensions>
      </trkpt>
      <trkpt lat="-22.0969727821648120880126953125" lon="166.450764499604701995849609375">
        <ele>578.5999755859375</ele>
        <time>2016-08-12T18:26:52.000Z</time>
        <extensions>
          <ns3:TrackPointExtension>
            <ns3:atemp>18.0</ns3:atemp>
            <ns3:hr>139</ns3:hr>
          </ns3:TrackPointExtension>
        </extensions>
      </trkpt>
      <trkpt lat="-22.09695409052073955535888671875" lon="166.45075150765478610992431640625">
        <ele>578.79998779296875</ele>
        <time>2016-08-12T18:26:53.000Z</time>
        <extensions>
          <ns3:TrackPointExtension>
            <ns3:atemp>18.0</ns3:atemp>
            <ns3:hr>140</ns3:hr>
          </ns3:TrackPointExtension>
        </extensions>
      </trkpt>
      <trkpt lat="-22.0969372428953647613525390625" lon="166.450741030275821685791015625">
        <ele>579</ele>
        <time>2016-08-12T18:26:54.000Z</time>
        <extensions>
          <ns3:TrackPointExtension>
            <ns3:atemp>18.0</ns3:atemp>
            <ns3:hr>139</ns3:hr>
          </ns3:TrackPointExtension>
        </extensions>
      </trkpt>
      <trkpt lat="-22.0969184674322605133056640625" lon="166.450730301439762115478515625">
        <ele>579</ele>
        <time>2016-08-12T18:26:55.000Z</time>
        <extensions>
          <ns3:TrackPointExtension>
            <ns3:atemp>18.0</ns3:atemp>
            <ns3:hr>139</ns3:hr>
          </ns3:TrackPointExtension>
        </extensions>
      </trkpt>
      <trkpt lat="-22.09690044634044170379638671875" lon="166.4507205784320831298828125">
        <ele>579.20001220703125</ele>
        <time>2016-08-12T18:26:56.000Z</time>
        <extensions>
          <ns3:TrackPointExtension>
            <ns3:atemp>18.0</ns3:atemp>
            <ns3:hr>139</ns3:hr>
          </ns3:TrackPointExtension>
        </extensions>
      </trkpt>
      <trkpt lat="-22.0968846045434474945068359375" lon="166.45071160979568958282470703125">
        <ele>579.4000244140625</ele>
        <time>2016-08-12T18:26:57.000Z</time>
        <extensions>
          <ns3:TrackPointExtension>
            <ns3:atemp>18.0</ns3:atemp>
            <ns3:hr>139</ns3:hr>
          </ns3:TrackPointExtension>
        </extensions>
      </trkpt>
      <trkpt lat="-22.09686641581356525421142578125" lon="166.4507033117115497589111328125">
        <ele>579.4000244140625</ele>
        <time>2016-08-12T18:26:58.000Z</time>
        <extensions>
          <ns3:TrackPointExtension>
            <ns3:atemp>18.0</ns3:atemp>
            <ns3:hr>139</ns3:hr>
          </ns3:TrackPointExtension>
        </extensions>
      </trkpt>
      <trkpt lat="-22.09684814326465129852294921875" lon="166.45069417543709278106689453125">
        <ele>579.4000244140625</ele>
        <time>2016-08-12T18:26:59.000Z</time>
        <extensions>
          <ns3:TrackPointExtension>
            <ns3:atemp>18.0</ns3:atemp>
            <ns3:hr>139</ns3:hr>
          </ns3:TrackPointExtension>
        </extensions>
      </trkpt>
      <trkpt lat="-22.0968326367437839508056640625" lon="166.45068210549652576446533203125">
        <ele>579.79998779296875</ele>
        <time>2016-08-12T18:27:00.000Z</time>
        <extensions>
          <ns3:TrackPointExtension>
            <ns3:atemp>18.0</ns3:atemp>
            <ns3:hr>139</ns3:hr>
          </ns3:TrackPointExtension>
        </extensions>
      </trkpt>
      <trkpt lat="-22.0968162082135677337646484375" lon="166.45066752098500728607177734375">
        <ele>580</ele>
        <time>2016-08-12T18:27:01.000Z</time>
        <extensions>
          <ns3:TrackPointExtension>
            <ns3:atemp>18.0</ns3:atemp>
            <ns3:hr>139</ns3:hr>
          </ns3:TrackPointExtension>
        </extensions>
      </trkpt>
      <trkpt lat="-22.09679936058819293975830078125" lon="166.4506530202925205230712890625">
        <ele>580.20001220703125</ele>
        <time>2016-08-12T18:27:02.000Z</time>
        <extensions>
          <ns3:TrackPointExtension>
            <ns3:atemp>18.0</ns3:atemp>
            <ns3:hr>139</ns3:hr>
          </ns3:TrackPointExtension>
        </extensions>
      </trkpt>
      <trkpt lat="-22.09678594954311847686767578125" lon="166.4506419561803340911865234375">
        <ele>580.4000244140625</ele>
        <time>2016-08-12T18:27:03.000Z</time>
        <extensions>
          <ns3:TrackPointExtension>
            <ns3:atemp>18.0</ns3:atemp>
            <ns3:hr>140</ns3:hr>
          </ns3:TrackPointExtension>
        </extensions>
      </trkpt>
      <trkpt lat="-22.09677102975547313690185546875" lon="166.45062879659235477447509765625">
        <ele>580.79998779296875</ele>
        <time>2016-08-12T18:27:04.000Z</time>
        <extensions>
          <ns3:TrackPointExtension>
            <ns3:atemp>18.0</ns3:atemp>
            <ns3:hr>139</ns3:hr>
          </ns3:TrackPointExtension>
        </extensions>
      </trkpt>
      <trkpt lat="-22.096755690872669219970703125" lon="166.45061421208083629608154296875">
        <ele>580.79998779296875</ele>
        <time>2016-08-12T18:27:05.000Z</time>
        <extensions>
          <ns3:TrackPointExtension>
            <ns3:atemp>18.0</ns3:atemp>
            <ns3:hr>140</ns3:hr>
          </ns3:TrackPointExtension>
        </extensions>
      </trkpt>
      <trkpt lat="-22.09674269892275333404541015625" lon="166.4506013877689838409423828125">
        <ele>581</ele>
        <time>2016-08-12T18:27:06.000Z</time>
        <extensions>
          <ns3:TrackPointExtension>
            <ns3:atemp>18.0</ns3:atemp>
            <ns3:hr>140</ns3:hr>
          </ns3:TrackPointExtension>
        </extensions>
      </trkpt>
      <trkpt lat="-22.09672761149704456329345703125" lon="166.45058839581906795501708984375">
        <ele>581.20001220703125</ele>
        <time>2016-08-12T18:27:07.000Z</time>
        <extensions>
          <ns3:TrackPointExtension>
            <ns3:atemp>18.0</ns3:atemp>
            <ns3:hr>140</ns3:hr>
          </ns3:TrackPointExtension>
        </extensions>
      </trkpt>
      <trkpt lat="-22.096709422767162322998046875" lon="166.4505730569362640380859375">
        <ele>581.4000244140625</ele>
        <time>2016-08-12T18:27:08.000Z</time>
        <extensions>
          <ns3:TrackPointExtension>
            <ns3:atemp>18.0</ns3:atemp>
            <ns3:hr>140</ns3:hr>
          </ns3:TrackPointExtension>
        </extensions>
      </trkpt>
      <trkpt lat="-22.096698693931102752685546875" lon="166.45055637694895267486572265625">
        <ele>581.79998779296875</ele>
        <time>2016-08-12T18:27:09.000Z</time>
        <extensions>
          <ns3:TrackPointExtension>
            <ns3:atemp>18.0</ns3:atemp>
            <ns3:hr>140</ns3:hr>
          </ns3:TrackPointExtension>
        </extensions>
      </trkpt>
      <trkpt lat="-22.0966928265988826751708984375" lon="166.450538523495197296142578125">
        <ele>581.79998779296875</ele>
        <time>2016-08-12T18:27:10.000Z</time>
        <extensions>
          <ns3:TrackPointExtension>
            <ns3:atemp>18.0</ns3:atemp>
            <ns3:hr>140</ns3:hr>
          </ns3:TrackPointExtension>
        </extensions>
      </trkpt>
      <trkpt lat="-22.09668117575347423553466796875" lon="166.4505219273269176483154296875">
        <ele>581.79998779296875</ele>
        <time>2016-08-12T18:27:11.000Z</time>
        <extensions>
          <ns3:TrackPointExtension>
            <ns3:atemp>18.0</ns3:atemp>
            <ns3:hr>140</ns3:hr>
          </ns3:TrackPointExtension>
        </extensions>
      </trkpt>
      <trkpt lat="-22.09667229093611240386962890625" lon="166.45050860010087490081787109375">
        <ele>582</ele>
        <time>2016-08-12T18:27:12.000Z</time>
        <extensions>
          <ns3:TrackPointExtension>
            <ns3:atemp>18.0</ns3:atemp>
            <ns3:hr>140</ns3:hr>
          </ns3:TrackPointExtension>
        </extensions>
      </trkpt>
      <trkpt lat="-22.09666709415614604949951171875" lon="166.4504947699606418609619140625">
        <ele>582.20001220703125</ele>
        <time>2016-08-12T18:27:13.000Z</time>
        <extensions>
          <ns3:TrackPointExtension>
            <ns3:atemp>18.0</ns3:atemp>
            <ns3:hr>139</ns3:hr>
          </ns3:TrackPointExtension>
        </extensions>
      </trkpt>
      <trkpt lat="-22.0966673456132411956787109375" lon="166.4504786767065525054931640625">
        <ele>582.4000244140625</ele>
        <time>2016-08-12T18:27:14.000Z</time>
        <extensions>
          <ns3:TrackPointExtension>
            <ns3:atemp>18.0</ns3:atemp>
            <ns3:hr>139</ns3:hr>
          </ns3:TrackPointExtension>
        </extensions>
      </trkpt>
      <trkpt lat="-22.09666348993778228759765625" lon="166.4504622481763362884521484375">
        <ele>582.5999755859375</ele>
        <time>2016-08-12T18:27:15.000Z</time>
        <extensions>
          <ns3:TrackPointExtension>
            <ns3:atemp>18.0</ns3:atemp>
            <ns3:hr>139</ns3:hr>
          </ns3:TrackPointExtension>
        </extensions>
      </trkpt>
      <trkpt lat="-22.0966489054262638092041015625" lon="166.45045126788318157196044921875">
        <ele>582.5999755859375</ele>
        <time>2016-08-12T18:27:16.000Z</time>
        <extensions>
          <ns3:TrackPointExtension>
            <ns3:atemp>18.0</ns3:atemp>
            <ns3:hr>138</ns3:hr>
          </ns3:TrackPointExtension>
        </extensions>
      </trkpt>
      <trkpt lat="-22.09664446301758289337158203125" lon="166.4504357613623142242431640625">
        <ele>582.4000244140625</ele>
        <time>2016-08-12T18:27:17.000Z</time>
        <extensions>
          <ns3:TrackPointExtension>
            <ns3:atemp>18.0</ns3:atemp>
            <ns3:hr>137</ns3:hr>
          </ns3:TrackPointExtension>
        </extensions>
      </trkpt>
      <trkpt lat="-22.09663356654345989227294921875" lon="166.45041723735630512237548828125">
        <ele>582.79998779296875</ele>
        <time>2016-08-12T18:27:18.000Z</time>
        <extensions>
          <ns3:TrackPointExtension>
            <ns3:atemp>18.0</ns3:atemp>
            <ns3:hr>136</ns3:hr>
          </ns3:TrackPointExtension>
        </extensions>
      </trkpt>
      <trkpt lat="-22.0966234244406223297119140625" lon="166.4503972046077251434326171875">
        <ele>582.79998779296875</ele>
        <time>2016-08-12T18:27:19.000Z</time>
        <extensions>
          <ns3:TrackPointExtension>
            <ns3:atemp>18.0</ns3:atemp>
            <ns3:hr>136</ns3:hr>
          </ns3:TrackPointExtension>
        </extensions>
      </trkpt>
      <trkpt lat="-22.0966137014329433441162109375" lon="166.45037851296365261077880859375">
        <ele>582.5999755859375</ele>
        <time>2016-08-12T18:27:20.000Z</time>
        <extensions>
          <ns3:TrackPointExtension>
            <ns3:atemp>18.0</ns3:atemp>
            <ns3:hr>135</ns3:hr>
          </ns3:TrackPointExtension>
        </extensions>
      </trkpt>
      <trkpt lat="-22.09660179913043975830078125" lon="166.45035839639604091644287109375">
        <ele>582.79998779296875</ele>
        <time>2016-08-12T18:27:21.000Z</time>
        <extensions>
          <ns3:TrackPointExtension>
            <ns3:atemp>18.0</ns3:atemp>
            <ns3:hr>135</ns3:hr>
          </ns3:TrackPointExtension>
        </extensions>
      </trkpt>
      <trkpt lat="-22.0965902321040630340576171875" lon="166.4503392018377780914306640625">
        <ele>582.5999755859375</ele>
        <time>2016-08-12T18:27:22.000Z</time>
        <extensions>
          <ns3:TrackPointExtension>
            <ns3:atemp>18.0</ns3:atemp>
            <ns3:hr>135</ns3:hr>
          </ns3:TrackPointExtension>
        </extensions>
      </trkpt>
      <trkpt lat="-22.096574641764163970947265625" lon="166.4503231085836887359619140625">
        <ele>582.79998779296875</ele>
        <time>2016-08-12T18:27:23.000Z</time>
        <extensions>
          <ns3:TrackPointExtension>
            <ns3:atemp>18.0</ns3:atemp>
            <ns3:hr>135</ns3:hr>
          </ns3:TrackPointExtension>
        </extensions>
      </trkpt>
      <trkpt lat="-22.09655812941491603851318359375" lon="166.45030559040606021881103515625">
        <ele>582.79998779296875</ele>
        <time>2016-08-12T18:27:24.000Z</time>
        <extensions>
          <ns3:TrackPointExtension>
            <ns3:atemp>18.0</ns3:atemp>
            <ns3:hr>135</ns3:hr>
          </ns3:TrackPointExtension>
        </extensions>
      </trkpt>
      <trkpt lat="-22.096546478569507598876953125" lon="166.450288407504558563232421875">
        <ele>582.79998779296875</ele>
        <time>2016-08-12T18:27:25.000Z</time>
        <extensions>
          <ns3:TrackPointExtension>
            <ns3:atemp>18.0</ns3:atemp>
            <ns3:hr>134</ns3:hr>
          </ns3:TrackPointExtension>
        </extensions>
      </trkpt>
      <trkpt lat="-22.09653415717184543609619140625" lon="166.4502714760601520538330078125">
        <ele>582.79998779296875</ele>
        <time>2016-08-12T18:27:26.000Z</time>
        <extensions>
          <ns3:TrackPointExtension>
            <ns3:atemp>18.0</ns3:atemp>
            <ns3:hr>135</ns3:hr>
          </ns3:TrackPointExtension>
        </extensions>
      </trkpt>
      <trkpt lat="-22.09652074612677097320556640625" lon="166.45025563426315784454345703125">
        <ele>583</ele>
        <time>2016-08-12T18:27:27.000Z</time>
        <extensions>
          <ns3:TrackPointExtension>
            <ns3:atemp>18.0</ns3:atemp>
            <ns3:hr>135</ns3:hr>
          </ns3:TrackPointExtension>
        </extensions>
      </trkpt>
      <trkpt lat="-22.09650984965264797210693359375" lon="166.45024088211357593536376953125">
        <ele>583</ele>
        <time>2016-08-12T18:27:28.000Z</time>
        <extensions>
          <ns3:TrackPointExtension>
            <ns3:atemp>18.0</ns3:atemp>
            <ns3:hr>136</ns3:hr>
          </ns3:TrackPointExtension>
        </extensions>
      </trkpt>
      <trkpt lat="-22.09649719297885894775390625" lon="166.45022529177367687225341796875">
        <ele>583.20001220703125</ele>
        <time>2016-08-12T18:27:29.000Z</time>
        <extensions>
          <ns3:TrackPointExtension>
            <ns3:atemp>18.0</ns3:atemp>
            <ns3:hr>136</ns3:hr>
          </ns3:TrackPointExtension>
        </extensions>
      </trkpt>
      <trkpt lat="-22.09647699259221553802490234375" lon="166.45020936615765094757080078125">
        <ele>583.20001220703125</ele>
        <time>2016-08-12T18:27:30.000Z</time>
        <extensions>
          <ns3:TrackPointExtension>
            <ns3:atemp>18.0</ns3:atemp>
            <ns3:hr>137</ns3:hr>
          </ns3:TrackPointExtension>
        </extensions>
      </trkpt>
      <trkpt lat="-22.09646073170006275177001953125" lon="166.45019662566483020782470703125">
        <ele>583.4000244140625</ele>
        <time>2016-08-12T18:27:31.000Z</time>
        <extensions>
          <ns3:TrackPointExtension>
            <ns3:atemp>18.0</ns3:atemp>
            <ns3:hr>137</ns3:hr>
          </ns3:TrackPointExtension>
        </extensions>
      </trkpt>
      <trkpt lat="-22.0964474044740200042724609375" lon="166.45018271170556545257568359375">
        <ele>583.4000244140625</ele>
        <time>2016-08-12T18:27:32.000Z</time>
        <extensions>
          <ns3:TrackPointExtension>
            <ns3:atemp>18.0</ns3:atemp>
            <ns3:hr>137</ns3:hr>
          </ns3:TrackPointExtension>
        </extensions>
      </trkpt>
      <trkpt lat="-22.09643323905766010284423828125" lon="166.4501665346324443817138671875">
        <ele>583.4000244140625</ele>
        <time>2016-08-12T18:27:33.000Z</time>
        <extensions>
          <ns3:TrackPointExtension>
            <ns3:atemp>18.0</ns3:atemp>
            <ns3:hr>137</ns3:hr>
          </ns3:TrackPointExtension>
        </extensions>
      </trkpt>
      <trkpt lat="-22.0964219234883785247802734375" lon="166.450150273740291595458984375">
        <ele>583.5999755859375</ele>
        <time>2016-08-12T18:27:34.000Z</time>
        <extensions>
          <ns3:TrackPointExtension>
            <ns3:atemp>18.0</ns3:atemp>
            <ns3:hr>138</ns3:hr>
          </ns3:TrackPointExtension>
        </extensions>
      </trkpt>
      <trkpt lat="-22.0964115299284458160400390625" lon="166.45013309083878993988037109375">
        <ele>583.5999755859375</ele>
        <time>2016-08-12T18:27:35.000Z</time>
        <extensions>
          <ns3:TrackPointExtension>
            <ns3:atemp>18.0</ns3:atemp>
            <ns3:hr>138</ns3:hr>
          </ns3:TrackPointExtension>
        </extensions>
      </trkpt>
      <trkpt lat="-22.0963987894356250762939453125" lon="166.45011632703244686126708984375">
        <ele>583.79998779296875</ele>
        <time>2016-08-12T18:27:36.000Z</time>
        <extensions>
          <ns3:TrackPointExtension>
            <ns3:atemp>18.0</ns3:atemp>
            <ns3:hr>138</ns3:hr>
          </ns3:TrackPointExtension>
        </extensions>
      </trkpt>
      <trkpt lat="-22.09638395346701145172119140625" lon="166.45010358653962612152099609375">
        <ele>584.20001220703125</ele>
        <time>2016-08-12T18:27:37.000Z</time>
        <extensions>
          <ns3:TrackPointExtension>
            <ns3:atemp>18.0</ns3:atemp>
            <ns3:hr>138</ns3:hr>
          </ns3:TrackPointExtension>
        </extensions>
      </trkpt>
      <trkpt lat="-22.0963686145842075347900390625" lon="166.450093276798725128173828125">
        <ele>584.20001220703125</ele>
        <time>2016-08-12T18:27:38.000Z</time>
        <extensions>
          <ns3:TrackPointExtension>
            <ns3:atemp>18.0</ns3:atemp>
            <ns3:hr>139</ns3:hr>
          </ns3:TrackPointExtension>
        </extensions>
      </trkpt>
      <trkpt lat="-22.096352018415927886962890625" lon="166.45008179359138011932373046875">
        <ele>584.4000244140625</ele>
        <time>2016-08-12T18:27:39.000Z</time>
        <extensions>
          <ns3:TrackPointExtension>
            <ns3:atemp>18.0</ns3:atemp>
            <ns3:hr>138</ns3:hr>
          </ns3:TrackPointExtension>
        </extensions>
      </trkpt>
      <trkpt lat="-22.09633651189506053924560546875" lon="166.4500729925930500030517578125">
        <ele>584.5999755859375</ele>
        <time>2016-08-12T18:27:40.000Z</time>
        <extensions>
          <ns3:TrackPointExtension>
            <ns3:atemp>18.0</ns3:atemp>
            <ns3:hr>138</ns3:hr>
          </ns3:TrackPointExtension>
        </extensions>
      </trkpt>
      <trkpt lat="-22.0963181555271148681640625" lon="166.450065113604068756103515625">
        <ele>584.5999755859375</ele>
        <time>2016-08-12T18:27:41.000Z</time>
        <extensions>
          <ns3:TrackPointExtension>
            <ns3:atemp>18.0</ns3:atemp>
            <ns3:hr>139</ns3:hr>
          </ns3:TrackPointExtension>
        </extensions>
      </trkpt>
      <trkpt lat="-22.0962968654930591583251953125" lon="166.450059078633785247802734375">
        <ele>584.5999755859375</ele>
        <time>2016-08-12T18:27:42.000Z</time>
        <extensions>
          <ns3:TrackPointExtension>
            <ns3:atemp>18.0</ns3:atemp>
            <ns3:hr>139</ns3:hr>
          </ns3:TrackPointExtension>
        </extensions>
      </trkpt>
      <trkpt lat="-22.0962764136493206024169921875" lon="166.450059078633785247802734375">
        <ele>584.5999755859375</ele>
        <time>2016-08-12T18:27:43.000Z</time>
        <extensions>
          <ns3:TrackPointExtension>
            <ns3:atemp>17.0</ns3:atemp>
            <ns3:hr>138</ns3:hr>
          </ns3:TrackPointExtension>
        </extensions>
      </trkpt>
      <trkpt lat="-22.09625956602394580841064453125" lon="166.45006268285214900970458984375">
        <ele>584.5999755859375</ele>
        <time>2016-08-12T18:27:44.000Z</time>
        <extensions>
          <ns3:TrackPointExtension>
            <ns3:atemp>17.0</ns3:atemp>
            <ns3:hr>138</ns3:hr>
          </ns3:TrackPointExtension>
        </extensions>
      </trkpt>
      <trkpt lat="-22.09624112583696842193603515625" lon="166.4500669576227664947509765625">
        <ele>584.79998779296875</ele>
        <time>2016-08-12T18:27:45.000Z</time>
        <extensions>
          <ns3:TrackPointExtension>
            <ns3:atemp>17.0</ns3:atemp>
            <ns3:hr>138</ns3:hr>
          </ns3:TrackPointExtension>
        </extensions>
      </trkpt>
      <trkpt lat="-22.0962231047451496124267578125" lon="166.450069136917591094970703125">
        <ele>585.20001220703125</ele>
        <time>2016-08-12T18:27:46.000Z</time>
        <extensions>
          <ns3:TrackPointExtension>
            <ns3:atemp>17.0</ns3:atemp>
            <ns3:hr>138</ns3:hr>
          </ns3:TrackPointExtension>
        </extensions>
      </trkpt>
      <trkpt lat="-22.096203155815601348876953125" lon="166.4500719867646694183349609375">
        <ele>585.20001220703125</ele>
        <time>2016-08-12T18:27:47.000Z</time>
        <extensions>
          <ns3:TrackPointExtension>
            <ns3:atemp>17.0</ns3:atemp>
            <ns3:hr>138</ns3:hr>
          </ns3:TrackPointExtension>
        </extensions>
      </trkpt>
      <trkpt lat="-22.09618069231510162353515625" lon="166.4500773511826992034912109375">
        <ele>585.4000244140625</ele>
        <time>2016-08-12T18:27:48.000Z</time>
        <extensions>
          <ns3:TrackPointExtension>
            <ns3:atemp>17.0</ns3:atemp>
            <ns3:hr>138</ns3:hr>
          </ns3:TrackPointExtension>
        </extensions>
      </trkpt>
      <trkpt lat="-22.0961572229862213134765625" lon="166.45008313469588756561279296875">
        <ele>585.5999755859375</ele>
        <time>2016-08-12T18:27:49.000Z</time>
        <extensions>
          <ns3:TrackPointExtension>
            <ns3:atemp>17.0</ns3:atemp>
            <ns3:hr>137</ns3:hr>
          </ns3:TrackPointExtension>
        </extensions>
      </trkpt>
      <trkpt lat="-22.096137441694736480712890625" lon="166.45008531399071216583251953125">
        <ele>586</ele>
        <time>2016-08-12T18:27:50.000Z</time>
        <extensions>
          <ns3:TrackPointExtension>
            <ns3:atemp>17.0</ns3:atemp>
            <ns3:hr>137</ns3:hr>
          </ns3:TrackPointExtension>
        </extensions>
      </trkpt>
      <trkpt lat="-22.0961171574890613555908203125" lon="166.4500813744962215423583984375">
        <ele>586</ele>
        <time>2016-08-12T18:27:51.000Z</time>
        <extensions>
          <ns3:TrackPointExtension>
            <ns3:atemp>17.0</ns3:atemp>
            <ns3:hr>137</ns3:hr>
          </ns3:TrackPointExtension>
        </extensions>
      </trkpt>
      <trkpt lat="-22.09609695710241794586181640625" lon="166.4500786922872066497802734375">
        <ele>586.4000244140625</ele>
        <time>2016-08-12T18:27:52.000Z</time>
        <extensions>
          <ns3:TrackPointExtension>
            <ns3:atemp>17.0</ns3:atemp>
            <ns3:hr>137</ns3:hr>
          </ns3:TrackPointExtension>
        </extensions>
      </trkpt>
      <trkpt lat="-22.09607784636318683624267578125" lon="166.45007676444947719573974609375">
        <ele>586.5999755859375</ele>
        <time>2016-08-12T18:27:53.000Z</time>
        <extensions>
          <ns3:TrackPointExtension>
            <ns3:atemp>17.0</ns3:atemp>
            <ns3:hr>137</ns3:hr>
          </ns3:TrackPointExtension>
        </extensions>
      </trkpt>
      <trkpt lat="-22.096059322357177734375" lon="166.45007424987852573394775390625">
        <ele>586.79998779296875</ele>
        <time>2016-08-12T18:27:54.000Z</time>
        <extensions>
          <ns3:TrackPointExtension>
            <ns3:atemp>17.0</ns3:atemp>
            <ns3:hr>137</ns3:hr>
          </ns3:TrackPointExtension>
        </extensions>
      </trkpt>
      <trkpt lat="-22.09604113362729549407958984375" lon="166.45006737671792507171630859375">
        <ele>587</ele>
        <time>2016-08-12T18:27:55.000Z</time>
        <extensions>
          <ns3:TrackPointExtension>
            <ns3:atemp>17.0</ns3:atemp>
            <ns3:hr>137</ns3:hr>
          </ns3:TrackPointExtension>
        </extensions>
      </trkpt>
      <trkpt lat="-22.0960249565541744232177734375" lon="166.45006150938570499420166015625">
        <ele>587</ele>
        <time>2016-08-12T18:27:56.000Z</time>
        <extensions>
          <ns3:TrackPointExtension>
            <ns3:atemp>17.0</ns3:atemp>
            <ns3:hr>138</ns3:hr>
          </ns3:TrackPointExtension>
        </extensions>
      </trkpt>
      <trkpt lat="-22.096008360385894775390625" lon="166.45005480386316776275634765625">
        <ele>587.20001220703125</ele>
        <time>2016-08-12T18:27:57.000Z</time>
        <extensions>
          <ns3:TrackPointExtension>
            <ns3:atemp>17.0</ns3:atemp>
            <ns3:hr>137</ns3:hr>
          </ns3:TrackPointExtension>
        </extensions>
      </trkpt>
      <trkpt lat="-22.0959909260272979736328125" lon="166.45004742778837680816650390625">
        <ele>587.4000244140625</ele>
        <time>2016-08-12T18:27:58.000Z</time>
        <extensions>
          <ns3:TrackPointExtension>
            <ns3:atemp>17.0</ns3:atemp>
            <ns3:hr>137</ns3:hr>
          </ns3:TrackPointExtension>
        </extensions>
      </trkpt>
      <trkpt lat="-22.095975168049335479736328125" lon="166.45004130899906158447265625">
        <ele>587.5999755859375</ele>
        <time>2016-08-12T18:27:59.000Z</time>
        <extensions>
          <ns3:TrackPointExtension>
            <ns3:atemp>17.0</ns3:atemp>
            <ns3:hr>138</ns3:hr>
          </ns3:TrackPointExtension>
        </extensions>
      </trkpt>
      <trkpt lat="-22.09595915861427783966064453125" lon="166.45003653131425380706787109375">
        <ele>587.5999755859375</ele>
        <time>2016-08-12T18:28:00.000Z</time>
        <extensions>
          <ns3:TrackPointExtension>
            <ns3:atemp>17.0</ns3:atemp>
            <ns3:hr>137</ns3:hr>
          </ns3:TrackPointExtension>
        </extensions>
      </trkpt>
      <trkpt lat="-22.09594373591244220733642578125" lon="166.45003049634397029876708984375">
        <ele>587.79998779296875</ele>
        <time>2016-08-12T18:28:01.000Z</time>
        <extensions>
          <ns3:TrackPointExtension>
            <ns3:atemp>17.0</ns3:atemp>
            <ns3:hr>138</ns3:hr>
          </ns3:TrackPointExtension>
        </extensions>
      </trkpt>
      <trkpt lat="-22.095929570496082305908203125" lon="166.450025551021099090576171875">
        <ele>587.79998779296875</ele>
        <time>2016-08-12T18:28:02.000Z</time>
        <extensions>
          <ns3:TrackPointExtension>
            <ns3:atemp>17.0</ns3:atemp>
            <ns3:hr>138</ns3:hr>
          </ns3:TrackPointExtension>
        </extensions>
      </trkpt>
      <trkpt lat="-22.09591842256486415863037109375" lon="166.45001825876533985137939453125">
        <ele>587.79998779296875</ele>
        <time>2016-08-12T18:28:03.000Z</time>
        <extensions>
          <ns3:TrackPointExtension>
            <ns3:atemp>17.0</ns3:atemp>
            <ns3:hr>137</ns3:hr>
          </ns3:TrackPointExtension>
        </extensions>
      </trkpt>
      <trkpt lat="-22.09590442478656768798828125" lon="166.45000786520540714263916015625">
        <ele>588</ele>
        <time>2016-08-12T18:28:04.000Z</time>
        <extensions>
          <ns3:TrackPointExtension>
            <ns3:atemp>17.0</ns3:atemp>
            <ns3:hr>138</ns3:hr>
          </ns3:TrackPointExtension>
        </extensions>
      </trkpt>
      <trkpt lat="-22.09588841535151004791259765625" lon="166.4499978907406330108642578125">
        <ele>588.20001220703125</ele>
        <time>2016-08-12T18:28:05.000Z</time>
        <extensions>
          <ns3:TrackPointExtension>
            <ns3:atemp>17.0</ns3:atemp>
            <ns3:hr>138</ns3:hr>
          </ns3:TrackPointExtension>
        </extensions>
      </trkpt>
      <trkpt lat="-22.09587332792580127716064453125" lon="166.44998766481876373291015625">
        <ele>588.5999755859375</ele>
        <time>2016-08-12T18:28:06.000Z</time>
        <extensions>
          <ns3:TrackPointExtension>
            <ns3:atemp>17.0</ns3:atemp>
            <ns3:hr>138</ns3:hr>
          </ns3:TrackPointExtension>
        </extensions>
      </trkpt>
      <trkpt lat="-22.0958576537668704986572265625" lon="166.44997433759272098541259765625">
        <ele>588.79998779296875</ele>
        <time>2016-08-12T18:28:07.000Z</time>
        <extensions>
          <ns3:TrackPointExtension>
            <ns3:atemp>17.0</ns3:atemp>
            <ns3:hr>138</ns3:hr>
          </ns3:TrackPointExtension>
        </extensions>
      </trkpt>
      <trkpt lat="-22.09584298543632030487060546875" lon="166.44996193237602710723876953125">
        <ele>588.79998779296875</ele>
        <time>2016-08-12T18:28:08.000Z</time>
        <extensions>
          <ns3:TrackPointExtension>
            <ns3:atemp>17.0</ns3:atemp>
            <ns3:hr>138</ns3:hr>
          </ns3:TrackPointExtension>
        </extensions>
      </trkpt>
      <trkpt lat="-22.09583007730543613433837890625" lon="166.4499496109783649444580078125">
        <ele>588.79998779296875</ele>
        <time>2016-08-12T18:28:09.000Z</time>
        <extensions>
          <ns3:TrackPointExtension>
            <ns3:atemp>17.0</ns3:atemp>
            <ns3:hr>138</ns3:hr>
          </ns3:TrackPointExtension>
        </extensions>
      </trkpt>
      <trkpt lat="-22.09581616334617137908935546875" lon="166.4499400556087493896484375">
        <ele>588.5999755859375</ele>
        <time>2016-08-12T18:28:10.000Z</time>
        <extensions>
          <ns3:TrackPointExtension>
            <ns3:atemp>17.0</ns3:atemp>
            <ns3:hr>138</ns3:hr>
          </ns3:TrackPointExtension>
        </extensions>
      </trkpt>
      <trkpt lat="-22.0958023332059383392333984375" lon="166.44993008114397525787353515625">
        <ele>588.5999755859375</ele>
        <time>2016-08-12T18:28:11.000Z</time>
        <extensions>
          <ns3:TrackPointExtension>
            <ns3:atemp>17.0</ns3:atemp>
            <ns3:hr>138</ns3:hr>
          </ns3:TrackPointExtension>
        </extensions>
      </trkpt>
      <trkpt lat="-22.095794118940830230712890625" lon="166.44992169924080371856689453125">
        <ele>588.79998779296875</ele>
        <time>2016-08-12T18:28:12.000Z</time>
        <extensions>
          <ns3:TrackPointExtension>
            <ns3:atemp>17.0</ns3:atemp>
            <ns3:hr>138</ns3:hr>
          </ns3:TrackPointExtension>
        </extensions>
      </trkpt>
      <trkpt lat="-22.095783390104770660400390625" lon="166.44990761764347553253173828125">
        <ele>589</ele>
        <time>2016-08-12T18:28:13.000Z</time>
        <extensions>
          <ns3:TrackPointExtension>
            <ns3:atemp>17.0</ns3:atemp>
            <ns3:hr>138</ns3:hr>
          </ns3:TrackPointExtension>
        </extensions>
      </trkpt>
      <trkpt lat="-22.09576989524066448211669921875" lon="166.44989512860774993896484375">
        <ele>589.4000244140625</ele>
        <time>2016-08-12T18:28:14.000Z</time>
        <extensions>
          <ns3:TrackPointExtension>
            <ns3:atemp>17.0</ns3:atemp>
            <ns3:hr>138</ns3:hr>
          </ns3:TrackPointExtension>
        </extensions>
      </trkpt>
      <trkpt lat="-22.09575715474784374237060546875" lon="166.44988079555332660675048828125">
        <ele>589.5999755859375</ele>
        <time>2016-08-12T18:28:15.000Z</time>
        <extensions>
          <ns3:TrackPointExtension>
            <ns3:atemp>17.0</ns3:atemp>
            <ns3:hr>138</ns3:hr>
          </ns3:TrackPointExtension>
        </extensions>
      </trkpt>
      <trkpt lat="-22.09574282169342041015625" lon="166.449865289032459259033203125">
        <ele>589.79998779296875</ele>
        <time>2016-08-12T18:28:16.000Z</time>
        <extensions>
          <ns3:TrackPointExtension>
            <ns3:atemp>17.0</ns3:atemp>
            <ns3:hr>138</ns3:hr>
          </ns3:TrackPointExtension>
        </extensions>
      </trkpt>
      <trkpt lat="-22.09573083557188510894775390625" lon="166.44985062070190906524658203125">
        <ele>590</ele>
        <time>2016-08-12T18:28:17.000Z</time>
        <extensions>
          <ns3:TrackPointExtension>
            <ns3:atemp>17.0</ns3:atemp>
            <ns3:hr>138</ns3:hr>
          </ns3:TrackPointExtension>
        </extensions>
      </trkpt>
      <trkpt lat="-22.095719687640666961669921875" lon="166.44983720965683460235595703125">
        <ele>590</ele>
        <time>2016-08-12T18:28:18.000Z</time>
        <extensions>
          <ns3:TrackPointExtension>
            <ns3:atemp>17.0</ns3:atemp>
            <ns3:hr>138</ns3:hr>
          </ns3:TrackPointExtension>
        </extensions>
      </trkpt>
      <trkpt lat="-22.09570434875786304473876953125" lon="166.44982329569756984710693359375">
        <ele>590</ele>
        <time>2016-08-12T18:28:19.000Z</time>
        <extensions>
          <ns3:TrackPointExtension>
            <ns3:atemp>17.0</ns3:atemp>
            <ns3:hr>138</ns3:hr>
          </ns3:TrackPointExtension>
        </extensions>
      </trkpt>
      <trkpt lat="-22.09568825550377368927001953125" lon="166.44981206394731998443603515625">
        <ele>590.5999755859375</ele>
        <time>2016-08-12T18:28:20.000Z</time>
        <extensions>
          <ns3:TrackPointExtension>
            <ns3:atemp>17.0</ns3:atemp>
            <ns3:hr>137</ns3:hr>
          </ns3:TrackPointExtension>
        </extensions>
      </trkpt>
      <trkpt lat="-22.0956749282777309417724609375" lon="166.44980049692094326019287109375">
        <ele>590.5999755859375</ele>
        <time>2016-08-12T18:28:21.000Z</time>
        <extensions>
          <ns3:TrackPointExtension>
            <ns3:atemp>17.0</ns3:atemp>
            <ns3:hr>138</ns3:hr>
          </ns3:TrackPointExtension>
        </extensions>
      </trkpt>
      <trkpt lat="-22.0956631936132907867431640625" lon="166.4497856609523296356201171875">
        <ele>590.79998779296875</ele>
        <time>2016-08-12T18:28:22.000Z</time>
        <extensions>
          <ns3:TrackPointExtension>
            <ns3:atemp>17.0</ns3:atemp>
            <ns3:hr>138</ns3:hr>
          </ns3:TrackPointExtension>
        </extensions>
      </trkpt>
      <trkpt lat="-22.09565053693950176239013671875" lon="166.4497725851833820343017578125">
        <ele>591</ele>
        <time>2016-08-12T18:28:23.000Z</time>
        <extensions>
          <ns3:TrackPointExtension>
            <ns3:atemp>17.0</ns3:atemp>
            <ns3:hr>138</ns3:hr>
          </ns3:TrackPointExtension>
        </extensions>
      </trkpt>
      <trkpt lat="-22.09563561715185642242431640625" lon="166.44976101815700531005859375">
        <ele>591</ele>
        <time>2016-08-12T18:28:24.000Z</time>
        <extensions>
          <ns3:TrackPointExtension>
            <ns3:atemp>17.0</ns3:atemp>
            <ns3:hr>139</ns3:hr>
          </ns3:TrackPointExtension>
        </extensions>
      </trkpt>
      <trkpt lat="-22.0956194400787353515625" lon="166.44974702037870883941650390625">
        <ele>591</ele>
        <time>2016-08-12T18:28:25.000Z</time>
        <extensions>
          <ns3:TrackPointExtension>
            <ns3:atemp>17.0</ns3:atemp>
            <ns3:hr>139</ns3:hr>
          </ns3:TrackPointExtension>
        </extensions>
      </trkpt>
      <trkpt lat="-22.09560577757656574249267578125" lon="166.4497320167720317840576171875">
        <ele>591.4000244140625</ele>
        <time>2016-08-12T18:28:26.000Z</time>
        <extensions>
          <ns3:TrackPointExtension>
            <ns3:atemp>17.0</ns3:atemp>
            <ns3:hr>140</ns3:hr>
          </ns3:TrackPointExtension>
        </extensions>
      </trkpt>
      <trkpt lat="-22.0955937914550304412841796875" lon="166.44971852190792560577392578125">
        <ele>591.5999755859375</ele>
        <time>2016-08-12T18:28:27.000Z</time>
        <extensions>
          <ns3:TrackPointExtension>
            <ns3:atemp>17.0</ns3:atemp>
            <ns3:hr>140</ns3:hr>
          </ns3:TrackPointExtension>
        </extensions>
      </trkpt>
      <trkpt lat="-22.09557979367673397064208984375" lon="166.4497021771967411041259765625">
        <ele>591.4000244140625</ele>
        <time>2016-08-12T18:28:28.000Z</time>
        <extensions>
          <ns3:TrackPointExtension>
            <ns3:atemp>17.0</ns3:atemp>
            <ns3:hr>140</ns3:hr>
          </ns3:TrackPointExtension>
        </extensions>
      </trkpt>
      <trkpt lat="-22.09556956775486469268798828125" lon="166.4496860839426517486572265625">
        <ele>591.79998779296875</ele>
        <time>2016-08-12T18:28:29.000Z</time>
        <extensions>
          <ns3:TrackPointExtension>
            <ns3:atemp>17.0</ns3:atemp>
            <ns3:hr>140</ns3:hr>
          </ns3:TrackPointExtension>
        </extensions>
      </trkpt>
      <trkpt lat="-22.09556034766137599945068359375" lon="166.4496673084795475006103515625">
        <ele>592</ele>
        <time>2016-08-12T18:28:30.000Z</time>
        <extensions>
          <ns3:TrackPointExtension>
            <ns3:atemp>17.0</ns3:atemp>
            <ns3:hr>141</ns3:hr>
          </ns3:TrackPointExtension>
        </extensions>
      </trkpt>
      <trkpt lat="-22.09554903209209442138671875" lon="166.44964945502579212188720703125">
        <ele>592.20001220703125</ele>
        <time>2016-08-12T18:28:31.000Z</time>
        <extensions>
          <ns3:TrackPointExtension>
            <ns3:atemp>17.0</ns3:atemp>
            <ns3:hr>141</ns3:hr>
          </ns3:TrackPointExtension>
        </extensions>
      </trkpt>
      <trkpt lat="-22.0955418236553668975830078125" lon="166.449632942676544189453125">
        <ele>592.5999755859375</ele>
        <time>2016-08-12T18:28:32.000Z</time>
        <extensions>
          <ns3:TrackPointExtension>
            <ns3:atemp>17.0</ns3:atemp>
            <ns3:hr>141</ns3:hr>
          </ns3:TrackPointExtension>
        </extensions>
      </trkpt>
      <trkpt lat="-22.09553427994251251220703125" lon="166.44961349666118621826171875">
        <ele>592.5999755859375</ele>
        <time>2016-08-12T18:28:33.000Z</time>
        <extensions>
          <ns3:TrackPointExtension>
            <ns3:atemp>17.0</ns3:atemp>
            <ns3:hr>141</ns3:hr>
          </ns3:TrackPointExtension>
        </extensions>
      </trkpt>
      <trkpt lat="-22.09552866406738758087158203125" lon="166.4495928771793842315673828125">
        <ele>592.5999755859375</ele>
        <time>2016-08-12T18:28:34.000Z</time>
        <extensions>
          <ns3:TrackPointExtension>
            <ns3:atemp>17.0</ns3:atemp>
            <ns3:hr>141</ns3:hr>
          </ns3:TrackPointExtension>
        </extensions>
      </trkpt>
      <trkpt lat="-22.0955215394496917724609375" lon="166.44957418553531169891357421875">
        <ele>592.5999755859375</ele>
        <time>2016-08-12T18:28:35.000Z</time>
        <extensions>
          <ns3:TrackPointExtension>
            <ns3:atemp>17.0</ns3:atemp>
            <ns3:hr>141</ns3:hr>
          </ns3:TrackPointExtension>
        </extensions>
      </trkpt>
      <trkpt lat="-22.0955173484981060028076171875" lon="166.44955314695835113525390625">
        <ele>592.5999755859375</ele>
        <time>2016-08-12T18:28:36.000Z</time>
        <extensions>
          <ns3:TrackPointExtension>
            <ns3:atemp>17.0</ns3:atemp>
            <ns3:hr>141</ns3:hr>
          </ns3:TrackPointExtension>
        </extensions>
      </trkpt>
      <trkpt lat="-22.0955123193562030792236328125" lon="166.44953093491494655609130859375">
        <ele>592.79998779296875</ele>
        <time>2016-08-12T18:28:37.000Z</time>
        <extensions>
          <ns3:TrackPointExtension>
            <ns3:atemp>17.0</ns3:atemp>
            <ns3:hr>141</ns3:hr>
          </ns3:TrackPointExtension>
        </extensions>
      </trkpt>
      <trkpt lat="-22.09550477564334869384765625" lon="166.44951115362346172332763671875">
        <ele>593</ele>
        <time>2016-08-12T18:28:38.000Z</time>
        <extensions>
          <ns3:TrackPointExtension>
            <ns3:atemp>17.0</ns3:atemp>
            <ns3:hr>142</ns3:hr>
          </ns3:TrackPointExtension>
        </extensions>
      </trkpt>
      <trkpt lat="-22.09549178369343280792236328125" lon="166.44949170760810375213623046875">
        <ele>593.20001220703125</ele>
        <time>2016-08-12T18:28:39.000Z</time>
        <extensions>
          <ns3:TrackPointExtension>
            <ns3:atemp>17.0</ns3:atemp>
            <ns3:hr>142</ns3:hr>
          </ns3:TrackPointExtension>
        </extensions>
      </trkpt>
      <trkpt lat="-22.0954808034002780914306640625" lon="166.4494721777737140655517578125">
        <ele>593.20001220703125</ele>
        <time>2016-08-12T18:28:40.000Z</time>
        <extensions>
          <ns3:TrackPointExtension>
            <ns3:atemp>17.0</ns3:atemp>
            <ns3:hr>141</ns3:hr>
          </ns3:TrackPointExtension>
        </extensions>
      </trkpt>
      <trkpt lat="-22.09546730853617191314697265625" lon="166.4494547434151172637939453125">
        <ele>593.20001220703125</ele>
        <time>2016-08-12T18:28:41.000Z</time>
        <extensions>
          <ns3:TrackPointExtension>
            <ns3:atemp>17.0</ns3:atemp>
            <ns3:hr>142</ns3:hr>
          </ns3:TrackPointExtension>
        </extensions>
      </trkpt>
      <trkpt lat="-22.0954512991011142730712890625" lon="166.449437476694583892822265625">
        <ele>593</ele>
        <time>2016-08-12T18:28:42.000Z</time>
        <extensions>
          <ns3:TrackPointExtension>
            <ns3:atemp>17.0</ns3:atemp>
            <ns3:hr>141</ns3:hr>
          </ns3:TrackPointExtension>
        </extensions>
      </trkpt>
      <trkpt lat="-22.0954372175037860870361328125" lon="166.44942113198339939117431640625">
        <ele>593</ele>
        <time>2016-08-12T18:28:43.000Z</time>
        <extensions>
          <ns3:TrackPointExtension>
            <ns3:atemp>17.0</ns3:atemp>
            <ns3:hr>141</ns3:hr>
          </ns3:TrackPointExtension>
        </extensions>
      </trkpt>
      <trkpt lat="-22.0954187773168087005615234375" lon="166.4494078047573566436767578125">
        <ele>593</ele>
        <time>2016-08-12T18:28:44.000Z</time>
        <extensions>
          <ns3:TrackPointExtension>
            <ns3:atemp>17.0</ns3:atemp>
            <ns3:hr>141</ns3:hr>
          </ns3:TrackPointExtension>
        </extensions>
      </trkpt>
      <trkpt lat="-22.09539840929210186004638671875" lon="166.4493928849697113037109375">
        <ele>593</ele>
        <time>2016-08-12T18:28:45.000Z</time>
        <extensions>
          <ns3:TrackPointExtension>
            <ns3:atemp>17.0</ns3:atemp>
            <ns3:hr>141</ns3:hr>
          </ns3:TrackPointExtension>
        </extensions>
      </trkpt>
      <trkpt lat="-22.09537946619093418121337890625" lon="166.4493806473910808563232421875">
        <ele>593.20001220703125</ele>
        <time>2016-08-12T18:28:46.000Z</time>
        <extensions>
          <ns3:TrackPointExtension>
            <ns3:atemp>17.0</ns3:atemp>
            <ns3:hr>141</ns3:hr>
          </ns3:TrackPointExtension>
        </extensions>
      </trkpt>
      <trkpt lat="-22.09536488167941570281982421875" lon="166.4493685774505138397216796875">
        <ele>593.5999755859375</ele>
        <time>2016-08-12T18:28:47.000Z</time>
        <extensions>
          <ns3:TrackPointExtension>
            <ns3:atemp>17.0</ns3:atemp>
            <ns3:hr>141</ns3:hr>
          </ns3:TrackPointExtension>
        </extensions>
      </trkpt>
      <trkpt lat="-22.09534660913050174713134765625" lon="166.44935860298573970794677734375">
        <ele>593.4000244140625</ele>
        <time>2016-08-12T18:28:48.000Z</time>
        <extensions>
          <ns3:TrackPointExtension>
            <ns3:atemp>17.0</ns3:atemp>
            <ns3:hr>140</ns3:hr>
          </ns3:TrackPointExtension>
        </extensions>
      </trkpt>
      <trkpt lat="-22.09533043205738067626953125" lon="166.44935038872063159942626953125">
        <ele>593.4000244140625</ele>
        <time>2016-08-12T18:28:49.000Z</time>
        <extensions>
          <ns3:TrackPointExtension>
            <ns3:atemp>17.0</ns3:atemp>
            <ns3:hr>140</ns3:hr>
          </ns3:TrackPointExtension>
        </extensions>
      </trkpt>
      <trkpt lat="-22.09531391970813274383544921875" lon="166.449341587722301483154296875">
        <ele>594</ele>
        <time>2016-08-12T18:28:50.000Z</time>
        <extensions>
          <ns3:TrackPointExtension>
            <ns3:atemp>17.0</ns3:atemp>
            <ns3:hr>140</ns3:hr>
          </ns3:TrackPointExtension>
        </extensions>
      </trkpt>
      <trkpt lat="-22.09529547952115535736083984375" lon="166.4493337087333202362060546875">
        <ele>594.4000244140625</ele>
        <time>2016-08-12T18:28:51.000Z</time>
        <extensions>
          <ns3:TrackPointExtension>
            <ns3:atemp>17.0</ns3:atemp>
            <ns3:hr>140</ns3:hr>
          </ns3:TrackPointExtension>
        </extensions>
      </trkpt>
      <trkpt lat="-22.09528039209544658660888671875" lon="166.4493270032107830047607421875">
        <ele>594.5999755859375</ele>
        <time>2016-08-12T18:28:52.000Z</time>
        <extensions>
          <ns3:TrackPointExtension>
            <ns3:atemp>17.0</ns3:atemp>
            <ns3:hr>140</ns3:hr>
          </ns3:TrackPointExtension>
        </extensions>
      </trkpt>
      <trkpt lat="-22.09526563994586467742919921875" lon="166.4493179507553577423095703125">
        <ele>594.79998779296875</ele>
        <time>2016-08-12T18:28:53.000Z</time>
        <extensions>
          <ns3:TrackPointExtension>
            <ns3:atemp>17.0</ns3:atemp>
            <ns3:hr>140</ns3:hr>
          </ns3:TrackPointExtension>
        </extensions>
      </trkpt>
      <trkpt lat="-22.09524753503501415252685546875" lon="166.449308730661869049072265625">
        <ele>595</ele>
        <time>2016-08-12T18:28:54.000Z</time>
        <extensions>
          <ns3:TrackPointExtension>
            <ns3:atemp>17.0</ns3:atemp>
            <ns3:hr>140</ns3:hr>
          </ns3:TrackPointExtension>
        </extensions>
      </trkpt>
      <trkpt lat="-22.09522984921932220458984375" lon="166.449300684034824371337890625">
        <ele>595.4000244140625</ele>
        <time>2016-08-12T18:28:55.000Z</time>
        <extensions>
          <ns3:TrackPointExtension>
            <ns3:atemp>17.0</ns3:atemp>
            <ns3:hr>139</ns3:hr>
          </ns3:TrackPointExtension>
        </extensions>
      </trkpt>
      <trkpt lat="-22.09521367214620113372802734375" lon="166.449291966855525970458984375">
        <ele>595.5999755859375</ele>
        <time>2016-08-12T18:28:56.000Z</time>
        <extensions>
          <ns3:TrackPointExtension>
            <ns3:atemp>17.0</ns3:atemp>
            <ns3:hr>140</ns3:hr>
          </ns3:TrackPointExtension>
        </extensions>
      </trkpt>
      <trkpt lat="-22.09519808180630207061767578125" lon="166.4492807351052761077880859375">
        <ele>595.79998779296875</ele>
        <time>2016-08-12T18:28:57.000Z</time>
        <extensions>
          <ns3:TrackPointExtension>
            <ns3:atemp>17.0</ns3:atemp>
            <ns3:hr>140</ns3:hr>
          </ns3:TrackPointExtension>
        </extensions>
      </trkpt>
      <trkpt lat="-22.09518383257091045379638671875" lon="166.4492723532021045684814453125">
        <ele>596.20001220703125</ele>
        <time>2016-08-12T18:28:58.000Z</time>
        <extensions>
          <ns3:TrackPointExtension>
            <ns3:atemp>17.0</ns3:atemp>
            <ns3:hr>139</ns3:hr>
          </ns3:TrackPointExtension>
        </extensions>
      </trkpt>
      <trkpt lat="-22.09516681730747222900390625" lon="166.44926237873733043670654296875">
        <ele>596.4000244140625</ele>
        <time>2016-08-12T18:28:59.000Z</time>
        <extensions>
          <ns3:TrackPointExtension>
            <ns3:atemp>17.0</ns3:atemp>
            <ns3:hr>140</ns3:hr>
          </ns3:TrackPointExtension>
        </extensions>
      </trkpt>
      <trkpt lat="-22.09514846093952655792236328125" lon="166.44924913533031940460205078125">
        <ele>596.4000244140625</ele>
        <time>2016-08-12T18:29:00.000Z</time>
        <extensions>
          <ns3:TrackPointExtension>
            <ns3:atemp>17.0</ns3:atemp>
            <ns3:hr>140</ns3:hr>
          </ns3:TrackPointExtension>
        </extensions>
      </trkpt>
      <trkpt lat="-22.0951327867805957794189453125" lon="166.44923941232264041900634765625">
        <ele>596.79998779296875</ele>
        <time>2016-08-12T18:29:01.000Z</time>
        <extensions>
          <ns3:TrackPointExtension>
            <ns3:atemp>17.0</ns3:atemp>
            <ns3:hr>139</ns3:hr>
          </ns3:TrackPointExtension>
        </extensions>
      </trkpt>
      <trkpt lat="-22.0951136760413646697998046875" lon="166.44922885112464427947998046875">
        <ele>596.79998779296875</ele>
        <time>2016-08-12T18:29:02.000Z</time>
        <extensions>
          <ns3:TrackPointExtension>
            <ns3:atemp>17.0</ns3:atemp>
            <ns3:hr>139</ns3:hr>
          </ns3:TrackPointExtension>
        </extensions>
      </trkpt>
      <trkpt lat="-22.095093391835689544677734375" lon="166.44921845756471157073974609375">
        <ele>596.79998779296875</ele>
        <time>2016-08-12T18:29:03.000Z</time>
        <extensions>
          <ns3:TrackPointExtension>
            <ns3:atemp>17.0</ns3:atemp>
            <ns3:hr>139</ns3:hr>
          </ns3:TrackPointExtension>
        </extensions>
      </trkpt>
      <trkpt lat="-22.09507964551448822021484375" lon="166.449212171137332916259765625">
        <ele>597.20001220703125</ele>
        <time>2016-08-12T18:29:04.000Z</time>
        <extensions>
          <ns3:TrackPointExtension>
            <ns3:atemp>17.0</ns3:atemp>
            <ns3:hr>139</ns3:hr>
          </ns3:TrackPointExtension>
        </extensions>
      </trkpt>
      <trkpt lat="-22.0950653962790966033935546875" lon="166.44920236431062221527099609375">
        <ele>597.20001220703125</ele>
        <time>2016-08-12T18:29:05.000Z</time>
        <extensions>
          <ns3:TrackPointExtension>
            <ns3:atemp>17.0</ns3:atemp>
            <ns3:hr>140</ns3:hr>
          </ns3:TrackPointExtension>
        </extensions>
      </trkpt>
      <trkpt lat="-22.09504838101565837860107421875" lon="166.44919197075068950653076171875">
        <ele>597.20001220703125</ele>
        <time>2016-08-12T18:29:06.000Z</time>
        <extensions>
          <ns3:TrackPointExtension>
            <ns3:atemp>17.0</ns3:atemp>
            <ns3:hr>139</ns3:hr>
          </ns3:TrackPointExtension>
        </extensions>
      </trkpt>
      <trkpt lat="-22.09503312595188617706298828125" lon="166.4491821639239788055419921875">
        <ele>597.5999755859375</ele>
        <time>2016-08-12T18:29:07.000Z</time>
        <extensions>
          <ns3:TrackPointExtension>
            <ns3:atemp>17.0</ns3:atemp>
            <ns3:hr>139</ns3:hr>
          </ns3:TrackPointExtension>
        </extensions>
      </trkpt>
      <trkpt lat="-22.09501384757459163665771484375" lon="166.44917436875402927398681640625">
        <ele>598</ele>
        <time>2016-08-12T18:29:08.000Z</time>
        <extensions>
          <ns3:TrackPointExtension>
            <ns3:atemp>17.0</ns3:atemp>
            <ns3:hr>140</ns3:hr>
          </ns3:TrackPointExtension>
        </extensions>
      </trkpt>
      <trkpt lat="-22.09499238990247249603271484375" lon="166.44916615448892116546630859375">
        <ele>598</ele>
        <time>2016-08-12T18:29:09.000Z</time>
        <extensions>
          <ns3:TrackPointExtension>
            <ns3:atemp>17.0</ns3:atemp>
            <ns3:hr>139</ns3:hr>
          </ns3:TrackPointExtension>
        </extensions>
      </trkpt>
      <trkpt lat="-22.09497311152517795562744140625" lon="166.44915861077606678009033203125">
        <ele>598.20001220703125</ele>
        <time>2016-08-12T18:29:10.000Z</time>
        <extensions>
          <ns3:TrackPointExtension>
            <ns3:atemp>17.0</ns3:atemp>
            <ns3:hr>140</ns3:hr>
          </ns3:TrackPointExtension>
        </extensions>
      </trkpt>
      <trkpt lat="-22.09495299495756626129150390625" lon="166.44914872013032436370849609375">
        <ele>598.20001220703125</ele>
        <time>2016-08-12T18:29:11.000Z</time>
        <extensions>
          <ns3:TrackPointExtension>
            <ns3:atemp>17.0</ns3:atemp>
            <ns3:hr>140</ns3:hr>
          </ns3:TrackPointExtension>
        </extensions>
      </trkpt>
      <trkpt lat="-22.09493354894220829010009765625" lon="166.449139751493930816650390625">
        <ele>598.20001220703125</ele>
        <time>2016-08-12T18:29:12.000Z</time>
        <extensions>
          <ns3:TrackPointExtension>
            <ns3:atemp>17.0</ns3:atemp>
            <ns3:hr>140</ns3:hr>
          </ns3:TrackPointExtension>
        </extensions>
      </trkpt>
      <trkpt lat="-22.09491225890815258026123046875" lon="166.44913027994334697723388671875">
        <ele>598.20001220703125</ele>
        <time>2016-08-12T18:29:13.000Z</time>
        <extensions>
          <ns3:TrackPointExtension>
            <ns3:atemp>17.0</ns3:atemp>
            <ns3:hr>140</ns3:hr>
          </ns3:TrackPointExtension>
        </extensions>
      </trkpt>
      <trkpt lat="-22.09489298053085803985595703125" lon="166.44912055693566799163818359375">
        <ele>598.4000244140625</ele>
        <time>2016-08-12T18:29:14.000Z</time>
        <extensions>
          <ns3:TrackPointExtension>
            <ns3:atemp>17.0</ns3:atemp>
            <ns3:hr>140</ns3:hr>
          </ns3:TrackPointExtension>
        </extensions>
      </trkpt>
      <trkpt lat="-22.0948776416480541229248046875" lon="166.44911066628992557525634765625">
        <ele>598.4000244140625</ele>
        <time>2016-08-12T18:29:15.000Z</time>
        <extensions>
          <ns3:TrackPointExtension>
            <ns3:atemp>17.0</ns3:atemp>
            <ns3:hr>140</ns3:hr>
          </ns3:TrackPointExtension>
        </extensions>
      </trkpt>
      <trkpt lat="-22.09486230276525020599365234375" lon="166.4491000212728977203369140625">
        <ele>598.4000244140625</ele>
        <time>2016-08-12T18:29:16.000Z</time>
        <extensions>
          <ns3:TrackPointExtension>
            <ns3:atemp>17.0</ns3:atemp>
            <ns3:hr>140</ns3:hr>
          </ns3:TrackPointExtension>
        </extensions>
      </trkpt>
      <trkpt lat="-22.094839252531528472900390625" lon="166.4490896277129650115966796875">
        <ele>598.79998779296875</ele>
        <time>2016-08-12T18:29:17.000Z</time>
        <extensions>
          <ns3:TrackPointExtension>
            <ns3:atemp>17.0</ns3:atemp>
            <ns3:hr>141</ns3:hr>
          </ns3:TrackPointExtension>
        </extensions>
      </trkpt>
      <trkpt lat="-22.09481821395456790924072265625" lon="166.44908107817173004150390625">
        <ele>599</ele>
        <time>2016-08-12T18:29:18.000Z</time>
        <extensions>
          <ns3:TrackPointExtension>
            <ns3:atemp>17.0</ns3:atemp>
            <ns3:hr>140</ns3:hr>
          </ns3:TrackPointExtension>
        </extensions>
      </trkpt>
      <trkpt lat="-22.09479776211082935333251953125" lon="166.4490738697350025177001953125">
        <ele>599</ele>
        <time>2016-08-12T18:29:19.000Z</time>
        <extensions>
          <ns3:TrackPointExtension>
            <ns3:atemp>17.0</ns3:atemp>
            <ns3:hr>141</ns3:hr>
          </ns3:TrackPointExtension>
        </extensions>
      </trkpt>
      <trkpt lat="-22.09477395750582218170166015625" lon="166.44906557165086269378662109375">
        <ele>599</ele>
        <time>2016-08-12T18:29:20.000Z</time>
        <extensions>
          <ns3:TrackPointExtension>
            <ns3:atemp>17.0</ns3:atemp>
            <ns3:hr>141</ns3:hr>
          </ns3:TrackPointExtension>
        </extensions>
      </trkpt>
      <trkpt lat="-22.09475182928144931793212890625" lon="166.449059955775737762451171875">
        <ele>599</ele>
        <time>2016-08-12T18:29:21.000Z</time>
        <extensions>
          <ns3:TrackPointExtension>
            <ns3:atemp>17.0</ns3:atemp>
            <ns3:hr>141</ns3:hr>
          </ns3:TrackPointExtension>
        </extensions>
      </trkpt>
      <trkpt lat="-22.094731628894805908203125" lon="166.44905601628124713897705078125">
        <ele>599</ele>
        <time>2016-08-12T18:29:22.000Z</time>
        <extensions>
          <ns3:TrackPointExtension>
            <ns3:atemp>17.0</ns3:atemp>
            <ns3:hr>141</ns3:hr>
          </ns3:TrackPointExtension>
        </extensions>
      </trkpt>
      <trkpt lat="-22.09470941685140132904052734375" lon="166.4490537531673908233642578125">
        <ele>599.20001220703125</ele>
        <time>2016-08-12T18:29:23.000Z</time>
        <extensions>
          <ns3:TrackPointExtension>
            <ns3:atemp>17.0</ns3:atemp>
            <ns3:hr>141</ns3:hr>
          </ns3:TrackPointExtension>
        </extensions>
      </trkpt>
      <trkpt lat="-22.09468997083604335784912109375" lon="166.44904981367290019989013671875">
        <ele>599.20001220703125</ele>
        <time>2016-08-12T18:29:24.000Z</time>
        <extensions>
          <ns3:TrackPointExtension>
            <ns3:atemp>17.0</ns3:atemp>
            <ns3:hr>141</ns3:hr>
          </ns3:TrackPointExtension>
        </extensions>
      </trkpt>
      <trkpt lat="-22.09467002190649509429931640625" lon="166.44904310815036296844482421875">
        <ele>599.4000244140625</ele>
        <time>2016-08-12T18:29:25.000Z</time>
        <extensions>
          <ns3:TrackPointExtension>
            <ns3:atemp>17.0</ns3:atemp>
            <ns3:hr>141</ns3:hr>
          </ns3:TrackPointExtension>
        </extensions>
      </trkpt>
      <trkpt lat="-22.09464990533888339996337890625" lon="166.4490386657416820526123046875">
        <ele>599.5999755859375</ele>
        <time>2016-08-12T18:29:26.000Z</time>
        <extensions>
          <ns3:TrackPointExtension>
            <ns3:atemp>17.0</ns3:atemp>
            <ns3:hr>141</ns3:hr>
          </ns3:TrackPointExtension>
        </extensions>
      </trkpt>
      <trkpt lat="-22.09463213570415973663330078125" lon="166.44903120584785938262939453125">
        <ele>599.79998779296875</ele>
        <time>2016-08-12T18:29:27.000Z</time>
        <extensions>
          <ns3:TrackPointExtension>
            <ns3:atemp>17.0</ns3:atemp>
            <ns3:hr>141</ns3:hr>
          </ns3:TrackPointExtension>
        </extensions>
      </trkpt>
      <trkpt lat="-22.094613611698150634765625" lon="166.44902232103049755096435546875">
        <ele>600</ele>
        <time>2016-08-12T18:29:28.000Z</time>
        <extensions>
          <ns3:TrackPointExtension>
            <ns3:atemp>17.0</ns3:atemp>
            <ns3:hr>141</ns3:hr>
          </ns3:TrackPointExtension>
        </extensions>
      </trkpt>
      <trkpt lat="-22.0945963449776172637939453125" lon="166.44901209510862827301025390625">
        <ele>600.4000244140625</ele>
        <time>2016-08-12T18:29:29.000Z</time>
        <extensions>
          <ns3:TrackPointExtension>
            <ns3:atemp>17.0</ns3:atemp>
            <ns3:hr>141</ns3:hr>
          </ns3:TrackPointExtension>
        </extensions>
      </trkpt>
      <trkpt lat="-22.094579078257083892822265625" lon="166.4490012824535369873046875">
        <ele>600.5999755859375</ele>
        <time>2016-08-12T18:29:30.000Z</time>
        <extensions>
          <ns3:TrackPointExtension>
            <ns3:atemp>17.0</ns3:atemp>
            <ns3:hr>141</ns3:hr>
          </ns3:TrackPointExtension>
        </extensions>
      </trkpt>
      <trkpt lat="-22.0945648290216922760009765625" lon="166.448988877236843109130859375">
        <ele>600.79998779296875</ele>
        <time>2016-08-12T18:29:31.000Z</time>
        <extensions>
          <ns3:TrackPointExtension>
            <ns3:atemp>17.0</ns3:atemp>
            <ns3:hr>141</ns3:hr>
          </ns3:TrackPointExtension>
        </extensions>
      </trkpt>
      <trkpt lat="-22.09455217234790325164794921875" lon="166.44897504709661006927490234375">
        <ele>600.79998779296875</ele>
        <time>2016-08-12T18:29:32.000Z</time>
        <extensions>
          <ns3:TrackPointExtension>
            <ns3:atemp>17.0</ns3:atemp>
            <ns3:hr>141</ns3:hr>
          </ns3:TrackPointExtension>
        </extensions>
      </trkpt>
      <trkpt lat="-22.0945406891405582427978515625" lon="166.4489610493183135986328125">
        <ele>601</ele>
        <time>2016-08-12T18:29:33.000Z</time>
        <extensions>
          <ns3:TrackPointExtension>
            <ns3:atemp>17.0</ns3:atemp>
            <ns3:hr>141</ns3:hr>
          </ns3:TrackPointExtension>
        </extensions>
      </trkpt>
      <trkpt lat="-22.09453172050416469573974609375" lon="166.44894587807357311248779296875">
        <ele>601</ele>
        <time>2016-08-12T18:29:34.000Z</time>
        <extensions>
          <ns3:TrackPointExtension>
            <ns3:atemp>17.0</ns3:atemp>
            <ns3:hr>141</ns3:hr>
          </ns3:TrackPointExtension>
        </extensions>
      </trkpt>
      <trkpt lat="-22.0945235900580883026123046875" lon="166.448930203914642333984375">
        <ele>601</ele>
        <time>2016-08-12T18:29:35.000Z</time>
        <extensions>
          <ns3:TrackPointExtension>
            <ns3:atemp>17.0</ns3:atemp>
            <ns3:hr>141</ns3:hr>
          </ns3:TrackPointExtension>
        </extensions>
      </trkpt>
      <trkpt lat="-22.0945155434310436248779296875" lon="166.4489169605076313018798828125">
        <ele>601.20001220703125</ele>
        <time>2016-08-12T18:29:36.000Z</time>
        <extensions>
          <ns3:TrackPointExtension>
            <ns3:atemp>17.0</ns3:atemp>
            <ns3:hr>141</ns3:hr>
          </ns3:TrackPointExtension>
        </extensions>
      </trkpt>
      <trkpt lat="-22.094506323337554931640625" lon="166.4489045552909374237060546875">
        <ele>601.20001220703125</ele>
        <time>2016-08-12T18:29:37.000Z</time>
        <extensions>
          <ns3:TrackPointExtension>
            <ns3:atemp>17.0</ns3:atemp>
            <ns3:hr>141</ns3:hr>
          </ns3:TrackPointExtension>
        </extensions>
      </trkpt>
      <trkpt lat="-22.09449467249214649200439453125" lon="166.44889575429260730743408203125">
        <ele>601.20001220703125</ele>
        <time>2016-08-12T18:29:38.000Z</time>
        <extensions>
          <ns3:TrackPointExtension>
            <ns3:atemp>17.0</ns3:atemp>
            <ns3:hr>140</ns3:hr>
          </ns3:TrackPointExtension>
        </extensions>
      </trkpt>
      <trkpt lat="-22.09447748959064483642578125" lon="166.4488881267607212066650390625">
        <ele>601.20001220703125</ele>
        <time>2016-08-12T18:29:39.000Z</time>
        <extensions>
          <ns3:TrackPointExtension>
            <ns3:atemp>17.0</ns3:atemp>
            <ns3:hr>140</ns3:hr>
          </ns3:TrackPointExtension>
        </extensions>
      </trkpt>
      <trkpt lat="-22.09446273744106292724609375" lon="166.44888150505721569061279296875">
        <ele>601.4000244140625</ele>
        <time>2016-08-12T18:29:40.000Z</time>
        <extensions>
          <ns3:TrackPointExtension>
            <ns3:atemp>17.0</ns3:atemp>
            <ns3:hr>140</ns3:hr>
          </ns3:TrackPointExtension>
        </extensions>
      </trkpt>
      <trkpt lat="-22.0944491587579250335693359375" lon="166.44887463189661502838134765625">
        <ele>601.4000244140625</ele>
        <time>2016-08-12T18:29:41.000Z</time>
        <extensions>
          <ns3:TrackPointExtension>
            <ns3:atemp>17.0</ns3:atemp>
            <ns3:hr>140</ns3:hr>
          </ns3:TrackPointExtension>
        </extensions>
      </trkpt>
      <trkpt lat="-22.09443599916994571685791015625" lon="166.44886172376573085784912109375">
        <ele>601.79998779296875</ele>
        <time>2016-08-12T18:29:42.000Z</time>
        <extensions>
          <ns3:TrackPointExtension>
            <ns3:atemp>17.0</ns3:atemp>
            <ns3:hr>140</ns3:hr>
          </ns3:TrackPointExtension>
        </extensions>
      </trkpt>
      <trkpt lat="-22.09442493505775928497314453125" lon="166.44884797744452953338623046875">
        <ele>602</ele>
        <time>2016-08-12T18:29:43.000Z</time>
        <extensions>
          <ns3:TrackPointExtension>
            <ns3:atemp>17.0</ns3:atemp>
            <ns3:hr>140</ns3:hr>
          </ns3:TrackPointExtension>
        </extensions>
      </trkpt>
      <trkpt lat="-22.0944137871265411376953125" lon="166.44883842207491397857666015625">
        <ele>602.20001220703125</ele>
        <time>2016-08-12T18:29:44.000Z</time>
        <extensions>
          <ns3:TrackPointExtension>
            <ns3:atemp>17.0</ns3:atemp>
            <ns3:hr>140</ns3:hr>
          </ns3:TrackPointExtension>
        </extensions>
      </trkpt>
      <trkpt lat="-22.0944002084434032440185546875" lon="166.44882769323885440826416015625">
        <ele>602.4000244140625</ele>
        <time>2016-08-12T18:29:45.000Z</time>
        <extensions>
          <ns3:TrackPointExtension>
            <ns3:atemp>17.0</ns3:atemp>
            <ns3:hr>140</ns3:hr>
          </ns3:TrackPointExtension>
        </extensions>
      </trkpt>
      <trkpt lat="-22.09438621066510677337646484375" lon="166.4488180540502071380615234375">
        <ele>602.5999755859375</ele>
        <time>2016-08-12T18:29:46.000Z</time>
        <extensions>
          <ns3:TrackPointExtension>
            <ns3:atemp>17.0</ns3:atemp>
            <ns3:hr>140</ns3:hr>
          </ns3:TrackPointExtension>
        </extensions>
      </trkpt>
      <trkpt lat="-22.09437548182904720306396484375" lon="166.4488106779754161834716796875">
        <ele>602.79998779296875</ele>
        <time>2016-08-12T18:29:47.000Z</time>
        <extensions>
          <ns3:TrackPointExtension>
            <ns3:atemp>17.0</ns3:atemp>
            <ns3:hr>140</ns3:hr>
          </ns3:TrackPointExtension>
        </extensions>
      </trkpt>
      <trkpt lat="-22.0943663455545902252197265625" lon="166.44880078732967376708984375">
        <ele>602.79998779296875</ele>
        <time>2016-08-12T18:29:48.000Z</time>
        <extensions>
          <ns3:TrackPointExtension>
            <ns3:atemp>17.0</ns3:atemp>
            <ns3:hr>140</ns3:hr>
          </ns3:TrackPointExtension>
        </extensions>
      </trkpt>
      <trkpt lat="-22.0943536050617694854736328125" lon="166.44878997467458248138427734375">
        <ele>603.20001220703125</ele>
        <time>2016-08-12T18:29:49.000Z</time>
        <extensions>
          <ns3:TrackPointExtension>
            <ns3:atemp>17.0</ns3:atemp>
            <ns3:hr>140</ns3:hr>
          </ns3:TrackPointExtension>
        </extensions>
      </trkpt>
      <trkpt lat="-22.09434212185442447662353515625" lon="166.448778323829174041748046875">
        <ele>603.4000244140625</ele>
        <time>2016-08-12T18:29:50.000Z</time>
        <extensions>
          <ns3:TrackPointExtension>
            <ns3:atemp>17.0</ns3:atemp>
            <ns3:hr>140</ns3:hr>
          </ns3:TrackPointExtension>
        </extensions>
      </trkpt>
      <trkpt lat="-22.094330973923206329345703125" lon="166.44876633770763874053955078125">
        <ele>603.5999755859375</ele>
        <time>2016-08-12T18:29:51.000Z</time>
        <extensions>
          <ns3:TrackPointExtension>
            <ns3:atemp>17.0</ns3:atemp>
            <ns3:hr>140</ns3:hr>
          </ns3:TrackPointExtension>
        </extensions>
      </trkpt>
      <trkpt lat="-22.0943177305161952972412109375" lon="166.44875560887157917022705078125">
        <ele>603.79998779296875</ele>
        <time>2016-08-12T18:29:52.000Z</time>
        <extensions>
          <ns3:TrackPointExtension>
            <ns3:atemp>17.0</ns3:atemp>
            <ns3:hr>140</ns3:hr>
          </ns3:TrackPointExtension>
        </extensions>
      </trkpt>
      <trkpt lat="-22.09430180490016937255859375" lon="166.44874772988259792327880859375">
        <ele>603.79998779296875</ele>
        <time>2016-08-12T18:29:53.000Z</time>
        <extensions>
          <ns3:TrackPointExtension>
            <ns3:atemp>17.0</ns3:atemp>
            <ns3:hr>140</ns3:hr>
          </ns3:TrackPointExtension>
        </extensions>
      </trkpt>
      <trkpt lat="-22.09428629837930202484130859375" lon="166.44874085672199726104736328125">
        <ele>604.20001220703125</ele>
        <time>2016-08-12T18:29:54.000Z</time>
        <extensions>
          <ns3:TrackPointExtension>
            <ns3:atemp>17.0</ns3:atemp>
            <ns3:hr>140</ns3:hr>
          </ns3:TrackPointExtension>
        </extensions>
      </trkpt>
      <trkpt lat="-22.09427003748714923858642578125" lon="166.448731720447540283203125">
        <ele>604.20001220703125</ele>
        <time>2016-08-12T18:29:55.000Z</time>
        <extensions>
          <ns3:TrackPointExtension>
            <ns3:atemp>17.0</ns3:atemp>
            <ns3:hr>140</ns3:hr>
          </ns3:TrackPointExtension>
        </extensions>
      </trkpt>
      <trkpt lat="-22.0942500047385692596435546875" lon="166.44872459582984447479248046875">
        <ele>604.4000244140625</ele>
        <time>2016-08-12T18:29:56.000Z</time>
        <extensions>
          <ns3:TrackPointExtension>
            <ns3:atemp>17.0</ns3:atemp>
            <ns3:hr>141</ns3:hr>
          </ns3:TrackPointExtension>
        </extensions>
      </trkpt>
      <trkpt lat="-22.09423215128481388092041015625" lon="166.44871973432600498199462890625">
        <ele>604.5999755859375</ele>
        <time>2016-08-12T18:29:57.000Z</time>
        <extensions>
          <ns3:TrackPointExtension>
            <ns3:atemp>17.0</ns3:atemp>
            <ns3:hr>141</ns3:hr>
          </ns3:TrackPointExtension>
        </extensions>
      </trkpt>
      <trkpt lat="-22.0942158065736293792724609375" lon="166.44871302880346775054931640625">
        <ele>604.79998779296875</ele>
        <time>2016-08-12T18:29:58.000Z</time>
        <extensions>
          <ns3:TrackPointExtension>
            <ns3:atemp>17.0</ns3:atemp>
            <ns3:hr>140</ns3:hr>
          </ns3:TrackPointExtension>
        </extensions>
      </trkpt>
      <trkpt lat="-22.0941973663866519927978515625" lon="166.44870556890964508056640625">
        <ele>604.5999755859375</ele>
        <time>2016-08-12T18:29:59.000Z</time>
        <extensions>
          <ns3:TrackPointExtension>
            <ns3:atemp>17.0</ns3:atemp>
            <ns3:hr>141</ns3:hr>
          </ns3:TrackPointExtension>
        </extensions>
      </trkpt>
      <trkpt lat="-22.09418035112321376800537109375" lon="166.44870062358677387237548828125">
        <ele>604.5999755859375</ele>
        <time>2016-08-12T18:30:00.000Z</time>
        <extensions>
          <ns3:TrackPointExtension>
            <ns3:atemp>17.0</ns3:atemp>
            <ns3:hr>141</ns3:hr>
          </ns3:TrackPointExtension>
        </extensions>
      </trkpt>
      <trkpt lat="-22.09416409023106098175048828125" lon="166.4486966840922832489013671875">
        <ele>604.5999755859375</ele>
        <time>2016-08-12T18:30:01.000Z</time>
        <extensions>
          <ns3:TrackPointExtension>
            <ns3:atemp>17.0</ns3:atemp>
            <ns3:hr>141</ns3:hr>
          </ns3:TrackPointExtension>
        </extensions>
      </trkpt>
      <trkpt lat="-22.09415026009082794189453125" lon="166.4486889727413654327392578125">
        <ele>605</ele>
        <time>2016-08-12T18:30:02.000Z</time>
        <extensions>
          <ns3:TrackPointExtension>
            <ns3:atemp>17.0</ns3:atemp>
            <ns3:hr>141</ns3:hr>
          </ns3:TrackPointExtension>
        </extensions>
      </trkpt>
      <trkpt lat="-22.09413550794124603271484375" lon="166.44867933355271816253662109375">
        <ele>605.4000244140625</ele>
        <time>2016-08-12T18:30:03.000Z</time>
        <extensions>
          <ns3:TrackPointExtension>
            <ns3:atemp>17.0</ns3:atemp>
            <ns3:hr>141</ns3:hr>
          </ns3:TrackPointExtension>
        </extensions>
      </trkpt>
      <trkpt lat="-22.094118408858776092529296875" lon="166.44867011345922946929931640625">
        <ele>605.5999755859375</ele>
        <time>2016-08-12T18:30:04.000Z</time>
        <extensions>
          <ns3:TrackPointExtension>
            <ns3:atemp>17.0</ns3:atemp>
            <ns3:hr>141</ns3:hr>
          </ns3:TrackPointExtension>
        </extensions>
      </trkpt>
      <trkpt lat="-22.09410332143306732177734375" lon="166.44866106100380420684814453125">
        <ele>605.79998779296875</ele>
        <time>2016-08-12T18:30:05.000Z</time>
        <extensions>
          <ns3:TrackPointExtension>
            <ns3:atemp>17.0</ns3:atemp>
            <ns3:hr>142</ns3:hr>
          </ns3:TrackPointExtension>
        </extensions>
      </trkpt>
      <trkpt lat="-22.09408697672188282012939453125" lon="166.44864999689161777496337890625">
        <ele>605.79998779296875</ele>
        <time>2016-08-12T18:30:06.000Z</time>
        <extensions>
          <ns3:TrackPointExtension>
            <ns3:atemp>17.0</ns3:atemp>
            <ns3:hr>142</ns3:hr>
          </ns3:TrackPointExtension>
        </extensions>
      </trkpt>
      <trkpt lat="-22.09407725371420383453369140625" lon="166.4486380107700824737548828125">
        <ele>605.79998779296875</ele>
        <time>2016-08-12T18:30:07.000Z</time>
        <extensions>
          <ns3:TrackPointExtension>
            <ns3:atemp>17.0</ns3:atemp>
            <ns3:hr>142</ns3:hr>
          </ns3:TrackPointExtension>
        </extensions>
      </trkpt>
      <trkpt lat="-22.0940676145255565643310546875" lon="166.44862753339111804962158203125">
        <ele>605.79998779296875</ele>
        <time>2016-08-12T18:30:08.000Z</time>
        <extensions>
          <ns3:TrackPointExtension>
            <ns3:atemp>17.0</ns3:atemp>
            <ns3:hr>142</ns3:hr>
          </ns3:TrackPointExtension>
        </extensions>
      </trkpt>
      <trkpt lat="-22.0940538682043552398681640625" lon="166.4486219175159931182861328125">
        <ele>605.5999755859375</ele>
        <time>2016-08-12T18:30:09.000Z</time>
        <extensions>
          <ns3:TrackPointExtension>
            <ns3:atemp>17.0</ns3:atemp>
            <ns3:hr>142</ns3:hr>
          </ns3:TrackPointExtension>
        </extensions>
      </trkpt>
      <trkpt lat="-22.09404087625443935394287109375" lon="166.448620073497295379638671875">
        <ele>605.79998779296875</ele>
        <time>2016-08-12T18:30:10.000Z</time>
        <extensions>
          <ns3:TrackPointExtension>
            <ns3:atemp>17.0</ns3:atemp>
            <ns3:hr>142</ns3:hr>
          </ns3:TrackPointExtension>
        </extensions>
      </trkpt>
      <trkpt lat="-22.09402821958065032958984375" lon="166.44861915148794651031494140625">
        <ele>606</ele>
        <time>2016-08-12T18:30:11.000Z</time>
        <extensions>
          <ns3:TrackPointExtension>
            <ns3:atemp>17.0</ns3:atemp>
            <ns3:hr>142</ns3:hr>
          </ns3:TrackPointExtension>
        </extensions>
      </trkpt>
      <trkpt lat="-22.09401472471654415130615234375" lon="166.448616050183773040771484375">
        <ele>606.20001220703125</ele>
        <time>2016-08-12T18:30:12.000Z</time>
        <extensions>
          <ns3:TrackPointExtension>
            <ns3:atemp>17.0</ns3:atemp>
            <ns3:hr>142</ns3:hr>
          </ns3:TrackPointExtension>
        </extensions>
      </trkpt>
      <trkpt lat="-22.09400231949985027313232421875" lon="166.4486081711947917938232421875">
        <ele>606.4000244140625</ele>
        <time>2016-08-12T18:30:13.000Z</time>
        <extensions>
          <ns3:TrackPointExtension>
            <ns3:atemp>17.0</ns3:atemp>
            <ns3:hr>141</ns3:hr>
          </ns3:TrackPointExtension>
        </extensions>
      </trkpt>
      <trkpt lat="-22.09399142302572727203369140625" lon="166.448597609996795654296875">
        <ele>606.4000244140625</ele>
        <time>2016-08-12T18:30:14.000Z</time>
        <extensions>
          <ns3:TrackPointExtension>
            <ns3:atemp>17.0</ns3:atemp>
            <ns3:hr>141</ns3:hr>
          </ns3:TrackPointExtension>
        </extensions>
      </trkpt>
      <trkpt lat="-22.0939801074564456939697265625" lon="166.4485895633697509765625">
        <ele>606.20001220703125</ele>
        <time>2016-08-12T18:30:15.000Z</time>
        <extensions>
          <ns3:TrackPointExtension>
            <ns3:atemp>17.0</ns3:atemp>
            <ns3:hr>141</ns3:hr>
          </ns3:TrackPointExtension>
        </extensions>
      </trkpt>
      <trkpt lat="-22.09397432394325733184814453125" lon="166.44858419895172119140625">
        <ele>606.20001220703125</ele>
        <time>2016-08-12T18:30:16.000Z</time>
        <extensions>
          <ns3:TrackPointExtension>
            <ns3:atemp>17.0</ns3:atemp>
            <ns3:hr>140</ns3:hr>
          </ns3:TrackPointExtension>
        </extensions>
      </trkpt>
      <trkpt lat="-22.09396577440202236175537109375" lon="166.44858126528561115264892578125">
        <ele>606.4000244140625</ele>
        <time>2016-08-12T18:30:17.000Z</time>
        <extensions>
          <ns3:TrackPointExtension>
            <ns3:atemp>17.0</ns3:atemp>
            <ns3:hr>140</ns3:hr>
          </ns3:TrackPointExtension>
        </extensions>
      </trkpt>
      <trkpt lat="-22.093956470489501953125" lon="166.44857791252434253692626953125">
        <ele>606.4000244140625</ele>
        <time>2016-08-12T18:30:18.000Z</time>
        <extensions>
          <ns3:TrackPointExtension>
            <ns3:atemp>17.0</ns3:atemp>
            <ns3:hr>139</ns3:hr>
          </ns3:TrackPointExtension>
        </extensions>
      </trkpt>
      <trkpt lat="-22.0939449034631252288818359375" lon="166.44857539795339107513427734375">
        <ele>606.5999755859375</ele>
        <time>2016-08-12T18:30:19.000Z</time>
        <extensions>
          <ns3:TrackPointExtension>
            <ns3:atemp>17.0</ns3:atemp>
            <ns3:hr>139</ns3:hr>
          </ns3:TrackPointExtension>
        </extensions>
      </trkpt>
      <trkpt lat="-22.09393476136028766632080078125" lon="166.44857347011566162109375">
        <ele>606.79998779296875</ele>
        <time>2016-08-12T18:30:20.000Z</time>
        <extensions>
          <ns3:TrackPointExtension>
            <ns3:atemp>17.0</ns3:atemp>
            <ns3:hr>139</ns3:hr>
          </ns3:TrackPointExtension>
        </extensions>
      </trkpt>
      <trkpt lat="-22.0939237810671329498291015625" lon="166.44857036881148815155029296875">
        <ele>607</ele>
        <time>2016-08-12T18:30:21.000Z</time>
        <extensions>
          <ns3:TrackPointExtension>
            <ns3:atemp>17.0</ns3:atemp>
            <ns3:hr>139</ns3:hr>
          </ns3:TrackPointExtension>
        </extensions>
      </trkpt>
      <trkpt lat="-22.09391330368816852569580078125" lon="166.44856567494571208953857421875">
        <ele>607.20001220703125</ele>
        <time>2016-08-12T18:30:22.000Z</time>
        <extensions>
          <ns3:TrackPointExtension>
            <ns3:atemp>17.0</ns3:atemp>
            <ns3:hr>138</ns3:hr>
          </ns3:TrackPointExtension>
        </extensions>
      </trkpt>
      <trkpt lat="-22.09390391595661640167236328125" lon="166.44856181927025318145751953125">
        <ele>607.4000244140625</ele>
        <time>2016-08-12T18:30:23.000Z</time>
        <extensions>
          <ns3:TrackPointExtension>
            <ns3:atemp>17.0</ns3:atemp>
            <ns3:hr>138</ns3:hr>
          </ns3:TrackPointExtension>
        </extensions>
      </trkpt>
      <trkpt lat="-22.09389067254960536956787109375" lon="166.4485632441937923431396484375">
        <ele>607.5999755859375</ele>
        <time>2016-08-12T18:30:24.000Z</time>
        <extensions>
          <ns3:TrackPointExtension>
            <ns3:atemp>17.0</ns3:atemp>
            <ns3:hr>138</ns3:hr>
          </ns3:TrackPointExtension>
        </extensions>
      </trkpt>
      <trkpt lat="-22.093879692256450653076171875" lon="166.44856475293636322021484375">
        <ele>607.5999755859375</ele>
        <time>2016-08-12T18:30:25.000Z</time>
        <extensions>
          <ns3:TrackPointExtension>
            <ns3:atemp>17.0</ns3:atemp>
            <ns3:hr>137</ns3:hr>
          </ns3:TrackPointExtension>
        </extensions>
      </trkpt>
      <trkpt lat="-22.093869633972644805908203125" lon="166.44856207072734832763671875">
        <ele>607.79998779296875</ele>
        <time>2016-08-12T18:30:26.000Z</time>
        <extensions>
          <ns3:TrackPointExtension>
            <ns3:atemp>17.0</ns3:atemp>
            <ns3:hr>137</ns3:hr>
          </ns3:TrackPointExtension>
        </extensions>
      </trkpt>
      <trkpt lat="-22.09385882131755352020263671875" lon="166.448559723794460296630859375">
        <ele>607.79998779296875</ele>
        <time>2016-08-12T18:30:27.000Z</time>
        <extensions>
          <ns3:TrackPointExtension>
            <ns3:atemp>17.0</ns3:atemp>
            <ns3:hr>137</ns3:hr>
          </ns3:TrackPointExtension>
        </extensions>
      </trkpt>
      <trkpt lat="-22.0938478410243988037109375" lon="166.44855628721415996551513671875">
        <ele>608</ele>
        <time>2016-08-12T18:30:28.000Z</time>
        <extensions>
          <ns3:TrackPointExtension>
            <ns3:atemp>17.0</ns3:atemp>
            <ns3:hr>137</ns3:hr>
          </ns3:TrackPointExtension>
        </extensions>
      </trkpt>
      <trkpt lat="-22.0938389562070369720458984375" lon="166.448553018271923065185546875">
        <ele>608.20001220703125</ele>
        <time>2016-08-12T18:30:29.000Z</time>
        <extensions>
          <ns3:TrackPointExtension>
            <ns3:atemp>17.0</ns3:atemp>
            <ns3:hr>137</ns3:hr>
          </ns3:TrackPointExtension>
        </extensions>
      </trkpt>
      <trkpt lat="-22.0938285626471042633056640625" lon="166.44855209626257419586181640625">
        <ele>608.20001220703125</ele>
        <time>2016-08-12T18:30:30.000Z</time>
        <extensions>
          <ns3:TrackPointExtension>
            <ns3:atemp>17.0</ns3:atemp>
            <ns3:hr>137</ns3:hr>
          </ns3:TrackPointExtension>
        </extensions>
      </trkpt>
      <trkpt lat="-22.0938174985349178314208984375" lon="166.4485484920442104339599609375">
        <ele>608.4000244140625</ele>
        <time>2016-08-12T18:30:31.000Z</time>
        <extensions>
          <ns3:TrackPointExtension>
            <ns3:atemp>17.0</ns3:atemp>
            <ns3:hr>137</ns3:hr>
          </ns3:TrackPointExtension>
        </extensions>
      </trkpt>
      <trkpt lat="-22.09380266256630420684814453125" lon="166.44854455254971981048583984375">
        <ele>608.5999755859375</ele>
        <time>2016-08-12T18:30:32.000Z</time>
        <extensions>
          <ns3:TrackPointExtension>
            <ns3:atemp>17.0</ns3:atemp>
            <ns3:hr>137</ns3:hr>
          </ns3:TrackPointExtension>
        </extensions>
      </trkpt>
      <trkpt lat="-22.093792855739593505859375" lon="166.4485431276261806488037109375">
        <ele>608.5999755859375</ele>
        <time>2016-08-12T18:30:33.000Z</time>
        <extensions>
          <ns3:TrackPointExtension>
            <ns3:atemp>17.0</ns3:atemp>
            <ns3:hr>136</ns3:hr>
          </ns3:TrackPointExtension>
        </extensions>
      </trkpt>
      <trkpt lat="-22.0937819592654705047607421875" lon="166.4485380984842777252197265625">
        <ele>608.79998779296875</ele>
        <time>2016-08-12T18:30:34.000Z</time>
        <extensions>
          <ns3:TrackPointExtension>
            <ns3:atemp>17.0</ns3:atemp>
            <ns3:hr>136</ns3:hr>
          </ns3:TrackPointExtension>
        </extensions>
      </trkpt>
      <trkpt lat="-22.09377382881939411163330078125" lon="166.44853265024721622467041015625">
        <ele>609</ele>
        <time>2016-08-12T18:30:35.000Z</time>
        <extensions>
          <ns3:TrackPointExtension>
            <ns3:atemp>17.0</ns3:atemp>
            <ns3:hr>136</ns3:hr>
          </ns3:TrackPointExtension>
        </extensions>
      </trkpt>
      <trkpt lat="-22.09376846440136432647705078125" lon="166.44852988421916961669921875">
        <ele>609.20001220703125</ele>
        <time>2016-08-12T18:30:36.000Z</time>
        <extensions>
          <ns3:TrackPointExtension>
            <ns3:atemp>17.0</ns3:atemp>
            <ns3:hr>136</ns3:hr>
          </ns3:TrackPointExtension>
        </extensions>
      </trkpt>
      <trkpt lat="-22.09376527927815914154052734375" lon="166.44852762110531330108642578125">
        <ele>609.4000244140625</ele>
        <time>2016-08-12T18:30:39.000Z</time>
        <extensions>
          <ns3:TrackPointExtension>
            <ns3:atemp>17.0</ns3:atemp>
            <ns3:hr>135</ns3:hr>
          </ns3:TrackPointExtension>
        </extensions>
      </trkpt>
      <trkpt lat="-22.09376779384911060333251953125" lon="166.44852577708661556243896484375">
        <ele>609.4000244140625</ele>
        <time>2016-08-12T18:30:40.000Z</time>
        <extensions>
          <ns3:TrackPointExtension>
            <ns3:atemp>17.0</ns3:atemp>
            <ns3:hr>135</ns3:hr>
          </ns3:TrackPointExtension>
        </extensions>
      </trkpt>
      <trkpt lat="-22.09376645274460315704345703125" lon="166.44852393306791782379150390625">
        <ele>609.4000244140625</ele>
        <time>2016-08-12T18:30:41.000Z</time>
        <extensions>
          <ns3:TrackPointExtension>
            <ns3:atemp>17.0</ns3:atemp>
            <ns3:hr>134</ns3:hr>
          </ns3:TrackPointExtension>
        </extensions>
      </trkpt>
      <trkpt lat="-22.0937648601830005645751953125" lon="166.44852242432534694671630859375">
        <ele>609.4000244140625</ele>
        <time>2016-08-12T18:30:42.000Z</time>
        <extensions>
          <ns3:TrackPointExtension>
            <ns3:atemp>17.0</ns3:atemp>
            <ns3:hr>133</ns3:hr>
          </ns3:TrackPointExtension>
        </extensions>
      </trkpt>
      <trkpt lat="-22.09376477636396884918212890625" lon="166.44852074794471263885498046875">
        <ele>609.4000244140625</ele>
        <time>2016-08-12T18:30:44.000Z</time>
        <extensions>
          <ns3:TrackPointExtension>
            <ns3:atemp>17.0</ns3:atemp>
            <ns3:hr>132</ns3:hr>
          </ns3:TrackPointExtension>
        </extensions>
      </trkpt>
      <trkpt lat="-22.093763016164302825927734375" lon="166.44851638935506343841552734375">
        <ele>609.4000244140625</ele>
        <time>2016-08-12T18:30:45.000Z</time>
        <extensions>
          <ns3:TrackPointExtension>
            <ns3:atemp>17.0</ns3:atemp>
            <ns3:hr>131</ns3:hr>
          </ns3:TrackPointExtension>
        </extensions>
      </trkpt>
      <trkpt lat="-22.09376041777431964874267578125" lon="166.44851940684020519256591796875">
        <ele>609.4000244140625</ele>
        <time>2016-08-12T18:30:46.000Z</time>
        <extensions>
          <ns3:TrackPointExtension>
            <ns3:atemp>17.0</ns3:atemp>
            <ns3:hr>131</ns3:hr>
          </ns3:TrackPointExtension>
        </extensions>
      </trkpt>
      <trkpt lat="-22.09376108832657337188720703125" lon="166.44852275960147380828857421875">
        <ele>609.4000244140625</ele>
        <time>2016-08-12T18:30:47.000Z</time>
        <extensions>
          <ns3:TrackPointExtension>
            <ns3:atemp>17.0</ns3:atemp>
            <ns3:hr>131</ns3:hr>
          </ns3:TrackPointExtension>
        </extensions>
      </trkpt>
      <trkpt lat="-22.093765698373317718505859375" lon="166.44852560944855213165283203125">
        <ele>609.4000244140625</ele>
        <time>2016-08-12T18:30:48.000Z</time>
        <extensions>
          <ns3:TrackPointExtension>
            <ns3:atemp>17.0</ns3:atemp>
            <ns3:hr>130</ns3:hr>
          </ns3:TrackPointExtension>
        </extensions>
      </trkpt>
      <trkpt lat="-22.0937625132501125335693359375" lon="166.4485287107527256011962890625">
        <ele>609.4000244140625</ele>
        <time>2016-08-12T18:30:49.000Z</time>
        <extensions>
          <ns3:TrackPointExtension>
            <ns3:atemp>17.0</ns3:atemp>
            <ns3:hr>130</ns3:hr>
          </ns3:TrackPointExtension>
        </extensions>
      </trkpt>
      <trkpt lat="-22.09375974722206592559814453125" lon="166.4485263638198375701904296875">
        <ele>609.4000244140625</ele>
        <time>2016-08-12T18:30:50.000Z</time>
        <extensions>
          <ns3:TrackPointExtension>
            <ns3:atemp>17.0</ns3:atemp>
            <ns3:hr>130</ns3:hr>
          </ns3:TrackPointExtension>
        </extensions>
      </trkpt>
      <trkpt lat="-22.09375522099435329437255859375" lon="166.44852343015372753143310546875">
        <ele>609.5999755859375</ele>
        <time>2016-08-12T18:30:51.000Z</time>
        <extensions>
          <ns3:TrackPointExtension>
            <ns3:atemp>17.0</ns3:atemp>
            <ns3:hr>129</ns3:hr>
          </ns3:TrackPointExtension>
        </extensions>
      </trkpt>
      <trkpt lat="-22.093755640089511871337890625" lon="166.44851957447826862335205078125">
        <ele>609.79998779296875</ele>
        <time>2016-08-12T18:30:52.000Z</time>
        <extensions>
          <ns3:TrackPointExtension>
            <ns3:atemp>17.0</ns3:atemp>
            <ns3:hr>129</ns3:hr>
          </ns3:TrackPointExtension>
        </extensions>
      </trkpt>
      <trkpt lat="-22.093744911253452301025390625" lon="166.44850901328027248382568359375">
        <ele>610</ele>
        <time>2016-08-12T18:30:53.000Z</time>
        <extensions>
          <ns3:TrackPointExtension>
            <ns3:atemp>17.0</ns3:atemp>
            <ns3:hr>130</ns3:hr>
          </ns3:TrackPointExtension>
        </extensions>
      </trkpt>
      <trkpt lat="-22.093735523521900177001953125" lon="166.44850096665322780609130859375">
        <ele>610.20001220703125</ele>
        <time>2016-08-12T18:30:54.000Z</time>
        <extensions>
          <ns3:TrackPointExtension>
            <ns3:atemp>17.0</ns3:atemp>
            <ns3:hr>130</ns3:hr>
          </ns3:TrackPointExtension>
        </extensions>
      </trkpt>
      <trkpt lat="-22.0937229506671428680419921875" lon="166.4484898187220096588134765625">
        <ele>610.20001220703125</ele>
        <time>2016-08-12T18:30:55.000Z</time>
        <extensions>
          <ns3:TrackPointExtension>
            <ns3:atemp>17.0</ns3:atemp>
            <ns3:hr>131</ns3:hr>
          </ns3:TrackPointExtension>
        </extensions>
      </trkpt>
      <trkpt lat="-22.09370912052690982818603515625" lon="166.44847967661917209625244140625">
        <ele>610.20001220703125</ele>
        <time>2016-08-12T18:30:56.000Z</time>
        <extensions>
          <ns3:TrackPointExtension>
            <ns3:atemp>17.0</ns3:atemp>
            <ns3:hr>131</ns3:hr>
          </ns3:TrackPointExtension>
        </extensions>
      </trkpt>
      <trkpt lat="-22.09369235672056674957275390625" lon="166.4484710432589054107666015625">
        <ele>610</ele>
        <time>2016-08-12T18:30:57.000Z</time>
        <extensions>
          <ns3:TrackPointExtension>
            <ns3:atemp>17.0</ns3:atemp>
            <ns3:hr>131</ns3:hr>
          </ns3:TrackPointExtension>
        </extensions>
      </trkpt>
      <trkpt lat="-22.093673162162303924560546875" lon="166.44846391864120960235595703125">
        <ele>610.20001220703125</ele>
        <time>2016-08-12T18:30:58.000Z</time>
        <extensions>
          <ns3:TrackPointExtension>
            <ns3:atemp>17.0</ns3:atemp>
            <ns3:hr>132</ns3:hr>
          </ns3:TrackPointExtension>
        </extensions>
      </trkpt>
      <trkpt lat="-22.093651704490184783935546875" lon="166.4484569616615772247314453125">
        <ele>610.20001220703125</ele>
        <time>2016-08-12T18:30:59.000Z</time>
        <extensions>
          <ns3:TrackPointExtension>
            <ns3:atemp>17.0</ns3:atemp>
            <ns3:hr>132</ns3:hr>
          </ns3:TrackPointExtension>
        </extensions>
      </trkpt>
      <trkpt lat="-22.093631923198699951171875" lon="166.4484487473964691162109375">
        <ele>610.20001220703125</ele>
        <time>2016-08-12T18:31:00.000Z</time>
        <extensions>
          <ns3:TrackPointExtension>
            <ns3:atemp>17.0</ns3:atemp>
            <ns3:hr>132</ns3:hr>
          </ns3:TrackPointExtension>
        </extensions>
      </trkpt>
      <trkpt lat="-22.0936109684407711029052734375" lon="166.4484433829784393310546875">
        <ele>610.5999755859375</ele>
        <time>2016-08-12T18:31:01.000Z</time>
        <extensions>
          <ns3:TrackPointExtension>
            <ns3:atemp>17.0</ns3:atemp>
            <ns3:hr>132</ns3:hr>
          </ns3:TrackPointExtension>
        </extensions>
      </trkpt>
      <trkpt lat="-22.09358632564544677734375" lon="166.44843676127493381500244140625">
        <ele>610.79998779296875</ele>
        <time>2016-08-12T18:31:02.000Z</time>
        <extensions>
          <ns3:TrackPointExtension>
            <ns3:atemp>17.0</ns3:atemp>
            <ns3:hr>132</ns3:hr>
          </ns3:TrackPointExtension>
        </extensions>
      </trkpt>
      <trkpt lat="-22.0935657061636447906494140625" lon="166.44842938520014286041259765625">
        <ele>611.20001220703125</ele>
        <time>2016-08-12T18:31:03.000Z</time>
        <extensions>
          <ns3:TrackPointExtension>
            <ns3:atemp>17.0</ns3:atemp>
            <ns3:hr>132</ns3:hr>
          </ns3:TrackPointExtension>
        </extensions>
      </trkpt>
      <trkpt lat="-22.09354232065379619598388671875" lon="166.4484234340488910675048828125">
        <ele>611.20001220703125</ele>
        <time>2016-08-12T18:31:04.000Z</time>
        <extensions>
          <ns3:TrackPointExtension>
            <ns3:atemp>17.0</ns3:atemp>
            <ns3:hr>132</ns3:hr>
          </ns3:TrackPointExtension>
        </extensions>
      </trkpt>
      <trkpt lat="-22.09352119825780391693115234375" lon="166.44841630943119525909423828125">
        <ele>611.4000244140625</ele>
        <time>2016-08-12T18:31:05.000Z</time>
        <extensions>
          <ns3:TrackPointExtension>
            <ns3:atemp>17.0</ns3:atemp>
            <ns3:hr>132</ns3:hr>
          </ns3:TrackPointExtension>
        </extensions>
      </trkpt>
      <trkpt lat="-22.093506194651126861572265625" lon="166.4484080113470554351806640625">
        <ele>611.5999755859375</ele>
        <time>2016-08-12T18:31:06.000Z</time>
        <extensions>
          <ns3:TrackPointExtension>
            <ns3:atemp>17.0</ns3:atemp>
            <ns3:hr>132</ns3:hr>
          </ns3:TrackPointExtension>
        </extensions>
      </trkpt>
      <trkpt lat="-22.0934936217963695526123046875" lon="166.4483986236155033111572265625">
        <ele>612</ele>
        <time>2016-08-12T18:31:07.000Z</time>
        <extensions>
          <ns3:TrackPointExtension>
            <ns3:atemp>17.0</ns3:atemp>
            <ns3:hr>132</ns3:hr>
          </ns3:TrackPointExtension>
        </extensions>
      </trkpt>
      <trkpt lat="-22.09347342140972614288330078125" lon="166.44838546402752399444580078125">
        <ele>612.4000244140625</ele>
        <time>2016-08-12T18:31:08.000Z</time>
        <extensions>
          <ns3:TrackPointExtension>
            <ns3:atemp>17.0</ns3:atemp>
            <ns3:hr>131</ns3:hr>
          </ns3:TrackPointExtension>
        </extensions>
      </trkpt>
      <trkpt lat="-22.09345062263309955596923828125" lon="166.4483701251447200775146484375">
        <ele>612.79998779296875</ele>
        <time>2016-08-12T18:31:09.000Z</time>
        <extensions>
          <ns3:TrackPointExtension>
            <ns3:atemp>17.0</ns3:atemp>
            <ns3:hr>131</ns3:hr>
          </ns3:TrackPointExtension>
        </extensions>
      </trkpt>
      <trkpt lat="-22.0934267342090606689453125" lon="166.44835512153804302215576171875">
        <ele>612.79998779296875</ele>
        <time>2016-08-12T18:31:10.000Z</time>
        <extensions>
          <ns3:TrackPointExtension>
            <ns3:atemp>17.0</ns3:atemp>
            <ns3:hr>131</ns3:hr>
          </ns3:TrackPointExtension>
        </extensions>
      </trkpt>
      <trkpt lat="-22.09340653382241725921630859375" lon="166.448340117931365966796875">
        <ele>612.79998779296875</ele>
        <time>2016-08-12T18:31:11.000Z</time>
        <extensions>
          <ns3:TrackPointExtension>
            <ns3:atemp>17.0</ns3:atemp>
            <ns3:hr>131</ns3:hr>
          </ns3:TrackPointExtension>
        </extensions>
      </trkpt>
      <trkpt lat="-22.09338842891156673431396484375" lon="166.44832561723887920379638671875">
        <ele>613</ele>
        <time>2016-08-12T18:31:12.000Z</time>
        <extensions>
          <ns3:TrackPointExtension>
            <ns3:atemp>17.0</ns3:atemp>
            <ns3:hr>131</ns3:hr>
          </ns3:TrackPointExtension>
        </extensions>
      </trkpt>
      <trkpt lat="-22.09336328320205211639404296875" lon="166.4483154751360416412353515625">
        <ele>613.20001220703125</ele>
        <time>2016-08-12T18:31:13.000Z</time>
        <extensions>
          <ns3:TrackPointExtension>
            <ns3:atemp>17.0</ns3:atemp>
            <ns3:hr>131</ns3:hr>
          </ns3:TrackPointExtension>
        </extensions>
      </trkpt>
      <trkpt lat="-22.09334249608218669891357421875" lon="166.44830524921417236328125">
        <ele>613.20001220703125</ele>
        <time>2016-08-12T18:31:14.000Z</time>
        <extensions>
          <ns3:TrackPointExtension>
            <ns3:atemp>17.0</ns3:atemp>
            <ns3:hr>131</ns3:hr>
          </ns3:TrackPointExtension>
        </extensions>
      </trkpt>
      <trkpt lat="-22.09332338534295558929443359375" lon="166.4482985436916351318359375">
        <ele>613</ele>
        <time>2016-08-12T18:31:15.000Z</time>
        <extensions>
          <ns3:TrackPointExtension>
            <ns3:atemp>17.0</ns3:atemp>
            <ns3:hr>131</ns3:hr>
          </ns3:TrackPointExtension>
        </extensions>
      </trkpt>
      <trkpt lat="-22.09330259822309017181396484375" lon="166.44828823395073413848876953125">
        <ele>613</ele>
        <time>2016-08-12T18:31:16.000Z</time>
        <extensions>
          <ns3:TrackPointExtension>
            <ns3:atemp>17.0</ns3:atemp>
            <ns3:hr>131</ns3:hr>
          </ns3:TrackPointExtension>
        </extensions>
      </trkpt>
      <trkpt lat="-22.0932797156274318695068359375" lon="166.44828035496175289154052734375">
        <ele>613</ele>
        <time>2016-08-12T18:31:17.000Z</time>
        <extensions>
          <ns3:TrackPointExtension>
            <ns3:atemp>17.0</ns3:atemp>
            <ns3:hr>131</ns3:hr>
          </ns3:TrackPointExtension>
        </extensions>
      </trkpt>
      <trkpt lat="-22.09325733594596385955810546875" lon="166.44827566109597682952880859375">
        <ele>613</ele>
        <time>2016-08-12T18:31:18.000Z</time>
        <extensions>
          <ns3:TrackPointExtension>
            <ns3:atemp>17.0</ns3:atemp>
            <ns3:hr>131</ns3:hr>
          </ns3:TrackPointExtension>
        </extensions>
      </trkpt>
      <trkpt lat="-22.09323151968419551849365234375" lon="166.44827700220048427581787109375">
        <ele>613.20001220703125</ele>
        <time>2016-08-12T18:31:19.000Z</time>
        <extensions>
          <ns3:TrackPointExtension>
            <ns3:atemp>17.0</ns3:atemp>
            <ns3:hr>131</ns3:hr>
          </ns3:TrackPointExtension>
        </extensions>
      </trkpt>
      <trkpt lat="-22.09320754744112491607666015625" lon="166.44828152842819690704345703125">
        <ele>613.4000244140625</ele>
        <time>2016-08-12T18:31:20.000Z</time>
        <extensions>
          <ns3:TrackPointExtension>
            <ns3:atemp>17.0</ns3:atemp>
            <ns3:hr>131</ns3:hr>
          </ns3:TrackPointExtension>
        </extensions>
      </trkpt>
      <trkpt lat="-22.0931838266551494598388671875" lon="166.4482851326465606689453125">
        <ele>613.5999755859375</ele>
        <time>2016-08-12T18:31:21.000Z</time>
        <extensions>
          <ns3:TrackPointExtension>
            <ns3:atemp>17.0</ns3:atemp>
            <ns3:hr>131</ns3:hr>
          </ns3:TrackPointExtension>
        </extensions>
      </trkpt>
      <trkpt lat="-22.093160189688205718994140625" lon="166.4482856355607509613037109375">
        <ele>613.4000244140625</ele>
        <time>2016-08-12T18:31:22.000Z</time>
        <extensions>
          <ns3:TrackPointExtension>
            <ns3:atemp>17.0</ns3:atemp>
            <ns3:hr>131</ns3:hr>
          </ns3:TrackPointExtension>
        </extensions>
      </trkpt>
      <trkpt lat="-22.09313462488353252410888671875" lon="166.44828580319881439208984375">
        <ele>613.5999755859375</ele>
        <time>2016-08-12T18:31:23.000Z</time>
        <extensions>
          <ns3:TrackPointExtension>
            <ns3:atemp>17.0</ns3:atemp>
            <ns3:hr>130</ns3:hr>
          </ns3:TrackPointExtension>
        </extensions>
      </trkpt>
      <trkpt lat="-22.09310763515532016754150390625" lon="166.44828806631267070770263671875">
        <ele>613.79998779296875</ele>
        <time>2016-08-12T18:31:24.000Z</time>
        <extensions>
          <ns3:TrackPointExtension>
            <ns3:atemp>17.0</ns3:atemp>
            <ns3:hr>131</ns3:hr>
          </ns3:TrackPointExtension>
        </extensions>
      </trkpt>
      <trkpt lat="-22.09308232180774211883544921875" lon="166.44829343073070049285888671875">
        <ele>613.79998779296875</ele>
        <time>2016-08-12T18:31:25.000Z</time>
        <extensions>
          <ns3:TrackPointExtension>
            <ns3:atemp>17.0</ns3:atemp>
            <ns3:hr>131</ns3:hr>
          </ns3:TrackPointExtension>
        </extensions>
      </trkpt>
      <trkpt lat="-22.0930577628314495086669921875" lon="166.44830281846225261688232421875">
        <ele>614</ele>
        <time>2016-08-12T18:31:26.000Z</time>
        <extensions>
          <ns3:TrackPointExtension>
            <ns3:atemp>17.0</ns3:atemp>
            <ns3:hr>131</ns3:hr>
          </ns3:TrackPointExtension>
        </extensions>
      </trkpt>
      <trkpt lat="-22.0930359698832035064697265625" lon="166.4483080990612506866455078125">
        <ele>614.4000244140625</ele>
        <time>2016-08-12T18:31:27.000Z</time>
        <extensions>
          <ns3:TrackPointExtension>
            <ns3:atemp>17.0</ns3:atemp>
            <ns3:hr>131</ns3:hr>
          </ns3:TrackPointExtension>
        </extensions>
      </trkpt>
      <trkpt lat="-22.09301166236400604248046875" lon="166.44831170327961444854736328125">
        <ele>614.5999755859375</ele>
        <time>2016-08-12T18:31:28.000Z</time>
        <extensions>
          <ns3:TrackPointExtension>
            <ns3:atemp>17.0</ns3:atemp>
            <ns3:hr>131</ns3:hr>
          </ns3:TrackPointExtension>
        </extensions>
      </trkpt>
      <trkpt lat="-22.092992551624774932861328125" lon="166.4483080990612506866455078125">
        <ele>614.79998779296875</ele>
        <time>2016-08-12T18:31:29.000Z</time>
        <extensions>
          <ns3:TrackPointExtension>
            <ns3:atemp>17.0</ns3:atemp>
            <ns3:hr>132</ns3:hr>
          </ns3:TrackPointExtension>
        </extensions>
      </trkpt>
      <trkpt lat="-22.0929732732474803924560546875" lon="166.4483065903186798095703125">
        <ele>614.79998779296875</ele>
        <time>2016-08-12T18:31:30.000Z</time>
        <extensions>
          <ns3:TrackPointExtension>
            <ns3:atemp>17.0</ns3:atemp>
            <ns3:hr>132</ns3:hr>
          </ns3:TrackPointExtension>
        </extensions>
      </trkpt>
      <trkpt lat="-22.09295273758471012115478515625" lon="166.4483030699193477630615234375">
        <ele>615</ele>
        <time>2016-08-12T18:31:31.000Z</time>
        <extensions>
          <ns3:TrackPointExtension>
            <ns3:atemp>17.0</ns3:atemp>
            <ns3:hr>132</ns3:hr>
          </ns3:TrackPointExtension>
        </extensions>
      </trkpt>
      <trkpt lat="-22.0929343812167644500732421875" lon="166.44829711876809597015380859375">
        <ele>615.20001220703125</ele>
        <time>2016-08-12T18:31:32.000Z</time>
        <extensions>
          <ns3:TrackPointExtension>
            <ns3:atemp>17.0</ns3:atemp>
            <ns3:hr>132</ns3:hr>
          </ns3:TrackPointExtension>
        </extensions>
      </trkpt>
      <trkpt lat="-22.092917449772357940673828125" lon="166.4482933469116687774658203125">
        <ele>615.20001220703125</ele>
        <time>2016-08-12T18:31:33.000Z</time>
        <extensions>
          <ns3:TrackPointExtension>
            <ns3:atemp>17.0</ns3:atemp>
            <ns3:hr>132</ns3:hr>
          </ns3:TrackPointExtension>
        </extensions>
      </trkpt>
      <trkpt lat="-22.0928948186337947845458984375" lon="166.44829242490231990814208984375">
        <ele>615.4000244140625</ele>
        <time>2016-08-12T18:31:34.000Z</time>
        <extensions>
          <ns3:TrackPointExtension>
            <ns3:atemp>17.0</ns3:atemp>
            <ns3:hr>133</ns3:hr>
          </ns3:TrackPointExtension>
        </extensions>
      </trkpt>
      <trkpt lat="-22.09287998266518115997314453125" lon="166.44829125143587589263916015625">
        <ele>615.5999755859375</ele>
        <time>2016-08-12T18:31:35.000Z</time>
        <extensions>
          <ns3:TrackPointExtension>
            <ns3:atemp>17.0</ns3:atemp>
            <ns3:hr>133</ns3:hr>
          </ns3:TrackPointExtension>
        </extensions>
      </trkpt>
      <trkpt lat="-22.09286774508655071258544921875" lon="166.4482916705310344696044921875">
        <ele>615.79998779296875</ele>
        <time>2016-08-12T18:31:36.000Z</time>
        <extensions>
          <ns3:TrackPointExtension>
            <ns3:atemp>17.0</ns3:atemp>
            <ns3:hr>133</ns3:hr>
          </ns3:TrackPointExtension>
        </extensions>
      </trkpt>
      <trkpt lat="-22.09285718388855457305908203125" lon="166.448290832340717315673828125">
        <ele>615.5999755859375</ele>
        <time>2016-08-12T18:31:37.000Z</time>
        <extensions>
          <ns3:TrackPointExtension>
            <ns3:atemp>17.0</ns3:atemp>
            <ns3:hr>133</ns3:hr>
          </ns3:TrackPointExtension>
        </extensions>
      </trkpt>
      <trkpt lat="-22.092847712337970733642578125" lon="166.44828588701784610748291015625">
        <ele>615.5999755859375</ele>
        <time>2016-08-12T18:31:38.000Z</time>
        <extensions>
          <ns3:TrackPointExtension>
            <ns3:atemp>17.0</ns3:atemp>
            <ns3:hr>134</ns3:hr>
          </ns3:TrackPointExtension>
        </extensions>
      </trkpt>
      <trkpt lat="-22.09283773787319660186767578125" lon="166.448279432952404022216796875">
        <ele>615.5999755859375</ele>
        <time>2016-08-12T18:31:39.000Z</time>
        <extensions>
          <ns3:TrackPointExtension>
            <ns3:atemp>17.0</ns3:atemp>
            <ns3:hr>134</ns3:hr>
          </ns3:TrackPointExtension>
        </extensions>
      </trkpt>
      <trkpt lat="-22.0928284339606761932373046875" lon="166.448275409638881683349609375">
        <ele>615.79998779296875</ele>
        <time>2016-08-12T18:31:40.000Z</time>
        <extensions>
          <ns3:TrackPointExtension>
            <ns3:atemp>17.0</ns3:atemp>
            <ns3:hr>134</ns3:hr>
          </ns3:TrackPointExtension>
        </extensions>
      </trkpt>
      <trkpt lat="-22.09281728602945804595947265625" lon="166.44827381707727909088134765625">
        <ele>616</ele>
        <time>2016-08-12T18:31:41.000Z</time>
        <extensions>
          <ns3:TrackPointExtension>
            <ns3:atemp>17.0</ns3:atemp>
            <ns3:hr>134</ns3:hr>
          </ns3:TrackPointExtension>
        </extensions>
      </trkpt>
      <trkpt lat="-22.09280890412628650665283203125" lon="166.4482717216014862060546875">
        <ele>616</ele>
        <time>2016-08-12T18:31:42.000Z</time>
        <extensions>
          <ns3:TrackPointExtension>
            <ns3:atemp>17.0</ns3:atemp>
            <ns3:hr>134</ns3:hr>
          </ns3:TrackPointExtension>
        </extensions>
      </trkpt>
      <trkpt lat="-22.0927990972995758056640625" lon="166.44826836884021759033203125">
        <ele>616.20001220703125</ele>
        <time>2016-08-12T18:31:43.000Z</time>
        <extensions>
          <ns3:TrackPointExtension>
            <ns3:atemp>17.0</ns3:atemp>
            <ns3:hr>135</ns3:hr>
          </ns3:TrackPointExtension>
        </extensions>
      </trkpt>
      <trkpt lat="-22.0927841775119304656982421875" lon="166.4482682012021541595458984375">
        <ele>616.4000244140625</ele>
        <time>2016-08-12T18:31:44.000Z</time>
        <extensions>
          <ns3:TrackPointExtension>
            <ns3:atemp>17.0</ns3:atemp>
            <ns3:hr>135</ns3:hr>
          </ns3:TrackPointExtension>
        </extensions>
      </trkpt>
      <trkpt lat="-22.09277202375233173370361328125" lon="166.44827297888696193695068359375">
        <ele>616.5999755859375</ele>
        <time>2016-08-12T18:31:45.000Z</time>
        <extensions>
          <ns3:TrackPointExtension>
            <ns3:atemp>17.0</ns3:atemp>
            <ns3:hr>135</ns3:hr>
          </ns3:TrackPointExtension>
        </extensions>
      </trkpt>
      <trkpt lat="-22.092762887477874755859375" lon="166.4482745714485645294189453125">
        <ele>616.79998779296875</ele>
        <time>2016-08-12T18:31:46.000Z</time>
        <extensions>
          <ns3:TrackPointExtension>
            <ns3:atemp>17.0</ns3:atemp>
            <ns3:hr>135</ns3:hr>
          </ns3:TrackPointExtension>
        </extensions>
      </trkpt>
      <trkpt lat="-22.09274880588054656982421875" lon="166.44827306270599365234375">
        <ele>617.20001220703125</ele>
        <time>2016-08-12T18:31:47.000Z</time>
        <extensions>
          <ns3:TrackPointExtension>
            <ns3:atemp>17.0</ns3:atemp>
            <ns3:hr>135</ns3:hr>
          </ns3:TrackPointExtension>
        </extensions>
      </trkpt>
      <trkpt lat="-22.09273480810225009918212890625" lon="166.4482717216014862060546875">
        <ele>617.4000244140625</ele>
        <time>2016-08-12T18:31:48.000Z</time>
        <extensions>
          <ns3:TrackPointExtension>
            <ns3:atemp>17.0</ns3:atemp>
            <ns3:hr>136</ns3:hr>
          </ns3:TrackPointExtension>
        </extensions>
      </trkpt>
      <trkpt lat="-22.0927239954471588134765625" lon="166.448270380496978759765625">
        <ele>617.4000244140625</ele>
        <time>2016-08-12T18:31:49.000Z</time>
        <extensions>
          <ns3:TrackPointExtension>
            <ns3:atemp>17.0</ns3:atemp>
            <ns3:hr>136</ns3:hr>
          </ns3:TrackPointExtension>
        </extensions>
      </trkpt>
      <trkpt lat="-22.09271133877336978912353515625" lon="166.44826761446893215179443359375">
        <ele>617.79998779296875</ele>
        <time>2016-08-12T18:31:50.000Z</time>
        <extensions>
          <ns3:TrackPointExtension>
            <ns3:atemp>17.0</ns3:atemp>
            <ns3:hr>136</ns3:hr>
          </ns3:TrackPointExtension>
        </extensions>
      </trkpt>
      <trkpt lat="-22.09269859828054904937744140625" lon="166.44826392643153667449951171875">
        <ele>617.79998779296875</ele>
        <time>2016-08-12T18:31:51.000Z</time>
        <extensions>
          <ns3:TrackPointExtension>
            <ns3:atemp>17.0</ns3:atemp>
            <ns3:hr>135</ns3:hr>
          </ns3:TrackPointExtension>
        </extensions>
      </trkpt>
      <trkpt lat="-22.0926837623119354248046875" lon="166.44825889728963375091552734375">
        <ele>618</ele>
        <time>2016-08-12T18:31:52.000Z</time>
        <extensions>
          <ns3:TrackPointExtension>
            <ns3:atemp>17.0</ns3:atemp>
            <ns3:hr>136</ns3:hr>
          </ns3:TrackPointExtension>
        </extensions>
      </trkpt>
      <trkpt lat="-22.09266825579106807708740234375" lon="166.44825219176709651947021484375">
        <ele>618</ele>
        <time>2016-08-12T18:31:53.000Z</time>
        <extensions>
          <ns3:TrackPointExtension>
            <ns3:atemp>17.0</ns3:atemp>
            <ns3:hr>136</ns3:hr>
          </ns3:TrackPointExtension>
        </extensions>
      </trkpt>
      <trkpt lat="-22.09265266545116901397705078125" lon="166.4482447318732738494873046875">
        <ele>618</ele>
        <time>2016-08-12T18:31:54.000Z</time>
        <extensions>
          <ns3:TrackPointExtension>
            <ns3:atemp>17.0</ns3:atemp>
            <ns3:hr>136</ns3:hr>
          </ns3:TrackPointExtension>
        </extensions>
      </trkpt>
      <trkpt lat="-22.09263347089290618896484375" lon="166.44823676906526088714599609375">
        <ele>618.20001220703125</ele>
        <time>2016-08-12T18:31:55.000Z</time>
        <extensions>
          <ns3:TrackPointExtension>
            <ns3:atemp>17.0</ns3:atemp>
            <ns3:hr>136</ns3:hr>
          </ns3:TrackPointExtension>
        </extensions>
      </trkpt>
      <trkpt lat="-22.09261042065918445587158203125" lon="166.4482276327908039093017578125">
        <ele>618.4000244140625</ele>
        <time>2016-08-12T18:31:56.000Z</time>
        <extensions>
          <ns3:TrackPointExtension>
            <ns3:atemp>17.0</ns3:atemp>
            <ns3:hr>136</ns3:hr>
          </ns3:TrackPointExtension>
        </extensions>
      </trkpt>
      <trkpt lat="-22.09258385002613067626953125" lon="166.4482232742011547088623046875">
        <ele>618.4000244140625</ele>
        <time>2016-08-12T18:31:57.000Z</time>
        <extensions>
          <ns3:TrackPointExtension>
            <ns3:atemp>17.0</ns3:atemp>
            <ns3:hr>136</ns3:hr>
          </ns3:TrackPointExtension>
        </extensions>
      </trkpt>
      <trkpt lat="-22.09256281144917011260986328125" lon="166.44821832887828350067138671875">
        <ele>618.79998779296875</ele>
        <time>2016-08-12T18:31:58.000Z</time>
        <extensions>
          <ns3:TrackPointExtension>
            <ns3:atemp>17.0</ns3:atemp>
            <ns3:hr>137</ns3:hr>
          </ns3:TrackPointExtension>
        </extensions>
      </trkpt>
      <trkpt lat="-22.09254101850092411041259765625" lon="166.44821162335574626922607421875">
        <ele>619</ele>
        <time>2016-08-12T18:31:59.000Z</time>
        <extensions>
          <ns3:TrackPointExtension>
            <ns3:atemp>17.0</ns3:atemp>
            <ns3:hr>137</ns3:hr>
          </ns3:TrackPointExtension>
        </extensions>
      </trkpt>
      <trkpt lat="-22.09251771681010723114013671875" lon="166.4482048340141773223876953125">
        <ele>619.20001220703125</ele>
        <time>2016-08-12T18:32:00.000Z</time>
        <extensions>
          <ns3:TrackPointExtension>
            <ns3:atemp>17.0</ns3:atemp>
            <ns3:hr>137</ns3:hr>
          </ns3:TrackPointExtension>
        </extensions>
      </trkpt>
      <trkpt lat="-22.09249525330960750579833984375" lon="166.4482038281857967376708984375">
        <ele>619.20001220703125</ele>
        <time>2016-08-12T18:32:01.000Z</time>
        <extensions>
          <ns3:TrackPointExtension>
            <ns3:atemp>17.0</ns3:atemp>
            <ns3:hr>137</ns3:hr>
          </ns3:TrackPointExtension>
        </extensions>
      </trkpt>
      <trkpt lat="-22.092474214732646942138671875" lon="166.4482031576335430145263671875">
        <ele>619</ele>
        <time>2016-08-12T18:32:02.000Z</time>
        <extensions>
          <ns3:TrackPointExtension>
            <ns3:atemp>17.0</ns3:atemp>
            <ns3:hr>137</ns3:hr>
          </ns3:TrackPointExtension>
        </extensions>
      </trkpt>
      <trkpt lat="-22.09244906902313232421875" lon="166.448202319443225860595703125">
        <ele>618.79998779296875</ele>
        <time>2016-08-12T18:32:03.000Z</time>
        <extensions>
          <ns3:TrackPointExtension>
            <ns3:atemp>17.0</ns3:atemp>
            <ns3:hr>138</ns3:hr>
          </ns3:TrackPointExtension>
        </extensions>
      </trkpt>
      <trkpt lat="-22.09242652170360088348388671875" lon="166.448198966681957244873046875">
        <ele>618.79998779296875</ele>
        <time>2016-08-12T18:32:04.000Z</time>
        <extensions>
          <ns3:TrackPointExtension>
            <ns3:atemp>17.0</ns3:atemp>
            <ns3:hr>138</ns3:hr>
          </ns3:TrackPointExtension>
        </extensions>
      </trkpt>
      <trkpt lat="-22.09240238182246685028076171875" lon="166.44820022396743297576904296875">
        <ele>619</ele>
        <time>2016-08-12T18:32:05.000Z</time>
        <extensions>
          <ns3:TrackPointExtension>
            <ns3:atemp>17.0</ns3:atemp>
            <ns3:hr>138</ns3:hr>
          </ns3:TrackPointExtension>
        </extensions>
      </trkpt>
      <trkpt lat="-22.09237958304584026336669921875" lon="166.4482048340141773223876953125">
        <ele>619.20001220703125</ele>
        <time>2016-08-12T18:32:06.000Z</time>
        <extensions>
          <ns3:TrackPointExtension>
            <ns3:atemp>17.0</ns3:atemp>
            <ns3:hr>137</ns3:hr>
          </ns3:TrackPointExtension>
        </extensions>
      </trkpt>
      <trkpt lat="-22.0923577062785625457763671875" lon="166.448208354413509368896484375">
        <ele>619.20001220703125</ele>
        <time>2016-08-12T18:32:07.000Z</time>
        <extensions>
          <ns3:TrackPointExtension>
            <ns3:atemp>17.0</ns3:atemp>
            <ns3:hr>138</ns3:hr>
          </ns3:TrackPointExtension>
        </extensions>
      </trkpt>
      <trkpt lat="-22.0923349075019359588623046875" lon="166.44821179099380970001220703125">
        <ele>619.20001220703125</ele>
        <time>2016-08-12T18:32:08.000Z</time>
        <extensions>
          <ns3:TrackPointExtension>
            <ns3:atemp>17.0</ns3:atemp>
            <ns3:hr>138</ns3:hr>
          </ns3:TrackPointExtension>
        </extensions>
      </trkpt>
      <trkpt lat="-22.09231034852564334869384765625" lon="166.44821631722152233123779296875">
        <ele>619.4000244140625</ele>
        <time>2016-08-12T18:32:09.000Z</time>
        <extensions>
          <ns3:TrackPointExtension>
            <ns3:atemp>17.0</ns3:atemp>
            <ns3:hr>138</ns3:hr>
          </ns3:TrackPointExtension>
        </extensions>
      </trkpt>
      <trkpt lat="-22.09228872321546077728271484375" lon="166.4482195861637592315673828125">
        <ele>619.4000244140625</ele>
        <time>2016-08-12T18:32:10.000Z</time>
        <extensions>
          <ns3:TrackPointExtension>
            <ns3:atemp>17.0</ns3:atemp>
            <ns3:hr>138</ns3:hr>
          </ns3:TrackPointExtension>
        </extensions>
      </trkpt>
      <trkpt lat="-22.09226374514400959014892578125" lon="166.44822268746793270111083984375">
        <ele>619.5999755859375</ele>
        <time>2016-08-12T18:32:11.000Z</time>
        <extensions>
          <ns3:TrackPointExtension>
            <ns3:atemp>17.0</ns3:atemp>
            <ns3:hr>138</ns3:hr>
          </ns3:TrackPointExtension>
        </extensions>
      </trkpt>
      <trkpt lat="-22.092242538928985595703125" lon="166.44823081791400909423828125">
        <ele>619.5999755859375</ele>
        <time>2016-08-12T18:32:12.000Z</time>
        <extensions>
          <ns3:TrackPointExtension>
            <ns3:atemp>16.0</ns3:atemp>
            <ns3:hr>137</ns3:hr>
          </ns3:TrackPointExtension>
        </extensions>
      </trkpt>
      <trkpt lat="-22.09221730940043926239013671875" lon="166.4482413791120052337646484375">
        <ele>619.5999755859375</ele>
        <time>2016-08-12T18:32:13.000Z</time>
        <extensions>
          <ns3:TrackPointExtension>
            <ns3:atemp>16.0</ns3:atemp>
            <ns3:hr>137</ns3:hr>
          </ns3:TrackPointExtension>
        </extensions>
      </trkpt>
      <trkpt lat="-22.09219333715736865997314453125" lon="166.448257304728031158447265625">
        <ele>620</ele>
        <time>2016-08-12T18:32:14.000Z</time>
        <extensions>
          <ns3:TrackPointExtension>
            <ns3:atemp>16.0</ns3:atemp>
            <ns3:hr>137</ns3:hr>
          </ns3:TrackPointExtension>
        </extensions>
      </trkpt>
      <trkpt lat="-22.092172466218471527099609375" lon="166.4482765831053256988525390625">
        <ele>620.20001220703125</ele>
        <time>2016-08-12T18:32:15.000Z</time>
        <extensions>
          <ns3:TrackPointExtension>
            <ns3:atemp>16.0</ns3:atemp>
            <ns3:hr>137</ns3:hr>
          </ns3:TrackPointExtension>
        </extensions>
      </trkpt>
      <trkpt lat="-22.0921598933637142181396484375" lon="166.44829343073070049285888671875">
        <ele>620.20001220703125</ele>
        <time>2016-08-12T18:32:16.000Z</time>
        <extensions>
          <ns3:TrackPointExtension>
            <ns3:atemp>16.0</ns3:atemp>
            <ns3:hr>137</ns3:hr>
          </ns3:TrackPointExtension>
        </extensions>
      </trkpt>
      <trkpt lat="-22.09215335547924041748046875" lon="166.4483054168522357940673828125">
        <ele>620.4000244140625</ele>
        <time>2016-08-12T18:32:17.000Z</time>
        <extensions>
          <ns3:TrackPointExtension>
            <ns3:atemp>16.0</ns3:atemp>
            <ns3:hr>136</ns3:hr>
          </ns3:TrackPointExtension>
        </extensions>
      </trkpt>
      <trkpt lat="-22.0921419560909271240234375" lon="166.44831824116408824920654296875">
        <ele>620.5999755859375</ele>
        <time>2016-08-12T18:32:18.000Z</time>
        <extensions>
          <ns3:TrackPointExtension>
            <ns3:atemp>16.0</ns3:atemp>
            <ns3:hr>136</ns3:hr>
          </ns3:TrackPointExtension>
        </extensions>
      </trkpt>
      <trkpt lat="-22.09211622364819049835205078125" lon="166.4483272098004817962646484375">
        <ele>620.5999755859375</ele>
        <time>2016-08-12T18:32:19.000Z</time>
        <extensions>
          <ns3:TrackPointExtension>
            <ns3:atemp>16.0</ns3:atemp>
            <ns3:hr>136</ns3:hr>
          </ns3:TrackPointExtension>
        </extensions>
      </trkpt>
      <trkpt lat="-22.09209191612899303436279296875" lon="166.44833584316074848175048828125">
        <ele>620.5999755859375</ele>
        <time>2016-08-12T18:32:20.000Z</time>
        <extensions>
          <ns3:TrackPointExtension>
            <ns3:atemp>16.0</ns3:atemp>
            <ns3:hr>136</ns3:hr>
          </ns3:TrackPointExtension>
        </extensions>
      </trkpt>
      <trkpt lat="-22.09207347594201564788818359375" lon="166.44834405742585659027099609375">
        <ele>620.79998779296875</ele>
        <time>2016-08-12T18:32:21.000Z</time>
        <extensions>
          <ns3:TrackPointExtension>
            <ns3:atemp>16.0</ns3:atemp>
            <ns3:hr>136</ns3:hr>
          </ns3:TrackPointExtension>
        </extensions>
      </trkpt>
      <trkpt lat="-22.09205277264118194580078125" lon="166.44835160113871097564697265625">
        <ele>620.5999755859375</ele>
        <time>2016-08-12T18:32:22.000Z</time>
        <extensions>
          <ns3:TrackPointExtension>
            <ns3:atemp>16.0</ns3:atemp>
            <ns3:hr>136</ns3:hr>
          </ns3:TrackPointExtension>
        </extensions>
      </trkpt>
      <trkpt lat="-22.09203877486288547515869140625" lon="166.4483557082712650299072265625">
        <ele>620.5999755859375</ele>
        <time>2016-08-12T18:32:23.000Z</time>
        <extensions>
          <ns3:TrackPointExtension>
            <ns3:atemp>16.0</ns3:atemp>
            <ns3:hr>136</ns3:hr>
          </ns3:TrackPointExtension>
        </extensions>
      </trkpt>
      <trkpt lat="-22.0920207537710666656494140625" lon="166.44836266525089740753173828125">
        <ele>620.79998779296875</ele>
        <time>2016-08-12T18:32:24.000Z</time>
        <extensions>
          <ns3:TrackPointExtension>
            <ns3:atemp>16.0</ns3:atemp>
            <ns3:hr>136</ns3:hr>
          </ns3:TrackPointExtension>
        </extensions>
      </trkpt>
      <trkpt lat="-22.09199854172766208648681640625" lon="166.4483704604208469390869140625">
        <ele>620.5999755859375</ele>
        <time>2016-08-12T18:32:25.000Z</time>
        <extensions>
          <ns3:TrackPointExtension>
            <ns3:atemp>16.0</ns3:atemp>
            <ns3:hr>136</ns3:hr>
          </ns3:TrackPointExtension>
        </extensions>
      </trkpt>
      <trkpt lat="-22.09197456948459148406982421875" lon="166.44837641157209873199462890625">
        <ele>620.79998779296875</ele>
        <time>2016-08-12T18:32:26.000Z</time>
        <extensions>
          <ns3:TrackPointExtension>
            <ns3:atemp>16.0</ns3:atemp>
            <ns3:hr>135</ns3:hr>
          </ns3:TrackPointExtension>
        </extensions>
      </trkpt>
      <trkpt lat="-22.09195076487958431243896484375" lon="166.44837959669530391693115234375">
        <ele>621.20001220703125</ele>
        <time>2016-08-12T18:32:27.000Z</time>
        <extensions>
          <ns3:TrackPointExtension>
            <ns3:atemp>16.0</ns3:atemp>
            <ns3:hr>136</ns3:hr>
          </ns3:TrackPointExtension>
        </extensions>
      </trkpt>
      <trkpt lat="-22.09192335605621337890625" lon="166.44837406463921070098876953125">
        <ele>621.20001220703125</ele>
        <time>2016-08-12T18:32:28.000Z</time>
        <extensions>
          <ns3:TrackPointExtension>
            <ns3:atemp>16.0</ns3:atemp>
            <ns3:hr>135</ns3:hr>
          </ns3:TrackPointExtension>
        </extensions>
      </trkpt>
      <trkpt lat="-22.09189527668058872222900390625" lon="166.44837238825857639312744140625">
        <ele>621</ele>
        <time>2016-08-12T18:32:29.000Z</time>
        <extensions>
          <ns3:TrackPointExtension>
            <ns3:atemp>16.0</ns3:atemp>
            <ns3:hr>136</ns3:hr>
          </ns3:TrackPointExtension>
        </extensions>
      </trkpt>
      <trkpt lat="-22.09187281318008899688720703125" lon="166.44837540574371814727783203125">
        <ele>621.20001220703125</ele>
        <time>2016-08-12T18:32:30.000Z</time>
        <extensions>
          <ns3:TrackPointExtension>
            <ns3:atemp>16.0</ns3:atemp>
            <ns3:hr>135</ns3:hr>
          </ns3:TrackPointExtension>
        </extensions>
      </trkpt>
      <trkpt lat="-22.091845236718654632568359375" lon="166.4483758248388767242431640625">
        <ele>621.20001220703125</ele>
        <time>2016-08-12T18:32:31.000Z</time>
        <extensions>
          <ns3:TrackPointExtension>
            <ns3:atemp>16.0</ns3:atemp>
            <ns3:hr>135</ns3:hr>
          </ns3:TrackPointExtension>
        </extensions>
      </trkpt>
      <trkpt lat="-22.091818749904632568359375" lon="166.44837775267660617828369140625">
        <ele>621.20001220703125</ele>
        <time>2016-08-12T18:32:32.000Z</time>
        <extensions>
          <ns3:TrackPointExtension>
            <ns3:atemp>16.0</ns3:atemp>
            <ns3:hr>135</ns3:hr>
          </ns3:TrackPointExtension>
        </extensions>
      </trkpt>
      <trkpt lat="-22.09179553203284740447998046875" lon="166.4483758248388767242431640625">
        <ele>621.20001220703125</ele>
        <time>2016-08-12T18:32:33.000Z</time>
        <extensions>
          <ns3:TrackPointExtension>
            <ns3:atemp>16.0</ns3:atemp>
            <ns3:hr>135</ns3:hr>
          </ns3:TrackPointExtension>
        </extensions>
      </trkpt>
      <trkpt lat="-22.091770470142364501953125" lon="166.4483721368014812469482421875">
        <ele>621.20001220703125</ele>
        <time>2016-08-12T18:32:34.000Z</time>
        <extensions>
          <ns3:TrackPointExtension>
            <ns3:atemp>16.0</ns3:atemp>
            <ns3:hr>135</ns3:hr>
          </ns3:TrackPointExtension>
        </extensions>
      </trkpt>
      <trkpt lat="-22.0917491801083087921142578125" lon="166.4483691193163394927978515625">
        <ele>621.4000244140625</ele>
        <time>2016-08-12T18:32:35.000Z</time>
        <extensions>
          <ns3:TrackPointExtension>
            <ns3:atemp>16.0</ns3:atemp>
            <ns3:hr>135</ns3:hr>
          </ns3:TrackPointExtension>
        </extensions>
      </trkpt>
      <trkpt lat="-22.09173023700714111328125" lon="166.4483694545924663543701171875">
        <ele>621.5999755859375</ele>
        <time>2016-08-12T18:32:36.000Z</time>
        <extensions>
          <ns3:TrackPointExtension>
            <ns3:atemp>16.0</ns3:atemp>
            <ns3:hr>135</ns3:hr>
          </ns3:TrackPointExtension>
        </extensions>
      </trkpt>
      <trkpt lat="-22.0917141437530517578125" lon="166.4483684487640857696533203125">
        <ele>621.5999755859375</ele>
        <time>2016-08-12T18:32:37.000Z</time>
        <extensions>
          <ns3:TrackPointExtension>
            <ns3:atemp>16.0</ns3:atemp>
            <ns3:hr>135</ns3:hr>
          </ns3:TrackPointExtension>
        </extensions>
      </trkpt>
      <trkpt lat="-22.0916928537189960479736328125" lon="166.44836400635540485382080078125">
        <ele>621.5999755859375</ele>
        <time>2016-08-12T18:32:38.000Z</time>
        <extensions>
          <ns3:TrackPointExtension>
            <ns3:atemp>16.0</ns3:atemp>
            <ns3:hr>135</ns3:hr>
          </ns3:TrackPointExtension>
        </extensions>
      </trkpt>
      <trkpt lat="-22.091669552028179168701171875" lon="166.4483602344989776611328125">
        <ele>621.79998779296875</ele>
        <time>2016-08-12T18:32:39.000Z</time>
        <extensions>
          <ns3:TrackPointExtension>
            <ns3:atemp>16.0</ns3:atemp>
            <ns3:hr>135</ns3:hr>
          </ns3:TrackPointExtension>
        </extensions>
      </trkpt>
      <trkpt lat="-22.091647423803806304931640625" lon="166.44835880957543849945068359375">
        <ele>621.79998779296875</ele>
        <time>2016-08-12T18:32:40.000Z</time>
        <extensions>
          <ns3:TrackPointExtension>
            <ns3:atemp>16.0</ns3:atemp>
            <ns3:hr>135</ns3:hr>
          </ns3:TrackPointExtension>
        </extensions>
      </trkpt>
      <trkpt lat="-22.0916244573891162872314453125" lon="166.44835059531033039093017578125">
        <ele>622</ele>
        <time>2016-08-12T18:32:41.000Z</time>
        <extensions>
          <ns3:TrackPointExtension>
            <ns3:atemp>16.0</ns3:atemp>
            <ns3:hr>136</ns3:hr>
          </ns3:TrackPointExtension>
        </extensions>
      </trkpt>
      <trkpt lat="-22.091601826250553131103515625" lon="166.44835310988128185272216796875">
        <ele>622</ele>
        <time>2016-08-12T18:32:42.000Z</time>
        <extensions>
          <ns3:TrackPointExtension>
            <ns3:atemp>16.0</ns3:atemp>
            <ns3:hr>136</ns3:hr>
          </ns3:TrackPointExtension>
        </extensions>
      </trkpt>
      <trkpt lat="-22.091577686369419097900390625" lon="166.4483560435473918914794921875">
        <ele>622</ele>
        <time>2016-08-12T18:32:43.000Z</time>
        <extensions>
          <ns3:TrackPointExtension>
            <ns3:atemp>16.0</ns3:atemp>
            <ns3:hr>136</ns3:hr>
          </ns3:TrackPointExtension>
        </extensions>
      </trkpt>
      <trkpt lat="-22.0915510319173336029052734375" lon="166.4483553729951381683349609375">
        <ele>621.79998779296875</ele>
        <time>2016-08-12T18:32:44.000Z</time>
        <extensions>
          <ns3:TrackPointExtension>
            <ns3:atemp>16.0</ns3:atemp>
            <ns3:hr>135</ns3:hr>
          </ns3:TrackPointExtension>
        </extensions>
      </trkpt>
      <trkpt lat="-22.0915262214839458465576171875" lon="166.44834690727293491363525390625">
        <ele>622.20001220703125</ele>
        <time>2016-08-12T18:32:45.000Z</time>
        <extensions>
          <ns3:TrackPointExtension>
            <ns3:atemp>16.0</ns3:atemp>
            <ns3:hr>136</ns3:hr>
          </ns3:TrackPointExtension>
        </extensions>
      </trkpt>
      <trkpt lat="-22.0915037579834461212158203125" lon="166.4483456499874591827392578125">
        <ele>622.20001220703125</ele>
        <time>2016-08-12T18:32:46.000Z</time>
        <extensions>
          <ns3:TrackPointExtension>
            <ns3:atemp>16.0</ns3:atemp>
            <ns3:hr>136</ns3:hr>
          </ns3:TrackPointExtension>
        </extensions>
      </trkpt>
      <trkpt lat="-22.09147953428328037261962890625" lon="166.4483433030545711517333984375">
        <ele>622</ele>
        <time>2016-08-12T18:32:47.000Z</time>
        <extensions>
          <ns3:TrackPointExtension>
            <ns3:atemp>16.0</ns3:atemp>
            <ns3:hr>136</ns3:hr>
          </ns3:TrackPointExtension>
        </extensions>
      </trkpt>
      <trkpt lat="-22.091462351381778717041015625" lon="166.44833986647427082061767578125">
        <ele>621.5999755859375</ele>
        <time>2016-08-12T18:32:48.000Z</time>
        <extensions>
          <ns3:TrackPointExtension>
            <ns3:atemp>16.0</ns3:atemp>
            <ns3:hr>136</ns3:hr>
          </ns3:TrackPointExtension>
        </extensions>
      </trkpt>
      <trkpt lat="-22.09144684486091136932373046875" lon="166.4483372680842876434326171875">
        <ele>621.4000244140625</ele>
        <time>2016-08-12T18:32:49.000Z</time>
        <extensions>
          <ns3:TrackPointExtension>
            <ns3:atemp>16.0</ns3:atemp>
            <ns3:hr>136</ns3:hr>
          </ns3:TrackPointExtension>
        </extensions>
      </trkpt>
      <trkpt lat="-22.09143427200615406036376953125" lon="166.44833810627460479736328125">
        <ele>621.4000244140625</ele>
        <time>2016-08-12T18:32:50.000Z</time>
        <extensions>
          <ns3:TrackPointExtension>
            <ns3:atemp>16.0</ns3:atemp>
            <ns3:hr>136</ns3:hr>
          </ns3:TrackPointExtension>
        </extensions>
      </trkpt>
      <trkpt lat="-22.091417424380779266357421875" lon="166.448339112102985382080078125">
        <ele>621.4000244140625</ele>
        <time>2016-08-12T18:32:51.000Z</time>
        <extensions>
          <ns3:TrackPointExtension>
            <ns3:atemp>16.0</ns3:atemp>
            <ns3:hr>136</ns3:hr>
          </ns3:TrackPointExtension>
        </extensions>
      </trkpt>
      <trkpt lat="-22.0914008282124996185302734375" lon="166.44834506325423717498779296875">
        <ele>621.4000244140625</ele>
        <time>2016-08-12T18:32:52.000Z</time>
        <extensions>
          <ns3:TrackPointExtension>
            <ns3:atemp>16.0</ns3:atemp>
            <ns3:hr>136</ns3:hr>
          </ns3:TrackPointExtension>
        </extensions>
      </trkpt>
      <trkpt lat="-22.09138381294906139373779296875" lon="166.448355205357074737548828125">
        <ele>621.5999755859375</ele>
        <time>2016-08-12T18:32:53.000Z</time>
        <extensions>
          <ns3:TrackPointExtension>
            <ns3:atemp>16.0</ns3:atemp>
            <ns3:hr>135</ns3:hr>
          </ns3:TrackPointExtension>
        </extensions>
      </trkpt>
      <trkpt lat="-22.09136067889630794525146484375" lon="166.448364593088626861572265625">
        <ele>621.79998779296875</ele>
        <time>2016-08-12T18:32:54.000Z</time>
        <extensions>
          <ns3:TrackPointExtension>
            <ns3:atemp>16.0</ns3:atemp>
            <ns3:hr>136</ns3:hr>
          </ns3:TrackPointExtension>
        </extensions>
      </trkpt>
      <trkpt lat="-22.0913364551961421966552734375" lon="166.44837104715406894683837890625">
        <ele>622.20001220703125</ele>
        <time>2016-08-12T18:32:55.000Z</time>
        <extensions>
          <ns3:TrackPointExtension>
            <ns3:atemp>16.0</ns3:atemp>
            <ns3:hr>135</ns3:hr>
          </ns3:TrackPointExtension>
        </extensions>
      </trkpt>
      <trkpt lat="-22.091313488781452178955078125" lon="166.44837741740047931671142578125">
        <ele>622.4000244140625</ele>
        <time>2016-08-12T18:32:56.000Z</time>
        <extensions>
          <ns3:TrackPointExtension>
            <ns3:atemp>16.0</ns3:atemp>
            <ns3:hr>136</ns3:hr>
          </ns3:TrackPointExtension>
        </extensions>
      </trkpt>
      <trkpt lat="-22.09128792397677898406982421875" lon="166.44838102161884307861328125">
        <ele>622.4000244140625</ele>
        <time>2016-08-12T18:32:57.000Z</time>
        <extensions>
          <ns3:TrackPointExtension>
            <ns3:atemp>16.0</ns3:atemp>
            <ns3:hr>136</ns3:hr>
          </ns3:TrackPointExtension>
        </extensions>
      </trkpt>
      <trkpt lat="-22.0912633650004863739013671875" lon="166.448383368551731109619140625">
        <ele>622.4000244140625</ele>
        <time>2016-08-12T18:32:58.000Z</time>
        <extensions>
          <ns3:TrackPointExtension>
            <ns3:atemp>16.0</ns3:atemp>
            <ns3:hr>136</ns3:hr>
          </ns3:TrackPointExtension>
        </extensions>
      </trkpt>
      <trkpt lat="-22.0912405662238597869873046875" lon="166.44837892614305019378662109375">
        <ele>622</ele>
        <time>2016-08-12T18:32:59.000Z</time>
        <extensions>
          <ns3:TrackPointExtension>
            <ns3:atemp>16.0</ns3:atemp>
            <ns3:hr>136</ns3:hr>
          </ns3:TrackPointExtension>
        </extensions>
      </trkpt>
      <trkpt lat="-22.09122640080749988555908203125" lon="166.448375992476940155029296875">
        <ele>622</ele>
        <time>2016-08-12T18:33:00.000Z</time>
        <extensions>
          <ns3:TrackPointExtension>
            <ns3:atemp>16.0</ns3:atemp>
            <ns3:hr>136</ns3:hr>
          </ns3:TrackPointExtension>
        </extensions>
      </trkpt>
      <trkpt lat="-22.09121131338179111480712890625" lon="166.4483788423240184783935546875">
        <ele>622</ele>
        <time>2016-08-12T18:33:01.000Z</time>
        <extensions>
          <ns3:TrackPointExtension>
            <ns3:atemp>16.0</ns3:atemp>
            <ns3:hr>136</ns3:hr>
          </ns3:TrackPointExtension>
        </extensions>
      </trkpt>
      <trkpt lat="-22.09120058454573154449462890625" lon="166.4483821950852870941162109375">
        <ele>622</ele>
        <time>2016-08-12T18:33:02.000Z</time>
        <extensions>
          <ns3:TrackPointExtension>
            <ns3:atemp>16.0</ns3:atemp>
            <ns3:hr>136</ns3:hr>
          </ns3:TrackPointExtension>
        </extensions>
      </trkpt>
      <trkpt lat="-22.09119304083287715911865234375" lon="166.4483872242271900177001953125">
        <ele>621.79998779296875</ele>
        <time>2016-08-12T18:33:03.000Z</time>
        <extensions>
          <ns3:TrackPointExtension>
            <ns3:atemp>16.0</ns3:atemp>
            <ns3:hr>136</ns3:hr>
          </ns3:TrackPointExtension>
        </extensions>
      </trkpt>
      <trkpt lat="-22.0911798812448978424072265625" lon="166.4483935944736003875732421875">
        <ele>621.79998779296875</ele>
        <time>2016-08-12T18:33:04.000Z</time>
        <extensions>
          <ns3:TrackPointExtension>
            <ns3:atemp>16.0</ns3:atemp>
            <ns3:hr>135</ns3:hr>
          </ns3:TrackPointExtension>
        </extensions>
      </trkpt>
      <trkpt lat="-22.09116873331367969512939453125" lon="166.44839887507259845733642578125">
        <ele>621.79998779296875</ele>
        <time>2016-08-12T18:33:05.000Z</time>
        <extensions>
          <ns3:TrackPointExtension>
            <ns3:atemp>16.0</ns3:atemp>
            <ns3:hr>135</ns3:hr>
          </ns3:TrackPointExtension>
        </extensions>
      </trkpt>
      <trkpt lat="-22.09115884266793727874755859375" lon="166.4484016411006450653076171875">
        <ele>621.79998779296875</ele>
        <time>2016-08-12T18:33:06.000Z</time>
        <extensions>
          <ns3:TrackPointExtension>
            <ns3:atemp>16.0</ns3:atemp>
            <ns3:hr>134</ns3:hr>
          </ns3:TrackPointExtension>
        </extensions>
      </trkpt>
      <trkpt lat="-22.09114576689898967742919921875" lon="166.44840382039546966552734375">
        <ele>621.79998779296875</ele>
        <time>2016-08-12T18:33:07.000Z</time>
        <extensions>
          <ns3:TrackPointExtension>
            <ns3:atemp>16.0</ns3:atemp>
            <ns3:hr>134</ns3:hr>
          </ns3:TrackPointExtension>
        </extensions>
      </trkpt>
      <trkpt lat="-22.0911319367587566375732421875" lon="166.44840809516608715057373046875">
        <ele>622</ele>
        <time>2016-08-12T18:33:08.000Z</time>
        <extensions>
          <ns3:TrackPointExtension>
            <ns3:atemp>16.0</ns3:atemp>
            <ns3:hr>133</ns3:hr>
          </ns3:TrackPointExtension>
        </extensions>
      </trkpt>
      <trkpt lat="-22.09112011827528476715087890625" lon="166.44841245375573635101318359375">
        <ele>622</ele>
        <time>2016-08-12T18:33:09.000Z</time>
        <extensions>
          <ns3:TrackPointExtension>
            <ns3:atemp>16.0</ns3:atemp>
            <ns3:hr>133</ns3:hr>
          </ns3:TrackPointExtension>
        </extensions>
      </trkpt>
      <trkpt lat="-22.09110586903989315032958984375" lon="166.44841228611767292022705078125">
        <ele>622</ele>
        <time>2016-08-12T18:33:10.000Z</time>
        <extensions>
          <ns3:TrackPointExtension>
            <ns3:atemp>16.0</ns3:atemp>
            <ns3:hr>132</ns3:hr>
          </ns3:TrackPointExtension>
        </extensions>
      </trkpt>
      <trkpt lat="-22.09109145216643810272216796875" lon="166.44841052591800689697265625">
        <ele>622</ele>
        <time>2016-08-12T18:33:11.000Z</time>
        <extensions>
          <ns3:TrackPointExtension>
            <ns3:atemp>16.0</ns3:atemp>
            <ns3:hr>132</ns3:hr>
          </ns3:TrackPointExtension>
        </extensions>
      </trkpt>
      <trkpt lat="-22.0910771191120147705078125" lon="166.44841379486024379730224609375">
        <ele>622</ele>
        <time>2016-08-12T18:33:12.000Z</time>
        <extensions>
          <ns3:TrackPointExtension>
            <ns3:atemp>16.0</ns3:atemp>
            <ns3:hr>132</ns3:hr>
          </ns3:TrackPointExtension>
        </extensions>
      </trkpt>
      <trkpt lat="-22.0910637080669403076171875" lon="166.4484173990786075592041015625">
        <ele>622</ele>
        <time>2016-08-12T18:33:13.000Z</time>
        <extensions>
          <ns3:TrackPointExtension>
            <ns3:atemp>16.0</ns3:atemp>
            <ns3:hr>131</ns3:hr>
          </ns3:TrackPointExtension>
        </extensions>
      </trkpt>
      <trkpt lat="-22.09104049019515514373779296875" lon="166.44842452369630336761474609375">
        <ele>622</ele>
        <time>2016-08-12T18:33:14.000Z</time>
        <extensions>
          <ns3:TrackPointExtension>
            <ns3:atemp>16.0</ns3:atemp>
            <ns3:hr>131</ns3:hr>
          </ns3:TrackPointExtension>
        </extensions>
      </trkpt>
      <trkpt lat="-22.0910132490098476409912109375" lon="166.4484287984669208526611328125">
        <ele>622.4000244140625</ele>
        <time>2016-08-12T18:33:15.000Z</time>
        <extensions>
          <ns3:TrackPointExtension>
            <ns3:atemp>16.0</ns3:atemp>
            <ns3:hr>130</ns3:hr>
          </ns3:TrackPointExtension>
        </extensions>
      </trkpt>
      <trkpt lat="-22.0909830741584300994873046875" lon="166.44843558780848979949951171875">
        <ele>622.4000244140625</ele>
        <time>2016-08-12T18:33:16.000Z</time>
        <extensions>
          <ns3:TrackPointExtension>
            <ns3:atemp>16.0</ns3:atemp>
            <ns3:hr>131</ns3:hr>
          </ns3:TrackPointExtension>
        </extensions>
      </trkpt>
      <trkpt lat="-22.09095776081085205078125" lon="166.44843391142785549163818359375">
        <ele>622.5999755859375</ele>
        <time>2016-08-12T18:33:17.000Z</time>
        <extensions>
          <ns3:TrackPointExtension>
            <ns3:atemp>16.0</ns3:atemp>
            <ns3:hr>131</ns3:hr>
          </ns3:TrackPointExtension>
        </extensions>
      </trkpt>
      <trkpt lat="-22.09093169309198856353759765625" lon="166.4484251104295253753662109375">
        <ele>623</ele>
        <time>2016-08-12T18:33:18.000Z</time>
        <extensions>
          <ns3:TrackPointExtension>
            <ns3:atemp>16.0</ns3:atemp>
            <ns3:hr>131</ns3:hr>
          </ns3:TrackPointExtension>
        </extensions>
      </trkpt>
      <trkpt lat="-22.09090411663055419921875" lon="166.44842485897243022918701171875">
        <ele>623.4000244140625</ele>
        <time>2016-08-12T18:33:19.000Z</time>
        <extensions>
          <ns3:TrackPointExtension>
            <ns3:atemp>16.0</ns3:atemp>
            <ns3:hr>131</ns3:hr>
          </ns3:TrackPointExtension>
        </extensions>
      </trkpt>
      <trkpt lat="-22.0908831618726253509521484375" lon="166.4484210871160030364990234375">
        <ele>623.4000244140625</ele>
        <time>2016-08-12T18:33:20.000Z</time>
        <extensions>
          <ns3:TrackPointExtension>
            <ns3:atemp>16.0</ns3:atemp>
            <ns3:hr>131</ns3:hr>
          </ns3:TrackPointExtension>
        </extensions>
      </trkpt>
      <trkpt lat="-22.09085541777312755584716796875" lon="166.4484180696308612823486328125">
        <ele>623.20001220703125</ele>
        <time>2016-08-12T18:33:21.000Z</time>
        <extensions>
          <ns3:TrackPointExtension>
            <ns3:atemp>16.0</ns3:atemp>
            <ns3:hr>131</ns3:hr>
          </ns3:TrackPointExtension>
        </extensions>
      </trkpt>
      <trkpt lat="-22.0908338762819766998291015625" lon="166.4484170638024806976318359375">
        <ele>623.20001220703125</ele>
        <time>2016-08-12T18:33:22.000Z</time>
        <extensions>
          <ns3:TrackPointExtension>
            <ns3:atemp>16.0</ns3:atemp>
            <ns3:hr>131</ns3:hr>
          </ns3:TrackPointExtension>
        </extensions>
      </trkpt>
      <trkpt lat="-22.0908107422292232513427734375" lon="166.448410190641880035400390625">
        <ele>623</ele>
        <time>2016-08-12T18:33:23.000Z</time>
        <extensions>
          <ns3:TrackPointExtension>
            <ns3:atemp>16.0</ns3:atemp>
            <ns3:hr>131</ns3:hr>
          </ns3:TrackPointExtension>
        </extensions>
      </trkpt>
      <trkpt lat="-22.0907899551093578338623046875" lon="166.44840457476675510406494140625">
        <ele>623.4000244140625</ele>
        <time>2016-08-12T18:33:24.000Z</time>
        <extensions>
          <ns3:TrackPointExtension>
            <ns3:atemp>16.0</ns3:atemp>
            <ns3:hr>131</ns3:hr>
          </ns3:TrackPointExtension>
        </extensions>
      </trkpt>
      <trkpt lat="-22.0907668210566043853759765625" lon="166.44839979708194732666015625">
        <ele>623.79998779296875</ele>
        <time>2016-08-12T18:33:25.000Z</time>
        <extensions>
          <ns3:TrackPointExtension>
            <ns3:atemp>16.0</ns3:atemp>
            <ns3:hr>132</ns3:hr>
          </ns3:TrackPointExtension>
        </extensions>
      </trkpt>
      <trkpt lat="-22.0907440222799777984619140625" lon="166.4483979530632495880126953125">
        <ele>623.79998779296875</ele>
        <time>2016-08-12T18:33:26.000Z</time>
        <extensions>
          <ns3:TrackPointExtension>
            <ns3:atemp>16.0</ns3:atemp>
            <ns3:hr>132</ns3:hr>
          </ns3:TrackPointExtension>
        </extensions>
      </trkpt>
      <trkpt lat="-22.09072063677012920379638671875" lon="166.4483952708542346954345703125">
        <ele>624</ele>
        <time>2016-08-12T18:33:27.000Z</time>
        <extensions>
          <ns3:TrackPointExtension>
            <ns3:atemp>16.0</ns3:atemp>
            <ns3:hr>131</ns3:hr>
          </ns3:TrackPointExtension>
        </extensions>
      </trkpt>
      <trkpt lat="-22.0907011069357395172119140625" lon="166.44839443266391754150390625">
        <ele>624.20001220703125</ele>
        <time>2016-08-12T18:33:28.000Z</time>
        <extensions>
          <ns3:TrackPointExtension>
            <ns3:atemp>16.0</ns3:atemp>
            <ns3:hr>132</ns3:hr>
          </ns3:TrackPointExtension>
        </extensions>
      </trkpt>
      <trkpt lat="-22.09067721851170063018798828125" lon="166.44840113818645477294921875">
        <ele>624.20001220703125</ele>
        <time>2016-08-12T18:33:29.000Z</time>
        <extensions>
          <ns3:TrackPointExtension>
            <ns3:atemp>16.0</ns3:atemp>
            <ns3:hr>132</ns3:hr>
          </ns3:TrackPointExtension>
        </extensions>
      </trkpt>
      <trkpt lat="-22.09065190516412258148193359375" lon="166.448413543403148651123046875">
        <ele>624.4000244140625</ele>
        <time>2016-08-12T18:33:30.000Z</time>
        <extensions>
          <ns3:TrackPointExtension>
            <ns3:atemp>16.0</ns3:atemp>
            <ns3:hr>132</ns3:hr>
          </ns3:TrackPointExtension>
        </extensions>
      </trkpt>
      <trkpt lat="-22.09062994457781314849853515625" lon="166.4484251104295253753662109375">
        <ele>624.79998779296875</ele>
        <time>2016-08-12T18:33:31.000Z</time>
        <extensions>
          <ns3:TrackPointExtension>
            <ns3:atemp>16.0</ns3:atemp>
            <ns3:hr>132</ns3:hr>
          </ns3:TrackPointExtension>
        </extensions>
      </trkpt>
      <trkpt lat="-22.0906102471053600311279296875" lon="166.4484348334372043609619140625">
        <ele>624.79998779296875</ele>
        <time>2016-08-12T18:33:32.000Z</time>
        <extensions>
          <ns3:TrackPointExtension>
            <ns3:atemp>16.0</ns3:atemp>
            <ns3:hr>132</ns3:hr>
          </ns3:TrackPointExtension>
        </extensions>
      </trkpt>
      <trkpt lat="-22.0905830897390842437744140625" lon="166.44844581373035907745361328125">
        <ele>624.79998779296875</ele>
        <time>2016-08-12T18:33:33.000Z</time>
        <extensions>
          <ns3:TrackPointExtension>
            <ns3:atemp>16.0</ns3:atemp>
            <ns3:hr>132</ns3:hr>
          </ns3:TrackPointExtension>
        </extensions>
      </trkpt>
      <trkpt lat="-22.0905636437237262725830078125" lon="166.44845218397676944732666015625">
        <ele>625</ele>
        <time>2016-08-12T18:33:34.000Z</time>
        <extensions>
          <ns3:TrackPointExtension>
            <ns3:atemp>16.0</ns3:atemp>
            <ns3:hr>132</ns3:hr>
          </ns3:TrackPointExtension>
        </extensions>
      </trkpt>
      <trkpt lat="-22.09054025821387767791748046875" lon="166.44845671020448207855224609375">
        <ele>625.20001220703125</ele>
        <time>2016-08-12T18:33:35.000Z</time>
        <extensions>
          <ns3:TrackPointExtension>
            <ns3:atemp>16.0</ns3:atemp>
            <ns3:hr>133</ns3:hr>
          </ns3:TrackPointExtension>
        </extensions>
      </trkpt>
      <trkpt lat="-22.0905125141143798828125" lon="166.44846140407025814056396484375">
        <ele>625.20001220703125</ele>
        <time>2016-08-12T18:33:36.000Z</time>
        <extensions>
          <ns3:TrackPointExtension>
            <ns3:atemp>16.0</ns3:atemp>
            <ns3:hr>133</ns3:hr>
          </ns3:TrackPointExtension>
        </extensions>
      </trkpt>
      <trkpt lat="-22.09048510529100894927978515625" lon="166.448463499546051025390625">
        <ele>625.4000244140625</ele>
        <time>2016-08-12T18:33:37.000Z</time>
        <extensions>
          <ns3:TrackPointExtension>
            <ns3:atemp>16.0</ns3:atemp>
            <ns3:hr>133</ns3:hr>
          </ns3:TrackPointExtension>
        </extensions>
      </trkpt>
      <trkpt lat="-22.09045928902924060821533203125" lon="166.44846458919346332550048828125">
        <ele>625.5999755859375</ele>
        <time>2016-08-12T18:33:38.000Z</time>
        <extensions>
          <ns3:TrackPointExtension>
            <ns3:atemp>16.0</ns3:atemp>
            <ns3:hr>133</ns3:hr>
          </ns3:TrackPointExtension>
        </extensions>
      </trkpt>
      <trkpt lat="-22.09043598733842372894287109375" lon="166.44846417009830474853515625">
        <ele>625.5999755859375</ele>
        <time>2016-08-12T18:33:39.000Z</time>
        <extensions>
          <ns3:TrackPointExtension>
            <ns3:atemp>16.0</ns3:atemp>
            <ns3:hr>133</ns3:hr>
          </ns3:TrackPointExtension>
        </extensions>
      </trkpt>
      <trkpt lat="-22.09040748886764049530029296875" lon="166.4484526030719280242919921875">
        <ele>625.79998779296875</ele>
        <time>2016-08-12T18:33:40.000Z</time>
        <extensions>
          <ns3:TrackPointExtension>
            <ns3:atemp>16.0</ns3:atemp>
            <ns3:hr>133</ns3:hr>
          </ns3:TrackPointExtension>
        </extensions>
      </trkpt>
      <trkpt lat="-22.09038318134844303131103515625" lon="166.44844816066324710845947265625">
        <ele>626</ele>
        <time>2016-08-12T18:33:41.000Z</time>
        <extensions>
          <ns3:TrackPointExtension>
            <ns3:atemp>16.0</ns3:atemp>
            <ns3:hr>134</ns3:hr>
          </ns3:TrackPointExtension>
        </extensions>
      </trkpt>
      <trkpt lat="-22.09036055020987987518310546875" lon="166.4484432153403759002685546875">
        <ele>626</ele>
        <time>2016-08-12T18:33:42.000Z</time>
        <extensions>
          <ns3:TrackPointExtension>
            <ns3:atemp>16.0</ns3:atemp>
            <ns3:hr>134</ns3:hr>
          </ns3:TrackPointExtension>
        </extensions>
      </trkpt>
      <trkpt lat="-22.0903423614799976348876953125" lon="166.448432318866252899169921875">
        <ele>626</ele>
        <time>2016-08-12T18:33:43.000Z</time>
        <extensions>
          <ns3:TrackPointExtension>
            <ns3:atemp>16.0</ns3:atemp>
            <ns3:hr>134</ns3:hr>
          </ns3:TrackPointExtension>
        </extensions>
      </trkpt>
      <trkpt lat="-22.09032065235078334808349609375" lon="166.44842536188662052154541015625">
        <ele>625.79998779296875</ele>
        <time>2016-08-12T18:33:44.000Z</time>
        <extensions>
          <ns3:TrackPointExtension>
            <ns3:atemp>16.0</ns3:atemp>
            <ns3:hr>134</ns3:hr>
          </ns3:TrackPointExtension>
        </extensions>
      </trkpt>
      <trkpt lat="-22.0902979373931884765625" lon="166.4484170638024806976318359375">
        <ele>625.79998779296875</ele>
        <time>2016-08-12T18:33:45.000Z</time>
        <extensions>
          <ns3:TrackPointExtension>
            <ns3:atemp>16.0</ns3:atemp>
            <ns3:hr>135</ns3:hr>
          </ns3:TrackPointExtension>
        </extensions>
      </trkpt>
      <trkpt lat="-22.0902753062546253204345703125" lon="166.4484113641083240509033203125">
        <ele>626</ele>
        <time>2016-08-12T18:33:46.000Z</time>
        <extensions>
          <ns3:TrackPointExtension>
            <ns3:atemp>16.0</ns3:atemp>
            <ns3:hr>135</ns3:hr>
          </ns3:TrackPointExtension>
        </extensions>
      </trkpt>
      <trkpt lat="-22.0902504958212375640869140625" lon="166.4484120346605777740478515625">
        <ele>626</ele>
        <time>2016-08-12T18:33:47.000Z</time>
        <extensions>
          <ns3:TrackPointExtension>
            <ns3:atemp>16.0</ns3:atemp>
            <ns3:hr>135</ns3:hr>
          </ns3:TrackPointExtension>
        </extensions>
      </trkpt>
      <trkpt lat="-22.0902250148355960845947265625" lon="166.4484190754592418670654296875">
        <ele>625.79998779296875</ele>
        <time>2016-08-12T18:33:48.000Z</time>
        <extensions>
          <ns3:TrackPointExtension>
            <ns3:atemp>16.0</ns3:atemp>
            <ns3:hr>135</ns3:hr>
          </ns3:TrackPointExtension>
        </extensions>
      </trkpt>
      <trkpt lat="-22.09020162932574748992919921875" lon="166.4484227634966373443603515625">
        <ele>626.20001220703125</ele>
        <time>2016-08-12T18:33:49.000Z</time>
        <extensions>
          <ns3:TrackPointExtension>
            <ns3:atemp>16.0</ns3:atemp>
            <ns3:hr>135</ns3:hr>
          </ns3:TrackPointExtension>
        </extensions>
      </trkpt>
      <trkpt lat="-22.09018461406230926513671875" lon="166.4484244398772716522216796875">
        <ele>626.20001220703125</ele>
        <time>2016-08-12T18:33:50.000Z</time>
        <extensions>
          <ns3:TrackPointExtension>
            <ns3:atemp>16.0</ns3:atemp>
            <ns3:hr>135</ns3:hr>
          </ns3:TrackPointExtension>
        </extensions>
      </trkpt>
      <trkpt lat="-22.09016659297049045562744140625" lon="166.44842720590531826019287109375">
        <ele>626.4000244140625</ele>
        <time>2016-08-12T18:33:51.000Z</time>
        <extensions>
          <ns3:TrackPointExtension>
            <ns3:atemp>16.0</ns3:atemp>
            <ns3:hr>135</ns3:hr>
          </ns3:TrackPointExtension>
        </extensions>
      </trkpt>
      <trkpt lat="-22.09014982916414737701416015625" lon="166.44842837937176227569580078125">
        <ele>626.5999755859375</ele>
        <time>2016-08-12T18:33:52.000Z</time>
        <extensions>
          <ns3:TrackPointExtension>
            <ns3:atemp>16.0</ns3:atemp>
            <ns3:hr>136</ns3:hr>
          </ns3:TrackPointExtension>
        </extensions>
      </trkpt>
      <trkpt lat="-22.09013021551072597503662109375" lon="166.44843189977109432220458984375">
        <ele>626.5999755859375</ele>
        <time>2016-08-12T18:33:53.000Z</time>
        <extensions>
          <ns3:TrackPointExtension>
            <ns3:atemp>16.0</ns3:atemp>
            <ns3:hr>135</ns3:hr>
          </ns3:TrackPointExtension>
        </extensions>
      </trkpt>
      <trkpt lat="-22.0901096798479557037353515625" lon="166.44843324087560176849365234375">
        <ele>626.5999755859375</ele>
        <time>2016-08-12T18:33:54.000Z</time>
        <extensions>
          <ns3:TrackPointExtension>
            <ns3:atemp>16.0</ns3:atemp>
            <ns3:hr>136</ns3:hr>
          </ns3:TrackPointExtension>
        </extensions>
      </trkpt>
      <trkpt lat="-22.09008998237550258636474609375" lon="166.448435001075267791748046875">
        <ele>626.79998779296875</ele>
        <time>2016-08-12T18:33:55.000Z</time>
        <extensions>
          <ns3:TrackPointExtension>
            <ns3:atemp>16.0</ns3:atemp>
            <ns3:hr>135</ns3:hr>
          </ns3:TrackPointExtension>
        </extensions>
      </trkpt>
      <trkpt lat="-22.09007355384528636932373046875" lon="166.44844413734972476959228515625">
        <ele>626.5999755859375</ele>
        <time>2016-08-12T18:33:56.000Z</time>
        <extensions>
          <ns3:TrackPointExtension>
            <ns3:atemp>16.0</ns3:atemp>
            <ns3:hr>135</ns3:hr>
          </ns3:TrackPointExtension>
        </extensions>
      </trkpt>
      <trkpt lat="-22.09005209617316722869873046875" lon="166.448450423777103424072265625">
        <ele>626.5999755859375</ele>
        <time>2016-08-12T18:33:57.000Z</time>
        <extensions>
          <ns3:TrackPointExtension>
            <ns3:atemp>16.0</ns3:atemp>
            <ns3:hr>135</ns3:hr>
          </ns3:TrackPointExtension>
        </extensions>
      </trkpt>
      <trkpt lat="-22.09003306925296783447265625" lon="166.44845612347126007080078125">
        <ele>626.5999755859375</ele>
        <time>2016-08-12T18:33:58.000Z</time>
        <extensions>
          <ns3:TrackPointExtension>
            <ns3:atemp>16.0</ns3:atemp>
            <ns3:hr>135</ns3:hr>
          </ns3:TrackPointExtension>
        </extensions>
      </trkpt>
      <trkpt lat="-22.0900095999240875244140625" lon="166.4484670199453830718994140625">
        <ele>626.5999755859375</ele>
        <time>2016-08-12T18:33:59.000Z</time>
        <extensions>
          <ns3:TrackPointExtension>
            <ns3:atemp>16.0</ns3:atemp>
            <ns3:hr>136</ns3:hr>
          </ns3:TrackPointExtension>
        </extensions>
      </trkpt>
      <trkpt lat="-22.08998923189938068389892578125" lon="166.44847867079079151153564453125">
        <ele>626.5999755859375</ele>
        <time>2016-08-12T18:34:00.000Z</time>
        <extensions>
          <ns3:TrackPointExtension>
            <ns3:atemp>16.0</ns3:atemp>
            <ns3:hr>136</ns3:hr>
          </ns3:TrackPointExtension>
        </extensions>
      </trkpt>
      <trkpt lat="-22.08997313864529132843017578125" lon="166.448496691882610321044921875">
        <ele>626.79998779296875</ele>
        <time>2016-08-12T18:34:01.000Z</time>
        <extensions>
          <ns3:TrackPointExtension>
            <ns3:atemp>16.0</ns3:atemp>
            <ns3:hr>136</ns3:hr>
          </ns3:TrackPointExtension>
        </extensions>
      </trkpt>
      <trkpt lat="-22.0899591408669948577880859375" lon="166.44851957447826862335205078125">
        <ele>626.5999755859375</ele>
        <time>2016-08-12T18:34:02.000Z</time>
        <extensions>
          <ns3:TrackPointExtension>
            <ns3:atemp>16.0</ns3:atemp>
            <ns3:hr>136</ns3:hr>
          </ns3:TrackPointExtension>
        </extensions>
      </trkpt>
      <trkpt lat="-22.089941203594207763671875" lon="166.44854019396007061004638671875">
        <ele>626.79998779296875</ele>
        <time>2016-08-12T18:34:03.000Z</time>
        <extensions>
          <ns3:TrackPointExtension>
            <ns3:atemp>16.0</ns3:atemp>
            <ns3:hr>135</ns3:hr>
          </ns3:TrackPointExtension>
        </extensions>
      </trkpt>
      <trkpt lat="-22.0899252779781818389892578125" lon="166.44855796359479427337646484375">
        <ele>626.79998779296875</ele>
        <time>2016-08-12T18:34:04.000Z</time>
        <extensions>
          <ns3:TrackPointExtension>
            <ns3:atemp>16.0</ns3:atemp>
            <ns3:hr>135</ns3:hr>
          </ns3:TrackPointExtension>
        </extensions>
      </trkpt>
      <trkpt lat="-22.0899075083434581756591796875" lon="166.448580510914325714111328125">
        <ele>626.79998779296875</ele>
        <time>2016-08-12T18:34:05.000Z</time>
        <extensions>
          <ns3:TrackPointExtension>
            <ns3:atemp>16.0</ns3:atemp>
            <ns3:hr>135</ns3:hr>
          </ns3:TrackPointExtension>
        </extensions>
      </trkpt>
      <trkpt lat="-22.0898951031267642974853515625" lon="166.44860322587192058563232421875">
        <ele>626.79998779296875</ele>
        <time>2016-08-12T18:34:06.000Z</time>
        <extensions>
          <ns3:TrackPointExtension>
            <ns3:atemp>16.0</ns3:atemp>
            <ns3:hr>135</ns3:hr>
          </ns3:TrackPointExtension>
        </extensions>
      </trkpt>
      <trkpt lat="-22.08988077007234096527099609375" lon="166.448626779019832611083984375">
        <ele>627</ele>
        <time>2016-08-12T18:34:07.000Z</time>
        <extensions>
          <ns3:TrackPointExtension>
            <ns3:atemp>16.0</ns3:atemp>
            <ns3:hr>135</ns3:hr>
          </ns3:TrackPointExtension>
        </extensions>
      </trkpt>
      <trkpt lat="-22.089869119226932525634765625" lon="166.4486547745764255523681640625">
        <ele>627</ele>
        <time>2016-08-12T18:34:08.000Z</time>
        <extensions>
          <ns3:TrackPointExtension>
            <ns3:atemp>16.0</ns3:atemp>
            <ns3:hr>135</ns3:hr>
          </ns3:TrackPointExtension>
        </extensions>
      </trkpt>
      <trkpt lat="-22.089861072599887847900390625" lon="166.44868017174303531646728515625">
        <ele>627</ele>
        <time>2016-08-12T18:34:09.000Z</time>
        <extensions>
          <ns3:TrackPointExtension>
            <ns3:atemp>16.0</ns3:atemp>
            <ns3:hr>135</ns3:hr>
          </ns3:TrackPointExtension>
        </extensions>
      </trkpt>
      <trkpt lat="-22.089855037629604339599609375" lon="166.4487040601670742034912109375">
        <ele>627.20001220703125</ele>
        <time>2016-08-12T18:34:10.000Z</time>
        <extensions>
          <ns3:TrackPointExtension>
            <ns3:atemp>16.0</ns3:atemp>
            <ns3:hr>135</ns3:hr>
          </ns3:TrackPointExtension>
        </extensions>
      </trkpt>
      <trkpt lat="-22.0898459851741790771484375" lon="166.44872828386723995208740234375">
        <ele>627</ele>
        <time>2016-08-12T18:34:11.000Z</time>
        <extensions>
          <ns3:TrackPointExtension>
            <ns3:atemp>16.0</ns3:atemp>
            <ns3:hr>135</ns3:hr>
          </ns3:TrackPointExtension>
        </extensions>
      </trkpt>
      <trkpt lat="-22.0898371003568172454833984375" lon="166.4487518370151519775390625">
        <ele>627</ele>
        <time>2016-08-12T18:34:12.000Z</time>
        <extensions>
          <ns3:TrackPointExtension>
            <ns3:atemp>16.0</ns3:atemp>
            <ns3:hr>135</ns3:hr>
          </ns3:TrackPointExtension>
        </extensions>
      </trkpt>
      <trkpt lat="-22.08982259966433048248291015625" lon="166.44877622835338115692138671875">
        <ele>627.20001220703125</ele>
        <time>2016-08-12T18:34:13.000Z</time>
        <extensions>
          <ns3:TrackPointExtension>
            <ns3:atemp>16.0</ns3:atemp>
            <ns3:hr>135</ns3:hr>
          </ns3:TrackPointExtension>
        </extensions>
      </trkpt>
      <trkpt lat="-22.0898164808750152587890625" lon="166.44879885949194431304931640625">
        <ele>627.20001220703125</ele>
        <time>2016-08-12T18:34:14.000Z</time>
        <extensions>
          <ns3:TrackPointExtension>
            <ns3:atemp>16.0</ns3:atemp>
            <ns3:hr>135</ns3:hr>
          </ns3:TrackPointExtension>
        </extensions>
      </trkpt>
      <trkpt lat="-22.0898030698299407958984375" lon="166.44882232882082462310791015625">
        <ele>627.20001220703125</ele>
        <time>2016-08-12T18:34:15.000Z</time>
        <extensions>
          <ns3:TrackPointExtension>
            <ns3:atemp>16.0</ns3:atemp>
            <ns3:hr>135</ns3:hr>
          </ns3:TrackPointExtension>
        </extensions>
      </trkpt>
      <trkpt lat="-22.08978856913745403289794921875" lon="166.44884445704519748687744140625">
        <ele>627.20001220703125</ele>
        <time>2016-08-12T18:34:16.000Z</time>
        <extensions>
          <ns3:TrackPointExtension>
            <ns3:atemp>16.0</ns3:atemp>
            <ns3:hr>135</ns3:hr>
          </ns3:TrackPointExtension>
        </extensions>
      </trkpt>
      <trkpt lat="-22.08977649919688701629638671875" lon="166.44886272959411144256591796875">
        <ele>627.20001220703125</ele>
        <time>2016-08-12T18:34:17.000Z</time>
        <extensions>
          <ns3:TrackPointExtension>
            <ns3:atemp>16.0</ns3:atemp>
            <ns3:hr>136</ns3:hr>
          </ns3:TrackPointExtension>
        </extensions>
      </trkpt>
      <trkpt lat="-22.089763171970844268798828125" lon="166.4488854445517063140869140625">
        <ele>627</ele>
        <time>2016-08-12T18:34:18.000Z</time>
        <extensions>
          <ns3:TrackPointExtension>
            <ns3:atemp>16.0</ns3:atemp>
            <ns3:hr>135</ns3:hr>
          </ns3:TrackPointExtension>
        </extensions>
      </trkpt>
      <trkpt lat="-22.0897465758025646209716796875" lon="166.44890547730028629302978515625">
        <ele>627</ele>
        <time>2016-08-12T18:34:19.000Z</time>
        <extensions>
          <ns3:TrackPointExtension>
            <ns3:atemp>16.0</ns3:atemp>
            <ns3:hr>135</ns3:hr>
          </ns3:TrackPointExtension>
        </extensions>
      </trkpt>
      <trkpt lat="-22.08973743952810764312744140625" lon="166.4489250071346759796142578125">
        <ele>627.20001220703125</ele>
        <time>2016-08-12T18:34:20.000Z</time>
        <extensions>
          <ns3:TrackPointExtension>
            <ns3:atemp>16.0</ns3:atemp>
            <ns3:hr>135</ns3:hr>
          </ns3:TrackPointExtension>
        </extensions>
      </trkpt>
      <trkpt lat="-22.08972369320690631866455078125" lon="166.44894956611096858978271484375">
        <ele>627</ele>
        <time>2016-08-12T18:34:21.000Z</time>
        <extensions>
          <ns3:TrackPointExtension>
            <ns3:atemp>16.0</ns3:atemp>
            <ns3:hr>135</ns3:hr>
          </ns3:TrackPointExtension>
        </extensions>
      </trkpt>
      <trkpt lat="-22.089711539447307586669921875" lon="166.44897320307791233062744140625">
        <ele>627.20001220703125</ele>
        <time>2016-08-12T18:34:22.000Z</time>
        <extensions>
          <ns3:TrackPointExtension>
            <ns3:atemp>16.0</ns3:atemp>
            <ns3:hr>135</ns3:hr>
          </ns3:TrackPointExtension>
        </extensions>
      </trkpt>
      <trkpt lat="-22.08970575593411922454833984375" lon="166.4489927329123020172119140625">
        <ele>627.4000244140625</ele>
        <time>2016-08-12T18:34:23.000Z</time>
        <extensions>
          <ns3:TrackPointExtension>
            <ns3:atemp>16.0</ns3:atemp>
            <ns3:hr>135</ns3:hr>
          </ns3:TrackPointExtension>
        </extensions>
      </trkpt>
      <trkpt lat="-22.08969670347869396209716796875" lon="166.4490088261663913726806640625">
        <ele>627.20001220703125</ele>
        <time>2016-08-12T18:34:24.000Z</time>
        <extensions>
          <ns3:TrackPointExtension>
            <ns3:atemp>16.0</ns3:atemp>
            <ns3:hr>135</ns3:hr>
          </ns3:TrackPointExtension>
        </extensions>
      </trkpt>
      <trkpt lat="-22.08968815393745899200439453125" lon="166.44902818836271762847900390625">
        <ele>627.4000244140625</ele>
        <time>2016-08-12T18:34:25.000Z</time>
        <extensions>
          <ns3:TrackPointExtension>
            <ns3:atemp>16.0</ns3:atemp>
            <ns3:hr>135</ns3:hr>
          </ns3:TrackPointExtension>
        </extensions>
      </trkpt>
      <trkpt lat="-22.08968035876750946044921875" lon="166.44904553890228271484375">
        <ele>627.4000244140625</ele>
        <time>2016-08-12T18:34:26.000Z</time>
        <extensions>
          <ns3:TrackPointExtension>
            <ns3:atemp>16.0</ns3:atemp>
            <ns3:hr>135</ns3:hr>
          </ns3:TrackPointExtension>
        </extensions>
      </trkpt>
      <trkpt lat="-22.089671306312084197998046875" lon="166.4490611292421817779541015625">
        <ele>627.4000244140625</ele>
        <time>2016-08-12T18:34:27.000Z</time>
        <extensions>
          <ns3:TrackPointExtension>
            <ns3:atemp>16.0</ns3:atemp>
            <ns3:hr>135</ns3:hr>
          </ns3:TrackPointExtension>
        </extensions>
      </trkpt>
      <trkpt lat="-22.08966166712343692779541015625" lon="166.44907847978174686431884765625">
        <ele>627.20001220703125</ele>
        <time>2016-08-12T18:34:28.000Z</time>
        <extensions>
          <ns3:TrackPointExtension>
            <ns3:atemp>16.0</ns3:atemp>
            <ns3:hr>135</ns3:hr>
          </ns3:TrackPointExtension>
        </extensions>
      </trkpt>
      <trkpt lat="-22.08965982310473918914794921875" lon="166.4490966685116291046142578125">
        <ele>627.20001220703125</ele>
        <time>2016-08-12T18:34:29.000Z</time>
        <extensions>
          <ns3:TrackPointExtension>
            <ns3:atemp>16.0</ns3:atemp>
            <ns3:hr>134</ns3:hr>
          </ns3:TrackPointExtension>
        </extensions>
      </trkpt>
      <trkpt lat="-22.0896516926586627960205078125" lon="166.449121646583080291748046875">
        <ele>627</ele>
        <time>2016-08-12T18:34:30.000Z</time>
        <extensions>
          <ns3:TrackPointExtension>
            <ns3:atemp>16.0</ns3:atemp>
            <ns3:hr>134</ns3:hr>
          </ns3:TrackPointExtension>
        </extensions>
      </trkpt>
      <trkpt lat="-22.0896466635167598724365234375" lon="166.44914469681680202484130859375">
        <ele>627.20001220703125</ele>
        <time>2016-08-12T18:34:31.000Z</time>
        <extensions>
          <ns3:TrackPointExtension>
            <ns3:atemp>16.0</ns3:atemp>
            <ns3:hr>134</ns3:hr>
          </ns3:TrackPointExtension>
        </extensions>
      </trkpt>
      <trkpt lat="-22.08964926190674304962158203125" lon="166.449167244136333465576171875">
        <ele>627.20001220703125</ele>
        <time>2016-08-12T18:34:32.000Z</time>
        <extensions>
          <ns3:TrackPointExtension>
            <ns3:atemp>16.0</ns3:atemp>
            <ns3:hr>134</ns3:hr>
          </ns3:TrackPointExtension>
        </extensions>
      </trkpt>
      <trkpt lat="-22.0896423049271106719970703125" lon="166.4491905458271503448486328125">
        <ele>627.20001220703125</ele>
        <time>2016-08-12T18:34:33.000Z</time>
        <extensions>
          <ns3:TrackPointExtension>
            <ns3:atemp>16.0</ns3:atemp>
            <ns3:hr>134</ns3:hr>
          </ns3:TrackPointExtension>
        </extensions>
      </trkpt>
      <trkpt lat="-22.0896339230239391326904296875" lon="166.449214518070220947265625">
        <ele>627.4000244140625</ele>
        <time>2016-08-12T18:34:34.000Z</time>
        <extensions>
          <ns3:TrackPointExtension>
            <ns3:atemp>16.0</ns3:atemp>
            <ns3:hr>134</ns3:hr>
          </ns3:TrackPointExtension>
        </extensions>
      </trkpt>
      <trkpt lat="-22.0896262116730213165283203125" lon="166.44924108870327472686767578125">
        <ele>627.5999755859375</ele>
        <time>2016-08-12T18:34:35.000Z</time>
        <extensions>
          <ns3:TrackPointExtension>
            <ns3:atemp>16.0</ns3:atemp>
            <ns3:hr>134</ns3:hr>
          </ns3:TrackPointExtension>
        </extensions>
      </trkpt>
      <trkpt lat="-22.08961238153278827667236328125" lon="166.44926791079342365264892578125">
        <ele>627.5999755859375</ele>
        <time>2016-08-12T18:34:36.000Z</time>
        <extensions>
          <ns3:TrackPointExtension>
            <ns3:atemp>16.0</ns3:atemp>
            <ns3:hr>134</ns3:hr>
          </ns3:TrackPointExtension>
        </extensions>
      </trkpt>
      <trkpt lat="-22.08959721028804779052734375" lon="166.4492871053516864776611328125">
        <ele>627.4000244140625</ele>
        <time>2016-08-12T18:34:37.000Z</time>
        <extensions>
          <ns3:TrackPointExtension>
            <ns3:atemp>16.0</ns3:atemp>
            <ns3:hr>134</ns3:hr>
          </ns3:TrackPointExtension>
        </extensions>
      </trkpt>
      <trkpt lat="-22.0895836316049098968505859375" lon="166.44930479116737842559814453125">
        <ele>627.79998779296875</ele>
        <time>2016-08-12T18:34:38.000Z</time>
        <extensions>
          <ns3:TrackPointExtension>
            <ns3:atemp>16.0</ns3:atemp>
            <ns3:hr>134</ns3:hr>
          </ns3:TrackPointExtension>
        </extensions>
      </trkpt>
      <trkpt lat="-22.089479528367519378662109375" lon="166.44945801235735416412353515625">
        <ele>628.5999755859375</ele>
        <time>2016-08-12T18:34:47.000Z</time>
        <extensions>
          <ns3:TrackPointExtension>
            <ns3:atemp>16.0</ns3:atemp>
          </ns3:TrackPointExtension>
        </extensions>
      </trkpt>
      <trkpt lat="-22.0893685519695281982421875" lon="166.44954954273998737335205078125">
        <ele>629.5999755859375</ele>
        <time>2016-08-12T18:34:56.000Z</time>
        <extensions>
          <ns3:TrackPointExtension>
            <ns3:atemp>17.0</ns3:atemp>
            <ns3:hr>135</ns3:hr>
          </ns3:TrackPointExtension>
        </extensions>
      </trkpt>
      <trkpt lat="-22.08937969990074634552001953125" lon="166.4495551586151123046875">
        <ele>629.79998779296875</ele>
        <time>2016-08-12T18:34:57.000Z</time>
        <extensions>
          <ns3:TrackPointExtension>
            <ns3:atemp>17.0</ns3:atemp>
            <ns3:hr>135</ns3:hr>
          </ns3:TrackPointExtension>
        </extensions>
      </trkpt>
      <trkpt lat="-22.08936394192278385162353515625" lon="166.4495633728802204132080078125">
        <ele>629.79998779296875</ele>
        <time>2016-08-12T18:34:58.000Z</time>
        <extensions>
          <ns3:TrackPointExtension>
            <ns3:atemp>17.0</ns3:atemp>
            <ns3:hr>136</ns3:hr>
          </ns3:TrackPointExtension>
        </extensions>
      </trkpt>
      <trkpt lat="-22.089357487857341766357421875" lon="166.44957234151661396026611328125">
        <ele>630</ele>
        <time>2016-08-12T18:34:59.000Z</time>
        <extensions>
          <ns3:TrackPointExtension>
            <ns3:atemp>17.0</ns3:atemp>
            <ns3:hr>135</ns3:hr>
          </ns3:TrackPointExtension>
        </extensions>
      </trkpt>
      <trkpt lat="-22.0893472619354724884033203125" lon="166.4495777897536754608154296875">
        <ele>630.4000244140625</ele>
        <time>2016-08-12T18:35:00.000Z</time>
        <extensions>
          <ns3:TrackPointExtension>
            <ns3:atemp>17.0</ns3:atemp>
            <ns3:hr>135</ns3:hr>
          </ns3:TrackPointExtension>
        </extensions>
      </trkpt>
      <trkpt lat="-22.08932991139590740203857421875" lon="166.44957971759140491485595703125">
        <ele>630.4000244140625</ele>
        <time>2016-08-12T18:35:01.000Z</time>
        <extensions>
          <ns3:TrackPointExtension>
            <ns3:atemp>17.0</ns3:atemp>
            <ns3:hr>135</ns3:hr>
          </ns3:TrackPointExtension>
        </extensions>
      </trkpt>
      <trkpt lat="-22.08931155502796173095703125" lon="166.44957862794399261474609375">
        <ele>630.4000244140625</ele>
        <time>2016-08-12T18:35:02.000Z</time>
        <extensions>
          <ns3:TrackPointExtension>
            <ns3:atemp>17.0</ns3:atemp>
            <ns3:hr>134</ns3:hr>
          </ns3:TrackPointExtension>
        </extensions>
      </trkpt>
      <trkpt lat="-22.0892973057925701141357421875" lon="166.44957116805016994476318359375">
        <ele>631</ele>
        <time>2016-08-12T18:35:03.000Z</time>
        <extensions>
          <ns3:TrackPointExtension>
            <ns3:atemp>17.0</ns3:atemp>
            <ns3:hr>135</ns3:hr>
          </ns3:TrackPointExtension>
        </extensions>
      </trkpt>
      <trkpt lat="-22.0892827212810516357421875" lon="166.44955390132963657379150390625">
        <ele>631</ele>
        <time>2016-08-12T18:35:04.000Z</time>
        <extensions>
          <ns3:TrackPointExtension>
            <ns3:atemp>17.0</ns3:atemp>
            <ns3:hr>134</ns3:hr>
          </ns3:TrackPointExtension>
        </extensions>
      </trkpt>
      <trkpt lat="-22.08927073515951633453369140625" lon="166.4495365507900714874267578125">
        <ele>631.20001220703125</ele>
        <time>2016-08-12T18:35:05.000Z</time>
        <extensions>
          <ns3:TrackPointExtension>
            <ns3:atemp>17.0</ns3:atemp>
            <ns3:hr>135</ns3:hr>
          </ns3:TrackPointExtension>
        </extensions>
      </trkpt>
      <trkpt lat="-22.0892634429037570953369140625" lon="166.44951785914599895477294921875">
        <ele>631.5999755859375</ele>
        <time>2016-08-12T18:35:06.000Z</time>
        <extensions>
          <ns3:TrackPointExtension>
            <ns3:atemp>17.0</ns3:atemp>
            <ns3:hr>135</ns3:hr>
          </ns3:TrackPointExtension>
        </extensions>
      </trkpt>
      <trkpt lat="-22.08925388753414154052734375" lon="166.4495006762444972991943359375">
        <ele>631.5999755859375</ele>
        <time>2016-08-12T18:35:07.000Z</time>
        <extensions>
          <ns3:TrackPointExtension>
            <ns3:atemp>17.0</ns3:atemp>
            <ns3:hr>135</ns3:hr>
          </ns3:TrackPointExtension>
        </extensions>
      </trkpt>
      <trkpt lat="-22.08925145678222179412841796875" lon="166.44948215223848819732666015625">
        <ele>631.79998779296875</ele>
        <time>2016-08-12T18:35:08.000Z</time>
        <extensions>
          <ns3:TrackPointExtension>
            <ns3:atemp>17.0</ns3:atemp>
            <ns3:hr>135</ns3:hr>
          </ns3:TrackPointExtension>
        </extensions>
      </trkpt>
      <trkpt lat="-22.08925095386803150177001953125" lon="166.44946304149925708770751953125">
        <ele>632</ele>
        <time>2016-08-12T18:35:09.000Z</time>
        <extensions>
          <ns3:TrackPointExtension>
            <ns3:atemp>17.0</ns3:atemp>
            <ns3:hr>135</ns3:hr>
          </ns3:TrackPointExtension>
        </extensions>
      </trkpt>
      <trkpt lat="-22.089248187839984893798828125" lon="166.4494443498551845550537109375">
        <ele>632.20001220703125</ele>
        <time>2016-08-12T18:35:10.000Z</time>
        <extensions>
          <ns3:TrackPointExtension>
            <ns3:atemp>17.0</ns3:atemp>
            <ns3:hr>136</ns3:hr>
          </ns3:TrackPointExtension>
        </extensions>
      </trkpt>
      <trkpt lat="-22.0892473496496677398681640625" lon="166.4494277536869049072265625">
        <ele>632.20001220703125</ele>
        <time>2016-08-12T18:35:11.000Z</time>
        <extensions>
          <ns3:TrackPointExtension>
            <ns3:atemp>17.0</ns3:atemp>
            <ns3:hr>135</ns3:hr>
          </ns3:TrackPointExtension>
        </extensions>
      </trkpt>
      <trkpt lat="-22.08924525417387485504150390625" lon="166.44940922968089580535888671875">
        <ele>632.4000244140625</ele>
        <time>2016-08-12T18:35:12.000Z</time>
        <extensions>
          <ns3:TrackPointExtension>
            <ns3:atemp>17.0</ns3:atemp>
            <ns3:hr>136</ns3:hr>
          </ns3:TrackPointExtension>
        </extensions>
      </trkpt>
      <trkpt lat="-22.089242823421955108642578125" lon="166.4493883587419986724853515625">
        <ele>632.5999755859375</ele>
        <time>2016-08-12T18:35:13.000Z</time>
        <extensions>
          <ns3:TrackPointExtension>
            <ns3:atemp>17.0</ns3:atemp>
            <ns3:hr>135</ns3:hr>
          </ns3:TrackPointExtension>
        </extensions>
      </trkpt>
      <trkpt lat="-22.08923838101327419281005859375" lon="166.44937050528824329376220703125">
        <ele>632.79998779296875</ele>
        <time>2016-08-12T18:35:14.000Z</time>
        <extensions>
          <ns3:TrackPointExtension>
            <ns3:atemp>17.0</ns3:atemp>
            <ns3:hr>136</ns3:hr>
          </ns3:TrackPointExtension>
        </extensions>
      </trkpt>
      <trkpt lat="-22.08923536352813243865966796875" lon="166.449348963797092437744140625">
        <ele>633.4000244140625</ele>
        <time>2016-08-12T18:35:15.000Z</time>
        <extensions>
          <ns3:TrackPointExtension>
            <ns3:atemp>17.0</ns3:atemp>
            <ns3:hr>135</ns3:hr>
          </ns3:TrackPointExtension>
        </extensions>
      </trkpt>
      <trkpt lat="-22.0892312563955783843994140625" lon="166.44932809285819530487060546875">
        <ele>633.4000244140625</ele>
        <time>2016-08-12T18:35:16.000Z</time>
        <extensions>
          <ns3:TrackPointExtension>
            <ns3:atemp>17.0</ns3:atemp>
            <ns3:hr>135</ns3:hr>
          </ns3:TrackPointExtension>
        </extensions>
      </trkpt>
      <trkpt lat="-22.08922765217721462249755859375" lon="166.44931032322347164154052734375">
        <ele>633.4000244140625</ele>
        <time>2016-08-12T18:35:17.000Z</time>
        <extensions>
          <ns3:TrackPointExtension>
            <ns3:atemp>17.0</ns3:atemp>
            <ns3:hr>136</ns3:hr>
          </ns3:TrackPointExtension>
        </extensions>
      </trkpt>
      <trkpt lat="-22.08922429941594600677490234375" lon="166.44929221831262111663818359375">
        <ele>633.5999755859375</ele>
        <time>2016-08-12T18:35:18.000Z</time>
        <extensions>
          <ns3:TrackPointExtension>
            <ns3:atemp>17.0</ns3:atemp>
            <ns3:hr>135</ns3:hr>
          </ns3:TrackPointExtension>
        </extensions>
      </trkpt>
      <trkpt lat="-22.08921776153147220611572265625" lon="166.4492740295827388763427734375">
        <ele>633.5999755859375</ele>
        <time>2016-08-12T18:35:19.000Z</time>
        <extensions>
          <ns3:TrackPointExtension>
            <ns3:atemp>17.0</ns3:atemp>
            <ns3:hr>136</ns3:hr>
          </ns3:TrackPointExtension>
        </extensions>
      </trkpt>
      <trkpt lat="-22.08921290002763271331787109375" lon="166.44925617612898349761962890625">
        <ele>634</ele>
        <time>2016-08-12T18:35:20.000Z</time>
        <extensions>
          <ns3:TrackPointExtension>
            <ns3:atemp>17.0</ns3:atemp>
            <ns3:hr>136</ns3:hr>
          </ns3:TrackPointExtension>
        </extensions>
      </trkpt>
      <trkpt lat="-22.0892074517905712127685546875" lon="166.44923773594200611114501953125">
        <ele>634.4000244140625</ele>
        <time>2016-08-12T18:35:21.000Z</time>
        <extensions>
          <ns3:TrackPointExtension>
            <ns3:atemp>17.0</ns3:atemp>
            <ns3:hr>136</ns3:hr>
          </ns3:TrackPointExtension>
        </extensions>
      </trkpt>
      <trkpt lat="-22.08920518867671489715576171875" lon="166.4492183737456798553466796875">
        <ele>634.4000244140625</ele>
        <time>2016-08-12T18:35:22.000Z</time>
        <extensions>
          <ns3:TrackPointExtension>
            <ns3:atemp>17.0</ns3:atemp>
            <ns3:hr>136</ns3:hr>
          </ns3:TrackPointExtension>
        </extensions>
      </trkpt>
      <trkpt lat="-22.08919865079224109649658203125" lon="166.44920269958674907684326171875">
        <ele>634.4000244140625</ele>
        <time>2016-08-12T18:35:23.000Z</time>
        <extensions>
          <ns3:TrackPointExtension>
            <ns3:atemp>17.0</ns3:atemp>
            <ns3:hr>136</ns3:hr>
          </ns3:TrackPointExtension>
        </extensions>
      </trkpt>
      <trkpt lat="-22.08919353783130645751953125" lon="166.449184678494930267333984375">
        <ele>634.5999755859375</ele>
        <time>2016-08-12T18:35:24.000Z</time>
        <extensions>
          <ns3:TrackPointExtension>
            <ns3:atemp>17.0</ns3:atemp>
            <ns3:hr>136</ns3:hr>
          </ns3:TrackPointExtension>
        </extensions>
      </trkpt>
      <trkpt lat="-22.08919362165033817291259765625" lon="166.44916288554668426513671875">
        <ele>634.5999755859375</ele>
        <time>2016-08-12T18:35:25.000Z</time>
        <extensions>
          <ns3:TrackPointExtension>
            <ns3:atemp>17.0</ns3:atemp>
            <ns3:hr>136</ns3:hr>
          </ns3:TrackPointExtension>
        </extensions>
      </trkpt>
      <trkpt lat="-22.0891876704990863800048828125" lon="166.44914570264518260955810546875">
        <ele>634.79998779296875</ele>
        <time>2016-08-12T18:35:26.000Z</time>
        <extensions>
          <ns3:TrackPointExtension>
            <ns3:atemp>17.0</ns3:atemp>
            <ns3:hr>136</ns3:hr>
          </ns3:TrackPointExtension>
        </extensions>
      </trkpt>
      <trkpt lat="-22.0891839824616909027099609375" lon="166.44912776537239551544189453125">
        <ele>635</ele>
        <time>2016-08-12T18:35:27.000Z</time>
        <extensions>
          <ns3:TrackPointExtension>
            <ns3:atemp>17.0</ns3:atemp>
            <ns3:hr>136</ns3:hr>
          </ns3:TrackPointExtension>
        </extensions>
      </trkpt>
      <trkpt lat="-22.08917903713881969451904296875" lon="166.44910831935703754425048828125">
        <ele>635</ele>
        <time>2016-08-12T18:35:28.000Z</time>
        <extensions>
          <ns3:TrackPointExtension>
            <ns3:atemp>17.0</ns3:atemp>
            <ns3:hr>136</ns3:hr>
          </ns3:TrackPointExtension>
        </extensions>
      </trkpt>
      <trkpt lat="-22.08917342126369476318359375" lon="166.44908853806555271148681640625">
        <ele>635.20001220703125</ele>
        <time>2016-08-12T18:35:29.000Z</time>
        <extensions>
          <ns3:TrackPointExtension>
            <ns3:atemp>17.0</ns3:atemp>
            <ns3:hr>135</ns3:hr>
          </ns3:TrackPointExtension>
        </extensions>
      </trkpt>
      <trkpt lat="-22.08917199634015560150146484375" lon="166.449068002402782440185546875">
        <ele>635.4000244140625</ele>
        <time>2016-08-12T18:35:30.000Z</time>
        <extensions>
          <ns3:TrackPointExtension>
            <ns3:atemp>17.0</ns3:atemp>
            <ns3:hr>134</ns3:hr>
          </ns3:TrackPointExtension>
        </extensions>
      </trkpt>
      <trkpt lat="-22.08916931413114070892333984375" lon="166.449048221111297607421875">
        <ele>635.4000244140625</ele>
        <time>2016-08-12T18:35:31.000Z</time>
        <extensions>
          <ns3:TrackPointExtension>
            <ns3:atemp>17.0</ns3:atemp>
            <ns3:hr>134</ns3:hr>
          </ns3:TrackPointExtension>
        </extensions>
      </trkpt>
      <trkpt lat="-22.0891620218753814697265625" lon="166.4490299485623836517333984375">
        <ele>635.5999755859375</ele>
        <time>2016-08-12T18:35:32.000Z</time>
        <extensions>
          <ns3:TrackPointExtension>
            <ns3:atemp>17.0</ns3:atemp>
            <ns3:hr>133</ns3:hr>
          </ns3:TrackPointExtension>
        </extensions>
      </trkpt>
      <trkpt lat="-22.08915506489574909210205078125" lon="166.44900999963283538818359375">
        <ele>635.79998779296875</ele>
        <time>2016-08-12T18:35:33.000Z</time>
        <extensions>
          <ns3:TrackPointExtension>
            <ns3:atemp>17.0</ns3:atemp>
            <ns3:hr>132</ns3:hr>
          </ns3:TrackPointExtension>
        </extensions>
      </trkpt>
      <trkpt lat="-22.08914886228740215301513671875" lon="166.44899130798876285552978515625">
        <ele>635.79998779296875</ele>
        <time>2016-08-12T18:35:34.000Z</time>
        <extensions>
          <ns3:TrackPointExtension>
            <ns3:atemp>17.0</ns3:atemp>
            <ns3:hr>132</ns3:hr>
          </ns3:TrackPointExtension>
        </extensions>
      </trkpt>
      <trkpt lat="-22.08914534188807010650634765625" lon="166.448973454535007476806640625">
        <ele>636</ele>
        <time>2016-08-12T18:35:35.000Z</time>
        <extensions>
          <ns3:TrackPointExtension>
            <ns3:atemp>17.0</ns3:atemp>
            <ns3:hr>131</ns3:hr>
          </ns3:TrackPointExtension>
        </extensions>
      </trkpt>
      <trkpt lat="-22.08914257586002349853515625" lon="166.44895367324352264404296875">
        <ele>636.20001220703125</ele>
        <time>2016-08-12T18:35:36.000Z</time>
        <extensions>
          <ns3:TrackPointExtension>
            <ns3:atemp>17.0</ns3:atemp>
            <ns3:hr>131</ns3:hr>
          </ns3:TrackPointExtension>
        </extensions>
      </trkpt>
      <trkpt lat="-22.08914198912680149078369140625" lon="166.448934562504291534423828125">
        <ele>636.20001220703125</ele>
        <time>2016-08-12T18:35:37.000Z</time>
        <extensions>
          <ns3:TrackPointExtension>
            <ns3:atemp>17.0</ns3:atemp>
            <ns3:hr>131</ns3:hr>
          </ns3:TrackPointExtension>
        </extensions>
      </trkpt>
      <trkpt lat="-22.08913980983197689056396484375" lon="166.4489132724702358245849609375">
        <ele>636.5999755859375</ele>
        <time>2016-08-12T18:35:38.000Z</time>
        <extensions>
          <ns3:TrackPointExtension>
            <ns3:atemp>17.0</ns3:atemp>
            <ns3:hr>130</ns3:hr>
          </ns3:TrackPointExtension>
        </extensions>
      </trkpt>
      <trkpt lat="-22.0891326852142810821533203125" lon="166.44889064133167266845703125">
        <ele>637</ele>
        <time>2016-08-12T18:35:39.000Z</time>
        <extensions>
          <ns3:TrackPointExtension>
            <ns3:atemp>17.0</ns3:atemp>
            <ns3:hr>130</ns3:hr>
          </ns3:TrackPointExtension>
        </extensions>
      </trkpt>
      <trkpt lat="-22.08912421949207782745361328125" lon="166.44887479953467845916748046875">
        <ele>636.79998779296875</ele>
        <time>2016-08-12T18:35:40.000Z</time>
        <extensions>
          <ns3:TrackPointExtension>
            <ns3:atemp>17.0</ns3:atemp>
            <ns3:hr>130</ns3:hr>
          </ns3:TrackPointExtension>
        </extensions>
      </trkpt>
      <trkpt lat="-22.08911265246570110321044921875" lon="166.4488579519093036651611328125">
        <ele>637.20001220703125</ele>
        <time>2016-08-12T18:35:41.000Z</time>
        <extensions>
          <ns3:TrackPointExtension>
            <ns3:atemp>17.0</ns3:atemp>
            <ns3:hr>131</ns3:hr>
          </ns3:TrackPointExtension>
        </extensions>
      </trkpt>
      <trkpt lat="-22.08910443820059299468994140625" lon="166.4488398469984531402587890625">
        <ele>637.20001220703125</ele>
        <time>2016-08-12T18:35:42.000Z</time>
        <extensions>
          <ns3:TrackPointExtension>
            <ns3:atemp>17.0</ns3:atemp>
            <ns3:hr>132</ns3:hr>
          </ns3:TrackPointExtension>
        </extensions>
      </trkpt>
      <trkpt lat="-22.0890924520790576934814453125" lon="166.4488254301249980926513671875">
        <ele>637.20001220703125</ele>
        <time>2016-08-12T18:35:43.000Z</time>
        <extensions>
          <ns3:TrackPointExtension>
            <ns3:atemp>17.0</ns3:atemp>
            <ns3:hr>133</ns3:hr>
          </ns3:TrackPointExtension>
        </extensions>
      </trkpt>
      <trkpt lat="-22.08907526917755603790283203125" lon="166.4488093368709087371826171875">
        <ele>637.5999755859375</ele>
        <time>2016-08-12T18:35:44.000Z</time>
        <extensions>
          <ns3:TrackPointExtension>
            <ns3:atemp>17.0</ns3:atemp>
            <ns3:hr>135</ns3:hr>
          </ns3:TrackPointExtension>
        </extensions>
      </trkpt>
      <trkpt lat="-22.08906210958957672119140625" lon="166.44879232160747051239013671875">
        <ele>637.79998779296875</ele>
        <time>2016-08-12T18:35:45.000Z</time>
        <extensions>
          <ns3:TrackPointExtension>
            <ns3:atemp>17.0</ns3:atemp>
            <ns3:hr>136</ns3:hr>
          </ns3:TrackPointExtension>
        </extensions>
      </trkpt>
      <trkpt lat="-22.08905297331511974334716796875" lon="166.448776312172412872314453125">
        <ele>637.79998779296875</ele>
        <time>2016-08-12T18:35:46.000Z</time>
        <extensions>
          <ns3:TrackPointExtension>
            <ns3:atemp>17.0</ns3:atemp>
            <ns3:hr>137</ns3:hr>
          </ns3:TrackPointExtension>
        </extensions>
      </trkpt>
      <trkpt lat="-22.08905045874416828155517578125" lon="166.448754854500293731689453125">
        <ele>637.79998779296875</ele>
        <time>2016-08-12T18:35:47.000Z</time>
        <extensions>
          <ns3:TrackPointExtension>
            <ns3:atemp>17.0</ns3:atemp>
            <ns3:hr>137</ns3:hr>
          </ns3:TrackPointExtension>
        </extensions>
      </trkpt>
      <trkpt lat="-22.0890384726226329803466796875" lon="166.4487355761229991912841796875">
        <ele>638.20001220703125</ele>
        <time>2016-08-12T18:35:48.000Z</time>
        <extensions>
          <ns3:TrackPointExtension>
            <ns3:atemp>17.0</ns3:atemp>
            <ns3:hr>138</ns3:hr>
          </ns3:TrackPointExtension>
        </extensions>
      </trkpt>
      <trkpt lat="-22.0890310965478420257568359375" lon="166.44871763885021209716796875">
        <ele>638.20001220703125</ele>
        <time>2016-08-12T18:35:49.000Z</time>
        <extensions>
          <ns3:TrackPointExtension>
            <ns3:atemp>17.0</ns3:atemp>
            <ns3:hr>139</ns3:hr>
          </ns3:TrackPointExtension>
        </extensions>
      </trkpt>
      <trkpt lat="-22.08903126418590545654296875" lon="166.44869525916874408721923828125">
        <ele>638.20001220703125</ele>
        <time>2016-08-12T18:35:50.000Z</time>
        <extensions>
          <ns3:TrackPointExtension>
            <ns3:atemp>17.0</ns3:atemp>
            <ns3:hr>139</ns3:hr>
          </ns3:TrackPointExtension>
        </extensions>
      </trkpt>
      <trkpt lat="-22.08902564831078052520751953125" lon="166.44867606461048126220703125">
        <ele>638.79998779296875</ele>
        <time>2016-08-12T18:35:51.000Z</time>
        <extensions>
          <ns3:TrackPointExtension>
            <ns3:atemp>17.0</ns3:atemp>
            <ns3:hr>140</ns3:hr>
          </ns3:TrackPointExtension>
        </extensions>
      </trkpt>
      <trkpt lat="-22.08901659585535526275634765625" lon="166.44866089336574077606201171875">
        <ele>638.79998779296875</ele>
        <time>2016-08-12T18:35:52.000Z</time>
        <extensions>
          <ns3:TrackPointExtension>
            <ns3:atemp>17.0</ns3:atemp>
            <ns3:hr>140</ns3:hr>
          </ns3:TrackPointExtension>
        </extensions>
      </trkpt>
      <trkpt lat="-22.089018858969211578369140625" lon="166.44863893277943134307861328125">
        <ele>638.79998779296875</ele>
        <time>2016-08-12T18:35:53.000Z</time>
        <extensions>
          <ns3:TrackPointExtension>
            <ns3:atemp>17.0</ns3:atemp>
            <ns3:hr>140</ns3:hr>
          </ns3:TrackPointExtension>
        </extensions>
      </trkpt>
      <trkpt lat="-22.08901827223598957061767578125" lon="166.448617391288280487060546875">
        <ele>639</ele>
        <time>2016-08-12T18:35:54.000Z</time>
        <extensions>
          <ns3:TrackPointExtension>
            <ns3:atemp>17.0</ns3:atemp>
            <ns3:hr>141</ns3:hr>
          </ns3:TrackPointExtension>
        </extensions>
      </trkpt>
      <trkpt lat="-22.08901290781795978546142578125" lon="166.44859635271131992340087890625">
        <ele>639</ele>
        <time>2016-08-12T18:35:55.000Z</time>
        <extensions>
          <ns3:TrackPointExtension>
            <ns3:atemp>17.0</ns3:atemp>
            <ns3:hr>141</ns3:hr>
          </ns3:TrackPointExtension>
        </extensions>
      </trkpt>
      <trkpt lat="-22.08901039324700832366943359375" lon="166.44856953062117099761962890625">
        <ele>639</ele>
        <time>2016-08-12T18:35:56.000Z</time>
        <extensions>
          <ns3:TrackPointExtension>
            <ns3:atemp>17.0</ns3:atemp>
            <ns3:hr>141</ns3:hr>
          </ns3:TrackPointExtension>
        </extensions>
      </trkpt>
      <trkpt lat="-22.0890059508383274078369140625" lon="166.4485478214919567108154296875">
        <ele>639</ele>
        <time>2016-08-12T18:35:57.000Z</time>
        <extensions>
          <ns3:TrackPointExtension>
            <ns3:atemp>17.0</ns3:atemp>
            <ns3:hr>141</ns3:hr>
          </ns3:TrackPointExtension>
        </extensions>
      </trkpt>
      <trkpt lat="-22.0889968983829021453857421875" lon="166.44852862693369388580322265625">
        <ele>639.20001220703125</ele>
        <time>2016-08-12T18:35:58.000Z</time>
        <extensions>
          <ns3:TrackPointExtension>
            <ns3:atemp>17.0</ns3:atemp>
            <ns3:hr>141</ns3:hr>
          </ns3:TrackPointExtension>
        </extensions>
      </trkpt>
      <trkpt lat="-22.0889804698526859283447265625" lon="166.448510773479938507080078125">
        <ele>639.20001220703125</ele>
        <time>2016-08-12T18:35:59.000Z</time>
        <extensions>
          <ns3:TrackPointExtension>
            <ns3:atemp>17.0</ns3:atemp>
            <ns3:hr>141</ns3:hr>
          </ns3:TrackPointExtension>
        </extensions>
      </trkpt>
      <trkpt lat="-22.08897049538791179656982421875" lon="166.44849509932100772857666015625">
        <ele>639.4000244140625</ele>
        <time>2016-08-12T18:36:00.000Z</time>
        <extensions>
          <ns3:TrackPointExtension>
            <ns3:atemp>17.0</ns3:atemp>
            <ns3:hr>141</ns3:hr>
          </ns3:TrackPointExtension>
        </extensions>
      </trkpt>
      <trkpt lat="-22.08895348012447357177734375" lon="166.4484809339046478271484375">
        <ele>639.4000244140625</ele>
        <time>2016-08-12T18:36:01.000Z</time>
        <extensions>
          <ns3:TrackPointExtension>
            <ns3:atemp>17.0</ns3:atemp>
            <ns3:hr>141</ns3:hr>
          </ns3:TrackPointExtension>
        </extensions>
      </trkpt>
      <trkpt lat="-22.08893462084233760833740234375" lon="166.4484686963260173797607421875">
        <ele>639.5999755859375</ele>
        <time>2016-08-12T18:36:02.000Z</time>
        <extensions>
          <ns3:TrackPointExtension>
            <ns3:atemp>17.0</ns3:atemp>
            <ns3:hr>141</ns3:hr>
          </ns3:TrackPointExtension>
        </extensions>
      </trkpt>
      <trkpt lat="-22.08891651593148708343505859375" lon="166.44845687784254550933837890625">
        <ele>639.5999755859375</ele>
        <time>2016-08-12T18:36:03.000Z</time>
        <extensions>
          <ns3:TrackPointExtension>
            <ns3:atemp>17.0</ns3:atemp>
            <ns3:hr>141</ns3:hr>
          </ns3:TrackPointExtension>
        </extensions>
      </trkpt>
      <trkpt lat="-22.08889581263065338134765625" lon="166.44844413734972476959228515625">
        <ele>639.5999755859375</ele>
        <time>2016-08-12T18:36:04.000Z</time>
        <extensions>
          <ns3:TrackPointExtension>
            <ns3:atemp>17.0</ns3:atemp>
            <ns3:hr>141</ns3:hr>
          </ns3:TrackPointExtension>
        </extensions>
      </trkpt>
      <trkpt lat="-22.0888792164623737335205078125" lon="166.4484326541423797607421875">
        <ele>639.79998779296875</ele>
        <time>2016-08-12T18:36:05.000Z</time>
        <extensions>
          <ns3:TrackPointExtension>
            <ns3:atemp>17.0</ns3:atemp>
            <ns3:hr>140</ns3:hr>
          </ns3:TrackPointExtension>
        </extensions>
      </trkpt>
      <trkpt lat="-22.0888621173799037933349609375" lon="166.4484220929443836212158203125">
        <ele>640</ele>
        <time>2016-08-12T18:36:06.000Z</time>
        <extensions>
          <ns3:TrackPointExtension>
            <ns3:atemp>17.0</ns3:atemp>
            <ns3:hr>141</ns3:hr>
          </ns3:TrackPointExtension>
        </extensions>
      </trkpt>
      <trkpt lat="-22.08884225226938724517822265625" lon="166.4484093524515628814697265625">
        <ele>640</ele>
        <time>2016-08-12T18:36:07.000Z</time>
        <extensions>
          <ns3:TrackPointExtension>
            <ns3:atemp>17.0</ns3:atemp>
            <ns3:hr>141</ns3:hr>
          </ns3:TrackPointExtension>
        </extensions>
      </trkpt>
      <trkpt lat="-22.088819704949855804443359375" lon="166.4483996294438838958740234375">
        <ele>640.4000244140625</ele>
        <time>2016-08-12T18:36:08.000Z</time>
        <extensions>
          <ns3:TrackPointExtension>
            <ns3:atemp>17.0</ns3:atemp>
            <ns3:hr>140</ns3:hr>
          </ns3:TrackPointExtension>
        </extensions>
      </trkpt>
      <trkpt lat="-22.088798917829990386962890625" lon="166.44838630221784114837646484375">
        <ele>640.4000244140625</ele>
        <time>2016-08-12T18:36:09.000Z</time>
        <extensions>
          <ns3:TrackPointExtension>
            <ns3:atemp>17.0</ns3:atemp>
            <ns3:hr>140</ns3:hr>
          </ns3:TrackPointExtension>
        </extensions>
      </trkpt>
      <trkpt lat="-22.08878005854785442352294921875" lon="166.44837305881083011627197265625">
        <ele>640.5999755859375</ele>
        <time>2016-08-12T18:36:10.000Z</time>
        <extensions>
          <ns3:TrackPointExtension>
            <ns3:atemp>17.0</ns3:atemp>
            <ns3:hr>141</ns3:hr>
          </ns3:TrackPointExtension>
        </extensions>
      </trkpt>
      <trkpt lat="-22.08876346237957477569580078125" lon="166.44835956394672393798828125">
        <ele>641</ele>
        <time>2016-08-12T18:36:11.000Z</time>
        <extensions>
          <ns3:TrackPointExtension>
            <ns3:atemp>17.0</ns3:atemp>
            <ns3:hr>140</ns3:hr>
          </ns3:TrackPointExtension>
        </extensions>
      </trkpt>
      <trkpt lat="-22.08874837495386600494384765625" lon="166.448346488177776336669921875">
        <ele>641.4000244140625</ele>
        <time>2016-08-12T18:36:12.000Z</time>
        <extensions>
          <ns3:TrackPointExtension>
            <ns3:atemp>17.0</ns3:atemp>
            <ns3:hr>140</ns3:hr>
          </ns3:TrackPointExtension>
        </extensions>
      </trkpt>
      <trkpt lat="-22.0887313596904277801513671875" lon="166.44833098165690898895263671875">
        <ele>641.20001220703125</ele>
        <time>2016-08-12T18:36:13.000Z</time>
        <extensions>
          <ns3:TrackPointExtension>
            <ns3:atemp>17.0</ns3:atemp>
            <ns3:hr>140</ns3:hr>
          </ns3:TrackPointExtension>
        </extensions>
      </trkpt>
      <trkpt lat="-22.088718116283416748046875" lon="166.44831220619380474090576171875">
        <ele>641.4000244140625</ele>
        <time>2016-08-12T18:36:14.000Z</time>
        <extensions>
          <ns3:TrackPointExtension>
            <ns3:atemp>17.0</ns3:atemp>
            <ns3:hr>140</ns3:hr>
          </ns3:TrackPointExtension>
        </extensions>
      </trkpt>
      <trkpt lat="-22.08870763890445232391357421875" lon="166.44829359836876392364501953125">
        <ele>641.5999755859375</ele>
        <time>2016-08-12T18:36:15.000Z</time>
        <extensions>
          <ns3:TrackPointExtension>
            <ns3:atemp>17.0</ns3:atemp>
            <ns3:hr>140</ns3:hr>
          </ns3:TrackPointExtension>
        </extensions>
      </trkpt>
      <trkpt lat="-22.08869691006839275360107421875" lon="166.44827163778245449066162109375">
        <ele>641.4000244140625</ele>
        <time>2016-08-12T18:36:16.000Z</time>
        <extensions>
          <ns3:TrackPointExtension>
            <ns3:atemp>17.0</ns3:atemp>
            <ns3:hr>140</ns3:hr>
          </ns3:TrackPointExtension>
        </extensions>
      </trkpt>
      <trkpt lat="-22.088685929775238037109375" lon="166.44825185649096965789794921875">
        <ele>641.4000244140625</ele>
        <time>2016-08-12T18:36:17.000Z</time>
        <extensions>
          <ns3:TrackPointExtension>
            <ns3:atemp>17.0</ns3:atemp>
            <ns3:hr>140</ns3:hr>
          </ns3:TrackPointExtension>
        </extensions>
      </trkpt>
      <trkpt lat="-22.0886733569204807281494140625" lon="166.44823777489364147186279296875">
        <ele>641.4000244140625</ele>
        <time>2016-08-12T18:36:18.000Z</time>
        <extensions>
          <ns3:TrackPointExtension>
            <ns3:atemp>17.0</ns3:atemp>
            <ns3:hr>140</ns3:hr>
          </ns3:TrackPointExtension>
        </extensions>
      </trkpt>
      <trkpt lat="-22.08866053260862827301025390625" lon="166.44822637550532817840576171875">
        <ele>641.20001220703125</ele>
        <time>2016-08-12T18:36:19.000Z</time>
        <extensions>
          <ns3:TrackPointExtension>
            <ns3:atemp>17.0</ns3:atemp>
            <ns3:hr>140</ns3:hr>
          </ns3:TrackPointExtension>
        </extensions>
      </trkpt>
      <trkpt lat="-22.08865030668675899505615234375" lon="166.44821430556476116180419921875">
        <ele>641.4000244140625</ele>
        <time>2016-08-12T18:36:20.000Z</time>
        <extensions>
          <ns3:TrackPointExtension>
            <ns3:atemp>17.0</ns3:atemp>
            <ns3:hr>140</ns3:hr>
          </ns3:TrackPointExtension>
        </extensions>
      </trkpt>
      <trkpt lat="-22.0886361412703990936279296875" lon="166.44820055924355983734130859375">
        <ele>641.4000244140625</ele>
        <time>2016-08-12T18:36:21.000Z</time>
        <extensions>
          <ns3:TrackPointExtension>
            <ns3:atemp>17.0</ns3:atemp>
            <ns3:hr>140</ns3:hr>
          </ns3:TrackPointExtension>
        </extensions>
      </trkpt>
      <trkpt lat="-22.08861962892115116119384765625" lon="166.44818295724689960479736328125">
        <ele>642</ele>
        <time>2016-08-12T18:36:22.000Z</time>
        <extensions>
          <ns3:TrackPointExtension>
            <ns3:atemp>17.0</ns3:atemp>
            <ns3:hr>139</ns3:hr>
          </ns3:TrackPointExtension>
        </extensions>
      </trkpt>
      <trkpt lat="-22.08860990591347217559814453125" lon="166.44816619344055652618408203125">
        <ele>642.20001220703125</ele>
        <time>2016-08-12T18:36:23.000Z</time>
        <extensions>
          <ns3:TrackPointExtension>
            <ns3:atemp>17.0</ns3:atemp>
            <ns3:hr>140</ns3:hr>
          </ns3:TrackPointExtension>
        </extensions>
      </trkpt>
      <trkpt lat="-22.08860252983868122100830078125" lon="166.4481451548635959625244140625">
        <ele>642.20001220703125</ele>
        <time>2016-08-12T18:36:24.000Z</time>
        <extensions>
          <ns3:TrackPointExtension>
            <ns3:atemp>17.0</ns3:atemp>
            <ns3:hr>139</ns3:hr>
          </ns3:TrackPointExtension>
        </extensions>
      </trkpt>
      <trkpt lat="-22.08859599195420742034912109375" lon="166.4481260441243648529052734375">
        <ele>642.20001220703125</ele>
        <time>2016-08-12T18:36:25.000Z</time>
        <extensions>
          <ns3:TrackPointExtension>
            <ns3:atemp>17.0</ns3:atemp>
            <ns3:hr>140</ns3:hr>
          </ns3:TrackPointExtension>
        </extensions>
      </trkpt>
      <trkpt lat="-22.0885898731648921966552734375" lon="166.44810902886092662811279296875">
        <ele>642.20001220703125</ele>
        <time>2016-08-12T18:36:26.000Z</time>
        <extensions>
          <ns3:TrackPointExtension>
            <ns3:atemp>17.0</ns3:atemp>
            <ns3:hr>140</ns3:hr>
          </ns3:TrackPointExtension>
        </extensions>
      </trkpt>
      <trkpt lat="-22.0885828323662281036376953125" lon="166.44809561781585216522216796875">
        <ele>642.4000244140625</ele>
        <time>2016-08-12T18:36:27.000Z</time>
        <extensions>
          <ns3:TrackPointExtension>
            <ns3:atemp>17.0</ns3:atemp>
            <ns3:hr>140</ns3:hr>
          </ns3:TrackPointExtension>
        </extensions>
      </trkpt>
      <trkpt lat="-22.088574953377246856689453125" lon="166.448080278933048248291015625">
        <ele>642.4000244140625</ele>
        <time>2016-08-12T18:36:28.000Z</time>
        <extensions>
          <ns3:TrackPointExtension>
            <ns3:atemp>17.0</ns3:atemp>
            <ns3:hr>140</ns3:hr>
          </ns3:TrackPointExtension>
        </extensions>
      </trkpt>
      <trkpt lat="-22.08856648765504360198974609375" lon="166.448063515126705169677734375">
        <ele>642.5999755859375</ele>
        <time>2016-08-12T18:36:29.000Z</time>
        <extensions>
          <ns3:TrackPointExtension>
            <ns3:atemp>17.0</ns3:atemp>
            <ns3:hr>139</ns3:hr>
          </ns3:TrackPointExtension>
        </extensions>
      </trkpt>
      <trkpt lat="-22.088559530675411224365234375" lon="166.4480437338352203369140625">
        <ele>643</ele>
        <time>2016-08-12T18:36:30.000Z</time>
        <extensions>
          <ns3:TrackPointExtension>
            <ns3:atemp>17.0</ns3:atemp>
            <ns3:hr>139</ns3:hr>
          </ns3:TrackPointExtension>
        </extensions>
      </trkpt>
      <trkpt lat="-22.08855357952415943145751953125" lon="166.4480247907340526580810546875">
        <ele>643.5999755859375</ele>
        <time>2016-08-12T18:36:31.000Z</time>
        <extensions>
          <ns3:TrackPointExtension>
            <ns3:atemp>17.0</ns3:atemp>
            <ns3:hr>139</ns3:hr>
          </ns3:TrackPointExtension>
        </extensions>
      </trkpt>
      <trkpt lat="-22.08855207078158855438232421875" lon="166.448005847632884979248046875">
        <ele>643.79998779296875</ele>
        <time>2016-08-12T18:36:32.000Z</time>
        <extensions>
          <ns3:TrackPointExtension>
            <ns3:atemp>17.0</ns3:atemp>
            <ns3:hr>139</ns3:hr>
          </ns3:TrackPointExtension>
        </extensions>
      </trkpt>
      <trkpt lat="-22.08854737691581249237060546875" lon="166.44798581488430500030517578125">
        <ele>643.79998779296875</ele>
        <time>2016-08-12T18:36:33.000Z</time>
        <extensions>
          <ns3:TrackPointExtension>
            <ns3:atemp>17.0</ns3:atemp>
            <ns3:hr>139</ns3:hr>
          </ns3:TrackPointExtension>
        </extensions>
      </trkpt>
      <trkpt lat="-22.08854083903133869171142578125" lon="166.44796502776443958282470703125">
        <ele>644</ele>
        <time>2016-08-12T18:36:34.000Z</time>
        <extensions>
          <ns3:TrackPointExtension>
            <ns3:atemp>17.0</ns3:atemp>
            <ns3:hr>139</ns3:hr>
          </ns3:TrackPointExtension>
        </extensions>
      </trkpt>
      <trkpt lat="-22.0885288529098033905029296875" lon="166.44794910214841365814208984375">
        <ele>644</ele>
        <time>2016-08-12T18:36:35.000Z</time>
        <extensions>
          <ns3:TrackPointExtension>
            <ns3:atemp>17.0</ns3:atemp>
            <ns3:hr>138</ns3:hr>
          </ns3:TrackPointExtension>
        </extensions>
      </trkpt>
      <trkpt lat="-22.08851720206439495086669921875" lon="166.44793166778981685638427734375">
        <ele>644.20001220703125</ele>
        <time>2016-08-12T18:36:36.000Z</time>
        <extensions>
          <ns3:TrackPointExtension>
            <ns3:atemp>17.0</ns3:atemp>
            <ns3:hr>139</ns3:hr>
          </ns3:TrackPointExtension>
        </extensions>
      </trkpt>
      <trkpt lat="-22.0885063894093036651611328125" lon="166.447916664183139801025390625">
        <ele>644.4000244140625</ele>
        <time>2016-08-12T18:36:37.000Z</time>
        <extensions>
          <ns3:TrackPointExtension>
            <ns3:atemp>17.0</ns3:atemp>
            <ns3:hr>139</ns3:hr>
          </ns3:TrackPointExtension>
        </extensions>
      </trkpt>
      <trkpt lat="-22.08850228227674961090087890625" lon="166.44789881072938442230224609375">
        <ele>644.5999755859375</ele>
        <time>2016-08-12T18:36:38.000Z</time>
        <extensions>
          <ns3:TrackPointExtension>
            <ns3:atemp>17.0</ns3:atemp>
            <ns3:hr>139</ns3:hr>
          </ns3:TrackPointExtension>
        </extensions>
      </trkpt>
      <trkpt lat="-22.08849641494452953338623046875" lon="166.4478816278278827667236328125">
        <ele>644.79998779296875</ele>
        <time>2016-08-12T18:36:39.000Z</time>
        <extensions>
          <ns3:TrackPointExtension>
            <ns3:atemp>17.0</ns3:atemp>
            <ns3:hr>139</ns3:hr>
          </ns3:TrackPointExtension>
        </extensions>
      </trkpt>
      <trkpt lat="-22.08849188871681690216064453125" lon="166.44786545075476169586181640625">
        <ele>644.79998779296875</ele>
        <time>2016-08-12T18:36:40.000Z</time>
        <extensions>
          <ns3:TrackPointExtension>
            <ns3:atemp>17.0</ns3:atemp>
            <ns3:hr>139</ns3:hr>
          </ns3:TrackPointExtension>
        </extensions>
      </trkpt>
      <trkpt lat="-22.0884842611849308013916015625" lon="166.4478507824242115020751953125">
        <ele>645</ele>
        <time>2016-08-12T18:36:41.000Z</time>
        <extensions>
          <ns3:TrackPointExtension>
            <ns3:atemp>17.0</ns3:atemp>
            <ns3:hr>139</ns3:hr>
          </ns3:TrackPointExtension>
        </extensions>
      </trkpt>
      <trkpt lat="-22.08847847767174243927001953125" lon="166.44782974384725093841552734375">
        <ele>645.20001220703125</ele>
        <time>2016-08-12T18:36:42.000Z</time>
        <extensions>
          <ns3:TrackPointExtension>
            <ns3:atemp>17.0</ns3:atemp>
            <ns3:hr>139</ns3:hr>
          </ns3:TrackPointExtension>
        </extensions>
      </trkpt>
      <trkpt lat="-22.088471017777919769287109375" lon="166.4478098787367343902587890625">
        <ele>645.20001220703125</ele>
        <time>2016-08-12T18:36:43.000Z</time>
        <extensions>
          <ns3:TrackPointExtension>
            <ns3:atemp>17.0</ns3:atemp>
            <ns3:hr>140</ns3:hr>
          </ns3:TrackPointExtension>
        </extensions>
      </trkpt>
      <trkpt lat="-22.08845861256122589111328125" lon="166.44779554568231105804443359375">
        <ele>645.20001220703125</ele>
        <time>2016-08-12T18:36:44.000Z</time>
        <extensions>
          <ns3:TrackPointExtension>
            <ns3:atemp>17.0</ns3:atemp>
            <ns3:hr>140</ns3:hr>
          </ns3:TrackPointExtension>
        </extensions>
      </trkpt>
      <trkpt lat="-22.088455595076084136962890625" lon="166.44777978770434856414794921875">
        <ele>645.5999755859375</ele>
        <time>2016-08-12T18:36:45.000Z</time>
        <extensions>
          <ns3:TrackPointExtension>
            <ns3:atemp>17.0</ns3:atemp>
            <ns3:hr>140</ns3:hr>
          </ns3:TrackPointExtension>
        </extensions>
      </trkpt>
      <trkpt lat="-22.0884547568857669830322265625" lon="166.447759084403514862060546875">
        <ele>645.4000244140625</ele>
        <time>2016-08-12T18:36:46.000Z</time>
        <extensions>
          <ns3:TrackPointExtension>
            <ns3:atemp>17.0</ns3:atemp>
            <ns3:hr>140</ns3:hr>
          </ns3:TrackPointExtension>
        </extensions>
      </trkpt>
      <trkpt lat="-22.08845266140997409820556640625" lon="166.44773729145526885986328125">
        <ele>645.4000244140625</ele>
        <time>2016-08-12T18:36:47.000Z</time>
        <extensions>
          <ns3:TrackPointExtension>
            <ns3:atemp>17.0</ns3:atemp>
            <ns3:hr>140</ns3:hr>
          </ns3:TrackPointExtension>
        </extensions>
      </trkpt>
      <trkpt lat="-22.08845215849578380584716796875" lon="166.447717510163784027099609375">
        <ele>645.79998779296875</ele>
        <time>2016-08-12T18:36:48.000Z</time>
        <extensions>
          <ns3:TrackPointExtension>
            <ns3:atemp>17.0</ns3:atemp>
            <ns3:hr>141</ns3:hr>
          </ns3:TrackPointExtension>
        </extensions>
      </trkpt>
      <trkpt lat="-22.08845081739127635955810546875" lon="166.44769580103456974029541015625">
        <ele>645.79998779296875</ele>
        <time>2016-08-12T18:36:49.000Z</time>
        <extensions>
          <ns3:TrackPointExtension>
            <ns3:atemp>17.0</ns3:atemp>
            <ns3:hr>141</ns3:hr>
          </ns3:TrackPointExtension>
        </extensions>
      </trkpt>
      <trkpt lat="-22.08844796754419803619384765625" lon="166.4476734213531017303466796875">
        <ele>645.79998779296875</ele>
        <time>2016-08-12T18:36:50.000Z</time>
        <extensions>
          <ns3:TrackPointExtension>
            <ns3:atemp>17.0</ns3:atemp>
            <ns3:hr>141</ns3:hr>
          </ns3:TrackPointExtension>
        </extensions>
      </trkpt>
      <trkpt lat="-22.08844763226807117462158203125" lon="166.447653472423553466796875">
        <ele>646.20001220703125</ele>
        <time>2016-08-12T18:36:51.000Z</time>
        <extensions>
          <ns3:TrackPointExtension>
            <ns3:atemp>17.0</ns3:atemp>
            <ns3:hr>141</ns3:hr>
          </ns3:TrackPointExtension>
        </extensions>
      </trkpt>
      <trkpt lat="-22.0884467102587223052978515625" lon="166.447633691132068634033203125">
        <ele>646.20001220703125</ele>
        <time>2016-08-12T18:36:52.000Z</time>
        <extensions>
          <ns3:TrackPointExtension>
            <ns3:atemp>17.0</ns3:atemp>
            <ns3:hr>141</ns3:hr>
          </ns3:TrackPointExtension>
        </extensions>
      </trkpt>
      <trkpt lat="-22.0884446986019611358642578125" lon="166.44761231727898120880126953125">
        <ele>646</ele>
        <time>2016-08-12T18:36:53.000Z</time>
        <extensions>
          <ns3:TrackPointExtension>
            <ns3:atemp>17.0</ns3:atemp>
            <ns3:hr>141</ns3:hr>
          </ns3:TrackPointExtension>
        </extensions>
      </trkpt>
      <trkpt lat="-22.08843757398426532745361328125" lon="166.447594463825225830078125">
        <ele>646.20001220703125</ele>
        <time>2016-08-12T18:36:54.000Z</time>
        <extensions>
          <ns3:TrackPointExtension>
            <ns3:atemp>17.0</ns3:atemp>
            <ns3:hr>141</ns3:hr>
          </ns3:TrackPointExtension>
        </extensions>
      </trkpt>
      <trkpt lat="-22.0884332992136478424072265625" lon="166.4475704915821552276611328125">
        <ele>646.5999755859375</ele>
        <time>2016-08-12T18:36:55.000Z</time>
        <extensions>
          <ns3:TrackPointExtension>
            <ns3:atemp>17.0</ns3:atemp>
            <ns3:hr>141</ns3:hr>
          </ns3:TrackPointExtension>
        </extensions>
      </trkpt>
      <trkpt lat="-22.0884249173104763031005859375" lon="166.4475480280816555023193359375">
        <ele>646.5999755859375</ele>
        <time>2016-08-12T18:36:56.000Z</time>
        <extensions>
          <ns3:TrackPointExtension>
            <ns3:atemp>17.0</ns3:atemp>
            <ns3:hr>141</ns3:hr>
          </ns3:TrackPointExtension>
        </extensions>
      </trkpt>
      <trkpt lat="-22.08841326646506786346435546875" lon="166.44753000698983669281005859375">
        <ele>646.5999755859375</ele>
        <time>2016-08-12T18:36:57.000Z</time>
        <extensions>
          <ns3:TrackPointExtension>
            <ns3:atemp>17.0</ns3:atemp>
            <ns3:hr>141</ns3:hr>
          </ns3:TrackPointExtension>
        </extensions>
      </trkpt>
      <trkpt lat="-22.08840924315154552459716796875" lon="166.44750687293708324432373046875">
        <ele>647</ele>
        <time>2016-08-12T18:36:58.000Z</time>
        <extensions>
          <ns3:TrackPointExtension>
            <ns3:atemp>17.0</ns3:atemp>
            <ns3:hr>141</ns3:hr>
          </ns3:TrackPointExtension>
        </extensions>
      </trkpt>
      <trkpt lat="-22.0884044654667377471923828125" lon="166.44748784601688385009765625">
        <ele>647</ele>
        <time>2016-08-12T18:36:59.000Z</time>
        <extensions>
          <ns3:TrackPointExtension>
            <ns3:atemp>17.0</ns3:atemp>
            <ns3:hr>141</ns3:hr>
          </ns3:TrackPointExtension>
        </extensions>
      </trkpt>
      <trkpt lat="-22.08839901722967624664306640625" lon="166.4474715851247310638427734375">
        <ele>647</ele>
        <time>2016-08-12T18:37:00.000Z</time>
        <extensions>
          <ns3:TrackPointExtension>
            <ns3:atemp>17.0</ns3:atemp>
            <ns3:hr>140</ns3:hr>
          </ns3:TrackPointExtension>
        </extensions>
      </trkpt>
      <trkpt lat="-22.0883975923061370849609375" lon="166.44745540805160999298095703125">
        <ele>647.4000244140625</ele>
        <time>2016-08-12T18:37:01.000Z</time>
        <extensions>
          <ns3:TrackPointExtension>
            <ns3:atemp>17.0</ns3:atemp>
            <ns3:hr>140</ns3:hr>
          </ns3:TrackPointExtension>
        </extensions>
      </trkpt>
      <trkpt lat="-22.08839281462132930755615234375" lon="166.447441242635250091552734375">
        <ele>647.20001220703125</ele>
        <time>2016-08-12T18:37:02.000Z</time>
        <extensions>
          <ns3:TrackPointExtension>
            <ns3:atemp>17.0</ns3:atemp>
            <ns3:hr>140</ns3:hr>
          </ns3:TrackPointExtension>
        </extensions>
      </trkpt>
      <trkpt lat="-22.08838778547942638397216796875" lon="166.44742489792406558990478515625">
        <ele>647.20001220703125</ele>
        <time>2016-08-12T18:37:03.000Z</time>
        <extensions>
          <ns3:TrackPointExtension>
            <ns3:atemp>17.0</ns3:atemp>
            <ns3:hr>140</ns3:hr>
          </ns3:TrackPointExtension>
        </extensions>
      </trkpt>
      <trkpt lat="-22.08838728256523609161376953125" lon="166.44740528427064418792724609375">
        <ele>647.5999755859375</ele>
        <time>2016-08-12T18:37:04.000Z</time>
        <extensions>
          <ns3:TrackPointExtension>
            <ns3:atemp>17.0</ns3:atemp>
            <ns3:hr>140</ns3:hr>
          </ns3:TrackPointExtension>
        </extensions>
      </trkpt>
      <trkpt lat="-22.0883856900036334991455078125" lon="166.4473857544362545013427734375">
        <ele>647.5999755859375</ele>
        <time>2016-08-12T18:37:05.000Z</time>
        <extensions>
          <ns3:TrackPointExtension>
            <ns3:atemp>17.0</ns3:atemp>
            <ns3:hr>140</ns3:hr>
          </ns3:TrackPointExtension>
        </extensions>
      </trkpt>
      <trkpt lat="-22.08838929422199726104736328125" lon="166.4473664760589599609375">
        <ele>647.5999755859375</ele>
        <time>2016-08-12T18:37:06.000Z</time>
        <extensions>
          <ns3:TrackPointExtension>
            <ns3:atemp>17.0</ns3:atemp>
            <ns3:hr>139</ns3:hr>
          </ns3:TrackPointExtension>
        </extensions>
      </trkpt>
      <trkpt lat="-22.08838443271815776824951171875" lon="166.44734837114810943603515625">
        <ele>647.5999755859375</ele>
        <time>2016-08-12T18:37:07.000Z</time>
        <extensions>
          <ns3:TrackPointExtension>
            <ns3:atemp>17.0</ns3:atemp>
            <ns3:hr>139</ns3:hr>
          </ns3:TrackPointExtension>
        </extensions>
      </trkpt>
      <trkpt lat="-22.0883793197572231292724609375" lon="166.44732892513275146484375">
        <ele>647.79998779296875</ele>
        <time>2016-08-12T18:37:08.000Z</time>
        <extensions>
          <ns3:TrackPointExtension>
            <ns3:atemp>17.0</ns3:atemp>
            <ns3:hr>139</ns3:hr>
          </ns3:TrackPointExtension>
        </extensions>
      </trkpt>
      <trkpt lat="-22.08836901001632213592529296875" lon="166.4473083056509494781494140625">
        <ele>647.79998779296875</ele>
        <time>2016-08-12T18:37:09.000Z</time>
        <extensions>
          <ns3:TrackPointExtension>
            <ns3:atemp>17.0</ns3:atemp>
            <ns3:hr>138</ns3:hr>
          </ns3:TrackPointExtension>
        </extensions>
      </trkpt>
      <trkpt lat="-22.08835928700864315032958984375" lon="166.44728760235011577606201171875">
        <ele>648</ele>
        <time>2016-08-12T18:37:10.000Z</time>
        <extensions>
          <ns3:TrackPointExtension>
            <ns3:atemp>17.0</ns3:atemp>
            <ns3:hr>138</ns3:hr>
          </ns3:TrackPointExtension>
        </extensions>
      </trkpt>
      <trkpt lat="-22.0883447863161563873291015625" lon="166.447274275124073028564453125">
        <ele>648.5999755859375</ele>
        <time>2016-08-12T18:37:11.000Z</time>
        <extensions>
          <ns3:TrackPointExtension>
            <ns3:atemp>17.0</ns3:atemp>
            <ns3:hr>138</ns3:hr>
          </ns3:TrackPointExtension>
        </extensions>
      </trkpt>
      <trkpt lat="-22.0883310399949550628662109375" lon="166.44726010970771312713623046875">
        <ele>648.5999755859375</ele>
        <time>2016-08-12T18:37:12.000Z</time>
        <extensions>
          <ns3:TrackPointExtension>
            <ns3:atemp>17.0</ns3:atemp>
            <ns3:hr>138</ns3:hr>
          </ns3:TrackPointExtension>
        </extensions>
      </trkpt>
      <trkpt lat="-22.0883162878453731536865234375" lon="166.44724569283425807952880859375">
        <ele>648.5999755859375</ele>
        <time>2016-08-12T18:37:13.000Z</time>
        <extensions>
          <ns3:TrackPointExtension>
            <ns3:atemp>17.0</ns3:atemp>
            <ns3:hr>138</ns3:hr>
          </ns3:TrackPointExtension>
        </extensions>
      </trkpt>
      <trkpt lat="-22.0883072353899478912353515625" lon="166.44722809083759784698486328125">
        <ele>648.79998779296875</ele>
        <time>2016-08-12T18:37:14.000Z</time>
        <extensions>
          <ns3:TrackPointExtension>
            <ns3:atemp>17.0</ns3:atemp>
            <ns3:hr>138</ns3:hr>
          </ns3:TrackPointExtension>
        </extensions>
      </trkpt>
      <trkpt lat="-22.08830296061933040618896484375" lon="166.44721350632607936859130859375">
        <ele>649</ele>
        <time>2016-08-12T18:37:15.000Z</time>
        <extensions>
          <ns3:TrackPointExtension>
            <ns3:atemp>17.0</ns3:atemp>
            <ns3:hr>138</ns3:hr>
          </ns3:TrackPointExtension>
        </extensions>
      </trkpt>
      <trkpt lat="-22.0882971771061420440673828125" lon="166.44719976000487804412841796875">
        <ele>649.4000244140625</ele>
        <time>2016-08-12T18:37:16.000Z</time>
        <extensions>
          <ns3:TrackPointExtension>
            <ns3:atemp>17.0</ns3:atemp>
            <ns3:hr>137</ns3:hr>
          </ns3:TrackPointExtension>
        </extensions>
      </trkpt>
      <trkpt lat="-22.08829357288777828216552734375" lon="166.44718584604561328887939453125">
        <ele>649.5999755859375</ele>
        <time>2016-08-12T18:37:17.000Z</time>
        <extensions>
          <ns3:TrackPointExtension>
            <ns3:atemp>17.0</ns3:atemp>
            <ns3:hr>137</ns3:hr>
          </ns3:TrackPointExtension>
        </extensions>
      </trkpt>
      <trkpt lat="-22.08829206414520740509033203125" lon="166.44716975279152393341064453125">
        <ele>649.5999755859375</ele>
        <time>2016-08-12T18:37:18.000Z</time>
        <extensions>
          <ns3:TrackPointExtension>
            <ns3:atemp>17.0</ns3:atemp>
            <ns3:hr>138</ns3:hr>
          </ns3:TrackPointExtension>
        </extensions>
      </trkpt>
      <trkpt lat="-22.08829290233552455902099609375" lon="166.4471527375280857086181640625">
        <ele>650</ele>
        <time>2016-08-12T18:37:19.000Z</time>
        <extensions>
          <ns3:TrackPointExtension>
            <ns3:atemp>17.0</ns3:atemp>
            <ns3:hr>137</ns3:hr>
          </ns3:TrackPointExtension>
        </extensions>
      </trkpt>
      <trkpt lat="-22.088283933699131011962890625" lon="166.4471379853785037994384765625">
        <ele>650.20001220703125</ele>
        <time>2016-08-12T18:37:20.000Z</time>
        <extensions>
          <ns3:TrackPointExtension>
            <ns3:atemp>17.0</ns3:atemp>
            <ns3:hr>137</ns3:hr>
          </ns3:TrackPointExtension>
        </extensions>
      </trkpt>
      <trkpt lat="-22.088274545967578887939453125" lon="166.44712566398084163665771484375">
        <ele>650.4000244140625</ele>
        <time>2016-08-12T18:37:21.000Z</time>
        <extensions>
          <ns3:TrackPointExtension>
            <ns3:atemp>17.0</ns3:atemp>
            <ns3:hr>137</ns3:hr>
          </ns3:TrackPointExtension>
        </extensions>
      </trkpt>
      <trkpt lat="-22.08826138637959957122802734375" lon="166.44711543805897235870361328125">
        <ele>650.5999755859375</ele>
        <time>2016-08-12T18:37:22.000Z</time>
        <extensions>
          <ns3:TrackPointExtension>
            <ns3:atemp>17.0</ns3:atemp>
            <ns3:hr>137</ns3:hr>
          </ns3:TrackPointExtension>
        </extensions>
      </trkpt>
      <trkpt lat="-22.08825216628611087799072265625" lon="166.44710336811840534210205078125">
        <ele>651</ele>
        <time>2016-08-12T18:37:23.000Z</time>
        <extensions>
          <ns3:TrackPointExtension>
            <ns3:atemp>17.0</ns3:atemp>
            <ns3:hr>137</ns3:hr>
          </ns3:TrackPointExtension>
        </extensions>
      </trkpt>
      <trkpt lat="-22.088238336145877838134765625" lon="166.44709398038685321807861328125">
        <ele>651.4000244140625</ele>
        <time>2016-08-12T18:37:24.000Z</time>
        <extensions>
          <ns3:TrackPointExtension>
            <ns3:atemp>17.0</ns3:atemp>
            <ns3:hr>138</ns3:hr>
          </ns3:TrackPointExtension>
        </extensions>
      </trkpt>
      <trkpt lat="-22.08822919987142086029052734375" lon="166.4470819942653179168701171875">
        <ele>651.5999755859375</ele>
        <time>2016-08-12T18:37:25.000Z</time>
        <extensions>
          <ns3:TrackPointExtension>
            <ns3:atemp>17.0</ns3:atemp>
            <ns3:hr>137</ns3:hr>
          </ns3:TrackPointExtension>
        </extensions>
      </trkpt>
      <trkpt lat="-22.0882160402834415435791015625" lon="166.447066403925418853759765625">
        <ele>651.5999755859375</ele>
        <time>2016-08-12T18:37:26.000Z</time>
        <extensions>
          <ns3:TrackPointExtension>
            <ns3:atemp>17.0</ns3:atemp>
            <ns3:hr>137</ns3:hr>
          </ns3:TrackPointExtension>
        </extensions>
      </trkpt>
      <trkpt lat="-22.0882026292383670806884765625" lon="166.44705005921423435211181640625">
        <ele>652</ele>
        <time>2016-08-12T18:37:27.000Z</time>
        <extensions>
          <ns3:TrackPointExtension>
            <ns3:atemp>17.0</ns3:atemp>
            <ns3:hr>138</ns3:hr>
          </ns3:TrackPointExtension>
        </extensions>
      </trkpt>
      <trkpt lat="-22.0881856977939605712890625" lon="166.4470350556075572967529296875">
        <ele>652.20001220703125</ele>
        <time>2016-08-12T18:37:28.000Z</time>
        <extensions>
          <ns3:TrackPointExtension>
            <ns3:atemp>17.0</ns3:atemp>
            <ns3:hr>137</ns3:hr>
          </ns3:TrackPointExtension>
        </extensions>
      </trkpt>
      <trkpt lat="-22.08816583268344402313232421875" lon="166.447020806372165679931640625">
        <ele>652.4000244140625</ele>
        <time>2016-08-12T18:37:29.000Z</time>
        <extensions>
          <ns3:TrackPointExtension>
            <ns3:atemp>17.0</ns3:atemp>
            <ns3:hr>138</ns3:hr>
          </ns3:TrackPointExtension>
        </extensions>
      </trkpt>
      <trkpt lat="-22.08815057761967182159423828125" lon="166.44700546748936176300048828125">
        <ele>652.5999755859375</ele>
        <time>2016-08-12T18:37:30.000Z</time>
        <extensions>
          <ns3:TrackPointExtension>
            <ns3:atemp>17.0</ns3:atemp>
            <ns3:hr>138</ns3:hr>
          </ns3:TrackPointExtension>
        </extensions>
      </trkpt>
      <trkpt lat="-22.0881419442594051361083984375" lon="166.4469837583601474761962890625">
        <ele>652.5999755859375</ele>
        <time>2016-08-12T18:37:31.000Z</time>
        <extensions>
          <ns3:TrackPointExtension>
            <ns3:atemp>17.0</ns3:atemp>
            <ns3:hr>137</ns3:hr>
          </ns3:TrackPointExtension>
        </extensions>
      </trkpt>
      <trkpt lat="-22.08813297562301158905029296875" lon="166.44696406088769435882568359375">
        <ele>652.5999755859375</ele>
        <time>2016-08-12T18:37:32.000Z</time>
        <extensions>
          <ns3:TrackPointExtension>
            <ns3:atemp>17.0</ns3:atemp>
            <ns3:hr>138</ns3:hr>
          </ns3:TrackPointExtension>
        </extensions>
      </trkpt>
      <trkpt lat="-22.08812878467142581939697265625" lon="166.4469455368816852569580078125">
        <ele>652.79998779296875</ele>
        <time>2016-08-12T18:37:33.000Z</time>
        <extensions>
          <ns3:TrackPointExtension>
            <ns3:atemp>17.0</ns3:atemp>
            <ns3:hr>138</ns3:hr>
          </ns3:TrackPointExtension>
        </extensions>
      </trkpt>
      <trkpt lat="-22.08812325261533260345458984375" lon="166.44692349247634410858154296875">
        <ele>653</ele>
        <time>2016-08-12T18:37:34.000Z</time>
        <extensions>
          <ns3:TrackPointExtension>
            <ns3:atemp>17.0</ns3:atemp>
            <ns3:hr>138</ns3:hr>
          </ns3:TrackPointExtension>
        </extensions>
      </trkpt>
      <trkpt lat="-22.0881157927215099334716796875" lon="166.4468992687761783599853515625">
        <ele>653.20001220703125</ele>
        <time>2016-08-12T18:37:35.000Z</time>
        <extensions>
          <ns3:TrackPointExtension>
            <ns3:atemp>17.0</ns3:atemp>
            <ns3:hr>138</ns3:hr>
          </ns3:TrackPointExtension>
        </extensions>
      </trkpt>
      <trkpt lat="-22.08810799755156040191650390625" lon="166.44687672145664691925048828125">
        <ele>653</ele>
        <time>2016-08-12T18:37:36.000Z</time>
        <extensions>
          <ns3:TrackPointExtension>
            <ns3:atemp>17.0</ns3:atemp>
            <ns3:hr>138</ns3:hr>
          </ns3:TrackPointExtension>
        </extensions>
      </trkpt>
      <trkpt lat="-22.08810078911483287811279296875" lon="166.44685459323227405548095703125">
        <ele>653</ele>
        <time>2016-08-12T18:37:37.000Z</time>
        <extensions>
          <ns3:TrackPointExtension>
            <ns3:atemp>17.0</ns3:atemp>
            <ns3:hr>138</ns3:hr>
          </ns3:TrackPointExtension>
        </extensions>
      </trkpt>
      <trkpt lat="-22.08809316158294677734375" lon="166.446833051741123199462890625">
        <ele>653.4000244140625</ele>
        <time>2016-08-12T18:37:38.000Z</time>
        <extensions>
          <ns3:TrackPointExtension>
            <ns3:atemp>17.0</ns3:atemp>
            <ns3:hr>139</ns3:hr>
          </ns3:TrackPointExtension>
        </extensions>
      </trkpt>
      <trkpt lat="-22.088084109127521514892578125" lon="166.44681419245898723602294921875">
        <ele>653.4000244140625</ele>
        <time>2016-08-12T18:37:39.000Z</time>
        <extensions>
          <ns3:TrackPointExtension>
            <ns3:atemp>17.0</ns3:atemp>
            <ns3:hr>139</ns3:hr>
          </ns3:TrackPointExtension>
        </extensions>
      </trkpt>
      <trkpt lat="-22.08807698450982570648193359375" lon="166.446794159710407257080078125">
        <ele>653.20001220703125</ele>
        <time>2016-08-12T18:37:40.000Z</time>
        <extensions>
          <ns3:TrackPointExtension>
            <ns3:atemp>17.0</ns3:atemp>
            <ns3:hr>139</ns3:hr>
          </ns3:TrackPointExtension>
        </extensions>
      </trkpt>
      <trkpt lat="-22.088066674768924713134765625" lon="166.4467715285718441009521484375">
        <ele>653.4000244140625</ele>
        <time>2016-08-12T18:37:41.000Z</time>
        <extensions>
          <ns3:TrackPointExtension>
            <ns3:atemp>17.0</ns3:atemp>
            <ns3:hr>139</ns3:hr>
          </ns3:TrackPointExtension>
        </extensions>
      </trkpt>
      <trkpt lat="-22.08805720321834087371826171875" lon="166.44675266928970813751220703125">
        <ele>653.4000244140625</ele>
        <time>2016-08-12T18:37:42.000Z</time>
        <extensions>
          <ns3:TrackPointExtension>
            <ns3:atemp>17.0</ns3:atemp>
            <ns3:hr>139</ns3:hr>
          </ns3:TrackPointExtension>
        </extensions>
      </trkpt>
      <trkpt lat="-22.08804178051650524139404296875" lon="166.44673607312142848968505859375">
        <ele>653.20001220703125</ele>
        <time>2016-08-12T18:37:43.000Z</time>
        <extensions>
          <ns3:TrackPointExtension>
            <ns3:atemp>17.0</ns3:atemp>
            <ns3:hr>139</ns3:hr>
          </ns3:TrackPointExtension>
        </extensions>
      </trkpt>
      <trkpt lat="-22.08803004585206508636474609375" lon="166.4467162080109119415283203125">
        <ele>653.5999755859375</ele>
        <time>2016-08-12T18:37:44.000Z</time>
        <extensions>
          <ns3:TrackPointExtension>
            <ns3:atemp>17.0</ns3:atemp>
            <ns3:hr>139</ns3:hr>
          </ns3:TrackPointExtension>
        </extensions>
      </trkpt>
      <trkpt lat="-22.08801336586475372314453125" lon="166.44669927656650543212890625">
        <ele>653.79998779296875</ele>
        <time>2016-08-12T18:37:45.000Z</time>
        <extensions>
          <ns3:TrackPointExtension>
            <ns3:atemp>17.0</ns3:atemp>
            <ns3:hr>139</ns3:hr>
          </ns3:TrackPointExtension>
        </extensions>
      </trkpt>
      <trkpt lat="-22.08800104446709156036376953125" lon="166.4466796629130840301513671875">
        <ele>653.5999755859375</ele>
        <time>2016-08-12T18:37:46.000Z</time>
        <extensions>
          <ns3:TrackPointExtension>
            <ns3:atemp>17.0</ns3:atemp>
            <ns3:hr>139</ns3:hr>
          </ns3:TrackPointExtension>
        </extensions>
      </trkpt>
      <trkpt lat="-22.08798813633620738983154296875" lon="166.44666315056383609771728515625">
        <ele>653.79998779296875</ele>
        <time>2016-08-12T18:37:47.000Z</time>
        <extensions>
          <ns3:TrackPointExtension>
            <ns3:atemp>17.0</ns3:atemp>
            <ns3:hr>139</ns3:hr>
          </ns3:TrackPointExtension>
        </extensions>
      </trkpt>
      <trkpt lat="-22.08797170780599117279052734375" lon="166.4466437883675098419189453125">
        <ele>653.79998779296875</ele>
        <time>2016-08-12T18:37:48.000Z</time>
        <extensions>
          <ns3:TrackPointExtension>
            <ns3:atemp>17.0</ns3:atemp>
            <ns3:hr>139</ns3:hr>
          </ns3:TrackPointExtension>
        </extensions>
      </trkpt>
      <trkpt lat="-22.087954692542552947998046875" lon="166.44662551581859588623046875">
        <ele>653.79998779296875</ele>
        <time>2016-08-12T18:37:49.000Z</time>
        <extensions>
          <ns3:TrackPointExtension>
            <ns3:atemp>17.0</ns3:atemp>
            <ns3:hr>139</ns3:hr>
          </ns3:TrackPointExtension>
        </extensions>
      </trkpt>
      <trkpt lat="-22.08794094622135162353515625" lon="166.44661051221191883087158203125">
        <ele>653.5999755859375</ele>
        <time>2016-08-12T18:37:50.000Z</time>
        <extensions>
          <ns3:TrackPointExtension>
            <ns3:atemp>17.0</ns3:atemp>
            <ns3:hr>139</ns3:hr>
          </ns3:TrackPointExtension>
        </extensions>
      </trkpt>
      <trkpt lat="-22.08792795427143573760986328125" lon="166.4465931616723537445068359375">
        <ele>653.79998779296875</ele>
        <time>2016-08-12T18:37:51.000Z</time>
        <extensions>
          <ns3:TrackPointExtension>
            <ns3:atemp>17.0</ns3:atemp>
            <ns3:hr>139</ns3:hr>
          </ns3:TrackPointExtension>
        </extensions>
      </trkpt>
      <trkpt lat="-22.0879147946834564208984375" lon="166.446572877466678619384765625">
        <ele>654</ele>
        <time>2016-08-12T18:37:52.000Z</time>
        <extensions>
          <ns3:TrackPointExtension>
            <ns3:atemp>17.0</ns3:atemp>
            <ns3:hr>139</ns3:hr>
          </ns3:TrackPointExtension>
        </extensions>
      </trkpt>
      <trkpt lat="-22.08790146745741367340087890625" lon="166.446553431451320648193359375">
        <ele>654</ele>
        <time>2016-08-12T18:37:53.000Z</time>
        <extensions>
          <ns3:TrackPointExtension>
            <ns3:atemp>17.0</ns3:atemp>
            <ns3:hr>139</ns3:hr>
          </ns3:TrackPointExtension>
        </extensions>
      </trkpt>
      <trkpt lat="-22.08788839168846607208251953125" lon="166.4465336501598358154296875">
        <ele>654</ele>
        <time>2016-08-12T18:37:54.000Z</time>
        <extensions>
          <ns3:TrackPointExtension>
            <ns3:atemp>17.0</ns3:atemp>
            <ns3:hr>139</ns3:hr>
          </ns3:TrackPointExtension>
        </extensions>
      </trkpt>
      <trkpt lat="-22.0878831110894680023193359375" lon="166.4465121924877166748046875">
        <ele>654</ele>
        <time>2016-08-12T18:37:55.000Z</time>
        <extensions>
          <ns3:TrackPointExtension>
            <ns3:atemp>17.0</ns3:atemp>
            <ns3:hr>139</ns3:hr>
          </ns3:TrackPointExtension>
        </extensions>
      </trkpt>
      <trkpt lat="-22.08787883631885051727294921875" lon="166.44649274647235870361328125">
        <ele>654</ele>
        <time>2016-08-12T18:37:56.000Z</time>
        <extensions>
          <ns3:TrackPointExtension>
            <ns3:atemp>17.0</ns3:atemp>
            <ns3:hr>139</ns3:hr>
          </ns3:TrackPointExtension>
        </extensions>
      </trkpt>
      <trkpt lat="-22.08787615410983562469482421875" lon="166.446468941867351531982421875">
        <ele>654</ele>
        <time>2016-08-12T18:37:57.000Z</time>
        <extensions>
          <ns3:TrackPointExtension>
            <ns3:atemp>17.0</ns3:atemp>
            <ns3:hr>139</ns3:hr>
          </ns3:TrackPointExtension>
        </extensions>
      </trkpt>
      <trkpt lat="-22.08786584436893463134765625" lon="166.446448154747486114501953125">
        <ele>654.20001220703125</ele>
        <time>2016-08-12T18:37:58.000Z</time>
        <extensions>
          <ns3:TrackPointExtension>
            <ns3:atemp>17.0</ns3:atemp>
            <ns3:hr>139</ns3:hr>
          </ns3:TrackPointExtension>
        </extensions>
      </trkpt>
      <trkpt lat="-22.08784916438162326812744140625" lon="166.4464305527508258819580078125">
        <ele>654.20001220703125</ele>
        <time>2016-08-12T18:37:59.000Z</time>
        <extensions>
          <ns3:TrackPointExtension>
            <ns3:atemp>17.0</ns3:atemp>
            <ns3:hr>139</ns3:hr>
          </ns3:TrackPointExtension>
        </extensions>
      </trkpt>
      <trkpt lat="-22.0878318138420581817626953125" lon="166.44641370512545108795166015625">
        <ele>654</ele>
        <time>2016-08-12T18:38:00.000Z</time>
        <extensions>
          <ns3:TrackPointExtension>
            <ns3:atemp>17.0</ns3:atemp>
            <ns3:hr>138</ns3:hr>
          </ns3:TrackPointExtension>
        </extensions>
      </trkpt>
      <trkpt lat="-22.0878177322447299957275390625" lon="166.446397192776203155517578125">
        <ele>654.4000244140625</ele>
        <time>2016-08-12T18:38:01.000Z</time>
        <extensions>
          <ns3:TrackPointExtension>
            <ns3:atemp>17.0</ns3:atemp>
            <ns3:hr>138</ns3:hr>
          </ns3:TrackPointExtension>
        </extensions>
      </trkpt>
      <trkpt lat="-22.087803818285465240478515625" lon="166.44637732766568660736083984375">
        <ele>654.20001220703125</ele>
        <time>2016-08-12T18:38:02.000Z</time>
        <extensions>
          <ns3:TrackPointExtension>
            <ns3:atemp>17.0</ns3:atemp>
            <ns3:hr>138</ns3:hr>
          </ns3:TrackPointExtension>
        </extensions>
      </trkpt>
      <trkpt lat="-22.0877888984978199005126953125" lon="166.4463574625551700592041015625">
        <ele>654.20001220703125</ele>
        <time>2016-08-12T18:38:03.000Z</time>
        <extensions>
          <ns3:TrackPointExtension>
            <ns3:atemp>17.0</ns3:atemp>
            <ns3:hr>138</ns3:hr>
          </ns3:TrackPointExtension>
        </extensions>
      </trkpt>
      <trkpt lat="-22.0877780020236968994140625" lon="166.44633893854916095733642578125">
        <ele>654.5999755859375</ele>
        <time>2016-08-12T18:38:04.000Z</time>
        <extensions>
          <ns3:TrackPointExtension>
            <ns3:atemp>17.0</ns3:atemp>
            <ns3:hr>138</ns3:hr>
          </ns3:TrackPointExtension>
        </extensions>
      </trkpt>
      <trkpt lat="-22.0877667702734470367431640625" lon="166.4463175646960735321044921875">
        <ele>654.79998779296875</ele>
        <time>2016-08-12T18:38:05.000Z</time>
        <extensions>
          <ns3:TrackPointExtension>
            <ns3:atemp>17.0</ns3:atemp>
            <ns3:hr>138</ns3:hr>
          </ns3:TrackPointExtension>
        </extensions>
      </trkpt>
      <trkpt lat="-22.087758891284465789794921875" lon="166.4462949335575103759765625">
        <ele>654.79998779296875</ele>
        <time>2016-08-12T18:38:06.000Z</time>
        <extensions>
          <ns3:TrackPointExtension>
            <ns3:atemp>17.0</ns3:atemp>
            <ns3:hr>138</ns3:hr>
          </ns3:TrackPointExtension>
        </extensions>
      </trkpt>
      <trkpt lat="-22.0877567119896411895751953125" lon="166.44627624191343784332275390625">
        <ele>655</ele>
        <time>2016-08-12T18:38:07.000Z</time>
        <extensions>
          <ns3:TrackPointExtension>
            <ns3:atemp>17.0</ns3:atemp>
            <ns3:hr>137</ns3:hr>
          </ns3:TrackPointExtension>
        </extensions>
      </trkpt>
      <trkpt lat="-22.08774439059197902679443359375" lon="166.4462572149932384490966796875">
        <ele>655</ele>
        <time>2016-08-12T18:38:08.000Z</time>
        <extensions>
          <ns3:TrackPointExtension>
            <ns3:atemp>17.0</ns3:atemp>
            <ns3:hr>138</ns3:hr>
          </ns3:TrackPointExtension>
        </extensions>
      </trkpt>
      <trkpt lat="-22.08772611804306507110595703125" lon="166.4462407864630222320556640625">
        <ele>655</ele>
        <time>2016-08-12T18:38:09.000Z</time>
        <extensions>
          <ns3:TrackPointExtension>
            <ns3:atemp>17.0</ns3:atemp>
            <ns3:hr>137</ns3:hr>
          </ns3:TrackPointExtension>
        </extensions>
      </trkpt>
      <trkpt lat="-22.08771488629281520843505859375" lon="166.44622611813247203826904296875">
        <ele>655.4000244140625</ele>
        <time>2016-08-12T18:38:10.000Z</time>
        <extensions>
          <ns3:TrackPointExtension>
            <ns3:atemp>17.0</ns3:atemp>
            <ns3:hr>137</ns3:hr>
          </ns3:TrackPointExtension>
        </extensions>
      </trkpt>
      <trkpt lat="-22.08766308613121509552001953125" lon="166.44616392441093921661376953125">
        <ele>655.4000244140625</ele>
        <time>2016-08-12T18:38:14.000Z</time>
        <extensions>
          <ns3:TrackPointExtension>
            <ns3:atemp>17.0</ns3:atemp>
            <ns3:hr>137</ns3:hr>
          </ns3:TrackPointExtension>
        </extensions>
      </trkpt>
      <trkpt lat="-22.08765394985675811767578125" lon="166.44614808261394500732421875">
        <ele>655.4000244140625</ele>
        <time>2016-08-12T18:38:15.000Z</time>
        <extensions>
          <ns3:TrackPointExtension>
            <ns3:atemp>17.0</ns3:atemp>
            <ns3:hr>136</ns3:hr>
          </ns3:TrackPointExtension>
        </extensions>
      </trkpt>
      <trkpt lat="-22.087644226849079132080078125" lon="166.44613333046436309814453125">
        <ele>655.5999755859375</ele>
        <time>2016-08-12T18:38:16.000Z</time>
        <extensions>
          <ns3:TrackPointExtension>
            <ns3:atemp>16.0</ns3:atemp>
            <ns3:hr>136</ns3:hr>
          </ns3:TrackPointExtension>
        </extensions>
      </trkpt>
      <trkpt lat="-22.08763249218463897705078125" lon="166.44611857831478118896484375">
        <ele>656</ele>
        <time>2016-08-12T18:38:17.000Z</time>
        <extensions>
          <ns3:TrackPointExtension>
            <ns3:atemp>16.0</ns3:atemp>
            <ns3:hr>136</ns3:hr>
          </ns3:TrackPointExtension>
        </extensions>
      </trkpt>
      <trkpt lat="-22.0876189135015010833740234375" lon="166.4461029879748821258544921875">
        <ele>656.20001220703125</ele>
        <time>2016-08-12T18:38:18.000Z</time>
        <extensions>
          <ns3:TrackPointExtension>
            <ns3:atemp>16.0</ns3:atemp>
            <ns3:hr>136</ns3:hr>
          </ns3:TrackPointExtension>
        </extensions>
      </trkpt>
      <trkpt lat="-22.08760374225676059722900390625" lon="166.4460884034633636474609375">
        <ele>656.4000244140625</ele>
        <time>2016-08-12T18:38:19.000Z</time>
        <extensions>
          <ns3:TrackPointExtension>
            <ns3:atemp>16.0</ns3:atemp>
            <ns3:hr>135</ns3:hr>
          </ns3:TrackPointExtension>
        </extensions>
      </trkpt>
      <trkpt lat="-22.0875897444784641265869140625" lon="166.4460734836757183074951171875">
        <ele>656.5999755859375</ele>
        <time>2016-08-12T18:38:20.000Z</time>
        <extensions>
          <ns3:TrackPointExtension>
            <ns3:atemp>16.0</ns3:atemp>
            <ns3:hr>136</ns3:hr>
          </ns3:TrackPointExtension>
        </extensions>
      </trkpt>
      <trkpt lat="-22.08757750689983367919921875" lon="166.4460588991641998291015625">
        <ele>656.79998779296875</ele>
        <time>2016-08-12T18:38:21.000Z</time>
        <extensions>
          <ns3:TrackPointExtension>
            <ns3:atemp>16.0</ns3:atemp>
            <ns3:hr>136</ns3:hr>
          </ns3:TrackPointExtension>
        </extensions>
      </trkpt>
      <trkpt lat="-22.0875645987689495086669921875" lon="166.44604741595685482025146484375">
        <ele>657</ele>
        <time>2016-08-12T18:38:22.000Z</time>
        <extensions>
          <ns3:TrackPointExtension>
            <ns3:atemp>16.0</ns3:atemp>
            <ns3:hr>136</ns3:hr>
          </ns3:TrackPointExtension>
        </extensions>
      </trkpt>
      <trkpt lat="-22.08754875697195529937744140625" lon="166.446037106215953826904296875">
        <ele>657.4000244140625</ele>
        <time>2016-08-12T18:38:23.000Z</time>
        <extensions>
          <ns3:TrackPointExtension>
            <ns3:atemp>16.0</ns3:atemp>
            <ns3:hr>136</ns3:hr>
          </ns3:TrackPointExtension>
        </extensions>
      </trkpt>
      <trkpt lat="-22.0875334180891513824462890625" lon="166.4460272155702114105224609375">
        <ele>657.4000244140625</ele>
        <time>2016-08-12T18:38:24.000Z</time>
        <extensions>
          <ns3:TrackPointExtension>
            <ns3:atemp>16.0</ns3:atemp>
            <ns3:hr>135</ns3:hr>
          </ns3:TrackPointExtension>
        </extensions>
      </trkpt>
      <trkpt lat="-22.087483964860439300537109375" lon="166.44599729217588901519775390625">
        <ele>657.4000244140625</ele>
        <time>2016-08-12T18:38:27.000Z</time>
        <extensions>
          <ns3:TrackPointExtension>
            <ns3:atemp>16.0</ns3:atemp>
            <ns3:hr>136</ns3:hr>
          </ns3:TrackPointExtension>
        </extensions>
      </trkpt>
      <trkpt lat="-22.087467871606349945068359375" lon="166.44598589278757572174072265625">
        <ele>657.5999755859375</ele>
        <time>2016-08-12T18:38:28.000Z</time>
        <extensions>
          <ns3:TrackPointExtension>
            <ns3:atemp>16.0</ns3:atemp>
            <ns3:hr>136</ns3:hr>
          </ns3:TrackPointExtension>
        </extensions>
      </trkpt>
      <trkpt lat="-22.08745119161903858184814453125" lon="166.44597373902797698974609375">
        <ele>657.79998779296875</ele>
        <time>2016-08-12T18:38:29.000Z</time>
        <extensions>
          <ns3:TrackPointExtension>
            <ns3:atemp>16.0</ns3:atemp>
            <ns3:hr>136</ns3:hr>
          </ns3:TrackPointExtension>
        </extensions>
      </trkpt>
      <trkpt lat="-22.087438367307186126708984375" lon="166.44596024416387081146240234375">
        <ele>658</ele>
        <time>2016-08-12T18:38:30.000Z</time>
        <extensions>
          <ns3:TrackPointExtension>
            <ns3:atemp>16.0</ns3:atemp>
            <ns3:hr>136</ns3:hr>
          </ns3:TrackPointExtension>
        </extensions>
      </trkpt>
      <trkpt lat="-22.0874237827956676483154296875" lon="166.445943899452686309814453125">
        <ele>658.20001220703125</ele>
        <time>2016-08-12T18:38:31.000Z</time>
        <extensions>
          <ns3:TrackPointExtension>
            <ns3:atemp>16.0</ns3:atemp>
            <ns3:hr>135</ns3:hr>
          </ns3:TrackPointExtension>
        </extensions>
      </trkpt>
      <trkpt lat="-22.08740693517029285430908203125" lon="166.4459286443889141082763671875">
        <ele>658.4000244140625</ele>
        <time>2016-08-12T18:38:32.000Z</time>
        <extensions>
          <ns3:TrackPointExtension>
            <ns3:atemp>16.0</ns3:atemp>
            <ns3:hr>136</ns3:hr>
          </ns3:TrackPointExtension>
        </extensions>
      </trkpt>
      <trkpt lat="-22.08739017136394977569580078125" lon="166.4459175802767276763916015625">
        <ele>658.79998779296875</ele>
        <time>2016-08-12T18:38:33.000Z</time>
        <extensions>
          <ns3:TrackPointExtension>
            <ns3:atemp>16.0</ns3:atemp>
            <ns3:hr>135</ns3:hr>
          </ns3:TrackPointExtension>
        </extensions>
      </trkpt>
      <trkpt lat="-22.08737022243440151214599609375" lon="166.44590425305068492889404296875">
        <ele>659</ele>
        <time>2016-08-12T18:38:34.000Z</time>
        <extensions>
          <ns3:TrackPointExtension>
            <ns3:atemp>16.0</ns3:atemp>
            <ns3:hr>135</ns3:hr>
          </ns3:TrackPointExtension>
        </extensions>
      </trkpt>
      <trkpt lat="-22.08735027350485324859619140625" lon="166.44589000381529331207275390625">
        <ele>658.79998779296875</ele>
        <time>2016-08-12T18:38:35.000Z</time>
        <extensions>
          <ns3:TrackPointExtension>
            <ns3:atemp>16.0</ns3:atemp>
            <ns3:hr>135</ns3:hr>
          </ns3:TrackPointExtension>
        </extensions>
      </trkpt>
      <trkpt lat="-22.08733032457530498504638671875" lon="166.445880196988582611083984375">
        <ele>658.79998779296875</ele>
        <time>2016-08-12T18:38:36.000Z</time>
        <extensions>
          <ns3:TrackPointExtension>
            <ns3:atemp>16.0</ns3:atemp>
            <ns3:hr>135</ns3:hr>
          </ns3:TrackPointExtension>
        </extensions>
      </trkpt>
      <trkpt lat="-22.08731255494058132171630859375" lon="166.4458676241338253021240234375">
        <ele>659</ele>
        <time>2016-08-12T18:38:37.000Z</time>
        <extensions>
          <ns3:TrackPointExtension>
            <ns3:atemp>16.0</ns3:atemp>
            <ns3:hr>135</ns3:hr>
          </ns3:TrackPointExtension>
        </extensions>
      </trkpt>
      <trkpt lat="-22.08729445002973079681396484375" lon="166.44585580565035343170166015625">
        <ele>659.20001220703125</ele>
        <time>2016-08-12T18:38:38.000Z</time>
        <extensions>
          <ns3:TrackPointExtension>
            <ns3:atemp>16.0</ns3:atemp>
            <ns3:hr>135</ns3:hr>
          </ns3:TrackPointExtension>
        </extensions>
      </trkpt>
      <trkpt lat="-22.08728003315627574920654296875" lon="166.445846669375896453857421875">
        <ele>659.4000244140625</ele>
        <time>2016-08-12T18:38:39.000Z</time>
        <extensions>
          <ns3:TrackPointExtension>
            <ns3:atemp>16.0</ns3:atemp>
            <ns3:hr>135</ns3:hr>
          </ns3:TrackPointExtension>
        </extensions>
      </trkpt>
      <trkpt lat="-22.087262682616710662841796875" lon="166.44584096968173980712890625">
        <ele>659.79998779296875</ele>
        <time>2016-08-12T18:38:40.000Z</time>
        <extensions>
          <ns3:TrackPointExtension>
            <ns3:atemp>16.0</ns3:atemp>
            <ns3:hr>135</ns3:hr>
          </ns3:TrackPointExtension>
        </extensions>
      </trkpt>
      <trkpt lat="-22.087245248258113861083984375" lon="166.445829905569553375244140625">
        <ele>660.20001220703125</ele>
        <time>2016-08-12T18:38:41.000Z</time>
        <extensions>
          <ns3:TrackPointExtension>
            <ns3:atemp>16.0</ns3:atemp>
            <ns3:hr>135</ns3:hr>
          </ns3:TrackPointExtension>
        </extensions>
      </trkpt>
      <trkpt lat="-22.08722990937530994415283203125" lon="166.44582328386604785919189453125">
        <ele>660.20001220703125</ele>
        <time>2016-08-12T18:38:42.000Z</time>
        <extensions>
          <ns3:TrackPointExtension>
            <ns3:atemp>16.0</ns3:atemp>
            <ns3:hr>135</ns3:hr>
          </ns3:TrackPointExtension>
        </extensions>
      </trkpt>
      <trkpt lat="-22.08721364848315715789794921875" lon="166.4458146505057811737060546875">
        <ele>660.4000244140625</ele>
        <time>2016-08-12T18:38:43.000Z</time>
        <extensions>
          <ns3:TrackPointExtension>
            <ns3:atemp>16.0</ns3:atemp>
            <ns3:hr>134</ns3:hr>
          </ns3:TrackPointExtension>
        </extensions>
      </trkpt>
      <trkpt lat="-22.08719260990619659423828125" lon="166.44580450840294361114501953125">
        <ele>660.5999755859375</ele>
        <time>2016-08-12T18:38:44.000Z</time>
        <extensions>
          <ns3:TrackPointExtension>
            <ns3:atemp>16.0</ns3:atemp>
            <ns3:hr>135</ns3:hr>
          </ns3:TrackPointExtension>
        </extensions>
      </trkpt>
      <trkpt lat="-22.08717475645244121551513671875" lon="166.4457995630800724029541015625">
        <ele>660.79998779296875</ele>
        <time>2016-08-12T18:38:45.000Z</time>
        <extensions>
          <ns3:TrackPointExtension>
            <ns3:atemp>16.0</ns3:atemp>
            <ns3:hr>135</ns3:hr>
          </ns3:TrackPointExtension>
        </extensions>
      </trkpt>
      <trkpt lat="-22.08715681917965412139892578125" lon="166.44579193554818630218505859375">
        <ele>661</ele>
        <time>2016-08-12T18:38:46.000Z</time>
        <extensions>
          <ns3:TrackPointExtension>
            <ns3:atemp>16.0</ns3:atemp>
            <ns3:hr>135</ns3:hr>
          </ns3:TrackPointExtension>
        </extensions>
      </trkpt>
      <trkpt lat="-22.087139301002025604248046875" lon="166.44578388892114162445068359375">
        <ele>661</ele>
        <time>2016-08-12T18:38:47.000Z</time>
        <extensions>
          <ns3:TrackPointExtension>
            <ns3:atemp>16.0</ns3:atemp>
            <ns3:hr>135</ns3:hr>
          </ns3:TrackPointExtension>
        </extensions>
      </trkpt>
      <trkpt lat="-22.08712362684309482574462890625" lon="166.44577500410377979278564453125">
        <ele>661.20001220703125</ele>
        <time>2016-08-12T18:38:48.000Z</time>
        <extensions>
          <ns3:TrackPointExtension>
            <ns3:atemp>16.0</ns3:atemp>
            <ns3:hr>135</ns3:hr>
          </ns3:TrackPointExtension>
        </extensions>
      </trkpt>
      <trkpt lat="-22.0871074497699737548828125" lon="166.445762850344181060791015625">
        <ele>661.4000244140625</ele>
        <time>2016-08-12T18:38:49.000Z</time>
        <extensions>
          <ns3:TrackPointExtension>
            <ns3:atemp>16.0</ns3:atemp>
            <ns3:hr>135</ns3:hr>
          </ns3:TrackPointExtension>
        </extensions>
      </trkpt>
      <trkpt lat="-22.0870858244597911834716796875" lon="166.4457543008029460906982421875">
        <ele>661.5999755859375</ele>
        <time>2016-08-12T18:38:50.000Z</time>
        <extensions>
          <ns3:TrackPointExtension>
            <ns3:atemp>16.0</ns3:atemp>
            <ns3:hr>135</ns3:hr>
          </ns3:TrackPointExtension>
        </extensions>
      </trkpt>
      <trkpt lat="-22.0870677195489406585693359375" lon="166.44574449397623538970947265625">
        <ele>662</ele>
        <time>2016-08-12T18:38:51.000Z</time>
        <extensions>
          <ns3:TrackPointExtension>
            <ns3:atemp>16.0</ns3:atemp>
            <ns3:hr>135</ns3:hr>
          </ns3:TrackPointExtension>
        </extensions>
      </trkpt>
      <trkpt lat="-22.08705439232289791107177734375" lon="166.44573560915887355804443359375">
        <ele>662</ele>
        <time>2016-08-12T18:38:52.000Z</time>
        <extensions>
          <ns3:TrackPointExtension>
            <ns3:atemp>16.0</ns3:atemp>
            <ns3:hr>135</ns3:hr>
          </ns3:TrackPointExtension>
        </extensions>
      </trkpt>
      <trkpt lat="-22.08703947253525257110595703125" lon="166.4457244612276554107666015625">
        <ele>662.4000244140625</ele>
        <time>2016-08-12T18:38:53.000Z</time>
        <extensions>
          <ns3:TrackPointExtension>
            <ns3:atemp>16.0</ns3:atemp>
            <ns3:hr>135</ns3:hr>
          </ns3:TrackPointExtension>
        </extensions>
      </trkpt>
      <trkpt lat="-22.08702824078500270843505859375" lon="166.44571364857256412506103515625">
        <ele>662.5999755859375</ele>
        <time>2016-08-12T18:38:54.000Z</time>
        <extensions>
          <ns3:TrackPointExtension>
            <ns3:atemp>16.0</ns3:atemp>
            <ns3:hr>135</ns3:hr>
          </ns3:TrackPointExtension>
        </extensions>
      </trkpt>
      <trkpt lat="-22.087014578282833099365234375" lon="166.4457033388316631317138671875">
        <ele>662.79998779296875</ele>
        <time>2016-08-12T18:38:55.000Z</time>
        <extensions>
          <ns3:TrackPointExtension>
            <ns3:atemp>16.0</ns3:atemp>
            <ns3:hr>136</ns3:hr>
          </ns3:TrackPointExtension>
        </extensions>
      </trkpt>
      <trkpt lat="-22.08700041286647319793701171875" lon="166.44569621421396732330322265625">
        <ele>663</ele>
        <time>2016-08-12T18:38:56.000Z</time>
        <extensions>
          <ns3:TrackPointExtension>
            <ns3:atemp>16.0</ns3:atemp>
            <ns3:hr>136</ns3:hr>
          </ns3:TrackPointExtension>
        </extensions>
      </trkpt>
      <trkpt lat="-22.08698985166847705841064453125" lon="166.445683725178241729736328125">
        <ele>663</ele>
        <time>2016-08-12T18:38:57.000Z</time>
        <extensions>
          <ns3:TrackPointExtension>
            <ns3:atemp>16.0</ns3:atemp>
            <ns3:hr>136</ns3:hr>
          </ns3:TrackPointExtension>
        </extensions>
      </trkpt>
      <trkpt lat="-22.086978368461132049560546875" lon="166.445670314133167266845703125">
        <ele>663</ele>
        <time>2016-08-12T18:38:58.000Z</time>
        <extensions>
          <ns3:TrackPointExtension>
            <ns3:atemp>16.0</ns3:atemp>
            <ns3:hr>137</ns3:hr>
          </ns3:TrackPointExtension>
        </extensions>
      </trkpt>
      <trkpt lat="-22.08696998655796051025390625" lon="166.44565698690712451934814453125">
        <ele>663.20001220703125</ele>
        <time>2016-08-12T18:38:59.000Z</time>
        <extensions>
          <ns3:TrackPointExtension>
            <ns3:atemp>16.0</ns3:atemp>
            <ns3:hr>137</ns3:hr>
          </ns3:TrackPointExtension>
        </extensions>
      </trkpt>
      <trkpt lat="-22.08696068264544010162353515625" lon="166.44564575515687465667724609375">
        <ele>663.4000244140625</ele>
        <time>2016-08-12T18:39:00.000Z</time>
        <extensions>
          <ns3:TrackPointExtension>
            <ns3:atemp>16.0</ns3:atemp>
            <ns3:hr>137</ns3:hr>
          </ns3:TrackPointExtension>
        </extensions>
      </trkpt>
      <trkpt lat="-22.08695095963776111602783203125" lon="166.44563376903533935546875">
        <ele>663.4000244140625</ele>
        <time>2016-08-12T18:39:01.000Z</time>
        <extensions>
          <ns3:TrackPointExtension>
            <ns3:atemp>16.0</ns3:atemp>
            <ns3:hr>137</ns3:hr>
          </ns3:TrackPointExtension>
        </extensions>
      </trkpt>
      <trkpt lat="-22.0869423262774944305419921875" lon="166.44561407156288623809814453125">
        <ele>663.4000244140625</ele>
        <time>2016-08-12T18:39:02.000Z</time>
        <extensions>
          <ns3:TrackPointExtension>
            <ns3:atemp>16.0</ns3:atemp>
            <ns3:hr>138</ns3:hr>
          </ns3:TrackPointExtension>
        </extensions>
      </trkpt>
      <trkpt lat="-22.0869332738220691680908203125" lon="166.44559881649911403656005859375">
        <ele>663.79998779296875</ele>
        <time>2016-08-12T18:39:03.000Z</time>
        <extensions>
          <ns3:TrackPointExtension>
            <ns3:atemp>16.0</ns3:atemp>
            <ns3:hr>138</ns3:hr>
          </ns3:TrackPointExtension>
        </extensions>
      </trkpt>
      <trkpt lat="-22.08692715503275394439697265625" lon="166.44558540545403957366943359375">
        <ele>664</ele>
        <time>2016-08-12T18:39:04.000Z</time>
        <extensions>
          <ns3:TrackPointExtension>
            <ns3:atemp>16.0</ns3:atemp>
            <ns3:hr>138</ns3:hr>
          </ns3:TrackPointExtension>
        </extensions>
      </trkpt>
      <trkpt lat="-22.0869195275008678436279296875" lon="166.44557048566639423370361328125">
        <ele>664</ele>
        <time>2016-08-12T18:39:05.000Z</time>
        <extensions>
          <ns3:TrackPointExtension>
            <ns3:atemp>16.0</ns3:atemp>
            <ns3:hr>139</ns3:hr>
          </ns3:TrackPointExtension>
        </extensions>
      </trkpt>
      <trkpt lat="-22.0869114808738231658935546875" lon="166.4455561526119709014892578125">
        <ele>664.20001220703125</ele>
        <time>2016-08-12T18:39:06.000Z</time>
        <extensions>
          <ns3:TrackPointExtension>
            <ns3:atemp>16.0</ns3:atemp>
            <ns3:hr>138</ns3:hr>
          </ns3:TrackPointExtension>
        </extensions>
      </trkpt>
      <trkpt lat="-22.0868997462093830108642578125" lon="166.4455410651862621307373046875">
        <ele>664.20001220703125</ele>
        <time>2016-08-12T18:39:07.000Z</time>
        <extensions>
          <ns3:TrackPointExtension>
            <ns3:atemp>16.0</ns3:atemp>
            <ns3:hr>138</ns3:hr>
          </ns3:TrackPointExtension>
        </extensions>
      </trkpt>
      <trkpt lat="-22.08688725717365741729736328125" lon="166.44552388228476047515869140625">
        <ele>664.4000244140625</ele>
        <time>2016-08-12T18:39:08.000Z</time>
        <extensions>
          <ns3:TrackPointExtension>
            <ns3:atemp>16.0</ns3:atemp>
            <ns3:hr>139</ns3:hr>
          </ns3:TrackPointExtension>
        </extensions>
      </trkpt>
      <trkpt lat="-22.0868735946714878082275390625" lon="166.445507369935512542724609375">
        <ele>664.5999755859375</ele>
        <time>2016-08-12T18:39:09.000Z</time>
        <extensions>
          <ns3:TrackPointExtension>
            <ns3:atemp>16.0</ns3:atemp>
            <ns3:hr>139</ns3:hr>
          </ns3:TrackPointExtension>
        </extensions>
      </trkpt>
      <trkpt lat="-22.0868638716638088226318359375" lon="166.44549387507140636444091796875">
        <ele>664.79998779296875</ele>
        <time>2016-08-12T18:39:10.000Z</time>
        <extensions>
          <ns3:TrackPointExtension>
            <ns3:atemp>16.0</ns3:atemp>
            <ns3:hr>138</ns3:hr>
          </ns3:TrackPointExtension>
        </extensions>
      </trkpt>
      <trkpt lat="-22.086854316294193267822265625" lon="166.4454753510653972625732421875">
        <ele>665</ele>
        <time>2016-08-12T18:39:11.000Z</time>
        <extensions>
          <ns3:TrackPointExtension>
            <ns3:atemp>16.0</ns3:atemp>
            <ns3:hr>139</ns3:hr>
          </ns3:TrackPointExtension>
        </extensions>
      </trkpt>
      <trkpt lat="-22.0868419110774993896484375" lon="166.4454567432403564453125">
        <ele>665</ele>
        <time>2016-08-12T18:39:12.000Z</time>
        <extensions>
          <ns3:TrackPointExtension>
            <ns3:atemp>16.0</ns3:atemp>
            <ns3:hr>139</ns3:hr>
          </ns3:TrackPointExtension>
        </extensions>
      </trkpt>
      <trkpt lat="-22.086830846965312957763671875" lon="166.4454446732997894287109375">
        <ele>665.20001220703125</ele>
        <time>2016-08-12T18:39:13.000Z</time>
        <extensions>
          <ns3:TrackPointExtension>
            <ns3:atemp>16.0</ns3:atemp>
            <ns3:hr>138</ns3:hr>
          </ns3:TrackPointExtension>
        </extensions>
      </trkpt>
      <trkpt lat="-22.08681751973927021026611328125" lon="166.44543595612049102783203125">
        <ele>665.4000244140625</ele>
        <time>2016-08-12T18:39:14.000Z</time>
        <extensions>
          <ns3:TrackPointExtension>
            <ns3:atemp>16.0</ns3:atemp>
            <ns3:hr>138</ns3:hr>
          </ns3:TrackPointExtension>
        </extensions>
      </trkpt>
      <trkpt lat="-22.0868043601512908935546875" lon="166.44542262889444828033447265625">
        <ele>665.4000244140625</ele>
        <time>2016-08-12T18:39:15.000Z</time>
        <extensions>
          <ns3:TrackPointExtension>
            <ns3:atemp>16.0</ns3:atemp>
            <ns3:hr>138</ns3:hr>
          </ns3:TrackPointExtension>
        </extensions>
      </trkpt>
      <trkpt lat="-22.08678969182074069976806640625" lon="166.445414163172245025634765625">
        <ele>665.79998779296875</ele>
        <time>2016-08-12T18:39:16.000Z</time>
        <extensions>
          <ns3:TrackPointExtension>
            <ns3:atemp>16.0</ns3:atemp>
            <ns3:hr>138</ns3:hr>
          </ns3:TrackPointExtension>
        </extensions>
      </trkpt>
      <trkpt lat="-22.0867686532437801361083984375" lon="166.44540955312550067901611328125">
        <ele>665.79998779296875</ele>
        <time>2016-08-12T18:39:17.000Z</time>
        <extensions>
          <ns3:TrackPointExtension>
            <ns3:atemp>16.0</ns3:atemp>
            <ns3:hr>138</ns3:hr>
          </ns3:TrackPointExtension>
        </extensions>
      </trkpt>
      <trkpt lat="-22.0867508836090564727783203125" lon="166.44540905021131038665771484375">
        <ele>666</ele>
        <time>2016-08-12T18:39:18.000Z</time>
        <extensions>
          <ns3:TrackPointExtension>
            <ns3:atemp>16.0</ns3:atemp>
            <ns3:hr>138</ns3:hr>
          </ns3:TrackPointExtension>
        </extensions>
      </trkpt>
      <trkpt lat="-22.0867388136684894561767578125" lon="166.4454086311161518096923828125">
        <ele>666</ele>
        <time>2016-08-12T18:39:19.000Z</time>
        <extensions>
          <ns3:TrackPointExtension>
            <ns3:atemp>16.0</ns3:atemp>
            <ns3:hr>138</ns3:hr>
          </ns3:TrackPointExtension>
        </extensions>
      </trkpt>
      <trkpt lat="-22.08672364242374897003173828125" lon="166.44541986286640167236328125">
        <ele>666.4000244140625</ele>
        <time>2016-08-12T18:39:20.000Z</time>
        <extensions>
          <ns3:TrackPointExtension>
            <ns3:atemp>17.0</ns3:atemp>
            <ns3:hr>138</ns3:hr>
          </ns3:TrackPointExtension>
        </extensions>
      </trkpt>
      <trkpt lat="-22.08670201711356639862060546875" lon="166.4454337768256664276123046875">
        <ele>666.4000244140625</ele>
        <time>2016-08-12T18:39:21.000Z</time>
        <extensions>
          <ns3:TrackPointExtension>
            <ns3:atemp>17.0</ns3:atemp>
            <ns3:hr>138</ns3:hr>
          </ns3:TrackPointExtension>
        </extensions>
      </trkpt>
      <trkpt lat="-22.0866777934134006500244140625" lon="166.445445008575916290283203125">
        <ele>666.4000244140625</ele>
        <time>2016-08-12T18:39:22.000Z</time>
        <extensions>
          <ns3:TrackPointExtension>
            <ns3:atemp>17.0</ns3:atemp>
            <ns3:hr>138</ns3:hr>
          </ns3:TrackPointExtension>
        </extensions>
      </trkpt>
      <trkpt lat="-22.08665273152291774749755859375" lon="166.44545615650713443756103515625">
        <ele>666.79998779296875</ele>
        <time>2016-08-12T18:39:23.000Z</time>
        <extensions>
          <ns3:TrackPointExtension>
            <ns3:atemp>17.0</ns3:atemp>
            <ns3:hr>137</ns3:hr>
          </ns3:TrackPointExtension>
        </extensions>
      </trkpt>
      <trkpt lat="-22.08662666380405426025390625" lon="166.4454634487628936767578125">
        <ele>667</ele>
        <time>2016-08-12T18:39:24.000Z</time>
        <extensions>
          <ns3:TrackPointExtension>
            <ns3:atemp>17.0</ns3:atemp>
            <ns3:hr>138</ns3:hr>
          </ns3:TrackPointExtension>
        </extensions>
      </trkpt>
      <trkpt lat="-22.08660461939871311187744140625" lon="166.445461772382259368896484375">
        <ele>667</ele>
        <time>2016-08-12T18:39:25.000Z</time>
        <extensions>
          <ns3:TrackPointExtension>
            <ns3:atemp>17.0</ns3:atemp>
            <ns3:hr>138</ns3:hr>
          </ns3:TrackPointExtension>
        </extensions>
      </trkpt>
      <trkpt lat="-22.08658601157367229461669921875" lon="166.44545917399227619171142578125">
        <ele>667.20001220703125</ele>
        <time>2016-08-12T18:39:26.000Z</time>
        <extensions>
          <ns3:TrackPointExtension>
            <ns3:atemp>17.0</ns3:atemp>
            <ns3:hr>138</ns3:hr>
          </ns3:TrackPointExtension>
        </extensions>
      </trkpt>
      <trkpt lat="-22.086572013795375823974609375" lon="166.44545297138392925262451171875">
        <ele>667.4000244140625</ele>
        <time>2016-08-12T18:39:27.000Z</time>
        <extensions>
          <ns3:TrackPointExtension>
            <ns3:atemp>17.0</ns3:atemp>
            <ns3:hr>138</ns3:hr>
          </ns3:TrackPointExtension>
        </extensions>
      </trkpt>
      <trkpt lat="-22.08655986003577709197998046875" lon="166.44545112736523151397705078125">
        <ele>667.20001220703125</ele>
        <time>2016-08-12T18:39:28.000Z</time>
        <extensions>
          <ns3:TrackPointExtension>
            <ns3:atemp>17.0</ns3:atemp>
            <ns3:hr>138</ns3:hr>
          </ns3:TrackPointExtension>
        </extensions>
      </trkpt>
      <trkpt lat="-22.08654619753360748291015625" lon="166.44544324837625026702880859375">
        <ele>667.4000244140625</ele>
        <time>2016-08-12T18:39:29.000Z</time>
        <extensions>
          <ns3:TrackPointExtension>
            <ns3:atemp>17.0</ns3:atemp>
            <ns3:hr>139</ns3:hr>
          </ns3:TrackPointExtension>
        </extensions>
      </trkpt>
      <trkpt lat="-22.0865332894027233123779296875" lon="166.4454312622547149658203125">
        <ele>667.5999755859375</ele>
        <time>2016-08-12T18:39:30.000Z</time>
        <extensions>
          <ns3:TrackPointExtension>
            <ns3:atemp>17.0</ns3:atemp>
            <ns3:hr>139</ns3:hr>
          </ns3:TrackPointExtension>
        </extensions>
      </trkpt>
      <trkpt lat="-22.0865249074995517730712890625" lon="166.44542782567441463470458984375">
        <ele>667.5999755859375</ele>
        <time>2016-08-12T18:39:31.000Z</time>
        <extensions>
          <ns3:TrackPointExtension>
            <ns3:atemp>17.0</ns3:atemp>
            <ns3:hr>139</ns3:hr>
          </ns3:TrackPointExtension>
        </extensions>
      </trkpt>
      <trkpt lat="-22.08651007153093814849853515625" lon="166.44541776739060878753662109375">
        <ele>667.79998779296875</ele>
        <time>2016-08-12T18:39:32.000Z</time>
        <extensions>
          <ns3:TrackPointExtension>
            <ns3:atemp>17.0</ns3:atemp>
            <ns3:hr>139</ns3:hr>
          </ns3:TrackPointExtension>
        </extensions>
      </trkpt>
      <trkpt lat="-22.0864932239055633544921875" lon="166.44541039131581783294677734375">
        <ele>668</ele>
        <time>2016-08-12T18:39:33.000Z</time>
        <extensions>
          <ns3:TrackPointExtension>
            <ns3:atemp>17.0</ns3:atemp>
            <ns3:hr>139</ns3:hr>
          </ns3:TrackPointExtension>
        </extensions>
      </trkpt>
      <trkpt lat="-22.0864776335656642913818359375" lon="166.4454079605638980865478515625">
        <ele>668.20001220703125</ele>
        <time>2016-08-12T18:39:34.000Z</time>
        <extensions>
          <ns3:TrackPointExtension>
            <ns3:atemp>17.0</ns3:atemp>
            <ns3:hr>139</ns3:hr>
          </ns3:TrackPointExtension>
        </extensions>
      </trkpt>
      <trkpt lat="-22.08645810373127460479736328125" lon="166.4453999139368534088134765625">
        <ele>668.4000244140625</ele>
        <time>2016-08-12T18:39:35.000Z</time>
        <extensions>
          <ns3:TrackPointExtension>
            <ns3:atemp>17.0</ns3:atemp>
            <ns3:hr>140</ns3:hr>
          </ns3:TrackPointExtension>
        </extensions>
      </trkpt>
      <trkpt lat="-22.0864395797252655029296875" lon="166.44539010711014270782470703125">
        <ele>668.79998779296875</ele>
        <time>2016-08-12T18:39:36.000Z</time>
        <extensions>
          <ns3:TrackPointExtension>
            <ns3:atemp>17.0</ns3:atemp>
            <ns3:hr>139</ns3:hr>
          </ns3:TrackPointExtension>
        </extensions>
      </trkpt>
      <trkpt lat="-22.08642088808119297027587890625" lon="166.44538591615855693817138671875">
        <ele>669</ele>
        <time>2016-08-12T18:39:37.000Z</time>
        <extensions>
          <ns3:TrackPointExtension>
            <ns3:atemp>17.0</ns3:atemp>
            <ns3:hr>140</ns3:hr>
          </ns3:TrackPointExtension>
        </extensions>
      </trkpt>
      <trkpt lat="-22.0864047110080718994140625" lon="166.4453749358654022216796875">
        <ele>669.20001220703125</ele>
        <time>2016-08-12T18:39:38.000Z</time>
        <extensions>
          <ns3:TrackPointExtension>
            <ns3:atemp>17.0</ns3:atemp>
            <ns3:hr>140</ns3:hr>
          </ns3:TrackPointExtension>
        </extensions>
      </trkpt>
      <trkpt lat="-22.08639205433428287506103515625" lon="166.44536412321031093597412109375">
        <ele>669.5999755859375</ele>
        <time>2016-08-12T18:39:39.000Z</time>
        <extensions>
          <ns3:TrackPointExtension>
            <ns3:atemp>17.0</ns3:atemp>
            <ns3:hr>140</ns3:hr>
          </ns3:TrackPointExtension>
        </extensions>
      </trkpt>
      <trkpt lat="-22.08638115786015987396240234375" lon="166.44534836523234844207763671875">
        <ele>669.5999755859375</ele>
        <time>2016-08-12T18:39:40.000Z</time>
        <extensions>
          <ns3:TrackPointExtension>
            <ns3:atemp>17.0</ns3:atemp>
            <ns3:hr>140</ns3:hr>
          </ns3:TrackPointExtension>
        </extensions>
      </trkpt>
      <trkpt lat="-22.08637160249054431915283203125" lon="166.44532757811248302459716796875">
        <ele>669.79998779296875</ele>
        <time>2016-08-12T18:39:41.000Z</time>
        <extensions>
          <ns3:TrackPointExtension>
            <ns3:atemp>17.0</ns3:atemp>
            <ns3:hr>140</ns3:hr>
          </ns3:TrackPointExtension>
        </extensions>
      </trkpt>
      <trkpt lat="-22.0863690041005611419677734375" lon="166.44530184566974639892578125">
        <ele>670.20001220703125</ele>
        <time>2016-08-12T18:39:42.000Z</time>
        <extensions>
          <ns3:TrackPointExtension>
            <ns3:atemp>17.0</ns3:atemp>
            <ns3:hr>140</ns3:hr>
          </ns3:TrackPointExtension>
        </extensions>
      </trkpt>
      <trkpt lat="-22.08636238239705562591552734375" lon="166.4452815614640712738037109375">
        <ele>670.4000244140625</ele>
        <time>2016-08-12T18:39:43.000Z</time>
        <extensions>
          <ns3:TrackPointExtension>
            <ns3:atemp>17.0</ns3:atemp>
            <ns3:hr>140</ns3:hr>
          </ns3:TrackPointExtension>
        </extensions>
      </trkpt>
      <trkpt lat="-22.08635131828486919403076171875" lon="166.44526639021933078765869140625">
        <ele>670.4000244140625</ele>
        <time>2016-08-12T18:39:44.000Z</time>
        <extensions>
          <ns3:TrackPointExtension>
            <ns3:atemp>17.0</ns3:atemp>
            <ns3:hr>140</ns3:hr>
          </ns3:TrackPointExtension>
        </extensions>
      </trkpt>
      <trkpt lat="-22.0863462053239345550537109375" lon="166.4452461898326873779296875">
        <ele>670.5999755859375</ele>
        <time>2016-08-12T18:39:45.000Z</time>
        <extensions>
          <ns3:TrackPointExtension>
            <ns3:atemp>17.0</ns3:atemp>
            <ns3:hr>140</ns3:hr>
          </ns3:TrackPointExtension>
        </extensions>
      </trkpt>
      <trkpt lat="-22.08633656613528728485107421875" lon="166.44523671828210353851318359375">
        <ele>670.79998779296875</ele>
        <time>2016-08-12T18:39:46.000Z</time>
        <extensions>
          <ns3:TrackPointExtension>
            <ns3:atemp>17.0</ns3:atemp>
            <ns3:hr>141</ns3:hr>
          </ns3:TrackPointExtension>
        </extensions>
      </trkpt>
      <trkpt lat="-22.08632365800440311431884765625" lon="166.44522213377058506011962890625">
        <ele>671</ele>
        <time>2016-08-12T18:39:47.000Z</time>
        <extensions>
          <ns3:TrackPointExtension>
            <ns3:atemp>17.0</ns3:atemp>
            <ns3:hr>141</ns3:hr>
          </ns3:TrackPointExtension>
        </extensions>
      </trkpt>
      <trkpt lat="-22.086301781237125396728515625" lon="166.44521006383001804351806640625">
        <ele>671</ele>
        <time>2016-08-12T18:39:48.000Z</time>
        <extensions>
          <ns3:TrackPointExtension>
            <ns3:atemp>17.0</ns3:atemp>
            <ns3:hr>141</ns3:hr>
          </ns3:TrackPointExtension>
        </extensions>
      </trkpt>
      <trkpt lat="-22.0862861908972263336181640625" lon="166.4452094770967960357666015625">
        <ele>671.20001220703125</ele>
        <time>2016-08-12T18:39:49.000Z</time>
        <extensions>
          <ns3:TrackPointExtension>
            <ns3:atemp>17.0</ns3:atemp>
            <ns3:hr>141</ns3:hr>
          </ns3:TrackPointExtension>
        </extensions>
      </trkpt>
      <trkpt lat="-22.086274623870849609375" lon="166.445209980010986328125">
        <ele>671.4000244140625</ele>
        <time>2016-08-12T18:39:50.000Z</time>
        <extensions>
          <ns3:TrackPointExtension>
            <ns3:atemp>17.0</ns3:atemp>
            <ns3:hr>142</ns3:hr>
          </ns3:TrackPointExtension>
        </extensions>
      </trkpt>
      <trkpt lat="-22.08626012317836284637451171875" lon="166.44520620815455913543701171875">
        <ele>671.4000244140625</ele>
        <time>2016-08-12T18:39:51.000Z</time>
        <extensions>
          <ns3:TrackPointExtension>
            <ns3:atemp>17.0</ns3:atemp>
            <ns3:hr>142</ns3:hr>
          </ns3:TrackPointExtension>
        </extensions>
      </trkpt>
      <trkpt lat="-22.0862410962581634521484375" lon="166.44520260393619537353515625">
        <ele>671.5999755859375</ele>
        <time>2016-08-12T18:39:52.000Z</time>
        <extensions>
          <ns3:TrackPointExtension>
            <ns3:atemp>17.0</ns3:atemp>
            <ns3:hr>142</ns3:hr>
          </ns3:TrackPointExtension>
        </extensions>
      </trkpt>
      <trkpt lat="-22.08622299134731292724609375" lon="166.44519866444170475006103515625">
        <ele>671.79998779296875</ele>
        <time>2016-08-12T18:39:53.000Z</time>
        <extensions>
          <ns3:TrackPointExtension>
            <ns3:atemp>17.0</ns3:atemp>
            <ns3:hr>141</ns3:hr>
          </ns3:TrackPointExtension>
        </extensions>
      </trkpt>
      <trkpt lat="-22.08620295859873294830322265625" lon="166.445197574794292449951171875">
        <ele>671.79998779296875</ele>
        <time>2016-08-12T18:39:54.000Z</time>
        <extensions>
          <ns3:TrackPointExtension>
            <ns3:atemp>17.0</ns3:atemp>
            <ns3:hr>142</ns3:hr>
          </ns3:TrackPointExtension>
        </extensions>
      </trkpt>
      <trkpt lat="-22.08618485368788242340087890625" lon="166.44519698806107044219970703125">
        <ele>672</ele>
        <time>2016-08-12T18:39:55.000Z</time>
        <extensions>
          <ns3:TrackPointExtension>
            <ns3:atemp>17.0</ns3:atemp>
            <ns3:hr>142</ns3:hr>
          </ns3:TrackPointExtension>
        </extensions>
      </trkpt>
      <trkpt lat="-22.08616725169122219085693359375" lon="166.4452027715742588043212890625">
        <ele>672.20001220703125</ele>
        <time>2016-08-12T18:39:56.000Z</time>
        <extensions>
          <ns3:TrackPointExtension>
            <ns3:atemp>17.0</ns3:atemp>
            <ns3:hr>141</ns3:hr>
          </ns3:TrackPointExtension>
        </extensions>
      </trkpt>
      <trkpt lat="-22.08614545874297618865966796875" lon="166.44520453177392482757568359375">
        <ele>672.20001220703125</ele>
        <time>2016-08-12T18:39:57.000Z</time>
        <extensions>
          <ns3:TrackPointExtension>
            <ns3:atemp>17.0</ns3:atemp>
            <ns3:hr>142</ns3:hr>
          </ns3:TrackPointExtension>
        </extensions>
      </trkpt>
      <trkpt lat="-22.08612785674631595611572265625" lon="166.44520386122167110443115234375">
        <ele>672.5999755859375</ele>
        <time>2016-08-12T18:39:58.000Z</time>
        <extensions>
          <ns3:TrackPointExtension>
            <ns3:atemp>17.0</ns3:atemp>
            <ns3:hr>142</ns3:hr>
          </ns3:TrackPointExtension>
        </extensions>
      </trkpt>
      <trkpt lat="-22.08611033856868743896484375" lon="166.44521090202033519744873046875">
        <ele>672.5999755859375</ele>
        <time>2016-08-12T18:39:59.000Z</time>
        <extensions>
          <ns3:TrackPointExtension>
            <ns3:atemp>17.0</ns3:atemp>
            <ns3:hr>141</ns3:hr>
          </ns3:TrackPointExtension>
        </extensions>
      </trkpt>
      <trkpt lat="-22.0860897190868854522705078125" lon="166.44521190784871578216552734375">
        <ele>672.5999755859375</ele>
        <time>2016-08-12T18:40:00.000Z</time>
        <extensions>
          <ns3:TrackPointExtension>
            <ns3:atemp>17.0</ns3:atemp>
            <ns3:hr>141</ns3:hr>
          </ns3:TrackPointExtension>
        </extensions>
      </trkpt>
      <trkpt lat="-22.08607153035700321197509765625" lon="166.44521291367709636688232421875">
        <ele>672.79998779296875</ele>
        <time>2016-08-12T18:40:01.000Z</time>
        <extensions>
          <ns3:TrackPointExtension>
            <ns3:atemp>17.0</ns3:atemp>
            <ns3:hr>142</ns3:hr>
          </ns3:TrackPointExtension>
        </extensions>
      </trkpt>
      <trkpt lat="-22.0860493183135986328125" lon="166.44521542824804782867431640625">
        <ele>672.79998779296875</ele>
        <time>2016-08-12T18:40:02.000Z</time>
        <extensions>
          <ns3:TrackPointExtension>
            <ns3:atemp>17.0</ns3:atemp>
            <ns3:hr>142</ns3:hr>
          </ns3:TrackPointExtension>
        </extensions>
      </trkpt>
      <trkpt lat="-22.086026854813098907470703125" lon="166.44521660171449184417724609375">
        <ele>673</ele>
        <time>2016-08-12T18:40:03.000Z</time>
        <extensions>
          <ns3:TrackPointExtension>
            <ns3:atemp>17.0</ns3:atemp>
            <ns3:hr>142</ns3:hr>
          </ns3:TrackPointExtension>
        </extensions>
      </trkpt>
      <trkpt lat="-22.0860032178461551666259765625" lon="166.4452071301639080047607421875">
        <ele>673.4000244140625</ele>
        <time>2016-08-12T18:40:04.000Z</time>
        <extensions>
          <ns3:TrackPointExtension>
            <ns3:atemp>17.0</ns3:atemp>
            <ns3:hr>142</ns3:hr>
          </ns3:TrackPointExtension>
        </extensions>
      </trkpt>
      <trkpt lat="-22.085982598364353179931640625" lon="166.4452027715742588043212890625">
        <ele>673.20001220703125</ele>
        <time>2016-08-12T18:40:05.000Z</time>
        <extensions>
          <ns3:TrackPointExtension>
            <ns3:atemp>17.0</ns3:atemp>
            <ns3:hr>142</ns3:hr>
          </ns3:TrackPointExtension>
        </extensions>
      </trkpt>
      <trkpt lat="-22.085960805416107177734375" lon="166.44520319066941738128662109375">
        <ele>673.4000244140625</ele>
        <time>2016-08-12T18:40:06.000Z</time>
        <extensions>
          <ns3:TrackPointExtension>
            <ns3:atemp>17.0</ns3:atemp>
            <ns3:hr>142</ns3:hr>
          </ns3:TrackPointExtension>
        </extensions>
      </trkpt>
      <trkpt lat="-22.0859378390014171600341796875" lon="166.44519916735589504241943359375">
        <ele>673.79998779296875</ele>
        <time>2016-08-12T18:40:07.000Z</time>
        <extensions>
          <ns3:TrackPointExtension>
            <ns3:atemp>17.0</ns3:atemp>
            <ns3:hr>142</ns3:hr>
          </ns3:TrackPointExtension>
        </extensions>
      </trkpt>
      <trkpt lat="-22.08591847680509090423583984375" lon="166.4451987482607364654541015625">
        <ele>674</ele>
        <time>2016-08-12T18:40:08.000Z</time>
        <extensions>
          <ns3:TrackPointExtension>
            <ns3:atemp>17.0</ns3:atemp>
            <ns3:hr>141</ns3:hr>
          </ns3:TrackPointExtension>
        </extensions>
      </trkpt>
      <trkpt lat="-22.0858962647616863250732421875" lon="166.44519447349011898040771484375">
        <ele>674</ele>
        <time>2016-08-12T18:40:09.000Z</time>
        <extensions>
          <ns3:TrackPointExtension>
            <ns3:atemp>17.0</ns3:atemp>
            <ns3:hr>141</ns3:hr>
          </ns3:TrackPointExtension>
        </extensions>
      </trkpt>
      <trkpt lat="-22.08587472327053546905517578125" lon="166.44519262947142124176025390625">
        <ele>674.4000244140625</ele>
        <time>2016-08-12T18:40:10.000Z</time>
        <extensions>
          <ns3:TrackPointExtension>
            <ns3:atemp>17.0</ns3:atemp>
            <ns3:hr>141</ns3:hr>
          </ns3:TrackPointExtension>
        </extensions>
      </trkpt>
      <trkpt lat="-22.08585142157971858978271484375" lon="166.44518441520631313323974609375">
        <ele>674.4000244140625</ele>
        <time>2016-08-12T18:40:11.000Z</time>
        <extensions>
          <ns3:TrackPointExtension>
            <ns3:atemp>17.0</ns3:atemp>
            <ns3:hr>141</ns3:hr>
          </ns3:TrackPointExtension>
        </extensions>
      </trkpt>
      <trkpt lat="-22.08582711406052112579345703125" lon="166.44517821259796619415283203125">
        <ele>674.4000244140625</ele>
        <time>2016-08-12T18:40:12.000Z</time>
        <extensions>
          <ns3:TrackPointExtension>
            <ns3:atemp>17.0</ns3:atemp>
            <ns3:hr>141</ns3:hr>
          </ns3:TrackPointExtension>
        </extensions>
      </trkpt>
      <trkpt lat="-22.08580800332129001617431640625" lon="166.445169746875762939453125">
        <ele>674.5999755859375</ele>
        <time>2016-08-12T18:40:13.000Z</time>
        <extensions>
          <ns3:TrackPointExtension>
            <ns3:atemp>17.0</ns3:atemp>
            <ns3:hr>141</ns3:hr>
          </ns3:TrackPointExtension>
        </extensions>
      </trkpt>
      <trkpt lat="-22.08578838966786861419677734375" lon="166.4451521448791027069091796875">
        <ele>675</ele>
        <time>2016-08-12T18:40:14.000Z</time>
        <extensions>
          <ns3:TrackPointExtension>
            <ns3:atemp>17.0</ns3:atemp>
            <ns3:hr>141</ns3:hr>
          </ns3:TrackPointExtension>
        </extensions>
      </trkpt>
      <trkpt lat="-22.085767686367034912109375" lon="166.44514359533786773681640625">
        <ele>675</ele>
        <time>2016-08-12T18:40:15.000Z</time>
        <extensions>
          <ns3:TrackPointExtension>
            <ns3:atemp>17.0</ns3:atemp>
            <ns3:hr>141</ns3:hr>
          </ns3:TrackPointExtension>
        </extensions>
      </trkpt>
      <trkpt lat="-22.0857534371316432952880859375" lon="166.44513814710080623626708984375">
        <ele>675.4000244140625</ele>
        <time>2016-08-12T18:40:16.000Z</time>
        <extensions>
          <ns3:TrackPointExtension>
            <ns3:atemp>17.0</ns3:atemp>
            <ns3:hr>141</ns3:hr>
          </ns3:TrackPointExtension>
        </extensions>
      </trkpt>
      <trkpt lat="-22.08573575131595134735107421875" lon="166.44512691535055637359619140625">
        <ele>675.5999755859375</ele>
        <time>2016-08-12T18:40:17.000Z</time>
        <extensions>
          <ns3:TrackPointExtension>
            <ns3:atemp>17.0</ns3:atemp>
            <ns3:hr>141</ns3:hr>
          </ns3:TrackPointExtension>
        </extensions>
      </trkpt>
      <trkpt lat="-22.085722424089908599853515625" lon="166.4451166056096553802490234375">
        <ele>675.5999755859375</ele>
        <time>2016-08-12T18:40:18.000Z</time>
        <extensions>
          <ns3:TrackPointExtension>
            <ns3:atemp>17.0</ns3:atemp>
            <ns3:hr>141</ns3:hr>
          </ns3:TrackPointExtension>
        </extensions>
      </trkpt>
      <trkpt lat="-22.0857034809887409210205078125" lon="166.44510847516357898712158203125">
        <ele>675.79998779296875</ele>
        <time>2016-08-12T18:40:19.000Z</time>
        <extensions>
          <ns3:TrackPointExtension>
            <ns3:atemp>17.0</ns3:atemp>
            <ns3:hr>141</ns3:hr>
          </ns3:TrackPointExtension>
        </extensions>
      </trkpt>
      <trkpt lat="-22.08568596281111240386962890625" lon="166.445102691650390625">
        <ele>676</ele>
        <time>2016-08-12T18:40:20.000Z</time>
        <extensions>
          <ns3:TrackPointExtension>
            <ns3:atemp>17.0</ns3:atemp>
            <ns3:hr>140</ns3:hr>
          </ns3:TrackPointExtension>
        </extensions>
      </trkpt>
      <trkpt lat="-22.085670121014118194580078125" lon="166.44510176964104175567626953125">
        <ele>676</ele>
        <time>2016-08-12T18:40:21.000Z</time>
        <extensions>
          <ns3:TrackPointExtension>
            <ns3:atemp>17.0</ns3:atemp>
            <ns3:hr>141</ns3:hr>
          </ns3:TrackPointExtension>
        </extensions>
      </trkpt>
      <trkpt lat="-22.08564723841845989227294921875" lon="166.4450894482433795928955078125">
        <ele>676.20001220703125</ele>
        <time>2016-08-12T18:40:22.000Z</time>
        <extensions>
          <ns3:TrackPointExtension>
            <ns3:atemp>17.0</ns3:atemp>
            <ns3:hr>140</ns3:hr>
          </ns3:TrackPointExtension>
        </extensions>
      </trkpt>
      <trkpt lat="-22.08562578074634075164794921875" lon="166.4450803957879543304443359375">
        <ele>676.4000244140625</ele>
        <time>2016-08-12T18:40:23.000Z</time>
        <extensions>
          <ns3:TrackPointExtension>
            <ns3:atemp>17.0</ns3:atemp>
            <ns3:hr>140</ns3:hr>
          </ns3:TrackPointExtension>
        </extensions>
      </trkpt>
      <trkpt lat="-22.08561320789158344268798828125" lon="166.445076875388622283935546875">
        <ele>676.4000244140625</ele>
        <time>2016-08-12T18:40:24.000Z</time>
        <extensions>
          <ns3:TrackPointExtension>
            <ns3:atemp>17.0</ns3:atemp>
            <ns3:hr>140</ns3:hr>
          </ns3:TrackPointExtension>
        </extensions>
      </trkpt>
      <trkpt lat="-22.0855951867997646331787109375" lon="166.445070840418338775634765625">
        <ele>676.5999755859375</ele>
        <time>2016-08-12T18:40:25.000Z</time>
        <extensions>
          <ns3:TrackPointExtension>
            <ns3:atemp>17.0</ns3:atemp>
            <ns3:hr>141</ns3:hr>
          </ns3:TrackPointExtension>
        </extensions>
      </trkpt>
      <trkpt lat="-22.0855764113366603851318359375" lon="166.44506941549479961395263671875">
        <ele>676.5999755859375</ele>
        <time>2016-08-12T18:40:26.000Z</time>
        <extensions>
          <ns3:TrackPointExtension>
            <ns3:atemp>17.0</ns3:atemp>
            <ns3:hr>140</ns3:hr>
          </ns3:TrackPointExtension>
        </extensions>
      </trkpt>
      <trkpt lat="-22.08556006662547588348388671875" lon="166.44506136886775493621826171875">
        <ele>677</ele>
        <time>2016-08-12T18:40:27.000Z</time>
        <extensions>
          <ns3:TrackPointExtension>
            <ns3:atemp>17.0</ns3:atemp>
            <ns3:hr>140</ns3:hr>
          </ns3:TrackPointExtension>
        </extensions>
      </trkpt>
      <trkpt lat="-22.08554045297205448150634765625" lon="166.44505348987877368927001953125">
        <ele>677.20001220703125</ele>
        <time>2016-08-12T18:40:28.000Z</time>
        <extensions>
          <ns3:TrackPointExtension>
            <ns3:atemp>17.0</ns3:atemp>
            <ns3:hr>141</ns3:hr>
          </ns3:TrackPointExtension>
        </extensions>
      </trkpt>
      <trkpt lat="-22.08552695810794830322265625" lon="166.44505348987877368927001953125">
        <ele>677.20001220703125</ele>
        <time>2016-08-12T18:40:29.000Z</time>
        <extensions>
          <ns3:TrackPointExtension>
            <ns3:atemp>17.0</ns3:atemp>
            <ns3:hr>141</ns3:hr>
          </ns3:TrackPointExtension>
        </extensions>
      </trkpt>
      <trkpt lat="-22.08550692535936832427978515625" lon="166.44505382515490055084228515625">
        <ele>677.4000244140625</ele>
        <time>2016-08-12T18:40:30.000Z</time>
        <extensions>
          <ns3:TrackPointExtension>
            <ns3:atemp>17.0</ns3:atemp>
            <ns3:hr>140</ns3:hr>
          </ns3:TrackPointExtension>
        </extensions>
      </trkpt>
      <trkpt lat="-22.085488401353359222412109375" lon="166.44505466334521770477294921875">
        <ele>677.4000244140625</ele>
        <time>2016-08-12T18:40:31.000Z</time>
        <extensions>
          <ns3:TrackPointExtension>
            <ns3:atemp>17.0</ns3:atemp>
            <ns3:hr>141</ns3:hr>
          </ns3:TrackPointExtension>
        </extensions>
      </trkpt>
      <trkpt lat="-22.08547255955636501312255859375" lon="166.44506447017192840576171875">
        <ele>677.4000244140625</ele>
        <time>2016-08-12T18:40:32.000Z</time>
        <extensions>
          <ns3:TrackPointExtension>
            <ns3:atemp>17.0</ns3:atemp>
            <ns3:hr>141</ns3:hr>
          </ns3:TrackPointExtension>
        </extensions>
      </trkpt>
      <trkpt lat="-22.08544858731329441070556640625" lon="166.44506941549479961395263671875">
        <ele>677.79998779296875</ele>
        <time>2016-08-12T18:40:33.000Z</time>
        <extensions>
          <ns3:TrackPointExtension>
            <ns3:atemp>17.0</ns3:atemp>
            <ns3:hr>140</ns3:hr>
          </ns3:TrackPointExtension>
        </extensions>
      </trkpt>
      <trkpt lat="-22.0854270458221435546875" lon="166.4450772106647491455078125">
        <ele>677.79998779296875</ele>
        <time>2016-08-12T18:40:34.000Z</time>
        <extensions>
          <ns3:TrackPointExtension>
            <ns3:atemp>17.0</ns3:atemp>
            <ns3:hr>140</ns3:hr>
          </ns3:TrackPointExtension>
        </extensions>
      </trkpt>
      <trkpt lat="-22.0854097791016101837158203125" lon="166.4450928010046482086181640625">
        <ele>678</ele>
        <time>2016-08-12T18:40:35.000Z</time>
        <extensions>
          <ns3:TrackPointExtension>
            <ns3:atemp>17.0</ns3:atemp>
            <ns3:hr>140</ns3:hr>
          </ns3:TrackPointExtension>
        </extensions>
      </trkpt>
      <trkpt lat="-22.0853910036385059356689453125" lon="166.4451042003929615020751953125">
        <ele>678</ele>
        <time>2016-08-12T18:40:36.000Z</time>
        <extensions>
          <ns3:TrackPointExtension>
            <ns3:atemp>17.0</ns3:atemp>
            <ns3:hr>140</ns3:hr>
          </ns3:TrackPointExtension>
        </extensions>
      </trkpt>
      <trkpt lat="-22.0853712223470211029052734375" lon="166.44511451013386249542236328125">
        <ele>678</ele>
        <time>2016-08-12T18:40:37.000Z</time>
        <extensions>
          <ns3:TrackPointExtension>
            <ns3:atemp>17.0</ns3:atemp>
            <ns3:hr>140</ns3:hr>
          </ns3:TrackPointExtension>
        </extensions>
      </trkpt>
      <trkpt lat="-22.08535554818809032440185546875" lon="166.445126831531524658203125">
        <ele>678.20001220703125</ele>
        <time>2016-08-12T18:40:38.000Z</time>
        <extensions>
          <ns3:TrackPointExtension>
            <ns3:atemp>17.0</ns3:atemp>
            <ns3:hr>140</ns3:hr>
          </ns3:TrackPointExtension>
        </extensions>
      </trkpt>
      <trkpt lat="-22.0853380300104618072509765625" lon="166.44513865001499652862548828125">
        <ele>678.4000244140625</ele>
        <time>2016-08-12T18:40:39.000Z</time>
        <extensions>
          <ns3:TrackPointExtension>
            <ns3:atemp>17.0</ns3:atemp>
            <ns3:hr>139</ns3:hr>
          </ns3:TrackPointExtension>
        </extensions>
      </trkpt>
      <trkpt lat="-22.08531883545219898223876953125" lon="166.4451415836811065673828125">
        <ele>678.4000244140625</ele>
        <time>2016-08-12T18:40:40.000Z</time>
        <extensions>
          <ns3:TrackPointExtension>
            <ns3:atemp>17.0</ns3:atemp>
            <ns3:hr>139</ns3:hr>
          </ns3:TrackPointExtension>
        </extensions>
      </trkpt>
      <trkpt lat="-22.0852969586849212646484375" lon="166.44514468498528003692626953125">
        <ele>678.79998779296875</ele>
        <time>2016-08-12T18:40:41.000Z</time>
        <extensions>
          <ns3:TrackPointExtension>
            <ns3:atemp>17.0</ns3:atemp>
            <ns3:hr>139</ns3:hr>
          </ns3:TrackPointExtension>
        </extensions>
      </trkpt>
      <trkpt lat="-22.08527189679443836212158203125" lon="166.445159018039703369140625">
        <ele>678.79998779296875</ele>
        <time>2016-08-12T18:40:42.000Z</time>
        <extensions>
          <ns3:TrackPointExtension>
            <ns3:atemp>17.0</ns3:atemp>
            <ns3:hr>139</ns3:hr>
          </ns3:TrackPointExtension>
        </extensions>
      </trkpt>
      <trkpt lat="-22.0852491818368434906005859375" lon="166.44517402164638042449951171875">
        <ele>679</ele>
        <time>2016-08-12T18:40:43.000Z</time>
        <extensions>
          <ns3:TrackPointExtension>
            <ns3:atemp>17.0</ns3:atemp>
            <ns3:hr>139</ns3:hr>
          </ns3:TrackPointExtension>
        </extensions>
      </trkpt>
      <trkpt lat="-22.08522789180278778076171875" lon="166.44518592394888401031494140625">
        <ele>679.20001220703125</ele>
        <time>2016-08-12T18:40:44.000Z</time>
        <extensions>
          <ns3:TrackPointExtension>
            <ns3:atemp>17.0</ns3:atemp>
            <ns3:hr>139</ns3:hr>
          </ns3:TrackPointExtension>
        </extensions>
      </trkpt>
      <trkpt lat="-22.08520500920712947845458984375" lon="166.445201933383941650390625">
        <ele>679.20001220703125</ele>
        <time>2016-08-12T18:40:45.000Z</time>
        <extensions>
          <ns3:TrackPointExtension>
            <ns3:atemp>17.0</ns3:atemp>
            <ns3:hr>139</ns3:hr>
          </ns3:TrackPointExtension>
        </extensions>
      </trkpt>
      <trkpt lat="-22.0851858146488666534423828125" lon="166.44521542824804782867431640625">
        <ele>679.20001220703125</ele>
        <time>2016-08-12T18:40:46.000Z</time>
        <extensions>
          <ns3:TrackPointExtension>
            <ns3:atemp>17.0</ns3:atemp>
            <ns3:hr>139</ns3:hr>
          </ns3:TrackPointExtension>
        </extensions>
      </trkpt>
      <trkpt lat="-22.08516762591898441314697265625" lon="166.4452319405972957611083984375">
        <ele>679.20001220703125</ele>
        <time>2016-08-12T18:40:47.000Z</time>
        <extensions>
          <ns3:TrackPointExtension>
            <ns3:atemp>17.0</ns3:atemp>
            <ns3:hr>139</ns3:hr>
          </ns3:TrackPointExtension>
        </extensions>
      </trkpt>
      <trkpt lat="-22.08514683879911899566650390625" lon="166.44524694420397281646728515625">
        <ele>679.20001220703125</ele>
        <time>2016-08-12T18:40:48.000Z</time>
        <extensions>
          <ns3:TrackPointExtension>
            <ns3:atemp>16.0</ns3:atemp>
            <ns3:hr>139</ns3:hr>
          </ns3:TrackPointExtension>
        </extensions>
      </trkpt>
      <trkpt lat="-22.08512957207858562469482421875" lon="166.44526203162968158721923828125">
        <ele>679.4000244140625</ele>
        <time>2016-08-12T18:40:49.000Z</time>
        <extensions>
          <ns3:TrackPointExtension>
            <ns3:atemp>16.0</ns3:atemp>
            <ns3:hr>139</ns3:hr>
          </ns3:TrackPointExtension>
        </extensions>
      </trkpt>
      <trkpt lat="-22.0851140655577182769775390625" lon="166.44527661614120006561279296875">
        <ele>679.79998779296875</ele>
        <time>2016-08-12T18:40:50.000Z</time>
        <extensions>
          <ns3:TrackPointExtension>
            <ns3:atemp>16.0</ns3:atemp>
            <ns3:hr>139</ns3:hr>
          </ns3:TrackPointExtension>
        </extensions>
      </trkpt>
      <trkpt lat="-22.08509637974202632904052734375" lon="166.4452864229679107666015625">
        <ele>679.79998779296875</ele>
        <time>2016-08-12T18:40:51.000Z</time>
        <extensions>
          <ns3:TrackPointExtension>
            <ns3:atemp>16.0</ns3:atemp>
            <ns3:hr>139</ns3:hr>
          </ns3:TrackPointExtension>
        </extensions>
      </trkpt>
      <trkpt lat="-22.08508078940212726593017578125" lon="166.44529539160430431365966796875">
        <ele>680</ele>
        <time>2016-08-12T18:40:52.000Z</time>
        <extensions>
          <ns3:TrackPointExtension>
            <ns3:atemp>16.0</ns3:atemp>
            <ns3:hr>139</ns3:hr>
          </ns3:TrackPointExtension>
        </extensions>
      </trkpt>
      <trkpt lat="-22.0850716531276702880859375" lon="166.4453006722033023834228515625">
        <ele>680.4000244140625</ele>
        <time>2016-08-12T18:40:53.000Z</time>
        <extensions>
          <ns3:TrackPointExtension>
            <ns3:atemp>16.0</ns3:atemp>
            <ns3:hr>139</ns3:hr>
          </ns3:TrackPointExtension>
        </extensions>
      </trkpt>
      <trkpt lat="-22.08505782298743724822998046875" lon="166.44531081430613994598388671875">
        <ele>680.4000244140625</ele>
        <time>2016-08-12T18:40:54.000Z</time>
        <extensions>
          <ns3:TrackPointExtension>
            <ns3:atemp>16.0</ns3:atemp>
            <ns3:hr>139</ns3:hr>
          </ns3:TrackPointExtension>
        </extensions>
      </trkpt>
      <trkpt lat="-22.08504692651331424713134765625" lon="166.44531928002834320068359375">
        <ele>680.5999755859375</ele>
        <time>2016-08-12T18:40:55.000Z</time>
        <extensions>
          <ns3:TrackPointExtension>
            <ns3:atemp>16.0</ns3:atemp>
            <ns3:hr>139</ns3:hr>
          </ns3:TrackPointExtension>
        </extensions>
      </trkpt>
      <trkpt lat="-22.0850367844104766845703125" lon="166.44532841630280017852783203125">
        <ele>680.79998779296875</ele>
        <time>2016-08-12T18:40:56.000Z</time>
        <extensions>
          <ns3:TrackPointExtension>
            <ns3:atemp>16.0</ns3:atemp>
            <ns3:hr>139</ns3:hr>
          </ns3:TrackPointExtension>
        </extensions>
      </trkpt>
      <trkpt lat="-22.0850272290408611297607421875" lon="166.4453378878533840179443359375">
        <ele>681</ele>
        <time>2016-08-12T18:40:57.000Z</time>
        <extensions>
          <ns3:TrackPointExtension>
            <ns3:atemp>16.0</ns3:atemp>
            <ns3:hr>139</ns3:hr>
          </ns3:TrackPointExtension>
        </extensions>
      </trkpt>
      <trkpt lat="-22.08501398563385009765625" lon="166.44535121507942676544189453125">
        <ele>681.20001220703125</ele>
        <time>2016-08-12T18:40:58.000Z</time>
        <extensions>
          <ns3:TrackPointExtension>
            <ns3:atemp>16.0</ns3:atemp>
            <ns3:hr>139</ns3:hr>
          </ns3:TrackPointExtension>
        </extensions>
      </trkpt>
      <trkpt lat="-22.0849960483610630035400390625" lon="166.4453507959842681884765625">
        <ele>681.20001220703125</ele>
        <time>2016-08-12T18:40:59.000Z</time>
        <extensions>
          <ns3:TrackPointExtension>
            <ns3:atemp>16.0</ns3:atemp>
            <ns3:hr>139</ns3:hr>
          </ns3:TrackPointExtension>
        </extensions>
      </trkpt>
      <trkpt lat="-22.084979116916656494140625" lon="166.44535255618393421173095703125">
        <ele>681.4000244140625</ele>
        <time>2016-08-12T18:41:00.000Z</time>
        <extensions>
          <ns3:TrackPointExtension>
            <ns3:atemp>16.0</ns3:atemp>
            <ns3:hr>139</ns3:hr>
          </ns3:TrackPointExtension>
        </extensions>
      </trkpt>
      <trkpt lat="-22.0849574916064739227294921875" lon="166.44535481929779052734375">
        <ele>681.5999755859375</ele>
        <time>2016-08-12T18:41:01.000Z</time>
        <extensions>
          <ns3:TrackPointExtension>
            <ns3:atemp>16.0</ns3:atemp>
            <ns3:hr>139</ns3:hr>
          </ns3:TrackPointExtension>
        </extensions>
      </trkpt>
      <trkpt lat="-22.08493863232433795928955078125" lon="166.44536227919161319732666015625">
        <ele>681.79998779296875</ele>
        <time>2016-08-12T18:41:02.000Z</time>
        <extensions>
          <ns3:TrackPointExtension>
            <ns3:atemp>16.0</ns3:atemp>
            <ns3:hr>139</ns3:hr>
          </ns3:TrackPointExtension>
        </extensions>
      </trkpt>
      <trkpt lat="-22.0849212817847728729248046875" lon="166.44536915235221385955810546875">
        <ele>682</ele>
        <time>2016-08-12T18:41:03.000Z</time>
        <extensions>
          <ns3:TrackPointExtension>
            <ns3:atemp>16.0</ns3:atemp>
            <ns3:hr>139</ns3:hr>
          </ns3:TrackPointExtension>
        </extensions>
      </trkpt>
      <trkpt lat="-22.0849048532545566558837890625" lon="166.445367895066738128662109375">
        <ele>682.20001220703125</ele>
        <time>2016-08-12T18:41:04.000Z</time>
        <extensions>
          <ns3:TrackPointExtension>
            <ns3:atemp>16.0</ns3:atemp>
            <ns3:hr>139</ns3:hr>
          </ns3:TrackPointExtension>
        </extensions>
      </trkpt>
      <trkpt lat="-22.0848867483437061309814453125" lon="166.44536353647708892822265625">
        <ele>682.20001220703125</ele>
        <time>2016-08-12T18:41:05.000Z</time>
        <extensions>
          <ns3:TrackPointExtension>
            <ns3:atemp>16.0</ns3:atemp>
            <ns3:hr>139</ns3:hr>
          </ns3:TrackPointExtension>
        </extensions>
      </trkpt>
      <trkpt lat="-22.08486688323318958282470703125" lon="166.445354484021663665771484375">
        <ele>682.4000244140625</ele>
        <time>2016-08-12T18:41:06.000Z</time>
        <extensions>
          <ns3:TrackPointExtension>
            <ns3:atemp>16.0</ns3:atemp>
            <ns3:hr>139</ns3:hr>
          </ns3:TrackPointExtension>
        </extensions>
      </trkpt>
      <trkpt lat="-22.08485162816941738128662109375" lon="166.4453348703682422637939453125">
        <ele>682.5999755859375</ele>
        <time>2016-08-12T18:41:07.000Z</time>
        <extensions>
          <ns3:TrackPointExtension>
            <ns3:atemp>16.0</ns3:atemp>
            <ns3:hr>140</ns3:hr>
          </ns3:TrackPointExtension>
        </extensions>
      </trkpt>
      <trkpt lat="-22.0848374627530574798583984375" lon="166.44531450234353542327880859375">
        <ele>682.79998779296875</ele>
        <time>2016-08-12T18:41:08.000Z</time>
        <extensions>
          <ns3:TrackPointExtension>
            <ns3:atemp>16.0</ns3:atemp>
            <ns3:hr>139</ns3:hr>
          </ns3:TrackPointExtension>
        </extensions>
      </trkpt>
      <trkpt lat="-22.08482061512768268585205078125" lon="166.4452973194420337677001953125">
        <ele>683.20001220703125</ele>
        <time>2016-08-12T18:41:09.000Z</time>
        <extensions>
          <ns3:TrackPointExtension>
            <ns3:atemp>16.0</ns3:atemp>
            <ns3:hr>139</ns3:hr>
          </ns3:TrackPointExtension>
        </extensions>
      </trkpt>
      <trkpt lat="-22.08480485714972019195556640625" lon="166.445280723273754119873046875">
        <ele>683.4000244140625</ele>
        <time>2016-08-12T18:41:10.000Z</time>
        <extensions>
          <ns3:TrackPointExtension>
            <ns3:atemp>16.0</ns3:atemp>
            <ns3:hr>139</ns3:hr>
          </ns3:TrackPointExtension>
        </extensions>
      </trkpt>
      <trkpt lat="-22.084789015352725982666015625" lon="166.44526697695255279541015625">
        <ele>683.4000244140625</ele>
        <time>2016-08-12T18:41:11.000Z</time>
        <extensions>
          <ns3:TrackPointExtension>
            <ns3:atemp>16.0</ns3:atemp>
            <ns3:hr>139</ns3:hr>
          </ns3:TrackPointExtension>
        </extensions>
      </trkpt>
      <trkpt lat="-22.08477434702217578887939453125" lon="166.4452547393739223480224609375">
        <ele>683.79998779296875</ele>
        <time>2016-08-12T18:41:12.000Z</time>
        <extensions>
          <ns3:TrackPointExtension>
            <ns3:atemp>16.0</ns3:atemp>
            <ns3:hr>139</ns3:hr>
          </ns3:TrackPointExtension>
        </extensions>
      </trkpt>
      <trkpt lat="-22.08476118743419647216796875" lon="166.44523772411048412322998046875">
        <ele>683.79998779296875</ele>
        <time>2016-08-12T18:41:13.000Z</time>
        <extensions>
          <ns3:TrackPointExtension>
            <ns3:atemp>16.0</ns3:atemp>
            <ns3:hr>139</ns3:hr>
          </ns3:TrackPointExtension>
        </extensions>
      </trkpt>
      <trkpt lat="-22.0847422443330287933349609375" lon="166.44522012211382389068603515625">
        <ele>684.20001220703125</ele>
        <time>2016-08-12T18:41:14.000Z</time>
        <extensions>
          <ns3:TrackPointExtension>
            <ns3:atemp>16.0</ns3:atemp>
            <ns3:hr>138</ns3:hr>
          </ns3:TrackPointExtension>
        </extensions>
      </trkpt>
      <trkpt lat="-22.0847268216311931610107421875" lon="166.44520184956490993499755859375">
        <ele>684.4000244140625</ele>
        <time>2016-08-12T18:41:15.000Z</time>
        <extensions>
          <ns3:TrackPointExtension>
            <ns3:atemp>16.0</ns3:atemp>
            <ns3:hr>138</ns3:hr>
          </ns3:TrackPointExtension>
        </extensions>
      </trkpt>
      <trkpt lat="-22.0847095549106597900390625" lon="166.445186175405979156494140625">
        <ele>684.5999755859375</ele>
        <time>2016-08-12T18:41:16.000Z</time>
        <extensions>
          <ns3:TrackPointExtension>
            <ns3:atemp>16.0</ns3:atemp>
            <ns3:hr>138</ns3:hr>
          </ns3:TrackPointExtension>
        </extensions>
      </trkpt>
      <trkpt lat="-22.084697149693965911865234375" lon="166.445178128778934478759765625">
        <ele>684.5999755859375</ele>
        <time>2016-08-12T18:41:17.000Z</time>
        <extensions>
          <ns3:TrackPointExtension>
            <ns3:atemp>16.0</ns3:atemp>
            <ns3:hr>138</ns3:hr>
          </ns3:TrackPointExtension>
        </extensions>
      </trkpt>
      <trkpt lat="-22.08467929624021053314208984375" lon="166.44517242908477783203125">
        <ele>684.5999755859375</ele>
        <time>2016-08-12T18:41:18.000Z</time>
        <extensions>
          <ns3:TrackPointExtension>
            <ns3:atemp>16.0</ns3:atemp>
            <ns3:hr>138</ns3:hr>
          </ns3:TrackPointExtension>
        </extensions>
      </trkpt>
      <trkpt lat="-22.0846617780625820159912109375" lon="166.445172764360904693603515625">
        <ele>684.5999755859375</ele>
        <time>2016-08-12T18:41:19.000Z</time>
        <extensions>
          <ns3:TrackPointExtension>
            <ns3:atemp>16.0</ns3:atemp>
            <ns3:hr>138</ns3:hr>
          </ns3:TrackPointExtension>
        </extensions>
      </trkpt>
      <trkpt lat="-22.08463646471500396728515625" lon="166.44517703913152217864990234375">
        <ele>684.5999755859375</ele>
        <time>2016-08-12T18:41:20.000Z</time>
        <extensions>
          <ns3:TrackPointExtension>
            <ns3:atemp>16.0</ns3:atemp>
            <ns3:hr>137</ns3:hr>
          </ns3:TrackPointExtension>
        </extensions>
      </trkpt>
      <trkpt lat="-22.08461374975740909576416015625" lon="166.4451809786260128021240234375">
        <ele>684.5999755859375</ele>
        <time>2016-08-12T18:41:21.000Z</time>
        <extensions>
          <ns3:TrackPointExtension>
            <ns3:atemp>16.0</ns3:atemp>
            <ns3:hr>137</ns3:hr>
          </ns3:TrackPointExtension>
        </extensions>
      </trkpt>
      <trkpt lat="-22.08459681831300258636474609375" lon="166.44518743269145488739013671875">
        <ele>684.5999755859375</ele>
        <time>2016-08-12T18:41:22.000Z</time>
        <extensions>
          <ns3:TrackPointExtension>
            <ns3:atemp>16.0</ns3:atemp>
            <ns3:hr>138</ns3:hr>
          </ns3:TrackPointExtension>
        </extensions>
      </trkpt>
      <trkpt lat="-22.08458147943019866943359375" lon="166.44519564695656299591064453125">
        <ele>684.5999755859375</ele>
        <time>2016-08-12T18:41:23.000Z</time>
        <extensions>
          <ns3:TrackPointExtension>
            <ns3:atemp>16.0</ns3:atemp>
            <ns3:hr>137</ns3:hr>
          </ns3:TrackPointExtension>
        </extensions>
      </trkpt>
      <trkpt lat="-22.08456404507160186767578125" lon="166.4452088065445423126220703125">
        <ele>684.79998779296875</ele>
        <time>2016-08-12T18:41:24.000Z</time>
        <extensions>
          <ns3:TrackPointExtension>
            <ns3:atemp>16.0</ns3:atemp>
            <ns3:hr>137</ns3:hr>
          </ns3:TrackPointExtension>
        </extensions>
      </trkpt>
      <trkpt lat="-22.08455155603587627410888671875" lon="166.44522448070347309112548828125">
        <ele>685.20001220703125</ele>
        <time>2016-08-12T18:41:25.000Z</time>
        <extensions>
          <ns3:TrackPointExtension>
            <ns3:atemp>16.0</ns3:atemp>
            <ns3:hr>138</ns3:hr>
          </ns3:TrackPointExtension>
        </extensions>
      </trkpt>
      <trkpt lat="-22.08453848026692867279052734375" lon="166.4452446810901165008544921875">
        <ele>685.20001220703125</ele>
        <time>2016-08-12T18:41:26.000Z</time>
        <extensions>
          <ns3:TrackPointExtension>
            <ns3:atemp>16.0</ns3:atemp>
            <ns3:hr>138</ns3:hr>
          </ns3:TrackPointExtension>
        </extensions>
      </trkpt>
      <trkpt lat="-22.084529511630535125732421875" lon="166.44526437856256961822509765625">
        <ele>685.4000244140625</ele>
        <time>2016-08-12T18:41:27.000Z</time>
        <extensions>
          <ns3:TrackPointExtension>
            <ns3:atemp>16.0</ns3:atemp>
            <ns3:hr>137</ns3:hr>
          </ns3:TrackPointExtension>
        </extensions>
      </trkpt>
      <trkpt lat="-22.08452205173671245574951171875" lon="166.44528281874954700469970703125">
        <ele>685.4000244140625</ele>
        <time>2016-08-12T18:41:28.000Z</time>
        <extensions>
          <ns3:TrackPointExtension>
            <ns3:atemp>16.0</ns3:atemp>
            <ns3:hr>138</ns3:hr>
          </ns3:TrackPointExtension>
        </extensions>
      </trkpt>
      <trkpt lat="-22.08451249636709690093994140625" lon="166.44530058838427066802978515625">
        <ele>685.5999755859375</ele>
        <time>2016-08-12T18:41:29.000Z</time>
        <extensions>
          <ns3:TrackPointExtension>
            <ns3:atemp>16.0</ns3:atemp>
            <ns3:hr>138</ns3:hr>
          </ns3:TrackPointExtension>
        </extensions>
      </trkpt>
      <trkpt lat="-22.08450109697878360748291015625" lon="166.4453140832483768463134765625">
        <ele>685.79998779296875</ele>
        <time>2016-08-12T18:41:30.000Z</time>
        <extensions>
          <ns3:TrackPointExtension>
            <ns3:atemp>16.0</ns3:atemp>
            <ns3:hr>138</ns3:hr>
          </ns3:TrackPointExtension>
        </extensions>
      </trkpt>
      <trkpt lat="-22.08448818884789943695068359375" lon="166.44532187841832637786865234375">
        <ele>685.79998779296875</ele>
        <time>2016-08-12T18:41:31.000Z</time>
        <extensions>
          <ns3:TrackPointExtension>
            <ns3:atemp>16.0</ns3:atemp>
            <ns3:hr>138</ns3:hr>
          </ns3:TrackPointExtension>
        </extensions>
      </trkpt>
      <trkpt lat="-22.08447142504155635833740234375" lon="166.44533134996891021728515625">
        <ele>686</ele>
        <time>2016-08-12T18:41:32.000Z</time>
        <extensions>
          <ns3:TrackPointExtension>
            <ns3:atemp>16.0</ns3:atemp>
            <ns3:hr>138</ns3:hr>
          </ns3:TrackPointExtension>
        </extensions>
      </trkpt>
      <trkpt lat="-22.08445851691067218780517578125" lon="166.44534149207174777984619140625">
        <ele>686</ele>
        <time>2016-08-12T18:41:33.000Z</time>
        <extensions>
          <ns3:TrackPointExtension>
            <ns3:atemp>16.0</ns3:atemp>
            <ns3:hr>138</ns3:hr>
          </ns3:TrackPointExtension>
        </extensions>
      </trkpt>
      <trkpt lat="-22.0844418369233608245849609375" lon="166.4453509636223316192626953125">
        <ele>686.20001220703125</ele>
        <time>2016-08-12T18:41:34.000Z</time>
        <extensions>
          <ns3:TrackPointExtension>
            <ns3:atemp>16.0</ns3:atemp>
            <ns3:hr>137</ns3:hr>
          </ns3:TrackPointExtension>
        </extensions>
      </trkpt>
      <trkpt lat="-22.084424905478954315185546875" lon="166.4453606866300106048583984375">
        <ele>686.4000244140625</ele>
        <time>2016-08-12T18:41:35.000Z</time>
        <extensions>
          <ns3:TrackPointExtension>
            <ns3:atemp>16.0</ns3:atemp>
            <ns3:hr>138</ns3:hr>
          </ns3:TrackPointExtension>
        </extensions>
      </trkpt>
      <trkpt lat="-22.0844130031764507293701171875" lon="166.4453690685331821441650390625">
        <ele>686.5999755859375</ele>
        <time>2016-08-12T18:41:36.000Z</time>
        <extensions>
          <ns3:TrackPointExtension>
            <ns3:atemp>16.0</ns3:atemp>
            <ns3:hr>137</ns3:hr>
          </ns3:TrackPointExtension>
        </extensions>
      </trkpt>
      <trkpt lat="-22.084399424493312835693359375" lon="166.44537627696990966796875">
        <ele>686.5999755859375</ele>
        <time>2016-08-12T18:41:37.000Z</time>
        <extensions>
          <ns3:TrackPointExtension>
            <ns3:atemp>16.0</ns3:atemp>
            <ns3:hr>138</ns3:hr>
          </ns3:TrackPointExtension>
        </extensions>
      </trkpt>
      <trkpt lat="-22.08438165485858917236328125" lon="166.4453858323395252227783203125">
        <ele>686.5999755859375</ele>
        <time>2016-08-12T18:41:38.000Z</time>
        <extensions>
          <ns3:TrackPointExtension>
            <ns3:atemp>16.0</ns3:atemp>
            <ns3:hr>137</ns3:hr>
          </ns3:TrackPointExtension>
        </extensions>
      </trkpt>
      <trkpt lat="-22.0843603648245334625244140625" lon="166.4453945495188236236572265625">
        <ele>687</ele>
        <time>2016-08-12T18:41:39.000Z</time>
        <extensions>
          <ns3:TrackPointExtension>
            <ns3:atemp>16.0</ns3:atemp>
            <ns3:hr>137</ns3:hr>
          </ns3:TrackPointExtension>
        </extensions>
      </trkpt>
      <trkpt lat="-22.084340415894985198974609375" lon="166.4453995786607265472412109375">
        <ele>687</ele>
        <time>2016-08-12T18:41:40.000Z</time>
        <extensions>
          <ns3:TrackPointExtension>
            <ns3:atemp>16.0</ns3:atemp>
            <ns3:hr>137</ns3:hr>
          </ns3:TrackPointExtension>
        </extensions>
      </trkpt>
      <trkpt lat="-22.0843179523944854736328125" lon="166.4454059489071369171142578125">
        <ele>687.20001220703125</ele>
        <time>2016-08-12T18:41:41.000Z</time>
        <extensions>
          <ns3:TrackPointExtension>
            <ns3:atemp>16.0</ns3:atemp>
            <ns3:hr>137</ns3:hr>
          </ns3:TrackPointExtension>
        </extensions>
      </trkpt>
      <trkpt lat="-22.0842973329126834869384765625" lon="166.44541391171514987945556640625">
        <ele>687.4000244140625</ele>
        <time>2016-08-12T18:41:42.000Z</time>
        <extensions>
          <ns3:TrackPointExtension>
            <ns3:atemp>16.0</ns3:atemp>
            <ns3:hr>137</ns3:hr>
          </ns3:TrackPointExtension>
        </extensions>
      </trkpt>
      <trkpt lat="-22.08427973091602325439453125" lon="166.445412822067737579345703125">
        <ele>687.4000244140625</ele>
        <time>2016-08-12T18:41:43.000Z</time>
        <extensions>
          <ns3:TrackPointExtension>
            <ns3:atemp>16.0</ns3:atemp>
            <ns3:hr>137</ns3:hr>
          </ns3:TrackPointExtension>
        </extensions>
      </trkpt>
      <trkpt lat="-22.08426087163388729095458984375" lon="166.44540754146873950958251953125">
        <ele>687.79998779296875</ele>
        <time>2016-08-12T18:41:44.000Z</time>
        <extensions>
          <ns3:TrackPointExtension>
            <ns3:atemp>16.0</ns3:atemp>
            <ns3:hr>137</ns3:hr>
          </ns3:TrackPointExtension>
        </extensions>
      </trkpt>
      <trkpt lat="-22.08424410782754421234130859375" lon="166.44540108740329742431640625">
        <ele>688</ele>
        <time>2016-08-12T18:41:45.000Z</time>
        <extensions>
          <ns3:TrackPointExtension>
            <ns3:atemp>16.0</ns3:atemp>
            <ns3:hr>136</ns3:hr>
          </ns3:TrackPointExtension>
        </extensions>
      </trkpt>
      <trkpt lat="-22.08423119969666004180908203125" lon="166.4453883469104766845703125">
        <ele>688</ele>
        <time>2016-08-12T18:41:46.000Z</time>
        <extensions>
          <ns3:TrackPointExtension>
            <ns3:atemp>16.0</ns3:atemp>
            <ns3:hr>137</ns3:hr>
          </ns3:TrackPointExtension>
        </extensions>
      </trkpt>
      <trkpt lat="-22.08421560935676097869873046875" lon="166.44537703134119510650634765625">
        <ele>688.4000244140625</ele>
        <time>2016-08-12T18:41:47.000Z</time>
        <extensions>
          <ns3:TrackPointExtension>
            <ns3:atemp>16.0</ns3:atemp>
            <ns3:hr>136</ns3:hr>
          </ns3:TrackPointExtension>
        </extensions>
      </trkpt>
      <trkpt lat="-22.08419700153172016143798828125" lon="166.44536864943802356719970703125">
        <ele>688.5999755859375</ele>
        <time>2016-08-12T18:41:48.000Z</time>
        <extensions>
          <ns3:TrackPointExtension>
            <ns3:atemp>16.0</ns3:atemp>
            <ns3:hr>137</ns3:hr>
          </ns3:TrackPointExtension>
        </extensions>
      </trkpt>
      <trkpt lat="-22.084180824458599090576171875" lon="166.44535875879228115081787109375">
        <ele>688.5999755859375</ele>
        <time>2016-08-12T18:41:49.000Z</time>
        <extensions>
          <ns3:TrackPointExtension>
            <ns3:atemp>16.0</ns3:atemp>
            <ns3:hr>137</ns3:hr>
          </ns3:TrackPointExtension>
        </extensions>
      </trkpt>
      <trkpt lat="-22.0841645635664463043212890625" lon="166.44534853287041187286376953125">
        <ele>688.79998779296875</ele>
        <time>2016-08-12T18:41:50.000Z</time>
        <extensions>
          <ns3:TrackPointExtension>
            <ns3:atemp>16.0</ns3:atemp>
            <ns3:hr>136</ns3:hr>
          </ns3:TrackPointExtension>
        </extensions>
      </trkpt>
      <trkpt lat="-22.08414855413138866424560546875" lon="166.44533914513885974884033203125">
        <ele>688.79998779296875</ele>
        <time>2016-08-12T18:41:51.000Z</time>
        <extensions>
          <ns3:TrackPointExtension>
            <ns3:atemp>16.0</ns3:atemp>
            <ns3:hr>137</ns3:hr>
          </ns3:TrackPointExtension>
        </extensions>
      </trkpt>
      <trkpt lat="-22.0841367356479167938232421875" lon="166.44533109851181507110595703125">
        <ele>688.79998779296875</ele>
        <time>2016-08-12T18:41:52.000Z</time>
        <extensions>
          <ns3:TrackPointExtension>
            <ns3:atemp>16.0</ns3:atemp>
            <ns3:hr>137</ns3:hr>
          </ns3:TrackPointExtension>
        </extensions>
      </trkpt>
      <trkpt lat="-22.08412542007863521575927734375" lon="166.4453194476664066314697265625">
        <ele>688.79998779296875</ele>
        <time>2016-08-12T18:41:53.000Z</time>
        <extensions>
          <ns3:TrackPointExtension>
            <ns3:atemp>16.0</ns3:atemp>
            <ns3:hr>136</ns3:hr>
          </ns3:TrackPointExtension>
        </extensions>
      </trkpt>
      <trkpt lat="-22.0841132663190364837646484375" lon="166.445308215916156768798828125">
        <ele>689.4000244140625</ele>
        <time>2016-08-12T18:41:54.000Z</time>
        <extensions>
          <ns3:TrackPointExtension>
            <ns3:atemp>16.0</ns3:atemp>
            <ns3:hr>137</ns3:hr>
          </ns3:TrackPointExtension>
        </extensions>
      </trkpt>
      <trkpt lat="-22.0841008611023426055908203125" lon="166.44529991783201694488525390625">
        <ele>689.79998779296875</ele>
        <time>2016-08-12T18:41:55.000Z</time>
        <extensions>
          <ns3:TrackPointExtension>
            <ns3:atemp>16.0</ns3:atemp>
            <ns3:hr>137</ns3:hr>
          </ns3:TrackPointExtension>
        </extensions>
      </trkpt>
      <trkpt lat="-22.0840899646282196044921875" lon="166.4452902786433696746826171875">
        <ele>690</ele>
        <time>2016-08-12T18:41:56.000Z</time>
        <extensions>
          <ns3:TrackPointExtension>
            <ns3:atemp>16.0</ns3:atemp>
            <ns3:hr>136</ns3:hr>
          </ns3:TrackPointExtension>
        </extensions>
      </trkpt>
      <trkpt lat="-22.08406892605125904083251953125" lon="166.44528164528310298919677734375">
        <ele>690.20001220703125</ele>
        <time>2016-08-12T18:41:57.000Z</time>
        <extensions>
          <ns3:TrackPointExtension>
            <ns3:atemp>16.0</ns3:atemp>
            <ns3:hr>137</ns3:hr>
          </ns3:TrackPointExtension>
        </extensions>
      </trkpt>
      <trkpt lat="-22.08405568264424800872802734375" lon="166.44527477212250232696533203125">
        <ele>690.20001220703125</ele>
        <time>2016-08-12T18:41:58.000Z</time>
        <extensions>
          <ns3:TrackPointExtension>
            <ns3:atemp>16.0</ns3:atemp>
            <ns3:hr>137</ns3:hr>
          </ns3:TrackPointExtension>
        </extensions>
      </trkpt>
      <trkpt lat="-22.08404227159917354583740234375" lon="166.4452664740383625030517578125">
        <ele>690</ele>
        <time>2016-08-12T18:41:59.000Z</time>
        <extensions>
          <ns3:TrackPointExtension>
            <ns3:atemp>16.0</ns3:atemp>
            <ns3:hr>136</ns3:hr>
          </ns3:TrackPointExtension>
        </extensions>
      </trkpt>
      <trkpt lat="-22.08403053693473339080810546875" lon="166.445258595049381256103515625">
        <ele>689.79998779296875</ele>
        <time>2016-08-12T18:42:00.000Z</time>
        <extensions>
          <ns3:TrackPointExtension>
            <ns3:atemp>16.0</ns3:atemp>
            <ns3:hr>136</ns3:hr>
          </ns3:TrackPointExtension>
        </extensions>
      </trkpt>
      <trkpt lat="-22.0840207301080226898193359375" lon="166.44525448791682720184326171875">
        <ele>689.79998779296875</ele>
        <time>2016-08-12T18:42:01.000Z</time>
        <extensions>
          <ns3:TrackPointExtension>
            <ns3:atemp>16.0</ns3:atemp>
            <ns3:hr>136</ns3:hr>
          </ns3:TrackPointExtension>
        </extensions>
      </trkpt>
      <trkpt lat="-22.0840089954435825347900390625" lon="166.44524878822267055511474609375">
        <ele>690</ele>
        <time>2016-08-12T18:42:02.000Z</time>
        <extensions>
          <ns3:TrackPointExtension>
            <ns3:atemp>16.0</ns3:atemp>
            <ns3:hr>136</ns3:hr>
          </ns3:TrackPointExtension>
        </extensions>
      </trkpt>
      <trkpt lat="-22.08399675786495208740234375" lon="166.4452419988811016082763671875">
        <ele>690.20001220703125</ele>
        <time>2016-08-12T18:42:03.000Z</time>
        <extensions>
          <ns3:TrackPointExtension>
            <ns3:atemp>16.0</ns3:atemp>
            <ns3:hr>137</ns3:hr>
          </ns3:TrackPointExtension>
        </extensions>
      </trkpt>
      <trkpt lat="-22.083980999886989593505859375" lon="166.445234455168247222900390625">
        <ele>690.5999755859375</ele>
        <time>2016-08-12T18:42:04.000Z</time>
        <extensions>
          <ns3:TrackPointExtension>
            <ns3:atemp>16.0</ns3:atemp>
            <ns3:hr>137</ns3:hr>
          </ns3:TrackPointExtension>
        </extensions>
      </trkpt>
      <trkpt lat="-22.0839667506515979766845703125" lon="166.44522079266607761383056640625">
        <ele>690.79998779296875</ele>
        <time>2016-08-12T18:42:05.000Z</time>
        <extensions>
          <ns3:TrackPointExtension>
            <ns3:atemp>16.0</ns3:atemp>
            <ns3:hr>137</ns3:hr>
          </ns3:TrackPointExtension>
        </extensions>
      </trkpt>
      <trkpt lat="-22.083952836692333221435546875" lon="166.44520570524036884307861328125">
        <ele>691.20001220703125</ele>
        <time>2016-08-12T18:42:06.000Z</time>
        <extensions>
          <ns3:TrackPointExtension>
            <ns3:atemp>16.0</ns3:atemp>
            <ns3:hr>137</ns3:hr>
          </ns3:TrackPointExtension>
        </extensions>
      </trkpt>
      <trkpt lat="-22.083938084542751312255859375" lon="166.44519564695656299591064453125">
        <ele>691.4000244140625</ele>
        <time>2016-08-12T18:42:07.000Z</time>
        <extensions>
          <ns3:TrackPointExtension>
            <ns3:atemp>16.0</ns3:atemp>
            <ns3:hr>137</ns3:hr>
          </ns3:TrackPointExtension>
        </extensions>
      </trkpt>
      <trkpt lat="-22.0839209854602813720703125" lon="166.44518944434821605682373046875">
        <ele>691.79998779296875</ele>
        <time>2016-08-12T18:42:08.000Z</time>
        <extensions>
          <ns3:TrackPointExtension>
            <ns3:atemp>16.0</ns3:atemp>
            <ns3:hr>137</ns3:hr>
          </ns3:TrackPointExtension>
        </extensions>
      </trkpt>
      <trkpt lat="-22.083900868892669677734375" lon="166.4451846666634082794189453125">
        <ele>692</ele>
        <time>2016-08-12T18:42:09.000Z</time>
        <extensions>
          <ns3:TrackPointExtension>
            <ns3:atemp>16.0</ns3:atemp>
            <ns3:hr>137</ns3:hr>
          </ns3:TrackPointExtension>
        </extensions>
      </trkpt>
      <trkpt lat="-22.08388653583824634552001953125" lon="166.44517603330314159393310546875">
        <ele>692.20001220703125</ele>
        <time>2016-08-12T18:42:10.000Z</time>
        <extensions>
          <ns3:TrackPointExtension>
            <ns3:atemp>16.0</ns3:atemp>
            <ns3:hr>137</ns3:hr>
          </ns3:TrackPointExtension>
        </extensions>
      </trkpt>
      <trkpt lat="-22.0838700234889984130859375" lon="166.44516798667609691619873046875">
        <ele>692.4000244140625</ele>
        <time>2016-08-12T18:42:11.000Z</time>
        <extensions>
          <ns3:TrackPointExtension>
            <ns3:atemp>16.0</ns3:atemp>
            <ns3:hr>138</ns3:hr>
          </ns3:TrackPointExtension>
        </extensions>
      </trkpt>
      <trkpt lat="-22.083847559988498687744140625" lon="166.44515809603035449981689453125">
        <ele>692.5999755859375</ele>
        <time>2016-08-12T18:42:12.000Z</time>
        <extensions>
          <ns3:TrackPointExtension>
            <ns3:atemp>16.0</ns3:atemp>
            <ns3:hr>138</ns3:hr>
          </ns3:TrackPointExtension>
        </extensions>
      </trkpt>
      <trkpt lat="-22.0838262699544429779052734375" lon="166.44514988176524639129638671875">
        <ele>692.5999755859375</ele>
        <time>2016-08-12T18:42:13.000Z</time>
        <extensions>
          <ns3:TrackPointExtension>
            <ns3:atemp>16.0</ns3:atemp>
            <ns3:hr>138</ns3:hr>
          </ns3:TrackPointExtension>
        </extensions>
      </trkpt>
      <trkpt lat="-22.0838078297674655914306640625" lon="166.44514418207108974456787109375">
        <ele>692.79998779296875</ele>
        <time>2016-08-12T18:42:14.000Z</time>
        <extensions>
          <ns3:TrackPointExtension>
            <ns3:atemp>16.0</ns3:atemp>
            <ns3:hr>139</ns3:hr>
          </ns3:TrackPointExtension>
        </extensions>
      </trkpt>
      <trkpt lat="-22.083791233599185943603515625" lon="166.44513512961566448211669921875">
        <ele>693.20001220703125</ele>
        <time>2016-08-12T18:42:15.000Z</time>
        <extensions>
          <ns3:TrackPointExtension>
            <ns3:atemp>16.0</ns3:atemp>
            <ns3:hr>139</ns3:hr>
          </ns3:TrackPointExtension>
        </extensions>
      </trkpt>
      <trkpt lat="-22.08377371542155742645263671875" lon="166.44512440077960491180419921875">
        <ele>693.4000244140625</ele>
        <time>2016-08-12T18:42:16.000Z</time>
        <extensions>
          <ns3:TrackPointExtension>
            <ns3:atemp>16.0</ns3:atemp>
            <ns3:hr>139</ns3:hr>
          </ns3:TrackPointExtension>
        </extensions>
      </trkpt>
      <trkpt lat="-22.0837541855871677398681640625" lon="166.44511451013386249542236328125">
        <ele>693.20001220703125</ele>
        <time>2016-08-12T18:42:17.000Z</time>
        <extensions>
          <ns3:TrackPointExtension>
            <ns3:atemp>16.0</ns3:atemp>
            <ns3:hr>139</ns3:hr>
          </ns3:TrackPointExtension>
        </extensions>
      </trkpt>
      <trkpt lat="-22.0837344042956829071044921875" lon="166.44510461948812007904052734375">
        <ele>693.4000244140625</ele>
        <time>2016-08-12T18:42:18.000Z</time>
        <extensions>
          <ns3:TrackPointExtension>
            <ns3:atemp>16.0</ns3:atemp>
            <ns3:hr>140</ns3:hr>
          </ns3:TrackPointExtension>
        </extensions>
      </trkpt>
      <trkpt lat="-22.08371671847999095916748046875" lon="166.4450971595942974090576171875">
        <ele>693.79998779296875</ele>
        <time>2016-08-12T18:42:19.000Z</time>
        <extensions>
          <ns3:TrackPointExtension>
            <ns3:atemp>16.0</ns3:atemp>
            <ns3:hr>140</ns3:hr>
          </ns3:TrackPointExtension>
        </extensions>
      </trkpt>
      <trkpt lat="-22.083699703216552734375" lon="166.4450904540717601776123046875">
        <ele>693.79998779296875</ele>
        <time>2016-08-12T18:42:20.000Z</time>
        <extensions>
          <ns3:TrackPointExtension>
            <ns3:atemp>16.0</ns3:atemp>
            <ns3:hr>140</ns3:hr>
          </ns3:TrackPointExtension>
        </extensions>
      </trkpt>
      <trkpt lat="-22.0836851187050342559814453125" lon="166.44508081488311290740966796875">
        <ele>694</ele>
        <time>2016-08-12T18:42:21.000Z</time>
        <extensions>
          <ns3:TrackPointExtension>
            <ns3:atemp>16.0</ns3:atemp>
            <ns3:hr>140</ns3:hr>
          </ns3:TrackPointExtension>
        </extensions>
      </trkpt>
      <trkpt lat="-22.0836693607270717620849609375" lon="166.4450713433325290679931640625">
        <ele>694</ele>
        <time>2016-08-12T18:42:22.000Z</time>
        <extensions>
          <ns3:TrackPointExtension>
            <ns3:atemp>16.0</ns3:atemp>
            <ns3:hr>140</ns3:hr>
          </ns3:TrackPointExtension>
        </extensions>
      </trkpt>
      <trkpt lat="-22.08365335129201412200927734375" lon="166.44506338052451610565185546875">
        <ele>694</ele>
        <time>2016-08-12T18:42:23.000Z</time>
        <extensions>
          <ns3:TrackPointExtension>
            <ns3:atemp>16.0</ns3:atemp>
            <ns3:hr>140</ns3:hr>
          </ns3:TrackPointExtension>
        </extensions>
      </trkpt>
      <trkpt lat="-22.08364002406597137451171875" lon="166.44505441188812255859375">
        <ele>694</ele>
        <time>2016-08-12T18:42:24.000Z</time>
        <extensions>
          <ns3:TrackPointExtension>
            <ns3:atemp>16.0</ns3:atemp>
            <ns3:hr>141</ns3:hr>
          </ns3:TrackPointExtension>
        </extensions>
      </trkpt>
      <trkpt lat="-22.08362468518316745758056640625" lon="166.44504846073687076568603515625">
        <ele>694.20001220703125</ele>
        <time>2016-08-12T18:42:25.000Z</time>
        <extensions>
          <ns3:TrackPointExtension>
            <ns3:atemp>16.0</ns3:atemp>
            <ns3:hr>140</ns3:hr>
          </ns3:TrackPointExtension>
        </extensions>
      </trkpt>
      <trkpt lat="-22.08361211232841014862060546875" lon="166.44503739662468433380126953125">
        <ele>694.4000244140625</ele>
        <time>2016-08-12T18:42:26.000Z</time>
        <extensions>
          <ns3:TrackPointExtension>
            <ns3:atemp>16.0</ns3:atemp>
            <ns3:hr>141</ns3:hr>
          </ns3:TrackPointExtension>
        </extensions>
      </trkpt>
      <trkpt lat="-22.08359970711171627044677734375" lon="166.44502113573253154754638671875">
        <ele>694.79998779296875</ele>
        <time>2016-08-12T18:42:27.000Z</time>
        <extensions>
          <ns3:TrackPointExtension>
            <ns3:atemp>16.0</ns3:atemp>
            <ns3:hr>141</ns3:hr>
          </ns3:TrackPointExtension>
        </extensions>
      </trkpt>
      <trkpt lat="-22.0835909061133861541748046875" lon="166.445004455745220184326171875">
        <ele>694.79998779296875</ele>
        <time>2016-08-12T18:42:28.000Z</time>
        <extensions>
          <ns3:TrackPointExtension>
            <ns3:atemp>16.0</ns3:atemp>
            <ns3:hr>140</ns3:hr>
          </ns3:TrackPointExtension>
        </extensions>
      </trkpt>
      <trkpt lat="-22.08357959054410457611083984375" lon="166.44498593173921108245849609375">
        <ele>695.20001220703125</ele>
        <time>2016-08-12T18:42:29.000Z</time>
        <extensions>
          <ns3:TrackPointExtension>
            <ns3:atemp>16.0</ns3:atemp>
            <ns3:hr>141</ns3:hr>
          </ns3:TrackPointExtension>
        </extensions>
      </trkpt>
      <trkpt lat="-22.08356534130871295928955078125" lon="166.444968916475772857666015625">
        <ele>695.4000244140625</ele>
        <time>2016-08-12T18:42:30.000Z</time>
        <extensions>
          <ns3:TrackPointExtension>
            <ns3:atemp>16.0</ns3:atemp>
            <ns3:hr>141</ns3:hr>
          </ns3:TrackPointExtension>
        </extensions>
      </trkpt>
      <trkpt lat="-22.083553187549114227294921875" lon="166.44495424814522266387939453125">
        <ele>695.4000244140625</ele>
        <time>2016-08-12T18:42:31.000Z</time>
        <extensions>
          <ns3:TrackPointExtension>
            <ns3:atemp>16.0</ns3:atemp>
            <ns3:hr>141</ns3:hr>
          </ns3:TrackPointExtension>
        </extensions>
      </trkpt>
      <trkpt lat="-22.0835406146943569183349609375" lon="166.444939412176609039306640625">
        <ele>695.5999755859375</ele>
        <time>2016-08-12T18:42:32.000Z</time>
        <extensions>
          <ns3:TrackPointExtension>
            <ns3:atemp>16.0</ns3:atemp>
            <ns3:hr>141</ns3:hr>
          </ns3:TrackPointExtension>
        </extensions>
      </trkpt>
      <trkpt lat="-22.083530724048614501953125" lon="166.44492139108479022979736328125">
        <ele>695.79998779296875</ele>
        <time>2016-08-12T18:42:33.000Z</time>
        <extensions>
          <ns3:TrackPointExtension>
            <ns3:atemp>16.0</ns3:atemp>
            <ns3:hr>141</ns3:hr>
          </ns3:TrackPointExtension>
        </extensions>
      </trkpt>
      <trkpt lat="-22.083520330488681793212890625" lon="166.444905214011669158935546875">
        <ele>695.5999755859375</ele>
        <time>2016-08-12T18:42:34.000Z</time>
        <extensions>
          <ns3:TrackPointExtension>
            <ns3:atemp>16.0</ns3:atemp>
            <ns3:hr>141</ns3:hr>
          </ns3:TrackPointExtension>
        </extensions>
      </trkpt>
      <trkpt lat="-22.08351119421422481536865234375" lon="166.4448899589478969573974609375">
        <ele>695.79998779296875</ele>
        <time>2016-08-12T18:42:35.000Z</time>
        <extensions>
          <ns3:TrackPointExtension>
            <ns3:atemp>16.0</ns3:atemp>
            <ns3:hr>141</ns3:hr>
          </ns3:TrackPointExtension>
        </extensions>
      </trkpt>
      <trkpt lat="-22.0835007168352603912353515625" lon="166.4448755420744419097900390625">
        <ele>695.79998779296875</ele>
        <time>2016-08-12T18:42:36.000Z</time>
        <extensions>
          <ns3:TrackPointExtension>
            <ns3:atemp>16.0</ns3:atemp>
            <ns3:hr>141</ns3:hr>
          </ns3:TrackPointExtension>
        </extensions>
      </trkpt>
      <trkpt lat="-22.083486802875995635986328125" lon="166.44486330449581146240234375">
        <ele>695.79998779296875</ele>
        <time>2016-08-12T18:42:37.000Z</time>
        <extensions>
          <ns3:TrackPointExtension>
            <ns3:atemp>16.0</ns3:atemp>
            <ns3:hr>140</ns3:hr>
          </ns3:TrackPointExtension>
        </extensions>
      </trkpt>
      <trkpt lat="-22.0834769122302532196044921875" lon="166.44485115073621273040771484375">
        <ele>696</ele>
        <time>2016-08-12T18:42:38.000Z</time>
        <extensions>
          <ns3:TrackPointExtension>
            <ns3:atemp>16.0</ns3:atemp>
            <ns3:hr>140</ns3:hr>
          </ns3:TrackPointExtension>
        </extensions>
      </trkpt>
      <trkpt lat="-22.0834671892225742340087890625" lon="166.44483690150082111358642578125">
        <ele>696</ele>
        <time>2016-08-12T18:42:39.000Z</time>
        <extensions>
          <ns3:TrackPointExtension>
            <ns3:atemp>16.0</ns3:atemp>
            <ns3:hr>140</ns3:hr>
          </ns3:TrackPointExtension>
        </extensions>
      </trkpt>
      <trkpt lat="-22.08345520310103893280029296875" lon="166.4448222331702709197998046875">
        <ele>695.79998779296875</ele>
        <time>2016-08-12T18:42:40.000Z</time>
        <extensions>
          <ns3:TrackPointExtension>
            <ns3:atemp>16.0</ns3:atemp>
            <ns3:hr>140</ns3:hr>
          </ns3:TrackPointExtension>
        </extensions>
      </trkpt>
      <trkpt lat="-22.08343693055212497711181640625" lon="166.44481376744806766510009765625">
        <ele>695.5999755859375</ele>
        <time>2016-08-12T18:42:41.000Z</time>
        <extensions>
          <ns3:TrackPointExtension>
            <ns3:atemp>16.0</ns3:atemp>
            <ns3:hr>141</ns3:hr>
          </ns3:TrackPointExtension>
        </extensions>
      </trkpt>
      <trkpt lat="-22.0834158919751644134521484375" lon="166.4448081515729427337646484375">
        <ele>695.79998779296875</ele>
        <time>2016-08-12T18:42:42.000Z</time>
        <extensions>
          <ns3:TrackPointExtension>
            <ns3:atemp>16.0</ns3:atemp>
            <ns3:hr>140</ns3:hr>
          </ns3:TrackPointExtension>
        </extensions>
      </trkpt>
      <trkpt lat="-22.0833907462656497955322265625" lon="166.44480831921100616455078125">
        <ele>695.79998779296875</ele>
        <time>2016-08-12T18:42:43.000Z</time>
        <extensions>
          <ns3:TrackPointExtension>
            <ns3:atemp>16.0</ns3:atemp>
            <ns3:hr>140</ns3:hr>
          </ns3:TrackPointExtension>
        </extensions>
      </trkpt>
      <trkpt lat="-22.08337037824094295501708984375" lon="166.444809995591640472412109375">
        <ele>695.5999755859375</ele>
        <time>2016-08-12T18:42:44.000Z</time>
        <extensions>
          <ns3:TrackPointExtension>
            <ns3:atemp>16.0</ns3:atemp>
            <ns3:hr>141</ns3:hr>
          </ns3:TrackPointExtension>
        </extensions>
      </trkpt>
      <trkpt lat="-22.08335445262491703033447265625" lon="166.44481242634356021881103515625">
        <ele>695.79998779296875</ele>
        <time>2016-08-12T18:42:45.000Z</time>
        <extensions>
          <ns3:TrackPointExtension>
            <ns3:atemp>16.0</ns3:atemp>
            <ns3:hr>140</ns3:hr>
          </ns3:TrackPointExtension>
        </extensions>
      </trkpt>
      <trkpt lat="-22.0833389461040496826171875" lon="166.44481712020933628082275390625">
        <ele>696</ele>
        <time>2016-08-12T18:42:46.000Z</time>
        <extensions>
          <ns3:TrackPointExtension>
            <ns3:atemp>16.0</ns3:atemp>
            <ns3:hr>140</ns3:hr>
          </ns3:TrackPointExtension>
        </extensions>
      </trkpt>
      <trkpt lat="-22.083326540887355804443359375" lon="166.444828100502490997314453125">
        <ele>696</ele>
        <time>2016-08-12T18:42:47.000Z</time>
        <extensions>
          <ns3:TrackPointExtension>
            <ns3:atemp>16.0</ns3:atemp>
            <ns3:hr>140</ns3:hr>
          </ns3:TrackPointExtension>
        </extensions>
      </trkpt>
      <trkpt lat="-22.083310447633266448974609375" lon="166.44483421929180622100830078125">
        <ele>696.20001220703125</ele>
        <time>2016-08-12T18:42:48.000Z</time>
        <extensions>
          <ns3:TrackPointExtension>
            <ns3:atemp>16.0</ns3:atemp>
            <ns3:hr>140</ns3:hr>
          </ns3:TrackPointExtension>
        </extensions>
      </trkpt>
      <trkpt lat="-22.0832898281514644622802734375" lon="166.44484511576592922210693359375">
        <ele>696.20001220703125</ele>
        <time>2016-08-12T18:42:49.000Z</time>
        <extensions>
          <ns3:TrackPointExtension>
            <ns3:atemp>16.0</ns3:atemp>
            <ns3:hr>139</ns3:hr>
          </ns3:TrackPointExtension>
        </extensions>
      </trkpt>
      <trkpt lat="-22.08327113650739192962646484375" lon="166.4448594488203525543212890625">
        <ele>696.4000244140625</ele>
        <time>2016-08-12T18:42:50.000Z</time>
        <extensions>
          <ns3:TrackPointExtension>
            <ns3:atemp>16.0</ns3:atemp>
            <ns3:hr>140</ns3:hr>
          </ns3:TrackPointExtension>
        </extensions>
      </trkpt>
      <trkpt lat="-22.083259485661983489990234375" lon="166.44486640579998493194580078125">
        <ele>696.5999755859375</ele>
        <time>2016-08-12T18:42:51.000Z</time>
        <extensions>
          <ns3:TrackPointExtension>
            <ns3:atemp>16.0</ns3:atemp>
            <ns3:hr>139</ns3:hr>
          </ns3:TrackPointExtension>
        </extensions>
      </trkpt>
      <trkpt lat="-22.0832449011504650115966796875" lon="166.4448711834847927093505859375">
        <ele>696.79998779296875</ele>
        <time>2016-08-12T18:42:52.000Z</time>
        <extensions>
          <ns3:TrackPointExtension>
            <ns3:atemp>16.0</ns3:atemp>
            <ns3:hr>139</ns3:hr>
          </ns3:TrackPointExtension>
        </extensions>
      </trkpt>
      <trkpt lat="-22.08323006518185138702392578125" lon="166.444877050817012786865234375">
        <ele>697</ele>
        <time>2016-08-12T18:42:53.000Z</time>
        <extensions>
          <ns3:TrackPointExtension>
            <ns3:atemp>16.0</ns3:atemp>
            <ns3:hr>139</ns3:hr>
          </ns3:TrackPointExtension>
        </extensions>
      </trkpt>
      <trkpt lat="-22.083216570317745208740234375" lon="166.444885767996311187744140625">
        <ele>697.20001220703125</ele>
        <time>2016-08-12T18:42:54.000Z</time>
        <extensions>
          <ns3:TrackPointExtension>
            <ns3:atemp>16.0</ns3:atemp>
            <ns3:hr>139</ns3:hr>
          </ns3:TrackPointExtension>
        </extensions>
      </trkpt>
      <trkpt lat="-22.08319745957851409912109375" lon="166.4448975026607513427734375">
        <ele>697.4000244140625</ele>
        <time>2016-08-12T18:42:55.000Z</time>
        <extensions>
          <ns3:TrackPointExtension>
            <ns3:atemp>16.0</ns3:atemp>
            <ns3:hr>139</ns3:hr>
          </ns3:TrackPointExtension>
        </extensions>
      </trkpt>
      <trkpt lat="-22.083187066018581390380859375" lon="166.4449104107916355133056640625">
        <ele>697.5999755859375</ele>
        <time>2016-08-12T18:42:56.000Z</time>
        <extensions>
          <ns3:TrackPointExtension>
            <ns3:atemp>16.0</ns3:atemp>
            <ns3:hr>139</ns3:hr>
          </ns3:TrackPointExtension>
        </extensions>
      </trkpt>
      <trkpt lat="-22.083184719085693359375" lon="166.44491887651383876800537109375">
        <ele>698</ele>
        <time>2016-08-12T18:42:57.000Z</time>
        <extensions>
          <ns3:TrackPointExtension>
            <ns3:atemp>16.0</ns3:atemp>
            <ns3:hr>139</ns3:hr>
          </ns3:TrackPointExtension>
        </extensions>
      </trkpt>
      <trkpt lat="-22.0831739902496337890625" lon="166.44492457620799541473388671875">
        <ele>698</ele>
        <time>2016-08-12T18:42:59.000Z</time>
        <extensions>
          <ns3:TrackPointExtension>
            <ns3:atemp>16.0</ns3:atemp>
            <ns3:hr>140</ns3:hr>
          </ns3:TrackPointExtension>
        </extensions>
      </trkpt>
      <trkpt lat="-22.0831637643277645111083984375" lon="166.44493077881634235382080078125">
        <ele>698.20001220703125</ele>
        <time>2016-08-12T18:43:00.000Z</time>
        <extensions>
          <ns3:TrackPointExtension>
            <ns3:atemp>16.0</ns3:atemp>
            <ns3:hr>140</ns3:hr>
          </ns3:TrackPointExtension>
        </extensions>
      </trkpt>
      <trkpt lat="-22.08315479569137096405029296875" lon="166.44493530504405498504638671875">
        <ele>698.4000244140625</ele>
        <time>2016-08-12T18:43:01.000Z</time>
        <extensions>
          <ns3:TrackPointExtension>
            <ns3:atemp>16.0</ns3:atemp>
            <ns3:hr>141</ns3:hr>
          </ns3:TrackPointExtension>
        </extensions>
      </trkpt>
      <trkpt lat="-22.083146162331104278564453125" lon="166.44493781961500644683837890625">
        <ele>698.5999755859375</ele>
        <time>2016-08-12T18:43:02.000Z</time>
        <extensions>
          <ns3:TrackPointExtension>
            <ns3:atemp>16.0</ns3:atemp>
            <ns3:hr>141</ns3:hr>
          </ns3:TrackPointExtension>
        </extensions>
      </trkpt>
      <trkpt lat="-22.0831389538943767547607421875" lon="166.4449375681579113006591796875">
        <ele>698.79998779296875</ele>
        <time>2016-08-12T18:43:03.000Z</time>
        <extensions>
          <ns3:TrackPointExtension>
            <ns3:atemp>16.0</ns3:atemp>
            <ns3:hr>140</ns3:hr>
          </ns3:TrackPointExtension>
        </extensions>
      </trkpt>
      <trkpt lat="-22.08312361501157283782958984375" lon="166.44493480212986469268798828125">
        <ele>698.79998779296875</ele>
        <time>2016-08-12T18:43:04.000Z</time>
        <extensions>
          <ns3:TrackPointExtension>
            <ns3:atemp>16.0</ns3:atemp>
            <ns3:hr>140</ns3:hr>
          </ns3:TrackPointExtension>
        </extensions>
      </trkpt>
      <trkpt lat="-22.08310768939554691314697265625" lon="166.44493438303470611572265625">
        <ele>698.79998779296875</ele>
        <time>2016-08-12T18:43:05.000Z</time>
        <extensions>
          <ns3:TrackPointExtension>
            <ns3:atemp>16.0</ns3:atemp>
            <ns3:hr>140</ns3:hr>
          </ns3:TrackPointExtension>
        </extensions>
      </trkpt>
      <trkpt lat="-22.0830916799604892730712890625" lon="166.44493396393954753875732421875">
        <ele>698.79998779296875</ele>
        <time>2016-08-12T18:43:06.000Z</time>
        <extensions>
          <ns3:TrackPointExtension>
            <ns3:atemp>16.0</ns3:atemp>
            <ns3:hr>141</ns3:hr>
          </ns3:TrackPointExtension>
        </extensions>
      </trkpt>
      <trkpt lat="-22.08307064138352870941162109375" lon="166.4449368976056575775146484375">
        <ele>698.79998779296875</ele>
        <time>2016-08-12T18:43:07.000Z</time>
        <extensions>
          <ns3:TrackPointExtension>
            <ns3:atemp>16.0</ns3:atemp>
            <ns3:hr>141</ns3:hr>
          </ns3:TrackPointExtension>
        </extensions>
      </trkpt>
      <trkpt lat="-22.0830521173775196075439453125" lon="166.44493631087243556976318359375">
        <ele>699</ele>
        <time>2016-08-12T18:43:08.000Z</time>
        <extensions>
          <ns3:TrackPointExtension>
            <ns3:atemp>16.0</ns3:atemp>
            <ns3:hr>141</ns3:hr>
          </ns3:TrackPointExtension>
        </extensions>
      </trkpt>
      <trkpt lat="-22.08302923478186130523681640625" lon="166.44493362866342067718505859375">
        <ele>699.20001220703125</ele>
        <time>2016-08-12T18:43:09.000Z</time>
        <extensions>
          <ns3:TrackPointExtension>
            <ns3:atemp>16.0</ns3:atemp>
            <ns3:hr>141</ns3:hr>
          </ns3:TrackPointExtension>
        </extensions>
      </trkpt>
      <trkpt lat="-22.08300693891942501068115234375" lon="166.44493170082569122314453125">
        <ele>699.4000244140625</ele>
        <time>2016-08-12T18:43:10.000Z</time>
        <extensions>
          <ns3:TrackPointExtension>
            <ns3:atemp>16.0</ns3:atemp>
            <ns3:hr>142</ns3:hr>
          </ns3:TrackPointExtension>
        </extensions>
      </trkpt>
      <trkpt lat="-22.08298346959054470062255859375" lon="166.44493211992084980010986328125">
        <ele>699.5999755859375</ele>
        <time>2016-08-12T18:43:11.000Z</time>
        <extensions>
          <ns3:TrackPointExtension>
            <ns3:atemp>16.0</ns3:atemp>
            <ns3:hr>142</ns3:hr>
          </ns3:TrackPointExtension>
        </extensions>
      </trkpt>
      <trkpt lat="-22.0829602517187595367431640625" lon="166.44493094645440578460693359375">
        <ele>699.79998779296875</ele>
        <time>2016-08-12T18:43:12.000Z</time>
        <extensions>
          <ns3:TrackPointExtension>
            <ns3:atemp>16.0</ns3:atemp>
            <ns3:hr>142</ns3:hr>
          </ns3:TrackPointExtension>
        </extensions>
      </trkpt>
      <trkpt lat="-22.08293996751308441162109375" lon="166.4449261687695980072021484375">
        <ele>699.79998779296875</ele>
        <time>2016-08-12T18:43:13.000Z</time>
        <extensions>
          <ns3:TrackPointExtension>
            <ns3:atemp>16.0</ns3:atemp>
            <ns3:hr>142</ns3:hr>
          </ns3:TrackPointExtension>
        </extensions>
      </trkpt>
      <trkpt lat="-22.08292043767869472503662109375" lon="166.44493144936859607696533203125">
        <ele>700</ele>
        <time>2016-08-12T18:43:14.000Z</time>
        <extensions>
          <ns3:TrackPointExtension>
            <ns3:atemp>16.0</ns3:atemp>
            <ns3:hr>142</ns3:hr>
          </ns3:TrackPointExtension>
        </extensions>
      </trkpt>
      <trkpt lat="-22.08290065638720989227294921875" lon="166.444935388863086700439453125">
        <ele>700.20001220703125</ele>
        <time>2016-08-12T18:43:15.000Z</time>
        <extensions>
          <ns3:TrackPointExtension>
            <ns3:atemp>16.0</ns3:atemp>
            <ns3:hr>142</ns3:hr>
          </ns3:TrackPointExtension>
        </extensions>
      </trkpt>
      <trkpt lat="-22.0828868262469768524169921875" lon="166.44494284875690937042236328125">
        <ele>700.20001220703125</ele>
        <time>2016-08-12T18:43:16.000Z</time>
        <extensions>
          <ns3:TrackPointExtension>
            <ns3:atemp>16.0</ns3:atemp>
            <ns3:hr>142</ns3:hr>
          </ns3:TrackPointExtension>
        </extensions>
      </trkpt>
      <trkpt lat="-22.08287014625966548919677734375" lon="166.4449509792029857635498046875">
        <ele>700.20001220703125</ele>
        <time>2016-08-12T18:43:17.000Z</time>
        <extensions>
          <ns3:TrackPointExtension>
            <ns3:atemp>16.0</ns3:atemp>
            <ns3:hr>143</ns3:hr>
          </ns3:TrackPointExtension>
        </extensions>
      </trkpt>
      <trkpt lat="-22.0828546397387981414794921875" lon="166.44495575688779354095458984375">
        <ele>700.5999755859375</ele>
        <time>2016-08-12T18:43:18.000Z</time>
        <extensions>
          <ns3:TrackPointExtension>
            <ns3:atemp>16.0</ns3:atemp>
            <ns3:hr>142</ns3:hr>
          </ns3:TrackPointExtension>
        </extensions>
      </trkpt>
      <trkpt lat="-22.082836367189884185791015625" lon="166.44495827145874500274658203125">
        <ele>700.5999755859375</ele>
        <time>2016-08-12T18:43:19.000Z</time>
        <extensions>
          <ns3:TrackPointExtension>
            <ns3:atemp>16.0</ns3:atemp>
            <ns3:hr>142</ns3:hr>
          </ns3:TrackPointExtension>
        </extensions>
      </trkpt>
      <trkpt lat="-22.08280895836651325225830078125" lon="166.4449647255241870880126953125">
        <ele>700.5999755859375</ele>
        <time>2016-08-12T18:43:20.000Z</time>
        <extensions>
          <ns3:TrackPointExtension>
            <ns3:atemp>16.0</ns3:atemp>
            <ns3:hr>142</ns3:hr>
          </ns3:TrackPointExtension>
        </extensions>
      </trkpt>
      <trkpt lat="-22.08278766833245754241943359375" lon="166.44497151486575603485107421875">
        <ele>700.4000244140625</ele>
        <time>2016-08-12T18:43:21.000Z</time>
        <extensions>
          <ns3:TrackPointExtension>
            <ns3:atemp>16.0</ns3:atemp>
            <ns3:hr>142</ns3:hr>
          </ns3:TrackPointExtension>
        </extensions>
      </trkpt>
      <trkpt lat="-22.0827684737741947174072265625" lon="166.44498324953019618988037109375">
        <ele>700.5999755859375</ele>
        <time>2016-08-12T18:43:22.000Z</time>
        <extensions>
          <ns3:TrackPointExtension>
            <ns3:atemp>16.0</ns3:atemp>
            <ns3:hr>142</ns3:hr>
          </ns3:TrackPointExtension>
        </extensions>
      </trkpt>
      <trkpt lat="-22.082752548158168792724609375" lon="166.44499582238495349884033203125">
        <ele>700.5999755859375</ele>
        <time>2016-08-12T18:43:23.000Z</time>
        <extensions>
          <ns3:TrackPointExtension>
            <ns3:atemp>16.0</ns3:atemp>
            <ns3:hr>141</ns3:hr>
          </ns3:TrackPointExtension>
        </extensions>
      </trkpt>
      <trkpt lat="-22.08273343741893768310546875" lon="166.44500990398228168487548828125">
        <ele>700.79998779296875</ele>
        <time>2016-08-12T18:43:24.000Z</time>
        <extensions>
          <ns3:TrackPointExtension>
            <ns3:atemp>16.0</ns3:atemp>
            <ns3:hr>141</ns3:hr>
          </ns3:TrackPointExtension>
        </extensions>
      </trkpt>
      <trkpt lat="-22.082715332508087158203125" lon="166.445024907588958740234375">
        <ele>700.79998779296875</ele>
        <time>2016-08-12T18:43:25.000Z</time>
        <extensions>
          <ns3:TrackPointExtension>
            <ns3:atemp>16.0</ns3:atemp>
            <ns3:hr>141</ns3:hr>
          </ns3:TrackPointExtension>
        </extensions>
      </trkpt>
      <trkpt lat="-22.08270284347236156463623046875" lon="166.445040665566921234130859375">
        <ele>701</ele>
        <time>2016-08-12T18:43:26.000Z</time>
        <extensions>
          <ns3:TrackPointExtension>
            <ns3:atemp>16.0</ns3:atemp>
            <ns3:hr>140</ns3:hr>
          </ns3:TrackPointExtension>
        </extensions>
      </trkpt>
      <trkpt lat="-22.08269513212144374847412109375" lon="166.4450575970113277435302734375">
        <ele>701</ele>
        <time>2016-08-12T18:43:27.000Z</time>
        <extensions>
          <ns3:TrackPointExtension>
            <ns3:atemp>16.0</ns3:atemp>
            <ns3:hr>140</ns3:hr>
          </ns3:TrackPointExtension>
        </extensions>
      </trkpt>
      <trkpt lat="-22.08268691785633563995361328125" lon="166.4450757019221782684326171875">
        <ele>701.4000244140625</ele>
        <time>2016-08-12T18:43:28.000Z</time>
        <extensions>
          <ns3:TrackPointExtension>
            <ns3:atemp>16.0</ns3:atemp>
            <ns3:hr>140</ns3:hr>
          </ns3:TrackPointExtension>
        </extensions>
      </trkpt>
      <trkpt lat="-22.08267870359122753143310546875" lon="166.44509187899529933929443359375">
        <ele>701.79998779296875</ele>
        <time>2016-08-12T18:43:29.000Z</time>
        <extensions>
          <ns3:TrackPointExtension>
            <ns3:atemp>16.0</ns3:atemp>
            <ns3:hr>140</ns3:hr>
          </ns3:TrackPointExtension>
        </extensions>
      </trkpt>
      <trkpt lat="-22.08266797475516796112060546875" lon="166.44510646350681781768798828125">
        <ele>701.79998779296875</ele>
        <time>2016-08-12T18:43:30.000Z</time>
        <extensions>
          <ns3:TrackPointExtension>
            <ns3:atemp>16.0</ns3:atemp>
            <ns3:hr>139</ns3:hr>
          </ns3:TrackPointExtension>
        </extensions>
      </trkpt>
      <trkpt lat="-22.08265833556652069091796875" lon="166.4451206289231777191162109375">
        <ele>702.20001220703125</ele>
        <time>2016-08-12T18:43:31.000Z</time>
        <extensions>
          <ns3:TrackPointExtension>
            <ns3:atemp>16.0</ns3:atemp>
            <ns3:hr>139</ns3:hr>
          </ns3:TrackPointExtension>
        </extensions>
      </trkpt>
      <trkpt lat="-22.08264349959790706634521484375" lon="166.44513688981533050537109375">
        <ele>702.20001220703125</ele>
        <time>2016-08-12T18:43:32.000Z</time>
        <extensions>
          <ns3:TrackPointExtension>
            <ns3:atemp>16.0</ns3:atemp>
            <ns3:hr>140</ns3:hr>
          </ns3:TrackPointExtension>
        </extensions>
      </trkpt>
      <trkpt lat="-22.08263042382895946502685546875" lon="166.44515306688845157623291015625">
        <ele>702.4000244140625</ele>
        <time>2016-08-12T18:43:33.000Z</time>
        <extensions>
          <ns3:TrackPointExtension>
            <ns3:atemp>16.0</ns3:atemp>
            <ns3:hr>139</ns3:hr>
          </ns3:TrackPointExtension>
        </extensions>
      </trkpt>
      <trkpt lat="-22.0826147496700286865234375" lon="166.445168741047382354736328125">
        <ele>702.5999755859375</ele>
        <time>2016-08-12T18:43:34.000Z</time>
        <extensions>
          <ns3:TrackPointExtension>
            <ns3:atemp>16.0</ns3:atemp>
            <ns3:hr>139</ns3:hr>
          </ns3:TrackPointExtension>
        </extensions>
      </trkpt>
      <trkpt lat="-22.0826005004346370697021484375" lon="166.44518114626407623291015625">
        <ele>702.79998779296875</ele>
        <time>2016-08-12T18:43:35.000Z</time>
        <extensions>
          <ns3:TrackPointExtension>
            <ns3:atemp>16.0</ns3:atemp>
            <ns3:hr>139</ns3:hr>
          </ns3:TrackPointExtension>
        </extensions>
      </trkpt>
      <trkpt lat="-22.082586586475372314453125" lon="166.44519321620464324951171875">
        <ele>703</ele>
        <time>2016-08-12T18:43:36.000Z</time>
        <extensions>
          <ns3:TrackPointExtension>
            <ns3:atemp>16.0</ns3:atemp>
            <ns3:hr>140</ns3:hr>
          </ns3:TrackPointExtension>
        </extensions>
      </trkpt>
      <trkpt lat="-22.08256982266902923583984375" lon="166.4452088065445423126220703125">
        <ele>703.20001220703125</ele>
        <time>2016-08-12T18:43:37.000Z</time>
        <extensions>
          <ns3:TrackPointExtension>
            <ns3:atemp>16.0</ns3:atemp>
            <ns3:hr>139</ns3:hr>
          </ns3:TrackPointExtension>
        </extensions>
      </trkpt>
      <trkpt lat="-22.08255515433847904205322265625" lon="166.44522137939929962158203125">
        <ele>703.4000244140625</ele>
        <time>2016-08-12T18:43:38.000Z</time>
        <extensions>
          <ns3:TrackPointExtension>
            <ns3:atemp>16.0</ns3:atemp>
            <ns3:hr>139</ns3:hr>
          </ns3:TrackPointExtension>
        </extensions>
      </trkpt>
      <trkpt lat="-22.08254140801727771759033203125" lon="166.44523655064404010772705078125">
        <ele>703.4000244140625</ele>
        <time>2016-08-12T18:43:39.000Z</time>
        <extensions>
          <ns3:TrackPointExtension>
            <ns3:atemp>16.0</ns3:atemp>
            <ns3:hr>140</ns3:hr>
          </ns3:TrackPointExtension>
        </extensions>
      </trkpt>
      <trkpt lat="-22.0825297571718692779541015625" lon="166.4452490396797657012939453125">
        <ele>703.5999755859375</ele>
        <time>2016-08-12T18:43:40.000Z</time>
        <extensions>
          <ns3:TrackPointExtension>
            <ns3:atemp>16.0</ns3:atemp>
            <ns3:hr>139</ns3:hr>
          </ns3:TrackPointExtension>
        </extensions>
      </trkpt>
      <trkpt lat="-22.082518525421619415283203125" lon="166.44526555202901363372802734375">
        <ele>703.5999755859375</ele>
        <time>2016-08-12T18:43:41.000Z</time>
        <extensions>
          <ns3:TrackPointExtension>
            <ns3:atemp>16.0</ns3:atemp>
            <ns3:hr>139</ns3:hr>
          </ns3:TrackPointExtension>
        </extensions>
      </trkpt>
      <trkpt lat="-22.08250720985233783721923828125" lon="166.44528198055922985076904296875">
        <ele>703.79998779296875</ele>
        <time>2016-08-12T18:43:42.000Z</time>
        <extensions>
          <ns3:TrackPointExtension>
            <ns3:atemp>16.0</ns3:atemp>
            <ns3:hr>139</ns3:hr>
          </ns3:TrackPointExtension>
        </extensions>
      </trkpt>
      <trkpt lat="-22.08249530754983425140380859375" lon="166.44529924727976322174072265625">
        <ele>704</ele>
        <time>2016-08-12T18:43:43.000Z</time>
        <extensions>
          <ns3:TrackPointExtension>
            <ns3:atemp>16.0</ns3:atemp>
            <ns3:hr>139</ns3:hr>
          </ns3:TrackPointExtension>
        </extensions>
      </trkpt>
      <trkpt lat="-22.08248776383697986602783203125" lon="166.44531500525772571563720703125">
        <ele>704.20001220703125</ele>
        <time>2016-08-12T18:43:44.000Z</time>
        <extensions>
          <ns3:TrackPointExtension>
            <ns3:atemp>16.0</ns3:atemp>
            <ns3:hr>139</ns3:hr>
          </ns3:TrackPointExtension>
        </extensions>
      </trkpt>
      <trkpt lat="-22.08247770555317401885986328125" lon="166.44532741047441959381103515625">
        <ele>704.4000244140625</ele>
        <time>2016-08-12T18:43:45.000Z</time>
        <extensions>
          <ns3:TrackPointExtension>
            <ns3:atemp>16.0</ns3:atemp>
            <ns3:hr>139</ns3:hr>
          </ns3:TrackPointExtension>
        </extensions>
      </trkpt>
      <trkpt lat="-22.0824673958122730255126953125" lon="166.4453415758907794952392578125">
        <ele>704.5999755859375</ele>
        <time>2016-08-12T18:43:46.000Z</time>
        <extensions>
          <ns3:TrackPointExtension>
            <ns3:atemp>16.0</ns3:atemp>
            <ns3:hr>139</ns3:hr>
          </ns3:TrackPointExtension>
        </extensions>
      </trkpt>
      <trkpt lat="-22.0824566669762134552001953125" lon="166.44536026753485202789306640625">
        <ele>704.79998779296875</ele>
        <time>2016-08-12T18:43:47.000Z</time>
        <extensions>
          <ns3:TrackPointExtension>
            <ns3:atemp>16.0</ns3:atemp>
            <ns3:hr>140</ns3:hr>
          </ns3:TrackPointExtension>
        </extensions>
      </trkpt>
      <trkpt lat="-22.082448787987232208251953125" lon="166.4453794620931148529052734375">
        <ele>704.79998779296875</ele>
        <time>2016-08-12T18:43:48.000Z</time>
        <extensions>
          <ns3:TrackPointExtension>
            <ns3:atemp>16.0</ns3:atemp>
            <ns3:hr>140</ns3:hr>
          </ns3:TrackPointExtension>
        </extensions>
      </trkpt>
      <trkpt lat="-22.0824409089982509613037109375" lon="166.44539882428944110870361328125">
        <ele>705</ele>
        <time>2016-08-12T18:43:49.000Z</time>
        <extensions>
          <ns3:TrackPointExtension>
            <ns3:atemp>16.0</ns3:atemp>
            <ns3:hr>139</ns3:hr>
          </ns3:TrackPointExtension>
        </extensions>
      </trkpt>
      <trkpt lat="-22.08242992870509624481201171875" lon="166.44541793502867221832275390625">
        <ele>705.20001220703125</ele>
        <time>2016-08-12T18:43:50.000Z</time>
        <extensions>
          <ns3:TrackPointExtension>
            <ns3:atemp>16.0</ns3:atemp>
            <ns3:hr>140</ns3:hr>
          </ns3:TrackPointExtension>
        </extensions>
      </trkpt>
      <trkpt lat="-22.08241785876452922821044921875" lon="166.4454384706914424896240234375">
        <ele>705.4000244140625</ele>
        <time>2016-08-12T18:43:51.000Z</time>
        <extensions>
          <ns3:TrackPointExtension>
            <ns3:atemp>16.0</ns3:atemp>
            <ns3:hr>140</ns3:hr>
          </ns3:TrackPointExtension>
        </extensions>
      </trkpt>
      <trkpt lat="-22.08240486681461334228515625" lon="166.44545665942132472991943359375">
        <ele>705.4000244140625</ele>
        <time>2016-08-12T18:43:52.000Z</time>
        <extensions>
          <ns3:TrackPointExtension>
            <ns3:atemp>16.0</ns3:atemp>
            <ns3:hr>140</ns3:hr>
          </ns3:TrackPointExtension>
        </extensions>
      </trkpt>
      <trkpt lat="-22.08239086903631687164306640625" lon="166.44547744654119014739990234375">
        <ele>705.79998779296875</ele>
        <time>2016-08-12T18:43:53.000Z</time>
        <extensions>
          <ns3:TrackPointExtension>
            <ns3:atemp>16.0</ns3:atemp>
            <ns3:hr>140</ns3:hr>
          </ns3:TrackPointExtension>
        </extensions>
      </trkpt>
      <trkpt lat="-22.08238265477120876312255859375" lon="166.4454971440136432647705078125">
        <ele>705.79998779296875</ele>
        <time>2016-08-12T18:43:54.000Z</time>
        <extensions>
          <ns3:TrackPointExtension>
            <ns3:atemp>16.0</ns3:atemp>
            <ns3:hr>140</ns3:hr>
          </ns3:TrackPointExtension>
        </extensions>
      </trkpt>
      <trkpt lat="-22.08237494342029094696044921875" lon="166.4455165900290012359619140625">
        <ele>706</ele>
        <time>2016-08-12T18:43:55.000Z</time>
        <extensions>
          <ns3:TrackPointExtension>
            <ns3:atemp>16.0</ns3:atemp>
            <ns3:hr>140</ns3:hr>
          </ns3:TrackPointExtension>
        </extensions>
      </trkpt>
      <trkpt lat="-22.08236572332680225372314453125" lon="166.44553645513951778411865234375">
        <ele>706.4000244140625</ele>
        <time>2016-08-12T18:43:56.000Z</time>
        <extensions>
          <ns3:TrackPointExtension>
            <ns3:atemp>16.0</ns3:atemp>
            <ns3:hr>140</ns3:hr>
          </ns3:TrackPointExtension>
        </extensions>
      </trkpt>
      <trkpt lat="-22.082359604537487030029296875" lon="166.44555238075554370880126953125">
        <ele>706.4000244140625</ele>
        <time>2016-08-12T18:43:57.000Z</time>
        <extensions>
          <ns3:TrackPointExtension>
            <ns3:atemp>16.0</ns3:atemp>
            <ns3:hr>140</ns3:hr>
          </ns3:TrackPointExtension>
        </extensions>
      </trkpt>
      <trkpt lat="-22.0823513902723789215087890625" lon="166.4455685578286647796630859375">
        <ele>706.5999755859375</ele>
        <time>2016-08-12T18:43:58.000Z</time>
        <extensions>
          <ns3:TrackPointExtension>
            <ns3:atemp>16.0</ns3:atemp>
            <ns3:hr>140</ns3:hr>
          </ns3:TrackPointExtension>
        </extensions>
      </trkpt>
      <trkpt lat="-22.08234594203531742095947265625" lon="166.44558490253984928131103515625">
        <ele>707</ele>
        <time>2016-08-12T18:43:59.000Z</time>
        <extensions>
          <ns3:TrackPointExtension>
            <ns3:atemp>16.0</ns3:atemp>
            <ns3:hr>140</ns3:hr>
          </ns3:TrackPointExtension>
        </extensions>
      </trkpt>
      <trkpt lat="-22.0823383145034313201904296875" lon="166.44560099579393863677978515625">
        <ele>707</ele>
        <time>2016-08-12T18:44:00.000Z</time>
        <extensions>
          <ns3:TrackPointExtension>
            <ns3:atemp>16.0</ns3:atemp>
            <ns3:hr>141</ns3:hr>
          </ns3:TrackPointExtension>
        </extensions>
      </trkpt>
      <trkpt lat="-22.0823277533054351806640625" lon="166.44561759196221828460693359375">
        <ele>707</ele>
        <time>2016-08-12T18:44:01.000Z</time>
        <extensions>
          <ns3:TrackPointExtension>
            <ns3:atemp>16.0</ns3:atemp>
            <ns3:hr>140</ns3:hr>
          </ns3:TrackPointExtension>
        </extensions>
      </trkpt>
      <trkpt lat="-22.08231635391712188720703125" lon="166.44563469104468822479248046875">
        <ele>707.4000244140625</ele>
        <time>2016-08-12T18:44:02.000Z</time>
        <extensions>
          <ns3:TrackPointExtension>
            <ns3:atemp>16.0</ns3:atemp>
            <ns3:hr>141</ns3:hr>
          </ns3:TrackPointExtension>
        </extensions>
      </trkpt>
      <trkpt lat="-22.08230294287204742431640625" lon="166.44565061666071414947509765625">
        <ele>707.5999755859375</ele>
        <time>2016-08-12T18:44:03.000Z</time>
        <extensions>
          <ns3:TrackPointExtension>
            <ns3:atemp>16.0</ns3:atemp>
            <ns3:hr>141</ns3:hr>
          </ns3:TrackPointExtension>
        </extensions>
      </trkpt>
      <trkpt lat="-22.08229447714984416961669921875" lon="166.4456677995622158050537109375">
        <ele>708</ele>
        <time>2016-08-12T18:44:04.000Z</time>
        <extensions>
          <ns3:TrackPointExtension>
            <ns3:atemp>16.0</ns3:atemp>
            <ns3:hr>140</ns3:hr>
          </ns3:TrackPointExtension>
        </extensions>
      </trkpt>
      <trkpt lat="-22.08228223957121372222900390625" lon="166.44568464718759059906005859375">
        <ele>708.20001220703125</ele>
        <time>2016-08-12T18:44:05.000Z</time>
        <extensions>
          <ns3:TrackPointExtension>
            <ns3:atemp>16.0</ns3:atemp>
            <ns3:hr>140</ns3:hr>
          </ns3:TrackPointExtension>
        </extensions>
      </trkpt>
      <trkpt lat="-22.08226933144032955169677734375" lon="166.4456986449658870697021484375">
        <ele>708.4000244140625</ele>
        <time>2016-08-12T18:44:06.000Z</time>
        <extensions>
          <ns3:TrackPointExtension>
            <ns3:atemp>16.0</ns3:atemp>
            <ns3:hr>140</ns3:hr>
          </ns3:TrackPointExtension>
        </extensions>
      </trkpt>
      <trkpt lat="-22.08225809969007968902587890625" lon="166.44570912234485149383544921875">
        <ele>708.5999755859375</ele>
        <time>2016-08-12T18:44:07.000Z</time>
        <extensions>
          <ns3:TrackPointExtension>
            <ns3:atemp>16.0</ns3:atemp>
            <ns3:hr>140</ns3:hr>
          </ns3:TrackPointExtension>
        </extensions>
      </trkpt>
      <trkpt lat="-22.0822446048259735107421875" lon="166.4457231201231479644775390625">
        <ele>708.79998779296875</ele>
        <time>2016-08-12T18:44:08.000Z</time>
        <extensions>
          <ns3:TrackPointExtension>
            <ns3:atemp>16.0</ns3:atemp>
            <ns3:hr>139</ns3:hr>
          </ns3:TrackPointExtension>
        </extensions>
      </trkpt>
      <trkpt lat="-22.08223312161862850189208984375" lon="166.4457375369966030120849609375">
        <ele>709.20001220703125</ele>
        <time>2016-08-12T18:44:09.000Z</time>
        <extensions>
          <ns3:TrackPointExtension>
            <ns3:atemp>16.0</ns3:atemp>
            <ns3:hr>139</ns3:hr>
          </ns3:TrackPointExtension>
        </extensions>
      </trkpt>
      <trkpt lat="-22.082220129668712615966796875" lon="166.445750109851360321044921875">
        <ele>709.20001220703125</ele>
        <time>2016-08-12T18:44:10.000Z</time>
        <extensions>
          <ns3:TrackPointExtension>
            <ns3:atemp>16.0</ns3:atemp>
            <ns3:hr>140</ns3:hr>
          </ns3:TrackPointExtension>
        </extensions>
      </trkpt>
      <trkpt lat="-22.08220780827105045318603515625" lon="166.445764862000942230224609375">
        <ele>709.4000244140625</ele>
        <time>2016-08-12T18:44:11.000Z</time>
        <extensions>
          <ns3:TrackPointExtension>
            <ns3:atemp>16.0</ns3:atemp>
            <ns3:hr>140</ns3:hr>
          </ns3:TrackPointExtension>
        </extensions>
      </trkpt>
      <trkpt lat="-22.08219791762530803680419921875" lon="166.44578087143599987030029296875">
        <ele>709.5999755859375</ele>
        <time>2016-08-12T18:44:12.000Z</time>
        <extensions>
          <ns3:TrackPointExtension>
            <ns3:atemp>16.0</ns3:atemp>
            <ns3:hr>139</ns3:hr>
          </ns3:TrackPointExtension>
        </extensions>
      </trkpt>
      <trkpt lat="-22.08218802697956562042236328125" lon="166.44579445011913776397705078125">
        <ele>709.79998779296875</ele>
        <time>2016-08-12T18:44:13.000Z</time>
        <extensions>
          <ns3:TrackPointExtension>
            <ns3:atemp>16.0</ns3:atemp>
            <ns3:hr>140</ns3:hr>
          </ns3:TrackPointExtension>
        </extensions>
      </trkpt>
      <trkpt lat="-22.08217822015285491943359375" lon="166.44581104628741741180419921875">
        <ele>709.79998779296875</ele>
        <time>2016-08-12T18:44:14.000Z</time>
        <extensions>
          <ns3:TrackPointExtension>
            <ns3:atemp>16.0</ns3:atemp>
            <ns3:hr>140</ns3:hr>
          </ns3:TrackPointExtension>
        </extensions>
      </trkpt>
      <trkpt lat="-22.08216623403131961822509765625" lon="166.44583183340728282928466796875">
        <ele>709.79998779296875</ele>
        <time>2016-08-12T18:44:15.000Z</time>
        <extensions>
          <ns3:TrackPointExtension>
            <ns3:atemp>16.0</ns3:atemp>
            <ns3:hr>139</ns3:hr>
          </ns3:TrackPointExtension>
        </extensions>
      </trkpt>
      <trkpt lat="-22.082152068614959716796875" lon="166.4458518661558628082275390625">
        <ele>710</ele>
        <time>2016-08-12T18:44:16.000Z</time>
        <extensions>
          <ns3:TrackPointExtension>
            <ns3:atemp>16.0</ns3:atemp>
            <ns3:hr>140</ns3:hr>
          </ns3:TrackPointExtension>
        </extensions>
      </trkpt>
      <trkpt lat="-22.08214343525469303131103515625" lon="166.445872820913791656494140625">
        <ele>710.20001220703125</ele>
        <time>2016-08-12T18:44:17.000Z</time>
        <extensions>
          <ns3:TrackPointExtension>
            <ns3:atemp>16.0</ns3:atemp>
            <ns3:hr>140</ns3:hr>
          </ns3:TrackPointExtension>
        </extensions>
      </trkpt>
      <trkpt lat="-22.08214075304567813873291015625" lon="166.4458926022052764892578125">
        <ele>710.20001220703125</ele>
        <time>2016-08-12T18:44:18.000Z</time>
        <extensions>
          <ns3:TrackPointExtension>
            <ns3:atemp>16.0</ns3:atemp>
            <ns3:hr>139</ns3:hr>
          </ns3:TrackPointExtension>
        </extensions>
      </trkpt>
      <trkpt lat="-22.08213773556053638458251953125" lon="166.44591196440160274505615234375">
        <ele>710.4000244140625</ele>
        <time>2016-08-12T18:44:19.000Z</time>
        <extensions>
          <ns3:TrackPointExtension>
            <ns3:atemp>16.0</ns3:atemp>
            <ns3:hr>139</ns3:hr>
          </ns3:TrackPointExtension>
        </extensions>
      </trkpt>
      <trkpt lat="-22.08213035948574542999267578125" lon="166.44592705182731151580810546875">
        <ele>710.5999755859375</ele>
        <time>2016-08-12T18:44:20.000Z</time>
        <extensions>
          <ns3:TrackPointExtension>
            <ns3:atemp>16.0</ns3:atemp>
            <ns3:hr>140</ns3:hr>
          </ns3:TrackPointExtension>
        </extensions>
      </trkpt>
      <trkpt lat="-22.08211644552648067474365234375" lon="166.445943228900432586669921875">
        <ele>710.5999755859375</ele>
        <time>2016-08-12T18:44:21.000Z</time>
        <extensions>
          <ns3:TrackPointExtension>
            <ns3:atemp>16.0</ns3:atemp>
            <ns3:hr>140</ns3:hr>
          </ns3:TrackPointExtension>
        </extensions>
      </trkpt>
      <trkpt lat="-22.082102783024311065673828125" lon="166.44596175290644168853759765625">
        <ele>710.5999755859375</ele>
        <time>2016-08-12T18:44:22.000Z</time>
        <extensions>
          <ns3:TrackPointExtension>
            <ns3:atemp>16.0</ns3:atemp>
            <ns3:hr>140</ns3:hr>
          </ns3:TrackPointExtension>
        </extensions>
      </trkpt>
      <trkpt lat="-22.08208710886538028717041015625" lon="166.44597901962697505950927734375">
        <ele>710.79998779296875</ele>
        <time>2016-08-12T18:44:23.000Z</time>
        <extensions>
          <ns3:TrackPointExtension>
            <ns3:atemp>16.0</ns3:atemp>
            <ns3:hr>140</ns3:hr>
          </ns3:TrackPointExtension>
        </extensions>
      </trkpt>
      <trkpt lat="-22.082070596516132354736328125" lon="166.4459923468530178070068359375">
        <ele>710.79998779296875</ele>
        <time>2016-08-12T18:44:24.000Z</time>
        <extensions>
          <ns3:TrackPointExtension>
            <ns3:atemp>16.0</ns3:atemp>
            <ns3:hr>140</ns3:hr>
          </ns3:TrackPointExtension>
        </extensions>
      </trkpt>
      <trkpt lat="-22.08205257542431354522705078125" lon="166.44600634463131427764892578125">
        <ele>711</ele>
        <time>2016-08-12T18:44:25.000Z</time>
        <extensions>
          <ns3:TrackPointExtension>
            <ns3:atemp>16.0</ns3:atemp>
            <ns3:hr>140</ns3:hr>
          </ns3:TrackPointExtension>
        </extensions>
      </trkpt>
      <trkpt lat="-22.082036398351192474365234375" lon="166.4460211805999279022216796875">
        <ele>711</ele>
        <time>2016-08-12T18:44:26.000Z</time>
        <extensions>
          <ns3:TrackPointExtension>
            <ns3:atemp>16.0</ns3:atemp>
            <ns3:hr>140</ns3:hr>
          </ns3:TrackPointExtension>
        </extensions>
      </trkpt>
      <trkpt lat="-22.0820224843919277191162109375" lon="166.44603719003498554229736328125">
        <ele>711.20001220703125</ele>
        <time>2016-08-12T18:44:27.000Z</time>
        <extensions>
          <ns3:TrackPointExtension>
            <ns3:atemp>16.0</ns3:atemp>
            <ns3:hr>140</ns3:hr>
          </ns3:TrackPointExtension>
        </extensions>
      </trkpt>
      <trkpt lat="-22.08201234228909015655517578125" lon="166.44605479203164577484130859375">
        <ele>711.4000244140625</ele>
        <time>2016-08-12T18:44:28.000Z</time>
        <extensions>
          <ns3:TrackPointExtension>
            <ns3:atemp>16.0</ns3:atemp>
            <ns3:hr>140</ns3:hr>
          </ns3:TrackPointExtension>
        </extensions>
      </trkpt>
      <trkpt lat="-22.08200446330010890960693359375" lon="166.4460723102092742919921875">
        <ele>711.4000244140625</ele>
        <time>2016-08-12T18:44:29.000Z</time>
        <extensions>
          <ns3:TrackPointExtension>
            <ns3:atemp>16.0</ns3:atemp>
            <ns3:hr>140</ns3:hr>
          </ns3:TrackPointExtension>
        </extensions>
      </trkpt>
      <trkpt lat="-22.081993483006954193115234375" lon="166.44608714617788791656494140625">
        <ele>711.5999755859375</ele>
        <time>2016-08-12T18:44:30.000Z</time>
        <extensions>
          <ns3:TrackPointExtension>
            <ns3:atemp>16.0</ns3:atemp>
            <ns3:hr>141</ns3:hr>
          </ns3:TrackPointExtension>
        </extensions>
      </trkpt>
      <trkpt lat="-22.081977389752864837646484375" lon="166.44610273651778697967529296875">
        <ele>711.5999755859375</ele>
        <time>2016-08-12T18:44:31.000Z</time>
        <extensions>
          <ns3:TrackPointExtension>
            <ns3:atemp>16.0</ns3:atemp>
            <ns3:hr>141</ns3:hr>
          </ns3:TrackPointExtension>
        </extensions>
      </trkpt>
      <trkpt lat="-22.081961296498775482177734375" lon="166.44612084142863750457763671875">
        <ele>711.5999755859375</ele>
        <time>2016-08-12T18:44:32.000Z</time>
        <extensions>
          <ns3:TrackPointExtension>
            <ns3:atemp>16.0</ns3:atemp>
            <ns3:hr>141</ns3:hr>
          </ns3:TrackPointExtension>
        </extensions>
      </trkpt>
      <trkpt lat="-22.0819522440433502197265625" lon="166.44613743759691715240478515625">
        <ele>711.79998779296875</ele>
        <time>2016-08-12T18:44:33.000Z</time>
        <extensions>
          <ns3:TrackPointExtension>
            <ns3:atemp>16.0</ns3:atemp>
            <ns3:hr>141</ns3:hr>
          </ns3:TrackPointExtension>
        </extensions>
      </trkpt>
      <trkpt lat="-22.081942856311798095703125" lon="166.44615051336586475372314453125">
        <ele>712.20001220703125</ele>
        <time>2016-08-12T18:44:34.000Z</time>
        <extensions>
          <ns3:TrackPointExtension>
            <ns3:atemp>16.0</ns3:atemp>
            <ns3:hr>141</ns3:hr>
          </ns3:TrackPointExtension>
        </extensions>
      </trkpt>
      <trkpt lat="-22.08193548023700714111328125" lon="166.446169205009937286376953125">
        <ele>712.20001220703125</ele>
        <time>2016-08-12T18:44:35.000Z</time>
        <extensions>
          <ns3:TrackPointExtension>
            <ns3:atemp>16.0</ns3:atemp>
            <ns3:hr>141</ns3:hr>
          </ns3:TrackPointExtension>
        </extensions>
      </trkpt>
      <trkpt lat="-22.081931121647357940673828125" lon="166.4461891539394855499267578125">
        <ele>712.4000244140625</ele>
        <time>2016-08-12T18:44:36.000Z</time>
        <extensions>
          <ns3:TrackPointExtension>
            <ns3:atemp>16.0</ns3:atemp>
            <ns3:hr>142</ns3:hr>
          </ns3:TrackPointExtension>
        </extensions>
      </trkpt>
      <trkpt lat="-22.08192382939159870147705078125" lon="166.446206755936145782470703125">
        <ele>712.79998779296875</ele>
        <time>2016-08-12T18:44:37.000Z</time>
        <extensions>
          <ns3:TrackPointExtension>
            <ns3:atemp>16.0</ns3:atemp>
            <ns3:hr>141</ns3:hr>
          </ns3:TrackPointExtension>
        </extensions>
      </trkpt>
      <trkpt lat="-22.08191745914518833160400390625" lon="166.44623097963631153106689453125">
        <ele>712.79998779296875</ele>
        <time>2016-08-12T18:44:38.000Z</time>
        <extensions>
          <ns3:TrackPointExtension>
            <ns3:atemp>16.0</ns3:atemp>
            <ns3:hr>141</ns3:hr>
          </ns3:TrackPointExtension>
        </extensions>
      </trkpt>
      <trkpt lat="-22.08190857432782649993896484375" lon="166.44625126384198665618896484375">
        <ele>713</ele>
        <time>2016-08-12T18:44:39.000Z</time>
        <extensions>
          <ns3:TrackPointExtension>
            <ns3:atemp>16.0</ns3:atemp>
            <ns3:hr>141</ns3:hr>
          </ns3:TrackPointExtension>
        </extensions>
      </trkpt>
      <trkpt lat="-22.081897258758544921875" lon="166.44626383669674396514892578125">
        <ele>713</ele>
        <time>2016-08-12T18:44:40.000Z</time>
        <extensions>
          <ns3:TrackPointExtension>
            <ns3:atemp>16.0</ns3:atemp>
            <ns3:hr>141</ns3:hr>
          </ns3:TrackPointExtension>
        </extensions>
      </trkpt>
      <trkpt lat="-22.0818813331425189971923828125" lon="166.44627657718956470489501953125">
        <ele>713</ele>
        <time>2016-08-12T18:44:41.000Z</time>
        <extensions>
          <ns3:TrackPointExtension>
            <ns3:atemp>16.0</ns3:atemp>
            <ns3:hr>141</ns3:hr>
          </ns3:TrackPointExtension>
        </extensions>
      </trkpt>
      <trkpt lat="-22.08186599425971508026123046875" lon="166.44628680311143398284912109375">
        <ele>713.4000244140625</ele>
        <time>2016-08-12T18:44:42.000Z</time>
        <extensions>
          <ns3:TrackPointExtension>
            <ns3:atemp>16.0</ns3:atemp>
            <ns3:hr>141</ns3:hr>
          </ns3:TrackPointExtension>
        </extensions>
      </trkpt>
      <trkpt lat="-22.0818555168807506561279296875" lon="166.44629635848104953765869140625">
        <ele>713.4000244140625</ele>
        <time>2016-08-12T18:44:43.000Z</time>
        <extensions>
          <ns3:TrackPointExtension>
            <ns3:atemp>16.0</ns3:atemp>
            <ns3:hr>141</ns3:hr>
          </ns3:TrackPointExtension>
        </extensions>
      </trkpt>
      <trkpt lat="-22.08183816634118556976318359375" lon="166.4463048242032527923583984375">
        <ele>713.5999755859375</ele>
        <time>2016-08-12T18:44:44.000Z</time>
        <extensions>
          <ns3:TrackPointExtension>
            <ns3:atemp>16.0</ns3:atemp>
            <ns3:hr>141</ns3:hr>
          </ns3:TrackPointExtension>
        </extensions>
      </trkpt>
      <trkpt lat="-22.081821151077747344970703125" lon="166.446307338774204254150390625">
        <ele>714</ele>
        <time>2016-08-12T18:44:45.000Z</time>
        <extensions>
          <ns3:TrackPointExtension>
            <ns3:atemp>16.0</ns3:atemp>
            <ns3:hr>141</ns3:hr>
          </ns3:TrackPointExtension>
        </extensions>
      </trkpt>
      <trkpt lat="-22.0818008668720722198486328125" lon="166.44630708731710910797119140625">
        <ele>714.20001220703125</ele>
        <time>2016-08-12T18:44:46.000Z</time>
        <extensions>
          <ns3:TrackPointExtension>
            <ns3:atemp>16.0</ns3:atemp>
            <ns3:hr>140</ns3:hr>
          </ns3:TrackPointExtension>
        </extensions>
      </trkpt>
      <trkpt lat="-22.08178393542766571044921875" lon="166.44630205817520618438720703125">
        <ele>714.4000244140625</ele>
        <time>2016-08-12T18:44:47.000Z</time>
        <extensions>
          <ns3:TrackPointExtension>
            <ns3:atemp>16.0</ns3:atemp>
            <ns3:hr>141</ns3:hr>
          </ns3:TrackPointExtension>
        </extensions>
      </trkpt>
      <trkpt lat="-22.081764824688434600830078125" lon="166.4462924189865589141845703125">
        <ele>714.5999755859375</ele>
        <time>2016-08-12T18:44:48.000Z</time>
        <extensions>
          <ns3:TrackPointExtension>
            <ns3:atemp>16.0</ns3:atemp>
            <ns3:hr>141</ns3:hr>
          </ns3:TrackPointExtension>
        </extensions>
      </trkpt>
      <trkpt lat="-22.0817452110350131988525390625" lon="166.44627925939857959747314453125">
        <ele>715</ele>
        <time>2016-08-12T18:44:49.000Z</time>
        <extensions>
          <ns3:TrackPointExtension>
            <ns3:atemp>16.0</ns3:atemp>
            <ns3:hr>141</ns3:hr>
          </ns3:TrackPointExtension>
        </extensions>
      </trkpt>
      <trkpt lat="-22.08173029124736785888671875" lon="166.44626450724899768829345703125">
        <ele>715</ele>
        <time>2016-08-12T18:44:50.000Z</time>
        <extensions>
          <ns3:TrackPointExtension>
            <ns3:atemp>16.0</ns3:atemp>
            <ns3:hr>141</ns3:hr>
          </ns3:TrackPointExtension>
        </extensions>
      </trkpt>
      <trkpt lat="-22.0817193947732448577880859375" lon="166.44625000655651092529296875">
        <ele>715.4000244140625</ele>
        <time>2016-08-12T18:44:51.000Z</time>
        <extensions>
          <ns3:TrackPointExtension>
            <ns3:atemp>16.0</ns3:atemp>
            <ns3:hr>141</ns3:hr>
          </ns3:TrackPointExtension>
        </extensions>
      </trkpt>
      <trkpt lat="-22.08170640282332897186279296875" lon="166.44623835571110248565673828125">
        <ele>715.5999755859375</ele>
        <time>2016-08-12T18:44:52.000Z</time>
        <extensions>
          <ns3:TrackPointExtension>
            <ns3:atemp>16.0</ns3:atemp>
            <ns3:hr>140</ns3:hr>
          </ns3:TrackPointExtension>
        </extensions>
      </trkpt>
      <trkpt lat="-22.0816915668547153472900390625" lon="166.44622829742729663848876953125">
        <ele>715.5999755859375</ele>
        <time>2016-08-12T18:44:53.000Z</time>
        <extensions>
          <ns3:TrackPointExtension>
            <ns3:atemp>16.0</ns3:atemp>
            <ns3:hr>141</ns3:hr>
          </ns3:TrackPointExtension>
        </extensions>
      </trkpt>
      <trkpt lat="-22.08167455159127712249755859375" lon="166.4462193287909030914306640625">
        <ele>716</ele>
        <time>2016-08-12T18:44:54.000Z</time>
        <extensions>
          <ns3:TrackPointExtension>
            <ns3:atemp>16.0</ns3:atemp>
            <ns3:hr>141</ns3:hr>
          </ns3:TrackPointExtension>
        </extensions>
      </trkpt>
      <trkpt lat="-22.081655524671077728271484375" lon="166.4462079294025897979736328125">
        <ele>716</ele>
        <time>2016-08-12T18:44:55.000Z</time>
        <extensions>
          <ns3:TrackPointExtension>
            <ns3:atemp>16.0</ns3:atemp>
            <ns3:hr>140</ns3:hr>
          </ns3:TrackPointExtension>
        </extensions>
      </trkpt>
      <trkpt lat="-22.08163683302700519561767578125" lon="166.44619778729975223541259765625">
        <ele>716.20001220703125</ele>
        <time>2016-08-12T18:44:56.000Z</time>
        <extensions>
          <ns3:TrackPointExtension>
            <ns3:atemp>16.0</ns3:atemp>
            <ns3:hr>140</ns3:hr>
          </ns3:TrackPointExtension>
        </extensions>
      </trkpt>
      <trkpt lat="-22.0816231705248355865478515625" lon="166.4461884833872318267822265625">
        <ele>716.5999755859375</ele>
        <time>2016-08-12T18:44:57.000Z</time>
        <extensions>
          <ns3:TrackPointExtension>
            <ns3:atemp>16.0</ns3:atemp>
            <ns3:hr>141</ns3:hr>
          </ns3:TrackPointExtension>
        </extensions>
      </trkpt>
      <trkpt lat="-22.08160850219428539276123046875" lon="166.4461817778646945953369140625">
        <ele>717</ele>
        <time>2016-08-12T18:44:58.000Z</time>
        <extensions>
          <ns3:TrackPointExtension>
            <ns3:atemp>16.0</ns3:atemp>
            <ns3:hr>140</ns3:hr>
          </ns3:TrackPointExtension>
        </extensions>
      </trkpt>
      <trkpt lat="-22.08159760572016239166259765625" lon="166.44617465324699878692626953125">
        <ele>717</ele>
        <time>2016-08-12T18:44:59.000Z</time>
        <extensions>
          <ns3:TrackPointExtension>
            <ns3:atemp>16.0</ns3:atemp>
            <ns3:hr>140</ns3:hr>
          </ns3:TrackPointExtension>
        </extensions>
      </trkpt>
      <trkpt lat="-22.08158679306507110595703125" lon="166.44616962410509586334228515625">
        <ele>717</ele>
        <time>2016-08-12T18:45:00.000Z</time>
        <extensions>
          <ns3:TrackPointExtension>
            <ns3:atemp>16.0</ns3:atemp>
            <ns3:hr>141</ns3:hr>
          </ns3:TrackPointExtension>
        </extensions>
      </trkpt>
      <trkpt lat="-22.08157178945839405059814453125" lon="166.44616392441093921661376953125">
        <ele>717.20001220703125</ele>
        <time>2016-08-12T18:45:01.000Z</time>
        <extensions>
          <ns3:TrackPointExtension>
            <ns3:atemp>16.0</ns3:atemp>
            <ns3:hr>141</ns3:hr>
          </ns3:TrackPointExtension>
        </extensions>
      </trkpt>
      <trkpt lat="-22.08155971951782703399658203125" lon="166.44615805707871913909912109375">
        <ele>717.79998779296875</ele>
        <time>2016-08-12T18:45:02.000Z</time>
        <extensions>
          <ns3:TrackPointExtension>
            <ns3:atemp>16.0</ns3:atemp>
            <ns3:hr>140</ns3:hr>
          </ns3:TrackPointExtension>
        </extensions>
      </trkpt>
      <trkpt lat="-22.0815499126911163330078125" lon="166.446151770651340484619140625">
        <ele>718.20001220703125</ele>
        <time>2016-08-12T18:45:03.000Z</time>
        <extensions>
          <ns3:TrackPointExtension>
            <ns3:atemp>16.0</ns3:atemp>
            <ns3:hr>140</ns3:hr>
          </ns3:TrackPointExtension>
        </extensions>
      </trkpt>
      <trkpt lat="-22.08153725601732730865478515625" lon="166.446144394576549530029296875">
        <ele>718.4000244140625</ele>
        <time>2016-08-12T18:45:04.000Z</time>
        <extensions>
          <ns3:TrackPointExtension>
            <ns3:atemp>16.0</ns3:atemp>
            <ns3:hr>141</ns3:hr>
          </ns3:TrackPointExtension>
        </extensions>
      </trkpt>
      <trkpt lat="-22.0815262757241725921630859375" lon="166.44613307900726795196533203125">
        <ele>718.5999755859375</ele>
        <time>2016-08-12T18:45:05.000Z</time>
        <extensions>
          <ns3:TrackPointExtension>
            <ns3:atemp>16.0</ns3:atemp>
            <ns3:hr>140</ns3:hr>
          </ns3:TrackPointExtension>
        </extensions>
      </trkpt>
      <trkpt lat="-22.081516720354557037353515625" lon="166.44612905569374561309814453125">
        <ele>718.5999755859375</ele>
        <time>2016-08-12T18:45:06.000Z</time>
        <extensions>
          <ns3:TrackPointExtension>
            <ns3:atemp>16.0</ns3:atemp>
            <ns3:hr>140</ns3:hr>
          </ns3:TrackPointExtension>
        </extensions>
      </trkpt>
      <trkpt lat="-22.08150523714721202850341796875" lon="166.44612318836152553558349609375">
        <ele>718.79998779296875</ele>
        <time>2016-08-12T18:45:07.000Z</time>
        <extensions>
          <ns3:TrackPointExtension>
            <ns3:atemp>16.0</ns3:atemp>
            <ns3:hr>140</ns3:hr>
          </ns3:TrackPointExtension>
        </extensions>
      </trkpt>
      <trkpt lat="-22.081488557159900665283203125" lon="166.4461150579154491424560546875">
        <ele>719</ele>
        <time>2016-08-12T18:45:08.000Z</time>
        <extensions>
          <ns3:TrackPointExtension>
            <ns3:atemp>16.0</ns3:atemp>
            <ns3:hr>140</ns3:hr>
          </ns3:TrackPointExtension>
        </extensions>
      </trkpt>
      <trkpt lat="-22.08147036843001842498779296875" lon="166.44610508345067501068115234375">
        <ele>719</ele>
        <time>2016-08-12T18:45:09.000Z</time>
        <extensions>
          <ns3:TrackPointExtension>
            <ns3:atemp>16.0</ns3:atemp>
            <ns3:hr>140</ns3:hr>
          </ns3:TrackPointExtension>
        </extensions>
      </trkpt>
      <trkpt lat="-22.08145578391849994659423828125" lon="166.44609351642429828643798828125">
        <ele>719.20001220703125</ele>
        <time>2016-08-12T18:45:10.000Z</time>
        <extensions>
          <ns3:TrackPointExtension>
            <ns3:atemp>16.0</ns3:atemp>
            <ns3:hr>140</ns3:hr>
          </ns3:TrackPointExtension>
        </extensions>
      </trkpt>
      <trkpt lat="-22.0814399421215057373046875" lon="166.44608144648373126983642578125">
        <ele>719.20001220703125</ele>
        <time>2016-08-12T18:45:11.000Z</time>
        <extensions>
          <ns3:TrackPointExtension>
            <ns3:atemp>16.0</ns3:atemp>
            <ns3:hr>140</ns3:hr>
          </ns3:TrackPointExtension>
        </extensions>
      </trkpt>
      <trkpt lat="-22.08142477087676525115966796875" lon="166.446069292724132537841796875">
        <ele>719.20001220703125</ele>
        <time>2016-08-12T18:45:12.000Z</time>
        <extensions>
          <ns3:TrackPointExtension>
            <ns3:atemp>16.0</ns3:atemp>
            <ns3:hr>140</ns3:hr>
          </ns3:TrackPointExtension>
        </extensions>
      </trkpt>
      <trkpt lat="-22.081410773098468780517578125" lon="166.44605764187872409820556640625">
        <ele>719.5999755859375</ele>
        <time>2016-08-12T18:45:13.000Z</time>
        <extensions>
          <ns3:TrackPointExtension>
            <ns3:atemp>16.0</ns3:atemp>
            <ns3:hr>140</ns3:hr>
          </ns3:TrackPointExtension>
        </extensions>
      </trkpt>
      <trkpt lat="-22.0813968591392040252685546875" lon="166.4460449852049350738525390625">
        <ele>719.79998779296875</ele>
        <time>2016-08-12T18:45:14.000Z</time>
        <extensions>
          <ns3:TrackPointExtension>
            <ns3:atemp>16.0</ns3:atemp>
            <ns3:hr>141</ns3:hr>
          </ns3:TrackPointExtension>
        </extensions>
      </trkpt>
      <trkpt lat="-22.08138403482735157012939453125" lon="166.44603283144533634185791015625">
        <ele>719.79998779296875</ele>
        <time>2016-08-12T18:45:15.000Z</time>
        <extensions>
          <ns3:TrackPointExtension>
            <ns3:atemp>16.0</ns3:atemp>
            <ns3:hr>140</ns3:hr>
          </ns3:TrackPointExtension>
        </extensions>
      </trkpt>
      <trkpt lat="-22.08137355744838714599609375" lon="166.4460201747715473175048828125">
        <ele>719.79998779296875</ele>
        <time>2016-08-12T18:45:16.000Z</time>
        <extensions>
          <ns3:TrackPointExtension>
            <ns3:atemp>16.0</ns3:atemp>
            <ns3:hr>141</ns3:hr>
          </ns3:TrackPointExtension>
        </extensions>
      </trkpt>
      <trkpt lat="-22.0813586376607418060302734375" lon="166.4460054226219654083251953125">
        <ele>719.79998779296875</ele>
        <time>2016-08-12T18:45:17.000Z</time>
        <extensions>
          <ns3:TrackPointExtension>
            <ns3:atemp>16.0</ns3:atemp>
            <ns3:hr>141</ns3:hr>
          </ns3:TrackPointExtension>
        </extensions>
      </trkpt>
      <trkpt lat="-22.08134111948311328887939453125" lon="166.44599192775785923004150390625">
        <ele>719.5999755859375</ele>
        <time>2016-08-12T18:45:18.000Z</time>
        <extensions>
          <ns3:TrackPointExtension>
            <ns3:atemp>16.0</ns3:atemp>
            <ns3:hr>141</ns3:hr>
          </ns3:TrackPointExtension>
        </extensions>
      </trkpt>
      <trkpt lat="-22.0813230983912944793701171875" lon="166.445978768169879913330078125">
        <ele>720</ele>
        <time>2016-08-12T18:45:19.000Z</time>
        <extensions>
          <ns3:TrackPointExtension>
            <ns3:atemp>16.0</ns3:atemp>
            <ns3:hr>141</ns3:hr>
          </ns3:TrackPointExtension>
        </extensions>
      </trkpt>
      <trkpt lat="-22.0813036523759365081787109375" lon="166.445963680744171142578125">
        <ele>720</ele>
        <time>2016-08-12T18:45:20.000Z</time>
        <extensions>
          <ns3:TrackPointExtension>
            <ns3:atemp>16.0</ns3:atemp>
            <ns3:hr>142</ns3:hr>
          </ns3:TrackPointExtension>
        </extensions>
      </trkpt>
      <trkpt lat="-22.08128445781767368316650390625" lon="166.44595454446971416473388671875">
        <ele>720.20001220703125</ele>
        <time>2016-08-12T18:45:21.000Z</time>
        <extensions>
          <ns3:TrackPointExtension>
            <ns3:atemp>16.0</ns3:atemp>
            <ns3:hr>142</ns3:hr>
          </ns3:TrackPointExtension>
        </extensions>
      </trkpt>
      <trkpt lat="-22.081263922154903411865234375" lon="166.4459484256803989410400390625">
        <ele>720.4000244140625</ele>
        <time>2016-08-12T18:45:22.000Z</time>
        <extensions>
          <ns3:TrackPointExtension>
            <ns3:atemp>16.0</ns3:atemp>
            <ns3:hr>142</ns3:hr>
          </ns3:TrackPointExtension>
        </extensions>
      </trkpt>
      <trkpt lat="-22.08124472759664058685302734375" lon="166.445947252213954925537109375">
        <ele>720.20001220703125</ele>
        <time>2016-08-12T18:45:23.000Z</time>
        <extensions>
          <ns3:TrackPointExtension>
            <ns3:atemp>16.0</ns3:atemp>
            <ns3:hr>142</ns3:hr>
          </ns3:TrackPointExtension>
        </extensions>
      </trkpt>
      <trkpt lat="-22.08122578449547290802001953125" lon="166.4459511078894138336181640625">
        <ele>720.20001220703125</ele>
        <time>2016-08-12T18:45:24.000Z</time>
        <extensions>
          <ns3:TrackPointExtension>
            <ns3:atemp>16.0</ns3:atemp>
            <ns3:hr>142</ns3:hr>
          </ns3:TrackPointExtension>
        </extensions>
      </trkpt>
      <trkpt lat="-22.08121404983103275299072265625" lon="166.44596108235418796539306640625">
        <ele>720</ele>
        <time>2016-08-12T18:45:25.000Z</time>
        <extensions>
          <ns3:TrackPointExtension>
            <ns3:atemp>16.0</ns3:atemp>
            <ns3:hr>142</ns3:hr>
          </ns3:TrackPointExtension>
        </extensions>
      </trkpt>
      <trkpt lat="-22.08120164461433887481689453125" lon="166.445978768169879913330078125">
        <ele>720</ele>
        <time>2016-08-12T18:45:26.000Z</time>
        <extensions>
          <ns3:TrackPointExtension>
            <ns3:atemp>16.0</ns3:atemp>
            <ns3:hr>142</ns3:hr>
          </ns3:TrackPointExtension>
        </extensions>
      </trkpt>
      <trkpt lat="-22.08119141869246959686279296875" lon="166.44599729217588901519775390625">
        <ele>720.20001220703125</ele>
        <time>2016-08-12T18:45:27.000Z</time>
        <extensions>
          <ns3:TrackPointExtension>
            <ns3:atemp>16.0</ns3:atemp>
            <ns3:hr>142</ns3:hr>
          </ns3:TrackPointExtension>
        </extensions>
      </trkpt>
      <trkpt lat="-22.08118152804672718048095703125" lon="166.44601942040026187896728515625">
        <ele>720.20001220703125</ele>
        <time>2016-08-12T18:45:28.000Z</time>
        <extensions>
          <ns3:TrackPointExtension>
            <ns3:atemp>16.0</ns3:atemp>
            <ns3:hr>142</ns3:hr>
          </ns3:TrackPointExtension>
        </extensions>
      </trkpt>
      <trkpt lat="-22.081175744533538818359375" lon="166.44604641012847423553466796875">
        <ele>720.4000244140625</ele>
        <time>2016-08-12T18:45:29.000Z</time>
        <extensions>
          <ns3:TrackPointExtension>
            <ns3:atemp>16.0</ns3:atemp>
            <ns3:hr>142</ns3:hr>
          </ns3:TrackPointExtension>
        </extensions>
      </trkpt>
      <trkpt lat="-22.0811745710670948028564453125" lon="166.44606971181929111480712890625">
        <ele>720.4000244140625</ele>
        <time>2016-08-12T18:45:30.000Z</time>
        <extensions>
          <ns3:TrackPointExtension>
            <ns3:atemp>16.0</ns3:atemp>
            <ns3:hr>142</ns3:hr>
          </ns3:TrackPointExtension>
        </extensions>
      </trkpt>
      <trkpt lat="-22.0811782591044902801513671875" lon="166.4460956119000911712646484375">
        <ele>720.4000244140625</ele>
        <time>2016-08-12T18:45:31.000Z</time>
        <extensions>
          <ns3:TrackPointExtension>
            <ns3:atemp>16.0</ns3:atemp>
            <ns3:hr>142</ns3:hr>
          </ns3:TrackPointExtension>
        </extensions>
      </trkpt>
      <trkpt lat="-22.0811769179999828338623046875" lon="166.44612260162830352783203125">
        <ele>720.5999755859375</ele>
        <time>2016-08-12T18:45:32.000Z</time>
        <extensions>
          <ns3:TrackPointExtension>
            <ns3:atemp>16.0</ns3:atemp>
            <ns3:hr>142</ns3:hr>
          </ns3:TrackPointExtension>
        </extensions>
      </trkpt>
      <trkpt lat="-22.08117884583771228790283203125" lon="166.4461462385952472686767578125">
        <ele>720.79998779296875</ele>
        <time>2016-08-12T18:45:33.000Z</time>
        <extensions>
          <ns3:TrackPointExtension>
            <ns3:atemp>16.0</ns3:atemp>
            <ns3:hr>142</ns3:hr>
          </ns3:TrackPointExtension>
        </extensions>
      </trkpt>
      <trkpt lat="-22.08117884583771228790283203125" lon="166.4461680315434932708740234375">
        <ele>721</ele>
        <time>2016-08-12T18:45:34.000Z</time>
        <extensions>
          <ns3:TrackPointExtension>
            <ns3:atemp>16.0</ns3:atemp>
            <ns3:hr>143</ns3:hr>
          </ns3:TrackPointExtension>
        </extensions>
      </trkpt>
      <trkpt lat="-22.08117381669580936431884765625" lon="166.4461911655962467193603515625">
        <ele>721.20001220703125</ele>
        <time>2016-08-12T18:45:35.000Z</time>
        <extensions>
          <ns3:TrackPointExtension>
            <ns3:atemp>16.0</ns3:atemp>
            <ns3:hr>142</ns3:hr>
          </ns3:TrackPointExtension>
        </extensions>
      </trkpt>
      <trkpt lat="-22.0811682008206844329833984375" lon="166.446214802563190460205078125">
        <ele>721.4000244140625</ele>
        <time>2016-08-12T18:45:36.000Z</time>
        <extensions>
          <ns3:TrackPointExtension>
            <ns3:atemp>16.0</ns3:atemp>
            <ns3:hr>142</ns3:hr>
          </ns3:TrackPointExtension>
        </extensions>
      </trkpt>
      <trkpt lat="-22.08115956746041774749755859375" lon="166.44623584114015102386474609375">
        <ele>721.4000244140625</ele>
        <time>2016-08-12T18:45:37.000Z</time>
        <extensions>
          <ns3:TrackPointExtension>
            <ns3:atemp>16.0</ns3:atemp>
            <ns3:hr>142</ns3:hr>
          </ns3:TrackPointExtension>
        </extensions>
      </trkpt>
      <trkpt lat="-22.08114649169147014617919921875" lon="166.446255035698413848876953125">
        <ele>721.5999755859375</ele>
        <time>2016-08-12T18:45:38.000Z</time>
        <extensions>
          <ns3:TrackPointExtension>
            <ns3:atemp>16.0</ns3:atemp>
            <ns3:hr>143</ns3:hr>
          </ns3:TrackPointExtension>
        </extensions>
      </trkpt>
      <trkpt lat="-22.0811309851706027984619140625" lon="166.44627221859991550445556640625">
        <ele>721.79998779296875</ele>
        <time>2016-08-12T18:45:39.000Z</time>
        <extensions>
          <ns3:TrackPointExtension>
            <ns3:atemp>16.0</ns3:atemp>
            <ns3:hr>142</ns3:hr>
          </ns3:TrackPointExtension>
        </extensions>
      </trkpt>
      <trkpt lat="-22.0811153948307037353515625" lon="166.4462870545685291290283203125">
        <ele>722</ele>
        <time>2016-08-12T18:45:40.000Z</time>
        <extensions>
          <ns3:TrackPointExtension>
            <ns3:atemp>16.0</ns3:atemp>
            <ns3:hr>143</ns3:hr>
          </ns3:TrackPointExtension>
        </extensions>
      </trkpt>
      <trkpt lat="-22.08109863102436065673828125" lon="166.4463029801845550537109375">
        <ele>722.20001220703125</ele>
        <time>2016-08-12T18:45:41.000Z</time>
        <extensions>
          <ns3:TrackPointExtension>
            <ns3:atemp>16.0</ns3:atemp>
            <ns3:hr>143</ns3:hr>
          </ns3:TrackPointExtension>
        </extensions>
      </trkpt>
      <trkpt lat="-22.0810880698263645172119140625" lon="166.44631714560091495513916015625">
        <ele>722.4000244140625</ele>
        <time>2016-08-12T18:45:42.000Z</time>
        <extensions>
          <ns3:TrackPointExtension>
            <ns3:atemp>16.0</ns3:atemp>
            <ns3:hr>143</ns3:hr>
          </ns3:TrackPointExtension>
        </extensions>
      </trkpt>
      <trkpt lat="-22.08107239566743373870849609375" lon="166.44633122719824314117431640625">
        <ele>722.4000244140625</ele>
        <time>2016-08-12T18:45:43.000Z</time>
        <extensions>
          <ns3:TrackPointExtension>
            <ns3:atemp>16.0</ns3:atemp>
            <ns3:hr>142</ns3:hr>
          </ns3:TrackPointExtension>
        </extensions>
      </trkpt>
      <trkpt lat="-22.0810548774898052215576171875" lon="166.4463437162339687347412109375">
        <ele>723</ele>
        <time>2016-08-12T18:45:44.000Z</time>
        <extensions>
          <ns3:TrackPointExtension>
            <ns3:atemp>16.0</ns3:atemp>
            <ns3:hr>143</ns3:hr>
          </ns3:TrackPointExtension>
        </extensions>
      </trkpt>
      <trkpt lat="-22.08103802986443042755126953125" lon="166.44635436125099658966064453125">
        <ele>723.20001220703125</ele>
        <time>2016-08-12T18:45:45.000Z</time>
        <extensions>
          <ns3:TrackPointExtension>
            <ns3:atemp>16.0</ns3:atemp>
            <ns3:hr>143</ns3:hr>
          </ns3:TrackPointExtension>
        </extensions>
      </trkpt>
      <trkpt lat="-22.081021182239055633544921875" lon="166.4463611505925655364990234375">
        <ele>723.4000244140625</ele>
        <time>2016-08-12T18:45:46.000Z</time>
        <extensions>
          <ns3:TrackPointExtension>
            <ns3:atemp>16.0</ns3:atemp>
            <ns3:hr>142</ns3:hr>
          </ns3:TrackPointExtension>
        </extensions>
      </trkpt>
      <trkpt lat="-22.08100450225174427032470703125" lon="166.44636056385934352874755859375">
        <ele>723.79998779296875</ele>
        <time>2016-08-12T18:45:47.000Z</time>
        <extensions>
          <ns3:TrackPointExtension>
            <ns3:atemp>16.0</ns3:atemp>
            <ns3:hr>143</ns3:hr>
          </ns3:TrackPointExtension>
        </extensions>
      </trkpt>
      <trkpt lat="-22.080986313521862030029296875" lon="166.44635997712612152099609375">
        <ele>724.4000244140625</ele>
        <time>2016-08-12T18:45:48.000Z</time>
        <extensions>
          <ns3:TrackPointExtension>
            <ns3:atemp>16.0</ns3:atemp>
            <ns3:hr>142</ns3:hr>
          </ns3:TrackPointExtension>
        </extensions>
      </trkpt>
      <trkpt lat="-22.08096929825842380523681640625" lon="166.44635687582194805145263671875">
        <ele>724.4000244140625</ele>
        <time>2016-08-12T18:45:49.000Z</time>
        <extensions>
          <ns3:TrackPointExtension>
            <ns3:atemp>16.0</ns3:atemp>
            <ns3:hr>143</ns3:hr>
          </ns3:TrackPointExtension>
        </extensions>
      </trkpt>
      <trkpt lat="-22.08095236681401729583740234375" lon="166.44635469652712345123291015625">
        <ele>724.4000244140625</ele>
        <time>2016-08-12T18:45:50.000Z</time>
        <extensions>
          <ns3:TrackPointExtension>
            <ns3:atemp>16.0</ns3:atemp>
            <ns3:hr>143</ns3:hr>
          </ns3:TrackPointExtension>
        </extensions>
      </trkpt>
      <trkpt lat="-22.08092906512320041656494140625" lon="166.4463494159281253814697265625">
        <ele>724.79998779296875</ele>
        <time>2016-08-12T18:45:51.000Z</time>
        <extensions>
          <ns3:TrackPointExtension>
            <ns3:atemp>16.0</ns3:atemp>
            <ns3:hr>143</ns3:hr>
          </ns3:TrackPointExtension>
        </extensions>
      </trkpt>
      <trkpt lat="-22.08091129548847675323486328125" lon="166.44634648226201534271240234375">
        <ele>725.4000244140625</ele>
        <time>2016-08-12T18:45:52.000Z</time>
        <extensions>
          <ns3:TrackPointExtension>
            <ns3:atemp>16.0</ns3:atemp>
            <ns3:hr>143</ns3:hr>
          </ns3:TrackPointExtension>
        </extensions>
      </trkpt>
      <trkpt lat="-22.08089587278664112091064453125" lon="166.44634514115750789642333984375">
        <ele>725.79998779296875</ele>
        <time>2016-08-12T18:45:53.000Z</time>
        <extensions>
          <ns3:TrackPointExtension>
            <ns3:atemp>16.0</ns3:atemp>
            <ns3:hr>143</ns3:hr>
          </ns3:TrackPointExtension>
        </extensions>
      </trkpt>
      <trkpt lat="-22.08088112063705921173095703125" lon="166.44634380005300045013427734375">
        <ele>726</ele>
        <time>2016-08-12T18:45:54.000Z</time>
        <extensions>
          <ns3:TrackPointExtension>
            <ns3:atemp>16.0</ns3:atemp>
            <ns3:hr>142</ns3:hr>
          </ns3:TrackPointExtension>
        </extensions>
      </trkpt>
      <trkpt lat="-22.08086905069649219512939453125" lon="166.44634380005300045013427734375">
        <ele>726.20001220703125</ele>
        <time>2016-08-12T18:45:55.000Z</time>
        <extensions>
          <ns3:TrackPointExtension>
            <ns3:atemp>16.0</ns3:atemp>
            <ns3:hr>142</ns3:hr>
          </ns3:TrackPointExtension>
        </extensions>
      </trkpt>
      <trkpt lat="-22.08085832186043262481689453125" lon="166.44634346477687358856201171875">
        <ele>726.4000244140625</ele>
        <time>2016-08-12T18:45:56.000Z</time>
        <extensions>
          <ns3:TrackPointExtension>
            <ns3:atemp>16.0</ns3:atemp>
            <ns3:hr>142</ns3:hr>
          </ns3:TrackPointExtension>
        </extensions>
      </trkpt>
      <trkpt lat="-22.080854885280132293701171875" lon="166.44634078256785869598388671875">
        <ele>726.5999755859375</ele>
        <time>2016-08-12T18:45:57.000Z</time>
        <extensions>
          <ns3:TrackPointExtension>
            <ns3:atemp>16.0</ns3:atemp>
            <ns3:hr>143</ns3:hr>
          </ns3:TrackPointExtension>
        </extensions>
      </trkpt>
      <trkpt lat="-22.08084004931151866912841796875" lon="166.44634178839623928070068359375">
        <ele>726.79998779296875</ele>
        <time>2016-08-12T18:45:58.000Z</time>
        <extensions>
          <ns3:TrackPointExtension>
            <ns3:atemp>16.0</ns3:atemp>
            <ns3:hr>142</ns3:hr>
          </ns3:TrackPointExtension>
        </extensions>
      </trkpt>
      <trkpt lat="-22.08083418197929859161376953125" lon="166.44633675925433635711669921875">
        <ele>727</ele>
        <time>2016-08-12T18:45:59.000Z</time>
        <extensions>
          <ns3:TrackPointExtension>
            <ns3:atemp>16.0</ns3:atemp>
            <ns3:hr>143</ns3:hr>
          </ns3:TrackPointExtension>
        </extensions>
      </trkpt>
      <trkpt lat="-22.0808215253055095672607421875" lon="166.44632971845567226409912109375">
        <ele>727.5999755859375</ele>
        <time>2016-08-12T18:46:00.000Z</time>
        <extensions>
          <ns3:TrackPointExtension>
            <ns3:atemp>16.0</ns3:atemp>
            <ns3:hr>143</ns3:hr>
          </ns3:TrackPointExtension>
        </extensions>
      </trkpt>
      <trkpt lat="-22.0808087848126888275146484375" lon="166.44632971845567226409912109375">
        <ele>727.5999755859375</ele>
        <time>2016-08-12T18:46:01.000Z</time>
        <extensions>
          <ns3:TrackPointExtension>
            <ns3:atemp>16.0</ns3:atemp>
            <ns3:hr>143</ns3:hr>
          </ns3:TrackPointExtension>
        </extensions>
      </trkpt>
      <trkpt lat="-22.08080048672854900360107421875" lon="166.44633558578789234161376953125">
        <ele>727.79998779296875</ele>
        <time>2016-08-12T18:46:02.000Z</time>
        <extensions>
          <ns3:TrackPointExtension>
            <ns3:atemp>16.0</ns3:atemp>
            <ns3:hr>143</ns3:hr>
          </ns3:TrackPointExtension>
        </extensions>
      </trkpt>
      <trkpt lat="-22.08078959025442600250244140625" lon="166.44633977673947811126708984375">
        <ele>728</ele>
        <time>2016-08-12T18:46:03.000Z</time>
        <extensions>
          <ns3:TrackPointExtension>
            <ns3:atemp>16.0</ns3:atemp>
            <ns3:hr>142</ns3:hr>
          </ns3:TrackPointExtension>
        </extensions>
      </trkpt>
      <trkpt lat="-22.08077676594257354736328125" lon="166.44634279422461986541748046875">
        <ele>728.20001220703125</ele>
        <time>2016-08-12T18:46:04.000Z</time>
        <extensions>
          <ns3:TrackPointExtension>
            <ns3:atemp>16.0</ns3:atemp>
            <ns3:hr>143</ns3:hr>
          </ns3:TrackPointExtension>
        </extensions>
      </trkpt>
      <trkpt lat="-22.0807651989161968231201171875" lon="166.44634765572845935821533203125">
        <ele>728.4000244140625</ele>
        <time>2016-08-12T18:46:05.000Z</time>
        <extensions>
          <ns3:TrackPointExtension>
            <ns3:atemp>16.0</ns3:atemp>
            <ns3:hr>143</ns3:hr>
          </ns3:TrackPointExtension>
        </extensions>
      </trkpt>
      <trkpt lat="-22.0807506144046783447265625" lon="166.44635452888906002044677734375">
        <ele>728.79998779296875</ele>
        <time>2016-08-12T18:46:06.000Z</time>
        <extensions>
          <ns3:TrackPointExtension>
            <ns3:atemp>16.0</ns3:atemp>
            <ns3:hr>143</ns3:hr>
          </ns3:TrackPointExtension>
        </extensions>
      </trkpt>
      <trkpt lat="-22.08073846064507961273193359375" lon="166.4463655091822147369384765625">
        <ele>729</ele>
        <time>2016-08-12T18:46:07.000Z</time>
        <extensions>
          <ns3:TrackPointExtension>
            <ns3:atemp>16.0</ns3:atemp>
            <ns3:hr>143</ns3:hr>
          </ns3:TrackPointExtension>
        </extensions>
      </trkpt>
      <trkpt lat="-22.0807253010571002960205078125" lon="166.44638101570308208465576171875">
        <ele>729.20001220703125</ele>
        <time>2016-08-12T18:46:08.000Z</time>
        <extensions>
          <ns3:TrackPointExtension>
            <ns3:atemp>16.0</ns3:atemp>
            <ns3:hr>142</ns3:hr>
          </ns3:TrackPointExtension>
        </extensions>
      </trkpt>
      <trkpt lat="-22.08071281202137470245361328125" lon="166.44639677368104457855224609375">
        <ele>729.20001220703125</ele>
        <time>2016-08-12T18:46:09.000Z</time>
        <extensions>
          <ns3:TrackPointExtension>
            <ns3:atemp>16.0</ns3:atemp>
            <ns3:hr>142</ns3:hr>
          </ns3:TrackPointExtension>
        </extensions>
      </trkpt>
      <trkpt lat="-22.0807008258998394012451171875" lon="166.44641320221126079559326171875">
        <ele>729.20001220703125</ele>
        <time>2016-08-12T18:46:10.000Z</time>
        <extensions>
          <ns3:TrackPointExtension>
            <ns3:atemp>16.0</ns3:atemp>
            <ns3:hr>143</ns3:hr>
          </ns3:TrackPointExtension>
        </extensions>
      </trkpt>
      <trkpt lat="-22.08068691194057464599609375" lon="166.44643164239823818206787109375">
        <ele>729.4000244140625</ele>
        <time>2016-08-12T18:46:11.000Z</time>
        <extensions>
          <ns3:TrackPointExtension>
            <ns3:atemp>16.0</ns3:atemp>
            <ns3:hr>143</ns3:hr>
          </ns3:TrackPointExtension>
        </extensions>
      </trkpt>
      <trkpt lat="-22.08067710511386394500732421875" lon="166.44645209424197673797607421875">
        <ele>729.4000244140625</ele>
        <time>2016-08-12T18:46:12.000Z</time>
        <extensions>
          <ns3:TrackPointExtension>
            <ns3:atemp>16.0</ns3:atemp>
            <ns3:hr>143</ns3:hr>
          </ns3:TrackPointExtension>
        </extensions>
      </trkpt>
      <trkpt lat="-22.0806701481342315673828125" lon="166.44647338427603244781494140625">
        <ele>729.5999755859375</ele>
        <time>2016-08-12T18:46:13.000Z</time>
        <extensions>
          <ns3:TrackPointExtension>
            <ns3:atemp>16.0</ns3:atemp>
            <ns3:hr>144</ns3:hr>
          </ns3:TrackPointExtension>
        </extensions>
      </trkpt>
      <trkpt lat="-22.080666460096836090087890625" lon="166.4464959315955638885498046875">
        <ele>729.5999755859375</ele>
        <time>2016-08-12T18:46:14.000Z</time>
        <extensions>
          <ns3:TrackPointExtension>
            <ns3:atemp>16.0</ns3:atemp>
            <ns3:hr>144</ns3:hr>
          </ns3:TrackPointExtension>
        </extensions>
      </trkpt>
      <trkpt lat="-22.08066151477396488189697265625" lon="166.4465197362005710601806640625">
        <ele>729.79998779296875</ele>
        <time>2016-08-12T18:46:15.000Z</time>
        <extensions>
          <ns3:TrackPointExtension>
            <ns3:atemp>16.0</ns3:atemp>
            <ns3:hr>144</ns3:hr>
          </ns3:TrackPointExtension>
        </extensions>
      </trkpt>
      <trkpt lat="-22.0806552283465862274169921875" lon="166.44654236733913421630859375">
        <ele>730</ele>
        <time>2016-08-12T18:46:16.000Z</time>
        <extensions>
          <ns3:TrackPointExtension>
            <ns3:atemp>16.0</ns3:atemp>
            <ns3:hr>145</ns3:hr>
          </ns3:TrackPointExtension>
        </extensions>
      </trkpt>
      <trkpt lat="-22.08064944483339786529541015625" lon="166.44656994380056858062744140625">
        <ele>730.20001220703125</ele>
        <time>2016-08-12T18:46:17.000Z</time>
        <extensions>
          <ns3:TrackPointExtension>
            <ns3:atemp>16.0</ns3:atemp>
            <ns3:hr>144</ns3:hr>
          </ns3:TrackPointExtension>
        </extensions>
      </trkpt>
      <trkpt lat="-22.08064575679600238800048828125" lon="166.4465948380529880523681640625">
        <ele>730.20001220703125</ele>
        <time>2016-08-12T18:46:18.000Z</time>
        <extensions>
          <ns3:TrackPointExtension>
            <ns3:atemp>16.0</ns3:atemp>
            <ns3:hr>145</ns3:hr>
          </ns3:TrackPointExtension>
        </extensions>
      </trkpt>
      <trkpt lat="-22.080644667148590087890625" lon="166.44662006758153438568115234375">
        <ele>730.4000244140625</ele>
        <time>2016-08-12T18:46:19.000Z</time>
        <extensions>
          <ns3:TrackPointExtension>
            <ns3:atemp>16.0</ns3:atemp>
            <ns3:hr>145</ns3:hr>
          </ns3:TrackPointExtension>
        </extensions>
      </trkpt>
      <trkpt lat="-22.080650366842746734619140625" lon="166.446643285453319549560546875">
        <ele>730.4000244140625</ele>
        <time>2016-08-12T18:46:20.000Z</time>
        <extensions>
          <ns3:TrackPointExtension>
            <ns3:atemp>16.0</ns3:atemp>
            <ns3:hr>145</ns3:hr>
          </ns3:TrackPointExtension>
        </extensions>
      </trkpt>
      <trkpt lat="-22.0806622691452503204345703125" lon="166.44666281528770923614501953125">
        <ele>730.20001220703125</ele>
        <time>2016-08-12T18:46:21.000Z</time>
        <extensions>
          <ns3:TrackPointExtension>
            <ns3:atemp>16.0</ns3:atemp>
            <ns3:hr>145</ns3:hr>
          </ns3:TrackPointExtension>
        </extensions>
      </trkpt>
      <trkpt lat="-22.0806686393916606903076171875" lon="166.446682177484035491943359375">
        <ele>730.5999755859375</ele>
        <time>2016-08-12T18:46:22.000Z</time>
        <extensions>
          <ns3:TrackPointExtension>
            <ns3:atemp>16.0</ns3:atemp>
            <ns3:hr>145</ns3:hr>
          </ns3:TrackPointExtension>
        </extensions>
      </trkpt>
      <trkpt lat="-22.08066922612488269805908203125" lon="166.44669936038553714752197265625">
        <ele>730.79998779296875</ele>
        <time>2016-08-12T18:46:23.000Z</time>
        <extensions>
          <ns3:TrackPointExtension>
            <ns3:atemp>16.0</ns3:atemp>
            <ns3:hr>145</ns3:hr>
          </ns3:TrackPointExtension>
        </extensions>
      </trkpt>
      <trkpt lat="-22.08066905848681926727294921875" lon="166.44671914167702198028564453125">
        <ele>731</ele>
        <time>2016-08-12T18:46:24.000Z</time>
        <extensions>
          <ns3:TrackPointExtension>
            <ns3:atemp>16.0</ns3:atemp>
            <ns3:hr>146</ns3:hr>
          </ns3:TrackPointExtension>
        </extensions>
      </trkpt>
      <trkpt lat="-22.08066704683005809783935546875" lon="166.44673506729304790496826171875">
        <ele>731.20001220703125</ele>
        <time>2016-08-12T18:46:25.000Z</time>
        <extensions>
          <ns3:TrackPointExtension>
            <ns3:atemp>16.0</ns3:atemp>
            <ns3:hr>145</ns3:hr>
          </ns3:TrackPointExtension>
        </extensions>
      </trkpt>
      <trkpt lat="-22.08066084422171115875244140625" lon="166.44675116054713726043701171875">
        <ele>731.4000244140625</ele>
        <time>2016-08-12T18:46:26.000Z</time>
        <extensions>
          <ns3:TrackPointExtension>
            <ns3:atemp>16.0</ns3:atemp>
            <ns3:hr>145</ns3:hr>
          </ns3:TrackPointExtension>
        </extensions>
      </trkpt>
      <trkpt lat="-22.0806558988988399505615234375" lon="166.44677102565765380859375">
        <ele>731.5999755859375</ele>
        <time>2016-08-12T18:46:27.000Z</time>
        <extensions>
          <ns3:TrackPointExtension>
            <ns3:atemp>16.0</ns3:atemp>
            <ns3:hr>145</ns3:hr>
          </ns3:TrackPointExtension>
        </extensions>
      </trkpt>
      <trkpt lat="-22.0806528814136981964111328125" lon="166.44679047167301177978515625">
        <ele>731.5999755859375</ele>
        <time>2016-08-12T18:46:28.000Z</time>
        <extensions>
          <ns3:TrackPointExtension>
            <ns3:atemp>16.0</ns3:atemp>
            <ns3:hr>144</ns3:hr>
          </ns3:TrackPointExtension>
        </extensions>
      </trkpt>
      <trkpt lat="-22.08064877428114414215087890625" lon="166.44680815748870372772216796875">
        <ele>732</ele>
        <time>2016-08-12T18:46:29.000Z</time>
        <extensions>
          <ns3:TrackPointExtension>
            <ns3:atemp>16.0</ns3:atemp>
            <ns3:hr>144</ns3:hr>
          </ns3:TrackPointExtension>
        </extensions>
      </trkpt>
      <trkpt lat="-22.08063938654959201812744140625" lon="166.44682944752275943756103515625">
        <ele>732.20001220703125</ele>
        <time>2016-08-12T18:46:30.000Z</time>
        <extensions>
          <ns3:TrackPointExtension>
            <ns3:atemp>16.0</ns3:atemp>
            <ns3:hr>144</ns3:hr>
          </ns3:TrackPointExtension>
        </extensions>
      </trkpt>
      <trkpt lat="-22.08063268102705478668212890625" lon="166.446847133338451385498046875">
        <ele>732.4000244140625</ele>
        <time>2016-08-12T18:46:31.000Z</time>
        <extensions>
          <ns3:TrackPointExtension>
            <ns3:atemp>16.0</ns3:atemp>
            <ns3:hr>144</ns3:hr>
          </ns3:TrackPointExtension>
        </extensions>
      </trkpt>
      <trkpt lat="-22.0806247182190418243408203125" lon="166.44686280749738216400146484375">
        <ele>732.79998779296875</ele>
        <time>2016-08-12T18:46:32.000Z</time>
        <extensions>
          <ns3:TrackPointExtension>
            <ns3:atemp>16.0</ns3:atemp>
            <ns3:hr>143</ns3:hr>
          </ns3:TrackPointExtension>
        </extensions>
      </trkpt>
      <trkpt lat="-22.0806196890771389007568359375" lon="166.44687831401824951171875">
        <ele>733.20001220703125</ele>
        <time>2016-08-12T18:46:33.000Z</time>
        <extensions>
          <ns3:TrackPointExtension>
            <ns3:atemp>16.0</ns3:atemp>
            <ns3:hr>144</ns3:hr>
          </ns3:TrackPointExtension>
        </extensions>
      </trkpt>
      <trkpt lat="-22.08061105571687221527099609375" lon="166.4468957483768463134765625">
        <ele>733.4000244140625</ele>
        <time>2016-08-12T18:46:34.000Z</time>
        <extensions>
          <ns3:TrackPointExtension>
            <ns3:atemp>16.0</ns3:atemp>
            <ns3:hr>144</ns3:hr>
          </ns3:TrackPointExtension>
        </extensions>
      </trkpt>
      <trkpt lat="-22.08060150034725666046142578125" lon="166.4469103328883647918701171875">
        <ele>733.5999755859375</ele>
        <time>2016-08-12T18:46:35.000Z</time>
        <extensions>
          <ns3:TrackPointExtension>
            <ns3:atemp>16.0</ns3:atemp>
            <ns3:hr>144</ns3:hr>
          </ns3:TrackPointExtension>
        </extensions>
      </trkpt>
      <trkpt lat="-22.08059278316795825958251953125" lon="166.44692433066666126251220703125">
        <ele>733.79998779296875</ele>
        <time>2016-08-12T18:46:36.000Z</time>
        <extensions>
          <ns3:TrackPointExtension>
            <ns3:atemp>16.0</ns3:atemp>
            <ns3:hr>143</ns3:hr>
          </ns3:TrackPointExtension>
        </extensions>
      </trkpt>
      <trkpt lat="-22.08058574236929416656494140625" lon="166.44694075919687747955322265625">
        <ele>734</ele>
        <time>2016-08-12T18:46:37.000Z</time>
        <extensions>
          <ns3:TrackPointExtension>
            <ns3:atemp>16.0</ns3:atemp>
            <ns3:hr>143</ns3:hr>
          </ns3:TrackPointExtension>
        </extensions>
      </trkpt>
      <trkpt lat="-22.08057920448482036590576171875" lon="166.4469601213932037353515625">
        <ele>734.20001220703125</ele>
        <time>2016-08-12T18:46:38.000Z</time>
        <extensions>
          <ns3:TrackPointExtension>
            <ns3:atemp>16.0</ns3:atemp>
            <ns3:hr>143</ns3:hr>
          </ns3:TrackPointExtension>
        </extensions>
      </trkpt>
      <trkpt lat="-22.08057501353323459625244140625" lon="166.44697713665664196014404296875">
        <ele>734.4000244140625</ele>
        <time>2016-08-12T18:46:39.000Z</time>
        <extensions>
          <ns3:TrackPointExtension>
            <ns3:atemp>16.0</ns3:atemp>
            <ns3:hr>143</ns3:hr>
          </ns3:TrackPointExtension>
        </extensions>
      </trkpt>
      <trkpt lat="-22.08056679926812648773193359375" lon="166.44699641503393650054931640625">
        <ele>734.5999755859375</ele>
        <time>2016-08-12T18:46:40.000Z</time>
        <extensions>
          <ns3:TrackPointExtension>
            <ns3:atemp>16.0</ns3:atemp>
            <ns3:hr>143</ns3:hr>
          </ns3:TrackPointExtension>
        </extensions>
      </trkpt>
      <trkpt lat="-22.08056277595460414886474609375" lon="166.447018124163150787353515625">
        <ele>734.79998779296875</ele>
        <time>2016-08-12T18:46:41.000Z</time>
        <extensions>
          <ns3:TrackPointExtension>
            <ns3:atemp>16.0</ns3:atemp>
            <ns3:hr>144</ns3:hr>
          </ns3:TrackPointExtension>
        </extensions>
      </trkpt>
      <trkpt lat="-22.08056026138365268707275390625" lon="166.44703388214111328125">
        <ele>735.20001220703125</ele>
        <time>2016-08-12T18:46:42.000Z</time>
        <extensions>
          <ns3:TrackPointExtension>
            <ns3:atemp>16.0</ns3:atemp>
            <ns3:hr>143</ns3:hr>
          </ns3:TrackPointExtension>
        </extensions>
      </trkpt>
      <trkpt lat="-22.08055456168949604034423828125" lon="166.4470551721751689910888671875">
        <ele>735.5999755859375</ele>
        <time>2016-08-12T18:46:43.000Z</time>
        <extensions>
          <ns3:TrackPointExtension>
            <ns3:atemp>16.0</ns3:atemp>
            <ns3:hr>143</ns3:hr>
          </ns3:TrackPointExtension>
        </extensions>
      </trkpt>
      <trkpt lat="-22.08054785616695880889892578125" lon="166.44707788713276386260986328125">
        <ele>735.79998779296875</ele>
        <time>2016-08-12T18:46:44.000Z</time>
        <extensions>
          <ns3:TrackPointExtension>
            <ns3:atemp>16.0</ns3:atemp>
            <ns3:hr>143</ns3:hr>
          </ns3:TrackPointExtension>
        </extensions>
      </trkpt>
      <trkpt lat="-22.0805425755679607391357421875" lon="166.44709649495780467987060546875">
        <ele>736</ele>
        <time>2016-08-12T18:46:45.000Z</time>
        <extensions>
          <ns3:TrackPointExtension>
            <ns3:atemp>16.0</ns3:atemp>
            <ns3:hr>144</ns3:hr>
          </ns3:TrackPointExtension>
        </extensions>
      </trkpt>
      <trkpt lat="-22.0805378817021846771240234375" lon="166.44711258821189403533935546875">
        <ele>736.20001220703125</ele>
        <time>2016-08-12T18:46:46.000Z</time>
        <extensions>
          <ns3:TrackPointExtension>
            <ns3:atemp>16.0</ns3:atemp>
            <ns3:hr>143</ns3:hr>
          </ns3:TrackPointExtension>
        </extensions>
      </trkpt>
      <trkpt lat="-22.0805305056273937225341796875" lon="166.44712851382791996002197265625">
        <ele>736.4000244140625</ele>
        <time>2016-08-12T18:46:47.000Z</time>
        <extensions>
          <ns3:TrackPointExtension>
            <ns3:atemp>16.0</ns3:atemp>
            <ns3:hr>143</ns3:hr>
          </ns3:TrackPointExtension>
        </extensions>
      </trkpt>
      <trkpt lat="-22.0805261470377445220947265625" lon="166.447143852710723876953125">
        <ele>736.79998779296875</ele>
        <time>2016-08-12T18:46:48.000Z</time>
        <extensions>
          <ns3:TrackPointExtension>
            <ns3:atemp>16.0</ns3:atemp>
            <ns3:hr>144</ns3:hr>
          </ns3:TrackPointExtension>
        </extensions>
      </trkpt>
      <trkpt lat="-22.08052254281938076019287109375" lon="166.447158940136432647705078125">
        <ele>737</ele>
        <time>2016-08-12T18:46:49.000Z</time>
        <extensions>
          <ns3:TrackPointExtension>
            <ns3:atemp>16.0</ns3:atemp>
            <ns3:hr>143</ns3:hr>
          </ns3:TrackPointExtension>
        </extensions>
      </trkpt>
      <trkpt lat="-22.08051701076328754425048828125" lon="166.44717528484761714935302734375">
        <ele>737.20001220703125</ele>
        <time>2016-08-12T18:46:50.000Z</time>
        <extensions>
          <ns3:TrackPointExtension>
            <ns3:atemp>16.0</ns3:atemp>
            <ns3:hr>143</ns3:hr>
          </ns3:TrackPointExtension>
        </extensions>
      </trkpt>
      <trkpt lat="-22.08050812594592571258544921875" lon="166.447193138301372528076171875">
        <ele>737.4000244140625</ele>
        <time>2016-08-12T18:46:51.000Z</time>
        <extensions>
          <ns3:TrackPointExtension>
            <ns3:atemp>16.0</ns3:atemp>
            <ns3:hr>143</ns3:hr>
          </ns3:TrackPointExtension>
        </extensions>
      </trkpt>
      <trkpt lat="-22.08049907349050045013427734375" lon="166.447208561003208160400390625">
        <ele>737.5999755859375</ele>
        <time>2016-08-12T18:46:52.000Z</time>
        <extensions>
          <ns3:TrackPointExtension>
            <ns3:atemp>16.0</ns3:atemp>
            <ns3:hr>144</ns3:hr>
          </ns3:TrackPointExtension>
        </extensions>
      </trkpt>
      <trkpt lat="-22.08049513399600982666015625" lon="166.44722591154277324676513671875">
        <ele>737.79998779296875</ele>
        <time>2016-08-12T18:46:53.000Z</time>
        <extensions>
          <ns3:TrackPointExtension>
            <ns3:atemp>16.0</ns3:atemp>
            <ns3:hr>144</ns3:hr>
          </ns3:TrackPointExtension>
        </extensions>
      </trkpt>
      <trkpt lat="-22.08048842847347259521484375" lon="166.44724099896848201751708984375">
        <ele>738</ele>
        <time>2016-08-12T18:46:54.000Z</time>
        <extensions>
          <ns3:TrackPointExtension>
            <ns3:atemp>16.0</ns3:atemp>
            <ns3:hr>144</ns3:hr>
          </ns3:TrackPointExtension>
        </extensions>
      </trkpt>
      <trkpt lat="-22.08047945983707904815673828125" lon="166.447254158556461334228515625">
        <ele>738</ele>
        <time>2016-08-12T18:46:55.000Z</time>
        <extensions>
          <ns3:TrackPointExtension>
            <ns3:atemp>16.0</ns3:atemp>
            <ns3:hr>144</ns3:hr>
          </ns3:TrackPointExtension>
        </extensions>
      </trkpt>
      <trkpt lat="-22.08047174848616123199462890625" lon="166.4472690783441066741943359375">
        <ele>738.20001220703125</ele>
        <time>2016-08-12T18:46:56.000Z</time>
        <extensions>
          <ns3:TrackPointExtension>
            <ns3:atemp>16.0</ns3:atemp>
            <ns3:hr>143</ns3:hr>
          </ns3:TrackPointExtension>
        </extensions>
      </trkpt>
      <trkpt lat="-22.08046604879200458526611328125" lon="166.4472858421504497528076171875">
        <ele>738.4000244140625</ele>
        <time>2016-08-12T18:46:57.000Z</time>
        <extensions>
          <ns3:TrackPointExtension>
            <ns3:atemp>16.0</ns3:atemp>
            <ns3:hr>144</ns3:hr>
          </ns3:TrackPointExtension>
        </extensions>
      </trkpt>
      <trkpt lat="-22.08045934326946735382080078125" lon="166.44730201922357082366943359375">
        <ele>738.79998779296875</ele>
        <time>2016-08-12T18:46:58.000Z</time>
        <extensions>
          <ns3:TrackPointExtension>
            <ns3:atemp>16.0</ns3:atemp>
            <ns3:hr>144</ns3:hr>
          </ns3:TrackPointExtension>
        </extensions>
      </trkpt>
      <trkpt lat="-22.0804507099092006683349609375" lon="166.44731962122023105621337890625">
        <ele>738.79998779296875</ele>
        <time>2016-08-12T18:46:59.000Z</time>
        <extensions>
          <ns3:TrackPointExtension>
            <ns3:atemp>16.0</ns3:atemp>
            <ns3:hr>144</ns3:hr>
          </ns3:TrackPointExtension>
        </extensions>
      </trkpt>
      <trkpt lat="-22.0804423280060291290283203125" lon="166.4473378099501132965087890625">
        <ele>739</ele>
        <time>2016-08-12T18:47:00.000Z</time>
        <extensions>
          <ns3:TrackPointExtension>
            <ns3:atemp>16.0</ns3:atemp>
            <ns3:hr>143</ns3:hr>
          </ns3:TrackPointExtension>
        </extensions>
      </trkpt>
      <trkpt lat="-22.0804352872073650360107421875" lon="166.44735197536647319793701171875">
        <ele>739.20001220703125</ele>
        <time>2016-08-12T18:47:01.000Z</time>
        <extensions>
          <ns3:TrackPointExtension>
            <ns3:atemp>16.0</ns3:atemp>
            <ns3:hr>144</ns3:hr>
          </ns3:TrackPointExtension>
        </extensions>
      </trkpt>
      <trkpt lat="-22.0804228819906711578369140625" lon="166.4473683200776576995849609375">
        <ele>739.20001220703125</ele>
        <time>2016-08-12T18:47:02.000Z</time>
        <extensions>
          <ns3:TrackPointExtension>
            <ns3:atemp>16.0</ns3:atemp>
            <ns3:hr>144</ns3:hr>
          </ns3:TrackPointExtension>
        </extensions>
      </trkpt>
      <trkpt lat="-22.0804104767739772796630859375" lon="166.44738734699785709381103515625">
        <ele>739.4000244140625</ele>
        <time>2016-08-12T18:47:03.000Z</time>
        <extensions>
          <ns3:TrackPointExtension>
            <ns3:atemp>16.0</ns3:atemp>
            <ns3:hr>144</ns3:hr>
          </ns3:TrackPointExtension>
        </extensions>
      </trkpt>
      <trkpt lat="-22.0803992450237274169921875" lon="166.44740461371839046478271484375">
        <ele>739.5999755859375</ele>
        <time>2016-08-12T18:47:04.000Z</time>
        <extensions>
          <ns3:TrackPointExtension>
            <ns3:atemp>16.0</ns3:atemp>
            <ns3:hr>144</ns3:hr>
          </ns3:TrackPointExtension>
        </extensions>
      </trkpt>
      <trkpt lat="-22.08038918673992156982421875" lon="166.447422467172145843505859375">
        <ele>739.79998779296875</ele>
        <time>2016-08-12T18:47:05.000Z</time>
        <extensions>
          <ns3:TrackPointExtension>
            <ns3:atemp>16.0</ns3:atemp>
            <ns3:hr>144</ns3:hr>
          </ns3:TrackPointExtension>
        </extensions>
      </trkpt>
      <trkpt lat="-22.080384828150272369384765625" lon="166.447442583739757537841796875">
        <ele>740</ele>
        <time>2016-08-12T18:47:06.000Z</time>
        <extensions>
          <ns3:TrackPointExtension>
            <ns3:atemp>16.0</ns3:atemp>
            <ns3:hr>144</ns3:hr>
          </ns3:TrackPointExtension>
        </extensions>
      </trkpt>
      <trkpt lat="-22.08037401549518108367919921875" lon="166.44746194593608379364013671875">
        <ele>739.79998779296875</ele>
        <time>2016-08-12T18:47:07.000Z</time>
        <extensions>
          <ns3:TrackPointExtension>
            <ns3:atemp>16.0</ns3:atemp>
            <ns3:hr>144</ns3:hr>
          </ns3:TrackPointExtension>
        </extensions>
      </trkpt>
      <trkpt lat="-22.08036496303975582122802734375" lon="166.44748306833207607269287109375">
        <ele>740.20001220703125</ele>
        <time>2016-08-12T18:47:08.000Z</time>
        <extensions>
          <ns3:TrackPointExtension>
            <ns3:atemp>16.0</ns3:atemp>
            <ns3:hr>144</ns3:hr>
          </ns3:TrackPointExtension>
        </extensions>
      </trkpt>
      <trkpt lat="-22.08036093972623348236083984375" lon="166.447506956756114959716796875">
        <ele>740.20001220703125</ele>
        <time>2016-08-12T18:47:09.000Z</time>
        <extensions>
          <ns3:TrackPointExtension>
            <ns3:atemp>16.0</ns3:atemp>
            <ns3:hr>144</ns3:hr>
          </ns3:TrackPointExtension>
        </extensions>
      </trkpt>
      <trkpt lat="-22.0803548209369182586669921875" lon="166.44753017462790012359619140625">
        <ele>740.4000244140625</ele>
        <time>2016-08-12T18:47:10.000Z</time>
        <extensions>
          <ns3:TrackPointExtension>
            <ns3:atemp>16.0</ns3:atemp>
            <ns3:hr>144</ns3:hr>
          </ns3:TrackPointExtension>
        </extensions>
      </trkpt>
      <trkpt lat="-22.0803427509963512420654296875" lon="166.44755666144192218780517578125">
        <ele>740.79998779296875</ele>
        <time>2016-08-12T18:47:11.000Z</time>
        <extensions>
          <ns3:TrackPointExtension>
            <ns3:atemp>16.0</ns3:atemp>
            <ns3:hr>144</ns3:hr>
          </ns3:TrackPointExtension>
        </extensions>
      </trkpt>
      <trkpt lat="-22.0803357101976871490478515625" lon="166.44758197478950023651123046875">
        <ele>740.79998779296875</ele>
        <time>2016-08-12T18:47:12.000Z</time>
        <extensions>
          <ns3:TrackPointExtension>
            <ns3:atemp>16.0</ns3:atemp>
            <ns3:hr>144</ns3:hr>
          </ns3:TrackPointExtension>
        </extensions>
      </trkpt>
      <trkpt lat="-22.08032749593257904052734375" lon="166.44760477356612682342529296875">
        <ele>740.79998779296875</ele>
        <time>2016-08-12T18:47:13.000Z</time>
        <extensions>
          <ns3:TrackPointExtension>
            <ns3:atemp>16.0</ns3:atemp>
            <ns3:hr>144</ns3:hr>
          </ns3:TrackPointExtension>
        </extensions>
      </trkpt>
      <trkpt lat="-22.0803229697048664093017578125" lon="166.4476268179714679718017578125">
        <ele>741</ele>
        <time>2016-08-12T18:47:14.000Z</time>
        <extensions>
          <ns3:TrackPointExtension>
            <ns3:atemp>16.0</ns3:atemp>
            <ns3:hr>144</ns3:hr>
          </ns3:TrackPointExtension>
        </extensions>
      </trkpt>
      <trkpt lat="-22.08031550981104373931884765625" lon="166.447650454938411712646484375">
        <ele>741.20001220703125</ele>
        <time>2016-08-12T18:47:15.000Z</time>
        <extensions>
          <ns3:TrackPointExtension>
            <ns3:atemp>16.0</ns3:atemp>
            <ns3:hr>144</ns3:hr>
          </ns3:TrackPointExtension>
        </extensions>
      </trkpt>
      <trkpt lat="-22.08030981011688709259033203125" lon="166.44767216406762599945068359375">
        <ele>741.20001220703125</ele>
        <time>2016-08-12T18:47:16.000Z</time>
        <extensions>
          <ns3:TrackPointExtension>
            <ns3:atemp>16.0</ns3:atemp>
            <ns3:hr>144</ns3:hr>
          </ns3:TrackPointExtension>
        </extensions>
      </trkpt>
      <trkpt lat="-22.08030411042273044586181640625" lon="166.4476942084729671478271484375">
        <ele>741.5999755859375</ele>
        <time>2016-08-12T18:47:17.000Z</time>
        <extensions>
          <ns3:TrackPointExtension>
            <ns3:atemp>16.0</ns3:atemp>
            <ns3:hr>145</ns3:hr>
          </ns3:TrackPointExtension>
        </extensions>
      </trkpt>
      <trkpt lat="-22.080296985805034637451171875" lon="166.44771776162087917327880859375">
        <ele>741.5999755859375</ele>
        <time>2016-08-12T18:47:18.000Z</time>
        <extensions>
          <ns3:TrackPointExtension>
            <ns3:atemp>16.0</ns3:atemp>
            <ns3:hr>144</ns3:hr>
          </ns3:TrackPointExtension>
        </extensions>
      </trkpt>
      <trkpt lat="-22.08029120229184627532958984375" lon="166.44773871637880802154541015625">
        <ele>741.4000244140625</ele>
        <time>2016-08-12T18:47:19.000Z</time>
        <extensions>
          <ns3:TrackPointExtension>
            <ns3:atemp>16.0</ns3:atemp>
            <ns3:hr>144</ns3:hr>
          </ns3:TrackPointExtension>
        </extensions>
      </trkpt>
      <trkpt lat="-22.080278880894184112548828125" lon="166.447761766612529754638671875">
        <ele>741.5999755859375</ele>
        <time>2016-08-12T18:47:20.000Z</time>
        <extensions>
          <ns3:TrackPointExtension>
            <ns3:atemp>16.0</ns3:atemp>
            <ns3:hr>144</ns3:hr>
          </ns3:TrackPointExtension>
        </extensions>
      </trkpt>
      <trkpt lat="-22.08026857115328311920166015625" lon="166.44778816960752010345458984375">
        <ele>741.79998779296875</ele>
        <time>2016-08-12T18:47:21.000Z</time>
        <extensions>
          <ns3:TrackPointExtension>
            <ns3:atemp>16.0</ns3:atemp>
            <ns3:hr>145</ns3:hr>
          </ns3:TrackPointExtension>
        </extensions>
      </trkpt>
      <trkpt lat="-22.080268822610378265380859375" lon="166.44781247712671756744384765625">
        <ele>741.79998779296875</ele>
        <time>2016-08-12T18:47:22.000Z</time>
        <extensions>
          <ns3:TrackPointExtension>
            <ns3:atemp>16.0</ns3:atemp>
            <ns3:hr>145</ns3:hr>
          </ns3:TrackPointExtension>
        </extensions>
      </trkpt>
      <trkpt lat="-22.080268152058124542236328125" lon="166.44783427007496356964111328125">
        <ele>742</ele>
        <time>2016-08-12T18:47:23.000Z</time>
        <extensions>
          <ns3:TrackPointExtension>
            <ns3:atemp>16.0</ns3:atemp>
            <ns3:hr>144</ns3:hr>
          </ns3:TrackPointExtension>
        </extensions>
      </trkpt>
      <trkpt lat="-22.08026572130620479583740234375" lon="166.447854973375797271728515625">
        <ele>742</ele>
        <time>2016-08-12T18:47:24.000Z</time>
        <extensions>
          <ns3:TrackPointExtension>
            <ns3:atemp>16.0</ns3:atemp>
            <ns3:hr>144</ns3:hr>
          </ns3:TrackPointExtension>
        </extensions>
      </trkpt>
      <trkpt lat="-22.0802636258304119110107421875" lon="166.44787768833339214324951171875">
        <ele>742</ele>
        <time>2016-08-12T18:47:25.000Z</time>
        <extensions>
          <ns3:TrackPointExtension>
            <ns3:atemp>16.0</ns3:atemp>
            <ns3:hr>144</ns3:hr>
          </ns3:TrackPointExtension>
        </extensions>
      </trkpt>
      <trkpt lat="-22.08025784231722354888916015625" lon="166.447899229824542999267578125">
        <ele>742</ele>
        <time>2016-08-12T18:47:26.000Z</time>
        <extensions>
          <ns3:TrackPointExtension>
            <ns3:atemp>16.0</ns3:atemp>
            <ns3:hr>144</ns3:hr>
          </ns3:TrackPointExtension>
        </extensions>
      </trkpt>
      <trkpt lat="-22.08025314845144748687744140625" lon="166.4479188434779644012451171875">
        <ele>742.20001220703125</ele>
        <time>2016-08-12T18:47:27.000Z</time>
        <extensions>
          <ns3:TrackPointExtension>
            <ns3:atemp>16.0</ns3:atemp>
            <ns3:hr>144</ns3:hr>
          </ns3:TrackPointExtension>
        </extensions>
      </trkpt>
      <trkpt lat="-22.08025013096630573272705078125" lon="166.44793887622654438018798828125">
        <ele>742</ele>
        <time>2016-08-12T18:47:28.000Z</time>
        <extensions>
          <ns3:TrackPointExtension>
            <ns3:atemp>16.0</ns3:atemp>
            <ns3:hr>144</ns3:hr>
          </ns3:TrackPointExtension>
        </extensions>
      </trkpt>
      <trkpt lat="-22.08024702966213226318359375" lon="166.44795580767095088958740234375">
        <ele>742.4000244140625</ele>
        <time>2016-08-12T18:47:29.000Z</time>
        <extensions>
          <ns3:TrackPointExtension>
            <ns3:atemp>16.0</ns3:atemp>
            <ns3:hr>145</ns3:hr>
          </ns3:TrackPointExtension>
        </extensions>
      </trkpt>
      <trkpt lat="-22.08023906685411930084228515625" lon="166.44796804524958133697509765625">
        <ele>742.5999755859375</ele>
        <time>2016-08-12T18:47:30.000Z</time>
        <extensions>
          <ns3:TrackPointExtension>
            <ns3:atemp>16.0</ns3:atemp>
            <ns3:hr>144</ns3:hr>
          </ns3:TrackPointExtension>
        </extensions>
      </trkpt>
      <trkpt lat="-22.08023051731288433074951171875" lon="166.44797910936176776885986328125">
        <ele>742.5999755859375</ele>
        <time>2016-08-12T18:47:31.000Z</time>
        <extensions>
          <ns3:TrackPointExtension>
            <ns3:atemp>16.0</ns3:atemp>
            <ns3:hr>144</ns3:hr>
          </ns3:TrackPointExtension>
        </extensions>
      </trkpt>
      <trkpt lat="-22.0802180282771587371826171875" lon="166.44798933528363704681396484375">
        <ele>742.5999755859375</ele>
        <time>2016-08-12T18:47:32.000Z</time>
        <extensions>
          <ns3:TrackPointExtension>
            <ns3:atemp>16.0</ns3:atemp>
            <ns3:hr>144</ns3:hr>
          </ns3:TrackPointExtension>
        </extensions>
      </trkpt>
      <trkpt lat="-22.08019967190921306610107421875" lon="166.44800006411969661712646484375">
        <ele>742.79998779296875</ele>
        <time>2016-08-12T18:47:33.000Z</time>
        <extensions>
          <ns3:TrackPointExtension>
            <ns3:atemp>16.0</ns3:atemp>
            <ns3:hr>143</ns3:hr>
          </ns3:TrackPointExtension>
        </extensions>
      </trkpt>
      <trkpt lat="-22.08018609322607517242431640625" lon="166.44800693728029727935791015625">
        <ele>743.20001220703125</ele>
        <time>2016-08-12T18:47:34.000Z</time>
        <extensions>
          <ns3:TrackPointExtension>
            <ns3:atemp>16.0</ns3:atemp>
            <ns3:hr>143</ns3:hr>
          </ns3:TrackPointExtension>
        </extensions>
      </trkpt>
      <trkpt lat="-22.08017201162874698638916015625" lon="166.448012888431549072265625">
        <ele>743.4000244140625</ele>
        <time>2016-08-12T18:47:35.000Z</time>
        <extensions>
          <ns3:TrackPointExtension>
            <ns3:atemp>16.0</ns3:atemp>
            <ns3:hr>143</ns3:hr>
          </ns3:TrackPointExtension>
        </extensions>
      </trkpt>
      <trkpt lat="-22.08015658892691135406494140625" lon="166.4480184204876422882080078125">
        <ele>743.4000244140625</ele>
        <time>2016-08-12T18:47:36.000Z</time>
        <extensions>
          <ns3:TrackPointExtension>
            <ns3:atemp>16.0</ns3:atemp>
            <ns3:hr>142</ns3:hr>
          </ns3:TrackPointExtension>
        </extensions>
      </trkpt>
      <trkpt lat="-22.08014217205345630645751953125" lon="166.4480184204876422882080078125">
        <ele>743.4000244140625</ele>
        <time>2016-08-12T18:47:37.000Z</time>
        <extensions>
          <ns3:TrackPointExtension>
            <ns3:atemp>16.0</ns3:atemp>
            <ns3:hr>142</ns3:hr>
          </ns3:TrackPointExtension>
        </extensions>
      </trkpt>
      <trkpt lat="-22.0801305212080478668212890625" lon="166.44800811074674129486083984375">
        <ele>743.5999755859375</ele>
        <time>2016-08-12T18:47:38.000Z</time>
        <extensions>
          <ns3:TrackPointExtension>
            <ns3:atemp>16.0</ns3:atemp>
            <ns3:hr>142</ns3:hr>
          </ns3:TrackPointExtension>
        </extensions>
      </trkpt>
      <trkpt lat="-22.0801204629242420196533203125" lon="166.4479972980916500091552734375">
        <ele>743.79998779296875</ele>
        <time>2016-08-12T18:47:39.000Z</time>
        <extensions>
          <ns3:TrackPointExtension>
            <ns3:atemp>16.0</ns3:atemp>
            <ns3:hr>141</ns3:hr>
          </ns3:TrackPointExtension>
        </extensions>
      </trkpt>
      <trkpt lat="-22.08010713569819927215576171875" lon="166.44798665307462215423583984375">
        <ele>743.79998779296875</ele>
        <time>2016-08-12T18:47:40.000Z</time>
        <extensions>
          <ns3:TrackPointExtension>
            <ns3:atemp>16.0</ns3:atemp>
            <ns3:hr>141</ns3:hr>
          </ns3:TrackPointExtension>
        </extensions>
      </trkpt>
      <trkpt lat="-22.0800912939012050628662109375" lon="166.44797508604824542999267578125">
        <ele>744.20001220703125</ele>
        <time>2016-08-12T18:47:41.000Z</time>
        <extensions>
          <ns3:TrackPointExtension>
            <ns3:atemp>16.0</ns3:atemp>
            <ns3:hr>141</ns3:hr>
          </ns3:TrackPointExtension>
        </extensions>
      </trkpt>
      <trkpt lat="-22.08007595501840114593505859375" lon="166.44795999862253665924072265625">
        <ele>744.20001220703125</ele>
        <time>2016-08-12T18:47:42.000Z</time>
        <extensions>
          <ns3:TrackPointExtension>
            <ns3:atemp>16.0</ns3:atemp>
            <ns3:hr>141</ns3:hr>
          </ns3:TrackPointExtension>
        </extensions>
      </trkpt>
      <trkpt lat="-22.08006824366748332977294921875" lon="166.44794390536844730377197265625">
        <ele>744.4000244140625</ele>
        <time>2016-08-12T18:47:43.000Z</time>
        <extensions>
          <ns3:TrackPointExtension>
            <ns3:atemp>16.0</ns3:atemp>
            <ns3:hr>141</ns3:hr>
          </ns3:TrackPointExtension>
        </extensions>
      </trkpt>
      <trkpt lat="-22.080058939754962921142578125" lon="166.44792973995208740234375">
        <ele>744.5999755859375</ele>
        <time>2016-08-12T18:47:44.000Z</time>
        <extensions>
          <ns3:TrackPointExtension>
            <ns3:atemp>16.0</ns3:atemp>
            <ns3:hr>141</ns3:hr>
          </ns3:TrackPointExtension>
        </extensions>
      </trkpt>
      <trkpt lat="-22.08004376851022243499755859375" lon="166.44791741855442523956298828125">
        <ele>744.79998779296875</ele>
        <time>2016-08-12T18:47:45.000Z</time>
        <extensions>
          <ns3:TrackPointExtension>
            <ns3:atemp>16.0</ns3:atemp>
            <ns3:hr>140</ns3:hr>
          </ns3:TrackPointExtension>
        </extensions>
      </trkpt>
      <trkpt lat="-22.08002968691289424896240234375" lon="166.44790585152804851531982421875">
        <ele>744.79998779296875</ele>
        <time>2016-08-12T18:47:46.000Z</time>
        <extensions>
          <ns3:TrackPointExtension>
            <ns3:atemp>16.0</ns3:atemp>
            <ns3:hr>140</ns3:hr>
          </ns3:TrackPointExtension>
        </extensions>
      </trkpt>
      <trkpt lat="-22.0800155214965343475341796875" lon="166.44789394922554492950439453125">
        <ele>745.20001220703125</ele>
        <time>2016-08-12T18:47:47.000Z</time>
        <extensions>
          <ns3:TrackPointExtension>
            <ns3:atemp>16.0</ns3:atemp>
            <ns3:hr>140</ns3:hr>
          </ns3:TrackPointExtension>
        </extensions>
      </trkpt>
      <trkpt lat="-22.08000403828918933868408203125" lon="166.44788070581853389739990234375">
        <ele>745.4000244140625</ele>
        <time>2016-08-12T18:47:48.000Z</time>
        <extensions>
          <ns3:TrackPointExtension>
            <ns3:atemp>16.0</ns3:atemp>
            <ns3:hr>140</ns3:hr>
          </ns3:TrackPointExtension>
        </extensions>
      </trkpt>
      <trkpt lat="-22.07998794503509998321533203125" lon="166.44786830060184001922607421875">
        <ele>745.5999755859375</ele>
        <time>2016-08-12T18:47:49.000Z</time>
        <extensions>
          <ns3:TrackPointExtension>
            <ns3:atemp>16.0</ns3:atemp>
            <ns3:hr>140</ns3:hr>
          </ns3:TrackPointExtension>
        </extensions>
      </trkpt>
      <trkpt lat="-22.079974114894866943359375" lon="166.44785455428063869476318359375">
        <ele>745.79998779296875</ele>
        <time>2016-08-12T18:47:50.000Z</time>
        <extensions>
          <ns3:TrackPointExtension>
            <ns3:atemp>16.0</ns3:atemp>
            <ns3:hr>140</ns3:hr>
          </ns3:TrackPointExtension>
        </extensions>
      </trkpt>
      <trkpt lat="-22.0799625478684902191162109375" lon="166.4478400535881519317626953125">
        <ele>745.79998779296875</ele>
        <time>2016-08-12T18:47:51.000Z</time>
        <extensions>
          <ns3:TrackPointExtension>
            <ns3:atemp>16.0</ns3:atemp>
            <ns3:hr>139</ns3:hr>
          </ns3:TrackPointExtension>
        </extensions>
      </trkpt>
      <trkpt lat="-22.079952321946620941162109375" lon="166.4478239603340625762939453125">
        <ele>746</ele>
        <time>2016-08-12T18:47:52.000Z</time>
        <extensions>
          <ns3:TrackPointExtension>
            <ns3:atemp>16.0</ns3:atemp>
            <ns3:hr>140</ns3:hr>
          </ns3:TrackPointExtension>
        </extensions>
      </trkpt>
      <trkpt lat="-22.07993966527283191680908203125" lon="166.44780828617513179779052734375">
        <ele>746.20001220703125</ele>
        <time>2016-08-12T18:47:53.000Z</time>
        <extensions>
          <ns3:TrackPointExtension>
            <ns3:atemp>16.0</ns3:atemp>
            <ns3:hr>139</ns3:hr>
          </ns3:TrackPointExtension>
        </extensions>
      </trkpt>
      <trkpt lat="-22.07992424257099628448486328125" lon="166.44779571332037448883056640625">
        <ele>746.4000244140625</ele>
        <time>2016-08-12T18:47:54.000Z</time>
        <extensions>
          <ns3:TrackPointExtension>
            <ns3:atemp>16.0</ns3:atemp>
            <ns3:hr>140</ns3:hr>
          </ns3:TrackPointExtension>
        </extensions>
      </trkpt>
      <trkpt lat="-22.0799075625836849212646484375" lon="166.447783894836902618408203125">
        <ele>746.4000244140625</ele>
        <time>2016-08-12T18:47:55.000Z</time>
        <extensions>
          <ns3:TrackPointExtension>
            <ns3:atemp>16.0</ns3:atemp>
            <ns3:hr>140</ns3:hr>
          </ns3:TrackPointExtension>
        </extensions>
      </trkpt>
      <trkpt lat="-22.0798928104341030120849609375" lon="166.4477736689150333404541015625">
        <ele>746.5999755859375</ele>
        <time>2016-08-12T18:47:56.000Z</time>
        <extensions>
          <ns3:TrackPointExtension>
            <ns3:atemp>16.0</ns3:atemp>
            <ns3:hr>140</ns3:hr>
          </ns3:TrackPointExtension>
        </extensions>
      </trkpt>
      <trkpt lat="-22.0798740349709987640380859375" lon="166.447767131030559539794921875">
        <ele>746.79998779296875</ele>
        <time>2016-08-12T18:47:57.000Z</time>
        <extensions>
          <ns3:TrackPointExtension>
            <ns3:atemp>16.0</ns3:atemp>
            <ns3:hr>140</ns3:hr>
          </ns3:TrackPointExtension>
        </extensions>
      </trkpt>
      <trkpt lat="-22.07985316403210163116455078125" lon="166.44775799475610256195068359375">
        <ele>746.79998779296875</ele>
        <time>2016-08-12T18:47:58.000Z</time>
        <extensions>
          <ns3:TrackPointExtension>
            <ns3:atemp>16.0</ns3:atemp>
            <ns3:hr>141</ns3:hr>
          </ns3:TrackPointExtension>
        </extensions>
      </trkpt>
      <trkpt lat="-22.0798314549028873443603515625" lon="166.4477535523474216461181640625">
        <ele>747.20001220703125</ele>
        <time>2016-08-12T18:47:59.000Z</time>
        <extensions>
          <ns3:TrackPointExtension>
            <ns3:atemp>16.0</ns3:atemp>
            <ns3:hr>140</ns3:hr>
          </ns3:TrackPointExtension>
        </extensions>
      </trkpt>
      <trkpt lat="-22.0798136852681636810302734375" lon="166.44774659536778926849365234375">
        <ele>747.4000244140625</ele>
        <time>2016-08-12T18:48:00.000Z</time>
        <extensions>
          <ns3:TrackPointExtension>
            <ns3:atemp>16.0</ns3:atemp>
            <ns3:hr>141</ns3:hr>
          </ns3:TrackPointExtension>
        </extensions>
      </trkpt>
      <trkpt lat="-22.07979415543377399444580078125" lon="166.44774341024458408355712890625">
        <ele>747.5999755859375</ele>
        <time>2016-08-12T18:48:01.000Z</time>
        <extensions>
          <ns3:TrackPointExtension>
            <ns3:atemp>16.0</ns3:atemp>
            <ns3:hr>141</ns3:hr>
          </ns3:TrackPointExtension>
        </extensions>
      </trkpt>
      <trkpt lat="-22.07977839745581150054931640625" lon="166.44774441607296466827392578125">
        <ele>748</ele>
        <time>2016-08-12T18:48:02.000Z</time>
        <extensions>
          <ns3:TrackPointExtension>
            <ns3:atemp>16.0</ns3:atemp>
            <ns3:hr>142</ns3:hr>
          </ns3:TrackPointExtension>
        </extensions>
      </trkpt>
      <trkpt lat="-22.07976465113461017608642578125" lon="166.44774131476879119873046875">
        <ele>748.20001220703125</ele>
        <time>2016-08-12T18:48:03.000Z</time>
        <extensions>
          <ns3:TrackPointExtension>
            <ns3:atemp>16.0</ns3:atemp>
            <ns3:hr>142</ns3:hr>
          </ns3:TrackPointExtension>
        </extensions>
      </trkpt>
      <trkpt lat="-22.0797459594905376434326171875" lon="166.44773729145526885986328125">
        <ele>748.20001220703125</ele>
        <time>2016-08-12T18:48:04.000Z</time>
        <extensions>
          <ns3:TrackPointExtension>
            <ns3:atemp>16.0</ns3:atemp>
            <ns3:hr>142</ns3:hr>
          </ns3:TrackPointExtension>
        </extensions>
      </trkpt>
      <trkpt lat="-22.0797335542738437652587890625" lon="166.44773150794208049774169921875">
        <ele>748.4000244140625</ele>
        <time>2016-08-12T18:48:05.000Z</time>
        <extensions>
          <ns3:TrackPointExtension>
            <ns3:atemp>16.0</ns3:atemp>
            <ns3:hr>143</ns3:hr>
          </ns3:TrackPointExtension>
        </extensions>
      </trkpt>
      <trkpt lat="-22.07971838302910327911376953125" lon="166.4477253891527652740478515625">
        <ele>748.5999755859375</ele>
        <time>2016-08-12T18:48:06.000Z</time>
        <extensions>
          <ns3:TrackPointExtension>
            <ns3:atemp>16.0</ns3:atemp>
            <ns3:hr>143</ns3:hr>
          </ns3:TrackPointExtension>
        </extensions>
      </trkpt>
      <trkpt lat="-22.07969860173761844635009765625" lon="166.44772346131503582000732421875">
        <ele>748.5999755859375</ele>
        <time>2016-08-12T18:48:07.000Z</time>
        <extensions>
          <ns3:TrackPointExtension>
            <ns3:atemp>16.0</ns3:atemp>
            <ns3:hr>143</ns3:hr>
          </ns3:TrackPointExtension>
        </extensions>
      </trkpt>
      <trkpt lat="-22.07967831753194332122802734375" lon="166.4477233774960041046142578125">
        <ele>749</ele>
        <time>2016-08-12T18:48:08.000Z</time>
        <extensions>
          <ns3:TrackPointExtension>
            <ns3:atemp>16.0</ns3:atemp>
            <ns3:hr>143</ns3:hr>
          </ns3:TrackPointExtension>
        </extensions>
      </trkpt>
      <trkpt lat="-22.0796571113169193267822265625" lon="166.44772279076278209686279296875">
        <ele>749</ele>
        <time>2016-08-12T18:48:09.000Z</time>
        <extensions>
          <ns3:TrackPointExtension>
            <ns3:atemp>16.0</ns3:atemp>
            <ns3:hr>143</ns3:hr>
          </ns3:TrackPointExtension>
        </extensions>
      </trkpt>
      <trkpt lat="-22.07963682711124420166015625" lon="166.447724886238574981689453125">
        <ele>749.4000244140625</ele>
        <time>2016-08-12T18:48:10.000Z</time>
        <extensions>
          <ns3:TrackPointExtension>
            <ns3:atemp>16.0</ns3:atemp>
            <ns3:hr>143</ns3:hr>
          </ns3:TrackPointExtension>
        </extensions>
      </trkpt>
      <trkpt lat="-22.0796162076294422149658203125" lon="166.44772781990468502044677734375">
        <ele>749.5999755859375</ele>
        <time>2016-08-12T18:48:11.000Z</time>
        <extensions>
          <ns3:TrackPointExtension>
            <ns3:atemp>16.0</ns3:atemp>
            <ns3:hr>144</ns3:hr>
          </ns3:TrackPointExtension>
        </extensions>
      </trkpt>
      <trkpt lat="-22.0795987732708454132080078125" lon="166.44772865809500217437744140625">
        <ele>749.79998779296875</ele>
        <time>2016-08-12T18:48:12.000Z</time>
        <extensions>
          <ns3:TrackPointExtension>
            <ns3:atemp>16.0</ns3:atemp>
            <ns3:hr>144</ns3:hr>
          </ns3:TrackPointExtension>
        </extensions>
      </trkpt>
      <trkpt lat="-22.07957924343645572662353515625" lon="166.4477334357798099517822265625">
        <ele>750.20001220703125</ele>
        <time>2016-08-12T18:48:13.000Z</time>
        <extensions>
          <ns3:TrackPointExtension>
            <ns3:atemp>16.0</ns3:atemp>
            <ns3:hr>144</ns3:hr>
          </ns3:TrackPointExtension>
        </extensions>
      </trkpt>
      <trkpt lat="-22.0795618928968906402587890625" lon="166.4477381296455860137939453125">
        <ele>750.20001220703125</ele>
        <time>2016-08-12T18:48:14.000Z</time>
        <extensions>
          <ns3:TrackPointExtension>
            <ns3:atemp>16.0</ns3:atemp>
            <ns3:hr>144</ns3:hr>
          </ns3:TrackPointExtension>
        </extensions>
      </trkpt>
      <trkpt lat="-22.07954286597669124603271484375" lon="166.44774399697780609130859375">
        <ele>750.4000244140625</ele>
        <time>2016-08-12T18:48:15.000Z</time>
        <extensions>
          <ns3:TrackPointExtension>
            <ns3:atemp>16.0</ns3:atemp>
            <ns3:hr>144</ns3:hr>
          </ns3:TrackPointExtension>
        </extensions>
      </trkpt>
      <trkpt lat="-22.079521827399730682373046875" lon="166.44775070250034332275390625">
        <ele>750.5999755859375</ele>
        <time>2016-08-12T18:48:16.000Z</time>
        <extensions>
          <ns3:TrackPointExtension>
            <ns3:atemp>16.0</ns3:atemp>
            <ns3:hr>144</ns3:hr>
          </ns3:TrackPointExtension>
        </extensions>
      </trkpt>
      <trkpt lat="-22.07950539886951446533203125" lon="166.44775631837546825408935546875">
        <ele>750.79998779296875</ele>
        <time>2016-08-12T18:48:17.000Z</time>
        <extensions>
          <ns3:TrackPointExtension>
            <ns3:atemp>16.0</ns3:atemp>
            <ns3:hr>144</ns3:hr>
          </ns3:TrackPointExtension>
        </extensions>
      </trkpt>
      <trkpt lat="-22.07948955707252025604248046875" lon="166.44775765947997570037841796875">
        <ele>751</ele>
        <time>2016-08-12T18:48:18.000Z</time>
        <extensions>
          <ns3:TrackPointExtension>
            <ns3:atemp>16.0</ns3:atemp>
            <ns3:hr>144</ns3:hr>
          </ns3:TrackPointExtension>
        </extensions>
      </trkpt>
      <trkpt lat="-22.07947187125682830810546875" lon="166.44775933586061000823974609375">
        <ele>751.4000244140625</ele>
        <time>2016-08-12T18:48:19.000Z</time>
        <extensions>
          <ns3:TrackPointExtension>
            <ns3:atemp>16.0</ns3:atemp>
            <ns3:hr>144</ns3:hr>
          </ns3:TrackPointExtension>
        </extensions>
      </trkpt>
      <trkpt lat="-22.07945284433662891387939453125" lon="166.44776151515543460845947265625">
        <ele>751.5999755859375</ele>
        <time>2016-08-12T18:48:20.000Z</time>
        <extensions>
          <ns3:TrackPointExtension>
            <ns3:atemp>16.0</ns3:atemp>
            <ns3:hr>145</ns3:hr>
          </ns3:TrackPointExtension>
        </extensions>
      </trkpt>
      <trkpt lat="-22.0794331468641757965087890625" lon="166.44776687957346439361572265625">
        <ele>751.79998779296875</ele>
        <time>2016-08-12T18:48:21.000Z</time>
        <extensions>
          <ns3:TrackPointExtension>
            <ns3:atemp>16.0</ns3:atemp>
            <ns3:hr>144</ns3:hr>
          </ns3:TrackPointExtension>
        </extensions>
      </trkpt>
      <trkpt lat="-22.07941143773496150970458984375" lon="166.44777140580117702484130859375">
        <ele>751.79998779296875</ele>
        <time>2016-08-12T18:48:22.000Z</time>
        <extensions>
          <ns3:TrackPointExtension>
            <ns3:atemp>16.0</ns3:atemp>
            <ns3:hr>144</ns3:hr>
          </ns3:TrackPointExtension>
        </extensions>
      </trkpt>
      <trkpt lat="-22.07939542829990386962890625" lon="166.44776905886828899383544921875">
        <ele>752.20001220703125</ele>
        <time>2016-08-12T18:48:23.000Z</time>
        <extensions>
          <ns3:TrackPointExtension>
            <ns3:atemp>16.0</ns3:atemp>
            <ns3:hr>144</ns3:hr>
          </ns3:TrackPointExtension>
        </extensions>
      </trkpt>
      <trkpt lat="-22.07938059233129024505615234375" lon="166.44775983877480030059814453125">
        <ele>752.5999755859375</ele>
        <time>2016-08-12T18:48:24.000Z</time>
        <extensions>
          <ns3:TrackPointExtension>
            <ns3:atemp>16.0</ns3:atemp>
            <ns3:hr>144</ns3:hr>
          </ns3:TrackPointExtension>
        </extensions>
      </trkpt>
      <trkpt lat="-22.07936500199139118194580078125" lon="166.4477486908435821533203125">
        <ele>752.79998779296875</ele>
        <time>2016-08-12T18:48:25.000Z</time>
        <extensions>
          <ns3:TrackPointExtension>
            <ns3:atemp>16.0</ns3:atemp>
            <ns3:hr>145</ns3:hr>
          </ns3:TrackPointExtension>
        </extensions>
      </trkpt>
      <trkpt lat="-22.0793520100414752960205078125" lon="166.44773787818849086761474609375">
        <ele>752.79998779296875</ele>
        <time>2016-08-12T18:48:26.000Z</time>
        <extensions>
          <ns3:TrackPointExtension>
            <ns3:atemp>16.0</ns3:atemp>
            <ns3:hr>145</ns3:hr>
          </ns3:TrackPointExtension>
        </extensions>
      </trkpt>
      <trkpt lat="-22.079344131052494049072265625" lon="166.44772446714341640472412109375">
        <ele>753.20001220703125</ele>
        <time>2016-08-12T18:48:27.000Z</time>
        <extensions>
          <ns3:TrackPointExtension>
            <ns3:atemp>16.0</ns3:atemp>
            <ns3:hr>144</ns3:hr>
          </ns3:TrackPointExtension>
        </extensions>
      </trkpt>
      <trkpt lat="-22.0793365873396396636962890625" lon="166.44770485348999500274658203125">
        <ele>753.20001220703125</ele>
        <time>2016-08-12T18:48:28.000Z</time>
        <extensions>
          <ns3:TrackPointExtension>
            <ns3:atemp>16.0</ns3:atemp>
            <ns3:hr>145</ns3:hr>
          </ns3:TrackPointExtension>
        </extensions>
      </trkpt>
      <trkpt lat="-22.07932275719940662384033203125" lon="166.447689346969127655029296875">
        <ele>753.4000244140625</ele>
        <time>2016-08-12T18:48:29.000Z</time>
        <extensions>
          <ns3:TrackPointExtension>
            <ns3:atemp>16.0</ns3:atemp>
            <ns3:hr>145</ns3:hr>
          </ns3:TrackPointExtension>
        </extensions>
      </trkpt>
      <trkpt lat="-22.0793094299733638763427734375" lon="166.4476762712001800537109375">
        <ele>753.20001220703125</ele>
        <time>2016-08-12T18:48:30.000Z</time>
        <extensions>
          <ns3:TrackPointExtension>
            <ns3:atemp>16.0</ns3:atemp>
            <ns3:hr>144</ns3:hr>
          </ns3:TrackPointExtension>
        </extensions>
      </trkpt>
      <trkpt lat="-22.07929593510925769805908203125" lon="166.4476630277931690216064453125">
        <ele>753.4000244140625</ele>
        <time>2016-08-12T18:48:31.000Z</time>
        <extensions>
          <ns3:TrackPointExtension>
            <ns3:atemp>16.0</ns3:atemp>
            <ns3:hr>144</ns3:hr>
          </ns3:TrackPointExtension>
        </extensions>
      </trkpt>
      <trkpt lat="-22.07928269170224666595458984375" lon="166.44764718599617481231689453125">
        <ele>753.5999755859375</ele>
        <time>2016-08-12T18:48:32.000Z</time>
        <extensions>
          <ns3:TrackPointExtension>
            <ns3:atemp>16.0</ns3:atemp>
            <ns3:hr>145</ns3:hr>
          </ns3:TrackPointExtension>
        </extensions>
      </trkpt>
      <trkpt lat="-22.0792675204575061798095703125" lon="166.44763402640819549560546875">
        <ele>753.79998779296875</ele>
        <time>2016-08-12T18:48:33.000Z</time>
        <extensions>
          <ns3:TrackPointExtension>
            <ns3:atemp>16.0</ns3:atemp>
            <ns3:hr>145</ns3:hr>
          </ns3:TrackPointExtension>
        </extensions>
      </trkpt>
      <trkpt lat="-22.07925369031727313995361328125" lon="166.4476211182773113250732421875">
        <ele>754</ele>
        <time>2016-08-12T18:48:34.000Z</time>
        <extensions>
          <ns3:TrackPointExtension>
            <ns3:atemp>16.0</ns3:atemp>
            <ns3:hr>144</ns3:hr>
          </ns3:TrackPointExtension>
        </extensions>
      </trkpt>
      <trkpt lat="-22.079240195453166961669921875" lon="166.44761047326028347015380859375">
        <ele>754.4000244140625</ele>
        <time>2016-08-12T18:48:35.000Z</time>
        <extensions>
          <ns3:TrackPointExtension>
            <ns3:atemp>16.0</ns3:atemp>
            <ns3:hr>144</ns3:hr>
          </ns3:TrackPointExtension>
        </extensions>
      </trkpt>
      <trkpt lat="-22.079228460788726806640625" lon="166.447599828243255615234375">
        <ele>754.4000244140625</ele>
        <time>2016-08-12T18:48:36.000Z</time>
        <extensions>
          <ns3:TrackPointExtension>
            <ns3:atemp>16.0</ns3:atemp>
            <ns3:hr>144</ns3:hr>
          </ns3:TrackPointExtension>
        </extensions>
      </trkpt>
      <trkpt lat="-22.0792121998965740203857421875" lon="166.4475889317691326141357421875">
        <ele>754.79998779296875</ele>
        <time>2016-08-12T18:48:37.000Z</time>
        <extensions>
          <ns3:TrackPointExtension>
            <ns3:atemp>16.0</ns3:atemp>
            <ns3:hr>145</ns3:hr>
          </ns3:TrackPointExtension>
        </extensions>
      </trkpt>
      <trkpt lat="-22.07919417880475521087646484375" lon="166.447583734989166259765625">
        <ele>755</ele>
        <time>2016-08-12T18:48:38.000Z</time>
        <extensions>
          <ns3:TrackPointExtension>
            <ns3:atemp>16.0</ns3:atemp>
            <ns3:hr>144</ns3:hr>
          </ns3:TrackPointExtension>
        </extensions>
      </trkpt>
      <trkpt lat="-22.0791759900748729705810546875" lon="166.44757996313273906707763671875">
        <ele>755</ele>
        <time>2016-08-12T18:48:39.000Z</time>
        <extensions>
          <ns3:TrackPointExtension>
            <ns3:atemp>16.0</ns3:atemp>
            <ns3:hr>144</ns3:hr>
          </ns3:TrackPointExtension>
        </extensions>
      </trkpt>
      <trkpt lat="-22.07915210165083408355712890625" lon="166.44757577218115329742431640625">
        <ele>755.20001220703125</ele>
        <time>2016-08-12T18:48:40.000Z</time>
        <extensions>
          <ns3:TrackPointExtension>
            <ns3:atemp>16.0</ns3:atemp>
            <ns3:hr>144</ns3:hr>
          </ns3:TrackPointExtension>
        </extensions>
      </trkpt>
      <trkpt lat="-22.07913081161677837371826171875" lon="166.4475731737911701202392578125">
        <ele>755.4000244140625</ele>
        <time>2016-08-12T18:48:41.000Z</time>
        <extensions>
          <ns3:TrackPointExtension>
            <ns3:atemp>16.0</ns3:atemp>
            <ns3:hr>144</ns3:hr>
          </ns3:TrackPointExtension>
        </extensions>
      </trkpt>
      <trkpt lat="-22.07911220379173755645751953125" lon="166.44757007248699665069580078125">
        <ele>755.4000244140625</ele>
        <time>2016-08-12T18:48:42.000Z</time>
        <extensions>
          <ns3:TrackPointExtension>
            <ns3:atemp>16.0</ns3:atemp>
            <ns3:hr>144</ns3:hr>
          </ns3:TrackPointExtension>
        </extensions>
      </trkpt>
      <trkpt lat="-22.0790930092334747314453125" lon="166.447565965354442596435546875">
        <ele>755.79998779296875</ele>
        <time>2016-08-12T18:48:43.000Z</time>
        <extensions>
          <ns3:TrackPointExtension>
            <ns3:atemp>16.0</ns3:atemp>
            <ns3:hr>144</ns3:hr>
          </ns3:TrackPointExtension>
        </extensions>
      </trkpt>
      <trkpt lat="-22.0790742337703704833984375" lon="166.44756370224058628082275390625">
        <ele>756</ele>
        <time>2016-08-12T18:48:44.000Z</time>
        <extensions>
          <ns3:TrackPointExtension>
            <ns3:atemp>16.0</ns3:atemp>
            <ns3:hr>144</ns3:hr>
          </ns3:TrackPointExtension>
        </extensions>
      </trkpt>
      <trkpt lat="-22.0790573023259639739990234375" lon="166.44756521098315715789794921875">
        <ele>756.20001220703125</ele>
        <time>2016-08-12T18:48:45.000Z</time>
        <extensions>
          <ns3:TrackPointExtension>
            <ns3:atemp>16.0</ns3:atemp>
            <ns3:hr>144</ns3:hr>
          </ns3:TrackPointExtension>
        </extensions>
      </trkpt>
      <trkpt lat="-22.0790420472621917724609375" lon="166.44756873138248920440673828125">
        <ele>756.20001220703125</ele>
        <time>2016-08-12T18:48:46.000Z</time>
        <extensions>
          <ns3:TrackPointExtension>
            <ns3:atemp>16.0</ns3:atemp>
            <ns3:hr>143</ns3:hr>
          </ns3:TrackPointExtension>
        </extensions>
      </trkpt>
      <trkpt lat="-22.0790259540081024169921875" lon="166.447570323944091796875">
        <ele>756.4000244140625</ele>
        <time>2016-08-12T18:48:47.000Z</time>
        <extensions>
          <ns3:TrackPointExtension>
            <ns3:atemp>16.0</ns3:atemp>
            <ns3:hr>143</ns3:hr>
          </ns3:TrackPointExtension>
        </extensions>
      </trkpt>
      <trkpt lat="-22.0790106989443302154541015625" lon="166.4475745148956775665283203125">
        <ele>756.5999755859375</ele>
        <time>2016-08-12T18:48:48.000Z</time>
        <extensions>
          <ns3:TrackPointExtension>
            <ns3:atemp>16.0</ns3:atemp>
            <ns3:hr>143</ns3:hr>
          </ns3:TrackPointExtension>
        </extensions>
      </trkpt>
      <trkpt lat="-22.078993432223796844482421875" lon="166.4475842379033565521240234375">
        <ele>756.5999755859375</ele>
        <time>2016-08-12T18:48:49.000Z</time>
        <extensions>
          <ns3:TrackPointExtension>
            <ns3:atemp>16.0</ns3:atemp>
            <ns3:hr>143</ns3:hr>
          </ns3:TrackPointExtension>
        </extensions>
      </trkpt>
      <trkpt lat="-22.07897490821778774261474609375" lon="166.44759387709200382232666015625">
        <ele>756.5999755859375</ele>
        <time>2016-08-12T18:48:50.000Z</time>
        <extensions>
          <ns3:TrackPointExtension>
            <ns3:atemp>16.0</ns3:atemp>
            <ns3:hr>143</ns3:hr>
          </ns3:TrackPointExtension>
        </extensions>
      </trkpt>
      <trkpt lat="-22.07895529456436634063720703125" lon="166.44760183990001678466796875">
        <ele>757</ele>
        <time>2016-08-12T18:48:51.000Z</time>
        <extensions>
          <ns3:TrackPointExtension>
            <ns3:atemp>16.0</ns3:atemp>
            <ns3:hr>143</ns3:hr>
          </ns3:TrackPointExtension>
        </extensions>
      </trkpt>
      <trkpt lat="-22.0789426378905773162841796875" lon="166.4475999958813190460205078125">
        <ele>757</ele>
        <time>2016-08-12T18:48:52.000Z</time>
        <extensions>
          <ns3:TrackPointExtension>
            <ns3:atemp>16.0</ns3:atemp>
            <ns3:hr>143</ns3:hr>
          </ns3:TrackPointExtension>
        </extensions>
      </trkpt>
      <trkpt lat="-22.07892604172229766845703125" lon="166.447599492967128753662109375">
        <ele>757</ele>
        <time>2016-08-12T18:48:53.000Z</time>
        <extensions>
          <ns3:TrackPointExtension>
            <ns3:atemp>16.0</ns3:atemp>
            <ns3:hr>143</ns3:hr>
          </ns3:TrackPointExtension>
        </extensions>
      </trkpt>
      <trkpt lat="-22.078906930983066558837890625" lon="166.44760125316679477691650390625">
        <ele>757.20001220703125</ele>
        <time>2016-08-12T18:48:54.000Z</time>
        <extensions>
          <ns3:TrackPointExtension>
            <ns3:atemp>16.0</ns3:atemp>
            <ns3:hr>143</ns3:hr>
          </ns3:TrackPointExtension>
        </extensions>
      </trkpt>
      <trkpt lat="-22.0788879878818988800048828125" lon="166.447603516280651092529296875">
        <ele>757.20001220703125</ele>
        <time>2016-08-12T18:48:55.000Z</time>
        <extensions>
          <ns3:TrackPointExtension>
            <ns3:atemp>16.0</ns3:atemp>
            <ns3:hr>143</ns3:hr>
          </ns3:TrackPointExtension>
        </extensions>
      </trkpt>
      <trkpt lat="-22.0788611657917499542236328125" lon="166.4476083777844905853271484375">
        <ele>757.4000244140625</ele>
        <time>2016-08-12T18:48:56.000Z</time>
        <extensions>
          <ns3:TrackPointExtension>
            <ns3:atemp>16.0</ns3:atemp>
            <ns3:hr>143</ns3:hr>
          </ns3:TrackPointExtension>
        </extensions>
      </trkpt>
      <trkpt lat="-22.078842557966709136962890625" lon="166.4476145803928375244140625">
        <ele>757.4000244140625</ele>
        <time>2016-08-12T18:48:57.000Z</time>
        <extensions>
          <ns3:TrackPointExtension>
            <ns3:atemp>16.0</ns3:atemp>
            <ns3:hr>142</ns3:hr>
          </ns3:TrackPointExtension>
        </extensions>
      </trkpt>
      <trkpt lat="-22.0788262970745563507080078125" lon="166.4476221241056919097900390625">
        <ele>757.4000244140625</ele>
        <time>2016-08-12T18:48:58.000Z</time>
        <extensions>
          <ns3:TrackPointExtension>
            <ns3:atemp>16.0</ns3:atemp>
            <ns3:hr>142</ns3:hr>
          </ns3:TrackPointExtension>
        </extensions>
      </trkpt>
      <trkpt lat="-22.07880911417305469512939453125" lon="166.44763025455176830291748046875">
        <ele>757.4000244140625</ele>
        <time>2016-08-12T18:48:59.000Z</time>
        <extensions>
          <ns3:TrackPointExtension>
            <ns3:atemp>16.0</ns3:atemp>
            <ns3:hr>143</ns3:hr>
          </ns3:TrackPointExtension>
        </extensions>
      </trkpt>
      <trkpt lat="-22.0787890814244747161865234375" lon="166.44764182157814502716064453125">
        <ele>758</ele>
        <time>2016-08-12T18:49:00.000Z</time>
        <extensions>
          <ns3:TrackPointExtension>
            <ns3:atemp>16.0</ns3:atemp>
            <ns3:hr>142</ns3:hr>
          </ns3:TrackPointExtension>
        </extensions>
      </trkpt>
      <trkpt lat="-22.078766785562038421630859375" lon="166.44765548408031463623046875">
        <ele>758.20001220703125</ele>
        <time>2016-08-12T18:49:01.000Z</time>
        <extensions>
          <ns3:TrackPointExtension>
            <ns3:atemp>16.0</ns3:atemp>
            <ns3:hr>142</ns3:hr>
          </ns3:TrackPointExtension>
        </extensions>
      </trkpt>
      <trkpt lat="-22.0787501893937587738037109375" lon="166.4476657100021839141845703125">
        <ele>758.4000244140625</ele>
        <time>2016-08-12T18:49:02.000Z</time>
        <extensions>
          <ns3:TrackPointExtension>
            <ns3:atemp>16.0</ns3:atemp>
            <ns3:hr>143</ns3:hr>
          </ns3:TrackPointExtension>
        </extensions>
      </trkpt>
      <trkpt lat="-22.0787367783486843109130859375" lon="166.4476740919053554534912109375">
        <ele>758.5999755859375</ele>
        <time>2016-08-12T18:49:03.000Z</time>
        <extensions>
          <ns3:TrackPointExtension>
            <ns3:atemp>16.0</ns3:atemp>
            <ns3:hr>142</ns3:hr>
          </ns3:TrackPointExtension>
        </extensions>
      </trkpt>
      <trkpt lat="-22.078727222979068756103515625" lon="166.44767903722822666168212890625">
        <ele>758.79998779296875</ele>
        <time>2016-08-12T18:49:04.000Z</time>
        <extensions>
          <ns3:TrackPointExtension>
            <ns3:atemp>16.0</ns3:atemp>
            <ns3:hr>142</ns3:hr>
          </ns3:TrackPointExtension>
        </extensions>
      </trkpt>
      <trkpt lat="-22.0787146501243114471435546875" lon="166.44768540747463703155517578125">
        <ele>759.20001220703125</ele>
        <time>2016-08-12T18:49:05.000Z</time>
        <extensions>
          <ns3:TrackPointExtension>
            <ns3:atemp>16.0</ns3:atemp>
            <ns3:hr>143</ns3:hr>
          </ns3:TrackPointExtension>
        </extensions>
      </trkpt>
      <trkpt lat="-22.0786992274224758148193359375" lon="166.4476851560175418853759765625">
        <ele>759.4000244140625</ele>
        <time>2016-08-12T18:49:06.000Z</time>
        <extensions>
          <ns3:TrackPointExtension>
            <ns3:atemp>16.0</ns3:atemp>
            <ns3:hr>143</ns3:hr>
          </ns3:TrackPointExtension>
        </extensions>
      </trkpt>
      <trkpt lat="-22.078678607940673828125" lon="166.44768456928431987762451171875">
        <ele>759.5999755859375</ele>
        <time>2016-08-12T18:49:07.000Z</time>
        <extensions>
          <ns3:TrackPointExtension>
            <ns3:atemp>16.0</ns3:atemp>
            <ns3:hr>142</ns3:hr>
          </ns3:TrackPointExtension>
        </extensions>
      </trkpt>
      <trkpt lat="-22.0786640234291553497314453125" lon="166.4476818032562732696533203125">
        <ele>759.79998779296875</ele>
        <time>2016-08-12T18:49:08.000Z</time>
        <extensions>
          <ns3:TrackPointExtension>
            <ns3:atemp>16.0</ns3:atemp>
            <ns3:hr>143</ns3:hr>
          </ns3:TrackPointExtension>
        </extensions>
      </trkpt>
      <trkpt lat="-22.078648768365383148193359375" lon="166.44767769612371921539306640625">
        <ele>760</ele>
        <time>2016-08-12T18:49:09.000Z</time>
        <extensions>
          <ns3:TrackPointExtension>
            <ns3:atemp>16.0</ns3:atemp>
            <ns3:hr>143</ns3:hr>
          </ns3:TrackPointExtension>
        </extensions>
      </trkpt>
      <trkpt lat="-22.07862990908324718475341796875" lon="166.44767224788665771484375">
        <ele>760</ele>
        <time>2016-08-12T18:49:10.000Z</time>
        <extensions>
          <ns3:TrackPointExtension>
            <ns3:atemp>16.0</ns3:atemp>
            <ns3:hr>142</ns3:hr>
          </ns3:TrackPointExtension>
        </extensions>
      </trkpt>
      <trkpt lat="-22.07861096598207950592041015625" lon="166.4476670511066913604736328125">
        <ele>760.20001220703125</ele>
        <time>2016-08-12T18:49:11.000Z</time>
        <extensions>
          <ns3:TrackPointExtension>
            <ns3:atemp>16.0</ns3:atemp>
            <ns3:hr>142</ns3:hr>
          </ns3:TrackPointExtension>
        </extensions>
      </trkpt>
      <trkpt lat="-22.07859344780445098876953125" lon="166.44766193814575672149658203125">
        <ele>760.4000244140625</ele>
        <time>2016-08-12T18:49:12.000Z</time>
        <extensions>
          <ns3:TrackPointExtension>
            <ns3:atemp>16.0</ns3:atemp>
            <ns3:hr>143</ns3:hr>
          </ns3:TrackPointExtension>
        </extensions>
      </trkpt>
      <trkpt lat="-22.078576348721981048583984375" lon="166.4476553164422512054443359375">
        <ele>760.4000244140625</ele>
        <time>2016-08-12T18:49:13.000Z</time>
        <extensions>
          <ns3:TrackPointExtension>
            <ns3:atemp>16.0</ns3:atemp>
            <ns3:hr>142</ns3:hr>
          </ns3:TrackPointExtension>
        </extensions>
      </trkpt>
      <trkpt lat="-22.07856184802949428558349609375" lon="166.44764877855777740478515625">
        <ele>760.79998779296875</ele>
        <time>2016-08-12T18:49:14.000Z</time>
        <extensions>
          <ns3:TrackPointExtension>
            <ns3:atemp>16.0</ns3:atemp>
            <ns3:hr>142</ns3:hr>
          </ns3:TrackPointExtension>
        </extensions>
      </trkpt>
      <trkpt lat="-22.07854810170829296112060546875" lon="166.44763729535043239593505859375">
        <ele>760.79998779296875</ele>
        <time>2016-08-12T18:49:15.000Z</time>
        <extensions>
          <ns3:TrackPointExtension>
            <ns3:atemp>16.0</ns3:atemp>
            <ns3:hr>143</ns3:hr>
          </ns3:TrackPointExtension>
        </extensions>
      </trkpt>
      <trkpt lat="-22.07853653468191623687744140625" lon="166.44762061536312103271484375">
        <ele>761</ele>
        <time>2016-08-12T18:49:16.000Z</time>
        <extensions>
          <ns3:TrackPointExtension>
            <ns3:atemp>16.0</ns3:atemp>
            <ns3:hr>143</ns3:hr>
          </ns3:TrackPointExtension>
        </extensions>
      </trkpt>
      <trkpt lat="-22.078524716198444366455078125" lon="166.44760544411838054656982421875">
        <ele>761.4000244140625</ele>
        <time>2016-08-12T18:49:17.000Z</time>
        <extensions>
          <ns3:TrackPointExtension>
            <ns3:atemp>16.0</ns3:atemp>
            <ns3:hr>142</ns3:hr>
          </ns3:TrackPointExtension>
        </extensions>
      </trkpt>
      <trkpt lat="-22.07851231098175048828125" lon="166.44759303890168666839599609375">
        <ele>761.5999755859375</ele>
        <time>2016-08-12T18:49:18.000Z</time>
        <extensions>
          <ns3:TrackPointExtension>
            <ns3:atemp>16.0</ns3:atemp>
            <ns3:hr>143</ns3:hr>
          </ns3:TrackPointExtension>
        </extensions>
      </trkpt>
      <trkpt lat="-22.078499905765056610107421875" lon="166.4475770294666290283203125">
        <ele>761.79998779296875</ele>
        <time>2016-08-12T18:49:19.000Z</time>
        <extensions>
          <ns3:TrackPointExtension>
            <ns3:atemp>16.0</ns3:atemp>
            <ns3:hr>143</ns3:hr>
          </ns3:TrackPointExtension>
        </extensions>
      </trkpt>
      <trkpt lat="-22.0784886740148067474365234375" lon="166.44756353460252285003662109375">
        <ele>762.20001220703125</ele>
        <time>2016-08-12T18:49:20.000Z</time>
        <extensions>
          <ns3:TrackPointExtension>
            <ns3:atemp>16.0</ns3:atemp>
            <ns3:hr>142</ns3:hr>
          </ns3:TrackPointExtension>
        </extensions>
      </trkpt>
      <trkpt lat="-22.07847484387457370758056640625" lon="166.4475520513951778411865234375">
        <ele>762.4000244140625</ele>
        <time>2016-08-12T18:49:21.000Z</time>
        <extensions>
          <ns3:TrackPointExtension>
            <ns3:atemp>16.0</ns3:atemp>
            <ns3:hr>142</ns3:hr>
          </ns3:TrackPointExtension>
        </extensions>
      </trkpt>
      <trkpt lat="-22.0784628577530384063720703125" lon="166.44753503613173961639404296875">
        <ele>762.5999755859375</ele>
        <time>2016-08-12T18:49:22.000Z</time>
        <extensions>
          <ns3:TrackPointExtension>
            <ns3:atemp>16.0</ns3:atemp>
            <ns3:hr>142</ns3:hr>
          </ns3:TrackPointExtension>
        </extensions>
      </trkpt>
      <trkpt lat="-22.078450620174407958984375" lon="166.4475202001631259918212890625">
        <ele>762.79998779296875</ele>
        <time>2016-08-12T18:49:23.000Z</time>
        <extensions>
          <ns3:TrackPointExtension>
            <ns3:atemp>16.0</ns3:atemp>
            <ns3:hr>143</ns3:hr>
          </ns3:TrackPointExtension>
        </extensions>
      </trkpt>
      <trkpt lat="-22.078433521091938018798828125" lon="166.44750536419451236724853515625">
        <ele>763</ele>
        <time>2016-08-12T18:49:24.000Z</time>
        <extensions>
          <ns3:TrackPointExtension>
            <ns3:atemp>16.0</ns3:atemp>
            <ns3:hr>142</ns3:hr>
          </ns3:TrackPointExtension>
        </extensions>
      </trkpt>
      <trkpt lat="-22.07842170260846614837646484375" lon="166.4474863372743129730224609375">
        <ele>763</ele>
        <time>2016-08-12T18:49:25.000Z</time>
        <extensions>
          <ns3:TrackPointExtension>
            <ns3:atemp>16.0</ns3:atemp>
            <ns3:hr>143</ns3:hr>
          </ns3:TrackPointExtension>
        </extensions>
      </trkpt>
      <trkpt lat="-22.0784112252295017242431640625" lon="166.44746999256312847137451171875">
        <ele>763.20001220703125</ele>
        <time>2016-08-12T18:49:26.000Z</time>
        <extensions>
          <ns3:TrackPointExtension>
            <ns3:atemp>16.0</ns3:atemp>
            <ns3:hr>143</ns3:hr>
          </ns3:TrackPointExtension>
        </extensions>
      </trkpt>
      <trkpt lat="-22.07840259186923503875732421875" lon="166.44744887016713619232177734375">
        <ele>763.5999755859375</ele>
        <time>2016-08-12T18:49:27.000Z</time>
        <extensions>
          <ns3:TrackPointExtension>
            <ns3:atemp>16.0</ns3:atemp>
            <ns3:hr>143</ns3:hr>
          </ns3:TrackPointExtension>
        </extensions>
      </trkpt>
      <trkpt lat="-22.07839588634669780731201171875" lon="166.4474273286759853363037109375">
        <ele>763.5999755859375</ele>
        <time>2016-08-12T18:49:28.000Z</time>
        <extensions>
          <ns3:TrackPointExtension>
            <ns3:atemp>16.0</ns3:atemp>
            <ns3:hr>142</ns3:hr>
          </ns3:TrackPointExtension>
        </extensions>
      </trkpt>
      <trkpt lat="-22.07838968373835086822509765625" lon="166.44741006195545196533203125">
        <ele>763.79998779296875</ele>
        <time>2016-08-12T18:49:29.000Z</time>
        <extensions>
          <ns3:TrackPointExtension>
            <ns3:atemp>16.0</ns3:atemp>
            <ns3:hr>142</ns3:hr>
          </ns3:TrackPointExtension>
        </extensions>
      </trkpt>
      <trkpt lat="-22.078383900225162506103515625" lon="166.447392962872982025146484375">
        <ele>763.79998779296875</ele>
        <time>2016-08-12T18:49:30.000Z</time>
        <extensions>
          <ns3:TrackPointExtension>
            <ns3:atemp>16.0</ns3:atemp>
            <ns3:hr>142</ns3:hr>
          </ns3:TrackPointExtension>
        </extensions>
      </trkpt>
      <trkpt lat="-22.07837895490229129791259765625" lon="166.4473723433911800384521484375">
        <ele>764</ele>
        <time>2016-08-12T18:49:31.000Z</time>
        <extensions>
          <ns3:TrackPointExtension>
            <ns3:atemp>16.0</ns3:atemp>
            <ns3:hr>142</ns3:hr>
          </ns3:TrackPointExtension>
        </extensions>
      </trkpt>
      <trkpt lat="-22.0783699862658977508544921875" lon="166.447356753051280975341796875">
        <ele>764</ele>
        <time>2016-08-12T18:49:32.000Z</time>
        <extensions>
          <ns3:TrackPointExtension>
            <ns3:atemp>16.0</ns3:atemp>
            <ns3:hr>142</ns3:hr>
          </ns3:TrackPointExtension>
        </extensions>
      </trkpt>
      <trkpt lat="-22.07835800014436244964599609375" lon="166.44734342582523822784423828125">
        <ele>764</ele>
        <time>2016-08-12T18:49:33.000Z</time>
        <extensions>
          <ns3:TrackPointExtension>
            <ns3:atemp>16.0</ns3:atemp>
            <ns3:hr>142</ns3:hr>
          </ns3:TrackPointExtension>
        </extensions>
      </trkpt>
      <trkpt lat="-22.0783445052802562713623046875" lon="166.44733068533241748809814453125">
        <ele>764.4000244140625</ele>
        <time>2016-08-12T18:49:34.000Z</time>
        <extensions>
          <ns3:TrackPointExtension>
            <ns3:atemp>16.0</ns3:atemp>
            <ns3:hr>142</ns3:hr>
          </ns3:TrackPointExtension>
        </extensions>
      </trkpt>
      <trkpt lat="-22.07833251915872097015380859375" lon="166.44731819629669189453125">
        <ele>764.5999755859375</ele>
        <time>2016-08-12T18:49:35.000Z</time>
        <extensions>
          <ns3:TrackPointExtension>
            <ns3:atemp>16.0</ns3:atemp>
            <ns3:hr>142</ns3:hr>
          </ns3:TrackPointExtension>
        </extensions>
      </trkpt>
      <trkpt lat="-22.07831692881882190704345703125" lon="166.44730671308934688568115234375">
        <ele>764.5999755859375</ele>
        <time>2016-08-12T18:49:36.000Z</time>
        <extensions>
          <ns3:TrackPointExtension>
            <ns3:atemp>16.0</ns3:atemp>
            <ns3:hr>142</ns3:hr>
          </ns3:TrackPointExtension>
        </extensions>
      </trkpt>
      <trkpt lat="-22.07830351777374744415283203125" lon="166.44729615189135074615478515625">
        <ele>765</ele>
        <time>2016-08-12T18:49:37.000Z</time>
        <extensions>
          <ns3:TrackPointExtension>
            <ns3:atemp>16.0</ns3:atemp>
            <ns3:hr>142</ns3:hr>
          </ns3:TrackPointExtension>
        </extensions>
      </trkpt>
      <trkpt lat="-22.078290022909641265869140625" lon="166.44728424958884716033935546875">
        <ele>765.4000244140625</ele>
        <time>2016-08-12T18:49:38.000Z</time>
        <extensions>
          <ns3:TrackPointExtension>
            <ns3:atemp>16.0</ns3:atemp>
            <ns3:hr>143</ns3:hr>
          </ns3:TrackPointExtension>
        </extensions>
      </trkpt>
      <trkpt lat="-22.07827384583652019500732421875" lon="166.44727117381989955902099609375">
        <ele>765.4000244140625</ele>
        <time>2016-08-12T18:49:39.000Z</time>
        <extensions>
          <ns3:TrackPointExtension>
            <ns3:atemp>16.0</ns3:atemp>
            <ns3:hr>143</ns3:hr>
          </ns3:TrackPointExtension>
        </extensions>
      </trkpt>
      <trkpt lat="-22.0782613568007946014404296875" lon="166.44726078025996685028076171875">
        <ele>765.5999755859375</ele>
        <time>2016-08-12T18:49:40.000Z</time>
        <extensions>
          <ns3:TrackPointExtension>
            <ns3:atemp>16.0</ns3:atemp>
            <ns3:hr>143</ns3:hr>
          </ns3:TrackPointExtension>
        </extensions>
      </trkpt>
      <trkpt lat="-22.07825205288827419281005859375" lon="166.44724954850971698760986328125">
        <ele>765.79998779296875</ele>
        <time>2016-08-12T18:49:41.000Z</time>
        <extensions>
          <ns3:TrackPointExtension>
            <ns3:atemp>16.0</ns3:atemp>
            <ns3:hr>143</ns3:hr>
          </ns3:TrackPointExtension>
        </extensions>
      </trkpt>
      <trkpt lat="-22.0782368816435337066650390625" lon="166.4472358860075473785400390625">
        <ele>766</ele>
        <time>2016-08-12T18:49:42.000Z</time>
        <extensions>
          <ns3:TrackPointExtension>
            <ns3:atemp>16.0</ns3:atemp>
            <ns3:hr>143</ns3:hr>
          </ns3:TrackPointExtension>
        </extensions>
      </trkpt>
      <trkpt lat="-22.07822539843618869781494140625" lon="166.44722306169569492340087890625">
        <ele>766</ele>
        <time>2016-08-12T18:49:43.000Z</time>
        <extensions>
          <ns3:TrackPointExtension>
            <ns3:atemp>16.0</ns3:atemp>
            <ns3:hr>143</ns3:hr>
          </ns3:TrackPointExtension>
        </extensions>
      </trkpt>
      <trkpt lat="-22.07821391522884368896484375" lon="166.4472117461264133453369140625">
        <ele>766</ele>
        <time>2016-08-12T18:49:44.000Z</time>
        <extensions>
          <ns3:TrackPointExtension>
            <ns3:atemp>16.0</ns3:atemp>
            <ns3:hr>143</ns3:hr>
          </ns3:TrackPointExtension>
        </extensions>
      </trkpt>
      <trkpt lat="-22.07819790579378604888916015625" lon="166.44719959236681461334228515625">
        <ele>766.20001220703125</ele>
        <time>2016-08-12T18:49:45.000Z</time>
        <extensions>
          <ns3:TrackPointExtension>
            <ns3:atemp>16.0</ns3:atemp>
            <ns3:hr>142</ns3:hr>
          </ns3:TrackPointExtension>
        </extensions>
      </trkpt>
      <trkpt lat="-22.07817544229328632354736328125" lon="166.4471929706633090972900390625">
        <ele>766.5999755859375</ele>
        <time>2016-08-12T18:49:46.000Z</time>
        <extensions>
          <ns3:TrackPointExtension>
            <ns3:atemp>16.0</ns3:atemp>
            <ns3:hr>143</ns3:hr>
          </ns3:TrackPointExtension>
        </extensions>
      </trkpt>
      <trkpt lat="-22.07815364934504032135009765625" lon="166.4471892826259136199951171875">
        <ele>766.5999755859375</ele>
        <time>2016-08-12T18:49:47.000Z</time>
        <extensions>
          <ns3:TrackPointExtension>
            <ns3:atemp>16.0</ns3:atemp>
            <ns3:hr>143</ns3:hr>
          </ns3:TrackPointExtension>
        </extensions>
      </trkpt>
      <trkpt lat="-22.078131102025508880615234375" lon="166.44718618132174015045166015625">
        <ele>766.79998779296875</ele>
        <time>2016-08-12T18:49:48.000Z</time>
        <extensions>
          <ns3:TrackPointExtension>
            <ns3:atemp>16.0</ns3:atemp>
            <ns3:hr>142</ns3:hr>
          </ns3:TrackPointExtension>
        </extensions>
      </trkpt>
      <trkpt lat="-22.07811542786657810211181640625" lon="166.447184421122074127197265625">
        <ele>767</ele>
        <time>2016-08-12T18:49:49.000Z</time>
        <extensions>
          <ns3:TrackPointExtension>
            <ns3:atemp>16.0</ns3:atemp>
            <ns3:hr>143</ns3:hr>
          </ns3:TrackPointExtension>
        </extensions>
      </trkpt>
      <trkpt lat="-22.078096233308315277099609375" lon="166.4471812359988689422607421875">
        <ele>767</ele>
        <time>2016-08-12T18:49:50.000Z</time>
        <extensions>
          <ns3:TrackPointExtension>
            <ns3:atemp>16.0</ns3:atemp>
            <ns3:hr>142</ns3:hr>
          </ns3:TrackPointExtension>
        </extensions>
      </trkpt>
      <trkpt lat="-22.07807050086557865142822265625" lon="166.44717930816113948822021484375">
        <ele>767.4000244140625</ele>
        <time>2016-08-12T18:49:51.000Z</time>
        <extensions>
          <ns3:TrackPointExtension>
            <ns3:atemp>16.0</ns3:atemp>
            <ns3:hr>143</ns3:hr>
          </ns3:TrackPointExtension>
        </extensions>
      </trkpt>
      <trkpt lat="-22.0780427567660808563232421875" lon="166.4471800625324249267578125">
        <ele>767.5999755859375</ele>
        <time>2016-08-12T18:49:52.000Z</time>
        <extensions>
          <ns3:TrackPointExtension>
            <ns3:atemp>16.0</ns3:atemp>
            <ns3:hr>143</ns3:hr>
          </ns3:TrackPointExtension>
        </extensions>
      </trkpt>
      <trkpt lat="-22.07801735959947109222412109375" lon="166.44718534313142299652099609375">
        <ele>767.79998779296875</ele>
        <time>2016-08-12T18:49:53.000Z</time>
        <extensions>
          <ns3:TrackPointExtension>
            <ns3:atemp>16.0</ns3:atemp>
            <ns3:hr>143</ns3:hr>
          </ns3:TrackPointExtension>
        </extensions>
      </trkpt>
      <trkpt lat="-22.07799456082284450531005859375" lon="166.4471899531781673431396484375">
        <ele>768</ele>
        <time>2016-08-12T18:49:54.000Z</time>
        <extensions>
          <ns3:TrackPointExtension>
            <ns3:atemp>16.0</ns3:atemp>
            <ns3:hr>143</ns3:hr>
          </ns3:TrackPointExtension>
        </extensions>
      </trkpt>
      <trkpt lat="-22.07797176204621791839599609375" lon="166.44719355739653110504150390625">
        <ele>768.20001220703125</ele>
        <time>2016-08-12T18:49:55.000Z</time>
        <extensions>
          <ns3:TrackPointExtension>
            <ns3:atemp>16.0</ns3:atemp>
            <ns3:hr>142</ns3:hr>
          </ns3:TrackPointExtension>
        </extensions>
      </trkpt>
      <trkpt lat="-22.077950052917003631591796875" lon="166.44719657488167285919189453125">
        <ele>768.20001220703125</ele>
        <time>2016-08-12T18:49:56.000Z</time>
        <extensions>
          <ns3:TrackPointExtension>
            <ns3:atemp>16.0</ns3:atemp>
            <ns3:hr>143</ns3:hr>
          </ns3:TrackPointExtension>
        </extensions>
      </trkpt>
      <trkpt lat="-22.07793387584388256072998046875" lon="166.4471949823200702667236328125">
        <ele>768.5999755859375</ele>
        <time>2016-08-12T18:49:57.000Z</time>
        <extensions>
          <ns3:TrackPointExtension>
            <ns3:atemp>16.0</ns3:atemp>
            <ns3:hr>142</ns3:hr>
          </ns3:TrackPointExtension>
        </extensions>
      </trkpt>
      <trkpt lat="-22.07791677676141262054443359375" lon="166.44719171337783336639404296875">
        <ele>768.79998779296875</ele>
        <time>2016-08-12T18:49:58.000Z</time>
        <extensions>
          <ns3:TrackPointExtension>
            <ns3:atemp>16.0</ns3:atemp>
            <ns3:hr>142</ns3:hr>
          </ns3:TrackPointExtension>
        </extensions>
      </trkpt>
      <trkpt lat="-22.07790009677410125732421875" lon="166.44718735478818416595458984375">
        <ele>769</ele>
        <time>2016-08-12T18:49:59.000Z</time>
        <extensions>
          <ns3:TrackPointExtension>
            <ns3:atemp>16.0</ns3:atemp>
            <ns3:hr>142</ns3:hr>
          </ns3:TrackPointExtension>
        </extensions>
      </trkpt>
      <trkpt lat="-22.07788157276809215545654296875" lon="166.447185091674327850341796875">
        <ele>769.20001220703125</ele>
        <time>2016-08-12T18:50:00.000Z</time>
        <extensions>
          <ns3:TrackPointExtension>
            <ns3:atemp>16.0</ns3:atemp>
            <ns3:hr>143</ns3:hr>
          </ns3:TrackPointExtension>
        </extensions>
      </trkpt>
      <trkpt lat="-22.07786413840949535369873046875" lon="166.4471849240362644195556640625">
        <ele>769.4000244140625</ele>
        <time>2016-08-12T18:50:01.000Z</time>
        <extensions>
          <ns3:TrackPointExtension>
            <ns3:atemp>16.0</ns3:atemp>
            <ns3:hr>142</ns3:hr>
          </ns3:TrackPointExtension>
        </extensions>
      </trkpt>
      <trkpt lat="-22.07784737460315227508544921875" lon="166.44718718715012073516845703125">
        <ele>769.20001220703125</ele>
        <time>2016-08-12T18:50:02.000Z</time>
        <extensions>
          <ns3:TrackPointExtension>
            <ns3:atemp>16.0</ns3:atemp>
            <ns3:hr>142</ns3:hr>
          </ns3:TrackPointExtension>
        </extensions>
      </trkpt>
      <trkpt lat="-22.07783170044422149658203125" lon="166.4471866004168987274169921875">
        <ele>769.20001220703125</ele>
        <time>2016-08-12T18:50:03.000Z</time>
        <extensions>
          <ns3:TrackPointExtension>
            <ns3:atemp>16.0</ns3:atemp>
            <ns3:hr>142</ns3:hr>
          </ns3:TrackPointExtension>
        </extensions>
      </trkpt>
      <trkpt lat="-22.0778161101043224334716796875" lon="166.44719137810170650482177734375">
        <ele>769.4000244140625</ele>
        <time>2016-08-12T18:50:04.000Z</time>
        <extensions>
          <ns3:TrackPointExtension>
            <ns3:atemp>16.0</ns3:atemp>
            <ns3:hr>143</ns3:hr>
          </ns3:TrackPointExtension>
        </extensions>
      </trkpt>
      <trkpt lat="-22.07780295051634311676025390625" lon="166.44720076583325862884521484375">
        <ele>769.79998779296875</ele>
        <time>2016-08-12T18:50:05.000Z</time>
        <extensions>
          <ns3:TrackPointExtension>
            <ns3:atemp>16.0</ns3:atemp>
            <ns3:hr>142</ns3:hr>
          </ns3:TrackPointExtension>
        </extensions>
      </trkpt>
      <trkpt lat="-22.07778870128095149993896484375" lon="166.447210572659969329833984375">
        <ele>770.20001220703125</ele>
        <time>2016-08-12T18:50:06.000Z</time>
        <extensions>
          <ns3:TrackPointExtension>
            <ns3:atemp>16.0</ns3:atemp>
            <ns3:hr>142</ns3:hr>
          </ns3:TrackPointExtension>
        </extensions>
      </trkpt>
      <trkpt lat="-22.07777612842619419097900390625" lon="166.44722222350537776947021484375">
        <ele>770.20001220703125</ele>
        <time>2016-08-12T18:50:07.000Z</time>
        <extensions>
          <ns3:TrackPointExtension>
            <ns3:atemp>16.0</ns3:atemp>
            <ns3:hr>142</ns3:hr>
          </ns3:TrackPointExtension>
        </extensions>
      </trkpt>
      <trkpt lat="-22.07776288501918315887451171875" lon="166.4472337067127227783203125">
        <ele>770.4000244140625</ele>
        <time>2016-08-12T18:50:08.000Z</time>
        <extensions>
          <ns3:TrackPointExtension>
            <ns3:atemp>16.0</ns3:atemp>
            <ns3:hr>142</ns3:hr>
          </ns3:TrackPointExtension>
        </extensions>
      </trkpt>
      <trkpt lat="-22.0777503959834575653076171875" lon="166.4472435973584651947021484375">
        <ele>770.4000244140625</ele>
        <time>2016-08-12T18:50:09.000Z</time>
        <extensions>
          <ns3:TrackPointExtension>
            <ns3:atemp>16.0</ns3:atemp>
            <ns3:hr>141</ns3:hr>
          </ns3:TrackPointExtension>
        </extensions>
      </trkpt>
      <trkpt lat="-22.07773556001484394073486328125" lon="166.4472519792616367340087890625">
        <ele>770.4000244140625</ele>
        <time>2016-08-12T18:50:10.000Z</time>
        <extensions>
          <ns3:TrackPointExtension>
            <ns3:atemp>16.0</ns3:atemp>
            <ns3:hr>141</ns3:hr>
          </ns3:TrackPointExtension>
        </extensions>
      </trkpt>
      <trkpt lat="-22.0777208916842937469482421875" lon="166.447257511317729949951171875">
        <ele>770.5999755859375</ele>
        <time>2016-08-12T18:50:11.000Z</time>
        <extensions>
          <ns3:TrackPointExtension>
            <ns3:atemp>16.0</ns3:atemp>
            <ns3:hr>141</ns3:hr>
          </ns3:TrackPointExtension>
        </extensions>
      </trkpt>
      <trkpt lat="-22.0777011103928089141845703125" lon="166.447261869907379150390625">
        <ele>770.79998779296875</ele>
        <time>2016-08-12T18:50:12.000Z</time>
        <extensions>
          <ns3:TrackPointExtension>
            <ns3:atemp>16.0</ns3:atemp>
            <ns3:hr>141</ns3:hr>
          </ns3:TrackPointExtension>
        </extensions>
      </trkpt>
      <trkpt lat="-22.07768149673938751220703125" lon="166.44726245664060115814208984375">
        <ele>771.4000244140625</ele>
        <time>2016-08-12T18:50:13.000Z</time>
        <extensions>
          <ns3:TrackPointExtension>
            <ns3:atemp>16.0</ns3:atemp>
            <ns3:hr>140</ns3:hr>
          </ns3:TrackPointExtension>
        </extensions>
      </trkpt>
      <trkpt lat="-22.07766473293304443359375" lon="166.44726346246898174285888671875">
        <ele>771.79998779296875</ele>
        <time>2016-08-12T18:50:14.000Z</time>
        <extensions>
          <ns3:TrackPointExtension>
            <ns3:atemp>16.0</ns3:atemp>
            <ns3:hr>140</ns3:hr>
          </ns3:TrackPointExtension>
        </extensions>
      </trkpt>
      <trkpt lat="-22.07764822058379650115966796875" lon="166.44725315272808074951171875">
        <ele>772</ele>
        <time>2016-08-12T18:50:15.000Z</time>
        <extensions>
          <ns3:TrackPointExtension>
            <ns3:atemp>16.0</ns3:atemp>
            <ns3:hr>140</ns3:hr>
          </ns3:TrackPointExtension>
        </extensions>
      </trkpt>
      <trkpt lat="-22.077634222805500030517578125" lon="166.44724451936781406402587890625">
        <ele>772.4000244140625</ele>
        <time>2016-08-12T18:50:16.000Z</time>
        <extensions>
          <ns3:TrackPointExtension>
            <ns3:atemp>16.0</ns3:atemp>
            <ns3:hr>140</ns3:hr>
          </ns3:TrackPointExtension>
        </extensions>
      </trkpt>
      <trkpt lat="-22.07762123085558414459228515625" lon="166.44723429344594478607177734375">
        <ele>773</ele>
        <time>2016-08-12T18:50:17.000Z</time>
        <extensions>
          <ns3:TrackPointExtension>
            <ns3:atemp>16.0</ns3:atemp>
            <ns3:hr>140</ns3:hr>
          </ns3:TrackPointExtension>
        </extensions>
      </trkpt>
      <trkpt lat="-22.07760849036276340484619140625" lon="166.4472211338579654693603515625">
        <ele>773</ele>
        <time>2016-08-12T18:50:18.000Z</time>
        <extensions>
          <ns3:TrackPointExtension>
            <ns3:atemp>16.0</ns3:atemp>
            <ns3:hr>139</ns3:hr>
          </ns3:TrackPointExtension>
        </extensions>
      </trkpt>
      <trkpt lat="-22.07759725861251354217529296875" lon="166.4472080580890178680419921875">
        <ele>773.20001220703125</ele>
        <time>2016-08-12T18:50:19.000Z</time>
        <extensions>
          <ns3:TrackPointExtension>
            <ns3:atemp>16.0</ns3:atemp>
            <ns3:hr>140</ns3:hr>
          </ns3:TrackPointExtension>
        </extensions>
      </trkpt>
      <trkpt lat="-22.07758753560483455657958984375" lon="166.44719188101589679718017578125">
        <ele>773.5999755859375</ele>
        <time>2016-08-12T18:50:20.000Z</time>
        <extensions>
          <ns3:TrackPointExtension>
            <ns3:atemp>16.0</ns3:atemp>
            <ns3:hr>140</ns3:hr>
          </ns3:TrackPointExtension>
        </extensions>
      </trkpt>
      <trkpt lat="-22.077579237520694732666015625" lon="166.4471718482673168182373046875">
        <ele>773.79998779296875</ele>
        <time>2016-08-12T18:50:21.000Z</time>
        <extensions>
          <ns3:TrackPointExtension>
            <ns3:atemp>16.0</ns3:atemp>
            <ns3:hr>140</ns3:hr>
          </ns3:TrackPointExtension>
        </extensions>
      </trkpt>
      <trkpt lat="-22.07757060416042804718017578125" lon="166.447153575718402862548828125">
        <ele>773.79998779296875</ele>
        <time>2016-08-12T18:50:22.000Z</time>
        <extensions>
          <ns3:TrackPointExtension>
            <ns3:atemp>16.0</ns3:atemp>
            <ns3:hr>140</ns3:hr>
          </ns3:TrackPointExtension>
        </extensions>
      </trkpt>
      <trkpt lat="-22.07755937241017818450927734375" lon="166.4471383206546306610107421875">
        <ele>774</ele>
        <time>2016-08-12T18:50:23.000Z</time>
        <extensions>
          <ns3:TrackPointExtension>
            <ns3:atemp>16.0</ns3:atemp>
            <ns3:hr>140</ns3:hr>
          </ns3:TrackPointExtension>
        </extensions>
      </trkpt>
      <trkpt lat="-22.077549062669277191162109375" lon="166.44712147302925586700439453125">
        <ele>774.20001220703125</ele>
        <time>2016-08-12T18:50:24.000Z</time>
        <extensions>
          <ns3:TrackPointExtension>
            <ns3:atemp>16.0</ns3:atemp>
            <ns3:hr>141</ns3:hr>
          </ns3:TrackPointExtension>
        </extensions>
      </trkpt>
      <trkpt lat="-22.077543027698993682861328125" lon="166.44710336811840534210205078125">
        <ele>774.4000244140625</ele>
        <time>2016-08-12T18:50:25.000Z</time>
        <extensions>
          <ns3:TrackPointExtension>
            <ns3:atemp>16.0</ns3:atemp>
            <ns3:hr>141</ns3:hr>
          </ns3:TrackPointExtension>
        </extensions>
      </trkpt>
      <trkpt lat="-22.077537663280963897705078125" lon="166.44708819687366485595703125">
        <ele>774.79998779296875</ele>
        <time>2016-08-12T18:50:26.000Z</time>
        <extensions>
          <ns3:TrackPointExtension>
            <ns3:atemp>16.0</ns3:atemp>
            <ns3:hr>141</ns3:hr>
          </ns3:TrackPointExtension>
        </extensions>
      </trkpt>
      <trkpt lat="-22.077528275549411773681640625" lon="166.4470702596008777618408203125">
        <ele>775</ele>
        <time>2016-08-12T18:50:27.000Z</time>
        <extensions>
          <ns3:TrackPointExtension>
            <ns3:atemp>16.0</ns3:atemp>
            <ns3:hr>141</ns3:hr>
          </ns3:TrackPointExtension>
        </extensions>
      </trkpt>
      <trkpt lat="-22.07751679234206676483154296875" lon="166.44705575890839099884033203125">
        <ele>775.20001220703125</ele>
        <time>2016-08-12T18:50:28.000Z</time>
        <extensions>
          <ns3:TrackPointExtension>
            <ns3:atemp>16.0</ns3:atemp>
            <ns3:hr>141</ns3:hr>
          </ns3:TrackPointExtension>
        </extensions>
      </trkpt>
      <trkpt lat="-22.07750447094440460205078125" lon="166.44703832454979419708251953125">
        <ele>775.4000244140625</ele>
        <time>2016-08-12T18:50:29.000Z</time>
        <extensions>
          <ns3:TrackPointExtension>
            <ns3:atemp>16.0</ns3:atemp>
            <ns3:hr>141</ns3:hr>
          </ns3:TrackPointExtension>
        </extensions>
      </trkpt>
      <trkpt lat="-22.0774918980896472930908203125" lon="166.44702122546732425689697265625">
        <ele>775.4000244140625</ele>
        <time>2016-08-12T18:50:30.000Z</time>
        <extensions>
          <ns3:TrackPointExtension>
            <ns3:atemp>16.0</ns3:atemp>
            <ns3:hr>141</ns3:hr>
          </ns3:TrackPointExtension>
        </extensions>
      </trkpt>
      <trkpt lat="-22.07748435437679290771484375" lon="166.44700513221323490142822265625">
        <ele>775.5999755859375</ele>
        <time>2016-08-12T18:50:31.000Z</time>
        <extensions>
          <ns3:TrackPointExtension>
            <ns3:atemp>16.0</ns3:atemp>
            <ns3:hr>142</ns3:hr>
          </ns3:TrackPointExtension>
        </extensions>
      </trkpt>
      <trkpt lat="-22.0774756371974945068359375" lon="166.44699356518685817718505859375">
        <ele>776</ele>
        <time>2016-08-12T18:50:32.000Z</time>
        <extensions>
          <ns3:TrackPointExtension>
            <ns3:atemp>16.0</ns3:atemp>
            <ns3:hr>142</ns3:hr>
          </ns3:TrackPointExtension>
        </extensions>
      </trkpt>
      <trkpt lat="-22.0774644054472446441650390625" lon="166.44698048941791057586669921875">
        <ele>776</ele>
        <time>2016-08-12T18:50:33.000Z</time>
        <extensions>
          <ns3:TrackPointExtension>
            <ns3:atemp>16.0</ns3:atemp>
            <ns3:hr>142</ns3:hr>
          </ns3:TrackPointExtension>
        </extensions>
      </trkpt>
      <trkpt lat="-22.07744973711669445037841796875" lon="166.44696841947734355926513671875">
        <ele>776.20001220703125</ele>
        <time>2016-08-12T18:50:34.000Z</time>
        <extensions>
          <ns3:TrackPointExtension>
            <ns3:atemp>16.0</ns3:atemp>
            <ns3:hr>142</ns3:hr>
          </ns3:TrackPointExtension>
        </extensions>
      </trkpt>
      <trkpt lat="-22.07743875682353973388671875" lon="166.44695400260388851165771484375">
        <ele>776.4000244140625</ele>
        <time>2016-08-12T18:50:35.000Z</time>
        <extensions>
          <ns3:TrackPointExtension>
            <ns3:atemp>16.0</ns3:atemp>
            <ns3:hr>142</ns3:hr>
          </ns3:TrackPointExtension>
        </extensions>
      </trkpt>
      <trkpt lat="-22.0774233341217041015625" lon="166.4469388313591480255126953125">
        <ele>776.5999755859375</ele>
        <time>2016-08-12T18:50:36.000Z</time>
        <extensions>
          <ns3:TrackPointExtension>
            <ns3:atemp>16.0</ns3:atemp>
            <ns3:hr>142</ns3:hr>
          </ns3:TrackPointExtension>
        </extensions>
      </trkpt>
      <trkpt lat="-22.07740900106728076934814453125" lon="166.4469270966947078704833984375">
        <ele>777</ele>
        <time>2016-08-12T18:50:37.000Z</time>
        <extensions>
          <ns3:TrackPointExtension>
            <ns3:atemp>16.0</ns3:atemp>
            <ns3:hr>142</ns3:hr>
          </ns3:TrackPointExtension>
        </extensions>
      </trkpt>
      <trkpt lat="-22.07739709876477718353271484375" lon="166.44691745750606060028076171875">
        <ele>777</ele>
        <time>2016-08-12T18:50:38.000Z</time>
        <extensions>
          <ns3:TrackPointExtension>
            <ns3:atemp>16.0</ns3:atemp>
            <ns3:hr>142</ns3:hr>
          </ns3:TrackPointExtension>
        </extensions>
      </trkpt>
      <trkpt lat="-22.07738645374774932861328125" lon="166.44690404646098613739013671875">
        <ele>777</ele>
        <time>2016-08-12T18:50:39.000Z</time>
        <extensions>
          <ns3:TrackPointExtension>
            <ns3:atemp>16.0</ns3:atemp>
            <ns3:hr>142</ns3:hr>
          </ns3:TrackPointExtension>
        </extensions>
      </trkpt>
      <trkpt lat="-22.0773762278258800506591796875" lon="166.4468905515968799591064453125">
        <ele>777.20001220703125</ele>
        <time>2016-08-12T18:50:40.000Z</time>
        <extensions>
          <ns3:TrackPointExtension>
            <ns3:atemp>16.0</ns3:atemp>
            <ns3:hr>142</ns3:hr>
          </ns3:TrackPointExtension>
        </extensions>
      </trkpt>
      <trkpt lat="-22.077371366322040557861328125" lon="166.44687454216182231903076171875">
        <ele>777.4000244140625</ele>
        <time>2016-08-12T18:50:41.000Z</time>
        <extensions>
          <ns3:TrackPointExtension>
            <ns3:atemp>16.0</ns3:atemp>
            <ns3:hr>142</ns3:hr>
          </ns3:TrackPointExtension>
        </extensions>
      </trkpt>
      <trkpt lat="-22.07736390642821788787841796875" lon="166.4468600414693355560302734375">
        <ele>777.4000244140625</ele>
        <time>2016-08-12T18:50:42.000Z</time>
        <extensions>
          <ns3:TrackPointExtension>
            <ns3:atemp>16.0</ns3:atemp>
            <ns3:hr>142</ns3:hr>
          </ns3:TrackPointExtension>
        </extensions>
      </trkpt>
      <trkpt lat="-22.0773574523627758026123046875" lon="166.44684721715748310089111328125">
        <ele>777.79998779296875</ele>
        <time>2016-08-12T18:50:43.000Z</time>
        <extensions>
          <ns3:TrackPointExtension>
            <ns3:atemp>16.0</ns3:atemp>
            <ns3:hr>142</ns3:hr>
          </ns3:TrackPointExtension>
        </extensions>
      </trkpt>
      <trkpt lat="-22.077351249754428863525390625" lon="166.4468315429985523223876953125">
        <ele>778</ele>
        <time>2016-08-12T18:50:44.000Z</time>
        <extensions>
          <ns3:TrackPointExtension>
            <ns3:atemp>16.0</ns3:atemp>
            <ns3:hr>142</ns3:hr>
          </ns3:TrackPointExtension>
        </extensions>
      </trkpt>
      <trkpt lat="-22.0773440413177013397216796875" lon="166.44681603647768497467041015625">
        <ele>778</ele>
        <time>2016-08-12T18:50:45.000Z</time>
        <extensions>
          <ns3:TrackPointExtension>
            <ns3:atemp>16.0</ns3:atemp>
            <ns3:hr>142</ns3:hr>
          </ns3:TrackPointExtension>
        </extensions>
      </trkpt>
      <trkpt lat="-22.07734026946127414703369140625" lon="166.44679910503327846527099609375">
        <ele>778.20001220703125</ele>
        <time>2016-08-12T18:50:46.000Z</time>
        <extensions>
          <ns3:TrackPointExtension>
            <ns3:atemp>16.0</ns3:atemp>
            <ns3:hr>141</ns3:hr>
          </ns3:TrackPointExtension>
        </extensions>
      </trkpt>
      <trkpt lat="-22.07733591087162494659423828125" lon="166.4467809163033962249755859375">
        <ele>778.4000244140625</ele>
        <time>2016-08-12T18:50:47.000Z</time>
        <extensions>
          <ns3:TrackPointExtension>
            <ns3:atemp>16.0</ns3:atemp>
            <ns3:hr>141</ns3:hr>
          </ns3:TrackPointExtension>
        </extensions>
      </trkpt>
      <trkpt lat="-22.07732819952070713043212890625" lon="166.446762979030609130859375">
        <ele>778.5999755859375</ele>
        <time>2016-08-12T18:50:48.000Z</time>
        <extensions>
          <ns3:TrackPointExtension>
            <ns3:atemp>16.0</ns3:atemp>
            <ns3:hr>141</ns3:hr>
          </ns3:TrackPointExtension>
        </extensions>
      </trkpt>
      <trkpt lat="-22.0773309655487537384033203125" lon="166.4467440359294414520263671875">
        <ele>778.79998779296875</ele>
        <time>2016-08-12T18:50:49.000Z</time>
        <extensions>
          <ns3:TrackPointExtension>
            <ns3:atemp>16.0</ns3:atemp>
            <ns3:hr>141</ns3:hr>
          </ns3:TrackPointExtension>
        </extensions>
      </trkpt>
      <trkpt lat="-22.077336497604846954345703125" lon="166.4467245899140834808349609375">
        <ele>778.5999755859375</ele>
        <time>2016-08-12T18:50:50.000Z</time>
        <extensions>
          <ns3:TrackPointExtension>
            <ns3:atemp>16.0</ns3:atemp>
            <ns3:hr>141</ns3:hr>
          </ns3:TrackPointExtension>
        </extensions>
      </trkpt>
      <trkpt lat="-22.0773386768996715545654296875" lon="166.446702964603900909423828125">
        <ele>778.79998779296875</ele>
        <time>2016-08-12T18:50:51.000Z</time>
        <extensions>
          <ns3:TrackPointExtension>
            <ns3:atemp>16.0</ns3:atemp>
            <ns3:hr>141</ns3:hr>
          </ns3:TrackPointExtension>
        </extensions>
      </trkpt>
      <trkpt lat="-22.07734110765159130096435546875" lon="166.44668561406433582305908203125">
        <ele>779</ele>
        <time>2016-08-12T18:50:52.000Z</time>
        <extensions>
          <ns3:TrackPointExtension>
            <ns3:atemp>16.0</ns3:atemp>
            <ns3:hr>140</ns3:hr>
          </ns3:TrackPointExtension>
        </extensions>
      </trkpt>
      <trkpt lat="-22.07734378986060619354248046875" lon="166.4466685988008975982666015625">
        <ele>779</ele>
        <time>2016-08-12T18:50:53.000Z</time>
        <extensions>
          <ns3:TrackPointExtension>
            <ns3:atemp>16.0</ns3:atemp>
            <ns3:hr>140</ns3:hr>
          </ns3:TrackPointExtension>
        </extensions>
      </trkpt>
      <trkpt lat="-22.07734353840351104736328125" lon="166.44665225408971309661865234375">
        <ele>779.4000244140625</ele>
        <time>2016-08-12T18:50:54.000Z</time>
        <extensions>
          <ns3:TrackPointExtension>
            <ns3:atemp>16.0</ns3:atemp>
            <ns3:hr>140</ns3:hr>
          </ns3:TrackPointExtension>
        </extensions>
      </trkpt>
      <trkpt lat="-22.077345885336399078369140625" lon="166.44663565792143344879150390625">
        <ele>779.4000244140625</ele>
        <time>2016-08-12T18:50:55.000Z</time>
        <extensions>
          <ns3:TrackPointExtension>
            <ns3:atemp>16.0</ns3:atemp>
            <ns3:hr>140</ns3:hr>
          </ns3:TrackPointExtension>
        </extensions>
      </trkpt>
      <trkpt lat="-22.07734580151736736297607421875" lon="166.4466173015534877777099609375">
        <ele>779.79998779296875</ele>
        <time>2016-08-12T18:50:56.000Z</time>
        <extensions>
          <ns3:TrackPointExtension>
            <ns3:atemp>16.0</ns3:atemp>
            <ns3:hr>140</ns3:hr>
          </ns3:TrackPointExtension>
        </extensions>
      </trkpt>
      <trkpt lat="-22.077341862022876739501953125" lon="166.44659894518554210662841796875">
        <ele>780</ele>
        <time>2016-08-12T18:50:57.000Z</time>
        <extensions>
          <ns3:TrackPointExtension>
            <ns3:atemp>16.0</ns3:atemp>
            <ns3:hr>139</ns3:hr>
          </ns3:TrackPointExtension>
        </extensions>
      </trkpt>
      <trkpt lat="-22.0773346535861492156982421875" lon="166.44658151082694530487060546875">
        <ele>780.20001220703125</ele>
        <time>2016-08-12T18:50:58.000Z</time>
        <extensions>
          <ns3:TrackPointExtension>
            <ns3:atemp>16.0</ns3:atemp>
            <ns3:hr>139</ns3:hr>
          </ns3:TrackPointExtension>
        </extensions>
      </trkpt>
      <trkpt lat="-22.07732887007296085357666015625" lon="166.44656189717352390289306640625">
        <ele>780.4000244140625</ele>
        <time>2016-08-12T18:50:59.000Z</time>
        <extensions>
          <ns3:TrackPointExtension>
            <ns3:atemp>16.0</ns3:atemp>
            <ns3:hr>138</ns3:hr>
          </ns3:TrackPointExtension>
        </extensions>
      </trkpt>
      <trkpt lat="-22.07732451148331165313720703125" lon="166.446545384824275970458984375">
        <ele>780.79998779296875</ele>
        <time>2016-08-12T18:51:00.000Z</time>
        <extensions>
          <ns3:TrackPointExtension>
            <ns3:atemp>16.0</ns3:atemp>
            <ns3:hr>138</ns3:hr>
          </ns3:TrackPointExtension>
        </extensions>
      </trkpt>
      <trkpt lat="-22.07731998525559902191162109375" lon="166.4465311355888843536376953125">
        <ele>781</ele>
        <time>2016-08-12T18:51:01.000Z</time>
        <extensions>
          <ns3:TrackPointExtension>
            <ns3:atemp>16.0</ns3:atemp>
            <ns3:hr>137</ns3:hr>
          </ns3:TrackPointExtension>
        </extensions>
      </trkpt>
      <trkpt lat="-22.0773158781230449676513671875" lon="166.44651680253446102142333984375">
        <ele>781.20001220703125</ele>
        <time>2016-08-12T18:51:02.000Z</time>
        <extensions>
          <ns3:TrackPointExtension>
            <ns3:atemp>16.0</ns3:atemp>
            <ns3:hr>136</ns3:hr>
          </ns3:TrackPointExtension>
        </extensions>
      </trkpt>
      <trkpt lat="-22.07731009460985660552978515625" lon="166.44650104455649852752685546875">
        <ele>781.4000244140625</ele>
        <time>2016-08-12T18:51:03.000Z</time>
        <extensions>
          <ns3:TrackPointExtension>
            <ns3:atemp>16.0</ns3:atemp>
            <ns3:hr>136</ns3:hr>
          </ns3:TrackPointExtension>
        </extensions>
      </trkpt>
      <trkpt lat="-22.0773038081824779510498046875" lon="166.4464872144162654876708984375">
        <ele>781.5999755859375</ele>
        <time>2016-08-12T18:51:04.000Z</time>
        <extensions>
          <ns3:TrackPointExtension>
            <ns3:atemp>16.0</ns3:atemp>
            <ns3:hr>135</ns3:hr>
          </ns3:TrackPointExtension>
        </extensions>
      </trkpt>
      <trkpt lat="-22.07729668356478214263916015625" lon="166.4464761503040790557861328125">
        <ele>781.79998779296875</ele>
        <time>2016-08-12T18:51:05.000Z</time>
        <extensions>
          <ns3:TrackPointExtension>
            <ns3:atemp>16.0</ns3:atemp>
            <ns3:hr>134</ns3:hr>
          </ns3:TrackPointExtension>
        </extensions>
      </trkpt>
      <trkpt lat="-22.077288888394832611083984375" lon="166.44646282307803630828857421875">
        <ele>782.20001220703125</ele>
        <time>2016-08-12T18:51:06.000Z</time>
        <extensions>
          <ns3:TrackPointExtension>
            <ns3:atemp>16.0</ns3:atemp>
            <ns3:hr>134</ns3:hr>
          </ns3:TrackPointExtension>
        </extensions>
      </trkpt>
      <trkpt lat="-22.07727941684424877166748046875" lon="166.44644488580524921417236328125">
        <ele>782.4000244140625</ele>
        <time>2016-08-12T18:51:07.000Z</time>
        <extensions>
          <ns3:TrackPointExtension>
            <ns3:atemp>16.0</ns3:atemp>
            <ns3:hr>133</ns3:hr>
          </ns3:TrackPointExtension>
        </extensions>
      </trkpt>
      <trkpt lat="-22.0772675983607769012451171875" lon="166.4464285410940647125244140625">
        <ele>782.5999755859375</ele>
        <time>2016-08-12T18:51:08.000Z</time>
        <extensions>
          <ns3:TrackPointExtension>
            <ns3:atemp>16.0</ns3:atemp>
            <ns3:hr>132</ns3:hr>
          </ns3:TrackPointExtension>
        </extensions>
      </trkpt>
      <trkpt lat="-22.0772558636963367462158203125" lon="166.44641202874481678009033203125">
        <ele>782.79998779296875</ele>
        <time>2016-08-12T18:51:09.000Z</time>
        <extensions>
          <ns3:TrackPointExtension>
            <ns3:atemp>16.0</ns3:atemp>
            <ns3:hr>132</ns3:hr>
          </ns3:TrackPointExtension>
        </extensions>
      </trkpt>
      <trkpt lat="-22.0772431232035160064697265625" lon="166.44639710895717144012451171875">
        <ele>782.79998779296875</ele>
        <time>2016-08-12T18:51:10.000Z</time>
        <extensions>
          <ns3:TrackPointExtension>
            <ns3:atemp>16.0</ns3:atemp>
            <ns3:hr>131</ns3:hr>
          </ns3:TrackPointExtension>
        </extensions>
      </trkpt>
      <trkpt lat="-22.07722979597747325897216796875" lon="166.4463809318840503692626953125">
        <ele>783</ele>
        <time>2016-08-12T18:51:11.000Z</time>
        <extensions>
          <ns3:TrackPointExtension>
            <ns3:atemp>16.0</ns3:atemp>
            <ns3:hr>131</ns3:hr>
          </ns3:TrackPointExtension>
        </extensions>
      </trkpt>
      <trkpt lat="-22.0772223360836505889892578125" lon="166.4463646709918975830078125">
        <ele>783</ele>
        <time>2016-08-12T18:51:12.000Z</time>
        <extensions>
          <ns3:TrackPointExtension>
            <ns3:atemp>16.0</ns3:atemp>
            <ns3:hr>132</ns3:hr>
          </ns3:TrackPointExtension>
        </extensions>
      </trkpt>
      <trkpt lat="-22.077217139303684234619140625" lon="166.4463485777378082275390625">
        <ele>783.20001220703125</ele>
        <time>2016-08-12T18:51:13.000Z</time>
        <extensions>
          <ns3:TrackPointExtension>
            <ns3:atemp>16.0</ns3:atemp>
            <ns3:hr>133</ns3:hr>
          </ns3:TrackPointExtension>
        </extensions>
      </trkpt>
      <trkpt lat="-22.0772112719714641571044921875" lon="166.44633022136986255645751953125">
        <ele>783.4000244140625</ele>
        <time>2016-08-12T18:51:14.000Z</time>
        <extensions>
          <ns3:TrackPointExtension>
            <ns3:atemp>16.0</ns3:atemp>
            <ns3:hr>134</ns3:hr>
          </ns3:TrackPointExtension>
        </extensions>
      </trkpt>
      <trkpt lat="-22.07720280624926090240478515625" lon="166.446312703192234039306640625">
        <ele>783.79998779296875</ele>
        <time>2016-08-12T18:51:15.000Z</time>
        <extensions>
          <ns3:TrackPointExtension>
            <ns3:atemp>16.0</ns3:atemp>
            <ns3:hr>135</ns3:hr>
          </ns3:TrackPointExtension>
        </extensions>
      </trkpt>
      <trkpt lat="-22.0771958492696285247802734375" lon="166.4462947659194469451904296875">
        <ele>784</ele>
        <time>2016-08-12T18:51:16.000Z</time>
        <extensions>
          <ns3:TrackPointExtension>
            <ns3:atemp>16.0</ns3:atemp>
            <ns3:hr>135</ns3:hr>
          </ns3:TrackPointExtension>
        </extensions>
      </trkpt>
      <trkpt lat="-22.07719090394675731658935546875" lon="166.44627406261861324310302734375">
        <ele>784</ele>
        <time>2016-08-12T18:51:17.000Z</time>
        <extensions>
          <ns3:TrackPointExtension>
            <ns3:atemp>16.0</ns3:atemp>
            <ns3:hr>137</ns3:hr>
          </ns3:TrackPointExtension>
        </extensions>
      </trkpt>
      <trkpt lat="-22.0771861262619495391845703125" lon="166.44625579006969928741455078125">
        <ele>784.20001220703125</ele>
        <time>2016-08-12T18:51:18.000Z</time>
        <extensions>
          <ns3:TrackPointExtension>
            <ns3:atemp>16.0</ns3:atemp>
            <ns3:hr>138</ns3:hr>
          </ns3:TrackPointExtension>
        </extensions>
      </trkpt>
      <trkpt lat="-22.0771797560155391693115234375" lon="166.4462391100823879241943359375">
        <ele>784.20001220703125</ele>
        <time>2016-08-12T18:51:19.000Z</time>
        <extensions>
          <ns3:TrackPointExtension>
            <ns3:atemp>16.0</ns3:atemp>
            <ns3:hr>138</ns3:hr>
          </ns3:TrackPointExtension>
        </extensions>
      </trkpt>
      <trkpt lat="-22.0771760679781436920166015625" lon="166.44622050225734710693359375">
        <ele>784.4000244140625</ele>
        <time>2016-08-12T18:51:20.000Z</time>
        <extensions>
          <ns3:TrackPointExtension>
            <ns3:atemp>16.0</ns3:atemp>
            <ns3:hr>139</ns3:hr>
          </ns3:TrackPointExtension>
        </extensions>
      </trkpt>
      <trkpt lat="-22.07716944627463817596435546875" lon="166.446206085383892059326171875">
        <ele>784.79998779296875</ele>
        <time>2016-08-12T18:51:21.000Z</time>
        <extensions>
          <ns3:TrackPointExtension>
            <ns3:atemp>16.0</ns3:atemp>
            <ns3:hr>140</ns3:hr>
          </ns3:TrackPointExtension>
        </extensions>
      </trkpt>
      <trkpt lat="-22.0771666802465915679931640625" lon="166.44619091413915157318115234375">
        <ele>784.79998779296875</ele>
        <time>2016-08-12T18:51:22.000Z</time>
        <extensions>
          <ns3:TrackPointExtension>
            <ns3:atemp>16.0</ns3:atemp>
            <ns3:hr>140</ns3:hr>
          </ns3:TrackPointExtension>
        </extensions>
      </trkpt>
      <trkpt lat="-22.07716651260852813720703125" lon="166.44617532379925251007080078125">
        <ele>785</ele>
        <time>2016-08-12T18:51:23.000Z</time>
        <extensions>
          <ns3:TrackPointExtension>
            <ns3:atemp>16.0</ns3:atemp>
            <ns3:hr>140</ns3:hr>
          </ns3:TrackPointExtension>
        </extensions>
      </trkpt>
      <trkpt lat="-22.07716844044625759124755859375" lon="166.446158476173877716064453125">
        <ele>785</ele>
        <time>2016-08-12T18:51:24.000Z</time>
        <extensions>
          <ns3:TrackPointExtension>
            <ns3:atemp>16.0</ns3:atemp>
            <ns3:hr>140</ns3:hr>
          </ns3:TrackPointExtension>
        </extensions>
      </trkpt>
      <trkpt lat="-22.07716575823724269866943359375" lon="166.44614028744399547576904296875">
        <ele>785.20001220703125</ele>
        <time>2016-08-12T18:51:25.000Z</time>
        <extensions>
          <ns3:TrackPointExtension>
            <ns3:atemp>16.0</ns3:atemp>
            <ns3:hr>141</ns3:hr>
          </ns3:TrackPointExtension>
        </extensions>
      </trkpt>
      <trkpt lat="-22.07716575823724269866943359375" lon="166.4461205899715423583984375">
        <ele>785.4000244140625</ele>
        <time>2016-08-12T18:51:26.000Z</time>
        <extensions>
          <ns3:TrackPointExtension>
            <ns3:atemp>16.0</ns3:atemp>
            <ns3:hr>140</ns3:hr>
          </ns3:TrackPointExtension>
        </extensions>
      </trkpt>
      <trkpt lat="-22.07716324366629123687744140625" lon="166.446104831993579864501953125">
        <ele>785.4000244140625</ele>
        <time>2016-08-12T18:51:27.000Z</time>
        <extensions>
          <ns3:TrackPointExtension>
            <ns3:atemp>16.0</ns3:atemp>
            <ns3:hr>141</ns3:hr>
          </ns3:TrackPointExtension>
        </extensions>
      </trkpt>
      <trkpt lat="-22.07716047763824462890625" lon="166.4460910856723785400390625">
        <ele>785.5999755859375</ele>
        <time>2016-08-12T18:51:28.000Z</time>
        <extensions>
          <ns3:TrackPointExtension>
            <ns3:atemp>16.0</ns3:atemp>
            <ns3:hr>141</ns3:hr>
          </ns3:TrackPointExtension>
        </extensions>
      </trkpt>
      <trkpt lat="-22.07715846598148345947265625" lon="166.44607574678957462310791015625">
        <ele>785.79998779296875</ele>
        <time>2016-08-12T18:51:29.000Z</time>
        <extensions>
          <ns3:TrackPointExtension>
            <ns3:atemp>16.0</ns3:atemp>
            <ns3:hr>141</ns3:hr>
          </ns3:TrackPointExtension>
        </extensions>
      </trkpt>
      <trkpt lat="-22.07714815624058246612548828125" lon="166.446060240268707275390625">
        <ele>786</ele>
        <time>2016-08-12T18:51:30.000Z</time>
        <extensions>
          <ns3:TrackPointExtension>
            <ns3:atemp>16.0</ns3:atemp>
            <ns3:hr>141</ns3:hr>
          </ns3:TrackPointExtension>
        </extensions>
      </trkpt>
      <trkpt lat="-22.077139355242252349853515625" lon="166.44604724831879138946533203125">
        <ele>786</ele>
        <time>2016-08-12T18:51:31.000Z</time>
        <extensions>
          <ns3:TrackPointExtension>
            <ns3:atemp>16.0</ns3:atemp>
            <ns3:hr>141</ns3:hr>
          </ns3:TrackPointExtension>
        </extensions>
      </trkpt>
      <trkpt lat="-22.07713164389133453369140625" lon="166.4460312388837337493896484375">
        <ele>786.20001220703125</ele>
        <time>2016-08-12T18:51:32.000Z</time>
        <extensions>
          <ns3:TrackPointExtension>
            <ns3:atemp>16.0</ns3:atemp>
            <ns3:hr>141</ns3:hr>
          </ns3:TrackPointExtension>
        </extensions>
      </trkpt>
      <trkpt lat="-22.07711781375110149383544921875" lon="166.44601824693381786346435546875">
        <ele>786.4000244140625</ele>
        <time>2016-08-12T18:51:33.000Z</time>
        <extensions>
          <ns3:TrackPointExtension>
            <ns3:atemp>16.0</ns3:atemp>
            <ns3:hr>141</ns3:hr>
          </ns3:TrackPointExtension>
        </extensions>
      </trkpt>
      <trkpt lat="-22.077103145420551300048828125" lon="166.4460040815174579620361328125">
        <ele>786.4000244140625</ele>
        <time>2016-08-12T18:51:34.000Z</time>
        <extensions>
          <ns3:TrackPointExtension>
            <ns3:atemp>16.0</ns3:atemp>
            <ns3:hr>141</ns3:hr>
          </ns3:TrackPointExtension>
        </extensions>
      </trkpt>
      <trkpt lat="-22.07708629779517650604248046875" lon="166.44599385559558868408203125">
        <ele>786.5999755859375</ele>
        <time>2016-08-12T18:51:35.000Z</time>
        <extensions>
          <ns3:TrackPointExtension>
            <ns3:atemp>16.0</ns3:atemp>
            <ns3:hr>141</ns3:hr>
          </ns3:TrackPointExtension>
        </extensions>
      </trkpt>
      <trkpt lat="-22.07707053981721401214599609375" lon="166.44598421640694141387939453125">
        <ele>786.79998779296875</ele>
        <time>2016-08-12T18:51:36.000Z</time>
        <extensions>
          <ns3:TrackPointExtension>
            <ns3:atemp>16.0</ns3:atemp>
            <ns3:hr>141</ns3:hr>
          </ns3:TrackPointExtension>
        </extensions>
      </trkpt>
      <trkpt lat="-22.07705863751471042633056640625" lon="166.4459757506847381591796875">
        <ele>787</ele>
        <time>2016-08-12T18:51:37.000Z</time>
        <extensions>
          <ns3:TrackPointExtension>
            <ns3:atemp>16.0</ns3:atemp>
            <ns3:hr>141</ns3:hr>
          </ns3:TrackPointExtension>
        </extensions>
      </trkpt>
      <trkpt lat="-22.0770550332963466644287109375" lon="166.44596024416387081146240234375">
        <ele>787.20001220703125</ele>
        <time>2016-08-12T18:51:38.000Z</time>
        <extensions>
          <ns3:TrackPointExtension>
            <ns3:atemp>16.0</ns3:atemp>
            <ns3:hr>140</ns3:hr>
          </ns3:TrackPointExtension>
        </extensions>
      </trkpt>
      <trkpt lat="-22.07704774104058742523193359375" lon="166.4459454081952571868896484375">
        <ele>787.4000244140625</ele>
        <time>2016-08-12T18:51:39.000Z</time>
        <extensions>
          <ns3:TrackPointExtension>
            <ns3:atemp>16.0</ns3:atemp>
            <ns3:hr>141</ns3:hr>
          </ns3:TrackPointExtension>
        </extensions>
      </trkpt>
      <trkpt lat="-22.0770382694900035858154296875" lon="166.4459330029785633087158203125">
        <ele>787.5999755859375</ele>
        <time>2016-08-12T18:51:40.000Z</time>
        <extensions>
          <ns3:TrackPointExtension>
            <ns3:atemp>16.0</ns3:atemp>
            <ns3:hr>141</ns3:hr>
          </ns3:TrackPointExtension>
        </extensions>
      </trkpt>
      <trkpt lat="-22.07703173160552978515625" lon="166.4459202624857425689697265625">
        <ele>787.79998779296875</ele>
        <time>2016-08-12T18:51:41.000Z</time>
        <extensions>
          <ns3:TrackPointExtension>
            <ns3:atemp>16.0</ns3:atemp>
            <ns3:hr>140</ns3:hr>
          </ns3:TrackPointExtension>
        </extensions>
      </trkpt>
      <trkpt lat="-22.07702175714075565338134765625" lon="166.4459102042019367218017578125">
        <ele>788</ele>
        <time>2016-08-12T18:51:42.000Z</time>
        <extensions>
          <ns3:TrackPointExtension>
            <ns3:atemp>16.0</ns3:atemp>
            <ns3:hr>140</ns3:hr>
          </ns3:TrackPointExtension>
        </extensions>
      </trkpt>
      <trkpt lat="-22.07701186649501323699951171875" lon="166.4458971284329891204833984375">
        <ele>788.20001220703125</ele>
        <time>2016-08-12T18:51:43.000Z</time>
        <extensions>
          <ns3:TrackPointExtension>
            <ns3:atemp>16.0</ns3:atemp>
            <ns3:hr>140</ns3:hr>
          </ns3:TrackPointExtension>
        </extensions>
      </trkpt>
      <trkpt lat="-22.07699962891638278961181640625" lon="166.44588648341596126556396484375">
        <ele>788.5999755859375</ele>
        <time>2016-08-12T18:51:44.000Z</time>
        <extensions>
          <ns3:TrackPointExtension>
            <ns3:atemp>16.0</ns3:atemp>
            <ns3:hr>140</ns3:hr>
          </ns3:TrackPointExtension>
        </extensions>
      </trkpt>
      <trkpt lat="-22.0769936777651309967041015625" lon="166.4458729885518550872802734375">
        <ele>788.79998779296875</ele>
        <time>2016-08-12T18:51:45.000Z</time>
        <extensions>
          <ns3:TrackPointExtension>
            <ns3:atemp>16.0</ns3:atemp>
            <ns3:hr>139</ns3:hr>
          </ns3:TrackPointExtension>
        </extensions>
      </trkpt>
      <trkpt lat="-22.07698035053908824920654296875" lon="166.44585932604968547821044921875">
        <ele>789</ele>
        <time>2016-08-12T18:51:46.000Z</time>
        <extensions>
          <ns3:TrackPointExtension>
            <ns3:atemp>16.0</ns3:atemp>
            <ns3:hr>139</ns3:hr>
          </ns3:TrackPointExtension>
        </extensions>
      </trkpt>
      <trkpt lat="-22.0769658498466014862060546875" lon="166.44584708847105503082275390625">
        <ele>789</ele>
        <time>2016-08-12T18:51:47.000Z</time>
        <extensions>
          <ns3:TrackPointExtension>
            <ns3:atemp>16.0</ns3:atemp>
            <ns3:hr>139</ns3:hr>
          </ns3:TrackPointExtension>
        </extensions>
      </trkpt>
      <trkpt lat="-22.07695252262055873870849609375" lon="166.44583761692047119140625">
        <ele>789.20001220703125</ele>
        <time>2016-08-12T18:51:48.000Z</time>
        <extensions>
          <ns3:TrackPointExtension>
            <ns3:atemp>16.0</ns3:atemp>
            <ns3:hr>139</ns3:hr>
          </ns3:TrackPointExtension>
        </extensions>
      </trkpt>
      <trkpt lat="-22.07694095559418201446533203125" lon="166.44582395441830158233642578125">
        <ele>789.4000244140625</ele>
        <time>2016-08-12T18:51:49.000Z</time>
        <extensions>
          <ns3:TrackPointExtension>
            <ns3:atemp>16.0</ns3:atemp>
            <ns3:hr>139</ns3:hr>
          </ns3:TrackPointExtension>
        </extensions>
      </trkpt>
      <trkpt lat="-22.0769303105771541595458984375" lon="166.44581071101129055023193359375">
        <ele>789.79998779296875</ele>
        <time>2016-08-12T18:51:50.000Z</time>
        <extensions>
          <ns3:TrackPointExtension>
            <ns3:atemp>16.0</ns3:atemp>
            <ns3:hr>138</ns3:hr>
          </ns3:TrackPointExtension>
        </extensions>
      </trkpt>
      <trkpt lat="-22.0769242756068706512451171875" lon="166.44579780288040637969970703125">
        <ele>789.79998779296875</ele>
        <time>2016-08-12T18:51:51.000Z</time>
        <extensions>
          <ns3:TrackPointExtension>
            <ns3:atemp>16.0</ns3:atemp>
            <ns3:hr>138</ns3:hr>
          </ns3:TrackPointExtension>
        </extensions>
      </trkpt>
      <trkpt lat="-22.07691798917949199676513671875" lon="166.44578455947339534759521484375">
        <ele>790.20001220703125</ele>
        <time>2016-08-12T18:51:52.000Z</time>
        <extensions>
          <ns3:TrackPointExtension>
            <ns3:atemp>16.0</ns3:atemp>
            <ns3:hr>138</ns3:hr>
          </ns3:TrackPointExtension>
        </extensions>
      </trkpt>
      <trkpt lat="-22.07690843380987644195556640625" lon="166.4457703940570354461669921875">
        <ele>790.4000244140625</ele>
        <time>2016-08-12T18:51:53.000Z</time>
        <extensions>
          <ns3:TrackPointExtension>
            <ns3:atemp>16.0</ns3:atemp>
            <ns3:hr>138</ns3:hr>
          </ns3:TrackPointExtension>
        </extensions>
      </trkpt>
      <trkpt lat="-22.0768920890986919403076171875" lon="166.44575606100261211395263671875">
        <ele>790.4000244140625</ele>
        <time>2016-08-12T18:51:54.000Z</time>
        <extensions>
          <ns3:TrackPointExtension>
            <ns3:atemp>16.0</ns3:atemp>
            <ns3:hr>138</ns3:hr>
          </ns3:TrackPointExtension>
        </extensions>
      </trkpt>
      <trkpt lat="-22.0768800191581249237060546875" lon="166.44573560915887355804443359375">
        <ele>790.4000244140625</ele>
        <time>2016-08-12T18:51:55.000Z</time>
        <extensions>
          <ns3:TrackPointExtension>
            <ns3:atemp>16.0</ns3:atemp>
            <ns3:hr>139</ns3:hr>
          </ns3:TrackPointExtension>
        </extensions>
      </trkpt>
      <trkpt lat="-22.07686300389468669891357421875" lon="166.44571892917156219482421875">
        <ele>790.5999755859375</ele>
        <time>2016-08-12T18:51:56.000Z</time>
        <extensions>
          <ns3:TrackPointExtension>
            <ns3:atemp>16.0</ns3:atemp>
            <ns3:hr>139</ns3:hr>
          </ns3:TrackPointExtension>
        </extensions>
      </trkpt>
      <trkpt lat="-22.07684464752674102783203125" lon="166.445706188678741455078125">
        <ele>790.79998779296875</ele>
        <time>2016-08-12T18:51:57.000Z</time>
        <extensions>
          <ns3:TrackPointExtension>
            <ns3:atemp>16.0</ns3:atemp>
            <ns3:hr>139</ns3:hr>
          </ns3:TrackPointExtension>
        </extensions>
      </trkpt>
      <trkpt lat="-22.07682997919619083404541015625" lon="166.4456916041672229766845703125">
        <ele>790.79998779296875</ele>
        <time>2016-08-12T18:51:58.000Z</time>
        <extensions>
          <ns3:TrackPointExtension>
            <ns3:atemp>16.0</ns3:atemp>
            <ns3:hr>139</ns3:hr>
          </ns3:TrackPointExtension>
        </extensions>
      </trkpt>
      <trkpt lat="-22.07681807689368724822998046875" lon="166.44567861221730709075927734375">
        <ele>791.20001220703125</ele>
        <time>2016-08-12T18:51:59.000Z</time>
        <extensions>
          <ns3:TrackPointExtension>
            <ns3:atemp>16.0</ns3:atemp>
            <ns3:hr>139</ns3:hr>
          </ns3:TrackPointExtension>
        </extensions>
      </trkpt>
      <trkpt lat="-22.07680533640086650848388671875" lon="166.44566620700061321258544921875">
        <ele>791.4000244140625</ele>
        <time>2016-08-12T18:52:00.000Z</time>
        <extensions>
          <ns3:TrackPointExtension>
            <ns3:atemp>16.0</ns3:atemp>
            <ns3:hr>139</ns3:hr>
          </ns3:TrackPointExtension>
        </extensions>
      </trkpt>
      <trkpt lat="-22.076789997518062591552734375" lon="166.4456523768603801727294921875">
        <ele>791.4000244140625</ele>
        <time>2016-08-12T18:52:01.000Z</time>
        <extensions>
          <ns3:TrackPointExtension>
            <ns3:atemp>16.0</ns3:atemp>
            <ns3:hr>139</ns3:hr>
          </ns3:TrackPointExtension>
        </extensions>
      </trkpt>
      <trkpt lat="-22.0767728984355926513671875" lon="166.4456439949572086334228515625">
        <ele>791.79998779296875</ele>
        <time>2016-08-12T18:52:02.000Z</time>
        <extensions>
          <ns3:TrackPointExtension>
            <ns3:atemp>16.0</ns3:atemp>
            <ns3:hr>139</ns3:hr>
          </ns3:TrackPointExtension>
        </extensions>
      </trkpt>
      <trkpt lat="-22.07675420679152011871337890625" lon="166.44563653506338596343994140625">
        <ele>791.79998779296875</ele>
        <time>2016-08-12T18:52:03.000Z</time>
        <extensions>
          <ns3:TrackPointExtension>
            <ns3:atemp>16.0</ns3:atemp>
            <ns3:hr>140</ns3:hr>
          </ns3:TrackPointExtension>
        </extensions>
      </trkpt>
      <trkpt lat="-22.07673761062324047088623046875" lon="166.44562899135053157806396484375">
        <ele>791.79998779296875</ele>
        <time>2016-08-12T18:52:04.000Z</time>
        <extensions>
          <ns3:TrackPointExtension>
            <ns3:atemp>16.0</ns3:atemp>
            <ns3:hr>140</ns3:hr>
          </ns3:TrackPointExtension>
        </extensions>
      </trkpt>
      <trkpt lat="-22.076721601188182830810546875" lon="166.44561910070478916168212890625">
        <ele>792</ele>
        <time>2016-08-12T18:52:05.000Z</time>
        <extensions>
          <ns3:TrackPointExtension>
            <ns3:atemp>16.0</ns3:atemp>
            <ns3:hr>140</ns3:hr>
          </ns3:TrackPointExtension>
        </extensions>
      </trkpt>
      <trkpt lat="-22.0767029933631420135498046875" lon="166.4456111378967761993408203125">
        <ele>792</ele>
        <time>2016-08-12T18:52:06.000Z</time>
        <extensions>
          <ns3:TrackPointExtension>
            <ns3:atemp>16.0</ns3:atemp>
            <ns3:hr>140</ns3:hr>
          </ns3:TrackPointExtension>
        </extensions>
      </trkpt>
      <trkpt lat="-22.07667759619653224945068359375" lon="166.4456064440310001373291015625">
        <ele>792.20001220703125</ele>
        <time>2016-08-12T18:52:07.000Z</time>
        <extensions>
          <ns3:TrackPointExtension>
            <ns3:atemp>16.0</ns3:atemp>
            <ns3:hr>140</ns3:hr>
          </ns3:TrackPointExtension>
        </extensions>
      </trkpt>
      <trkpt lat="-22.0766573958098888397216796875" lon="166.445601247251033782958984375">
        <ele>792.20001220703125</ele>
        <time>2016-08-12T18:52:08.000Z</time>
        <extensions>
          <ns3:TrackPointExtension>
            <ns3:atemp>16.0</ns3:atemp>
            <ns3:hr>140</ns3:hr>
          </ns3:TrackPointExtension>
        </extensions>
      </trkpt>
      <trkpt lat="-22.07663803361356258392333984375" lon="166.4455990679562091827392578125">
        <ele>792.20001220703125</ele>
        <time>2016-08-12T18:52:09.000Z</time>
        <extensions>
          <ns3:TrackPointExtension>
            <ns3:atemp>16.0</ns3:atemp>
            <ns3:hr>140</ns3:hr>
          </ns3:TrackPointExtension>
        </extensions>
      </trkpt>
      <trkpt lat="-22.076612971723079681396484375" lon="166.4455990679562091827392578125">
        <ele>792.4000244140625</ele>
        <time>2016-08-12T18:52:10.000Z</time>
        <extensions>
          <ns3:TrackPointExtension>
            <ns3:atemp>16.0</ns3:atemp>
            <ns3:hr>140</ns3:hr>
          </ns3:TrackPointExtension>
        </extensions>
      </trkpt>
      <trkpt lat="-22.076590843498706817626953125" lon="166.445595882833003997802734375">
        <ele>792.4000244140625</ele>
        <time>2016-08-12T18:52:11.000Z</time>
        <extensions>
          <ns3:TrackPointExtension>
            <ns3:atemp>16.0</ns3:atemp>
            <ns3:hr>140</ns3:hr>
          </ns3:TrackPointExtension>
        </extensions>
      </trkpt>
      <trkpt lat="-22.0765702240169048309326171875" lon="166.4455957151949405670166015625">
        <ele>792.5999755859375</ele>
        <time>2016-08-12T18:52:12.000Z</time>
        <extensions>
          <ns3:TrackPointExtension>
            <ns3:atemp>16.0</ns3:atemp>
            <ns3:hr>140</ns3:hr>
          </ns3:TrackPointExtension>
        </extensions>
      </trkpt>
      <trkpt lat="-22.07655136473476886749267578125" lon="166.4455987326800823211669921875">
        <ele>792.5999755859375</ele>
        <time>2016-08-12T18:52:13.000Z</time>
        <extensions>
          <ns3:TrackPointExtension>
            <ns3:atemp>16.0</ns3:atemp>
            <ns3:hr>140</ns3:hr>
          </ns3:TrackPointExtension>
        </extensions>
      </trkpt>
      <trkpt lat="-22.0765330083668231964111328125" lon="166.445599906146526336669921875">
        <ele>792.5999755859375</ele>
        <time>2016-08-12T18:52:14.000Z</time>
        <extensions>
          <ns3:TrackPointExtension>
            <ns3:atemp>16.0</ns3:atemp>
            <ns3:hr>140</ns3:hr>
          </ns3:TrackPointExtension>
        </extensions>
      </trkpt>
      <trkpt lat="-22.0765095390379428863525390625" lon="166.44559965468943119049072265625">
        <ele>792.5999755859375</ele>
        <time>2016-08-12T18:52:15.000Z</time>
        <extensions>
          <ns3:TrackPointExtension>
            <ns3:atemp>16.0</ns3:atemp>
            <ns3:hr>140</ns3:hr>
          </ns3:TrackPointExtension>
        </extensions>
      </trkpt>
      <trkpt lat="-22.0764912664890289306640625" lon="166.44560049287974834442138671875">
        <ele>792.79998779296875</ele>
        <time>2016-08-12T18:52:16.000Z</time>
        <extensions>
          <ns3:TrackPointExtension>
            <ns3:atemp>16.0</ns3:atemp>
            <ns3:hr>139</ns3:hr>
          </ns3:TrackPointExtension>
        </extensions>
      </trkpt>
      <trkpt lat="-22.076470814645290374755859375" lon="166.44560049287974834442138671875">
        <ele>793.20001220703125</ele>
        <time>2016-08-12T18:52:17.000Z</time>
        <extensions>
          <ns3:TrackPointExtension>
            <ns3:atemp>16.0</ns3:atemp>
            <ns3:hr>140</ns3:hr>
          </ns3:TrackPointExtension>
        </extensions>
      </trkpt>
      <trkpt lat="-22.0764518715441226959228515625" lon="166.44559345208108425140380859375">
        <ele>793.4000244140625</ele>
        <time>2016-08-12T18:52:18.000Z</time>
        <extensions>
          <ns3:TrackPointExtension>
            <ns3:atemp>16.0</ns3:atemp>
            <ns3:hr>139</ns3:hr>
          </ns3:TrackPointExtension>
        </extensions>
      </trkpt>
      <trkpt lat="-22.07643695175647735595703125" lon="166.44558674655854701995849609375">
        <ele>793.4000244140625</ele>
        <time>2016-08-12T18:52:19.000Z</time>
        <extensions>
          <ns3:TrackPointExtension>
            <ns3:atemp>16.0</ns3:atemp>
            <ns3:hr>139</ns3:hr>
          </ns3:TrackPointExtension>
        </extensions>
      </trkpt>
      <trkpt lat="-22.07642412744462490081787109375" lon="166.44557685591280460357666015625">
        <ele>793.4000244140625</ele>
        <time>2016-08-12T18:52:20.000Z</time>
        <extensions>
          <ns3:TrackPointExtension>
            <ns3:atemp>16.0</ns3:atemp>
            <ns3:hr>140</ns3:hr>
          </ns3:TrackPointExtension>
        </extensions>
      </trkpt>
      <trkpt lat="-22.07640836946666240692138671875" lon="166.445568390190601348876953125">
        <ele>793.4000244140625</ele>
        <time>2016-08-12T18:52:21.000Z</time>
        <extensions>
          <ns3:TrackPointExtension>
            <ns3:atemp>16.0</ns3:atemp>
            <ns3:hr>139</ns3:hr>
          </ns3:TrackPointExtension>
        </extensions>
      </trkpt>
      <trkpt lat="-22.0763928629457950592041015625" lon="166.44555824808776378631591796875">
        <ele>793.4000244140625</ele>
        <time>2016-08-12T18:52:22.000Z</time>
        <extensions>
          <ns3:TrackPointExtension>
            <ns3:atemp>16.0</ns3:atemp>
            <ns3:hr>139</ns3:hr>
          </ns3:TrackPointExtension>
        </extensions>
      </trkpt>
      <trkpt lat="-22.07638020627200603485107421875" lon="166.4455491118133068084716796875">
        <ele>793.79998779296875</ele>
        <time>2016-08-12T18:52:23.000Z</time>
        <extensions>
          <ns3:TrackPointExtension>
            <ns3:atemp>16.0</ns3:atemp>
            <ns3:hr>139</ns3:hr>
          </ns3:TrackPointExtension>
        </extensions>
      </trkpt>
      <trkpt lat="-22.076368220150470733642578125" lon="166.44553913734853267669677734375">
        <ele>794</ele>
        <time>2016-08-12T18:52:24.000Z</time>
        <extensions>
          <ns3:TrackPointExtension>
            <ns3:atemp>16.0</ns3:atemp>
            <ns3:hr>139</ns3:hr>
          </ns3:TrackPointExtension>
        </extensions>
      </trkpt>
      <trkpt lat="-22.076349444687366485595703125" lon="166.4455189369618892669677734375">
        <ele>794</ele>
        <time>2016-08-12T18:52:25.000Z</time>
        <extensions>
          <ns3:TrackPointExtension>
            <ns3:atemp>16.0</ns3:atemp>
            <ns3:hr>139</ns3:hr>
          </ns3:TrackPointExtension>
        </extensions>
      </trkpt>
      <trkpt lat="-22.07633125595748424530029296875" lon="166.44550560973584651947021484375">
        <ele>794</ele>
        <time>2016-08-12T18:52:26.000Z</time>
        <extensions>
          <ns3:TrackPointExtension>
            <ns3:atemp>16.0</ns3:atemp>
            <ns3:hr>139</ns3:hr>
          </ns3:TrackPointExtension>
        </extensions>
      </trkpt>
      <trkpt lat="-22.07631549797952175140380859375" lon="166.4454902708530426025390625">
        <ele>794.20001220703125</ele>
        <time>2016-08-12T18:52:27.000Z</time>
        <extensions>
          <ns3:TrackPointExtension>
            <ns3:atemp>16.0</ns3:atemp>
            <ns3:hr>139</ns3:hr>
          </ns3:TrackPointExtension>
        </extensions>
      </trkpt>
      <trkpt lat="-22.07630376331508159637451171875" lon="166.44547459669411182403564453125">
        <ele>794.20001220703125</ele>
        <time>2016-08-12T18:52:28.000Z</time>
        <extensions>
          <ns3:TrackPointExtension>
            <ns3:atemp>16.0</ns3:atemp>
            <ns3:hr>139</ns3:hr>
          </ns3:TrackPointExtension>
        </extensions>
      </trkpt>
      <trkpt lat="-22.07629521377384662628173828125" lon="166.44545917399227619171142578125">
        <ele>794.4000244140625</ele>
        <time>2016-08-12T18:52:29.000Z</time>
        <extensions>
          <ns3:TrackPointExtension>
            <ns3:atemp>16.0</ns3:atemp>
            <ns3:hr>139</ns3:hr>
          </ns3:TrackPointExtension>
        </extensions>
      </trkpt>
      <trkpt lat="-22.076282389461994171142578125" lon="166.44544534385204315185546875">
        <ele>794.4000244140625</ele>
        <time>2016-08-12T18:52:30.000Z</time>
        <extensions>
          <ns3:TrackPointExtension>
            <ns3:atemp>16.0</ns3:atemp>
            <ns3:hr>139</ns3:hr>
          </ns3:TrackPointExtension>
        </extensions>
      </trkpt>
      <trkpt lat="-22.0762644521892070770263671875" lon="166.44543729722499847412109375">
        <ele>794.5999755859375</ele>
        <time>2016-08-12T18:52:31.000Z</time>
        <extensions>
          <ns3:TrackPointExtension>
            <ns3:atemp>16.0</ns3:atemp>
            <ns3:hr>138</ns3:hr>
          </ns3:TrackPointExtension>
        </extensions>
      </trkpt>
      <trkpt lat="-22.07624643109738826751708984375" lon="166.44543352536857128143310546875">
        <ele>794.79998779296875</ele>
        <time>2016-08-12T18:52:32.000Z</time>
        <extensions>
          <ns3:TrackPointExtension>
            <ns3:atemp>16.0</ns3:atemp>
            <ns3:hr>138</ns3:hr>
          </ns3:TrackPointExtension>
        </extensions>
      </trkpt>
      <trkpt lat="-22.07622799091041088104248046875" lon="166.44543184898793697357177734375">
        <ele>795</ele>
        <time>2016-08-12T18:52:33.000Z</time>
        <extensions>
          <ns3:TrackPointExtension>
            <ns3:atemp>16.0</ns3:atemp>
            <ns3:hr>138</ns3:hr>
          </ns3:TrackPointExtension>
        </extensions>
      </trkpt>
      <trkpt lat="-22.0762091316282749176025390625" lon="166.4454285800457000732421875">
        <ele>795.4000244140625</ele>
        <time>2016-08-12T18:52:34.000Z</time>
        <extensions>
          <ns3:TrackPointExtension>
            <ns3:atemp>16.0</ns3:atemp>
            <ns3:hr>138</ns3:hr>
          </ns3:TrackPointExtension>
        </extensions>
      </trkpt>
      <trkpt lat="-22.07619161345064640045166015625" lon="166.445418186485767364501953125">
        <ele>795.4000244140625</ele>
        <time>2016-08-12T18:52:35.000Z</time>
        <extensions>
          <ns3:TrackPointExtension>
            <ns3:atemp>16.0</ns3:atemp>
            <ns3:hr>138</ns3:hr>
          </ns3:TrackPointExtension>
        </extensions>
      </trkpt>
      <trkpt lat="-22.07617870531976222991943359375" lon="166.4454082958400249481201171875">
        <ele>795.5999755859375</ele>
        <time>2016-08-12T18:52:36.000Z</time>
        <extensions>
          <ns3:TrackPointExtension>
            <ns3:atemp>16.0</ns3:atemp>
            <ns3:hr>139</ns3:hr>
          </ns3:TrackPointExtension>
        </extensions>
      </trkpt>
      <trkpt lat="-22.07616412080824375152587890625" lon="166.44539597444236278533935546875">
        <ele>796</ele>
        <time>2016-08-12T18:52:37.000Z</time>
        <extensions>
          <ns3:TrackPointExtension>
            <ns3:atemp>16.0</ns3:atemp>
            <ns3:hr>139</ns3:hr>
          </ns3:TrackPointExtension>
        </extensions>
      </trkpt>
      <trkpt lat="-22.07614836283028125762939453125" lon="166.445387341082096099853515625">
        <ele>796.20001220703125</ele>
        <time>2016-08-12T18:52:38.000Z</time>
        <extensions>
          <ns3:TrackPointExtension>
            <ns3:atemp>16.0</ns3:atemp>
            <ns3:hr>138</ns3:hr>
          </ns3:TrackPointExtension>
        </extensions>
      </trkpt>
      <trkpt lat="-22.0761303417384624481201171875" lon="166.44538373686373233795166015625">
        <ele>796.4000244140625</ele>
        <time>2016-08-12T18:52:39.000Z</time>
        <extensions>
          <ns3:TrackPointExtension>
            <ns3:atemp>16.0</ns3:atemp>
            <ns3:hr>139</ns3:hr>
          </ns3:TrackPointExtension>
        </extensions>
      </trkpt>
      <trkpt lat="-22.076117433607578277587890625" lon="166.445378959178924560546875">
        <ele>796.4000244140625</ele>
        <time>2016-08-12T18:52:40.000Z</time>
        <extensions>
          <ns3:TrackPointExtension>
            <ns3:atemp>16.0</ns3:atemp>
            <ns3:hr>139</ns3:hr>
          </ns3:TrackPointExtension>
        </extensions>
      </trkpt>
      <trkpt lat="-22.07610159181058406829833984375" lon="166.4453683979809284210205078125">
        <ele>796.5999755859375</ele>
        <time>2016-08-12T18:52:41.000Z</time>
        <extensions>
          <ns3:TrackPointExtension>
            <ns3:atemp>16.0</ns3:atemp>
            <ns3:hr>139</ns3:hr>
          </ns3:TrackPointExtension>
        </extensions>
      </trkpt>
      <trkpt lat="-22.07608667202293872833251953125" lon="166.44536110572516918182373046875">
        <ele>796.5999755859375</ele>
        <time>2016-08-12T18:52:42.000Z</time>
        <extensions>
          <ns3:TrackPointExtension>
            <ns3:atemp>16.0</ns3:atemp>
            <ns3:hr>138</ns3:hr>
          </ns3:TrackPointExtension>
        </extensions>
      </trkpt>
      <trkpt lat="-22.07607091404497623443603515625" lon="166.44535741768777370452880859375">
        <ele>796.79998779296875</ele>
        <time>2016-08-12T18:52:43.000Z</time>
        <extensions>
          <ns3:TrackPointExtension>
            <ns3:atemp>16.0</ns3:atemp>
            <ns3:hr>139</ns3:hr>
          </ns3:TrackPointExtension>
        </extensions>
      </trkpt>
      <trkpt lat="-22.07605465315282344818115234375" lon="166.4453519694507122039794921875">
        <ele>797</ele>
        <time>2016-08-12T18:52:44.000Z</time>
        <extensions>
          <ns3:TrackPointExtension>
            <ns3:atemp>16.0</ns3:atemp>
            <ns3:hr>139</ns3:hr>
          </ns3:TrackPointExtension>
        </extensions>
      </trkpt>
      <trkpt lat="-22.07603864371776580810546875" lon="166.445345096290111541748046875">
        <ele>797.20001220703125</ele>
        <time>2016-08-12T18:52:45.000Z</time>
        <extensions>
          <ns3:TrackPointExtension>
            <ns3:atemp>16.0</ns3:atemp>
            <ns3:hr>138</ns3:hr>
          </ns3:TrackPointExtension>
        </extensions>
      </trkpt>
      <trkpt lat="-22.076024897396564483642578125" lon="166.4453338645398616790771484375">
        <ele>797.20001220703125</ele>
        <time>2016-08-12T18:52:46.000Z</time>
        <extensions>
          <ns3:TrackPointExtension>
            <ns3:atemp>16.0</ns3:atemp>
            <ns3:hr>138</ns3:hr>
          </ns3:TrackPointExtension>
        </extensions>
      </trkpt>
      <trkpt lat="-22.07601157017052173614501953125" lon="166.4453295059502124786376953125">
        <ele>797.4000244140625</ele>
        <time>2016-08-12T18:52:47.000Z</time>
        <extensions>
          <ns3:TrackPointExtension>
            <ns3:atemp>16.0</ns3:atemp>
            <ns3:hr>139</ns3:hr>
          </ns3:TrackPointExtension>
        </extensions>
      </trkpt>
      <trkpt lat="-22.0759982429444789886474609375" lon="166.44532539881765842437744140625">
        <ele>797.5999755859375</ele>
        <time>2016-08-12T18:52:48.000Z</time>
        <extensions>
          <ns3:TrackPointExtension>
            <ns3:atemp>16.0</ns3:atemp>
            <ns3:hr>139</ns3:hr>
          </ns3:TrackPointExtension>
        </extensions>
      </trkpt>
      <trkpt lat="-22.07598625682294368743896484375" lon="166.44531819038093090057373046875">
        <ele>797.79998779296875</ele>
        <time>2016-08-12T18:52:49.000Z</time>
        <extensions>
          <ns3:TrackPointExtension>
            <ns3:atemp>16.0</ns3:atemp>
            <ns3:hr>139</ns3:hr>
          </ns3:TrackPointExtension>
        </extensions>
      </trkpt>
      <trkpt lat="-22.07597049884498119354248046875" lon="166.44531383179128170013427734375">
        <ele>798</ele>
        <time>2016-08-12T18:52:50.000Z</time>
        <extensions>
          <ns3:TrackPointExtension>
            <ns3:atemp>16.0</ns3:atemp>
            <ns3:hr>139</ns3:hr>
          </ns3:TrackPointExtension>
        </extensions>
      </trkpt>
      <trkpt lat="-22.0759536512196063995361328125" lon="166.44530762918293476104736328125">
        <ele>798</ele>
        <time>2016-08-12T18:52:51.000Z</time>
        <extensions>
          <ns3:TrackPointExtension>
            <ns3:atemp>16.0</ns3:atemp>
            <ns3:hr>139</ns3:hr>
          </ns3:TrackPointExtension>
        </extensions>
      </trkpt>
      <trkpt lat="-22.0759338699281215667724609375" lon="166.4453003369271755218505859375">
        <ele>798.20001220703125</ele>
        <time>2016-08-12T18:52:52.000Z</time>
        <extensions>
          <ns3:TrackPointExtension>
            <ns3:atemp>16.0</ns3:atemp>
            <ns3:hr>139</ns3:hr>
          </ns3:TrackPointExtension>
        </extensions>
      </trkpt>
      <trkpt lat="-22.0759184472262859344482421875" lon="166.445296145975589752197265625">
        <ele>798.4000244140625</ele>
        <time>2016-08-12T18:52:53.000Z</time>
        <extensions>
          <ns3:TrackPointExtension>
            <ns3:atemp>16.0</ns3:atemp>
            <ns3:hr>140</ns3:hr>
          </ns3:TrackPointExtension>
        </extensions>
      </trkpt>
      <trkpt lat="-22.0759023539721965789794921875" lon="166.44530117511749267578125">
        <ele>798.5999755859375</ele>
        <time>2016-08-12T18:52:54.000Z</time>
        <extensions>
          <ns3:TrackPointExtension>
            <ns3:atemp>16.0</ns3:atemp>
            <ns3:hr>140</ns3:hr>
          </ns3:TrackPointExtension>
        </extensions>
      </trkpt>
      <trkpt lat="-22.0758904516696929931640625" lon="166.445293128490447998046875">
        <ele>798.5999755859375</ele>
        <time>2016-08-12T18:52:55.000Z</time>
        <extensions>
          <ns3:TrackPointExtension>
            <ns3:atemp>16.0</ns3:atemp>
            <ns3:hr>140</ns3:hr>
          </ns3:TrackPointExtension>
        </extensions>
      </trkpt>
      <trkpt lat="-22.07587829791009426116943359375" lon="166.44528499804437160491943359375">
        <ele>798.5999755859375</ele>
        <time>2016-08-12T18:52:56.000Z</time>
        <extensions>
          <ns3:TrackPointExtension>
            <ns3:atemp>16.0</ns3:atemp>
            <ns3:hr>140</ns3:hr>
          </ns3:TrackPointExtension>
        </extensions>
      </trkpt>
      <trkpt lat="-22.07586237229406833648681640625" lon="166.44528298638761043548583984375">
        <ele>798.79998779296875</ele>
        <time>2016-08-12T18:52:57.000Z</time>
        <extensions>
          <ns3:TrackPointExtension>
            <ns3:atemp>16.0</ns3:atemp>
            <ns3:hr>141</ns3:hr>
          </ns3:TrackPointExtension>
        </extensions>
      </trkpt>
      <trkpt lat="-22.0758421719074249267578125" lon="166.44527544267475605010986328125">
        <ele>798.79998779296875</ele>
        <time>2016-08-12T18:52:58.000Z</time>
        <extensions>
          <ns3:TrackPointExtension>
            <ns3:atemp>16.0</ns3:atemp>
            <ns3:hr>141</ns3:hr>
          </ns3:TrackPointExtension>
        </extensions>
      </trkpt>
      <trkpt lat="-22.07582700066268444061279296875" lon="166.4452590979635715484619140625">
        <ele>799</ele>
        <time>2016-08-12T18:52:59.000Z</time>
        <extensions>
          <ns3:TrackPointExtension>
            <ns3:atemp>16.0</ns3:atemp>
            <ns3:hr>141</ns3:hr>
          </ns3:TrackPointExtension>
        </extensions>
      </trkpt>
      <trkpt lat="-22.07581090740859508514404296875" lon="166.44524711184203624725341796875">
        <ele>799.4000244140625</ele>
        <time>2016-08-12T18:53:00.000Z</time>
        <extensions>
          <ns3:TrackPointExtension>
            <ns3:atemp>16.0</ns3:atemp>
            <ns3:hr>141</ns3:hr>
          </ns3:TrackPointExtension>
        </extensions>
      </trkpt>
      <trkpt lat="-22.07579682581126689910888671875" lon="166.4452376402914524078369140625">
        <ele>799.5999755859375</ele>
        <time>2016-08-12T18:53:01.000Z</time>
        <extensions>
          <ns3:TrackPointExtension>
            <ns3:atemp>16.0</ns3:atemp>
            <ns3:hr>141</ns3:hr>
          </ns3:TrackPointExtension>
        </extensions>
      </trkpt>
      <trkpt lat="-22.0757833309471607208251953125" lon="166.44522448070347309112548828125">
        <ele>799.79998779296875</ele>
        <time>2016-08-12T18:53:02.000Z</time>
        <extensions>
          <ns3:TrackPointExtension>
            <ns3:atemp>16.0</ns3:atemp>
            <ns3:hr>141</ns3:hr>
          </ns3:TrackPointExtension>
        </extensions>
      </trkpt>
      <trkpt lat="-22.0757685787975788116455078125" lon="166.445208974182605743408203125">
        <ele>800</ele>
        <time>2016-08-12T18:53:03.000Z</time>
        <extensions>
          <ns3:TrackPointExtension>
            <ns3:atemp>16.0</ns3:atemp>
            <ns3:hr>141</ns3:hr>
          </ns3:TrackPointExtension>
        </extensions>
      </trkpt>
      <trkpt lat="-22.0757568441331386566162109375" lon="166.4451987482607364654541015625">
        <ele>800</ele>
        <time>2016-08-12T18:53:04.000Z</time>
        <extensions>
          <ns3:TrackPointExtension>
            <ns3:atemp>16.0</ns3:atemp>
            <ns3:hr>141</ns3:hr>
          </ns3:TrackPointExtension>
        </extensions>
      </trkpt>
      <trkpt lat="-22.07574418745934963226318359375" lon="166.445189528167247772216796875">
        <ele>800.20001220703125</ele>
        <time>2016-08-12T18:53:05.000Z</time>
        <extensions>
          <ns3:TrackPointExtension>
            <ns3:atemp>16.0</ns3:atemp>
            <ns3:hr>141</ns3:hr>
          </ns3:TrackPointExtension>
        </extensions>
      </trkpt>
      <trkpt lat="-22.0757300220429897308349609375" lon="166.4451850019395351409912109375">
        <ele>800.20001220703125</ele>
        <time>2016-08-12T18:53:06.000Z</time>
        <extensions>
          <ns3:TrackPointExtension>
            <ns3:atemp>16.0</ns3:atemp>
            <ns3:hr>141</ns3:hr>
          </ns3:TrackPointExtension>
        </extensions>
      </trkpt>
      <trkpt lat="-22.07571786828339099884033203125" lon="166.4451829902827739715576171875">
        <ele>800.4000244140625</ele>
        <time>2016-08-12T18:53:07.000Z</time>
        <extensions>
          <ns3:TrackPointExtension>
            <ns3:atemp>16.0</ns3:atemp>
            <ns3:hr>141</ns3:hr>
          </ns3:TrackPointExtension>
        </extensions>
      </trkpt>
      <trkpt lat="-22.07570529542863368988037109375" lon="166.4451766200363636016845703125">
        <ele>800.5999755859375</ele>
        <time>2016-08-12T18:53:08.000Z</time>
        <extensions>
          <ns3:TrackPointExtension>
            <ns3:atemp>16.0</ns3:atemp>
            <ns3:hr>140</ns3:hr>
          </ns3:TrackPointExtension>
        </extensions>
      </trkpt>
      <trkpt lat="-22.075690291821956634521484375" lon="166.445172093808650970458984375">
        <ele>800.5999755859375</ele>
        <time>2016-08-12T18:53:09.000Z</time>
        <extensions>
          <ns3:TrackPointExtension>
            <ns3:atemp>16.0</ns3:atemp>
            <ns3:hr>140</ns3:hr>
          </ns3:TrackPointExtension>
        </extensions>
      </trkpt>
      <trkpt lat="-22.075676210224628448486328125" lon="166.4451702497899532318115234375">
        <ele>800.79998779296875</ele>
        <time>2016-08-12T18:53:10.000Z</time>
        <extensions>
          <ns3:TrackPointExtension>
            <ns3:atemp>16.0</ns3:atemp>
            <ns3:hr>140</ns3:hr>
          </ns3:TrackPointExtension>
        </extensions>
      </trkpt>
      <trkpt lat="-22.0756592787802219390869140625" lon="166.445168070495128631591796875">
        <ele>801.20001220703125</ele>
        <time>2016-08-12T18:53:11.000Z</time>
        <extensions>
          <ns3:TrackPointExtension>
            <ns3:atemp>16.0</ns3:atemp>
            <ns3:hr>140</ns3:hr>
          </ns3:TrackPointExtension>
        </extensions>
      </trkpt>
      <trkpt lat="-22.075640670955181121826171875" lon="166.44517200998961925506591796875">
        <ele>801.4000244140625</ele>
        <time>2016-08-12T18:53:12.000Z</time>
        <extensions>
          <ns3:TrackPointExtension>
            <ns3:atemp>16.0</ns3:atemp>
            <ns3:hr>139</ns3:hr>
          </ns3:TrackPointExtension>
        </extensions>
      </trkpt>
      <trkpt lat="-22.07562332041561603546142578125" lon="166.4451819844543933868408203125">
        <ele>801.4000244140625</ele>
        <time>2016-08-12T18:53:13.000Z</time>
        <extensions>
          <ns3:TrackPointExtension>
            <ns3:atemp>16.0</ns3:atemp>
            <ns3:hr>140</ns3:hr>
          </ns3:TrackPointExtension>
        </extensions>
      </trkpt>
      <trkpt lat="-22.07560471259057521820068359375" lon="166.445186845958232879638671875">
        <ele>801.5999755859375</ele>
        <time>2016-08-12T18:53:14.000Z</time>
        <extensions>
          <ns3:TrackPointExtension>
            <ns3:atemp>16.0</ns3:atemp>
            <ns3:hr>139</ns3:hr>
          </ns3:TrackPointExtension>
        </extensions>
      </trkpt>
      <trkpt lat="-22.07558811642229557037353515625" lon="166.44518961198627948760986328125">
        <ele>801.79998779296875</ele>
        <time>2016-08-12T18:53:15.000Z</time>
        <extensions>
          <ns3:TrackPointExtension>
            <ns3:atemp>16.0</ns3:atemp>
            <ns3:hr>139</ns3:hr>
          </ns3:TrackPointExtension>
        </extensions>
      </trkpt>
      <trkpt lat="-22.0755751244723796844482421875" lon="166.44519413821399211883544921875">
        <ele>802</ele>
        <time>2016-08-12T18:53:16.000Z</time>
        <extensions>
          <ns3:TrackPointExtension>
            <ns3:atemp>16.0</ns3:atemp>
            <ns3:hr>140</ns3:hr>
          </ns3:TrackPointExtension>
        </extensions>
      </trkpt>
      <trkpt lat="-22.0755593664944171905517578125" lon="166.4451987482607364654541015625">
        <ele>802.20001220703125</ele>
        <time>2016-08-12T18:53:17.000Z</time>
        <extensions>
          <ns3:TrackPointExtension>
            <ns3:atemp>16.0</ns3:atemp>
            <ns3:hr>139</ns3:hr>
          </ns3:TrackPointExtension>
        </extensions>
      </trkpt>
      <trkpt lat="-22.0755412615835666656494140625" lon="166.44520939327776432037353515625">
        <ele>802.79998779296875</ele>
        <time>2016-08-12T18:53:18.000Z</time>
        <extensions>
          <ns3:TrackPointExtension>
            <ns3:atemp>16.0</ns3:atemp>
            <ns3:hr>139</ns3:hr>
          </ns3:TrackPointExtension>
        </extensions>
      </trkpt>
      <trkpt lat="-22.0755211450159549713134765625" lon="166.44521869719028472900390625">
        <ele>803</ele>
        <time>2016-08-12T18:53:19.000Z</time>
        <extensions>
          <ns3:TrackPointExtension>
            <ns3:atemp>16.0</ns3:atemp>
            <ns3:hr>140</ns3:hr>
          </ns3:TrackPointExtension>
        </extensions>
      </trkpt>
      <trkpt lat="-22.07549625076353549957275390625" lon="166.44522548653185367584228515625">
        <ele>803.4000244140625</ele>
        <time>2016-08-12T18:53:20.000Z</time>
        <extensions>
          <ns3:TrackPointExtension>
            <ns3:atemp>16.0</ns3:atemp>
            <ns3:hr>139</ns3:hr>
          </ns3:TrackPointExtension>
        </extensions>
      </trkpt>
      <trkpt lat="-22.0754775591194629669189453125" lon="166.445229090750217437744140625">
        <ele>803.5999755859375</ele>
        <time>2016-08-12T18:53:21.000Z</time>
        <extensions>
          <ns3:TrackPointExtension>
            <ns3:atemp>16.0</ns3:atemp>
            <ns3:hr>139</ns3:hr>
          </ns3:TrackPointExtension>
        </extensions>
      </trkpt>
      <trkpt lat="-22.07546322606503963470458984375" lon="166.44523571245372295379638671875">
        <ele>803.5999755859375</ele>
        <time>2016-08-12T18:53:22.000Z</time>
        <extensions>
          <ns3:TrackPointExtension>
            <ns3:atemp>16.0</ns3:atemp>
            <ns3:hr>139</ns3:hr>
          </ns3:TrackPointExtension>
        </extensions>
      </trkpt>
      <trkpt lat="-22.07544746808707714080810546875" lon="166.4452421665191650390625">
        <ele>803.79998779296875</ele>
        <time>2016-08-12T18:53:23.000Z</time>
        <extensions>
          <ns3:TrackPointExtension>
            <ns3:atemp>16.0</ns3:atemp>
            <ns3:hr>139</ns3:hr>
          </ns3:TrackPointExtension>
        </extensions>
      </trkpt>
      <trkpt lat="-22.07543187774717807769775390625" lon="166.44525214098393917083740234375">
        <ele>803.79998779296875</ele>
        <time>2016-08-12T18:53:24.000Z</time>
        <extensions>
          <ns3:TrackPointExtension>
            <ns3:atemp>16.0</ns3:atemp>
            <ns3:hr>139</ns3:hr>
          </ns3:TrackPointExtension>
        </extensions>
      </trkpt>
      <trkpt lat="-22.07541511394083499908447265625" lon="166.445263959467411041259765625">
        <ele>804</ele>
        <time>2016-08-12T18:53:25.000Z</time>
        <extensions>
          <ns3:TrackPointExtension>
            <ns3:atemp>16.0</ns3:atemp>
            <ns3:hr>139</ns3:hr>
          </ns3:TrackPointExtension>
        </extensions>
      </trkpt>
      <trkpt lat="-22.0753996074199676513671875" lon="166.4452735148370265960693359375">
        <ele>804.4000244140625</ele>
        <time>2016-08-12T18:53:26.000Z</time>
        <extensions>
          <ns3:TrackPointExtension>
            <ns3:atemp>16.0</ns3:atemp>
            <ns3:hr>139</ns3:hr>
          </ns3:TrackPointExtension>
        </extensions>
      </trkpt>
      <trkpt lat="-22.07538510672748088836669921875" lon="166.44528315402567386627197265625">
        <ele>804.5999755859375</ele>
        <time>2016-08-12T18:53:27.000Z</time>
        <extensions>
          <ns3:TrackPointExtension>
            <ns3:atemp>16.0</ns3:atemp>
            <ns3:hr>139</ns3:hr>
          </ns3:TrackPointExtension>
        </extensions>
      </trkpt>
      <trkpt lat="-22.075373791158199310302734375" lon="166.44529438577592372894287109375">
        <ele>804.79998779296875</ele>
        <time>2016-08-12T18:53:28.000Z</time>
        <extensions>
          <ns3:TrackPointExtension>
            <ns3:atemp>16.0</ns3:atemp>
            <ns3:hr>139</ns3:hr>
          </ns3:TrackPointExtension>
        </extensions>
      </trkpt>
      <trkpt lat="-22.07535761408507823944091796875" lon="166.44530477933585643768310546875">
        <ele>805</ele>
        <time>2016-08-12T18:53:29.000Z</time>
        <extensions>
          <ns3:TrackPointExtension>
            <ns3:atemp>16.0</ns3:atemp>
            <ns3:hr>139</ns3:hr>
          </ns3:TrackPointExtension>
        </extensions>
      </trkpt>
      <trkpt lat="-22.0753394253551959991455078125" lon="166.4453150890767574310302734375">
        <ele>805.20001220703125</ele>
        <time>2016-08-12T18:53:30.000Z</time>
        <extensions>
          <ns3:TrackPointExtension>
            <ns3:atemp>16.0</ns3:atemp>
            <ns3:hr>139</ns3:hr>
          </ns3:TrackPointExtension>
        </extensions>
      </trkpt>
      <trkpt lat="-22.07531989552080631256103515625" lon="166.4453244768083095550537109375">
        <ele>805.5999755859375</ele>
        <time>2016-08-12T18:53:31.000Z</time>
        <extensions>
          <ns3:TrackPointExtension>
            <ns3:atemp>16.0</ns3:atemp>
            <ns3:hr>139</ns3:hr>
          </ns3:TrackPointExtension>
        </extensions>
      </trkpt>
      <trkpt lat="-22.0752955041825771331787109375" lon="166.44533176906406879425048828125">
        <ele>805.79998779296875</ele>
        <time>2016-08-12T18:53:32.000Z</time>
        <extensions>
          <ns3:TrackPointExtension>
            <ns3:atemp>16.0</ns3:atemp>
            <ns3:hr>139</ns3:hr>
          </ns3:TrackPointExtension>
        </extensions>
      </trkpt>
      <trkpt lat="-22.07527480088174343109130859375" lon="166.44534073770046234130859375">
        <ele>806.20001220703125</ele>
        <time>2016-08-12T18:53:33.000Z</time>
        <extensions>
          <ns3:TrackPointExtension>
            <ns3:atemp>16.0</ns3:atemp>
            <ns3:hr>139</ns3:hr>
          </ns3:TrackPointExtension>
        </extensions>
      </trkpt>
      <trkpt lat="-22.0752579532563686370849609375" lon="166.44534249790012836456298828125">
        <ele>806.20001220703125</ele>
        <time>2016-08-12T18:53:34.000Z</time>
        <extensions>
          <ns3:TrackPointExtension>
            <ns3:atemp>16.0</ns3:atemp>
            <ns3:hr>139</ns3:hr>
          </ns3:TrackPointExtension>
        </extensions>
      </trkpt>
      <trkpt lat="-22.07524001598358154296875" lon="166.44533696584403514862060546875">
        <ele>806.5999755859375</ele>
        <time>2016-08-12T18:53:35.000Z</time>
        <extensions>
          <ns3:TrackPointExtension>
            <ns3:atemp>16.0</ns3:atemp>
            <ns3:hr>140</ns3:hr>
          </ns3:TrackPointExtension>
        </extensions>
      </trkpt>
      <trkpt lat="-22.07521998323500156402587890625" lon="166.44533269107341766357421875">
        <ele>806.5999755859375</ele>
        <time>2016-08-12T18:53:36.000Z</time>
        <extensions>
          <ns3:TrackPointExtension>
            <ns3:atemp>16.0</ns3:atemp>
            <ns3:hr>140</ns3:hr>
          </ns3:TrackPointExtension>
        </extensions>
      </trkpt>
      <trkpt lat="-22.075202800333499908447265625" lon="166.44533093087375164031982421875">
        <ele>807</ele>
        <time>2016-08-12T18:53:37.000Z</time>
        <extensions>
          <ns3:TrackPointExtension>
            <ns3:atemp>16.0</ns3:atemp>
            <ns3:hr>139</ns3:hr>
          </ns3:TrackPointExtension>
        </extensions>
      </trkpt>
      <trkpt lat="-22.07518846727907657623291015625" lon="166.445328332483768463134765625">
        <ele>807.4000244140625</ele>
        <time>2016-08-12T18:53:38.000Z</time>
        <extensions>
          <ns3:TrackPointExtension>
            <ns3:atemp>16.0</ns3:atemp>
            <ns3:hr>140</ns3:hr>
          </ns3:TrackPointExtension>
        </extensions>
      </trkpt>
      <trkpt lat="-22.075172625482082366943359375" lon="166.44532590173184871673583984375">
        <ele>807.4000244140625</ele>
        <time>2016-08-12T18:53:39.000Z</time>
        <extensions>
          <ns3:TrackPointExtension>
            <ns3:atemp>16.0</ns3:atemp>
            <ns3:hr>140</ns3:hr>
          </ns3:TrackPointExtension>
        </extensions>
      </trkpt>
      <trkpt lat="-22.07515711896121501922607421875" lon="166.44532120786607265472412109375">
        <ele>807.5999755859375</ele>
        <time>2016-08-12T18:53:40.000Z</time>
        <extensions>
          <ns3:TrackPointExtension>
            <ns3:atemp>16.0</ns3:atemp>
            <ns3:hr>140</ns3:hr>
          </ns3:TrackPointExtension>
        </extensions>
      </trkpt>
      <trkpt lat="-22.07514454610645771026611328125" lon="166.44531567580997943878173828125">
        <ele>807.79998779296875</ele>
        <time>2016-08-12T18:53:41.000Z</time>
        <extensions>
          <ns3:TrackPointExtension>
            <ns3:atemp>16.0</ns3:atemp>
            <ns3:hr>140</ns3:hr>
          </ns3:TrackPointExtension>
        </extensions>
      </trkpt>
      <trkpt lat="-22.07512476481497287750244140625" lon="166.44530863501131534576416015625">
        <ele>807.79998779296875</ele>
        <time>2016-08-12T18:53:42.000Z</time>
        <extensions>
          <ns3:TrackPointExtension>
            <ns3:atemp>16.0</ns3:atemp>
            <ns3:hr>141</ns3:hr>
          </ns3:TrackPointExtension>
        </extensions>
      </trkpt>
      <trkpt lat="-22.0751104317605495452880859375" lon="166.44530050456523895263671875">
        <ele>808</ele>
        <time>2016-08-12T18:53:43.000Z</time>
        <extensions>
          <ns3:TrackPointExtension>
            <ns3:atemp>16.0</ns3:atemp>
            <ns3:hr>141</ns3:hr>
          </ns3:TrackPointExtension>
        </extensions>
      </trkpt>
      <trkpt lat="-22.07509458996355533599853515625" lon="166.4452956430613994598388671875">
        <ele>808.20001220703125</ele>
        <time>2016-08-12T18:53:44.000Z</time>
        <extensions>
          <ns3:TrackPointExtension>
            <ns3:atemp>16.0</ns3:atemp>
            <ns3:hr>140</ns3:hr>
          </ns3:TrackPointExtension>
        </extensions>
      </trkpt>
      <trkpt lat="-22.07507547922432422637939453125" lon="166.44528985954821109771728515625">
        <ele>808.4000244140625</ele>
        <time>2016-08-12T18:53:45.000Z</time>
        <extensions>
          <ns3:TrackPointExtension>
            <ns3:atemp>16.0</ns3:atemp>
            <ns3:hr>141</ns3:hr>
          </ns3:TrackPointExtension>
        </extensions>
      </trkpt>
      <trkpt lat="-22.0750587992370128631591796875" lon="166.44528332166373729705810546875">
        <ele>808.79998779296875</ele>
        <time>2016-08-12T18:53:46.000Z</time>
        <extensions>
          <ns3:TrackPointExtension>
            <ns3:atemp>16.0</ns3:atemp>
            <ns3:hr>141</ns3:hr>
          </ns3:TrackPointExtension>
        </extensions>
      </trkpt>
      <trkpt lat="-22.07504513673484325408935546875" lon="166.445278041064739227294921875">
        <ele>809</ele>
        <time>2016-08-12T18:53:47.000Z</time>
        <extensions>
          <ns3:TrackPointExtension>
            <ns3:atemp>16.0</ns3:atemp>
            <ns3:hr>140</ns3:hr>
          </ns3:TrackPointExtension>
        </extensions>
      </trkpt>
      <trkpt lat="-22.07502543926239013671875" lon="166.44526697695255279541015625">
        <ele>809.20001220703125</ele>
        <time>2016-08-12T18:53:48.000Z</time>
        <extensions>
          <ns3:TrackPointExtension>
            <ns3:atemp>16.0</ns3:atemp>
            <ns3:hr>141</ns3:hr>
          </ns3:TrackPointExtension>
        </extensions>
      </trkpt>
      <trkpt lat="-22.075006999075412750244140625" lon="166.44525901414453983306884765625">
        <ele>809.4000244140625</ele>
        <time>2016-08-12T18:53:49.000Z</time>
        <extensions>
          <ns3:TrackPointExtension>
            <ns3:atemp>16.0</ns3:atemp>
            <ns3:hr>141</ns3:hr>
          </ns3:TrackPointExtension>
        </extensions>
      </trkpt>
      <trkpt lat="-22.07499015145003795623779296875" lon="166.44525247626006603240966796875">
        <ele>809.4000244140625</ele>
        <time>2016-08-12T18:53:50.000Z</time>
        <extensions>
          <ns3:TrackPointExtension>
            <ns3:atemp>16.0</ns3:atemp>
            <ns3:hr>141</ns3:hr>
          </ns3:TrackPointExtension>
        </extensions>
      </trkpt>
      <trkpt lat="-22.074973471462726593017578125" lon="166.44525088369846343994140625">
        <ele>809.5999755859375</ele>
        <time>2016-08-12T18:53:51.000Z</time>
        <extensions>
          <ns3:TrackPointExtension>
            <ns3:atemp>16.0</ns3:atemp>
            <ns3:hr>142</ns3:hr>
          </ns3:TrackPointExtension>
        </extensions>
      </trkpt>
      <trkpt lat="-22.0749555341899394989013671875" lon="166.4452460221946239471435546875">
        <ele>809.5999755859375</ele>
        <time>2016-08-12T18:53:52.000Z</time>
        <extensions>
          <ns3:TrackPointExtension>
            <ns3:atemp>16.0</ns3:atemp>
            <ns3:hr>141</ns3:hr>
          </ns3:TrackPointExtension>
        </extensions>
      </trkpt>
      <trkpt lat="-22.0749350823462009429931640625" lon="166.44523906521499156951904296875">
        <ele>809.79998779296875</ele>
        <time>2016-08-12T18:53:53.000Z</time>
        <extensions>
          <ns3:TrackPointExtension>
            <ns3:atemp>17.0</ns3:atemp>
            <ns3:hr>142</ns3:hr>
          </ns3:TrackPointExtension>
        </extensions>
      </trkpt>
      <trkpt lat="-22.07491823472082614898681640625" lon="166.4452396519482135772705078125">
        <ele>809.79998779296875</ele>
        <time>2016-08-12T18:53:54.000Z</time>
        <extensions>
          <ns3:TrackPointExtension>
            <ns3:atemp>17.0</ns3:atemp>
            <ns3:hr>142</ns3:hr>
          </ns3:TrackPointExtension>
        </extensions>
      </trkpt>
      <trkpt lat="-22.0748971961438655853271484375" lon="166.445237137377262115478515625">
        <ele>810</ele>
        <time>2016-08-12T18:53:55.000Z</time>
        <extensions>
          <ns3:TrackPointExtension>
            <ns3:atemp>17.0</ns3:atemp>
            <ns3:hr>142</ns3:hr>
          </ns3:TrackPointExtension>
        </extensions>
      </trkpt>
      <trkpt lat="-22.07487749867141246795654296875" lon="166.44523688592016696929931640625">
        <ele>810.20001220703125</ele>
        <time>2016-08-12T18:53:56.000Z</time>
        <extensions>
          <ns3:TrackPointExtension>
            <ns3:atemp>17.0</ns3:atemp>
            <ns3:hr>142</ns3:hr>
          </ns3:TrackPointExtension>
        </extensions>
      </trkpt>
      <trkpt lat="-22.07485805265605449676513671875" lon="166.445234119892120361328125">
        <ele>810.20001220703125</ele>
        <time>2016-08-12T18:53:57.000Z</time>
        <extensions>
          <ns3:TrackPointExtension>
            <ns3:atemp>17.0</ns3:atemp>
            <ns3:hr>142</ns3:hr>
          </ns3:TrackPointExtension>
        </extensions>
      </trkpt>
      <trkpt lat="-22.07484464161098003387451171875" lon="166.44523202441632747650146484375">
        <ele>810.5999755859375</ele>
        <time>2016-08-12T18:53:58.000Z</time>
        <extensions>
          <ns3:TrackPointExtension>
            <ns3:atemp>17.0</ns3:atemp>
            <ns3:hr>143</ns3:hr>
          </ns3:TrackPointExtension>
        </extensions>
      </trkpt>
      <trkpt lat="-22.0748269557952880859375" lon="166.44522733055055141448974609375">
        <ele>810.5999755859375</ele>
        <time>2016-08-12T18:53:59.000Z</time>
        <extensions>
          <ns3:TrackPointExtension>
            <ns3:atemp>17.0</ns3:atemp>
            <ns3:hr>143</ns3:hr>
          </ns3:TrackPointExtension>
        </extensions>
      </trkpt>
      <trkpt lat="-22.07480960525572299957275390625" lon="166.445225737988948822021484375">
        <ele>810.79998779296875</ele>
        <time>2016-08-12T18:54:00.000Z</time>
        <extensions>
          <ns3:TrackPointExtension>
            <ns3:atemp>17.0</ns3:atemp>
            <ns3:hr>143</ns3:hr>
          </ns3:TrackPointExtension>
        </extensions>
      </trkpt>
      <trkpt lat="-22.074792087078094482421875" lon="166.445209644734859466552734375">
        <ele>811</ele>
        <time>2016-08-12T18:54:01.000Z</time>
        <extensions>
          <ns3:TrackPointExtension>
            <ns3:atemp>17.0</ns3:atemp>
            <ns3:hr>143</ns3:hr>
          </ns3:TrackPointExtension>
        </extensions>
      </trkpt>
      <trkpt lat="-22.0747754909098148345947265625" lon="166.445198915898799896240234375">
        <ele>811</ele>
        <time>2016-08-12T18:54:02.000Z</time>
        <extensions>
          <ns3:TrackPointExtension>
            <ns3:atemp>17.0</ns3:atemp>
            <ns3:hr>144</ns3:hr>
          </ns3:TrackPointExtension>
        </extensions>
      </trkpt>
      <trkpt lat="-22.07476451061666011810302734375" lon="166.445194222033023834228515625">
        <ele>811.20001220703125</ele>
        <time>2016-08-12T18:54:03.000Z</time>
        <extensions>
          <ns3:TrackPointExtension>
            <ns3:atemp>17.0</ns3:atemp>
            <ns3:hr>144</ns3:hr>
          </ns3:TrackPointExtension>
        </extensions>
      </trkpt>
      <trkpt lat="-22.07475344650447368621826171875" lon="166.44519053399562835693359375">
        <ele>811.4000244140625</ele>
        <time>2016-08-12T18:54:04.000Z</time>
        <extensions>
          <ns3:TrackPointExtension>
            <ns3:atemp>17.0</ns3:atemp>
            <ns3:hr>144</ns3:hr>
          </ns3:TrackPointExtension>
        </extensions>
      </trkpt>
      <trkpt lat="-22.07473785616457462310791015625" lon="166.44518190063536167144775390625">
        <ele>811.5999755859375</ele>
        <time>2016-08-12T18:54:05.000Z</time>
        <extensions>
          <ns3:TrackPointExtension>
            <ns3:atemp>17.0</ns3:atemp>
            <ns3:hr>144</ns3:hr>
          </ns3:TrackPointExtension>
        </extensions>
      </trkpt>
      <trkpt lat="-22.07472226582467555999755859375" lon="166.44517284817993640899658203125">
        <ele>811.79998779296875</ele>
        <time>2016-08-12T18:54:06.000Z</time>
        <extensions>
          <ns3:TrackPointExtension>
            <ns3:atemp>17.0</ns3:atemp>
            <ns3:hr>144</ns3:hr>
          </ns3:TrackPointExtension>
        </extensions>
      </trkpt>
      <trkpt lat="-22.07470634020864963531494140625" lon="166.44516077823936939239501953125">
        <ele>812</ele>
        <time>2016-08-12T18:54:07.000Z</time>
        <extensions>
          <ns3:TrackPointExtension>
            <ns3:atemp>17.0</ns3:atemp>
            <ns3:hr>144</ns3:hr>
          </ns3:TrackPointExtension>
        </extensions>
      </trkpt>
      <trkpt lat="-22.074690498411655426025390625" lon="166.445148624479770660400390625">
        <ele>812</ele>
        <time>2016-08-12T18:54:08.000Z</time>
        <extensions>
          <ns3:TrackPointExtension>
            <ns3:atemp>17.0</ns3:atemp>
            <ns3:hr>144</ns3:hr>
          </ns3:TrackPointExtension>
        </extensions>
      </trkpt>
      <trkpt lat="-22.07467633299529552459716796875" lon="166.44514099694788455963134765625">
        <ele>812.20001220703125</ele>
        <time>2016-08-12T18:54:09.000Z</time>
        <extensions>
          <ns3:TrackPointExtension>
            <ns3:atemp>17.0</ns3:atemp>
            <ns3:hr>144</ns3:hr>
          </ns3:TrackPointExtension>
        </extensions>
      </trkpt>
      <trkpt lat="-22.07466107793152332305908203125" lon="166.4451269991695880889892578125">
        <ele>812.5999755859375</ele>
        <time>2016-08-12T18:54:10.000Z</time>
        <extensions>
          <ns3:TrackPointExtension>
            <ns3:atemp>17.0</ns3:atemp>
            <ns3:hr>144</ns3:hr>
          </ns3:TrackPointExtension>
        </extensions>
      </trkpt>
      <trkpt lat="-22.07464548759162425994873046875" lon="166.4451172761619091033935546875">
        <ele>812.5999755859375</ele>
        <time>2016-08-12T18:54:11.000Z</time>
        <extensions>
          <ns3:TrackPointExtension>
            <ns3:atemp>17.0</ns3:atemp>
            <ns3:hr>143</ns3:hr>
          </ns3:TrackPointExtension>
        </extensions>
      </trkpt>
      <trkpt lat="-22.07463190890848636627197265625" lon="166.4451102353632450103759765625">
        <ele>813</ele>
        <time>2016-08-12T18:54:12.000Z</time>
        <extensions>
          <ns3:TrackPointExtension>
            <ns3:atemp>17.0</ns3:atemp>
            <ns3:hr>144</ns3:hr>
          </ns3:TrackPointExtension>
        </extensions>
      </trkpt>
      <trkpt lat="-22.07461313344538211822509765625" lon="166.44509724341332912445068359375">
        <ele>813.20001220703125</ele>
        <time>2016-08-12T18:54:13.000Z</time>
        <extensions>
          <ns3:TrackPointExtension>
            <ns3:atemp>17.0</ns3:atemp>
            <ns3:hr>143</ns3:hr>
          </ns3:TrackPointExtension>
        </extensions>
      </trkpt>
      <trkpt lat="-22.07459351979196071624755859375" lon="166.44508534111082553863525390625">
        <ele>813.20001220703125</ele>
        <time>2016-08-12T18:54:14.000Z</time>
        <extensions>
          <ns3:TrackPointExtension>
            <ns3:atemp>17.0</ns3:atemp>
            <ns3:hr>143</ns3:hr>
          </ns3:TrackPointExtension>
        </extensions>
      </trkpt>
      <trkpt lat="-22.0745753310620784759521484375" lon="166.4450718462467193603515625">
        <ele>813.4000244140625</ele>
        <time>2016-08-12T18:54:15.000Z</time>
        <extensions>
          <ns3:TrackPointExtension>
            <ns3:atemp>17.0</ns3:atemp>
            <ns3:hr>144</ns3:hr>
          </ns3:TrackPointExtension>
        </extensions>
      </trkpt>
      <trkpt lat="-22.07455496303737163543701171875" lon="166.44506019540131092071533203125">
        <ele>813.5999755859375</ele>
        <time>2016-08-12T18:54:16.000Z</time>
        <extensions>
          <ns3:TrackPointExtension>
            <ns3:atemp>17.0</ns3:atemp>
            <ns3:hr>144</ns3:hr>
          </ns3:TrackPointExtension>
        </extensions>
      </trkpt>
      <trkpt lat="-22.07453886978328227996826171875" lon="166.445057429373264312744140625">
        <ele>813.5999755859375</ele>
        <time>2016-08-12T18:54:17.000Z</time>
        <extensions>
          <ns3:TrackPointExtension>
            <ns3:atemp>17.0</ns3:atemp>
            <ns3:hr>143</ns3:hr>
          </ns3:TrackPointExtension>
        </extensions>
      </trkpt>
      <trkpt lat="-22.0745253749191761016845703125" lon="166.44505483098328113555908203125">
        <ele>814</ele>
        <time>2016-08-12T18:54:18.000Z</time>
        <extensions>
          <ns3:TrackPointExtension>
            <ns3:atemp>17.0</ns3:atemp>
            <ns3:hr>143</ns3:hr>
          </ns3:TrackPointExtension>
        </extensions>
      </trkpt>
      <trkpt lat="-22.07451171241700649261474609375" lon="166.445045359432697296142578125">
        <ele>814.20001220703125</ele>
        <time>2016-08-12T18:54:19.000Z</time>
        <extensions>
          <ns3:TrackPointExtension>
            <ns3:atemp>16.0</ns3:atemp>
            <ns3:hr>144</ns3:hr>
          </ns3:TrackPointExtension>
        </extensions>
      </trkpt>
      <trkpt lat="-22.0744945295155048370361328125" lon="166.4450358040630817413330078125">
        <ele>814.20001220703125</ele>
        <time>2016-08-12T18:54:20.000Z</time>
        <extensions>
          <ns3:TrackPointExtension>
            <ns3:atemp>16.0</ns3:atemp>
            <ns3:hr>144</ns3:hr>
          </ns3:TrackPointExtension>
        </extensions>
      </trkpt>
      <trkpt lat="-22.0744713954627513885498046875" lon="166.44502130337059497833251953125">
        <ele>814.4000244140625</ele>
        <time>2016-08-12T18:54:21.000Z</time>
        <extensions>
          <ns3:TrackPointExtension>
            <ns3:atemp>16.0</ns3:atemp>
            <ns3:hr>143</ns3:hr>
          </ns3:TrackPointExtension>
        </extensions>
      </trkpt>
      <trkpt lat="-22.07445253618061542510986328125" lon="166.44501216709613800048828125">
        <ele>814.5999755859375</ele>
        <time>2016-08-12T18:54:22.000Z</time>
        <extensions>
          <ns3:TrackPointExtension>
            <ns3:atemp>16.0</ns3:atemp>
            <ns3:hr>143</ns3:hr>
          </ns3:TrackPointExtension>
        </extensions>
      </trkpt>
      <trkpt lat="-22.07443526946008205413818359375" lon="166.44500001333653926849365234375">
        <ele>814.5999755859375</ele>
        <time>2016-08-12T18:54:23.000Z</time>
        <extensions>
          <ns3:TrackPointExtension>
            <ns3:atemp>16.0</ns3:atemp>
            <ns3:hr>144</ns3:hr>
          </ns3:TrackPointExtension>
        </extensions>
      </trkpt>
      <trkpt lat="-22.074417583644390106201171875" lon="166.44499070942401885986328125">
        <ele>814.79998779296875</ele>
        <time>2016-08-12T18:54:24.000Z</time>
        <extensions>
          <ns3:TrackPointExtension>
            <ns3:atemp>16.0</ns3:atemp>
            <ns3:hr>143</ns3:hr>
          </ns3:TrackPointExtension>
        </extensions>
      </trkpt>
      <trkpt lat="-22.07439855672419071197509765625" lon="166.4449858479201793670654296875">
        <ele>815.20001220703125</ele>
        <time>2016-08-12T18:54:25.000Z</time>
        <extensions>
          <ns3:TrackPointExtension>
            <ns3:atemp>16.0</ns3:atemp>
            <ns3:hr>143</ns3:hr>
          </ns3:TrackPointExtension>
        </extensions>
      </trkpt>
      <trkpt lat="-22.07438237965106964111328125" lon="166.44499464891850948333740234375">
        <ele>815.20001220703125</ele>
        <time>2016-08-12T18:54:26.000Z</time>
        <extensions>
          <ns3:TrackPointExtension>
            <ns3:atemp>16.0</ns3:atemp>
            <ns3:hr>143</ns3:hr>
          </ns3:TrackPointExtension>
        </extensions>
      </trkpt>
      <trkpt lat="-22.0743667893111705780029296875" lon="166.4450021088123321533203125">
        <ele>815.5999755859375</ele>
        <time>2016-08-12T18:54:27.000Z</time>
        <extensions>
          <ns3:TrackPointExtension>
            <ns3:atemp>16.0</ns3:atemp>
            <ns3:hr>143</ns3:hr>
          </ns3:TrackPointExtension>
        </extensions>
      </trkpt>
      <trkpt lat="-22.0743523724377155303955078125" lon="166.4450076408684253692626953125">
        <ele>815.79998779296875</ele>
        <time>2016-08-12T18:54:28.000Z</time>
        <extensions>
          <ns3:TrackPointExtension>
            <ns3:atemp>16.0</ns3:atemp>
            <ns3:hr>143</ns3:hr>
          </ns3:TrackPointExtension>
        </extensions>
      </trkpt>
      <trkpt lat="-22.07433451898396015167236328125" lon="166.44501526840031147003173828125">
        <ele>815.79998779296875</ele>
        <time>2016-08-12T18:54:29.000Z</time>
        <extensions>
          <ns3:TrackPointExtension>
            <ns3:atemp>16.0</ns3:atemp>
            <ns3:hr>143</ns3:hr>
          </ns3:TrackPointExtension>
        </extensions>
      </trkpt>
      <trkpt lat="-22.07431188784539699554443359375" lon="166.44502222537994384765625">
        <ele>816.20001220703125</ele>
        <time>2016-08-12T18:54:30.000Z</time>
        <extensions>
          <ns3:TrackPointExtension>
            <ns3:atemp>16.0</ns3:atemp>
            <ns3:hr>143</ns3:hr>
          </ns3:TrackPointExtension>
        </extensions>
      </trkpt>
      <trkpt lat="-22.07429177127778530120849609375" lon="166.4450297690927982330322265625">
        <ele>816.4000244140625</ele>
        <time>2016-08-12T18:54:31.000Z</time>
        <extensions>
          <ns3:TrackPointExtension>
            <ns3:atemp>16.0</ns3:atemp>
            <ns3:hr>143</ns3:hr>
          </ns3:TrackPointExtension>
        </extensions>
      </trkpt>
      <trkpt lat="-22.0742755942046642303466796875" lon="166.4450378157198429107666015625">
        <ele>816.5999755859375</ele>
        <time>2016-08-12T18:54:32.000Z</time>
        <extensions>
          <ns3:TrackPointExtension>
            <ns3:atemp>16.0</ns3:atemp>
            <ns3:hr>143</ns3:hr>
          </ns3:TrackPointExtension>
        </extensions>
      </trkpt>
      <trkpt lat="-22.07426310516893863677978515625" lon="166.4450545795261859893798828125">
        <ele>816.5999755859375</ele>
        <time>2016-08-12T18:54:33.000Z</time>
        <extensions>
          <ns3:TrackPointExtension>
            <ns3:atemp>16.0</ns3:atemp>
            <ns3:hr>143</ns3:hr>
          </ns3:TrackPointExtension>
        </extensions>
      </trkpt>
      <trkpt lat="-22.07424961030483245849609375" lon="166.445068828761577606201171875">
        <ele>816.5999755859375</ele>
        <time>2016-08-12T18:54:34.000Z</time>
        <extensions>
          <ns3:TrackPointExtension>
            <ns3:atemp>16.0</ns3:atemp>
            <ns3:hr>144</ns3:hr>
          </ns3:TrackPointExtension>
        </extensions>
      </trkpt>
      <trkpt lat="-22.074234187602996826171875" lon="166.4450723491609096527099609375">
        <ele>816.79998779296875</ele>
        <time>2016-08-12T18:54:35.000Z</time>
        <extensions>
          <ns3:TrackPointExtension>
            <ns3:atemp>16.0</ns3:atemp>
            <ns3:hr>143</ns3:hr>
          </ns3:TrackPointExtension>
        </extensions>
      </trkpt>
      <trkpt lat="-22.074215412139892578125" lon="166.4450800605118274688720703125">
        <ele>817</ele>
        <time>2016-08-12T18:54:36.000Z</time>
        <extensions>
          <ns3:TrackPointExtension>
            <ns3:atemp>16.0</ns3:atemp>
            <ns3:hr>143</ns3:hr>
          </ns3:TrackPointExtension>
        </extensions>
      </trkpt>
      <trkpt lat="-22.07419789396226406097412109375" lon="166.4450944773852825164794921875">
        <ele>817.20001220703125</ele>
        <time>2016-08-12T18:54:37.000Z</time>
        <extensions>
          <ns3:TrackPointExtension>
            <ns3:atemp>16.0</ns3:atemp>
            <ns3:hr>143</ns3:hr>
          </ns3:TrackPointExtension>
        </extensions>
      </trkpt>
      <trkpt lat="-22.07418146543204784393310546875" lon="166.4451067149639129638671875">
        <ele>817.4000244140625</ele>
        <time>2016-08-12T18:54:38.000Z</time>
        <extensions>
          <ns3:TrackPointExtension>
            <ns3:atemp>16.0</ns3:atemp>
            <ns3:hr>144</ns3:hr>
          </ns3:TrackPointExtension>
        </extensions>
      </trkpt>
      <trkpt lat="-22.07415782846510410308837890625" lon="166.44512481987476348876953125">
        <ele>817.4000244140625</ele>
        <time>2016-08-12T18:54:39.000Z</time>
        <extensions>
          <ns3:TrackPointExtension>
            <ns3:atemp>16.0</ns3:atemp>
            <ns3:hr>143</ns3:hr>
          </ns3:TrackPointExtension>
        </extensions>
      </trkpt>
      <trkpt lat="-22.0741364546120166778564453125" lon="166.445142589509487152099609375">
        <ele>817.5999755859375</ele>
        <time>2016-08-12T18:54:40.000Z</time>
        <extensions>
          <ns3:TrackPointExtension>
            <ns3:atemp>16.0</ns3:atemp>
            <ns3:hr>143</ns3:hr>
          </ns3:TrackPointExtension>
        </extensions>
      </trkpt>
      <trkpt lat="-22.07411994226276874542236328125" lon="166.44515239633619785308837890625">
        <ele>817.79998779296875</ele>
        <time>2016-08-12T18:54:41.000Z</time>
        <extensions>
          <ns3:TrackPointExtension>
            <ns3:atemp>16.0</ns3:atemp>
            <ns3:hr>143</ns3:hr>
          </ns3:TrackPointExtension>
        </extensions>
      </trkpt>
      <trkpt lat="-22.07410435192286968231201171875" lon="166.4451628737151622772216796875">
        <ele>818</ele>
        <time>2016-08-12T18:54:42.000Z</time>
        <extensions>
          <ns3:TrackPointExtension>
            <ns3:atemp>16.0</ns3:atemp>
            <ns3:hr>143</ns3:hr>
          </ns3:TrackPointExtension>
        </extensions>
      </trkpt>
      <trkpt lat="-22.0740861631929874420166015625" lon="166.44517435692250728607177734375">
        <ele>818.20001220703125</ele>
        <time>2016-08-12T18:54:43.000Z</time>
        <extensions>
          <ns3:TrackPointExtension>
            <ns3:atemp>16.0</ns3:atemp>
            <ns3:hr>143</ns3:hr>
          </ns3:TrackPointExtension>
        </extensions>
      </trkpt>
      <trkpt lat="-22.074071578681468963623046875" lon="166.4451863430440425872802734375">
        <ele>818.5999755859375</ele>
        <time>2016-08-12T18:54:44.000Z</time>
        <extensions>
          <ns3:TrackPointExtension>
            <ns3:atemp>16.0</ns3:atemp>
            <ns3:hr>144</ns3:hr>
          </ns3:TrackPointExtension>
        </extensions>
      </trkpt>
      <trkpt lat="-22.07405473105609416961669921875" lon="166.44520469941198825836181640625">
        <ele>818.5999755859375</ele>
        <time>2016-08-12T18:54:45.000Z</time>
        <extensions>
          <ns3:TrackPointExtension>
            <ns3:atemp>16.0</ns3:atemp>
            <ns3:hr>143</ns3:hr>
          </ns3:TrackPointExtension>
        </extensions>
      </trkpt>
      <trkpt lat="-22.0740343630313873291015625" lon="166.44522364251315593719482421875">
        <ele>818.79998779296875</ele>
        <time>2016-08-12T18:54:46.000Z</time>
        <extensions>
          <ns3:TrackPointExtension>
            <ns3:atemp>16.0</ns3:atemp>
            <ns3:hr>144</ns3:hr>
          </ns3:TrackPointExtension>
        </extensions>
      </trkpt>
      <trkpt lat="-22.07401617430150508880615234375" lon="166.44522674381732940673828125">
        <ele>819</ele>
        <time>2016-08-12T18:54:47.000Z</time>
        <extensions>
          <ns3:TrackPointExtension>
            <ns3:atemp>16.0</ns3:atemp>
            <ns3:hr>144</ns3:hr>
          </ns3:TrackPointExtension>
        </extensions>
      </trkpt>
      <trkpt lat="-22.07399639301002025604248046875" lon="166.44523336552083492279052734375">
        <ele>819.20001220703125</ele>
        <time>2016-08-12T18:54:48.000Z</time>
        <extensions>
          <ns3:TrackPointExtension>
            <ns3:atemp>16.0</ns3:atemp>
            <ns3:hr>144</ns3:hr>
          </ns3:TrackPointExtension>
        </extensions>
      </trkpt>
      <trkpt lat="-22.0739775337278842926025390625" lon="166.44523789174854755401611328125">
        <ele>819.4000244140625</ele>
        <time>2016-08-12T18:54:49.000Z</time>
        <extensions>
          <ns3:TrackPointExtension>
            <ns3:atemp>16.0</ns3:atemp>
            <ns3:hr>144</ns3:hr>
          </ns3:TrackPointExtension>
        </extensions>
      </trkpt>
      <trkpt lat="-22.07395951263606548309326171875" lon="166.4452409930527210235595703125">
        <ele>819.5999755859375</ele>
        <time>2016-08-12T18:54:50.000Z</time>
        <extensions>
          <ns3:TrackPointExtension>
            <ns3:atemp>16.0</ns3:atemp>
            <ns3:hr>144</ns3:hr>
          </ns3:TrackPointExtension>
        </extensions>
      </trkpt>
      <trkpt lat="-22.07393839024007320404052734375" lon="166.44524862058460712432861328125">
        <ele>819.5999755859375</ele>
        <time>2016-08-12T18:54:51.000Z</time>
        <extensions>
          <ns3:TrackPointExtension>
            <ns3:atemp>16.0</ns3:atemp>
            <ns3:hr>144</ns3:hr>
          </ns3:TrackPointExtension>
        </extensions>
      </trkpt>
      <trkpt lat="-22.0739178545773029327392578125" lon="166.4452569186687469482421875">
        <ele>819.79998779296875</ele>
        <time>2016-08-12T18:54:52.000Z</time>
        <extensions>
          <ns3:TrackPointExtension>
            <ns3:atemp>16.0</ns3:atemp>
            <ns3:hr>144</ns3:hr>
          </ns3:TrackPointExtension>
        </extensions>
      </trkpt>
      <trkpt lat="-22.07389983348548412322998046875" lon="166.4452708326280117034912109375">
        <ele>820</ele>
        <time>2016-08-12T18:54:53.000Z</time>
        <extensions>
          <ns3:TrackPointExtension>
            <ns3:atemp>16.0</ns3:atemp>
            <ns3:hr>144</ns3:hr>
          </ns3:TrackPointExtension>
        </extensions>
      </trkpt>
      <trkpt lat="-22.07387887872755527496337890625" lon="166.4452892728149890899658203125">
        <ele>820</ele>
        <time>2016-08-12T18:54:54.000Z</time>
        <extensions>
          <ns3:TrackPointExtension>
            <ns3:atemp>16.0</ns3:atemp>
            <ns3:hr>144</ns3:hr>
          </ns3:TrackPointExtension>
        </extensions>
      </trkpt>
      <trkpt lat="-22.0738591812551021575927734375" lon="166.445298157632350921630859375">
        <ele>820.20001220703125</ele>
        <time>2016-08-12T18:54:55.000Z</time>
        <extensions>
          <ns3:TrackPointExtension>
            <ns3:atemp>16.0</ns3:atemp>
            <ns3:hr>144</ns3:hr>
          </ns3:TrackPointExtension>
        </extensions>
      </trkpt>
      <trkpt lat="-22.0738397352397441864013671875" lon="166.44530427642166614532470703125">
        <ele>820.20001220703125</ele>
        <time>2016-08-12T18:54:56.000Z</time>
        <extensions>
          <ns3:TrackPointExtension>
            <ns3:atemp>16.0</ns3:atemp>
            <ns3:hr>145</ns3:hr>
          </ns3:TrackPointExtension>
        </extensions>
      </trkpt>
      <trkpt lat="-22.073821127414703369140625" lon="166.44530695863068103790283203125">
        <ele>820.20001220703125</ele>
        <time>2016-08-12T18:54:57.000Z</time>
        <extensions>
          <ns3:TrackPointExtension>
            <ns3:atemp>16.0</ns3:atemp>
            <ns3:hr>144</ns3:hr>
          </ns3:TrackPointExtension>
        </extensions>
      </trkpt>
      <trkpt lat="-22.07380243577063083648681640625" lon="166.4453073777258396148681640625">
        <ele>820.4000244140625</ele>
        <time>2016-08-12T18:54:58.000Z</time>
        <extensions>
          <ns3:TrackPointExtension>
            <ns3:atemp>16.0</ns3:atemp>
            <ns3:hr>144</ns3:hr>
          </ns3:TrackPointExtension>
        </extensions>
      </trkpt>
      <trkpt lat="-22.0737810619175434112548828125" lon="166.4453087188303470611572265625">
        <ele>820.4000244140625</ele>
        <time>2016-08-12T18:54:59.000Z</time>
        <extensions>
          <ns3:TrackPointExtension>
            <ns3:atemp>16.0</ns3:atemp>
            <ns3:hr>145</ns3:hr>
          </ns3:TrackPointExtension>
        </extensions>
      </trkpt>
      <trkpt lat="-22.07375801168382167816162109375" lon="166.445308886468410491943359375">
        <ele>820.4000244140625</ele>
        <time>2016-08-12T18:55:00.000Z</time>
        <extensions>
          <ns3:TrackPointExtension>
            <ns3:atemp>16.0</ns3:atemp>
            <ns3:hr>145</ns3:hr>
          </ns3:TrackPointExtension>
        </extensions>
      </trkpt>
      <trkpt lat="-22.07373588345944881439208984375" lon="166.4453090541064739227294921875">
        <ele>820.5999755859375</ele>
        <time>2016-08-12T18:55:01.000Z</time>
        <extensions>
          <ns3:TrackPointExtension>
            <ns3:atemp>16.0</ns3:atemp>
            <ns3:hr>144</ns3:hr>
          </ns3:TrackPointExtension>
        </extensions>
      </trkpt>
      <trkpt lat="-22.07371585071086883544921875" lon="166.4453127421438694000244140625">
        <ele>820.79998779296875</ele>
        <time>2016-08-12T18:55:02.000Z</time>
        <extensions>
          <ns3:TrackPointExtension>
            <ns3:atemp>16.0</ns3:atemp>
            <ns3:hr>145</ns3:hr>
          </ns3:TrackPointExtension>
        </extensions>
      </trkpt>
      <trkpt lat="-22.073699422180652618408203125" lon="166.44532062113285064697265625">
        <ele>820.79998779296875</ele>
        <time>2016-08-12T18:55:03.000Z</time>
        <extensions>
          <ns3:TrackPointExtension>
            <ns3:atemp>16.0</ns3:atemp>
            <ns3:hr>144</ns3:hr>
          </ns3:TrackPointExtension>
        </extensions>
      </trkpt>
      <trkpt lat="-22.0736845023930072784423828125" lon="166.44533394835889339447021484375">
        <ele>821</ele>
        <time>2016-08-12T18:55:04.000Z</time>
        <extensions>
          <ns3:TrackPointExtension>
            <ns3:atemp>16.0</ns3:atemp>
            <ns3:hr>144</ns3:hr>
          </ns3:TrackPointExtension>
        </extensions>
      </trkpt>
      <trkpt lat="-22.07366933114826679229736328125" lon="166.44534551538527011871337890625">
        <ele>821</ele>
        <time>2016-08-12T18:55:05.000Z</time>
        <extensions>
          <ns3:TrackPointExtension>
            <ns3:atemp>16.0</ns3:atemp>
            <ns3:hr>144</ns3:hr>
          </ns3:TrackPointExtension>
        </extensions>
      </trkpt>
      <trkpt lat="-22.07365390844643115997314453125" lon="166.44535825587809085845947265625">
        <ele>821</ele>
        <time>2016-08-12T18:55:06.000Z</time>
        <extensions>
          <ns3:TrackPointExtension>
            <ns3:atemp>16.0</ns3:atemp>
            <ns3:hr>145</ns3:hr>
          </ns3:TrackPointExtension>
        </extensions>
      </trkpt>
      <trkpt lat="-22.07364401780068874359130859375" lon="166.4453694038093090057373046875">
        <ele>821.20001220703125</ele>
        <time>2016-08-12T18:55:07.000Z</time>
        <extensions>
          <ns3:TrackPointExtension>
            <ns3:atemp>16.0</ns3:atemp>
            <ns3:hr>145</ns3:hr>
          </ns3:TrackPointExtension>
        </extensions>
      </trkpt>
      <trkpt lat="-22.07363144494593143463134765625" lon="166.44538633525371551513671875">
        <ele>821</ele>
        <time>2016-08-12T18:55:08.000Z</time>
        <extensions>
          <ns3:TrackPointExtension>
            <ns3:atemp>16.0</ns3:atemp>
            <ns3:hr>144</ns3:hr>
          </ns3:TrackPointExtension>
        </extensions>
      </trkpt>
      <trkpt lat="-22.073612920939922332763671875" lon="166.445400416851043701171875">
        <ele>821</ele>
        <time>2016-08-12T18:55:09.000Z</time>
        <extensions>
          <ns3:TrackPointExtension>
            <ns3:atemp>16.0</ns3:atemp>
            <ns3:hr>144</ns3:hr>
          </ns3:TrackPointExtension>
        </extensions>
      </trkpt>
      <trkpt lat="-22.07359640859067440032958984375" lon="166.4454106427729129791259765625">
        <ele>821.20001220703125</ele>
        <time>2016-08-12T18:55:10.000Z</time>
        <extensions>
          <ns3:TrackPointExtension>
            <ns3:atemp>16.0</ns3:atemp>
            <ns3:hr>145</ns3:hr>
          </ns3:TrackPointExtension>
        </extensions>
      </trkpt>
      <trkpt lat="-22.073579393327236175537109375" lon="166.44542078487575054168701171875">
        <ele>821.20001220703125</ele>
        <time>2016-08-12T18:55:11.000Z</time>
        <extensions>
          <ns3:TrackPointExtension>
            <ns3:atemp>16.0</ns3:atemp>
            <ns3:hr>144</ns3:hr>
          </ns3:TrackPointExtension>
        </extensions>
      </trkpt>
      <trkpt lat="-22.07356237806379795074462890625" lon="166.4454304240643978118896484375">
        <ele>821.20001220703125</ele>
        <time>2016-08-12T18:55:12.000Z</time>
        <extensions>
          <ns3:TrackPointExtension>
            <ns3:atemp>16.0</ns3:atemp>
            <ns3:hr>144</ns3:hr>
          </ns3:TrackPointExtension>
        </extensions>
      </trkpt>
      <trkpt lat="-22.0735456980764865875244140625" lon="166.4454391412436962127685546875">
        <ele>821.4000244140625</ele>
        <time>2016-08-12T18:55:13.000Z</time>
        <extensions>
          <ns3:TrackPointExtension>
            <ns3:atemp>16.0</ns3:atemp>
            <ns3:hr>144</ns3:hr>
          </ns3:TrackPointExtension>
        </extensions>
      </trkpt>
      <trkpt lat="-22.073527760803699493408203125" lon="166.44544844515621662139892578125">
        <ele>821.5999755859375</ele>
        <time>2016-08-12T18:55:14.000Z</time>
        <extensions>
          <ns3:TrackPointExtension>
            <ns3:atemp>16.0</ns3:atemp>
            <ns3:hr>143</ns3:hr>
          </ns3:TrackPointExtension>
        </extensions>
      </trkpt>
      <trkpt lat="-22.07350990734994411468505859375" lon="166.44545431248843669891357421875">
        <ele>821.5999755859375</ele>
        <time>2016-08-12T18:55:15.000Z</time>
        <extensions>
          <ns3:TrackPointExtension>
            <ns3:atemp>16.0</ns3:atemp>
            <ns3:hr>143</ns3:hr>
          </ns3:TrackPointExtension>
        </extensions>
      </trkpt>
      <trkpt lat="-22.07349725067615509033203125" lon="166.4454612694680690765380859375">
        <ele>821.79998779296875</ele>
        <time>2016-08-12T18:55:16.000Z</time>
        <extensions>
          <ns3:TrackPointExtension>
            <ns3:atemp>16.0</ns3:atemp>
            <ns3:hr>143</ns3:hr>
          </ns3:TrackPointExtension>
        </extensions>
      </trkpt>
      <trkpt lat="-22.073477469384670257568359375" lon="166.44547040574252605438232421875">
        <ele>821.79998779296875</ele>
        <time>2016-08-12T18:55:17.000Z</time>
        <extensions>
          <ns3:TrackPointExtension>
            <ns3:atemp>16.0</ns3:atemp>
            <ns3:hr>143</ns3:hr>
          </ns3:TrackPointExtension>
        </extensions>
      </trkpt>
      <trkpt lat="-22.07345827482640743255615234375" lon="166.44547845236957073211669921875">
        <ele>821.79998779296875</ele>
        <time>2016-08-12T18:55:18.000Z</time>
        <extensions>
          <ns3:TrackPointExtension>
            <ns3:atemp>16.0</ns3:atemp>
            <ns3:hr>142</ns3:hr>
          </ns3:TrackPointExtension>
        </extensions>
      </trkpt>
      <trkpt lat="-22.07343815825879573822021484375" lon="166.445483230054378509521484375">
        <ele>822</ele>
        <time>2016-08-12T18:55:19.000Z</time>
        <extensions>
          <ns3:TrackPointExtension>
            <ns3:atemp>16.0</ns3:atemp>
            <ns3:hr>142</ns3:hr>
          </ns3:TrackPointExtension>
        </extensions>
      </trkpt>
      <trkpt lat="-22.0733089931309223175048828125" lon="166.44564776681363582611083984375">
        <ele>823</ele>
        <time>2016-08-12T18:55:30.000Z</time>
        <extensions>
          <ns3:TrackPointExtension>
            <ns3:atemp>16.0</ns3:atemp>
            <ns3:hr>140</ns3:hr>
          </ns3:TrackPointExtension>
        </extensions>
      </trkpt>
      <trkpt lat="-22.07321670837700366973876953125" lon="166.445804424583911895751953125">
        <ele>824.20001220703125</ele>
        <time>2016-08-12T18:55:38.000Z</time>
        <extensions>
          <ns3:TrackPointExtension>
            <ns3:atemp>16.0</ns3:atemp>
            <ns3:hr>139</ns3:hr>
          </ns3:TrackPointExtension>
        </extensions>
      </trkpt>
      <trkpt lat="-22.073200531303882598876953125" lon="166.4458263851702213287353515625">
        <ele>824.4000244140625</ele>
        <time>2016-08-12T18:55:39.000Z</time>
        <extensions>
          <ns3:TrackPointExtension>
            <ns3:atemp>16.0</ns3:atemp>
            <ns3:hr>139</ns3:hr>
          </ns3:TrackPointExtension>
        </extensions>
      </trkpt>
      <trkpt lat="-22.07319013774394989013671875" lon="166.4458495192229747772216796875">
        <ele>824.79998779296875</ele>
        <time>2016-08-12T18:55:40.000Z</time>
        <extensions>
          <ns3:TrackPointExtension>
            <ns3:atemp>16.0</ns3:atemp>
            <ns3:hr>138</ns3:hr>
          </ns3:TrackPointExtension>
        </extensions>
      </trkpt>
      <trkpt lat="-22.07318536005914211273193359375" lon="166.44586913287639617919921875">
        <ele>824.79998779296875</ele>
        <time>2016-08-12T18:55:41.000Z</time>
        <extensions>
          <ns3:TrackPointExtension>
            <ns3:atemp>16.0</ns3:atemp>
            <ns3:hr>138</ns3:hr>
          </ns3:TrackPointExtension>
        </extensions>
      </trkpt>
      <trkpt lat="-22.0731787383556365966796875" lon="166.445883214473724365234375">
        <ele>825</ele>
        <time>2016-08-12T18:55:42.000Z</time>
        <extensions>
          <ns3:TrackPointExtension>
            <ns3:atemp>16.0</ns3:atemp>
            <ns3:hr>139</ns3:hr>
          </ns3:TrackPointExtension>
        </extensions>
      </trkpt>
      <trkpt lat="-22.0731631480157375335693359375" lon="166.44589905627071857452392578125">
        <ele>825.20001220703125</ele>
        <time>2016-08-12T18:55:43.000Z</time>
        <extensions>
          <ns3:TrackPointExtension>
            <ns3:atemp>16.0</ns3:atemp>
            <ns3:hr>138</ns3:hr>
          </ns3:TrackPointExtension>
        </extensions>
      </trkpt>
      <trkpt lat="-22.073148898780345916748046875" lon="166.44591766409575939178466796875">
        <ele>825.20001220703125</ele>
        <time>2016-08-12T18:55:44.000Z</time>
        <extensions>
          <ns3:TrackPointExtension>
            <ns3:atemp>16.0</ns3:atemp>
            <ns3:hr>138</ns3:hr>
          </ns3:TrackPointExtension>
        </extensions>
      </trkpt>
      <trkpt lat="-22.07313909195363521575927734375" lon="166.44593350589275360107421875">
        <ele>825.4000244140625</ele>
        <time>2016-08-12T18:55:45.000Z</time>
        <extensions>
          <ns3:TrackPointExtension>
            <ns3:atemp>16.0</ns3:atemp>
            <ns3:hr>138</ns3:hr>
          </ns3:TrackPointExtension>
        </extensions>
      </trkpt>
      <trkpt lat="-22.07313674502074718475341796875" lon="166.4459460787475109100341796875">
        <ele>825.5999755859375</ele>
        <time>2016-08-12T18:55:46.000Z</time>
        <extensions>
          <ns3:TrackPointExtension>
            <ns3:atemp>16.0</ns3:atemp>
            <ns3:hr>137</ns3:hr>
          </ns3:TrackPointExtension>
        </extensions>
      </trkpt>
      <trkpt lat="-22.07312936894595623016357421875" lon="166.4459677040576934814453125">
        <ele>825.5999755859375</ele>
        <time>2016-08-12T18:55:47.000Z</time>
        <extensions>
          <ns3:TrackPointExtension>
            <ns3:atemp>16.0</ns3:atemp>
            <ns3:hr>136</ns3:hr>
          </ns3:TrackPointExtension>
        </extensions>
      </trkpt>
      <trkpt lat="-22.073122747242450714111328125" lon="166.44598337821662425994873046875">
        <ele>826</ele>
        <time>2016-08-12T18:55:48.000Z</time>
        <extensions>
          <ns3:TrackPointExtension>
            <ns3:atemp>16.0</ns3:atemp>
            <ns3:hr>135</ns3:hr>
          </ns3:TrackPointExtension>
        </extensions>
      </trkpt>
      <trkpt lat="-22.07311394624412059783935546875" lon="166.44600148312747478485107421875">
        <ele>826.20001220703125</ele>
        <time>2016-08-12T18:55:49.000Z</time>
        <extensions>
          <ns3:TrackPointExtension>
            <ns3:atemp>16.0</ns3:atemp>
            <ns3:hr>135</ns3:hr>
          </ns3:TrackPointExtension>
        </extensions>
      </trkpt>
      <trkpt lat="-22.0731048099696636199951171875" lon="166.44602310843765735626220703125">
        <ele>826.20001220703125</ele>
        <time>2016-08-12T18:55:50.000Z</time>
        <extensions>
          <ns3:TrackPointExtension>
            <ns3:atemp>16.0</ns3:atemp>
            <ns3:hr>135</ns3:hr>
          </ns3:TrackPointExtension>
        </extensions>
      </trkpt>
      <trkpt lat="-22.07310070283710956573486328125" lon="166.4460419677197933197021484375">
        <ele>826.4000244140625</ele>
        <time>2016-08-12T18:55:51.000Z</time>
        <extensions>
          <ns3:TrackPointExtension>
            <ns3:atemp>16.0</ns3:atemp>
            <ns3:hr>135</ns3:hr>
          </ns3:TrackPointExtension>
        </extensions>
      </trkpt>
      <trkpt lat="-22.07308930344879627227783203125" lon="166.4460588991641998291015625">
        <ele>826.79998779296875</ele>
        <time>2016-08-12T18:55:52.000Z</time>
        <extensions>
          <ns3:TrackPointExtension>
            <ns3:atemp>16.0</ns3:atemp>
            <ns3:hr>135</ns3:hr>
          </ns3:TrackPointExtension>
        </extensions>
      </trkpt>
      <trkpt lat="-22.07307673059403896331787109375" lon="166.44607876427471637725830078125">
        <ele>827.20001220703125</ele>
        <time>2016-08-12T18:55:53.000Z</time>
        <extensions>
          <ns3:TrackPointExtension>
            <ns3:atemp>16.0</ns3:atemp>
            <ns3:hr>135</ns3:hr>
          </ns3:TrackPointExtension>
        </extensions>
      </trkpt>
      <trkpt lat="-22.0730686001479625701904296875" lon="166.4460949413478374481201171875">
        <ele>827.4000244140625</ele>
        <time>2016-08-12T18:55:54.000Z</time>
        <extensions>
          <ns3:TrackPointExtension>
            <ns3:atemp>16.0</ns3:atemp>
            <ns3:hr>135</ns3:hr>
          </ns3:TrackPointExtension>
        </extensions>
      </trkpt>
      <trkpt lat="-22.0730605535209178924560546875" lon="166.44611011259257793426513671875">
        <ele>827.79998779296875</ele>
        <time>2016-08-12T18:55:55.000Z</time>
        <extensions>
          <ns3:TrackPointExtension>
            <ns3:atemp>16.0</ns3:atemp>
            <ns3:hr>136</ns3:hr>
          </ns3:TrackPointExtension>
        </extensions>
      </trkpt>
      <trkpt lat="-22.07305091433227062225341796875" lon="166.4461286365985870361328125">
        <ele>828.20001220703125</ele>
        <time>2016-08-12T18:55:56.000Z</time>
        <extensions>
          <ns3:TrackPointExtension>
            <ns3:atemp>16.0</ns3:atemp>
            <ns3:hr>136</ns3:hr>
          </ns3:TrackPointExtension>
        </extensions>
      </trkpt>
      <trkpt lat="-22.07304387353360652923583984375" lon="166.4461465738713741302490234375">
        <ele>828.20001220703125</ele>
        <time>2016-08-12T18:55:57.000Z</time>
        <extensions>
          <ns3:TrackPointExtension>
            <ns3:atemp>16.0</ns3:atemp>
            <ns3:hr>136</ns3:hr>
          </ns3:TrackPointExtension>
        </extensions>
      </trkpt>
      <trkpt lat="-22.07304152660071849822998046875" lon="166.4461626671254634857177734375">
        <ele>828.4000244140625</ele>
        <time>2016-08-12T18:55:58.000Z</time>
        <extensions>
          <ns3:TrackPointExtension>
            <ns3:atemp>16.0</ns3:atemp>
            <ns3:hr>136</ns3:hr>
          </ns3:TrackPointExtension>
        </extensions>
      </trkpt>
      <trkpt lat="-22.07303834147751331329345703125" lon="166.44618018530309200286865234375">
        <ele>828.4000244140625</ele>
        <time>2016-08-12T18:55:59.000Z</time>
        <extensions>
          <ns3:TrackPointExtension>
            <ns3:atemp>16.0</ns3:atemp>
            <ns3:hr>137</ns3:hr>
          </ns3:TrackPointExtension>
        </extensions>
      </trkpt>
      <trkpt lat="-22.0730323903262615203857421875" lon="166.44620046950876712799072265625">
        <ele>828.5999755859375</ele>
        <time>2016-08-12T18:56:00.000Z</time>
        <extensions>
          <ns3:TrackPointExtension>
            <ns3:atemp>16.0</ns3:atemp>
            <ns3:hr>136</ns3:hr>
          </ns3:TrackPointExtension>
        </extensions>
      </trkpt>
      <trkpt lat="-22.0730303786695003509521484375" lon="166.4462196640670299530029296875">
        <ele>828.79998779296875</ele>
        <time>2016-08-12T18:56:01.000Z</time>
        <extensions>
          <ns3:TrackPointExtension>
            <ns3:atemp>16.0</ns3:atemp>
            <ns3:hr>137</ns3:hr>
          </ns3:TrackPointExtension>
        </extensions>
      </trkpt>
      <trkpt lat="-22.0730300433933734893798828125" lon="166.4462404511868953704833984375">
        <ele>828.79998779296875</ele>
        <time>2016-08-12T18:56:02.000Z</time>
        <extensions>
          <ns3:TrackPointExtension>
            <ns3:atemp>16.0</ns3:atemp>
            <ns3:hr>137</ns3:hr>
          </ns3:TrackPointExtension>
        </extensions>
      </trkpt>
      <trkpt lat="-22.07302560098469257354736328125" lon="166.44626475870609283447265625">
        <ele>829</ele>
        <time>2016-08-12T18:56:03.000Z</time>
        <extensions>
          <ns3:TrackPointExtension>
            <ns3:atemp>16.0</ns3:atemp>
            <ns3:hr>137</ns3:hr>
          </ns3:TrackPointExtension>
        </extensions>
      </trkpt>
      <trkpt lat="-22.07302157767117023468017578125" lon="166.446287892758846282958984375">
        <ele>829.20001220703125</ele>
        <time>2016-08-12T18:56:04.000Z</time>
        <extensions>
          <ns3:TrackPointExtension>
            <ns3:atemp>16.0</ns3:atemp>
            <ns3:hr>137</ns3:hr>
          </ns3:TrackPointExtension>
        </extensions>
      </trkpt>
      <trkpt lat="-22.0730216614902019500732421875" lon="166.4463122002780437469482421875">
        <ele>829.4000244140625</ele>
        <time>2016-08-12T18:56:05.000Z</time>
        <extensions>
          <ns3:TrackPointExtension>
            <ns3:atemp>16.0</ns3:atemp>
            <ns3:hr>137</ns3:hr>
          </ns3:TrackPointExtension>
        </extensions>
      </trkpt>
      <trkpt lat="-22.07302258349955081939697265625" lon="166.44633659161627292633056640625">
        <ele>829.5999755859375</ele>
        <time>2016-08-12T18:56:06.000Z</time>
        <extensions>
          <ns3:TrackPointExtension>
            <ns3:atemp>16.0</ns3:atemp>
            <ns3:hr>137</ns3:hr>
          </ns3:TrackPointExtension>
        </extensions>
      </trkpt>
      <trkpt lat="-22.07303247414529323577880859375" lon="166.446356289088726043701171875">
        <ele>829.79998779296875</ele>
        <time>2016-08-12T18:56:07.000Z</time>
        <extensions>
          <ns3:TrackPointExtension>
            <ns3:atemp>16.0</ns3:atemp>
            <ns3:hr>137</ns3:hr>
          </ns3:TrackPointExtension>
        </extensions>
      </trkpt>
      <trkpt lat="-22.0730390958487987518310546875" lon="166.44638143479824066162109375">
        <ele>829.79998779296875</ele>
        <time>2016-08-12T18:56:08.000Z</time>
        <extensions>
          <ns3:TrackPointExtension>
            <ns3:atemp>16.0</ns3:atemp>
            <ns3:hr>137</ns3:hr>
          </ns3:TrackPointExtension>
        </extensions>
      </trkpt>
      <trkpt lat="-22.07304119132459163665771484375" lon="166.4464033953845500946044921875">
        <ele>830</ele>
        <time>2016-08-12T18:56:09.000Z</time>
        <extensions>
          <ns3:TrackPointExtension>
            <ns3:atemp>16.0</ns3:atemp>
            <ns3:hr>138</ns3:hr>
          </ns3:TrackPointExtension>
        </extensions>
      </trkpt>
      <trkpt lat="-22.0730404369533061981201171875" lon="166.44642460159957408905029296875">
        <ele>830.4000244140625</ele>
        <time>2016-08-12T18:56:10.000Z</time>
        <extensions>
          <ns3:TrackPointExtension>
            <ns3:atemp>16.0</ns3:atemp>
            <ns3:hr>137</ns3:hr>
          </ns3:TrackPointExtension>
        </extensions>
      </trkpt>
      <trkpt lat="-22.0730397664010524749755859375" lon="166.44644672982394695281982421875">
        <ele>830.4000244140625</ele>
        <time>2016-08-12T18:56:11.000Z</time>
        <extensions>
          <ns3:TrackPointExtension>
            <ns3:atemp>16.0</ns3:atemp>
            <ns3:hr>138</ns3:hr>
          </ns3:TrackPointExtension>
        </extensions>
      </trkpt>
      <trkpt lat="-22.07304001785814762115478515625" lon="166.446465589106082916259765625">
        <ele>830.5999755859375</ele>
        <time>2016-08-12T18:56:12.000Z</time>
        <extensions>
          <ns3:TrackPointExtension>
            <ns3:atemp>16.0</ns3:atemp>
            <ns3:hr>138</ns3:hr>
          </ns3:TrackPointExtension>
        </extensions>
      </trkpt>
      <trkpt lat="-22.07303800620138645172119140625" lon="166.446484364569187164306640625">
        <ele>830.79998779296875</ele>
        <time>2016-08-12T18:56:13.000Z</time>
        <extensions>
          <ns3:TrackPointExtension>
            <ns3:atemp>16.0</ns3:atemp>
            <ns3:hr>138</ns3:hr>
          </ns3:TrackPointExtension>
        </extensions>
      </trkpt>
      <trkpt lat="-22.073034234344959259033203125" lon="166.44650506787002086639404296875">
        <ele>830.79998779296875</ele>
        <time>2016-08-12T18:56:14.000Z</time>
        <extensions>
          <ns3:TrackPointExtension>
            <ns3:atemp>16.0</ns3:atemp>
            <ns3:hr>138</ns3:hr>
          </ns3:TrackPointExtension>
        </extensions>
      </trkpt>
      <trkpt lat="-22.07302526570856571197509765625" lon="166.446525268256664276123046875">
        <ele>831</ele>
        <time>2016-08-12T18:56:15.000Z</time>
        <extensions>
          <ns3:TrackPointExtension>
            <ns3:atemp>16.0</ns3:atemp>
            <ns3:hr>138</ns3:hr>
          </ns3:TrackPointExtension>
        </extensions>
      </trkpt>
      <trkpt lat="-22.07301436923444271087646484375" lon="166.446544714272022247314453125">
        <ele>831.4000244140625</ele>
        <time>2016-08-12T18:56:16.000Z</time>
        <extensions>
          <ns3:TrackPointExtension>
            <ns3:atemp>16.0</ns3:atemp>
            <ns3:hr>139</ns3:hr>
          </ns3:TrackPointExtension>
        </extensions>
      </trkpt>
      <trkpt lat="-22.07300104200839996337890625" lon="166.446562148630619049072265625">
        <ele>831.5999755859375</ele>
        <time>2016-08-12T18:56:17.000Z</time>
        <extensions>
          <ns3:TrackPointExtension>
            <ns3:atemp>16.0</ns3:atemp>
            <ns3:hr>139</ns3:hr>
          </ns3:TrackPointExtension>
        </extensions>
      </trkpt>
      <trkpt lat="-22.07298821769654750823974609375" lon="166.44657396711409091949462890625">
        <ele>831.79998779296875</ele>
        <time>2016-08-12T18:56:18.000Z</time>
        <extensions>
          <ns3:TrackPointExtension>
            <ns3:atemp>16.0</ns3:atemp>
            <ns3:hr>139</ns3:hr>
          </ns3:TrackPointExtension>
        </extensions>
      </trkpt>
      <trkpt lat="-22.072977237403392791748046875" lon="166.44658394157886505126953125">
        <ele>832.20001220703125</ele>
        <time>2016-08-12T18:56:19.000Z</time>
        <extensions>
          <ns3:TrackPointExtension>
            <ns3:atemp>16.0</ns3:atemp>
            <ns3:hr>139</ns3:hr>
          </ns3:TrackPointExtension>
        </extensions>
      </trkpt>
      <trkpt lat="-22.0729673467576503753662109375" lon="166.44659492187201976776123046875">
        <ele>832.4000244140625</ele>
        <time>2016-08-12T18:56:20.000Z</time>
        <extensions>
          <ns3:TrackPointExtension>
            <ns3:atemp>16.0</ns3:atemp>
            <ns3:hr>139</ns3:hr>
          </ns3:TrackPointExtension>
        </extensions>
      </trkpt>
      <trkpt lat="-22.07295100204646587371826171875" lon="166.4466018788516521453857421875">
        <ele>832.4000244140625</ele>
        <time>2016-08-12T18:56:21.000Z</time>
        <extensions>
          <ns3:TrackPointExtension>
            <ns3:atemp>16.0</ns3:atemp>
            <ns3:hr>140</ns3:hr>
          </ns3:TrackPointExtension>
        </extensions>
      </trkpt>
      <trkpt lat="-22.07293239422142505645751953125" lon="166.44660942256450653076171875">
        <ele>832.5999755859375</ele>
        <time>2016-08-12T18:56:22.000Z</time>
        <extensions>
          <ns3:TrackPointExtension>
            <ns3:atemp>16.0</ns3:atemp>
            <ns3:hr>140</ns3:hr>
          </ns3:TrackPointExtension>
        </extensions>
      </trkpt>
      <trkpt lat="-22.07291630096733570098876953125" lon="166.446615792810916900634765625">
        <ele>832.79998779296875</ele>
        <time>2016-08-12T18:56:23.000Z</time>
        <extensions>
          <ns3:TrackPointExtension>
            <ns3:atemp>16.0</ns3:atemp>
            <ns3:hr>140</ns3:hr>
          </ns3:TrackPointExtension>
        </extensions>
      </trkpt>
      <trkpt lat="-22.07290322519838809967041015625" lon="166.44662157632410526275634765625">
        <ele>832.79998779296875</ele>
        <time>2016-08-12T18:56:24.000Z</time>
        <extensions>
          <ns3:TrackPointExtension>
            <ns3:atemp>16.0</ns3:atemp>
            <ns3:hr>140</ns3:hr>
          </ns3:TrackPointExtension>
        </extensions>
      </trkpt>
      <trkpt lat="-22.072888724505901336669921875" lon="166.44662694074213504791259765625">
        <ele>833</ele>
        <time>2016-08-12T18:56:25.000Z</time>
        <extensions>
          <ns3:TrackPointExtension>
            <ns3:atemp>16.0</ns3:atemp>
            <ns3:hr>140</ns3:hr>
          </ns3:TrackPointExtension>
        </extensions>
      </trkpt>
      <trkpt lat="-22.07287489436566829681396484375" lon="166.44663113169372081756591796875">
        <ele>833.20001220703125</ele>
        <time>2016-08-12T18:56:26.000Z</time>
        <extensions>
          <ns3:TrackPointExtension>
            <ns3:atemp>16.0</ns3:atemp>
            <ns3:hr>140</ns3:hr>
          </ns3:TrackPointExtension>
        </extensions>
      </trkpt>
      <trkpt lat="-22.0728595554828643798828125" lon="166.4466374181210994720458984375">
        <ele>833.20001220703125</ele>
        <time>2016-08-12T18:56:27.000Z</time>
        <extensions>
          <ns3:TrackPointExtension>
            <ns3:atemp>16.0</ns3:atemp>
            <ns3:hr>141</ns3:hr>
          </ns3:TrackPointExtension>
        </extensions>
      </trkpt>
      <trkpt lat="-22.072842456400394439697265625" lon="166.446646638214588165283203125">
        <ele>833.5999755859375</ele>
        <time>2016-08-12T18:56:28.000Z</time>
        <extensions>
          <ns3:TrackPointExtension>
            <ns3:atemp>16.0</ns3:atemp>
            <ns3:hr>141</ns3:hr>
          </ns3:TrackPointExtension>
        </extensions>
      </trkpt>
      <trkpt lat="-22.07282410003244876861572265625" lon="166.4466605521738529205322265625">
        <ele>833.79998779296875</ele>
        <time>2016-08-12T18:56:29.000Z</time>
        <extensions>
          <ns3:TrackPointExtension>
            <ns3:atemp>16.0</ns3:atemp>
            <ns3:hr>141</ns3:hr>
          </ns3:TrackPointExtension>
        </extensions>
      </trkpt>
      <trkpt lat="-22.07280884496867656707763671875" lon="166.4466732926666736602783203125">
        <ele>833.79998779296875</ele>
        <time>2016-08-12T18:56:30.000Z</time>
        <extensions>
          <ns3:TrackPointExtension>
            <ns3:atemp>16.0</ns3:atemp>
            <ns3:hr>141</ns3:hr>
          </ns3:TrackPointExtension>
        </extensions>
      </trkpt>
      <trkpt lat="-22.07279442809522151947021484375" lon="166.44668997265398502349853515625">
        <ele>834.20001220703125</ele>
        <time>2016-08-12T18:56:31.000Z</time>
        <extensions>
          <ns3:TrackPointExtension>
            <ns3:atemp>16.0</ns3:atemp>
            <ns3:hr>141</ns3:hr>
          </ns3:TrackPointExtension>
        </extensions>
      </trkpt>
      <trkpt lat="-22.07277699373662471771240234375" lon="166.44670598208904266357421875">
        <ele>834.5999755859375</ele>
        <time>2016-08-12T18:56:32.000Z</time>
        <extensions>
          <ns3:TrackPointExtension>
            <ns3:atemp>16.0</ns3:atemp>
            <ns3:hr>142</ns3:hr>
          </ns3:TrackPointExtension>
        </extensions>
      </trkpt>
      <trkpt lat="-22.07276408560574054718017578125" lon="166.44672115333378314971923828125">
        <ele>834.5999755859375</ele>
        <time>2016-08-12T18:56:33.000Z</time>
        <extensions>
          <ns3:TrackPointExtension>
            <ns3:atemp>16.0</ns3:atemp>
            <ns3:hr>142</ns3:hr>
          </ns3:TrackPointExtension>
        </extensions>
      </trkpt>
      <trkpt lat="-22.07275369204580783843994140625" lon="166.44673473201692104339599609375">
        <ele>834.79998779296875</ele>
        <time>2016-08-12T18:56:34.000Z</time>
        <extensions>
          <ns3:TrackPointExtension>
            <ns3:atemp>16.0</ns3:atemp>
            <ns3:hr>142</ns3:hr>
          </ns3:TrackPointExtension>
        </extensions>
      </trkpt>
      <trkpt lat="-22.07274145446717739105224609375" lon="166.4467437006533145904541015625">
        <ele>835.4000244140625</ele>
        <time>2016-08-12T18:56:35.000Z</time>
        <extensions>
          <ns3:TrackPointExtension>
            <ns3:atemp>16.0</ns3:atemp>
            <ns3:hr>142</ns3:hr>
          </ns3:TrackPointExtension>
        </extensions>
      </trkpt>
      <trkpt lat="-22.07272603176534175872802734375" lon="166.4467557705938816070556640625">
        <ele>835.4000244140625</ele>
        <time>2016-08-12T18:56:36.000Z</time>
        <extensions>
          <ns3:TrackPointExtension>
            <ns3:atemp>16.0</ns3:atemp>
            <ns3:hr>143</ns3:hr>
          </ns3:TrackPointExtension>
        </extensions>
      </trkpt>
      <trkpt lat="-22.0727105252444744110107421875" lon="166.44676390103995800018310546875">
        <ele>835.5999755859375</ele>
        <time>2016-08-12T18:56:37.000Z</time>
        <extensions>
          <ns3:TrackPointExtension>
            <ns3:atemp>16.0</ns3:atemp>
            <ns3:hr>143</ns3:hr>
          </ns3:TrackPointExtension>
        </extensions>
      </trkpt>
      <trkpt lat="-22.072694934904575347900390625" lon="166.44676608033478260040283203125">
        <ele>835.79998779296875</ele>
        <time>2016-08-12T18:56:38.000Z</time>
        <extensions>
          <ns3:TrackPointExtension>
            <ns3:atemp>16.0</ns3:atemp>
            <ns3:hr>143</ns3:hr>
          </ns3:TrackPointExtension>
        </extensions>
      </trkpt>
      <trkpt lat="-22.0726766623556613922119140625" lon="166.44676767289638519287109375">
        <ele>836</ele>
        <time>2016-08-12T18:56:39.000Z</time>
        <extensions>
          <ns3:TrackPointExtension>
            <ns3:atemp>16.0</ns3:atemp>
            <ns3:hr>144</ns3:hr>
          </ns3:TrackPointExtension>
        </extensions>
      </trkpt>
      <trkpt lat="-22.072655372321605682373046875" lon="166.44676658324897289276123046875">
        <ele>836.20001220703125</ele>
        <time>2016-08-12T18:56:40.000Z</time>
        <extensions>
          <ns3:TrackPointExtension>
            <ns3:atemp>16.0</ns3:atemp>
            <ns3:hr>144</ns3:hr>
          </ns3:TrackPointExtension>
        </extensions>
      </trkpt>
      <trkpt lat="-22.07263936288654804229736328125" lon="166.446761302649974822998046875">
        <ele>836.20001220703125</ele>
        <time>2016-08-12T18:56:41.000Z</time>
        <extensions>
          <ns3:TrackPointExtension>
            <ns3:atemp>16.0</ns3:atemp>
            <ns3:hr>144</ns3:hr>
          </ns3:TrackPointExtension>
        </extensions>
      </trkpt>
      <trkpt lat="-22.07261891104280948638916015625" lon="166.44675300456583499908447265625">
        <ele>836.4000244140625</ele>
        <time>2016-08-12T18:56:42.000Z</time>
        <extensions>
          <ns3:TrackPointExtension>
            <ns3:atemp>16.0</ns3:atemp>
            <ns3:hr>144</ns3:hr>
          </ns3:TrackPointExtension>
        </extensions>
      </trkpt>
      <trkpt lat="-22.07259661518037319183349609375" lon="166.446743868291378021240234375">
        <ele>836.5999755859375</ele>
        <time>2016-08-12T18:56:43.000Z</time>
        <extensions>
          <ns3:TrackPointExtension>
            <ns3:atemp>16.0</ns3:atemp>
            <ns3:hr>145</ns3:hr>
          </ns3:TrackPointExtension>
        </extensions>
      </trkpt>
      <trkpt lat="-22.07257666625082492828369140625" lon="166.446735821664333343505859375">
        <ele>836.79998779296875</ele>
        <time>2016-08-12T18:56:44.000Z</time>
        <extensions>
          <ns3:TrackPointExtension>
            <ns3:atemp>16.0</ns3:atemp>
            <ns3:hr>145</ns3:hr>
          </ns3:TrackPointExtension>
        </extensions>
      </trkpt>
      <trkpt lat="-22.072556801140308380126953125" lon="166.4467267692089080810546875">
        <ele>836.79998779296875</ele>
        <time>2016-08-12T18:56:45.000Z</time>
        <extensions>
          <ns3:TrackPointExtension>
            <ns3:atemp>16.0</ns3:atemp>
            <ns3:hr>145</ns3:hr>
          </ns3:TrackPointExtension>
        </extensions>
      </trkpt>
      <trkpt lat="-22.07254045642912387847900390625" lon="166.44671939313411712646484375">
        <ele>837</ele>
        <time>2016-08-12T18:56:46.000Z</time>
        <extensions>
          <ns3:TrackPointExtension>
            <ns3:atemp>16.0</ns3:atemp>
            <ns3:hr>145</ns3:hr>
          </ns3:TrackPointExtension>
        </extensions>
      </trkpt>
      <trkpt lat="-22.07252562046051025390625" lon="166.4467133581638336181640625">
        <ele>837</ele>
        <time>2016-08-12T18:56:47.000Z</time>
        <extensions>
          <ns3:TrackPointExtension>
            <ns3:atemp>16.0</ns3:atemp>
            <ns3:hr>145</ns3:hr>
          </ns3:TrackPointExtension>
        </extensions>
      </trkpt>
      <trkpt lat="-22.07250609062612056732177734375" lon="166.44670623354613780975341796875">
        <ele>837</ele>
        <time>2016-08-12T18:56:48.000Z</time>
        <extensions>
          <ns3:TrackPointExtension>
            <ns3:atemp>16.0</ns3:atemp>
            <ns3:hr>146</ns3:hr>
          </ns3:TrackPointExtension>
        </extensions>
      </trkpt>
      <trkpt lat="-22.07248697988688945770263671875" lon="166.4467001147568225860595703125">
        <ele>837.4000244140625</ele>
        <time>2016-08-12T18:56:49.000Z</time>
        <extensions>
          <ns3:TrackPointExtension>
            <ns3:atemp>16.0</ns3:atemp>
            <ns3:hr>146</ns3:hr>
          </ns3:TrackPointExtension>
        </extensions>
      </trkpt>
      <trkpt lat="-22.07247130572795867919921875" lon="166.44669299013912677764892578125">
        <ele>837.5999755859375</ele>
        <time>2016-08-12T18:56:50.000Z</time>
        <extensions>
          <ns3:TrackPointExtension>
            <ns3:atemp>16.0</ns3:atemp>
            <ns3:hr>145</ns3:hr>
          </ns3:TrackPointExtension>
        </extensions>
      </trkpt>
      <trkpt lat="-22.0724567212164402008056640625" lon="166.44668326713144779205322265625">
        <ele>837.5999755859375</ele>
        <time>2016-08-12T18:56:51.000Z</time>
        <extensions>
          <ns3:TrackPointExtension>
            <ns3:atemp>16.0</ns3:atemp>
            <ns3:hr>145</ns3:hr>
          </ns3:TrackPointExtension>
        </extensions>
      </trkpt>
      <trkpt lat="-22.0724409632384777069091796875" lon="166.4466731250286102294921875">
        <ele>837.5999755859375</ele>
        <time>2016-08-12T18:56:52.000Z</time>
        <extensions>
          <ns3:TrackPointExtension>
            <ns3:atemp>16.0</ns3:atemp>
            <ns3:hr>146</ns3:hr>
          </ns3:TrackPointExtension>
        </extensions>
      </trkpt>
      <trkpt lat="-22.0724258758127689361572265625" lon="166.44666449166834354400634765625">
        <ele>837.79998779296875</ele>
        <time>2016-08-12T18:56:53.000Z</time>
        <extensions>
          <ns3:TrackPointExtension>
            <ns3:atemp>16.0</ns3:atemp>
            <ns3:hr>146</ns3:hr>
          </ns3:TrackPointExtension>
        </extensions>
      </trkpt>
      <trkpt lat="-22.0724111236631870269775390625" lon="166.4466541819274425506591796875">
        <ele>837.79998779296875</ele>
        <time>2016-08-12T18:56:54.000Z</time>
        <extensions>
          <ns3:TrackPointExtension>
            <ns3:atemp>16.0</ns3:atemp>
            <ns3:hr>145</ns3:hr>
          </ns3:TrackPointExtension>
        </extensions>
      </trkpt>
      <trkpt lat="-22.07239695824682712554931640625" lon="166.44664588384330272674560546875">
        <ele>838.20001220703125</ele>
        <time>2016-08-12T18:56:55.000Z</time>
        <extensions>
          <ns3:TrackPointExtension>
            <ns3:atemp>16.0</ns3:atemp>
            <ns3:hr>145</ns3:hr>
          </ns3:TrackPointExtension>
        </extensions>
      </trkpt>
      <trkpt lat="-22.0723819546401500701904296875" lon="166.4466367475688457489013671875">
        <ele>838.4000244140625</ele>
        <time>2016-08-12T18:56:56.000Z</time>
        <extensions>
          <ns3:TrackPointExtension>
            <ns3:atemp>16.0</ns3:atemp>
            <ns3:hr>145</ns3:hr>
          </ns3:TrackPointExtension>
        </extensions>
      </trkpt>
      <trkpt lat="-22.07236493937671184539794921875" lon="166.44662593491375446319580078125">
        <ele>838.5999755859375</ele>
        <time>2016-08-12T18:56:57.000Z</time>
        <extensions>
          <ns3:TrackPointExtension>
            <ns3:atemp>16.0</ns3:atemp>
            <ns3:hr>145</ns3:hr>
          </ns3:TrackPointExtension>
        </extensions>
      </trkpt>
      <trkpt lat="-22.07234926521778106689453125" lon="166.4466173015534877777099609375">
        <ele>839</ele>
        <time>2016-08-12T18:56:58.000Z</time>
        <extensions>
          <ns3:TrackPointExtension>
            <ns3:atemp>16.0</ns3:atemp>
            <ns3:hr>145</ns3:hr>
          </ns3:TrackPointExtension>
        </extensions>
      </trkpt>
      <trkpt lat="-22.07233727909624576568603515625" lon="166.4466072432696819305419921875">
        <ele>839</ele>
        <time>2016-08-12T18:56:59.000Z</time>
        <extensions>
          <ns3:TrackPointExtension>
            <ns3:atemp>16.0</ns3:atemp>
            <ns3:hr>145</ns3:hr>
          </ns3:TrackPointExtension>
        </extensions>
      </trkpt>
      <trkpt lat="-22.07232487387955188751220703125" lon="166.44659156911075115203857421875">
        <ele>839.20001220703125</ele>
        <time>2016-08-12T18:57:00.000Z</time>
        <extensions>
          <ns3:TrackPointExtension>
            <ns3:atemp>16.0</ns3:atemp>
            <ns3:hr>145</ns3:hr>
          </ns3:TrackPointExtension>
        </extensions>
      </trkpt>
      <trkpt lat="-22.0723125524818897247314453125" lon="166.44657782278954982757568359375">
        <ele>839.4000244140625</ele>
        <time>2016-08-12T18:57:01.000Z</time>
        <extensions>
          <ns3:TrackPointExtension>
            <ns3:atemp>16.0</ns3:atemp>
            <ns3:hr>145</ns3:hr>
          </ns3:TrackPointExtension>
        </extensions>
      </trkpt>
      <trkpt lat="-22.07230274565517902374267578125" lon="166.44656491465866565704345703125">
        <ele>839.4000244140625</ele>
        <time>2016-08-12T18:57:02.000Z</time>
        <extensions>
          <ns3:TrackPointExtension>
            <ns3:atemp>16.0</ns3:atemp>
            <ns3:hr>144</ns3:hr>
          </ns3:TrackPointExtension>
        </extensions>
      </trkpt>
      <trkpt lat="-22.07228816114366054534912109375" lon="166.44655041396617889404296875">
        <ele>839.5999755859375</ele>
        <time>2016-08-12T18:57:03.000Z</time>
        <extensions>
          <ns3:TrackPointExtension>
            <ns3:atemp>16.0</ns3:atemp>
            <ns3:hr>144</ns3:hr>
          </ns3:TrackPointExtension>
        </extensions>
      </trkpt>
      <trkpt lat="-22.0722773484885692596435546875" lon="166.446536667644977569580078125">
        <ele>839.79998779296875</ele>
        <time>2016-08-12T18:57:04.000Z</time>
        <extensions>
          <ns3:TrackPointExtension>
            <ns3:atemp>16.0</ns3:atemp>
            <ns3:hr>145</ns3:hr>
          </ns3:TrackPointExtension>
        </extensions>
      </trkpt>
      <trkpt lat="-22.0722649432718753814697265625" lon="166.446523927152156829833984375">
        <ele>840</ele>
        <time>2016-08-12T18:57:05.000Z</time>
        <extensions>
          <ns3:TrackPointExtension>
            <ns3:atemp>16.0</ns3:atemp>
            <ns3:hr>144</ns3:hr>
          </ns3:TrackPointExtension>
        </extensions>
      </trkpt>
      <trkpt lat="-22.07225496880710124969482421875" lon="166.44650707952678203582763671875">
        <ele>840</ele>
        <time>2016-08-12T18:57:06.000Z</time>
        <extensions>
          <ns3:TrackPointExtension>
            <ns3:atemp>16.0</ns3:atemp>
            <ns3:hr>144</ns3:hr>
          </ns3:TrackPointExtension>
        </extensions>
      </trkpt>
      <trkpt lat="-22.07224910147488117218017578125" lon="166.446489393711090087890625">
        <ele>840.20001220703125</ele>
        <time>2016-08-12T18:57:07.000Z</time>
        <extensions>
          <ns3:TrackPointExtension>
            <ns3:atemp>16.0</ns3:atemp>
            <ns3:hr>144</ns3:hr>
          </ns3:TrackPointExtension>
        </extensions>
      </trkpt>
      <trkpt lat="-22.07224021665751934051513671875" lon="166.44647665321826934814453125">
        <ele>840.4000244140625</ele>
        <time>2016-08-12T18:57:08.000Z</time>
        <extensions>
          <ns3:TrackPointExtension>
            <ns3:atemp>16.0</ns3:atemp>
            <ns3:hr>144</ns3:hr>
          </ns3:TrackPointExtension>
        </extensions>
      </trkpt>
      <trkpt lat="-22.07223267294466495513916015625" lon="166.44646315835416316986083984375">
        <ele>840.5999755859375</ele>
        <time>2016-08-12T18:57:09.000Z</time>
        <extensions>
          <ns3:TrackPointExtension>
            <ns3:atemp>16.0</ns3:atemp>
            <ns3:hr>144</ns3:hr>
          </ns3:TrackPointExtension>
        </extensions>
      </trkpt>
      <trkpt lat="-22.07222395576536655426025390625" lon="166.44644983112812042236328125">
        <ele>840.79998779296875</ele>
        <time>2016-08-12T18:57:10.000Z</time>
        <extensions>
          <ns3:TrackPointExtension>
            <ns3:atemp>16.0</ns3:atemp>
            <ns3:hr>143</ns3:hr>
          </ns3:TrackPointExtension>
        </extensions>
      </trkpt>
      <trkpt lat="-22.07221825607120990753173828125" lon="166.4464345760643482208251953125">
        <ele>841</ele>
        <time>2016-08-12T18:57:11.000Z</time>
        <extensions>
          <ns3:TrackPointExtension>
            <ns3:atemp>16.0</ns3:atemp>
            <ns3:hr>144</ns3:hr>
          </ns3:TrackPointExtension>
        </extensions>
      </trkpt>
      <trkpt lat="-22.0722126401960849761962890625" lon="166.44641957245767116546630859375">
        <ele>841.4000244140625</ele>
        <time>2016-08-12T18:57:12.000Z</time>
        <extensions>
          <ns3:TrackPointExtension>
            <ns3:atemp>16.0</ns3:atemp>
            <ns3:hr>144</ns3:hr>
          </ns3:TrackPointExtension>
        </extensions>
      </trkpt>
      <trkpt lat="-22.072205431759357452392578125" lon="166.44640750251710414886474609375">
        <ele>841.5999755859375</ele>
        <time>2016-08-12T18:57:13.000Z</time>
        <extensions>
          <ns3:TrackPointExtension>
            <ns3:atemp>16.0</ns3:atemp>
            <ns3:hr>143</ns3:hr>
          </ns3:TrackPointExtension>
        </extensions>
      </trkpt>
      <trkpt lat="-22.07219495438039302825927734375" lon="166.44639543257653713226318359375">
        <ele>841.79998779296875</ele>
        <time>2016-08-12T18:57:14.000Z</time>
        <extensions>
          <ns3:TrackPointExtension>
            <ns3:atemp>16.0</ns3:atemp>
            <ns3:hr>144</ns3:hr>
          </ns3:TrackPointExtension>
        </extensions>
      </trkpt>
      <trkpt lat="-22.0721844770014286041259765625" lon="166.44638135097920894622802734375">
        <ele>842</ele>
        <time>2016-08-12T18:57:15.000Z</time>
        <extensions>
          <ns3:TrackPointExtension>
            <ns3:atemp>16.0</ns3:atemp>
            <ns3:hr>144</ns3:hr>
          </ns3:TrackPointExtension>
        </extensions>
      </trkpt>
      <trkpt lat="-22.072172574698925018310546875" lon="166.446368359029293060302734375">
        <ele>842.20001220703125</ele>
        <time>2016-08-12T18:57:16.000Z</time>
        <extensions>
          <ns3:TrackPointExtension>
            <ns3:atemp>16.0</ns3:atemp>
            <ns3:hr>144</ns3:hr>
          </ns3:TrackPointExtension>
        </extensions>
      </trkpt>
      <trkpt lat="-22.072160504758358001708984375" lon="166.44635536707937717437744140625">
        <ele>842.4000244140625</ele>
        <time>2016-08-12T18:57:17.000Z</time>
        <extensions>
          <ns3:TrackPointExtension>
            <ns3:atemp>16.0</ns3:atemp>
            <ns3:hr>144</ns3:hr>
          </ns3:TrackPointExtension>
        </extensions>
      </trkpt>
      <trkpt lat="-22.0721459202468395233154296875" lon="166.4463420398533344268798828125">
        <ele>842.4000244140625</ele>
        <time>2016-08-12T18:57:18.000Z</time>
        <extensions>
          <ns3:TrackPointExtension>
            <ns3:atemp>16.0</ns3:atemp>
            <ns3:hr>143</ns3:hr>
          </ns3:TrackPointExtension>
        </extensions>
      </trkpt>
      <trkpt lat="-22.07213200628757476806640625" lon="166.44633122719824314117431640625">
        <ele>842.5999755859375</ele>
        <time>2016-08-12T18:57:19.000Z</time>
        <extensions>
          <ns3:TrackPointExtension>
            <ns3:atemp>16.0</ns3:atemp>
            <ns3:hr>143</ns3:hr>
          </ns3:TrackPointExtension>
        </extensions>
      </trkpt>
      <trkpt lat="-22.0721177570521831512451171875" lon="166.446320749819278717041015625">
        <ele>842.79998779296875</ele>
        <time>2016-08-12T18:57:20.000Z</time>
        <extensions>
          <ns3:TrackPointExtension>
            <ns3:atemp>16.0</ns3:atemp>
            <ns3:hr>143</ns3:hr>
          </ns3:TrackPointExtension>
        </extensions>
      </trkpt>
      <trkpt lat="-22.07209873013198375701904296875" lon="166.446310691535472869873046875">
        <ele>842.79998779296875</ele>
        <time>2016-08-12T18:57:21.000Z</time>
        <extensions>
          <ns3:TrackPointExtension>
            <ns3:atemp>16.0</ns3:atemp>
            <ns3:hr>143</ns3:hr>
          </ns3:TrackPointExtension>
        </extensions>
      </trkpt>
      <trkpt lat="-22.0720817148685455322265625" lon="166.44630306400358676910400390625">
        <ele>843</ele>
        <time>2016-08-12T18:57:22.000Z</time>
        <extensions>
          <ns3:TrackPointExtension>
            <ns3:atemp>16.0</ns3:atemp>
            <ns3:hr>143</ns3:hr>
          </ns3:TrackPointExtension>
        </extensions>
      </trkpt>
      <trkpt lat="-22.07206419669091701507568359375" lon="166.44630105234682559967041015625">
        <ele>843.4000244140625</ele>
        <time>2016-08-12T18:57:23.000Z</time>
        <extensions>
          <ns3:TrackPointExtension>
            <ns3:atemp>16.0</ns3:atemp>
            <ns3:hr>143</ns3:hr>
          </ns3:TrackPointExtension>
        </extensions>
      </trkpt>
      <trkpt lat="-22.07204282283782958984375" lon="166.44629820249974727630615234375">
        <ele>843.5999755859375</ele>
        <time>2016-08-12T18:57:24.000Z</time>
        <extensions>
          <ns3:TrackPointExtension>
            <ns3:atemp>16.0</ns3:atemp>
            <ns3:hr>143</ns3:hr>
          </ns3:TrackPointExtension>
        </extensions>
      </trkpt>
      <trkpt lat="-22.07202061079442501068115234375" lon="166.446297951042652130126953125">
        <ele>843.79998779296875</ele>
        <time>2016-08-12T18:57:25.000Z</time>
        <extensions>
          <ns3:TrackPointExtension>
            <ns3:atemp>16.0</ns3:atemp>
            <ns3:hr>143</ns3:hr>
          </ns3:TrackPointExtension>
        </extensions>
      </trkpt>
      <trkpt lat="-22.072000242769718170166015625" lon="166.4462994597852230072021484375">
        <ele>844</ele>
        <time>2016-08-12T18:57:26.000Z</time>
        <extensions>
          <ns3:TrackPointExtension>
            <ns3:atemp>16.0</ns3:atemp>
            <ns3:hr>143</ns3:hr>
          </ns3:TrackPointExtension>
        </extensions>
      </trkpt>
      <trkpt lat="-22.0719789527356624603271484375" lon="166.44630557857453823089599609375">
        <ele>844</ele>
        <time>2016-08-12T18:57:27.000Z</time>
        <extensions>
          <ns3:TrackPointExtension>
            <ns3:atemp>16.0</ns3:atemp>
            <ns3:hr>143</ns3:hr>
          </ns3:TrackPointExtension>
        </extensions>
      </trkpt>
      <trkpt lat="-22.071960009634494781494140625" lon="166.44631748087704181671142578125">
        <ele>844.20001220703125</ele>
        <time>2016-08-12T18:57:28.000Z</time>
        <extensions>
          <ns3:TrackPointExtension>
            <ns3:atemp>16.0</ns3:atemp>
            <ns3:hr>143</ns3:hr>
          </ns3:TrackPointExtension>
        </extensions>
      </trkpt>
      <trkpt lat="-22.07194483838975429534912109375" lon="166.446327455341815948486328125">
        <ele>844.20001220703125</ele>
        <time>2016-08-12T18:57:29.000Z</time>
        <extensions>
          <ns3:TrackPointExtension>
            <ns3:atemp>16.0</ns3:atemp>
            <ns3:hr>143</ns3:hr>
          </ns3:TrackPointExtension>
        </extensions>
      </trkpt>
      <trkpt lat="-22.0719306729733943939208984375" lon="166.4463349990546703338623046875">
        <ele>844.20001220703125</ele>
        <time>2016-08-12T18:57:30.000Z</time>
        <extensions>
          <ns3:TrackPointExtension>
            <ns3:atemp>16.0</ns3:atemp>
            <ns3:hr>143</ns3:hr>
          </ns3:TrackPointExtension>
        </extensions>
      </trkpt>
      <trkpt lat="-22.07191566936671733856201171875" lon="166.44634447060525417327880859375">
        <ele>844.4000244140625</ele>
        <time>2016-08-12T18:57:31.000Z</time>
        <extensions>
          <ns3:TrackPointExtension>
            <ns3:atemp>16.0</ns3:atemp>
            <ns3:hr>143</ns3:hr>
          </ns3:TrackPointExtension>
        </extensions>
      </trkpt>
      <trkpt lat="-22.0718941278755664825439453125" lon="166.44634581170976161956787109375">
        <ele>844.5999755859375</ele>
        <time>2016-08-12T18:57:32.000Z</time>
        <extensions>
          <ns3:TrackPointExtension>
            <ns3:atemp>16.0</ns3:atemp>
            <ns3:hr>143</ns3:hr>
          </ns3:TrackPointExtension>
        </extensions>
      </trkpt>
      <trkpt lat="-22.07187593914568424224853515625" lon="166.446350924670696258544921875">
        <ele>845</ele>
        <time>2016-08-12T18:57:33.000Z</time>
        <extensions>
          <ns3:TrackPointExtension>
            <ns3:atemp>16.0</ns3:atemp>
            <ns3:hr>142</ns3:hr>
          </ns3:TrackPointExtension>
        </extensions>
      </trkpt>
      <trkpt lat="-22.0718599297106266021728515625" lon="166.44635654054582118988037109375">
        <ele>845.20001220703125</ele>
        <time>2016-08-12T18:57:34.000Z</time>
        <extensions>
          <ns3:TrackPointExtension>
            <ns3:atemp>16.0</ns3:atemp>
            <ns3:hr>143</ns3:hr>
          </ns3:TrackPointExtension>
        </extensions>
      </trkpt>
      <trkpt lat="-22.07184576429426670074462890625" lon="166.44636425189673900604248046875">
        <ele>845.4000244140625</ele>
        <time>2016-08-12T18:57:35.000Z</time>
        <extensions>
          <ns3:TrackPointExtension>
            <ns3:atemp>16.0</ns3:atemp>
            <ns3:hr>143</ns3:hr>
          </ns3:TrackPointExtension>
        </extensions>
      </trkpt>
      <trkpt lat="-22.0718304254114627838134765625" lon="166.446369029581546783447265625">
        <ele>845.20001220703125</ele>
        <time>2016-08-12T18:57:36.000Z</time>
        <extensions>
          <ns3:TrackPointExtension>
            <ns3:atemp>16.0</ns3:atemp>
            <ns3:hr>143</ns3:hr>
          </ns3:TrackPointExtension>
        </extensions>
      </trkpt>
      <trkpt lat="-22.071815170347690582275390625" lon="166.44637632183730602264404296875">
        <ele>845.4000244140625</ele>
        <time>2016-08-12T18:57:37.000Z</time>
        <extensions>
          <ns3:TrackPointExtension>
            <ns3:atemp>16.0</ns3:atemp>
            <ns3:hr>142</ns3:hr>
          </ns3:TrackPointExtension>
        </extensions>
      </trkpt>
      <trkpt lat="-22.07179949618875980377197265625" lon="166.4463836140930652618408203125">
        <ele>845.4000244140625</ele>
        <time>2016-08-12T18:57:38.000Z</time>
        <extensions>
          <ns3:TrackPointExtension>
            <ns3:atemp>16.0</ns3:atemp>
            <ns3:hr>142</ns3:hr>
          </ns3:TrackPointExtension>
        </extensions>
      </trkpt>
      <trkpt lat="-22.07178742624819278717041015625" lon="166.44639082252979278564453125">
        <ele>845.79998779296875</ele>
        <time>2016-08-12T18:57:39.000Z</time>
        <extensions>
          <ns3:TrackPointExtension>
            <ns3:atemp>16.0</ns3:atemp>
            <ns3:hr>143</ns3:hr>
          </ns3:TrackPointExtension>
        </extensions>
      </trkpt>
      <trkpt lat="-22.0717764459550380706787109375" lon="166.44639543257653713226318359375">
        <ele>846</ele>
        <time>2016-08-12T18:57:40.000Z</time>
        <extensions>
          <ns3:TrackPointExtension>
            <ns3:atemp>16.0</ns3:atemp>
            <ns3:hr>142</ns3:hr>
          </ns3:TrackPointExtension>
        </extensions>
      </trkpt>
      <trkpt lat="-22.0717626996338367462158203125" lon="166.44639794714748859405517578125">
        <ele>846.4000244140625</ele>
        <time>2016-08-12T18:57:41.000Z</time>
        <extensions>
          <ns3:TrackPointExtension>
            <ns3:atemp>16.0</ns3:atemp>
            <ns3:hr>142</ns3:hr>
          </ns3:TrackPointExtension>
        </extensions>
      </trkpt>
      <trkpt lat="-22.0717516355216503143310546875" lon="166.4464022219181060791015625">
        <ele>846.5999755859375</ele>
        <time>2016-08-12T18:57:42.000Z</time>
        <extensions>
          <ns3:TrackPointExtension>
            <ns3:atemp>16.0</ns3:atemp>
            <ns3:hr>142</ns3:hr>
          </ns3:TrackPointExtension>
        </extensions>
      </trkpt>
      <trkpt lat="-22.07174249924719333648681640625" lon="166.4464000426232814788818359375">
        <ele>846.79998779296875</ele>
        <time>2016-08-12T18:57:43.000Z</time>
        <extensions>
          <ns3:TrackPointExtension>
            <ns3:atemp>16.0</ns3:atemp>
            <ns3:hr>141</ns3:hr>
          </ns3:TrackPointExtension>
        </extensions>
      </trkpt>
      <trkpt lat="-22.0717370510101318359375" lon="166.44639761187136173248291015625">
        <ele>847</ele>
        <time>2016-08-12T18:57:44.000Z</time>
        <extensions>
          <ns3:TrackPointExtension>
            <ns3:atemp>16.0</ns3:atemp>
            <ns3:hr>141</ns3:hr>
          </ns3:TrackPointExtension>
        </extensions>
      </trkpt>
      <trkpt lat="-22.0717308484017848968505859375" lon="166.44639710895717144012451171875">
        <ele>847</ele>
        <time>2016-08-12T18:57:45.000Z</time>
        <extensions>
          <ns3:TrackPointExtension>
            <ns3:atemp>16.0</ns3:atemp>
            <ns3:hr>141</ns3:hr>
          </ns3:TrackPointExtension>
        </extensions>
      </trkpt>
      <trkpt lat="-22.07172607071697711944580078125" lon="166.44639484584331512451171875">
        <ele>847.20001220703125</ele>
        <time>2016-08-12T18:57:46.000Z</time>
        <extensions>
          <ns3:TrackPointExtension>
            <ns3:atemp>16.0</ns3:atemp>
            <ns3:hr>141</ns3:hr>
          </ns3:TrackPointExtension>
        </extensions>
      </trkpt>
      <trkpt lat="-22.07172204740345478057861328125" lon="166.44639325328171253204345703125">
        <ele>847.20001220703125</ele>
        <time>2016-08-12T18:57:47.000Z</time>
        <extensions>
          <ns3:TrackPointExtension>
            <ns3:atemp>16.0</ns3:atemp>
            <ns3:hr>140</ns3:hr>
          </ns3:TrackPointExtension>
        </extensions>
      </trkpt>
      <trkpt lat="-22.07172657363116741180419921875" lon="166.44639057107269763946533203125">
        <ele>847.20001220703125</ele>
        <time>2016-08-12T18:57:48.000Z</time>
        <extensions>
          <ns3:TrackPointExtension>
            <ns3:atemp>16.0</ns3:atemp>
            <ns3:hr>140</ns3:hr>
          </ns3:TrackPointExtension>
        </extensions>
      </trkpt>
      <trkpt lat="-22.0717244781553745269775390625" lon="166.44639040343463420867919921875">
        <ele>847.20001220703125</ele>
        <time>2016-08-12T18:57:49.000Z</time>
        <extensions>
          <ns3:TrackPointExtension>
            <ns3:atemp>16.0</ns3:atemp>
            <ns3:hr>140</ns3:hr>
          </ns3:TrackPointExtension>
        </extensions>
      </trkpt>
      <trkpt lat="-22.07172389142215251922607421875" lon="166.44639073871076107025146484375">
        <ele>847.20001220703125</ele>
        <time>2016-08-12T18:57:51.000Z</time>
        <extensions>
          <ns3:TrackPointExtension>
            <ns3:atemp>16.0</ns3:atemp>
            <ns3:hr>139</ns3:hr>
          </ns3:TrackPointExtension>
        </extensions>
      </trkpt>
      <trkpt lat="-22.07172221504151821136474609375" lon="166.4463933371007442474365234375">
        <ele>847.20001220703125</ele>
        <time>2016-08-12T18:57:52.000Z</time>
        <extensions>
          <ns3:TrackPointExtension>
            <ns3:atemp>16.0</ns3:atemp>
            <ns3:hr>139</ns3:hr>
          </ns3:TrackPointExtension>
        </extensions>
      </trkpt>
      <trkpt lat="-22.071721963584423065185546875" lon="166.4463963545858860015869140625">
        <ele>847.20001220703125</ele>
        <time>2016-08-12T18:57:53.000Z</time>
        <extensions>
          <ns3:TrackPointExtension>
            <ns3:atemp>16.0</ns3:atemp>
            <ns3:hr>138</ns3:hr>
          </ns3:TrackPointExtension>
        </extensions>
      </trkpt>
      <trkpt lat="-22.0717110671103000640869140625" lon="166.4463940076529979705810546875">
        <ele>847.20001220703125</ele>
        <time>2016-08-12T18:57:54.000Z</time>
        <extensions>
          <ns3:TrackPointExtension>
            <ns3:atemp>16.0</ns3:atemp>
            <ns3:hr>138</ns3:hr>
          </ns3:TrackPointExtension>
        </extensions>
      </trkpt>
      <trkpt lat="-22.07169824279844760894775390625" lon="166.44639342091977596282958984375">
        <ele>847.4000244140625</ele>
        <time>2016-08-12T18:57:55.000Z</time>
        <extensions>
          <ns3:TrackPointExtension>
            <ns3:atemp>16.0</ns3:atemp>
            <ns3:hr>139</ns3:hr>
          </ns3:TrackPointExtension>
        </extensions>
      </trkpt>
      <trkpt lat="-22.0716829039156436920166015625" lon="166.4463941752910614013671875">
        <ele>847.79998779296875</ele>
        <time>2016-08-12T18:57:56.000Z</time>
        <extensions>
          <ns3:TrackPointExtension>
            <ns3:atemp>16.0</ns3:atemp>
            <ns3:hr>139</ns3:hr>
          </ns3:TrackPointExtension>
        </extensions>
      </trkpt>
      <trkpt lat="-22.07166639156639575958251953125" lon="166.4463940076529979705810546875">
        <ele>848.20001220703125</ele>
        <time>2016-08-12T18:57:57.000Z</time>
        <extensions>
          <ns3:TrackPointExtension>
            <ns3:atemp>16.0</ns3:atemp>
            <ns3:hr>139</ns3:hr>
          </ns3:TrackPointExtension>
        </extensions>
      </trkpt>
      <trkpt lat="-22.07164694555103778839111328125" lon="166.44639342091977596282958984375">
        <ele>848</ele>
        <time>2016-08-12T18:57:58.000Z</time>
        <extensions>
          <ns3:TrackPointExtension>
            <ns3:atemp>16.0</ns3:atemp>
            <ns3:hr>139</ns3:hr>
          </ns3:TrackPointExtension>
        </extensions>
      </trkpt>
      <trkpt lat="-22.0716249011456966400146484375" lon="166.4463919959962368011474609375">
        <ele>847.79998779296875</ele>
        <time>2016-08-12T18:57:59.000Z</time>
        <extensions>
          <ns3:TrackPointExtension>
            <ns3:atemp>16.0</ns3:atemp>
            <ns3:hr>140</ns3:hr>
          </ns3:TrackPointExtension>
        </extensions>
      </trkpt>
      <trkpt lat="-22.07160453312098979949951171875" lon="166.44639040343463420867919921875">
        <ele>848.20001220703125</ele>
        <time>2016-08-12T18:58:00.000Z</time>
        <extensions>
          <ns3:TrackPointExtension>
            <ns3:atemp>16.0</ns3:atemp>
            <ns3:hr>140</ns3:hr>
          </ns3:TrackPointExtension>
        </extensions>
      </trkpt>
      <trkpt lat="-22.07158357836306095123291015625" lon="166.44639124162495136260986328125">
        <ele>848.5999755859375</ele>
        <time>2016-08-12T18:58:01.000Z</time>
        <extensions>
          <ns3:TrackPointExtension>
            <ns3:atemp>16.0</ns3:atemp>
            <ns3:hr>140</ns3:hr>
          </ns3:TrackPointExtension>
        </extensions>
      </trkpt>
      <trkpt lat="-22.0715625397861003875732421875" lon="166.44639308564364910125732421875">
        <ele>848.5999755859375</ele>
        <time>2016-08-12T18:58:02.000Z</time>
        <extensions>
          <ns3:TrackPointExtension>
            <ns3:atemp>16.0</ns3:atemp>
            <ns3:hr>140</ns3:hr>
          </ns3:TrackPointExtension>
        </extensions>
      </trkpt>
      <trkpt lat="-22.07153663970530033111572265625" lon="166.44639794714748859405517578125">
        <ele>848.4000244140625</ele>
        <time>2016-08-12T18:58:03.000Z</time>
        <extensions>
          <ns3:TrackPointExtension>
            <ns3:atemp>16.0</ns3:atemp>
            <ns3:hr>141</ns3:hr>
          </ns3:TrackPointExtension>
        </extensions>
      </trkpt>
      <trkpt lat="-22.07151451148092746734619140625" lon="166.44639811478555202484130859375">
        <ele>848.79998779296875</ele>
        <time>2016-08-12T18:58:04.000Z</time>
        <extensions>
          <ns3:TrackPointExtension>
            <ns3:atemp>16.0</ns3:atemp>
            <ns3:hr>140</ns3:hr>
          </ns3:TrackPointExtension>
        </extensions>
      </trkpt>
      <trkpt lat="-22.071489281952381134033203125" lon="166.4463993720710277557373046875">
        <ele>849</ele>
        <time>2016-08-12T18:58:05.000Z</time>
        <extensions>
          <ns3:TrackPointExtension>
            <ns3:atemp>16.0</ns3:atemp>
            <ns3:hr>140</ns3:hr>
          </ns3:TrackPointExtension>
        </extensions>
      </trkpt>
      <trkpt lat="-22.071467153728008270263671875" lon="166.4464017190039157867431640625">
        <ele>849</ele>
        <time>2016-08-12T18:58:06.000Z</time>
        <extensions>
          <ns3:TrackPointExtension>
            <ns3:atemp>16.0</ns3:atemp>
            <ns3:hr>139</ns3:hr>
          </ns3:TrackPointExtension>
        </extensions>
      </trkpt>
      <trkpt lat="-22.07144930027425289154052734375" lon="166.44640247337520122528076171875">
        <ele>849</ele>
        <time>2016-08-12T18:58:07.000Z</time>
        <extensions>
          <ns3:TrackPointExtension>
            <ns3:atemp>16.0</ns3:atemp>
            <ns3:hr>139</ns3:hr>
          </ns3:TrackPointExtension>
        </extensions>
      </trkpt>
      <trkpt lat="-22.07142666913568973541259765625" lon="166.4464060775935649871826171875">
        <ele>849.20001220703125</ele>
        <time>2016-08-12T18:58:08.000Z</time>
        <extensions>
          <ns3:TrackPointExtension>
            <ns3:atemp>16.0</ns3:atemp>
            <ns3:hr>138</ns3:hr>
          </ns3:TrackPointExtension>
        </extensions>
      </trkpt>
      <trkpt lat="-22.07140336744487285614013671875" lon="166.4464154653251171112060546875">
        <ele>849.79998779296875</ele>
        <time>2016-08-12T18:58:09.000Z</time>
        <extensions>
          <ns3:TrackPointExtension>
            <ns3:atemp>16.0</ns3:atemp>
            <ns3:hr>138</ns3:hr>
          </ns3:TrackPointExtension>
        </extensions>
      </trkpt>
      <trkpt lat="-22.07138408906757831573486328125" lon="166.44642309285700321197509765625">
        <ele>849.79998779296875</ele>
        <time>2016-08-12T18:58:10.000Z</time>
        <extensions>
          <ns3:TrackPointExtension>
            <ns3:atemp>16.0</ns3:atemp>
            <ns3:hr>138</ns3:hr>
          </ns3:TrackPointExtension>
        </extensions>
      </trkpt>
      <trkpt lat="-22.07136346958577632904052734375" lon="166.44642703235149383544921875">
        <ele>849.5999755859375</ele>
        <time>2016-08-12T18:58:11.000Z</time>
        <extensions>
          <ns3:TrackPointExtension>
            <ns3:atemp>16.0</ns3:atemp>
            <ns3:hr>138</ns3:hr>
          </ns3:TrackPointExtension>
        </extensions>
      </trkpt>
      <trkpt lat="-22.07134653814136981964111328125" lon="166.4464290440082550048828125">
        <ele>849.79998779296875</ele>
        <time>2016-08-12T18:58:12.000Z</time>
        <extensions>
          <ns3:TrackPointExtension>
            <ns3:atemp>16.0</ns3:atemp>
            <ns3:hr>138</ns3:hr>
          </ns3:TrackPointExtension>
        </extensions>
      </trkpt>
      <trkpt lat="-22.07132910378277301788330078125" lon="166.446428038179874420166015625">
        <ele>850</ele>
        <time>2016-08-12T18:58:13.000Z</time>
        <extensions>
          <ns3:TrackPointExtension>
            <ns3:atemp>16.0</ns3:atemp>
            <ns3:hr>137</ns3:hr>
          </ns3:TrackPointExtension>
        </extensions>
      </trkpt>
      <trkpt lat="-22.07131233997642993927001953125" lon="166.44642896018922328948974609375">
        <ele>850.20001220703125</ele>
        <time>2016-08-12T18:58:14.000Z</time>
        <extensions>
          <ns3:TrackPointExtension>
            <ns3:atemp>16.0</ns3:atemp>
            <ns3:hr>137</ns3:hr>
          </ns3:TrackPointExtension>
        </extensions>
      </trkpt>
      <trkpt lat="-22.07129574380815029144287109375" lon="166.4464245177805423736572265625">
        <ele>850.5999755859375</ele>
        <time>2016-08-12T18:58:15.000Z</time>
        <extensions>
          <ns3:TrackPointExtension>
            <ns3:atemp>16.0</ns3:atemp>
            <ns3:hr>137</ns3:hr>
          </ns3:TrackPointExtension>
        </extensions>
      </trkpt>
      <trkpt lat="-22.07127730362117290496826171875" lon="166.446415968239307403564453125">
        <ele>850.79998779296875</ele>
        <time>2016-08-12T18:58:16.000Z</time>
        <extensions>
          <ns3:TrackPointExtension>
            <ns3:atemp>16.0</ns3:atemp>
            <ns3:hr>136</ns3:hr>
          </ns3:TrackPointExtension>
        </extensions>
      </trkpt>
      <trkpt lat="-22.0712577737867832183837890625" lon="166.446407921612262725830078125">
        <ele>850.79998779296875</ele>
        <time>2016-08-12T18:58:17.000Z</time>
        <extensions>
          <ns3:TrackPointExtension>
            <ns3:atemp>16.0</ns3:atemp>
            <ns3:hr>136</ns3:hr>
          </ns3:TrackPointExtension>
        </extensions>
      </trkpt>
      <trkpt lat="-22.0712395012378692626953125" lon="166.44639995880424976348876953125">
        <ele>850.79998779296875</ele>
        <time>2016-08-12T18:58:18.000Z</time>
        <extensions>
          <ns3:TrackPointExtension>
            <ns3:atemp>16.0</ns3:atemp>
            <ns3:hr>136</ns3:hr>
          </ns3:TrackPointExtension>
        </extensions>
      </trkpt>
      <trkpt lat="-22.0712202228605747222900390625" lon="166.4463906548917293548583984375">
        <ele>851.20001220703125</ele>
        <time>2016-08-12T18:58:19.000Z</time>
        <extensions>
          <ns3:TrackPointExtension>
            <ns3:atemp>16.0</ns3:atemp>
            <ns3:hr>135</ns3:hr>
          </ns3:TrackPointExtension>
        </extensions>
      </trkpt>
      <trkpt lat="-22.0712031237781047821044921875" lon="166.44638277590274810791015625">
        <ele>851.4000244140625</ele>
        <time>2016-08-12T18:58:20.000Z</time>
        <extensions>
          <ns3:TrackPointExtension>
            <ns3:atemp>16.0</ns3:atemp>
            <ns3:hr>135</ns3:hr>
          </ns3:TrackPointExtension>
        </extensions>
      </trkpt>
      <trkpt lat="-22.07118812017142772674560546875" lon="166.44637062214314937591552734375">
        <ele>851.4000244140625</ele>
        <time>2016-08-12T18:58:21.000Z</time>
        <extensions>
          <ns3:TrackPointExtension>
            <ns3:atemp>16.0</ns3:atemp>
            <ns3:hr>135</ns3:hr>
          </ns3:TrackPointExtension>
        </extensions>
      </trkpt>
      <trkpt lat="-22.07117177546024322509765625" lon="166.44635503180325031280517578125">
        <ele>851.5999755859375</ele>
        <time>2016-08-12T18:58:22.000Z</time>
        <extensions>
          <ns3:TrackPointExtension>
            <ns3:atemp>16.0</ns3:atemp>
            <ns3:hr>135</ns3:hr>
          </ns3:TrackPointExtension>
        </extensions>
      </trkpt>
      <trkpt lat="-22.07115568220615386962890625" lon="166.44634120166301727294921875">
        <ele>852</ele>
        <time>2016-08-12T18:58:23.000Z</time>
        <extensions>
          <ns3:TrackPointExtension>
            <ns3:atemp>16.0</ns3:atemp>
            <ns3:hr>135</ns3:hr>
          </ns3:TrackPointExtension>
        </extensions>
      </trkpt>
      <trkpt lat="-22.07114201970398426055908203125" lon="166.4463249407708644866943359375">
        <ele>852</ele>
        <time>2016-08-12T18:58:24.000Z</time>
        <extensions>
          <ns3:TrackPointExtension>
            <ns3:atemp>16.0</ns3:atemp>
            <ns3:hr>135</ns3:hr>
          </ns3:TrackPointExtension>
        </extensions>
      </trkpt>
      <trkpt lat="-22.07112559117376804351806640625" lon="166.44631396047770977020263671875">
        <ele>852</ele>
        <time>2016-08-12T18:58:25.000Z</time>
        <extensions>
          <ns3:TrackPointExtension>
            <ns3:atemp>16.0</ns3:atemp>
            <ns3:hr>136</ns3:hr>
          </ns3:TrackPointExtension>
        </extensions>
      </trkpt>
      <trkpt lat="-22.0711062289774417877197265625" lon="166.44630088470876216888427734375">
        <ele>852.5999755859375</ele>
        <time>2016-08-12T18:58:26.000Z</time>
        <extensions>
          <ns3:TrackPointExtension>
            <ns3:atemp>16.0</ns3:atemp>
            <ns3:hr>136</ns3:hr>
          </ns3:TrackPointExtension>
        </extensions>
      </trkpt>
      <trkpt lat="-22.0710841007530689239501953125" lon="166.44629183225333690643310546875">
        <ele>852.79998779296875</ele>
        <time>2016-08-12T18:58:27.000Z</time>
        <extensions>
          <ns3:TrackPointExtension>
            <ns3:atemp>16.0</ns3:atemp>
            <ns3:hr>135</ns3:hr>
          </ns3:TrackPointExtension>
        </extensions>
      </trkpt>
      <trkpt lat="-22.07106390036642551422119140625" lon="166.4462833665311336517333984375">
        <ele>852.5999755859375</ele>
        <time>2016-08-12T18:58:28.000Z</time>
        <extensions>
          <ns3:TrackPointExtension>
            <ns3:atemp>16.0</ns3:atemp>
            <ns3:hr>135</ns3:hr>
          </ns3:TrackPointExtension>
        </extensions>
      </trkpt>
      <trkpt lat="-22.07104864530265331268310546875" lon="166.4462853781878948211669921875">
        <ele>853</ele>
        <time>2016-08-12T18:58:29.000Z</time>
        <extensions>
          <ns3:TrackPointExtension>
            <ns3:atemp>16.0</ns3:atemp>
            <ns3:hr>136</ns3:hr>
          </ns3:TrackPointExtension>
        </extensions>
      </trkpt>
      <trkpt lat="-22.0710294507443904876708984375" lon="166.44627607427537441253662109375">
        <ele>853</ele>
        <time>2016-08-12T18:58:30.000Z</time>
        <extensions>
          <ns3:TrackPointExtension>
            <ns3:atemp>16.0</ns3:atemp>
            <ns3:hr>135</ns3:hr>
          </ns3:TrackPointExtension>
        </extensions>
      </trkpt>
      <trkpt lat="-22.0710110105574131011962890625" lon="166.44626467488706111907958984375">
        <ele>853</ele>
        <time>2016-08-12T18:58:31.000Z</time>
        <extensions>
          <ns3:TrackPointExtension>
            <ns3:atemp>16.0</ns3:atemp>
            <ns3:hr>136</ns3:hr>
          </ns3:TrackPointExtension>
        </extensions>
      </trkpt>
      <trkpt lat="-22.0709945820271968841552734375" lon="166.44625646062195301055908203125">
        <ele>853.4000244140625</ele>
        <time>2016-08-12T18:58:32.000Z</time>
        <extensions>
          <ns3:TrackPointExtension>
            <ns3:atemp>16.0</ns3:atemp>
            <ns3:hr>135</ns3:hr>
          </ns3:TrackPointExtension>
        </extensions>
      </trkpt>
      <trkpt lat="-22.0709774829447269439697265625" lon="166.44624858163297176361083984375">
        <ele>853.79998779296875</ele>
        <time>2016-08-12T18:58:33.000Z</time>
        <extensions>
          <ns3:TrackPointExtension>
            <ns3:atemp>16.0</ns3:atemp>
            <ns3:hr>136</ns3:hr>
          </ns3:TrackPointExtension>
        </extensions>
      </trkpt>
      <trkpt lat="-22.07096281461417675018310546875" lon="166.44623659551143646240234375">
        <ele>854</ele>
        <time>2016-08-12T18:58:34.000Z</time>
        <extensions>
          <ns3:TrackPointExtension>
            <ns3:atemp>16.0</ns3:atemp>
            <ns3:hr>136</ns3:hr>
          </ns3:TrackPointExtension>
        </extensions>
      </trkpt>
      <trkpt lat="-22.0709459669888019561767578125" lon="166.44623131491243839263916015625">
        <ele>854.4000244140625</ele>
        <time>2016-08-12T18:58:35.000Z</time>
        <extensions>
          <ns3:TrackPointExtension>
            <ns3:atemp>16.0</ns3:atemp>
            <ns3:hr>136</ns3:hr>
          </ns3:TrackPointExtension>
        </extensions>
      </trkpt>
      <trkpt lat="-22.0709228329360485076904296875" lon="166.44622812978923320770263671875">
        <ele>854.4000244140625</ele>
        <time>2016-08-12T18:58:36.000Z</time>
        <extensions>
          <ns3:TrackPointExtension>
            <ns3:atemp>16.0</ns3:atemp>
            <ns3:hr>136</ns3:hr>
          </ns3:TrackPointExtension>
        </extensions>
      </trkpt>
      <trkpt lat="-22.07090489566326141357421875" lon="166.44623081199824810028076171875">
        <ele>854.4000244140625</ele>
        <time>2016-08-12T18:58:37.000Z</time>
        <extensions>
          <ns3:TrackPointExtension>
            <ns3:atemp>16.0</ns3:atemp>
            <ns3:hr>137</ns3:hr>
          </ns3:TrackPointExtension>
        </extensions>
      </trkpt>
      <trkpt lat="-22.07088972441852092742919921875" lon="166.4462347514927387237548828125">
        <ele>854.5999755859375</ele>
        <time>2016-08-12T18:58:38.000Z</time>
        <extensions>
          <ns3:TrackPointExtension>
            <ns3:atemp>16.0</ns3:atemp>
            <ns3:hr>137</ns3:hr>
          </ns3:TrackPointExtension>
        </extensions>
      </trkpt>
      <trkpt lat="-22.070874385535717010498046875" lon="166.4462381042540073394775390625">
        <ele>855</ele>
        <time>2016-08-12T18:58:39.000Z</time>
        <extensions>
          <ns3:TrackPointExtension>
            <ns3:atemp>16.0</ns3:atemp>
            <ns3:hr>137</ns3:hr>
          </ns3:TrackPointExtension>
        </extensions>
      </trkpt>
      <trkpt lat="-22.07085938192903995513916015625" lon="166.446241624653339385986328125">
        <ele>855.5999755859375</ele>
        <time>2016-08-12T18:58:40.000Z</time>
        <extensions>
          <ns3:TrackPointExtension>
            <ns3:atemp>16.0</ns3:atemp>
            <ns3:hr>138</ns3:hr>
          </ns3:TrackPointExtension>
        </extensions>
      </trkpt>
      <trkpt lat="-22.07083675079047679901123046875" lon="166.44624866545200347900390625">
        <ele>855.79998779296875</ele>
        <time>2016-08-12T18:58:41.000Z</time>
        <extensions>
          <ns3:TrackPointExtension>
            <ns3:atemp>16.0</ns3:atemp>
            <ns3:hr>138</ns3:hr>
          </ns3:TrackPointExtension>
        </extensions>
      </trkpt>
      <trkpt lat="-22.07081638276576995849609375" lon="166.4462545327842235565185546875">
        <ele>855.79998779296875</ele>
        <time>2016-08-12T18:58:42.000Z</time>
        <extensions>
          <ns3:TrackPointExtension>
            <ns3:atemp>16.0</ns3:atemp>
            <ns3:hr>138</ns3:hr>
          </ns3:TrackPointExtension>
        </extensions>
      </trkpt>
      <trkpt lat="-22.07079836167395114898681640625" lon="166.44626216031610965728759765625">
        <ele>856</ele>
        <time>2016-08-12T18:58:43.000Z</time>
        <extensions>
          <ns3:TrackPointExtension>
            <ns3:atemp>16.0</ns3:atemp>
            <ns3:hr>138</ns3:hr>
          </ns3:TrackPointExtension>
        </extensions>
      </trkpt>
      <trkpt lat="-22.0707860402762889862060546875" lon="166.44627909176051616668701171875">
        <ele>856.4000244140625</ele>
        <time>2016-08-12T18:58:44.000Z</time>
        <extensions>
          <ns3:TrackPointExtension>
            <ns3:atemp>16.0</ns3:atemp>
            <ns3:hr>138</ns3:hr>
          </ns3:TrackPointExtension>
        </extensions>
      </trkpt>
      <trkpt lat="-22.07077858038246631622314453125" lon="166.44629216752946376800537109375">
        <ele>856.4000244140625</ele>
        <time>2016-08-12T18:58:45.000Z</time>
        <extensions>
          <ns3:TrackPointExtension>
            <ns3:atemp>16.0</ns3:atemp>
            <ns3:hr>139</ns3:hr>
          </ns3:TrackPointExtension>
        </extensions>
      </trkpt>
      <trkpt lat="-22.07077137194573879241943359375" lon="166.446305997669696807861328125">
        <ele>856.5999755859375</ele>
        <time>2016-08-12T18:58:46.000Z</time>
        <extensions>
          <ns3:TrackPointExtension>
            <ns3:atemp>16.0</ns3:atemp>
            <ns3:hr>139</ns3:hr>
          </ns3:TrackPointExtension>
        </extensions>
      </trkpt>
      <trkpt lat="-22.07076248712837696075439453125" lon="166.44631865434348583221435546875">
        <ele>856.79998779296875</ele>
        <time>2016-08-12T18:58:47.000Z</time>
        <extensions>
          <ns3:TrackPointExtension>
            <ns3:atemp>16.0</ns3:atemp>
            <ns3:hr>139</ns3:hr>
          </ns3:TrackPointExtension>
        </extensions>
      </trkpt>
      <trkpt lat="-22.07074807025492191314697265625" lon="166.44633114337921142578125">
        <ele>857</ele>
        <time>2016-08-12T18:58:48.000Z</time>
        <extensions>
          <ns3:TrackPointExtension>
            <ns3:atemp>16.0</ns3:atemp>
            <ns3:hr>139</ns3:hr>
          </ns3:TrackPointExtension>
        </extensions>
      </trkpt>
      <trkpt lat="-22.0707340724766254425048828125" lon="166.44634162075817584991455078125">
        <ele>857.20001220703125</ele>
        <time>2016-08-12T18:58:49.000Z</time>
        <extensions>
          <ns3:TrackPointExtension>
            <ns3:atemp>16.0</ns3:atemp>
            <ns3:hr>139</ns3:hr>
          </ns3:TrackPointExtension>
        </extensions>
      </trkpt>
      <trkpt lat="-22.0707193203270435333251953125" lon="166.44635729491710662841796875">
        <ele>857.4000244140625</ele>
        <time>2016-08-12T18:58:50.000Z</time>
        <extensions>
          <ns3:TrackPointExtension>
            <ns3:atemp>16.0</ns3:atemp>
            <ns3:hr>139</ns3:hr>
          </ns3:TrackPointExtension>
        </extensions>
      </trkpt>
      <trkpt lat="-22.07070481963455677032470703125" lon="166.4463705383241176605224609375">
        <ele>857.5999755859375</ele>
        <time>2016-08-12T18:58:51.000Z</time>
        <extensions>
          <ns3:TrackPointExtension>
            <ns3:atemp>16.0</ns3:atemp>
            <ns3:hr>139</ns3:hr>
          </ns3:TrackPointExtension>
        </extensions>
      </trkpt>
      <trkpt lat="-22.070689313113689422607421875" lon="166.4463807642459869384765625">
        <ele>858</ele>
        <time>2016-08-12T18:58:52.000Z</time>
        <extensions>
          <ns3:TrackPointExtension>
            <ns3:atemp>16.0</ns3:atemp>
            <ns3:hr>139</ns3:hr>
          </ns3:TrackPointExtension>
        </extensions>
      </trkpt>
      <trkpt lat="-22.070671878755092620849609375" lon="166.44638772122561931610107421875">
        <ele>858.4000244140625</ele>
        <time>2016-08-12T18:58:53.000Z</time>
        <extensions>
          <ns3:TrackPointExtension>
            <ns3:atemp>16.0</ns3:atemp>
            <ns3:hr>139</ns3:hr>
          </ns3:TrackPointExtension>
        </extensions>
      </trkpt>
      <trkpt lat="-22.07065419293940067291259765625" lon="166.44639124162495136260986328125">
        <ele>858.5999755859375</ele>
        <time>2016-08-12T18:58:54.000Z</time>
        <extensions>
          <ns3:TrackPointExtension>
            <ns3:atemp>16.0</ns3:atemp>
            <ns3:hr>140</ns3:hr>
          </ns3:TrackPointExtension>
        </extensions>
      </trkpt>
      <trkpt lat="-22.070641033351421356201171875" lon="166.44639484584331512451171875">
        <ele>859</ele>
        <time>2016-08-12T18:58:55.000Z</time>
        <extensions>
          <ns3:TrackPointExtension>
            <ns3:atemp>16.0</ns3:atemp>
            <ns3:hr>140</ns3:hr>
          </ns3:TrackPointExtension>
        </extensions>
      </trkpt>
      <trkpt lat="-22.07062418572604656219482421875" lon="166.4464017190039157867431640625">
        <ele>859.20001220703125</ele>
        <time>2016-08-12T18:58:56.000Z</time>
        <extensions>
          <ns3:TrackPointExtension>
            <ns3:atemp>16.0</ns3:atemp>
            <ns3:hr>140</ns3:hr>
          </ns3:TrackPointExtension>
        </extensions>
      </trkpt>
      <trkpt lat="-22.07060457207262516021728515625" lon="166.4464064128696918487548828125">
        <ele>859.20001220703125</ele>
        <time>2016-08-12T18:58:57.000Z</time>
        <extensions>
          <ns3:TrackPointExtension>
            <ns3:atemp>16.0</ns3:atemp>
            <ns3:hr>140</ns3:hr>
          </ns3:TrackPointExtension>
        </extensions>
      </trkpt>
      <trkpt lat="-22.0705825276672840118408203125" lon="166.44641135819256305694580078125">
        <ele>859.4000244140625</ele>
        <time>2016-08-12T18:58:58.000Z</time>
        <extensions>
          <ns3:TrackPointExtension>
            <ns3:atemp>16.0</ns3:atemp>
            <ns3:hr>140</ns3:hr>
          </ns3:TrackPointExtension>
        </extensions>
      </trkpt>
      <trkpt lat="-22.0705620758235454559326171875" lon="166.4464158006012439727783203125">
        <ele>859.5999755859375</ele>
        <time>2016-08-12T18:58:59.000Z</time>
        <extensions>
          <ns3:TrackPointExtension>
            <ns3:atemp>16.0</ns3:atemp>
            <ns3:hr>141</ns3:hr>
          </ns3:TrackPointExtension>
        </extensions>
      </trkpt>
      <trkpt lat="-22.07054547965526580810546875" lon="166.44641974009573459625244140625">
        <ele>859.79998779296875</ele>
        <time>2016-08-12T18:59:00.000Z</time>
        <extensions>
          <ns3:TrackPointExtension>
            <ns3:atemp>16.0</ns3:atemp>
            <ns3:hr>141</ns3:hr>
          </ns3:TrackPointExtension>
        </extensions>
      </trkpt>
      <trkpt lat="-22.07052796147763729095458984375" lon="166.4464235119521617889404296875">
        <ele>860</ele>
        <time>2016-08-12T18:59:01.000Z</time>
        <extensions>
          <ns3:TrackPointExtension>
            <ns3:atemp>16.0</ns3:atemp>
            <ns3:hr>141</ns3:hr>
          </ns3:TrackPointExtension>
        </extensions>
      </trkpt>
      <trkpt lat="-22.07050834782421588897705078125" lon="166.4464248530566692352294921875">
        <ele>860</ele>
        <time>2016-08-12T18:59:02.000Z</time>
        <extensions>
          <ns3:TrackPointExtension>
            <ns3:atemp>16.0</ns3:atemp>
            <ns3:hr>141</ns3:hr>
          </ns3:TrackPointExtension>
        </extensions>
      </trkpt>
      <trkpt lat="-22.0704873092472553253173828125" lon="166.44642510451376438140869140625">
        <ele>860.20001220703125</ele>
        <time>2016-08-12T18:59:03.000Z</time>
        <extensions>
          <ns3:TrackPointExtension>
            <ns3:atemp>16.0</ns3:atemp>
            <ns3:hr>141</ns3:hr>
          </ns3:TrackPointExtension>
        </extensions>
      </trkpt>
      <trkpt lat="-22.07046828232705593109130859375" lon="166.44642275758087635040283203125">
        <ele>860.5999755859375</ele>
        <time>2016-08-12T18:59:04.000Z</time>
        <extensions>
          <ns3:TrackPointExtension>
            <ns3:atemp>16.0</ns3:atemp>
            <ns3:hr>141</ns3:hr>
          </ns3:TrackPointExtension>
        </extensions>
      </trkpt>
      <trkpt lat="-22.07045051269233226776123046875" lon="166.44642032682895660400390625">
        <ele>860.5999755859375</ele>
        <time>2016-08-12T18:59:05.000Z</time>
        <extensions>
          <ns3:TrackPointExtension>
            <ns3:atemp>16.0</ns3:atemp>
            <ns3:hr>142</ns3:hr>
          </ns3:TrackPointExtension>
        </extensions>
      </trkpt>
      <trkpt lat="-22.0704350061714649200439453125" lon="166.44642158411443233489990234375">
        <ele>860.79998779296875</ele>
        <time>2016-08-12T18:59:06.000Z</time>
        <extensions>
          <ns3:TrackPointExtension>
            <ns3:atemp>16.0</ns3:atemp>
            <ns3:hr>142</ns3:hr>
          </ns3:TrackPointExtension>
        </extensions>
      </trkpt>
      <trkpt lat="-22.07041648216545581817626953125" lon="166.4464183151721954345703125">
        <ele>861</ele>
        <time>2016-08-12T18:59:07.000Z</time>
        <extensions>
          <ns3:TrackPointExtension>
            <ns3:atemp>16.0</ns3:atemp>
            <ns3:hr>142</ns3:hr>
          </ns3:TrackPointExtension>
        </extensions>
      </trkpt>
      <trkpt lat="-22.0704031549394130706787109375" lon="166.44640498794615268707275390625">
        <ele>861</ele>
        <time>2016-08-12T18:59:08.000Z</time>
        <extensions>
          <ns3:TrackPointExtension>
            <ns3:atemp>16.0</ns3:atemp>
            <ns3:hr>142</ns3:hr>
          </ns3:TrackPointExtension>
        </extensions>
      </trkpt>
      <trkpt lat="-22.0703884027898311614990234375" lon="166.44639484584331512451171875">
        <ele>861.4000244140625</ele>
        <time>2016-08-12T18:59:09.000Z</time>
        <extensions>
          <ns3:TrackPointExtension>
            <ns3:atemp>16.0</ns3:atemp>
            <ns3:hr>143</ns3:hr>
          </ns3:TrackPointExtension>
        </extensions>
      </trkpt>
      <trkpt lat="-22.070371471345424652099609375" lon="166.44638671539723873138427734375">
        <ele>861.5999755859375</ele>
        <time>2016-08-12T18:59:10.000Z</time>
        <extensions>
          <ns3:TrackPointExtension>
            <ns3:atemp>16.0</ns3:atemp>
            <ns3:hr>143</ns3:hr>
          </ns3:TrackPointExtension>
        </extensions>
      </trkpt>
      <trkpt lat="-22.07035630010068416595458984375" lon="166.44637548364698886871337890625">
        <ele>861.5999755859375</ele>
        <time>2016-08-12T18:59:11.000Z</time>
        <extensions>
          <ns3:TrackPointExtension>
            <ns3:atemp>16.0</ns3:atemp>
            <ns3:hr>143</ns3:hr>
          </ns3:TrackPointExtension>
        </extensions>
      </trkpt>
      <trkpt lat="-22.070345319807529449462890625" lon="166.44636240787804126739501953125">
        <ele>861.79998779296875</ele>
        <time>2016-08-12T18:59:12.000Z</time>
        <extensions>
          <ns3:TrackPointExtension>
            <ns3:atemp>16.0</ns3:atemp>
            <ns3:hr>143</ns3:hr>
          </ns3:TrackPointExtension>
        </extensions>
      </trkpt>
      <trkpt lat="-22.07032822072505950927734375" lon="166.44634799100458621978759765625">
        <ele>862</ele>
        <time>2016-08-12T18:59:13.000Z</time>
        <extensions>
          <ns3:TrackPointExtension>
            <ns3:atemp>16.0</ns3:atemp>
            <ns3:hr>144</ns3:hr>
          </ns3:TrackPointExtension>
        </extensions>
      </trkpt>
      <trkpt lat="-22.070312798023223876953125" lon="166.446332819759845733642578125">
        <ele>862</ele>
        <time>2016-08-12T18:59:14.000Z</time>
        <extensions>
          <ns3:TrackPointExtension>
            <ns3:atemp>16.0</ns3:atemp>
            <ns3:hr>144</ns3:hr>
          </ns3:TrackPointExtension>
        </extensions>
      </trkpt>
      <trkpt lat="-22.07030064426362514495849609375" lon="166.44632066600024700164794921875">
        <ele>862.20001220703125</ele>
        <time>2016-08-12T18:59:15.000Z</time>
        <extensions>
          <ns3:TrackPointExtension>
            <ns3:atemp>16.0</ns3:atemp>
            <ns3:hr>143</ns3:hr>
          </ns3:TrackPointExtension>
        </extensions>
      </trkpt>
      <trkpt lat="-22.07028337754309177398681640625" lon="166.44630775786936283111572265625">
        <ele>862.4000244140625</ele>
        <time>2016-08-12T18:59:16.000Z</time>
        <extensions>
          <ns3:TrackPointExtension>
            <ns3:atemp>16.0</ns3:atemp>
            <ns3:hr>143</ns3:hr>
          </ns3:TrackPointExtension>
        </extensions>
      </trkpt>
      <trkpt lat="-22.0702656917273998260498046875" lon="166.44629837013781070709228515625">
        <ele>862.4000244140625</ele>
        <time>2016-08-12T18:59:17.000Z</time>
        <extensions>
          <ns3:TrackPointExtension>
            <ns3:atemp>16.0</ns3:atemp>
            <ns3:hr>143</ns3:hr>
          </ns3:TrackPointExtension>
        </extensions>
      </trkpt>
      <trkpt lat="-22.0702479220926761627197265625" lon="166.44629049114882946014404296875">
        <ele>862.79998779296875</ele>
        <time>2016-08-12T18:59:18.000Z</time>
        <extensions>
          <ns3:TrackPointExtension>
            <ns3:atemp>16.0</ns3:atemp>
            <ns3:hr>143</ns3:hr>
          </ns3:TrackPointExtension>
        </extensions>
      </trkpt>
      <trkpt lat="-22.070229984819889068603515625" lon="166.44628219306468963623046875">
        <ele>863.20001220703125</ele>
        <time>2016-08-12T18:59:19.000Z</time>
        <extensions>
          <ns3:TrackPointExtension>
            <ns3:atemp>16.0</ns3:atemp>
            <ns3:hr>143</ns3:hr>
          </ns3:TrackPointExtension>
        </extensions>
      </trkpt>
      <trkpt lat="-22.0702135562896728515625" lon="166.4462736435234546661376953125">
        <ele>863</ele>
        <time>2016-08-12T18:59:20.000Z</time>
        <extensions>
          <ns3:TrackPointExtension>
            <ns3:atemp>16.0</ns3:atemp>
            <ns3:hr>143</ns3:hr>
          </ns3:TrackPointExtension>
        </extensions>
      </trkpt>
      <trkpt lat="-22.07020081579685211181640625" lon="166.44626970402896404266357421875">
        <ele>863.4000244140625</ele>
        <time>2016-08-12T18:59:21.000Z</time>
        <extensions>
          <ns3:TrackPointExtension>
            <ns3:atemp>16.0</ns3:atemp>
            <ns3:hr>143</ns3:hr>
          </ns3:TrackPointExtension>
        </extensions>
      </trkpt>
      <trkpt lat="-22.070181369781494140625" lon="166.44626467488706111907958984375">
        <ele>863.5999755859375</ele>
        <time>2016-08-12T18:59:22.000Z</time>
        <extensions>
          <ns3:TrackPointExtension>
            <ns3:atemp>16.0</ns3:atemp>
            <ns3:hr>143</ns3:hr>
          </ns3:TrackPointExtension>
        </extensions>
      </trkpt>
      <trkpt lat="-22.070163600146770477294921875" lon="166.44625880755484104156494140625">
        <ele>863.79998779296875</ele>
        <time>2016-08-12T18:59:23.000Z</time>
        <extensions>
          <ns3:TrackPointExtension>
            <ns3:atemp>16.0</ns3:atemp>
            <ns3:hr>143</ns3:hr>
          </ns3:TrackPointExtension>
        </extensions>
      </trkpt>
      <trkpt lat="-22.0701473392546176910400390625" lon="166.4462565444409847259521484375">
        <ele>864</ele>
        <time>2016-08-12T18:59:24.000Z</time>
        <extensions>
          <ns3:TrackPointExtension>
            <ns3:atemp>16.0</ns3:atemp>
            <ns3:hr>144</ns3:hr>
          </ns3:TrackPointExtension>
        </extensions>
      </trkpt>
      <trkpt lat="-22.07013082690536975860595703125" lon="166.44624338485300540924072265625">
        <ele>864</ele>
        <time>2016-08-12T18:59:25.000Z</time>
        <extensions>
          <ns3:TrackPointExtension>
            <ns3:atemp>16.0</ns3:atemp>
            <ns3:hr>143</ns3:hr>
          </ns3:TrackPointExtension>
        </extensions>
      </trkpt>
      <trkpt lat="-22.070113979279994964599609375" lon="166.4462364278733730316162109375">
        <ele>864</ele>
        <time>2016-08-12T18:59:26.000Z</time>
        <extensions>
          <ns3:TrackPointExtension>
            <ns3:atemp>16.0</ns3:atemp>
            <ns3:hr>143</ns3:hr>
          </ns3:TrackPointExtension>
        </extensions>
      </trkpt>
      <trkpt lat="-22.0700910128653049468994140625" lon="166.446226872503757476806640625">
        <ele>864.4000244140625</ele>
        <time>2016-08-12T18:59:27.000Z</time>
        <extensions>
          <ns3:TrackPointExtension>
            <ns3:atemp>16.0</ns3:atemp>
            <ns3:hr>144</ns3:hr>
          </ns3:TrackPointExtension>
        </extensions>
      </trkpt>
      <trkpt lat="-22.070071063935756683349609375" lon="166.446221172809600830078125">
        <ele>864.5999755859375</ele>
        <time>2016-08-12T18:59:28.000Z</time>
        <extensions>
          <ns3:TrackPointExtension>
            <ns3:atemp>16.0</ns3:atemp>
            <ns3:hr>143</ns3:hr>
          </ns3:TrackPointExtension>
        </extensions>
      </trkpt>
      <trkpt lat="-22.0700564794242382049560546875" lon="166.44621974788606166839599609375">
        <ele>864.5999755859375</ele>
        <time>2016-08-12T18:59:29.000Z</time>
        <extensions>
          <ns3:TrackPointExtension>
            <ns3:atemp>16.0</ns3:atemp>
            <ns3:hr>143</ns3:hr>
          </ns3:TrackPointExtension>
        </extensions>
      </trkpt>
      <trkpt lat="-22.0700410567224025726318359375" lon="166.44622326828539371490478515625">
        <ele>864.79998779296875</ele>
        <time>2016-08-12T18:59:30.000Z</time>
        <extensions>
          <ns3:TrackPointExtension>
            <ns3:atemp>16.0</ns3:atemp>
            <ns3:hr>143</ns3:hr>
          </ns3:TrackPointExtension>
        </extensions>
      </trkpt>
      <trkpt lat="-22.070024125277996063232421875" lon="166.4462310634553432464599609375">
        <ele>865</ele>
        <time>2016-08-12T18:59:31.000Z</time>
        <extensions>
          <ns3:TrackPointExtension>
            <ns3:atemp>16.0</ns3:atemp>
            <ns3:hr>143</ns3:hr>
          </ns3:TrackPointExtension>
        </extensions>
      </trkpt>
      <trkpt lat="-22.0700092054903507232666015625" lon="166.44624070264399051666259765625">
        <ele>865</ele>
        <time>2016-08-12T18:59:32.000Z</time>
        <extensions>
          <ns3:TrackPointExtension>
            <ns3:atemp>16.0</ns3:atemp>
            <ns3:hr>143</ns3:hr>
          </ns3:TrackPointExtension>
        </extensions>
      </trkpt>
      <trkpt lat="-22.06999269314110279083251953125" lon="166.4462555386126041412353515625">
        <ele>865.20001220703125</ele>
        <time>2016-08-12T18:59:33.000Z</time>
        <extensions>
          <ns3:TrackPointExtension>
            <ns3:atemp>16.0</ns3:atemp>
            <ns3:hr>143</ns3:hr>
          </ns3:TrackPointExtension>
        </extensions>
      </trkpt>
      <trkpt lat="-22.06997643224895000457763671875" lon="166.44627003930509090423583984375">
        <ele>865.4000244140625</ele>
        <time>2016-08-12T18:59:34.000Z</time>
        <extensions>
          <ns3:TrackPointExtension>
            <ns3:atemp>16.0</ns3:atemp>
            <ns3:hr>143</ns3:hr>
          </ns3:TrackPointExtension>
        </extensions>
      </trkpt>
      <trkpt lat="-22.06996168009936809539794921875" lon="166.4462840370833873748779296875">
        <ele>865.5999755859375</ele>
        <time>2016-08-12T18:59:35.000Z</time>
        <extensions>
          <ns3:TrackPointExtension>
            <ns3:atemp>16.0</ns3:atemp>
            <ns3:hr>143</ns3:hr>
          </ns3:TrackPointExtension>
        </extensions>
      </trkpt>
      <trkpt lat="-22.06994323991239070892333984375" lon="166.44629828631877899169921875">
        <ele>865.5999755859375</ele>
        <time>2016-08-12T18:59:36.000Z</time>
        <extensions>
          <ns3:TrackPointExtension>
            <ns3:atemp>16.0</ns3:atemp>
            <ns3:hr>144</ns3:hr>
          </ns3:TrackPointExtension>
        </extensions>
      </trkpt>
      <trkpt lat="-22.06992513500154018402099609375" lon="166.44631060771644115447998046875">
        <ele>866</ele>
        <time>2016-08-12T18:59:37.000Z</time>
        <extensions>
          <ns3:TrackPointExtension>
            <ns3:atemp>16.0</ns3:atemp>
            <ns3:hr>144</ns3:hr>
          </ns3:TrackPointExtension>
        </extensions>
      </trkpt>
      <trkpt lat="-22.069910466670989990234375" lon="166.44632200710475444793701171875">
        <ele>866.20001220703125</ele>
        <time>2016-08-12T18:59:38.000Z</time>
        <extensions>
          <ns3:TrackPointExtension>
            <ns3:atemp>16.0</ns3:atemp>
            <ns3:hr>144</ns3:hr>
          </ns3:TrackPointExtension>
        </extensions>
      </trkpt>
      <trkpt lat="-22.06989479251205921173095703125" lon="166.44633114337921142578125">
        <ele>866.4000244140625</ele>
        <time>2016-08-12T18:59:39.000Z</time>
        <extensions>
          <ns3:TrackPointExtension>
            <ns3:atemp>16.0</ns3:atemp>
            <ns3:hr>143</ns3:hr>
          </ns3:TrackPointExtension>
        </extensions>
      </trkpt>
      <trkpt lat="-22.0698821358382701873779296875" lon="166.44634296186268329620361328125">
        <ele>866.4000244140625</ele>
        <time>2016-08-12T18:59:40.000Z</time>
        <extensions>
          <ns3:TrackPointExtension>
            <ns3:atemp>16.0</ns3:atemp>
            <ns3:hr>144</ns3:hr>
          </ns3:TrackPointExtension>
        </extensions>
      </trkpt>
      <trkpt lat="-22.06987031735479831695556640625" lon="166.44635519944131374359130859375">
        <ele>866.5999755859375</ele>
        <time>2016-08-12T18:59:41.000Z</time>
        <extensions>
          <ns3:TrackPointExtension>
            <ns3:atemp>16.0</ns3:atemp>
            <ns3:hr>144</ns3:hr>
          </ns3:TrackPointExtension>
        </extensions>
      </trkpt>
      <trkpt lat="-22.06985606811940670013427734375" lon="166.4463668502867221832275390625">
        <ele>867</ele>
        <time>2016-08-12T18:59:42.000Z</time>
        <extensions>
          <ns3:TrackPointExtension>
            <ns3:atemp>16.0</ns3:atemp>
            <ns3:hr>144</ns3:hr>
          </ns3:TrackPointExtension>
        </extensions>
      </trkpt>
      <trkpt lat="-22.06984098069369792938232421875" lon="166.44637900404632091522216796875">
        <ele>867.20001220703125</ele>
        <time>2016-08-12T18:59:43.000Z</time>
        <extensions>
          <ns3:TrackPointExtension>
            <ns3:atemp>16.0</ns3:atemp>
            <ns3:hr>144</ns3:hr>
          </ns3:TrackPointExtension>
        </extensions>
      </trkpt>
      <trkpt lat="-22.0698231272399425506591796875" lon="166.44638738594949245452880859375">
        <ele>867.4000244140625</ele>
        <time>2016-08-12T18:59:44.000Z</time>
        <extensions>
          <ns3:TrackPointExtension>
            <ns3:atemp>16.0</ns3:atemp>
            <ns3:hr>144</ns3:hr>
          </ns3:TrackPointExtension>
        </extensions>
      </trkpt>
      <trkpt lat="-22.069804854691028594970703125" lon="166.4463941752910614013671875">
        <ele>867.5999755859375</ele>
        <time>2016-08-12T18:59:45.000Z</time>
        <extensions>
          <ns3:TrackPointExtension>
            <ns3:atemp>16.0</ns3:atemp>
            <ns3:hr>144</ns3:hr>
          </ns3:TrackPointExtension>
        </extensions>
      </trkpt>
      <trkpt lat="-22.0697872526943683624267578125" lon="166.446401886641979217529296875">
        <ele>867.79998779296875</ele>
        <time>2016-08-12T18:59:46.000Z</time>
        <extensions>
          <ns3:TrackPointExtension>
            <ns3:atemp>16.0</ns3:atemp>
            <ns3:hr>145</ns3:hr>
          </ns3:TrackPointExtension>
        </extensions>
      </trkpt>
      <trkpt lat="-22.06977308727800846099853515625" lon="166.44641102291643619537353515625">
        <ele>868</ele>
        <time>2016-08-12T18:59:47.000Z</time>
        <extensions>
          <ns3:TrackPointExtension>
            <ns3:atemp>16.0</ns3:atemp>
            <ns3:hr>144</ns3:hr>
          </ns3:TrackPointExtension>
        </extensions>
      </trkpt>
      <trkpt lat="-22.06975758075714111328125" lon="166.44641839899122714996337890625">
        <ele>868.4000244140625</ele>
        <time>2016-08-12T18:59:48.000Z</time>
        <extensions>
          <ns3:TrackPointExtension>
            <ns3:atemp>16.0</ns3:atemp>
            <ns3:hr>144</ns3:hr>
          </ns3:TrackPointExtension>
        </extensions>
      </trkpt>
      <trkpt lat="-22.06974073313176631927490234375" lon="166.44642225466668605804443359375">
        <ele>868.5999755859375</ele>
        <time>2016-08-12T18:59:49.000Z</time>
        <extensions>
          <ns3:TrackPointExtension>
            <ns3:atemp>16.0</ns3:atemp>
            <ns3:hr>145</ns3:hr>
          </ns3:TrackPointExtension>
        </extensions>
      </trkpt>
      <trkpt lat="-22.06972539424896240234375" lon="166.4464261941611766815185546875">
        <ele>868.79998779296875</ele>
        <time>2016-08-12T18:59:50.000Z</time>
        <extensions>
          <ns3:TrackPointExtension>
            <ns3:atemp>16.0</ns3:atemp>
            <ns3:hr>145</ns3:hr>
          </ns3:TrackPointExtension>
        </extensions>
      </trkpt>
      <trkpt lat="-22.06970754079520702362060546875" lon="166.4464282058179378509521484375">
        <ele>869</ele>
        <time>2016-08-12T18:59:51.000Z</time>
        <extensions>
          <ns3:TrackPointExtension>
            <ns3:atemp>16.0</ns3:atemp>
            <ns3:hr>145</ns3:hr>
          </ns3:TrackPointExtension>
        </extensions>
      </trkpt>
      <trkpt lat="-22.06968558020889759063720703125" lon="166.44643063656985759735107421875">
        <ele>869.20001220703125</ele>
        <time>2016-08-12T18:59:52.000Z</time>
        <extensions>
          <ns3:TrackPointExtension>
            <ns3:atemp>16.0</ns3:atemp>
            <ns3:hr>145</ns3:hr>
          </ns3:TrackPointExtension>
        </extensions>
      </trkpt>
      <trkpt lat="-22.069666385650634765625" lon="166.44643482752144336700439453125">
        <ele>869.4000244140625</ele>
        <time>2016-08-12T18:59:53.000Z</time>
        <extensions>
          <ns3:TrackPointExtension>
            <ns3:atemp>16.0</ns3:atemp>
            <ns3:hr>145</ns3:hr>
          </ns3:TrackPointExtension>
        </extensions>
      </trkpt>
      <trkpt lat="-22.06965255551040172576904296875" lon="166.44643952138721942901611328125">
        <ele>869.79998779296875</ele>
        <time>2016-08-12T18:59:54.000Z</time>
        <extensions>
          <ns3:TrackPointExtension>
            <ns3:atemp>16.0</ns3:atemp>
            <ns3:hr>145</ns3:hr>
          </ns3:TrackPointExtension>
        </extensions>
      </trkpt>
      <trkpt lat="-22.06963428296148777008056640625" lon="166.4464479871094226837158203125">
        <ele>870</ele>
        <time>2016-08-12T18:59:55.000Z</time>
        <extensions>
          <ns3:TrackPointExtension>
            <ns3:atemp>16.0</ns3:atemp>
            <ns3:hr>146</ns3:hr>
          </ns3:TrackPointExtension>
        </extensions>
      </trkpt>
      <trkpt lat="-22.069619111716747283935546875" lon="166.4464603923261165618896484375">
        <ele>870.20001220703125</ele>
        <time>2016-08-12T18:59:56.000Z</time>
        <extensions>
          <ns3:TrackPointExtension>
            <ns3:atemp>16.0</ns3:atemp>
            <ns3:hr>146</ns3:hr>
          </ns3:TrackPointExtension>
        </extensions>
      </trkpt>
      <trkpt lat="-22.06960670650005340576171875" lon="166.44647262990474700927734375">
        <ele>870.5999755859375</ele>
        <time>2016-08-12T18:59:57.000Z</time>
        <extensions>
          <ns3:TrackPointExtension>
            <ns3:atemp>16.0</ns3:atemp>
            <ns3:hr>146</ns3:hr>
          </ns3:TrackPointExtension>
        </extensions>
      </trkpt>
      <trkpt lat="-22.069597654044628143310546875" lon="166.446485035121440887451171875">
        <ele>870.79998779296875</ele>
        <time>2016-08-12T18:59:58.000Z</time>
        <extensions>
          <ns3:TrackPointExtension>
            <ns3:atemp>16.0</ns3:atemp>
            <ns3:hr>146</ns3:hr>
          </ns3:TrackPointExtension>
        </extensions>
      </trkpt>
      <trkpt lat="-22.06958885304629802703857421875" lon="166.44650188274681568145751953125">
        <ele>871</ele>
        <time>2016-08-12T18:59:59.000Z</time>
        <extensions>
          <ns3:TrackPointExtension>
            <ns3:atemp>16.0</ns3:atemp>
            <ns3:hr>146</ns3:hr>
          </ns3:TrackPointExtension>
        </extensions>
      </trkpt>
      <trkpt lat="-22.0695793814957141876220703125" lon="166.446518562734127044677734375">
        <ele>871.20001220703125</ele>
        <time>2016-08-12T19:00:00.000Z</time>
        <extensions>
          <ns3:TrackPointExtension>
            <ns3:atemp>16.0</ns3:atemp>
            <ns3:hr>146</ns3:hr>
          </ns3:TrackPointExtension>
        </extensions>
      </trkpt>
      <trkpt lat="-22.0695684850215911865234375" lon="166.4465344883501529693603515625">
        <ele>871.5999755859375</ele>
        <time>2016-08-12T19:00:01.000Z</time>
        <extensions>
          <ns3:TrackPointExtension>
            <ns3:atemp>16.0</ns3:atemp>
            <ns3:hr>146</ns3:hr>
          </ns3:TrackPointExtension>
        </extensions>
      </trkpt>
      <trkpt lat="-22.06955532543361186981201171875" lon="166.44655083306133747100830078125">
        <ele>871.79998779296875</ele>
        <time>2016-08-12T19:00:02.000Z</time>
        <extensions>
          <ns3:TrackPointExtension>
            <ns3:atemp>16.0</ns3:atemp>
            <ns3:hr>147</ns3:hr>
          </ns3:TrackPointExtension>
        </extensions>
      </trkpt>
      <trkpt lat="-22.06953789107501506805419921875" lon="166.44656357355415821075439453125">
        <ele>871.79998779296875</ele>
        <time>2016-08-12T19:00:03.000Z</time>
        <extensions>
          <ns3:TrackPointExtension>
            <ns3:atemp>16.0</ns3:atemp>
            <ns3:hr>147</ns3:hr>
          </ns3:TrackPointExtension>
        </extensions>
      </trkpt>
      <trkpt lat="-22.06952062435448169708251953125" lon="166.44657715223729610443115234375">
        <ele>871.79998779296875</ele>
        <time>2016-08-12T19:00:04.000Z</time>
        <extensions>
          <ns3:TrackPointExtension>
            <ns3:atemp>16.0</ns3:atemp>
            <ns3:hr>146</ns3:hr>
          </ns3:TrackPointExtension>
        </extensions>
      </trkpt>
      <trkpt lat="-22.06950201652944087982177734375" lon="166.44659307785332202911376953125">
        <ele>872.20001220703125</ele>
        <time>2016-08-12T19:00:05.000Z</time>
        <extensions>
          <ns3:TrackPointExtension>
            <ns3:atemp>16.0</ns3:atemp>
            <ns3:hr>147</ns3:hr>
          </ns3:TrackPointExtension>
        </extensions>
      </trkpt>
      <trkpt lat="-22.06948122940957546234130859375" lon="166.4466062374413013458251953125">
        <ele>872</ele>
        <time>2016-08-12T19:00:06.000Z</time>
        <extensions>
          <ns3:TrackPointExtension>
            <ns3:atemp>16.0</ns3:atemp>
            <ns3:hr>147</ns3:hr>
          </ns3:TrackPointExtension>
        </extensions>
      </trkpt>
      <trkpt lat="-22.06945776008069515228271484375" lon="166.446617133915424346923828125">
        <ele>872.20001220703125</ele>
        <time>2016-08-12T19:00:07.000Z</time>
        <extensions>
          <ns3:TrackPointExtension>
            <ns3:atemp>16.0</ns3:atemp>
            <ns3:hr>147</ns3:hr>
          </ns3:TrackPointExtension>
        </extensions>
      </trkpt>
      <trkpt lat="-22.06943864934146404266357421875" lon="166.4466276951134204864501953125">
        <ele>872.4000244140625</ele>
        <time>2016-08-12T19:00:08.000Z</time>
        <extensions>
          <ns3:TrackPointExtension>
            <ns3:atemp>16.0</ns3:atemp>
            <ns3:hr>147</ns3:hr>
          </ns3:TrackPointExtension>
        </extensions>
      </trkpt>
      <trkpt lat="-22.06942171789705753326416015625" lon="166.4466384239494800567626953125">
        <ele>872.4000244140625</ele>
        <time>2016-08-12T19:00:09.000Z</time>
        <extensions>
          <ns3:TrackPointExtension>
            <ns3:atemp>16.0</ns3:atemp>
            <ns3:hr>147</ns3:hr>
          </ns3:TrackPointExtension>
        </extensions>
      </trkpt>
      <trkpt lat="-22.06940260715782642364501953125" lon="166.44664789550006389617919921875">
        <ele>872.4000244140625</ele>
        <time>2016-08-12T19:00:10.000Z</time>
        <extensions>
          <ns3:TrackPointExtension>
            <ns3:atemp>16.0</ns3:atemp>
            <ns3:hr>147</ns3:hr>
          </ns3:TrackPointExtension>
        </extensions>
      </trkpt>
      <trkpt lat="-22.06937829963862895965576171875" lon="166.44665812142193317413330078125">
        <ele>872.5999755859375</ele>
        <time>2016-08-12T19:00:11.000Z</time>
        <extensions>
          <ns3:TrackPointExtension>
            <ns3:atemp>16.0</ns3:atemp>
            <ns3:hr>146</ns3:hr>
          </ns3:TrackPointExtension>
        </extensions>
      </trkpt>
      <trkpt lat="-22.06935432739555835723876953125" lon="166.4466682635247707366943359375">
        <ele>872.5999755859375</ele>
        <time>2016-08-12T19:00:12.000Z</time>
        <extensions>
          <ns3:TrackPointExtension>
            <ns3:atemp>16.0</ns3:atemp>
            <ns3:hr>146</ns3:hr>
          </ns3:TrackPointExtension>
        </extensions>
      </trkpt>
      <trkpt lat="-22.06932934932410717010498046875" lon="166.44667639397084712982177734375">
        <ele>872.4000244140625</ele>
        <time>2016-08-12T19:00:13.000Z</time>
        <extensions>
          <ns3:TrackPointExtension>
            <ns3:atemp>16.0</ns3:atemp>
            <ns3:hr>146</ns3:hr>
          </ns3:TrackPointExtension>
        </extensions>
      </trkpt>
      <trkpt lat="-22.0693057961761951446533203125" lon="166.44668024964630603790283203125">
        <ele>872.79998779296875</ele>
        <time>2016-08-12T19:00:14.000Z</time>
        <extensions>
          <ns3:TrackPointExtension>
            <ns3:atemp>16.0</ns3:atemp>
            <ns3:hr>146</ns3:hr>
          </ns3:TrackPointExtension>
        </extensions>
      </trkpt>
      <trkpt lat="-22.06928559578955173492431640625" lon="166.44668712280690670013427734375">
        <ele>873</ele>
        <time>2016-08-12T19:00:15.000Z</time>
        <extensions>
          <ns3:TrackPointExtension>
            <ns3:atemp>16.0</ns3:atemp>
            <ns3:hr>145</ns3:hr>
          </ns3:TrackPointExtension>
        </extensions>
      </trkpt>
      <trkpt lat="-22.06926204264163970947265625" lon="166.4466893859207630157470703125">
        <ele>872.79998779296875</ele>
        <time>2016-08-12T19:00:16.000Z</time>
        <extensions>
          <ns3:TrackPointExtension>
            <ns3:atemp>16.0</ns3:atemp>
            <ns3:hr>145</ns3:hr>
          </ns3:TrackPointExtension>
        </extensions>
      </trkpt>
      <trkpt lat="-22.0692437700927257537841796875" lon="166.4466940797865390777587890625">
        <ele>873</ele>
        <time>2016-08-12T19:00:17.000Z</time>
        <extensions>
          <ns3:TrackPointExtension>
            <ns3:atemp>16.0</ns3:atemp>
            <ns3:hr>145</ns3:hr>
          </ns3:TrackPointExtension>
        </extensions>
      </trkpt>
      <trkpt lat="-22.0692249946296215057373046875" lon="166.4466991089284420013427734375">
        <ele>873.20001220703125</ele>
        <time>2016-08-12T19:00:18.000Z</time>
        <extensions>
          <ns3:TrackPointExtension>
            <ns3:atemp>16.0</ns3:atemp>
            <ns3:hr>145</ns3:hr>
          </ns3:TrackPointExtension>
        </extensions>
      </trkpt>
      <trkpt lat="-22.06920211203396320343017578125" lon="166.44670195877552032470703125">
        <ele>873</ele>
        <time>2016-08-12T19:00:19.000Z</time>
        <extensions>
          <ns3:TrackPointExtension>
            <ns3:atemp>16.0</ns3:atemp>
            <ns3:hr>145</ns3:hr>
          </ns3:TrackPointExtension>
        </extensions>
      </trkpt>
      <trkpt lat="-22.0691824145615100860595703125" lon="166.44670321606099605560302734375">
        <ele>873</ele>
        <time>2016-08-12T19:00:20.000Z</time>
        <extensions>
          <ns3:TrackPointExtension>
            <ns3:atemp>16.0</ns3:atemp>
            <ns3:hr>144</ns3:hr>
          </ns3:TrackPointExtension>
        </extensions>
      </trkpt>
      <trkpt lat="-22.0691619627177715301513671875" lon="166.4467031322419643402099609375">
        <ele>873.20001220703125</ele>
        <time>2016-08-12T19:00:21.000Z</time>
        <extensions>
          <ns3:TrackPointExtension>
            <ns3:atemp>16.0</ns3:atemp>
            <ns3:hr>144</ns3:hr>
          </ns3:TrackPointExtension>
        </extensions>
      </trkpt>
      <trkpt lat="-22.06914008595049381256103515625" lon="166.446707658469676971435546875">
        <ele>873</ele>
        <time>2016-08-12T19:00:22.000Z</time>
        <extensions>
          <ns3:TrackPointExtension>
            <ns3:atemp>16.0</ns3:atemp>
            <ns3:hr>144</ns3:hr>
          </ns3:TrackPointExtension>
        </extensions>
      </trkpt>
      <trkpt lat="-22.06911879591643810272216796875" lon="166.4467138610780239105224609375">
        <ele>873</ele>
        <time>2016-08-12T19:00:23.000Z</time>
        <extensions>
          <ns3:TrackPointExtension>
            <ns3:atemp>16.0</ns3:atemp>
            <ns3:hr>144</ns3:hr>
          </ns3:TrackPointExtension>
        </extensions>
      </trkpt>
      <trkpt lat="-22.06910203211009502410888671875" lon="166.4467182196676731109619140625">
        <ele>872.79998779296875</ele>
        <time>2016-08-12T19:00:24.000Z</time>
        <extensions>
          <ns3:TrackPointExtension>
            <ns3:atemp>16.0</ns3:atemp>
            <ns3:hr>144</ns3:hr>
          </ns3:TrackPointExtension>
        </extensions>
      </trkpt>
      <trkpt lat="-22.06908945925533771514892578125" lon="166.44672081805765628814697265625">
        <ele>872.79998779296875</ele>
        <time>2016-08-12T19:00:25.000Z</time>
        <extensions>
          <ns3:TrackPointExtension>
            <ns3:atemp>16.0</ns3:atemp>
            <ns3:hr>143</ns3:hr>
          </ns3:TrackPointExtension>
        </extensions>
      </trkpt>
      <trkpt lat="-22.069078646600246429443359375" lon="166.446722410619258880615234375">
        <ele>872.79998779296875</ele>
        <time>2016-08-12T19:00:26.000Z</time>
        <extensions>
          <ns3:TrackPointExtension>
            <ns3:atemp>16.0</ns3:atemp>
            <ns3:hr>143</ns3:hr>
          </ns3:TrackPointExtension>
        </extensions>
      </trkpt>
      <trkpt lat="-22.06906531937420368194580078125" lon="166.44672333262860774993896484375">
        <ele>872.79998779296875</ele>
        <time>2016-08-12T19:00:27.000Z</time>
        <extensions>
          <ns3:TrackPointExtension>
            <ns3:atemp>16.0</ns3:atemp>
            <ns3:hr>143</ns3:hr>
          </ns3:TrackPointExtension>
        </extensions>
      </trkpt>
      <trkpt lat="-22.069053165614604949951171875" lon="166.446725763380527496337890625">
        <ele>873</ele>
        <time>2016-08-12T19:00:28.000Z</time>
        <extensions>
          <ns3:TrackPointExtension>
            <ns3:atemp>16.0</ns3:atemp>
            <ns3:hr>142</ns3:hr>
          </ns3:TrackPointExtension>
        </extensions>
      </trkpt>
      <trkpt lat="-22.06904017366468906402587890625" lon="166.44672987051308155059814453125">
        <ele>873</ele>
        <time>2016-08-12T19:00:29.000Z</time>
        <extensions>
          <ns3:TrackPointExtension>
            <ns3:atemp>16.0</ns3:atemp>
            <ns3:hr>142</ns3:hr>
          </ns3:TrackPointExtension>
        </extensions>
      </trkpt>
      <trkpt lat="-22.06902894191443920135498046875" lon="166.44673473201692104339599609375">
        <ele>873</ele>
        <time>2016-08-12T19:00:30.000Z</time>
        <extensions>
          <ns3:TrackPointExtension>
            <ns3:atemp>16.0</ns3:atemp>
            <ns3:hr>141</ns3:hr>
          </ns3:TrackPointExtension>
        </extensions>
      </trkpt>
      <trkpt lat="-22.06901737488806247711181640625" lon="166.4467393420636653900146484375">
        <ele>873</ele>
        <time>2016-08-12T19:00:31.000Z</time>
        <extensions>
          <ns3:TrackPointExtension>
            <ns3:atemp>16.0</ns3:atemp>
            <ns3:hr>141</ns3:hr>
          </ns3:TrackPointExtension>
        </extensions>
      </trkpt>
      <trkpt lat="-22.06900647841393947601318359375" lon="166.44674512557685375213623046875">
        <ele>873</ele>
        <time>2016-08-12T19:00:32.000Z</time>
        <extensions>
          <ns3:TrackPointExtension>
            <ns3:atemp>16.0</ns3:atemp>
            <ns3:hr>140</ns3:hr>
          </ns3:TrackPointExtension>
        </extensions>
      </trkpt>
      <trkpt lat="-22.0689960010349750518798828125" lon="166.44675032235682010650634765625">
        <ele>873</ele>
        <time>2016-08-12T19:00:33.000Z</time>
        <extensions>
          <ns3:TrackPointExtension>
            <ns3:atemp>16.0</ns3:atemp>
            <ns3:hr>139</ns3:hr>
          </ns3:TrackPointExtension>
        </extensions>
      </trkpt>
      <trkpt lat="-22.06898384727537631988525390625" lon="166.44675635732710361480712890625">
        <ele>873</ele>
        <time>2016-08-12T19:00:34.000Z</time>
        <extensions>
          <ns3:TrackPointExtension>
            <ns3:atemp>16.0</ns3:atemp>
            <ns3:hr>139</ns3:hr>
          </ns3:TrackPointExtension>
        </extensions>
      </trkpt>
      <trkpt lat="-22.0689721964299678802490234375" lon="166.44676038064062595367431640625">
        <ele>873</ele>
        <time>2016-08-12T19:00:35.000Z</time>
        <extensions>
          <ns3:TrackPointExtension>
            <ns3:atemp>16.0</ns3:atemp>
            <ns3:hr>138</ns3:hr>
          </ns3:TrackPointExtension>
        </extensions>
      </trkpt>
      <trkpt lat="-22.06895953975617885589599609375" lon="166.44676339812576770782470703125">
        <ele>873</ele>
        <time>2016-08-12T19:00:36.000Z</time>
        <extensions>
          <ns3:TrackPointExtension>
            <ns3:atemp>16.0</ns3:atemp>
            <ns3:hr>138</ns3:hr>
          </ns3:TrackPointExtension>
        </extensions>
      </trkpt>
      <trkpt lat="-22.06894579343497753143310546875" lon="166.44676633179187774658203125">
        <ele>872.79998779296875</ele>
        <time>2016-08-12T19:00:37.000Z</time>
        <extensions>
          <ns3:TrackPointExtension>
            <ns3:atemp>16.0</ns3:atemp>
            <ns3:hr>137</ns3:hr>
          </ns3:TrackPointExtension>
        </extensions>
      </trkpt>
      <trkpt lat="-22.0689346455037593841552734375" lon="166.44676909781992435455322265625">
        <ele>872.79998779296875</ele>
        <time>2016-08-12T19:00:38.000Z</time>
        <extensions>
          <ns3:TrackPointExtension>
            <ns3:atemp>16.0</ns3:atemp>
            <ns3:hr>137</ns3:hr>
          </ns3:TrackPointExtension>
        </extensions>
      </trkpt>
      <trkpt lat="-22.0689252577722072601318359375" lon="166.44677245058119297027587890625">
        <ele>872.79998779296875</ele>
        <time>2016-08-12T19:00:39.000Z</time>
        <extensions>
          <ns3:TrackPointExtension>
            <ns3:atemp>16.0</ns3:atemp>
            <ns3:hr>136</ns3:hr>
          </ns3:TrackPointExtension>
        </extensions>
      </trkpt>
      <trkpt lat="-22.0689158700406551361083984375" lon="166.44677530042827129364013671875">
        <ele>873</ele>
        <time>2016-08-12T19:00:40.000Z</time>
        <extensions>
          <ns3:TrackPointExtension>
            <ns3:atemp>16.0</ns3:atemp>
            <ns3:hr>136</ns3:hr>
          </ns3:TrackPointExtension>
        </extensions>
      </trkpt>
      <trkpt lat="-22.06890757195651531219482421875" lon="166.44677848555147647857666015625">
        <ele>873</ele>
        <time>2016-08-12T19:00:41.000Z</time>
        <extensions>
          <ns3:TrackPointExtension>
            <ns3:atemp>16.0</ns3:atemp>
            <ns3:hr>135</ns3:hr>
          </ns3:TrackPointExtension>
        </extensions>
      </trkpt>
      <trkpt lat="-22.0688974298536777496337890625" lon="166.44678250886499881744384765625">
        <ele>873</ele>
        <time>2016-08-12T19:00:42.000Z</time>
        <extensions>
          <ns3:TrackPointExtension>
            <ns3:atemp>16.0</ns3:atemp>
            <ns3:hr>134</ns3:hr>
          </ns3:TrackPointExtension>
        </extensions>
      </trkpt>
      <trkpt lat="-22.068888209760189056396484375" lon="166.44678619690239429473876953125">
        <ele>873</ele>
        <time>2016-08-12T19:00:43.000Z</time>
        <extensions>
          <ns3:TrackPointExtension>
            <ns3:atemp>16.0</ns3:atemp>
            <ns3:hr>133</ns3:hr>
          </ns3:TrackPointExtension>
        </extensions>
      </trkpt>
      <trkpt lat="-22.06887722946703433990478515625" lon="166.446788795292377471923828125">
        <ele>873</ele>
        <time>2016-08-12T19:00:44.000Z</time>
        <extensions>
          <ns3:TrackPointExtension>
            <ns3:atemp>16.0</ns3:atemp>
            <ns3:hr>133</ns3:hr>
          </ns3:TrackPointExtension>
        </extensions>
      </trkpt>
      <trkpt lat="-22.0688685961067676544189453125" lon="166.446793489158153533935546875">
        <ele>873</ele>
        <time>2016-08-12T19:00:45.000Z</time>
        <extensions>
          <ns3:TrackPointExtension>
            <ns3:atemp>16.0</ns3:atemp>
            <ns3:hr>132</ns3:hr>
          </ns3:TrackPointExtension>
        </extensions>
      </trkpt>
      <trkpt lat="-22.06885912455618381500244140625" lon="166.44680161960422992706298828125">
        <ele>873</ele>
        <time>2016-08-12T19:00:46.000Z</time>
        <extensions>
          <ns3:TrackPointExtension>
            <ns3:atemp>16.0</ns3:atemp>
            <ns3:hr>131</ns3:hr>
          </ns3:TrackPointExtension>
        </extensions>
      </trkpt>
      <trkpt lat="-22.068847306072711944580078125" lon="166.44680782221257686614990234375">
        <ele>873</ele>
        <time>2016-08-12T19:00:47.000Z</time>
        <extensions>
          <ns3:TrackPointExtension>
            <ns3:atemp>16.0</ns3:atemp>
            <ns3:hr>131</ns3:hr>
          </ns3:TrackPointExtension>
        </extensions>
      </trkpt>
      <trkpt lat="-22.06883682869374752044677734375" lon="166.4468100853264331817626953125">
        <ele>873</ele>
        <time>2016-08-12T19:00:48.000Z</time>
        <extensions>
          <ns3:TrackPointExtension>
            <ns3:atemp>16.0</ns3:atemp>
            <ns3:hr>130</ns3:hr>
          </ns3:TrackPointExtension>
        </extensions>
      </trkpt>
      <trkpt lat="-22.06882408820092678070068359375" lon="166.446811258792877197265625">
        <ele>873.20001220703125</ele>
        <time>2016-08-12T19:00:49.000Z</time>
        <extensions>
          <ns3:TrackPointExtension>
            <ns3:atemp>16.0</ns3:atemp>
            <ns3:hr>130</ns3:hr>
          </ns3:TrackPointExtension>
        </extensions>
      </trkpt>
      <trkpt lat="-22.0688105933368206024169921875" lon="166.44681394100189208984375">
        <ele>873.20001220703125</ele>
        <time>2016-08-12T19:00:50.000Z</time>
        <extensions>
          <ns3:TrackPointExtension>
            <ns3:atemp>16.0</ns3:atemp>
            <ns3:hr>129</ns3:hr>
          </ns3:TrackPointExtension>
        </extensions>
      </trkpt>
      <trkpt lat="-22.068798355758190155029296875" lon="166.44681729376316070556640625">
        <ele>873.4000244140625</ele>
        <time>2016-08-12T19:00:51.000Z</time>
        <extensions>
          <ns3:TrackPointExtension>
            <ns3:atemp>16.0</ns3:atemp>
            <ns3:hr>129</ns3:hr>
          </ns3:TrackPointExtension>
        </extensions>
      </trkpt>
      <trkpt lat="-22.06878720782697200775146484375" lon="166.44682039506733417510986328125">
        <ele>873.4000244140625</ele>
        <time>2016-08-12T19:00:52.000Z</time>
        <extensions>
          <ns3:TrackPointExtension>
            <ns3:atemp>16.0</ns3:atemp>
            <ns3:hr>128</ns3:hr>
          </ns3:TrackPointExtension>
        </extensions>
      </trkpt>
      <trkpt lat="-22.06877631135284900665283203125" lon="166.4468260109424591064453125">
        <ele>873.5999755859375</ele>
        <time>2016-08-12T19:00:53.000Z</time>
        <extensions>
          <ns3:TrackPointExtension>
            <ns3:atemp>16.0</ns3:atemp>
            <ns3:hr>128</ns3:hr>
          </ns3:TrackPointExtension>
        </extensions>
      </trkpt>
      <trkpt lat="-22.068765498697757720947265625" lon="166.4468322135508060455322265625">
        <ele>873.5999755859375</ele>
        <time>2016-08-12T19:00:54.000Z</time>
        <extensions>
          <ns3:TrackPointExtension>
            <ns3:atemp>16.0</ns3:atemp>
            <ns3:hr>127</ns3:hr>
          </ns3:TrackPointExtension>
        </extensions>
      </trkpt>
      <trkpt lat="-22.06875619478523731231689453125" lon="166.44683715887367725372314453125">
        <ele>873.79998779296875</ele>
        <time>2016-08-12T19:00:55.000Z</time>
        <extensions>
          <ns3:TrackPointExtension>
            <ns3:atemp>16.0</ns3:atemp>
            <ns3:hr>127</ns3:hr>
          </ns3:TrackPointExtension>
        </extensions>
      </trkpt>
      <trkpt lat="-22.068741358816623687744140625" lon="166.44684017635881900787353515625">
        <ele>874</ele>
        <time>2016-08-12T19:00:56.000Z</time>
        <extensions>
          <ns3:TrackPointExtension>
            <ns3:atemp>16.0</ns3:atemp>
            <ns3:hr>127</ns3:hr>
          </ns3:TrackPointExtension>
        </extensions>
      </trkpt>
      <trkpt lat="-22.06872425973415374755859375" lon="166.44684788770973682403564453125">
        <ele>874.4000244140625</ele>
        <time>2016-08-12T19:00:57.000Z</time>
        <extensions>
          <ns3:TrackPointExtension>
            <ns3:atemp>16.0</ns3:atemp>
            <ns3:hr>126</ns3:hr>
          </ns3:TrackPointExtension>
        </extensions>
      </trkpt>
      <trkpt lat="-22.0687056519091129302978515625" lon="166.44685886800289154052734375">
        <ele>874.79998779296875</ele>
        <time>2016-08-12T19:00:58.000Z</time>
        <extensions>
          <ns3:TrackPointExtension>
            <ns3:atemp>16.0</ns3:atemp>
            <ns3:hr>127</ns3:hr>
          </ns3:TrackPointExtension>
        </extensions>
      </trkpt>
      <trkpt lat="-22.0686858706176280975341796875" lon="166.44686817191541194915771484375">
        <ele>874.5999755859375</ele>
        <time>2016-08-12T19:00:59.000Z</time>
        <extensions>
          <ns3:TrackPointExtension>
            <ns3:atemp>16.0</ns3:atemp>
            <ns3:hr>127</ns3:hr>
          </ns3:TrackPointExtension>
        </extensions>
      </trkpt>
      <trkpt lat="-22.06866282038390636444091796875" lon="166.44688040949404239654541015625">
        <ele>874.79998779296875</ele>
        <time>2016-08-12T19:01:00.000Z</time>
        <extensions>
          <ns3:TrackPointExtension>
            <ns3:atemp>16.0</ns3:atemp>
            <ns3:hr>127</ns3:hr>
          </ns3:TrackPointExtension>
        </extensions>
      </trkpt>
      <trkpt lat="-22.06863918341696262359619140625" lon="166.44689197652041912078857421875">
        <ele>875.20001220703125</ele>
        <time>2016-08-12T19:01:01.000Z</time>
        <extensions>
          <ns3:TrackPointExtension>
            <ns3:atemp>16.0</ns3:atemp>
            <ns3:hr>128</ns3:hr>
          </ns3:TrackPointExtension>
        </extensions>
      </trkpt>
      <trkpt lat="-22.06861638464033603668212890625" lon="166.44689968787133693695068359375">
        <ele>875.4000244140625</ele>
        <time>2016-08-12T19:01:02.000Z</time>
        <extensions>
          <ns3:TrackPointExtension>
            <ns3:atemp>16.0</ns3:atemp>
            <ns3:hr>128</ns3:hr>
          </ns3:TrackPointExtension>
        </extensions>
      </trkpt>
      <trkpt lat="-22.06859551370143890380859375" lon="166.44690739922225475311279296875">
        <ele>875.20001220703125</ele>
        <time>2016-08-12T19:01:03.000Z</time>
        <extensions>
          <ns3:TrackPointExtension>
            <ns3:atemp>16.0</ns3:atemp>
            <ns3:hr>128</ns3:hr>
          </ns3:TrackPointExtension>
        </extensions>
      </trkpt>
      <trkpt lat="-22.06857229582965373992919921875" lon="166.4469130150973796844482421875">
        <ele>875.4000244140625</ele>
        <time>2016-08-12T19:01:04.000Z</time>
        <extensions>
          <ns3:TrackPointExtension>
            <ns3:atemp>16.0</ns3:atemp>
            <ns3:hr>129</ns3:hr>
          </ns3:TrackPointExtension>
        </extensions>
      </trkpt>
      <trkpt lat="-22.06855125725269317626953125" lon="166.446920894086360931396484375">
        <ele>875.79998779296875</ele>
        <time>2016-08-12T19:01:05.000Z</time>
        <extensions>
          <ns3:TrackPointExtension>
            <ns3:atemp>16.0</ns3:atemp>
            <ns3:hr>129</ns3:hr>
          </ns3:TrackPointExtension>
        </extensions>
      </trkpt>
      <trkpt lat="-22.0685292966663837432861328125" lon="166.446927599608898162841796875">
        <ele>876.20001220703125</ele>
        <time>2016-08-12T19:01:06.000Z</time>
        <extensions>
          <ns3:TrackPointExtension>
            <ns3:atemp>16.0</ns3:atemp>
            <ns3:hr>129</ns3:hr>
          </ns3:TrackPointExtension>
        </extensions>
      </trkpt>
      <trkpt lat="-22.06850708462297916412353515625" lon="166.4469307847321033477783203125">
        <ele>876</ele>
        <time>2016-08-12T19:01:07.000Z</time>
        <extensions>
          <ns3:TrackPointExtension>
            <ns3:atemp>16.0</ns3:atemp>
            <ns3:hr>130</ns3:hr>
          </ns3:TrackPointExtension>
        </extensions>
      </trkpt>
      <trkpt lat="-22.0684843696653842926025390625" lon="166.44693262875080108642578125">
        <ele>876</ele>
        <time>2016-08-12T19:01:08.000Z</time>
        <extensions>
          <ns3:TrackPointExtension>
            <ns3:atemp>16.0</ns3:atemp>
            <ns3:hr>130</ns3:hr>
          </ns3:TrackPointExtension>
        </extensions>
      </trkpt>
      <trkpt lat="-22.0684605650603771209716796875" lon="166.4469338022172451019287109375">
        <ele>876.20001220703125</ele>
        <time>2016-08-12T19:01:09.000Z</time>
        <extensions>
          <ns3:TrackPointExtension>
            <ns3:atemp>16.0</ns3:atemp>
            <ns3:hr>130</ns3:hr>
          </ns3:TrackPointExtension>
        </extensions>
      </trkpt>
      <trkpt lat="-22.0684354193508625030517578125" lon="166.44693220965564250946044921875">
        <ele>876.5999755859375</ele>
        <time>2016-08-12T19:01:10.000Z</time>
        <extensions>
          <ns3:TrackPointExtension>
            <ns3:atemp>16.0</ns3:atemp>
            <ns3:hr>131</ns3:hr>
          </ns3:TrackPointExtension>
        </extensions>
      </trkpt>
      <trkpt lat="-22.06841044127941131591796875" lon="166.4469274319708347320556640625">
        <ele>876.5999755859375</ele>
        <time>2016-08-12T19:01:11.000Z</time>
        <extensions>
          <ns3:TrackPointExtension>
            <ns3:atemp>16.0</ns3:atemp>
            <ns3:hr>131</ns3:hr>
          </ns3:TrackPointExtension>
        </extensions>
      </trkpt>
      <trkpt lat="-22.06838571466505527496337890625" lon="166.44692097790539264678955078125">
        <ele>876.4000244140625</ele>
        <time>2016-08-12T19:01:12.000Z</time>
        <extensions>
          <ns3:TrackPointExtension>
            <ns3:atemp>16.0</ns3:atemp>
            <ns3:hr>131</ns3:hr>
          </ns3:TrackPointExtension>
        </extensions>
      </trkpt>
      <trkpt lat="-22.06835838966071605682373046875" lon="166.44691427238285541534423828125">
        <ele>876.5999755859375</ele>
        <time>2016-08-12T19:01:13.000Z</time>
        <extensions>
          <ns3:TrackPointExtension>
            <ns3:atemp>16.0</ns3:atemp>
            <ns3:hr>131</ns3:hr>
          </ns3:TrackPointExtension>
        </extensions>
      </trkpt>
      <trkpt lat="-22.06833265721797943115234375" lon="166.44690656103193759918212890625">
        <ele>877.20001220703125</ele>
        <time>2016-08-12T19:01:14.000Z</time>
        <extensions>
          <ns3:TrackPointExtension>
            <ns3:atemp>16.0</ns3:atemp>
            <ns3:hr>131</ns3:hr>
          </ns3:TrackPointExtension>
        </extensions>
      </trkpt>
      <trkpt lat="-22.0683076791465282440185546875" lon="166.44690371118485927581787109375">
        <ele>877.4000244140625</ele>
        <time>2016-08-12T19:01:15.000Z</time>
        <extensions>
          <ns3:TrackPointExtension>
            <ns3:atemp>16.0</ns3:atemp>
            <ns3:hr>131</ns3:hr>
          </ns3:TrackPointExtension>
        </extensions>
      </trkpt>
      <trkpt lat="-22.0682848803699016571044921875" lon="166.44690136425197124481201171875">
        <ele>877.20001220703125</ele>
        <time>2016-08-12T19:01:16.000Z</time>
        <extensions>
          <ns3:TrackPointExtension>
            <ns3:atemp>16.0</ns3:atemp>
            <ns3:hr>132</ns3:hr>
          </ns3:TrackPointExtension>
        </extensions>
      </trkpt>
      <trkpt lat="-22.06826300360262393951416015625" lon="166.44689641892910003662109375">
        <ele>877.20001220703125</ele>
        <time>2016-08-12T19:01:17.000Z</time>
        <extensions>
          <ns3:TrackPointExtension>
            <ns3:atemp>16.0</ns3:atemp>
            <ns3:hr>132</ns3:hr>
          </ns3:TrackPointExtension>
        </extensions>
      </trkpt>
      <trkpt lat="-22.06824054010212421417236328125" lon="166.44689415581524372100830078125">
        <ele>877.4000244140625</ele>
        <time>2016-08-12T19:01:18.000Z</time>
        <extensions>
          <ns3:TrackPointExtension>
            <ns3:atemp>16.0</ns3:atemp>
            <ns3:hr>132</ns3:hr>
          </ns3:TrackPointExtension>
        </extensions>
      </trkpt>
      <trkpt lat="-22.06821891479194164276123046875" lon="166.44689113833010196685791015625">
        <ele>878</ele>
        <time>2016-08-12T19:01:19.000Z</time>
        <extensions>
          <ns3:TrackPointExtension>
            <ns3:atemp>16.0</ns3:atemp>
            <ns3:hr>132</ns3:hr>
          </ns3:TrackPointExtension>
        </extensions>
      </trkpt>
      <trkpt lat="-22.0681965351104736328125" lon="166.4468848519027233123779296875">
        <ele>878.4000244140625</ele>
        <time>2016-08-12T19:01:20.000Z</time>
        <extensions>
          <ns3:TrackPointExtension>
            <ns3:atemp>16.0</ns3:atemp>
            <ns3:hr>132</ns3:hr>
          </ns3:TrackPointExtension>
        </extensions>
      </trkpt>
      <trkpt lat="-22.06817432306706905364990234375" lon="166.44687437452375888824462890625">
        <ele>878.4000244140625</ele>
        <time>2016-08-12T19:01:21.000Z</time>
        <extensions>
          <ns3:TrackPointExtension>
            <ns3:atemp>16.0</ns3:atemp>
            <ns3:hr>133</ns3:hr>
          </ns3:TrackPointExtension>
        </extensions>
      </trkpt>
      <trkpt lat="-22.06815320067107677459716796875" lon="166.44686247222125530242919921875">
        <ele>878.20001220703125</ele>
        <time>2016-08-12T19:01:22.000Z</time>
        <extensions>
          <ns3:TrackPointExtension>
            <ns3:atemp>16.0</ns3:atemp>
            <ns3:hr>133</ns3:hr>
          </ns3:TrackPointExtension>
        </extensions>
      </trkpt>
      <trkpt lat="-22.06813459284603595733642578125" lon="166.446853168308734893798828125">
        <ele>878.20001220703125</ele>
        <time>2016-08-12T19:01:23.000Z</time>
        <extensions>
          <ns3:TrackPointExtension>
            <ns3:atemp>16.0</ns3:atemp>
            <ns3:hr>133</ns3:hr>
          </ns3:TrackPointExtension>
        </extensions>
      </trkpt>
      <trkpt lat="-22.06811539828777313232421875" lon="166.44684084691107273101806640625">
        <ele>878.4000244140625</ele>
        <time>2016-08-12T19:01:24.000Z</time>
        <extensions>
          <ns3:TrackPointExtension>
            <ns3:atemp>16.0</ns3:atemp>
            <ns3:hr>134</ns3:hr>
          </ns3:TrackPointExtension>
        </extensions>
      </trkpt>
      <trkpt lat="-22.0680937729775905609130859375" lon="166.44683062098920345306396484375">
        <ele>878.79998779296875</ele>
        <time>2016-08-12T19:01:25.000Z</time>
        <extensions>
          <ns3:TrackPointExtension>
            <ns3:atemp>16.0</ns3:atemp>
            <ns3:hr>134</ns3:hr>
          </ns3:TrackPointExtension>
        </extensions>
      </trkpt>
      <trkpt lat="-22.0680739916861057281494140625" lon="166.4468164555728435516357421875">
        <ele>879.20001220703125</ele>
        <time>2016-08-12T19:01:26.000Z</time>
        <extensions>
          <ns3:TrackPointExtension>
            <ns3:atemp>16.0</ns3:atemp>
            <ns3:hr>134</ns3:hr>
          </ns3:TrackPointExtension>
        </extensions>
      </trkpt>
      <trkpt lat="-22.068051360547542572021484375" lon="166.44680748693645000457763671875">
        <ele>879.20001220703125</ele>
        <time>2016-08-12T19:01:27.000Z</time>
        <extensions>
          <ns3:TrackPointExtension>
            <ns3:atemp>16.0</ns3:atemp>
            <ns3:hr>134</ns3:hr>
          </ns3:TrackPointExtension>
        </extensions>
      </trkpt>
      <trkpt lat="-22.06802956759929656982421875" lon="166.44679977558553218841552734375">
        <ele>879.20001220703125</ele>
        <time>2016-08-12T19:01:28.000Z</time>
        <extensions>
          <ns3:TrackPointExtension>
            <ns3:atemp>16.0</ns3:atemp>
            <ns3:hr>135</ns3:hr>
          </ns3:TrackPointExtension>
        </extensions>
      </trkpt>
      <trkpt lat="-22.0680072717368602752685546875" lon="166.4467892982065677642822265625">
        <ele>879.4000244140625</ele>
        <time>2016-08-12T19:01:29.000Z</time>
        <extensions>
          <ns3:TrackPointExtension>
            <ns3:atemp>16.0</ns3:atemp>
            <ns3:hr>135</ns3:hr>
          </ns3:TrackPointExtension>
        </extensions>
      </trkpt>
      <trkpt lat="-22.067978270351886749267578125" lon="166.44678384996950626373291015625">
        <ele>880</ele>
        <time>2016-08-12T19:01:30.000Z</time>
        <extensions>
          <ns3:TrackPointExtension>
            <ns3:atemp>16.0</ns3:atemp>
            <ns3:hr>135</ns3:hr>
          </ns3:TrackPointExtension>
        </extensions>
      </trkpt>
      <trkpt lat="-22.06795446574687957763671875" lon="166.44677429459989070892333984375">
        <ele>880</ele>
        <time>2016-08-12T19:01:31.000Z</time>
        <extensions>
          <ns3:TrackPointExtension>
            <ns3:atemp>16.0</ns3:atemp>
            <ns3:hr>135</ns3:hr>
          </ns3:TrackPointExtension>
        </extensions>
      </trkpt>
      <trkpt lat="-22.0679318346083164215087890625" lon="166.446765325963497161865234375">
        <ele>879.79998779296875</ele>
        <time>2016-08-12T19:01:32.000Z</time>
        <extensions>
          <ns3:TrackPointExtension>
            <ns3:atemp>16.0</ns3:atemp>
            <ns3:hr>136</ns3:hr>
          </ns3:TrackPointExtension>
        </extensions>
      </trkpt>
      <trkpt lat="-22.06790928728878498077392578125" lon="166.4467616379261016845703125">
        <ele>879.79998779296875</ele>
        <time>2016-08-12T19:01:33.000Z</time>
        <extensions>
          <ns3:TrackPointExtension>
            <ns3:atemp>16.0</ns3:atemp>
            <ns3:hr>136</ns3:hr>
          </ns3:TrackPointExtension>
        </extensions>
      </trkpt>
      <trkpt lat="-22.067885734140872955322265625" lon="166.4467544294893741607666015625">
        <ele>880.20001220703125</ele>
        <time>2016-08-12T19:01:34.000Z</time>
        <extensions>
          <ns3:TrackPointExtension>
            <ns3:atemp>16.0</ns3:atemp>
            <ns3:hr>137</ns3:hr>
          </ns3:TrackPointExtension>
        </extensions>
      </trkpt>
      <trkpt lat="-22.06786486320197582244873046875" lon="166.44674831070005893707275390625">
        <ele>880.5999755859375</ele>
        <time>2016-08-12T19:01:35.000Z</time>
        <extensions>
          <ns3:TrackPointExtension>
            <ns3:atemp>16.0</ns3:atemp>
            <ns3:hr>137</ns3:hr>
          </ns3:TrackPointExtension>
        </extensions>
      </trkpt>
      <trkpt lat="-22.06784407608211040496826171875" lon="166.44674143753945827484130859375">
        <ele>880.4000244140625</ele>
        <time>2016-08-12T19:01:36.000Z</time>
        <extensions>
          <ns3:TrackPointExtension>
            <ns3:atemp>16.0</ns3:atemp>
            <ns3:hr>138</ns3:hr>
          </ns3:TrackPointExtension>
        </extensions>
      </trkpt>
      <trkpt lat="-22.06782094202935695648193359375" lon="166.44673540256917476654052734375">
        <ele>880.20001220703125</ele>
        <time>2016-08-12T19:01:37.000Z</time>
        <extensions>
          <ns3:TrackPointExtension>
            <ns3:atemp>16.0</ns3:atemp>
            <ns3:hr>138</ns3:hr>
          </ns3:TrackPointExtension>
        </extensions>
      </trkpt>
      <trkpt lat="-22.06779764033854007720947265625" lon="166.446732468903064727783203125">
        <ele>880.4000244140625</ele>
        <time>2016-08-12T19:01:38.000Z</time>
        <extensions>
          <ns3:TrackPointExtension>
            <ns3:atemp>16.0</ns3:atemp>
            <ns3:hr>138</ns3:hr>
          </ns3:TrackPointExtension>
        </extensions>
      </trkpt>
      <trkpt lat="-22.06777785904705524444580078125" lon="166.44672802649438381195068359375">
        <ele>880.79998779296875</ele>
        <time>2016-08-12T19:01:39.000Z</time>
        <extensions>
          <ns3:TrackPointExtension>
            <ns3:atemp>16.0</ns3:atemp>
            <ns3:hr>138</ns3:hr>
          </ns3:TrackPointExtension>
        </extensions>
      </trkpt>
      <trkpt lat="-22.06775556318461894989013671875" lon="166.44672014750540256500244140625">
        <ele>880.79998779296875</ele>
        <time>2016-08-12T19:01:40.000Z</time>
        <extensions>
          <ns3:TrackPointExtension>
            <ns3:atemp>16.0</ns3:atemp>
            <ns3:hr>139</ns3:hr>
          </ns3:TrackPointExtension>
        </extensions>
      </trkpt>
      <trkpt lat="-22.0677353627979755401611328125" lon="166.44670941866934299468994140625">
        <ele>880.79998779296875</ele>
        <time>2016-08-12T19:01:41.000Z</time>
        <extensions>
          <ns3:TrackPointExtension>
            <ns3:atemp>16.0</ns3:atemp>
            <ns3:hr>139</ns3:hr>
          </ns3:TrackPointExtension>
        </extensions>
      </trkpt>
      <trkpt lat="-22.0677169226109981536865234375" lon="166.44669433124363422393798828125">
        <ele>881</ele>
        <time>2016-08-12T19:01:42.000Z</time>
        <extensions>
          <ns3:TrackPointExtension>
            <ns3:atemp>16.0</ns3:atemp>
            <ns3:hr>139</ns3:hr>
          </ns3:TrackPointExtension>
        </extensions>
      </trkpt>
      <trkpt lat="-22.06769756041467189788818359375" lon="166.446681506931781768798828125">
        <ele>881.4000244140625</ele>
        <time>2016-08-12T19:01:43.000Z</time>
        <extensions>
          <ns3:TrackPointExtension>
            <ns3:atemp>16.0</ns3:atemp>
            <ns3:hr>139</ns3:hr>
          </ns3:TrackPointExtension>
        </extensions>
      </trkpt>
      <trkpt lat="-22.06767551600933074951171875" lon="166.44666709005832672119140625">
        <ele>881.4000244140625</ele>
        <time>2016-08-12T19:01:44.000Z</time>
        <extensions>
          <ns3:TrackPointExtension>
            <ns3:atemp>16.0</ns3:atemp>
            <ns3:hr>139</ns3:hr>
          </ns3:TrackPointExtension>
        </extensions>
      </trkpt>
      <trkpt lat="-22.06765380688011646270751953125" lon="166.44665242172777652740478515625">
        <ele>881.20001220703125</ele>
        <time>2016-08-12T19:01:45.000Z</time>
        <extensions>
          <ns3:TrackPointExtension>
            <ns3:atemp>16.0</ns3:atemp>
            <ns3:hr>139</ns3:hr>
          </ns3:TrackPointExtension>
        </extensions>
      </trkpt>
      <trkpt lat="-22.06763285212218761444091796875" lon="166.44663917832076549530029296875">
        <ele>881.4000244140625</ele>
        <time>2016-08-12T19:01:46.000Z</time>
        <extensions>
          <ns3:TrackPointExtension>
            <ns3:atemp>16.0</ns3:atemp>
            <ns3:hr>139</ns3:hr>
          </ns3:TrackPointExtension>
        </extensions>
      </trkpt>
      <trkpt lat="-22.06761709414422512054443359375" lon="166.44662995822727680206298828125">
        <ele>881.79998779296875</ele>
        <time>2016-08-12T19:01:47.000Z</time>
        <extensions>
          <ns3:TrackPointExtension>
            <ns3:atemp>16.0</ns3:atemp>
            <ns3:hr>139</ns3:hr>
          </ns3:TrackPointExtension>
        </extensions>
      </trkpt>
      <trkpt lat="-22.06760175526142120361328125" lon="166.446617133915424346923828125">
        <ele>882.20001220703125</ele>
        <time>2016-08-12T19:01:48.000Z</time>
        <extensions>
          <ns3:TrackPointExtension>
            <ns3:atemp>16.0</ns3:atemp>
            <ns3:hr>139</ns3:hr>
          </ns3:TrackPointExtension>
        </extensions>
      </trkpt>
      <trkpt lat="-22.0675851590931415557861328125" lon="166.44660699181258678436279296875">
        <ele>882</ele>
        <time>2016-08-12T19:01:49.000Z</time>
        <extensions>
          <ns3:TrackPointExtension>
            <ns3:atemp>16.0</ns3:atemp>
            <ns3:hr>139</ns3:hr>
          </ns3:TrackPointExtension>
        </extensions>
      </trkpt>
      <trkpt lat="-22.06756780855357646942138671875" lon="166.44659676589071750640869140625">
        <ele>881.79998779296875</ele>
        <time>2016-08-12T19:01:50.000Z</time>
        <extensions>
          <ns3:TrackPointExtension>
            <ns3:atemp>16.0</ns3:atemp>
            <ns3:hr>140</ns3:hr>
          </ns3:TrackPointExtension>
        </extensions>
      </trkpt>
      <trkpt lat="-22.06755037419497966766357421875" lon="166.44658838398754596710205078125">
        <ele>882.20001220703125</ele>
        <time>2016-08-12T19:01:51.000Z</time>
        <extensions>
          <ns3:TrackPointExtension>
            <ns3:atemp>16.0</ns3:atemp>
            <ns3:hr>139</ns3:hr>
          </ns3:TrackPointExtension>
        </extensions>
      </trkpt>
      <trkpt lat="-22.06753126345574855804443359375" lon="166.446580924093723297119140625">
        <ele>882.5999755859375</ele>
        <time>2016-08-12T19:01:52.000Z</time>
        <extensions>
          <ns3:TrackPointExtension>
            <ns3:atemp>16.0</ns3:atemp>
            <ns3:hr>140</ns3:hr>
          </ns3:TrackPointExtension>
        </extensions>
      </trkpt>
      <trkpt lat="-22.06751131452620029449462890625" lon="166.4465727098286151885986328125">
        <ele>882.4000244140625</ele>
        <time>2016-08-12T19:01:53.000Z</time>
        <extensions>
          <ns3:TrackPointExtension>
            <ns3:atemp>16.0</ns3:atemp>
            <ns3:hr>140</ns3:hr>
          </ns3:TrackPointExtension>
        </extensions>
      </trkpt>
      <trkpt lat="-22.0674916170537471771240234375" lon="166.44656742922961711883544921875">
        <ele>882.4000244140625</ele>
        <time>2016-08-12T19:01:54.000Z</time>
        <extensions>
          <ns3:TrackPointExtension>
            <ns3:atemp>16.0</ns3:atemp>
            <ns3:hr>140</ns3:hr>
          </ns3:TrackPointExtension>
        </extensions>
      </trkpt>
      <trkpt lat="-22.06747326068580150604248046875" lon="166.4465532638132572174072265625">
        <ele>882.5999755859375</ele>
        <time>2016-08-12T19:01:55.000Z</time>
        <extensions>
          <ns3:TrackPointExtension>
            <ns3:atemp>16.0</ns3:atemp>
            <ns3:hr>140</ns3:hr>
          </ns3:TrackPointExtension>
        </extensions>
      </trkpt>
      <trkpt lat="-22.06745314411818981170654296875" lon="166.44653926603496074676513671875">
        <ele>883</ele>
        <time>2016-08-12T19:01:56.000Z</time>
        <extensions>
          <ns3:TrackPointExtension>
            <ns3:atemp>16.0</ns3:atemp>
            <ns3:hr>140</ns3:hr>
          </ns3:TrackPointExtension>
        </extensions>
      </trkpt>
      <trkpt lat="-22.067434452474117279052734375" lon="166.4465296268463134765625">
        <ele>883.20001220703125</ele>
        <time>2016-08-12T19:01:57.000Z</time>
        <extensions>
          <ns3:TrackPointExtension>
            <ns3:atemp>16.0</ns3:atemp>
            <ns3:hr>140</ns3:hr>
          </ns3:TrackPointExtension>
        </extensions>
      </trkpt>
      <trkpt lat="-22.06741006113588809967041015625" lon="166.44651956856250762939453125">
        <ele>883</ele>
        <time>2016-08-12T19:01:58.000Z</time>
        <extensions>
          <ns3:TrackPointExtension>
            <ns3:atemp>16.0</ns3:atemp>
            <ns3:hr>139</ns3:hr>
          </ns3:TrackPointExtension>
        </extensions>
      </trkpt>
      <trkpt lat="-22.06738893873989582061767578125" lon="166.446507833898067474365234375">
        <ele>883</ele>
        <time>2016-08-12T19:01:59.000Z</time>
        <extensions>
          <ns3:TrackPointExtension>
            <ns3:atemp>16.0</ns3:atemp>
            <ns3:hr>140</ns3:hr>
          </ns3:TrackPointExtension>
        </extensions>
      </trkpt>
      <trkpt lat="-22.06737066619098186492919921875" lon="166.4465014636516571044921875">
        <ele>883.5999755859375</ele>
        <time>2016-08-12T19:02:00.000Z</time>
        <extensions>
          <ns3:TrackPointExtension>
            <ns3:atemp>16.0</ns3:atemp>
            <ns3:hr>140</ns3:hr>
          </ns3:TrackPointExtension>
        </extensions>
      </trkpt>
      <trkpt lat="-22.067347951233386993408203125" lon="166.44649207592010498046875">
        <ele>884</ele>
        <time>2016-08-12T19:02:01.000Z</time>
        <extensions>
          <ns3:TrackPointExtension>
            <ns3:atemp>16.0</ns3:atemp>
            <ns3:hr>140</ns3:hr>
          </ns3:TrackPointExtension>
        </extensions>
      </trkpt>
      <trkpt lat="-22.0673269964754581451416015625" lon="166.44648159854114055633544921875">
        <ele>883.79998779296875</ele>
        <time>2016-08-12T19:02:02.000Z</time>
        <extensions>
          <ns3:TrackPointExtension>
            <ns3:atemp>16.0</ns3:atemp>
            <ns3:hr>140</ns3:hr>
          </ns3:TrackPointExtension>
        </extensions>
      </trkpt>
      <trkpt lat="-22.0673045329749584197998046875" lon="166.44647371955215930938720703125">
        <ele>883.5999755859375</ele>
        <time>2016-08-12T19:02:03.000Z</time>
        <extensions>
          <ns3:TrackPointExtension>
            <ns3:atemp>16.0</ns3:atemp>
            <ns3:hr>140</ns3:hr>
          </ns3:TrackPointExtension>
        </extensions>
      </trkpt>
      <trkpt lat="-22.06728315912187099456787109375" lon="166.446465589106082916259765625">
        <ele>883.5999755859375</ele>
        <time>2016-08-12T19:02:04.000Z</time>
        <extensions>
          <ns3:TrackPointExtension>
            <ns3:atemp>16.0</ns3:atemp>
            <ns3:hr>140</ns3:hr>
          </ns3:TrackPointExtension>
        </extensions>
      </trkpt>
      <trkpt lat="-22.0672646351158618927001953125" lon="166.4464597217738628387451171875">
        <ele>884.20001220703125</ele>
        <time>2016-08-12T19:02:05.000Z</time>
        <extensions>
          <ns3:TrackPointExtension>
            <ns3:atemp>16.0</ns3:atemp>
            <ns3:hr>140</ns3:hr>
          </ns3:TrackPointExtension>
        </extensions>
      </trkpt>
      <trkpt lat="-22.0672425068914890289306640625" lon="166.4464550279080867767333984375">
        <ele>884.5999755859375</ele>
        <time>2016-08-12T19:02:06.000Z</time>
        <extensions>
          <ns3:TrackPointExtension>
            <ns3:atemp>16.0</ns3:atemp>
            <ns3:hr>140</ns3:hr>
          </ns3:TrackPointExtension>
        </extensions>
      </trkpt>
      <trkpt lat="-22.067222557961940765380859375" lon="166.4464520104229450225830078125">
        <ele>884.4000244140625</ele>
        <time>2016-08-12T19:02:07.000Z</time>
        <extensions>
          <ns3:TrackPointExtension>
            <ns3:atemp>16.0</ns3:atemp>
            <ns3:hr>141</ns3:hr>
          </ns3:TrackPointExtension>
        </extensions>
      </trkpt>
      <trkpt lat="-22.0672039501368999481201171875" lon="166.44644656218588352203369140625">
        <ele>884.20001220703125</ele>
        <time>2016-08-12T19:02:08.000Z</time>
        <extensions>
          <ns3:TrackPointExtension>
            <ns3:atemp>16.0</ns3:atemp>
            <ns3:hr>141</ns3:hr>
          </ns3:TrackPointExtension>
        </extensions>
      </trkpt>
      <trkpt lat="-22.06718240864574909210205078125" lon="166.44644354470074176788330078125">
        <ele>884.79998779296875</ele>
        <time>2016-08-12T19:02:09.000Z</time>
        <extensions>
          <ns3:TrackPointExtension>
            <ns3:atemp>16.0</ns3:atemp>
            <ns3:hr>141</ns3:hr>
          </ns3:TrackPointExtension>
        </extensions>
      </trkpt>
      <trkpt lat="-22.067164890468120574951171875" lon="166.44644002430140972137451171875">
        <ele>885.20001220703125</ele>
        <time>2016-08-12T19:02:10.000Z</time>
        <extensions>
          <ns3:TrackPointExtension>
            <ns3:atemp>16.0</ns3:atemp>
            <ns3:hr>141</ns3:hr>
          </ns3:TrackPointExtension>
        </extensions>
      </trkpt>
      <trkpt lat="-22.06714469008147716522216796875" lon="166.4464370906352996826171875">
        <ele>885.20001220703125</ele>
        <time>2016-08-12T19:02:11.000Z</time>
        <extensions>
          <ns3:TrackPointExtension>
            <ns3:atemp>16.0</ns3:atemp>
            <ns3:hr>141</ns3:hr>
          </ns3:TrackPointExtension>
        </extensions>
      </trkpt>
      <trkpt lat="-22.06712272949516773223876953125" lon="166.44643449224531650543212890625">
        <ele>885</ele>
        <time>2016-08-12T19:02:12.000Z</time>
        <extensions>
          <ns3:TrackPointExtension>
            <ns3:atemp>16.0</ns3:atemp>
            <ns3:hr>141</ns3:hr>
          </ns3:TrackPointExtension>
        </extensions>
      </trkpt>
      <trkpt lat="-22.06710127182304859161376953125" lon="166.44642963074147701263427734375">
        <ele>885.5999755859375</ele>
        <time>2016-08-12T19:02:13.000Z</time>
        <extensions>
          <ns3:TrackPointExtension>
            <ns3:atemp>16.0</ns3:atemp>
            <ns3:hr>141</ns3:hr>
          </ns3:TrackPointExtension>
        </extensions>
      </trkpt>
      <trkpt lat="-22.06707813777029514312744140625" lon="166.4464295469224452972412109375">
        <ele>886</ele>
        <time>2016-08-12T19:02:14.000Z</time>
        <extensions>
          <ns3:TrackPointExtension>
            <ns3:atemp>16.0</ns3:atemp>
            <ns3:hr>141</ns3:hr>
          </ns3:TrackPointExtension>
        </extensions>
      </trkpt>
      <trkpt lat="-22.0670564286410808563232421875" lon="166.4464295469224452972412109375">
        <ele>886</ele>
        <time>2016-08-12T19:02:15.000Z</time>
        <extensions>
          <ns3:TrackPointExtension>
            <ns3:atemp>16.0</ns3:atemp>
            <ns3:hr>141</ns3:hr>
          </ns3:TrackPointExtension>
        </extensions>
      </trkpt>
      <trkpt lat="-22.06703522242605686187744140625" lon="166.44643063656985759735107421875">
        <ele>886.20001220703125</ele>
        <time>2016-08-12T19:02:16.000Z</time>
        <extensions>
          <ns3:TrackPointExtension>
            <ns3:atemp>16.0</ns3:atemp>
            <ns3:hr>142</ns3:hr>
          </ns3:TrackPointExtension>
        </extensions>
      </trkpt>
      <trkpt lat="-22.06701242364943027496337890625" lon="166.44643482752144336700439453125">
        <ele>886.5999755859375</ele>
        <time>2016-08-12T19:02:17.000Z</time>
        <extensions>
          <ns3:TrackPointExtension>
            <ns3:atemp>16.0</ns3:atemp>
            <ns3:hr>142</ns3:hr>
          </ns3:TrackPointExtension>
        </extensions>
      </trkpt>
      <trkpt lat="-22.066991217434406280517578125" lon="166.44643717445433139801025390625">
        <ele>886.79998779296875</ele>
        <time>2016-08-12T19:02:18.000Z</time>
        <extensions>
          <ns3:TrackPointExtension>
            <ns3:atemp>16.0</ns3:atemp>
            <ns3:hr>142</ns3:hr>
          </ns3:TrackPointExtension>
        </extensions>
      </trkpt>
      <trkpt lat="-22.06696816720068454742431640625" lon="166.4464453049004077911376953125">
        <ele>886.5999755859375</ele>
        <time>2016-08-12T19:02:19.000Z</time>
        <extensions>
          <ns3:TrackPointExtension>
            <ns3:atemp>16.0</ns3:atemp>
            <ns3:hr>142</ns3:hr>
          </ns3:TrackPointExtension>
        </extensions>
      </trkpt>
      <trkpt lat="-22.06694520078599452972412109375" lon="166.44645745866000652313232421875">
        <ele>887</ele>
        <time>2016-08-12T19:02:20.000Z</time>
        <extensions>
          <ns3:TrackPointExtension>
            <ns3:atemp>16.0</ns3:atemp>
            <ns3:hr>142</ns3:hr>
          </ns3:TrackPointExtension>
        </extensions>
      </trkpt>
      <trkpt lat="-22.0669270120561122894287109375" lon="166.446467936038970947265625">
        <ele>887.20001220703125</ele>
        <time>2016-08-12T19:02:21.000Z</time>
        <extensions>
          <ns3:TrackPointExtension>
            <ns3:atemp>16.0</ns3:atemp>
            <ns3:hr>142</ns3:hr>
          </ns3:TrackPointExtension>
        </extensions>
      </trkpt>
      <trkpt lat="-22.066906392574310302734375" lon="166.44648361019790172576904296875">
        <ele>887.20001220703125</ele>
        <time>2016-08-12T19:02:22.000Z</time>
        <extensions>
          <ns3:TrackPointExtension>
            <ns3:atemp>16.0</ns3:atemp>
            <ns3:hr>142</ns3:hr>
          </ns3:TrackPointExtension>
        </extensions>
      </trkpt>
      <trkpt lat="-22.0668867789208889007568359375" lon="166.44650037400424480438232421875">
        <ele>887.20001220703125</ele>
        <time>2016-08-12T19:02:23.000Z</time>
        <extensions>
          <ns3:TrackPointExtension>
            <ns3:atemp>16.0</ns3:atemp>
            <ns3:hr>142</ns3:hr>
          </ns3:TrackPointExtension>
        </extensions>
      </trkpt>
      <trkpt lat="-22.06686607562005519866943359375" lon="166.44651512615382671356201171875">
        <ele>887.4000244140625</ele>
        <time>2016-08-12T19:02:24.000Z</time>
        <extensions>
          <ns3:TrackPointExtension>
            <ns3:atemp>16.0</ns3:atemp>
            <ns3:hr>142</ns3:hr>
          </ns3:TrackPointExtension>
        </extensions>
      </trkpt>
      <trkpt lat="-22.06684495322406291961669921875" lon="166.44653071649372577667236328125">
        <ele>887</ele>
        <time>2016-08-12T19:02:25.000Z</time>
        <extensions>
          <ns3:TrackPointExtension>
            <ns3:atemp>16.0</ns3:atemp>
            <ns3:hr>142</ns3:hr>
          </ns3:TrackPointExtension>
        </extensions>
      </trkpt>
      <trkpt lat="-22.06682366319000720977783203125" lon="166.4465443789958953857421875">
        <ele>886.79998779296875</ele>
        <time>2016-08-12T19:02:26.000Z</time>
        <extensions>
          <ns3:TrackPointExtension>
            <ns3:atemp>16.0</ns3:atemp>
            <ns3:hr>141</ns3:hr>
          </ns3:TrackPointExtension>
        </extensions>
      </trkpt>
      <trkpt lat="-22.066796086728572845458984375" lon="166.44655443727970123291015625">
        <ele>887</ele>
        <time>2016-08-12T19:02:27.000Z</time>
        <extensions>
          <ns3:TrackPointExtension>
            <ns3:atemp>16.0</ns3:atemp>
            <ns3:hr>141</ns3:hr>
          </ns3:TrackPointExtension>
        </extensions>
      </trkpt>
      <trkpt lat="-22.06676934845745563507080078125" lon="166.446566171944141387939453125">
        <ele>886.79998779296875</ele>
        <time>2016-08-12T19:02:28.000Z</time>
        <extensions>
          <ns3:TrackPointExtension>
            <ns3:atemp>16.0</ns3:atemp>
            <ns3:hr>141</ns3:hr>
          </ns3:TrackPointExtension>
        </extensions>
      </trkpt>
      <trkpt lat="-22.06674520857632160186767578125" lon="166.44657346419990062713623046875">
        <ele>886.4000244140625</ele>
        <time>2016-08-12T19:02:29.000Z</time>
        <extensions>
          <ns3:TrackPointExtension>
            <ns3:atemp>16.0</ns3:atemp>
            <ns3:hr>141</ns3:hr>
          </ns3:TrackPointExtension>
        </extensions>
      </trkpt>
      <trkpt lat="-22.066722996532917022705078125" lon="166.446583271026611328125">
        <ele>886.4000244140625</ele>
        <time>2016-08-12T19:02:30.000Z</time>
        <extensions>
          <ns3:TrackPointExtension>
            <ns3:atemp>16.0</ns3:atemp>
            <ns3:hr>141</ns3:hr>
          </ns3:TrackPointExtension>
        </extensions>
      </trkpt>
      <trkpt lat="-22.0666986890137195587158203125" lon="166.44659441895782947540283203125">
        <ele>886.5999755859375</ele>
        <time>2016-08-12T19:02:31.000Z</time>
        <extensions>
          <ns3:TrackPointExtension>
            <ns3:atemp>16.0</ns3:atemp>
            <ns3:hr>141</ns3:hr>
          </ns3:TrackPointExtension>
        </extensions>
      </trkpt>
      <trkpt lat="-22.06667865626513957977294921875" lon="166.44660699181258678436279296875">
        <ele>886.20001220703125</ele>
        <time>2016-08-12T19:02:32.000Z</time>
        <extensions>
          <ns3:TrackPointExtension>
            <ns3:atemp>16.0</ns3:atemp>
            <ns3:hr>140</ns3:hr>
          </ns3:TrackPointExtension>
        </extensions>
      </trkpt>
      <trkpt lat="-22.06665468402206897735595703125" lon="166.44661436788737773895263671875">
        <ele>885.79998779296875</ele>
        <time>2016-08-12T19:02:33.000Z</time>
        <extensions>
          <ns3:TrackPointExtension>
            <ns3:atemp>16.0</ns3:atemp>
            <ns3:hr>140</ns3:hr>
          </ns3:TrackPointExtension>
        </extensions>
      </trkpt>
      <trkpt lat="-22.06663121469318866729736328125" lon="166.4466236717998981475830078125">
        <ele>885.5999755859375</ele>
        <time>2016-08-12T19:02:34.000Z</time>
        <extensions>
          <ns3:TrackPointExtension>
            <ns3:atemp>16.0</ns3:atemp>
            <ns3:hr>140</ns3:hr>
          </ns3:TrackPointExtension>
        </extensions>
      </trkpt>
      <trkpt lat="-22.0666128583252429962158203125" lon="166.44663088023662567138671875">
        <ele>885.4000244140625</ele>
        <time>2016-08-12T19:02:35.000Z</time>
        <extensions>
          <ns3:TrackPointExtension>
            <ns3:atemp>16.0</ns3:atemp>
            <ns3:hr>140</ns3:hr>
          </ns3:TrackPointExtension>
        </extensions>
      </trkpt>
      <trkpt lat="-22.066590897738933563232421875" lon="166.4466317184269428253173828125">
        <ele>885.4000244140625</ele>
        <time>2016-08-12T19:02:36.000Z</time>
        <extensions>
          <ns3:TrackPointExtension>
            <ns3:atemp>16.0</ns3:atemp>
            <ns3:hr>139</ns3:hr>
          </ns3:TrackPointExtension>
        </extensions>
      </trkpt>
      <trkpt lat="-22.06656918860971927642822265625" lon="166.4466340653598308563232421875">
        <ele>885.4000244140625</ele>
        <time>2016-08-12T19:02:37.000Z</time>
        <extensions>
          <ns3:TrackPointExtension>
            <ns3:atemp>16.0</ns3:atemp>
            <ns3:hr>139</ns3:hr>
          </ns3:TrackPointExtension>
        </extensions>
      </trkpt>
      <trkpt lat="-22.066545300185680389404296875" lon="166.44663582555949687957763671875">
        <ele>885.79998779296875</ele>
        <time>2016-08-12T19:02:38.000Z</time>
        <extensions>
          <ns3:TrackPointExtension>
            <ns3:atemp>16.0</ns3:atemp>
            <ns3:hr>139</ns3:hr>
          </ns3:TrackPointExtension>
        </extensions>
      </trkpt>
      <trkpt lat="-22.06652107648551464080810546875" lon="166.44663515500724315643310546875">
        <ele>886.20001220703125</ele>
        <time>2016-08-12T19:02:39.000Z</time>
        <extensions>
          <ns3:TrackPointExtension>
            <ns3:atemp>16.0</ns3:atemp>
            <ns3:hr>139</ns3:hr>
          </ns3:TrackPointExtension>
        </extensions>
      </trkpt>
      <trkpt lat="-22.06649995408952236175537109375" lon="166.44663666374981403350830078125">
        <ele>886.4000244140625</ele>
        <time>2016-08-12T19:02:40.000Z</time>
        <extensions>
          <ns3:TrackPointExtension>
            <ns3:atemp>16.0</ns3:atemp>
            <ns3:hr>139</ns3:hr>
          </ns3:TrackPointExtension>
        </extensions>
      </trkpt>
      <trkpt lat="-22.066474892199039459228515625" lon="166.44663800485432147979736328125">
        <ele>886</ele>
        <time>2016-08-12T19:02:41.000Z</time>
        <extensions>
          <ns3:TrackPointExtension>
            <ns3:atemp>16.0</ns3:atemp>
            <ns3:hr>139</ns3:hr>
          </ns3:TrackPointExtension>
        </extensions>
      </trkpt>
      <trkpt lat="-22.06645309925079345703125" lon="166.4466360770165920257568359375">
        <ele>885.79998779296875</ele>
        <time>2016-08-12T19:02:42.000Z</time>
        <extensions>
          <ns3:TrackPointExtension>
            <ns3:atemp>16.0</ns3:atemp>
            <ns3:hr>139</ns3:hr>
          </ns3:TrackPointExtension>
        </extensions>
      </trkpt>
      <trkpt lat="-22.06642753444612026214599609375" lon="166.44663666374981403350830078125">
        <ele>886</ele>
        <time>2016-08-12T19:02:43.000Z</time>
        <extensions>
          <ns3:TrackPointExtension>
            <ns3:atemp>16.0</ns3:atemp>
            <ns3:hr>139</ns3:hr>
          </ns3:TrackPointExtension>
        </extensions>
      </trkpt>
      <trkpt lat="-22.0664002932608127593994140625" lon="166.44663766957819461822509765625">
        <ele>886.4000244140625</ele>
        <time>2016-08-12T19:02:44.000Z</time>
        <extensions>
          <ns3:TrackPointExtension>
            <ns3:atemp>16.0</ns3:atemp>
            <ns3:hr>139</ns3:hr>
          </ns3:TrackPointExtension>
        </extensions>
      </trkpt>
      <trkpt lat="-22.0663764886558055877685546875" lon="166.44663834013044834136962890625">
        <ele>886.20001220703125</ele>
        <time>2016-08-12T19:02:45.000Z</time>
        <extensions>
          <ns3:TrackPointExtension>
            <ns3:atemp>16.0</ns3:atemp>
            <ns3:hr>138</ns3:hr>
          </ns3:TrackPointExtension>
        </extensions>
      </trkpt>
      <trkpt lat="-22.06635176204144954681396484375" lon="166.44664186052978038787841796875">
        <ele>886</ele>
        <time>2016-08-12T19:02:46.000Z</time>
        <extensions>
          <ns3:TrackPointExtension>
            <ns3:atemp>16.0</ns3:atemp>
            <ns3:hr>139</ns3:hr>
          </ns3:TrackPointExtension>
        </extensions>
      </trkpt>
      <trkpt lat="-22.06632594577968120574951171875" lon="166.4466468058526515960693359375">
        <ele>886.20001220703125</ele>
        <time>2016-08-12T19:02:47.000Z</time>
        <extensions>
          <ns3:TrackPointExtension>
            <ns3:atemp>16.0</ns3:atemp>
            <ns3:hr>138</ns3:hr>
          </ns3:TrackPointExtension>
        </extensions>
      </trkpt>
      <trkpt lat="-22.06630029715597629547119140625" lon="166.44665258936583995819091796875">
        <ele>886.5999755859375</ele>
        <time>2016-08-12T19:02:48.000Z</time>
        <extensions>
          <ns3:TrackPointExtension>
            <ns3:atemp>16.0</ns3:atemp>
            <ns3:hr>138</ns3:hr>
          </ns3:TrackPointExtension>
        </extensions>
      </trkpt>
      <trkpt lat="-22.0662752352654933929443359375" lon="166.446661055088043212890625">
        <ele>886.5999755859375</ele>
        <time>2016-08-12T19:02:49.000Z</time>
        <extensions>
          <ns3:TrackPointExtension>
            <ns3:atemp>16.0</ns3:atemp>
            <ns3:hr>138</ns3:hr>
          </ns3:TrackPointExtension>
        </extensions>
      </trkpt>
      <trkpt lat="-22.0662505924701690673828125" lon="166.4466709457337856292724609375">
        <ele>886.20001220703125</ele>
        <time>2016-08-12T19:02:50.000Z</time>
        <extensions>
          <ns3:TrackPointExtension>
            <ns3:atemp>16.0</ns3:atemp>
            <ns3:hr>138</ns3:hr>
          </ns3:TrackPointExtension>
        </extensions>
      </trkpt>
      <trkpt lat="-22.0662266202270984649658203125" lon="166.44667807035148143768310546875">
        <ele>885.79998779296875</ele>
        <time>2016-08-12T19:02:51.000Z</time>
        <extensions>
          <ns3:TrackPointExtension>
            <ns3:atemp>16.0</ns3:atemp>
            <ns3:hr>137</ns3:hr>
          </ns3:TrackPointExtension>
        </extensions>
      </trkpt>
      <trkpt lat="-22.06620641984045505523681640625" lon="166.4466873742640018463134765625">
        <ele>885.5999755859375</ele>
        <time>2016-08-12T19:02:52.000Z</time>
        <extensions>
          <ns3:TrackPointExtension>
            <ns3:atemp>16.0</ns3:atemp>
            <ns3:hr>137</ns3:hr>
          </ns3:TrackPointExtension>
        </extensions>
      </trkpt>
      <trkpt lat="-22.06618512980639934539794921875" lon="166.44669701345264911651611328125">
        <ele>885.4000244140625</ele>
        <time>2016-08-12T19:02:53.000Z</time>
        <extensions>
          <ns3:TrackPointExtension>
            <ns3:atemp>16.0</ns3:atemp>
            <ns3:hr>137</ns3:hr>
          </ns3:TrackPointExtension>
        </extensions>
      </trkpt>
      <trkpt lat="-22.0661639235913753509521484375" lon="166.44670732319355010986328125">
        <ele>885.4000244140625</ele>
        <time>2016-08-12T19:02:54.000Z</time>
        <extensions>
          <ns3:TrackPointExtension>
            <ns3:atemp>16.0</ns3:atemp>
            <ns3:hr>137</ns3:hr>
          </ns3:TrackPointExtension>
        </extensions>
      </trkpt>
      <trkpt lat="-22.06614271737635135650634765625" lon="166.4467160403728485107421875">
        <ele>885.4000244140625</ele>
        <time>2016-08-12T19:02:55.000Z</time>
        <extensions>
          <ns3:TrackPointExtension>
            <ns3:atemp>16.0</ns3:atemp>
            <ns3:hr>136</ns3:hr>
          </ns3:TrackPointExtension>
        </extensions>
      </trkpt>
      <trkpt lat="-22.0661218464374542236328125" lon="166.44672702066600322723388671875">
        <ele>885.4000244140625</ele>
        <time>2016-08-12T19:02:56.000Z</time>
        <extensions>
          <ns3:TrackPointExtension>
            <ns3:atemp>16.0</ns3:atemp>
            <ns3:hr>136</ns3:hr>
          </ns3:TrackPointExtension>
        </extensions>
      </trkpt>
      <trkpt lat="-22.066099382936954498291015625" lon="166.4467374980449676513671875">
        <ele>885.4000244140625</ele>
        <time>2016-08-12T19:02:57.000Z</time>
        <extensions>
          <ns3:TrackPointExtension>
            <ns3:atemp>16.0</ns3:atemp>
            <ns3:hr>136</ns3:hr>
          </ns3:TrackPointExtension>
        </extensions>
      </trkpt>
      <trkpt lat="-22.06607867963612079620361328125" lon="166.44674914889037609100341796875">
        <ele>885.4000244140625</ele>
        <time>2016-08-12T19:02:58.000Z</time>
        <extensions>
          <ns3:TrackPointExtension>
            <ns3:atemp>16.0</ns3:atemp>
            <ns3:hr>136</ns3:hr>
          </ns3:TrackPointExtension>
        </extensions>
      </trkpt>
      <trkpt lat="-22.06605906598269939422607421875" lon="166.44675903953611850738525390625">
        <ele>885.4000244140625</ele>
        <time>2016-08-12T19:02:59.000Z</time>
        <extensions>
          <ns3:TrackPointExtension>
            <ns3:atemp>16.0</ns3:atemp>
            <ns3:hr>136</ns3:hr>
          </ns3:TrackPointExtension>
        </extensions>
      </trkpt>
      <trkpt lat="-22.06603928469121456146240234375" lon="166.446768678724765777587890625">
        <ele>885.4000244140625</ele>
        <time>2016-08-12T19:03:00.000Z</time>
        <extensions>
          <ns3:TrackPointExtension>
            <ns3:atemp>16.0</ns3:atemp>
            <ns3:hr>136</ns3:hr>
          </ns3:TrackPointExtension>
        </extensions>
      </trkpt>
      <trkpt lat="-22.06601765938103199005126953125" lon="166.4467789046466350555419921875">
        <ele>885.4000244140625</ele>
        <time>2016-08-12T19:03:01.000Z</time>
        <extensions>
          <ns3:TrackPointExtension>
            <ns3:atemp>16.0</ns3:atemp>
            <ns3:hr>136</ns3:hr>
          </ns3:TrackPointExtension>
        </extensions>
      </trkpt>
      <trkpt lat="-22.06599787808954715728759765625" lon="166.4467871189117431640625">
        <ele>885.4000244140625</ele>
        <time>2016-08-12T19:03:02.000Z</time>
        <extensions>
          <ns3:TrackPointExtension>
            <ns3:atemp>16.0</ns3:atemp>
            <ns3:hr>136</ns3:hr>
          </ns3:TrackPointExtension>
        </extensions>
      </trkpt>
      <trkpt lat="-22.06597692333161830902099609375" lon="166.44679659046232700347900390625">
        <ele>885.5999755859375</ele>
        <time>2016-08-12T19:03:03.000Z</time>
        <extensions>
          <ns3:TrackPointExtension>
            <ns3:atemp>16.0</ns3:atemp>
            <ns3:hr>136</ns3:hr>
          </ns3:TrackPointExtension>
        </extensions>
      </trkpt>
      <trkpt lat="-22.06595890223979949951171875" lon="166.44680648110806941986083984375">
        <ele>885.79998779296875</ele>
        <time>2016-08-12T19:03:04.000Z</time>
        <extensions>
          <ns3:TrackPointExtension>
            <ns3:atemp>16.0</ns3:atemp>
            <ns3:hr>136</ns3:hr>
          </ns3:TrackPointExtension>
        </extensions>
      </trkpt>
      <trkpt lat="-22.06594138406217098236083984375" lon="166.44681394100189208984375">
        <ele>886</ele>
        <time>2016-08-12T19:03:05.000Z</time>
        <extensions>
          <ns3:TrackPointExtension>
            <ns3:atemp>16.0</ns3:atemp>
            <ns3:hr>136</ns3:hr>
          </ns3:TrackPointExtension>
        </extensions>
      </trkpt>
      <trkpt lat="-22.06592210568487644195556640625" lon="166.4468214847147464752197265625">
        <ele>886</ele>
        <time>2016-08-12T19:03:06.000Z</time>
        <extensions>
          <ns3:TrackPointExtension>
            <ns3:atemp>16.0</ns3:atemp>
            <ns3:hr>135</ns3:hr>
          </ns3:TrackPointExtension>
        </extensions>
      </trkpt>
      <trkpt lat="-22.0659000612795352935791015625" lon="166.446825675666332244873046875">
        <ele>886</ele>
        <time>2016-08-12T19:03:07.000Z</time>
        <extensions>
          <ns3:TrackPointExtension>
            <ns3:atemp>16.0</ns3:atemp>
            <ns3:hr>136</ns3:hr>
          </ns3:TrackPointExtension>
        </extensions>
      </trkpt>
      <trkpt lat="-22.0658759213984012603759765625" lon="166.44682743586599826812744140625">
        <ele>886.20001220703125</ele>
        <time>2016-08-12T19:03:08.000Z</time>
        <extensions>
          <ns3:TrackPointExtension>
            <ns3:atemp>16.0</ns3:atemp>
            <ns3:hr>135</ns3:hr>
          </ns3:TrackPointExtension>
        </extensions>
      </trkpt>
      <trkpt lat="-22.06585169769823551177978515625" lon="166.44682936370372772216796875">
        <ele>886.20001220703125</ele>
        <time>2016-08-12T19:03:09.000Z</time>
        <extensions>
          <ns3:TrackPointExtension>
            <ns3:atemp>16.0</ns3:atemp>
            <ns3:hr>136</ns3:hr>
          </ns3:TrackPointExtension>
        </extensions>
      </trkpt>
      <trkpt lat="-22.0658273063600063323974609375" lon="166.446825005114078521728515625">
        <ele>886.20001220703125</ele>
        <time>2016-08-12T19:03:10.000Z</time>
        <extensions>
          <ns3:TrackPointExtension>
            <ns3:atemp>16.0</ns3:atemp>
            <ns3:hr>136</ns3:hr>
          </ns3:TrackPointExtension>
        </extensions>
      </trkpt>
      <trkpt lat="-22.06580358557403087615966796875" lon="166.44681821577250957489013671875">
        <ele>886.20001220703125</ele>
        <time>2016-08-12T19:03:11.000Z</time>
        <extensions>
          <ns3:TrackPointExtension>
            <ns3:atemp>16.0</ns3:atemp>
            <ns3:hr>136</ns3:hr>
          </ns3:TrackPointExtension>
        </extensions>
      </trkpt>
      <trkpt lat="-22.0657800324261188507080078125" lon="166.4468080736696720123291015625">
        <ele>886.4000244140625</ele>
        <time>2016-08-12T19:03:12.000Z</time>
        <extensions>
          <ns3:TrackPointExtension>
            <ns3:atemp>16.0</ns3:atemp>
            <ns3:hr>135</ns3:hr>
          </ns3:TrackPointExtension>
        </extensions>
      </trkpt>
      <trkpt lat="-22.0657558925449848175048828125" lon="166.44679357297718524932861328125">
        <ele>886.79998779296875</ele>
        <time>2016-08-12T19:03:13.000Z</time>
        <extensions>
          <ns3:TrackPointExtension>
            <ns3:atemp>16.0</ns3:atemp>
            <ns3:hr>136</ns3:hr>
          </ns3:TrackPointExtension>
        </extensions>
      </trkpt>
      <trkpt lat="-22.06573317758738994598388671875" lon="166.44678250886499881744384765625">
        <ele>886.5999755859375</ele>
        <time>2016-08-12T19:03:14.000Z</time>
        <extensions>
          <ns3:TrackPointExtension>
            <ns3:atemp>16.0</ns3:atemp>
            <ns3:hr>135</ns3:hr>
          </ns3:TrackPointExtension>
        </extensions>
      </trkpt>
      <trkpt lat="-22.06570853479206562042236328125" lon="166.44677169620990753173828125">
        <ele>886.4000244140625</ele>
        <time>2016-08-12T19:03:15.000Z</time>
        <extensions>
          <ns3:TrackPointExtension>
            <ns3:atemp>16.0</ns3:atemp>
            <ns3:hr>135</ns3:hr>
          </ns3:TrackPointExtension>
        </extensions>
      </trkpt>
      <trkpt lat="-22.06568540073931217193603515625" lon="166.44676323048770427703857421875">
        <ele>886.4000244140625</ele>
        <time>2016-08-12T19:03:16.000Z</time>
        <extensions>
          <ns3:TrackPointExtension>
            <ns3:atemp>16.0</ns3:atemp>
            <ns3:hr>136</ns3:hr>
          </ns3:TrackPointExtension>
        </extensions>
      </trkpt>
      <trkpt lat="-22.0656605064868927001953125" lon="166.44675451330840587615966796875">
        <ele>886.79998779296875</ele>
        <time>2016-08-12T19:03:17.000Z</time>
        <extensions>
          <ns3:TrackPointExtension>
            <ns3:atemp>16.0</ns3:atemp>
            <ns3:hr>135</ns3:hr>
          </ns3:TrackPointExtension>
        </extensions>
      </trkpt>
      <trkpt lat="-22.06563569605350494384765625" lon="166.44675216637551784515380859375">
        <ele>887</ele>
        <time>2016-08-12T19:03:18.000Z</time>
        <extensions>
          <ns3:TrackPointExtension>
            <ns3:atemp>16.0</ns3:atemp>
            <ns3:hr>135</ns3:hr>
          </ns3:TrackPointExtension>
        </extensions>
      </trkpt>
      <trkpt lat="-22.06560795195400714874267578125" lon="166.44675518386065959930419921875">
        <ele>887</ele>
        <time>2016-08-12T19:03:19.000Z</time>
        <extensions>
          <ns3:TrackPointExtension>
            <ns3:atemp>16.0</ns3:atemp>
            <ns3:hr>135</ns3:hr>
          </ns3:TrackPointExtension>
        </extensions>
      </trkpt>
      <trkpt lat="-22.0655832253396511077880859375" lon="166.44676121883094310760498046875">
        <ele>886.5999755859375</ele>
        <time>2016-08-12T19:03:20.000Z</time>
        <extensions>
          <ns3:TrackPointExtension>
            <ns3:atemp>16.0</ns3:atemp>
            <ns3:hr>135</ns3:hr>
          </ns3:TrackPointExtension>
        </extensions>
      </trkpt>
      <trkpt lat="-22.06555531360208988189697265625" lon="166.4467685110867023468017578125">
        <ele>886.4000244140625</ele>
        <time>2016-08-12T19:03:21.000Z</time>
        <extensions>
          <ns3:TrackPointExtension>
            <ns3:atemp>16.0</ns3:atemp>
            <ns3:hr>136</ns3:hr>
          </ns3:TrackPointExtension>
        </extensions>
      </trkpt>
      <trkpt lat="-22.06552631221711635589599609375" lon="166.44677831791341304779052734375">
        <ele>886.20001220703125</ele>
        <time>2016-08-12T19:03:22.000Z</time>
        <extensions>
          <ns3:TrackPointExtension>
            <ns3:atemp>16.0</ns3:atemp>
            <ns3:hr>136</ns3:hr>
          </ns3:TrackPointExtension>
        </extensions>
      </trkpt>
      <trkpt lat="-22.0655061118304729461669921875" lon="166.4467882923781871795654296875">
        <ele>886</ele>
        <time>2016-08-12T19:03:23.000Z</time>
        <extensions>
          <ns3:TrackPointExtension>
            <ns3:atemp>16.0</ns3:atemp>
            <ns3:hr>135</ns3:hr>
          </ns3:TrackPointExtension>
        </extensions>
      </trkpt>
      <trkpt lat="-22.06548817455768585205078125" lon="166.446799524128437042236328125">
        <ele>886</ele>
        <time>2016-08-12T19:03:24.000Z</time>
        <extensions>
          <ns3:TrackPointExtension>
            <ns3:atemp>16.0</ns3:atemp>
            <ns3:hr>135</ns3:hr>
          </ns3:TrackPointExtension>
        </extensions>
      </trkpt>
      <trkpt lat="-22.0654685609042644500732421875" lon="166.4468141086399555206298828125">
        <ele>886</ele>
        <time>2016-08-12T19:03:25.000Z</time>
        <extensions>
          <ns3:TrackPointExtension>
            <ns3:atemp>16.0</ns3:atemp>
            <ns3:hr>135</ns3:hr>
          </ns3:TrackPointExtension>
        </extensions>
      </trkpt>
      <trkpt lat="-22.0654474385082721710205078125" lon="166.44683263264596462249755859375">
        <ele>886</ele>
        <time>2016-08-12T19:03:26.000Z</time>
        <extensions>
          <ns3:TrackPointExtension>
            <ns3:atemp>16.0</ns3:atemp>
            <ns3:hr>135</ns3:hr>
          </ns3:TrackPointExtension>
        </extensions>
      </trkpt>
      <trkpt lat="-22.06542656756937503814697265625" lon="166.44684738479554653167724609375">
        <ele>886.20001220703125</ele>
        <time>2016-08-12T19:03:27.000Z</time>
        <extensions>
          <ns3:TrackPointExtension>
            <ns3:atemp>16.0</ns3:atemp>
            <ns3:hr>135</ns3:hr>
          </ns3:TrackPointExtension>
        </extensions>
      </trkpt>
      <trkpt lat="-22.06540678627789020538330078125" lon="166.44686222076416015625">
        <ele>886.4000244140625</ele>
        <time>2016-08-12T19:03:28.000Z</time>
        <extensions>
          <ns3:TrackPointExtension>
            <ns3:atemp>16.0</ns3:atemp>
            <ns3:hr>135</ns3:hr>
          </ns3:TrackPointExtension>
        </extensions>
      </trkpt>
      <trkpt lat="-22.06538683734834194183349609375" lon="166.44687898457050323486328125">
        <ele>886.4000244140625</ele>
        <time>2016-08-12T19:03:29.000Z</time>
        <extensions>
          <ns3:TrackPointExtension>
            <ns3:atemp>16.0</ns3:atemp>
            <ns3:hr>135</ns3:hr>
          </ns3:TrackPointExtension>
        </extensions>
      </trkpt>
      <trkpt lat="-22.0653683133423328399658203125" lon="166.4468955807387828826904296875">
        <ele>886.20001220703125</ele>
        <time>2016-08-12T19:03:30.000Z</time>
        <extensions>
          <ns3:TrackPointExtension>
            <ns3:atemp>16.0</ns3:atemp>
            <ns3:hr>134</ns3:hr>
          </ns3:TrackPointExtension>
        </extensions>
      </trkpt>
      <trkpt lat="-22.0653502084314823150634765625" lon="166.4469146914780139923095703125">
        <ele>886.20001220703125</ele>
        <time>2016-08-12T19:03:31.000Z</time>
        <extensions>
          <ns3:TrackPointExtension>
            <ns3:atemp>16.0</ns3:atemp>
            <ns3:hr>135</ns3:hr>
          </ns3:TrackPointExtension>
        </extensions>
      </trkpt>
      <trkpt lat="-22.0653347857296466827392578125" lon="166.44693556241691112518310546875">
        <ele>886.5999755859375</ele>
        <time>2016-08-12T19:03:32.000Z</time>
        <extensions>
          <ns3:TrackPointExtension>
            <ns3:atemp>16.0</ns3:atemp>
            <ns3:hr>134</ns3:hr>
          </ns3:TrackPointExtension>
        </extensions>
      </trkpt>
      <trkpt lat="-22.065320871770381927490234375" lon="166.44695500843226909637451171875">
        <ele>886.5999755859375</ele>
        <time>2016-08-12T19:03:33.000Z</time>
        <extensions>
          <ns3:TrackPointExtension>
            <ns3:atemp>16.0</ns3:atemp>
            <ns3:hr>135</ns3:hr>
          </ns3:TrackPointExtension>
        </extensions>
      </trkpt>
      <trkpt lat="-22.065308131277561187744140625" lon="166.4469750411808490753173828125">
        <ele>886.4000244140625</ele>
        <time>2016-08-12T19:03:34.000Z</time>
        <extensions>
          <ns3:TrackPointExtension>
            <ns3:atemp>16.0</ns3:atemp>
            <ns3:hr>135</ns3:hr>
          </ns3:TrackPointExtension>
        </extensions>
      </trkpt>
      <trkpt lat="-22.065294049680233001708984375" lon="166.44699658267199993133544921875">
        <ele>886.20001220703125</ele>
        <time>2016-08-12T19:03:35.000Z</time>
        <extensions>
          <ns3:TrackPointExtension>
            <ns3:atemp>16.0</ns3:atemp>
            <ns3:hr>134</ns3:hr>
          </ns3:TrackPointExtension>
        </extensions>
      </trkpt>
      <trkpt lat="-22.0652794651687145233154296875" lon="166.44701871089637279510498046875">
        <ele>886.4000244140625</ele>
        <time>2016-08-12T19:03:36.000Z</time>
        <extensions>
          <ns3:TrackPointExtension>
            <ns3:atemp>16.0</ns3:atemp>
            <ns3:hr>135</ns3:hr>
          </ns3:TrackPointExtension>
        </extensions>
      </trkpt>
      <trkpt lat="-22.06526446156203746795654296875" lon="166.44703723490238189697265625">
        <ele>886.5999755859375</ele>
        <time>2016-08-12T19:03:37.000Z</time>
        <extensions>
          <ns3:TrackPointExtension>
            <ns3:atemp>16.0</ns3:atemp>
            <ns3:hr>135</ns3:hr>
          </ns3:TrackPointExtension>
        </extensions>
      </trkpt>
      <trkpt lat="-22.06524484790861606597900390625" lon="166.44705710001289844512939453125">
        <ele>886.5999755859375</ele>
        <time>2016-08-12T19:03:38.000Z</time>
        <extensions>
          <ns3:TrackPointExtension>
            <ns3:atemp>16.0</ns3:atemp>
            <ns3:hr>135</ns3:hr>
          </ns3:TrackPointExtension>
        </extensions>
      </trkpt>
      <trkpt lat="-22.0652244798839092254638671875" lon="166.44707486964762210845947265625">
        <ele>886.4000244140625</ele>
        <time>2016-08-12T19:03:39.000Z</time>
        <extensions>
          <ns3:TrackPointExtension>
            <ns3:atemp>16.0</ns3:atemp>
            <ns3:hr>134</ns3:hr>
          </ns3:TrackPointExtension>
        </extensions>
      </trkpt>
      <trkpt lat="-22.065207548439502716064453125" lon="166.44709356129169464111328125">
        <ele>886.5999755859375</ele>
        <time>2016-08-12T19:03:40.000Z</time>
        <extensions>
          <ns3:TrackPointExtension>
            <ns3:atemp>16.0</ns3:atemp>
            <ns3:hr>134</ns3:hr>
          </ns3:TrackPointExtension>
        </extensions>
      </trkpt>
      <trkpt lat="-22.06519036553800106048583984375" lon="166.44711728207767009735107421875">
        <ele>887</ele>
        <time>2016-08-12T19:03:41.000Z</time>
        <extensions>
          <ns3:TrackPointExtension>
            <ns3:atemp>16.0</ns3:atemp>
            <ns3:hr>134</ns3:hr>
          </ns3:TrackPointExtension>
        </extensions>
      </trkpt>
      <trkpt lat="-22.06517494283616542816162109375" lon="166.4471398293972015380859375">
        <ele>887</ele>
        <time>2016-08-12T19:03:42.000Z</time>
        <extensions>
          <ns3:TrackPointExtension>
            <ns3:atemp>16.0</ns3:atemp>
            <ns3:hr>134</ns3:hr>
          </ns3:TrackPointExtension>
        </extensions>
      </trkpt>
      <trkpt lat="-22.06515901722013950347900390625" lon="166.4471604488790035247802734375">
        <ele>886.79998779296875</ele>
        <time>2016-08-12T19:03:43.000Z</time>
        <extensions>
          <ns3:TrackPointExtension>
            <ns3:atemp>16.0</ns3:atemp>
            <ns3:hr>134</ns3:hr>
          </ns3:TrackPointExtension>
        </extensions>
      </trkpt>
      <trkpt lat="-22.06514208577573299407958984375" lon="166.447185091674327850341796875">
        <ele>886.79998779296875</ele>
        <time>2016-08-12T19:03:44.000Z</time>
        <extensions>
          <ns3:TrackPointExtension>
            <ns3:atemp>16.0</ns3:atemp>
            <ns3:hr>134</ns3:hr>
          </ns3:TrackPointExtension>
        </extensions>
      </trkpt>
      <trkpt lat="-22.0651279203593730926513671875" lon="166.447205878794193267822265625">
        <ele>887.20001220703125</ele>
        <time>2016-08-12T19:03:45.000Z</time>
        <extensions>
          <ns3:TrackPointExtension>
            <ns3:atemp>16.0</ns3:atemp>
            <ns3:hr>135</ns3:hr>
          </ns3:TrackPointExtension>
        </extensions>
      </trkpt>
      <trkpt lat="-22.0651118271052837371826171875" lon="166.447227336466312408447265625">
        <ele>887.4000244140625</ele>
        <time>2016-08-12T19:03:46.000Z</time>
        <extensions>
          <ns3:TrackPointExtension>
            <ns3:atemp>16.0</ns3:atemp>
            <ns3:hr>135</ns3:hr>
          </ns3:TrackPointExtension>
        </extensions>
      </trkpt>
      <trkpt lat="-22.06509925425052642822265625" lon="166.44724904559552669525146484375">
        <ele>887.4000244140625</ele>
        <time>2016-08-12T19:03:47.000Z</time>
        <extensions>
          <ns3:TrackPointExtension>
            <ns3:atemp>16.0</ns3:atemp>
            <ns3:hr>135</ns3:hr>
          </ns3:TrackPointExtension>
        </extensions>
      </trkpt>
      <trkpt lat="-22.065082825720310211181640625" lon="166.447269581258296966552734375">
        <ele>887.20001220703125</ele>
        <time>2016-08-12T19:03:48.000Z</time>
        <extensions>
          <ns3:TrackPointExtension>
            <ns3:atemp>16.0</ns3:atemp>
            <ns3:hr>135</ns3:hr>
          </ns3:TrackPointExtension>
        </extensions>
      </trkpt>
      <trkpt lat="-22.06506907939910888671875" lon="166.44729196093976497650146484375">
        <ele>887.20001220703125</ele>
        <time>2016-08-12T19:03:49.000Z</time>
        <extensions>
          <ns3:TrackPointExtension>
            <ns3:atemp>16.0</ns3:atemp>
            <ns3:hr>135</ns3:hr>
          </ns3:TrackPointExtension>
        </extensions>
      </trkpt>
      <trkpt lat="-22.06505625508725643157958984375" lon="166.4473150111734867095947265625">
        <ele>887.5999755859375</ele>
        <time>2016-08-12T19:03:50.000Z</time>
        <extensions>
          <ns3:TrackPointExtension>
            <ns3:atemp>16.0</ns3:atemp>
            <ns3:hr>135</ns3:hr>
          </ns3:TrackPointExtension>
        </extensions>
      </trkpt>
      <trkpt lat="-22.0650441013276576995849609375" lon="166.4473409950733184814453125">
        <ele>887.5999755859375</ele>
        <time>2016-08-12T19:03:51.000Z</time>
        <extensions>
          <ns3:TrackPointExtension>
            <ns3:atemp>16.0</ns3:atemp>
            <ns3:hr>135</ns3:hr>
          </ns3:TrackPointExtension>
        </extensions>
      </trkpt>
      <trkpt lat="-22.0650355517864227294921875" lon="166.4473663084208965301513671875">
        <ele>887.4000244140625</ele>
        <time>2016-08-12T19:03:52.000Z</time>
        <extensions>
          <ns3:TrackPointExtension>
            <ns3:atemp>16.0</ns3:atemp>
            <ns3:hr>135</ns3:hr>
          </ns3:TrackPointExtension>
        </extensions>
      </trkpt>
      <trkpt lat="-22.06502725370228290557861328125" lon="166.44739204086363315582275390625">
        <ele>887.20001220703125</ele>
        <time>2016-08-12T19:03:53.000Z</time>
        <extensions>
          <ns3:TrackPointExtension>
            <ns3:atemp>16.0</ns3:atemp>
            <ns3:hr>135</ns3:hr>
          </ns3:TrackPointExtension>
        </extensions>
      </trkpt>
      <trkpt lat="-22.0650162734091281890869140625" lon="166.44741785712540149688720703125">
        <ele>887.20001220703125</ele>
        <time>2016-08-12T19:03:54.000Z</time>
        <extensions>
          <ns3:TrackPointExtension>
            <ns3:atemp>16.0</ns3:atemp>
            <ns3:hr>135</ns3:hr>
          </ns3:TrackPointExtension>
        </extensions>
      </trkpt>
      <trkpt lat="-22.065007388591766357421875" lon="166.44744216464459896087646484375">
        <ele>887.4000244140625</ele>
        <time>2016-08-12T19:03:55.000Z</time>
        <extensions>
          <ns3:TrackPointExtension>
            <ns3:atemp>16.0</ns3:atemp>
            <ns3:hr>135</ns3:hr>
          </ns3:TrackPointExtension>
        </extensions>
      </trkpt>
      <trkpt lat="-22.06499540247023105621337890625" lon="166.44746898673474788665771484375">
        <ele>887.4000244140625</ele>
        <time>2016-08-12T19:03:56.000Z</time>
        <extensions>
          <ns3:TrackPointExtension>
            <ns3:atemp>16.0</ns3:atemp>
            <ns3:hr>135</ns3:hr>
          </ns3:TrackPointExtension>
        </extensions>
      </trkpt>
      <trkpt lat="-22.064984254539012908935546875" lon="166.4474920369684696197509765625">
        <ele>887.20001220703125</ele>
        <time>2016-08-12T19:03:57.000Z</time>
        <extensions>
          <ns3:TrackPointExtension>
            <ns3:atemp>16.0</ns3:atemp>
            <ns3:hr>135</ns3:hr>
          </ns3:TrackPointExtension>
        </extensions>
      </trkpt>
      <trkpt lat="-22.06496858038008213043212890625" lon="166.4475161768496036529541015625">
        <ele>887.20001220703125</ele>
        <time>2016-08-12T19:03:58.000Z</time>
        <extensions>
          <ns3:TrackPointExtension>
            <ns3:atemp>16.0</ns3:atemp>
            <ns3:hr>135</ns3:hr>
          </ns3:TrackPointExtension>
        </extensions>
      </trkpt>
      <trkpt lat="-22.0649549178779125213623046875" lon="166.44754023291170597076416015625">
        <ele>887.4000244140625</ele>
        <time>2016-08-12T19:03:59.000Z</time>
        <extensions>
          <ns3:TrackPointExtension>
            <ns3:atemp>16.0</ns3:atemp>
            <ns3:hr>135</ns3:hr>
          </ns3:TrackPointExtension>
        </extensions>
      </trkpt>
      <trkpt lat="-22.0649405010044574737548828125" lon="166.4475637860596179962158203125">
        <ele>887.5999755859375</ele>
        <time>2016-08-12T19:04:00.000Z</time>
        <extensions>
          <ns3:TrackPointExtension>
            <ns3:atemp>16.0</ns3:atemp>
            <ns3:hr>135</ns3:hr>
          </ns3:TrackPointExtension>
        </extensions>
      </trkpt>
      <trkpt lat="-22.06492298282682895660400390625" lon="166.4475849084556102752685546875">
        <ele>887.4000244140625</ele>
        <time>2016-08-12T19:04:01.000Z</time>
        <extensions>
          <ns3:TrackPointExtension>
            <ns3:atemp>16.0</ns3:atemp>
            <ns3:hr>135</ns3:hr>
          </ns3:TrackPointExtension>
        </extensions>
      </trkpt>
      <trkpt lat="-22.06490906886756420135498046875" lon="166.4475999958813190460205078125">
        <ele>887</ele>
        <time>2016-08-12T19:04:02.000Z</time>
        <extensions>
          <ns3:TrackPointExtension>
            <ns3:atemp>16.0</ns3:atemp>
            <ns3:hr>135</ns3:hr>
          </ns3:TrackPointExtension>
        </extensions>
      </trkpt>
      <trkpt lat="-22.064889371395111083984375" lon="166.447614915668964385986328125">
        <ele>887.20001220703125</ele>
        <time>2016-08-12T19:04:03.000Z</time>
        <extensions>
          <ns3:TrackPointExtension>
            <ns3:atemp>16.0</ns3:atemp>
            <ns3:hr>135</ns3:hr>
          </ns3:TrackPointExtension>
        </extensions>
      </trkpt>
      <trkpt lat="-22.06486615352332592010498046875" lon="166.4476281590759754180908203125">
        <ele>887.5999755859375</ele>
        <time>2016-08-12T19:04:04.000Z</time>
        <extensions>
          <ns3:TrackPointExtension>
            <ns3:atemp>16.0</ns3:atemp>
            <ns3:hr>135</ns3:hr>
          </ns3:TrackPointExtension>
        </extensions>
      </trkpt>
      <trkpt lat="-22.0648451149463653564453125" lon="166.44763628952205181121826171875">
        <ele>887.5999755859375</ele>
        <time>2016-08-12T19:04:05.000Z</time>
        <extensions>
          <ns3:TrackPointExtension>
            <ns3:atemp>16.0</ns3:atemp>
            <ns3:hr>135</ns3:hr>
          </ns3:TrackPointExtension>
        </extensions>
      </trkpt>
      <trkpt lat="-22.06482307054102420806884765625" lon="166.447643749415874481201171875">
        <ele>887.4000244140625</ele>
        <time>2016-08-12T19:04:06.000Z</time>
        <extensions>
          <ns3:TrackPointExtension>
            <ns3:atemp>16.0</ns3:atemp>
            <ns3:hr>135</ns3:hr>
          </ns3:TrackPointExtension>
        </extensions>
      </trkpt>
      <trkpt lat="-22.06479943357408046722412109375" lon="166.44765070639550685882568359375">
        <ele>887.4000244140625</ele>
        <time>2016-08-12T19:04:07.000Z</time>
        <extensions>
          <ns3:TrackPointExtension>
            <ns3:atemp>16.0</ns3:atemp>
            <ns3:hr>135</ns3:hr>
          </ns3:TrackPointExtension>
        </extensions>
      </trkpt>
      <trkpt lat="-22.0647752098739147186279296875" lon="166.4476573280990123748779296875">
        <ele>887.79998779296875</ele>
        <time>2016-08-12T19:04:08.000Z</time>
        <extensions>
          <ns3:TrackPointExtension>
            <ns3:atemp>16.0</ns3:atemp>
            <ns3:hr>135</ns3:hr>
          </ns3:TrackPointExtension>
        </extensions>
      </trkpt>
      <trkpt lat="-22.06475115381181240081787109375" lon="166.4476603455841541290283203125">
        <ele>887.79998779296875</ele>
        <time>2016-08-12T19:04:09.000Z</time>
        <extensions>
          <ns3:TrackPointExtension>
            <ns3:atemp>16.0</ns3:atemp>
            <ns3:hr>135</ns3:hr>
          </ns3:TrackPointExtension>
        </extensions>
      </trkpt>
      <trkpt lat="-22.06472584046423435211181640625" lon="166.447658836841583251953125">
        <ele>887.4000244140625</ele>
        <time>2016-08-12T19:04:10.000Z</time>
        <extensions>
          <ns3:TrackPointExtension>
            <ns3:atemp>16.0</ns3:atemp>
            <ns3:hr>135</ns3:hr>
          </ns3:TrackPointExtension>
        </extensions>
      </trkpt>
      <trkpt lat="-22.0647011138498783111572265625" lon="166.44765255041420459747314453125">
        <ele>887.4000244140625</ele>
        <time>2016-08-12T19:04:11.000Z</time>
        <extensions>
          <ns3:TrackPointExtension>
            <ns3:atemp>16.0</ns3:atemp>
            <ns3:hr>135</ns3:hr>
          </ns3:TrackPointExtension>
        </extensions>
      </trkpt>
      <trkpt lat="-22.06467655487358570098876953125" lon="166.4476435817778110504150390625">
        <ele>887.79998779296875</ele>
        <time>2016-08-12T19:04:12.000Z</time>
        <extensions>
          <ns3:TrackPointExtension>
            <ns3:atemp>16.0</ns3:atemp>
            <ns3:hr>134</ns3:hr>
          </ns3:TrackPointExtension>
        </extensions>
      </trkpt>
      <trkpt lat="-22.06465241499245166778564453125" lon="166.44762933254241943359375">
        <ele>887.79998779296875</ele>
        <time>2016-08-12T19:04:13.000Z</time>
        <extensions>
          <ns3:TrackPointExtension>
            <ns3:atemp>16.0</ns3:atemp>
            <ns3:hr>134</ns3:hr>
          </ns3:TrackPointExtension>
        </extensions>
      </trkpt>
      <trkpt lat="-22.064632885158061981201171875" lon="166.44761449657380580902099609375">
        <ele>887.5999755859375</ele>
        <time>2016-08-12T19:04:14.000Z</time>
        <extensions>
          <ns3:TrackPointExtension>
            <ns3:atemp>16.0</ns3:atemp>
            <ns3:hr>134</ns3:hr>
          </ns3:TrackPointExtension>
        </extensions>
      </trkpt>
      <trkpt lat="-22.06461972557008266448974609375" lon="166.4475958049297332763671875">
        <ele>887.20001220703125</ele>
        <time>2016-08-12T19:04:15.000Z</time>
        <extensions>
          <ns3:TrackPointExtension>
            <ns3:atemp>16.0</ns3:atemp>
            <ns3:hr>135</ns3:hr>
          </ns3:TrackPointExtension>
        </extensions>
      </trkpt>
      <trkpt lat="-22.064597345888614654541015625" lon="166.44757845439016819000244140625">
        <ele>887.4000244140625</ele>
        <time>2016-08-12T19:04:16.000Z</time>
        <extensions>
          <ns3:TrackPointExtension>
            <ns3:atemp>16.0</ns3:atemp>
            <ns3:hr>134</ns3:hr>
          </ns3:TrackPointExtension>
        </extensions>
      </trkpt>
      <trkpt lat="-22.0645784027874469757080078125" lon="166.4475621096789836883544921875">
        <ele>887.79998779296875</ele>
        <time>2016-08-12T19:04:17.000Z</time>
        <extensions>
          <ns3:TrackPointExtension>
            <ns3:atemp>16.0</ns3:atemp>
            <ns3:hr>135</ns3:hr>
          </ns3:TrackPointExtension>
        </extensions>
      </trkpt>
      <trkpt lat="-22.06456155516207218170166015625" lon="166.4475450105965137481689453125">
        <ele>887.5999755859375</ele>
        <time>2016-08-12T19:04:18.000Z</time>
        <extensions>
          <ns3:TrackPointExtension>
            <ns3:atemp>16.0</ns3:atemp>
            <ns3:hr>135</ns3:hr>
          </ns3:TrackPointExtension>
        </extensions>
      </trkpt>
      <trkpt lat="-22.06454847939312458038330078125" lon="166.44752749241888523101806640625">
        <ele>887.4000244140625</ele>
        <time>2016-08-12T19:04:19.000Z</time>
        <extensions>
          <ns3:TrackPointExtension>
            <ns3:atemp>16.0</ns3:atemp>
            <ns3:hr>134</ns3:hr>
          </ns3:TrackPointExtension>
        </extensions>
      </trkpt>
      <trkpt lat="-22.0645395107567310333251953125" lon="166.44750787876546382904052734375">
        <ele>887.4000244140625</ele>
        <time>2016-08-12T19:04:20.000Z</time>
        <extensions>
          <ns3:TrackPointExtension>
            <ns3:atemp>16.0</ns3:atemp>
            <ns3:hr>134</ns3:hr>
          </ns3:TrackPointExtension>
        </extensions>
      </trkpt>
      <trkpt lat="-22.06452920101583003997802734375" lon="166.44748642109334468841552734375">
        <ele>887.79998779296875</ele>
        <time>2016-08-12T19:04:21.000Z</time>
        <extensions>
          <ns3:TrackPointExtension>
            <ns3:atemp>16.0</ns3:atemp>
            <ns3:hr>134</ns3:hr>
          </ns3:TrackPointExtension>
        </extensions>
      </trkpt>
      <trkpt lat="-22.0645193941891193389892578125" lon="166.44746395759284496307373046875">
        <ele>887.79998779296875</ele>
        <time>2016-08-12T19:04:22.000Z</time>
        <extensions>
          <ns3:TrackPointExtension>
            <ns3:atemp>16.0</ns3:atemp>
            <ns3:hr>134</ns3:hr>
          </ns3:TrackPointExtension>
        </extensions>
      </trkpt>
      <trkpt lat="-22.06450975500047206878662109375" lon="166.44743948243558406829833984375">
        <ele>887.4000244140625</ele>
        <time>2016-08-12T19:04:23.000Z</time>
        <extensions>
          <ns3:TrackPointExtension>
            <ns3:atemp>16.0</ns3:atemp>
            <ns3:hr>134</ns3:hr>
          </ns3:TrackPointExtension>
        </extensions>
      </trkpt>
      <trkpt lat="-22.06449567340314388275146484375" lon="166.4474186114966869354248046875">
        <ele>887.4000244140625</ele>
        <time>2016-08-12T19:04:24.000Z</time>
        <extensions>
          <ns3:TrackPointExtension>
            <ns3:atemp>16.0</ns3:atemp>
            <ns3:hr>134</ns3:hr>
          </ns3:TrackPointExtension>
        </extensions>
      </trkpt>
      <trkpt lat="-22.0644788257777690887451171875" lon="166.44739857874810695648193359375">
        <ele>887.79998779296875</ele>
        <time>2016-08-12T19:04:25.000Z</time>
        <extensions>
          <ns3:TrackPointExtension>
            <ns3:atemp>16.0</ns3:atemp>
            <ns3:hr>134</ns3:hr>
          </ns3:TrackPointExtension>
        </extensions>
      </trkpt>
      <trkpt lat="-22.06445845775306224822998046875" lon="166.447377540171146392822265625">
        <ele>888</ele>
        <time>2016-08-12T19:04:26.000Z</time>
        <extensions>
          <ns3:TrackPointExtension>
            <ns3:atemp>16.0</ns3:atemp>
            <ns3:hr>133</ns3:hr>
          </ns3:TrackPointExtension>
        </extensions>
      </trkpt>
      <trkpt lat="-22.064441107213497161865234375" lon="166.4473624527454376220703125">
        <ele>887.79998779296875</ele>
        <time>2016-08-12T19:04:27.000Z</time>
        <extensions>
          <ns3:TrackPointExtension>
            <ns3:atemp>16.0</ns3:atemp>
            <ns3:hr>133</ns3:hr>
          </ns3:TrackPointExtension>
        </extensions>
      </trkpt>
      <trkpt lat="-22.064421661198139190673828125" lon="166.447348706424236297607421875">
        <ele>887.5999755859375</ele>
        <time>2016-08-12T19:04:28.000Z</time>
        <extensions>
          <ns3:TrackPointExtension>
            <ns3:atemp>16.0</ns3:atemp>
            <ns3:hr>133</ns3:hr>
          </ns3:TrackPointExtension>
        </extensions>
      </trkpt>
      <trkpt lat="-22.06440263427793979644775390625" lon="166.447331272065639495849609375">
        <ele>887.79998779296875</ele>
        <time>2016-08-12T19:04:29.000Z</time>
        <extensions>
          <ns3:TrackPointExtension>
            <ns3:atemp>16.0</ns3:atemp>
            <ns3:hr>134</ns3:hr>
          </ns3:TrackPointExtension>
        </extensions>
      </trkpt>
      <trkpt lat="-22.06438503228127956390380859375" lon="166.44731174223124980926513671875">
        <ele>888.20001220703125</ele>
        <time>2016-08-12T19:04:30.000Z</time>
        <extensions>
          <ns3:TrackPointExtension>
            <ns3:atemp>16.0</ns3:atemp>
            <ns3:hr>133</ns3:hr>
          </ns3:TrackPointExtension>
        </extensions>
      </trkpt>
      <trkpt lat="-22.0643691904842853546142578125" lon="166.4472902007400989532470703125">
        <ele>888.20001220703125</ele>
        <time>2016-08-12T19:04:31.000Z</time>
        <extensions>
          <ns3:TrackPointExtension>
            <ns3:atemp>16.0</ns3:atemp>
            <ns3:hr>133</ns3:hr>
          </ns3:TrackPointExtension>
        </extensions>
      </trkpt>
      <trkpt lat="-22.0643621496856212615966796875" lon="166.44726698286831378936767578125">
        <ele>888</ele>
        <time>2016-08-12T19:04:32.000Z</time>
        <extensions>
          <ns3:TrackPointExtension>
            <ns3:atemp>16.0</ns3:atemp>
            <ns3:hr>133</ns3:hr>
          </ns3:TrackPointExtension>
        </extensions>
      </trkpt>
      <trkpt lat="-22.064349241554737091064453125" lon="166.44724535755813121795654296875">
        <ele>887.5999755859375</ele>
        <time>2016-08-12T19:04:33.000Z</time>
        <extensions>
          <ns3:TrackPointExtension>
            <ns3:atemp>16.0</ns3:atemp>
            <ns3:hr>133</ns3:hr>
          </ns3:TrackPointExtension>
        </extensions>
      </trkpt>
      <trkpt lat="-22.0643349923193454742431640625" lon="166.44722624681890010833740234375">
        <ele>887.79998779296875</ele>
        <time>2016-08-12T19:04:34.000Z</time>
        <extensions>
          <ns3:TrackPointExtension>
            <ns3:atemp>16.0</ns3:atemp>
            <ns3:hr>133</ns3:hr>
          </ns3:TrackPointExtension>
        </extensions>
      </trkpt>
      <trkpt lat="-22.06431898288428783416748046875" lon="166.447206549346446990966796875">
        <ele>888</ele>
        <time>2016-08-12T19:04:35.000Z</time>
        <extensions>
          <ns3:TrackPointExtension>
            <ns3:atemp>16.0</ns3:atemp>
            <ns3:hr>133</ns3:hr>
          </ns3:TrackPointExtension>
        </extensions>
      </trkpt>
      <trkpt lat="-22.06430372782051563262939453125" lon="166.4471845887601375579833984375">
        <ele>887.79998779296875</ele>
        <time>2016-08-12T19:04:36.000Z</time>
        <extensions>
          <ns3:TrackPointExtension>
            <ns3:atemp>16.0</ns3:atemp>
            <ns3:hr>133</ns3:hr>
          </ns3:TrackPointExtension>
        </extensions>
      </trkpt>
      <trkpt lat="-22.06428780220448970794677734375" lon="166.44716598093509674072265625">
        <ele>887.5999755859375</ele>
        <time>2016-08-12T19:04:37.000Z</time>
        <extensions>
          <ns3:TrackPointExtension>
            <ns3:atemp>16.0</ns3:atemp>
            <ns3:hr>133</ns3:hr>
          </ns3:TrackPointExtension>
        </extensions>
      </trkpt>
      <trkpt lat="-22.0642736367881298065185546875" lon="166.447143852710723876953125">
        <ele>887.5999755859375</ele>
        <time>2016-08-12T19:04:38.000Z</time>
        <extensions>
          <ns3:TrackPointExtension>
            <ns3:atemp>16.0</ns3:atemp>
            <ns3:hr>133</ns3:hr>
          </ns3:TrackPointExtension>
        </extensions>
      </trkpt>
      <trkpt lat="-22.0642562024295330047607421875" lon="166.44712381996214389801025390625">
        <ele>887.79998779296875</ele>
        <time>2016-08-12T19:04:39.000Z</time>
        <extensions>
          <ns3:TrackPointExtension>
            <ns3:atemp>16.0</ns3:atemp>
            <ns3:hr>133</ns3:hr>
          </ns3:TrackPointExtension>
        </extensions>
      </trkpt>
      <trkpt lat="-22.06418654881417751312255859375" lon="166.4470394141972064971923828125">
        <ele>887.79998779296875</ele>
        <time>2016-08-12T19:04:43.000Z</time>
        <extensions>
          <ns3:TrackPointExtension>
            <ns3:atemp>16.0</ns3:atemp>
            <ns3:hr>133</ns3:hr>
          </ns3:TrackPointExtension>
        </extensions>
      </trkpt>
      <trkpt lat="-22.06417012028396129608154296875" lon="166.4470189623534679412841796875">
        <ele>888</ele>
        <time>2016-08-12T19:04:44.000Z</time>
        <extensions>
          <ns3:TrackPointExtension>
            <ns3:atemp>16.0</ns3:atemp>
            <ns3:hr>133</ns3:hr>
          </ns3:TrackPointExtension>
        </extensions>
      </trkpt>
      <trkpt lat="-22.06415067426860332489013671875" lon="166.44700194709002971649169921875">
        <ele>887.79998779296875</ele>
        <time>2016-08-12T19:04:45.000Z</time>
        <extensions>
          <ns3:TrackPointExtension>
            <ns3:atemp>16.0</ns3:atemp>
            <ns3:hr>134</ns3:hr>
          </ns3:TrackPointExtension>
        </extensions>
      </trkpt>
      <trkpt lat="-22.06412267871201038360595703125" lon="166.4469869434833526611328125">
        <ele>887.5999755859375</ele>
        <time>2016-08-12T19:04:46.000Z</time>
        <extensions>
          <ns3:TrackPointExtension>
            <ns3:atemp>16.0</ns3:atemp>
            <ns3:hr>133</ns3:hr>
          </ns3:TrackPointExtension>
        </extensions>
      </trkpt>
      <trkpt lat="-22.06410105340182781219482421875" lon="166.4469773881137371063232421875">
        <ele>887.5999755859375</ele>
        <time>2016-08-12T19:04:47.000Z</time>
        <extensions>
          <ns3:TrackPointExtension>
            <ns3:atemp>16.0</ns3:atemp>
            <ns3:hr>133</ns3:hr>
          </ns3:TrackPointExtension>
        </extensions>
      </trkpt>
      <trkpt lat="-22.0640748180449008941650390625" lon="166.44696841947734355926513671875">
        <ele>887.79998779296875</ele>
        <time>2016-08-12T19:04:48.000Z</time>
        <extensions>
          <ns3:TrackPointExtension>
            <ns3:atemp>16.0</ns3:atemp>
            <ns3:hr>133</ns3:hr>
          </ns3:TrackPointExtension>
        </extensions>
      </trkpt>
      <trkpt lat="-22.06404975615441799163818359375" lon="166.4469579420983791351318359375">
        <ele>888</ele>
        <time>2016-08-12T19:04:49.000Z</time>
        <extensions>
          <ns3:TrackPointExtension>
            <ns3:atemp>16.0</ns3:atemp>
            <ns3:hr>133</ns3:hr>
          </ns3:TrackPointExtension>
        </extensions>
      </trkpt>
      <trkpt lat="-22.06395336426794528961181640625" lon="166.446903459727764129638671875">
        <ele>888</ele>
        <time>2016-08-12T19:04:53.000Z</time>
        <extensions>
          <ns3:TrackPointExtension>
            <ns3:atemp>16.0</ns3:atemp>
            <ns3:hr>133</ns3:hr>
          </ns3:TrackPointExtension>
        </extensions>
      </trkpt>
      <trkpt lat="-22.0639276318252086639404296875" lon="166.446896754205226898193359375">
        <ele>888</ele>
        <time>2016-08-12T19:04:54.000Z</time>
        <extensions>
          <ns3:TrackPointExtension>
            <ns3:atemp>16.0</ns3:atemp>
            <ns3:hr>134</ns3:hr>
          </ns3:TrackPointExtension>
        </extensions>
      </trkpt>
      <trkpt lat="-22.06389821134507656097412109375" lon="166.44689130596816539764404296875">
        <ele>888</ele>
        <time>2016-08-12T19:04:55.000Z</time>
        <extensions>
          <ns3:TrackPointExtension>
            <ns3:atemp>16.0</ns3:atemp>
            <ns3:hr>134</ns3:hr>
          </ns3:TrackPointExtension>
        </extensions>
      </trkpt>
      <trkpt lat="-22.06387088634073734283447265625" lon="166.44688527099788188934326171875">
        <ele>888</ele>
        <time>2016-08-12T19:04:56.000Z</time>
        <extensions>
          <ns3:TrackPointExtension>
            <ns3:atemp>16.0</ns3:atemp>
            <ns3:hr>134</ns3:hr>
          </ns3:TrackPointExtension>
        </extensions>
      </trkpt>
      <trkpt lat="-22.06384523771703243255615234375" lon="166.44688275642693042755126953125">
        <ele>887.79998779296875</ele>
        <time>2016-08-12T19:04:57.000Z</time>
        <extensions>
          <ns3:TrackPointExtension>
            <ns3:atemp>16.0</ns3:atemp>
            <ns3:hr>134</ns3:hr>
          </ns3:TrackPointExtension>
        </extensions>
      </trkpt>
      <trkpt lat="-22.063816487789154052734375" lon="166.4468848519027233123779296875">
        <ele>887.79998779296875</ele>
        <time>2016-08-12T19:04:58.000Z</time>
        <extensions>
          <ns3:TrackPointExtension>
            <ns3:atemp>16.0</ns3:atemp>
            <ns3:hr>133</ns3:hr>
          </ns3:TrackPointExtension>
        </extensions>
      </trkpt>
      <trkpt lat="-22.063791342079639434814453125" lon="166.4468902163207530975341796875">
        <ele>888</ele>
        <time>2016-08-12T19:04:59.000Z</time>
        <extensions>
          <ns3:TrackPointExtension>
            <ns3:atemp>16.0</ns3:atemp>
            <ns3:hr>133</ns3:hr>
          </ns3:TrackPointExtension>
        </extensions>
      </trkpt>
      <trkpt lat="-22.06376628018915653228759765625" lon="166.4468965865671634674072265625">
        <ele>888.4000244140625</ele>
        <time>2016-08-12T19:05:00.000Z</time>
        <extensions>
          <ns3:TrackPointExtension>
            <ns3:atemp>16.0</ns3:atemp>
            <ns3:hr>133</ns3:hr>
          </ns3:TrackPointExtension>
        </extensions>
      </trkpt>
      <trkpt lat="-22.0637445710599422454833984375" lon="166.446910165250301361083984375">
        <ele>888.20001220703125</ele>
        <time>2016-08-12T19:05:01.000Z</time>
        <extensions>
          <ns3:TrackPointExtension>
            <ns3:atemp>16.0</ns3:atemp>
            <ns3:hr>133</ns3:hr>
          </ns3:TrackPointExtension>
        </extensions>
      </trkpt>
      <trkpt lat="-22.063726298511028289794921875" lon="166.44692868925631046295166015625">
        <ele>888</ele>
        <time>2016-08-12T19:05:02.000Z</time>
        <extensions>
          <ns3:TrackPointExtension>
            <ns3:atemp>16.0</ns3:atemp>
            <ns3:hr>133</ns3:hr>
          </ns3:TrackPointExtension>
        </extensions>
      </trkpt>
      <trkpt lat="-22.0637083612382411956787109375" lon="166.44695601426064968109130859375">
        <ele>888</ele>
        <time>2016-08-12T19:05:03.000Z</time>
        <extensions>
          <ns3:TrackPointExtension>
            <ns3:atemp>16.0</ns3:atemp>
            <ns3:hr>132</ns3:hr>
          </ns3:TrackPointExtension>
        </extensions>
      </trkpt>
      <trkpt lat="-22.06369520165026187896728515625" lon="166.44698224961757659912109375">
        <ele>887.79998779296875</ele>
        <time>2016-08-12T19:05:04.000Z</time>
        <extensions>
          <ns3:TrackPointExtension>
            <ns3:atemp>16.0</ns3:atemp>
            <ns3:hr>132</ns3:hr>
          </ns3:TrackPointExtension>
        </extensions>
      </trkpt>
      <trkpt lat="-22.0636864006519317626953125" lon="166.4470068924129009246826171875">
        <ele>887.5999755859375</ele>
        <time>2016-08-12T19:05:05.000Z</time>
        <extensions>
          <ns3:TrackPointExtension>
            <ns3:atemp>16.0</ns3:atemp>
            <ns3:hr>132</ns3:hr>
          </ns3:TrackPointExtension>
        </extensions>
      </trkpt>
      <trkpt lat="-22.06367659382522106170654296875" lon="166.44703245721757411956787109375">
        <ele>887.4000244140625</ele>
        <time>2016-08-12T19:05:06.000Z</time>
        <extensions>
          <ns3:TrackPointExtension>
            <ns3:atemp>16.0</ns3:atemp>
            <ns3:hr>133</ns3:hr>
          </ns3:TrackPointExtension>
        </extensions>
      </trkpt>
      <trkpt lat="-22.063665948808193206787109375" lon="166.44705475308001041412353515625">
        <ele>887.5999755859375</ele>
        <time>2016-08-12T19:05:07.000Z</time>
        <extensions>
          <ns3:TrackPointExtension>
            <ns3:atemp>16.0</ns3:atemp>
            <ns3:hr>133</ns3:hr>
          </ns3:TrackPointExtension>
        </extensions>
      </trkpt>
      <trkpt lat="-22.06365563906729221343994140625" lon="166.44707738421857357025146484375">
        <ele>887.5999755859375</ele>
        <time>2016-08-12T19:05:08.000Z</time>
        <extensions>
          <ns3:TrackPointExtension>
            <ns3:atemp>16.0</ns3:atemp>
            <ns3:hr>133</ns3:hr>
          </ns3:TrackPointExtension>
        </extensions>
      </trkpt>
      <trkpt lat="-22.063645161688327789306640625" lon="166.4470995962619781494140625">
        <ele>887.20001220703125</ele>
        <time>2016-08-12T19:05:09.000Z</time>
        <extensions>
          <ns3:TrackPointExtension>
            <ns3:atemp>16.0</ns3:atemp>
            <ns3:hr>133</ns3:hr>
          </ns3:TrackPointExtension>
        </extensions>
      </trkpt>
      <trkpt lat="-22.06364021636545658111572265625" lon="166.44711845554411411285400390625">
        <ele>886.79998779296875</ele>
        <time>2016-08-12T19:05:10.000Z</time>
        <extensions>
          <ns3:TrackPointExtension>
            <ns3:atemp>16.0</ns3:atemp>
            <ns3:hr>133</ns3:hr>
          </ns3:TrackPointExtension>
        </extensions>
      </trkpt>
      <trkpt lat="-22.063631750643253326416015625" lon="166.44714008085429668426513671875">
        <ele>887</ele>
        <time>2016-08-12T19:05:11.000Z</time>
        <extensions>
          <ns3:TrackPointExtension>
            <ns3:atemp>16.0</ns3:atemp>
            <ns3:hr>133</ns3:hr>
          </ns3:TrackPointExtension>
        </extensions>
      </trkpt>
      <trkpt lat="-22.0636215247213840484619140625" lon="166.44716489128768444061279296875">
        <ele>887.20001220703125</ele>
        <time>2016-08-12T19:05:12.000Z</time>
        <extensions>
          <ns3:TrackPointExtension>
            <ns3:atemp>16.0</ns3:atemp>
            <ns3:hr>132</ns3:hr>
          </ns3:TrackPointExtension>
        </extensions>
      </trkpt>
      <trkpt lat="-22.06361490301787853240966796875" lon="166.44718903116881847381591796875">
        <ele>886.79998779296875</ele>
        <time>2016-08-12T19:05:13.000Z</time>
        <extensions>
          <ns3:TrackPointExtension>
            <ns3:atemp>16.0</ns3:atemp>
            <ns3:hr>133</ns3:hr>
          </ns3:TrackPointExtension>
        </extensions>
      </trkpt>
      <trkpt lat="-22.06360551528632640838623046875" lon="166.44721719436347484588623046875">
        <ele>886.5999755859375</ele>
        <time>2016-08-12T19:05:14.000Z</time>
        <extensions>
          <ns3:TrackPointExtension>
            <ns3:atemp>16.0</ns3:atemp>
            <ns3:hr>132</ns3:hr>
          </ns3:TrackPointExtension>
        </extensions>
      </trkpt>
      <trkpt lat="-22.06359579227864742279052734375" lon="166.4472422562539577484130859375">
        <ele>886.79998779296875</ele>
        <time>2016-08-12T19:05:15.000Z</time>
        <extensions>
          <ns3:TrackPointExtension>
            <ns3:atemp>16.0</ns3:atemp>
            <ns3:hr>133</ns3:hr>
          </ns3:TrackPointExtension>
        </extensions>
      </trkpt>
      <trkpt lat="-22.06358053721487522125244140625" lon="166.4472677372395992279052734375">
        <ele>886.5999755859375</ele>
        <time>2016-08-12T19:05:16.000Z</time>
        <extensions>
          <ns3:TrackPointExtension>
            <ns3:atemp>16.0</ns3:atemp>
            <ns3:hr>132</ns3:hr>
          </ns3:TrackPointExtension>
        </extensions>
      </trkpt>
      <trkpt lat="-22.0635682158172130584716796875" lon="166.44729313440620899200439453125">
        <ele>886.4000244140625</ele>
        <time>2016-08-12T19:05:17.000Z</time>
        <extensions>
          <ns3:TrackPointExtension>
            <ns3:atemp>16.0</ns3:atemp>
            <ns3:hr>133</ns3:hr>
          </ns3:TrackPointExtension>
        </extensions>
      </trkpt>
      <trkpt lat="-22.06355631351470947265625" lon="166.4473170228302478790283203125">
        <ele>886.4000244140625</ele>
        <time>2016-08-12T19:05:18.000Z</time>
        <extensions>
          <ns3:TrackPointExtension>
            <ns3:atemp>16.0</ns3:atemp>
            <ns3:hr>132</ns3:hr>
          </ns3:TrackPointExtension>
        </extensions>
      </trkpt>
      <trkpt lat="-22.063542567193508148193359375" lon="166.44734191708266735076904296875">
        <ele>886.4000244140625</ele>
        <time>2016-08-12T19:05:19.000Z</time>
        <extensions>
          <ns3:TrackPointExtension>
            <ns3:atemp>16.0</ns3:atemp>
            <ns3:hr>132</ns3:hr>
          </ns3:TrackPointExtension>
        </extensions>
      </trkpt>
      <trkpt lat="-22.06352756358683109283447265625" lon="166.44736823625862598419189453125">
        <ele>886.20001220703125</ele>
        <time>2016-08-12T19:05:20.000Z</time>
        <extensions>
          <ns3:TrackPointExtension>
            <ns3:atemp>16.0</ns3:atemp>
            <ns3:hr>132</ns3:hr>
          </ns3:TrackPointExtension>
        </extensions>
      </trkpt>
      <trkpt lat="-22.0635102130472660064697265625" lon="166.44738701172173023223876953125">
        <ele>885.5999755859375</ele>
        <time>2016-08-12T19:05:21.000Z</time>
        <extensions>
          <ns3:TrackPointExtension>
            <ns3:atemp>16.0</ns3:atemp>
            <ns3:hr>132</ns3:hr>
          </ns3:TrackPointExtension>
        </extensions>
      </trkpt>
      <trkpt lat="-22.06349068321287631988525390625" lon="166.447401680052280426025390625">
        <ele>885.4000244140625</ele>
        <time>2016-08-12T19:05:22.000Z</time>
        <extensions>
          <ns3:TrackPointExtension>
            <ns3:atemp>16.0</ns3:atemp>
            <ns3:hr>131</ns3:hr>
          </ns3:TrackPointExtension>
        </extensions>
      </trkpt>
      <trkpt lat="-22.06347257830202579498291015625" lon="166.44741274416446685791015625">
        <ele>885.5999755859375</ele>
        <time>2016-08-12T19:05:23.000Z</time>
        <extensions>
          <ns3:TrackPointExtension>
            <ns3:atemp>16.0</ns3:atemp>
            <ns3:hr>131</ns3:hr>
          </ns3:TrackPointExtension>
        </extensions>
      </trkpt>
      <trkpt lat="-22.063446007668972015380859375" lon="166.44741316325962543487548828125">
        <ele>885.79998779296875</ele>
        <time>2016-08-12T19:05:24.000Z</time>
        <extensions>
          <ns3:TrackPointExtension>
            <ns3:atemp>16.0</ns3:atemp>
            <ns3:hr>131</ns3:hr>
          </ns3:TrackPointExtension>
        </extensions>
      </trkpt>
      <trkpt lat="-22.06341658718883991241455078125" lon="166.44740662537515163421630859375">
        <ele>885.5999755859375</ele>
        <time>2016-08-12T19:05:25.000Z</time>
        <extensions>
          <ns3:TrackPointExtension>
            <ns3:atemp>16.0</ns3:atemp>
            <ns3:hr>131</ns3:hr>
          </ns3:TrackPointExtension>
        </extensions>
      </trkpt>
      <trkpt lat="-22.0633955486118793487548828125" lon="166.44740595482289791107177734375">
        <ele>885.4000244140625</ele>
        <time>2016-08-12T19:05:26.000Z</time>
        <extensions>
          <ns3:TrackPointExtension>
            <ns3:atemp>16.0</ns3:atemp>
            <ns3:hr>131</ns3:hr>
          </ns3:TrackPointExtension>
        </extensions>
      </trkpt>
      <trkpt lat="-22.0633734203875064849853515625" lon="166.44739757291972637176513671875">
        <ele>885.5999755859375</ele>
        <time>2016-08-12T19:05:27.000Z</time>
        <extensions>
          <ns3:TrackPointExtension>
            <ns3:atemp>16.0</ns3:atemp>
            <ns3:hr>131</ns3:hr>
          </ns3:TrackPointExtension>
        </extensions>
      </trkpt>
      <trkpt lat="-22.06335715949535369873046875" lon="166.447388939559459686279296875">
        <ele>885.5999755859375</ele>
        <time>2016-08-12T19:05:28.000Z</time>
        <extensions>
          <ns3:TrackPointExtension>
            <ns3:atemp>16.0</ns3:atemp>
            <ns3:hr>131</ns3:hr>
          </ns3:TrackPointExtension>
        </extensions>
      </trkpt>
      <trkpt lat="-22.06334416754543781280517578125" lon="166.4473785459995269775390625">
        <ele>885.20001220703125</ele>
        <time>2016-08-12T19:05:29.000Z</time>
        <extensions>
          <ns3:TrackPointExtension>
            <ns3:atemp>16.0</ns3:atemp>
            <ns3:hr>131</ns3:hr>
          </ns3:TrackPointExtension>
        </extensions>
      </trkpt>
      <trkpt lat="-22.06332623027265071868896484375" lon="166.447362788021564483642578125">
        <ele>885.4000244140625</ele>
        <time>2016-08-12T19:05:30.000Z</time>
        <extensions>
          <ns3:TrackPointExtension>
            <ns3:atemp>16.0</ns3:atemp>
            <ns3:hr>131</ns3:hr>
          </ns3:TrackPointExtension>
        </extensions>
      </trkpt>
      <trkpt lat="-22.06331030465662479400634765625" lon="166.44735096953809261322021484375">
        <ele>885.4000244140625</ele>
        <time>2016-08-12T19:05:31.000Z</time>
        <extensions>
          <ns3:TrackPointExtension>
            <ns3:atemp>16.0</ns3:atemp>
            <ns3:hr>131</ns3:hr>
          </ns3:TrackPointExtension>
        </extensions>
      </trkpt>
      <trkpt lat="-22.06329949200153350830078125" lon="166.447331942617893218994140625">
        <ele>885.20001220703125</ele>
        <time>2016-08-12T19:05:32.000Z</time>
        <extensions>
          <ns3:TrackPointExtension>
            <ns3:atemp>16.0</ns3:atemp>
            <ns3:hr>131</ns3:hr>
          </ns3:TrackPointExtension>
        </extensions>
      </trkpt>
      <trkpt lat="-22.0632879249751567840576171875" lon="166.44731040112674236297607421875">
        <ele>885.20001220703125</ele>
        <time>2016-08-12T19:05:33.000Z</time>
        <extensions>
          <ns3:TrackPointExtension>
            <ns3:atemp>16.0</ns3:atemp>
            <ns3:hr>131</ns3:hr>
          </ns3:TrackPointExtension>
        </extensions>
      </trkpt>
      <trkpt lat="-22.06327803432941436767578125" lon="166.44728860817849636077880859375">
        <ele>885.4000244140625</ele>
        <time>2016-08-12T19:05:34.000Z</time>
        <extensions>
          <ns3:TrackPointExtension>
            <ns3:atemp>16.0</ns3:atemp>
            <ns3:hr>131</ns3:hr>
          </ns3:TrackPointExtension>
        </extensions>
      </trkpt>
      <trkpt lat="-22.06326168961822986602783203125" lon="166.44727083854377269744873046875">
        <ele>885.20001220703125</ele>
        <time>2016-08-12T19:05:35.000Z</time>
        <extensions>
          <ns3:TrackPointExtension>
            <ns3:atemp>16.0</ns3:atemp>
            <ns3:hr>131</ns3:hr>
          </ns3:TrackPointExtension>
        </extensions>
      </trkpt>
      <trkpt lat="-22.0632443390786647796630859375" lon="166.44725340418517589569091796875">
        <ele>884.79998779296875</ele>
        <time>2016-08-12T19:05:36.000Z</time>
        <extensions>
          <ns3:TrackPointExtension>
            <ns3:atemp>16.0</ns3:atemp>
            <ns3:hr>131</ns3:hr>
          </ns3:TrackPointExtension>
        </extensions>
      </trkpt>
      <trkpt lat="-22.06322581507265567779541015625" lon="166.447238065302371978759765625">
        <ele>885</ele>
        <time>2016-08-12T19:05:37.000Z</time>
        <extensions>
          <ns3:TrackPointExtension>
            <ns3:atemp>16.0</ns3:atemp>
            <ns3:hr>131</ns3:hr>
          </ns3:TrackPointExtension>
        </extensions>
      </trkpt>
      <trkpt lat="-22.0632020942866802215576171875" lon="166.4472228102385997772216796875">
        <ele>885.4000244140625</ele>
        <time>2016-08-12T19:05:38.000Z</time>
        <extensions>
          <ns3:TrackPointExtension>
            <ns3:atemp>16.0</ns3:atemp>
            <ns3:hr>130</ns3:hr>
          </ns3:TrackPointExtension>
        </extensions>
      </trkpt>
      <trkpt lat="-22.06318273209035396575927734375" lon="166.44720864482223987579345703125">
        <ele>885</ele>
        <time>2016-08-12T19:05:39.000Z</time>
        <extensions>
          <ns3:TrackPointExtension>
            <ns3:atemp>16.0</ns3:atemp>
            <ns3:hr>130</ns3:hr>
          </ns3:TrackPointExtension>
        </extensions>
      </trkpt>
      <trkpt lat="-22.06315708346664905548095703125" lon="166.4471949823200702667236328125">
        <ele>884.79998779296875</ele>
        <time>2016-08-12T19:05:40.000Z</time>
        <extensions>
          <ns3:TrackPointExtension>
            <ns3:atemp>16.0</ns3:atemp>
            <ns3:hr>129</ns3:hr>
          </ns3:TrackPointExtension>
        </extensions>
      </trkpt>
      <trkpt lat="-22.06312841735780239105224609375" lon="166.44718618132174015045166015625">
        <ele>884.79998779296875</ele>
        <time>2016-08-12T19:05:41.000Z</time>
        <extensions>
          <ns3:TrackPointExtension>
            <ns3:atemp>16.0</ns3:atemp>
            <ns3:hr>129</ns3:hr>
          </ns3:TrackPointExtension>
        </extensions>
      </trkpt>
      <trkpt lat="-22.06310360692441463470458984375" lon="166.4471772126853466033935546875">
        <ele>885</ele>
        <time>2016-08-12T19:05:42.000Z</time>
        <extensions>
          <ns3:TrackPointExtension>
            <ns3:atemp>16.0</ns3:atemp>
            <ns3:hr>129</ns3:hr>
          </ns3:TrackPointExtension>
        </extensions>
      </trkpt>
      <trkpt lat="-22.06307351589202880859375" lon="166.44716774113476276397705078125">
        <ele>884.79998779296875</ele>
        <time>2016-08-12T19:05:43.000Z</time>
        <extensions>
          <ns3:TrackPointExtension>
            <ns3:atemp>16.0</ns3:atemp>
            <ns3:hr>129</ns3:hr>
          </ns3:TrackPointExtension>
        </extensions>
      </trkpt>
      <trkpt lat="-22.06304711289703845977783203125" lon="166.44715868867933750152587890625">
        <ele>884.4000244140625</ele>
        <time>2016-08-12T19:05:44.000Z</time>
        <extensions>
          <ns3:TrackPointExtension>
            <ns3:atemp>16.0</ns3:atemp>
            <ns3:hr>129</ns3:hr>
          </ns3:TrackPointExtension>
        </extensions>
      </trkpt>
      <trkpt lat="-22.06302247010171413421630859375" lon="166.44715256989002227783203125">
        <ele>884.4000244140625</ele>
        <time>2016-08-12T19:05:45.000Z</time>
        <extensions>
          <ns3:TrackPointExtension>
            <ns3:atemp>16.0</ns3:atemp>
            <ns3:hr>129</ns3:hr>
          </ns3:TrackPointExtension>
        </extensions>
      </trkpt>
      <trkpt lat="-22.0629942230880260467529296875" lon="166.4471505582332611083984375">
        <ele>884.4000244140625</ele>
        <time>2016-08-12T19:05:46.000Z</time>
        <extensions>
          <ns3:TrackPointExtension>
            <ns3:atemp>16.0</ns3:atemp>
            <ns3:hr>128</ns3:hr>
          </ns3:TrackPointExtension>
        </extensions>
      </trkpt>
      <trkpt lat="-22.062967903912067413330078125" lon="166.4471513964235782623291015625">
        <ele>884</ele>
        <time>2016-08-12T19:05:47.000Z</time>
        <extensions>
          <ns3:TrackPointExtension>
            <ns3:atemp>16.0</ns3:atemp>
            <ns3:hr>128</ns3:hr>
          </ns3:TrackPointExtension>
        </extensions>
      </trkpt>
      <trkpt lat="-22.0629407465457916259765625" lon="166.447150222957134246826171875">
        <ele>883.79998779296875</ele>
        <time>2016-08-12T19:05:48.000Z</time>
        <extensions>
          <ns3:TrackPointExtension>
            <ns3:atemp>16.0</ns3:atemp>
            <ns3:hr>128</ns3:hr>
          </ns3:TrackPointExtension>
        </extensions>
      </trkpt>
      <trkpt lat="-22.0629114098846912384033203125" lon="166.44715181551873683929443359375">
        <ele>883.5999755859375</ele>
        <time>2016-08-12T19:05:49.000Z</time>
        <extensions>
          <ns3:TrackPointExtension>
            <ns3:atemp>16.0</ns3:atemp>
            <ns3:hr>128</ns3:hr>
          </ns3:TrackPointExtension>
        </extensions>
      </trkpt>
      <trkpt lat="-22.0628862641751766204833984375" lon="166.44715265370905399322509765625">
        <ele>883.20001220703125</ele>
        <time>2016-08-12T19:05:50.000Z</time>
        <extensions>
          <ns3:TrackPointExtension>
            <ns3:atemp>16.0</ns3:atemp>
            <ns3:hr>128</ns3:hr>
          </ns3:TrackPointExtension>
        </extensions>
      </trkpt>
      <trkpt lat="-22.062854580581188201904296875" lon="166.44715449772775173187255859375">
        <ele>882.79998779296875</ele>
        <time>2016-08-12T19:05:51.000Z</time>
        <extensions>
          <ns3:TrackPointExtension>
            <ns3:atemp>16.0</ns3:atemp>
            <ns3:hr>128</ns3:hr>
          </ns3:TrackPointExtension>
        </extensions>
      </trkpt>
      <trkpt lat="-22.062823064625263214111328125" lon="166.447158269584178924560546875">
        <ele>882.5999755859375</ele>
        <time>2016-08-12T19:05:52.000Z</time>
        <extensions>
          <ns3:TrackPointExtension>
            <ns3:atemp>16.0</ns3:atemp>
            <ns3:hr>128</ns3:hr>
          </ns3:TrackPointExtension>
        </extensions>
      </trkpt>
      <trkpt lat="-22.06279582343995571136474609375" lon="166.44716371782124042510986328125">
        <ele>882.20001220703125</ele>
        <time>2016-08-12T19:05:53.000Z</time>
        <extensions>
          <ns3:TrackPointExtension>
            <ns3:atemp>15.0</ns3:atemp>
            <ns3:hr>128</ns3:hr>
          </ns3:TrackPointExtension>
        </extensions>
      </trkpt>
      <trkpt lat="-22.06276967190206050872802734375" lon="166.4471678249537944793701171875">
        <ele>882</ele>
        <time>2016-08-12T19:05:54.000Z</time>
        <extensions>
          <ns3:TrackPointExtension>
            <ns3:atemp>15.0</ns3:atemp>
            <ns3:hr>127</ns3:hr>
          </ns3:TrackPointExtension>
        </extensions>
      </trkpt>
      <trkpt lat="-22.06274687312543392181396484375" lon="166.447173021733760833740234375">
        <ele>882</ele>
        <time>2016-08-12T19:05:55.000Z</time>
        <extensions>
          <ns3:TrackPointExtension>
            <ns3:atemp>15.0</ns3:atemp>
            <ns3:hr>127</ns3:hr>
          </ns3:TrackPointExtension>
        </extensions>
      </trkpt>
      <trkpt lat="-22.06272306852042675018310546875" lon="166.447177045047283172607421875">
        <ele>881.79998779296875</ele>
        <time>2016-08-12T19:05:56.000Z</time>
        <extensions>
          <ns3:TrackPointExtension>
            <ns3:atemp>15.0</ns3:atemp>
            <ns3:hr>127</ns3:hr>
          </ns3:TrackPointExtension>
        </extensions>
      </trkpt>
      <trkpt lat="-22.06269926391541957855224609375" lon="166.4471785537898540496826171875">
        <ele>881.79998779296875</ele>
        <time>2016-08-12T19:05:57.000Z</time>
        <extensions>
          <ns3:TrackPointExtension>
            <ns3:atemp>15.0</ns3:atemp>
            <ns3:hr>127</ns3:hr>
          </ns3:TrackPointExtension>
        </extensions>
      </trkpt>
      <trkpt lat="-22.06267864443361759185791015625" lon="166.44718450494110584259033203125">
        <ele>881.79998779296875</ele>
        <time>2016-08-12T19:05:58.000Z</time>
        <extensions>
          <ns3:TrackPointExtension>
            <ns3:atemp>15.0</ns3:atemp>
            <ns3:hr>127</ns3:hr>
          </ns3:TrackPointExtension>
        </extensions>
      </trkpt>
      <trkpt lat="-22.06265282817184925079345703125" lon="166.4471933059394359588623046875">
        <ele>881.79998779296875</ele>
        <time>2016-08-12T19:05:59.000Z</time>
        <extensions>
          <ns3:TrackPointExtension>
            <ns3:atemp>15.0</ns3:atemp>
            <ns3:hr>127</ns3:hr>
          </ns3:TrackPointExtension>
        </extensions>
      </trkpt>
      <trkpt lat="-22.062627263367176055908203125" lon="166.44720193929970264434814453125">
        <ele>881.5999755859375</ele>
        <time>2016-08-12T19:06:00.000Z</time>
        <extensions>
          <ns3:TrackPointExtension>
            <ns3:atemp>15.0</ns3:atemp>
            <ns3:hr>127</ns3:hr>
          </ns3:TrackPointExtension>
        </extensions>
      </trkpt>
      <trkpt lat="-22.062604464590549468994140625" lon="166.44721551798284053802490234375">
        <ele>881.20001220703125</ele>
        <time>2016-08-12T19:06:01.000Z</time>
        <extensions>
          <ns3:TrackPointExtension>
            <ns3:atemp>15.0</ns3:atemp>
            <ns3:hr>127</ns3:hr>
          </ns3:TrackPointExtension>
        </extensions>
      </trkpt>
      <trkpt lat="-22.06258292309939861297607421875" lon="166.447226665914058685302734375">
        <ele>881.20001220703125</ele>
        <time>2016-08-12T19:06:02.000Z</time>
        <extensions>
          <ns3:TrackPointExtension>
            <ns3:atemp>15.0</ns3:atemp>
            <ns3:hr>127</ns3:hr>
          </ns3:TrackPointExtension>
        </extensions>
      </trkpt>
      <trkpt lat="-22.06256029196083545684814453125" lon="166.447236724197864532470703125">
        <ele>881</ele>
        <time>2016-08-12T19:06:03.000Z</time>
        <extensions>
          <ns3:TrackPointExtension>
            <ns3:atemp>15.0</ns3:atemp>
            <ns3:hr>127</ns3:hr>
          </ns3:TrackPointExtension>
        </extensions>
      </trkpt>
      <trkpt lat="-22.0625385828316211700439453125" lon="166.447243429720401763916015625">
        <ele>880.5999755859375</ele>
        <time>2016-08-12T19:06:04.000Z</time>
        <extensions>
          <ns3:TrackPointExtension>
            <ns3:atemp>15.0</ns3:atemp>
            <ns3:hr>126</ns3:hr>
          </ns3:TrackPointExtension>
        </extensions>
      </trkpt>
      <trkpt lat="-22.0625115931034088134765625" lon="166.44725273363292217254638671875">
        <ele>880.5999755859375</ele>
        <time>2016-08-12T19:06:05.000Z</time>
        <extensions>
          <ns3:TrackPointExtension>
            <ns3:atemp>15.0</ns3:atemp>
            <ns3:hr>126</ns3:hr>
          </ns3:TrackPointExtension>
        </extensions>
      </trkpt>
      <trkpt lat="-22.0624882914125919342041015625" lon="166.44726522266864776611328125">
        <ele>880.5999755859375</ele>
        <time>2016-08-12T19:06:06.000Z</time>
        <extensions>
          <ns3:TrackPointExtension>
            <ns3:atemp>15.0</ns3:atemp>
            <ns3:hr>126</ns3:hr>
          </ns3:TrackPointExtension>
        </extensions>
      </trkpt>
      <trkpt lat="-22.0624681748449802398681640625" lon="166.44727318547666072845458984375">
        <ele>880.20001220703125</ele>
        <time>2016-08-12T19:06:07.000Z</time>
        <extensions>
          <ns3:TrackPointExtension>
            <ns3:atemp>15.0</ns3:atemp>
            <ns3:hr>126</ns3:hr>
          </ns3:TrackPointExtension>
        </extensions>
      </trkpt>
      <trkpt lat="-22.06244311295449733734130859375" lon="166.4472788013517856597900390625">
        <ele>879.79998779296875</ele>
        <time>2016-08-12T19:06:08.000Z</time>
        <extensions>
          <ns3:TrackPointExtension>
            <ns3:atemp>15.0</ns3:atemp>
            <ns3:hr>126</ns3:hr>
          </ns3:TrackPointExtension>
        </extensions>
      </trkpt>
      <trkpt lat="-22.0624162070453166961669921875" lon="166.4472875185310840606689453125">
        <ele>879.79998779296875</ele>
        <time>2016-08-12T19:06:09.000Z</time>
        <extensions>
          <ns3:TrackPointExtension>
            <ns3:atemp>15.0</ns3:atemp>
            <ns3:hr>126</ns3:hr>
          </ns3:TrackPointExtension>
        </extensions>
      </trkpt>
      <trkpt lat="-22.062389887869358062744140625" lon="166.4472935535013675689697265625">
        <ele>879.79998779296875</ele>
        <time>2016-08-12T19:06:10.000Z</time>
        <extensions>
          <ns3:TrackPointExtension>
            <ns3:atemp>15.0</ns3:atemp>
            <ns3:hr>126</ns3:hr>
          </ns3:TrackPointExtension>
        </extensions>
      </trkpt>
      <trkpt lat="-22.06236784346401691436767578125" lon="166.4472975768148899078369140625">
        <ele>879.20001220703125</ele>
        <time>2016-08-12T19:06:11.000Z</time>
        <extensions>
          <ns3:TrackPointExtension>
            <ns3:atemp>15.0</ns3:atemp>
            <ns3:hr>126</ns3:hr>
          </ns3:TrackPointExtension>
        </extensions>
      </trkpt>
      <trkpt lat="-22.0623457990586757659912109375" lon="166.4472928829491138458251953125">
        <ele>879.20001220703125</ele>
        <time>2016-08-12T19:06:12.000Z</time>
        <extensions>
          <ns3:TrackPointExtension>
            <ns3:atemp>15.0</ns3:atemp>
            <ns3:hr>127</ns3:hr>
          </ns3:TrackPointExtension>
        </extensions>
      </trkpt>
      <trkpt lat="-22.06231570802628993988037109375" lon="166.44729045219719409942626953125">
        <ele>879.4000244140625</ele>
        <time>2016-08-12T19:06:13.000Z</time>
        <extensions>
          <ns3:TrackPointExtension>
            <ns3:atemp>15.0</ns3:atemp>
            <ns3:hr>127</ns3:hr>
          </ns3:TrackPointExtension>
        </extensions>
      </trkpt>
      <trkpt lat="-22.062289305031299591064453125" lon="166.4472895301878452301025390625">
        <ele>879.4000244140625</ele>
        <time>2016-08-12T19:06:14.000Z</time>
        <extensions>
          <ns3:TrackPointExtension>
            <ns3:atemp>15.0</ns3:atemp>
            <ns3:hr>127</ns3:hr>
          </ns3:TrackPointExtension>
        </extensions>
      </trkpt>
      <trkpt lat="-22.0622576214373111724853515625" lon="166.44729078747332096099853515625">
        <ele>879.4000244140625</ele>
        <time>2016-08-12T19:06:15.000Z</time>
        <extensions>
          <ns3:TrackPointExtension>
            <ns3:atemp>15.0</ns3:atemp>
            <ns3:hr>127</ns3:hr>
          </ns3:TrackPointExtension>
        </extensions>
      </trkpt>
      <trkpt lat="-22.062225602567195892333984375" lon="166.44728844054043292999267578125">
        <ele>879.4000244140625</ele>
        <time>2016-08-12T19:06:16.000Z</time>
        <extensions>
          <ns3:TrackPointExtension>
            <ns3:atemp>15.0</ns3:atemp>
            <ns3:hr>127</ns3:hr>
          </ns3:TrackPointExtension>
        </extensions>
      </trkpt>
      <trkpt lat="-22.062197439372539520263671875" lon="166.44728600978851318359375">
        <ele>879.20001220703125</ele>
        <time>2016-08-12T19:06:17.000Z</time>
        <extensions>
          <ns3:TrackPointExtension>
            <ns3:atemp>15.0</ns3:atemp>
            <ns3:hr>127</ns3:hr>
          </ns3:TrackPointExtension>
        </extensions>
      </trkpt>
      <trkpt lat="-22.0621674321591854095458984375" lon="166.447282321751117706298828125">
        <ele>879</ele>
        <time>2016-08-12T19:06:18.000Z</time>
        <extensions>
          <ns3:TrackPointExtension>
            <ns3:atemp>15.0</ns3:atemp>
            <ns3:hr>127</ns3:hr>
          </ns3:TrackPointExtension>
        </extensions>
      </trkpt>
      <trkpt lat="-22.0621359162032604217529296875" lon="166.44727553240954875946044921875">
        <ele>879</ele>
        <time>2016-08-12T19:06:19.000Z</time>
        <extensions>
          <ns3:TrackPointExtension>
            <ns3:atemp>15.0</ns3:atemp>
            <ns3:hr>127</ns3:hr>
          </ns3:TrackPointExtension>
        </extensions>
      </trkpt>
      <trkpt lat="-22.06210766918957233428955078125" lon="166.44727368839085102081298828125">
        <ele>879.20001220703125</ele>
        <time>2016-08-12T19:06:20.000Z</time>
        <extensions>
          <ns3:TrackPointExtension>
            <ns3:atemp>15.0</ns3:atemp>
            <ns3:hr>127</ns3:hr>
          </ns3:TrackPointExtension>
        </extensions>
      </trkpt>
      <trkpt lat="-22.0620745606720447540283203125" lon="166.447276957333087921142578125">
        <ele>879</ele>
        <time>2016-08-12T19:06:21.000Z</time>
        <extensions>
          <ns3:TrackPointExtension>
            <ns3:atemp>15.0</ns3:atemp>
            <ns3:hr>126</ns3:hr>
          </ns3:TrackPointExtension>
        </extensions>
      </trkpt>
      <trkpt lat="-22.0620450563728809356689453125" lon="166.44728441722691059112548828125">
        <ele>878.5999755859375</ele>
        <time>2016-08-12T19:06:22.000Z</time>
        <extensions>
          <ns3:TrackPointExtension>
            <ns3:atemp>15.0</ns3:atemp>
            <ns3:hr>127</ns3:hr>
          </ns3:TrackPointExtension>
        </extensions>
      </trkpt>
      <trkpt lat="-22.06202141940593719482421875" lon="166.44729296676814556121826171875">
        <ele>878.79998779296875</ele>
        <time>2016-08-12T19:06:23.000Z</time>
        <extensions>
          <ns3:TrackPointExtension>
            <ns3:atemp>15.0</ns3:atemp>
            <ns3:hr>127</ns3:hr>
          </ns3:TrackPointExtension>
        </extensions>
      </trkpt>
      <trkpt lat="-22.061998955905437469482421875" lon="166.44730419851839542388916015625">
        <ele>879.20001220703125</ele>
        <time>2016-08-12T19:06:24.000Z</time>
        <extensions>
          <ns3:TrackPointExtension>
            <ns3:atemp>15.0</ns3:atemp>
            <ns3:hr>127</ns3:hr>
          </ns3:TrackPointExtension>
        </extensions>
      </trkpt>
      <trkpt lat="-22.06197892315685749053955078125" lon="166.447315514087677001953125">
        <ele>879</ele>
        <time>2016-08-12T19:06:25.000Z</time>
        <extensions>
          <ns3:TrackPointExtension>
            <ns3:atemp>15.0</ns3:atemp>
            <ns3:hr>127</ns3:hr>
          </ns3:TrackPointExtension>
        </extensions>
      </trkpt>
      <trkpt lat="-22.0619602315127849578857421875" lon="166.44732833839952945709228515625">
        <ele>878.5999755859375</ele>
        <time>2016-08-12T19:06:26.000Z</time>
        <extensions>
          <ns3:TrackPointExtension>
            <ns3:atemp>15.0</ns3:atemp>
            <ns3:hr>128</ns3:hr>
          </ns3:TrackPointExtension>
        </extensions>
      </trkpt>
      <trkpt lat="-22.061943300068378448486328125" lon="166.4473421685397624969482421875">
        <ele>878.5999755859375</ele>
        <time>2016-08-12T19:06:27.000Z</time>
        <extensions>
          <ns3:TrackPointExtension>
            <ns3:atemp>15.0</ns3:atemp>
            <ns3:hr>128</ns3:hr>
          </ns3:TrackPointExtension>
        </extensions>
      </trkpt>
      <trkpt lat="-22.06192309968173503875732421875" lon="166.4473606087267398834228515625">
        <ele>878.79998779296875</ele>
        <time>2016-08-12T19:06:28.000Z</time>
        <extensions>
          <ns3:TrackPointExtension>
            <ns3:atemp>15.0</ns3:atemp>
            <ns3:hr>128</ns3:hr>
          </ns3:TrackPointExtension>
        </extensions>
      </trkpt>
      <trkpt lat="-22.06190315075218677520751953125" lon="166.44738064147531986236572265625">
        <ele>878.79998779296875</ele>
        <time>2016-08-12T19:06:29.000Z</time>
        <extensions>
          <ns3:TrackPointExtension>
            <ns3:atemp>15.0</ns3:atemp>
            <ns3:hr>128</ns3:hr>
          </ns3:TrackPointExtension>
        </extensions>
      </trkpt>
      <trkpt lat="-22.06188856624066829681396484375" lon="166.4474018476903438568115234375">
        <ele>878.5999755859375</ele>
        <time>2016-08-12T19:06:30.000Z</time>
        <extensions>
          <ns3:TrackPointExtension>
            <ns3:atemp>15.0</ns3:atemp>
            <ns3:hr>128</ns3:hr>
          </ns3:TrackPointExtension>
        </extensions>
      </trkpt>
      <trkpt lat="-22.0618732273578643798828125" lon="166.447423808276653289794921875">
        <ele>878.4000244140625</ele>
        <time>2016-08-12T19:06:31.000Z</time>
        <extensions>
          <ns3:TrackPointExtension>
            <ns3:atemp>15.0</ns3:atemp>
            <ns3:hr>128</ns3:hr>
          </ns3:TrackPointExtension>
        </extensions>
      </trkpt>
      <trkpt lat="-22.061857469379901885986328125" lon="166.44744568504393100738525390625">
        <ele>878.5999755859375</ele>
        <time>2016-08-12T19:06:32.000Z</time>
        <extensions>
          <ns3:TrackPointExtension>
            <ns3:atemp>15.0</ns3:atemp>
            <ns3:hr>128</ns3:hr>
          </ns3:TrackPointExtension>
        </extensions>
      </trkpt>
      <trkpt lat="-22.061836682260036468505859375" lon="166.447464711964130401611328125">
        <ele>878.79998779296875</ele>
        <time>2016-08-12T19:06:33.000Z</time>
        <extensions>
          <ns3:TrackPointExtension>
            <ns3:atemp>15.0</ns3:atemp>
            <ns3:hr>129</ns3:hr>
          </ns3:TrackPointExtension>
        </extensions>
      </trkpt>
      <trkpt lat="-22.0618180744349956512451171875" lon="166.44748373888432979583740234375">
        <ele>878.5999755859375</ele>
        <time>2016-08-12T19:06:34.000Z</time>
        <extensions>
          <ns3:TrackPointExtension>
            <ns3:atemp>15.0</ns3:atemp>
            <ns3:hr>129</ns3:hr>
          </ns3:TrackPointExtension>
        </extensions>
      </trkpt>
      <trkpt lat="-22.0618021488189697265625" lon="166.44750033505260944366455078125">
        <ele>878.20001220703125</ele>
        <time>2016-08-12T19:06:35.000Z</time>
        <extensions>
          <ns3:TrackPointExtension>
            <ns3:atemp>15.0</ns3:atemp>
            <ns3:hr>129</ns3:hr>
          </ns3:TrackPointExtension>
        </extensions>
      </trkpt>
      <trkpt lat="-22.0617832057178020477294921875" lon="166.44751776941120624542236328125">
        <ele>878.4000244140625</ele>
        <time>2016-08-12T19:06:36.000Z</time>
        <extensions>
          <ns3:TrackPointExtension>
            <ns3:atemp>15.0</ns3:atemp>
            <ns3:hr>129</ns3:hr>
          </ns3:TrackPointExtension>
        </extensions>
      </trkpt>
      <trkpt lat="-22.0617637597024440765380859375" lon="166.4475312642753124237060546875">
        <ele>878.5999755859375</ele>
        <time>2016-08-12T19:06:37.000Z</time>
        <extensions>
          <ns3:TrackPointExtension>
            <ns3:atemp>15.0</ns3:atemp>
            <ns3:hr>128</ns3:hr>
          </ns3:TrackPointExtension>
        </extensions>
      </trkpt>
      <trkpt lat="-22.06174272112548351287841796875" lon="166.44753880798816680908203125">
        <ele>878.5999755859375</ele>
        <time>2016-08-12T19:06:38.000Z</time>
        <extensions>
          <ns3:TrackPointExtension>
            <ns3:atemp>15.0</ns3:atemp>
            <ns3:hr>128</ns3:hr>
          </ns3:TrackPointExtension>
        </extensions>
      </trkpt>
      <trkpt lat="-22.0617201738059520721435546875" lon="166.44754291512072086334228515625">
        <ele>878.20001220703125</ele>
        <time>2016-08-12T19:06:39.000Z</time>
        <extensions>
          <ns3:TrackPointExtension>
            <ns3:atemp>15.0</ns3:atemp>
            <ns3:hr>128</ns3:hr>
          </ns3:TrackPointExtension>
        </extensions>
      </trkpt>
      <trkpt lat="-22.06169729121029376983642578125" lon="166.44754526205360889434814453125">
        <ele>878.20001220703125</ele>
        <time>2016-08-12T19:06:40.000Z</time>
        <extensions>
          <ns3:TrackPointExtension>
            <ns3:atemp>15.0</ns3:atemp>
            <ns3:hr>128</ns3:hr>
          </ns3:TrackPointExtension>
        </extensions>
      </trkpt>
      <trkpt lat="-22.06167382188141345977783203125" lon="166.44753855653107166290283203125">
        <ele>878.5999755859375</ele>
        <time>2016-08-12T19:06:41.000Z</time>
        <extensions>
          <ns3:TrackPointExtension>
            <ns3:atemp>15.0</ns3:atemp>
            <ns3:hr>129</ns3:hr>
          </ns3:TrackPointExtension>
        </extensions>
      </trkpt>
      <trkpt lat="-22.06165571697056293487548828125" lon="166.44752807915210723876953125">
        <ele>878.5999755859375</ele>
        <time>2016-08-12T19:06:42.000Z</time>
        <extensions>
          <ns3:TrackPointExtension>
            <ns3:atemp>15.0</ns3:atemp>
            <ns3:hr>129</ns3:hr>
          </ns3:TrackPointExtension>
        </extensions>
      </trkpt>
      <trkpt lat="-22.06163585186004638671875" lon="166.4475178532302379608154296875">
        <ele>878.4000244140625</ele>
        <time>2016-08-12T19:06:43.000Z</time>
        <extensions>
          <ns3:TrackPointExtension>
            <ns3:atemp>15.0</ns3:atemp>
            <ns3:hr>129</ns3:hr>
          </ns3:TrackPointExtension>
        </extensions>
      </trkpt>
      <trkpt lat="-22.0616130530834197998046875" lon="166.44750687293708324432373046875">
        <ele>878.20001220703125</ele>
        <time>2016-08-12T19:06:44.000Z</time>
        <extensions>
          <ns3:TrackPointExtension>
            <ns3:atemp>15.0</ns3:atemp>
            <ns3:hr>129</ns3:hr>
          </ns3:TrackPointExtension>
        </extensions>
      </trkpt>
      <trkpt lat="-22.06159369088709354400634765625" lon="166.44749580882489681243896484375">
        <ele>878.5999755859375</ele>
        <time>2016-08-12T19:06:45.000Z</time>
        <extensions>
          <ns3:TrackPointExtension>
            <ns3:atemp>15.0</ns3:atemp>
            <ns3:hr>129</ns3:hr>
          </ns3:TrackPointExtension>
        </extensions>
      </trkpt>
      <trkpt lat="-22.061571814119815826416015625" lon="166.44748256541788578033447265625">
        <ele>879</ele>
        <time>2016-08-12T19:06:46.000Z</time>
        <extensions>
          <ns3:TrackPointExtension>
            <ns3:atemp>15.0</ns3:atemp>
            <ns3:hr>128</ns3:hr>
          </ns3:TrackPointExtension>
        </extensions>
      </trkpt>
      <trkpt lat="-22.06154993735253810882568359375" lon="166.4474699087440967559814453125">
        <ele>878.5999755859375</ele>
        <time>2016-08-12T19:06:47.000Z</time>
        <extensions>
          <ns3:TrackPointExtension>
            <ns3:atemp>15.0</ns3:atemp>
            <ns3:hr>128</ns3:hr>
          </ns3:TrackPointExtension>
        </extensions>
      </trkpt>
      <trkpt lat="-22.061530239880084991455078125" lon="166.447454653680324554443359375">
        <ele>878.4000244140625</ele>
        <time>2016-08-12T19:06:48.000Z</time>
        <extensions>
          <ns3:TrackPointExtension>
            <ns3:atemp>15.0</ns3:atemp>
            <ns3:hr>129</ns3:hr>
          </ns3:TrackPointExtension>
        </extensions>
      </trkpt>
      <trkpt lat="-22.0615072734653949737548828125" lon="166.44744266755878925323486328125">
        <ele>878.5999755859375</ele>
        <time>2016-08-12T19:06:49.000Z</time>
        <extensions>
          <ns3:TrackPointExtension>
            <ns3:atemp>15.0</ns3:atemp>
            <ns3:hr>128</ns3:hr>
          </ns3:TrackPointExtension>
        </extensions>
      </trkpt>
      <trkpt lat="-22.061486653983592987060546875" lon="166.44743126817047595977783203125">
        <ele>879</ele>
        <time>2016-08-12T19:06:50.000Z</time>
        <extensions>
          <ns3:TrackPointExtension>
            <ns3:atemp>15.0</ns3:atemp>
            <ns3:hr>129</ns3:hr>
          </ns3:TrackPointExtension>
        </extensions>
      </trkpt>
      <trkpt lat="-22.0614630170166492462158203125" lon="166.44742137752473354339599609375">
        <ele>879</ele>
        <time>2016-08-12T19:06:51.000Z</time>
        <extensions>
          <ns3:TrackPointExtension>
            <ns3:atemp>15.0</ns3:atemp>
            <ns3:hr>129</ns3:hr>
          </ns3:TrackPointExtension>
        </extensions>
      </trkpt>
      <trkpt lat="-22.061442397534847259521484375" lon="166.44741215743124485015869140625">
        <ele>878.79998779296875</ele>
        <time>2016-08-12T19:06:52.000Z</time>
        <extensions>
          <ns3:TrackPointExtension>
            <ns3:atemp>15.0</ns3:atemp>
            <ns3:hr>129</ns3:hr>
          </ns3:TrackPointExtension>
        </extensions>
      </trkpt>
      <trkpt lat="-22.061423622071743011474609375" lon="166.44739941693842411041259765625">
        <ele>878.79998779296875</ele>
        <time>2016-08-12T19:06:53.000Z</time>
        <extensions>
          <ns3:TrackPointExtension>
            <ns3:atemp>15.0</ns3:atemp>
            <ns3:hr>129</ns3:hr>
          </ns3:TrackPointExtension>
        </extensions>
      </trkpt>
      <trkpt lat="-22.06140342168509960174560546875" lon="166.4473867602646350860595703125">
        <ele>879.20001220703125</ele>
        <time>2016-08-12T19:06:54.000Z</time>
        <extensions>
          <ns3:TrackPointExtension>
            <ns3:atemp>15.0</ns3:atemp>
            <ns3:hr>129</ns3:hr>
          </ns3:TrackPointExtension>
        </extensions>
      </trkpt>
      <trkpt lat="-22.061386741697788238525390625" lon="166.44737225957214832305908203125">
        <ele>879.20001220703125</ele>
        <time>2016-08-12T19:06:55.000Z</time>
        <extensions>
          <ns3:TrackPointExtension>
            <ns3:atemp>15.0</ns3:atemp>
            <ns3:hr>129</ns3:hr>
          </ns3:TrackPointExtension>
        </extensions>
      </trkpt>
      <trkpt lat="-22.06136721186339855194091796875" lon="166.447356082499027252197265625">
        <ele>879</ele>
        <time>2016-08-12T19:06:56.000Z</time>
        <extensions>
          <ns3:TrackPointExtension>
            <ns3:atemp>15.0</ns3:atemp>
            <ns3:hr>129</ns3:hr>
          </ns3:TrackPointExtension>
        </extensions>
      </trkpt>
      <trkpt lat="-22.06134843640029430389404296875" lon="166.44734191708266735076904296875">
        <ele>879</ele>
        <time>2016-08-12T19:06:57.000Z</time>
        <extensions>
          <ns3:TrackPointExtension>
            <ns3:atemp>15.0</ns3:atemp>
            <ns3:hr>129</ns3:hr>
          </ns3:TrackPointExtension>
        </extensions>
      </trkpt>
      <trkpt lat="-22.06132899038493633270263671875" lon="166.44733068533241748809814453125">
        <ele>879.20001220703125</ele>
        <time>2016-08-12T19:06:58.000Z</time>
        <extensions>
          <ns3:TrackPointExtension>
            <ns3:atemp>15.0</ns3:atemp>
            <ns3:hr>129</ns3:hr>
          </ns3:TrackPointExtension>
        </extensions>
      </trkpt>
      <trkpt lat="-22.061305940151214599609375" lon="166.447320543229579925537109375">
        <ele>879.20001220703125</ele>
        <time>2016-08-12T19:06:59.000Z</time>
        <extensions>
          <ns3:TrackPointExtension>
            <ns3:atemp>15.0</ns3:atemp>
            <ns3:hr>129</ns3:hr>
          </ns3:TrackPointExtension>
        </extensions>
      </trkpt>
      <trkpt lat="-22.06128322519361972808837890625" lon="166.44730989821255207061767578125">
        <ele>879</ele>
        <time>2016-08-12T19:07:00.000Z</time>
        <extensions>
          <ns3:TrackPointExtension>
            <ns3:atemp>15.0</ns3:atemp>
            <ns3:hr>129</ns3:hr>
          </ns3:TrackPointExtension>
        </extensions>
      </trkpt>
      <trkpt lat="-22.0612588338553905487060546875" lon="166.44729883410036563873291015625">
        <ele>878.79998779296875</ele>
        <time>2016-08-12T19:07:01.000Z</time>
        <extensions>
          <ns3:TrackPointExtension>
            <ns3:atemp>15.0</ns3:atemp>
            <ns3:hr>129</ns3:hr>
          </ns3:TrackPointExtension>
        </extensions>
      </trkpt>
      <trkpt lat="-22.0612370409071445465087890625" lon="166.4472873508930206298828125">
        <ele>879.20001220703125</ele>
        <time>2016-08-12T19:07:02.000Z</time>
        <extensions>
          <ns3:TrackPointExtension>
            <ns3:atemp>15.0</ns3:atemp>
            <ns3:hr>129</ns3:hr>
          </ns3:TrackPointExtension>
        </extensions>
      </trkpt>
      <trkpt lat="-22.06122036091983318328857421875" lon="166.44727528095245361328125">
        <ele>879.5999755859375</ele>
        <time>2016-08-12T19:07:03.000Z</time>
        <extensions>
          <ns3:TrackPointExtension>
            <ns3:atemp>15.0</ns3:atemp>
            <ns3:hr>129</ns3:hr>
          </ns3:TrackPointExtension>
        </extensions>
      </trkpt>
      <trkpt lat="-22.061198987066745758056640625" lon="166.447264216840267181396484375">
        <ele>879.5999755859375</ele>
        <time>2016-08-12T19:07:04.000Z</time>
        <extensions>
          <ns3:TrackPointExtension>
            <ns3:atemp>15.0</ns3:atemp>
            <ns3:hr>129</ns3:hr>
          </ns3:TrackPointExtension>
        </extensions>
      </trkpt>
      <trkpt lat="-22.06117979250848293304443359375" lon="166.4472533203661441802978515625">
        <ele>879.4000244140625</ele>
        <time>2016-08-12T19:07:05.000Z</time>
        <extensions>
          <ns3:TrackPointExtension>
            <ns3:atemp>15.0</ns3:atemp>
            <ns3:hr>130</ns3:hr>
          </ns3:TrackPointExtension>
        </extensions>
      </trkpt>
      <trkpt lat="-22.06115732900798320770263671875" lon="166.447245441377162933349609375">
        <ele>879.20001220703125</ele>
        <time>2016-08-12T19:07:06.000Z</time>
        <extensions>
          <ns3:TrackPointExtension>
            <ns3:atemp>15.0</ns3:atemp>
            <ns3:hr>130</ns3:hr>
          </ns3:TrackPointExtension>
        </extensions>
      </trkpt>
      <trkpt lat="-22.06113218329846858978271484375" lon="166.44724150188267230987548828125">
        <ele>879.20001220703125</ele>
        <time>2016-08-12T19:07:07.000Z</time>
        <extensions>
          <ns3:TrackPointExtension>
            <ns3:atemp>15.0</ns3:atemp>
            <ns3:hr>130</ns3:hr>
          </ns3:TrackPointExtension>
        </extensions>
      </trkpt>
      <trkpt lat="-22.06110678613185882568359375" lon="166.44723881967365741729736328125">
        <ele>878.79998779296875</ele>
        <time>2016-08-12T19:07:08.000Z</time>
        <extensions>
          <ns3:TrackPointExtension>
            <ns3:atemp>15.0</ns3:atemp>
            <ns3:hr>130</ns3:hr>
          </ns3:TrackPointExtension>
        </extensions>
      </trkpt>
      <trkpt lat="-22.06108071841299533843994140625" lon="166.447239406406879425048828125">
        <ele>878.5999755859375</ele>
        <time>2016-08-12T19:07:09.000Z</time>
        <extensions>
          <ns3:TrackPointExtension>
            <ns3:atemp>15.0</ns3:atemp>
            <ns3:hr>131</ns3:hr>
          </ns3:TrackPointExtension>
        </extensions>
      </trkpt>
      <trkpt lat="-22.06105523742735385894775390625" lon="166.4472452737390995025634765625">
        <ele>878.5999755859375</ele>
        <time>2016-08-12T19:07:10.000Z</time>
        <extensions>
          <ns3:TrackPointExtension>
            <ns3:atemp>15.0</ns3:atemp>
            <ns3:hr>131</ns3:hr>
          </ns3:TrackPointExtension>
        </extensions>
      </trkpt>
      <trkpt lat="-22.06103109754621982574462890625" lon="166.44725139252841472625732421875">
        <ele>879</ele>
        <time>2016-08-12T19:07:11.000Z</time>
        <extensions>
          <ns3:TrackPointExtension>
            <ns3:atemp>15.0</ns3:atemp>
            <ns3:hr>131</ns3:hr>
          </ns3:TrackPointExtension>
        </extensions>
      </trkpt>
      <trkpt lat="-22.0610080473124980926513671875" lon="166.4472580142319202423095703125">
        <ele>879.20001220703125</ele>
        <time>2016-08-12T19:07:12.000Z</time>
        <extensions>
          <ns3:TrackPointExtension>
            <ns3:atemp>15.0</ns3:atemp>
            <ns3:hr>131</ns3:hr>
          </ns3:TrackPointExtension>
        </extensions>
      </trkpt>
      <trkpt lat="-22.06098482944071292877197265625" lon="166.44726522266864776611328125">
        <ele>879.4000244140625</ele>
        <time>2016-08-12T19:07:13.000Z</time>
        <extensions>
          <ns3:TrackPointExtension>
            <ns3:atemp>15.0</ns3:atemp>
            <ns3:hr>131</ns3:hr>
          </ns3:TrackPointExtension>
        </extensions>
      </trkpt>
      <trkpt lat="-22.06096169538795948028564453125" lon="166.44727251492440700531005859375">
        <ele>879.20001220703125</ele>
        <time>2016-08-12T19:07:14.000Z</time>
        <extensions>
          <ns3:TrackPointExtension>
            <ns3:atemp>15.0</ns3:atemp>
            <ns3:hr>131</ns3:hr>
          </ns3:TrackPointExtension>
        </extensions>
      </trkpt>
      <trkpt lat="-22.06093990243971347808837890625" lon="166.44728156737983226776123046875">
        <ele>879</ele>
        <time>2016-08-12T19:07:15.000Z</time>
        <extensions>
          <ns3:TrackPointExtension>
            <ns3:atemp>15.0</ns3:atemp>
            <ns3:hr>131</ns3:hr>
          </ns3:TrackPointExtension>
        </extensions>
      </trkpt>
      <trkpt lat="-22.0609195344150066375732421875" lon="166.44728978164494037628173828125">
        <ele>878.79998779296875</ele>
        <time>2016-08-12T19:07:16.000Z</time>
        <extensions>
          <ns3:TrackPointExtension>
            <ns3:atemp>15.0</ns3:atemp>
            <ns3:hr>131</ns3:hr>
          </ns3:TrackPointExtension>
        </extensions>
      </trkpt>
      <trkpt lat="-22.0609017647802829742431640625" lon="166.44729606807231903076171875">
        <ele>878.79998779296875</ele>
        <time>2016-08-12T19:07:17.000Z</time>
        <extensions>
          <ns3:TrackPointExtension>
            <ns3:atemp>15.0</ns3:atemp>
            <ns3:hr>131</ns3:hr>
          </ns3:TrackPointExtension>
        </extensions>
      </trkpt>
      <trkpt lat="-22.0608839951455593109130859375" lon="166.44729564897716045379638671875">
        <ele>878.79998779296875</ele>
        <time>2016-08-12T19:07:18.000Z</time>
        <extensions>
          <ns3:TrackPointExtension>
            <ns3:atemp>15.0</ns3:atemp>
            <ns3:hr>131</ns3:hr>
          </ns3:TrackPointExtension>
        </extensions>
      </trkpt>
      <trkpt lat="-22.06086941063404083251953125" lon="166.447289697825908660888671875">
        <ele>878.79998779296875</ele>
        <time>2016-08-12T19:07:19.000Z</time>
        <extensions>
          <ns3:TrackPointExtension>
            <ns3:atemp>15.0</ns3:atemp>
            <ns3:hr>132</ns3:hr>
          </ns3:TrackPointExtension>
        </extensions>
      </trkpt>
      <trkpt lat="-22.060858346521854400634765625" lon="166.447281651198863983154296875">
        <ele>879</ele>
        <time>2016-08-12T19:07:20.000Z</time>
        <extensions>
          <ns3:TrackPointExtension>
            <ns3:atemp>15.0</ns3:atemp>
            <ns3:hr>131</ns3:hr>
          </ns3:TrackPointExtension>
        </extensions>
      </trkpt>
      <trkpt lat="-22.06084636040031909942626953125" lon="166.447272934019565582275390625">
        <ele>879</ele>
        <time>2016-08-12T19:07:21.000Z</time>
        <extensions>
          <ns3:TrackPointExtension>
            <ns3:atemp>15.0</ns3:atemp>
            <ns3:hr>131</ns3:hr>
          </ns3:TrackPointExtension>
        </extensions>
      </trkpt>
      <trkpt lat="-22.06083345226943492889404296875" lon="166.447266899049282073974609375">
        <ele>879.20001220703125</ele>
        <time>2016-08-12T19:07:22.000Z</time>
        <extensions>
          <ns3:TrackPointExtension>
            <ns3:atemp>15.0</ns3:atemp>
            <ns3:hr>131</ns3:hr>
          </ns3:TrackPointExtension>
        </extensions>
      </trkpt>
      <trkpt lat="-22.0608223043382167816162109375" lon="166.4472610317170619964599609375">
        <ele>879.20001220703125</ele>
        <time>2016-08-12T19:07:23.000Z</time>
        <extensions>
          <ns3:TrackPointExtension>
            <ns3:atemp>15.0</ns3:atemp>
            <ns3:hr>131</ns3:hr>
          </ns3:TrackPointExtension>
        </extensions>
      </trkpt>
      <trkpt lat="-22.06080973148345947265625" lon="166.44725424237549304962158203125">
        <ele>879.4000244140625</ele>
        <time>2016-08-12T19:07:24.000Z</time>
        <extensions>
          <ns3:TrackPointExtension>
            <ns3:atemp>15.0</ns3:atemp>
            <ns3:hr>131</ns3:hr>
          </ns3:TrackPointExtension>
        </extensions>
      </trkpt>
      <trkpt lat="-22.06080227158963680267333984375" lon="166.44724468700587749481201171875">
        <ele>879.5999755859375</ele>
        <time>2016-08-12T19:07:25.000Z</time>
        <extensions>
          <ns3:TrackPointExtension>
            <ns3:atemp>15.0</ns3:atemp>
            <ns3:hr>131</ns3:hr>
          </ns3:TrackPointExtension>
        </extensions>
      </trkpt>
      <trkpt lat="-22.06079489551484584808349609375" lon="166.44723571836948394775390625">
        <ele>879.79998779296875</ele>
        <time>2016-08-12T19:07:26.000Z</time>
        <extensions>
          <ns3:TrackPointExtension>
            <ns3:atemp>15.0</ns3:atemp>
            <ns3:hr>130</ns3:hr>
          </ns3:TrackPointExtension>
        </extensions>
      </trkpt>
      <trkpt lat="-22.06078466959297657012939453125" lon="166.447227336466312408447265625">
        <ele>880</ele>
        <time>2016-08-12T19:07:27.000Z</time>
        <extensions>
          <ns3:TrackPointExtension>
            <ns3:atemp>15.0</ns3:atemp>
            <ns3:hr>130</ns3:hr>
          </ns3:TrackPointExtension>
        </extensions>
      </trkpt>
      <trkpt lat="-22.06077578477561473846435546875" lon="166.4472194574773311614990234375">
        <ele>880.20001220703125</ele>
        <time>2016-08-12T19:07:28.000Z</time>
        <extensions>
          <ns3:TrackPointExtension>
            <ns3:atemp>15.0</ns3:atemp>
            <ns3:hr>130</ns3:hr>
          </ns3:TrackPointExtension>
        </extensions>
      </trkpt>
      <trkpt lat="-22.0607708394527435302734375" lon="166.44721451215445995330810546875">
        <ele>880.4000244140625</ele>
        <time>2016-08-12T19:07:29.000Z</time>
        <extensions>
          <ns3:TrackPointExtension>
            <ns3:atemp>15.0</ns3:atemp>
            <ns3:hr>130</ns3:hr>
          </ns3:TrackPointExtension>
        </extensions>
      </trkpt>
      <trkpt lat="-22.06076488830149173736572265625" lon="166.4472068846225738525390625">
        <ele>880.5999755859375</ele>
        <time>2016-08-12T19:07:30.000Z</time>
        <extensions>
          <ns3:TrackPointExtension>
            <ns3:atemp>15.0</ns3:atemp>
            <ns3:hr>130</ns3:hr>
          </ns3:TrackPointExtension>
        </extensions>
      </trkpt>
      <trkpt lat="-22.06075466237962245941162109375" lon="166.44719892181456089019775390625">
        <ele>880.79998779296875</ele>
        <time>2016-08-12T19:07:31.000Z</time>
        <extensions>
          <ns3:TrackPointExtension>
            <ns3:atemp>15.0</ns3:atemp>
            <ns3:hr>129</ns3:hr>
          </ns3:TrackPointExtension>
        </extensions>
      </trkpt>
      <trkpt lat="-22.060745023190975189208984375" lon="166.4471943117678165435791015625">
        <ele>881</ele>
        <time>2016-08-12T19:07:32.000Z</time>
        <extensions>
          <ns3:TrackPointExtension>
            <ns3:atemp>15.0</ns3:atemp>
            <ns3:hr>130</ns3:hr>
          </ns3:TrackPointExtension>
        </extensions>
      </trkpt>
      <trkpt lat="-22.0607332885265350341796875" lon="166.44718802534043788909912109375">
        <ele>881</ele>
        <time>2016-08-12T19:07:33.000Z</time>
        <extensions>
          <ns3:TrackPointExtension>
            <ns3:atemp>15.0</ns3:atemp>
            <ns3:hr>130</ns3:hr>
          </ns3:TrackPointExtension>
        </extensions>
      </trkpt>
      <trkpt lat="-22.06071778200566768646240234375" lon="166.44717696122825145721435546875">
        <ele>881.20001220703125</ele>
        <time>2016-08-12T19:07:34.000Z</time>
        <extensions>
          <ns3:TrackPointExtension>
            <ns3:atemp>15.0</ns3:atemp>
            <ns3:hr>130</ns3:hr>
          </ns3:TrackPointExtension>
        </extensions>
      </trkpt>
      <trkpt lat="-22.06069448031485080718994140625" lon="166.4471661485731601715087890625">
        <ele>881.4000244140625</ele>
        <time>2016-08-12T19:07:35.000Z</time>
        <extensions>
          <ns3:TrackPointExtension>
            <ns3:atemp>15.0</ns3:atemp>
            <ns3:hr>129</ns3:hr>
          </ns3:TrackPointExtension>
        </extensions>
      </trkpt>
      <trkpt lat="-22.0606710948050022125244140625" lon="166.44715717993676662445068359375">
        <ele>881.5999755859375</ele>
        <time>2016-08-12T19:07:36.000Z</time>
        <extensions>
          <ns3:TrackPointExtension>
            <ns3:atemp>15.0</ns3:atemp>
            <ns3:hr>130</ns3:hr>
          </ns3:TrackPointExtension>
        </extensions>
      </trkpt>
      <trkpt lat="-22.06064812839031219482421875" lon="166.44714510999619960784912109375">
        <ele>881.5999755859375</ele>
        <time>2016-08-12T19:07:37.000Z</time>
        <extensions>
          <ns3:TrackPointExtension>
            <ns3:atemp>15.0</ns3:atemp>
            <ns3:hr>130</ns3:hr>
          </ns3:TrackPointExtension>
        </extensions>
      </trkpt>
      <trkpt lat="-22.06062524579465389251708984375" lon="166.44713220186531543731689453125">
        <ele>881.5999755859375</ele>
        <time>2016-08-12T19:07:38.000Z</time>
        <extensions>
          <ns3:TrackPointExtension>
            <ns3:atemp>15.0</ns3:atemp>
            <ns3:hr>131</ns3:hr>
          </ns3:TrackPointExtension>
        </extensions>
      </trkpt>
      <trkpt lat="-22.060602195560932159423828125" lon="166.44711594097316265106201171875">
        <ele>881.79998779296875</ele>
        <time>2016-08-12T19:07:39.000Z</time>
        <extensions>
          <ns3:TrackPointExtension>
            <ns3:atemp>15.0</ns3:atemp>
            <ns3:hr>131</ns3:hr>
          </ns3:TrackPointExtension>
        </extensions>
      </trkpt>
      <trkpt lat="-22.06057914532721042633056640625" lon="166.4471004344522953033447265625">
        <ele>882.4000244140625</ele>
        <time>2016-08-12T19:07:40.000Z</time>
        <extensions>
          <ns3:TrackPointExtension>
            <ns3:atemp>15.0</ns3:atemp>
            <ns3:hr>132</ns3:hr>
          </ns3:TrackPointExtension>
        </extensions>
      </trkpt>
      <trkpt lat="-22.06055601127445697784423828125" lon="166.44708744250237941741943359375">
        <ele>883</ele>
        <time>2016-08-12T19:07:41.000Z</time>
        <extensions>
          <ns3:TrackPointExtension>
            <ns3:atemp>15.0</ns3:atemp>
            <ns3:hr>133</ns3:hr>
          </ns3:TrackPointExtension>
        </extensions>
      </trkpt>
      <trkpt lat="-22.06053539179265499114990234375" lon="166.447072438895702362060546875">
        <ele>882.79998779296875</ele>
        <time>2016-08-12T19:07:42.000Z</time>
        <extensions>
          <ns3:TrackPointExtension>
            <ns3:atemp>15.0</ns3:atemp>
            <ns3:hr>133</ns3:hr>
          </ns3:TrackPointExtension>
        </extensions>
      </trkpt>
      <trkpt lat="-22.06051242537796497344970703125" lon="166.44706028513610363006591796875">
        <ele>882.5999755859375</ele>
        <time>2016-08-12T19:07:43.000Z</time>
        <extensions>
          <ns3:TrackPointExtension>
            <ns3:atemp>15.0</ns3:atemp>
            <ns3:hr>133</ns3:hr>
          </ns3:TrackPointExtension>
        </extensions>
      </trkpt>
      <trkpt lat="-22.060488201677799224853515625" lon="166.447046957910060882568359375">
        <ele>883</ele>
        <time>2016-08-12T19:07:44.000Z</time>
        <extensions>
          <ns3:TrackPointExtension>
            <ns3:atemp>15.0</ns3:atemp>
            <ns3:hr>134</ns3:hr>
          </ns3:TrackPointExtension>
        </extensions>
      </trkpt>
      <trkpt lat="-22.06046666018664836883544921875" lon="166.44702994264662265777587890625">
        <ele>883.4000244140625</ele>
        <time>2016-08-12T19:07:45.000Z</time>
        <extensions>
          <ns3:TrackPointExtension>
            <ns3:atemp>15.0</ns3:atemp>
            <ns3:hr>134</ns3:hr>
          </ns3:TrackPointExtension>
        </extensions>
      </trkpt>
      <trkpt lat="-22.0604521594941616058349609375" lon="166.447010748088359832763671875">
        <ele>883.5999755859375</ele>
        <time>2016-08-12T19:07:46.000Z</time>
        <extensions>
          <ns3:TrackPointExtension>
            <ns3:atemp>15.0</ns3:atemp>
            <ns3:hr>135</ns3:hr>
          </ns3:TrackPointExtension>
        </extensions>
      </trkpt>
      <trkpt lat="-22.0604330487549304962158203125" lon="166.446995995938777923583984375">
        <ele>883.20001220703125</ele>
        <time>2016-08-12T19:07:47.000Z</time>
        <extensions>
          <ns3:TrackPointExtension>
            <ns3:atemp>15.0</ns3:atemp>
            <ns3:hr>135</ns3:hr>
          </ns3:TrackPointExtension>
        </extensions>
      </trkpt>
      <trkpt lat="-22.06041402183473110198974609375" lon="166.44698233343660831451416015625">
        <ele>883.20001220703125</ele>
        <time>2016-08-12T19:07:48.000Z</time>
        <extensions>
          <ns3:TrackPointExtension>
            <ns3:atemp>15.0</ns3:atemp>
            <ns3:hr>135</ns3:hr>
          </ns3:TrackPointExtension>
        </extensions>
      </trkpt>
      <trkpt lat="-22.06039759330451488494873046875" lon="166.44696640782058238983154296875">
        <ele>883.5999755859375</ele>
        <time>2016-08-12T19:07:49.000Z</time>
        <extensions>
          <ns3:TrackPointExtension>
            <ns3:atemp>15.0</ns3:atemp>
            <ns3:hr>135</ns3:hr>
          </ns3:TrackPointExtension>
        </extensions>
      </trkpt>
      <trkpt lat="-22.06037722527980804443359375" lon="166.44695115275681018829345703125">
        <ele>883.79998779296875</ele>
        <time>2016-08-12T19:07:50.000Z</time>
        <extensions>
          <ns3:TrackPointExtension>
            <ns3:atemp>15.0</ns3:atemp>
            <ns3:hr>135</ns3:hr>
          </ns3:TrackPointExtension>
        </extensions>
      </trkpt>
      <trkpt lat="-22.06035819835960865020751953125" lon="166.44693573005497455596923828125">
        <ele>883.5999755859375</ele>
        <time>2016-08-12T19:07:51.000Z</time>
        <extensions>
          <ns3:TrackPointExtension>
            <ns3:atemp>15.0</ns3:atemp>
            <ns3:hr>136</ns3:hr>
          </ns3:TrackPointExtension>
        </extensions>
      </trkpt>
      <trkpt lat="-22.06034193746745586395263671875" lon="166.44691653549671173095703125">
        <ele>883.4000244140625</ele>
        <time>2016-08-12T19:07:52.000Z</time>
        <extensions>
          <ns3:TrackPointExtension>
            <ns3:atemp>15.0</ns3:atemp>
            <ns3:hr>136</ns3:hr>
          </ns3:TrackPointExtension>
        </extensions>
      </trkpt>
      <trkpt lat="-22.06031846813857555389404296875" lon="166.44689734093844890594482421875">
        <ele>883.4000244140625</ele>
        <time>2016-08-12T19:07:53.000Z</time>
        <extensions>
          <ns3:TrackPointExtension>
            <ns3:atemp>15.0</ns3:atemp>
            <ns3:hr>136</ns3:hr>
          </ns3:TrackPointExtension>
        </extensions>
      </trkpt>
      <trkpt lat="-22.06029273569583892822265625" lon="166.4468808285892009735107421875">
        <ele>883.20001220703125</ele>
        <time>2016-08-12T19:07:54.000Z</time>
        <extensions>
          <ns3:TrackPointExtension>
            <ns3:atemp>15.0</ns3:atemp>
            <ns3:hr>135</ns3:hr>
          </ns3:TrackPointExtension>
        </extensions>
      </trkpt>
      <trkpt lat="-22.0602694340050220489501953125" lon="166.4468654058873653411865234375">
        <ele>883</ele>
        <time>2016-08-12T19:07:55.000Z</time>
        <extensions>
          <ns3:TrackPointExtension>
            <ns3:atemp>15.0</ns3:atemp>
            <ns3:hr>136</ns3:hr>
          </ns3:TrackPointExtension>
        </extensions>
      </trkpt>
      <trkpt lat="-22.060248814523220062255859375" lon="166.446849815547466278076171875">
        <ele>883.20001220703125</ele>
        <time>2016-08-12T19:07:56.000Z</time>
        <extensions>
          <ns3:TrackPointExtension>
            <ns3:atemp>15.0</ns3:atemp>
            <ns3:hr>135</ns3:hr>
          </ns3:TrackPointExtension>
        </extensions>
      </trkpt>
      <trkpt lat="-22.06022844649851322174072265625" lon="166.446835063397884368896484375">
        <ele>883.20001220703125</ele>
        <time>2016-08-12T19:07:57.000Z</time>
        <extensions>
          <ns3:TrackPointExtension>
            <ns3:atemp>15.0</ns3:atemp>
            <ns3:hr>135</ns3:hr>
          </ns3:TrackPointExtension>
        </extensions>
      </trkpt>
      <trkpt lat="-22.06020824611186981201171875" lon="166.44681461155414581298828125">
        <ele>882.5999755859375</ele>
        <time>2016-08-12T19:07:58.000Z</time>
        <extensions>
          <ns3:TrackPointExtension>
            <ns3:atemp>15.0</ns3:atemp>
            <ns3:hr>135</ns3:hr>
          </ns3:TrackPointExtension>
        </extensions>
      </trkpt>
      <trkpt lat="-22.060190476477146148681640625" lon="166.44679307006299495697021484375">
        <ele>882.5999755859375</ele>
        <time>2016-08-12T19:07:59.000Z</time>
        <extensions>
          <ns3:TrackPointExtension>
            <ns3:atemp>15.0</ns3:atemp>
            <ns3:hr>135</ns3:hr>
          </ns3:TrackPointExtension>
        </extensions>
      </trkpt>
      <trkpt lat="-22.06017228774726390838623046875" lon="166.4467768929898738861083984375">
        <ele>882.4000244140625</ele>
        <time>2016-08-12T19:08:00.000Z</time>
        <extensions>
          <ns3:TrackPointExtension>
            <ns3:atemp>15.0</ns3:atemp>
            <ns3:hr>135</ns3:hr>
          </ns3:TrackPointExtension>
        </extensions>
      </trkpt>
      <trkpt lat="-22.06014680676162242889404296875" lon="166.44676608033478260040283203125">
        <ele>882</ele>
        <time>2016-08-12T19:08:01.000Z</time>
        <extensions>
          <ns3:TrackPointExtension>
            <ns3:atemp>15.0</ns3:atemp>
            <ns3:hr>135</ns3:hr>
          </ns3:TrackPointExtension>
        </extensions>
      </trkpt>
      <trkpt lat="-22.0601229183375835418701171875" lon="166.44675560295581817626953125">
        <ele>881.79998779296875</ele>
        <time>2016-08-12T19:08:02.000Z</time>
        <extensions>
          <ns3:TrackPointExtension>
            <ns3:atemp>15.0</ns3:atemp>
            <ns3:hr>135</ns3:hr>
          </ns3:TrackPointExtension>
        </extensions>
      </trkpt>
      <trkpt lat="-22.06009735353291034698486328125" lon="166.4467494003474712371826171875">
        <ele>881.5999755859375</ele>
        <time>2016-08-12T19:08:03.000Z</time>
        <extensions>
          <ns3:TrackPointExtension>
            <ns3:atemp>15.0</ns3:atemp>
            <ns3:hr>135</ns3:hr>
          </ns3:TrackPointExtension>
        </extensions>
      </trkpt>
      <trkpt lat="-22.0600675977766513824462890625" lon="166.44674831070005893707275390625">
        <ele>881.4000244140625</ele>
        <time>2016-08-12T19:08:04.000Z</time>
        <extensions>
          <ns3:TrackPointExtension>
            <ns3:atemp>15.0</ns3:atemp>
            <ns3:hr>135</ns3:hr>
          </ns3:TrackPointExtension>
        </extensions>
      </trkpt>
      <trkpt lat="-22.060039602220058441162109375" lon="166.44674797542393207550048828125">
        <ele>881.20001220703125</ele>
        <time>2016-08-12T19:08:05.000Z</time>
        <extensions>
          <ns3:TrackPointExtension>
            <ns3:atemp>15.0</ns3:atemp>
            <ns3:hr>135</ns3:hr>
          </ns3:TrackPointExtension>
        </extensions>
      </trkpt>
      <trkpt lat="-22.060012109577655792236328125" lon="166.44674613140523433685302734375">
        <ele>881.20001220703125</ele>
        <time>2016-08-12T19:08:06.000Z</time>
        <extensions>
          <ns3:TrackPointExtension>
            <ns3:atemp>15.0</ns3:atemp>
            <ns3:hr>136</ns3:hr>
          </ns3:TrackPointExtension>
        </extensions>
      </trkpt>
      <trkpt lat="-22.05998738296329975128173828125" lon="166.44674085080623626708984375">
        <ele>880.5999755859375</ele>
        <time>2016-08-12T19:08:07.000Z</time>
        <extensions>
          <ns3:TrackPointExtension>
            <ns3:atemp>15.0</ns3:atemp>
            <ns3:hr>136</ns3:hr>
          </ns3:TrackPointExtension>
        </extensions>
      </trkpt>
      <trkpt lat="-22.059958465397357940673828125" lon="166.44673548638820648193359375">
        <ele>880.4000244140625</ele>
        <time>2016-08-12T19:08:08.000Z</time>
        <extensions>
          <ns3:TrackPointExtension>
            <ns3:atemp>15.0</ns3:atemp>
            <ns3:hr>135</ns3:hr>
          </ns3:TrackPointExtension>
        </extensions>
      </trkpt>
      <trkpt lat="-22.0599308051168918609619140625" lon="166.44673171453177928924560546875">
        <ele>880.20001220703125</ele>
        <time>2016-08-12T19:08:09.000Z</time>
        <extensions>
          <ns3:TrackPointExtension>
            <ns3:atemp>15.0</ns3:atemp>
            <ns3:hr>136</ns3:hr>
          </ns3:TrackPointExtension>
        </extensions>
      </trkpt>
      <trkpt lat="-22.0599036477506160736083984375" lon="166.44672635011374950408935546875">
        <ele>879.79998779296875</ele>
        <time>2016-08-12T19:08:10.000Z</time>
        <extensions>
          <ns3:TrackPointExtension>
            <ns3:atemp>15.0</ns3:atemp>
            <ns3:hr>135</ns3:hr>
          </ns3:TrackPointExtension>
        </extensions>
      </trkpt>
      <trkpt lat="-22.05987992696464061737060546875" lon="166.4467165432870388031005859375">
        <ele>879.5999755859375</ele>
        <time>2016-08-12T19:08:11.000Z</time>
        <extensions>
          <ns3:TrackPointExtension>
            <ns3:atemp>15.0</ns3:atemp>
            <ns3:hr>136</ns3:hr>
          </ns3:TrackPointExtension>
        </extensions>
      </trkpt>
      <trkpt lat="-22.05986131913959980010986328125" lon="166.4467061497271060943603515625">
        <ele>879.5999755859375</ele>
        <time>2016-08-12T19:08:12.000Z</time>
        <extensions>
          <ns3:TrackPointExtension>
            <ns3:atemp>15.0</ns3:atemp>
            <ns3:hr>136</ns3:hr>
          </ns3:TrackPointExtension>
        </extensions>
      </trkpt>
      <trkpt lat="-22.05983902327716350555419921875" lon="166.44669315777719020843505859375">
        <ele>879.20001220703125</ele>
        <time>2016-08-12T19:08:13.000Z</time>
        <extensions>
          <ns3:TrackPointExtension>
            <ns3:atemp>15.0</ns3:atemp>
            <ns3:hr>135</ns3:hr>
          </ns3:TrackPointExtension>
        </extensions>
      </trkpt>
      <trkpt lat="-22.0598186552524566650390625" lon="166.4466776512563228607177734375">
        <ele>879</ele>
        <time>2016-08-12T19:08:14.000Z</time>
        <extensions>
          <ns3:TrackPointExtension>
            <ns3:atemp>15.0</ns3:atemp>
            <ns3:hr>136</ns3:hr>
          </ns3:TrackPointExtension>
        </extensions>
      </trkpt>
      <trkpt lat="-22.05979879014194011688232421875" lon="166.44666264764964580535888671875">
        <ele>878.79998779296875</ele>
        <time>2016-08-12T19:08:15.000Z</time>
        <extensions>
          <ns3:TrackPointExtension>
            <ns3:atemp>15.0</ns3:atemp>
            <ns3:hr>135</ns3:hr>
          </ns3:TrackPointExtension>
        </extensions>
      </trkpt>
      <trkpt lat="-22.0597775839269161224365234375" lon="166.4466481469571590423583984375">
        <ele>878.5999755859375</ele>
        <time>2016-08-12T19:08:16.000Z</time>
        <extensions>
          <ns3:TrackPointExtension>
            <ns3:atemp>15.0</ns3:atemp>
            <ns3:hr>136</ns3:hr>
          </ns3:TrackPointExtension>
        </extensions>
      </trkpt>
      <trkpt lat="-22.05975956283509731292724609375" lon="166.44663398154079914093017578125">
        <ele>878.5999755859375</ele>
        <time>2016-08-12T19:08:17.000Z</time>
        <extensions>
          <ns3:TrackPointExtension>
            <ns3:atemp>15.0</ns3:atemp>
            <ns3:hr>135</ns3:hr>
          </ns3:TrackPointExtension>
        </extensions>
      </trkpt>
      <trkpt lat="-22.05973961390554904937744140625" lon="166.44661805592477321624755859375">
        <ele>878.5999755859375</ele>
        <time>2016-08-12T19:08:18.000Z</time>
        <extensions>
          <ns3:TrackPointExtension>
            <ns3:atemp>15.0</ns3:atemp>
            <ns3:hr>135</ns3:hr>
          </ns3:TrackPointExtension>
        </extensions>
      </trkpt>
      <trkpt lat="-22.0597222633659839630126953125" lon="166.446602046489715576171875">
        <ele>878.5999755859375</ele>
        <time>2016-08-12T19:08:19.000Z</time>
        <extensions>
          <ns3:TrackPointExtension>
            <ns3:atemp>15.0</ns3:atemp>
            <ns3:hr>135</ns3:hr>
          </ns3:TrackPointExtension>
        </extensions>
      </trkpt>
      <trkpt lat="-22.05970801413059234619140625" lon="166.44658285193145275115966796875">
        <ele>878.20001220703125</ele>
        <time>2016-08-12T19:08:20.000Z</time>
        <extensions>
          <ns3:TrackPointExtension>
            <ns3:atemp>15.0</ns3:atemp>
            <ns3:hr>134</ns3:hr>
          </ns3:TrackPointExtension>
        </extensions>
      </trkpt>
      <trkpt lat="-22.05969401635229587554931640625" lon="166.446561478078365325927734375">
        <ele>878</ele>
        <time>2016-08-12T19:08:21.000Z</time>
        <extensions>
          <ns3:TrackPointExtension>
            <ns3:atemp>15.0</ns3:atemp>
            <ns3:hr>134</ns3:hr>
          </ns3:TrackPointExtension>
        </extensions>
      </trkpt>
      <trkpt lat="-22.05968379043042659759521484375" lon="166.446546725928783416748046875">
        <ele>878.20001220703125</ele>
        <time>2016-08-12T19:08:22.000Z</time>
        <extensions>
          <ns3:TrackPointExtension>
            <ns3:atemp>15.0</ns3:atemp>
            <ns3:hr>134</ns3:hr>
          </ns3:TrackPointExtension>
        </extensions>
      </trkpt>
      <trkpt lat="-22.059675157070159912109375" lon="166.44652635790407657623291015625">
        <ele>878.4000244140625</ele>
        <time>2016-08-12T19:08:23.000Z</time>
        <extensions>
          <ns3:TrackPointExtension>
            <ns3:atemp>15.0</ns3:atemp>
            <ns3:hr>134</ns3:hr>
          </ns3:TrackPointExtension>
        </extensions>
      </trkpt>
      <trkpt lat="-22.05966820009052753448486328125" lon="166.44650322385132312774658203125">
        <ele>878.20001220703125</ele>
        <time>2016-08-12T19:08:24.000Z</time>
        <extensions>
          <ns3:TrackPointExtension>
            <ns3:atemp>15.0</ns3:atemp>
            <ns3:hr>134</ns3:hr>
          </ns3:TrackPointExtension>
        </extensions>
      </trkpt>
      <trkpt lat="-22.05965596251189708709716796875" lon="166.44648411311209201812744140625">
        <ele>878</ele>
        <time>2016-08-12T19:08:25.000Z</time>
        <extensions>
          <ns3:TrackPointExtension>
            <ns3:atemp>15.0</ns3:atemp>
            <ns3:hr>134</ns3:hr>
          </ns3:TrackPointExtension>
        </extensions>
      </trkpt>
      <trkpt lat="-22.059650011360645294189453125" lon="166.4464600570499897003173828125">
        <ele>878.20001220703125</ele>
        <time>2016-08-12T19:08:26.000Z</time>
        <extensions>
          <ns3:TrackPointExtension>
            <ns3:atemp>15.0</ns3:atemp>
            <ns3:hr>133</ns3:hr>
          </ns3:TrackPointExtension>
        </extensions>
      </trkpt>
      <trkpt lat="-22.0596300624310970306396484375" lon="166.44644186832010746002197265625">
        <ele>878.4000244140625</ele>
        <time>2016-08-12T19:08:27.000Z</time>
        <extensions>
          <ns3:TrackPointExtension>
            <ns3:atemp>15.0</ns3:atemp>
            <ns3:hr>133</ns3:hr>
          </ns3:TrackPointExtension>
        </extensions>
      </trkpt>
      <trkpt lat="-22.05961681902408599853515625" lon="166.4464208297431468963623046875">
        <ele>878.4000244140625</ele>
        <time>2016-08-12T19:08:28.000Z</time>
        <extensions>
          <ns3:TrackPointExtension>
            <ns3:atemp>15.0</ns3:atemp>
            <ns3:hr>133</ns3:hr>
          </ns3:TrackPointExtension>
        </extensions>
      </trkpt>
      <trkpt lat="-22.059605419635772705078125" lon="166.44639694131910800933837890625">
        <ele>878</ele>
        <time>2016-08-12T19:08:29.000Z</time>
        <extensions>
          <ns3:TrackPointExtension>
            <ns3:atemp>15.0</ns3:atemp>
            <ns3:hr>133</ns3:hr>
          </ns3:TrackPointExtension>
        </extensions>
      </trkpt>
      <trkpt lat="-22.05959175713360309600830078125" lon="166.44637414254248142242431640625">
        <ele>878</ele>
        <time>2016-08-12T19:08:30.000Z</time>
        <extensions>
          <ns3:TrackPointExtension>
            <ns3:atemp>15.0</ns3:atemp>
            <ns3:hr>133</ns3:hr>
          </ns3:TrackPointExtension>
        </extensions>
      </trkpt>
      <trkpt lat="-22.05957398749887943267822265625" lon="166.44635000266134738922119140625">
        <ele>878.4000244140625</ele>
        <time>2016-08-12T19:08:31.000Z</time>
        <extensions>
          <ns3:TrackPointExtension>
            <ns3:atemp>15.0</ns3:atemp>
            <ns3:hr>133</ns3:hr>
          </ns3:TrackPointExtension>
        </extensions>
      </trkpt>
      <trkpt lat="-22.059554792940616607666015625" lon="166.4463292993605136871337890625">
        <ele>878.4000244140625</ele>
        <time>2016-08-12T19:08:32.000Z</time>
        <extensions>
          <ns3:TrackPointExtension>
            <ns3:atemp>15.0</ns3:atemp>
            <ns3:hr>133</ns3:hr>
          </ns3:TrackPointExtension>
        </extensions>
      </trkpt>
      <trkpt lat="-22.05954037606716156005859375" lon="166.44630826078355312347412109375">
        <ele>878.20001220703125</ele>
        <time>2016-08-12T19:08:33.000Z</time>
        <extensions>
          <ns3:TrackPointExtension>
            <ns3:atemp>15.0</ns3:atemp>
            <ns3:hr>132</ns3:hr>
          </ns3:TrackPointExtension>
        </extensions>
      </trkpt>
      <trkpt lat="-22.05952302552759647369384765625" lon="166.4462887309491634368896484375">
        <ele>878.20001220703125</ele>
        <time>2016-08-12T19:08:34.000Z</time>
        <extensions>
          <ns3:TrackPointExtension>
            <ns3:atemp>15.0</ns3:atemp>
            <ns3:hr>132</ns3:hr>
          </ns3:TrackPointExtension>
        </extensions>
      </trkpt>
      <trkpt lat="-22.05950978212058544158935546875" lon="166.44626903347671031951904296875">
        <ele>878.4000244140625</ele>
        <time>2016-08-12T19:08:35.000Z</time>
        <extensions>
          <ns3:TrackPointExtension>
            <ns3:atemp>15.0</ns3:atemp>
            <ns3:hr>132</ns3:hr>
          </ns3:TrackPointExtension>
        </extensions>
      </trkpt>
      <trkpt lat="-22.0594885759055614471435546875" lon="166.44625134766101837158203125">
        <ele>878.79998779296875</ele>
        <time>2016-08-12T19:08:36.000Z</time>
        <extensions>
          <ns3:TrackPointExtension>
            <ns3:atemp>15.0</ns3:atemp>
            <ns3:hr>132</ns3:hr>
          </ns3:TrackPointExtension>
        </extensions>
      </trkpt>
      <trkpt lat="-22.0594701357185840606689453125" lon="166.44623064436018466949462890625">
        <ele>878.5999755859375</ele>
        <time>2016-08-12T19:08:37.000Z</time>
        <extensions>
          <ns3:TrackPointExtension>
            <ns3:atemp>15.0</ns3:atemp>
            <ns3:hr>132</ns3:hr>
          </ns3:TrackPointExtension>
        </extensions>
      </trkpt>
      <trkpt lat="-22.0594513602554798126220703125" lon="166.44621069543063640594482421875">
        <ele>878.20001220703125</ele>
        <time>2016-08-12T19:08:38.000Z</time>
        <extensions>
          <ns3:TrackPointExtension>
            <ns3:atemp>15.0</ns3:atemp>
            <ns3:hr>132</ns3:hr>
          </ns3:TrackPointExtension>
        </extensions>
      </trkpt>
      <trkpt lat="-22.0594324171543121337890625" lon="166.44619041122496128082275390625">
        <ele>878.20001220703125</ele>
        <time>2016-08-12T19:08:39.000Z</time>
        <extensions>
          <ns3:TrackPointExtension>
            <ns3:atemp>15.0</ns3:atemp>
            <ns3:hr>132</ns3:hr>
          </ns3:TrackPointExtension>
        </extensions>
      </trkpt>
      <trkpt lat="-22.05941498279571533203125" lon="166.4461727254092693328857421875">
        <ele>878.4000244140625</ele>
        <time>2016-08-12T19:08:40.000Z</time>
        <extensions>
          <ns3:TrackPointExtension>
            <ns3:atemp>15.0</ns3:atemp>
            <ns3:hr>132</ns3:hr>
          </ns3:TrackPointExtension>
        </extensions>
      </trkpt>
      <trkpt lat="-22.05938640050590038299560546875" lon="166.44616157747805118560791015625">
        <ele>878.4000244140625</ele>
        <time>2016-08-12T19:08:41.000Z</time>
        <extensions>
          <ns3:TrackPointExtension>
            <ns3:atemp>15.0</ns3:atemp>
            <ns3:hr>132</ns3:hr>
          </ns3:TrackPointExtension>
        </extensions>
      </trkpt>
      <trkpt lat="-22.0593631826341152191162109375" lon="166.44614942371845245361328125">
        <ele>878.20001220703125</ele>
        <time>2016-08-12T19:08:42.000Z</time>
        <extensions>
          <ns3:TrackPointExtension>
            <ns3:atemp>15.0</ns3:atemp>
            <ns3:hr>132</ns3:hr>
          </ns3:TrackPointExtension>
        </extensions>
      </trkpt>
      <trkpt lat="-22.0593407191336154937744140625" lon="166.446133665740489959716796875">
        <ele>878.4000244140625</ele>
        <time>2016-08-12T19:08:43.000Z</time>
        <extensions>
          <ns3:TrackPointExtension>
            <ns3:atemp>15.0</ns3:atemp>
            <ns3:hr>132</ns3:hr>
          </ns3:TrackPointExtension>
        </extensions>
      </trkpt>
      <trkpt lat="-22.059312723577022552490234375" lon="166.4461174048483371734619140625">
        <ele>878.4000244140625</ele>
        <time>2016-08-12T19:08:44.000Z</time>
        <extensions>
          <ns3:TrackPointExtension>
            <ns3:atemp>15.0</ns3:atemp>
            <ns3:hr>131</ns3:hr>
          </ns3:TrackPointExtension>
        </extensions>
      </trkpt>
      <trkpt lat="-22.0592927746474742889404296875" lon="166.4461006410419940948486328125">
        <ele>878.4000244140625</ele>
        <time>2016-08-12T19:08:45.000Z</time>
        <extensions>
          <ns3:TrackPointExtension>
            <ns3:atemp>15.0</ns3:atemp>
            <ns3:hr>131</ns3:hr>
          </ns3:TrackPointExtension>
        </extensions>
      </trkpt>
      <trkpt lat="-22.059277854859828948974609375" lon="166.44608127884566783905029296875">
        <ele>878.79998779296875</ele>
        <time>2016-08-12T19:08:46.000Z</time>
        <extensions>
          <ns3:TrackPointExtension>
            <ns3:atemp>15.0</ns3:atemp>
            <ns3:hr>132</ns3:hr>
          </ns3:TrackPointExtension>
        </extensions>
      </trkpt>
      <trkpt lat="-22.059262096881866455078125" lon="166.4460654370486736297607421875">
        <ele>878.5999755859375</ele>
        <time>2016-08-12T19:08:47.000Z</time>
        <extensions>
          <ns3:TrackPointExtension>
            <ns3:atemp>15.0</ns3:atemp>
            <ns3:hr>132</ns3:hr>
          </ns3:TrackPointExtension>
        </extensions>
      </trkpt>
      <trkpt lat="-22.05924742855131626129150390625" lon="166.4460469968616962432861328125">
        <ele>878.4000244140625</ele>
        <time>2016-08-12T19:08:48.000Z</time>
        <extensions>
          <ns3:TrackPointExtension>
            <ns3:atemp>15.0</ns3:atemp>
            <ns3:hr>132</ns3:hr>
          </ns3:TrackPointExtension>
        </extensions>
      </trkpt>
      <trkpt lat="-22.05923200584948062896728515625" lon="166.44602646119892597198486328125">
        <ele>878.4000244140625</ele>
        <time>2016-08-12T19:08:49.000Z</time>
        <extensions>
          <ns3:TrackPointExtension>
            <ns3:atemp>15.0</ns3:atemp>
            <ns3:hr>132</ns3:hr>
          </ns3:TrackPointExtension>
        </extensions>
      </trkpt>
      <trkpt lat="-22.05921859480440616607666015625" lon="166.44600718282163143157958984375">
        <ele>878.5999755859375</ele>
        <time>2016-08-12T19:08:50.000Z</time>
        <extensions>
          <ns3:TrackPointExtension>
            <ns3:atemp>15.0</ns3:atemp>
            <ns3:hr>132</ns3:hr>
          </ns3:TrackPointExtension>
        </extensions>
      </trkpt>
      <trkpt lat="-22.0592002384364604949951171875" lon="166.4459916763007640838623046875">
        <ele>878.4000244140625</ele>
        <time>2016-08-12T19:08:51.000Z</time>
        <extensions>
          <ns3:TrackPointExtension>
            <ns3:atemp>15.0</ns3:atemp>
            <ns3:hr>131</ns3:hr>
          </ns3:TrackPointExtension>
        </extensions>
      </trkpt>
      <trkpt lat="-22.059175930917263031005859375" lon="166.445974409580230712890625">
        <ele>878.4000244140625</ele>
        <time>2016-08-12T19:08:52.000Z</time>
        <extensions>
          <ns3:TrackPointExtension>
            <ns3:atemp>15.0</ns3:atemp>
            <ns3:hr>132</ns3:hr>
          </ns3:TrackPointExtension>
        </extensions>
      </trkpt>
      <trkpt lat="-22.0591596700251102447509765625" lon="166.445955969393253326416015625">
        <ele>878.4000244140625</ele>
        <time>2016-08-12T19:08:53.000Z</time>
        <extensions>
          <ns3:TrackPointExtension>
            <ns3:atemp>15.0</ns3:atemp>
            <ns3:hr>131</ns3:hr>
          </ns3:TrackPointExtension>
        </extensions>
      </trkpt>
      <trkpt lat="-22.0591341890394687652587890625" lon="166.44593861885368824005126953125">
        <ele>878.20001220703125</ele>
        <time>2016-08-12T19:08:54.000Z</time>
        <extensions>
          <ns3:TrackPointExtension>
            <ns3:atemp>15.0</ns3:atemp>
            <ns3:hr>131</ns3:hr>
          </ns3:TrackPointExtension>
        </extensions>
      </trkpt>
      <trkpt lat="-22.059111893177032470703125" lon="166.44591934047639369964599609375">
        <ele>877.79998779296875</ele>
        <time>2016-08-12T19:08:55.000Z</time>
        <extensions>
          <ns3:TrackPointExtension>
            <ns3:atemp>15.0</ns3:atemp>
            <ns3:hr>132</ns3:hr>
          </ns3:TrackPointExtension>
        </extensions>
      </trkpt>
      <trkpt lat="-22.05908364616334438323974609375" lon="166.44590534269809722900390625">
        <ele>877.79998779296875</ele>
        <time>2016-08-12T19:08:56.000Z</time>
        <extensions>
          <ns3:TrackPointExtension>
            <ns3:atemp>15.0</ns3:atemp>
            <ns3:hr>131</ns3:hr>
          </ns3:TrackPointExtension>
        </extensions>
      </trkpt>
      <trkpt lat="-22.05905598588287830352783203125" lon="166.44589059054851531982421875">
        <ele>877.79998779296875</ele>
        <time>2016-08-12T19:08:57.000Z</time>
        <extensions>
          <ns3:TrackPointExtension>
            <ns3:atemp>15.0</ns3:atemp>
            <ns3:hr>132</ns3:hr>
          </ns3:TrackPointExtension>
        </extensions>
      </trkpt>
      <trkpt lat="-22.05903184600174427032470703125" lon="166.44587525166571140289306640625">
        <ele>877.5999755859375</ele>
        <time>2016-08-12T19:08:58.000Z</time>
        <extensions>
          <ns3:TrackPointExtension>
            <ns3:atemp>15.0</ns3:atemp>
            <ns3:hr>131</ns3:hr>
          </ns3:TrackPointExtension>
        </extensions>
      </trkpt>
      <trkpt lat="-22.05900385044515132904052734375" lon="166.4458609186112880706787109375">
        <ele>877.20001220703125</ele>
        <time>2016-08-12T19:08:59.000Z</time>
        <extensions>
          <ns3:TrackPointExtension>
            <ns3:atemp>15.0</ns3:atemp>
            <ns3:hr>131</ns3:hr>
          </ns3:TrackPointExtension>
        </extensions>
      </trkpt>
      <trkpt lat="-22.0589772798120975494384765625" lon="166.445848010480403900146484375">
        <ele>877.4000244140625</ele>
        <time>2016-08-12T19:09:00.000Z</time>
        <extensions>
          <ns3:TrackPointExtension>
            <ns3:atemp>15.0</ns3:atemp>
            <ns3:hr>131</ns3:hr>
          </ns3:TrackPointExtension>
        </extensions>
      </trkpt>
      <trkpt lat="-22.05895473249256610870361328125" lon="166.44583434797823429107666015625">
        <ele>877.5999755859375</ele>
        <time>2016-08-12T19:09:01.000Z</time>
        <extensions>
          <ns3:TrackPointExtension>
            <ns3:atemp>15.0</ns3:atemp>
            <ns3:hr>131</ns3:hr>
          </ns3:TrackPointExtension>
        </extensions>
      </trkpt>
      <trkpt lat="-22.0589293353259563446044921875" lon="166.4458183385431766510009765625">
        <ele>877.5999755859375</ele>
        <time>2016-08-12T19:09:02.000Z</time>
        <extensions>
          <ns3:TrackPointExtension>
            <ns3:atemp>15.0</ns3:atemp>
            <ns3:hr>131</ns3:hr>
          </ns3:TrackPointExtension>
        </extensions>
      </trkpt>
      <trkpt lat="-22.05890427343547344207763671875" lon="166.44580115564167499542236328125">
        <ele>877.4000244140625</ele>
        <time>2016-08-12T19:09:03.000Z</time>
        <extensions>
          <ns3:TrackPointExtension>
            <ns3:atemp>15.0</ns3:atemp>
            <ns3:hr>130</ns3:hr>
          </ns3:TrackPointExtension>
        </extensions>
      </trkpt>
      <trkpt lat="-22.05888264812529087066650390625" lon="166.44578271545469760894775390625">
        <ele>877.4000244140625</ele>
        <time>2016-08-12T19:09:04.000Z</time>
        <extensions>
          <ns3:TrackPointExtension>
            <ns3:atemp>15.0</ns3:atemp>
            <ns3:hr>131</ns3:hr>
          </ns3:TrackPointExtension>
        </extensions>
      </trkpt>
      <trkpt lat="-22.05886471085250377655029296875" lon="166.44576561637222766876220703125">
        <ele>877.79998779296875</ele>
        <time>2016-08-12T19:09:05.000Z</time>
        <extensions>
          <ns3:TrackPointExtension>
            <ns3:atemp>15.0</ns3:atemp>
            <ns3:hr>131</ns3:hr>
          </ns3:TrackPointExtension>
        </extensions>
      </trkpt>
      <trkpt lat="-22.05884425900876522064208984375" lon="166.44574818201363086700439453125">
        <ele>878.20001220703125</ele>
        <time>2016-08-12T19:09:06.000Z</time>
        <extensions>
          <ns3:TrackPointExtension>
            <ns3:atemp>15.0</ns3:atemp>
            <ns3:hr>130</ns3:hr>
          </ns3:TrackPointExtension>
        </extensions>
      </trkpt>
      <trkpt lat="-22.0588208734989166259765625" lon="166.445729993283748626708984375">
        <ele>877.79998779296875</ele>
        <time>2016-08-12T19:09:07.000Z</time>
        <extensions>
          <ns3:TrackPointExtension>
            <ns3:atemp>15.0</ns3:atemp>
            <ns3:hr>130</ns3:hr>
          </ns3:TrackPointExtension>
        </extensions>
      </trkpt>
      <trkpt lat="-22.05879966728389263153076171875" lon="166.445713229477405548095703125">
        <ele>877.5999755859375</ele>
        <time>2016-08-12T19:09:08.000Z</time>
        <extensions>
          <ns3:TrackPointExtension>
            <ns3:atemp>15.0</ns3:atemp>
            <ns3:hr>131</ns3:hr>
          </ns3:TrackPointExtension>
        </extensions>
      </trkpt>
      <trkpt lat="-22.05877301283180713653564453125" lon="166.4456979744136333465576171875">
        <ele>877.5999755859375</ele>
        <time>2016-08-12T19:09:09.000Z</time>
        <extensions>
          <ns3:TrackPointExtension>
            <ns3:atemp>15.0</ns3:atemp>
            <ns3:hr>130</ns3:hr>
          </ns3:TrackPointExtension>
        </extensions>
      </trkpt>
      <trkpt lat="-22.05874870531260967254638671875" lon="166.445685736835002899169921875">
        <ele>877.79998779296875</ele>
        <time>2016-08-12T19:09:10.000Z</time>
        <extensions>
          <ns3:TrackPointExtension>
            <ns3:atemp>15.0</ns3:atemp>
            <ns3:hr>130</ns3:hr>
          </ns3:TrackPointExtension>
        </extensions>
      </trkpt>
      <trkpt lat="-22.0587244816124439239501953125" lon="166.44567425362765789031982421875">
        <ele>878</ele>
        <time>2016-08-12T19:09:11.000Z</time>
        <extensions>
          <ns3:TrackPointExtension>
            <ns3:atemp>15.0</ns3:atemp>
            <ns3:hr>131</ns3:hr>
          </ns3:TrackPointExtension>
        </extensions>
      </trkpt>
      <trkpt lat="-22.05870176665484905242919921875" lon="166.4456604234874248504638671875">
        <ele>877.79998779296875</ele>
        <time>2016-08-12T19:09:12.000Z</time>
        <extensions>
          <ns3:TrackPointExtension>
            <ns3:atemp>15.0</ns3:atemp>
            <ns3:hr>130</ns3:hr>
          </ns3:TrackPointExtension>
        </extensions>
      </trkpt>
      <trkpt lat="-22.05868030898272991180419921875" lon="166.445651538670063018798828125">
        <ele>877.5999755859375</ele>
        <time>2016-08-12T19:09:13.000Z</time>
        <extensions>
          <ns3:TrackPointExtension>
            <ns3:atemp>15.0</ns3:atemp>
            <ns3:hr>130</ns3:hr>
          </ns3:TrackPointExtension>
        </extensions>
      </trkpt>
      <trkpt lat="-22.0586572587490081787109375" lon="166.44564257003366947174072265625">
        <ele>877.79998779296875</ele>
        <time>2016-08-12T19:09:14.000Z</time>
        <extensions>
          <ns3:TrackPointExtension>
            <ns3:atemp>15.0</ns3:atemp>
            <ns3:hr>130</ns3:hr>
          </ns3:TrackPointExtension>
        </extensions>
      </trkpt>
      <trkpt lat="-22.05863538198173046112060546875" lon="166.44563636742532253265380859375">
        <ele>878.4000244140625</ele>
        <time>2016-08-12T19:09:15.000Z</time>
        <extensions>
          <ns3:TrackPointExtension>
            <ns3:atemp>15.0</ns3:atemp>
            <ns3:hr>130</ns3:hr>
          </ns3:TrackPointExtension>
        </extensions>
      </trkpt>
      <trkpt lat="-22.0586089789867401123046875" lon="166.44563435576856136322021484375">
        <ele>878.5999755859375</ele>
        <time>2016-08-12T19:09:16.000Z</time>
        <extensions>
          <ns3:TrackPointExtension>
            <ns3:atemp>15.0</ns3:atemp>
            <ns3:hr>130</ns3:hr>
          </ns3:TrackPointExtension>
        </extensions>
      </trkpt>
      <trkpt lat="-22.05858106724917888641357421875" lon="166.44563552923500537872314453125">
        <ele>878.20001220703125</ele>
        <time>2016-08-12T19:09:17.000Z</time>
        <extensions>
          <ns3:TrackPointExtension>
            <ns3:atemp>15.0</ns3:atemp>
            <ns3:hr>130</ns3:hr>
          </ns3:TrackPointExtension>
        </extensions>
      </trkpt>
      <trkpt lat="-22.0585568435490131378173828125" lon="166.44563653506338596343994140625">
        <ele>878.20001220703125</ele>
        <time>2016-08-12T19:09:18.000Z</time>
        <extensions>
          <ns3:TrackPointExtension>
            <ns3:atemp>15.0</ns3:atemp>
            <ns3:hr>131</ns3:hr>
          </ns3:TrackPointExtension>
        </extensions>
      </trkpt>
      <trkpt lat="-22.05853228457272052764892578125" lon="166.445634774863719940185546875">
        <ele>878.5999755859375</ele>
        <time>2016-08-12T19:09:19.000Z</time>
        <extensions>
          <ns3:TrackPointExtension>
            <ns3:atemp>15.0</ns3:atemp>
            <ns3:hr>131</ns3:hr>
          </ns3:TrackPointExtension>
        </extensions>
      </trkpt>
      <trkpt lat="-22.05850864760577678680419921875" lon="166.44563234411180019378662109375">
        <ele>878.79998779296875</ele>
        <time>2016-08-12T19:09:20.000Z</time>
        <extensions>
          <ns3:TrackPointExtension>
            <ns3:atemp>15.0</ns3:atemp>
            <ns3:hr>131</ns3:hr>
          </ns3:TrackPointExtension>
        </extensions>
      </trkpt>
      <trkpt lat="-22.05848618410527706146240234375" lon="166.4456305839121341705322265625">
        <ele>878.4000244140625</ele>
        <time>2016-08-12T19:09:21.000Z</time>
        <extensions>
          <ns3:TrackPointExtension>
            <ns3:atemp>15.0</ns3:atemp>
            <ns3:hr>131</ns3:hr>
          </ns3:TrackPointExtension>
        </extensions>
      </trkpt>
      <trkpt lat="-22.0584622956812381744384765625" lon="166.44562664441764354705810546875">
        <ele>878.4000244140625</ele>
        <time>2016-08-12T19:09:22.000Z</time>
        <extensions>
          <ns3:TrackPointExtension>
            <ns3:atemp>15.0</ns3:atemp>
            <ns3:hr>131</ns3:hr>
          </ns3:TrackPointExtension>
        </extensions>
      </trkpt>
      <trkpt lat="-22.0584384910762310028076171875" lon="166.445623375475406646728515625">
        <ele>878.79998779296875</ele>
        <time>2016-08-12T19:09:23.000Z</time>
        <extensions>
          <ns3:TrackPointExtension>
            <ns3:atemp>15.0</ns3:atemp>
            <ns3:hr>131</ns3:hr>
          </ns3:TrackPointExtension>
        </extensions>
      </trkpt>
      <trkpt lat="-22.05841208808124065399169921875" lon="166.44562228582799434661865234375">
        <ele>879.20001220703125</ele>
        <time>2016-08-12T19:09:24.000Z</time>
        <extensions>
          <ns3:TrackPointExtension>
            <ns3:atemp>15.0</ns3:atemp>
            <ns3:hr>131</ns3:hr>
          </ns3:TrackPointExtension>
        </extensions>
      </trkpt>
      <trkpt lat="-22.05838694237172603607177734375" lon="166.445623375475406646728515625">
        <ele>878.79998779296875</ele>
        <time>2016-08-12T19:09:25.000Z</time>
        <extensions>
          <ns3:TrackPointExtension>
            <ns3:atemp>15.0</ns3:atemp>
            <ns3:hr>131</ns3:hr>
          </ns3:TrackPointExtension>
        </extensions>
      </trkpt>
      <trkpt lat="-22.0583627186715602874755859375" lon="166.44562371075153350830078125">
        <ele>878.5999755859375</ele>
        <time>2016-08-12T19:09:26.000Z</time>
        <extensions>
          <ns3:TrackPointExtension>
            <ns3:atemp>15.0</ns3:atemp>
            <ns3:hr>131</ns3:hr>
          </ns3:TrackPointExtension>
        </extensions>
      </trkpt>
      <trkpt lat="-22.058339081704616546630859375" lon="166.44562245346605777740478515625">
        <ele>878.79998779296875</ele>
        <time>2016-08-12T19:09:27.000Z</time>
        <extensions>
          <ns3:TrackPointExtension>
            <ns3:atemp>15.0</ns3:atemp>
            <ns3:hr>131</ns3:hr>
          </ns3:TrackPointExtension>
        </extensions>
      </trkpt>
      <trkpt lat="-22.05831754021346569061279296875" lon="166.445621363818645477294921875">
        <ele>879.20001220703125</ele>
        <time>2016-08-12T19:09:28.000Z</time>
        <extensions>
          <ns3:TrackPointExtension>
            <ns3:atemp>15.0</ns3:atemp>
            <ns3:hr>132</ns3:hr>
          </ns3:TrackPointExtension>
        </extensions>
      </trkpt>
      <trkpt lat="-22.0582949928939342498779296875" lon="166.4456185139715671539306640625">
        <ele>879</ele>
        <time>2016-08-12T19:09:29.000Z</time>
        <extensions>
          <ns3:TrackPointExtension>
            <ns3:atemp>15.0</ns3:atemp>
            <ns3:hr>132</ns3:hr>
          </ns3:TrackPointExtension>
        </extensions>
      </trkpt>
      <trkpt lat="-22.05827026627957820892333984375" lon="166.44561507739126682281494140625">
        <ele>879</ele>
        <time>2016-08-12T19:09:30.000Z</time>
        <extensions>
          <ns3:TrackPointExtension>
            <ns3:atemp>15.0</ns3:atemp>
            <ns3:hr>132</ns3:hr>
          </ns3:TrackPointExtension>
        </extensions>
      </trkpt>
      <trkpt lat="-22.05824646167457103729248046875" lon="166.44561273045837879180908203125">
        <ele>879</ele>
        <time>2016-08-12T19:09:31.000Z</time>
        <extensions>
          <ns3:TrackPointExtension>
            <ns3:atemp>15.0</ns3:atemp>
            <ns3:hr>132</ns3:hr>
          </ns3:TrackPointExtension>
        </extensions>
      </trkpt>
      <trkpt lat="-22.0582205615937709808349609375" lon="166.44561122171580791473388671875">
        <ele>879.5999755859375</ele>
        <time>2016-08-12T19:09:32.000Z</time>
        <extensions>
          <ns3:TrackPointExtension>
            <ns3:atemp>15.0</ns3:atemp>
            <ns3:hr>132</ns3:hr>
          </ns3:TrackPointExtension>
        </extensions>
      </trkpt>
      <trkpt lat="-22.05819583497941493988037109375" lon="166.445605941116809844970703125">
        <ele>879.4000244140625</ele>
        <time>2016-08-12T19:09:33.000Z</time>
        <extensions>
          <ns3:TrackPointExtension>
            <ns3:atemp>15.0</ns3:atemp>
            <ns3:hr>133</ns3:hr>
          </ns3:TrackPointExtension>
        </extensions>
      </trkpt>
      <trkpt lat="-22.05817387439310550689697265625" lon="166.44560468383133411407470703125">
        <ele>879.20001220703125</ele>
        <time>2016-08-12T19:09:34.000Z</time>
        <extensions>
          <ns3:TrackPointExtension>
            <ns3:atemp>15.0</ns3:atemp>
            <ns3:hr>133</ns3:hr>
          </ns3:TrackPointExtension>
        </extensions>
      </trkpt>
      <trkpt lat="-22.05815141089260578155517578125" lon="166.44560719840228557586669921875">
        <ele>879.5999755859375</ele>
        <time>2016-08-12T19:09:35.000Z</time>
        <extensions>
          <ns3:TrackPointExtension>
            <ns3:atemp>15.0</ns3:atemp>
            <ns3:hr>133</ns3:hr>
          </ns3:TrackPointExtension>
        </extensions>
      </trkpt>
      <trkpt lat="-22.05813221633434295654296875" lon="166.4456121437251567840576171875">
        <ele>879.79998779296875</ele>
        <time>2016-08-12T19:09:36.000Z</time>
        <extensions>
          <ns3:TrackPointExtension>
            <ns3:atemp>15.0</ns3:atemp>
            <ns3:hr>133</ns3:hr>
          </ns3:TrackPointExtension>
        </extensions>
      </trkpt>
      <trkpt lat="-22.0581074059009552001953125" lon="166.4456118084490299224853515625">
        <ele>879.79998779296875</ele>
        <time>2016-08-12T19:09:37.000Z</time>
        <extensions>
          <ns3:TrackPointExtension>
            <ns3:atemp>15.0</ns3:atemp>
            <ns3:hr>133</ns3:hr>
          </ns3:TrackPointExtension>
        </extensions>
      </trkpt>
      <trkpt lat="-22.0580830983817577362060546875" lon="166.4456101320683956146240234375">
        <ele>879.79998779296875</ele>
        <time>2016-08-12T19:09:38.000Z</time>
        <extensions>
          <ns3:TrackPointExtension>
            <ns3:atemp>15.0</ns3:atemp>
            <ns3:hr>134</ns3:hr>
          </ns3:TrackPointExtension>
        </extensions>
      </trkpt>
      <trkpt lat="-22.0580609701573848724365234375" lon="166.44560552202165126800537109375">
        <ele>880</ele>
        <time>2016-08-12T19:09:39.000Z</time>
        <extensions>
          <ns3:TrackPointExtension>
            <ns3:atemp>15.0</ns3:atemp>
            <ns3:hr>134</ns3:hr>
          </ns3:TrackPointExtension>
        </extensions>
      </trkpt>
      <trkpt lat="-22.05803565680980682373046875" lon="166.4455987326800823211669921875">
        <ele>880.20001220703125</ele>
        <time>2016-08-12T19:09:40.000Z</time>
        <extensions>
          <ns3:TrackPointExtension>
            <ns3:atemp>15.0</ns3:atemp>
            <ns3:hr>134</ns3:hr>
          </ns3:TrackPointExtension>
        </extensions>
      </trkpt>
      <trkpt lat="-22.05801495350897312164306640625" lon="166.44559965468943119049072265625">
        <ele>880</ele>
        <time>2016-08-12T19:09:41.000Z</time>
        <extensions>
          <ns3:TrackPointExtension>
            <ns3:atemp>15.0</ns3:atemp>
            <ns3:hr>134</ns3:hr>
          </ns3:TrackPointExtension>
        </extensions>
      </trkpt>
      <trkpt lat="-22.057991065084934234619140625" lon="166.44559429027140140533447265625">
        <ele>880</ele>
        <time>2016-08-12T19:09:42.000Z</time>
        <extensions>
          <ns3:TrackPointExtension>
            <ns3:atemp>15.0</ns3:atemp>
            <ns3:hr>134</ns3:hr>
          </ns3:TrackPointExtension>
        </extensions>
      </trkpt>
      <trkpt lat="-22.05796952359378337860107421875" lon="166.44558976404368877410888671875">
        <ele>880.4000244140625</ele>
        <time>2016-08-12T19:09:43.000Z</time>
        <extensions>
          <ns3:TrackPointExtension>
            <ns3:atemp>15.0</ns3:atemp>
            <ns3:hr>134</ns3:hr>
          </ns3:TrackPointExtension>
        </extensions>
      </trkpt>
      <trkpt lat="-22.057947479188442230224609375" lon="166.4455863274633884429931640625">
        <ele>880.5999755859375</ele>
        <time>2016-08-12T19:09:44.000Z</time>
        <extensions>
          <ns3:TrackPointExtension>
            <ns3:atemp>15.0</ns3:atemp>
            <ns3:hr>134</ns3:hr>
          </ns3:TrackPointExtension>
        </extensions>
      </trkpt>
      <trkpt lat="-22.05792375840246677398681640625" lon="166.44558406434953212738037109375">
        <ele>880.4000244140625</ele>
        <time>2016-08-12T19:09:45.000Z</time>
        <extensions>
          <ns3:TrackPointExtension>
            <ns3:atemp>15.0</ns3:atemp>
            <ns3:hr>134</ns3:hr>
          </ns3:TrackPointExtension>
        </extensions>
      </trkpt>
      <trkpt lat="-22.05790347419679164886474609375" lon="166.44558456726372241973876953125">
        <ele>880.4000244140625</ele>
        <time>2016-08-12T19:09:46.000Z</time>
        <extensions>
          <ns3:TrackPointExtension>
            <ns3:atemp>15.0</ns3:atemp>
            <ns3:hr>134</ns3:hr>
          </ns3:TrackPointExtension>
        </extensions>
      </trkpt>
      <trkpt lat="-22.0578822679817676544189453125" lon="166.44557333551347255706787109375">
        <ele>880.5999755859375</ele>
        <time>2016-08-12T19:09:47.000Z</time>
        <extensions>
          <ns3:TrackPointExtension>
            <ns3:atemp>15.0</ns3:atemp>
            <ns3:hr>134</ns3:hr>
          </ns3:TrackPointExtension>
        </extensions>
      </trkpt>
      <trkpt lat="-22.05785955302417278289794921875" lon="166.44556025974452495574951171875">
        <ele>880.5999755859375</ele>
        <time>2016-08-12T19:09:48.000Z</time>
        <extensions>
          <ns3:TrackPointExtension>
            <ns3:atemp>15.0</ns3:atemp>
            <ns3:hr>135</ns3:hr>
          </ns3:TrackPointExtension>
        </extensions>
      </trkpt>
      <trkpt lat="-22.05783876590430736541748046875" lon="166.445553302764892578125">
        <ele>880.4000244140625</ele>
        <time>2016-08-12T19:09:49.000Z</time>
        <extensions>
          <ns3:TrackPointExtension>
            <ns3:atemp>15.0</ns3:atemp>
            <ns3:hr>135</ns3:hr>
          </ns3:TrackPointExtension>
        </extensions>
      </trkpt>
      <trkpt lat="-22.057816050946712493896484375" lon="166.44554592669010162353515625">
        <ele>880.5999755859375</ele>
        <time>2016-08-12T19:09:50.000Z</time>
        <extensions>
          <ns3:TrackPointExtension>
            <ns3:atemp>15.0</ns3:atemp>
            <ns3:hr>135</ns3:hr>
          </ns3:TrackPointExtension>
        </extensions>
      </trkpt>
      <trkpt lat="-22.05779417417943477630615234375" lon="166.44553947262465953826904296875">
        <ele>881</ele>
        <time>2016-08-12T19:09:51.000Z</time>
        <extensions>
          <ns3:TrackPointExtension>
            <ns3:atemp>15.0</ns3:atemp>
            <ns3:hr>135</ns3:hr>
          </ns3:TrackPointExtension>
        </extensions>
      </trkpt>
      <trkpt lat="-22.05777288414537906646728515625" lon="166.445534192025661468505859375">
        <ele>881</ele>
        <time>2016-08-12T19:09:52.000Z</time>
        <extensions>
          <ns3:TrackPointExtension>
            <ns3:atemp>15.0</ns3:atemp>
            <ns3:hr>135</ns3:hr>
          </ns3:TrackPointExtension>
        </extensions>
      </trkpt>
      <trkpt lat="-22.05775008536875247955322265625" lon="166.44552723504602909088134765625">
        <ele>880.5999755859375</ele>
        <time>2016-08-12T19:09:53.000Z</time>
        <extensions>
          <ns3:TrackPointExtension>
            <ns3:atemp>15.0</ns3:atemp>
            <ns3:hr>135</ns3:hr>
          </ns3:TrackPointExtension>
        </extensions>
      </trkpt>
      <trkpt lat="-22.05773063935339450836181640625" lon="166.44552354700863361358642578125">
        <ele>880.20001220703125</ele>
        <time>2016-08-12T19:09:54.000Z</time>
        <extensions>
          <ns3:TrackPointExtension>
            <ns3:atemp>15.0</ns3:atemp>
            <ns3:hr>135</ns3:hr>
          </ns3:TrackPointExtension>
        </extensions>
      </trkpt>
      <trkpt lat="-22.05771186389029026031494140625" lon="166.44551784731447696685791015625">
        <ele>880.20001220703125</ele>
        <time>2016-08-12T19:09:55.000Z</time>
        <extensions>
          <ns3:TrackPointExtension>
            <ns3:atemp>15.0</ns3:atemp>
            <ns3:hr>134</ns3:hr>
          </ns3:TrackPointExtension>
        </extensions>
      </trkpt>
      <trkpt lat="-22.0576878078281879425048828125" lon="166.44550980068743228912353515625">
        <ele>880.4000244140625</ele>
        <time>2016-08-12T19:09:56.000Z</time>
        <extensions>
          <ns3:TrackPointExtension>
            <ns3:atemp>15.0</ns3:atemp>
            <ns3:hr>135</ns3:hr>
          </ns3:TrackPointExtension>
        </extensions>
      </trkpt>
      <trkpt lat="-22.05766551196575164794921875" lon="166.44550032913684844970703125">
        <ele>880.4000244140625</ele>
        <time>2016-08-12T19:09:57.000Z</time>
        <extensions>
          <ns3:TrackPointExtension>
            <ns3:atemp>15.0</ns3:atemp>
            <ns3:hr>135</ns3:hr>
          </ns3:TrackPointExtension>
        </extensions>
      </trkpt>
      <trkpt lat="-22.05764262937009334564208984375" lon="166.44549253396689891815185546875">
        <ele>880.4000244140625</ele>
        <time>2016-08-12T19:09:58.000Z</time>
        <extensions>
          <ns3:TrackPointExtension>
            <ns3:atemp>15.0</ns3:atemp>
            <ns3:hr>135</ns3:hr>
          </ns3:TrackPointExtension>
        </extensions>
      </trkpt>
      <trkpt lat="-22.0576194114983081817626953125" lon="166.4454867504537105560302734375">
        <ele>880.20001220703125</ele>
        <time>2016-08-12T19:09:59.000Z</time>
        <extensions>
          <ns3:TrackPointExtension>
            <ns3:atemp>15.0</ns3:atemp>
            <ns3:hr>135</ns3:hr>
          </ns3:TrackPointExtension>
        </extensions>
      </trkpt>
      <trkpt lat="-22.0576003007590770721435546875" lon="166.4454830624163150787353515625">
        <ele>880.4000244140625</ele>
        <time>2016-08-12T19:10:00.000Z</time>
        <extensions>
          <ns3:TrackPointExtension>
            <ns3:atemp>15.0</ns3:atemp>
            <ns3:hr>135</ns3:hr>
          </ns3:TrackPointExtension>
        </extensions>
      </trkpt>
      <trkpt lat="-22.05757699906826019287109375" lon="166.44547811709344387054443359375">
        <ele>880.4000244140625</ele>
        <time>2016-08-12T19:10:01.000Z</time>
        <extensions>
          <ns3:TrackPointExtension>
            <ns3:atemp>15.0</ns3:atemp>
            <ns3:hr>135</ns3:hr>
          </ns3:TrackPointExtension>
        </extensions>
      </trkpt>
      <trkpt lat="-22.0575560443103313446044921875" lon="166.44547618925571441650390625">
        <ele>880.79998779296875</ele>
        <time>2016-08-12T19:10:02.000Z</time>
        <extensions>
          <ns3:TrackPointExtension>
            <ns3:atemp>15.0</ns3:atemp>
            <ns3:hr>135</ns3:hr>
          </ns3:TrackPointExtension>
        </extensions>
      </trkpt>
      <trkpt lat="-22.057533748447895050048828125" lon="166.4454669691622257232666015625">
        <ele>881</ele>
        <time>2016-08-12T19:10:03.000Z</time>
        <extensions>
          <ns3:TrackPointExtension>
            <ns3:atemp>15.0</ns3:atemp>
            <ns3:hr>134</ns3:hr>
          </ns3:TrackPointExtension>
        </extensions>
      </trkpt>
      <trkpt lat="-22.0575121231377124786376953125" lon="166.44545649178326129913330078125">
        <ele>881</ele>
        <time>2016-08-12T19:10:04.000Z</time>
        <extensions>
          <ns3:TrackPointExtension>
            <ns3:atemp>15.0</ns3:atemp>
            <ns3:hr>135</ns3:hr>
          </ns3:TrackPointExtension>
        </extensions>
      </trkpt>
      <trkpt lat="-22.0574926771223545074462890625" lon="166.4454448409378528594970703125">
        <ele>881</ele>
        <time>2016-08-12T19:10:05.000Z</time>
        <extensions>
          <ns3:TrackPointExtension>
            <ns3:atemp>15.0</ns3:atemp>
            <ns3:hr>134</ns3:hr>
          </ns3:TrackPointExtension>
        </extensions>
      </trkpt>
      <trkpt lat="-22.05747163854539394378662109375" lon="166.44543402828276157379150390625">
        <ele>881.4000244140625</ele>
        <time>2016-08-12T19:10:06.000Z</time>
        <extensions>
          <ns3:TrackPointExtension>
            <ns3:atemp>15.0</ns3:atemp>
            <ns3:hr>134</ns3:hr>
          </ns3:TrackPointExtension>
        </extensions>
      </trkpt>
      <trkpt lat="-22.0574487559497356414794921875" lon="166.44542363472282886505126953125">
        <ele>881.79998779296875</ele>
        <time>2016-08-12T19:10:07.000Z</time>
        <extensions>
          <ns3:TrackPointExtension>
            <ns3:atemp>15.0</ns3:atemp>
            <ns3:hr>134</ns3:hr>
          </ns3:TrackPointExtension>
        </extensions>
      </trkpt>
      <trkpt lat="-22.05742168240249156951904296875" lon="166.4454163424670696258544921875">
        <ele>881.5999755859375</ele>
        <time>2016-08-12T19:10:08.000Z</time>
        <extensions>
          <ns3:TrackPointExtension>
            <ns3:atemp>15.0</ns3:atemp>
            <ns3:hr>134</ns3:hr>
          </ns3:TrackPointExtension>
        </extensions>
      </trkpt>
      <trkpt lat="-22.0573971234261989593505859375" lon="166.44541340880095958709716796875">
        <ele>881.4000244140625</ele>
        <time>2016-08-12T19:10:09.000Z</time>
        <extensions>
          <ns3:TrackPointExtension>
            <ns3:atemp>15.0</ns3:atemp>
            <ns3:hr>134</ns3:hr>
          </ns3:TrackPointExtension>
        </extensions>
      </trkpt>
      <trkpt lat="-22.05737692303955554962158203125" lon="166.445410139858722686767578125">
        <ele>881.5999755859375</ele>
        <time>2016-08-12T19:10:10.000Z</time>
        <extensions>
          <ns3:TrackPointExtension>
            <ns3:atemp>15.0</ns3:atemp>
            <ns3:hr>134</ns3:hr>
          </ns3:TrackPointExtension>
        </extensions>
      </trkpt>
      <trkpt lat="-22.0573558844625949859619140625" lon="166.44540435634553432464599609375">
        <ele>881.79998779296875</ele>
        <time>2016-08-12T19:10:11.000Z</time>
        <extensions>
          <ns3:TrackPointExtension>
            <ns3:atemp>15.0</ns3:atemp>
            <ns3:hr>134</ns3:hr>
          </ns3:TrackPointExtension>
        </extensions>
      </trkpt>
      <trkpt lat="-22.05733568407595157623291015625" lon="166.445401422679424285888671875">
        <ele>882</ele>
        <time>2016-08-12T19:10:12.000Z</time>
        <extensions>
          <ns3:TrackPointExtension>
            <ns3:atemp>15.0</ns3:atemp>
            <ns3:hr>135</ns3:hr>
          </ns3:TrackPointExtension>
        </extensions>
      </trkpt>
      <trkpt lat="-22.05731405876576900482177734375" lon="166.44539714790880680084228515625">
        <ele>881.79998779296875</ele>
        <time>2016-08-12T19:10:13.000Z</time>
        <extensions>
          <ns3:TrackPointExtension>
            <ns3:atemp>15.0</ns3:atemp>
            <ns3:hr>134</ns3:hr>
          </ns3:TrackPointExtension>
        </extensions>
      </trkpt>
      <trkpt lat="-22.05729159526526927947998046875" lon="166.44539027474820613861083984375">
        <ele>882.20001220703125</ele>
        <time>2016-08-12T19:10:14.000Z</time>
        <extensions>
          <ns3:TrackPointExtension>
            <ns3:atemp>15.0</ns3:atemp>
            <ns3:hr>135</ns3:hr>
          </ns3:TrackPointExtension>
        </extensions>
      </trkpt>
      <trkpt lat="-22.0572713948786258697509765625" lon="166.44538859836757183074951171875">
        <ele>882.5999755859375</ele>
        <time>2016-08-12T19:10:15.000Z</time>
        <extensions>
          <ns3:TrackPointExtension>
            <ns3:atemp>15.0</ns3:atemp>
            <ns3:hr>135</ns3:hr>
          </ns3:TrackPointExtension>
        </extensions>
      </trkpt>
      <trkpt lat="-22.05724817700684070587158203125" lon="166.44538767635822296142578125">
        <ele>882.5999755859375</ele>
        <time>2016-08-12T19:10:16.000Z</time>
        <extensions>
          <ns3:TrackPointExtension>
            <ns3:atemp>15.0</ns3:atemp>
            <ns3:hr>135</ns3:hr>
          </ns3:TrackPointExtension>
        </extensions>
      </trkpt>
      <trkpt lat="-22.0572271384298801422119140625" lon="166.4453848265111446380615234375">
        <ele>882.5999755859375</ele>
        <time>2016-08-12T19:10:17.000Z</time>
        <extensions>
          <ns3:TrackPointExtension>
            <ns3:atemp>15.0</ns3:atemp>
            <ns3:hr>135</ns3:hr>
          </ns3:TrackPointExtension>
        </extensions>
      </trkpt>
      <trkpt lat="-22.05720819532871246337890625" lon="166.4453814737498760223388671875">
        <ele>883</ele>
        <time>2016-08-12T19:10:18.000Z</time>
        <extensions>
          <ns3:TrackPointExtension>
            <ns3:atemp>15.0</ns3:atemp>
            <ns3:hr>136</ns3:hr>
          </ns3:TrackPointExtension>
        </extensions>
      </trkpt>
      <trkpt lat="-22.05718799494206905364990234375" lon="166.44537904299795627593994140625">
        <ele>883.20001220703125</ele>
        <time>2016-08-12T19:10:19.000Z</time>
        <extensions>
          <ns3:TrackPointExtension>
            <ns3:atemp>15.0</ns3:atemp>
            <ns3:hr>136</ns3:hr>
          </ns3:TrackPointExtension>
        </extensions>
      </trkpt>
      <trkpt lat="-22.05716921947896480560302734375" lon="166.4453808031976222991943359375">
        <ele>883</ele>
        <time>2016-08-12T19:10:20.000Z</time>
        <extensions>
          <ns3:TrackPointExtension>
            <ns3:atemp>15.0</ns3:atemp>
            <ns3:hr>136</ns3:hr>
          </ns3:TrackPointExtension>
        </extensions>
      </trkpt>
      <trkpt lat="-22.057146839797496795654296875" lon="166.44538306631147861480712890625">
        <ele>883.20001220703125</ele>
        <time>2016-08-12T19:10:21.000Z</time>
        <extensions>
          <ns3:TrackPointExtension>
            <ns3:atemp>15.0</ns3:atemp>
            <ns3:hr>136</ns3:hr>
          </ns3:TrackPointExtension>
        </extensions>
      </trkpt>
      <trkpt lat="-22.05712328664958477020263671875" lon="166.44538692198693752288818359375">
        <ele>883.5999755859375</ele>
        <time>2016-08-12T19:10:22.000Z</time>
        <extensions>
          <ns3:TrackPointExtension>
            <ns3:atemp>15.0</ns3:atemp>
            <ns3:hr>136</ns3:hr>
          </ns3:TrackPointExtension>
        </extensions>
      </trkpt>
      <trkpt lat="-22.05710149370133876800537109375" lon="166.4453915320336818695068359375">
        <ele>883.4000244140625</ele>
        <time>2016-08-12T19:10:23.000Z</time>
        <extensions>
          <ns3:TrackPointExtension>
            <ns3:atemp>15.0</ns3:atemp>
            <ns3:hr>135</ns3:hr>
          </ns3:TrackPointExtension>
        </extensions>
      </trkpt>
      <trkpt lat="-22.05707668326795101165771484375" lon="166.44539840519428253173828125">
        <ele>883.4000244140625</ele>
        <time>2016-08-12T19:10:24.000Z</time>
        <extensions>
          <ns3:TrackPointExtension>
            <ns3:atemp>15.0</ns3:atemp>
            <ns3:hr>136</ns3:hr>
          </ns3:TrackPointExtension>
        </extensions>
      </trkpt>
      <trkpt lat="-22.05705405212938785552978515625" lon="166.445406787097454071044921875">
        <ele>883.79998779296875</ele>
        <time>2016-08-12T19:10:25.000Z</time>
        <extensions>
          <ns3:TrackPointExtension>
            <ns3:atemp>15.0</ns3:atemp>
            <ns3:hr>135</ns3:hr>
          </ns3:TrackPointExtension>
        </extensions>
      </trkpt>
      <trkpt lat="-22.05703276209533214569091796875" lon="166.4454193599522113800048828125">
        <ele>884</ele>
        <time>2016-08-12T19:10:26.000Z</time>
        <extensions>
          <ns3:TrackPointExtension>
            <ns3:atemp>15.0</ns3:atemp>
            <ns3:hr>136</ns3:hr>
          </ns3:TrackPointExtension>
        </extensions>
      </trkpt>
      <trkpt lat="-22.05700946040451526641845703125" lon="166.44543235190212726593017578125">
        <ele>883.5999755859375</ele>
        <time>2016-08-12T19:10:27.000Z</time>
        <extensions>
          <ns3:TrackPointExtension>
            <ns3:atemp>15.0</ns3:atemp>
            <ns3:hr>135</ns3:hr>
          </ns3:TrackPointExtension>
        </extensions>
      </trkpt>
      <trkpt lat="-22.05699118785560131072998046875" lon="166.44544743932783603668212890625">
        <ele>883.20001220703125</ele>
        <time>2016-08-12T19:10:28.000Z</time>
        <extensions>
          <ns3:TrackPointExtension>
            <ns3:atemp>15.0</ns3:atemp>
            <ns3:hr>135</ns3:hr>
          </ns3:TrackPointExtension>
        </extensions>
      </trkpt>
      <trkpt lat="-22.05697358585894107818603515625" lon="166.44545950926840305328369140625">
        <ele>883.5999755859375</ele>
        <time>2016-08-12T19:10:29.000Z</time>
        <extensions>
          <ns3:TrackPointExtension>
            <ns3:atemp>15.0</ns3:atemp>
            <ns3:hr>135</ns3:hr>
          </ns3:TrackPointExtension>
        </extensions>
      </trkpt>
      <trkpt lat="-22.0569579117000102996826171875" lon="166.44547241739928722381591796875">
        <ele>883.79998779296875</ele>
        <time>2016-08-12T19:10:30.000Z</time>
        <extensions>
          <ns3:TrackPointExtension>
            <ns3:atemp>15.0</ns3:atemp>
            <ns3:hr>135</ns3:hr>
          </ns3:TrackPointExtension>
        </extensions>
      </trkpt>
      <trkpt lat="-22.05694290809333324432373046875" lon="166.44548733718693256378173828125">
        <ele>883.5999755859375</ele>
        <time>2016-08-12T19:10:31.000Z</time>
        <extensions>
          <ns3:TrackPointExtension>
            <ns3:atemp>15.0</ns3:atemp>
            <ns3:hr>134</ns3:hr>
          </ns3:TrackPointExtension>
        </extensions>
      </trkpt>
      <trkpt lat="-22.0569176785647869110107421875" lon="166.44550041295588016510009765625">
        <ele>883.5999755859375</ele>
        <time>2016-08-12T19:10:32.000Z</time>
        <extensions>
          <ns3:TrackPointExtension>
            <ns3:atemp>15.0</ns3:atemp>
            <ns3:hr>134</ns3:hr>
          </ns3:TrackPointExtension>
        </extensions>
      </trkpt>
      <trkpt lat="-22.0568911917507648468017578125" lon="166.4455082081258296966552734375">
        <ele>883.5999755859375</ele>
        <time>2016-08-12T19:10:33.000Z</time>
        <extensions>
          <ns3:TrackPointExtension>
            <ns3:atemp>15.0</ns3:atemp>
            <ns3:hr>133</ns3:hr>
          </ns3:TrackPointExtension>
        </extensions>
      </trkpt>
      <trkpt lat="-22.05686629749834537506103515625" lon="166.4455162547528743743896484375">
        <ele>883.4000244140625</ele>
        <time>2016-08-12T19:10:34.000Z</time>
        <extensions>
          <ns3:TrackPointExtension>
            <ns3:atemp>15.0</ns3:atemp>
            <ns3:hr>132</ns3:hr>
          </ns3:TrackPointExtension>
        </extensions>
      </trkpt>
      <trkpt lat="-22.05684081651270389556884765625" lon="166.4455266483128070831298828125">
        <ele>883.20001220703125</ele>
        <time>2016-08-12T19:10:35.000Z</time>
        <extensions>
          <ns3:TrackPointExtension>
            <ns3:atemp>15.0</ns3:atemp>
            <ns3:hr>132</ns3:hr>
          </ns3:TrackPointExtension>
        </extensions>
      </trkpt>
      <trkpt lat="-22.05681650899350643157958984375" lon="166.44553461112082004547119140625">
        <ele>883.20001220703125</ele>
        <time>2016-08-12T19:10:36.000Z</time>
        <extensions>
          <ns3:TrackPointExtension>
            <ns3:atemp>15.0</ns3:atemp>
            <ns3:hr>132</ns3:hr>
          </ns3:TrackPointExtension>
        </extensions>
      </trkpt>
      <trkpt lat="-22.0567931234836578369140625" lon="166.44554726779460906982421875">
        <ele>883</ele>
        <time>2016-08-12T19:10:37.000Z</time>
        <extensions>
          <ns3:TrackPointExtension>
            <ns3:atemp>15.0</ns3:atemp>
            <ns3:hr>132</ns3:hr>
          </ns3:TrackPointExtension>
        </extensions>
      </trkpt>
      <trkpt lat="-22.05676973797380924224853515625" lon="166.44556042738258838653564453125">
        <ele>882.79998779296875</ele>
        <time>2016-08-12T19:10:38.000Z</time>
        <extensions>
          <ns3:TrackPointExtension>
            <ns3:atemp>15.0</ns3:atemp>
            <ns3:hr>132</ns3:hr>
          </ns3:TrackPointExtension>
        </extensions>
      </trkpt>
      <trkpt lat="-22.0567396469414234161376953125" lon="166.445554979145526885986328125">
        <ele>882.79998779296875</ele>
        <time>2016-08-12T19:10:39.000Z</time>
        <extensions>
          <ns3:TrackPointExtension>
            <ns3:atemp>15.0</ns3:atemp>
            <ns3:hr>132</ns3:hr>
          </ns3:TrackPointExtension>
        </extensions>
      </trkpt>
      <trkpt lat="-22.05671089701354503631591796875" lon="166.44556126557290554046630859375">
        <ele>882.5999755859375</ele>
        <time>2016-08-12T19:10:40.000Z</time>
        <extensions>
          <ns3:TrackPointExtension>
            <ns3:atemp>15.0</ns3:atemp>
            <ns3:hr>133</ns3:hr>
          </ns3:TrackPointExtension>
        </extensions>
      </trkpt>
      <trkpt lat="-22.0566806383430957794189453125" lon="166.44556604325771331787109375">
        <ele>882.20001220703125</ele>
        <time>2016-08-12T19:10:41.000Z</time>
        <extensions>
          <ns3:TrackPointExtension>
            <ns3:atemp>15.0</ns3:atemp>
            <ns3:hr>133</ns3:hr>
          </ns3:TrackPointExtension>
        </extensions>
      </trkpt>
      <trkpt lat="-22.0566518045961856842041015625" lon="166.44557098858058452606201171875">
        <ele>882.20001220703125</ele>
        <time>2016-08-12T19:10:42.000Z</time>
        <extensions>
          <ns3:TrackPointExtension>
            <ns3:atemp>15.0</ns3:atemp>
            <ns3:hr>133</ns3:hr>
          </ns3:TrackPointExtension>
        </extensions>
      </trkpt>
      <trkpt lat="-22.05662070773541927337646484375" lon="166.44557408988475799560546875">
        <ele>882</ele>
        <time>2016-08-12T19:10:43.000Z</time>
        <extensions>
          <ns3:TrackPointExtension>
            <ns3:atemp>15.0</ns3:atemp>
            <ns3:hr>133</ns3:hr>
          </ns3:TrackPointExtension>
        </extensions>
      </trkpt>
      <trkpt lat="-22.05659321509301662445068359375" lon="166.44557408988475799560546875">
        <ele>881.79998779296875</ele>
        <time>2016-08-12T19:10:44.000Z</time>
        <extensions>
          <ns3:TrackPointExtension>
            <ns3:atemp>15.0</ns3:atemp>
            <ns3:hr>133</ns3:hr>
          </ns3:TrackPointExtension>
        </extensions>
      </trkpt>
      <trkpt lat="-22.056573517620563507080078125" lon="166.4455814659595489501953125">
        <ele>881.79998779296875</ele>
        <time>2016-08-12T19:10:45.000Z</time>
        <extensions>
          <ns3:TrackPointExtension>
            <ns3:atemp>15.0</ns3:atemp>
            <ns3:hr>133</ns3:hr>
          </ns3:TrackPointExtension>
        </extensions>
      </trkpt>
      <trkpt lat="-22.0565485395491123199462890625" lon="166.44558289088308811187744140625">
        <ele>881.5999755859375</ele>
        <time>2016-08-12T19:10:46.000Z</time>
        <extensions>
          <ns3:TrackPointExtension>
            <ns3:atemp>15.0</ns3:atemp>
            <ns3:hr>134</ns3:hr>
          </ns3:TrackPointExtension>
        </extensions>
      </trkpt>
      <trkpt lat="-22.0565284229815006256103515625" lon="166.445584483444690704345703125">
        <ele>881.20001220703125</ele>
        <time>2016-08-12T19:10:47.000Z</time>
        <extensions>
          <ns3:TrackPointExtension>
            <ns3:atemp>15.0</ns3:atemp>
            <ns3:hr>133</ns3:hr>
          </ns3:TrackPointExtension>
        </extensions>
      </trkpt>
      <trkpt lat="-22.05650906078517436981201171875" lon="166.4455926977097988128662109375">
        <ele>881.20001220703125</ele>
        <time>2016-08-12T19:10:48.000Z</time>
        <extensions>
          <ns3:TrackPointExtension>
            <ns3:atemp>15.0</ns3:atemp>
            <ns3:hr>133</ns3:hr>
          </ns3:TrackPointExtension>
        </extensions>
      </trkpt>
      <trkpt lat="-22.05648575909435749053955078125" lon="166.44559822976589202880859375">
        <ele>881.4000244140625</ele>
        <time>2016-08-12T19:10:49.000Z</time>
        <extensions>
          <ns3:TrackPointExtension>
            <ns3:atemp>15.0</ns3:atemp>
            <ns3:hr>133</ns3:hr>
          </ns3:TrackPointExtension>
        </extensions>
      </trkpt>
      <trkpt lat="-22.0564610324800014495849609375" lon="166.445603258907794952392578125">
        <ele>881.4000244140625</ele>
        <time>2016-08-12T19:10:50.000Z</time>
        <extensions>
          <ns3:TrackPointExtension>
            <ns3:atemp>15.0</ns3:atemp>
            <ns3:hr>132</ns3:hr>
          </ns3:TrackPointExtension>
        </extensions>
      </trkpt>
      <trkpt lat="-22.0564389042556285858154296875" lon="166.44561088643968105316162109375">
        <ele>881.4000244140625</ele>
        <time>2016-08-12T19:10:51.000Z</time>
        <extensions>
          <ns3:TrackPointExtension>
            <ns3:atemp>15.0</ns3:atemp>
            <ns3:hr>132</ns3:hr>
          </ns3:TrackPointExtension>
        </extensions>
      </trkpt>
      <trkpt lat="-22.05642021261155605316162109375" lon="166.445618011057376861572265625">
        <ele>881.5999755859375</ele>
        <time>2016-08-12T19:10:52.000Z</time>
        <extensions>
          <ns3:TrackPointExtension>
            <ns3:atemp>15.0</ns3:atemp>
            <ns3:hr>132</ns3:hr>
          </ns3:TrackPointExtension>
        </extensions>
      </trkpt>
      <trkpt lat="-22.05639909021556377410888671875" lon="166.445618011057376861572265625">
        <ele>881.79998779296875</ele>
        <time>2016-08-12T19:10:53.000Z</time>
        <extensions>
          <ns3:TrackPointExtension>
            <ns3:atemp>15.0</ns3:atemp>
            <ns3:hr>133</ns3:hr>
          </ns3:TrackPointExtension>
        </extensions>
      </trkpt>
      <trkpt lat="-22.05637805163860321044921875" lon="166.4456270635128021240234375">
        <ele>882.20001220703125</ele>
        <time>2016-08-12T19:10:54.000Z</time>
        <extensions>
          <ns3:TrackPointExtension>
            <ns3:atemp>15.0</ns3:atemp>
            <ns3:hr>132</ns3:hr>
          </ns3:TrackPointExtension>
        </extensions>
      </trkpt>
      <trkpt lat="-22.0563604496419429779052734375" lon="166.44563552923500537872314453125">
        <ele>882</ele>
        <time>2016-08-12T19:10:55.000Z</time>
        <extensions>
          <ns3:TrackPointExtension>
            <ns3:atemp>15.0</ns3:atemp>
            <ns3:hr>133</ns3:hr>
          </ns3:TrackPointExtension>
        </extensions>
      </trkpt>
      <trkpt lat="-22.056338489055633544921875" lon="166.4456379599869251251220703125">
        <ele>882.4000244140625</ele>
        <time>2016-08-12T19:10:56.000Z</time>
        <extensions>
          <ns3:TrackPointExtension>
            <ns3:atemp>15.0</ns3:atemp>
            <ns3:hr>133</ns3:hr>
          </ns3:TrackPointExtension>
        </extensions>
      </trkpt>
      <trkpt lat="-22.05631610937416553497314453125" lon="166.4456450007855892181396484375">
        <ele>882.5999755859375</ele>
        <time>2016-08-12T19:10:57.000Z</time>
        <extensions>
          <ns3:TrackPointExtension>
            <ns3:atemp>15.0</ns3:atemp>
            <ns3:hr>133</ns3:hr>
          </ns3:TrackPointExtension>
        </extensions>
      </trkpt>
      <trkpt lat="-22.05629347823560237884521484375" lon="166.4456463418900966644287109375">
        <ele>882.5999755859375</ele>
        <time>2016-08-12T19:10:58.000Z</time>
        <extensions>
          <ns3:TrackPointExtension>
            <ns3:atemp>15.0</ns3:atemp>
            <ns3:hr>133</ns3:hr>
          </ns3:TrackPointExtension>
        </extensions>
      </trkpt>
      <trkpt lat="-22.0562674105167388916015625" lon="166.4456429891288280487060546875">
        <ele>882.79998779296875</ele>
        <time>2016-08-12T19:10:59.000Z</time>
        <extensions>
          <ns3:TrackPointExtension>
            <ns3:atemp>15.0</ns3:atemp>
            <ns3:hr>133</ns3:hr>
          </ns3:TrackPointExtension>
        </extensions>
      </trkpt>
      <trkpt lat="-22.05624100752174854278564453125" lon="166.44563921727240085601806640625">
        <ele>882.79998779296875</ele>
        <time>2016-08-12T19:11:00.000Z</time>
        <extensions>
          <ns3:TrackPointExtension>
            <ns3:atemp>15.0</ns3:atemp>
            <ns3:hr>133</ns3:hr>
          </ns3:TrackPointExtension>
        </extensions>
      </trkpt>
      <trkpt lat="-22.05621954984962940216064453125" lon="166.4456419833004474639892578125">
        <ele>882.5999755859375</ele>
        <time>2016-08-12T19:11:01.000Z</time>
        <extensions>
          <ns3:TrackPointExtension>
            <ns3:atemp>15.0</ns3:atemp>
            <ns3:hr>133</ns3:hr>
          </ns3:TrackPointExtension>
        </extensions>
      </trkpt>
      <trkpt lat="-22.05619574524462223052978515625" lon="166.44564257003366947174072265625">
        <ele>882.4000244140625</ele>
        <time>2016-08-12T19:11:02.000Z</time>
        <extensions>
          <ns3:TrackPointExtension>
            <ns3:atemp>15.0</ns3:atemp>
            <ns3:hr>132</ns3:hr>
          </ns3:TrackPointExtension>
        </extensions>
      </trkpt>
      <trkpt lat="-22.05617261119186878204345703125" lon="166.44564650952816009521484375">
        <ele>882.5999755859375</ele>
        <time>2016-08-12T19:11:03.000Z</time>
        <extensions>
          <ns3:TrackPointExtension>
            <ns3:atemp>15.0</ns3:atemp>
            <ns3:hr>133</ns3:hr>
          </ns3:TrackPointExtension>
        </extensions>
      </trkpt>
      <trkpt lat="-22.05615031532943248748779296875" lon="166.4456538856029510498046875">
        <ele>882.4000244140625</ele>
        <time>2016-08-12T19:11:04.000Z</time>
        <extensions>
          <ns3:TrackPointExtension>
            <ns3:atemp>15.0</ns3:atemp>
            <ns3:hr>132</ns3:hr>
          </ns3:TrackPointExtension>
        </extensions>
      </trkpt>
      <trkpt lat="-22.05612659454345703125" lon="166.4456620998680591583251953125">
        <ele>882.20001220703125</ele>
        <time>2016-08-12T19:11:05.000Z</time>
        <extensions>
          <ns3:TrackPointExtension>
            <ns3:atemp>15.0</ns3:atemp>
            <ns3:hr>132</ns3:hr>
          </ns3:TrackPointExtension>
        </extensions>
      </trkpt>
      <trkpt lat="-22.056106813251972198486328125" lon="166.44567676819860935211181640625">
        <ele>882.4000244140625</ele>
        <time>2016-08-12T19:11:06.000Z</time>
        <extensions>
          <ns3:TrackPointExtension>
            <ns3:atemp>15.0</ns3:atemp>
            <ns3:hr>132</ns3:hr>
          </ns3:TrackPointExtension>
        </extensions>
      </trkpt>
      <trkpt lat="-22.05608837306499481201171875" lon="166.44569210708141326904296875">
        <ele>882.5999755859375</ele>
        <time>2016-08-12T19:11:07.000Z</time>
        <extensions>
          <ns3:TrackPointExtension>
            <ns3:atemp>15.0</ns3:atemp>
            <ns3:hr>132</ns3:hr>
          </ns3:TrackPointExtension>
        </extensions>
      </trkpt>
      <trkpt lat="-22.0560711063444614410400390625" lon="166.4457093738019466400146484375">
        <ele>882.4000244140625</ele>
        <time>2016-08-12T19:11:08.000Z</time>
        <extensions>
          <ns3:TrackPointExtension>
            <ns3:atemp>15.0</ns3:atemp>
            <ns3:hr>133</ns3:hr>
          </ns3:TrackPointExtension>
        </extensions>
      </trkpt>
      <trkpt lat="-22.05605492927134037017822265625" lon="166.44572571851313114166259765625">
        <ele>882.20001220703125</ele>
        <time>2016-08-12T19:11:09.000Z</time>
        <extensions>
          <ns3:TrackPointExtension>
            <ns3:atemp>15.0</ns3:atemp>
            <ns3:hr>132</ns3:hr>
          </ns3:TrackPointExtension>
        </extensions>
      </trkpt>
      <trkpt lat="-22.05603632144629955291748046875" lon="166.4457429014146327972412109375">
        <ele>882.5999755859375</ele>
        <time>2016-08-12T19:11:10.000Z</time>
        <extensions>
          <ns3:TrackPointExtension>
            <ns3:atemp>15.0</ns3:atemp>
            <ns3:hr>133</ns3:hr>
          </ns3:TrackPointExtension>
        </extensions>
      </trkpt>
      <trkpt lat="-22.05601863563060760498046875" lon="166.44576276652514934539794921875">
        <ele>882.5999755859375</ele>
        <time>2016-08-12T19:11:11.000Z</time>
        <extensions>
          <ns3:TrackPointExtension>
            <ns3:atemp>15.0</ns3:atemp>
            <ns3:hr>133</ns3:hr>
          </ns3:TrackPointExtension>
        </extensions>
      </trkpt>
      <trkpt lat="-22.055999524891376495361328125" lon="166.44577953033149242401123046875">
        <ele>882.20001220703125</ele>
        <time>2016-08-12T19:11:12.000Z</time>
        <extensions>
          <ns3:TrackPointExtension>
            <ns3:atemp>15.0</ns3:atemp>
            <ns3:hr>133</ns3:hr>
          </ns3:TrackPointExtension>
        </extensions>
      </trkpt>
      <trkpt lat="-22.05598033033311367034912109375" lon="166.44579595886170864105224609375">
        <ele>882</ele>
        <time>2016-08-12T19:11:13.000Z</time>
        <extensions>
          <ns3:TrackPointExtension>
            <ns3:atemp>15.0</ns3:atemp>
            <ns3:hr>133</ns3:hr>
          </ns3:TrackPointExtension>
        </extensions>
      </trkpt>
      <trkpt lat="-22.0559594593942165374755859375" lon="166.445808112621307373046875">
        <ele>882.4000244140625</ele>
        <time>2016-08-12T19:11:14.000Z</time>
        <extensions>
          <ns3:TrackPointExtension>
            <ns3:atemp>15.0</ns3:atemp>
            <ns3:hr>133</ns3:hr>
          </ns3:TrackPointExtension>
        </extensions>
      </trkpt>
      <trkpt lat="-22.055938504636287689208984375" lon="166.445818841457366943359375">
        <ele>882.5999755859375</ele>
        <time>2016-08-12T19:11:15.000Z</time>
        <extensions>
          <ns3:TrackPointExtension>
            <ns3:atemp>15.0</ns3:atemp>
            <ns3:hr>133</ns3:hr>
          </ns3:TrackPointExtension>
        </extensions>
      </trkpt>
      <trkpt lat="-22.0559205673635005950927734375" lon="166.44583166576921939849853515625">
        <ele>882.4000244140625</ele>
        <time>2016-08-12T19:11:16.000Z</time>
        <extensions>
          <ns3:TrackPointExtension>
            <ns3:atemp>15.0</ns3:atemp>
            <ns3:hr>133</ns3:hr>
          </ns3:TrackPointExtension>
        </extensions>
      </trkpt>
      <trkpt lat="-22.0559011213481426239013671875" lon="166.44584189169108867645263671875">
        <ele>882.4000244140625</ele>
        <time>2016-08-12T19:11:17.000Z</time>
        <extensions>
          <ns3:TrackPointExtension>
            <ns3:atemp>15.0</ns3:atemp>
            <ns3:hr>133</ns3:hr>
          </ns3:TrackPointExtension>
        </extensions>
      </trkpt>
      <trkpt lat="-22.055878154933452606201171875" lon="166.44585194997489452362060546875">
        <ele>882.5999755859375</ele>
        <time>2016-08-12T19:11:18.000Z</time>
        <extensions>
          <ns3:TrackPointExtension>
            <ns3:atemp>15.0</ns3:atemp>
            <ns3:hr>133</ns3:hr>
          </ns3:TrackPointExtension>
        </extensions>
      </trkpt>
      <trkpt lat="-22.0558570325374603271484375" lon="166.445862092077732086181640625">
        <ele>882.5999755859375</ele>
        <time>2016-08-12T19:11:19.000Z</time>
        <extensions>
          <ns3:TrackPointExtension>
            <ns3:atemp>15.0</ns3:atemp>
            <ns3:hr>133</ns3:hr>
          </ns3:TrackPointExtension>
        </extensions>
      </trkpt>
      <trkpt lat="-22.055834233760833740234375" lon="166.4458733238279819488525390625">
        <ele>882.4000244140625</ele>
        <time>2016-08-12T19:11:20.000Z</time>
        <extensions>
          <ns3:TrackPointExtension>
            <ns3:atemp>15.0</ns3:atemp>
            <ns3:hr>133</ns3:hr>
          </ns3:TrackPointExtension>
        </extensions>
      </trkpt>
      <trkpt lat="-22.0558132790029048919677734375" lon="166.44588480703532695770263671875">
        <ele>882.79998779296875</ele>
        <time>2016-08-12T19:11:21.000Z</time>
        <extensions>
          <ns3:TrackPointExtension>
            <ns3:atemp>15.0</ns3:atemp>
            <ns3:hr>133</ns3:hr>
          </ns3:TrackPointExtension>
        </extensions>
      </trkpt>
      <trkpt lat="-22.05579333007335662841796875" lon="166.4458947815001010894775390625">
        <ele>883.20001220703125</ele>
        <time>2016-08-12T19:11:22.000Z</time>
        <extensions>
          <ns3:TrackPointExtension>
            <ns3:atemp>15.0</ns3:atemp>
            <ns3:hr>132</ns3:hr>
          </ns3:TrackPointExtension>
        </extensions>
      </trkpt>
      <trkpt lat="-22.0557730458676815032958984375" lon="166.44590777345001697540283203125">
        <ele>883.20001220703125</ele>
        <time>2016-08-12T19:11:23.000Z</time>
        <extensions>
          <ns3:TrackPointExtension>
            <ns3:atemp>15.0</ns3:atemp>
            <ns3:hr>132</ns3:hr>
          </ns3:TrackPointExtension>
        </extensions>
      </trkpt>
      <trkpt lat="-22.05575301311910152435302734375" lon="166.445919759571552276611328125">
        <ele>883</ele>
        <time>2016-08-12T19:11:24.000Z</time>
        <extensions>
          <ns3:TrackPointExtension>
            <ns3:atemp>15.0</ns3:atemp>
            <ns3:hr>132</ns3:hr>
          </ns3:TrackPointExtension>
        </extensions>
      </trkpt>
      <trkpt lat="-22.05573624931275844573974609375" lon="166.445927806198596954345703125">
        <ele>883.20001220703125</ele>
        <time>2016-08-12T19:11:25.000Z</time>
        <extensions>
          <ns3:TrackPointExtension>
            <ns3:atemp>15.0</ns3:atemp>
            <ns3:hr>132</ns3:hr>
          </ns3:TrackPointExtension>
        </extensions>
      </trkpt>
      <trkpt lat="-22.05571822822093963623046875" lon="166.4459370262920856475830078125">
        <ele>883.20001220703125</ele>
        <time>2016-08-12T19:11:26.000Z</time>
        <extensions>
          <ns3:TrackPointExtension>
            <ns3:atemp>15.0</ns3:atemp>
            <ns3:hr>132</ns3:hr>
          </ns3:TrackPointExtension>
        </extensions>
      </trkpt>
      <trkpt lat="-22.0557002909481525421142578125" lon="166.44594716839492321014404296875">
        <ele>883.20001220703125</ele>
        <time>2016-08-12T19:11:27.000Z</time>
        <extensions>
          <ns3:TrackPointExtension>
            <ns3:atemp>15.0</ns3:atemp>
            <ns3:hr>132</ns3:hr>
          </ns3:TrackPointExtension>
        </extensions>
      </trkpt>
      <trkpt lat="-22.05568193458020687103271484375" lon="166.445952616631984710693359375">
        <ele>883.20001220703125</ele>
        <time>2016-08-12T19:11:28.000Z</time>
        <extensions>
          <ns3:TrackPointExtension>
            <ns3:atemp>15.0</ns3:atemp>
            <ns3:hr>132</ns3:hr>
          </ns3:TrackPointExtension>
        </extensions>
      </trkpt>
      <trkpt lat="-22.05566315911710262298583984375" lon="166.44596208818256855010986328125">
        <ele>883.5999755859375</ele>
        <time>2016-08-12T19:11:29.000Z</time>
        <extensions>
          <ns3:TrackPointExtension>
            <ns3:atemp>15.0</ns3:atemp>
            <ns3:hr>132</ns3:hr>
          </ns3:TrackPointExtension>
        </extensions>
      </trkpt>
      <trkpt lat="-22.0556409470736980438232421875" lon="166.44596778787672519683837890625">
        <ele>883.79998779296875</ele>
        <time>2016-08-12T19:11:30.000Z</time>
        <extensions>
          <ns3:TrackPointExtension>
            <ns3:atemp>15.0</ns3:atemp>
            <ns3:hr>132</ns3:hr>
          </ns3:TrackPointExtension>
        </extensions>
      </trkpt>
      <trkpt lat="-22.055618651211261749267578125" lon="166.44597935490310192108154296875">
        <ele>883.79998779296875</ele>
        <time>2016-08-12T19:11:31.000Z</time>
        <extensions>
          <ns3:TrackPointExtension>
            <ns3:atemp>15.0</ns3:atemp>
            <ns3:hr>132</ns3:hr>
          </ns3:TrackPointExtension>
        </extensions>
      </trkpt>
      <trkpt lat="-22.0556003786623477935791015625" lon="166.44599142484366893768310546875">
        <ele>883.5999755859375</ele>
        <time>2016-08-12T19:11:32.000Z</time>
        <extensions>
          <ns3:TrackPointExtension>
            <ns3:atemp>15.0</ns3:atemp>
            <ns3:hr>133</ns3:hr>
          </ns3:TrackPointExtension>
        </extensions>
      </trkpt>
      <trkpt lat="-22.05557900480926036834716796875" lon="166.44599922001361846923828125">
        <ele>884</ele>
        <time>2016-08-12T19:11:33.000Z</time>
        <extensions>
          <ns3:TrackPointExtension>
            <ns3:atemp>15.0</ns3:atemp>
            <ns3:hr>133</ns3:hr>
          </ns3:TrackPointExtension>
        </extensions>
      </trkpt>
      <trkpt lat="-22.05555503256618976593017578125" lon="166.44601003266870975494384765625">
        <ele>884.20001220703125</ele>
        <time>2016-08-12T19:11:34.000Z</time>
        <extensions>
          <ns3:TrackPointExtension>
            <ns3:atemp>15.0</ns3:atemp>
            <ns3:hr>133</ns3:hr>
          </ns3:TrackPointExtension>
        </extensions>
      </trkpt>
      <trkpt lat="-22.05553290434181690216064453125" lon="166.4460184983909130096435546875">
        <ele>884</ele>
        <time>2016-08-12T19:11:35.000Z</time>
        <extensions>
          <ns3:TrackPointExtension>
            <ns3:atemp>15.0</ns3:atemp>
            <ns3:hr>133</ns3:hr>
          </ns3:TrackPointExtension>
        </extensions>
      </trkpt>
      <trkpt lat="-22.0555091835558414459228515625" lon="166.44602512009441852569580078125">
        <ele>884</ele>
        <time>2016-08-12T19:11:36.000Z</time>
        <extensions>
          <ns3:TrackPointExtension>
            <ns3:atemp>15.0</ns3:atemp>
            <ns3:hr>133</ns3:hr>
          </ns3:TrackPointExtension>
        </extensions>
      </trkpt>
      <trkpt lat="-22.05548110418021678924560546875" lon="166.44603048451244831085205078125">
        <ele>884.20001220703125</ele>
        <time>2016-08-12T19:11:37.000Z</time>
        <extensions>
          <ns3:TrackPointExtension>
            <ns3:atemp>15.0</ns3:atemp>
            <ns3:hr>133</ns3:hr>
          </ns3:TrackPointExtension>
        </extensions>
      </trkpt>
      <trkpt lat="-22.0554595626890659332275390625" lon="166.44603366963565349578857421875">
        <ele>884</ele>
        <time>2016-08-12T19:11:38.000Z</time>
        <extensions>
          <ns3:TrackPointExtension>
            <ns3:atemp>15.0</ns3:atemp>
            <ns3:hr>133</ns3:hr>
          </ns3:TrackPointExtension>
        </extensions>
      </trkpt>
      <trkpt lat="-22.05543936230242252349853515625" lon="166.4460412971675395965576171875">
        <ele>883.5999755859375</ele>
        <time>2016-08-12T19:11:39.000Z</time>
        <extensions>
          <ns3:TrackPointExtension>
            <ns3:atemp>15.0</ns3:atemp>
            <ns3:hr>133</ns3:hr>
          </ns3:TrackPointExtension>
        </extensions>
      </trkpt>
      <trkpt lat="-22.05542393960058689117431640625" lon="166.44605479203164577484130859375">
        <ele>884</ele>
        <time>2016-08-12T19:11:40.000Z</time>
        <extensions>
          <ns3:TrackPointExtension>
            <ns3:atemp>15.0</ns3:atemp>
            <ns3:hr>133</ns3:hr>
          </ns3:TrackPointExtension>
        </extensions>
      </trkpt>
      <trkpt lat="-22.0554037392139434814453125" lon="166.446060240268707275390625">
        <ele>884.20001220703125</ele>
        <time>2016-08-12T19:11:41.000Z</time>
        <extensions>
          <ns3:TrackPointExtension>
            <ns3:atemp>15.0</ns3:atemp>
            <ns3:hr>133</ns3:hr>
          </ns3:TrackPointExtension>
        </extensions>
      </trkpt>
      <trkpt lat="-22.0553795993328094482421875" lon="166.44606468267738819122314453125">
        <ele>884</ele>
        <time>2016-08-12T19:11:42.000Z</time>
        <extensions>
          <ns3:TrackPointExtension>
            <ns3:atemp>15.0</ns3:atemp>
            <ns3:hr>133</ns3:hr>
          </ns3:TrackPointExtension>
        </extensions>
      </trkpt>
      <trkpt lat="-22.05535939894616603851318359375" lon="166.44606904126703739166259765625">
        <ele>884</ele>
        <time>2016-08-12T19:11:43.000Z</time>
        <extensions>
          <ns3:TrackPointExtension>
            <ns3:atemp>15.0</ns3:atemp>
            <ns3:hr>133</ns3:hr>
          </ns3:TrackPointExtension>
        </extensions>
      </trkpt>
      <trkpt lat="-22.055341042578220367431640625" lon="166.44607138819992542266845703125">
        <ele>884.20001220703125</ele>
        <time>2016-08-12T19:11:44.000Z</time>
        <extensions>
          <ns3:TrackPointExtension>
            <ns3:atemp>15.0</ns3:atemp>
            <ns3:hr>133</ns3:hr>
          </ns3:TrackPointExtension>
        </extensions>
      </trkpt>
      <trkpt lat="-22.05531782470643520355224609375" lon="166.44607155583798885345458984375">
        <ele>884.20001220703125</ele>
        <time>2016-08-12T19:11:45.000Z</time>
        <extensions>
          <ns3:TrackPointExtension>
            <ns3:atemp>15.0</ns3:atemp>
            <ns3:hr>133</ns3:hr>
          </ns3:TrackPointExtension>
        </extensions>
      </trkpt>
      <trkpt lat="-22.05530139617621898651123046875" lon="166.4460801891982555389404296875">
        <ele>884.20001220703125</ele>
        <time>2016-08-12T19:11:46.000Z</time>
        <extensions>
          <ns3:TrackPointExtension>
            <ns3:atemp>15.0</ns3:atemp>
            <ns3:hr>133</ns3:hr>
          </ns3:TrackPointExtension>
        </extensions>
      </trkpt>
      <trkpt lat="-22.05528144724667072296142578125" lon="166.44608932547271251678466796875">
        <ele>884.20001220703125</ele>
        <time>2016-08-12T19:11:47.000Z</time>
        <extensions>
          <ns3:TrackPointExtension>
            <ns3:atemp>15.0</ns3:atemp>
            <ns3:hr>133</ns3:hr>
          </ns3:TrackPointExtension>
        </extensions>
      </trkpt>
      <trkpt lat="-22.05526233650743961334228515625" lon="166.44610005430877208709716796875">
        <ele>884.20001220703125</ele>
        <time>2016-08-12T19:11:48.000Z</time>
        <extensions>
          <ns3:TrackPointExtension>
            <ns3:atemp>15.0</ns3:atemp>
            <ns3:hr>132</ns3:hr>
          </ns3:TrackPointExtension>
        </extensions>
      </trkpt>
      <trkpt lat="-22.05524347722530364990234375" lon="166.44611363299190998077392578125">
        <ele>884.20001220703125</ele>
        <time>2016-08-12T19:11:49.000Z</time>
        <extensions>
          <ns3:TrackPointExtension>
            <ns3:atemp>15.0</ns3:atemp>
            <ns3:hr>132</ns3:hr>
          </ns3:TrackPointExtension>
        </extensions>
      </trkpt>
      <trkpt lat="-22.05522495321929454803466796875" lon="166.44613257609307765960693359375">
        <ele>884</ele>
        <time>2016-08-12T19:11:50.000Z</time>
        <extensions>
          <ns3:TrackPointExtension>
            <ns3:atemp>15.0</ns3:atemp>
            <ns3:hr>132</ns3:hr>
          </ns3:TrackPointExtension>
        </extensions>
      </trkpt>
      <trkpt lat="-22.05520651303231716156005859375" lon="166.4461552910506725311279296875">
        <ele>883.79998779296875</ele>
        <time>2016-08-12T19:11:51.000Z</time>
        <extensions>
          <ns3:TrackPointExtension>
            <ns3:atemp>15.0</ns3:atemp>
            <ns3:hr>132</ns3:hr>
          </ns3:TrackPointExtension>
        </extensions>
      </trkpt>
      <trkpt lat="-22.055193521082401275634765625" lon="166.44617515616118907928466796875">
        <ele>883.5999755859375</ele>
        <time>2016-08-12T19:11:52.000Z</time>
        <extensions>
          <ns3:TrackPointExtension>
            <ns3:atemp>15.0</ns3:atemp>
            <ns3:hr>132</ns3:hr>
          </ns3:TrackPointExtension>
        </extensions>
      </trkpt>
      <trkpt lat="-22.05518589355051517486572265625" lon="166.4461982063949108123779296875">
        <ele>883</ele>
        <time>2016-08-12T19:11:53.000Z</time>
        <extensions>
          <ns3:TrackPointExtension>
            <ns3:atemp>15.0</ns3:atemp>
            <ns3:hr>132</ns3:hr>
          </ns3:TrackPointExtension>
        </extensions>
      </trkpt>
      <trkpt lat="-22.05517776310443878173828125" lon="166.44622930325567722320556640625">
        <ele>882.79998779296875</ele>
        <time>2016-08-12T19:11:54.000Z</time>
        <extensions>
          <ns3:TrackPointExtension>
            <ns3:atemp>15.0</ns3:atemp>
            <ns3:hr>132</ns3:hr>
          </ns3:TrackPointExtension>
        </extensions>
      </trkpt>
      <trkpt lat="-22.05517239868640899658203125" lon="166.4462572149932384490966796875">
        <ele>882.5999755859375</ele>
        <time>2016-08-12T19:11:55.000Z</time>
        <extensions>
          <ns3:TrackPointExtension>
            <ns3:atemp>15.0</ns3:atemp>
            <ns3:hr>132</ns3:hr>
          </ns3:TrackPointExtension>
        </extensions>
      </trkpt>
      <trkpt lat="-22.0551705546677112579345703125" lon="166.44629233516752719879150390625">
        <ele>882.4000244140625</ele>
        <time>2016-08-12T19:11:56.000Z</time>
        <extensions>
          <ns3:TrackPointExtension>
            <ns3:atemp>15.0</ns3:atemp>
            <ns3:hr>131</ns3:hr>
          </ns3:TrackPointExtension>
        </extensions>
      </trkpt>
      <trkpt lat="-22.0551678724586963653564453125" lon="166.44632385112345218658447265625">
        <ele>882.20001220703125</ele>
        <time>2016-08-12T19:11:57.000Z</time>
        <extensions>
          <ns3:TrackPointExtension>
            <ns3:atemp>15.0</ns3:atemp>
            <ns3:hr>131</ns3:hr>
          </ns3:TrackPointExtension>
        </extensions>
      </trkpt>
      <trkpt lat="-22.05516594462096691131591796875" lon="166.44635184668004512786865234375">
        <ele>882</ele>
        <time>2016-08-12T19:11:58.000Z</time>
        <extensions>
          <ns3:TrackPointExtension>
            <ns3:atemp>15.0</ns3:atemp>
            <ns3:hr>131</ns3:hr>
          </ns3:TrackPointExtension>
        </extensions>
      </trkpt>
      <trkpt lat="-22.055165357887744903564453125" lon="166.4463816024363040924072265625">
        <ele>881.79998779296875</ele>
        <time>2016-08-12T19:11:59.000Z</time>
        <extensions>
          <ns3:TrackPointExtension>
            <ns3:atemp>15.0</ns3:atemp>
            <ns3:hr>131</ns3:hr>
          </ns3:TrackPointExtension>
        </extensions>
      </trkpt>
      <trkpt lat="-22.0551658608019351959228515625" lon="166.44641169346868991851806640625">
        <ele>881.5999755859375</ele>
        <time>2016-08-12T19:12:00.000Z</time>
        <extensions>
          <ns3:TrackPointExtension>
            <ns3:atemp>15.0</ns3:atemp>
            <ns3:hr>131</ns3:hr>
          </ns3:TrackPointExtension>
        </extensions>
      </trkpt>
      <trkpt lat="-22.05516644753515720367431640625" lon="166.44643901847302913665771484375">
        <ele>881.4000244140625</ele>
        <time>2016-08-12T19:12:01.000Z</time>
        <extensions>
          <ns3:TrackPointExtension>
            <ns3:atemp>15.0</ns3:atemp>
            <ns3:hr>132</ns3:hr>
          </ns3:TrackPointExtension>
        </extensions>
      </trkpt>
      <trkpt lat="-22.055171392858028411865234375" lon="166.446467600762844085693359375">
        <ele>881.20001220703125</ele>
        <time>2016-08-12T19:12:02.000Z</time>
        <extensions>
          <ns3:TrackPointExtension>
            <ns3:atemp>15.0</ns3:atemp>
            <ns3:hr>132</ns3:hr>
          </ns3:TrackPointExtension>
        </extensions>
      </trkpt>
      <trkpt lat="-22.0551806129515171051025390625" lon="166.44649668596684932708740234375">
        <ele>881.20001220703125</ele>
        <time>2016-08-12T19:12:03.000Z</time>
        <extensions>
          <ns3:TrackPointExtension>
            <ns3:atemp>15.0</ns3:atemp>
            <ns3:hr>132</ns3:hr>
          </ns3:TrackPointExtension>
        </extensions>
      </trkpt>
      <trkpt lat="-22.05519528128206729888916015625" lon="166.44651889801025390625">
        <ele>880.79998779296875</ele>
        <time>2016-08-12T19:12:04.000Z</time>
        <extensions>
          <ns3:TrackPointExtension>
            <ns3:atemp>15.0</ns3:atemp>
            <ns3:hr>132</ns3:hr>
          </ns3:TrackPointExtension>
        </extensions>
      </trkpt>
      <trkpt lat="-22.05521103926002979278564453125" lon="166.44654102623462677001953125">
        <ele>880.79998779296875</ele>
        <time>2016-08-12T19:12:05.000Z</time>
        <extensions>
          <ns3:TrackPointExtension>
            <ns3:atemp>15.0</ns3:atemp>
            <ns3:hr>132</ns3:hr>
          </ns3:TrackPointExtension>
        </extensions>
      </trkpt>
      <trkpt lat="-22.05523065291345119476318359375" lon="166.44655837677419185638427734375">
        <ele>880.79998779296875</ele>
        <time>2016-08-12T19:12:06.000Z</time>
        <extensions>
          <ns3:TrackPointExtension>
            <ns3:atemp>15.0</ns3:atemp>
            <ns3:hr>131</ns3:hr>
          </ns3:TrackPointExtension>
        </extensions>
      </trkpt>
      <trkpt lat="-22.0552506856620311737060546875" lon="166.4465740509331226348876953125">
        <ele>880.5999755859375</ele>
        <time>2016-08-12T19:12:07.000Z</time>
        <extensions>
          <ns3:TrackPointExtension>
            <ns3:atemp>15.0</ns3:atemp>
            <ns3:hr>131</ns3:hr>
          </ns3:TrackPointExtension>
        </extensions>
      </trkpt>
      <trkpt lat="-22.0552744902670383453369140625" lon="166.446586959064006805419921875">
        <ele>880.5999755859375</ele>
        <time>2016-08-12T19:12:08.000Z</time>
        <extensions>
          <ns3:TrackPointExtension>
            <ns3:atemp>15.0</ns3:atemp>
            <ns3:hr>131</ns3:hr>
          </ns3:TrackPointExtension>
        </extensions>
      </trkpt>
      <trkpt lat="-22.0553006418049335479736328125" lon="166.4465991966426372528076171875">
        <ele>880.4000244140625</ele>
        <time>2016-08-12T19:12:09.000Z</time>
        <extensions>
          <ns3:TrackPointExtension>
            <ns3:atemp>15.0</ns3:atemp>
            <ns3:hr>131</ns3:hr>
          </ns3:TrackPointExtension>
        </extensions>
      </trkpt>
      <trkpt lat="-22.055324614048004150390625" lon="166.4466119371354579925537109375">
        <ele>880</ele>
        <time>2016-08-12T19:12:10.000Z</time>
        <extensions>
          <ns3:TrackPointExtension>
            <ns3:atemp>15.0</ns3:atemp>
            <ns3:hr>131</ns3:hr>
          </ns3:TrackPointExtension>
        </extensions>
      </trkpt>
      <trkpt lat="-22.0553489215672016143798828125" lon="166.446623504161834716796875">
        <ele>880.20001220703125</ele>
        <time>2016-08-12T19:12:11.000Z</time>
        <extensions>
          <ns3:TrackPointExtension>
            <ns3:atemp>15.0</ns3:atemp>
            <ns3:hr>131</ns3:hr>
          </ns3:TrackPointExtension>
        </extensions>
      </trkpt>
      <trkpt lat="-22.055370546877384185791015625" lon="166.446639597415924072265625">
        <ele>880</ele>
        <time>2016-08-12T19:12:12.000Z</time>
        <extensions>
          <ns3:TrackPointExtension>
            <ns3:atemp>15.0</ns3:atemp>
            <ns3:hr>130</ns3:hr>
          </ns3:TrackPointExtension>
        </extensions>
      </trkpt>
      <trkpt lat="-22.0553921721875667572021484375" lon="166.44665158353745937347412109375">
        <ele>879.79998779296875</ele>
        <time>2016-08-12T19:12:13.000Z</time>
        <extensions>
          <ns3:TrackPointExtension>
            <ns3:atemp>15.0</ns3:atemp>
            <ns3:hr>130</ns3:hr>
          </ns3:TrackPointExtension>
        </extensions>
      </trkpt>
      <trkpt lat="-22.055413462221622467041015625" lon="166.44666600041091442108154296875">
        <ele>879.79998779296875</ele>
        <time>2016-08-12T19:12:14.000Z</time>
        <extensions>
          <ns3:TrackPointExtension>
            <ns3:atemp>15.0</ns3:atemp>
            <ns3:hr>130</ns3:hr>
          </ns3:TrackPointExtension>
        </extensions>
      </trkpt>
      <trkpt lat="-22.05543391406536102294921875" lon="166.44668544642627239227294921875">
        <ele>879.79998779296875</ele>
        <time>2016-08-12T19:12:15.000Z</time>
        <extensions>
          <ns3:TrackPointExtension>
            <ns3:atemp>15.0</ns3:atemp>
            <ns3:hr>130</ns3:hr>
          </ns3:TrackPointExtension>
        </extensions>
      </trkpt>
      <trkpt lat="-22.05545268952846527099609375" lon="166.44670522771775722503662109375">
        <ele>879.5999755859375</ele>
        <time>2016-08-12T19:12:16.000Z</time>
        <extensions>
          <ns3:TrackPointExtension>
            <ns3:atemp>15.0</ns3:atemp>
            <ns3:hr>129</ns3:hr>
          </ns3:TrackPointExtension>
        </extensions>
      </trkpt>
      <trkpt lat="-22.0554702915251255035400390625" lon="166.44672567956149578094482421875">
        <ele>879.4000244140625</ele>
        <time>2016-08-12T19:12:17.000Z</time>
        <extensions>
          <ns3:TrackPointExtension>
            <ns3:atemp>15.0</ns3:atemp>
            <ns3:hr>129</ns3:hr>
          </ns3:TrackPointExtension>
        </extensions>
      </trkpt>
      <trkpt lat="-22.05548445694148540496826171875" lon="166.4467470534145832061767578125">
        <ele>879.4000244140625</ele>
        <time>2016-08-12T19:12:18.000Z</time>
        <extensions>
          <ns3:TrackPointExtension>
            <ns3:atemp>15.0</ns3:atemp>
            <ns3:hr>129</ns3:hr>
          </ns3:TrackPointExtension>
        </extensions>
      </trkpt>
      <trkpt lat="-22.05550004728138446807861328125" lon="166.4467638172209262847900390625">
        <ele>879.20001220703125</ele>
        <time>2016-08-12T19:12:19.000Z</time>
        <extensions>
          <ns3:TrackPointExtension>
            <ns3:atemp>15.0</ns3:atemp>
            <ns3:hr>129</ns3:hr>
          </ns3:TrackPointExtension>
        </extensions>
      </trkpt>
      <trkpt lat="-22.0555175654590129852294921875" lon="166.4467812515795230865478515625">
        <ele>879</ele>
        <time>2016-08-12T19:12:20.000Z</time>
        <extensions>
          <ns3:TrackPointExtension>
            <ns3:atemp>15.0</ns3:atemp>
            <ns3:hr>128</ns3:hr>
          </ns3:TrackPointExtension>
        </extensions>
      </trkpt>
      <trkpt lat="-22.0555319823324680328369140625" lon="166.44680078141391277313232421875">
        <ele>879</ele>
        <time>2016-08-12T19:12:21.000Z</time>
        <extensions>
          <ns3:TrackPointExtension>
            <ns3:atemp>15.0</ns3:atemp>
            <ns3:hr>128</ns3:hr>
          </ns3:TrackPointExtension>
        </extensions>
      </trkpt>
      <trkpt lat="-22.055544219911098480224609375" lon="166.44682374782860279083251953125">
        <ele>878.79998779296875</ele>
        <time>2016-08-12T19:12:22.000Z</time>
        <extensions>
          <ns3:TrackPointExtension>
            <ns3:atemp>15.0</ns3:atemp>
            <ns3:hr>128</ns3:hr>
          </ns3:TrackPointExtension>
        </extensions>
      </trkpt>
      <trkpt lat="-22.05555838532745838165283203125" lon="166.44684637896716594696044921875">
        <ele>878.4000244140625</ele>
        <time>2016-08-12T19:12:23.000Z</time>
        <extensions>
          <ns3:TrackPointExtension>
            <ns3:atemp>15.0</ns3:atemp>
            <ns3:hr>127</ns3:hr>
          </ns3:TrackPointExtension>
        </extensions>
      </trkpt>
      <trkpt lat="-22.0555695332586765289306640625" lon="166.4468704350292682647705078125">
        <ele>878.4000244140625</ele>
        <time>2016-08-12T19:12:24.000Z</time>
        <extensions>
          <ns3:TrackPointExtension>
            <ns3:atemp>15.0</ns3:atemp>
            <ns3:hr>127</ns3:hr>
          </ns3:TrackPointExtension>
        </extensions>
      </trkpt>
      <trkpt lat="-22.05557950772345066070556640625" lon="166.44689516164362430572509765625">
        <ele>878.4000244140625</ele>
        <time>2016-08-12T19:12:25.000Z</time>
        <extensions>
          <ns3:TrackPointExtension>
            <ns3:atemp>15.0</ns3:atemp>
            <ns3:hr>127</ns3:hr>
          </ns3:TrackPointExtension>
        </extensions>
      </trkpt>
      <trkpt lat="-22.05559090711176395416259765625" lon="166.446919552981853485107421875">
        <ele>878.20001220703125</ele>
        <time>2016-08-12T19:12:26.000Z</time>
        <extensions>
          <ns3:TrackPointExtension>
            <ns3:atemp>15.0</ns3:atemp>
            <ns3:hr>127</ns3:hr>
          </ns3:TrackPointExtension>
        </extensions>
      </trkpt>
      <trkpt lat="-22.05560498870909214019775390625" lon="166.44694042392075061798095703125">
        <ele>878</ele>
        <time>2016-08-12T19:12:27.000Z</time>
        <extensions>
          <ns3:TrackPointExtension>
            <ns3:atemp>15.0</ns3:atemp>
            <ns3:hr>127</ns3:hr>
          </ns3:TrackPointExtension>
        </extensions>
      </trkpt>
      <trkpt lat="-22.0556168071925640106201171875" lon="166.44696489907801151275634765625">
        <ele>878.4000244140625</ele>
        <time>2016-08-12T19:12:28.000Z</time>
        <extensions>
          <ns3:TrackPointExtension>
            <ns3:atemp>15.0</ns3:atemp>
            <ns3:hr>127</ns3:hr>
          </ns3:TrackPointExtension>
        </extensions>
      </trkpt>
      <trkpt lat="-22.05562569200992584228515625" lon="166.44698903895914554595947265625">
        <ele>878.4000244140625</ele>
        <time>2016-08-12T19:12:29.000Z</time>
        <extensions>
          <ns3:TrackPointExtension>
            <ns3:atemp>15.0</ns3:atemp>
            <ns3:hr>127</ns3:hr>
          </ns3:TrackPointExtension>
        </extensions>
      </trkpt>
      <trkpt lat="-22.05563449300825595855712890625" lon="166.44701250828802585601806640625">
        <ele>877.79998779296875</ele>
        <time>2016-08-12T19:12:30.000Z</time>
        <extensions>
          <ns3:TrackPointExtension>
            <ns3:atemp>15.0</ns3:atemp>
            <ns3:hr>127</ns3:hr>
          </ns3:TrackPointExtension>
        </extensions>
      </trkpt>
      <trkpt lat="-22.055642791092395782470703125" lon="166.4470414258539676666259765625">
        <ele>877.5999755859375</ele>
        <time>2016-08-12T19:12:31.000Z</time>
        <extensions>
          <ns3:TrackPointExtension>
            <ns3:atemp>15.0</ns3:atemp>
            <ns3:hr>127</ns3:hr>
          </ns3:TrackPointExtension>
        </extensions>
      </trkpt>
      <trkpt lat="-22.05565108917653560638427734375" lon="166.44706497900187969207763671875">
        <ele>877.4000244140625</ele>
        <time>2016-08-12T19:12:32.000Z</time>
        <extensions>
          <ns3:TrackPointExtension>
            <ns3:atemp>15.0</ns3:atemp>
            <ns3:hr>127</ns3:hr>
          </ns3:TrackPointExtension>
        </extensions>
      </trkpt>
      <trkpt lat="-22.0556583814322948455810546875" lon="166.44708928652107715606689453125">
        <ele>877</ele>
        <time>2016-08-12T19:12:33.000Z</time>
        <extensions>
          <ns3:TrackPointExtension>
            <ns3:atemp>15.0</ns3:atemp>
            <ns3:hr>127</ns3:hr>
          </ns3:TrackPointExtension>
        </extensions>
      </trkpt>
      <trkpt lat="-22.055663578212261199951171875" lon="166.4471210539340972900390625">
        <ele>877</ele>
        <time>2016-08-12T19:12:34.000Z</time>
        <extensions>
          <ns3:TrackPointExtension>
            <ns3:atemp>15.0</ns3:atemp>
            <ns3:hr>126</ns3:hr>
          </ns3:TrackPointExtension>
        </extensions>
      </trkpt>
      <trkpt lat="-22.055666930973529815673828125" lon="166.447148881852626800537109375">
        <ele>876.79998779296875</ele>
        <time>2016-08-12T19:12:35.000Z</time>
        <extensions>
          <ns3:TrackPointExtension>
            <ns3:atemp>15.0</ns3:atemp>
            <ns3:hr>126</ns3:hr>
          </ns3:TrackPointExtension>
        </extensions>
      </trkpt>
      <trkpt lat="-22.05566802062094211578369140625" lon="166.447175703942775726318359375">
        <ele>876.5999755859375</ele>
        <time>2016-08-12T19:12:36.000Z</time>
        <extensions>
          <ns3:TrackPointExtension>
            <ns3:atemp>15.0</ns3:atemp>
            <ns3:hr>126</ns3:hr>
          </ns3:TrackPointExtension>
        </extensions>
      </trkpt>
      <trkpt lat="-22.05566919408738613128662109375" lon="166.4472042024135589599609375">
        <ele>876.4000244140625</ele>
        <time>2016-08-12T19:12:37.000Z</time>
        <extensions>
          <ns3:TrackPointExtension>
            <ns3:atemp>15.0</ns3:atemp>
            <ns3:hr>126</ns3:hr>
          </ns3:TrackPointExtension>
        </extensions>
      </trkpt>
      <trkpt lat="-22.05567439086735248565673828125" lon="166.44722859375178813934326171875">
        <ele>876.20001220703125</ele>
        <time>2016-08-12T19:12:38.000Z</time>
        <extensions>
          <ns3:TrackPointExtension>
            <ns3:atemp>15.0</ns3:atemp>
            <ns3:hr>125</ns3:hr>
          </ns3:TrackPointExtension>
        </extensions>
      </trkpt>
      <trkpt lat="-22.05567841418087482452392578125" lon="166.447257511317729949951171875">
        <ele>876</ele>
        <time>2016-08-12T19:12:39.000Z</time>
        <extensions>
          <ns3:TrackPointExtension>
            <ns3:atemp>15.0</ns3:atemp>
            <ns3:hr>125</ns3:hr>
          </ns3:TrackPointExtension>
        </extensions>
      </trkpt>
      <trkpt lat="-22.055684365332126617431640625" lon="166.44727486185729503631591796875">
        <ele>876</ele>
        <time>2016-08-12T19:12:40.000Z</time>
        <extensions>
          <ns3:TrackPointExtension>
            <ns3:atemp>15.0</ns3:atemp>
            <ns3:hr>125</ns3:hr>
          </ns3:TrackPointExtension>
        </extensions>
      </trkpt>
      <trkpt lat="-22.05568478442728519439697265625" lon="166.44729296676814556121826171875">
        <ele>876</ele>
        <time>2016-08-12T19:12:41.000Z</time>
        <extensions>
          <ns3:TrackPointExtension>
            <ns3:atemp>15.0</ns3:atemp>
            <ns3:hr>125</ns3:hr>
          </ns3:TrackPointExtension>
        </extensions>
      </trkpt>
      <trkpt lat="-22.05568444915115833282470703125" lon="166.44731811247766017913818359375">
        <ele>875.79998779296875</ele>
        <time>2016-08-12T19:12:42.000Z</time>
        <extensions>
          <ns3:TrackPointExtension>
            <ns3:atemp>15.0</ns3:atemp>
            <ns3:hr>125</ns3:hr>
          </ns3:TrackPointExtension>
        </extensions>
      </trkpt>
      <trkpt lat="-22.05568176694214344024658203125" lon="166.44734300673007965087890625">
        <ele>875.5999755859375</ele>
        <time>2016-08-12T19:12:43.000Z</time>
        <extensions>
          <ns3:TrackPointExtension>
            <ns3:atemp>15.0</ns3:atemp>
            <ns3:hr>124</ns3:hr>
          </ns3:TrackPointExtension>
        </extensions>
      </trkpt>
      <trkpt lat="-22.05567933619022369384765625" lon="166.4473651349544525146484375">
        <ele>875.5999755859375</ele>
        <time>2016-08-12T19:12:44.000Z</time>
        <extensions>
          <ns3:TrackPointExtension>
            <ns3:atemp>15.0</ns3:atemp>
            <ns3:hr>124</ns3:hr>
          </ns3:TrackPointExtension>
        </extensions>
      </trkpt>
      <trkpt lat="-22.0556748099625110626220703125" lon="166.4473865926265716552734375">
        <ele>875.20001220703125</ele>
        <time>2016-08-12T19:12:45.000Z</time>
        <extensions>
          <ns3:TrackPointExtension>
            <ns3:atemp>15.0</ns3:atemp>
            <ns3:hr>123</ns3:hr>
          </ns3:TrackPointExtension>
        </extensions>
      </trkpt>
      <trkpt lat="-22.05566684715449810028076171875" lon="166.44741148687899112701416015625">
        <ele>875</ele>
        <time>2016-08-12T19:12:46.000Z</time>
        <extensions>
          <ns3:TrackPointExtension>
            <ns3:atemp>15.0</ns3:atemp>
            <ns3:hr>123</ns3:hr>
          </ns3:TrackPointExtension>
        </extensions>
      </trkpt>
      <trkpt lat="-22.0556593872606754302978515625" lon="166.44743193872272968292236328125">
        <ele>875</ele>
        <time>2016-08-12T19:12:47.000Z</time>
        <extensions>
          <ns3:TrackPointExtension>
            <ns3:atemp>15.0</ns3:atemp>
            <ns3:hr>123</ns3:hr>
          </ns3:TrackPointExtension>
        </extensions>
      </trkpt>
      <trkpt lat="-22.0556489937007427215576171875" lon="166.44745456986129283905029296875">
        <ele>874.79998779296875</ele>
        <time>2016-08-12T19:12:48.000Z</time>
        <extensions>
          <ns3:TrackPointExtension>
            <ns3:atemp>15.0</ns3:atemp>
            <ns3:hr>123</ns3:hr>
          </ns3:TrackPointExtension>
        </extensions>
      </trkpt>
      <trkpt lat="-22.0556375943124294281005859375" lon="166.44747736863791942596435546875">
        <ele>874.4000244140625</ele>
        <time>2016-08-12T19:12:49.000Z</time>
        <extensions>
          <ns3:TrackPointExtension>
            <ns3:atemp>15.0</ns3:atemp>
            <ns3:hr>123</ns3:hr>
          </ns3:TrackPointExtension>
        </extensions>
      </trkpt>
      <trkpt lat="-22.0556272007524967193603515625" lon="166.44749647937715053558349609375">
        <ele>874.20001220703125</ele>
        <time>2016-08-12T19:12:50.000Z</time>
        <extensions>
          <ns3:TrackPointExtension>
            <ns3:atemp>15.0</ns3:atemp>
            <ns3:hr>123</ns3:hr>
          </ns3:TrackPointExtension>
        </extensions>
      </trkpt>
      <trkpt lat="-22.0556184835731983184814453125" lon="166.4475195296108722686767578125">
        <ele>874.20001220703125</ele>
        <time>2016-08-12T19:12:51.000Z</time>
        <extensions>
          <ns3:TrackPointExtension>
            <ns3:atemp>15.0</ns3:atemp>
            <ns3:hr>123</ns3:hr>
          </ns3:TrackPointExtension>
        </extensions>
      </trkpt>
      <trkpt lat="-22.0556102693080902099609375" lon="166.44754350185394287109375">
        <ele>874</ele>
        <time>2016-08-12T19:12:52.000Z</time>
        <extensions>
          <ns3:TrackPointExtension>
            <ns3:atemp>15.0</ns3:atemp>
            <ns3:hr>123</ns3:hr>
          </ns3:TrackPointExtension>
        </extensions>
      </trkpt>
      <trkpt lat="-22.05560163594782352447509765625" lon="166.4475654624402523040771484375">
        <ele>874.20001220703125</ele>
        <time>2016-08-12T19:12:53.000Z</time>
        <extensions>
          <ns3:TrackPointExtension>
            <ns3:atemp>15.0</ns3:atemp>
            <ns3:hr>123</ns3:hr>
          </ns3:TrackPointExtension>
        </extensions>
      </trkpt>
      <trkpt lat="-22.05559425987303256988525390625" lon="166.44759220071136951446533203125">
        <ele>874</ele>
        <time>2016-08-12T19:12:54.000Z</time>
        <extensions>
          <ns3:TrackPointExtension>
            <ns3:atemp>15.0</ns3:atemp>
            <ns3:hr>123</ns3:hr>
          </ns3:TrackPointExtension>
        </extensions>
      </trkpt>
      <trkpt lat="-22.05558788962662220001220703125" lon="166.44761390984058380126953125">
        <ele>873.79998779296875</ele>
        <time>2016-08-12T19:12:55.000Z</time>
        <extensions>
          <ns3:TrackPointExtension>
            <ns3:atemp>15.0</ns3:atemp>
            <ns3:hr>123</ns3:hr>
          </ns3:TrackPointExtension>
        </extensions>
      </trkpt>
      <trkpt lat="-22.05558411777019500732421875" lon="166.44764115102589130401611328125">
        <ele>873.79998779296875</ele>
        <time>2016-08-12T19:12:56.000Z</time>
        <extensions>
          <ns3:TrackPointExtension>
            <ns3:atemp>15.0</ns3:atemp>
            <ns3:hr>123</ns3:hr>
          </ns3:TrackPointExtension>
        </extensions>
      </trkpt>
      <trkpt lat="-22.05558135174214839935302734375" lon="166.44766897894442081451416015625">
        <ele>873.5999755859375</ele>
        <time>2016-08-12T19:12:57.000Z</time>
        <extensions>
          <ns3:TrackPointExtension>
            <ns3:atemp>15.0</ns3:atemp>
            <ns3:hr>123</ns3:hr>
          </ns3:TrackPointExtension>
        </extensions>
      </trkpt>
      <trkpt lat="-22.0555775798857212066650390625" lon="166.44769429229199886322021484375">
        <ele>873.4000244140625</ele>
        <time>2016-08-12T19:12:58.000Z</time>
        <extensions>
          <ns3:TrackPointExtension>
            <ns3:atemp>15.0</ns3:atemp>
            <ns3:hr>123</ns3:hr>
          </ns3:TrackPointExtension>
        </extensions>
      </trkpt>
      <trkpt lat="-22.0555765740573406219482421875" lon="166.44772144965827465057373046875">
        <ele>873.4000244140625</ele>
        <time>2016-08-12T19:12:59.000Z</time>
        <extensions>
          <ns3:TrackPointExtension>
            <ns3:atemp>15.0</ns3:atemp>
            <ns3:hr>123</ns3:hr>
          </ns3:TrackPointExtension>
        </extensions>
      </trkpt>
      <trkpt lat="-22.055576741695404052734375" lon="166.447749696671962738037109375">
        <ele>873.4000244140625</ele>
        <time>2016-08-12T19:13:00.000Z</time>
        <extensions>
          <ns3:TrackPointExtension>
            <ns3:atemp>15.0</ns3:atemp>
            <ns3:hr>122</ns3:hr>
          </ns3:TrackPointExtension>
        </extensions>
      </trkpt>
      <trkpt lat="-22.05557196401059627532958984375" lon="166.44777593202888965606689453125">
        <ele>873</ele>
        <time>2016-08-12T19:13:01.000Z</time>
        <extensions>
          <ns3:TrackPointExtension>
            <ns3:atemp>15.0</ns3:atemp>
            <ns3:hr>122</ns3:hr>
          </ns3:TrackPointExtension>
        </extensions>
      </trkpt>
      <trkpt lat="-22.055568359792232513427734375" lon="166.44780342467129230499267578125">
        <ele>873</ele>
        <time>2016-08-12T19:13:02.000Z</time>
        <extensions>
          <ns3:TrackPointExtension>
            <ns3:atemp>15.0</ns3:atemp>
            <ns3:hr>122</ns3:hr>
          </ns3:TrackPointExtension>
        </extensions>
      </trkpt>
      <trkpt lat="-22.05556609667837619781494140625" lon="166.447824127972126007080078125">
        <ele>873</ele>
        <time>2016-08-12T19:13:03.000Z</time>
        <extensions>
          <ns3:TrackPointExtension>
            <ns3:atemp>15.0</ns3:atemp>
            <ns3:hr>122</ns3:hr>
          </ns3:TrackPointExtension>
        </extensions>
      </trkpt>
      <trkpt lat="-22.05556089989840984344482421875" lon="166.44784868694841861724853515625">
        <ele>872.79998779296875</ele>
        <time>2016-08-12T19:13:04.000Z</time>
        <extensions>
          <ns3:TrackPointExtension>
            <ns3:atemp>15.0</ns3:atemp>
            <ns3:hr>122</ns3:hr>
          </ns3:TrackPointExtension>
        </extensions>
      </trkpt>
      <trkpt lat="-22.05555922351777553558349609375" lon="166.4478806219995021820068359375">
        <ele>872.5999755859375</ele>
        <time>2016-08-12T19:13:05.000Z</time>
        <extensions>
          <ns3:TrackPointExtension>
            <ns3:atemp>15.0</ns3:atemp>
            <ns3:hr>122</ns3:hr>
          </ns3:TrackPointExtension>
        </extensions>
      </trkpt>
      <trkpt lat="-22.05555737949907779693603515625" lon="166.44790886901319026947021484375">
        <ele>872.5999755859375</ele>
        <time>2016-08-12T19:13:06.000Z</time>
        <extensions>
          <ns3:TrackPointExtension>
            <ns3:atemp>15.0</ns3:atemp>
            <ns3:hr>122</ns3:hr>
          </ns3:TrackPointExtension>
        </extensions>
      </trkpt>
      <trkpt lat="-22.05555553548038005828857421875" lon="166.44794021733105182647705078125">
        <ele>872.4000244140625</ele>
        <time>2016-08-12T19:13:07.000Z</time>
        <extensions>
          <ns3:TrackPointExtension>
            <ns3:atemp>15.0</ns3:atemp>
            <ns3:hr>122</ns3:hr>
          </ns3:TrackPointExtension>
        </extensions>
      </trkpt>
      <trkpt lat="-22.05555863678455352783203125" lon="166.4479714818298816680908203125">
        <ele>872.20001220703125</ele>
        <time>2016-08-12T19:13:08.000Z</time>
        <extensions>
          <ns3:TrackPointExtension>
            <ns3:atemp>15.0</ns3:atemp>
            <ns3:hr>121</ns3:hr>
          </ns3:TrackPointExtension>
        </extensions>
      </trkpt>
      <trkpt lat="-22.0555618219077587127685546875" lon="166.4479972980916500091552734375">
        <ele>872.20001220703125</ele>
        <time>2016-08-12T19:13:09.000Z</time>
        <extensions>
          <ns3:TrackPointExtension>
            <ns3:atemp>15.0</ns3:atemp>
            <ns3:hr>122</ns3:hr>
          </ns3:TrackPointExtension>
        </extensions>
      </trkpt>
      <trkpt lat="-22.05556710250675678253173828125" lon="166.44802772440016269683837890625">
        <ele>872</ele>
        <time>2016-08-12T19:13:10.000Z</time>
        <extensions>
          <ns3:TrackPointExtension>
            <ns3:atemp>15.0</ns3:atemp>
            <ns3:hr>121</ns3:hr>
          </ns3:TrackPointExtension>
        </extensions>
      </trkpt>
      <trkpt lat="-22.05557179637253284454345703125" lon="166.4480598270893096923828125">
        <ele>872</ele>
        <time>2016-08-12T19:13:11.000Z</time>
        <extensions>
          <ns3:TrackPointExtension>
            <ns3:atemp>15.0</ns3:atemp>
            <ns3:hr>121</ns3:hr>
          </ns3:TrackPointExtension>
        </extensions>
      </trkpt>
      <trkpt lat="-22.05557699315249919891357421875" lon="166.44808673299849033355712890625">
        <ele>871.79998779296875</ele>
        <time>2016-08-12T19:13:12.000Z</time>
        <extensions>
          <ns3:TrackPointExtension>
            <ns3:atemp>15.0</ns3:atemp>
            <ns3:hr>122</ns3:hr>
          </ns3:TrackPointExtension>
        </extensions>
      </trkpt>
      <trkpt lat="-22.05558118410408496856689453125" lon="166.44811925478279590606689453125">
        <ele>871.79998779296875</ele>
        <time>2016-08-12T19:13:13.000Z</time>
        <extensions>
          <ns3:TrackPointExtension>
            <ns3:atemp>15.0</ns3:atemp>
            <ns3:hr>122</ns3:hr>
          </ns3:TrackPointExtension>
        </extensions>
      </trkpt>
      <trkpt lat="-22.05558353103697299957275390625" lon="166.44815110601484775543212890625">
        <ele>871.5999755859375</ele>
        <time>2016-08-12T19:13:14.000Z</time>
        <extensions>
          <ns3:TrackPointExtension>
            <ns3:atemp>15.0</ns3:atemp>
            <ns3:hr>121</ns3:hr>
          </ns3:TrackPointExtension>
        </extensions>
      </trkpt>
      <trkpt lat="-22.0555856265127658843994140625" lon="166.44817993976175785064697265625">
        <ele>871.4000244140625</ele>
        <time>2016-08-12T19:13:15.000Z</time>
        <extensions>
          <ns3:TrackPointExtension>
            <ns3:atemp>15.0</ns3:atemp>
            <ns3:hr>122</ns3:hr>
          </ns3:TrackPointExtension>
        </extensions>
      </trkpt>
      <trkpt lat="-22.0555869676172733306884765625" lon="166.4482085220515727996826171875">
        <ele>871.4000244140625</ele>
        <time>2016-08-12T19:13:16.000Z</time>
        <extensions>
          <ns3:TrackPointExtension>
            <ns3:atemp>15.0</ns3:atemp>
            <ns3:hr>122</ns3:hr>
          </ns3:TrackPointExtension>
        </extensions>
      </trkpt>
      <trkpt lat="-22.05558688379824161529541015625" lon="166.4482360146939754486083984375">
        <ele>871</ele>
        <time>2016-08-12T19:13:17.000Z</time>
        <extensions>
          <ns3:TrackPointExtension>
            <ns3:atemp>15.0</ns3:atemp>
            <ns3:hr>121</ns3:hr>
          </ns3:TrackPointExtension>
        </extensions>
      </trkpt>
      <trkpt lat="-22.05558814108371734619140625" lon="166.44825839437544345855712890625">
        <ele>870.79998779296875</ele>
        <time>2016-08-12T19:13:18.000Z</time>
        <extensions>
          <ns3:TrackPointExtension>
            <ns3:atemp>15.0</ns3:atemp>
            <ns3:hr>122</ns3:hr>
          </ns3:TrackPointExtension>
        </extensions>
      </trkpt>
      <trkpt lat="-22.05559073947370052337646484375" lon="166.448289491236209869384765625">
        <ele>870.5999755859375</ele>
        <time>2016-08-12T19:13:19.000Z</time>
        <extensions>
          <ns3:TrackPointExtension>
            <ns3:atemp>15.0</ns3:atemp>
            <ns3:hr>122</ns3:hr>
          </ns3:TrackPointExtension>
        </extensions>
      </trkpt>
      <trkpt lat="-22.05558856017887592315673828125" lon="166.448313295841217041015625">
        <ele>870.4000244140625</ele>
        <time>2016-08-12T19:13:20.000Z</time>
        <extensions>
          <ns3:TrackPointExtension>
            <ns3:atemp>15.0</ns3:atemp>
            <ns3:hr>122</ns3:hr>
          </ns3:TrackPointExtension>
        </extensions>
      </trkpt>
      <trkpt lat="-22.0555873028934001922607421875" lon="166.448335759341716766357421875">
        <ele>870.4000244140625</ele>
        <time>2016-08-12T19:13:21.000Z</time>
        <extensions>
          <ns3:TrackPointExtension>
            <ns3:atemp>15.0</ns3:atemp>
            <ns3:hr>122</ns3:hr>
          </ns3:TrackPointExtension>
        </extensions>
      </trkpt>
      <trkpt lat="-22.0555846206843852996826171875" lon="166.4483600668609142303466796875">
        <ele>870.20001220703125</ele>
        <time>2016-08-12T19:13:22.000Z</time>
        <extensions>
          <ns3:TrackPointExtension>
            <ns3:atemp>15.0</ns3:atemp>
            <ns3:hr>122</ns3:hr>
          </ns3:TrackPointExtension>
        </extensions>
      </trkpt>
      <trkpt lat="-22.05557716079056262969970703125" lon="166.44838102161884307861328125">
        <ele>870</ele>
        <time>2016-08-12T19:13:23.000Z</time>
        <extensions>
          <ns3:TrackPointExtension>
            <ns3:atemp>15.0</ns3:atemp>
            <ns3:hr>123</ns3:hr>
          </ns3:TrackPointExtension>
        </extensions>
      </trkpt>
      <trkpt lat="-22.05556609667837619781494140625" lon="166.44840189255774021148681640625">
        <ele>869.79998779296875</ele>
        <time>2016-08-12T19:13:24.000Z</time>
        <extensions>
          <ns3:TrackPointExtension>
            <ns3:atemp>15.0</ns3:atemp>
            <ns3:hr>122</ns3:hr>
          </ns3:TrackPointExtension>
        </extensions>
      </trkpt>
      <trkpt lat="-22.05555729568004608154296875" lon="166.44841999746859073638916015625">
        <ele>869.79998779296875</ele>
        <time>2016-08-12T19:13:25.000Z</time>
        <extensions>
          <ns3:TrackPointExtension>
            <ns3:atemp>15.0</ns3:atemp>
            <ns3:hr>123</ns3:hr>
          </ns3:TrackPointExtension>
        </extensions>
      </trkpt>
      <trkpt lat="-22.0555460639297962188720703125" lon="166.44843927584588527679443359375">
        <ele>869.79998779296875</ele>
        <time>2016-08-12T19:13:26.000Z</time>
        <extensions>
          <ns3:TrackPointExtension>
            <ns3:atemp>15.0</ns3:atemp>
            <ns3:hr>123</ns3:hr>
          </ns3:TrackPointExtension>
        </extensions>
      </trkpt>
      <trkpt lat="-22.05553323961794376373291015625" lon="166.44846240989863872528076171875">
        <ele>869.4000244140625</ele>
        <time>2016-08-12T19:13:27.000Z</time>
        <extensions>
          <ns3:TrackPointExtension>
            <ns3:atemp>15.0</ns3:atemp>
            <ns3:hr>122</ns3:hr>
          </ns3:TrackPointExtension>
        </extensions>
      </trkpt>
      <trkpt lat="-22.055522091686725616455078125" lon="166.44848152063786983489990234375">
        <ele>869.4000244140625</ele>
        <time>2016-08-12T19:13:28.000Z</time>
        <extensions>
          <ns3:TrackPointExtension>
            <ns3:atemp>15.0</ns3:atemp>
            <ns3:hr>123</ns3:hr>
          </ns3:TrackPointExtension>
        </extensions>
      </trkpt>
      <trkpt lat="-22.0555108599364757537841796875" lon="166.44849996082484722137451171875">
        <ele>869.4000244140625</ele>
        <time>2016-08-12T19:13:29.000Z</time>
        <extensions>
          <ns3:TrackPointExtension>
            <ns3:atemp>15.0</ns3:atemp>
            <ns3:hr>123</ns3:hr>
          </ns3:TrackPointExtension>
        </extensions>
      </trkpt>
      <trkpt lat="-22.05549828708171844482421875" lon="166.4485233463346958160400390625">
        <ele>869.20001220703125</ele>
        <time>2016-08-12T19:13:30.000Z</time>
        <extensions>
          <ns3:TrackPointExtension>
            <ns3:atemp>15.0</ns3:atemp>
            <ns3:hr>123</ns3:hr>
          </ns3:TrackPointExtension>
        </extensions>
      </trkpt>
      <trkpt lat="-22.05548881553113460540771484375" lon="166.44854329526424407958984375">
        <ele>869.20001220703125</ele>
        <time>2016-08-12T19:13:31.000Z</time>
        <extensions>
          <ns3:TrackPointExtension>
            <ns3:atemp>15.0</ns3:atemp>
            <ns3:hr>123</ns3:hr>
          </ns3:TrackPointExtension>
        </extensions>
      </trkpt>
      <trkpt lat="-22.055477164685726165771484375" lon="166.448561735451221466064453125">
        <ele>869.20001220703125</ele>
        <time>2016-08-12T19:13:32.000Z</time>
        <extensions>
          <ns3:TrackPointExtension>
            <ns3:atemp>15.0</ns3:atemp>
            <ns3:hr>123</ns3:hr>
          </ns3:TrackPointExtension>
        </extensions>
      </trkpt>
      <trkpt lat="-22.0554629154503345489501953125" lon="166.44858528859913349151611328125">
        <ele>868.79998779296875</ele>
        <time>2016-08-12T19:13:33.000Z</time>
        <extensions>
          <ns3:TrackPointExtension>
            <ns3:atemp>15.0</ns3:atemp>
            <ns3:hr>123</ns3:hr>
          </ns3:TrackPointExtension>
        </extensions>
      </trkpt>
      <trkpt lat="-22.0554501749575138092041015625" lon="166.44860875792801380157470703125">
        <ele>868.5999755859375</ele>
        <time>2016-08-12T19:13:34.000Z</time>
        <extensions>
          <ns3:TrackPointExtension>
            <ns3:atemp>15.0</ns3:atemp>
            <ns3:hr>123</ns3:hr>
          </ns3:TrackPointExtension>
        </extensions>
      </trkpt>
      <trkpt lat="-22.05543994903564453125" lon="166.44863071851432323455810546875">
        <ele>868.5999755859375</ele>
        <time>2016-08-12T19:13:35.000Z</time>
        <extensions>
          <ns3:TrackPointExtension>
            <ns3:atemp>15.0</ns3:atemp>
            <ns3:hr>123</ns3:hr>
          </ns3:TrackPointExtension>
        </extensions>
      </trkpt>
      <trkpt lat="-22.05542930401861667633056640625" lon="166.44865351729094982147216796875">
        <ele>868.5999755859375</ele>
        <time>2016-08-12T19:13:36.000Z</time>
        <extensions>
          <ns3:TrackPointExtension>
            <ns3:atemp>15.0</ns3:atemp>
            <ns3:hr>124</ns3:hr>
          </ns3:TrackPointExtension>
        </extensions>
      </trkpt>
      <trkpt lat="-22.05541773699223995208740234375" lon="166.4486742205917835235595703125">
        <ele>868.20001220703125</ele>
        <time>2016-08-12T19:13:37.000Z</time>
        <extensions>
          <ns3:TrackPointExtension>
            <ns3:atemp>15.0</ns3:atemp>
            <ns3:hr>124</ns3:hr>
          </ns3:TrackPointExtension>
        </extensions>
      </trkpt>
      <trkpt lat="-22.0554052479565143585205078125" lon="166.4486966840922832489013671875">
        <ele>868</ele>
        <time>2016-08-12T19:13:38.000Z</time>
        <extensions>
          <ns3:TrackPointExtension>
            <ns3:atemp>15.0</ns3:atemp>
            <ns3:hr>123</ns3:hr>
          </ns3:TrackPointExtension>
        </extensions>
      </trkpt>
      <trkpt lat="-22.0553904958069324493408203125" lon="166.4487181417644023895263671875">
        <ele>867.79998779296875</ele>
        <time>2016-08-12T19:13:39.000Z</time>
        <extensions>
          <ns3:TrackPointExtension>
            <ns3:atemp>15.0</ns3:atemp>
            <ns3:hr>123</ns3:hr>
          </ns3:TrackPointExtension>
        </extensions>
      </trkpt>
      <trkpt lat="-22.05537549220025539398193359375" lon="166.4487372525036334991455078125">
        <ele>867.5999755859375</ele>
        <time>2016-08-12T19:13:40.000Z</time>
        <extensions>
          <ns3:TrackPointExtension>
            <ns3:atemp>15.0</ns3:atemp>
            <ns3:hr>124</ns3:hr>
          </ns3:TrackPointExtension>
        </extensions>
      </trkpt>
      <trkpt lat="-22.05535738728940486907958984375" lon="166.44875116646289825439453125">
        <ele>867.4000244140625</ele>
        <time>2016-08-12T19:13:41.000Z</time>
        <extensions>
          <ns3:TrackPointExtension>
            <ns3:atemp>15.0</ns3:atemp>
            <ns3:hr>123</ns3:hr>
          </ns3:TrackPointExtension>
        </extensions>
      </trkpt>
      <trkpt lat="-22.05533794127404689788818359375" lon="166.44876055419445037841796875">
        <ele>867.79998779296875</ele>
        <time>2016-08-12T19:13:42.000Z</time>
        <extensions>
          <ns3:TrackPointExtension>
            <ns3:atemp>15.0</ns3:atemp>
            <ns3:hr>124</ns3:hr>
          </ns3:TrackPointExtension>
        </extensions>
      </trkpt>
      <trkpt lat="-22.05531455576419830322265625" lon="166.44876499660313129425048828125">
        <ele>868.20001220703125</ele>
        <time>2016-08-12T19:13:43.000Z</time>
        <extensions>
          <ns3:TrackPointExtension>
            <ns3:atemp>15.0</ns3:atemp>
            <ns3:hr>124</ns3:hr>
          </ns3:TrackPointExtension>
        </extensions>
      </trkpt>
      <trkpt lat="-22.0552899129688739776611328125" lon="166.44876784645020961761474609375">
        <ele>868</ele>
        <time>2016-08-12T19:13:44.000Z</time>
        <extensions>
          <ns3:TrackPointExtension>
            <ns3:atemp>15.0</ns3:atemp>
            <ns3:hr>124</ns3:hr>
          </ns3:TrackPointExtension>
        </extensions>
      </trkpt>
      <trkpt lat="-22.05526669509708881378173828125" lon="166.448769271373748779296875">
        <ele>867.79998779296875</ele>
        <time>2016-08-12T19:13:45.000Z</time>
        <extensions>
          <ns3:TrackPointExtension>
            <ns3:atemp>15.0</ns3:atemp>
            <ns3:hr>124</ns3:hr>
          </ns3:TrackPointExtension>
        </extensions>
      </trkpt>
      <trkpt lat="-22.05524079501628875732421875" lon="166.44877170212566852569580078125">
        <ele>867.5999755859375</ele>
        <time>2016-08-12T19:13:46.000Z</time>
        <extensions>
          <ns3:TrackPointExtension>
            <ns3:atemp>15.0</ns3:atemp>
            <ns3:hr>125</ns3:hr>
          </ns3:TrackPointExtension>
        </extensions>
      </trkpt>
      <trkpt lat="-22.055217325687408447265625" lon="166.44877798855304718017578125">
        <ele>867.5999755859375</ele>
        <time>2016-08-12T19:13:47.000Z</time>
        <extensions>
          <ns3:TrackPointExtension>
            <ns3:atemp>15.0</ns3:atemp>
            <ns3:hr>125</ns3:hr>
          </ns3:TrackPointExtension>
        </extensions>
      </trkpt>
      <trkpt lat="-22.05519176088273525238037109375" lon="166.44878259859979152679443359375">
        <ele>867.79998779296875</ele>
        <time>2016-08-12T19:13:48.000Z</time>
        <extensions>
          <ns3:TrackPointExtension>
            <ns3:atemp>15.0</ns3:atemp>
            <ns3:hr>125</ns3:hr>
          </ns3:TrackPointExtension>
        </extensions>
      </trkpt>
      <trkpt lat="-22.0551682077348232269287109375" lon="166.4487915672361850738525390625">
        <ele>867.79998779296875</ele>
        <time>2016-08-12T19:13:49.000Z</time>
        <extensions>
          <ns3:TrackPointExtension>
            <ns3:atemp>15.0</ns3:atemp>
            <ns3:hr>125</ns3:hr>
          </ns3:TrackPointExtension>
        </extensions>
      </trkpt>
      <trkpt lat="-22.0551480911672115325927734375" lon="166.44879986532032489776611328125">
        <ele>868</ele>
        <time>2016-08-12T19:13:50.000Z</time>
        <extensions>
          <ns3:TrackPointExtension>
            <ns3:atemp>15.0</ns3:atemp>
            <ns3:hr>125</ns3:hr>
          </ns3:TrackPointExtension>
        </extensions>
      </trkpt>
      <trkpt lat="-22.055127806961536407470703125" lon="166.44880690611898899078369140625">
        <ele>868.20001220703125</ele>
        <time>2016-08-12T19:13:51.000Z</time>
        <extensions>
          <ns3:TrackPointExtension>
            <ns3:atemp>15.0</ns3:atemp>
            <ns3:hr>125</ns3:hr>
          </ns3:TrackPointExtension>
        </extensions>
      </trkpt>
      <trkpt lat="-22.05510391853749752044677734375" lon="166.44881713204085826873779296875">
        <ele>868.20001220703125</ele>
        <time>2016-08-12T19:13:52.000Z</time>
        <extensions>
          <ns3:TrackPointExtension>
            <ns3:atemp>15.0</ns3:atemp>
            <ns3:hr>126</ns3:hr>
          </ns3:TrackPointExtension>
        </extensions>
      </trkpt>
      <trkpt lat="-22.05508028157055377960205078125" lon="166.44882517866790294647216796875">
        <ele>867.79998779296875</ele>
        <time>2016-08-12T19:13:53.000Z</time>
        <extensions>
          <ns3:TrackPointExtension>
            <ns3:atemp>15.0</ns3:atemp>
            <ns3:hr>125</ns3:hr>
          </ns3:TrackPointExtension>
        </extensions>
      </trkpt>
      <trkpt lat="-22.05506217665970325469970703125" lon="166.44883641041815280914306640625">
        <ele>867.5999755859375</ele>
        <time>2016-08-12T19:13:54.000Z</time>
        <extensions>
          <ns3:TrackPointExtension>
            <ns3:atemp>15.0</ns3:atemp>
            <ns3:hr>125</ns3:hr>
          </ns3:TrackPointExtension>
        </extensions>
      </trkpt>
      <trkpt lat="-22.05504138953983783721923828125" lon="166.44885040819644927978515625">
        <ele>867.4000244140625</ele>
        <time>2016-08-12T19:13:55.000Z</time>
        <extensions>
          <ns3:TrackPointExtension>
            <ns3:atemp>15.0</ns3:atemp>
            <ns3:hr>125</ns3:hr>
          </ns3:TrackPointExtension>
        </extensions>
      </trkpt>
      <trkpt lat="-22.0550196804106235504150390625" lon="166.44886591471731662750244140625">
        <ele>867.20001220703125</ele>
        <time>2016-08-12T19:13:56.000Z</time>
        <extensions>
          <ns3:TrackPointExtension>
            <ns3:atemp>15.0</ns3:atemp>
            <ns3:hr>125</ns3:hr>
          </ns3:TrackPointExtension>
        </extensions>
      </trkpt>
      <trkpt lat="-22.05500015057623386383056640625" lon="166.448880247771739959716796875">
        <ele>867.20001220703125</ele>
        <time>2016-08-12T19:13:57.000Z</time>
        <extensions>
          <ns3:TrackPointExtension>
            <ns3:atemp>15.0</ns3:atemp>
            <ns3:hr>125</ns3:hr>
          </ns3:TrackPointExtension>
        </extensions>
      </trkpt>
      <trkpt lat="-22.054981626570224761962890625" lon="166.44889810122549533843994140625">
        <ele>867.20001220703125</ele>
        <time>2016-08-12T19:13:58.000Z</time>
        <extensions>
          <ns3:TrackPointExtension>
            <ns3:atemp>15.0</ns3:atemp>
            <ns3:hr>125</ns3:hr>
          </ns3:TrackPointExtension>
        </extensions>
      </trkpt>
      <trkpt lat="-22.05496452748775482177734375" lon="166.44891679286956787109375">
        <ele>867.20001220703125</ele>
        <time>2016-08-12T19:13:59.000Z</time>
        <extensions>
          <ns3:TrackPointExtension>
            <ns3:atemp>15.0</ns3:atemp>
            <ns3:hr>125</ns3:hr>
          </ns3:TrackPointExtension>
        </extensions>
      </trkpt>
      <trkpt lat="-22.05494851805269718170166015625" lon="166.4489350654184818267822265625">
        <ele>867</ele>
        <time>2016-08-12T19:14:00.000Z</time>
        <extensions>
          <ns3:TrackPointExtension>
            <ns3:atemp>15.0</ns3:atemp>
            <ns3:hr>125</ns3:hr>
          </ns3:TrackPointExtension>
        </extensions>
      </trkpt>
      <trkpt lat="-22.05493024550378322601318359375" lon="166.44895342178642749786376953125">
        <ele>867.20001220703125</ele>
        <time>2016-08-12T19:14:01.000Z</time>
        <extensions>
          <ns3:TrackPointExtension>
            <ns3:atemp>15.0</ns3:atemp>
            <ns3:hr>125</ns3:hr>
          </ns3:TrackPointExtension>
        </extensions>
      </trkpt>
      <trkpt lat="-22.05491281114518642425537109375" lon="166.4489736221730709075927734375">
        <ele>867.4000244140625</ele>
        <time>2016-08-12T19:14:02.000Z</time>
        <extensions>
          <ns3:TrackPointExtension>
            <ns3:atemp>15.0</ns3:atemp>
            <ns3:hr>125</ns3:hr>
          </ns3:TrackPointExtension>
        </extensions>
      </trkpt>
      <trkpt lat="-22.054899819195270538330078125" lon="166.448989547789096832275390625">
        <ele>867.4000244140625</ele>
        <time>2016-08-12T19:14:03.000Z</time>
        <extensions>
          <ns3:TrackPointExtension>
            <ns3:atemp>15.0</ns3:atemp>
            <ns3:hr>125</ns3:hr>
          </ns3:TrackPointExtension>
        </extensions>
      </trkpt>
      <trkpt lat="-22.0548835583031177520751953125" lon="166.449008323252201080322265625">
        <ele>867.20001220703125</ele>
        <time>2016-08-12T19:14:04.000Z</time>
        <extensions>
          <ns3:TrackPointExtension>
            <ns3:atemp>15.0</ns3:atemp>
            <ns3:hr>126</ns3:hr>
          </ns3:TrackPointExtension>
        </extensions>
      </trkpt>
      <trkpt lat="-22.0548681356012821197509765625" lon="166.4490252546966075897216796875">
        <ele>867.20001220703125</ele>
        <time>2016-08-12T19:14:05.000Z</time>
        <extensions>
          <ns3:TrackPointExtension>
            <ns3:atemp>15.0</ns3:atemp>
            <ns3:hr>126</ns3:hr>
          </ns3:TrackPointExtension>
        </extensions>
      </trkpt>
      <trkpt lat="-22.0548543892800807952880859375" lon="166.44904243759810924530029296875">
        <ele>867.4000244140625</ele>
        <time>2016-08-12T19:14:06.000Z</time>
        <extensions>
          <ns3:TrackPointExtension>
            <ns3:atemp>15.0</ns3:atemp>
            <ns3:hr>126</ns3:hr>
          </ns3:TrackPointExtension>
        </extensions>
      </trkpt>
      <trkpt lat="-22.054841481149196624755859375" lon="166.4490634761750698089599609375">
        <ele>867.79998779296875</ele>
        <time>2016-08-12T19:14:07.000Z</time>
        <extensions>
          <ns3:TrackPointExtension>
            <ns3:atemp>15.0</ns3:atemp>
            <ns3:hr>126</ns3:hr>
          </ns3:TrackPointExtension>
        </extensions>
      </trkpt>
      <trkpt lat="-22.0548270642757415771484375" lon="166.44908853806555271148681640625">
        <ele>867.5999755859375</ele>
        <time>2016-08-12T19:14:08.000Z</time>
        <extensions>
          <ns3:TrackPointExtension>
            <ns3:atemp>15.0</ns3:atemp>
            <ns3:hr>126</ns3:hr>
          </ns3:TrackPointExtension>
        </extensions>
      </trkpt>
      <trkpt lat="-22.05481289885938167572021484375" lon="166.44911284558475017547607421875">
        <ele>867.4000244140625</ele>
        <time>2016-08-12T19:14:09.000Z</time>
        <extensions>
          <ns3:TrackPointExtension>
            <ns3:atemp>15.0</ns3:atemp>
            <ns3:hr>127</ns3:hr>
          </ns3:TrackPointExtension>
        </extensions>
      </trkpt>
      <trkpt lat="-22.0548004098236560821533203125" lon="166.44913447089493274688720703125">
        <ele>867.79998779296875</ele>
        <time>2016-08-12T19:14:10.000Z</time>
        <extensions>
          <ns3:TrackPointExtension>
            <ns3:atemp>15.0</ns3:atemp>
            <ns3:hr>127</ns3:hr>
          </ns3:TrackPointExtension>
        </extensions>
      </trkpt>
      <trkpt lat="-22.0547926984727382659912109375" lon="166.4491546712815761566162109375">
        <ele>868</ele>
        <time>2016-08-12T19:14:11.000Z</time>
        <extensions>
          <ns3:TrackPointExtension>
            <ns3:atemp>15.0</ns3:atemp>
            <ns3:hr>127</ns3:hr>
          </ns3:TrackPointExtension>
        </extensions>
      </trkpt>
      <trkpt lat="-22.054785154759883880615234375" lon="166.44917671568691730499267578125">
        <ele>868</ele>
        <time>2016-08-12T19:14:12.000Z</time>
        <extensions>
          <ns3:TrackPointExtension>
            <ns3:atemp>15.0</ns3:atemp>
            <ns3:hr>127</ns3:hr>
          </ns3:TrackPointExtension>
        </extensions>
      </trkpt>
      <trkpt lat="-22.054778449237346649169921875" lon="166.44919917918741703033447265625">
        <ele>867.79998779296875</ele>
        <time>2016-08-12T19:14:13.000Z</time>
        <extensions>
          <ns3:TrackPointExtension>
            <ns3:atemp>15.0</ns3:atemp>
            <ns3:hr>127</ns3:hr>
          </ns3:TrackPointExtension>
        </extensions>
      </trkpt>
      <trkpt lat="-22.05477082170546054840087890625" lon="166.44922097213566303253173828125">
        <ele>868</ele>
        <time>2016-08-12T19:14:14.000Z</time>
        <extensions>
          <ns3:TrackPointExtension>
            <ns3:atemp>15.0</ns3:atemp>
            <ns3:hr>127</ns3:hr>
          </ns3:TrackPointExtension>
        </extensions>
      </trkpt>
      <trkpt lat="-22.054762355983257293701171875" lon="166.44924595020711421966552734375">
        <ele>867.79998779296875</ele>
        <time>2016-08-12T19:14:15.000Z</time>
        <extensions>
          <ns3:TrackPointExtension>
            <ns3:atemp>15.0</ns3:atemp>
            <ns3:hr>127</ns3:hr>
          </ns3:TrackPointExtension>
        </extensions>
      </trkpt>
      <trkpt lat="-22.05475355498492717742919921875" lon="166.44927293993532657623291015625">
        <ele>867.5999755859375</ele>
        <time>2016-08-12T19:14:16.000Z</time>
        <extensions>
          <ns3:TrackPointExtension>
            <ns3:atemp>15.0</ns3:atemp>
            <ns3:hr>128</ns3:hr>
          </ns3:TrackPointExtension>
        </extensions>
      </trkpt>
      <trkpt lat="-22.054745592176914215087890625" lon="166.44929925911128520965576171875">
        <ele>867.5999755859375</ele>
        <time>2016-08-12T19:14:17.000Z</time>
        <extensions>
          <ns3:TrackPointExtension>
            <ns3:atemp>15.0</ns3:atemp>
            <ns3:hr>128</ns3:hr>
          </ns3:TrackPointExtension>
        </extensions>
      </trkpt>
      <trkpt lat="-22.0547383837401866912841796875" lon="166.44932650029659271240234375">
        <ele>867.4000244140625</ele>
        <time>2016-08-12T19:14:18.000Z</time>
        <extensions>
          <ns3:TrackPointExtension>
            <ns3:atemp>15.0</ns3:atemp>
            <ns3:hr>128</ns3:hr>
          </ns3:TrackPointExtension>
        </extensions>
      </trkpt>
      <trkpt lat="-22.05472840927541255950927734375" lon="166.44935466349124908447265625">
        <ele>867.20001220703125</ele>
        <time>2016-08-12T19:14:19.000Z</time>
        <extensions>
          <ns3:TrackPointExtension>
            <ns3:atemp>15.0</ns3:atemp>
            <ns3:hr>128</ns3:hr>
          </ns3:TrackPointExtension>
        </extensions>
      </trkpt>
      <trkpt lat="-22.05471684224903583526611328125" lon="166.4493834972381591796875">
        <ele>867</ele>
        <time>2016-08-12T19:14:20.000Z</time>
        <extensions>
          <ns3:TrackPointExtension>
            <ns3:atemp>15.0</ns3:atemp>
            <ns3:hr>128</ns3:hr>
          </ns3:TrackPointExtension>
        </extensions>
      </trkpt>
      <trkpt lat="-22.0546991564333438873291015625" lon="166.449407972395420074462890625">
        <ele>866.79998779296875</ele>
        <time>2016-08-12T19:14:21.000Z</time>
        <extensions>
          <ns3:TrackPointExtension>
            <ns3:atemp>15.0</ns3:atemp>
            <ns3:hr>128</ns3:hr>
          </ns3:TrackPointExtension>
        </extensions>
      </trkpt>
      <trkpt lat="-22.0546783693134784698486328125" lon="166.449426077306270599365234375">
        <ele>866.5999755859375</ele>
        <time>2016-08-12T19:14:22.000Z</time>
        <extensions>
          <ns3:TrackPointExtension>
            <ns3:atemp>15.0</ns3:atemp>
            <ns3:hr>128</ns3:hr>
          </ns3:TrackPointExtension>
        </extensions>
      </trkpt>
      <trkpt lat="-22.054653055965900421142578125" lon="166.449445188045501708984375">
        <ele>866.4000244140625</ele>
        <time>2016-08-12T19:14:23.000Z</time>
        <extensions>
          <ns3:TrackPointExtension>
            <ns3:atemp>15.0</ns3:atemp>
            <ns3:hr>128</ns3:hr>
          </ns3:TrackPointExtension>
        </extensions>
      </trkpt>
      <trkpt lat="-22.05462791025638580322265625" lon="166.44945817999541759490966796875">
        <ele>866.4000244140625</ele>
        <time>2016-08-12T19:14:24.000Z</time>
        <extensions>
          <ns3:TrackPointExtension>
            <ns3:atemp>15.0</ns3:atemp>
            <ns3:hr>128</ns3:hr>
          </ns3:TrackPointExtension>
        </extensions>
      </trkpt>
      <trkpt lat="-22.05460335128009319305419921875" lon="166.4494624547660350799560546875">
        <ele>866.20001220703125</ele>
        <time>2016-08-12T19:14:25.000Z</time>
        <extensions>
          <ns3:TrackPointExtension>
            <ns3:atemp>15.0</ns3:atemp>
            <ns3:hr>128</ns3:hr>
          </ns3:TrackPointExtension>
        </extensions>
      </trkpt>
      <trkpt lat="-22.05457686446607112884521484375" lon="166.449460946023464202880859375">
        <ele>865.79998779296875</ele>
        <time>2016-08-12T19:14:26.000Z</time>
        <extensions>
          <ns3:TrackPointExtension>
            <ns3:atemp>15.0</ns3:atemp>
            <ns3:hr>128</ns3:hr>
          </ns3:TrackPointExtension>
        </extensions>
      </trkpt>
      <trkpt lat="-22.05454886890947818756103515625" lon="166.44945817999541759490966796875">
        <ele>866</ele>
        <time>2016-08-12T19:14:27.000Z</time>
        <extensions>
          <ns3:TrackPointExtension>
            <ns3:atemp>15.0</ns3:atemp>
            <ns3:hr>128</ns3:hr>
          </ns3:TrackPointExtension>
        </extensions>
      </trkpt>
      <trkpt lat="-22.0545234717428684234619140625" lon="166.44945524632930755615234375">
        <ele>865.5999755859375</ele>
        <time>2016-08-12T19:14:28.000Z</time>
        <extensions>
          <ns3:TrackPointExtension>
            <ns3:atemp>15.0</ns3:atemp>
            <ns3:hr>127</ns3:hr>
          </ns3:TrackPointExtension>
        </extensions>
      </trkpt>
      <trkpt lat="-22.05449757166206836700439453125" lon="166.44945264793932437896728515625">
        <ele>865.4000244140625</ele>
        <time>2016-08-12T19:14:29.000Z</time>
        <extensions>
          <ns3:TrackPointExtension>
            <ns3:atemp>15.0</ns3:atemp>
            <ns3:hr>127</ns3:hr>
          </ns3:TrackPointExtension>
        </extensions>
      </trkpt>
      <trkpt lat="-22.05447041429579257965087890625" lon="166.44945365376770496368408203125">
        <ele>865.4000244140625</ele>
        <time>2016-08-12T19:14:30.000Z</time>
        <extensions>
          <ns3:TrackPointExtension>
            <ns3:atemp>15.0</ns3:atemp>
            <ns3:hr>127</ns3:hr>
          </ns3:TrackPointExtension>
        </extensions>
      </trkpt>
      <trkpt lat="-22.054441832005977630615234375" lon="166.4494557492434978485107421875">
        <ele>865.20001220703125</ele>
        <time>2016-08-12T19:14:31.000Z</time>
        <extensions>
          <ns3:TrackPointExtension>
            <ns3:atemp>15.0</ns3:atemp>
            <ns3:hr>127</ns3:hr>
          </ns3:TrackPointExtension>
        </extensions>
      </trkpt>
      <trkpt lat="-22.05441425554454326629638671875" lon="166.44945926964282989501953125">
        <ele>864.79998779296875</ele>
        <time>2016-08-12T19:14:32.000Z</time>
        <extensions>
          <ns3:TrackPointExtension>
            <ns3:atemp>15.0</ns3:atemp>
            <ns3:hr>127</ns3:hr>
          </ns3:TrackPointExtension>
        </extensions>
      </trkpt>
      <trkpt lat="-22.0543883554637432098388671875" lon="166.44946404732763767242431640625">
        <ele>864.79998779296875</ele>
        <time>2016-08-12T19:14:33.000Z</time>
        <extensions>
          <ns3:TrackPointExtension>
            <ns3:atemp>15.0</ns3:atemp>
            <ns3:hr>127</ns3:hr>
          </ns3:TrackPointExtension>
        </extensions>
      </trkpt>
      <trkpt lat="-22.05436279065907001495361328125" lon="166.44947293214499950408935546875">
        <ele>864.5999755859375</ele>
        <time>2016-08-12T19:14:34.000Z</time>
        <extensions>
          <ns3:TrackPointExtension>
            <ns3:atemp>15.0</ns3:atemp>
            <ns3:hr>127</ns3:hr>
          </ns3:TrackPointExtension>
        </extensions>
      </trkpt>
      <trkpt lat="-22.05433764494955539703369140625" lon="166.44948299042880535125732421875">
        <ele>864.20001220703125</ele>
        <time>2016-08-12T19:14:35.000Z</time>
        <extensions>
          <ns3:TrackPointExtension>
            <ns3:atemp>15.0</ns3:atemp>
            <ns3:hr>127</ns3:hr>
          </ns3:TrackPointExtension>
        </extensions>
      </trkpt>
      <trkpt lat="-22.05431434325873851776123046875" lon="166.44949279725551605224609375">
        <ele>864.20001220703125</ele>
        <time>2016-08-12T19:14:36.000Z</time>
        <extensions>
          <ns3:TrackPointExtension>
            <ns3:atemp>15.0</ns3:atemp>
            <ns3:hr>127</ns3:hr>
          </ns3:TrackPointExtension>
        </extensions>
      </trkpt>
      <trkpt lat="-22.05429003573954105377197265625" lon="166.44950360991060733795166015625">
        <ele>864</ele>
        <time>2016-08-12T19:14:37.000Z</time>
        <extensions>
          <ns3:TrackPointExtension>
            <ns3:atemp>15.0</ns3:atemp>
            <ns3:hr>126</ns3:hr>
          </ns3:TrackPointExtension>
        </extensions>
      </trkpt>
      <trkpt lat="-22.054268829524517059326171875" lon="166.4495171047747135162353515625">
        <ele>863.5999755859375</ele>
        <time>2016-08-12T19:14:38.000Z</time>
        <extensions>
          <ns3:TrackPointExtension>
            <ns3:atemp>15.0</ns3:atemp>
            <ns3:hr>126</ns3:hr>
          </ns3:TrackPointExtension>
        </extensions>
      </trkpt>
      <trkpt lat="-22.05425214953720569610595703125" lon="166.44953227601945400238037109375">
        <ele>863.4000244140625</ele>
        <time>2016-08-12T19:14:39.000Z</time>
        <extensions>
          <ns3:TrackPointExtension>
            <ns3:atemp>15.0</ns3:atemp>
            <ns3:hr>126</ns3:hr>
          </ns3:TrackPointExtension>
        </extensions>
      </trkpt>
      <trkpt lat="-22.0542342960834503173828125" lon="166.44955272786319255828857421875">
        <ele>863.4000244140625</ele>
        <time>2016-08-12T19:14:40.000Z</time>
        <extensions>
          <ns3:TrackPointExtension>
            <ns3:atemp>15.0</ns3:atemp>
            <ns3:hr>126</ns3:hr>
          </ns3:TrackPointExtension>
        </extensions>
      </trkpt>
      <trkpt lat="-22.0542173646390438079833984375" lon="166.44957317970693111419677734375">
        <ele>863.20001220703125</ele>
        <time>2016-08-12T19:14:41.000Z</time>
        <extensions>
          <ns3:TrackPointExtension>
            <ns3:atemp>15.0</ns3:atemp>
            <ns3:hr>126</ns3:hr>
          </ns3:TrackPointExtension>
        </extensions>
      </trkpt>
      <trkpt lat="-22.05420101992785930633544921875" lon="166.449593715369701385498046875">
        <ele>863</ele>
        <time>2016-08-12T19:14:42.000Z</time>
        <extensions>
          <ns3:TrackPointExtension>
            <ns3:atemp>15.0</ns3:atemp>
            <ns3:hr>125</ns3:hr>
          </ns3:TrackPointExtension>
        </extensions>
      </trkpt>
      <trkpt lat="-22.054185010492801666259765625" lon="166.44961978308856487274169921875">
        <ele>863</ele>
        <time>2016-08-12T19:14:43.000Z</time>
        <extensions>
          <ns3:TrackPointExtension>
            <ns3:atemp>15.0</ns3:atemp>
            <ns3:hr>125</ns3:hr>
          </ns3:TrackPointExtension>
        </extensions>
      </trkpt>
      <trkpt lat="-22.05417059361934661865234375" lon="166.449645347893238067626953125">
        <ele>862.79998779296875</ele>
        <time>2016-08-12T19:14:44.000Z</time>
        <extensions>
          <ns3:TrackPointExtension>
            <ns3:atemp>15.0</ns3:atemp>
            <ns3:hr>125</ns3:hr>
          </ns3:TrackPointExtension>
        </extensions>
      </trkpt>
      <trkpt lat="-22.05415709875524044036865234375" lon="166.44967225380241870880126953125">
        <ele>862.5999755859375</ele>
        <time>2016-08-12T19:14:45.000Z</time>
        <extensions>
          <ns3:TrackPointExtension>
            <ns3:atemp>15.0</ns3:atemp>
            <ns3:hr>125</ns3:hr>
          </ns3:TrackPointExtension>
        </extensions>
      </trkpt>
      <trkpt lat="-22.0541452802717685699462890625" lon="166.4496964775025844573974609375">
        <ele>862.5999755859375</ele>
        <time>2016-08-12T19:14:46.000Z</time>
        <extensions>
          <ns3:TrackPointExtension>
            <ns3:atemp>15.0</ns3:atemp>
            <ns3:hr>125</ns3:hr>
          </ns3:TrackPointExtension>
        </extensions>
      </trkpt>
      <trkpt lat="-22.05413429997861385345458984375" lon="166.44972153939306735992431640625">
        <ele>862.20001220703125</ele>
        <time>2016-08-12T19:14:47.000Z</time>
        <extensions>
          <ns3:TrackPointExtension>
            <ns3:atemp>15.0</ns3:atemp>
            <ns3:hr>125</ns3:hr>
          </ns3:TrackPointExtension>
        </extensions>
      </trkpt>
      <trkpt lat="-22.0541221462190151214599609375" lon="166.44974735565483570098876953125">
        <ele>861.79998779296875</ele>
        <time>2016-08-12T19:14:48.000Z</time>
        <extensions>
          <ns3:TrackPointExtension>
            <ns3:atemp>15.0</ns3:atemp>
            <ns3:hr>125</ns3:hr>
          </ns3:TrackPointExtension>
        </extensions>
      </trkpt>
      <trkpt lat="-22.05411166884005069732666015625" lon="166.4497697353363037109375">
        <ele>861.79998779296875</ele>
        <time>2016-08-12T19:14:49.000Z</time>
        <extensions>
          <ns3:TrackPointExtension>
            <ns3:atemp>15.0</ns3:atemp>
            <ns3:hr>125</ns3:hr>
          </ns3:TrackPointExtension>
        </extensions>
      </trkpt>
      <trkpt lat="-22.0541013590991497039794921875" lon="166.44979379139840602874755859375">
        <ele>861.5999755859375</ele>
        <time>2016-08-12T19:14:50.000Z</time>
        <extensions>
          <ns3:TrackPointExtension>
            <ns3:atemp>15.0</ns3:atemp>
            <ns3:hr>124</ns3:hr>
          </ns3:TrackPointExtension>
        </extensions>
      </trkpt>
      <trkpt lat="-22.05408937297761440277099609375" lon="166.44981893710792064666748046875">
        <ele>861.4000244140625</ele>
        <time>2016-08-12T19:14:51.000Z</time>
        <extensions>
          <ns3:TrackPointExtension>
            <ns3:atemp>15.0</ns3:atemp>
            <ns3:hr>124</ns3:hr>
          </ns3:TrackPointExtension>
        </extensions>
      </trkpt>
      <trkpt lat="-22.0540773868560791015625" lon="166.44984123297035694122314453125">
        <ele>861.20001220703125</ele>
        <time>2016-08-12T19:14:52.000Z</time>
        <extensions>
          <ns3:TrackPointExtension>
            <ns3:atemp>15.0</ns3:atemp>
            <ns3:hr>124</ns3:hr>
          </ns3:TrackPointExtension>
        </extensions>
      </trkpt>
      <trkpt lat="-22.05406556837260723114013671875" lon="166.44986218772828578948974609375">
        <ele>861</ele>
        <time>2016-08-12T19:14:53.000Z</time>
        <extensions>
          <ns3:TrackPointExtension>
            <ns3:atemp>15.0</ns3:atemp>
            <ns3:hr>124</ns3:hr>
          </ns3:TrackPointExtension>
        </extensions>
      </trkpt>
      <trkpt lat="-22.0540510676801204681396484375" lon="166.44988565705716609954833984375">
        <ele>860.5999755859375</ele>
        <time>2016-08-12T19:14:54.000Z</time>
        <extensions>
          <ns3:TrackPointExtension>
            <ns3:atemp>15.0</ns3:atemp>
            <ns3:hr>123</ns3:hr>
          </ns3:TrackPointExtension>
        </extensions>
      </trkpt>
      <trkpt lat="-22.05403522588312625885009765625" lon="166.44990719854831695556640625">
        <ele>860.4000244140625</ele>
        <time>2016-08-12T19:14:55.000Z</time>
        <extensions>
          <ns3:TrackPointExtension>
            <ns3:atemp>15.0</ns3:atemp>
            <ns3:hr>123</ns3:hr>
          </ns3:TrackPointExtension>
        </extensions>
      </trkpt>
      <trkpt lat="-22.05402038991451263427734375" lon="166.4499308355152606964111328125">
        <ele>860.4000244140625</ele>
        <time>2016-08-12T19:14:56.000Z</time>
        <extensions>
          <ns3:TrackPointExtension>
            <ns3:atemp>15.0</ns3:atemp>
            <ns3:hr>123</ns3:hr>
          </ns3:TrackPointExtension>
        </extensions>
      </trkpt>
      <trkpt lat="-22.05400438047945499420166015625" lon="166.44995505921542644500732421875">
        <ele>860.20001220703125</ele>
        <time>2016-08-12T19:14:57.000Z</time>
        <extensions>
          <ns3:TrackPointExtension>
            <ns3:atemp>15.0</ns3:atemp>
            <ns3:hr>123</ns3:hr>
          </ns3:TrackPointExtension>
        </extensions>
      </trkpt>
      <trkpt lat="-22.05398845486342906951904296875" lon="166.4499764330685138702392578125">
        <ele>860</ele>
        <time>2016-08-12T19:14:58.000Z</time>
        <extensions>
          <ns3:TrackPointExtension>
            <ns3:atemp>15.0</ns3:atemp>
            <ns3:hr>122</ns3:hr>
          </ns3:TrackPointExtension>
        </extensions>
      </trkpt>
      <trkpt lat="-22.05397152341902256011962890625" lon="166.44999931566417217254638671875">
        <ele>860</ele>
        <time>2016-08-12T19:14:59.000Z</time>
        <extensions>
          <ns3:TrackPointExtension>
            <ns3:atemp>15.0</ns3:atemp>
            <ns3:hr>122</ns3:hr>
          </ns3:TrackPointExtension>
        </extensions>
      </trkpt>
      <trkpt lat="-22.05395811237394809722900390625" lon="166.45002144388854503631591796875">
        <ele>859.79998779296875</ele>
        <time>2016-08-12T19:15:00.000Z</time>
        <extensions>
          <ns3:TrackPointExtension>
            <ns3:atemp>15.0</ns3:atemp>
            <ns3:hr>122</ns3:hr>
          </ns3:TrackPointExtension>
        </extensions>
      </trkpt>
      <trkpt lat="-22.0539461262524127960205078125" lon="166.45004390738904476165771484375">
        <ele>859.4000244140625</ele>
        <time>2016-08-12T19:15:01.000Z</time>
        <extensions>
          <ns3:TrackPointExtension>
            <ns3:atemp>15.0</ns3:atemp>
            <ns3:hr>122</ns3:hr>
          </ns3:TrackPointExtension>
        </extensions>
      </trkpt>
      <trkpt lat="-22.05393363721668720245361328125" lon="166.45006888546049594879150390625">
        <ele>859.4000244140625</ele>
        <time>2016-08-12T19:15:02.000Z</time>
        <extensions>
          <ns3:TrackPointExtension>
            <ns3:atemp>15.0</ns3:atemp>
            <ns3:hr>121</ns3:hr>
          </ns3:TrackPointExtension>
        </extensions>
      </trkpt>
      <trkpt lat="-22.05392324365675449371337890625" lon="166.45009252242743968963623046875">
        <ele>859.20001220703125</ele>
        <time>2016-08-12T19:15:03.000Z</time>
        <extensions>
          <ns3:TrackPointExtension>
            <ns3:atemp>15.0</ns3:atemp>
            <ns3:hr>121</ns3:hr>
          </ns3:TrackPointExtension>
        </extensions>
      </trkpt>
      <trkpt lat="-22.05391117371618747711181640625" lon="166.45011750049889087677001953125">
        <ele>858.79998779296875</ele>
        <time>2016-08-12T19:15:04.000Z</time>
        <extensions>
          <ns3:TrackPointExtension>
            <ns3:atemp>15.0</ns3:atemp>
            <ns3:hr>121</ns3:hr>
          </ns3:TrackPointExtension>
        </extensions>
      </trkpt>
      <trkpt lat="-22.0538990199565887451171875" lon="166.45014750771224498748779296875">
        <ele>858.5999755859375</ele>
        <time>2016-08-12T19:15:05.000Z</time>
        <extensions>
          <ns3:TrackPointExtension>
            <ns3:atemp>15.0</ns3:atemp>
            <ns3:hr>121</ns3:hr>
          </ns3:TrackPointExtension>
        </extensions>
      </trkpt>
      <trkpt lat="-22.05388803966343402862548828125" lon="166.45017139613628387451171875">
        <ele>858.4000244140625</ele>
        <time>2016-08-12T19:15:06.000Z</time>
        <extensions>
          <ns3:TrackPointExtension>
            <ns3:atemp>15.0</ns3:atemp>
            <ns3:hr>121</ns3:hr>
          </ns3:TrackPointExtension>
        </extensions>
      </trkpt>
      <trkpt lat="-22.053877897560596466064453125" lon="166.4501923508942127227783203125">
        <ele>858.20001220703125</ele>
        <time>2016-08-12T19:15:07.000Z</time>
        <extensions>
          <ns3:TrackPointExtension>
            <ns3:atemp>15.0</ns3:atemp>
            <ns3:hr>120</ns3:hr>
          </ns3:TrackPointExtension>
        </extensions>
      </trkpt>
      <trkpt lat="-22.053865827620029449462890625" lon="166.45021774806082248687744140625">
        <ele>858</ele>
        <time>2016-08-12T19:15:08.000Z</time>
        <extensions>
          <ns3:TrackPointExtension>
            <ns3:atemp>15.0</ns3:atemp>
            <ns3:hr>120</ns3:hr>
          </ns3:TrackPointExtension>
        </extensions>
      </trkpt>
      <trkpt lat="-22.05385518260300159454345703125" lon="166.45024373196065425872802734375">
        <ele>858</ele>
        <time>2016-08-12T19:15:09.000Z</time>
        <extensions>
          <ns3:TrackPointExtension>
            <ns3:atemp>15.0</ns3:atemp>
            <ns3:hr>120</ns3:hr>
          </ns3:TrackPointExtension>
        </extensions>
      </trkpt>
      <trkpt lat="-22.05384445376694202423095703125" lon="166.4502697996795177459716796875">
        <ele>857.5999755859375</ele>
        <time>2016-08-12T19:15:10.000Z</time>
        <extensions>
          <ns3:TrackPointExtension>
            <ns3:atemp>15.0</ns3:atemp>
            <ns3:hr>121</ns3:hr>
          </ns3:TrackPointExtension>
        </extensions>
      </trkpt>
      <trkpt lat="-22.0538361556828022003173828125" lon="166.45029653795063495635986328125">
        <ele>857.5999755859375</ele>
        <time>2016-08-12T19:15:11.000Z</time>
        <extensions>
          <ns3:TrackPointExtension>
            <ns3:atemp>15.0</ns3:atemp>
            <ns3:hr>120</ns3:hr>
          </ns3:TrackPointExtension>
        </extensions>
      </trkpt>
      <trkpt lat="-22.05382785759866237640380859375" lon="166.45032159984111785888671875">
        <ele>857.79998779296875</ele>
        <time>2016-08-12T19:15:12.000Z</time>
        <extensions>
          <ns3:TrackPointExtension>
            <ns3:atemp>15.0</ns3:atemp>
            <ns3:hr>121</ns3:hr>
          </ns3:TrackPointExtension>
        </extensions>
      </trkpt>
      <trkpt lat="-22.053818218410015106201171875" lon="166.45034749992191791534423828125">
        <ele>857.20001220703125</ele>
        <time>2016-08-12T19:15:13.000Z</time>
        <extensions>
          <ns3:TrackPointExtension>
            <ns3:atemp>15.0</ns3:atemp>
            <ns3:hr>121</ns3:hr>
          </ns3:TrackPointExtension>
        </extensions>
      </trkpt>
      <trkpt lat="-22.05380807630717754364013671875" lon="166.4503723941743373870849609375">
        <ele>857.20001220703125</ele>
        <time>2016-08-12T19:15:14.000Z</time>
        <extensions>
          <ns3:TrackPointExtension>
            <ns3:atemp>15.0</ns3:atemp>
            <ns3:hr>120</ns3:hr>
          </ns3:TrackPointExtension>
        </extensions>
      </trkpt>
      <trkpt lat="-22.05379885621368885040283203125" lon="166.450396366417407989501953125">
        <ele>857</ele>
        <time>2016-08-12T19:15:15.000Z</time>
        <extensions>
          <ns3:TrackPointExtension>
            <ns3:atemp>15.0</ns3:atemp>
            <ns3:hr>121</ns3:hr>
          </ns3:TrackPointExtension>
        </extensions>
      </trkpt>
      <trkpt lat="-22.05379030667245388031005859375" lon="166.4504260383546352386474609375">
        <ele>856.5999755859375</ele>
        <time>2016-08-12T19:15:16.000Z</time>
        <extensions>
          <ns3:TrackPointExtension>
            <ns3:atemp>15.0</ns3:atemp>
            <ns3:hr>120</ns3:hr>
          </ns3:TrackPointExtension>
        </extensions>
      </trkpt>
      <trkpt lat="-22.05378125421702861785888671875" lon="166.45045436918735504150390625">
        <ele>856.4000244140625</ele>
        <time>2016-08-12T19:15:17.000Z</time>
        <extensions>
          <ns3:TrackPointExtension>
            <ns3:atemp>15.0</ns3:atemp>
            <ns3:hr>120</ns3:hr>
          </ns3:TrackPointExtension>
        </extensions>
      </trkpt>
      <trkpt lat="-22.0537741295993328094482421875" lon="166.450482197105884552001953125">
        <ele>856.4000244140625</ele>
        <time>2016-08-12T19:15:18.000Z</time>
        <extensions>
          <ns3:TrackPointExtension>
            <ns3:atemp>15.0</ns3:atemp>
            <ns3:hr>121</ns3:hr>
          </ns3:TrackPointExtension>
        </extensions>
      </trkpt>
      <trkpt lat="-22.05376960337162017822265625" lon="166.4505128748714923858642578125">
        <ele>856</ele>
        <time>2016-08-12T19:15:19.000Z</time>
        <extensions>
          <ns3:TrackPointExtension>
            <ns3:atemp>15.0</ns3:atemp>
            <ns3:hr>121</ns3:hr>
          </ns3:TrackPointExtension>
        </extensions>
      </trkpt>
      <trkpt lat="-22.05376264639198780059814453125" lon="166.45054330118000507354736328125">
        <ele>855.79998779296875</ele>
        <time>2016-08-12T19:15:20.000Z</time>
        <extensions>
          <ns3:TrackPointExtension>
            <ns3:atemp>15.0</ns3:atemp>
            <ns3:hr>121</ns3:hr>
          </ns3:TrackPointExtension>
        </extensions>
      </trkpt>
      <trkpt lat="-22.053753174841403961181640625" lon="166.45057582296431064605712890625">
        <ele>855.79998779296875</ele>
        <time>2016-08-12T19:15:21.000Z</time>
        <extensions>
          <ns3:TrackPointExtension>
            <ns3:atemp>15.0</ns3:atemp>
            <ns3:hr>120</ns3:hr>
          </ns3:TrackPointExtension>
        </extensions>
      </trkpt>
      <trkpt lat="-22.05374370329082012176513671875" lon="166.4506054110825061798095703125">
        <ele>855.4000244140625</ele>
        <time>2016-08-12T19:15:22.000Z</time>
        <extensions>
          <ns3:TrackPointExtension>
            <ns3:atemp>15.0</ns3:atemp>
            <ns3:hr>121</ns3:hr>
          </ns3:TrackPointExtension>
        </extensions>
      </trkpt>
      <trkpt lat="-22.0537359081208705902099609375" lon="166.45063332282006740570068359375">
        <ele>855.20001220703125</ele>
        <time>2016-08-12T19:15:23.000Z</time>
        <extensions>
          <ns3:TrackPointExtension>
            <ns3:atemp>15.0</ns3:atemp>
            <ns3:hr>121</ns3:hr>
          </ns3:TrackPointExtension>
        </extensions>
      </trkpt>
      <trkpt lat="-22.05372266471385955810546875" lon="166.45066165365278720855712890625">
        <ele>855.20001220703125</ele>
        <time>2016-08-12T19:15:24.000Z</time>
        <extensions>
          <ns3:TrackPointExtension>
            <ns3:atemp>15.0</ns3:atemp>
            <ns3:hr>120</ns3:hr>
          </ns3:TrackPointExtension>
        </extensions>
      </trkpt>
      <trkpt lat="-22.0537070743739604949951171875" lon="166.4506855420768260955810546875">
        <ele>855.20001220703125</ele>
        <time>2016-08-12T19:15:25.000Z</time>
        <extensions>
          <ns3:TrackPointExtension>
            <ns3:atemp>15.0</ns3:atemp>
            <ns3:hr>121</ns3:hr>
          </ns3:TrackPointExtension>
        </extensions>
      </trkpt>
      <trkpt lat="-22.0536946691572666168212890625" lon="166.45070674829185009002685546875">
        <ele>854.5999755859375</ele>
        <time>2016-08-12T19:15:26.000Z</time>
        <extensions>
          <ns3:TrackPointExtension>
            <ns3:atemp>15.0</ns3:atemp>
            <ns3:hr>121</ns3:hr>
          </ns3:TrackPointExtension>
        </extensions>
      </trkpt>
      <trkpt lat="-22.053676731884479522705078125" lon="166.450727283954620361328125">
        <ele>854.5999755859375</ele>
        <time>2016-08-12T19:15:27.000Z</time>
        <extensions>
          <ns3:TrackPointExtension>
            <ns3:atemp>15.0</ns3:atemp>
            <ns3:hr>121</ns3:hr>
          </ns3:TrackPointExtension>
        </extensions>
      </trkpt>
      <trkpt lat="-22.05365586094558238983154296875" lon="166.45074061118066310882568359375">
        <ele>855.20001220703125</ele>
        <time>2016-08-12T19:15:28.000Z</time>
        <extensions>
          <ns3:TrackPointExtension>
            <ns3:atemp>15.0</ns3:atemp>
            <ns3:hr>122</ns3:hr>
          </ns3:TrackPointExtension>
        </extensions>
      </trkpt>
      <trkpt lat="-22.05363289453089237213134765625" lon="166.45074832253158092498779296875">
        <ele>855.20001220703125</ele>
        <time>2016-08-12T19:15:29.000Z</time>
        <extensions>
          <ns3:TrackPointExtension>
            <ns3:atemp>15.0</ns3:atemp>
            <ns3:hr>122</ns3:hr>
          </ns3:TrackPointExtension>
        </extensions>
      </trkpt>
      <trkpt lat="-22.05360808409750461578369140625" lon="166.4507567882537841796875">
        <ele>854.79998779296875</ele>
        <time>2016-08-12T19:15:30.000Z</time>
        <extensions>
          <ns3:TrackPointExtension>
            <ns3:atemp>15.0</ns3:atemp>
            <ns3:hr>122</ns3:hr>
          </ns3:TrackPointExtension>
        </extensions>
      </trkpt>
      <trkpt lat="-22.05358528532087802886962890625" lon="166.45076139830052852630615234375">
        <ele>855</ele>
        <time>2016-08-12T19:15:31.000Z</time>
        <extensions>
          <ns3:TrackPointExtension>
            <ns3:atemp>15.0</ns3:atemp>
            <ns3:hr>122</ns3:hr>
          </ns3:TrackPointExtension>
        </extensions>
      </trkpt>
      <trkpt lat="-22.05356198363006114959716796875" lon="166.450769193470478057861328125">
        <ele>855.20001220703125</ele>
        <time>2016-08-12T19:15:32.000Z</time>
        <extensions>
          <ns3:TrackPointExtension>
            <ns3:atemp>15.0</ns3:atemp>
            <ns3:hr>122</ns3:hr>
          </ns3:TrackPointExtension>
        </extensions>
      </trkpt>
      <trkpt lat="-22.0535414479672908782958984375" lon="166.45077916793525218963623046875">
        <ele>855.20001220703125</ele>
        <time>2016-08-12T19:15:33.000Z</time>
        <extensions>
          <ns3:TrackPointExtension>
            <ns3:atemp>15.0</ns3:atemp>
            <ns3:hr>122</ns3:hr>
          </ns3:TrackPointExtension>
        </extensions>
      </trkpt>
      <trkpt lat="-22.05352359451353549957275390625" lon="166.45078738220036029815673828125">
        <ele>855.20001220703125</ele>
        <time>2016-08-12T19:15:34.000Z</time>
        <extensions>
          <ns3:TrackPointExtension>
            <ns3:atemp>15.0</ns3:atemp>
            <ns3:hr>122</ns3:hr>
          </ns3:TrackPointExtension>
        </extensions>
      </trkpt>
      <trkpt lat="-22.053503058850765228271484375" lon="166.45079509355127811431884765625">
        <ele>855.4000244140625</ele>
        <time>2016-08-12T19:15:35.000Z</time>
        <extensions>
          <ns3:TrackPointExtension>
            <ns3:atemp>15.0</ns3:atemp>
            <ns3:hr>122</ns3:hr>
          </ns3:TrackPointExtension>
        </extensions>
      </trkpt>
      <trkpt lat="-22.05348151735961437225341796875" lon="166.45079559646546840667724609375">
        <ele>855.5999755859375</ele>
        <time>2016-08-12T19:15:36.000Z</time>
        <extensions>
          <ns3:TrackPointExtension>
            <ns3:atemp>15.0</ns3:atemp>
            <ns3:hr>122</ns3:hr>
          </ns3:TrackPointExtension>
        </extensions>
      </trkpt>
      <trkpt lat="-22.05346047878265380859375" lon="166.450797021389007568359375">
        <ele>855.5999755859375</ele>
        <time>2016-08-12T19:15:37.000Z</time>
        <extensions>
          <ns3:TrackPointExtension>
            <ns3:atemp>15.0</ns3:atemp>
            <ns3:hr>122</ns3:hr>
          </ns3:TrackPointExtension>
        </extensions>
      </trkpt>
      <trkpt lat="-22.05343944020569324493408203125" lon="166.4508018828928470611572265625">
        <ele>855.5999755859375</ele>
        <time>2016-08-12T19:15:38.000Z</time>
        <extensions>
          <ns3:TrackPointExtension>
            <ns3:atemp>15.0</ns3:atemp>
            <ns3:hr>123</ns3:hr>
          </ns3:TrackPointExtension>
        </extensions>
      </trkpt>
      <trkpt lat="-22.05341982655227184295654296875" lon="166.4508037269115447998046875">
        <ele>856</ele>
        <time>2016-08-12T19:15:39.000Z</time>
        <extensions>
          <ns3:TrackPointExtension>
            <ns3:atemp>15.0</ns3:atemp>
            <ns3:hr>123</ns3:hr>
          </ns3:TrackPointExtension>
        </extensions>
      </trkpt>
      <trkpt lat="-22.0533966086804866790771484375" lon="166.450805403292179107666015625">
        <ele>856.4000244140625</ele>
        <time>2016-08-12T19:15:40.000Z</time>
        <extensions>
          <ns3:TrackPointExtension>
            <ns3:atemp>15.0</ns3:atemp>
            <ns3:hr>123</ns3:hr>
          </ns3:TrackPointExtension>
        </extensions>
      </trkpt>
      <trkpt lat="-22.0533728040754795074462890625" lon="166.45080305635929107666015625">
        <ele>856.4000244140625</ele>
        <time>2016-08-12T19:15:41.000Z</time>
        <extensions>
          <ns3:TrackPointExtension>
            <ns3:atemp>15.0</ns3:atemp>
            <ns3:hr>124</ns3:hr>
          </ns3:TrackPointExtension>
        </extensions>
      </trkpt>
      <trkpt lat="-22.0533491671085357666015625" lon="166.4507988654077053070068359375">
        <ele>856.5999755859375</ele>
        <time>2016-08-12T19:15:42.000Z</time>
        <extensions>
          <ns3:TrackPointExtension>
            <ns3:atemp>15.0</ns3:atemp>
            <ns3:hr>124</ns3:hr>
          </ns3:TrackPointExtension>
        </extensions>
      </trkpt>
      <trkpt lat="-22.05333064310252666473388671875" lon="166.450797021389007568359375">
        <ele>857</ele>
        <time>2016-08-12T19:15:43.000Z</time>
        <extensions>
          <ns3:TrackPointExtension>
            <ns3:atemp>15.0</ns3:atemp>
            <ns3:hr>125</ns3:hr>
          </ns3:TrackPointExtension>
        </extensions>
      </trkpt>
      <trkpt lat="-22.053309939801692962646484375" lon="166.45079475827515125274658203125">
        <ele>856.79998779296875</ele>
        <time>2016-08-12T19:15:44.000Z</time>
        <extensions>
          <ns3:TrackPointExtension>
            <ns3:atemp>15.0</ns3:atemp>
            <ns3:hr>125</ns3:hr>
          </ns3:TrackPointExtension>
        </extensions>
      </trkpt>
      <trkpt lat="-22.0532879792153835296630859375" lon="166.45079442299902439117431640625">
        <ele>857.4000244140625</ele>
        <time>2016-08-12T19:15:45.000Z</time>
        <extensions>
          <ns3:TrackPointExtension>
            <ns3:atemp>15.0</ns3:atemp>
            <ns3:hr>125</ns3:hr>
          </ns3:TrackPointExtension>
        </extensions>
      </trkpt>
      <trkpt lat="-22.053265012800693511962890625" lon="166.4507958479225635528564453125">
        <ele>857.5999755859375</ele>
        <time>2016-08-12T19:15:46.000Z</time>
        <extensions>
          <ns3:TrackPointExtension>
            <ns3:atemp>15.0</ns3:atemp>
            <ns3:hr>125</ns3:hr>
          </ns3:TrackPointExtension>
        </extensions>
      </trkpt>
      <trkpt lat="-22.0532445609569549560546875" lon="166.4507978595793247222900390625">
        <ele>857.5999755859375</ele>
        <time>2016-08-12T19:15:47.000Z</time>
        <extensions>
          <ns3:TrackPointExtension>
            <ns3:atemp>15.0</ns3:atemp>
            <ns3:hr>126</ns3:hr>
          </ns3:TrackPointExtension>
        </extensions>
      </trkpt>
      <trkpt lat="-22.05322553403675556182861328125" lon="166.45079894922673702239990234375">
        <ele>857.5999755859375</ele>
        <time>2016-08-12T19:15:48.000Z</time>
        <extensions>
          <ns3:TrackPointExtension>
            <ns3:atemp>15.0</ns3:atemp>
            <ns3:hr>126</ns3:hr>
          </ns3:TrackPointExtension>
        </extensions>
      </trkpt>
      <trkpt lat="-22.053205333650112152099609375" lon="166.450804732739925384521484375">
        <ele>857.79998779296875</ele>
        <time>2016-08-12T19:15:49.000Z</time>
        <extensions>
          <ns3:TrackPointExtension>
            <ns3:atemp>15.0</ns3:atemp>
            <ns3:hr>126</ns3:hr>
          </ns3:TrackPointExtension>
        </extensions>
      </trkpt>
      <trkpt lat="-22.0531882345676422119140625" lon="166.450812779366970062255859375">
        <ele>857.79998779296875</ele>
        <time>2016-08-12T19:15:50.000Z</time>
        <extensions>
          <ns3:TrackPointExtension>
            <ns3:atemp>15.0</ns3:atemp>
            <ns3:hr>127</ns3:hr>
          </ns3:TrackPointExtension>
        </extensions>
      </trkpt>
      <trkpt lat="-22.05317105166614055633544921875" lon="166.45082107745110988616943359375">
        <ele>857.79998779296875</ele>
        <time>2016-08-12T19:15:51.000Z</time>
        <extensions>
          <ns3:TrackPointExtension>
            <ns3:atemp>15.0</ns3:atemp>
            <ns3:hr>127</ns3:hr>
          </ns3:TrackPointExtension>
        </extensions>
      </trkpt>
      <trkpt lat="-22.0531518571078777313232421875" lon="166.4508243463933467864990234375">
        <ele>858.4000244140625</ele>
        <time>2016-08-12T19:15:52.000Z</time>
        <extensions>
          <ns3:TrackPointExtension>
            <ns3:atemp>15.0</ns3:atemp>
            <ns3:hr>127</ns3:hr>
          </ns3:TrackPointExtension>
        </extensions>
      </trkpt>
      <trkpt lat="-22.0531307347118854522705078125" lon="166.4508266933262348175048828125">
        <ele>858.5999755859375</ele>
        <time>2016-08-12T19:15:53.000Z</time>
        <extensions>
          <ns3:TrackPointExtension>
            <ns3:atemp>15.0</ns3:atemp>
            <ns3:hr>127</ns3:hr>
          </ns3:TrackPointExtension>
        </extensions>
      </trkpt>
      <trkpt lat="-22.05310785211622714996337890625" lon="166.45083264447748661041259765625">
        <ele>858.4000244140625</ele>
        <time>2016-08-12T19:15:54.000Z</time>
        <extensions>
          <ns3:TrackPointExtension>
            <ns3:atemp>15.0</ns3:atemp>
            <ns3:hr>128</ns3:hr>
          </ns3:TrackPointExtension>
        </extensions>
      </trkpt>
      <trkpt lat="-22.053083963692188262939453125" lon="166.45083935000002384185791015625">
        <ele>858.4000244140625</ele>
        <time>2016-08-12T19:15:55.000Z</time>
        <extensions>
          <ns3:TrackPointExtension>
            <ns3:atemp>15.0</ns3:atemp>
            <ns3:hr>128</ns3:hr>
          </ns3:TrackPointExtension>
        </extensions>
      </trkpt>
      <trkpt lat="-22.05306141637265682220458984375" lon="166.45084672607481479644775390625">
        <ele>858.79998779296875</ele>
        <time>2016-08-12T19:15:56.000Z</time>
        <extensions>
          <ns3:TrackPointExtension>
            <ns3:atemp>15.0</ns3:atemp>
            <ns3:hr>129</ns3:hr>
          </ns3:TrackPointExtension>
        </extensions>
      </trkpt>
      <trkpt lat="-22.05303979106247425079345703125" lon="166.45085929892957210540771484375">
        <ele>859.20001220703125</ele>
        <time>2016-08-12T19:15:57.000Z</time>
        <extensions>
          <ns3:TrackPointExtension>
            <ns3:atemp>15.0</ns3:atemp>
            <ns3:hr>129</ns3:hr>
          </ns3:TrackPointExtension>
        </extensions>
      </trkpt>
      <trkpt lat="-22.0530217699706554412841796875" lon="166.45087019540369510650634765625">
        <ele>859</ele>
        <time>2016-08-12T19:15:58.000Z</time>
        <extensions>
          <ns3:TrackPointExtension>
            <ns3:atemp>15.0</ns3:atemp>
            <ns3:hr>130</ns3:hr>
          </ns3:TrackPointExtension>
        </extensions>
      </trkpt>
      <trkpt lat="-22.05300249159336090087890625" lon="166.4508789964020252227783203125">
        <ele>858.79998779296875</ele>
        <time>2016-08-12T19:15:59.000Z</time>
        <extensions>
          <ns3:TrackPointExtension>
            <ns3:atemp>15.0</ns3:atemp>
            <ns3:hr>130</ns3:hr>
          </ns3:TrackPointExtension>
        </extensions>
      </trkpt>
      <trkpt lat="-22.0529822073876857757568359375" lon="166.45088310353457927703857421875">
        <ele>859.20001220703125</ele>
        <time>2016-08-12T19:16:00.000Z</time>
        <extensions>
          <ns3:TrackPointExtension>
            <ns3:atemp>15.0</ns3:atemp>
            <ns3:hr>131</ns3:hr>
          </ns3:TrackPointExtension>
        </extensions>
      </trkpt>
      <trkpt lat="-22.052963264286518096923828125" lon="166.45088888704776763916015625">
        <ele>859.5999755859375</ele>
        <time>2016-08-12T19:16:01.000Z</time>
        <extensions>
          <ns3:TrackPointExtension>
            <ns3:atemp>15.0</ns3:atemp>
            <ns3:hr>131</ns3:hr>
          </ns3:TrackPointExtension>
        </extensions>
      </trkpt>
      <trkpt lat="-22.0529433153569698333740234375" lon="166.450898945331573486328125">
        <ele>859.5999755859375</ele>
        <time>2016-08-12T19:16:02.000Z</time>
        <extensions>
          <ns3:TrackPointExtension>
            <ns3:atemp>15.0</ns3:atemp>
            <ns3:hr>131</ns3:hr>
          </ns3:TrackPointExtension>
        </extensions>
      </trkpt>
      <trkpt lat="-22.0529235340654850006103515625" lon="166.4509088359773159027099609375">
        <ele>859.5999755859375</ele>
        <time>2016-08-12T19:16:03.000Z</time>
        <extensions>
          <ns3:TrackPointExtension>
            <ns3:atemp>15.0</ns3:atemp>
            <ns3:hr>132</ns3:hr>
          </ns3:TrackPointExtension>
        </extensions>
      </trkpt>
      <trkpt lat="-22.052903585135936737060546875" lon="166.45091973245143890380859375">
        <ele>860</ele>
        <time>2016-08-12T19:16:04.000Z</time>
        <extensions>
          <ns3:TrackPointExtension>
            <ns3:atemp>15.0</ns3:atemp>
            <ns3:hr>132</ns3:hr>
          </ns3:TrackPointExtension>
        </extensions>
      </trkpt>
      <trkpt lat="-22.05288221128284931182861328125" lon="166.45092903636395931243896484375">
        <ele>860</ele>
        <time>2016-08-12T19:16:05.000Z</time>
        <extensions>
          <ns3:TrackPointExtension>
            <ns3:atemp>15.0</ns3:atemp>
            <ns3:hr>132</ns3:hr>
          </ns3:TrackPointExtension>
        </extensions>
      </trkpt>
      <trkpt lat="-22.05286544747650623321533203125" lon="166.4509378373622894287109375">
        <ele>860</ele>
        <time>2016-08-12T19:16:06.000Z</time>
        <extensions>
          <ns3:TrackPointExtension>
            <ns3:atemp>15.0</ns3:atemp>
            <ns3:hr>133</ns3:hr>
          </ns3:TrackPointExtension>
        </extensions>
      </trkpt>
      <trkpt lat="-22.0528467558324337005615234375" lon="166.45095133222639560699462890625">
        <ele>860</ele>
        <time>2016-08-12T19:16:07.000Z</time>
        <extensions>
          <ns3:TrackPointExtension>
            <ns3:atemp>15.0</ns3:atemp>
            <ns3:hr>133</ns3:hr>
          </ns3:TrackPointExtension>
        </extensions>
      </trkpt>
      <trkpt lat="-22.05282622016966342926025390625" lon="166.45096692256629467010498046875">
        <ele>860.4000244140625</ele>
        <time>2016-08-12T19:16:08.000Z</time>
        <extensions>
          <ns3:TrackPointExtension>
            <ns3:atemp>15.0</ns3:atemp>
            <ns3:hr>133</ns3:hr>
          </ns3:TrackPointExtension>
        </extensions>
      </trkpt>
      <trkpt lat="-22.05280710943043231964111328125" lon="166.45098335109651088714599609375">
        <ele>860.5999755859375</ele>
        <time>2016-08-12T19:16:09.000Z</time>
        <extensions>
          <ns3:TrackPointExtension>
            <ns3:atemp>15.0</ns3:atemp>
            <ns3:hr>134</ns3:hr>
          </ns3:TrackPointExtension>
        </extensions>
      </trkpt>
      <trkpt lat="-22.05279235728085041046142578125" lon="166.451001875102519989013671875">
        <ele>860.5999755859375</ele>
        <time>2016-08-12T19:16:10.000Z</time>
        <extensions>
          <ns3:TrackPointExtension>
            <ns3:atemp>15.0</ns3:atemp>
            <ns3:hr>134</ns3:hr>
          </ns3:TrackPointExtension>
        </extensions>
      </trkpt>
      <trkpt lat="-22.05277919769287109375" lon="166.45101905800402164459228515625">
        <ele>860.4000244140625</ele>
        <time>2016-08-12T19:16:11.000Z</time>
        <extensions>
          <ns3:TrackPointExtension>
            <ns3:atemp>15.0</ns3:atemp>
            <ns3:hr>134</ns3:hr>
          </ns3:TrackPointExtension>
        </extensions>
      </trkpt>
      <trkpt lat="-22.05276134423911571502685546875" lon="166.4510375820100307464599609375">
        <ele>860.79998779296875</ele>
        <time>2016-08-12T19:16:12.000Z</time>
        <extensions>
          <ns3:TrackPointExtension>
            <ns3:atemp>15.0</ns3:atemp>
            <ns3:hr>134</ns3:hr>
          </ns3:TrackPointExtension>
        </extensions>
      </trkpt>
      <trkpt lat="-22.0527434907853603363037109375" lon="166.45105384290218353271484375">
        <ele>861.20001220703125</ele>
        <time>2016-08-12T19:16:13.000Z</time>
        <extensions>
          <ns3:TrackPointExtension>
            <ns3:atemp>15.0</ns3:atemp>
            <ns3:hr>135</ns3:hr>
          </ns3:TrackPointExtension>
        </extensions>
      </trkpt>
      <trkpt lat="-22.0527250505983829498291015625" lon="166.4510667510330677032470703125">
        <ele>861.20001220703125</ele>
        <time>2016-08-12T19:16:14.000Z</time>
        <extensions>
          <ns3:TrackPointExtension>
            <ns3:atemp>15.0</ns3:atemp>
            <ns3:hr>135</ns3:hr>
          </ns3:TrackPointExtension>
        </extensions>
      </trkpt>
      <trkpt lat="-22.05270744860172271728515625" lon="166.451078318059444427490234375">
        <ele>861.4000244140625</ele>
        <time>2016-08-12T19:16:15.000Z</time>
        <extensions>
          <ns3:TrackPointExtension>
            <ns3:atemp>15.0</ns3:atemp>
            <ns3:hr>135</ns3:hr>
          </ns3:TrackPointExtension>
        </extensions>
      </trkpt>
      <trkpt lat="-22.05269143916666507720947265625" lon="166.45108980126678943634033203125">
        <ele>861.5999755859375</ele>
        <time>2016-08-12T19:16:16.000Z</time>
        <extensions>
          <ns3:TrackPointExtension>
            <ns3:atemp>15.0</ns3:atemp>
            <ns3:hr>136</ns3:hr>
          </ns3:TrackPointExtension>
        </extensions>
      </trkpt>
      <trkpt lat="-22.05267316661775112152099609375" lon="166.45110120065510272979736328125">
        <ele>861.79998779296875</ele>
        <time>2016-08-12T19:16:17.000Z</time>
        <extensions>
          <ns3:TrackPointExtension>
            <ns3:atemp>15.0</ns3:atemp>
            <ns3:hr>136</ns3:hr>
          </ns3:TrackPointExtension>
        </extensions>
      </trkpt>
      <trkpt lat="-22.05265170894563198089599609375" lon="166.45111243240535259246826171875">
        <ele>861.79998779296875</ele>
        <time>2016-08-12T19:16:18.000Z</time>
        <extensions>
          <ns3:TrackPointExtension>
            <ns3:atemp>15.0</ns3:atemp>
            <ns3:hr>136</ns3:hr>
          </ns3:TrackPointExtension>
        </extensions>
      </trkpt>
      <trkpt lat="-22.05263243056833744049072265625" lon="166.45112114958465099334716796875">
        <ele>861.79998779296875</ele>
        <time>2016-08-12T19:16:19.000Z</time>
        <extensions>
          <ns3:TrackPointExtension>
            <ns3:atemp>15.0</ns3:atemp>
            <ns3:hr>137</ns3:hr>
          </ns3:TrackPointExtension>
        </extensions>
      </trkpt>
      <trkpt lat="-22.05261290073394775390625" lon="166.45112894475460052490234375">
        <ele>862.20001220703125</ele>
        <time>2016-08-12T19:16:20.000Z</time>
        <extensions>
          <ns3:TrackPointExtension>
            <ns3:atemp>15.0</ns3:atemp>
            <ns3:hr>137</ns3:hr>
          </ns3:TrackPointExtension>
        </extensions>
      </trkpt>
      <trkpt lat="-22.052591778337955474853515625" lon="166.45113841630518436431884765625">
        <ele>862.5999755859375</ele>
        <time>2016-08-12T19:16:21.000Z</time>
        <extensions>
          <ns3:TrackPointExtension>
            <ns3:atemp>15.0</ns3:atemp>
            <ns3:hr>137</ns3:hr>
          </ns3:TrackPointExtension>
        </extensions>
      </trkpt>
      <trkpt lat="-22.0525686442852020263671875" lon="166.45114637911319732666015625">
        <ele>862.4000244140625</ele>
        <time>2016-08-12T19:16:22.000Z</time>
        <extensions>
          <ns3:TrackPointExtension>
            <ns3:atemp>15.0</ns3:atemp>
            <ns3:hr>137</ns3:hr>
          </ns3:TrackPointExtension>
        </extensions>
      </trkpt>
      <trkpt lat="-22.052546851336956024169921875" lon="166.451153419911861419677734375">
        <ele>862.5999755859375</ele>
        <time>2016-08-12T19:16:23.000Z</time>
        <extensions>
          <ns3:TrackPointExtension>
            <ns3:atemp>15.0</ns3:atemp>
            <ns3:hr>138</ns3:hr>
          </ns3:TrackPointExtension>
        </extensions>
      </trkpt>
      <trkpt lat="-22.05252530984580516815185546875" lon="166.45115568302571773529052734375">
        <ele>863</ele>
        <time>2016-08-12T19:16:24.000Z</time>
        <extensions>
          <ns3:TrackPointExtension>
            <ns3:atemp>15.0</ns3:atemp>
            <ns3:hr>138</ns3:hr>
          </ns3:TrackPointExtension>
        </extensions>
      </trkpt>
      <trkpt lat="-22.052501253783702850341796875" lon="166.4511552639305591583251953125">
        <ele>862.79998779296875</ele>
        <time>2016-08-12T19:16:25.000Z</time>
        <extensions>
          <ns3:TrackPointExtension>
            <ns3:atemp>15.0</ns3:atemp>
            <ns3:hr>138</ns3:hr>
          </ns3:TrackPointExtension>
        </extensions>
      </trkpt>
      <trkpt lat="-22.0524782873690128326416015625" lon="166.4511532522737979888916015625">
        <ele>862.79998779296875</ele>
        <time>2016-08-12T19:16:26.000Z</time>
        <extensions>
          <ns3:TrackPointExtension>
            <ns3:atemp>15.0</ns3:atemp>
            <ns3:hr>138</ns3:hr>
          </ns3:TrackPointExtension>
        </extensions>
      </trkpt>
      <trkpt lat="-22.05245406366884708404541015625" lon="166.45115375518798828125">
        <ele>863.20001220703125</ele>
        <time>2016-08-12T19:16:27.000Z</time>
        <extensions>
          <ns3:TrackPointExtension>
            <ns3:atemp>15.0</ns3:atemp>
            <ns3:hr>138</ns3:hr>
          </ns3:TrackPointExtension>
        </extensions>
      </trkpt>
      <trkpt lat="-22.05242891795933246612548828125" lon="166.45115576684474945068359375">
        <ele>863.5999755859375</ele>
        <time>2016-08-12T19:16:28.000Z</time>
        <extensions>
          <ns3:TrackPointExtension>
            <ns3:atemp>15.0</ns3:atemp>
            <ns3:hr>139</ns3:hr>
          </ns3:TrackPointExtension>
        </extensions>
      </trkpt>
      <trkpt lat="-22.0524062030017375946044921875" lon="166.45115836523473262786865234375">
        <ele>863.5999755859375</ele>
        <time>2016-08-12T19:16:29.000Z</time>
        <extensions>
          <ns3:TrackPointExtension>
            <ns3:atemp>15.0</ns3:atemp>
            <ns3:hr>139</ns3:hr>
          </ns3:TrackPointExtension>
        </extensions>
      </trkpt>
      <trkpt lat="-22.05238424241542816162109375" lon="166.45116087980568408966064453125">
        <ele>863.5999755859375</ele>
        <time>2016-08-12T19:16:30.000Z</time>
        <extensions>
          <ns3:TrackPointExtension>
            <ns3:atemp>15.0</ns3:atemp>
            <ns3:hr>139</ns3:hr>
          </ns3:TrackPointExtension>
        </extensions>
      </trkpt>
      <trkpt lat="-22.0523612760007381439208984375" lon="166.4511626400053501129150390625">
        <ele>864</ele>
        <time>2016-08-12T19:16:31.000Z</time>
        <extensions>
          <ns3:TrackPointExtension>
            <ns3:atemp>15.0</ns3:atemp>
            <ns3:hr>139</ns3:hr>
          </ns3:TrackPointExtension>
        </extensions>
      </trkpt>
      <trkpt lat="-22.0523414947092533111572265625" lon="166.4511612989008426666259765625">
        <ele>864.20001220703125</ele>
        <time>2016-08-12T19:16:32.000Z</time>
        <extensions>
          <ns3:TrackPointExtension>
            <ns3:atemp>15.0</ns3:atemp>
            <ns3:hr>139</ns3:hr>
          </ns3:TrackPointExtension>
        </extensions>
      </trkpt>
      <trkpt lat="-22.05232121050357818603515625" lon="166.45115937106311321258544921875">
        <ele>864.20001220703125</ele>
        <time>2016-08-12T19:16:33.000Z</time>
        <extensions>
          <ns3:TrackPointExtension>
            <ns3:atemp>15.0</ns3:atemp>
            <ns3:hr>139</ns3:hr>
          </ns3:TrackPointExtension>
        </extensions>
      </trkpt>
      <trkpt lat="-22.05230318941175937652587890625" lon="166.4511550962924957275390625">
        <ele>864</ele>
        <time>2016-08-12T19:16:34.000Z</time>
        <extensions>
          <ns3:TrackPointExtension>
            <ns3:atemp>15.0</ns3:atemp>
            <ns3:hr>139</ns3:hr>
          </ns3:TrackPointExtension>
        </extensions>
      </trkpt>
      <trkpt lat="-22.05228558741509914398193359375" lon="166.45115367136895656585693359375">
        <ele>864.4000244140625</ele>
        <time>2016-08-12T19:16:35.000Z</time>
        <extensions>
          <ns3:TrackPointExtension>
            <ns3:atemp>15.0</ns3:atemp>
            <ns3:hr>140</ns3:hr>
          </ns3:TrackPointExtension>
        </extensions>
      </trkpt>
      <trkpt lat="-22.05226622521877288818359375" lon="166.451158113777637481689453125">
        <ele>864.79998779296875</ele>
        <time>2016-08-12T19:16:36.000Z</time>
        <extensions>
          <ns3:TrackPointExtension>
            <ns3:atemp>15.0</ns3:atemp>
            <ns3:hr>140</ns3:hr>
          </ns3:TrackPointExtension>
        </extensions>
      </trkpt>
      <trkpt lat="-22.05224719829857349395751953125" lon="166.45116473548114299774169921875">
        <ele>864.79998779296875</ele>
        <time>2016-08-12T19:16:37.000Z</time>
        <extensions>
          <ns3:TrackPointExtension>
            <ns3:atemp>15.0</ns3:atemp>
            <ns3:hr>140</ns3:hr>
          </ns3:TrackPointExtension>
        </extensions>
      </trkpt>
      <trkpt lat="-22.052227668464183807373046875" lon="166.4511696808040142059326171875">
        <ele>864.79998779296875</ele>
        <time>2016-08-12T19:16:38.000Z</time>
        <extensions>
          <ns3:TrackPointExtension>
            <ns3:atemp>15.0</ns3:atemp>
            <ns3:hr>140</ns3:hr>
          </ns3:TrackPointExtension>
        </extensions>
      </trkpt>
      <trkpt lat="-22.05220721662044525146484375" lon="166.45117529667913913726806640625">
        <ele>865.20001220703125</ele>
        <time>2016-08-12T19:16:39.000Z</time>
        <extensions>
          <ns3:TrackPointExtension>
            <ns3:atemp>15.0</ns3:atemp>
            <ns3:hr>140</ns3:hr>
          </ns3:TrackPointExtension>
        </extensions>
      </trkpt>
      <trkpt lat="-22.0521855913102626800537109375" lon="166.45117462612688541412353515625">
        <ele>865.4000244140625</ele>
        <time>2016-08-12T19:16:40.000Z</time>
        <extensions>
          <ns3:TrackPointExtension>
            <ns3:atemp>15.0</ns3:atemp>
            <ns3:hr>140</ns3:hr>
          </ns3:TrackPointExtension>
        </extensions>
      </trkpt>
      <trkpt lat="-22.05216270871460437774658203125" lon="166.4511710219085216522216796875">
        <ele>865.4000244140625</ele>
        <time>2016-08-12T19:16:41.000Z</time>
        <extensions>
          <ns3:TrackPointExtension>
            <ns3:atemp>15.0</ns3:atemp>
            <ns3:hr>140</ns3:hr>
          </ns3:TrackPointExtension>
        </extensions>
      </trkpt>
      <trkpt lat="-22.05214192159473896026611328125" lon="166.4511720277369022369384765625">
        <ele>865.5999755859375</ele>
        <time>2016-08-12T19:16:42.000Z</time>
        <extensions>
          <ns3:TrackPointExtension>
            <ns3:atemp>15.0</ns3:atemp>
            <ns3:hr>140</ns3:hr>
          </ns3:TrackPointExtension>
        </extensions>
      </trkpt>
      <trkpt lat="-22.0521228946745395660400390625" lon="166.45117613486945629119873046875">
        <ele>866</ele>
        <time>2016-08-12T19:16:43.000Z</time>
        <extensions>
          <ns3:TrackPointExtension>
            <ns3:atemp>15.0</ns3:atemp>
            <ns3:hr>140</ns3:hr>
          </ns3:TrackPointExtension>
        </extensions>
      </trkpt>
      <trkpt lat="-22.05210370011627674102783203125" lon="166.45118367858231067657470703125">
        <ele>866.20001220703125</ele>
        <time>2016-08-12T19:16:44.000Z</time>
        <extensions>
          <ns3:TrackPointExtension>
            <ns3:atemp>15.0</ns3:atemp>
            <ns3:hr>140</ns3:hr>
          </ns3:TrackPointExtension>
        </extensions>
      </trkpt>
      <trkpt lat="-22.05208517611026763916015625" lon="166.4511872828006744384765625">
        <ele>866</ele>
        <time>2016-08-12T19:16:45.000Z</time>
        <extensions>
          <ns3:TrackPointExtension>
            <ns3:atemp>15.0</ns3:atemp>
            <ns3:hr>141</ns3:hr>
          </ns3:TrackPointExtension>
        </extensions>
      </trkpt>
      <trkpt lat="-22.05206313170492649078369140625" lon="166.45119507797062397003173828125">
        <ele>866.20001220703125</ele>
        <time>2016-08-12T19:16:46.000Z</time>
        <extensions>
          <ns3:TrackPointExtension>
            <ns3:atemp>15.0</ns3:atemp>
            <ns3:hr>140</ns3:hr>
          </ns3:TrackPointExtension>
        </extensions>
      </trkpt>
      <trkpt lat="-22.0520400814712047576904296875" lon="166.451201029121875762939453125">
        <ele>866.5999755859375</ele>
        <time>2016-08-12T19:16:47.000Z</time>
        <extensions>
          <ns3:TrackPointExtension>
            <ns3:atemp>15.0</ns3:atemp>
            <ns3:hr>141</ns3:hr>
          </ns3:TrackPointExtension>
        </extensions>
      </trkpt>
      <trkpt lat="-22.052017785608768463134765625" lon="166.45120429806411266326904296875">
        <ele>866.5999755859375</ele>
        <time>2016-08-12T19:16:48.000Z</time>
        <extensions>
          <ns3:TrackPointExtension>
            <ns3:atemp>15.0</ns3:atemp>
            <ns3:hr>141</ns3:hr>
          </ns3:TrackPointExtension>
        </extensions>
      </trkpt>
      <trkpt lat="-22.05199356190860271453857421875" lon="166.451204381883144378662109375">
        <ele>866.5999755859375</ele>
        <time>2016-08-12T19:16:49.000Z</time>
        <extensions>
          <ns3:TrackPointExtension>
            <ns3:atemp>15.0</ns3:atemp>
            <ns3:hr>140</ns3:hr>
          </ns3:TrackPointExtension>
        </extensions>
      </trkpt>
      <trkpt lat="-22.0519693382084369659423828125" lon="166.45120228640735149383544921875">
        <ele>867</ele>
        <time>2016-08-12T19:16:50.000Z</time>
        <extensions>
          <ns3:TrackPointExtension>
            <ns3:atemp>15.0</ns3:atemp>
            <ns3:hr>141</ns3:hr>
          </ns3:TrackPointExtension>
        </extensions>
      </trkpt>
      <trkpt lat="-22.0519458688795566558837890625" lon="166.4512006938457489013671875">
        <ele>867.20001220703125</ele>
        <time>2016-08-12T19:16:51.000Z</time>
        <extensions>
          <ns3:TrackPointExtension>
            <ns3:atemp>15.0</ns3:atemp>
            <ns3:hr>140</ns3:hr>
          </ns3:TrackPointExtension>
        </extensions>
      </trkpt>
      <trkpt lat="-22.05192332156002521514892578125" lon="166.45120077766478061676025390625">
        <ele>867</ele>
        <time>2016-08-12T19:16:52.000Z</time>
        <extensions>
          <ns3:TrackPointExtension>
            <ns3:atemp>15.0</ns3:atemp>
            <ns3:hr>140</ns3:hr>
          </ns3:TrackPointExtension>
        </extensions>
      </trkpt>
      <trkpt lat="-22.05190437845885753631591796875" lon="166.4512015320360660552978515625">
        <ele>867.20001220703125</ele>
        <time>2016-08-12T19:16:53.000Z</time>
        <extensions>
          <ns3:TrackPointExtension>
            <ns3:atemp>15.0</ns3:atemp>
            <ns3:hr>141</ns3:hr>
          </ns3:TrackPointExtension>
        </extensions>
      </trkpt>
      <trkpt lat="-22.0518831722438335418701171875" lon="166.451200358569622039794921875">
        <ele>867.79998779296875</ele>
        <time>2016-08-12T19:16:54.000Z</time>
        <extensions>
          <ns3:TrackPointExtension>
            <ns3:atemp>15.0</ns3:atemp>
            <ns3:hr>140</ns3:hr>
          </ns3:TrackPointExtension>
        </extensions>
      </trkpt>
      <trkpt lat="-22.0518617145717144012451171875" lon="166.4511980116367340087890625">
        <ele>868</ele>
        <time>2016-08-12T19:16:55.000Z</time>
        <extensions>
          <ns3:TrackPointExtension>
            <ns3:atemp>15.0</ns3:atemp>
            <ns3:hr>140</ns3:hr>
          </ns3:TrackPointExtension>
        </extensions>
      </trkpt>
      <trkpt lat="-22.05184034071862697601318359375" lon="166.45119859836995601654052734375">
        <ele>868</ele>
        <time>2016-08-12T19:16:56.000Z</time>
        <extensions>
          <ns3:TrackPointExtension>
            <ns3:atemp>15.0</ns3:atemp>
            <ns3:hr>140</ns3:hr>
          </ns3:TrackPointExtension>
        </extensions>
      </trkpt>
      <trkpt lat="-22.05181988887488842010498046875" lon="166.4512006938457489013671875">
        <ele>868.20001220703125</ele>
        <time>2016-08-12T19:16:57.000Z</time>
        <extensions>
          <ns3:TrackPointExtension>
            <ns3:atemp>15.0</ns3:atemp>
            <ns3:hr>141</ns3:hr>
          </ns3:TrackPointExtension>
        </extensions>
      </trkpt>
      <trkpt lat="-22.0517996884882450103759765625" lon="166.45120010711252689361572265625">
        <ele>868.5999755859375</ele>
        <time>2016-08-12T19:16:58.000Z</time>
        <extensions>
          <ns3:TrackPointExtension>
            <ns3:atemp>15.0</ns3:atemp>
            <ns3:hr>141</ns3:hr>
          </ns3:TrackPointExtension>
        </extensions>
      </trkpt>
      <trkpt lat="-22.05178032629191875457763671875" lon="166.451197676360607147216796875">
        <ele>868.5999755859375</ele>
        <time>2016-08-12T19:16:59.000Z</time>
        <extensions>
          <ns3:TrackPointExtension>
            <ns3:atemp>15.0</ns3:atemp>
            <ns3:hr>141</ns3:hr>
          </ns3:TrackPointExtension>
        </extensions>
      </trkpt>
      <trkpt lat="-22.05176088027656078338623046875" lon="166.451193653047084808349609375">
        <ele>868.5999755859375</ele>
        <time>2016-08-12T19:17:00.000Z</time>
        <extensions>
          <ns3:TrackPointExtension>
            <ns3:atemp>15.0</ns3:atemp>
            <ns3:hr>141</ns3:hr>
          </ns3:TrackPointExtension>
        </extensions>
      </trkpt>
      <trkpt lat="-22.051745541393756866455078125" lon="166.45118786953389644622802734375">
        <ele>869</ele>
        <time>2016-08-12T19:17:01.000Z</time>
        <extensions>
          <ns3:TrackPointExtension>
            <ns3:atemp>15.0</ns3:atemp>
            <ns3:hr>141</ns3:hr>
          </ns3:TrackPointExtension>
        </extensions>
      </trkpt>
      <trkpt lat="-22.05172584392130374908447265625" lon="166.45117898471653461456298828125">
        <ele>869.20001220703125</ele>
        <time>2016-08-12T19:17:02.000Z</time>
        <extensions>
          <ns3:TrackPointExtension>
            <ns3:atemp>15.0</ns3:atemp>
            <ns3:hr>141</ns3:hr>
          </ns3:TrackPointExtension>
        </extensions>
      </trkpt>
      <trkpt lat="-22.05170690082013607025146484375" lon="166.45116859115660190582275390625">
        <ele>869.4000244140625</ele>
        <time>2016-08-12T19:17:03.000Z</time>
        <extensions>
          <ns3:TrackPointExtension>
            <ns3:atemp>15.0</ns3:atemp>
            <ns3:hr>141</ns3:hr>
          </ns3:TrackPointExtension>
        </extensions>
      </trkpt>
      <trkpt lat="-22.05168929882347583770751953125" lon="166.45115920342504978179931640625">
        <ele>869.79998779296875</ele>
        <time>2016-08-12T19:17:04.000Z</time>
        <extensions>
          <ns3:TrackPointExtension>
            <ns3:atemp>15.0</ns3:atemp>
            <ns3:hr>141</ns3:hr>
          </ns3:TrackPointExtension>
        </extensions>
      </trkpt>
      <trkpt lat="-22.05166675150394439697265625" lon="166.4511505700647830963134765625">
        <ele>870</ele>
        <time>2016-08-12T19:17:05.000Z</time>
        <extensions>
          <ns3:TrackPointExtension>
            <ns3:atemp>15.0</ns3:atemp>
            <ns3:hr>141</ns3:hr>
          </ns3:TrackPointExtension>
        </extensions>
      </trkpt>
      <trkpt lat="-22.0516444556415081024169921875" lon="166.451143361628055572509765625">
        <ele>870</ele>
        <time>2016-08-12T19:17:06.000Z</time>
        <extensions>
          <ns3:TrackPointExtension>
            <ns3:atemp>15.0</ns3:atemp>
            <ns3:hr>142</ns3:hr>
          </ns3:TrackPointExtension>
        </extensions>
      </trkpt>
      <trkpt lat="-22.051622159779071807861328125" lon="166.4511368237435817718505859375">
        <ele>870.20001220703125</ele>
        <time>2016-08-12T19:17:07.000Z</time>
        <extensions>
          <ns3:TrackPointExtension>
            <ns3:atemp>15.0</ns3:atemp>
            <ns3:hr>141</ns3:hr>
          </ns3:TrackPointExtension>
        </extensions>
      </trkpt>
      <trkpt lat="-22.0516008697450160980224609375" lon="166.4511294476687908172607421875">
        <ele>870.5999755859375</ele>
        <time>2016-08-12T19:17:08.000Z</time>
        <extensions>
          <ns3:TrackPointExtension>
            <ns3:atemp>15.0</ns3:atemp>
            <ns3:hr>142</ns3:hr>
          </ns3:TrackPointExtension>
        </extensions>
      </trkpt>
      <trkpt lat="-22.05158284865319728851318359375" lon="166.45112416706979274749755859375">
        <ele>870.79998779296875</ele>
        <time>2016-08-12T19:17:09.000Z</time>
        <extensions>
          <ns3:TrackPointExtension>
            <ns3:atemp>15.0</ns3:atemp>
            <ns3:hr>142</ns3:hr>
          </ns3:TrackPointExtension>
        </extensions>
      </trkpt>
      <trkpt lat="-22.05156139098107814788818359375" lon="166.45111528225243091583251953125">
        <ele>870.79998779296875</ele>
        <time>2016-08-12T19:17:10.000Z</time>
        <extensions>
          <ns3:TrackPointExtension>
            <ns3:atemp>15.0</ns3:atemp>
            <ns3:hr>142</ns3:hr>
          </ns3:TrackPointExtension>
        </extensions>
      </trkpt>
      <trkpt lat="-22.05153859220445156097412109375" lon="166.45111125893890857696533203125">
        <ele>871</ele>
        <time>2016-08-12T19:17:11.000Z</time>
        <extensions>
          <ns3:TrackPointExtension>
            <ns3:atemp>15.0</ns3:atemp>
            <ns3:hr>142</ns3:hr>
          </ns3:TrackPointExtension>
        </extensions>
      </trkpt>
      <trkpt lat="-22.0515187270939350128173828125" lon="166.4511116780340671539306640625">
        <ele>871.20001220703125</ele>
        <time>2016-08-12T19:17:12.000Z</time>
        <extensions>
          <ns3:TrackPointExtension>
            <ns3:atemp>15.0</ns3:atemp>
            <ns3:hr>142</ns3:hr>
          </ns3:TrackPointExtension>
        </extensions>
      </trkpt>
      <trkpt lat="-22.05149349756538867950439453125" lon="166.4511146955192089080810546875">
        <ele>871.20001220703125</ele>
        <time>2016-08-12T19:17:13.000Z</time>
        <extensions>
          <ns3:TrackPointExtension>
            <ns3:atemp>15.0</ns3:atemp>
            <ns3:hr>142</ns3:hr>
          </ns3:TrackPointExtension>
        </extensions>
      </trkpt>
      <trkpt lat="-22.051470279693603515625" lon="166.4511160366237163543701171875">
        <ele>871.4000244140625</ele>
        <time>2016-08-12T19:17:14.000Z</time>
        <extensions>
          <ns3:TrackPointExtension>
            <ns3:atemp>15.0</ns3:atemp>
            <ns3:hr>142</ns3:hr>
          </ns3:TrackPointExtension>
        </extensions>
      </trkpt>
      <trkpt lat="-22.0514510013163089752197265625" lon="166.45111327059566974639892578125">
        <ele>871.79998779296875</ele>
        <time>2016-08-12T19:17:15.000Z</time>
        <extensions>
          <ns3:TrackPointExtension>
            <ns3:atemp>15.0</ns3:atemp>
            <ns3:hr>142</ns3:hr>
          </ns3:TrackPointExtension>
        </extensions>
      </trkpt>
      <trkpt lat="-22.05142962746322154998779296875" lon="166.45111025311052799224853515625">
        <ele>871.79998779296875</ele>
        <time>2016-08-12T19:17:16.000Z</time>
        <extensions>
          <ns3:TrackPointExtension>
            <ns3:atemp>15.0</ns3:atemp>
            <ns3:hr>142</ns3:hr>
          </ns3:TrackPointExtension>
        </extensions>
      </trkpt>
      <trkpt lat="-22.051408588886260986328125" lon="166.45110891200602054595947265625">
        <ele>871.5999755859375</ele>
        <time>2016-08-12T19:17:17.000Z</time>
        <extensions>
          <ns3:TrackPointExtension>
            <ns3:atemp>15.0</ns3:atemp>
            <ns3:hr>142</ns3:hr>
          </ns3:TrackPointExtension>
        </extensions>
      </trkpt>
      <trkpt lat="-22.05138419754803180694580078125" lon="166.45110882818698883056640625">
        <ele>872.20001220703125</ele>
        <time>2016-08-12T19:17:18.000Z</time>
        <extensions>
          <ns3:TrackPointExtension>
            <ns3:atemp>15.0</ns3:atemp>
            <ns3:hr>142</ns3:hr>
          </ns3:TrackPointExtension>
        </extensions>
      </trkpt>
      <trkpt lat="-22.051361985504627227783203125" lon="166.45110874436795711517333984375">
        <ele>872.5999755859375</ele>
        <time>2016-08-12T19:17:19.000Z</time>
        <extensions>
          <ns3:TrackPointExtension>
            <ns3:atemp>15.0</ns3:atemp>
            <ns3:hr>142</ns3:hr>
          </ns3:TrackPointExtension>
        </extensions>
      </trkpt>
      <trkpt lat="-22.0513410307466983795166015625" lon="166.45110891200602054595947265625">
        <ele>872.4000244140625</ele>
        <time>2016-08-12T19:17:20.000Z</time>
        <extensions>
          <ns3:TrackPointExtension>
            <ns3:atemp>15.0</ns3:atemp>
            <ns3:hr>142</ns3:hr>
          </ns3:TrackPointExtension>
        </extensions>
      </trkpt>
      <trkpt lat="-22.0513165555894374847412109375" lon="166.45111058838665485382080078125">
        <ele>872.20001220703125</ele>
        <time>2016-08-12T19:17:21.000Z</time>
        <extensions>
          <ns3:TrackPointExtension>
            <ns3:atemp>15.0</ns3:atemp>
            <ns3:hr>142</ns3:hr>
          </ns3:TrackPointExtension>
        </extensions>
      </trkpt>
      <trkpt lat="-22.0512940920889377593994140625" lon="166.45111410878598690032958984375">
        <ele>872.5999755859375</ele>
        <time>2016-08-12T19:17:22.000Z</time>
        <extensions>
          <ns3:TrackPointExtension>
            <ns3:atemp>15.0</ns3:atemp>
            <ns3:hr>142</ns3:hr>
          </ns3:TrackPointExtension>
        </extensions>
      </trkpt>
      <trkpt lat="-22.05127288587391376495361328125" lon="166.4511163718998432159423828125">
        <ele>872.79998779296875</ele>
        <time>2016-08-12T19:17:23.000Z</time>
        <extensions>
          <ns3:TrackPointExtension>
            <ns3:atemp>15.0</ns3:atemp>
            <ns3:hr>142</ns3:hr>
          </ns3:TrackPointExtension>
        </extensions>
      </trkpt>
      <trkpt lat="-22.05125008709728717803955078125" lon="166.45112014375627040863037109375">
        <ele>872.79998779296875</ele>
        <time>2016-08-12T19:17:24.000Z</time>
        <extensions>
          <ns3:TrackPointExtension>
            <ns3:atemp>15.0</ns3:atemp>
            <ns3:hr>142</ns3:hr>
          </ns3:TrackPointExtension>
        </extensions>
      </trkpt>
      <trkpt lat="-22.05123030580580234527587890625" lon="166.45112517289817333221435546875">
        <ele>872.79998779296875</ele>
        <time>2016-08-12T19:17:25.000Z</time>
        <extensions>
          <ns3:TrackPointExtension>
            <ns3:atemp>15.0</ns3:atemp>
            <ns3:hr>142</ns3:hr>
          </ns3:TrackPointExtension>
        </extensions>
      </trkpt>
      <trkpt lat="-22.05121052451431751251220703125" lon="166.4511255919933319091796875">
        <ele>873</ele>
        <time>2016-08-12T19:17:26.000Z</time>
        <extensions>
          <ns3:TrackPointExtension>
            <ns3:atemp>15.0</ns3:atemp>
            <ns3:hr>142</ns3:hr>
          </ns3:TrackPointExtension>
        </extensions>
      </trkpt>
      <trkpt lat="-22.051188983023166656494140625" lon="166.451123245060443878173828125">
        <ele>873.20001220703125</ele>
        <time>2016-08-12T19:17:27.000Z</time>
        <extensions>
          <ns3:TrackPointExtension>
            <ns3:atemp>15.0</ns3:atemp>
            <ns3:hr>142</ns3:hr>
          </ns3:TrackPointExtension>
        </extensions>
      </trkpt>
      <trkpt lat="-22.0511683635413646697998046875" lon="166.4511210657656192779541015625">
        <ele>873</ele>
        <time>2016-08-12T19:17:28.000Z</time>
        <extensions>
          <ns3:TrackPointExtension>
            <ns3:atemp>15.0</ns3:atemp>
            <ns3:hr>142</ns3:hr>
          </ns3:TrackPointExtension>
        </extensions>
      </trkpt>
      <trkpt lat="-22.0511469058692455291748046875" lon="166.45112089812755584716796875">
        <ele>873.4000244140625</ele>
        <time>2016-08-12T19:17:29.000Z</time>
        <extensions>
          <ns3:TrackPointExtension>
            <ns3:atemp>15.0</ns3:atemp>
            <ns3:hr>142</ns3:hr>
          </ns3:TrackPointExtension>
        </extensions>
      </trkpt>
      <trkpt lat="-22.051127292215824127197265625" lon="166.45112131722271442413330078125">
        <ele>873.5999755859375</ele>
        <time>2016-08-12T19:17:30.000Z</time>
        <extensions>
          <ns3:TrackPointExtension>
            <ns3:atemp>15.0</ns3:atemp>
            <ns3:hr>141</ns3:hr>
          </ns3:TrackPointExtension>
        </extensions>
      </trkpt>
      <trkpt lat="-22.05111086368560791015625" lon="166.4511197246611118316650390625">
        <ele>873.5999755859375</ele>
        <time>2016-08-12T19:17:31.000Z</time>
        <extensions>
          <ns3:TrackPointExtension>
            <ns3:atemp>15.0</ns3:atemp>
            <ns3:hr>142</ns3:hr>
          </ns3:TrackPointExtension>
        </extensions>
      </trkpt>
      <trkpt lat="-22.0510899089276790618896484375" lon="166.45111260004341602325439453125">
        <ele>874</ele>
        <time>2016-08-12T19:17:32.000Z</time>
        <extensions>
          <ns3:TrackPointExtension>
            <ns3:atemp>15.0</ns3:atemp>
            <ns3:hr>141</ns3:hr>
          </ns3:TrackPointExtension>
        </extensions>
      </trkpt>
      <trkpt lat="-22.05106836743652820587158203125" lon="166.451104469597339630126953125">
        <ele>874</ele>
        <time>2016-08-12T19:17:33.000Z</time>
        <extensions>
          <ns3:TrackPointExtension>
            <ns3:atemp>15.0</ns3:atemp>
            <ns3:hr>141</ns3:hr>
          </ns3:TrackPointExtension>
        </extensions>
      </trkpt>
      <trkpt lat="-22.0510483346879482269287109375" lon="166.45110078155994415283203125">
        <ele>874</ele>
        <time>2016-08-12T19:17:34.000Z</time>
        <extensions>
          <ns3:TrackPointExtension>
            <ns3:atemp>15.0</ns3:atemp>
            <ns3:hr>141</ns3:hr>
          </ns3:TrackPointExtension>
        </extensions>
      </trkpt>
      <trkpt lat="-22.051027379930019378662109375" lon="166.45109382458031177520751953125">
        <ele>874</ele>
        <time>2016-08-12T19:17:35.000Z</time>
        <extensions>
          <ns3:TrackPointExtension>
            <ns3:atemp>15.0</ns3:atemp>
            <ns3:hr>141</ns3:hr>
          </ns3:TrackPointExtension>
        </extensions>
      </trkpt>
      <trkpt lat="-22.051007263362407684326171875" lon="166.4510835148394107818603515625">
        <ele>874.5999755859375</ele>
        <time>2016-08-12T19:17:36.000Z</time>
        <extensions>
          <ns3:TrackPointExtension>
            <ns3:atemp>15.0</ns3:atemp>
            <ns3:hr>141</ns3:hr>
          </ns3:TrackPointExtension>
        </extensions>
      </trkpt>
      <trkpt lat="-22.050990499556064605712890625" lon="166.45107052288949489593505859375">
        <ele>874.5999755859375</ele>
        <time>2016-08-12T19:17:37.000Z</time>
        <extensions>
          <ns3:TrackPointExtension>
            <ns3:atemp>15.0</ns3:atemp>
            <ns3:hr>141</ns3:hr>
          </ns3:TrackPointExtension>
        </extensions>
      </trkpt>
      <trkpt lat="-22.05097080208361148834228515625" lon="166.4510600455105304718017578125">
        <ele>874.5999755859375</ele>
        <time>2016-08-12T19:17:38.000Z</time>
        <extensions>
          <ns3:TrackPointExtension>
            <ns3:atemp>15.0</ns3:atemp>
            <ns3:hr>141</ns3:hr>
          </ns3:TrackPointExtension>
        </extensions>
      </trkpt>
      <trkpt lat="-22.0509534515440464019775390625" lon="166.45105392672121524810791015625">
        <ele>874.79998779296875</ele>
        <time>2016-08-12T19:17:39.000Z</time>
        <extensions>
          <ns3:TrackPointExtension>
            <ns3:atemp>15.0</ns3:atemp>
            <ns3:hr>141</ns3:hr>
          </ns3:TrackPointExtension>
        </extensions>
      </trkpt>
      <trkpt lat="-22.05093408934772014617919921875" lon="166.4510451257228851318359375">
        <ele>875.20001220703125</ele>
        <time>2016-08-12T19:17:40.000Z</time>
        <extensions>
          <ns3:TrackPointExtension>
            <ns3:atemp>15.0</ns3:atemp>
            <ns3:hr>140</ns3:hr>
          </ns3:TrackPointExtension>
        </extensions>
      </trkpt>
      <trkpt lat="-22.05091984011232852935791015625" lon="166.4510379172861576080322265625">
        <ele>875.20001220703125</ele>
        <time>2016-08-12T19:17:41.000Z</time>
        <extensions>
          <ns3:TrackPointExtension>
            <ns3:atemp>15.0</ns3:atemp>
            <ns3:hr>140</ns3:hr>
          </ns3:TrackPointExtension>
        </extensions>
      </trkpt>
      <trkpt lat="-22.05090701580047607421875" lon="166.45102861337363719940185546875">
        <ele>875.20001220703125</ele>
        <time>2016-08-12T19:17:42.000Z</time>
        <extensions>
          <ns3:TrackPointExtension>
            <ns3:atemp>15.0</ns3:atemp>
            <ns3:hr>140</ns3:hr>
          </ns3:TrackPointExtension>
        </extensions>
      </trkpt>
      <trkpt lat="-22.05089234746992588043212890625" lon="166.45101536996662616729736328125">
        <ele>875.20001220703125</ele>
        <time>2016-08-12T19:17:43.000Z</time>
        <extensions>
          <ns3:TrackPointExtension>
            <ns3:atemp>15.0</ns3:atemp>
            <ns3:hr>140</ns3:hr>
          </ns3:TrackPointExtension>
        </extensions>
      </trkpt>
      <trkpt lat="-22.0508796907961368560791015625" lon="166.45100262947380542755126953125">
        <ele>876</ele>
        <time>2016-08-12T19:17:44.000Z</time>
        <extensions>
          <ns3:TrackPointExtension>
            <ns3:atemp>15.0</ns3:atemp>
            <ns3:hr>140</ns3:hr>
          </ns3:TrackPointExtension>
        </extensions>
      </trkpt>
      <trkpt lat="-22.05085915513336658477783203125" lon="166.45098988898098468780517578125">
        <ele>876.20001220703125</ele>
        <time>2016-08-12T19:17:45.000Z</time>
        <extensions>
          <ns3:TrackPointExtension>
            <ns3:atemp>15.0</ns3:atemp>
            <ns3:hr>140</ns3:hr>
          </ns3:TrackPointExtension>
        </extensions>
      </trkpt>
      <trkpt lat="-22.05084373243153095245361328125" lon="166.45097463391721248626708984375">
        <ele>876.20001220703125</ele>
        <time>2016-08-12T19:17:46.000Z</time>
        <extensions>
          <ns3:TrackPointExtension>
            <ns3:atemp>15.0</ns3:atemp>
            <ns3:hr>139</ns3:hr>
          </ns3:TrackPointExtension>
        </extensions>
      </trkpt>
      <trkpt lat="-22.05083258450031280517578125" lon="166.4509571157395839691162109375">
        <ele>876.4000244140625</ele>
        <time>2016-08-12T19:17:47.000Z</time>
        <extensions>
          <ns3:TrackPointExtension>
            <ns3:atemp>15.0</ns3:atemp>
            <ns3:hr>139</ns3:hr>
          </ns3:TrackPointExtension>
        </extensions>
      </trkpt>
      <trkpt lat="-22.05081892199814319610595703125" lon="166.45094387233257293701171875">
        <ele>877</ele>
        <time>2016-08-12T19:17:48.000Z</time>
        <extensions>
          <ns3:TrackPointExtension>
            <ns3:atemp>15.0</ns3:atemp>
            <ns3:hr>139</ns3:hr>
          </ns3:TrackPointExtension>
        </extensions>
      </trkpt>
      <trkpt lat="-22.0508052594959735870361328125" lon="166.45092970691621303558349609375">
        <ele>877</ele>
        <time>2016-08-12T19:17:49.000Z</time>
        <extensions>
          <ns3:TrackPointExtension>
            <ns3:atemp>15.0</ns3:atemp>
            <ns3:hr>140</ns3:hr>
          </ns3:TrackPointExtension>
        </extensions>
      </trkpt>
      <trkpt lat="-22.050785981118679046630859375" lon="166.45091445185244083404541015625">
        <ele>877</ele>
        <time>2016-08-12T19:17:50.000Z</time>
        <extensions>
          <ns3:TrackPointExtension>
            <ns3:atemp>15.0</ns3:atemp>
            <ns3:hr>139</ns3:hr>
          </ns3:TrackPointExtension>
        </extensions>
      </trkpt>
      <trkpt lat="-22.05076812766492366790771484375" lon="166.450901962816715240478515625">
        <ele>877.20001220703125</ele>
        <time>2016-08-12T19:17:51.000Z</time>
        <extensions>
          <ns3:TrackPointExtension>
            <ns3:atemp>15.0</ns3:atemp>
            <ns3:hr>140</ns3:hr>
          </ns3:TrackPointExtension>
        </extensions>
      </trkpt>
      <trkpt lat="-22.05074951983988285064697265625" lon="166.45088997669517993927001953125">
        <ele>877.5999755859375</ele>
        <time>2016-08-12T19:17:52.000Z</time>
        <extensions>
          <ns3:TrackPointExtension>
            <ns3:atemp>15.0</ns3:atemp>
            <ns3:hr>140</ns3:hr>
          </ns3:TrackPointExtension>
        </extensions>
      </trkpt>
      <trkpt lat="-22.05072890035808086395263671875" lon="166.45087505690753459930419921875">
        <ele>877.79998779296875</ele>
        <time>2016-08-12T19:17:53.000Z</time>
        <extensions>
          <ns3:TrackPointExtension>
            <ns3:atemp>15.0</ns3:atemp>
            <ns3:hr>140</ns3:hr>
          </ns3:TrackPointExtension>
        </extensions>
      </trkpt>
      <trkpt lat="-22.0507090352475643157958984375" lon="166.45086340606212615966796875">
        <ele>877.79998779296875</ele>
        <time>2016-08-12T19:17:54.000Z</time>
        <extensions>
          <ns3:TrackPointExtension>
            <ns3:atemp>15.0</ns3:atemp>
            <ns3:hr>140</ns3:hr>
          </ns3:TrackPointExtension>
        </extensions>
      </trkpt>
      <trkpt lat="-22.05068799667060375213623046875" lon="166.45084999501705169677734375">
        <ele>877.79998779296875</ele>
        <time>2016-08-12T19:17:55.000Z</time>
        <extensions>
          <ns3:TrackPointExtension>
            <ns3:atemp>15.0</ns3:atemp>
            <ns3:hr>140</ns3:hr>
          </ns3:TrackPointExtension>
        </extensions>
      </trkpt>
      <trkpt lat="-22.05066469497978687286376953125" lon="166.45083951763808727264404296875">
        <ele>878.20001220703125</ele>
        <time>2016-08-12T19:17:56.000Z</time>
        <extensions>
          <ns3:TrackPointExtension>
            <ns3:atemp>15.0</ns3:atemp>
            <ns3:hr>140</ns3:hr>
          </ns3:TrackPointExtension>
        </extensions>
      </trkpt>
      <trkpt lat="-22.05064608715474605560302734375" lon="166.45083063282072544097900390625">
        <ele>878.20001220703125</ele>
        <time>2016-08-12T19:17:57.000Z</time>
        <extensions>
          <ns3:TrackPointExtension>
            <ns3:atemp>15.0</ns3:atemp>
            <ns3:hr>140</ns3:hr>
          </ns3:TrackPointExtension>
        </extensions>
      </trkpt>
      <trkpt lat="-22.05062513239681720733642578125" lon="166.450818479061126708984375">
        <ele>878.20001220703125</ele>
        <time>2016-08-12T19:17:58.000Z</time>
        <extensions>
          <ns3:TrackPointExtension>
            <ns3:atemp>15.0</ns3:atemp>
            <ns3:hr>140</ns3:hr>
          </ns3:TrackPointExtension>
        </extensions>
      </trkpt>
      <trkpt lat="-22.0506052672863006591796875" lon="166.45080850459635257720947265625">
        <ele>878.4000244140625</ele>
        <time>2016-08-12T19:17:59.000Z</time>
        <extensions>
          <ns3:TrackPointExtension>
            <ns3:atemp>15.0</ns3:atemp>
            <ns3:hr>140</ns3:hr>
          </ns3:TrackPointExtension>
        </extensions>
      </trkpt>
      <trkpt lat="-22.05058640800416469573974609375" lon="166.45079392008483409881591796875">
        <ele>878.79998779296875</ele>
        <time>2016-08-12T19:18:00.000Z</time>
        <extensions>
          <ns3:TrackPointExtension>
            <ns3:atemp>15.0</ns3:atemp>
            <ns3:hr>139</ns3:hr>
          </ns3:TrackPointExtension>
        </extensions>
      </trkpt>
      <trkpt lat="-22.05056645907461643218994140625" lon="166.45078050903975963592529296875">
        <ele>878.79998779296875</ele>
        <time>2016-08-12T19:18:01.000Z</time>
        <extensions>
          <ns3:TrackPointExtension>
            <ns3:atemp>15.0</ns3:atemp>
            <ns3:hr>140</ns3:hr>
          </ns3:TrackPointExtension>
        </extensions>
      </trkpt>
      <trkpt lat="-22.0505491085350513458251953125" lon="166.4507686905562877655029296875">
        <ele>878.79998779296875</ele>
        <time>2016-08-12T19:18:02.000Z</time>
        <extensions>
          <ns3:TrackPointExtension>
            <ns3:atemp>15.0</ns3:atemp>
            <ns3:hr>140</ns3:hr>
          </ns3:TrackPointExtension>
        </extensions>
      </trkpt>
      <trkpt lat="-22.05053175799548625946044921875" lon="166.4507546089589595794677734375">
        <ele>879.20001220703125</ele>
        <time>2016-08-12T19:18:03.000Z</time>
        <extensions>
          <ns3:TrackPointExtension>
            <ns3:atemp>15.0</ns3:atemp>
            <ns3:hr>140</ns3:hr>
          </ns3:TrackPointExtension>
        </extensions>
      </trkpt>
      <trkpt lat="-22.0505149103701114654541015625" lon="166.45074312575161457061767578125">
        <ele>879.20001220703125</ele>
        <time>2016-08-12T19:18:04.000Z</time>
        <extensions>
          <ns3:TrackPointExtension>
            <ns3:atemp>15.0</ns3:atemp>
            <ns3:hr>140</ns3:hr>
          </ns3:TrackPointExtension>
        </extensions>
      </trkpt>
      <trkpt lat="-22.0505018346011638641357421875" lon="166.4507301338016986846923828125">
        <ele>879.20001220703125</ele>
        <time>2016-08-12T19:18:05.000Z</time>
        <extensions>
          <ns3:TrackPointExtension>
            <ns3:atemp>15.0</ns3:atemp>
            <ns3:hr>139</ns3:hr>
          </ns3:TrackPointExtension>
        </extensions>
      </trkpt>
      <trkpt lat="-22.05048565752804279327392578125" lon="166.45071697421371936798095703125">
        <ele>879.5999755859375</ele>
        <time>2016-08-12T19:18:06.000Z</time>
        <extensions>
          <ns3:TrackPointExtension>
            <ns3:atemp>15.0</ns3:atemp>
            <ns3:hr>139</ns3:hr>
          </ns3:TrackPointExtension>
        </extensions>
      </trkpt>
      <trkpt lat="-22.0504711568355560302734375" lon="166.4507059939205646514892578125">
        <ele>879.79998779296875</ele>
        <time>2016-08-12T19:18:07.000Z</time>
        <extensions>
          <ns3:TrackPointExtension>
            <ns3:atemp>15.0</ns3:atemp>
            <ns3:hr>140</ns3:hr>
          </ns3:TrackPointExtension>
        </extensions>
      </trkpt>
      <trkpt lat="-22.05045883543789386749267578125" lon="166.45069333724677562713623046875">
        <ele>879.79998779296875</ele>
        <time>2016-08-12T19:18:08.000Z</time>
        <extensions>
          <ns3:TrackPointExtension>
            <ns3:atemp>15.0</ns3:atemp>
            <ns3:hr>139</ns3:hr>
          </ns3:TrackPointExtension>
        </extensions>
      </trkpt>
      <trkpt lat="-22.05044567584991455078125" lon="166.45067674107849597930908203125">
        <ele>880</ele>
        <time>2016-08-12T19:18:09.000Z</time>
        <extensions>
          <ns3:TrackPointExtension>
            <ns3:atemp>15.0</ns3:atemp>
            <ns3:hr>140</ns3:hr>
          </ns3:TrackPointExtension>
        </extensions>
      </trkpt>
      <trkpt lat="-22.05043494701385498046875" lon="166.4506654255092144012451171875">
        <ele>880.4000244140625</ele>
        <time>2016-08-12T19:18:10.000Z</time>
        <extensions>
          <ns3:TrackPointExtension>
            <ns3:atemp>15.0</ns3:atemp>
            <ns3:hr>139</ns3:hr>
          </ns3:TrackPointExtension>
        </extensions>
      </trkpt>
      <trkpt lat="-22.0504260621964931488037109375" lon="166.4506526850163936614990234375">
        <ele>880.4000244140625</ele>
        <time>2016-08-12T19:18:11.000Z</time>
        <extensions>
          <ns3:TrackPointExtension>
            <ns3:atemp>15.0</ns3:atemp>
            <ns3:hr>139</ns3:hr>
          </ns3:TrackPointExtension>
        </extensions>
      </trkpt>
      <trkpt lat="-22.05041684210300445556640625" lon="166.45063944160938262939453125">
        <ele>880.5999755859375</ele>
        <time>2016-08-12T19:18:12.000Z</time>
        <extensions>
          <ns3:TrackPointExtension>
            <ns3:atemp>15.0</ns3:atemp>
            <ns3:hr>140</ns3:hr>
          </ns3:TrackPointExtension>
        </extensions>
      </trkpt>
      <trkpt lat="-22.05041206441819667816162109375" lon="166.4506218396127223968505859375">
        <ele>880.79998779296875</ele>
        <time>2016-08-12T19:18:13.000Z</time>
        <extensions>
          <ns3:TrackPointExtension>
            <ns3:atemp>15.0</ns3:atemp>
            <ns3:hr>139</ns3:hr>
          </ns3:TrackPointExtension>
        </extensions>
      </trkpt>
      <trkpt lat="-22.05040468834340572357177734375" lon="166.45060683600604534149169921875">
        <ele>881</ele>
        <time>2016-08-12T19:18:14.000Z</time>
        <extensions>
          <ns3:TrackPointExtension>
            <ns3:atemp>15.0</ns3:atemp>
            <ns3:hr>139</ns3:hr>
          </ns3:TrackPointExtension>
        </extensions>
      </trkpt>
      <trkpt lat="-22.05039379186928272247314453125" lon="166.4505909942090511322021484375">
        <ele>881</ele>
        <time>2016-08-12T19:18:15.000Z</time>
        <extensions>
          <ns3:TrackPointExtension>
            <ns3:atemp>15.0</ns3:atemp>
            <ns3:hr>140</ns3:hr>
          </ns3:TrackPointExtension>
        </extensions>
      </trkpt>
      <trkpt lat="-22.05038490705192089080810546875" lon="166.45057640969753265380859375">
        <ele>881</ele>
        <time>2016-08-12T19:18:16.000Z</time>
        <extensions>
          <ns3:TrackPointExtension>
            <ns3:atemp>15.0</ns3:atemp>
            <ns3:hr>140</ns3:hr>
          </ns3:TrackPointExtension>
        </extensions>
      </trkpt>
      <trkpt lat="-22.05037820152938365936279296875" lon="166.450563333928585052490234375">
        <ele>881.20001220703125</ele>
        <time>2016-08-12T19:18:17.000Z</time>
        <extensions>
          <ns3:TrackPointExtension>
            <ns3:atemp>15.0</ns3:atemp>
            <ns3:hr>139</ns3:hr>
          </ns3:TrackPointExtension>
        </extensions>
      </trkpt>
      <trkpt lat="-22.05036613158881664276123046875" lon="166.4505489170551300048828125">
        <ele>881.4000244140625</ele>
        <time>2016-08-12T19:18:18.000Z</time>
        <extensions>
          <ns3:TrackPointExtension>
            <ns3:atemp>15.0</ns3:atemp>
            <ns3:hr>139</ns3:hr>
          </ns3:TrackPointExtension>
        </extensions>
      </trkpt>
      <trkpt lat="-22.0503546483814716339111328125" lon="166.4505333267152309417724609375">
        <ele>881.4000244140625</ele>
        <time>2016-08-12T19:18:19.000Z</time>
        <extensions>
          <ns3:TrackPointExtension>
            <ns3:atemp>15.0</ns3:atemp>
            <ns3:hr>139</ns3:hr>
          </ns3:TrackPointExtension>
        </extensions>
      </trkpt>
      <trkpt lat="-22.050347439944744110107421875" lon="166.45051564089953899383544921875">
        <ele>881.5999755859375</ele>
        <time>2016-08-12T19:18:20.000Z</time>
        <extensions>
          <ns3:TrackPointExtension>
            <ns3:atemp>15.0</ns3:atemp>
            <ns3:hr>139</ns3:hr>
          </ns3:TrackPointExtension>
        </extensions>
      </trkpt>
      <trkpt lat="-22.050340063869953155517578125" lon="166.45050055347383022308349609375">
        <ele>881.5999755859375</ele>
        <time>2016-08-12T19:18:21.000Z</time>
        <extensions>
          <ns3:TrackPointExtension>
            <ns3:atemp>15.0</ns3:atemp>
            <ns3:hr>139</ns3:hr>
          </ns3:TrackPointExtension>
        </extensions>
      </trkpt>
      <trkpt lat="-22.05032506026327610015869140625" lon="166.4504853822290897369384765625">
        <ele>881.79998779296875</ele>
        <time>2016-08-12T19:18:22.000Z</time>
        <extensions>
          <ns3:TrackPointExtension>
            <ns3:atemp>15.0</ns3:atemp>
            <ns3:hr>139</ns3:hr>
          </ns3:TrackPointExtension>
        </extensions>
      </trkpt>
      <trkpt lat="-22.05031366087496280670166015625" lon="166.45046970807015895843505859375">
        <ele>881.79998779296875</ele>
        <time>2016-08-12T19:18:23.000Z</time>
        <extensions>
          <ns3:TrackPointExtension>
            <ns3:atemp>15.0</ns3:atemp>
            <ns3:hr>139</ns3:hr>
          </ns3:TrackPointExtension>
        </extensions>
      </trkpt>
      <trkpt lat="-22.05030611716210842132568359375" lon="166.4504555426537990570068359375">
        <ele>881.79998779296875</ele>
        <time>2016-08-12T19:18:24.000Z</time>
        <extensions>
          <ns3:TrackPointExtension>
            <ns3:atemp>15.0</ns3:atemp>
            <ns3:hr>139</ns3:hr>
          </ns3:TrackPointExtension>
        </extensions>
      </trkpt>
      <trkpt lat="-22.05029069446027278900146484375" lon="166.45044498145580291748046875">
        <ele>882.20001220703125</ele>
        <time>2016-08-12T19:18:25.000Z</time>
        <extensions>
          <ns3:TrackPointExtension>
            <ns3:atemp>15.0</ns3:atemp>
            <ns3:hr>140</ns3:hr>
          </ns3:TrackPointExtension>
        </extensions>
      </trkpt>
      <trkpt lat="-22.05027678050100803375244140625" lon="166.450433246791362762451171875">
        <ele>882.4000244140625</ele>
        <time>2016-08-12T19:18:26.000Z</time>
        <extensions>
          <ns3:TrackPointExtension>
            <ns3:atemp>15.0</ns3:atemp>
            <ns3:hr>139</ns3:hr>
          </ns3:TrackPointExtension>
        </extensions>
      </trkpt>
      <trkpt lat="-22.05026253126561641693115234375" lon="166.45042109303176403045654296875">
        <ele>882.5999755859375</ele>
        <time>2016-08-12T19:18:27.000Z</time>
        <extensions>
          <ns3:TrackPointExtension>
            <ns3:atemp>15.0</ns3:atemp>
            <ns3:hr>139</ns3:hr>
          </ns3:TrackPointExtension>
        </extensions>
      </trkpt>
      <trkpt lat="-22.0502533949911594390869140625" lon="166.4504059217870235443115234375">
        <ele>883</ele>
        <time>2016-08-12T19:18:28.000Z</time>
        <extensions>
          <ns3:TrackPointExtension>
            <ns3:atemp>15.0</ns3:atemp>
            <ns3:hr>139</ns3:hr>
          </ns3:TrackPointExtension>
        </extensions>
      </trkpt>
      <trkpt lat="-22.05024476163089275360107421875" lon="166.4503901638090610504150390625">
        <ele>883.20001220703125</ele>
        <time>2016-08-12T19:18:29.000Z</time>
        <extensions>
          <ns3:TrackPointExtension>
            <ns3:atemp>15.0</ns3:atemp>
            <ns3:hr>140</ns3:hr>
          </ns3:TrackPointExtension>
        </extensions>
      </trkpt>
      <trkpt lat="-22.0502359606325626373291015625" lon="166.45037524402141571044921875">
        <ele>883.4000244140625</ele>
        <time>2016-08-12T19:18:30.000Z</time>
        <extensions>
          <ns3:TrackPointExtension>
            <ns3:atemp>15.0</ns3:atemp>
            <ns3:hr>139</ns3:hr>
          </ns3:TrackPointExtension>
        </extensions>
      </trkpt>
      <trkpt lat="-22.050225734710693359375" lon="166.45035889931023120880126953125">
        <ele>883.5999755859375</ele>
        <time>2016-08-12T19:18:31.000Z</time>
        <extensions>
          <ns3:TrackPointExtension>
            <ns3:atemp>15.0</ns3:atemp>
            <ns3:hr>139</ns3:hr>
          </ns3:TrackPointExtension>
        </extensions>
      </trkpt>
      <trkpt lat="-22.05021056346595287322998046875" lon="166.4503455720841884613037109375">
        <ele>883.5999755859375</ele>
        <time>2016-08-12T19:18:32.000Z</time>
        <extensions>
          <ns3:TrackPointExtension>
            <ns3:atemp>15.0</ns3:atemp>
            <ns3:hr>139</ns3:hr>
          </ns3:TrackPointExtension>
        </extensions>
      </trkpt>
      <trkpt lat="-22.05019983462989330291748046875" lon="166.45033341832458972930908203125">
        <ele>883.5999755859375</ele>
        <time>2016-08-12T19:18:33.000Z</time>
        <extensions>
          <ns3:TrackPointExtension>
            <ns3:atemp>15.0</ns3:atemp>
            <ns3:hr>140</ns3:hr>
          </ns3:TrackPointExtension>
        </extensions>
      </trkpt>
      <trkpt lat="-22.050190530717372894287109375" lon="166.45031983964145183563232421875">
        <ele>884</ele>
        <time>2016-08-12T19:18:34.000Z</time>
        <extensions>
          <ns3:TrackPointExtension>
            <ns3:atemp>15.0</ns3:atemp>
            <ns3:hr>140</ns3:hr>
          </ns3:TrackPointExtension>
        </extensions>
      </trkpt>
      <trkpt lat="-22.0501814782619476318359375" lon="166.450303159654140472412109375">
        <ele>884</ele>
        <time>2016-08-12T19:18:35.000Z</time>
        <extensions>
          <ns3:TrackPointExtension>
            <ns3:atemp>15.0</ns3:atemp>
            <ns3:hr>139</ns3:hr>
          </ns3:TrackPointExtension>
        </extensions>
      </trkpt>
      <trkpt lat="-22.05017007887363433837890625" lon="166.45028807222843170166015625">
        <ele>884.20001220703125</ele>
        <time>2016-08-12T19:18:36.000Z</time>
        <extensions>
          <ns3:TrackPointExtension>
            <ns3:atemp>15.0</ns3:atemp>
            <ns3:hr>140</ns3:hr>
          </ns3:TrackPointExtension>
        </extensions>
      </trkpt>
      <trkpt lat="-22.0501618646085262298583984375" lon="166.4502724818885326385498046875">
        <ele>884.5999755859375</ele>
        <time>2016-08-12T19:18:37.000Z</time>
        <extensions>
          <ns3:TrackPointExtension>
            <ns3:atemp>15.0</ns3:atemp>
            <ns3:hr>140</ns3:hr>
          </ns3:TrackPointExtension>
        </extensions>
      </trkpt>
      <trkpt lat="-22.0501518063247203826904296875" lon="166.45025479607284069061279296875">
        <ele>884.79998779296875</ele>
        <time>2016-08-12T19:18:38.000Z</time>
        <extensions>
          <ns3:TrackPointExtension>
            <ns3:atemp>15.0</ns3:atemp>
            <ns3:hr>140</ns3:hr>
          </ns3:TrackPointExtension>
        </extensions>
      </trkpt>
      <trkpt lat="-22.05014451406896114349365234375" lon="166.45023635588586330413818359375">
        <ele>884.79998779296875</ele>
        <time>2016-08-12T19:18:39.000Z</time>
        <extensions>
          <ns3:TrackPointExtension>
            <ns3:atemp>15.0</ns3:atemp>
            <ns3:hr>140</ns3:hr>
          </ns3:TrackPointExtension>
        </extensions>
      </trkpt>
      <trkpt lat="-22.05014350824058055877685546875" lon="166.4502158202230930328369140625">
        <ele>885.20001220703125</ele>
        <time>2016-08-12T19:18:40.000Z</time>
        <extensions>
          <ns3:TrackPointExtension>
            <ns3:atemp>15.0</ns3:atemp>
            <ns3:hr>140</ns3:hr>
          </ns3:TrackPointExtension>
        </extensions>
      </trkpt>
      <trkpt lat="-22.05013898201286792755126953125" lon="166.45019679330289363861083984375">
        <ele>885.20001220703125</ele>
        <time>2016-08-12T19:18:41.000Z</time>
        <extensions>
          <ns3:TrackPointExtension>
            <ns3:atemp>15.0</ns3:atemp>
            <ns3:hr>140</ns3:hr>
          </ns3:TrackPointExtension>
        </extensions>
      </trkpt>
      <trkpt lat="-22.0501357130706310272216796875" lon="166.4501782692968845367431640625">
        <ele>885.4000244140625</ele>
        <time>2016-08-12T19:18:42.000Z</time>
        <extensions>
          <ns3:TrackPointExtension>
            <ns3:atemp>15.0</ns3:atemp>
            <ns3:hr>140</ns3:hr>
          </ns3:TrackPointExtension>
        </extensions>
      </trkpt>
      <trkpt lat="-22.0501293428242206573486328125" lon="166.450159661471843719482421875">
        <ele>885.79998779296875</ele>
        <time>2016-08-12T19:18:43.000Z</time>
        <extensions>
          <ns3:TrackPointExtension>
            <ns3:atemp>15.0</ns3:atemp>
            <ns3:hr>139</ns3:hr>
          </ns3:TrackPointExtension>
        </extensions>
      </trkpt>
      <trkpt lat="-22.05012070946395397186279296875" lon="166.4501439034938812255859375">
        <ele>886</ele>
        <time>2016-08-12T19:18:44.000Z</time>
        <extensions>
          <ns3:TrackPointExtension>
            <ns3:atemp>15.0</ns3:atemp>
            <ns3:hr>140</ns3:hr>
          </ns3:TrackPointExtension>
        </extensions>
      </trkpt>
      <trkpt lat="-22.0501159317791461944580078125" lon="166.450126804411411285400390625">
        <ele>886</ele>
        <time>2016-08-12T19:18:45.000Z</time>
        <extensions>
          <ns3:TrackPointExtension>
            <ns3:atemp>15.0</ns3:atemp>
            <ns3:hr>140</ns3:hr>
          </ns3:TrackPointExtension>
        </extensions>
      </trkpt>
      <trkpt lat="-22.05010947771370410919189453125" lon="166.45010769367218017578125">
        <ele>886.20001220703125</ele>
        <time>2016-08-12T19:18:46.000Z</time>
        <extensions>
          <ns3:TrackPointExtension>
            <ns3:atemp>15.0</ns3:atemp>
            <ns3:hr>139</ns3:hr>
          </ns3:TrackPointExtension>
        </extensions>
      </trkpt>
      <trkpt lat="-22.050099335610866546630859375" lon="166.45008933730423450469970703125">
        <ele>886.4000244140625</ele>
        <time>2016-08-12T19:18:47.000Z</time>
        <extensions>
          <ns3:TrackPointExtension>
            <ns3:atemp>15.0</ns3:atemp>
            <ns3:hr>140</ns3:hr>
          </ns3:TrackPointExtension>
        </extensions>
      </trkpt>
      <trkpt lat="-22.0500881038606166839599609375" lon="166.45007207058370113372802734375">
        <ele>886.4000244140625</ele>
        <time>2016-08-12T19:18:48.000Z</time>
        <extensions>
          <ns3:TrackPointExtension>
            <ns3:atemp>15.0</ns3:atemp>
            <ns3:hr>140</ns3:hr>
          </ns3:TrackPointExtension>
        </extensions>
      </trkpt>
      <trkpt lat="-22.05007360316812992095947265625" lon="166.4500545524060726165771484375">
        <ele>886.4000244140625</ele>
        <time>2016-08-12T19:18:49.000Z</time>
        <extensions>
          <ns3:TrackPointExtension>
            <ns3:atemp>15.0</ns3:atemp>
            <ns3:hr>140</ns3:hr>
          </ns3:TrackPointExtension>
        </extensions>
      </trkpt>
      <trkpt lat="-22.05005985684692859649658203125" lon="166.45003787241876125335693359375">
        <ele>886.79998779296875</ele>
        <time>2016-08-12T19:18:50.000Z</time>
        <extensions>
          <ns3:TrackPointExtension>
            <ns3:atemp>15.0</ns3:atemp>
            <ns3:hr>140</ns3:hr>
          </ns3:TrackPointExtension>
        </extensions>
      </trkpt>
      <trkpt lat="-22.0500458590686321258544921875" lon="166.4500206895172595977783203125">
        <ele>887</ele>
        <time>2016-08-12T19:18:51.000Z</time>
        <extensions>
          <ns3:TrackPointExtension>
            <ns3:atemp>15.0</ns3:atemp>
            <ns3:hr>139</ns3:hr>
          </ns3:TrackPointExtension>
        </extensions>
      </trkpt>
      <trkpt lat="-22.050028927624225616455078125" lon="166.450003422796726226806640625">
        <ele>886.79998779296875</ele>
        <time>2016-08-12T19:18:52.000Z</time>
        <extensions>
          <ns3:TrackPointExtension>
            <ns3:atemp>15.0</ns3:atemp>
            <ns3:hr>140</ns3:hr>
          </ns3:TrackPointExtension>
        </extensions>
      </trkpt>
      <trkpt lat="-22.050011157989501953125" lon="166.44998623989522457122802734375">
        <ele>887.20001220703125</ele>
        <time>2016-08-12T19:18:53.000Z</time>
        <extensions>
          <ns3:TrackPointExtension>
            <ns3:atemp>15.0</ns3:atemp>
            <ns3:hr>140</ns3:hr>
          </ns3:TrackPointExtension>
        </extensions>
      </trkpt>
      <trkpt lat="-22.04999498091638088226318359375" lon="166.4499703980982303619384765625">
        <ele>887.4000244140625</ele>
        <time>2016-08-12T19:18:54.000Z</time>
        <extensions>
          <ns3:TrackPointExtension>
            <ns3:atemp>15.0</ns3:atemp>
            <ns3:hr>139</ns3:hr>
          </ns3:TrackPointExtension>
        </extensions>
      </trkpt>
      <trkpt lat="-22.04998098313808441162109375" lon="166.44995103590190410614013671875">
        <ele>887.20001220703125</ele>
        <time>2016-08-12T19:18:55.000Z</time>
        <extensions>
          <ns3:TrackPointExtension>
            <ns3:atemp>15.0</ns3:atemp>
            <ns3:hr>140</ns3:hr>
          </ns3:TrackPointExtension>
        </extensions>
      </trkpt>
      <trkpt lat="-22.049965225160121917724609375" lon="166.449933014810085296630859375">
        <ele>887.5999755859375</ele>
        <time>2016-08-12T19:18:56.000Z</time>
        <extensions>
          <ns3:TrackPointExtension>
            <ns3:atemp>15.0</ns3:atemp>
            <ns3:hr>140</ns3:hr>
          </ns3:TrackPointExtension>
        </extensions>
      </trkpt>
      <trkpt lat="-22.04995156265795230865478515625" lon="166.449912898242473602294921875">
        <ele>887.79998779296875</ele>
        <time>2016-08-12T19:18:57.000Z</time>
        <extensions>
          <ns3:TrackPointExtension>
            <ns3:atemp>15.0</ns3:atemp>
            <ns3:hr>140</ns3:hr>
          </ns3:TrackPointExtension>
        </extensions>
      </trkpt>
      <trkpt lat="-22.049939744174480438232421875" lon="166.44989487715065479278564453125">
        <ele>887.5999755859375</ele>
        <time>2016-08-12T19:18:58.000Z</time>
        <extensions>
          <ns3:TrackPointExtension>
            <ns3:atemp>15.0</ns3:atemp>
            <ns3:hr>139</ns3:hr>
          </ns3:TrackPointExtension>
        </extensions>
      </trkpt>
      <trkpt lat="-22.04993077553808689117431640625" lon="166.44987693987786769866943359375">
        <ele>887.79998779296875</ele>
        <time>2016-08-12T19:18:59.000Z</time>
        <extensions>
          <ns3:TrackPointExtension>
            <ns3:atemp>15.0</ns3:atemp>
            <ns3:hr>139</ns3:hr>
          </ns3:TrackPointExtension>
        </extensions>
      </trkpt>
      <trkpt lat="-22.04991954378783702850341796875" lon="166.44985967315733432769775390625">
        <ele>888.20001220703125</ele>
        <time>2016-08-12T19:19:00.000Z</time>
        <extensions>
          <ns3:TrackPointExtension>
            <ns3:atemp>15.0</ns3:atemp>
            <ns3:hr>140</ns3:hr>
          </ns3:TrackPointExtension>
        </extensions>
      </trkpt>
      <trkpt lat="-22.0499053783714771270751953125" lon="166.44984357990324497222900390625">
        <ele>888.20001220703125</ele>
        <time>2016-08-12T19:19:01.000Z</time>
        <extensions>
          <ns3:TrackPointExtension>
            <ns3:atemp>15.0</ns3:atemp>
            <ns3:hr>139</ns3:hr>
          </ns3:TrackPointExtension>
        </extensions>
      </trkpt>
      <trkpt lat="-22.04988936893641948699951171875" lon="166.449827067553997039794921875">
        <ele>888.20001220703125</ele>
        <time>2016-08-12T19:19:02.000Z</time>
        <extensions>
          <ns3:TrackPointExtension>
            <ns3:atemp>15.0</ns3:atemp>
            <ns3:hr>140</ns3:hr>
          </ns3:TrackPointExtension>
        </extensions>
      </trkpt>
      <trkpt lat="-22.049873359501361846923828125" lon="166.44981089048087596893310546875">
        <ele>888.4000244140625</ele>
        <time>2016-08-12T19:19:03.000Z</time>
        <extensions>
          <ns3:TrackPointExtension>
            <ns3:atemp>15.0</ns3:atemp>
            <ns3:hr>139</ns3:hr>
          </ns3:TrackPointExtension>
        </extensions>
      </trkpt>
      <trkpt lat="-22.04985852353274822235107421875" lon="166.449794881045818328857421875">
        <ele>888.5999755859375</ele>
        <time>2016-08-12T19:19:04.000Z</time>
        <extensions>
          <ns3:TrackPointExtension>
            <ns3:atemp>15.0</ns3:atemp>
            <ns3:hr>139</ns3:hr>
          </ns3:TrackPointExtension>
        </extensions>
      </trkpt>
      <trkpt lat="-22.049839496612548828125" lon="166.44978121854364871978759765625">
        <ele>888.5999755859375</ele>
        <time>2016-08-12T19:19:05.000Z</time>
        <extensions>
          <ns3:TrackPointExtension>
            <ns3:atemp>15.0</ns3:atemp>
            <ns3:hr>139</ns3:hr>
          </ns3:TrackPointExtension>
        </extensions>
      </trkpt>
      <trkpt lat="-22.04982214607298374176025390625" lon="166.4497692324221134185791015625">
        <ele>888.79998779296875</ele>
        <time>2016-08-12T19:19:06.000Z</time>
        <extensions>
          <ns3:TrackPointExtension>
            <ns3:atemp>15.0</ns3:atemp>
            <ns3:hr>139</ns3:hr>
          </ns3:TrackPointExtension>
        </extensions>
      </trkpt>
      <trkpt lat="-22.04980420880019664764404296875" lon="166.449757330119609832763671875">
        <ele>889</ele>
        <time>2016-08-12T19:19:07.000Z</time>
        <extensions>
          <ns3:TrackPointExtension>
            <ns3:atemp>15.0</ns3:atemp>
            <ns3:hr>139</ns3:hr>
          </ns3:TrackPointExtension>
        </extensions>
      </trkpt>
      <trkpt lat="-22.049783505499362945556640625" lon="166.4497447572648525238037109375">
        <ele>889.20001220703125</ele>
        <time>2016-08-12T19:19:08.000Z</time>
        <extensions>
          <ns3:TrackPointExtension>
            <ns3:atemp>15.0</ns3:atemp>
            <ns3:hr>139</ns3:hr>
          </ns3:TrackPointExtension>
        </extensions>
      </trkpt>
      <trkpt lat="-22.0497635565698146820068359375" lon="166.4497313462197780609130859375">
        <ele>889.20001220703125</ele>
        <time>2016-08-12T19:19:09.000Z</time>
        <extensions>
          <ns3:TrackPointExtension>
            <ns3:atemp>15.0</ns3:atemp>
            <ns3:hr>139</ns3:hr>
          </ns3:TrackPointExtension>
        </extensions>
      </trkpt>
      <trkpt lat="-22.0497404225170612335205078125" lon="166.44972070120275020599365234375">
        <ele>889.4000244140625</ele>
        <time>2016-08-12T19:19:10.000Z</time>
        <extensions>
          <ns3:TrackPointExtension>
            <ns3:atemp>15.0</ns3:atemp>
            <ns3:hr>139</ns3:hr>
          </ns3:TrackPointExtension>
        </extensions>
      </trkpt>
      <trkpt lat="-22.04971888102591037750244140625" lon="166.44970930181443691253662109375">
        <ele>889.79998779296875</ele>
        <time>2016-08-12T19:19:11.000Z</time>
        <extensions>
          <ns3:TrackPointExtension>
            <ns3:atemp>15.0</ns3:atemp>
            <ns3:hr>139</ns3:hr>
          </ns3:TrackPointExtension>
        </extensions>
      </trkpt>
      <trkpt lat="-22.04969675280153751373291015625" lon="166.44969999790191650390625">
        <ele>889.79998779296875</ele>
        <time>2016-08-12T19:19:12.000Z</time>
        <extensions>
          <ns3:TrackPointExtension>
            <ns3:atemp>15.0</ns3:atemp>
            <ns3:hr>138</ns3:hr>
          </ns3:TrackPointExtension>
        </extensions>
      </trkpt>
      <trkpt lat="-22.04967655241489410400390625" lon="166.44969119690358638763427734375">
        <ele>889.79998779296875</ele>
        <time>2016-08-12T19:19:13.000Z</time>
        <extensions>
          <ns3:TrackPointExtension>
            <ns3:atemp>15.0</ns3:atemp>
            <ns3:hr>139</ns3:hr>
          </ns3:TrackPointExtension>
        </extensions>
      </trkpt>
      <trkpt lat="-22.049659788608551025390625" lon="166.449683569371700286865234375">
        <ele>890</ele>
        <time>2016-08-12T19:19:14.000Z</time>
        <extensions>
          <ns3:TrackPointExtension>
            <ns3:atemp>15.0</ns3:atemp>
            <ns3:hr>139</ns3:hr>
          </ns3:TrackPointExtension>
        </extensions>
      </trkpt>
      <trkpt lat="-22.04964361153542995452880859375" lon="166.44967510364949703216552734375">
        <ele>890.20001220703125</ele>
        <time>2016-08-12T19:19:15.000Z</time>
        <extensions>
          <ns3:TrackPointExtension>
            <ns3:atemp>15.0</ns3:atemp>
            <ns3:hr>138</ns3:hr>
          </ns3:TrackPointExtension>
        </extensions>
      </trkpt>
      <trkpt lat="-22.049626596271991729736328125" lon="166.449661441147327423095703125">
        <ele>890.20001220703125</ele>
        <time>2016-08-12T19:19:16.000Z</time>
        <extensions>
          <ns3:TrackPointExtension>
            <ns3:atemp>15.0</ns3:atemp>
            <ns3:hr>139</ns3:hr>
          </ns3:TrackPointExtension>
        </extensions>
      </trkpt>
      <trkpt lat="-22.04961008392274379730224609375" lon="166.44964895211160182952880859375">
        <ele>890.4000244140625</ele>
        <time>2016-08-12T19:19:17.000Z</time>
        <extensions>
          <ns3:TrackPointExtension>
            <ns3:atemp>15.0</ns3:atemp>
            <ns3:hr>138</ns3:hr>
          </ns3:TrackPointExtension>
        </extensions>
      </trkpt>
      <trkpt lat="-22.04959767870604991912841796875" lon="166.44963654689490795135498046875">
        <ele>890.4000244140625</ele>
        <time>2016-08-12T19:19:18.000Z</time>
        <extensions>
          <ns3:TrackPointExtension>
            <ns3:atemp>15.0</ns3:atemp>
            <ns3:hr>138</ns3:hr>
          </ns3:TrackPointExtension>
        </extensions>
      </trkpt>
      <trkpt lat="-22.04958275891840457916259765625" lon="166.44962296821177005767822265625">
        <ele>890.4000244140625</ele>
        <time>2016-08-12T19:19:19.000Z</time>
        <extensions>
          <ns3:TrackPointExtension>
            <ns3:atemp>15.0</ns3:atemp>
            <ns3:hr>138</ns3:hr>
          </ns3:TrackPointExtension>
        </extensions>
      </trkpt>
      <trkpt lat="-22.04957001842558383941650390625" lon="166.449608467519283294677734375">
        <ele>890.5999755859375</ele>
        <time>2016-08-12T19:19:20.000Z</time>
        <extensions>
          <ns3:TrackPointExtension>
            <ns3:atemp>15.0</ns3:atemp>
            <ns3:hr>138</ns3:hr>
          </ns3:TrackPointExtension>
        </extensions>
      </trkpt>
      <trkpt lat="-22.049559541046619415283203125" lon="166.449595727026462554931640625">
        <ele>890.4000244140625</ele>
        <time>2016-08-12T19:19:21.000Z</time>
        <extensions>
          <ns3:TrackPointExtension>
            <ns3:atemp>15.0</ns3:atemp>
            <ns3:hr>138</ns3:hr>
          </ns3:TrackPointExtension>
        </extensions>
      </trkpt>
      <trkpt lat="-22.04954445362091064453125" lon="166.44958374090492725372314453125">
        <ele>890.79998779296875</ele>
        <time>2016-08-12T19:19:22.000Z</time>
        <extensions>
          <ns3:TrackPointExtension>
            <ns3:atemp>15.0</ns3:atemp>
            <ns3:hr>138</ns3:hr>
          </ns3:TrackPointExtension>
        </extensions>
      </trkpt>
      <trkpt lat="-22.0495251752436161041259765625" lon="166.4495757780969142913818359375">
        <ele>891</ele>
        <time>2016-08-12T19:19:23.000Z</time>
        <extensions>
          <ns3:TrackPointExtension>
            <ns3:atemp>15.0</ns3:atemp>
            <ns3:hr>138</ns3:hr>
          </ns3:TrackPointExtension>
        </extensions>
      </trkpt>
      <trkpt lat="-22.04950581304728984832763671875" lon="166.44956898875534534454345703125">
        <ele>891</ele>
        <time>2016-08-12T19:19:24.000Z</time>
        <extensions>
          <ns3:TrackPointExtension>
            <ns3:atemp>15.0</ns3:atemp>
            <ns3:hr>138</ns3:hr>
          </ns3:TrackPointExtension>
        </extensions>
      </trkpt>
      <trkpt lat="-22.049485109746456146240234375" lon="166.449562199413776397705078125">
        <ele>891.20001220703125</ele>
        <time>2016-08-12T19:19:25.000Z</time>
        <extensions>
          <ns3:TrackPointExtension>
            <ns3:atemp>15.0</ns3:atemp>
            <ns3:hr>138</ns3:hr>
          </ns3:TrackPointExtension>
        </extensions>
      </trkpt>
      <trkpt lat="-22.04947002232074737548828125" lon="166.4495543204247951507568359375">
        <ele>891.4000244140625</ele>
        <time>2016-08-12T19:19:26.000Z</time>
        <extensions>
          <ns3:TrackPointExtension>
            <ns3:atemp>15.0</ns3:atemp>
            <ns3:hr>138</ns3:hr>
          </ns3:TrackPointExtension>
        </extensions>
      </trkpt>
      <trkpt lat="-22.04945862293243408203125" lon="166.44954250194132328033447265625">
        <ele>891.4000244140625</ele>
        <time>2016-08-12T19:19:27.000Z</time>
        <extensions>
          <ns3:TrackPointExtension>
            <ns3:atemp>15.0</ns3:atemp>
            <ns3:hr>138</ns3:hr>
          </ns3:TrackPointExtension>
        </extensions>
      </trkpt>
      <trkpt lat="-22.049444206058979034423828125" lon="166.4495269954204559326171875">
        <ele>891.79998779296875</ele>
        <time>2016-08-12T19:19:28.000Z</time>
        <extensions>
          <ns3:TrackPointExtension>
            <ns3:atemp>15.0</ns3:atemp>
            <ns3:hr>137</ns3:hr>
          </ns3:TrackPointExtension>
        </extensions>
      </trkpt>
      <trkpt lat="-22.04943121410906314849853515625" lon="166.44951157271862030029296875">
        <ele>892</ele>
        <time>2016-08-12T19:19:29.000Z</time>
        <extensions>
          <ns3:TrackPointExtension>
            <ns3:atemp>15.0</ns3:atemp>
            <ns3:hr>138</ns3:hr>
          </ns3:TrackPointExtension>
        </extensions>
      </trkpt>
      <trkpt lat="-22.04942216165363788604736328125" lon="166.449495144188404083251953125">
        <ele>892</ele>
        <time>2016-08-12T19:19:30.000Z</time>
        <extensions>
          <ns3:TrackPointExtension>
            <ns3:atemp>15.0</ns3:atemp>
            <ns3:hr>138</ns3:hr>
          </ns3:TrackPointExtension>
        </extensions>
      </trkpt>
      <trkpt lat="-22.04941235482692718505859375" lon="166.4494802244007587432861328125">
        <ele>892.4000244140625</ele>
        <time>2016-08-12T19:19:31.000Z</time>
        <extensions>
          <ns3:TrackPointExtension>
            <ns3:atemp>15.0</ns3:atemp>
            <ns3:hr>137</ns3:hr>
          </ns3:TrackPointExtension>
        </extensions>
      </trkpt>
      <trkpt lat="-22.0494051463901996612548828125" lon="166.449463628232479095458984375">
        <ele>892.4000244140625</ele>
        <time>2016-08-12T19:19:32.000Z</time>
        <extensions>
          <ns3:TrackPointExtension>
            <ns3:atemp>15.0</ns3:atemp>
            <ns3:hr>138</ns3:hr>
          </ns3:TrackPointExtension>
        </extensions>
      </trkpt>
      <trkpt lat="-22.04939751885831356048583984375" lon="166.44944996573030948638916015625">
        <ele>892.4000244140625</ele>
        <time>2016-08-12T19:19:33.000Z</time>
        <extensions>
          <ns3:TrackPointExtension>
            <ns3:atemp>15.0</ns3:atemp>
            <ns3:hr>138</ns3:hr>
          </ns3:TrackPointExtension>
        </extensions>
      </trkpt>
      <trkpt lat="-22.04938528127968311309814453125" lon="166.44943454302847385406494140625">
        <ele>892.79998779296875</ele>
        <time>2016-08-12T19:19:34.000Z</time>
        <extensions>
          <ns3:TrackPointExtension>
            <ns3:atemp>15.0</ns3:atemp>
            <ns3:hr>138</ns3:hr>
          </ns3:TrackPointExtension>
        </extensions>
      </trkpt>
      <trkpt lat="-22.0493726246058940887451171875" lon="166.44941811449825763702392578125">
        <ele>893</ele>
        <time>2016-08-12T19:19:35.000Z</time>
        <extensions>
          <ns3:TrackPointExtension>
            <ns3:atemp>15.0</ns3:atemp>
            <ns3:hr>138</ns3:hr>
          </ns3:TrackPointExtension>
        </extensions>
      </trkpt>
      <trkpt lat="-22.04936030320823192596435546875" lon="166.449401937425136566162109375">
        <ele>893</ele>
        <time>2016-08-12T19:19:36.000Z</time>
        <extensions>
          <ns3:TrackPointExtension>
            <ns3:atemp>15.0</ns3:atemp>
            <ns3:hr>138</ns3:hr>
          </ns3:TrackPointExtension>
        </extensions>
      </trkpt>
      <trkpt lat="-22.04934840090572834014892578125" lon="166.4493856765329837799072265625">
        <ele>893.20001220703125</ele>
        <time>2016-08-12T19:19:37.000Z</time>
        <extensions>
          <ns3:TrackPointExtension>
            <ns3:atemp>15.0</ns3:atemp>
            <ns3:hr>138</ns3:hr>
          </ns3:TrackPointExtension>
        </extensions>
      </trkpt>
      <trkpt lat="-22.04933716915547847747802734375" lon="166.44937050528824329376220703125">
        <ele>893.20001220703125</ele>
        <time>2016-08-12T19:19:38.000Z</time>
        <extensions>
          <ns3:TrackPointExtension>
            <ns3:atemp>15.0</ns3:atemp>
            <ns3:hr>138</ns3:hr>
          </ns3:TrackPointExtension>
        </extensions>
      </trkpt>
      <trkpt lat="-22.04932442866265773773193359375" lon="166.4493553340435028076171875">
        <ele>893.4000244140625</ele>
        <time>2016-08-12T19:19:39.000Z</time>
        <extensions>
          <ns3:TrackPointExtension>
            <ns3:atemp>15.0</ns3:atemp>
            <ns3:hr>138</ns3:hr>
          </ns3:TrackPointExtension>
        </extensions>
      </trkpt>
      <trkpt lat="-22.0493070781230926513671875" lon="166.4493400789797306060791015625">
        <ele>893.5999755859375</ele>
        <time>2016-08-12T19:19:40.000Z</time>
        <extensions>
          <ns3:TrackPointExtension>
            <ns3:atemp>15.0</ns3:atemp>
            <ns3:hr>138</ns3:hr>
          </ns3:TrackPointExtension>
        </extensions>
      </trkpt>
      <trkpt lat="-22.04929165542125701904296875" lon="166.44932457245886325836181640625">
        <ele>893.79998779296875</ele>
        <time>2016-08-12T19:19:41.000Z</time>
        <extensions>
          <ns3:TrackPointExtension>
            <ns3:atemp>15.0</ns3:atemp>
            <ns3:hr>139</ns3:hr>
          </ns3:TrackPointExtension>
        </extensions>
      </trkpt>
      <trkpt lat="-22.049273550510406494140625" lon="166.44931032322347164154052734375">
        <ele>893.79998779296875</ele>
        <time>2016-08-12T19:19:42.000Z</time>
        <extensions>
          <ns3:TrackPointExtension>
            <ns3:atemp>15.0</ns3:atemp>
            <ns3:hr>138</ns3:hr>
          </ns3:TrackPointExtension>
        </extensions>
      </trkpt>
      <trkpt lat="-22.04925452359020709991455078125" lon="166.44929490052163600921630859375">
        <ele>894.20001220703125</ele>
        <time>2016-08-12T19:19:43.000Z</time>
        <extensions>
          <ns3:TrackPointExtension>
            <ns3:atemp>15.0</ns3:atemp>
            <ns3:hr>139</ns3:hr>
          </ns3:TrackPointExtension>
        </extensions>
      </trkpt>
      <trkpt lat="-22.04923641867935657501220703125" lon="166.44928283058106899261474609375">
        <ele>894.4000244140625</ele>
        <time>2016-08-12T19:19:44.000Z</time>
        <extensions>
          <ns3:TrackPointExtension>
            <ns3:atemp>15.0</ns3:atemp>
            <ns3:hr>138</ns3:hr>
          </ns3:TrackPointExtension>
        </extensions>
      </trkpt>
      <trkpt lat="-22.0492207445204257965087890625" lon="166.44927076064050197601318359375">
        <ele>894.20001220703125</ele>
        <time>2016-08-12T19:19:45.000Z</time>
        <extensions>
          <ns3:TrackPointExtension>
            <ns3:atemp>15.0</ns3:atemp>
            <ns3:hr>139</ns3:hr>
          </ns3:TrackPointExtension>
        </extensions>
      </trkpt>
      <trkpt lat="-22.0492064952850341796875" lon="166.44925835542380809783935546875">
        <ele>894.4000244140625</ele>
        <time>2016-08-12T19:19:46.000Z</time>
        <extensions>
          <ns3:TrackPointExtension>
            <ns3:atemp>15.0</ns3:atemp>
            <ns3:hr>139</ns3:hr>
          </ns3:TrackPointExtension>
        </extensions>
      </trkpt>
      <trkpt lat="-22.04918981529772281646728515625" lon="166.44924812950193881988525390625">
        <ele>894.79998779296875</ele>
        <time>2016-08-12T19:19:47.000Z</time>
        <extensions>
          <ns3:TrackPointExtension>
            <ns3:atemp>15.0</ns3:atemp>
            <ns3:hr>139</ns3:hr>
          </ns3:TrackPointExtension>
        </extensions>
      </trkpt>
      <trkpt lat="-22.04916961491107940673828125" lon="166.4492388255894184112548828125">
        <ele>894.79998779296875</ele>
        <time>2016-08-12T19:19:48.000Z</time>
        <extensions>
          <ns3:TrackPointExtension>
            <ns3:atemp>15.0</ns3:atemp>
            <ns3:hr>139</ns3:hr>
          </ns3:TrackPointExtension>
        </extensions>
      </trkpt>
      <trkpt lat="-22.049153186380863189697265625" lon="166.44923203624784946441650390625">
        <ele>894.79998779296875</ele>
        <time>2016-08-12T19:19:49.000Z</time>
        <extensions>
          <ns3:TrackPointExtension>
            <ns3:atemp>15.0</ns3:atemp>
            <ns3:hr>139</ns3:hr>
          </ns3:TrackPointExtension>
        </extensions>
      </trkpt>
      <trkpt lat="-22.0491329021751880645751953125" lon="166.44922650419175624847412109375">
        <ele>895.20001220703125</ele>
        <time>2016-08-12T19:19:50.000Z</time>
        <extensions>
          <ns3:TrackPointExtension>
            <ns3:atemp>15.0</ns3:atemp>
            <ns3:hr>139</ns3:hr>
          </ns3:TrackPointExtension>
        </extensions>
      </trkpt>
      <trkpt lat="-22.04911102540791034698486328125" lon="166.449219882488250732421875">
        <ele>895.4000244140625</ele>
        <time>2016-08-12T19:19:51.000Z</time>
        <extensions>
          <ns3:TrackPointExtension>
            <ns3:atemp>15.0</ns3:atemp>
            <ns3:hr>139</ns3:hr>
          </ns3:TrackPointExtension>
        </extensions>
      </trkpt>
      <trkpt lat="-22.0490916632115840911865234375" lon="166.4492158591747283935546875">
        <ele>895.4000244140625</ele>
        <time>2016-08-12T19:19:52.000Z</time>
        <extensions>
          <ns3:TrackPointExtension>
            <ns3:atemp>15.0</ns3:atemp>
            <ns3:hr>139</ns3:hr>
          </ns3:TrackPointExtension>
        </extensions>
      </trkpt>
      <trkpt lat="-22.04907079227268695831298828125" lon="166.44921359606087207794189453125">
        <ele>895.5999755859375</ele>
        <time>2016-08-12T19:19:53.000Z</time>
        <extensions>
          <ns3:TrackPointExtension>
            <ns3:atemp>15.0</ns3:atemp>
            <ns3:hr>139</ns3:hr>
          </ns3:TrackPointExtension>
        </extensions>
      </trkpt>
      <trkpt lat="-22.04904698766767978668212890625" lon="166.44921644590795040130615234375">
        <ele>895.79998779296875</ele>
        <time>2016-08-12T19:19:54.000Z</time>
        <extensions>
          <ns3:TrackPointExtension>
            <ns3:atemp>15.0</ns3:atemp>
            <ns3:hr>139</ns3:hr>
          </ns3:TrackPointExtension>
        </extensions>
      </trkpt>
      <trkpt lat="-22.0490303076803684234619140625" lon="166.44922298379242420196533203125">
        <ele>895.79998779296875</ele>
        <time>2016-08-12T19:19:55.000Z</time>
        <extensions>
          <ns3:TrackPointExtension>
            <ns3:atemp>15.0</ns3:atemp>
            <ns3:hr>139</ns3:hr>
          </ns3:TrackPointExtension>
        </extensions>
      </trkpt>
      <trkpt lat="-22.04901530407369136810302734375" lon="166.449226252734661102294921875">
        <ele>896.20001220703125</ele>
        <time>2016-08-12T19:19:56.000Z</time>
        <extensions>
          <ns3:TrackPointExtension>
            <ns3:atemp>15.0</ns3:atemp>
            <ns3:hr>139</ns3:hr>
          </ns3:TrackPointExtension>
        </extensions>
      </trkpt>
      <trkpt lat="-22.0490018092095851898193359375" lon="166.4492217265069484710693359375">
        <ele>896.4000244140625</ele>
        <time>2016-08-12T19:19:57.000Z</time>
        <extensions>
          <ns3:TrackPointExtension>
            <ns3:atemp>15.0</ns3:atemp>
            <ns3:hr>138</ns3:hr>
          </ns3:TrackPointExtension>
        </extensions>
      </trkpt>
      <trkpt lat="-22.0489919185638427734375" lon="166.4492146857082843780517578125">
        <ele>896.5999755859375</ele>
        <time>2016-08-12T19:19:58.000Z</time>
        <extensions>
          <ns3:TrackPointExtension>
            <ns3:atemp>15.0</ns3:atemp>
            <ns3:hr>138</ns3:hr>
          </ns3:TrackPointExtension>
        </extensions>
      </trkpt>
      <trkpt lat="-22.0489820279181003570556640625" lon="166.44920320250093936920166015625">
        <ele>897</ele>
        <time>2016-08-12T19:19:59.000Z</time>
        <extensions>
          <ns3:TrackPointExtension>
            <ns3:atemp>15.0</ns3:atemp>
            <ns3:hr>138</ns3:hr>
          </ns3:TrackPointExtension>
        </extensions>
      </trkpt>
      <trkpt lat="-22.0489702932536602020263671875" lon="166.4491915516555309295654296875">
        <ele>897.20001220703125</ele>
        <time>2016-08-12T19:20:00.000Z</time>
        <extensions>
          <ns3:TrackPointExtension>
            <ns3:atemp>15.0</ns3:atemp>
            <ns3:hr>138</ns3:hr>
          </ns3:TrackPointExtension>
        </extensions>
      </trkpt>
      <trkpt lat="-22.048962414264678955078125" lon="166.4491804875433444976806640625">
        <ele>897.20001220703125</ele>
        <time>2016-08-12T19:20:01.000Z</time>
        <extensions>
          <ns3:TrackPointExtension>
            <ns3:atemp>15.0</ns3:atemp>
            <ns3:hr>138</ns3:hr>
          </ns3:TrackPointExtension>
        </extensions>
      </trkpt>
      <trkpt lat="-22.04895713366568088531494140625" lon="166.4491648972034454345703125">
        <ele>897.4000244140625</ele>
        <time>2016-08-12T19:20:02.000Z</time>
        <extensions>
          <ns3:TrackPointExtension>
            <ns3:atemp>15.0</ns3:atemp>
            <ns3:hr>138</ns3:hr>
          </ns3:TrackPointExtension>
        </extensions>
      </trkpt>
      <trkpt lat="-22.04894757829606533050537109375" lon="166.44914813339710235595703125">
        <ele>897.5999755859375</ele>
        <time>2016-08-12T19:20:03.000Z</time>
        <extensions>
          <ns3:TrackPointExtension>
            <ns3:atemp>15.0</ns3:atemp>
            <ns3:hr>138</ns3:hr>
          </ns3:TrackPointExtension>
        </extensions>
      </trkpt>
      <trkpt lat="-22.0489394478499889373779296875" lon="166.4491345547139644622802734375">
        <ele>897.79998779296875</ele>
        <time>2016-08-12T19:20:04.000Z</time>
        <extensions>
          <ns3:TrackPointExtension>
            <ns3:atemp>15.0</ns3:atemp>
            <ns3:hr>138</ns3:hr>
          </ns3:TrackPointExtension>
        </extensions>
      </trkpt>
      <trkpt lat="-22.04892846755683422088623046875" lon="166.44911988638341426849365234375">
        <ele>898</ele>
        <time>2016-08-12T19:20:05.000Z</time>
        <extensions>
          <ns3:TrackPointExtension>
            <ns3:atemp>15.0</ns3:atemp>
            <ns3:hr>138</ns3:hr>
          </ns3:TrackPointExtension>
        </extensions>
      </trkpt>
      <trkpt lat="-22.04891371540725231170654296875" lon="166.44910521805286407470703125">
        <ele>898</ele>
        <time>2016-08-12T19:20:06.000Z</time>
        <extensions>
          <ns3:TrackPointExtension>
            <ns3:atemp>15.0</ns3:atemp>
            <ns3:hr>138</ns3:hr>
          </ns3:TrackPointExtension>
        </extensions>
      </trkpt>
      <trkpt lat="-22.04890273511409759521484375" lon="166.44909474067389965057373046875">
        <ele>898</ele>
        <time>2016-08-12T19:20:07.000Z</time>
        <extensions>
          <ns3:TrackPointExtension>
            <ns3:atemp>15.0</ns3:atemp>
            <ns3:hr>138</ns3:hr>
          </ns3:TrackPointExtension>
        </extensions>
      </trkpt>
      <trkpt lat="-22.0488898269832134246826171875" lon="166.449081413447856903076171875">
        <ele>898</ele>
        <time>2016-08-12T19:20:08.000Z</time>
        <extensions>
          <ns3:TrackPointExtension>
            <ns3:atemp>15.0</ns3:atemp>
            <ns3:hr>138</ns3:hr>
          </ns3:TrackPointExtension>
        </extensions>
      </trkpt>
      <trkpt lat="-22.048877589404582977294921875" lon="166.44906590692698955535888671875">
        <ele>898.20001220703125</ele>
        <time>2016-08-12T19:20:09.000Z</time>
        <extensions>
          <ns3:TrackPointExtension>
            <ns3:atemp>15.0</ns3:atemp>
            <ns3:hr>139</ns3:hr>
          </ns3:TrackPointExtension>
        </extensions>
      </trkpt>
      <trkpt lat="-22.04886652529239654541015625" lon="166.44905182532966136932373046875">
        <ele>898.5999755859375</ele>
        <time>2016-08-12T19:20:10.000Z</time>
        <extensions>
          <ns3:TrackPointExtension>
            <ns3:atemp>15.0</ns3:atemp>
            <ns3:hr>139</ns3:hr>
          </ns3:TrackPointExtension>
        </extensions>
      </trkpt>
      <trkpt lat="-22.04885202459990978240966796875" lon="166.44903740845620632171630859375">
        <ele>899.4000244140625</ele>
        <time>2016-08-12T19:20:11.000Z</time>
        <extensions>
          <ns3:TrackPointExtension>
            <ns3:atemp>15.0</ns3:atemp>
            <ns3:hr>139</ns3:hr>
          </ns3:TrackPointExtension>
        </extensions>
      </trkpt>
      <trkpt lat="-22.048838697373867034912109375" lon="166.44902206957340240478515625">
        <ele>899.4000244140625</ele>
        <time>2016-08-12T19:20:12.000Z</time>
        <extensions>
          <ns3:TrackPointExtension>
            <ns3:atemp>15.0</ns3:atemp>
            <ns3:hr>139</ns3:hr>
          </ns3:TrackPointExtension>
        </extensions>
      </trkpt>
      <trkpt lat="-22.04882604070007801055908203125" lon="166.44900731742382049560546875">
        <ele>899.4000244140625</ele>
        <time>2016-08-12T19:20:13.000Z</time>
        <extensions>
          <ns3:TrackPointExtension>
            <ns3:atemp>15.0</ns3:atemp>
            <ns3:hr>139</ns3:hr>
          </ns3:TrackPointExtension>
        </extensions>
      </trkpt>
      <trkpt lat="-22.04881447367370128631591796875" lon="166.44899466075003147125244140625">
        <ele>899.4000244140625</ele>
        <time>2016-08-12T19:20:14.000Z</time>
        <extensions>
          <ns3:TrackPointExtension>
            <ns3:atemp>15.0</ns3:atemp>
            <ns3:hr>139</ns3:hr>
          </ns3:TrackPointExtension>
        </extensions>
      </trkpt>
      <trkpt lat="-22.048805169761180877685546875" lon="166.44898091442883014678955078125">
        <ele>899.4000244140625</ele>
        <time>2016-08-12T19:20:15.000Z</time>
        <extensions>
          <ns3:TrackPointExtension>
            <ns3:atemp>15.0</ns3:atemp>
            <ns3:hr>140</ns3:hr>
          </ns3:TrackPointExtension>
        </extensions>
      </trkpt>
      <trkpt lat="-22.04879838041961193084716796875" lon="166.44896565936505794525146484375">
        <ele>899.5999755859375</ele>
        <time>2016-08-12T19:20:16.000Z</time>
        <extensions>
          <ns3:TrackPointExtension>
            <ns3:atemp>15.0</ns3:atemp>
            <ns3:hr>139</ns3:hr>
          </ns3:TrackPointExtension>
        </extensions>
      </trkpt>
      <trkpt lat="-22.0487919263541698455810546875" lon="166.4489488117396831512451171875">
        <ele>900</ele>
        <time>2016-08-12T19:20:17.000Z</time>
        <extensions>
          <ns3:TrackPointExtension>
            <ns3:atemp>15.0</ns3:atemp>
            <ns3:hr>140</ns3:hr>
          </ns3:TrackPointExtension>
        </extensions>
      </trkpt>
      <trkpt lat="-22.04878832213580608367919921875" lon="166.4489315450191497802734375">
        <ele>900.20001220703125</ele>
        <time>2016-08-12T19:20:18.000Z</time>
        <extensions>
          <ns3:TrackPointExtension>
            <ns3:atemp>15.0</ns3:atemp>
            <ns3:hr>139</ns3:hr>
          </ns3:TrackPointExtension>
        </extensions>
      </trkpt>
      <trkpt lat="-22.04878496937453746795654296875" lon="166.44891084171831607818603515625">
        <ele>900.4000244140625</ele>
        <time>2016-08-12T19:20:19.000Z</time>
        <extensions>
          <ns3:TrackPointExtension>
            <ns3:atemp>15.0</ns3:atemp>
            <ns3:hr>139</ns3:hr>
          </ns3:TrackPointExtension>
        </extensions>
      </trkpt>
      <trkpt lat="-22.0487754978239536285400390625" lon="166.44889340735971927642822265625">
        <ele>900.79998779296875</ele>
        <time>2016-08-12T19:20:20.000Z</time>
        <extensions>
          <ns3:TrackPointExtension>
            <ns3:atemp>15.0</ns3:atemp>
            <ns3:hr>139</ns3:hr>
          </ns3:TrackPointExtension>
        </extensions>
      </trkpt>
      <trkpt lat="-22.0487731508910655975341796875" lon="166.4488767273724079132080078125">
        <ele>901</ele>
        <time>2016-08-12T19:20:21.000Z</time>
        <extensions>
          <ns3:TrackPointExtension>
            <ns3:atemp>15.0</ns3:atemp>
            <ns3:hr>139</ns3:hr>
          </ns3:TrackPointExtension>
        </extensions>
      </trkpt>
      <trkpt lat="-22.04876082949340343475341796875" lon="166.4488633163273334503173828125">
        <ele>901.4000244140625</ele>
        <time>2016-08-12T19:20:22.000Z</time>
        <extensions>
          <ns3:TrackPointExtension>
            <ns3:atemp>15.0</ns3:atemp>
            <ns3:hr>140</ns3:hr>
          </ns3:TrackPointExtension>
        </extensions>
      </trkpt>
      <trkpt lat="-22.04874892719089984893798828125" lon="166.44884680397808551788330078125">
        <ele>901.5999755859375</ele>
        <time>2016-08-12T19:20:23.000Z</time>
        <extensions>
          <ns3:TrackPointExtension>
            <ns3:atemp>15.0</ns3:atemp>
            <ns3:hr>139</ns3:hr>
          </ns3:TrackPointExtension>
        </extensions>
      </trkpt>
      <trkpt lat="-22.04874088056385517120361328125" lon="166.44883188419044017791748046875">
        <ele>902</ele>
        <time>2016-08-12T19:20:24.000Z</time>
        <extensions>
          <ns3:TrackPointExtension>
            <ns3:atemp>15.0</ns3:atemp>
            <ns3:hr>140</ns3:hr>
          </ns3:TrackPointExtension>
        </extensions>
      </trkpt>
      <trkpt lat="-22.04873417504131793975830078125" lon="166.44881595857441425323486328125">
        <ele>902.20001220703125</ele>
        <time>2016-08-12T19:20:25.000Z</time>
        <extensions>
          <ns3:TrackPointExtension>
            <ns3:atemp>15.0</ns3:atemp>
            <ns3:hr>140</ns3:hr>
          </ns3:TrackPointExtension>
        </extensions>
      </trkpt>
      <trkpt lat="-22.0487252064049243927001953125" lon="166.44880271516740322113037109375">
        <ele>902.4000244140625</ele>
        <time>2016-08-12T19:20:26.000Z</time>
        <extensions>
          <ns3:TrackPointExtension>
            <ns3:atemp>15.0</ns3:atemp>
            <ns3:hr>140</ns3:hr>
          </ns3:TrackPointExtension>
        </extensions>
      </trkpt>
      <trkpt lat="-22.0487181656062602996826171875" lon="166.44878930412232875823974609375">
        <ele>902.4000244140625</ele>
        <time>2016-08-12T19:20:27.000Z</time>
        <extensions>
          <ns3:TrackPointExtension>
            <ns3:atemp>15.0</ns3:atemp>
            <ns3:hr>140</ns3:hr>
          </ns3:TrackPointExtension>
        </extensions>
      </trkpt>
      <trkpt lat="-22.04870819114148616790771484375" lon="166.44877555780112743377685546875">
        <ele>902.79998779296875</ele>
        <time>2016-08-12T19:20:28.000Z</time>
        <extensions>
          <ns3:TrackPointExtension>
            <ns3:atemp>15.0</ns3:atemp>
            <ns3:hr>141</ns3:hr>
          </ns3:TrackPointExtension>
        </extensions>
      </trkpt>
      <trkpt lat="-22.0487034134566783905029296875" lon="166.4487603865563869476318359375">
        <ele>903</ele>
        <time>2016-08-12T19:20:29.000Z</time>
        <extensions>
          <ns3:TrackPointExtension>
            <ns3:atemp>15.0</ns3:atemp>
            <ns3:hr>141</ns3:hr>
          </ns3:TrackPointExtension>
        </extensions>
      </trkpt>
      <trkpt lat="-22.04869913868606090545654296875" lon="166.44874571822583675384521484375">
        <ele>903.20001220703125</ele>
        <time>2016-08-12T19:20:30.000Z</time>
        <extensions>
          <ns3:TrackPointExtension>
            <ns3:atemp>15.0</ns3:atemp>
            <ns3:hr>141</ns3:hr>
          </ns3:TrackPointExtension>
        </extensions>
      </trkpt>
      <trkpt lat="-22.04869628883898258209228515625" lon="166.448729373514652252197265625">
        <ele>903.4000244140625</ele>
        <time>2016-08-12T19:20:31.000Z</time>
        <extensions>
          <ns3:TrackPointExtension>
            <ns3:atemp>15.0</ns3:atemp>
            <ns3:hr>141</ns3:hr>
          </ns3:TrackPointExtension>
        </extensions>
      </trkpt>
      <trkpt lat="-22.04868338070809841156005859375" lon="166.448717303574085235595703125">
        <ele>903.79998779296875</ele>
        <time>2016-08-12T19:20:32.000Z</time>
        <extensions>
          <ns3:TrackPointExtension>
            <ns3:atemp>15.0</ns3:atemp>
            <ns3:hr>141</ns3:hr>
          </ns3:TrackPointExtension>
        </extensions>
      </trkpt>
      <trkpt lat="-22.04867097549140453338623046875" lon="166.4487043954432010650634765625">
        <ele>904</ele>
        <time>2016-08-12T19:20:33.000Z</time>
        <extensions>
          <ns3:TrackPointExtension>
            <ns3:atemp>15.0</ns3:atemp>
            <ns3:hr>141</ns3:hr>
          </ns3:TrackPointExtension>
        </extensions>
      </trkpt>
      <trkpt lat="-22.0486544631421566009521484375" lon="166.44869056530296802520751953125">
        <ele>904.20001220703125</ele>
        <time>2016-08-12T19:20:34.000Z</time>
        <extensions>
          <ns3:TrackPointExtension>
            <ns3:atemp>15.0</ns3:atemp>
            <ns3:hr>141</ns3:hr>
          </ns3:TrackPointExtension>
        </extensions>
      </trkpt>
      <trkpt lat="-22.0486353524029254913330078125" lon="166.44867849536240100860595703125">
        <ele>904.4000244140625</ele>
        <time>2016-08-12T19:20:35.000Z</time>
        <extensions>
          <ns3:TrackPointExtension>
            <ns3:atemp>15.0</ns3:atemp>
            <ns3:hr>141</ns3:hr>
          </ns3:TrackPointExtension>
        </extensions>
      </trkpt>
      <trkpt lat="-22.04861917532980442047119140625" lon="166.44866667687892913818359375">
        <ele>904.4000244140625</ele>
        <time>2016-08-12T19:20:36.000Z</time>
        <extensions>
          <ns3:TrackPointExtension>
            <ns3:atemp>15.0</ns3:atemp>
            <ns3:hr>141</ns3:hr>
          </ns3:TrackPointExtension>
        </extensions>
      </trkpt>
      <trkpt lat="-22.04860090278089046478271484375" lon="166.4486551098525524139404296875">
        <ele>904.4000244140625</ele>
        <time>2016-08-12T19:20:37.000Z</time>
        <extensions>
          <ns3:TrackPointExtension>
            <ns3:atemp>15.0</ns3:atemp>
            <ns3:hr>141</ns3:hr>
          </ns3:TrackPointExtension>
        </extensions>
      </trkpt>
      <trkpt lat="-22.04858179204165935516357421875" lon="166.44864396192133426666259765625">
        <ele>904.5999755859375</ele>
        <time>2016-08-12T19:20:38.000Z</time>
        <extensions>
          <ns3:TrackPointExtension>
            <ns3:atemp>15.0</ns3:atemp>
            <ns3:hr>142</ns3:hr>
          </ns3:TrackPointExtension>
        </extensions>
      </trkpt>
      <trkpt lat="-22.048563100397586822509765625" lon="166.4486356638371944427490234375">
        <ele>904.79998779296875</ele>
        <time>2016-08-12T19:20:39.000Z</time>
        <extensions>
          <ns3:TrackPointExtension>
            <ns3:atemp>15.0</ns3:atemp>
            <ns3:hr>142</ns3:hr>
          </ns3:TrackPointExtension>
        </extensions>
      </trkpt>
      <trkpt lat="-22.04854256473481655120849609375" lon="166.44862971268594264984130859375">
        <ele>905.20001220703125</ele>
        <time>2016-08-12T19:20:40.000Z</time>
        <extensions>
          <ns3:TrackPointExtension>
            <ns3:atemp>15.0</ns3:atemp>
            <ns3:hr>142</ns3:hr>
          </ns3:TrackPointExtension>
        </extensions>
      </trkpt>
      <trkpt lat="-22.048520185053348541259765625" lon="166.4486266113817691802978515625">
        <ele>905.4000244140625</ele>
        <time>2016-08-12T19:20:41.000Z</time>
        <extensions>
          <ns3:TrackPointExtension>
            <ns3:atemp>15.0</ns3:atemp>
            <ns3:hr>142</ns3:hr>
          </ns3:TrackPointExtension>
        </extensions>
      </trkpt>
      <trkpt lat="-22.048501409590244293212890625" lon="166.448624096810817718505859375">
        <ele>905.4000244140625</ele>
        <time>2016-08-12T19:20:42.000Z</time>
        <extensions>
          <ns3:TrackPointExtension>
            <ns3:atemp>15.0</ns3:atemp>
            <ns3:hr>142</ns3:hr>
          </ns3:TrackPointExtension>
        </extensions>
      </trkpt>
      <trkpt lat="-22.04848305322229862213134765625" lon="166.448620073497295379638671875">
        <ele>905.5999755859375</ele>
        <time>2016-08-12T19:20:43.000Z</time>
        <extensions>
          <ns3:TrackPointExtension>
            <ns3:atemp>15.0</ns3:atemp>
            <ns3:hr>142</ns3:hr>
          </ns3:TrackPointExtension>
        </extensions>
      </trkpt>
      <trkpt lat="-22.0484630204737186431884765625" lon="166.44861227832734584808349609375">
        <ele>905.5999755859375</ele>
        <time>2016-08-12T19:20:44.000Z</time>
        <extensions>
          <ns3:TrackPointExtension>
            <ns3:atemp>15.0</ns3:atemp>
            <ns3:hr>142</ns3:hr>
          </ns3:TrackPointExtension>
        </extensions>
      </trkpt>
      <trkpt lat="-22.0484445802867412567138671875" lon="166.44860121421515941619873046875">
        <ele>905.5999755859375</ele>
        <time>2016-08-12T19:20:45.000Z</time>
        <extensions>
          <ns3:TrackPointExtension>
            <ns3:atemp>15.0</ns3:atemp>
            <ns3:hr>142</ns3:hr>
          </ns3:TrackPointExtension>
        </extensions>
      </trkpt>
      <trkpt lat="-22.04842555336654186248779296875" lon="166.4485917426645755767822265625">
        <ele>906</ele>
        <time>2016-08-12T19:20:46.000Z</time>
        <extensions>
          <ns3:TrackPointExtension>
            <ns3:atemp>15.0</ns3:atemp>
            <ns3:hr>142</ns3:hr>
          </ns3:TrackPointExtension>
        </extensions>
      </trkpt>
      <trkpt lat="-22.04840610735118389129638671875" lon="166.448582522571086883544921875">
        <ele>906.20001220703125</ele>
        <time>2016-08-12T19:20:47.000Z</time>
        <extensions>
          <ns3:TrackPointExtension>
            <ns3:atemp>15.0</ns3:atemp>
            <ns3:hr>141</ns3:hr>
          </ns3:TrackPointExtension>
        </extensions>
      </trkpt>
      <trkpt lat="-22.04838649369776248931884765625" lon="166.44857573322951793670654296875">
        <ele>906.20001220703125</ele>
        <time>2016-08-12T19:20:48.000Z</time>
        <extensions>
          <ns3:TrackPointExtension>
            <ns3:atemp>15.0</ns3:atemp>
            <ns3:hr>141</ns3:hr>
          </ns3:TrackPointExtension>
        </extensions>
      </trkpt>
      <trkpt lat="-22.04836872406303882598876953125" lon="166.44856936298310756683349609375">
        <ele>906.4000244140625</ele>
        <time>2016-08-12T19:20:49.000Z</time>
        <extensions>
          <ns3:TrackPointExtension>
            <ns3:atemp>15.0</ns3:atemp>
            <ns3:hr>141</ns3:hr>
          </ns3:TrackPointExtension>
        </extensions>
      </trkpt>
      <trkpt lat="-22.04834944568574428558349609375" lon="166.4485608972609043121337890625">
        <ele>906.5999755859375</ele>
        <time>2016-08-12T19:20:50.000Z</time>
        <extensions>
          <ns3:TrackPointExtension>
            <ns3:atemp>15.0</ns3:atemp>
            <ns3:hr>141</ns3:hr>
          </ns3:TrackPointExtension>
        </extensions>
      </trkpt>
      <trkpt lat="-22.048330418765544891357421875" lon="166.44855176098644733428955078125">
        <ele>906.5999755859375</ele>
        <time>2016-08-12T19:20:51.000Z</time>
        <extensions>
          <ns3:TrackPointExtension>
            <ns3:atemp>15.0</ns3:atemp>
            <ns3:hr>141</ns3:hr>
          </ns3:TrackPointExtension>
        </extensions>
      </trkpt>
      <trkpt lat="-22.048312313854694366455078125" lon="166.4485421217978000640869140625">
        <ele>907</ele>
        <time>2016-08-12T19:20:52.000Z</time>
        <extensions>
          <ns3:TrackPointExtension>
            <ns3:atemp>15.0</ns3:atemp>
            <ns3:hr>141</ns3:hr>
          </ns3:TrackPointExtension>
        </extensions>
      </trkpt>
      <trkpt lat="-22.0482950471341609954833984375" lon="166.4485323987901210784912109375">
        <ele>907.20001220703125</ele>
        <time>2016-08-12T19:20:53.000Z</time>
        <extensions>
          <ns3:TrackPointExtension>
            <ns3:atemp>15.0</ns3:atemp>
            <ns3:hr>141</ns3:hr>
          </ns3:TrackPointExtension>
        </extensions>
      </trkpt>
      <trkpt lat="-22.0482776127755641937255859375" lon="166.44852594472467899322509765625">
        <ele>907.4000244140625</ele>
        <time>2016-08-12T19:20:54.000Z</time>
        <extensions>
          <ns3:TrackPointExtension>
            <ns3:atemp>15.0</ns3:atemp>
            <ns3:hr>141</ns3:hr>
          </ns3:TrackPointExtension>
        </extensions>
      </trkpt>
      <trkpt lat="-22.04825766384601593017578125" lon="166.44852225668728351593017578125">
        <ele>907.79998779296875</ele>
        <time>2016-08-12T19:20:55.000Z</time>
        <extensions>
          <ns3:TrackPointExtension>
            <ns3:atemp>15.0</ns3:atemp>
            <ns3:hr>141</ns3:hr>
          </ns3:TrackPointExtension>
        </extensions>
      </trkpt>
      <trkpt lat="-22.04823947511613368988037109375" lon="166.44851974211633205413818359375">
        <ele>908</ele>
        <time>2016-08-12T19:20:56.000Z</time>
        <extensions>
          <ns3:TrackPointExtension>
            <ns3:atemp>15.0</ns3:atemp>
            <ns3:hr>141</ns3:hr>
          </ns3:TrackPointExtension>
        </extensions>
      </trkpt>
      <trkpt lat="-22.048225142061710357666015625" lon="166.448512785136699676513671875">
        <ele>908</ele>
        <time>2016-08-12T19:20:57.000Z</time>
        <extensions>
          <ns3:TrackPointExtension>
            <ns3:atemp>15.0</ns3:atemp>
            <ns3:hr>141</ns3:hr>
          </ns3:TrackPointExtension>
        </extensions>
      </trkpt>
      <trkpt lat="-22.048208713531494140625" lon="166.44850214011967182159423828125">
        <ele>908.20001220703125</ele>
        <time>2016-08-12T19:20:58.000Z</time>
        <extensions>
          <ns3:TrackPointExtension>
            <ns3:atemp>15.0</ns3:atemp>
            <ns3:hr>141</ns3:hr>
          </ns3:TrackPointExtension>
        </extensions>
      </trkpt>
      <trkpt lat="-22.0481924526393413543701171875" lon="166.44849057309329509735107421875">
        <ele>908.4000244140625</ele>
        <time>2016-08-12T19:20:59.000Z</time>
        <extensions>
          <ns3:TrackPointExtension>
            <ns3:atemp>15.0</ns3:atemp>
            <ns3:hr>141</ns3:hr>
          </ns3:TrackPointExtension>
        </extensions>
      </trkpt>
      <trkpt lat="-22.04817879013717174530029296875" lon="166.44847967661917209625244140625">
        <ele>908.4000244140625</ele>
        <time>2016-08-12T19:21:00.000Z</time>
        <extensions>
          <ns3:TrackPointExtension>
            <ns3:atemp>15.0</ns3:atemp>
            <ns3:hr>141</ns3:hr>
          </ns3:TrackPointExtension>
        </extensions>
      </trkpt>
      <trkpt lat="-22.0481619425117969512939453125" lon="166.4484676904976367950439453125">
        <ele>909</ele>
        <time>2016-08-12T19:21:01.000Z</time>
        <extensions>
          <ns3:TrackPointExtension>
            <ns3:atemp>15.0</ns3:atemp>
            <ns3:hr>141</ns3:hr>
          </ns3:TrackPointExtension>
        </extensions>
      </trkpt>
      <trkpt lat="-22.04814777709543704986572265625" lon="166.44845872186124324798583984375">
        <ele>909.20001220703125</ele>
        <time>2016-08-12T19:21:02.000Z</time>
        <extensions>
          <ns3:TrackPointExtension>
            <ns3:atemp>15.0</ns3:atemp>
            <ns3:hr>141</ns3:hr>
          </ns3:TrackPointExtension>
        </extensions>
      </trkpt>
      <trkpt lat="-22.0481364615261554718017578125" lon="166.44845033995807170867919921875">
        <ele>909.20001220703125</ele>
        <time>2016-08-12T19:21:03.000Z</time>
        <extensions>
          <ns3:TrackPointExtension>
            <ns3:atemp>15.0</ns3:atemp>
            <ns3:hr>141</ns3:hr>
          </ns3:TrackPointExtension>
        </extensions>
      </trkpt>
      <trkpt lat="-22.04812346957623958587646484375" lon="166.4484365098178386688232421875">
        <ele>909.20001220703125</ele>
        <time>2016-08-12T19:21:04.000Z</time>
        <extensions>
          <ns3:TrackPointExtension>
            <ns3:atemp>15.0</ns3:atemp>
            <ns3:hr>141</ns3:hr>
          </ns3:TrackPointExtension>
        </extensions>
      </trkpt>
      <trkpt lat="-22.048113830387592315673828125" lon="166.448422931134700775146484375">
        <ele>909.4000244140625</ele>
        <time>2016-08-12T19:21:05.000Z</time>
        <extensions>
          <ns3:TrackPointExtension>
            <ns3:atemp>15.0</ns3:atemp>
            <ns3:hr>141</ns3:hr>
          </ns3:TrackPointExtension>
        </extensions>
      </trkpt>
      <trkpt lat="-22.0481049455702304840087890625" lon="166.44841027446091175079345703125">
        <ele>909.5999755859375</ele>
        <time>2016-08-12T19:21:06.000Z</time>
        <extensions>
          <ns3:TrackPointExtension>
            <ns3:atemp>15.0</ns3:atemp>
            <ns3:hr>140</ns3:hr>
          </ns3:TrackPointExtension>
        </extensions>
      </trkpt>
      <trkpt lat="-22.04809228889644145965576171875" lon="166.44839250482618808746337890625">
        <ele>910</ele>
        <time>2016-08-12T19:21:07.000Z</time>
        <extensions>
          <ns3:TrackPointExtension>
            <ns3:atemp>15.0</ns3:atemp>
            <ns3:hr>141</ns3:hr>
          </ns3:TrackPointExtension>
        </extensions>
      </trkpt>
      <trkpt lat="-22.0480787940323352813720703125" lon="166.4483764953911304473876953125">
        <ele>910.20001220703125</ele>
        <time>2016-08-12T19:21:08.000Z</time>
        <extensions>
          <ns3:TrackPointExtension>
            <ns3:atemp>15.0</ns3:atemp>
            <ns3:hr>141</ns3:hr>
          </ns3:TrackPointExtension>
        </extensions>
      </trkpt>
      <trkpt lat="-22.04806764610111713409423828125" lon="166.4483607374131679534912109375">
        <ele>910.20001220703125</ele>
        <time>2016-08-12T19:21:09.000Z</time>
        <extensions>
          <ns3:TrackPointExtension>
            <ns3:atemp>15.0</ns3:atemp>
            <ns3:hr>141</ns3:hr>
          </ns3:TrackPointExtension>
        </extensions>
      </trkpt>
      <trkpt lat="-22.04805356450378894805908203125" lon="166.44834372214972972869873046875">
        <ele>910.4000244140625</ele>
        <time>2016-08-12T19:21:10.000Z</time>
        <extensions>
          <ns3:TrackPointExtension>
            <ns3:atemp>15.0</ns3:atemp>
            <ns3:hr>141</ns3:hr>
          </ns3:TrackPointExtension>
        </extensions>
      </trkpt>
      <trkpt lat="-22.0480405725538730621337890625" lon="166.44832746125757694244384765625">
        <ele>910.5999755859375</ele>
        <time>2016-08-12T19:21:11.000Z</time>
        <extensions>
          <ns3:TrackPointExtension>
            <ns3:atemp>15.0</ns3:atemp>
            <ns3:hr>141</ns3:hr>
          </ns3:TrackPointExtension>
        </extensions>
      </trkpt>
      <trkpt lat="-22.04801970161497592926025390625" lon="166.44831438548862934112548828125">
        <ele>910.5999755859375</ele>
        <time>2016-08-12T19:21:12.000Z</time>
        <extensions>
          <ns3:TrackPointExtension>
            <ns3:atemp>15.0</ns3:atemp>
            <ns3:hr>142</ns3:hr>
          </ns3:TrackPointExtension>
        </extensions>
      </trkpt>
      <trkpt lat="-22.0479956455528736114501953125" lon="166.44830130971968173980712890625">
        <ele>910.79998779296875</ele>
        <time>2016-08-12T19:21:13.000Z</time>
        <extensions>
          <ns3:TrackPointExtension>
            <ns3:atemp>15.0</ns3:atemp>
            <ns3:hr>142</ns3:hr>
          </ns3:TrackPointExtension>
        </extensions>
      </trkpt>
      <trkpt lat="-22.047973684966564178466796875" lon="166.44829259254038333892822265625">
        <ele>911.20001220703125</ele>
        <time>2016-08-12T19:21:14.000Z</time>
        <extensions>
          <ns3:TrackPointExtension>
            <ns3:atemp>15.0</ns3:atemp>
            <ns3:hr>142</ns3:hr>
          </ns3:TrackPointExtension>
        </extensions>
      </trkpt>
      <trkpt lat="-22.04794912599027156829833984375" lon="166.44828982651233673095703125">
        <ele>911.20001220703125</ele>
        <time>2016-08-12T19:21:15.000Z</time>
        <extensions>
          <ns3:TrackPointExtension>
            <ns3:atemp>15.0</ns3:atemp>
            <ns3:hr>142</ns3:hr>
          </ns3:TrackPointExtension>
        </extensions>
      </trkpt>
      <trkpt lat="-22.0479238964617252349853515625" lon="166.44829024560749530792236328125">
        <ele>911.4000244140625</ele>
        <time>2016-08-12T19:21:16.000Z</time>
        <extensions>
          <ns3:TrackPointExtension>
            <ns3:atemp>15.0</ns3:atemp>
            <ns3:hr>142</ns3:hr>
          </ns3:TrackPointExtension>
        </extensions>
      </trkpt>
      <trkpt lat="-22.04790000803768634796142578125" lon="166.4482923410832881927490234375">
        <ele>911.79998779296875</ele>
        <time>2016-08-12T19:21:17.000Z</time>
        <extensions>
          <ns3:TrackPointExtension>
            <ns3:atemp>15.0</ns3:atemp>
            <ns3:hr>142</ns3:hr>
          </ns3:TrackPointExtension>
        </extensions>
      </trkpt>
      <trkpt lat="-22.0478739403188228607177734375" lon="166.448294185101985931396484375">
        <ele>911.5999755859375</ele>
        <time>2016-08-12T19:21:18.000Z</time>
        <extensions>
          <ns3:TrackPointExtension>
            <ns3:atemp>15.0</ns3:atemp>
            <ns3:hr>142</ns3:hr>
          </ns3:TrackPointExtension>
        </extensions>
      </trkpt>
      <trkpt lat="-22.047845609486103057861328125" lon="166.44829644821584224700927734375">
        <ele>911.5999755859375</ele>
        <time>2016-08-12T19:21:19.000Z</time>
        <extensions>
          <ns3:TrackPointExtension>
            <ns3:atemp>15.0</ns3:atemp>
            <ns3:hr>143</ns3:hr>
          </ns3:TrackPointExtension>
        </extensions>
      </trkpt>
      <trkpt lat="-22.04781970940530300140380859375" lon="166.44829812459647655487060546875">
        <ele>911.79998779296875</ele>
        <time>2016-08-12T19:21:20.000Z</time>
        <extensions>
          <ns3:TrackPointExtension>
            <ns3:atemp>15.0</ns3:atemp>
            <ns3:hr>143</ns3:hr>
          </ns3:TrackPointExtension>
        </extensions>
      </trkpt>
      <trkpt lat="-22.04779389314353466033935546875" lon="166.4483007229864597320556640625">
        <ele>911.5999755859375</ele>
        <time>2016-08-12T19:21:21.000Z</time>
        <extensions>
          <ns3:TrackPointExtension>
            <ns3:atemp>15.0</ns3:atemp>
            <ns3:hr>143</ns3:hr>
          </ns3:TrackPointExtension>
        </extensions>
      </trkpt>
      <trkpt lat="-22.0477700047194957733154296875" lon="166.44830667413771152496337890625">
        <ele>911.4000244140625</ele>
        <time>2016-08-12T19:21:22.000Z</time>
        <extensions>
          <ns3:TrackPointExtension>
            <ns3:atemp>15.0</ns3:atemp>
            <ns3:hr>143</ns3:hr>
          </ns3:TrackPointExtension>
        </extensions>
      </trkpt>
      <trkpt lat="-22.04774494282901287078857421875" lon="166.44830860197544097900390625">
        <ele>911.5999755859375</ele>
        <time>2016-08-12T19:21:23.000Z</time>
        <extensions>
          <ns3:TrackPointExtension>
            <ns3:atemp>15.0</ns3:atemp>
            <ns3:hr>142</ns3:hr>
          </ns3:TrackPointExtension>
        </extensions>
      </trkpt>
      <trkpt lat="-22.0477197133004665374755859375" lon="166.44831153564155101776123046875">
        <ele>911.4000244140625</ele>
        <time>2016-08-12T19:21:24.000Z</time>
        <extensions>
          <ns3:TrackPointExtension>
            <ns3:atemp>15.0</ns3:atemp>
            <ns3:hr>142</ns3:hr>
          </ns3:TrackPointExtension>
        </extensions>
      </trkpt>
      <trkpt lat="-22.047696411609649658203125" lon="166.44831706769764423370361328125">
        <ele>911.20001220703125</ele>
        <time>2016-08-12T19:21:25.000Z</time>
        <extensions>
          <ns3:TrackPointExtension>
            <ns3:atemp>15.0</ns3:atemp>
            <ns3:hr>143</ns3:hr>
          </ns3:TrackPointExtension>
        </extensions>
      </trkpt>
      <trkpt lat="-22.047672607004642486572265625" lon="166.44831907935440540313720703125">
        <ele>911</ele>
        <time>2016-08-12T19:21:26.000Z</time>
        <extensions>
          <ns3:TrackPointExtension>
            <ns3:atemp>15.0</ns3:atemp>
            <ns3:hr>142</ns3:hr>
          </ns3:TrackPointExtension>
        </extensions>
      </trkpt>
      <trkpt lat="-22.04764871858060359954833984375" lon="166.44831824116408824920654296875">
        <ele>911</ele>
        <time>2016-08-12T19:21:27.000Z</time>
        <extensions>
          <ns3:TrackPointExtension>
            <ns3:atemp>15.0</ns3:atemp>
            <ns3:hr>142</ns3:hr>
          </ns3:TrackPointExtension>
        </extensions>
      </trkpt>
      <trkpt lat="-22.04762793146073818206787109375" lon="166.448313295841217041015625">
        <ele>911</ele>
        <time>2016-08-12T19:21:28.000Z</time>
        <extensions>
          <ns3:TrackPointExtension>
            <ns3:atemp>15.0</ns3:atemp>
            <ns3:hr>143</ns3:hr>
          </ns3:TrackPointExtension>
        </extensions>
      </trkpt>
      <trkpt lat="-22.04760546796023845672607421875" lon="166.44830566830933094024658203125">
        <ele>910.79998779296875</ele>
        <time>2016-08-12T19:21:29.000Z</time>
        <extensions>
          <ns3:TrackPointExtension>
            <ns3:atemp>15.0</ns3:atemp>
            <ns3:hr>142</ns3:hr>
          </ns3:TrackPointExtension>
        </extensions>
      </trkpt>
      <trkpt lat="-22.0475822500884532928466796875" lon="166.448296867311000823974609375">
        <ele>911.20001220703125</ele>
        <time>2016-08-12T19:21:30.000Z</time>
        <extensions>
          <ns3:TrackPointExtension>
            <ns3:atemp>15.0</ns3:atemp>
            <ns3:hr>142</ns3:hr>
          </ns3:TrackPointExtension>
        </extensions>
      </trkpt>
      <trkpt lat="-22.0475614629685878753662109375" lon="166.44828873686492443084716796875">
        <ele>911.20001220703125</ele>
        <time>2016-08-12T19:21:31.000Z</time>
        <extensions>
          <ns3:TrackPointExtension>
            <ns3:atemp>15.0</ns3:atemp>
            <ns3:hr>141</ns3:hr>
          </ns3:TrackPointExtension>
        </extensions>
      </trkpt>
      <trkpt lat="-22.0475395023822784423828125" lon="166.44828580319881439208984375">
        <ele>911.20001220703125</ele>
        <time>2016-08-12T19:21:32.000Z</time>
        <extensions>
          <ns3:TrackPointExtension>
            <ns3:atemp>15.0</ns3:atemp>
            <ns3:hr>141</ns3:hr>
          </ns3:TrackPointExtension>
        </extensions>
      </trkpt>
      <trkpt lat="-22.0475182123482227325439453125" lon="166.44828169606626033782958984375">
        <ele>911.4000244140625</ele>
        <time>2016-08-12T19:21:33.000Z</time>
        <extensions>
          <ns3:TrackPointExtension>
            <ns3:atemp>15.0</ns3:atemp>
            <ns3:hr>141</ns3:hr>
          </ns3:TrackPointExtension>
        </extensions>
      </trkpt>
      <trkpt lat="-22.04749465920031070709228515625" lon="166.4482797682285308837890625">
        <ele>911.5999755859375</ele>
        <time>2016-08-12T19:21:34.000Z</time>
        <extensions>
          <ns3:TrackPointExtension>
            <ns3:atemp>15.0</ns3:atemp>
            <ns3:hr>140</ns3:hr>
          </ns3:TrackPointExtension>
        </extensions>
      </trkpt>
      <trkpt lat="-22.0474689267575740814208984375" lon="166.448280774056911468505859375">
        <ele>911.5999755859375</ele>
        <time>2016-08-12T19:21:35.000Z</time>
        <extensions>
          <ns3:TrackPointExtension>
            <ns3:atemp>15.0</ns3:atemp>
            <ns3:hr>140</ns3:hr>
          </ns3:TrackPointExtension>
        </extensions>
      </trkpt>
      <trkpt lat="-22.047443278133869171142578125" lon="166.44828119315207004547119140625">
        <ele>911.4000244140625</ele>
        <time>2016-08-12T19:21:36.000Z</time>
        <extensions>
          <ns3:TrackPointExtension>
            <ns3:atemp>15.0</ns3:atemp>
            <ns3:hr>140</ns3:hr>
          </ns3:TrackPointExtension>
        </extensions>
      </trkpt>
      <trkpt lat="-22.04741545021533966064453125" lon="166.44828320480883121490478515625">
        <ele>911.79998779296875</ele>
        <time>2016-08-12T19:21:37.000Z</time>
        <extensions>
          <ns3:TrackPointExtension>
            <ns3:atemp>15.0</ns3:atemp>
            <ns3:hr>139</ns3:hr>
          </ns3:TrackPointExtension>
        </extensions>
      </trkpt>
      <trkpt lat="-22.047389633953571319580078125" lon="166.448288150131702423095703125">
        <ele>911.79998779296875</ele>
        <time>2016-08-12T19:21:38.000Z</time>
        <extensions>
          <ns3:TrackPointExtension>
            <ns3:atemp>15.0</ns3:atemp>
            <ns3:hr>139</ns3:hr>
          </ns3:TrackPointExtension>
        </extensions>
      </trkpt>
      <trkpt lat="-22.0473651587963104248046875" lon="166.4482903294265270233154296875">
        <ele>911.4000244140625</ele>
        <time>2016-08-12T19:21:39.000Z</time>
        <extensions>
          <ns3:TrackPointExtension>
            <ns3:atemp>15.0</ns3:atemp>
            <ns3:hr>139</ns3:hr>
          </ns3:TrackPointExtension>
        </extensions>
      </trkpt>
      <trkpt lat="-22.04733992926776409149169921875" lon="166.44829192198812961578369140625">
        <ele>911.4000244140625</ele>
        <time>2016-08-12T19:21:40.000Z</time>
        <extensions>
          <ns3:TrackPointExtension>
            <ns3:atemp>15.0</ns3:atemp>
            <ns3:hr>139</ns3:hr>
          </ns3:TrackPointExtension>
        </extensions>
      </trkpt>
      <trkpt lat="-22.04731361009180545806884765625" lon="166.44829460419714450836181640625">
        <ele>911.4000244140625</ele>
        <time>2016-08-12T19:21:41.000Z</time>
        <extensions>
          <ns3:TrackPointExtension>
            <ns3:atemp>15.0</ns3:atemp>
            <ns3:hr>138</ns3:hr>
          </ns3:TrackPointExtension>
        </extensions>
      </trkpt>
      <trkpt lat="-22.04728745855391025543212890625" lon="166.44829812459647655487060546875">
        <ele>911.20001220703125</ele>
        <time>2016-08-12T19:21:42.000Z</time>
        <extensions>
          <ns3:TrackPointExtension>
            <ns3:atemp>15.0</ns3:atemp>
            <ns3:hr>138</ns3:hr>
          </ns3:TrackPointExtension>
        </extensions>
      </trkpt>
      <trkpt lat="-22.04726147465407848358154296875" lon="166.44829862751066684722900390625">
        <ele>911.20001220703125</ele>
        <time>2016-08-12T19:21:43.000Z</time>
        <extensions>
          <ns3:TrackPointExtension>
            <ns3:atemp>15.0</ns3:atemp>
            <ns3:hr>138</ns3:hr>
          </ns3:TrackPointExtension>
        </extensions>
      </trkpt>
      <trkpt lat="-22.04723431728780269622802734375" lon="166.4482958614826202392578125">
        <ele>911.4000244140625</ele>
        <time>2016-08-12T19:21:44.000Z</time>
        <extensions>
          <ns3:TrackPointExtension>
            <ns3:atemp>15.0</ns3:atemp>
            <ns3:hr>137</ns3:hr>
          </ns3:TrackPointExtension>
        </extensions>
      </trkpt>
      <trkpt lat="-22.04720833338797092437744140625" lon="166.44829292781651020050048828125">
        <ele>911.20001220703125</ele>
        <time>2016-08-12T19:21:45.000Z</time>
        <extensions>
          <ns3:TrackPointExtension>
            <ns3:atemp>15.0</ns3:atemp>
            <ns3:hr>137</ns3:hr>
          </ns3:TrackPointExtension>
        </extensions>
      </trkpt>
      <trkpt lat="-22.04718209803104400634765625" lon="166.44828856922686100006103515625">
        <ele>910.79998779296875</ele>
        <time>2016-08-12T19:21:46.000Z</time>
        <extensions>
          <ns3:TrackPointExtension>
            <ns3:atemp>15.0</ns3:atemp>
            <ns3:hr>137</ns3:hr>
          </ns3:TrackPointExtension>
        </extensions>
      </trkpt>
      <trkpt lat="-22.047157622873783111572265625" lon="166.44828169606626033782958984375">
        <ele>911</ele>
        <time>2016-08-12T19:21:47.000Z</time>
        <extensions>
          <ns3:TrackPointExtension>
            <ns3:atemp>15.0</ns3:atemp>
            <ns3:hr>137</ns3:hr>
          </ns3:TrackPointExtension>
        </extensions>
      </trkpt>
      <trkpt lat="-22.0471309684216976165771484375" lon="166.448278762400150299072265625">
        <ele>911</ele>
        <time>2016-08-12T19:21:48.000Z</time>
        <extensions>
          <ns3:TrackPointExtension>
            <ns3:atemp>15.0</ns3:atemp>
            <ns3:hr>136</ns3:hr>
          </ns3:TrackPointExtension>
        </extensions>
      </trkpt>
      <trkpt lat="-22.047107331454753875732421875" lon="166.4482745714485645294189453125">
        <ele>910.79998779296875</ele>
        <time>2016-08-12T19:21:49.000Z</time>
        <extensions>
          <ns3:TrackPointExtension>
            <ns3:atemp>15.0</ns3:atemp>
            <ns3:hr>136</ns3:hr>
          </ns3:TrackPointExtension>
        </extensions>
      </trkpt>
      <trkpt lat="-22.04708461649715900421142578125" lon="166.44826568663120269775390625">
        <ele>910.5999755859375</ele>
        <time>2016-08-12T19:21:50.000Z</time>
        <extensions>
          <ns3:TrackPointExtension>
            <ns3:atemp>15.0</ns3:atemp>
            <ns3:hr>136</ns3:hr>
          </ns3:TrackPointExtension>
        </extensions>
      </trkpt>
      <trkpt lat="-22.04705980606377124786376953125" lon="166.44825361669063568115234375">
        <ele>910.79998779296875</ele>
        <time>2016-08-12T19:21:51.000Z</time>
        <extensions>
          <ns3:TrackPointExtension>
            <ns3:atemp>15.0</ns3:atemp>
            <ns3:hr>136</ns3:hr>
          </ns3:TrackPointExtension>
        </extensions>
      </trkpt>
      <trkpt lat="-22.047036252915859222412109375" lon="166.448241882026195526123046875">
        <ele>911.4000244140625</ele>
        <time>2016-08-12T19:21:52.000Z</time>
        <extensions>
          <ns3:TrackPointExtension>
            <ns3:atemp>15.0</ns3:atemp>
            <ns3:hr>135</ns3:hr>
          </ns3:TrackPointExtension>
        </extensions>
      </trkpt>
      <trkpt lat="-22.047012113034725189208984375" lon="166.44823241047561168670654296875">
        <ele>911</ele>
        <time>2016-08-12T19:21:53.000Z</time>
        <extensions>
          <ns3:TrackPointExtension>
            <ns3:atemp>15.0</ns3:atemp>
            <ns3:hr>135</ns3:hr>
          </ns3:TrackPointExtension>
        </extensions>
      </trkpt>
      <trkpt lat="-22.0469921641051769256591796875" lon="166.4482283033430576324462890625">
        <ele>910.79998779296875</ele>
        <time>2016-08-12T19:21:54.000Z</time>
        <extensions>
          <ns3:TrackPointExtension>
            <ns3:atemp>15.0</ns3:atemp>
            <ns3:hr>135</ns3:hr>
          </ns3:TrackPointExtension>
        </extensions>
      </trkpt>
      <trkpt lat="-22.04697380773723125457763671875" lon="166.448223106563091278076171875">
        <ele>911.20001220703125</ele>
        <time>2016-08-12T19:21:55.000Z</time>
        <extensions>
          <ns3:TrackPointExtension>
            <ns3:atemp>15.0</ns3:atemp>
            <ns3:hr>135</ns3:hr>
          </ns3:TrackPointExtension>
        </extensions>
      </trkpt>
      <trkpt lat="-22.0469569601118564605712890625" lon="166.44821338355541229248046875">
        <ele>911.20001220703125</ele>
        <time>2016-08-12T19:21:56.000Z</time>
        <extensions>
          <ns3:TrackPointExtension>
            <ns3:atemp>15.0</ns3:atemp>
            <ns3:hr>134</ns3:hr>
          </ns3:TrackPointExtension>
        </extensions>
      </trkpt>
      <trkpt lat="-22.046940363943576812744140625" lon="166.4482091926038265228271484375">
        <ele>911.20001220703125</ele>
        <time>2016-08-12T19:21:57.000Z</time>
        <extensions>
          <ns3:TrackPointExtension>
            <ns3:atemp>15.0</ns3:atemp>
            <ns3:hr>134</ns3:hr>
          </ns3:TrackPointExtension>
        </extensions>
      </trkpt>
      <trkpt lat="-22.0469184033572673797607421875" lon="166.4482031576335430145263671875">
        <ele>911.20001220703125</ele>
        <time>2016-08-12T19:21:58.000Z</time>
        <extensions>
          <ns3:TrackPointExtension>
            <ns3:atemp>15.0</ns3:atemp>
            <ns3:hr>134</ns3:hr>
          </ns3:TrackPointExtension>
        </extensions>
      </trkpt>
      <trkpt lat="-22.04690138809382915496826171875" lon="166.448192596435546875">
        <ele>911.5999755859375</ele>
        <time>2016-08-12T19:21:59.000Z</time>
        <extensions>
          <ns3:TrackPointExtension>
            <ns3:atemp>15.0</ns3:atemp>
            <ns3:hr>133</ns3:hr>
          </ns3:TrackPointExtension>
        </extensions>
      </trkpt>
      <trkpt lat="-22.04688847996294498443603515625" lon="166.448182202875614166259765625">
        <ele>911.5999755859375</ele>
        <time>2016-08-12T19:22:00.000Z</time>
        <extensions>
          <ns3:TrackPointExtension>
            <ns3:atemp>15.0</ns3:atemp>
            <ns3:hr>133</ns3:hr>
          </ns3:TrackPointExtension>
        </extensions>
      </trkpt>
      <trkpt lat="-22.04687138088047504425048828125" lon="166.4481692947447299957275390625">
        <ele>911.5999755859375</ele>
        <time>2016-08-12T19:22:01.000Z</time>
        <extensions>
          <ns3:TrackPointExtension>
            <ns3:atemp>15.0</ns3:atemp>
            <ns3:hr>133</ns3:hr>
          </ns3:TrackPointExtension>
        </extensions>
      </trkpt>
      <trkpt lat="-22.04685361124575138092041015625" lon="166.44815781153738498687744140625">
        <ele>911.79998779296875</ele>
        <time>2016-08-12T19:22:02.000Z</time>
        <extensions>
          <ns3:TrackPointExtension>
            <ns3:atemp>15.0</ns3:atemp>
            <ns3:hr>133</ns3:hr>
          </ns3:TrackPointExtension>
        </extensions>
      </trkpt>
      <trkpt lat="-22.04683617688715457916259765625" lon="166.44814624451100826263427734375">
        <ele>912.20001220703125</ele>
        <time>2016-08-12T19:22:03.000Z</time>
        <extensions>
          <ns3:TrackPointExtension>
            <ns3:atemp>15.0</ns3:atemp>
            <ns3:hr>133</ns3:hr>
          </ns3:TrackPointExtension>
        </extensions>
      </trkpt>
      <trkpt lat="-22.0468154735863208770751953125" lon="166.44813157618045806884765625">
        <ele>912</ele>
        <time>2016-08-12T19:22:04.000Z</time>
        <extensions>
          <ns3:TrackPointExtension>
            <ns3:atemp>15.0</ns3:atemp>
            <ns3:hr>133</ns3:hr>
          </ns3:TrackPointExtension>
        </extensions>
      </trkpt>
      <trkpt lat="-22.04679585993289947509765625" lon="166.44812143407762050628662109375">
        <ele>912</ele>
        <time>2016-08-12T19:22:05.000Z</time>
        <extensions>
          <ns3:TrackPointExtension>
            <ns3:atemp>15.0</ns3:atemp>
            <ns3:hr>132</ns3:hr>
          </ns3:TrackPointExtension>
        </extensions>
      </trkpt>
      <trkpt lat="-22.0467732287943363189697265625" lon="166.44810819067060947418212890625">
        <ele>912.4000244140625</ele>
        <time>2016-08-12T19:22:06.000Z</time>
        <extensions>
          <ns3:TrackPointExtension>
            <ns3:atemp>15.0</ns3:atemp>
            <ns3:hr>132</ns3:hr>
          </ns3:TrackPointExtension>
        </extensions>
      </trkpt>
      <trkpt lat="-22.04675302840769290924072265625" lon="166.4480965398252010345458984375">
        <ele>912.5999755859375</ele>
        <time>2016-08-12T19:22:07.000Z</time>
        <extensions>
          <ns3:TrackPointExtension>
            <ns3:atemp>15.0</ns3:atemp>
            <ns3:hr>133</ns3:hr>
          </ns3:TrackPointExtension>
        </extensions>
      </trkpt>
      <trkpt lat="-22.04673391766846179962158203125" lon="166.44809025339782238006591796875">
        <ele>912.5999755859375</ele>
        <time>2016-08-12T19:22:08.000Z</time>
        <extensions>
          <ns3:TrackPointExtension>
            <ns3:atemp>15.0</ns3:atemp>
            <ns3:hr>133</ns3:hr>
          </ns3:TrackPointExtension>
        </extensions>
      </trkpt>
      <trkpt lat="-22.04671078361570835113525390625" lon="166.44808187149465084075927734375">
        <ele>912.4000244140625</ele>
        <time>2016-08-12T19:22:09.000Z</time>
        <extensions>
          <ns3:TrackPointExtension>
            <ns3:atemp>15.0</ns3:atemp>
            <ns3:hr>133</ns3:hr>
          </ns3:TrackPointExtension>
        </extensions>
      </trkpt>
      <trkpt lat="-22.0466904155910015106201171875" lon="166.44807550124824047088623046875">
        <ele>913</ele>
        <time>2016-08-12T19:22:10.000Z</time>
        <extensions>
          <ns3:TrackPointExtension>
            <ns3:atemp>15.0</ns3:atemp>
            <ns3:hr>133</ns3:hr>
          </ns3:TrackPointExtension>
        </extensions>
      </trkpt>
      <trkpt lat="-22.046666443347930908203125" lon="166.4480713941156864166259765625">
        <ele>913.20001220703125</ele>
        <time>2016-08-12T19:22:11.000Z</time>
        <extensions>
          <ns3:TrackPointExtension>
            <ns3:atemp>15.0</ns3:atemp>
            <ns3:hr>133</ns3:hr>
          </ns3:TrackPointExtension>
        </extensions>
      </trkpt>
      <trkpt lat="-22.0466431416571140289306640625" lon="166.44806946627795696258544921875">
        <ele>913.20001220703125</ele>
        <time>2016-08-12T19:22:12.000Z</time>
        <extensions>
          <ns3:TrackPointExtension>
            <ns3:atemp>15.0</ns3:atemp>
            <ns3:hr>132</ns3:hr>
          </ns3:TrackPointExtension>
        </extensions>
      </trkpt>
      <trkpt lat="-22.0466250367462635040283203125" lon="166.44807122647762298583984375">
        <ele>913.4000244140625</ele>
        <time>2016-08-12T19:22:13.000Z</time>
        <extensions>
          <ns3:TrackPointExtension>
            <ns3:atemp>15.0</ns3:atemp>
            <ns3:hr>132</ns3:hr>
          </ns3:TrackPointExtension>
        </extensions>
      </trkpt>
      <trkpt lat="-22.04660533927381038665771484375" lon="166.44807348959147930145263671875">
        <ele>913.5999755859375</ele>
        <time>2016-08-12T19:22:14.000Z</time>
        <extensions>
          <ns3:TrackPointExtension>
            <ns3:atemp>15.0</ns3:atemp>
            <ns3:hr>132</ns3:hr>
          </ns3:TrackPointExtension>
        </extensions>
      </trkpt>
      <trkpt lat="-22.04658337868750095367431640625" lon="166.44807751290500164031982421875">
        <ele>913.5999755859375</ele>
        <time>2016-08-12T19:22:15.000Z</time>
        <extensions>
          <ns3:TrackPointExtension>
            <ns3:atemp>15.0</ns3:atemp>
            <ns3:hr>132</ns3:hr>
          </ns3:TrackPointExtension>
        </extensions>
      </trkpt>
      <trkpt lat="-22.04656393267214298248291015625" lon="166.448083631694316864013671875">
        <ele>914</ele>
        <time>2016-08-12T19:22:16.000Z</time>
        <extensions>
          <ns3:TrackPointExtension>
            <ns3:atemp>15.0</ns3:atemp>
            <ns3:hr>132</ns3:hr>
          </ns3:TrackPointExtension>
        </extensions>
      </trkpt>
      <trkpt lat="-22.04654297791421413421630859375" lon="166.44809310324490070343017578125">
        <ele>914.5999755859375</ele>
        <time>2016-08-12T19:22:17.000Z</time>
        <extensions>
          <ns3:TrackPointExtension>
            <ns3:atemp>15.0</ns3:atemp>
            <ns3:hr>132</ns3:hr>
          </ns3:TrackPointExtension>
        </extensions>
      </trkpt>
      <trkpt lat="-22.04652302898466587066650390625" lon="166.4481042511761188507080078125">
        <ele>914.5999755859375</ele>
        <time>2016-08-12T19:22:18.000Z</time>
        <extensions>
          <ns3:TrackPointExtension>
            <ns3:atemp>15.0</ns3:atemp>
            <ns3:hr>132</ns3:hr>
          </ns3:TrackPointExtension>
        </extensions>
      </trkpt>
      <trkpt lat="-22.0465043373405933380126953125" lon="166.44811456091701984405517578125">
        <ele>914.4000244140625</ele>
        <time>2016-08-12T19:22:19.000Z</time>
        <extensions>
          <ns3:TrackPointExtension>
            <ns3:atemp>15.0</ns3:atemp>
            <ns3:hr>133</ns3:hr>
          </ns3:TrackPointExtension>
        </extensions>
      </trkpt>
      <trkpt lat="-22.0464853942394256591796875" lon="166.44812311045825481414794921875">
        <ele>914.5999755859375</ele>
        <time>2016-08-12T19:22:20.000Z</time>
        <extensions>
          <ns3:TrackPointExtension>
            <ns3:atemp>15.0</ns3:atemp>
            <ns3:hr>133</ns3:hr>
          </ns3:TrackPointExtension>
        </extensions>
      </trkpt>
      <trkpt lat="-22.04646469093859195709228515625" lon="166.4481317438185214996337890625">
        <ele>914.79998779296875</ele>
        <time>2016-08-12T19:22:21.000Z</time>
        <extensions>
          <ns3:TrackPointExtension>
            <ns3:atemp>15.0</ns3:atemp>
            <ns3:hr>133</ns3:hr>
          </ns3:TrackPointExtension>
        </extensions>
      </trkpt>
      <trkpt lat="-22.0464436523616313934326171875" lon="166.44813937135040760040283203125">
        <ele>914.79998779296875</ele>
        <time>2016-08-12T19:22:22.000Z</time>
        <extensions>
          <ns3:TrackPointExtension>
            <ns3:atemp>15.0</ns3:atemp>
            <ns3:hr>134</ns3:hr>
          </ns3:TrackPointExtension>
        </extensions>
      </trkpt>
      <trkpt lat="-22.0464201830327510833740234375" lon="166.44814272411167621612548828125">
        <ele>915</ele>
        <time>2016-08-12T19:22:23.000Z</time>
        <extensions>
          <ns3:TrackPointExtension>
            <ns3:atemp>15.0</ns3:atemp>
            <ns3:hr>134</ns3:hr>
          </ns3:TrackPointExtension>
        </extensions>
      </trkpt>
      <trkpt lat="-22.0463977195322513580322265625" lon="166.44814389757812023162841796875">
        <ele>915</ele>
        <time>2016-08-12T19:22:24.000Z</time>
        <extensions>
          <ns3:TrackPointExtension>
            <ns3:atemp>15.0</ns3:atemp>
            <ns3:hr>134</ns3:hr>
          </ns3:TrackPointExtension>
        </extensions>
      </trkpt>
      <trkpt lat="-22.04637785442173480987548828125" lon="166.4481441490352153778076171875">
        <ele>915</ele>
        <time>2016-08-12T19:22:25.000Z</time>
        <extensions>
          <ns3:TrackPointExtension>
            <ns3:atemp>15.0</ns3:atemp>
            <ns3:hr>133</ns3:hr>
          </ns3:TrackPointExtension>
        </extensions>
      </trkpt>
      <trkpt lat="-22.04635488800704479217529296875" lon="166.44814372994005680084228515625">
        <ele>915.20001220703125</ele>
        <time>2016-08-12T19:22:26.000Z</time>
        <extensions>
          <ns3:TrackPointExtension>
            <ns3:atemp>15.0</ns3:atemp>
            <ns3:hr>134</ns3:hr>
          </ns3:TrackPointExtension>
        </extensions>
      </trkpt>
      <trkpt lat="-22.046334184706211090087890625" lon="166.44814305938780307769775390625">
        <ele>915.20001220703125</ele>
        <time>2016-08-12T19:22:27.000Z</time>
        <extensions>
          <ns3:TrackPointExtension>
            <ns3:atemp>15.0</ns3:atemp>
            <ns3:hr>133</ns3:hr>
          </ns3:TrackPointExtension>
        </extensions>
      </trkpt>
      <trkpt lat="-22.0463108830153942108154296875" lon="166.44813987426459789276123046875">
        <ele>915.20001220703125</ele>
        <time>2016-08-12T19:22:28.000Z</time>
        <extensions>
          <ns3:TrackPointExtension>
            <ns3:atemp>15.0</ns3:atemp>
            <ns3:hr>134</ns3:hr>
          </ns3:TrackPointExtension>
        </extensions>
      </trkpt>
      <trkpt lat="-22.04628758132457733154296875" lon="166.4481334201991558074951171875">
        <ele>915.20001220703125</ele>
        <time>2016-08-12T19:22:29.000Z</time>
        <extensions>
          <ns3:TrackPointExtension>
            <ns3:atemp>15.0</ns3:atemp>
            <ns3:hr>134</ns3:hr>
          </ns3:TrackPointExtension>
        </extensions>
      </trkpt>
      <trkpt lat="-22.046267129480838775634765625" lon="166.44813165999948978424072265625">
        <ele>915</ele>
        <time>2016-08-12T19:22:30.000Z</time>
        <extensions>
          <ns3:TrackPointExtension>
            <ns3:atemp>15.0</ns3:atemp>
            <ns3:hr>134</ns3:hr>
          </ns3:TrackPointExtension>
        </extensions>
      </trkpt>
      <trkpt lat="-22.04624458216130733489990234375" lon="166.4481322467327117919921875">
        <ele>915</ele>
        <time>2016-08-12T19:22:31.000Z</time>
        <extensions>
          <ns3:TrackPointExtension>
            <ns3:atemp>15.0</ns3:atemp>
            <ns3:hr>134</ns3:hr>
          </ns3:TrackPointExtension>
        </extensions>
      </trkpt>
      <trkpt lat="-22.0462206937372684478759765625" lon="166.4481334201991558074951171875">
        <ele>915</ele>
        <time>2016-08-12T19:22:32.000Z</time>
        <extensions>
          <ns3:TrackPointExtension>
            <ns3:atemp>15.0</ns3:atemp>
            <ns3:hr>135</ns3:hr>
          </ns3:TrackPointExtension>
        </extensions>
      </trkpt>
      <trkpt lat="-22.04619864933192729949951171875" lon="166.44813702441751956939697265625">
        <ele>914.79998779296875</ele>
        <time>2016-08-12T19:22:33.000Z</time>
        <extensions>
          <ns3:TrackPointExtension>
            <ns3:atemp>15.0</ns3:atemp>
            <ns3:hr>135</ns3:hr>
          </ns3:TrackPointExtension>
        </extensions>
      </trkpt>
      <trkpt lat="-22.046174593269824981689453125" lon="166.44814607687294483184814453125">
        <ele>914.79998779296875</ele>
        <time>2016-08-12T19:22:34.000Z</time>
        <extensions>
          <ns3:TrackPointExtension>
            <ns3:atemp>15.0</ns3:atemp>
            <ns3:hr>135</ns3:hr>
          </ns3:TrackPointExtension>
        </extensions>
      </trkpt>
      <trkpt lat="-22.0461516268551349639892578125" lon="166.44816149957478046417236328125">
        <ele>914.79998779296875</ele>
        <time>2016-08-12T19:22:35.000Z</time>
        <extensions>
          <ns3:TrackPointExtension>
            <ns3:atemp>15.0</ns3:atemp>
            <ns3:hr>135</ns3:hr>
          </ns3:TrackPointExtension>
        </extensions>
      </trkpt>
      <trkpt lat="-22.04613293521106243133544921875" lon="166.44817977212369441986083984375">
        <ele>914.79998779296875</ele>
        <time>2016-08-12T19:22:36.000Z</time>
        <extensions>
          <ns3:TrackPointExtension>
            <ns3:atemp>15.0</ns3:atemp>
            <ns3:hr>135</ns3:hr>
          </ns3:TrackPointExtension>
        </extensions>
      </trkpt>
      <trkpt lat="-22.0461130701005458831787109375" lon="166.44819863140583038330078125">
        <ele>914.4000244140625</ele>
        <time>2016-08-12T19:22:37.000Z</time>
        <extensions>
          <ns3:TrackPointExtension>
            <ns3:atemp>15.0</ns3:atemp>
            <ns3:hr>135</ns3:hr>
          </ns3:TrackPointExtension>
        </extensions>
      </trkpt>
      <trkpt lat="-22.0460979826748371124267578125" lon="166.44822034053504467010498046875">
        <ele>914.20001220703125</ele>
        <time>2016-08-12T19:22:38.000Z</time>
        <extensions>
          <ns3:TrackPointExtension>
            <ns3:atemp>15.0</ns3:atemp>
            <ns3:hr>135</ns3:hr>
          </ns3:TrackPointExtension>
        </extensions>
      </trkpt>
      <trkpt lat="-22.046084068715572357177734375" lon="166.4482417143881320953369140625">
        <ele>914.20001220703125</ele>
        <time>2016-08-12T19:22:39.000Z</time>
        <extensions>
          <ns3:TrackPointExtension>
            <ns3:atemp>15.0</ns3:atemp>
            <ns3:hr>135</ns3:hr>
          </ns3:TrackPointExtension>
        </extensions>
      </trkpt>
      <trkpt lat="-22.04606898128986358642578125" lon="166.44826627336442470550537109375">
        <ele>913.5999755859375</ele>
        <time>2016-08-12T19:22:40.000Z</time>
        <extensions>
          <ns3:TrackPointExtension>
            <ns3:atemp>15.0</ns3:atemp>
            <ns3:hr>134</ns3:hr>
          </ns3:TrackPointExtension>
        </extensions>
      </trkpt>
      <trkpt lat="-22.046053893864154815673828125" lon="166.44828957505524158477783203125">
        <ele>913.4000244140625</ele>
        <time>2016-08-12T19:22:41.000Z</time>
        <extensions>
          <ns3:TrackPointExtension>
            <ns3:atemp>15.0</ns3:atemp>
            <ns3:hr>134</ns3:hr>
          </ns3:TrackPointExtension>
        </extensions>
      </trkpt>
      <trkpt lat="-22.046037800610065460205078125" lon="166.448314972221851348876953125">
        <ele>913.5999755859375</ele>
        <time>2016-08-12T19:22:42.000Z</time>
        <extensions>
          <ns3:TrackPointExtension>
            <ns3:atemp>15.0</ns3:atemp>
            <ns3:hr>134</ns3:hr>
          </ns3:TrackPointExtension>
        </extensions>
      </trkpt>
      <trkpt lat="-22.04602011479437351226806640625" lon="166.44834087230265140533447265625">
        <ele>913.5999755859375</ele>
        <time>2016-08-12T19:22:43.000Z</time>
        <extensions>
          <ns3:TrackPointExtension>
            <ns3:atemp>15.0</ns3:atemp>
            <ns3:hr>134</ns3:hr>
          </ns3:TrackPointExtension>
        </extensions>
      </trkpt>
      <trkpt lat="-22.046008966863155364990234375" lon="166.4483677782118320465087890625">
        <ele>913.20001220703125</ele>
        <time>2016-08-12T19:22:44.000Z</time>
        <extensions>
          <ns3:TrackPointExtension>
            <ns3:atemp>15.0</ns3:atemp>
            <ns3:hr>133</ns3:hr>
          </ns3:TrackPointExtension>
        </extensions>
      </trkpt>
      <trkpt lat="-22.04599714837968349456787109375" lon="166.4483925886452198028564453125">
        <ele>912.5999755859375</ele>
        <time>2016-08-12T19:22:45.000Z</time>
        <extensions>
          <ns3:TrackPointExtension>
            <ns3:atemp>15.0</ns3:atemp>
            <ns3:hr>133</ns3:hr>
          </ns3:TrackPointExtension>
        </extensions>
      </trkpt>
      <trkpt lat="-22.04598591662943363189697265625" lon="166.44841681234538555145263671875">
        <ele>912.4000244140625</ele>
        <time>2016-08-12T19:22:46.000Z</time>
        <extensions>
          <ns3:TrackPointExtension>
            <ns3:atemp>15.0</ns3:atemp>
            <ns3:hr>133</ns3:hr>
          </ns3:TrackPointExtension>
        </extensions>
      </trkpt>
      <trkpt lat="-22.0459749363362789154052734375" lon="166.44844078458845615386962890625">
        <ele>912.20001220703125</ele>
        <time>2016-08-12T19:22:47.000Z</time>
        <extensions>
          <ns3:TrackPointExtension>
            <ns3:atemp>15.0</ns3:atemp>
            <ns3:hr>133</ns3:hr>
          </ns3:TrackPointExtension>
        </extensions>
      </trkpt>
      <trkpt lat="-22.045967392623424530029296875" lon="166.44846953451633453369140625">
        <ele>912.20001220703125</ele>
        <time>2016-08-12T19:22:48.000Z</time>
        <extensions>
          <ns3:TrackPointExtension>
            <ns3:atemp>15.0</ns3:atemp>
            <ns3:hr>132</ns3:hr>
          </ns3:TrackPointExtension>
        </extensions>
      </trkpt>
      <trkpt lat="-22.04596010036766529083251953125" lon="166.44849258475005626678466796875">
        <ele>912.20001220703125</ele>
        <time>2016-08-12T19:22:49.000Z</time>
        <extensions>
          <ns3:TrackPointExtension>
            <ns3:atemp>15.0</ns3:atemp>
            <ns3:hr>132</ns3:hr>
          </ns3:TrackPointExtension>
        </extensions>
      </trkpt>
      <trkpt lat="-22.0459487847983837127685546875" lon="166.448515467345714569091796875">
        <ele>912.5999755859375</ele>
        <time>2016-08-12T19:22:50.000Z</time>
        <extensions>
          <ns3:TrackPointExtension>
            <ns3:atemp>15.0</ns3:atemp>
            <ns3:hr>132</ns3:hr>
          </ns3:TrackPointExtension>
        </extensions>
      </trkpt>
      <trkpt lat="-22.04594417475163936614990234375" lon="166.448544971644878387451171875">
        <ele>912.79998779296875</ele>
        <time>2016-08-12T19:22:51.000Z</time>
        <extensions>
          <ns3:TrackPointExtension>
            <ns3:atemp>15.0</ns3:atemp>
            <ns3:hr>132</ns3:hr>
          </ns3:TrackPointExtension>
        </extensions>
      </trkpt>
      <trkpt lat="-22.0459333620965480804443359375" lon="166.4485665969550609588623046875">
        <ele>912.5999755859375</ele>
        <time>2016-08-12T19:22:52.000Z</time>
        <extensions>
          <ns3:TrackPointExtension>
            <ns3:atemp>15.0</ns3:atemp>
            <ns3:hr>132</ns3:hr>
          </ns3:TrackPointExtension>
        </extensions>
      </trkpt>
      <trkpt lat="-22.04591684974730014801025390625" lon="166.448588557541370391845703125">
        <ele>912.5999755859375</ele>
        <time>2016-08-12T19:22:53.000Z</time>
        <extensions>
          <ns3:TrackPointExtension>
            <ns3:atemp>15.0</ns3:atemp>
            <ns3:hr>132</ns3:hr>
          </ns3:TrackPointExtension>
        </extensions>
      </trkpt>
      <trkpt lat="-22.04590092413127422332763671875" lon="166.4486061595380306243896484375">
        <ele>913</ele>
        <time>2016-08-12T19:22:54.000Z</time>
        <extensions>
          <ns3:TrackPointExtension>
            <ns3:atemp>15.0</ns3:atemp>
            <ns3:hr>131</ns3:hr>
          </ns3:TrackPointExtension>
        </extensions>
      </trkpt>
      <trkpt lat="-22.0458844117820262908935546875" lon="166.44862049259245395660400390625">
        <ele>913.20001220703125</ele>
        <time>2016-08-12T19:22:55.000Z</time>
        <extensions>
          <ns3:TrackPointExtension>
            <ns3:atemp>15.0</ns3:atemp>
            <ns3:hr>131</ns3:hr>
          </ns3:TrackPointExtension>
        </extensions>
      </trkpt>
      <trkpt lat="-22.04586647450923919677734375" lon="166.448634825646877288818359375">
        <ele>913</ele>
        <time>2016-08-12T19:22:56.000Z</time>
        <extensions>
          <ns3:TrackPointExtension>
            <ns3:atemp>15.0</ns3:atemp>
            <ns3:hr>131</ns3:hr>
          </ns3:TrackPointExtension>
        </extensions>
      </trkpt>
      <trkpt lat="-22.04584635794162750244140625" lon="166.44864815287292003631591796875">
        <ele>913</ele>
        <time>2016-08-12T19:22:57.000Z</time>
        <extensions>
          <ns3:TrackPointExtension>
            <ns3:atemp>15.0</ns3:atemp>
            <ns3:hr>131</ns3:hr>
          </ns3:TrackPointExtension>
        </extensions>
      </trkpt>
      <trkpt lat="-22.04582666046917438507080078125" lon="166.4486661739647388458251953125">
        <ele>913.4000244140625</ele>
        <time>2016-08-12T19:22:58.000Z</time>
        <extensions>
          <ns3:TrackPointExtension>
            <ns3:atemp>15.0</ns3:atemp>
            <ns3:hr>131</ns3:hr>
          </ns3:TrackPointExtension>
        </extensions>
      </trkpt>
      <trkpt lat="-22.04581090249121189117431640625" lon="166.448684446513652801513671875">
        <ele>913.5999755859375</ele>
        <time>2016-08-12T19:22:59.000Z</time>
        <extensions>
          <ns3:TrackPointExtension>
            <ns3:atemp>15.0</ns3:atemp>
            <ns3:hr>131</ns3:hr>
          </ns3:TrackPointExtension>
        </extensions>
      </trkpt>
      <trkpt lat="-22.04579539597034454345703125" lon="166.44870246760547161102294921875">
        <ele>913.4000244140625</ele>
        <time>2016-08-12T19:23:00.000Z</time>
        <extensions>
          <ns3:TrackPointExtension>
            <ns3:atemp>15.0</ns3:atemp>
            <ns3:hr>130</ns3:hr>
          </ns3:TrackPointExtension>
        </extensions>
      </trkpt>
      <trkpt lat="-22.0457777939736843109130859375" lon="166.44871520809829235076904296875">
        <ele>913.4000244140625</ele>
        <time>2016-08-12T19:23:01.000Z</time>
        <extensions>
          <ns3:TrackPointExtension>
            <ns3:atemp>15.0</ns3:atemp>
            <ns3:hr>130</ns3:hr>
          </ns3:TrackPointExtension>
        </extensions>
      </trkpt>
      <trkpt lat="-22.045760862529277801513671875" lon="166.448725350201129913330078125">
        <ele>913.5999755859375</ele>
        <time>2016-08-12T19:23:02.000Z</time>
        <extensions>
          <ns3:TrackPointExtension>
            <ns3:atemp>15.0</ns3:atemp>
            <ns3:hr>131</ns3:hr>
          </ns3:TrackPointExtension>
        </extensions>
      </trkpt>
      <trkpt lat="-22.04574217088520526885986328125" lon="166.44873817451298236846923828125">
        <ele>913.4000244140625</ele>
        <time>2016-08-12T19:23:03.000Z</time>
        <extensions>
          <ns3:TrackPointExtension>
            <ns3:atemp>15.0</ns3:atemp>
            <ns3:hr>130</ns3:hr>
          </ns3:TrackPointExtension>
        </extensions>
      </trkpt>
      <trkpt lat="-22.0457236468791961669921875" lon="166.448747813701629638671875">
        <ele>913.4000244140625</ele>
        <time>2016-08-12T19:23:04.000Z</time>
        <extensions>
          <ns3:TrackPointExtension>
            <ns3:atemp>15.0</ns3:atemp>
            <ns3:hr>130</ns3:hr>
          </ns3:TrackPointExtension>
        </extensions>
      </trkpt>
      <trkpt lat="-22.04570512287318706512451171875" lon="166.44875694997608661651611328125">
        <ele>913.79998779296875</ele>
        <time>2016-08-12T19:23:05.000Z</time>
        <extensions>
          <ns3:TrackPointExtension>
            <ns3:atemp>15.0</ns3:atemp>
            <ns3:hr>131</ns3:hr>
          </ns3:TrackPointExtension>
        </extensions>
      </trkpt>
      <trkpt lat="-22.04568232409656047821044921875" lon="166.44876952283084392547607421875">
        <ele>913.79998779296875</ele>
        <time>2016-08-12T19:23:06.000Z</time>
        <extensions>
          <ns3:TrackPointExtension>
            <ns3:atemp>15.0</ns3:atemp>
            <ns3:hr>130</ns3:hr>
          </ns3:TrackPointExtension>
        </extensions>
      </trkpt>
      <trkpt lat="-22.045661620795726776123046875" lon="166.44878259859979152679443359375">
        <ele>913.5999755859375</ele>
        <time>2016-08-12T19:23:07.000Z</time>
        <extensions>
          <ns3:TrackPointExtension>
            <ns3:atemp>15.0</ns3:atemp>
            <ns3:hr>131</ns3:hr>
          </ns3:TrackPointExtension>
        </extensions>
      </trkpt>
      <trkpt lat="-22.0456416718661785125732421875" lon="166.4487947523593902587890625">
        <ele>913.4000244140625</ele>
        <time>2016-08-12T19:23:08.000Z</time>
        <extensions>
          <ns3:TrackPointExtension>
            <ns3:atemp>15.0</ns3:atemp>
            <ns3:hr>130</ns3:hr>
          </ns3:TrackPointExtension>
        </extensions>
      </trkpt>
      <trkpt lat="-22.0456230640411376953125" lon="166.44881042651832103729248046875">
        <ele>913.20001220703125</ele>
        <time>2016-08-12T19:23:09.000Z</time>
        <extensions>
          <ns3:TrackPointExtension>
            <ns3:atemp>15.0</ns3:atemp>
            <ns3:hr>130</ns3:hr>
          </ns3:TrackPointExtension>
        </extensions>
      </trkpt>
      <trkpt lat="-22.04560671932995319366455078125" lon="166.44882668741047382354736328125">
        <ele>913</ele>
        <time>2016-08-12T19:23:10.000Z</time>
        <extensions>
          <ns3:TrackPointExtension>
            <ns3:atemp>15.0</ns3:atemp>
            <ns3:hr>130</ns3:hr>
          </ns3:TrackPointExtension>
        </extensions>
      </trkpt>
      <trkpt lat="-22.0455900393426418304443359375" lon="166.44884504377841949462890625">
        <ele>912.79998779296875</ele>
        <time>2016-08-12T19:23:11.000Z</time>
        <extensions>
          <ns3:TrackPointExtension>
            <ns3:atemp>15.0</ns3:atemp>
            <ns3:hr>130</ns3:hr>
          </ns3:TrackPointExtension>
        </extensions>
      </trkpt>
      <trkpt lat="-22.04557285644114017486572265625" lon="166.44886239431798458099365234375">
        <ele>912.79998779296875</ele>
        <time>2016-08-12T19:23:12.000Z</time>
        <extensions>
          <ns3:TrackPointExtension>
            <ns3:atemp>15.0</ns3:atemp>
            <ns3:hr>131</ns3:hr>
          </ns3:TrackPointExtension>
        </extensions>
      </trkpt>
      <trkpt lat="-22.045552991330623626708984375" lon="166.44887245260179042816162109375">
        <ele>913.20001220703125</ele>
        <time>2016-08-12T19:23:13.000Z</time>
        <extensions>
          <ns3:TrackPointExtension>
            <ns3:atemp>15.0</ns3:atemp>
            <ns3:hr>130</ns3:hr>
          </ns3:TrackPointExtension>
        </extensions>
      </trkpt>
      <trkpt lat="-22.04553119838237762451171875" lon="166.4488854445517063140869140625">
        <ele>913.20001220703125</ele>
        <time>2016-08-12T19:23:14.000Z</time>
        <extensions>
          <ns3:TrackPointExtension>
            <ns3:atemp>15.0</ns3:atemp>
            <ns3:hr>131</ns3:hr>
          </ns3:TrackPointExtension>
        </extensions>
      </trkpt>
      <trkpt lat="-22.0455095730721950531005859375" lon="166.448895670473575592041015625">
        <ele>913</ele>
        <time>2016-08-12T19:23:15.000Z</time>
        <extensions>
          <ns3:TrackPointExtension>
            <ns3:atemp>15.0</ns3:atemp>
            <ns3:hr>130</ns3:hr>
          </ns3:TrackPointExtension>
        </extensions>
      </trkpt>
      <trkpt lat="-22.0454874448478221893310546875" lon="166.4489035494625568389892578125">
        <ele>913</ele>
        <time>2016-08-12T19:23:16.000Z</time>
        <extensions>
          <ns3:TrackPointExtension>
            <ns3:atemp>15.0</ns3:atemp>
            <ns3:hr>131</ns3:hr>
          </ns3:TrackPointExtension>
        </extensions>
      </trkpt>
      <trkpt lat="-22.045465819537639617919921875" lon="166.448912434279918670654296875">
        <ele>913.20001220703125</ele>
        <time>2016-08-12T19:23:17.000Z</time>
        <extensions>
          <ns3:TrackPointExtension>
            <ns3:atemp>15.0</ns3:atemp>
            <ns3:hr>130</ns3:hr>
          </ns3:TrackPointExtension>
        </extensions>
      </trkpt>
      <trkpt lat="-22.04544327221810817718505859375" lon="166.44892090000212192535400390625">
        <ele>913</ele>
        <time>2016-08-12T19:23:18.000Z</time>
        <extensions>
          <ns3:TrackPointExtension>
            <ns3:atemp>15.0</ns3:atemp>
            <ns3:hr>130</ns3:hr>
          </ns3:TrackPointExtension>
        </extensions>
      </trkpt>
      <trkpt lat="-22.045418880879878997802734375" lon="166.44892727024853229522705078125">
        <ele>913</ele>
        <time>2016-08-12T19:23:19.000Z</time>
        <extensions>
          <ns3:TrackPointExtension>
            <ns3:atemp>15.0</ns3:atemp>
            <ns3:hr>130</ns3:hr>
          </ns3:TrackPointExtension>
        </extensions>
      </trkpt>
      <trkpt lat="-22.0453952439129352569580078125" lon="166.448936574161052703857421875">
        <ele>913</ele>
        <time>2016-08-12T19:23:20.000Z</time>
        <extensions>
          <ns3:TrackPointExtension>
            <ns3:atemp>15.0</ns3:atemp>
            <ns3:hr>130</ns3:hr>
          </ns3:TrackPointExtension>
        </extensions>
      </trkpt>
      <trkpt lat="-22.04537185840308666229248046875" lon="166.44894487224519252777099609375">
        <ele>912.79998779296875</ele>
        <time>2016-08-12T19:23:21.000Z</time>
        <extensions>
          <ns3:TrackPointExtension>
            <ns3:atemp>15.0</ns3:atemp>
            <ns3:hr>130</ns3:hr>
          </ns3:TrackPointExtension>
        </extensions>
      </trkpt>
      <trkpt lat="-22.04534947872161865234375" lon="166.44895392470061779022216796875">
        <ele>912.5999755859375</ele>
        <time>2016-08-12T19:23:22.000Z</time>
        <extensions>
          <ns3:TrackPointExtension>
            <ns3:atemp>15.0</ns3:atemp>
            <ns3:hr>131</ns3:hr>
          </ns3:TrackPointExtension>
        </extensions>
      </trkpt>
      <trkpt lat="-22.04532869160175323486328125" lon="166.44896398298442363739013671875">
        <ele>912.5999755859375</ele>
        <time>2016-08-12T19:23:23.000Z</time>
        <extensions>
          <ns3:TrackPointExtension>
            <ns3:atemp>15.0</ns3:atemp>
            <ns3:hr>131</ns3:hr>
          </ns3:TrackPointExtension>
        </extensions>
      </trkpt>
      <trkpt lat="-22.04530513845384120941162109375" lon="166.448972783982753753662109375">
        <ele>913</ele>
        <time>2016-08-12T19:23:24.000Z</time>
        <extensions>
          <ns3:TrackPointExtension>
            <ns3:atemp>15.0</ns3:atemp>
            <ns3:hr>131</ns3:hr>
          </ns3:TrackPointExtension>
        </extensions>
      </trkpt>
      <trkpt lat="-22.045282088220119476318359375" lon="166.44898208789527416229248046875">
        <ele>913.5999755859375</ele>
        <time>2016-08-12T19:23:25.000Z</time>
        <extensions>
          <ns3:TrackPointExtension>
            <ns3:atemp>15.0</ns3:atemp>
            <ns3:hr>131</ns3:hr>
          </ns3:TrackPointExtension>
        </extensions>
      </trkpt>
      <trkpt lat="-22.04526239074766635894775390625" lon="166.44898879341781139373779296875">
        <ele>913.5999755859375</ele>
        <time>2016-08-12T19:23:26.000Z</time>
        <extensions>
          <ns3:TrackPointExtension>
            <ns3:atemp>15.0</ns3:atemp>
            <ns3:hr>132</ns3:hr>
          </ns3:TrackPointExtension>
        </extensions>
      </trkpt>
      <trkpt lat="-22.04524126835167407989501953125" lon="166.44899466075003147125244140625">
        <ele>913.5999755859375</ele>
        <time>2016-08-12T19:23:27.000Z</time>
        <extensions>
          <ns3:TrackPointExtension>
            <ns3:atemp>15.0</ns3:atemp>
            <ns3:hr>132</ns3:hr>
          </ns3:TrackPointExtension>
        </extensions>
      </trkpt>
      <trkpt lat="-22.0452198944985866546630859375" lon="166.44899784587323665618896484375">
        <ele>914</ele>
        <time>2016-08-12T19:23:28.000Z</time>
        <extensions>
          <ns3:TrackPointExtension>
            <ns3:atemp>15.0</ns3:atemp>
            <ns3:hr>132</ns3:hr>
          </ns3:TrackPointExtension>
        </extensions>
      </trkpt>
      <trkpt lat="-22.0451984368264675140380859375" lon="166.44899549894034862518310546875">
        <ele>914.20001220703125</ele>
        <time>2016-08-12T19:23:29.000Z</time>
        <extensions>
          <ns3:TrackPointExtension>
            <ns3:atemp>15.0</ns3:atemp>
            <ns3:hr>132</ns3:hr>
          </ns3:TrackPointExtension>
        </extensions>
      </trkpt>
      <trkpt lat="-22.04517572186887264251708984375" lon="166.44899298436939716339111328125">
        <ele>914.20001220703125</ele>
        <time>2016-08-12T19:23:30.000Z</time>
        <extensions>
          <ns3:TrackPointExtension>
            <ns3:atemp>15.0</ns3:atemp>
            <ns3:hr>133</ns3:hr>
          </ns3:TrackPointExtension>
        </extensions>
      </trkpt>
      <trkpt lat="-22.04515342600643634796142578125" lon="166.448983848094940185546875">
        <ele>914.20001220703125</ele>
        <time>2016-08-12T19:23:31.000Z</time>
        <extensions>
          <ns3:TrackPointExtension>
            <ns3:atemp>15.0</ns3:atemp>
            <ns3:hr>133</ns3:hr>
          </ns3:TrackPointExtension>
        </extensions>
      </trkpt>
      <trkpt lat="-22.0451313816010951995849609375" lon="166.448979489505290985107421875">
        <ele>914.5999755859375</ele>
        <time>2016-08-12T19:23:32.000Z</time>
        <extensions>
          <ns3:TrackPointExtension>
            <ns3:atemp>15.0</ns3:atemp>
            <ns3:hr>133</ns3:hr>
          </ns3:TrackPointExtension>
        </extensions>
      </trkpt>
      <trkpt lat="-22.0451072417199611663818359375" lon="166.4489742927253246307373046875">
        <ele>914.20001220703125</ele>
        <time>2016-08-12T19:23:33.000Z</time>
        <extensions>
          <ns3:TrackPointExtension>
            <ns3:atemp>15.0</ns3:atemp>
            <ns3:hr>133</ns3:hr>
          </ns3:TrackPointExtension>
        </extensions>
      </trkpt>
      <trkpt lat="-22.045082934200763702392578125" lon="166.44896716810762882232666015625">
        <ele>914.4000244140625</ele>
        <time>2016-08-12T19:23:34.000Z</time>
        <extensions>
          <ns3:TrackPointExtension>
            <ns3:atemp>15.0</ns3:atemp>
            <ns3:hr>133</ns3:hr>
          </ns3:TrackPointExtension>
        </extensions>
      </trkpt>
      <trkpt lat="-22.04505871050059795379638671875" lon="166.4489618875086307525634765625">
        <ele>914.5999755859375</ele>
        <time>2016-08-12T19:23:35.000Z</time>
        <extensions>
          <ns3:TrackPointExtension>
            <ns3:atemp>15.0</ns3:atemp>
            <ns3:hr>133</ns3:hr>
          </ns3:TrackPointExtension>
        </extensions>
      </trkpt>
      <trkpt lat="-22.045035995543003082275390625" lon="166.44895275123417377471923828125">
        <ele>914.4000244140625</ele>
        <time>2016-08-12T19:23:36.000Z</time>
        <extensions>
          <ns3:TrackPointExtension>
            <ns3:atemp>15.0</ns3:atemp>
            <ns3:hr>134</ns3:hr>
          </ns3:TrackPointExtension>
        </extensions>
      </trkpt>
      <trkpt lat="-22.045014202594757080078125" lon="166.44894872792065143585205078125">
        <ele>914.20001220703125</ele>
        <time>2016-08-12T19:23:37.000Z</time>
        <extensions>
          <ns3:TrackPointExtension>
            <ns3:atemp>15.0</ns3:atemp>
            <ns3:hr>133</ns3:hr>
          </ns3:TrackPointExtension>
        </extensions>
      </trkpt>
      <trkpt lat="-22.04499165527522563934326171875" lon="166.44894571043550968170166015625">
        <ele>914.5999755859375</ele>
        <time>2016-08-12T19:23:38.000Z</time>
        <extensions>
          <ns3:TrackPointExtension>
            <ns3:atemp>15.0</ns3:atemp>
            <ns3:hr>134</ns3:hr>
          </ns3:TrackPointExtension>
        </extensions>
      </trkpt>
      <trkpt lat="-22.04496952705085277557373046875" lon="166.4489400945603847503662109375">
        <ele>915</ele>
        <time>2016-08-12T19:23:39.000Z</time>
        <extensions>
          <ns3:TrackPointExtension>
            <ns3:atemp>15.0</ns3:atemp>
            <ns3:hr>134</ns3:hr>
          </ns3:TrackPointExtension>
        </extensions>
      </trkpt>
      <trkpt lat="-22.04494924284517765045166015625" lon="166.44894034601747989654541015625">
        <ele>915</ele>
        <time>2016-08-12T19:23:40.000Z</time>
        <extensions>
          <ns3:TrackPointExtension>
            <ns3:atemp>15.0</ns3:atemp>
            <ns3:hr>134</ns3:hr>
          </ns3:TrackPointExtension>
        </extensions>
      </trkpt>
      <trkpt lat="-22.0449268631637096405029296875" lon="166.44894001074135303497314453125">
        <ele>915.20001220703125</ele>
        <time>2016-08-12T19:23:41.000Z</time>
        <extensions>
          <ns3:TrackPointExtension>
            <ns3:atemp>15.0</ns3:atemp>
            <ns3:hr>134</ns3:hr>
          </ns3:TrackPointExtension>
        </extensions>
      </trkpt>
      <trkpt lat="-22.04490624368190765380859375" lon="166.44894151948392391204833984375">
        <ele>915.5999755859375</ele>
        <time>2016-08-12T19:23:42.000Z</time>
        <extensions>
          <ns3:TrackPointExtension>
            <ns3:atemp>15.0</ns3:atemp>
            <ns3:hr>134</ns3:hr>
          </ns3:TrackPointExtension>
        </extensions>
      </trkpt>
      <trkpt lat="-22.04488386400043964385986328125" lon="166.44894587807357311248779296875">
        <ele>915.5999755859375</ele>
        <time>2016-08-12T19:23:43.000Z</time>
        <extensions>
          <ns3:TrackPointExtension>
            <ns3:atemp>15.0</ns3:atemp>
            <ns3:hr>134</ns3:hr>
          </ns3:TrackPointExtension>
        </extensions>
      </trkpt>
      <trkpt lat="-22.0448594726622104644775390625" lon="166.44894906319677829742431640625">
        <ele>915.79998779296875</ele>
        <time>2016-08-12T19:23:44.000Z</time>
        <extensions>
          <ns3:TrackPointExtension>
            <ns3:atemp>15.0</ns3:atemp>
            <ns3:hr>135</ns3:hr>
          </ns3:TrackPointExtension>
        </extensions>
      </trkpt>
      <trkpt lat="-22.04483659006655216217041015625" lon="166.448951996862888336181640625">
        <ele>916</ele>
        <time>2016-08-12T19:23:45.000Z</time>
        <extensions>
          <ns3:TrackPointExtension>
            <ns3:atemp>15.0</ns3:atemp>
            <ns3:hr>135</ns3:hr>
          </ns3:TrackPointExtension>
        </extensions>
      </trkpt>
      <trkpt lat="-22.04481094144284725189208984375" lon="166.44895392470061779022216796875">
        <ele>915.5999755859375</ele>
        <time>2016-08-12T19:23:46.000Z</time>
        <extensions>
          <ns3:TrackPointExtension>
            <ns3:atemp>15.0</ns3:atemp>
            <ns3:hr>135</ns3:hr>
          </ns3:TrackPointExtension>
        </extensions>
      </trkpt>
      <trkpt lat="-22.0447867177426815032958984375" lon="166.448959372937679290771484375">
        <ele>915.5999755859375</ele>
        <time>2016-08-12T19:23:47.000Z</time>
        <extensions>
          <ns3:TrackPointExtension>
            <ns3:atemp>15.0</ns3:atemp>
            <ns3:hr>135</ns3:hr>
          </ns3:TrackPointExtension>
        </extensions>
      </trkpt>
      <trkpt lat="-22.0447639189660549163818359375" lon="166.44896515645086765289306640625">
        <ele>916</ele>
        <time>2016-08-12T19:23:48.000Z</time>
        <extensions>
          <ns3:TrackPointExtension>
            <ns3:atemp>15.0</ns3:atemp>
            <ns3:hr>135</ns3:hr>
          </ns3:TrackPointExtension>
        </extensions>
      </trkpt>
      <trkpt lat="-22.04473994672298431396484375" lon="166.44896901212632656097412109375">
        <ele>916.20001220703125</ele>
        <time>2016-08-12T19:23:49.000Z</time>
        <extensions>
          <ns3:TrackPointExtension>
            <ns3:atemp>15.0</ns3:atemp>
            <ns3:hr>134</ns3:hr>
          </ns3:TrackPointExtension>
        </extensions>
      </trkpt>
      <trkpt lat="-22.04471522010862827301025390625" lon="166.4489699341356754302978515625">
        <ele>916</ele>
        <time>2016-08-12T19:23:50.000Z</time>
        <extensions>
          <ns3:TrackPointExtension>
            <ns3:atemp>15.0</ns3:atemp>
            <ns3:hr>134</ns3:hr>
          </ns3:TrackPointExtension>
        </extensions>
      </trkpt>
      <trkpt lat="-22.04469108022749423980712890625" lon="166.44897454418241977691650390625">
        <ele>916</ele>
        <time>2016-08-12T19:23:51.000Z</time>
        <extensions>
          <ns3:TrackPointExtension>
            <ns3:atemp>15.0</ns3:atemp>
            <ns3:hr>134</ns3:hr>
          </ns3:TrackPointExtension>
        </extensions>
      </trkpt>
      <trkpt lat="-22.04466409049928188323974609375" lon="166.4489825069904327392578125">
        <ele>916</ele>
        <time>2016-08-12T19:23:52.000Z</time>
        <extensions>
          <ns3:TrackPointExtension>
            <ns3:atemp>15.0</ns3:atemp>
            <ns3:hr>134</ns3:hr>
          </ns3:TrackPointExtension>
        </extensions>
      </trkpt>
      <trkpt lat="-22.04463844187557697296142578125" lon="166.44898661412298679351806640625">
        <ele>916</ele>
        <time>2016-08-12T19:23:53.000Z</time>
        <extensions>
          <ns3:TrackPointExtension>
            <ns3:atemp>15.0</ns3:atemp>
            <ns3:hr>134</ns3:hr>
          </ns3:TrackPointExtension>
        </extensions>
      </trkpt>
      <trkpt lat="-22.04461480490863323211669921875" lon="166.44899549894034862518310546875">
        <ele>915.5999755859375</ele>
        <time>2016-08-12T19:23:54.000Z</time>
        <extensions>
          <ns3:TrackPointExtension>
            <ns3:atemp>15.0</ns3:atemp>
            <ns3:hr>134</ns3:hr>
          </ns3:TrackPointExtension>
        </extensions>
      </trkpt>
      <trkpt lat="-22.04458999447524547576904296875" lon="166.44900270737707614898681640625">
        <ele>915.5999755859375</ele>
        <time>2016-08-12T19:23:55.000Z</time>
        <extensions>
          <ns3:TrackPointExtension>
            <ns3:atemp>15.0</ns3:atemp>
            <ns3:hr>134</ns3:hr>
          </ns3:TrackPointExtension>
        </extensions>
      </trkpt>
      <trkpt lat="-22.044563926756381988525390625" lon="166.44900287501513957977294921875">
        <ele>915.4000244140625</ele>
        <time>2016-08-12T19:23:56.000Z</time>
        <extensions>
          <ns3:TrackPointExtension>
            <ns3:atemp>15.0</ns3:atemp>
            <ns3:hr>134</ns3:hr>
          </ns3:TrackPointExtension>
        </extensions>
      </trkpt>
      <trkpt lat="-22.04453987069427967071533203125" lon="166.4490131847560405731201171875">
        <ele>915.20001220703125</ele>
        <time>2016-08-12T19:23:57.000Z</time>
        <extensions>
          <ns3:TrackPointExtension>
            <ns3:atemp>15.0</ns3:atemp>
            <ns3:hr>134</ns3:hr>
          </ns3:TrackPointExtension>
        </extensions>
      </trkpt>
      <trkpt lat="-22.0445158146321773529052734375" lon="166.449017710983753204345703125">
        <ele>915.4000244140625</ele>
        <time>2016-08-12T19:23:58.000Z</time>
        <extensions>
          <ns3:TrackPointExtension>
            <ns3:atemp>15.0</ns3:atemp>
            <ns3:hr>134</ns3:hr>
          </ns3:TrackPointExtension>
        </extensions>
      </trkpt>
      <trkpt lat="-22.04448874108493328094482421875" lon="166.44902206957340240478515625">
        <ele>915.4000244140625</ele>
        <time>2016-08-12T19:23:59.000Z</time>
        <extensions>
          <ns3:TrackPointExtension>
            <ns3:atemp>15.0</ns3:atemp>
            <ns3:hr>133</ns3:hr>
          </ns3:TrackPointExtension>
        </extensions>
      </trkpt>
      <trkpt lat="-22.0444614998996257781982421875" lon="166.4490252546966075897216796875">
        <ele>915</ele>
        <time>2016-08-12T19:24:00.000Z</time>
        <extensions>
          <ns3:TrackPointExtension>
            <ns3:atemp>15.0</ns3:atemp>
            <ns3:hr>133</ns3:hr>
          </ns3:TrackPointExtension>
        </extensions>
      </trkpt>
      <trkpt lat="-22.04443962313234806060791015625" lon="166.449032463133335113525390625">
        <ele>914.79998779296875</ele>
        <time>2016-08-12T19:24:01.000Z</time>
        <extensions>
          <ns3:TrackPointExtension>
            <ns3:atemp>15.0</ns3:atemp>
            <ns3:hr>133</ns3:hr>
          </ns3:TrackPointExtension>
        </extensions>
      </trkpt>
      <trkpt lat="-22.0444142259657382965087890625" lon="166.449037492275238037109375">
        <ele>915.20001220703125</ele>
        <time>2016-08-12T19:24:02.000Z</time>
        <extensions>
          <ns3:TrackPointExtension>
            <ns3:atemp>15.0</ns3:atemp>
            <ns3:hr>133</ns3:hr>
          </ns3:TrackPointExtension>
        </extensions>
      </trkpt>
      <trkpt lat="-22.0443905889987945556640625" lon="166.4490473829209804534912109375">
        <ele>915.5999755859375</ele>
        <time>2016-08-12T19:24:03.000Z</time>
        <extensions>
          <ns3:TrackPointExtension>
            <ns3:atemp>15.0</ns3:atemp>
            <ns3:hr>133</ns3:hr>
          </ns3:TrackPointExtension>
        </extensions>
      </trkpt>
      <trkpt lat="-22.04436603002250194549560546875" lon="166.44905149005353450775146484375">
        <ele>915.4000244140625</ele>
        <time>2016-08-12T19:24:04.000Z</time>
        <extensions>
          <ns3:TrackPointExtension>
            <ns3:atemp>15.0</ns3:atemp>
            <ns3:hr>134</ns3:hr>
          </ns3:TrackPointExtension>
        </extensions>
      </trkpt>
      <trkpt lat="-22.0443431474268436431884765625" lon="166.44905827939510345458984375">
        <ele>915.20001220703125</ele>
        <time>2016-08-12T19:24:05.000Z</time>
        <extensions>
          <ns3:TrackPointExtension>
            <ns3:atemp>15.0</ns3:atemp>
            <ns3:hr>133</ns3:hr>
          </ns3:TrackPointExtension>
        </extensions>
      </trkpt>
      <trkpt lat="-22.04433023929595947265625" lon="166.44908200018107891082763671875">
        <ele>915</ele>
        <time>2016-08-12T19:24:06.000Z</time>
        <extensions>
          <ns3:TrackPointExtension>
            <ns3:atemp>15.0</ns3:atemp>
            <ns3:hr>133</ns3:hr>
          </ns3:TrackPointExtension>
        </extensions>
      </trkpt>
      <trkpt lat="-22.0443076081573963165283203125" lon="166.4490889571607112884521484375">
        <ele>915.5999755859375</ele>
        <time>2016-08-12T19:24:07.000Z</time>
        <extensions>
          <ns3:TrackPointExtension>
            <ns3:atemp>15.0</ns3:atemp>
            <ns3:hr>134</ns3:hr>
          </ns3:TrackPointExtension>
        </extensions>
      </trkpt>
      <trkpt lat="-22.044282294809818267822265625" lon="166.44909507595002651214599609375">
        <ele>916</ele>
        <time>2016-08-12T19:24:08.000Z</time>
        <extensions>
          <ns3:TrackPointExtension>
            <ns3:atemp>15.0</ns3:atemp>
            <ns3:hr>133</ns3:hr>
          </ns3:TrackPointExtension>
        </extensions>
      </trkpt>
      <trkpt lat="-22.04425505362451076507568359375" lon="166.44909960217773914337158203125">
        <ele>916</ele>
        <time>2016-08-12T19:24:09.000Z</time>
        <extensions>
          <ns3:TrackPointExtension>
            <ns3:atemp>15.0</ns3:atemp>
            <ns3:hr>134</ns3:hr>
          </ns3:TrackPointExtension>
        </extensions>
      </trkpt>
      <trkpt lat="-22.0442288182675838470458984375" lon="166.44910329021513462066650390625">
        <ele>915.79998779296875</ele>
        <time>2016-08-12T19:24:10.000Z</time>
        <extensions>
          <ns3:TrackPointExtension>
            <ns3:atemp>15.0</ns3:atemp>
            <ns3:hr>134</ns3:hr>
          </ns3:TrackPointExtension>
        </extensions>
      </trkpt>
      <trkpt lat="-22.0442050136625766754150390625" lon="166.4491097442805767059326171875">
        <ele>915.79998779296875</ele>
        <time>2016-08-12T19:24:11.000Z</time>
        <extensions>
          <ns3:TrackPointExtension>
            <ns3:atemp>15.0</ns3:atemp>
            <ns3:hr>134</ns3:hr>
          </ns3:TrackPointExtension>
        </extensions>
      </trkpt>
      <trkpt lat="-22.04418146051466464996337890625" lon="166.44911921583116054534912109375">
        <ele>915.4000244140625</ele>
        <time>2016-08-12T19:24:12.000Z</time>
        <extensions>
          <ns3:TrackPointExtension>
            <ns3:atemp>15.0</ns3:atemp>
            <ns3:hr>134</ns3:hr>
          </ns3:TrackPointExtension>
        </extensions>
      </trkpt>
      <trkpt lat="-22.04415698535740375518798828125" lon="166.4491231553256511688232421875">
        <ele>915.20001220703125</ele>
        <time>2016-08-12T19:24:13.000Z</time>
        <extensions>
          <ns3:TrackPointExtension>
            <ns3:atemp>15.0</ns3:atemp>
            <ns3:hr>134</ns3:hr>
          </ns3:TrackPointExtension>
        </extensions>
      </trkpt>
      <trkpt lat="-22.04413552768528461456298828125" lon="166.4491295255720615386962890625">
        <ele>915.4000244140625</ele>
        <time>2016-08-12T19:24:14.000Z</time>
        <extensions>
          <ns3:TrackPointExtension>
            <ns3:atemp>15.0</ns3:atemp>
            <ns3:hr>134</ns3:hr>
          </ns3:TrackPointExtension>
        </extensions>
      </trkpt>
      <trkpt lat="-22.0441118068993091583251953125" lon="166.44914084114134311676025390625">
        <ele>915.79998779296875</ele>
        <time>2016-08-12T19:24:15.000Z</time>
        <extensions>
          <ns3:TrackPointExtension>
            <ns3:atemp>15.0</ns3:atemp>
            <ns3:hr>135</ns3:hr>
          </ns3:TrackPointExtension>
        </extensions>
      </trkpt>
      <trkpt lat="-22.04409177415072917938232421875" lon="166.4491563476622104644775390625">
        <ele>915.5999755859375</ele>
        <time>2016-08-12T19:24:16.000Z</time>
        <extensions>
          <ns3:TrackPointExtension>
            <ns3:atemp>15.0</ns3:atemp>
            <ns3:hr>135</ns3:hr>
          </ns3:TrackPointExtension>
        </extensions>
      </trkpt>
      <trkpt lat="-22.04407249577343463897705078125" lon="166.4491727761924266815185546875">
        <ele>915.5999755859375</ele>
        <time>2016-08-12T19:24:17.000Z</time>
        <extensions>
          <ns3:TrackPointExtension>
            <ns3:atemp>15.0</ns3:atemp>
            <ns3:hr>135</ns3:hr>
          </ns3:TrackPointExtension>
        </extensions>
      </trkpt>
      <trkpt lat="-22.04405732452869415283203125" lon="166.449196748435497283935546875">
        <ele>915.79998779296875</ele>
        <time>2016-08-12T19:24:18.000Z</time>
        <extensions>
          <ns3:TrackPointExtension>
            <ns3:atemp>15.0</ns3:atemp>
            <ns3:hr>135</ns3:hr>
          </ns3:TrackPointExtension>
        </extensions>
      </trkpt>
      <trkpt lat="-22.04404567368328571319580078125" lon="166.4492203854024410247802734375">
        <ele>916.20001220703125</ele>
        <time>2016-08-12T19:24:19.000Z</time>
        <extensions>
          <ns3:TrackPointExtension>
            <ns3:atemp>15.0</ns3:atemp>
            <ns3:hr>135</ns3:hr>
          </ns3:TrackPointExtension>
        </extensions>
      </trkpt>
      <trkpt lat="-22.0440392196178436279296875" lon="166.44925139844417572021484375">
        <ele>916</ele>
        <time>2016-08-12T19:24:20.000Z</time>
        <extensions>
          <ns3:TrackPointExtension>
            <ns3:atemp>15.0</ns3:atemp>
            <ns3:hr>135</ns3:hr>
          </ns3:TrackPointExtension>
        </extensions>
      </trkpt>
      <trkpt lat="-22.04403159208595752716064453125" lon="166.44927763380110263824462890625">
        <ele>915.79998779296875</ele>
        <time>2016-08-12T19:24:21.000Z</time>
        <extensions>
          <ns3:TrackPointExtension>
            <ns3:atemp>15.0</ns3:atemp>
            <ns3:hr>135</ns3:hr>
          </ns3:TrackPointExtension>
        </extensions>
      </trkpt>
      <trkpt lat="-22.04402253963053226470947265625" lon="166.44930361770093441009521484375">
        <ele>916.20001220703125</ele>
        <time>2016-08-12T19:24:22.000Z</time>
        <extensions>
          <ns3:TrackPointExtension>
            <ns3:atemp>15.0</ns3:atemp>
            <ns3:hr>135</ns3:hr>
          </ns3:TrackPointExtension>
        </extensions>
      </trkpt>
      <trkpt lat="-22.04401080496609210968017578125" lon="166.4493293501436710357666015625">
        <ele>916.20001220703125</ele>
        <time>2016-08-12T19:24:23.000Z</time>
        <extensions>
          <ns3:TrackPointExtension>
            <ns3:atemp>15.0</ns3:atemp>
            <ns3:hr>135</ns3:hr>
          </ns3:TrackPointExtension>
        </extensions>
      </trkpt>
      <trkpt lat="-22.043997310101985931396484375" lon="166.4493521489202976226806640625">
        <ele>915.5999755859375</ele>
        <time>2016-08-12T19:24:24.000Z</time>
        <extensions>
          <ns3:TrackPointExtension>
            <ns3:atemp>15.0</ns3:atemp>
            <ns3:hr>136</ns3:hr>
          </ns3:TrackPointExtension>
        </extensions>
      </trkpt>
      <trkpt lat="-22.04398130066692829132080078125" lon="166.44937352277338504791259765625">
        <ele>915.5999755859375</ele>
        <time>2016-08-12T19:24:25.000Z</time>
        <extensions>
          <ns3:TrackPointExtension>
            <ns3:atemp>15.0</ns3:atemp>
            <ns3:hr>135</ns3:hr>
          </ns3:TrackPointExtension>
        </extensions>
      </trkpt>
      <trkpt lat="-22.04396336339414119720458984375" lon="166.449394561350345611572265625">
        <ele>915.5999755859375</ele>
        <time>2016-08-12T19:24:26.000Z</time>
        <extensions>
          <ns3:TrackPointExtension>
            <ns3:atemp>15.0</ns3:atemp>
            <ns3:hr>135</ns3:hr>
          </ns3:TrackPointExtension>
        </extensions>
      </trkpt>
      <trkpt lat="-22.04394743777811527252197265625" lon="166.44941367208957672119140625">
        <ele>915.5999755859375</ele>
        <time>2016-08-12T19:24:27.000Z</time>
        <extensions>
          <ns3:TrackPointExtension>
            <ns3:atemp>15.0</ns3:atemp>
            <ns3:hr>135</ns3:hr>
          </ns3:TrackPointExtension>
        </extensions>
      </trkpt>
      <trkpt lat="-22.0439314283430576324462890625" lon="166.4494358003139495849609375">
        <ele>915.4000244140625</ele>
        <time>2016-08-12T19:24:28.000Z</time>
        <extensions>
          <ns3:TrackPointExtension>
            <ns3:atemp>15.0</ns3:atemp>
            <ns3:hr>135</ns3:hr>
          </ns3:TrackPointExtension>
        </extensions>
      </trkpt>
      <trkpt lat="-22.0439149998128414154052734375" lon="166.44945792853832244873046875">
        <ele>915.5999755859375</ele>
        <time>2016-08-12T19:24:29.000Z</time>
        <extensions>
          <ns3:TrackPointExtension>
            <ns3:atemp>15.0</ns3:atemp>
            <ns3:hr>135</ns3:hr>
          </ns3:TrackPointExtension>
        </extensions>
      </trkpt>
      <trkpt lat="-22.04389999620616436004638671875" lon="166.449479050934314727783203125">
        <ele>915.5999755859375</ele>
        <time>2016-08-12T19:24:30.000Z</time>
        <extensions>
          <ns3:TrackPointExtension>
            <ns3:atemp>15.0</ns3:atemp>
            <ns3:hr>135</ns3:hr>
          </ns3:TrackPointExtension>
        </extensions>
      </trkpt>
      <trkpt lat="-22.043884657323360443115234375" lon="166.4495036937296390533447265625">
        <ele>915.4000244140625</ele>
        <time>2016-08-12T19:24:31.000Z</time>
        <extensions>
          <ns3:TrackPointExtension>
            <ns3:atemp>15.0</ns3:atemp>
            <ns3:hr>135</ns3:hr>
          </ns3:TrackPointExtension>
        </extensions>
      </trkpt>
      <trkpt lat="-22.04386931844055652618408203125" lon="166.44952691160142421722412109375">
        <ele>915.20001220703125</ele>
        <time>2016-08-12T19:24:32.000Z</time>
        <extensions>
          <ns3:TrackPointExtension>
            <ns3:atemp>15.0</ns3:atemp>
            <ns3:hr>136</ns3:hr>
          </ns3:TrackPointExtension>
        </extensions>
      </trkpt>
      <trkpt lat="-22.043855153024196624755859375" lon="166.44955180585384368896484375">
        <ele>915.4000244140625</ele>
        <time>2016-08-12T19:24:33.000Z</time>
        <extensions>
          <ns3:TrackPointExtension>
            <ns3:atemp>15.0</ns3:atemp>
            <ns3:hr>135</ns3:hr>
          </ns3:TrackPointExtension>
        </extensions>
      </trkpt>
      <trkpt lat="-22.04384283162653446197509765625" lon="166.44957804121077060699462890625">
        <ele>915.5999755859375</ele>
        <time>2016-08-12T19:24:34.000Z</time>
        <extensions>
          <ns3:TrackPointExtension>
            <ns3:atemp>15.0</ns3:atemp>
            <ns3:hr>135</ns3:hr>
          </ns3:TrackPointExtension>
        </extensions>
      </trkpt>
      <trkpt lat="-22.043834030628204345703125" lon="166.44960419274866580963134765625">
        <ele>915.20001220703125</ele>
        <time>2016-08-12T19:24:35.000Z</time>
        <extensions>
          <ns3:TrackPointExtension>
            <ns3:atemp>15.0</ns3:atemp>
            <ns3:hr>135</ns3:hr>
          </ns3:TrackPointExtension>
        </extensions>
      </trkpt>
      <trkpt lat="-22.0438254810869693756103515625" lon="166.44963168539106845855712890625">
        <ele>915.20001220703125</ele>
        <time>2016-08-12T19:24:36.000Z</time>
        <extensions>
          <ns3:TrackPointExtension>
            <ns3:atemp>15.0</ns3:atemp>
            <ns3:hr>135</ns3:hr>
          </ns3:TrackPointExtension>
        </extensions>
      </trkpt>
      <trkpt lat="-22.0438160933554172515869140625" lon="166.44965766929090023040771484375">
        <ele>915.4000244140625</ele>
        <time>2016-08-12T19:24:37.000Z</time>
        <extensions>
          <ns3:TrackPointExtension>
            <ns3:atemp>15.0</ns3:atemp>
            <ns3:hr>135</ns3:hr>
          </ns3:TrackPointExtension>
        </extensions>
      </trkpt>
      <trkpt lat="-22.0438090525567531585693359375" lon="166.44968633539974689483642578125">
        <ele>915.4000244140625</ele>
        <time>2016-08-12T19:24:38.000Z</time>
        <extensions>
          <ns3:TrackPointExtension>
            <ns3:atemp>15.0</ns3:atemp>
            <ns3:hr>135</ns3:hr>
          </ns3:TrackPointExtension>
        </extensions>
      </trkpt>
      <trkpt lat="-22.043798826634883880615234375" lon="166.449712403118610382080078125">
        <ele>915.20001220703125</ele>
        <time>2016-08-12T19:24:39.000Z</time>
        <extensions>
          <ns3:TrackPointExtension>
            <ns3:atemp>15.0</ns3:atemp>
            <ns3:hr>134</ns3:hr>
          </ns3:TrackPointExtension>
        </extensions>
      </trkpt>
      <trkpt lat="-22.04379203729331493377685546875" lon="166.44973763264715671539306640625">
        <ele>915.20001220703125</ele>
        <time>2016-08-12T19:24:40.000Z</time>
        <extensions>
          <ns3:TrackPointExtension>
            <ns3:atemp>15.0</ns3:atemp>
            <ns3:hr>134</ns3:hr>
          </ns3:TrackPointExtension>
        </extensions>
      </trkpt>
      <trkpt lat="-22.04378600232303142547607421875" lon="166.44976210780441761016845703125">
        <ele>915.4000244140625</ele>
        <time>2016-08-12T19:24:41.000Z</time>
        <extensions>
          <ns3:TrackPointExtension>
            <ns3:atemp>15.0</ns3:atemp>
            <ns3:hr>134</ns3:hr>
          </ns3:TrackPointExtension>
        </extensions>
      </trkpt>
      <trkpt lat="-22.043778710067272186279296875" lon="166.4497843198478221893310546875">
        <ele>915.5999755859375</ele>
        <time>2016-08-12T19:24:42.000Z</time>
        <extensions>
          <ns3:TrackPointExtension>
            <ns3:atemp>15.0</ns3:atemp>
            <ns3:hr>134</ns3:hr>
          </ns3:TrackPointExtension>
        </extensions>
      </trkpt>
      <trkpt lat="-22.04377166926860809326171875" lon="166.44980661571025848388671875">
        <ele>915.4000244140625</ele>
        <time>2016-08-12T19:24:43.000Z</time>
        <extensions>
          <ns3:TrackPointExtension>
            <ns3:atemp>15.0</ns3:atemp>
            <ns3:hr>134</ns3:hr>
          </ns3:TrackPointExtension>
        </extensions>
      </trkpt>
      <trkpt lat="-22.04376764595508575439453125" lon="166.44983335398137569427490234375">
        <ele>915.4000244140625</ele>
        <time>2016-08-12T19:24:44.000Z</time>
        <extensions>
          <ns3:TrackPointExtension>
            <ns3:atemp>15.0</ns3:atemp>
            <ns3:hr>134</ns3:hr>
          </ns3:TrackPointExtension>
        </extensions>
      </trkpt>
      <trkpt lat="-22.04376387409865856170654296875" lon="166.44985816441476345062255859375">
        <ele>915.79998779296875</ele>
        <time>2016-08-12T19:24:45.000Z</time>
        <extensions>
          <ns3:TrackPointExtension>
            <ns3:atemp>15.0</ns3:atemp>
            <ns3:hr>134</ns3:hr>
          </ns3:TrackPointExtension>
        </extensions>
      </trkpt>
      <trkpt lat="-22.04376102425158023834228515625" lon="166.44988297484815120697021484375">
        <ele>915.5999755859375</ele>
        <time>2016-08-12T19:24:46.000Z</time>
        <extensions>
          <ns3:TrackPointExtension>
            <ns3:atemp>15.0</ns3:atemp>
            <ns3:hr>133</ns3:hr>
          </ns3:TrackPointExtension>
        </extensions>
      </trkpt>
      <trkpt lat="-22.04375532455742359161376953125" lon="166.4499080367386341094970703125">
        <ele>915.5999755859375</ele>
        <time>2016-08-12T19:24:47.000Z</time>
        <extensions>
          <ns3:TrackPointExtension>
            <ns3:atemp>15.0</ns3:atemp>
            <ns3:hr>133</ns3:hr>
          </ns3:TrackPointExtension>
        </extensions>
      </trkpt>
      <trkpt lat="-22.04375029541552066802978515625" lon="166.4499305002391338348388671875">
        <ele>915.79998779296875</ele>
        <time>2016-08-12T19:24:48.000Z</time>
        <extensions>
          <ns3:TrackPointExtension>
            <ns3:atemp>15.0</ns3:atemp>
            <ns3:hr>133</ns3:hr>
          </ns3:TrackPointExtension>
        </extensions>
      </trkpt>
      <trkpt lat="-22.043743841350078582763671875" lon="166.44995204173028469085693359375">
        <ele>915.79998779296875</ele>
        <time>2016-08-12T19:24:49.000Z</time>
        <extensions>
          <ns3:TrackPointExtension>
            <ns3:atemp>15.0</ns3:atemp>
            <ns3:hr>133</ns3:hr>
          </ns3:TrackPointExtension>
        </extensions>
      </trkpt>
      <trkpt lat="-22.0437361299991607666015625" lon="166.44997567869722843170166015625">
        <ele>915.79998779296875</ele>
        <time>2016-08-12T19:24:50.000Z</time>
        <extensions>
          <ns3:TrackPointExtension>
            <ns3:atemp>15.0</ns3:atemp>
            <ns3:hr>133</ns3:hr>
          </ns3:TrackPointExtension>
        </extensions>
      </trkpt>
      <trkpt lat="-22.0437272451817989349365234375" lon="166.449998058378696441650390625">
        <ele>915.5999755859375</ele>
        <time>2016-08-12T19:24:51.000Z</time>
        <extensions>
          <ns3:TrackPointExtension>
            <ns3:atemp>15.0</ns3:atemp>
            <ns3:hr>132</ns3:hr>
          </ns3:TrackPointExtension>
        </extensions>
      </trkpt>
      <trkpt lat="-22.04371592961251735687255859375" lon="166.45001742057502269744873046875">
        <ele>915.5999755859375</ele>
        <time>2016-08-12T19:24:52.000Z</time>
        <extensions>
          <ns3:TrackPointExtension>
            <ns3:atemp>15.0</ns3:atemp>
            <ns3:hr>133</ns3:hr>
          </ns3:TrackPointExtension>
        </extensions>
      </trkpt>
      <trkpt lat="-22.0437067933380603790283203125" lon="166.450036279857158660888671875">
        <ele>915.5999755859375</ele>
        <time>2016-08-12T19:24:53.000Z</time>
        <extensions>
          <ns3:TrackPointExtension>
            <ns3:atemp>15.0</ns3:atemp>
            <ns3:hr>132</ns3:hr>
          </ns3:TrackPointExtension>
        </extensions>
      </trkpt>
      <trkpt lat="-22.04369698651134967803955078125" lon="166.45005203783512115478515625">
        <ele>915.5999755859375</ele>
        <time>2016-08-12T19:24:54.000Z</time>
        <extensions>
          <ns3:TrackPointExtension>
            <ns3:atemp>15.0</ns3:atemp>
            <ns3:hr>132</ns3:hr>
          </ns3:TrackPointExtension>
        </extensions>
      </trkpt>
      <trkpt lat="-22.0436776243150234222412109375" lon="166.45006368868052959442138671875">
        <ele>915.4000244140625</ele>
        <time>2016-08-12T19:24:55.000Z</time>
        <extensions>
          <ns3:TrackPointExtension>
            <ns3:atemp>15.0</ns3:atemp>
            <ns3:hr>132</ns3:hr>
          </ns3:TrackPointExtension>
        </extensions>
      </trkpt>
      <trkpt lat="-22.04365541227161884307861328125" lon="166.4500773511826992034912109375">
        <ele>915.5999755859375</ele>
        <time>2016-08-12T19:24:56.000Z</time>
        <extensions>
          <ns3:TrackPointExtension>
            <ns3:atemp>15.0</ns3:atemp>
            <ns3:hr>132</ns3:hr>
          </ns3:TrackPointExtension>
        </extensions>
      </trkpt>
      <trkpt lat="-22.04363328404724597930908203125" lon="166.45008313469588756561279296875">
        <ele>915.5999755859375</ele>
        <time>2016-08-12T19:24:57.000Z</time>
        <extensions>
          <ns3:TrackPointExtension>
            <ns3:atemp>15.0</ns3:atemp>
            <ns3:hr>132</ns3:hr>
          </ns3:TrackPointExtension>
        </extensions>
      </trkpt>
      <trkpt lat="-22.0436078868806362152099609375" lon="166.45009201951324939727783203125">
        <ele>916</ele>
        <time>2016-08-12T19:24:58.000Z</time>
        <extensions>
          <ns3:TrackPointExtension>
            <ns3:atemp>15.0</ns3:atemp>
            <ns3:hr>133</ns3:hr>
          </ns3:TrackPointExtension>
        </extensions>
      </trkpt>
      <trkpt lat="-22.04358466900885105133056640625" lon="166.45009637810289859771728515625">
        <ele>916</ele>
        <time>2016-08-12T19:24:59.000Z</time>
        <extensions>
          <ns3:TrackPointExtension>
            <ns3:atemp>15.0</ns3:atemp>
            <ns3:hr>133</ns3:hr>
          </ns3:TrackPointExtension>
        </extensions>
      </trkpt>
      <trkpt lat="-22.0435617864131927490234375" lon="166.45010341890156269073486328125">
        <ele>915.79998779296875</ele>
        <time>2016-08-12T19:25:00.000Z</time>
        <extensions>
          <ns3:TrackPointExtension>
            <ns3:atemp>15.0</ns3:atemp>
            <ns3:hr>133</ns3:hr>
          </ns3:TrackPointExtension>
        </extensions>
      </trkpt>
      <trkpt lat="-22.0435381494462490081787109375" lon="166.4501115493476390838623046875">
        <ele>915.79998779296875</ele>
        <time>2016-08-12T19:25:01.000Z</time>
        <extensions>
          <ns3:TrackPointExtension>
            <ns3:atemp>15.0</ns3:atemp>
            <ns3:hr>133</ns3:hr>
          </ns3:TrackPointExtension>
        </extensions>
      </trkpt>
      <trkpt lat="-22.0435146801173686981201171875" lon="166.4501189254224300384521484375">
        <ele>915.79998779296875</ele>
        <time>2016-08-12T19:25:02.000Z</time>
        <extensions>
          <ns3:TrackPointExtension>
            <ns3:atemp>15.0</ns3:atemp>
            <ns3:hr>133</ns3:hr>
          </ns3:TrackPointExtension>
        </extensions>
      </trkpt>
      <trkpt lat="-22.04349028877913951873779296875" lon="166.45012588240206241607666015625">
        <ele>915.79998779296875</ele>
        <time>2016-08-12T19:25:03.000Z</time>
        <extensions>
          <ns3:TrackPointExtension>
            <ns3:atemp>15.0</ns3:atemp>
            <ns3:hr>132</ns3:hr>
          </ns3:TrackPointExtension>
        </extensions>
      </trkpt>
      <trkpt lat="-22.04346799291670322418212890625" lon="166.45013560540974140167236328125">
        <ele>915.79998779296875</ele>
        <time>2016-08-12T19:25:04.000Z</time>
        <extensions>
          <ns3:TrackPointExtension>
            <ns3:atemp>15.0</ns3:atemp>
            <ns3:hr>132</ns3:hr>
          </ns3:TrackPointExtension>
        </extensions>
      </trkpt>
      <trkpt lat="-22.04344904981553554534912109375" lon="166.45014591515064239501953125">
        <ele>916</ele>
        <time>2016-08-12T19:25:05.000Z</time>
        <extensions>
          <ns3:TrackPointExtension>
            <ns3:atemp>15.0</ns3:atemp>
            <ns3:hr>132</ns3:hr>
          </ns3:TrackPointExtension>
        </extensions>
      </trkpt>
      <trkpt lat="-22.04342725686728954315185546875" lon="166.450154967606067657470703125">
        <ele>916</ele>
        <time>2016-08-12T19:25:06.000Z</time>
        <extensions>
          <ns3:TrackPointExtension>
            <ns3:atemp>15.0</ns3:atemp>
            <ns3:hr>132</ns3:hr>
          </ns3:TrackPointExtension>
        </extensions>
      </trkpt>
      <trkpt lat="-22.04340546391904354095458984375" lon="166.45016410388052463531494140625">
        <ele>916</ele>
        <time>2016-08-12T19:25:07.000Z</time>
        <extensions>
          <ns3:TrackPointExtension>
            <ns3:atemp>15.0</ns3:atemp>
            <ns3:hr>132</ns3:hr>
          </ns3:TrackPointExtension>
        </extensions>
      </trkpt>
      <trkpt lat="-22.04338400624692440032958984375" lon="166.45017533563077449798583984375">
        <ele>915.79998779296875</ele>
        <time>2016-08-12T19:25:08.000Z</time>
        <extensions>
          <ns3:TrackPointExtension>
            <ns3:atemp>15.0</ns3:atemp>
            <ns3:hr>132</ns3:hr>
          </ns3:TrackPointExtension>
        </extensions>
      </trkpt>
      <trkpt lat="-22.04336523078382015228271484375" lon="166.45018992014229297637939453125">
        <ele>915.79998779296875</ele>
        <time>2016-08-12T19:25:09.000Z</time>
        <extensions>
          <ns3:TrackPointExtension>
            <ns3:atemp>15.0</ns3:atemp>
            <ns3:hr>133</ns3:hr>
          </ns3:TrackPointExtension>
        </extensions>
      </trkpt>
      <trkpt lat="-22.0433503948152065277099609375" lon="166.45020819269120693206787109375">
        <ele>915.5999755859375</ele>
        <time>2016-08-12T19:25:10.000Z</time>
        <extensions>
          <ns3:TrackPointExtension>
            <ns3:atemp>15.0</ns3:atemp>
            <ns3:hr>133</ns3:hr>
          </ns3:TrackPointExtension>
        </extensions>
      </trkpt>
      <trkpt lat="-22.04334226436913013458251953125" lon="166.45023576915264129638671875">
        <ele>915.4000244140625</ele>
        <time>2016-08-12T19:25:11.000Z</time>
        <extensions>
          <ns3:TrackPointExtension>
            <ns3:atemp>15.0</ns3:atemp>
          </ns3:TrackPointExtension>
        </extensions>
      </trkpt>
      <trkpt lat="-22.04330027103424072265625" lon="166.45045512355864048004150390625">
        <ele>915.79998779296875</ele>
        <time>2016-08-12T19:25:20.000Z</time>
        <extensions>
          <ns3:TrackPointExtension>
            <ns3:atemp>15.0</ns3:atemp>
          </ns3:TrackPointExtension>
        </extensions>
      </trkpt>
      <trkpt lat="-22.0432974211871623992919921875" lon="166.45067699253559112548828125">
        <ele>915.20001220703125</ele>
        <time>2016-08-12T19:25:29.000Z</time>
        <extensions>
          <ns3:TrackPointExtension>
            <ns3:atemp>15.0</ns3:atemp>
          </ns3:TrackPointExtension>
        </extensions>
      </trkpt>
      <trkpt lat="-22.04329197295010089874267578125" lon="166.450703144073486328125">
        <ele>915.20001220703125</ele>
        <time>2016-08-12T19:25:30.000Z</time>
        <extensions>
          <ns3:TrackPointExtension>
            <ns3:atemp>15.0</ns3:atemp>
          </ns3:TrackPointExtension>
        </extensions>
      </trkpt>
      <trkpt lat="-22.04328845255076885223388671875" lon="166.4507301338016986846923828125">
        <ele>915.4000244140625</ele>
        <time>2016-08-12T19:25:31.000Z</time>
        <extensions>
          <ns3:TrackPointExtension>
            <ns3:atemp>15.0</ns3:atemp>
          </ns3:TrackPointExtension>
        </extensions>
      </trkpt>
      <trkpt lat="-22.043288536369800567626953125" lon="166.45075603388249874114990234375">
        <ele>915.4000244140625</ele>
        <time>2016-08-12T19:25:32.000Z</time>
        <extensions>
          <ns3:TrackPointExtension>
            <ns3:atemp>15.0</ns3:atemp>
          </ns3:TrackPointExtension>
        </extensions>
      </trkpt>
      <trkpt lat="-22.0432908833026885986328125" lon="166.4507787488400936126708984375">
        <ele>915</ele>
        <time>2016-08-12T19:25:33.000Z</time>
        <extensions>
          <ns3:TrackPointExtension>
            <ns3:atemp>15.0</ns3:atemp>
          </ns3:TrackPointExtension>
        </extensions>
      </trkpt>
      <trkpt lat="-22.04329264350235462188720703125" lon="166.450801379978656768798828125">
        <ele>914.5999755859375</ele>
        <time>2016-08-12T19:25:34.000Z</time>
        <extensions>
          <ns3:TrackPointExtension>
            <ns3:atemp>15.0</ns3:atemp>
          </ns3:TrackPointExtension>
        </extensions>
      </trkpt>
      <trkpt lat="-22.04329046420753002166748046875" lon="166.45082510076463222503662109375">
        <ele>914.4000244140625</ele>
        <time>2016-08-12T19:25:35.000Z</time>
        <extensions>
          <ns3:TrackPointExtension>
            <ns3:atemp>15.0</ns3:atemp>
            <ns3:hr>134</ns3:hr>
          </ns3:TrackPointExtension>
        </extensions>
      </trkpt>
      <trkpt lat="-22.04328727908432483673095703125" lon="166.4508466422557830810546875">
        <ele>914.4000244140625</ele>
        <time>2016-08-12T19:25:36.000Z</time>
        <extensions>
          <ns3:TrackPointExtension>
            <ns3:atemp>15.0</ns3:atemp>
            <ns3:hr>133</ns3:hr>
          </ns3:TrackPointExtension>
        </extensions>
      </trkpt>
      <trkpt lat="-22.04326112754642963409423828125" lon="166.451039426028728485107421875">
        <ele>915.20001220703125</ele>
        <time>2016-08-12T19:25:43.000Z</time>
        <extensions>
          <ns3:TrackPointExtension>
            <ns3:atemp>15.0</ns3:atemp>
            <ns3:hr>134</ns3:hr>
          </ns3:TrackPointExtension>
        </extensions>
      </trkpt>
      <trkpt lat="-22.043259032070636749267578125" lon="166.45107236690819263458251953125">
        <ele>915.20001220703125</ele>
        <time>2016-08-12T19:25:44.000Z</time>
        <extensions>
          <ns3:TrackPointExtension>
            <ns3:atemp>15.0</ns3:atemp>
            <ns3:hr>134</ns3:hr>
          </ns3:TrackPointExtension>
        </extensions>
      </trkpt>
      <trkpt lat="-22.0432578586041927337646484375" lon="166.4510989375412464141845703125">
        <ele>915</ele>
        <time>2016-08-12T19:25:45.000Z</time>
        <extensions>
          <ns3:TrackPointExtension>
            <ns3:atemp>15.0</ns3:atemp>
            <ns3:hr>133</ns3:hr>
          </ns3:TrackPointExtension>
        </extensions>
      </trkpt>
      <trkpt lat="-22.0432560145854949951171875" lon="166.4511207304894924163818359375">
        <ele>915</ele>
        <time>2016-08-12T19:25:46.000Z</time>
        <extensions>
          <ns3:TrackPointExtension>
            <ns3:atemp>15.0</ns3:atemp>
            <ns3:hr>133</ns3:hr>
          </ns3:TrackPointExtension>
        </extensions>
      </trkpt>
      <trkpt lat="-22.04325073398649692535400390625" lon="166.4511408470571041107177734375">
        <ele>915.20001220703125</ele>
        <time>2016-08-12T19:25:47.000Z</time>
        <extensions>
          <ns3:TrackPointExtension>
            <ns3:atemp>15.0</ns3:atemp>
            <ns3:hr>133</ns3:hr>
          </ns3:TrackPointExtension>
        </extensions>
      </trkpt>
      <trkpt lat="-22.0432454533874988555908203125" lon="166.45116523839533329010009765625">
        <ele>915</ele>
        <time>2016-08-12T19:25:48.000Z</time>
        <extensions>
          <ns3:TrackPointExtension>
            <ns3:atemp>15.0</ns3:atemp>
            <ns3:hr>133</ns3:hr>
          </ns3:TrackPointExtension>
        </extensions>
      </trkpt>
      <trkpt lat="-22.04323816113173961639404296875" lon="166.4511904679238796234130859375">
        <ele>914.79998779296875</ele>
        <time>2016-08-12T19:25:49.000Z</time>
        <extensions>
          <ns3:TrackPointExtension>
            <ns3:atemp>15.0</ns3:atemp>
            <ns3:hr>133</ns3:hr>
          </ns3:TrackPointExtension>
        </extensions>
      </trkpt>
      <trkpt lat="-22.0432233251631259918212890625" lon="166.45121301524341106414794921875">
        <ele>914.5999755859375</ele>
        <time>2016-08-12T19:25:50.000Z</time>
        <extensions>
          <ns3:TrackPointExtension>
            <ns3:atemp>15.0</ns3:atemp>
            <ns3:hr>134</ns3:hr>
          </ns3:TrackPointExtension>
        </extensions>
      </trkpt>
      <trkpt lat="-22.0432050526142120361328125" lon="166.451231203973293304443359375">
        <ele>915</ele>
        <time>2016-08-12T19:25:51.000Z</time>
        <extensions>
          <ns3:TrackPointExtension>
            <ns3:atemp>15.0</ns3:atemp>
            <ns3:hr>133</ns3:hr>
          </ns3:TrackPointExtension>
        </extensions>
      </trkpt>
      <trkpt lat="-22.04318636097013950347900390625" lon="166.45124402828514575958251953125">
        <ele>915</ele>
        <time>2016-08-12T19:25:52.000Z</time>
        <extensions>
          <ns3:TrackPointExtension>
            <ns3:atemp>15.0</ns3:atemp>
            <ns3:hr>133</ns3:hr>
          </ns3:TrackPointExtension>
        </extensions>
      </trkpt>
      <trkpt lat="-22.04316607676446437835693359375" lon="166.4512568525969982147216796875">
        <ele>914.79998779296875</ele>
        <time>2016-08-12T19:25:53.000Z</time>
        <extensions>
          <ns3:TrackPointExtension>
            <ns3:atemp>15.0</ns3:atemp>
            <ns3:hr>133</ns3:hr>
          </ns3:TrackPointExtension>
        </extensions>
      </trkpt>
      <trkpt lat="-22.04314403235912322998046875" lon="166.45126934163272380828857421875">
        <ele>914.79998779296875</ele>
        <time>2016-08-12T19:25:54.000Z</time>
        <extensions>
          <ns3:TrackPointExtension>
            <ns3:atemp>15.0</ns3:atemp>
            <ns3:hr>133</ns3:hr>
          </ns3:TrackPointExtension>
        </extensions>
      </trkpt>
      <trkpt lat="-22.04312064684927463531494140625" lon="166.4512806572020053863525390625">
        <ele>915.20001220703125</ele>
        <time>2016-08-12T19:25:55.000Z</time>
        <extensions>
          <ns3:TrackPointExtension>
            <ns3:atemp>15.0</ns3:atemp>
            <ns3:hr>133</ns3:hr>
          </ns3:TrackPointExtension>
        </extensions>
      </trkpt>
      <trkpt lat="-22.04309868626296520233154296875" lon="166.45129197277128696441650390625">
        <ele>915.20001220703125</ele>
        <time>2016-08-12T19:25:56.000Z</time>
        <extensions>
          <ns3:TrackPointExtension>
            <ns3:atemp>15.0</ns3:atemp>
            <ns3:hr>133</ns3:hr>
          </ns3:TrackPointExtension>
        </extensions>
      </trkpt>
      <trkpt lat="-22.04307965934276580810546875" lon="166.451302282512187957763671875">
        <ele>915</ele>
        <time>2016-08-12T19:25:57.000Z</time>
        <extensions>
          <ns3:TrackPointExtension>
            <ns3:atemp>15.0</ns3:atemp>
            <ns3:hr>133</ns3:hr>
          </ns3:TrackPointExtension>
        </extensions>
      </trkpt>
      <trkpt lat="-22.043060548603534698486328125" lon="166.4513160288333892822265625">
        <ele>915.20001220703125</ele>
        <time>2016-08-12T19:25:58.000Z</time>
        <extensions>
          <ns3:TrackPointExtension>
            <ns3:atemp>15.0</ns3:atemp>
            <ns3:hr>133</ns3:hr>
          </ns3:TrackPointExtension>
        </extensions>
      </trkpt>
      <trkpt lat="-22.0430395938456058502197265625" lon="166.4513321220874786376953125">
        <ele>915.20001220703125</ele>
        <time>2016-08-12T19:25:59.000Z</time>
        <extensions>
          <ns3:TrackPointExtension>
            <ns3:atemp>15.0</ns3:atemp>
            <ns3:hr>133</ns3:hr>
          </ns3:TrackPointExtension>
        </extensions>
      </trkpt>
      <trkpt lat="-22.0430204831063747406005859375" lon="166.451345868408679962158203125">
        <ele>915</ele>
        <time>2016-08-12T19:26:00.000Z</time>
        <extensions>
          <ns3:TrackPointExtension>
            <ns3:atemp>15.0</ns3:atemp>
            <ns3:hr>133</ns3:hr>
          </ns3:TrackPointExtension>
        </extensions>
      </trkpt>
      <trkpt lat="-22.04300112091004848480224609375" lon="166.4513638056814670562744140625">
        <ele>915</ele>
        <time>2016-08-12T19:26:01.000Z</time>
        <extensions>
          <ns3:TrackPointExtension>
            <ns3:atemp>15.0</ns3:atemp>
            <ns3:hr>132</ns3:hr>
          </ns3:TrackPointExtension>
        </extensions>
      </trkpt>
      <trkpt lat="-22.0429822616279125213623046875" lon="166.45137998275458812713623046875">
        <ele>915.20001220703125</ele>
        <time>2016-08-12T19:26:02.000Z</time>
        <extensions>
          <ns3:TrackPointExtension>
            <ns3:atemp>15.0</ns3:atemp>
            <ns3:hr>132</ns3:hr>
          </ns3:TrackPointExtension>
        </extensions>
      </trkpt>
      <trkpt lat="-22.0429636538028717041015625" lon="166.4513976685702800750732421875">
        <ele>914.79998779296875</ele>
        <time>2016-08-12T19:26:03.000Z</time>
        <extensions>
          <ns3:TrackPointExtension>
            <ns3:atemp>15.0</ns3:atemp>
            <ns3:hr>132</ns3:hr>
          </ns3:TrackPointExtension>
        </extensions>
      </trkpt>
      <trkpt lat="-22.04294613562524318695068359375" lon="166.45141988061368465423583984375">
        <ele>914.4000244140625</ele>
        <time>2016-08-12T19:26:04.000Z</time>
        <extensions>
          <ns3:TrackPointExtension>
            <ns3:atemp>15.0</ns3:atemp>
            <ns3:hr>132</ns3:hr>
          </ns3:TrackPointExtension>
        </extensions>
      </trkpt>
      <trkpt lat="-22.04292945563793182373046875" lon="166.45144133828580379486083984375">
        <ele>914.20001220703125</ele>
        <time>2016-08-12T19:26:05.000Z</time>
        <extensions>
          <ns3:TrackPointExtension>
            <ns3:atemp>15.0</ns3:atemp>
            <ns3:hr>132</ns3:hr>
          </ns3:TrackPointExtension>
        </extensions>
      </trkpt>
      <trkpt lat="-22.0429125241935253143310546875" lon="166.45146363414824008941650390625">
        <ele>914</ele>
        <time>2016-08-12T19:26:06.000Z</time>
        <extensions>
          <ns3:TrackPointExtension>
            <ns3:atemp>15.0</ns3:atemp>
            <ns3:hr>133</ns3:hr>
          </ns3:TrackPointExtension>
        </extensions>
      </trkpt>
      <trkpt lat="-22.04289458692073822021484375" lon="166.4514831639826297760009765625">
        <ele>914</ele>
        <time>2016-08-12T19:26:07.000Z</time>
        <extensions>
          <ns3:TrackPointExtension>
            <ns3:atemp>15.0</ns3:atemp>
            <ns3:hr>132</ns3:hr>
          </ns3:TrackPointExtension>
        </extensions>
      </trkpt>
      <trkpt lat="-22.04287773929536342620849609375" lon="166.45150135271251201629638671875">
        <ele>914</ele>
        <time>2016-08-12T19:26:08.000Z</time>
        <extensions>
          <ns3:TrackPointExtension>
            <ns3:atemp>15.0</ns3:atemp>
            <ns3:hr>132</ns3:hr>
          </ns3:TrackPointExtension>
        </extensions>
      </trkpt>
      <trkpt lat="-22.04286114312708377838134765625" lon="166.4515183679759502410888671875">
        <ele>914.20001220703125</ele>
        <time>2016-08-12T19:26:09.000Z</time>
        <extensions>
          <ns3:TrackPointExtension>
            <ns3:atemp>15.0</ns3:atemp>
            <ns3:hr>132</ns3:hr>
          </ns3:TrackPointExtension>
        </extensions>
      </trkpt>
      <trkpt lat="-22.0428454689681529998779296875" lon="166.45153773017227649688720703125">
        <ele>914.4000244140625</ele>
        <time>2016-08-12T19:26:10.000Z</time>
        <extensions>
          <ns3:TrackPointExtension>
            <ns3:atemp>15.0</ns3:atemp>
            <ns3:hr>132</ns3:hr>
          </ns3:TrackPointExtension>
        </extensions>
      </trkpt>
      <trkpt lat="-22.04282728023827075958251953125" lon="166.45155700854957103729248046875">
        <ele>914.4000244140625</ele>
        <time>2016-08-12T19:26:11.000Z</time>
        <extensions>
          <ns3:TrackPointExtension>
            <ns3:atemp>15.0</ns3:atemp>
            <ns3:hr>132</ns3:hr>
          </ns3:TrackPointExtension>
        </extensions>
      </trkpt>
      <trkpt lat="-22.04280850477516651153564453125" lon="166.45157662220299243927001953125">
        <ele>914.4000244140625</ele>
        <time>2016-08-12T19:26:12.000Z</time>
        <extensions>
          <ns3:TrackPointExtension>
            <ns3:atemp>15.0</ns3:atemp>
            <ns3:hr>131</ns3:hr>
          </ns3:TrackPointExtension>
        </extensions>
      </trkpt>
      <trkpt lat="-22.04278889112174510955810546875" lon="166.45159455947577953338623046875">
        <ele>914.79998779296875</ele>
        <time>2016-08-12T19:26:13.000Z</time>
        <extensions>
          <ns3:TrackPointExtension>
            <ns3:atemp>15.0</ns3:atemp>
            <ns3:hr>131</ns3:hr>
          </ns3:TrackPointExtension>
        </extensions>
      </trkpt>
      <trkpt lat="-22.04277078621089458465576171875" lon="166.45161308348178863525390625">
        <ele>915</ele>
        <time>2016-08-12T19:26:14.000Z</time>
        <extensions>
          <ns3:TrackPointExtension>
            <ns3:atemp>15.0</ns3:atemp>
            <ns3:hr>131</ns3:hr>
          </ns3:TrackPointExtension>
        </extensions>
      </trkpt>
      <trkpt lat="-22.04275502823293209075927734375" lon="166.4516313560307025909423828125">
        <ele>914.5999755859375</ele>
        <time>2016-08-12T19:26:15.000Z</time>
        <extensions>
          <ns3:TrackPointExtension>
            <ns3:atemp>15.0</ns3:atemp>
            <ns3:hr>131</ns3:hr>
          </ns3:TrackPointExtension>
        </extensions>
      </trkpt>
      <trkpt lat="-22.04273826442658901214599609375" lon="166.45165222696959972381591796875">
        <ele>914.4000244140625</ele>
        <time>2016-08-12T19:26:16.000Z</time>
        <extensions>
          <ns3:TrackPointExtension>
            <ns3:atemp>15.0</ns3:atemp>
            <ns3:hr>131</ns3:hr>
          </ns3:TrackPointExtension>
        </extensions>
      </trkpt>
      <trkpt lat="-22.04271890223026275634765625" lon="166.45167477428913116455078125">
        <ele>914.79998779296875</ele>
        <time>2016-08-12T19:26:17.000Z</time>
        <extensions>
          <ns3:TrackPointExtension>
            <ns3:atemp>15.0</ns3:atemp>
            <ns3:hr>132</ns3:hr>
          </ns3:TrackPointExtension>
        </extensions>
      </trkpt>
      <trkpt lat="-22.04270188696682453155517578125" lon="166.45169396884739398956298828125">
        <ele>914.5999755859375</ele>
        <time>2016-08-12T19:26:18.000Z</time>
        <extensions>
          <ns3:TrackPointExtension>
            <ns3:atemp>15.0</ns3:atemp>
            <ns3:hr>131</ns3:hr>
          </ns3:TrackPointExtension>
        </extensions>
      </trkpt>
      <trkpt lat="-22.04268411733210086822509765625" lon="166.45171458832919597625732421875">
        <ele>914.4000244140625</ele>
        <time>2016-08-12T19:26:19.000Z</time>
        <extensions>
          <ns3:TrackPointExtension>
            <ns3:atemp>15.0</ns3:atemp>
            <ns3:hr>132</ns3:hr>
          </ns3:TrackPointExtension>
        </extensions>
      </trkpt>
      <trkpt lat="-22.0426660962402820587158203125" lon="166.451735459268093109130859375">
        <ele>914.20001220703125</ele>
        <time>2016-08-12T19:26:20.000Z</time>
        <extensions>
          <ns3:TrackPointExtension>
            <ns3:atemp>15.0</ns3:atemp>
            <ns3:hr>132</ns3:hr>
          </ns3:TrackPointExtension>
        </extensions>
      </trkpt>
      <trkpt lat="-22.04264891333878040313720703125" lon="166.45175633020699024200439453125">
        <ele>914.4000244140625</ele>
        <time>2016-08-12T19:26:21.000Z</time>
        <extensions>
          <ns3:TrackPointExtension>
            <ns3:atemp>15.0</ns3:atemp>
            <ns3:hr>131</ns3:hr>
          </ns3:TrackPointExtension>
        </extensions>
      </trkpt>
      <trkpt lat="-22.04263181425631046295166015625" lon="166.45177812315523624420166015625">
        <ele>914.4000244140625</ele>
        <time>2016-08-12T19:26:22.000Z</time>
        <extensions>
          <ns3:TrackPointExtension>
            <ns3:atemp>15.0</ns3:atemp>
            <ns3:hr>132</ns3:hr>
          </ns3:TrackPointExtension>
        </extensions>
      </trkpt>
      <trkpt lat="-22.04261672683060169219970703125" lon="166.45179991610348224639892578125">
        <ele>914.4000244140625</ele>
        <time>2016-08-12T19:26:23.000Z</time>
        <extensions>
          <ns3:TrackPointExtension>
            <ns3:atemp>15.0</ns3:atemp>
            <ns3:hr>131</ns3:hr>
          </ns3:TrackPointExtension>
        </extensions>
      </trkpt>
      <trkpt lat="-22.04260230995714664459228515625" lon="166.4518244750797748565673828125">
        <ele>914.20001220703125</ele>
        <time>2016-08-12T19:26:24.000Z</time>
        <extensions>
          <ns3:TrackPointExtension>
            <ns3:atemp>15.0</ns3:atemp>
            <ns3:hr>132</ns3:hr>
          </ns3:TrackPointExtension>
        </extensions>
      </trkpt>
      <trkpt lat="-22.04259040765464305877685546875" lon="166.4518499560654163360595703125">
        <ele>914.4000244140625</ele>
        <time>2016-08-12T19:26:25.000Z</time>
        <extensions>
          <ns3:TrackPointExtension>
            <ns3:atemp>15.0</ns3:atemp>
            <ns3:hr>132</ns3:hr>
          </ns3:TrackPointExtension>
        </extensions>
      </trkpt>
      <trkpt lat="-22.04258118756115436553955078125" lon="166.45187937654554843902587890625">
        <ele>914.5999755859375</ele>
        <time>2016-08-12T19:26:26.000Z</time>
        <extensions>
          <ns3:TrackPointExtension>
            <ns3:atemp>15.0</ns3:atemp>
            <ns3:hr>131</ns3:hr>
          </ns3:TrackPointExtension>
        </extensions>
      </trkpt>
      <trkpt lat="-22.04257414676249027252197265625" lon="166.4519096352159976959228515625">
        <ele>914.20001220703125</ele>
        <time>2016-08-12T19:26:27.000Z</time>
        <extensions>
          <ns3:TrackPointExtension>
            <ns3:atemp>15.0</ns3:atemp>
            <ns3:hr>132</ns3:hr>
          </ns3:TrackPointExtension>
        </extensions>
      </trkpt>
      <trkpt lat="-22.04256928525865077972412109375" lon="166.45193855278193950653076171875">
        <ele>914</ele>
        <time>2016-08-12T19:26:28.000Z</time>
        <extensions>
          <ns3:TrackPointExtension>
            <ns3:atemp>15.0</ns3:atemp>
            <ns3:hr>132</ns3:hr>
          </ns3:TrackPointExtension>
        </extensions>
      </trkpt>
      <trkpt lat="-22.0425695367157459259033203125" lon="166.45196847617626190185546875">
        <ele>913.79998779296875</ele>
        <time>2016-08-12T19:26:29.000Z</time>
        <extensions>
          <ns3:TrackPointExtension>
            <ns3:atemp>15.0</ns3:atemp>
            <ns3:hr>132</ns3:hr>
          </ns3:TrackPointExtension>
        </extensions>
      </trkpt>
      <trkpt lat="-22.04257666133344173431396484375" lon="166.45199605263769626617431640625">
        <ele>914.20001220703125</ele>
        <time>2016-08-12T19:26:30.000Z</time>
        <extensions>
          <ns3:TrackPointExtension>
            <ns3:atemp>15.0</ns3:atemp>
            <ns3:hr>131</ns3:hr>
          </ns3:TrackPointExtension>
        </extensions>
      </trkpt>
      <trkpt lat="-22.04258856363594532012939453125" lon="166.45202815532684326171875">
        <ele>914.5999755859375</ele>
        <time>2016-08-12T19:26:31.000Z</time>
        <extensions>
          <ns3:TrackPointExtension>
            <ns3:atemp>15.0</ns3:atemp>
            <ns3:hr>131</ns3:hr>
          </ns3:TrackPointExtension>
        </extensions>
      </trkpt>
      <trkpt lat="-22.042602561414241790771484375" lon="166.4520554803311824798583984375">
        <ele>914.20001220703125</ele>
        <time>2016-08-12T19:26:32.000Z</time>
        <extensions>
          <ns3:TrackPointExtension>
            <ns3:atemp>15.0</ns3:atemp>
            <ns3:hr>132</ns3:hr>
          </ns3:TrackPointExtension>
        </extensions>
      </trkpt>
      <trkpt lat="-22.04261840321123600006103515625" lon="166.452078782021999359130859375">
        <ele>914</ele>
        <time>2016-08-12T19:26:33.000Z</time>
        <extensions>
          <ns3:TrackPointExtension>
            <ns3:atemp>15.0</ns3:atemp>
            <ns3:hr>131</ns3:hr>
          </ns3:TrackPointExtension>
        </extensions>
      </trkpt>
      <trkpt lat="-22.04263516701757907867431640625" lon="166.45210015587508678436279296875">
        <ele>914.4000244140625</ele>
        <time>2016-08-12T19:26:34.000Z</time>
        <extensions>
          <ns3:TrackPointExtension>
            <ns3:atemp>15.0</ns3:atemp>
            <ns3:hr>132</ns3:hr>
          </ns3:TrackPointExtension>
        </extensions>
      </trkpt>
      <trkpt lat="-22.04265193082392215728759765625" lon="166.45212060771882534027099609375">
        <ele>914.4000244140625</ele>
        <time>2016-08-12T19:26:35.000Z</time>
        <extensions>
          <ns3:TrackPointExtension>
            <ns3:atemp>15.0</ns3:atemp>
            <ns3:hr>132</ns3:hr>
          </ns3:TrackPointExtension>
        </extensions>
      </trkpt>
      <trkpt lat="-22.04266726970672607421875" lon="166.45214005373418331146240234375">
        <ele>914</ele>
        <time>2016-08-12T19:26:36.000Z</time>
        <extensions>
          <ns3:TrackPointExtension>
            <ns3:atemp>15.0</ns3:atemp>
            <ns3:hr>132</ns3:hr>
          </ns3:TrackPointExtension>
        </extensions>
      </trkpt>
      <trkpt lat="-22.04268411733210086822509765625" lon="166.45215832628309726715087890625">
        <ele>913.79998779296875</ele>
        <time>2016-08-12T19:26:37.000Z</time>
        <extensions>
          <ns3:TrackPointExtension>
            <ns3:atemp>15.0</ns3:atemp>
            <ns3:hr>132</ns3:hr>
          </ns3:TrackPointExtension>
        </extensions>
      </trkpt>
      <trkpt lat="-22.042699120938777923583984375" lon="166.45217693410813808441162109375">
        <ele>914</ele>
        <time>2016-08-12T19:26:38.000Z</time>
        <extensions>
          <ns3:TrackPointExtension>
            <ns3:atemp>15.0</ns3:atemp>
            <ns3:hr>132</ns3:hr>
          </ns3:TrackPointExtension>
        </extensions>
      </trkpt>
      <trkpt lat="-22.04271412454545497894287109375" lon="166.45220124162733554840087890625">
        <ele>913.79998779296875</ele>
        <time>2016-08-12T19:26:39.000Z</time>
        <extensions>
          <ns3:TrackPointExtension>
            <ns3:atemp>15.0</ns3:atemp>
            <ns3:hr>132</ns3:hr>
          </ns3:TrackPointExtension>
        </extensions>
      </trkpt>
      <trkpt lat="-22.0427308045327663421630859375" lon="166.45222705788910388946533203125">
        <ele>913.5999755859375</ele>
        <time>2016-08-12T19:26:40.000Z</time>
        <extensions>
          <ns3:TrackPointExtension>
            <ns3:atemp>15.0</ns3:atemp>
            <ns3:hr>132</ns3:hr>
          </ns3:TrackPointExtension>
        </extensions>
      </trkpt>
      <trkpt lat="-22.04274295829236507415771484375" lon="166.45225387997925281524658203125">
        <ele>913.5999755859375</ele>
        <time>2016-08-12T19:26:41.000Z</time>
        <extensions>
          <ns3:TrackPointExtension>
            <ns3:atemp>15.0</ns3:atemp>
            <ns3:hr>132</ns3:hr>
          </ns3:TrackPointExtension>
        </extensions>
      </trkpt>
      <trkpt lat="-22.04275452531874179840087890625" lon="166.45227969624102115631103515625">
        <ele>914</ele>
        <time>2016-08-12T19:26:42.000Z</time>
        <extensions>
          <ns3:TrackPointExtension>
            <ns3:atemp>15.0</ns3:atemp>
            <ns3:hr>132</ns3:hr>
          </ns3:TrackPointExtension>
        </extensions>
      </trkpt>
      <trkpt lat="-22.04276441596448421478271484375" lon="166.4523042552173137664794921875">
        <ele>914</ele>
        <time>2016-08-12T19:26:43.000Z</time>
        <extensions>
          <ns3:TrackPointExtension>
            <ns3:atemp>15.0</ns3:atemp>
            <ns3:hr>132</ns3:hr>
          </ns3:TrackPointExtension>
        </extensions>
      </trkpt>
      <trkpt lat="-22.042772881686687469482421875" lon="166.4523272216320037841796875">
        <ele>913.79998779296875</ele>
        <time>2016-08-12T19:26:44.000Z</time>
        <extensions>
          <ns3:TrackPointExtension>
            <ns3:atemp>15.0</ns3:atemp>
            <ns3:hr>132</ns3:hr>
          </ns3:TrackPointExtension>
        </extensions>
      </trkpt>
      <trkpt lat="-22.0427844487130641937255859375" lon="166.45234926603734493255615234375">
        <ele>913.5999755859375</ele>
        <time>2016-08-12T19:26:45.000Z</time>
        <extensions>
          <ns3:TrackPointExtension>
            <ns3:atemp>15.0</ns3:atemp>
            <ns3:hr>133</ns3:hr>
          </ns3:TrackPointExtension>
        </extensions>
      </trkpt>
      <trkpt lat="-22.04279744066298007965087890625" lon="166.45236988551914691925048828125">
        <ele>914</ele>
        <time>2016-08-12T19:26:46.000Z</time>
        <extensions>
          <ns3:TrackPointExtension>
            <ns3:atemp>15.0</ns3:atemp>
            <ns3:hr>132</ns3:hr>
          </ns3:TrackPointExtension>
        </extensions>
      </trkpt>
      <trkpt lat="-22.04281319864094257354736328125" lon="166.4523920975625514984130859375">
        <ele>914</ele>
        <time>2016-08-12T19:26:47.000Z</time>
        <extensions>
          <ns3:TrackPointExtension>
            <ns3:atemp>15.0</ns3:atemp>
            <ns3:hr>132</ns3:hr>
          </ns3:TrackPointExtension>
        </extensions>
      </trkpt>
      <trkpt lat="-22.04283096827566623687744140625" lon="166.45241229794919490814208984375">
        <ele>913.79998779296875</ele>
        <time>2016-08-12T19:26:48.000Z</time>
        <extensions>
          <ns3:TrackPointExtension>
            <ns3:atemp>15.0</ns3:atemp>
            <ns3:hr>132</ns3:hr>
          </ns3:TrackPointExtension>
        </extensions>
      </trkpt>
      <trkpt lat="-22.042847312986850738525390625" lon="166.45242989994585514068603515625">
        <ele>913.79998779296875</ele>
        <time>2016-08-12T19:26:49.000Z</time>
        <extensions>
          <ns3:TrackPointExtension>
            <ns3:atemp>15.0</ns3:atemp>
            <ns3:hr>132</ns3:hr>
          </ns3:TrackPointExtension>
        </extensions>
      </trkpt>
      <trkpt lat="-22.04286684282124042510986328125" lon="166.45244498737156391143798828125">
        <ele>914.20001220703125</ele>
        <time>2016-08-12T19:26:50.000Z</time>
        <extensions>
          <ns3:TrackPointExtension>
            <ns3:atemp>15.0</ns3:atemp>
            <ns3:hr>132</ns3:hr>
          </ns3:TrackPointExtension>
        </extensions>
      </trkpt>
      <trkpt lat="-22.0428877137601375579833984375" lon="166.452462337911128997802734375">
        <ele>914</ele>
        <time>2016-08-12T19:26:51.000Z</time>
        <extensions>
          <ns3:TrackPointExtension>
            <ns3:atemp>15.0</ns3:atemp>
            <ns3:hr>132</ns3:hr>
          </ns3:TrackPointExtension>
        </extensions>
      </trkpt>
      <trkpt lat="-22.04291210509836673736572265625" lon="166.45247868262231349945068359375">
        <ele>913.5999755859375</ele>
        <time>2016-08-12T19:26:52.000Z</time>
        <extensions>
          <ns3:TrackPointExtension>
            <ns3:atemp>15.0</ns3:atemp>
            <ns3:hr>132</ns3:hr>
          </ns3:TrackPointExtension>
        </extensions>
      </trkpt>
      <trkpt lat="-22.0429383404552936553955078125" lon="166.45249594934284687042236328125">
        <ele>913.5999755859375</ele>
        <time>2016-08-12T19:26:53.000Z</time>
        <extensions>
          <ns3:TrackPointExtension>
            <ns3:atemp>15.0</ns3:atemp>
            <ns3:hr>131</ns3:hr>
          </ns3:TrackPointExtension>
        </extensions>
      </trkpt>
      <trkpt lat="-22.04296373762190341949462890625" lon="166.45251036621630191802978515625">
        <ele>914</ele>
        <time>2016-08-12T19:26:54.000Z</time>
        <extensions>
          <ns3:TrackPointExtension>
            <ns3:atemp>15.0</ns3:atemp>
            <ns3:hr>132</ns3:hr>
          </ns3:TrackPointExtension>
        </extensions>
      </trkpt>
      <trkpt lat="-22.042990811169147491455078125" lon="166.4525178261101245880126953125">
        <ele>913.5999755859375</ele>
        <time>2016-08-12T19:26:55.000Z</time>
        <extensions>
          <ns3:TrackPointExtension>
            <ns3:atemp>15.0</ns3:atemp>
            <ns3:hr>131</ns3:hr>
          </ns3:TrackPointExtension>
        </extensions>
      </trkpt>
      <trkpt lat="-22.04301637597382068634033203125" lon="166.45252637565135955810546875">
        <ele>913.4000244140625</ele>
        <time>2016-08-12T19:26:56.000Z</time>
        <extensions>
          <ns3:TrackPointExtension>
            <ns3:atemp>15.0</ns3:atemp>
            <ns3:hr>131</ns3:hr>
          </ns3:TrackPointExtension>
        </extensions>
      </trkpt>
      <trkpt lat="-22.04304076731204986572265625" lon="166.45253433845937252044677734375">
        <ele>913.4000244140625</ele>
        <time>2016-08-12T19:26:57.000Z</time>
        <extensions>
          <ns3:TrackPointExtension>
            <ns3:atemp>15.0</ns3:atemp>
            <ns3:hr>130</ns3:hr>
          </ns3:TrackPointExtension>
        </extensions>
      </trkpt>
      <trkpt lat="-22.0430664159357547760009765625" lon="166.452543474733829498291015625">
        <ele>913.4000244140625</ele>
        <time>2016-08-12T19:26:58.000Z</time>
        <extensions>
          <ns3:TrackPointExtension>
            <ns3:atemp>15.0</ns3:atemp>
            <ns3:hr>130</ns3:hr>
          </ns3:TrackPointExtension>
        </extensions>
      </trkpt>
      <trkpt lat="-22.04309063963592052459716796875" lon="166.45255210809409618377685546875">
        <ele>913.4000244140625</ele>
        <time>2016-08-12T19:26:59.000Z</time>
        <extensions>
          <ns3:TrackPointExtension>
            <ns3:atemp>15.0</ns3:atemp>
            <ns3:hr>129</ns3:hr>
          </ns3:TrackPointExtension>
        </extensions>
      </trkpt>
      <trkpt lat="-22.04311779700219631195068359375" lon="166.4525604061782360076904296875">
        <ele>913.20001220703125</ele>
        <time>2016-08-12T19:27:00.000Z</time>
        <extensions>
          <ns3:TrackPointExtension>
            <ns3:atemp>15.0</ns3:atemp>
            <ns3:hr>128</ns3:hr>
          </ns3:TrackPointExtension>
        </extensions>
      </trkpt>
      <trkpt lat="-22.04314344562590122222900390625" lon="166.45257339812815189361572265625">
        <ele>913.20001220703125</ele>
        <time>2016-08-12T19:27:01.000Z</time>
        <extensions>
          <ns3:TrackPointExtension>
            <ns3:atemp>15.0</ns3:atemp>
            <ns3:hr>128</ns3:hr>
          </ns3:TrackPointExtension>
        </extensions>
      </trkpt>
      <trkpt lat="-22.043163478374481201171875" lon="166.452589072287082672119140625">
        <ele>913</ele>
        <time>2016-08-12T19:27:02.000Z</time>
        <extensions>
          <ns3:TrackPointExtension>
            <ns3:atemp>15.0</ns3:atemp>
            <ns3:hr>127</ns3:hr>
          </ns3:TrackPointExtension>
        </extensions>
      </trkpt>
      <trkpt lat="-22.0431840978562831878662109375" lon="166.4526039920747280120849609375">
        <ele>913</ele>
        <time>2016-08-12T19:27:03.000Z</time>
        <extensions>
          <ns3:TrackPointExtension>
            <ns3:atemp>15.0</ns3:atemp>
            <ns3:hr>127</ns3:hr>
          </ns3:TrackPointExtension>
        </extensions>
      </trkpt>
      <trkpt lat="-22.04320748336613178253173828125" lon="166.45261564292013645172119140625">
        <ele>913.4000244140625</ele>
        <time>2016-08-12T19:27:04.000Z</time>
        <extensions>
          <ns3:TrackPointExtension>
            <ns3:atemp>15.0</ns3:atemp>
            <ns3:hr>128</ns3:hr>
          </ns3:TrackPointExtension>
        </extensions>
      </trkpt>
      <trkpt lat="-22.0432291924953460693359375" lon="166.4526267908513545989990234375">
        <ele>913.5999755859375</ele>
        <time>2016-08-12T19:27:05.000Z</time>
        <extensions>
          <ns3:TrackPointExtension>
            <ns3:atemp>15.0</ns3:atemp>
            <ns3:hr>128</ns3:hr>
          </ns3:TrackPointExtension>
        </extensions>
      </trkpt>
      <trkpt lat="-22.04325056634843349456787109375" lon="166.4526391960680484771728515625">
        <ele>913.4000244140625</ele>
        <time>2016-08-12T19:27:06.000Z</time>
        <extensions>
          <ns3:TrackPointExtension>
            <ns3:atemp>15.0</ns3:atemp>
            <ns3:hr>128</ns3:hr>
          </ns3:TrackPointExtension>
        </extensions>
      </trkpt>
      <trkpt lat="-22.04326833598315715789794921875" lon="166.45265352912247180938720703125">
        <ele>913.20001220703125</ele>
        <time>2016-08-12T19:27:07.000Z</time>
        <extensions>
          <ns3:TrackPointExtension>
            <ns3:atemp>15.0</ns3:atemp>
            <ns3:hr>128</ns3:hr>
          </ns3:TrackPointExtension>
        </extensions>
      </trkpt>
      <trkpt lat="-22.043278478085994720458984375" lon="166.45267926156520843505859375">
        <ele>913.5999755859375</ele>
        <time>2016-08-12T19:27:08.000Z</time>
        <extensions>
          <ns3:TrackPointExtension>
            <ns3:atemp>15.0</ns3:atemp>
            <ns3:hr>127</ns3:hr>
          </ns3:TrackPointExtension>
        </extensions>
      </trkpt>
      <trkpt lat="-22.04327881336212158203125" lon="166.4527099393308162689208984375">
        <ele>913.5999755859375</ele>
        <time>2016-08-12T19:27:09.000Z</time>
        <extensions>
          <ns3:TrackPointExtension>
            <ns3:atemp>15.0</ns3:atemp>
            <ns3:hr>126</ns3:hr>
          </ns3:TrackPointExtension>
        </extensions>
      </trkpt>
      <trkpt lat="-22.04327302984893321990966796875" lon="166.45273500122129917144775390625">
        <ele>913.20001220703125</ele>
        <time>2016-08-12T19:27:10.000Z</time>
        <extensions>
          <ns3:TrackPointExtension>
            <ns3:atemp>15.0</ns3:atemp>
            <ns3:hr>126</ns3:hr>
          </ns3:TrackPointExtension>
        </extensions>
      </trkpt>
      <trkpt lat="-22.043263725936412811279296875" lon="166.452757380902767181396484375">
        <ele>913</ele>
        <time>2016-08-12T19:27:11.000Z</time>
        <extensions>
          <ns3:TrackPointExtension>
            <ns3:atemp>15.0</ns3:atemp>
            <ns3:hr>124</ns3:hr>
          </ns3:TrackPointExtension>
        </extensions>
      </trkpt>
      <trkpt lat="-22.043248973786830902099609375" lon="166.45277037285268306732177734375">
        <ele>913.4000244140625</ele>
        <time>2016-08-12T19:27:12.000Z</time>
        <extensions>
          <ns3:TrackPointExtension>
            <ns3:atemp>15.0</ns3:atemp>
            <ns3:hr>123</ns3:hr>
          </ns3:TrackPointExtension>
        </extensions>
      </trkpt>
      <trkpt lat="-22.0432310365140438079833984375" lon="166.45278546027839183807373046875">
        <ele>913.79998779296875</ele>
        <time>2016-08-12T19:27:13.000Z</time>
        <extensions>
          <ns3:TrackPointExtension>
            <ns3:atemp>15.0</ns3:atemp>
            <ns3:hr>123</ns3:hr>
          </ns3:TrackPointExtension>
        </extensions>
      </trkpt>
      <trkpt lat="-22.043210752308368682861328125" lon="166.452801637351512908935546875">
        <ele>913.5999755859375</ele>
        <time>2016-08-12T19:27:14.000Z</time>
        <extensions>
          <ns3:TrackPointExtension>
            <ns3:atemp>15.0</ns3:atemp>
            <ns3:hr>124</ns3:hr>
          </ns3:TrackPointExtension>
        </extensions>
      </trkpt>
      <trkpt lat="-22.043191306293010711669921875" lon="166.45281798206269741058349609375">
        <ele>913.4000244140625</ele>
        <time>2016-08-12T19:27:15.000Z</time>
        <extensions>
          <ns3:TrackPointExtension>
            <ns3:atemp>15.0</ns3:atemp>
            <ns3:hr>123</ns3:hr>
          </ns3:TrackPointExtension>
        </extensions>
      </trkpt>
      <trkpt lat="-22.04317085444927215576171875" lon="166.4528370089828968048095703125">
        <ele>913.5999755859375</ele>
        <time>2016-08-12T19:27:16.000Z</time>
        <extensions>
          <ns3:TrackPointExtension>
            <ns3:atemp>15.0</ns3:atemp>
            <ns3:hr>124</ns3:hr>
          </ns3:TrackPointExtension>
        </extensions>
      </trkpt>
      <trkpt lat="-22.0431509055197238922119140625" lon="166.452851258218288421630859375">
        <ele>914.20001220703125</ele>
        <time>2016-08-12T19:27:17.000Z</time>
        <extensions>
          <ns3:TrackPointExtension>
            <ns3:atemp>15.0</ns3:atemp>
            <ns3:hr>124</ns3:hr>
          </ns3:TrackPointExtension>
        </extensions>
      </trkpt>
      <trkpt lat="-22.04313120804727077484130859375" lon="166.4528671838343143463134765625">
        <ele>914.20001220703125</ele>
        <time>2016-08-12T19:27:18.000Z</time>
        <extensions>
          <ns3:TrackPointExtension>
            <ns3:atemp>15.0</ns3:atemp>
            <ns3:hr>125</ns3:hr>
          </ns3:TrackPointExtension>
        </extensions>
      </trkpt>
      <trkpt lat="-22.04310941509902477264404296875" lon="166.45288051106035709381103515625">
        <ele>913.79998779296875</ele>
        <time>2016-08-12T19:27:19.000Z</time>
        <extensions>
          <ns3:TrackPointExtension>
            <ns3:atemp>15.0</ns3:atemp>
            <ns3:hr>126</ns3:hr>
          </ns3:TrackPointExtension>
        </extensions>
      </trkpt>
      <trkpt lat="-22.04308778978884220123291015625" lon="166.4528933353722095489501953125">
        <ele>913.79998779296875</ele>
        <time>2016-08-12T19:27:20.000Z</time>
        <extensions>
          <ns3:TrackPointExtension>
            <ns3:atemp>15.0</ns3:atemp>
            <ns3:hr>127</ns3:hr>
          </ns3:TrackPointExtension>
        </extensions>
      </trkpt>
      <trkpt lat="-22.043066583573818206787109375" lon="166.4529030583798885345458984375">
        <ele>914.20001220703125</ele>
        <time>2016-08-12T19:27:21.000Z</time>
        <extensions>
          <ns3:TrackPointExtension>
            <ns3:atemp>15.0</ns3:atemp>
            <ns3:hr>128</ns3:hr>
          </ns3:TrackPointExtension>
        </extensions>
      </trkpt>
      <trkpt lat="-22.04304537735879421234130859375" lon="166.4529141224920749664306640625">
        <ele>914.4000244140625</ele>
        <time>2016-08-12T19:27:22.000Z</time>
        <extensions>
          <ns3:TrackPointExtension>
            <ns3:atemp>15.0</ns3:atemp>
            <ns3:hr>129</ns3:hr>
          </ns3:TrackPointExtension>
        </extensions>
      </trkpt>
      <trkpt lat="-22.04302023164927959442138671875" lon="166.45292476750910282135009765625">
        <ele>914.20001220703125</ele>
        <time>2016-08-12T19:27:23.000Z</time>
        <extensions>
          <ns3:TrackPointExtension>
            <ns3:atemp>15.0</ns3:atemp>
            <ns3:hr>130</ns3:hr>
          </ns3:TrackPointExtension>
        </extensions>
      </trkpt>
      <trkpt lat="-22.04299575649201869964599609375" lon="166.4529369212687015533447265625">
        <ele>913.79998779296875</ele>
        <time>2016-08-12T19:27:24.000Z</time>
        <extensions>
          <ns3:TrackPointExtension>
            <ns3:atemp>15.0</ns3:atemp>
            <ns3:hr>130</ns3:hr>
          </ns3:TrackPointExtension>
        </extensions>
      </trkpt>
      <trkpt lat="-22.04297346062958240509033203125" lon="166.45295125432312488555908203125">
        <ele>914</ele>
        <time>2016-08-12T19:27:25.000Z</time>
        <extensions>
          <ns3:TrackPointExtension>
            <ns3:atemp>15.0</ns3:atemp>
            <ns3:hr>131</ns3:hr>
          </ns3:TrackPointExtension>
        </extensions>
      </trkpt>
      <trkpt lat="-22.042953930795192718505859375" lon="166.4529650844633579254150390625">
        <ele>914.20001220703125</ele>
        <time>2016-08-12T19:27:26.000Z</time>
        <extensions>
          <ns3:TrackPointExtension>
            <ns3:atemp>15.0</ns3:atemp>
            <ns3:hr>132</ns3:hr>
          </ns3:TrackPointExtension>
        </extensions>
      </trkpt>
      <trkpt lat="-22.04293607734143733978271484375" lon="166.4529789984226226806640625">
        <ele>913.79998779296875</ele>
        <time>2016-08-12T19:27:27.000Z</time>
        <extensions>
          <ns3:TrackPointExtension>
            <ns3:atemp>15.0</ns3:atemp>
            <ns3:hr>132</ns3:hr>
          </ns3:TrackPointExtension>
        </extensions>
      </trkpt>
      <trkpt lat="-22.0429145358502864837646484375" lon="166.45298997871577739715576171875">
        <ele>913.4000244140625</ele>
        <time>2016-08-12T19:27:28.000Z</time>
        <extensions>
          <ns3:TrackPointExtension>
            <ns3:atemp>15.0</ns3:atemp>
            <ns3:hr>133</ns3:hr>
          </ns3:TrackPointExtension>
        </extensions>
      </trkpt>
      <trkpt lat="-22.04289349727332592010498046875" lon="166.4530036412179470062255859375">
        <ele>913.4000244140625</ele>
        <time>2016-08-12T19:27:29.000Z</time>
        <extensions>
          <ns3:TrackPointExtension>
            <ns3:atemp>15.0</ns3:atemp>
            <ns3:hr>133</ns3:hr>
          </ns3:TrackPointExtension>
        </extensions>
      </trkpt>
      <trkpt lat="-22.042873799800872802734375" lon="166.45301545970141887664794921875">
        <ele>913.5999755859375</ele>
        <time>2016-08-12T19:27:30.000Z</time>
        <extensions>
          <ns3:TrackPointExtension>
            <ns3:atemp>15.0</ns3:atemp>
            <ns3:hr>134</ns3:hr>
          </ns3:TrackPointExtension>
        </extensions>
      </trkpt>
      <trkpt lat="-22.04285209067165851593017578125" lon="166.4530291222035884857177734375">
        <ele>913.5999755859375</ele>
        <time>2016-08-12T19:27:31.000Z</time>
        <extensions>
          <ns3:TrackPointExtension>
            <ns3:atemp>15.0</ns3:atemp>
            <ns3:hr>134</ns3:hr>
          </ns3:TrackPointExtension>
        </extensions>
      </trkpt>
      <trkpt lat="-22.04283147118985652923583984375" lon="166.45304412581026554107666015625">
        <ele>913.4000244140625</ele>
        <time>2016-08-12T19:27:32.000Z</time>
        <extensions>
          <ns3:TrackPointExtension>
            <ns3:atemp>15.0</ns3:atemp>
            <ns3:hr>134</ns3:hr>
          </ns3:TrackPointExtension>
        </extensions>
      </trkpt>
      <trkpt lat="-22.04281051643192768096923828125" lon="166.4530567824840545654296875">
        <ele>913.4000244140625</ele>
        <time>2016-08-12T19:27:33.000Z</time>
        <extensions>
          <ns3:TrackPointExtension>
            <ns3:atemp>15.0</ns3:atemp>
            <ns3:hr>134</ns3:hr>
          </ns3:TrackPointExtension>
        </extensions>
      </trkpt>
      <trkpt lat="-22.0427884720265865325927734375" lon="166.4530742168426513671875">
        <ele>913.79998779296875</ele>
        <time>2016-08-12T19:27:34.000Z</time>
        <extensions>
          <ns3:TrackPointExtension>
            <ns3:atemp>15.0</ns3:atemp>
            <ns3:hr>134</ns3:hr>
          </ns3:TrackPointExtension>
        </extensions>
      </trkpt>
      <trkpt lat="-22.04276693053543567657470703125" lon="166.45308586768805980682373046875">
        <ele>913.79998779296875</ele>
        <time>2016-08-12T19:27:35.000Z</time>
        <extensions>
          <ns3:TrackPointExtension>
            <ns3:atemp>15.0</ns3:atemp>
            <ns3:hr>134</ns3:hr>
          </ns3:TrackPointExtension>
        </extensions>
      </trkpt>
      <trkpt lat="-22.04274547286331653594970703125" lon="166.4530991949141025543212890625">
        <ele>913.5999755859375</ele>
        <time>2016-08-12T19:27:36.000Z</time>
        <extensions>
          <ns3:TrackPointExtension>
            <ns3:atemp>15.0</ns3:atemp>
            <ns3:hr>134</ns3:hr>
          </ns3:TrackPointExtension>
        </extensions>
      </trkpt>
      <trkpt lat="-22.04272502101957798004150390625" lon="166.45311235450208187103271484375">
        <ele>913.4000244140625</ele>
        <time>2016-08-12T19:27:37.000Z</time>
        <extensions>
          <ns3:TrackPointExtension>
            <ns3:atemp>15.0</ns3:atemp>
            <ns3:hr>134</ns3:hr>
          </ns3:TrackPointExtension>
        </extensions>
      </trkpt>
      <trkpt lat="-22.042702473700046539306640625" lon="166.453125178813934326171875">
        <ele>913.79998779296875</ele>
        <time>2016-08-12T19:27:38.000Z</time>
        <extensions>
          <ns3:TrackPointExtension>
            <ns3:atemp>15.0</ns3:atemp>
            <ns3:hr>134</ns3:hr>
          </ns3:TrackPointExtension>
        </extensions>
      </trkpt>
      <trkpt lat="-22.04268210567533969879150390625" lon="166.4531417749822139739990234375">
        <ele>914.20001220703125</ele>
        <time>2016-08-12T19:27:39.000Z</time>
        <extensions>
          <ns3:TrackPointExtension>
            <ns3:atemp>15.0</ns3:atemp>
            <ns3:hr>135</ns3:hr>
          </ns3:TrackPointExtension>
        </extensions>
      </trkpt>
      <trkpt lat="-22.0426627434790134429931640625" lon="166.4531560242176055908203125">
        <ele>914</ele>
        <time>2016-08-12T19:27:40.000Z</time>
        <extensions>
          <ns3:TrackPointExtension>
            <ns3:atemp>15.0</ns3:atemp>
            <ns3:hr>134</ns3:hr>
          </ns3:TrackPointExtension>
        </extensions>
      </trkpt>
      <trkpt lat="-22.04264380037784576416015625" lon="166.4531729556620121002197265625">
        <ele>913.79998779296875</ele>
        <time>2016-08-12T19:27:41.000Z</time>
        <extensions>
          <ns3:TrackPointExtension>
            <ns3:atemp>15.0</ns3:atemp>
            <ns3:hr>135</ns3:hr>
          </ns3:TrackPointExtension>
        </extensions>
      </trkpt>
      <trkpt lat="-22.0426230132579803466796875" lon="166.45319114439189434051513671875">
        <ele>914</ele>
        <time>2016-08-12T19:27:42.000Z</time>
        <extensions>
          <ns3:TrackPointExtension>
            <ns3:atemp>15.0</ns3:atemp>
            <ns3:hr>134</ns3:hr>
          </ns3:TrackPointExtension>
        </extensions>
      </trkpt>
      <trkpt lat="-22.04260532744228839874267578125" lon="166.4532098360359668731689453125">
        <ele>913.79998779296875</ele>
        <time>2016-08-12T19:27:43.000Z</time>
        <extensions>
          <ns3:TrackPointExtension>
            <ns3:atemp>15.0</ns3:atemp>
            <ns3:hr>135</ns3:hr>
          </ns3:TrackPointExtension>
        </extensions>
      </trkpt>
      <trkpt lat="-22.04258671961724758148193359375" lon="166.45323137752711772918701171875">
        <ele>913.4000244140625</ele>
        <time>2016-08-12T19:27:44.000Z</time>
        <extensions>
          <ns3:TrackPointExtension>
            <ns3:atemp>15.0</ns3:atemp>
            <ns3:hr>134</ns3:hr>
          </ns3:TrackPointExtension>
        </extensions>
      </trkpt>
      <trkpt lat="-22.04256735742092132568359375" lon="166.4532550983130931854248046875">
        <ele>913.4000244140625</ele>
        <time>2016-08-12T19:27:45.000Z</time>
        <extensions>
          <ns3:TrackPointExtension>
            <ns3:atemp>15.0</ns3:atemp>
            <ns3:hr>134</ns3:hr>
          </ns3:TrackPointExtension>
        </extensions>
      </trkpt>
      <trkpt lat="-22.0425541140139102935791015625" lon="166.45328250713646411895751953125">
        <ele>913.4000244140625</ele>
        <time>2016-08-12T19:27:46.000Z</time>
        <extensions>
          <ns3:TrackPointExtension>
            <ns3:atemp>15.0</ns3:atemp>
            <ns3:hr>134</ns3:hr>
          </ns3:TrackPointExtension>
        </extensions>
      </trkpt>
      <trkpt lat="-22.042535841464996337890625" lon="166.45330430008471012115478515625">
        <ele>913</ele>
        <time>2016-08-12T19:27:47.000Z</time>
        <extensions>
          <ns3:TrackPointExtension>
            <ns3:atemp>15.0</ns3:atemp>
            <ns3:hr>134</ns3:hr>
          </ns3:TrackPointExtension>
        </extensions>
      </trkpt>
      <trkpt lat="-22.0425142161548137664794921875" lon="166.45332307554781436920166015625">
        <ele>912.79998779296875</ele>
        <time>2016-08-12T19:27:48.000Z</time>
        <extensions>
          <ns3:TrackPointExtension>
            <ns3:atemp>15.0</ns3:atemp>
            <ns3:hr>134</ns3:hr>
          </ns3:TrackPointExtension>
        </extensions>
      </trkpt>
      <trkpt lat="-22.04249368049204349517822265625" lon="166.4533442817628383636474609375">
        <ele>913</ele>
        <time>2016-08-12T19:27:49.000Z</time>
        <extensions>
          <ns3:TrackPointExtension>
            <ns3:atemp>15.0</ns3:atemp>
            <ns3:hr>134</ns3:hr>
          </ns3:TrackPointExtension>
        </extensions>
      </trkpt>
      <trkpt lat="-22.04247482120990753173828125" lon="166.45336649380624294281005859375">
        <ele>913</ele>
        <time>2016-08-12T19:27:50.000Z</time>
        <extensions>
          <ns3:TrackPointExtension>
            <ns3:atemp>15.0</ns3:atemp>
            <ns3:hr>134</ns3:hr>
          </ns3:TrackPointExtension>
        </extensions>
      </trkpt>
      <trkpt lat="-22.042455375194549560546875" lon="166.45338728092610836029052734375">
        <ele>912.79998779296875</ele>
        <time>2016-08-12T19:27:51.000Z</time>
        <extensions>
          <ns3:TrackPointExtension>
            <ns3:atemp>15.0</ns3:atemp>
            <ns3:hr>134</ns3:hr>
          </ns3:TrackPointExtension>
        </extensions>
      </trkpt>
      <trkpt lat="-22.042436264455318450927734375" lon="166.453409492969512939453125">
        <ele>912.5999755859375</ele>
        <time>2016-08-12T19:27:52.000Z</time>
        <extensions>
          <ns3:TrackPointExtension>
            <ns3:atemp>15.0</ns3:atemp>
            <ns3:hr>134</ns3:hr>
          </ns3:TrackPointExtension>
        </extensions>
      </trkpt>
      <trkpt lat="-22.04241807572543621063232421875" lon="166.453430615365505218505859375">
        <ele>912.79998779296875</ele>
        <time>2016-08-12T19:27:53.000Z</time>
        <extensions>
          <ns3:TrackPointExtension>
            <ns3:atemp>15.0</ns3:atemp>
            <ns3:hr>134</ns3:hr>
          </ns3:TrackPointExtension>
        </extensions>
      </trkpt>
      <trkpt lat="-22.042399384081363677978515625" lon="166.453454755246639251708984375">
        <ele>913</ele>
        <time>2016-08-12T19:27:54.000Z</time>
        <extensions>
          <ns3:TrackPointExtension>
            <ns3:atemp>15.0</ns3:atemp>
            <ns3:hr>133</ns3:hr>
          </ns3:TrackPointExtension>
        </extensions>
      </trkpt>
      <trkpt lat="-22.0423829555511474609375" lon="166.45348149351775646209716796875">
        <ele>912.79998779296875</ele>
        <time>2016-08-12T19:27:55.000Z</time>
        <extensions>
          <ns3:TrackPointExtension>
            <ns3:atemp>15.0</ns3:atemp>
            <ns3:hr>133</ns3:hr>
          </ns3:TrackPointExtension>
        </extensions>
      </trkpt>
      <trkpt lat="-22.04236761666834354400634765625" lon="166.45350345410406589508056640625">
        <ele>912.4000244140625</ele>
        <time>2016-08-12T19:27:56.000Z</time>
        <extensions>
          <ns3:TrackPointExtension>
            <ns3:atemp>15.0</ns3:atemp>
            <ns3:hr>133</ns3:hr>
          </ns3:TrackPointExtension>
        </extensions>
      </trkpt>
      <trkpt lat="-22.04235135577619075775146484375" lon="166.45352549850940704345703125">
        <ele>912.5999755859375</ele>
        <time>2016-08-12T19:27:57.000Z</time>
        <extensions>
          <ns3:TrackPointExtension>
            <ns3:atemp>15.0</ns3:atemp>
            <ns3:hr>132</ns3:hr>
          </ns3:TrackPointExtension>
        </extensions>
      </trkpt>
      <trkpt lat="-22.0423355139791965484619140625" lon="166.4535462856292724609375">
        <ele>913</ele>
        <time>2016-08-12T19:27:58.000Z</time>
        <extensions>
          <ns3:TrackPointExtension>
            <ns3:atemp>15.0</ns3:atemp>
            <ns3:hr>132</ns3:hr>
          </ns3:TrackPointExtension>
        </extensions>
      </trkpt>
      <trkpt lat="-22.0423200912773609161376953125" lon="166.45356950350105762481689453125">
        <ele>913.20001220703125</ele>
        <time>2016-08-12T19:27:59.000Z</time>
        <extensions>
          <ns3:TrackPointExtension>
            <ns3:atemp>15.0</ns3:atemp>
            <ns3:hr>132</ns3:hr>
          </ns3:TrackPointExtension>
        </extensions>
      </trkpt>
      <trkpt lat="-22.042305171489715576171875" lon="166.45359364338219165802001953125">
        <ele>912.5999755859375</ele>
        <time>2016-08-12T19:28:00.000Z</time>
        <extensions>
          <ns3:TrackPointExtension>
            <ns3:atemp>15.0</ns3:atemp>
            <ns3:hr>132</ns3:hr>
          </ns3:TrackPointExtension>
        </extensions>
      </trkpt>
      <trkpt lat="-22.0422892458736896514892578125" lon="166.4536119997501373291015625">
        <ele>912.4000244140625</ele>
        <time>2016-08-12T19:28:01.000Z</time>
        <extensions>
          <ns3:TrackPointExtension>
            <ns3:atemp>15.0</ns3:atemp>
            <ns3:hr>132</ns3:hr>
          </ns3:TrackPointExtension>
        </extensions>
      </trkpt>
      <trkpt lat="-22.042278349399566650390625" lon="166.45363756455481052398681640625">
        <ele>912.5999755859375</ele>
        <time>2016-08-12T19:28:02.000Z</time>
        <extensions>
          <ns3:TrackPointExtension>
            <ns3:atemp>15.0</ns3:atemp>
            <ns3:hr>132</ns3:hr>
          </ns3:TrackPointExtension>
        </extensions>
      </trkpt>
      <trkpt lat="-22.0422667823731899261474609375" lon="166.4536637999117374420166015625">
        <ele>912.79998779296875</ele>
        <time>2016-08-12T19:28:03.000Z</time>
        <extensions>
          <ns3:TrackPointExtension>
            <ns3:atemp>15.0</ns3:atemp>
            <ns3:hr>131</ns3:hr>
          </ns3:TrackPointExtension>
        </extensions>
      </trkpt>
      <trkpt lat="-22.04225219786167144775390625" lon="166.45368550904095172882080078125">
        <ele>912.5999755859375</ele>
        <time>2016-08-12T19:28:04.000Z</time>
        <extensions>
          <ns3:TrackPointExtension>
            <ns3:atemp>15.0</ns3:atemp>
            <ns3:hr>131</ns3:hr>
          </ns3:TrackPointExtension>
        </extensions>
      </trkpt>
      <trkpt lat="-22.04223878681659698486328125" lon="166.45371182821691036224365234375">
        <ele>912.5999755859375</ele>
        <time>2016-08-12T19:28:05.000Z</time>
        <extensions>
          <ns3:TrackPointExtension>
            <ns3:atemp>15.0</ns3:atemp>
            <ns3:hr>132</ns3:hr>
          </ns3:TrackPointExtension>
        </extensions>
      </trkpt>
      <trkpt lat="-22.04222981818020343780517578125" lon="166.4537365548312664031982421875">
        <ele>913</ele>
        <time>2016-08-12T19:28:06.000Z</time>
        <extensions>
          <ns3:TrackPointExtension>
            <ns3:atemp>15.0</ns3:atemp>
            <ns3:hr>131</ns3:hr>
          </ns3:TrackPointExtension>
        </extensions>
      </trkpt>
      <trkpt lat="-22.04222881235182285308837890625" lon="166.4537653885781764984130859375">
        <ele>913.4000244140625</ele>
        <time>2016-08-12T19:28:07.000Z</time>
        <extensions>
          <ns3:TrackPointExtension>
            <ns3:atemp>15.0</ns3:atemp>
            <ns3:hr>131</ns3:hr>
          </ns3:TrackPointExtension>
        </extensions>
      </trkpt>
      <trkpt lat="-22.0422278903424739837646484375" lon="166.45379380322992801666259765625">
        <ele>913.20001220703125</ele>
        <time>2016-08-12T19:28:08.000Z</time>
        <extensions>
          <ns3:TrackPointExtension>
            <ns3:atemp>15.0</ns3:atemp>
            <ns3:hr>132</ns3:hr>
          </ns3:TrackPointExtension>
        </extensions>
      </trkpt>
      <trkpt lat="-22.04222998581826686859130859375" lon="166.4538200385868549346923828125">
        <ele>913.20001220703125</ele>
        <time>2016-08-12T19:28:09.000Z</time>
        <extensions>
          <ns3:TrackPointExtension>
            <ns3:atemp>15.0</ns3:atemp>
            <ns3:hr>132</ns3:hr>
          </ns3:TrackPointExtension>
        </extensions>
      </trkpt>
      <trkpt lat="-22.04223618842661380767822265625" lon="166.4538485370576381683349609375">
        <ele>913.5999755859375</ele>
        <time>2016-08-12T19:28:10.000Z</time>
        <extensions>
          <ns3:TrackPointExtension>
            <ns3:atemp>15.0</ns3:atemp>
            <ns3:hr>132</ns3:hr>
          </ns3:TrackPointExtension>
        </extensions>
      </trkpt>
      <trkpt lat="-22.04223920591175556182861328125" lon="166.45387846045196056365966796875">
        <ele>913.79998779296875</ele>
        <time>2016-08-12T19:28:11.000Z</time>
        <extensions>
          <ns3:TrackPointExtension>
            <ns3:atemp>15.0</ns3:atemp>
            <ns3:hr>132</ns3:hr>
          </ns3:TrackPointExtension>
        </extensions>
      </trkpt>
      <trkpt lat="-22.04224021174013614654541015625" lon="166.45390813238918781280517578125">
        <ele>913.79998779296875</ele>
        <time>2016-08-12T19:28:12.000Z</time>
        <extensions>
          <ns3:TrackPointExtension>
            <ns3:atemp>15.0</ns3:atemp>
            <ns3:hr>132</ns3:hr>
          </ns3:TrackPointExtension>
        </extensions>
      </trkpt>
      <trkpt lat="-22.0422394573688507080078125" lon="166.45393746905028820037841796875">
        <ele>914</ele>
        <time>2016-08-12T19:28:13.000Z</time>
        <extensions>
          <ns3:TrackPointExtension>
            <ns3:atemp>15.0</ns3:atemp>
            <ns3:hr>132</ns3:hr>
          </ns3:TrackPointExtension>
        </extensions>
      </trkpt>
      <trkpt lat="-22.04223350621759891510009765625" lon="166.453960351645946502685546875">
        <ele>914.20001220703125</ele>
        <time>2016-08-12T19:28:14.000Z</time>
        <extensions>
          <ns3:TrackPointExtension>
            <ns3:atemp>15.0</ns3:atemp>
            <ns3:hr>132</ns3:hr>
          </ns3:TrackPointExtension>
        </extensions>
      </trkpt>
      <trkpt lat="-22.0422208495438098907470703125" lon="166.45398013293743133544921875">
        <ele>914.20001220703125</ele>
        <time>2016-08-12T19:28:15.000Z</time>
        <extensions>
          <ns3:TrackPointExtension>
            <ns3:atemp>15.0</ns3:atemp>
            <ns3:hr>133</ns3:hr>
          </ns3:TrackPointExtension>
        </extensions>
      </trkpt>
      <trkpt lat="-22.042205594480037689208984375" lon="166.45399731583893299102783203125">
        <ele>913.79998779296875</ele>
        <time>2016-08-12T19:28:16.000Z</time>
        <extensions>
          <ns3:TrackPointExtension>
            <ns3:atemp>15.0</ns3:atemp>
            <ns3:hr>133</ns3:hr>
          </ns3:TrackPointExtension>
        </extensions>
      </trkpt>
      <trkpt lat="-22.0421884953975677490234375" lon="166.45400787703692913055419921875">
        <ele>913.79998779296875</ele>
        <time>2016-08-12T19:28:17.000Z</time>
        <extensions>
          <ns3:TrackPointExtension>
            <ns3:atemp>15.0</ns3:atemp>
            <ns3:hr>133</ns3:hr>
          </ns3:TrackPointExtension>
        </extensions>
      </trkpt>
      <trkpt lat="-22.04216628335416316986083984375" lon="166.45401994697749614715576171875">
        <ele>914.4000244140625</ele>
        <time>2016-08-12T19:28:18.000Z</time>
        <extensions>
          <ns3:TrackPointExtension>
            <ns3:atemp>15.0</ns3:atemp>
            <ns3:hr>134</ns3:hr>
          </ns3:TrackPointExtension>
        </extensions>
      </trkpt>
      <trkpt lat="-22.04214490950107574462890625" lon="166.45403034053742885589599609375">
        <ele>914.5999755859375</ele>
        <time>2016-08-12T19:28:19.000Z</time>
        <extensions>
          <ns3:TrackPointExtension>
            <ns3:atemp>15.0</ns3:atemp>
            <ns3:hr>134</ns3:hr>
          </ns3:TrackPointExtension>
        </extensions>
      </trkpt>
      <trkpt lat="-22.04212252981960773468017578125" lon="166.454044170677661895751953125">
        <ele>914.4000244140625</ele>
        <time>2016-08-12T19:28:20.000Z</time>
        <extensions>
          <ns3:TrackPointExtension>
            <ns3:atemp>15.0</ns3:atemp>
            <ns3:hr>134</ns3:hr>
          </ns3:TrackPointExtension>
        </extensions>
      </trkpt>
      <trkpt lat="-22.04210174269974231719970703125" lon="166.45405682735145092010498046875">
        <ele>914.20001220703125</ele>
        <time>2016-08-12T19:28:21.000Z</time>
        <extensions>
          <ns3:TrackPointExtension>
            <ns3:atemp>15.0</ns3:atemp>
            <ns3:hr>134</ns3:hr>
          </ns3:TrackPointExtension>
        </extensions>
      </trkpt>
      <trkpt lat="-22.04208321869373321533203125" lon="166.45407057367265224456787109375">
        <ele>914.20001220703125</ele>
        <time>2016-08-12T19:28:22.000Z</time>
        <extensions>
          <ns3:TrackPointExtension>
            <ns3:atemp>15.0</ns3:atemp>
            <ns3:hr>135</ns3:hr>
          </ns3:TrackPointExtension>
        </extensions>
      </trkpt>
      <trkpt lat="-22.042063437402248382568359375" lon="166.4540869183838367462158203125">
        <ele>914.79998779296875</ele>
        <time>2016-08-12T19:28:23.000Z</time>
        <extensions>
          <ns3:TrackPointExtension>
            <ns3:atemp>15.0</ns3:atemp>
            <ns3:hr>135</ns3:hr>
          </ns3:TrackPointExtension>
        </extensions>
      </trkpt>
      <trkpt lat="-22.04204524867236614227294921875" lon="166.45410326309502124786376953125">
        <ele>915.20001220703125</ele>
        <time>2016-08-12T19:28:24.000Z</time>
        <extensions>
          <ns3:TrackPointExtension>
            <ns3:atemp>15.0</ns3:atemp>
            <ns3:hr>135</ns3:hr>
          </ns3:TrackPointExtension>
        </extensions>
      </trkpt>
      <trkpt lat="-22.04202546738088130950927734375" lon="166.45412094891071319580078125">
        <ele>914.5999755859375</ele>
        <time>2016-08-12T19:28:25.000Z</time>
        <extensions>
          <ns3:TrackPointExtension>
            <ns3:atemp>15.0</ns3:atemp>
            <ns3:hr>135</ns3:hr>
          </ns3:TrackPointExtension>
        </extensions>
      </trkpt>
      <trkpt lat="-22.0420045964419841766357421875" lon="166.4541395567357540130615234375">
        <ele>914.20001220703125</ele>
        <time>2016-08-12T19:28:26.000Z</time>
        <extensions>
          <ns3:TrackPointExtension>
            <ns3:atemp>15.0</ns3:atemp>
            <ns3:hr>135</ns3:hr>
          </ns3:TrackPointExtension>
        </extensions>
      </trkpt>
      <trkpt lat="-22.0419844798743724822998046875" lon="166.4541586674749851226806640625">
        <ele>914.20001220703125</ele>
        <time>2016-08-12T19:28:27.000Z</time>
        <extensions>
          <ns3:TrackPointExtension>
            <ns3:atemp>15.0</ns3:atemp>
            <ns3:hr>135</ns3:hr>
          </ns3:TrackPointExtension>
        </extensions>
      </trkpt>
      <trkpt lat="-22.04196461476385593414306640625" lon="166.4541797898709774017333984375">
        <ele>914.4000244140625</ele>
        <time>2016-08-12T19:28:28.000Z</time>
        <extensions>
          <ns3:TrackPointExtension>
            <ns3:atemp>15.0</ns3:atemp>
            <ns3:hr>135</ns3:hr>
          </ns3:TrackPointExtension>
        </extensions>
      </trkpt>
      <trkpt lat="-22.0419502817094326019287109375" lon="166.454203426837921142578125">
        <ele>914</ele>
        <time>2016-08-12T19:28:29.000Z</time>
        <extensions>
          <ns3:TrackPointExtension>
            <ns3:atemp>15.0</ns3:atemp>
            <ns3:hr>135</ns3:hr>
          </ns3:TrackPointExtension>
        </extensions>
      </trkpt>
      <trkpt lat="-22.041940726339817047119140625" lon="166.45422756671905517578125">
        <ele>913.79998779296875</ele>
        <time>2016-08-12T19:28:30.000Z</time>
        <extensions>
          <ns3:TrackPointExtension>
            <ns3:atemp>15.0</ns3:atemp>
            <ns3:hr>135</ns3:hr>
          </ns3:TrackPointExtension>
        </extensions>
      </trkpt>
      <trkpt lat="-22.0419365353882312774658203125" lon="166.45425246097147464752197265625">
        <ele>913.79998779296875</ele>
        <time>2016-08-12T19:28:31.000Z</time>
        <extensions>
          <ns3:TrackPointExtension>
            <ns3:atemp>15.0</ns3:atemp>
            <ns3:hr>135</ns3:hr>
          </ns3:TrackPointExtension>
        </extensions>
      </trkpt>
      <trkpt lat="-22.04193226061761379241943359375" lon="166.4542776905000209808349609375">
        <ele>914</ele>
        <time>2016-08-12T19:28:32.000Z</time>
        <extensions>
          <ns3:TrackPointExtension>
            <ns3:atemp>15.0</ns3:atemp>
            <ns3:hr>135</ns3:hr>
          </ns3:TrackPointExtension>
        </extensions>
      </trkpt>
      <trkpt lat="-22.04192639328539371490478515625" lon="166.45430576987564563751220703125">
        <ele>913.79998779296875</ele>
        <time>2016-08-12T19:28:33.000Z</time>
        <extensions>
          <ns3:TrackPointExtension>
            <ns3:atemp>15.0</ns3:atemp>
            <ns3:hr>135</ns3:hr>
          </ns3:TrackPointExtension>
        </extensions>
      </trkpt>
      <trkpt lat="-22.04192270524799823760986328125" lon="166.4543336816132068634033203125">
        <ele>913.4000244140625</ele>
        <time>2016-08-12T19:28:34.000Z</time>
        <extensions>
          <ns3:TrackPointExtension>
            <ns3:atemp>15.0</ns3:atemp>
            <ns3:hr>135</ns3:hr>
          </ns3:TrackPointExtension>
        </extensions>
      </trkpt>
      <trkpt lat="-22.0419207774102687835693359375" lon="166.454364359378814697265625">
        <ele>913.5999755859375</ele>
        <time>2016-08-12T19:28:35.000Z</time>
        <extensions>
          <ns3:TrackPointExtension>
            <ns3:atemp>15.0</ns3:atemp>
            <ns3:hr>135</ns3:hr>
          </ns3:TrackPointExtension>
        </extensions>
      </trkpt>
      <trkpt lat="-22.0419177599251270294189453125" lon="166.4543953724205493927001953125">
        <ele>914</ele>
        <time>2016-08-12T19:28:36.000Z</time>
        <extensions>
          <ns3:TrackPointExtension>
            <ns3:atemp>15.0</ns3:atemp>
            <ns3:hr>135</ns3:hr>
          </ns3:TrackPointExtension>
        </extensions>
      </trkpt>
      <trkpt lat="-22.041914574801921844482421875" lon="166.45442127250134944915771484375">
        <ele>913.5999755859375</ele>
        <time>2016-08-12T19:28:37.000Z</time>
        <extensions>
          <ns3:TrackPointExtension>
            <ns3:atemp>15.0</ns3:atemp>
            <ns3:hr>135</ns3:hr>
          </ns3:TrackPointExtension>
        </extensions>
      </trkpt>
      <trkpt lat="-22.04191046766936779022216796875" lon="166.45444977097213268280029296875">
        <ele>913.4000244140625</ele>
        <time>2016-08-12T19:28:38.000Z</time>
        <extensions>
          <ns3:TrackPointExtension>
            <ns3:atemp>15.0</ns3:atemp>
            <ns3:hr>135</ns3:hr>
          </ns3:TrackPointExtension>
        </extensions>
      </trkpt>
      <trkpt lat="-22.04190644435584545135498046875" lon="166.45447927527129650115966796875">
        <ele>913.20001220703125</ele>
        <time>2016-08-12T19:28:39.000Z</time>
        <extensions>
          <ns3:TrackPointExtension>
            <ns3:atemp>15.0</ns3:atemp>
            <ns3:hr>134</ns3:hr>
          </ns3:TrackPointExtension>
        </extensions>
      </trkpt>
      <trkpt lat="-22.04190460033714771270751953125" lon="166.45451028831303119659423828125">
        <ele>913.4000244140625</ele>
        <time>2016-08-12T19:28:40.000Z</time>
        <extensions>
          <ns3:TrackPointExtension>
            <ns3:atemp>15.0</ns3:atemp>
            <ns3:hr>134</ns3:hr>
          </ns3:TrackPointExtension>
        </extensions>
      </trkpt>
      <trkpt lat="-22.041908539831638336181640625" lon="166.4545442350208759307861328125">
        <ele>913</ele>
        <time>2016-08-12T19:28:41.000Z</time>
        <extensions>
          <ns3:TrackPointExtension>
            <ns3:atemp>15.0</ns3:atemp>
            <ns3:hr>134</ns3:hr>
          </ns3:TrackPointExtension>
        </extensions>
      </trkpt>
      <trkpt lat="-22.0419117249548435211181640625" lon="166.45457415841519832611083984375">
        <ele>912.5999755859375</ele>
        <time>2016-08-12T19:28:42.000Z</time>
        <extensions>
          <ns3:TrackPointExtension>
            <ns3:atemp>15.0</ns3:atemp>
            <ns3:hr>135</ns3:hr>
          </ns3:TrackPointExtension>
        </extensions>
      </trkpt>
      <trkpt lat="-22.04191516153514385223388671875" lon="166.45460550673305988311767578125">
        <ele>912.4000244140625</ele>
        <time>2016-08-12T19:28:43.000Z</time>
        <extensions>
          <ns3:TrackPointExtension>
            <ns3:atemp>15.0</ns3:atemp>
            <ns3:hr>134</ns3:hr>
          </ns3:TrackPointExtension>
        </extensions>
      </trkpt>
      <trkpt lat="-22.0419184304773807525634765625" lon="166.45463325083255767822265625">
        <ele>912.5999755859375</ele>
        <time>2016-08-12T19:28:44.000Z</time>
        <extensions>
          <ns3:TrackPointExtension>
            <ns3:atemp>15.0</ns3:atemp>
            <ns3:hr>134</ns3:hr>
          </ns3:TrackPointExtension>
        </extensions>
      </trkpt>
      <trkpt lat="-22.04192035831511020660400390625" lon="166.45466166548430919647216796875">
        <ele>912.79998779296875</ele>
        <time>2016-08-12T19:28:45.000Z</time>
        <extensions>
          <ns3:TrackPointExtension>
            <ns3:atemp>15.0</ns3:atemp>
            <ns3:hr>134</ns3:hr>
          </ns3:TrackPointExtension>
        </extensions>
      </trkpt>
      <trkpt lat="-22.0419227890670299530029296875" lon="166.4546890743076801300048828125">
        <ele>912.4000244140625</ele>
        <time>2016-08-12T19:28:46.000Z</time>
        <extensions>
          <ns3:TrackPointExtension>
            <ns3:atemp>15.0</ns3:atemp>
            <ns3:hr>134</ns3:hr>
          </ns3:TrackPointExtension>
        </extensions>
      </trkpt>
      <trkpt lat="-22.04192622564733028411865234375" lon="166.45471883006393909454345703125">
        <ele>912.20001220703125</ele>
        <time>2016-08-12T19:28:47.000Z</time>
        <extensions>
          <ns3:TrackPointExtension>
            <ns3:atemp>15.0</ns3:atemp>
            <ns3:hr>134</ns3:hr>
          </ns3:TrackPointExtension>
        </extensions>
      </trkpt>
      <trkpt lat="-22.0419315062463283538818359375" lon="166.45474992692470550537109375">
        <ele>912.4000244140625</ele>
        <time>2016-08-12T19:28:48.000Z</time>
        <extensions>
          <ns3:TrackPointExtension>
            <ns3:atemp>15.0</ns3:atemp>
            <ns3:hr>134</ns3:hr>
          </ns3:TrackPointExtension>
        </extensions>
      </trkpt>
      <trkpt lat="-22.041940055787563323974609375" lon="166.45477272570133209228515625">
        <ele>912.79998779296875</ele>
        <time>2016-08-12T19:28:49.000Z</time>
        <extensions>
          <ns3:TrackPointExtension>
            <ns3:atemp>15.0</ns3:atemp>
            <ns3:hr>133</ns3:hr>
          </ns3:TrackPointExtension>
        </extensions>
      </trkpt>
      <trkpt lat="-22.04194935970008373260498046875" lon="166.45479979924857616424560546875">
        <ele>912.4000244140625</ele>
        <time>2016-08-12T19:28:50.000Z</time>
        <extensions>
          <ns3:TrackPointExtension>
            <ns3:atemp>15.0</ns3:atemp>
            <ns3:hr>133</ns3:hr>
          </ns3:TrackPointExtension>
        </extensions>
      </trkpt>
      <trkpt lat="-22.04196008853614330291748046875" lon="166.45482913590967655181884765625">
        <ele>912.20001220703125</ele>
        <time>2016-08-12T19:28:51.000Z</time>
        <extensions>
          <ns3:TrackPointExtension>
            <ns3:atemp>15.0</ns3:atemp>
            <ns3:hr>133</ns3:hr>
          </ns3:TrackPointExtension>
        </extensions>
      </trkpt>
      <trkpt lat="-22.041967548429965972900390625" lon="166.4548567123711109161376953125">
        <ele>912</ele>
        <time>2016-08-12T19:28:52.000Z</time>
        <extensions>
          <ns3:TrackPointExtension>
            <ns3:atemp>15.0</ns3:atemp>
            <ns3:hr>133</ns3:hr>
          </ns3:TrackPointExtension>
        </extensions>
      </trkpt>
      <trkpt lat="-22.041970901191234588623046875" lon="166.45488663576543331146240234375">
        <ele>912.4000244140625</ele>
        <time>2016-08-12T19:28:53.000Z</time>
        <extensions>
          <ns3:TrackPointExtension>
            <ns3:atemp>15.0</ns3:atemp>
            <ns3:hr>133</ns3:hr>
          </ns3:TrackPointExtension>
        </extensions>
      </trkpt>
      <trkpt lat="-22.041971571743488311767578125" lon="166.45490960218012332916259765625">
        <ele>912.79998779296875</ele>
        <time>2016-08-12T19:28:54.000Z</time>
        <extensions>
          <ns3:TrackPointExtension>
            <ns3:atemp>15.0</ns3:atemp>
            <ns3:hr>133</ns3:hr>
          </ns3:TrackPointExtension>
        </extensions>
      </trkpt>
      <trkpt lat="-22.04196578823029994964599609375" lon="166.454935334622859954833984375">
        <ele>912.4000244140625</ele>
        <time>2016-08-12T19:28:55.000Z</time>
        <extensions>
          <ns3:TrackPointExtension>
            <ns3:atemp>15.0</ns3:atemp>
            <ns3:hr>133</ns3:hr>
          </ns3:TrackPointExtension>
        </extensions>
      </trkpt>
      <trkpt lat="-22.04195472411811351776123046875" lon="166.45495821721851825714111328125">
        <ele>912</ele>
        <time>2016-08-12T19:28:56.000Z</time>
        <extensions>
          <ns3:TrackPointExtension>
            <ns3:atemp>15.0</ns3:atemp>
            <ns3:hr>133</ns3:hr>
          </ns3:TrackPointExtension>
        </extensions>
      </trkpt>
      <trkpt lat="-22.041941396892070770263671875" lon="166.45497665740549564361572265625">
        <ele>912</ele>
        <time>2016-08-12T19:28:57.000Z</time>
        <extensions>
          <ns3:TrackPointExtension>
            <ns3:atemp>15.0</ns3:atemp>
            <ns3:hr>133</ns3:hr>
          </ns3:TrackPointExtension>
        </extensions>
      </trkpt>
      <trkpt lat="-22.0419234596192836761474609375" lon="166.45499476231634616851806640625">
        <ele>912.5999755859375</ele>
        <time>2016-08-12T19:28:58.000Z</time>
        <extensions>
          <ns3:TrackPointExtension>
            <ns3:atemp>15.0</ns3:atemp>
            <ns3:hr>132</ns3:hr>
          </ns3:TrackPointExtension>
        </extensions>
      </trkpt>
      <trkpt lat="-22.0419066958129405975341796875" lon="166.4550119452178478240966796875">
        <ele>912.5999755859375</ele>
        <time>2016-08-12T19:28:59.000Z</time>
        <extensions>
          <ns3:TrackPointExtension>
            <ns3:atemp>15.0</ns3:atemp>
            <ns3:hr>132</ns3:hr>
          </ns3:TrackPointExtension>
        </extensions>
      </trkpt>
      <trkpt lat="-22.041890434920787811279296875" lon="166.45503097213804721832275390625">
        <ele>912.4000244140625</ele>
        <time>2016-08-12T19:29:00.000Z</time>
        <extensions>
          <ns3:TrackPointExtension>
            <ns3:atemp>15.0</ns3:atemp>
            <ns3:hr>132</ns3:hr>
          </ns3:TrackPointExtension>
        </extensions>
      </trkpt>
      <trkpt lat="-22.04187241382896900177001953125" lon="166.455052010715007781982421875">
        <ele>912.20001220703125</ele>
        <time>2016-08-12T19:29:01.000Z</time>
        <extensions>
          <ns3:TrackPointExtension>
            <ns3:atemp>15.0</ns3:atemp>
            <ns3:hr>133</ns3:hr>
          </ns3:TrackPointExtension>
        </extensions>
      </trkpt>
      <trkpt lat="-22.04185648821294307708740234375" lon="166.45507086999714374542236328125">
        <ele>912.4000244140625</ele>
        <time>2016-08-12T19:29:02.000Z</time>
        <extensions>
          <ns3:TrackPointExtension>
            <ns3:atemp>15.0</ns3:atemp>
            <ns3:hr>133</ns3:hr>
          </ns3:TrackPointExtension>
        </extensions>
      </trkpt>
      <trkpt lat="-22.04184114933013916015625" lon="166.45509048365056514739990234375">
        <ele>912.5999755859375</ele>
        <time>2016-08-12T19:29:03.000Z</time>
        <extensions>
          <ns3:TrackPointExtension>
            <ns3:atemp>15.0</ns3:atemp>
            <ns3:hr>133</ns3:hr>
          </ns3:TrackPointExtension>
        </extensions>
      </trkpt>
      <trkpt lat="-22.0418275706470012664794921875" lon="166.4551088400185108184814453125">
        <ele>912.20001220703125</ele>
        <time>2016-08-12T19:29:04.000Z</time>
        <extensions>
          <ns3:TrackPointExtension>
            <ns3:atemp>15.0</ns3:atemp>
            <ns3:hr>133</ns3:hr>
          </ns3:TrackPointExtension>
        </extensions>
      </trkpt>
      <trkpt lat="-22.04181365668773651123046875" lon="166.4551276154816150665283203125">
        <ele>911.79998779296875</ele>
        <time>2016-08-12T19:29:05.000Z</time>
        <extensions>
          <ns3:TrackPointExtension>
            <ns3:atemp>15.0</ns3:atemp>
            <ns3:hr>133</ns3:hr>
          </ns3:TrackPointExtension>
        </extensions>
      </trkpt>
      <trkpt lat="-22.04179831780493259429931640625" lon="166.45514848642051219940185546875">
        <ele>912</ele>
        <time>2016-08-12T19:29:06.000Z</time>
        <extensions>
          <ns3:TrackPointExtension>
            <ns3:atemp>15.0</ns3:atemp>
            <ns3:hr>133</ns3:hr>
          </ns3:TrackPointExtension>
        </extensions>
      </trkpt>
      <trkpt lat="-22.04178423620760440826416015625" lon="166.45517396740615367889404296875">
        <ele>912.20001220703125</ele>
        <time>2016-08-12T19:29:07.000Z</time>
        <extensions>
          <ns3:TrackPointExtension>
            <ns3:atemp>15.0</ns3:atemp>
            <ns3:hr>132</ns3:hr>
          </ns3:TrackPointExtension>
        </extensions>
      </trkpt>
      <trkpt lat="-22.0417699031531810760498046875" lon="166.45519928075373172760009765625">
        <ele>912.20001220703125</ele>
        <time>2016-08-12T19:29:08.000Z</time>
        <extensions>
          <ns3:TrackPointExtension>
            <ns3:atemp>15.0</ns3:atemp>
            <ns3:hr>133</ns3:hr>
          </ns3:TrackPointExtension>
        </extensions>
      </trkpt>
      <trkpt lat="-22.04175598919391632080078125" lon="166.45522090606391429901123046875">
        <ele>911.79998779296875</ele>
        <time>2016-08-12T19:29:09.000Z</time>
        <extensions>
          <ns3:TrackPointExtension>
            <ns3:atemp>15.0</ns3:atemp>
            <ns3:hr>133</ns3:hr>
          </ns3:TrackPointExtension>
        </extensions>
      </trkpt>
      <trkpt lat="-22.0417410694062709808349609375" lon="166.45524336956441402435302734375">
        <ele>911.5999755859375</ele>
        <time>2016-08-12T19:29:10.000Z</time>
        <extensions>
          <ns3:TrackPointExtension>
            <ns3:atemp>15.0</ns3:atemp>
            <ns3:hr>133</ns3:hr>
          </ns3:TrackPointExtension>
        </extensions>
      </trkpt>
      <trkpt lat="-22.04172908328473567962646484375" lon="166.4552667550742626190185546875">
        <ele>911.79998779296875</ele>
        <time>2016-08-12T19:29:11.000Z</time>
        <extensions>
          <ns3:TrackPointExtension>
            <ns3:atemp>15.0</ns3:atemp>
            <ns3:hr>133</ns3:hr>
          </ns3:TrackPointExtension>
        </extensions>
      </trkpt>
      <trkpt lat="-22.041719444096088409423828125" lon="166.4552910625934600830078125">
        <ele>912.20001220703125</ele>
        <time>2016-08-12T19:29:12.000Z</time>
        <extensions>
          <ns3:TrackPointExtension>
            <ns3:atemp>15.0</ns3:atemp>
            <ns3:hr>132</ns3:hr>
          </ns3:TrackPointExtension>
        </extensions>
      </trkpt>
      <trkpt lat="-22.0417122356593608856201171875" lon="166.45531813614070415496826171875">
        <ele>912.4000244140625</ele>
        <time>2016-08-12T19:29:13.000Z</time>
        <extensions>
          <ns3:TrackPointExtension>
            <ns3:atemp>15.0</ns3:atemp>
            <ns3:hr>133</ns3:hr>
          </ns3:TrackPointExtension>
        </extensions>
      </trkpt>
      <trkpt lat="-22.04170611687004566192626953125" lon="166.4553472213447093963623046875">
        <ele>911.79998779296875</ele>
        <time>2016-08-12T19:29:14.000Z</time>
        <extensions>
          <ns3:TrackPointExtension>
            <ns3:atemp>15.0</ns3:atemp>
            <ns3:hr>133</ns3:hr>
          </ns3:TrackPointExtension>
        </extensions>
      </trkpt>
      <trkpt lat="-22.04169773496687412261962890625" lon="166.45537680946290493011474609375">
        <ele>911.4000244140625</ele>
        <time>2016-08-12T19:29:15.000Z</time>
        <extensions>
          <ns3:TrackPointExtension>
            <ns3:atemp>15.0</ns3:atemp>
            <ns3:hr>132</ns3:hr>
          </ns3:TrackPointExtension>
        </extensions>
      </trkpt>
      <trkpt lat="-22.041688598692417144775390625" lon="166.455405391752719879150390625">
        <ele>911.79998779296875</ele>
        <time>2016-08-12T19:29:16.000Z</time>
        <extensions>
          <ns3:TrackPointExtension>
            <ns3:atemp>15.0</ns3:atemp>
            <ns3:hr>132</ns3:hr>
          </ns3:TrackPointExtension>
        </extensions>
      </trkpt>
      <trkpt lat="-22.04168164171278476715087890625" lon="166.455437242984771728515625">
        <ele>912</ele>
        <time>2016-08-12T19:29:17.000Z</time>
        <extensions>
          <ns3:TrackPointExtension>
            <ns3:atemp>15.0</ns3:atemp>
            <ns3:hr>132</ns3:hr>
          </ns3:TrackPointExtension>
        </extensions>
      </trkpt>
      <trkpt lat="-22.04167661257088184356689453125" lon="166.4554672501981258392333984375">
        <ele>911.5999755859375</ele>
        <time>2016-08-12T19:29:18.000Z</time>
        <extensions>
          <ns3:TrackPointExtension>
            <ns3:atemp>15.0</ns3:atemp>
            <ns3:hr>133</ns3:hr>
          </ns3:TrackPointExtension>
        </extensions>
      </trkpt>
      <trkpt lat="-22.04167594201862812042236328125" lon="166.45549700595438480377197265625">
        <ele>911.4000244140625</ele>
        <time>2016-08-12T19:29:19.000Z</time>
        <extensions>
          <ns3:TrackPointExtension>
            <ns3:atemp>15.0</ns3:atemp>
            <ns3:hr>133</ns3:hr>
          </ns3:TrackPointExtension>
        </extensions>
      </trkpt>
      <trkpt lat="-22.04167627729475498199462890625" lon="166.45553179085254669189453125">
        <ele>911.4000244140625</ele>
        <time>2016-08-12T19:29:20.000Z</time>
        <extensions>
          <ns3:TrackPointExtension>
            <ns3:atemp>15.0</ns3:atemp>
            <ns3:hr>132</ns3:hr>
          </ns3:TrackPointExtension>
        </extensions>
      </trkpt>
      <trkpt lat="-22.041677199304103851318359375" lon="166.45556272007524967193603515625">
        <ele>911.5999755859375</ele>
        <time>2016-08-12T19:29:21.000Z</time>
        <extensions>
          <ns3:TrackPointExtension>
            <ns3:atemp>15.0</ns3:atemp>
            <ns3:hr>132</ns3:hr>
          </ns3:TrackPointExtension>
        </extensions>
      </trkpt>
      <trkpt lat="-22.041683234274387359619140625" lon="166.4555929787456989288330078125">
        <ele>911.79998779296875</ele>
        <time>2016-08-12T19:29:22.000Z</time>
        <extensions>
          <ns3:TrackPointExtension>
            <ns3:atemp>15.0</ns3:atemp>
            <ns3:hr>132</ns3:hr>
          </ns3:TrackPointExtension>
        </extensions>
      </trkpt>
      <trkpt lat="-22.0416884310543537139892578125" lon="166.455619968473911285400390625">
        <ele>911.5999755859375</ele>
        <time>2016-08-12T19:29:23.000Z</time>
        <extensions>
          <ns3:TrackPointExtension>
            <ns3:atemp>15.0</ns3:atemp>
            <ns3:hr>132</ns3:hr>
          </ns3:TrackPointExtension>
        </extensions>
      </trkpt>
      <trkpt lat="-22.04168901778757572174072265625" lon="166.45564989186823368072509765625">
        <ele>911.4000244140625</ele>
        <time>2016-08-12T19:29:24.000Z</time>
        <extensions>
          <ns3:TrackPointExtension>
            <ns3:atemp>15.0</ns3:atemp>
            <ns3:hr>133</ns3:hr>
          </ns3:TrackPointExtension>
        </extensions>
      </trkpt>
      <trkpt lat="-22.041686587035655975341796875" lon="166.45568073727190494537353515625">
        <ele>911.5999755859375</ele>
        <time>2016-08-12T19:29:25.000Z</time>
        <extensions>
          <ns3:TrackPointExtension>
            <ns3:atemp>15.0</ns3:atemp>
            <ns3:hr>132</ns3:hr>
          </ns3:TrackPointExtension>
        </extensions>
      </trkpt>
      <trkpt lat="-22.04167979769408702850341796875" lon="166.45570504479110240936279296875">
        <ele>911.5999755859375</ele>
        <time>2016-08-12T19:29:26.000Z</time>
        <extensions>
          <ns3:TrackPointExtension>
            <ns3:atemp>15.0</ns3:atemp>
            <ns3:hr>132</ns3:hr>
          </ns3:TrackPointExtension>
        </extensions>
      </trkpt>
      <trkpt lat="-22.04166504554450511932373046875" lon="166.45572482608258724212646484375">
        <ele>911.20001220703125</ele>
        <time>2016-08-12T19:29:27.000Z</time>
        <extensions>
          <ns3:TrackPointExtension>
            <ns3:atemp>15.0</ns3:atemp>
            <ns3:hr>132</ns3:hr>
          </ns3:TrackPointExtension>
        </extensions>
      </trkpt>
      <trkpt lat="-22.0416431687772274017333984375" lon="166.45573941059410572052001953125">
        <ele>911</ele>
        <time>2016-08-12T19:29:28.000Z</time>
        <extensions>
          <ns3:TrackPointExtension>
            <ns3:atemp>15.0</ns3:atemp>
            <ns3:hr>132</ns3:hr>
          </ns3:TrackPointExtension>
        </extensions>
      </trkpt>
      <trkpt lat="-22.0416250638663768768310546875" lon="166.4557441882789134979248046875">
        <ele>911</ele>
        <time>2016-08-12T19:29:29.000Z</time>
        <extensions>
          <ns3:TrackPointExtension>
            <ns3:atemp>15.0</ns3:atemp>
            <ns3:hr>132</ns3:hr>
          </ns3:TrackPointExtension>
        </extensions>
      </trkpt>
      <trkpt lat="-22.04160301946103572845458984375" lon="166.455745361745357513427734375">
        <ele>911.4000244140625</ele>
        <time>2016-08-12T19:29:30.000Z</time>
        <extensions>
          <ns3:TrackPointExtension>
            <ns3:atemp>15.0</ns3:atemp>
            <ns3:hr>132</ns3:hr>
          </ns3:TrackPointExtension>
        </extensions>
      </trkpt>
      <trkpt lat="-22.0415814779698848724365234375" lon="166.45573941059410572052001953125">
        <ele>911.5999755859375</ele>
        <time>2016-08-12T19:29:31.000Z</time>
        <extensions>
          <ns3:TrackPointExtension>
            <ns3:atemp>15.0</ns3:atemp>
            <ns3:hr>132</ns3:hr>
          </ns3:TrackPointExtension>
        </extensions>
      </trkpt>
      <trkpt lat="-22.04155993647873401641845703125" lon="166.45572868175804615020751953125">
        <ele>911.5999755859375</ele>
        <time>2016-08-12T19:29:32.000Z</time>
        <extensions>
          <ns3:TrackPointExtension>
            <ns3:atemp>15.0</ns3:atemp>
            <ns3:hr>132</ns3:hr>
          </ns3:TrackPointExtension>
        </extensions>
      </trkpt>
      <trkpt lat="-22.04153764061629772186279296875" lon="166.45571996457874774932861328125">
        <ele>911.4000244140625</ele>
        <time>2016-08-12T19:29:33.000Z</time>
        <extensions>
          <ns3:TrackPointExtension>
            <ns3:atemp>15.0</ns3:atemp>
            <ns3:hr>133</ns3:hr>
          </ns3:TrackPointExtension>
        </extensions>
      </trkpt>
      <trkpt lat="-22.041372098028659820556640625" lon="166.45559616386890411376953125">
        <ele>912.20001220703125</ele>
        <time>2016-08-12T19:29:41.000Z</time>
        <extensions>
          <ns3:TrackPointExtension>
            <ns3:atemp>15.0</ns3:atemp>
          </ns3:TrackPointExtension>
        </extensions>
      </trkpt>
      <trkpt lat="-22.04131099395453929901123046875" lon="166.455542854964733123779296875">
        <ele>912.79998779296875</ele>
        <time>2016-08-12T19:29:44.000Z</time>
        <extensions>
          <ns3:TrackPointExtension>
            <ns3:atemp>15.0</ns3:atemp>
            <ns3:hr>136</ns3:hr>
          </ns3:TrackPointExtension>
        </extensions>
      </trkpt>
      <trkpt lat="-22.04112290404736995697021484375" lon="166.45544168539345264434814453125">
        <ele>913.4000244140625</ele>
        <time>2016-08-12T19:29:52.000Z</time>
        <extensions>
          <ns3:TrackPointExtension>
            <ns3:atemp>15.0</ns3:atemp>
            <ns3:hr>137</ns3:hr>
          </ns3:TrackPointExtension>
        </extensions>
      </trkpt>
      <trkpt lat="-22.0410983450710773468017578125" lon="166.45543749444186687469482421875">
        <ele>913.79998779296875</ele>
        <time>2016-08-12T19:29:53.000Z</time>
        <extensions>
          <ns3:TrackPointExtension>
            <ns3:atemp>15.0</ns3:atemp>
            <ns3:hr>137</ns3:hr>
          </ns3:TrackPointExtension>
        </extensions>
      </trkpt>
      <trkpt lat="-22.04107311554253101348876953125" lon="166.4554377458989620208740234375">
        <ele>913.5999755859375</ele>
        <time>2016-08-12T19:29:54.000Z</time>
        <extensions>
          <ns3:TrackPointExtension>
            <ns3:atemp>15.0</ns3:atemp>
            <ns3:hr>137</ns3:hr>
          </ns3:TrackPointExtension>
        </extensions>
      </trkpt>
      <trkpt lat="-22.04104579053819179534912109375" lon="166.45543816499412059783935546875">
        <ele>913.4000244140625</ele>
        <time>2016-08-12T19:29:55.000Z</time>
        <extensions>
          <ns3:TrackPointExtension>
            <ns3:atemp>15.0</ns3:atemp>
            <ns3:hr>137</ns3:hr>
          </ns3:TrackPointExtension>
        </extensions>
      </trkpt>
      <trkpt lat="-22.04102232120931148529052734375" lon="166.45544235594570636749267578125">
        <ele>914</ele>
        <time>2016-08-12T19:29:56.000Z</time>
        <extensions>
          <ns3:TrackPointExtension>
            <ns3:atemp>15.0</ns3:atemp>
            <ns3:hr>137</ns3:hr>
          </ns3:TrackPointExtension>
        </extensions>
      </trkpt>
      <trkpt lat="-22.04099868424236774444580078125" lon="166.45544587634503841400146484375">
        <ele>914.4000244140625</ele>
        <time>2016-08-12T19:29:57.000Z</time>
        <extensions>
          <ns3:TrackPointExtension>
            <ns3:atemp>15.0</ns3:atemp>
            <ns3:hr>137</ns3:hr>
          </ns3:TrackPointExtension>
        </extensions>
      </trkpt>
      <trkpt lat="-22.04097605310380458831787109375" lon="166.455449648201465606689453125">
        <ele>914</ele>
        <time>2016-08-12T19:29:58.000Z</time>
        <extensions>
          <ns3:TrackPointExtension>
            <ns3:atemp>15.0</ns3:atemp>
            <ns3:hr>137</ns3:hr>
          </ns3:TrackPointExtension>
        </extensions>
      </trkpt>
      <trkpt lat="-22.04095426015555858612060546875" lon="166.45545710809528827667236328125">
        <ele>913.79998779296875</ele>
        <time>2016-08-12T19:29:59.000Z</time>
        <extensions>
          <ns3:TrackPointExtension>
            <ns3:atemp>15.0</ns3:atemp>
            <ns3:hr>137</ns3:hr>
          </ns3:TrackPointExtension>
        </extensions>
      </trkpt>
      <trkpt lat="-22.0409280247986316680908203125" lon="166.4554689265787601470947265625">
        <ele>914</ele>
        <time>2016-08-12T19:30:00.000Z</time>
        <extensions>
          <ns3:TrackPointExtension>
            <ns3:atemp>15.0</ns3:atemp>
            <ns3:hr>137</ns3:hr>
          </ns3:TrackPointExtension>
        </extensions>
      </trkpt>
      <trkpt lat="-22.04090665094554424285888671875" lon="166.455480493605136871337890625">
        <ele>914.5999755859375</ele>
        <time>2016-08-12T19:30:01.000Z</time>
        <extensions>
          <ns3:TrackPointExtension>
            <ns3:atemp>15.0</ns3:atemp>
            <ns3:hr>137</ns3:hr>
          </ns3:TrackPointExtension>
        </extensions>
      </trkpt>
      <trkpt lat="-22.04088519327342510223388671875" lon="166.4554949104785919189453125">
        <ele>914.5999755859375</ele>
        <time>2016-08-12T19:30:02.000Z</time>
        <extensions>
          <ns3:TrackPointExtension>
            <ns3:atemp>15.0</ns3:atemp>
            <ns3:hr>137</ns3:hr>
          </ns3:TrackPointExtension>
        </extensions>
      </trkpt>
      <trkpt lat="-22.04086222685873508453369140625" lon="166.45551024936139583587646484375">
        <ele>914.20001220703125</ele>
        <time>2016-08-12T19:30:03.000Z</time>
        <extensions>
          <ns3:TrackPointExtension>
            <ns3:atemp>15.0</ns3:atemp>
            <ns3:hr>137</ns3:hr>
          </ns3:TrackPointExtension>
        </extensions>
      </trkpt>
      <trkpt lat="-22.040840685367584228515625" lon="166.45552382804453372955322265625">
        <ele>914.20001220703125</ele>
        <time>2016-08-12T19:30:04.000Z</time>
        <extensions>
          <ns3:TrackPointExtension>
            <ns3:atemp>15.0</ns3:atemp>
            <ns3:hr>137</ns3:hr>
          </ns3:TrackPointExtension>
        </extensions>
      </trkpt>
      <trkpt lat="-22.04081981442868709564208984375" lon="166.45553589798510074615478515625">
        <ele>914.5999755859375</ele>
        <time>2016-08-12T19:30:05.000Z</time>
        <extensions>
          <ns3:TrackPointExtension>
            <ns3:atemp>15.0</ns3:atemp>
            <ns3:hr>136</ns3:hr>
          </ns3:TrackPointExtension>
        </extensions>
      </trkpt>
      <trkpt lat="-22.04080170951783657073974609375" lon="166.4555493928492069244384765625">
        <ele>914.79998779296875</ele>
        <time>2016-08-12T19:30:06.000Z</time>
        <extensions>
          <ns3:TrackPointExtension>
            <ns3:atemp>15.0</ns3:atemp>
            <ns3:hr>136</ns3:hr>
          </ns3:TrackPointExtension>
        </extensions>
      </trkpt>
      <trkpt lat="-22.04078259877860546112060546875" lon="166.4555617980659008026123046875">
        <ele>914.5999755859375</ele>
        <time>2016-08-12T19:30:07.000Z</time>
        <extensions>
          <ns3:TrackPointExtension>
            <ns3:atemp>15.0</ns3:atemp>
            <ns3:hr>136</ns3:hr>
          </ns3:TrackPointExtension>
        </extensions>
      </trkpt>
      <trkpt lat="-22.0407613925635814666748046875" lon="166.45557495765388011932373046875">
        <ele>914.5999755859375</ele>
        <time>2016-08-12T19:30:08.000Z</time>
        <extensions>
          <ns3:TrackPointExtension>
            <ns3:atemp>15.0</ns3:atemp>
            <ns3:hr>136</ns3:hr>
          </ns3:TrackPointExtension>
        </extensions>
      </trkpt>
      <trkpt lat="-22.04073767177760601043701171875" lon="166.455579064786434173583984375">
        <ele>915.20001220703125</ele>
        <time>2016-08-12T19:30:09.000Z</time>
        <extensions>
          <ns3:TrackPointExtension>
            <ns3:atemp>15.0</ns3:atemp>
            <ns3:hr>136</ns3:hr>
          </ns3:TrackPointExtension>
        </extensions>
      </trkpt>
      <trkpt lat="-22.04071587882936000823974609375" lon="166.45558099262416362762451171875">
        <ele>915</ele>
        <time>2016-08-12T19:30:10.000Z</time>
        <extensions>
          <ns3:TrackPointExtension>
            <ns3:atemp>15.0</ns3:atemp>
            <ns3:hr>136</ns3:hr>
          </ns3:TrackPointExtension>
        </extensions>
      </trkpt>
      <trkpt lat="-22.04069517552852630615234375" lon="166.45557998679578304290771484375">
        <ele>915</ele>
        <time>2016-08-12T19:30:11.000Z</time>
        <extensions>
          <ns3:TrackPointExtension>
            <ns3:atemp>15.0</ns3:atemp>
            <ns3:hr>136</ns3:hr>
          </ns3:TrackPointExtension>
        </extensions>
      </trkpt>
      <trkpt lat="-22.04067531041800975799560546875" lon="166.45557831041514873504638671875">
        <ele>915</ele>
        <time>2016-08-12T19:30:12.000Z</time>
        <extensions>
          <ns3:TrackPointExtension>
            <ns3:atemp>15.0</ns3:atemp>
            <ns3:hr>136</ns3:hr>
          </ns3:TrackPointExtension>
        </extensions>
      </trkpt>
      <trkpt lat="-22.04065485857427120208740234375" lon="166.4555711857974529266357421875">
        <ele>915.5999755859375</ele>
        <time>2016-08-12T19:30:13.000Z</time>
        <extensions>
          <ns3:TrackPointExtension>
            <ns3:atemp>15.0</ns3:atemp>
            <ns3:hr>136</ns3:hr>
          </ns3:TrackPointExtension>
        </extensions>
      </trkpt>
      <trkpt lat="-22.0406359992921352386474609375" lon="166.45556556992232799530029296875">
        <ele>915.5999755859375</ele>
        <time>2016-08-12T19:30:14.000Z</time>
        <extensions>
          <ns3:TrackPointExtension>
            <ns3:atemp>15.0</ns3:atemp>
            <ns3:hr>136</ns3:hr>
          </ns3:TrackPointExtension>
        </extensions>
      </trkpt>
      <trkpt lat="-22.040612697601318359375" lon="166.4555581100285053253173828125">
        <ele>915.4000244140625</ele>
        <time>2016-08-12T19:30:15.000Z</time>
        <extensions>
          <ns3:TrackPointExtension>
            <ns3:atemp>15.0</ns3:atemp>
            <ns3:hr>136</ns3:hr>
          </ns3:TrackPointExtension>
        </extensions>
      </trkpt>
      <trkpt lat="-22.04059015028178691864013671875" lon="166.4555537514388561248779296875">
        <ele>915.4000244140625</ele>
        <time>2016-08-12T19:30:16.000Z</time>
        <extensions>
          <ns3:TrackPointExtension>
            <ns3:atemp>15.0</ns3:atemp>
            <ns3:hr>136</ns3:hr>
          </ns3:TrackPointExtension>
        </extensions>
      </trkpt>
      <trkpt lat="-22.04056642949581146240234375" lon="166.455554254353046417236328125">
        <ele>915.79998779296875</ele>
        <time>2016-08-12T19:30:17.000Z</time>
        <extensions>
          <ns3:TrackPointExtension>
            <ns3:atemp>15.0</ns3:atemp>
            <ns3:hr>136</ns3:hr>
          </ns3:TrackPointExtension>
        </extensions>
      </trkpt>
      <trkpt lat="-22.040539272129535675048828125" lon="166.4555592834949493408203125">
        <ele>916.20001220703125</ele>
        <time>2016-08-12T19:30:18.000Z</time>
        <extensions>
          <ns3:TrackPointExtension>
            <ns3:atemp>15.0</ns3:atemp>
            <ns3:hr>136</ns3:hr>
          </ns3:TrackPointExtension>
        </extensions>
      </trkpt>
      <trkpt lat="-22.04051571898162364959716796875" lon="166.4555661566555500030517578125">
        <ele>916</ele>
        <time>2016-08-12T19:30:19.000Z</time>
        <extensions>
          <ns3:TrackPointExtension>
            <ns3:atemp>15.0</ns3:atemp>
            <ns3:hr>136</ns3:hr>
          </ns3:TrackPointExtension>
        </extensions>
      </trkpt>
      <trkpt lat="-22.04049359075725078582763671875" lon="166.45557328127324581146240234375">
        <ele>915.79998779296875</ele>
        <time>2016-08-12T19:30:20.000Z</time>
        <extensions>
          <ns3:TrackPointExtension>
            <ns3:atemp>15.0</ns3:atemp>
            <ns3:hr>136</ns3:hr>
          </ns3:TrackPointExtension>
        </extensions>
      </trkpt>
      <trkpt lat="-22.04046986997127532958984375" lon="166.45557747222483158111572265625">
        <ele>916</ele>
        <time>2016-08-12T19:30:21.000Z</time>
        <extensions>
          <ns3:TrackPointExtension>
            <ns3:atemp>15.0</ns3:atemp>
            <ns3:hr>136</ns3:hr>
          </ns3:TrackPointExtension>
        </extensions>
      </trkpt>
      <trkpt lat="-22.0404458977282047271728515625" lon="166.45558082498610019683837890625">
        <ele>916.20001220703125</ele>
        <time>2016-08-12T19:30:22.000Z</time>
        <extensions>
          <ns3:TrackPointExtension>
            <ns3:atemp>15.0</ns3:atemp>
            <ns3:hr>136</ns3:hr>
          </ns3:TrackPointExtension>
        </extensions>
      </trkpt>
      <trkpt lat="-22.04041882418096065521240234375" lon="166.45557998679578304290771484375">
        <ele>916</ele>
        <time>2016-08-12T19:30:23.000Z</time>
        <extensions>
          <ns3:TrackPointExtension>
            <ns3:atemp>15.0</ns3:atemp>
            <ns3:hr>136</ns3:hr>
          </ns3:TrackPointExtension>
        </extensions>
      </trkpt>
      <trkpt lat="-22.0403959415853023529052734375" lon="166.4555792324244976043701171875">
        <ele>915.5999755859375</ele>
        <time>2016-08-12T19:30:24.000Z</time>
        <extensions>
          <ns3:TrackPointExtension>
            <ns3:atemp>15.0</ns3:atemp>
            <ns3:hr>136</ns3:hr>
          </ns3:TrackPointExtension>
        </extensions>
      </trkpt>
      <trkpt lat="-22.04037590883672237396240234375" lon="166.4555641449987888336181640625">
        <ele>915.79998779296875</ele>
        <time>2016-08-12T19:30:25.000Z</time>
        <extensions>
          <ns3:TrackPointExtension>
            <ns3:atemp>15.0</ns3:atemp>
            <ns3:hr>136</ns3:hr>
          </ns3:TrackPointExtension>
        </extensions>
      </trkpt>
      <trkpt lat="-22.04036082141101360321044921875" lon="166.4555467106401920318603515625">
        <ele>916.20001220703125</ele>
        <time>2016-08-12T19:30:26.000Z</time>
        <extensions>
          <ns3:TrackPointExtension>
            <ns3:atemp>15.0</ns3:atemp>
            <ns3:hr>136</ns3:hr>
          </ns3:TrackPointExtension>
        </extensions>
      </trkpt>
      <trkpt lat="-22.04034539870917797088623046875" lon="166.4555262587964534759521484375">
        <ele>916.20001220703125</ele>
        <time>2016-08-12T19:30:27.000Z</time>
        <extensions>
          <ns3:TrackPointExtension>
            <ns3:atemp>15.0</ns3:atemp>
            <ns3:hr>136</ns3:hr>
          </ns3:TrackPointExtension>
        </extensions>
      </trkpt>
      <trkpt lat="-22.04032561741769313812255859375" lon="166.4555056393146514892578125">
        <ele>916</ele>
        <time>2016-08-12T19:30:28.000Z</time>
        <extensions>
          <ns3:TrackPointExtension>
            <ns3:atemp>15.0</ns3:atemp>
            <ns3:hr>136</ns3:hr>
          </ns3:TrackPointExtension>
        </extensions>
      </trkpt>
      <trkpt lat="-22.04030902124941349029541015625" lon="166.4554880373179912567138671875">
        <ele>916</ele>
        <time>2016-08-12T19:30:29.000Z</time>
        <extensions>
          <ns3:TrackPointExtension>
            <ns3:atemp>15.0</ns3:atemp>
            <ns3:hr>137</ns3:hr>
          </ns3:TrackPointExtension>
        </extensions>
      </trkpt>
      <trkpt lat="-22.040289826691150665283203125" lon="166.45547051914036273956298828125">
        <ele>916.4000244140625</ele>
        <time>2016-08-12T19:30:30.000Z</time>
        <extensions>
          <ns3:TrackPointExtension>
            <ns3:atemp>14.0</ns3:atemp>
            <ns3:hr>137</ns3:hr>
          </ns3:TrackPointExtension>
        </extensions>
      </trkpt>
      <trkpt lat="-22.04026912339031696319580078125" lon="166.455453000962734222412109375">
        <ele>916.79998779296875</ele>
        <time>2016-08-12T19:30:31.000Z</time>
        <extensions>
          <ns3:TrackPointExtension>
            <ns3:atemp>15.0</ns3:atemp>
            <ns3:hr>137</ns3:hr>
          </ns3:TrackPointExtension>
        </extensions>
      </trkpt>
      <trkpt lat="-22.040248252451419830322265625" lon="166.4554390870034694671630859375">
        <ele>916.79998779296875</ele>
        <time>2016-08-12T19:30:32.000Z</time>
        <extensions>
          <ns3:TrackPointExtension>
            <ns3:atemp>14.0</ns3:atemp>
            <ns3:hr>137</ns3:hr>
          </ns3:TrackPointExtension>
        </extensions>
      </trkpt>
      <trkpt lat="-22.04022587276995182037353515625" lon="166.4554253406822681427001953125">
        <ele>916.4000244140625</ele>
        <time>2016-08-12T19:30:33.000Z</time>
        <extensions>
          <ns3:TrackPointExtension>
            <ns3:atemp>14.0</ns3:atemp>
            <ns3:hr>138</ns3:hr>
          </ns3:TrackPointExtension>
        </extensions>
      </trkpt>
      <trkpt lat="-22.04020525328814983367919921875" lon="166.45541603676974773406982421875">
        <ele>916.4000244140625</ele>
        <time>2016-08-12T19:30:34.000Z</time>
        <extensions>
          <ns3:TrackPointExtension>
            <ns3:atemp>14.0</ns3:atemp>
            <ns3:hr>138</ns3:hr>
          </ns3:TrackPointExtension>
        </extensions>
      </trkpt>
      <trkpt lat="-22.04017926938831806182861328125" lon="166.45540849305689334869384765625">
        <ele>917</ele>
        <time>2016-08-12T19:30:35.000Z</time>
        <extensions>
          <ns3:TrackPointExtension>
            <ns3:atemp>14.0</ns3:atemp>
            <ns3:hr>138</ns3:hr>
          </ns3:TrackPointExtension>
        </extensions>
      </trkpt>
      <trkpt lat="-22.0401555486023426055908203125" lon="166.45540329627692699432373046875">
        <ele>917.20001220703125</ele>
        <time>2016-08-12T19:30:36.000Z</time>
        <extensions>
          <ns3:TrackPointExtension>
            <ns3:atemp>14.0</ns3:atemp>
            <ns3:hr>137</ns3:hr>
          </ns3:TrackPointExtension>
        </extensions>
      </trkpt>
      <trkpt lat="-22.04012914560735225677490234375" lon="166.45539944060146808624267578125">
        <ele>916.79998779296875</ele>
        <time>2016-08-12T19:30:37.000Z</time>
        <extensions>
          <ns3:TrackPointExtension>
            <ns3:atemp>14.0</ns3:atemp>
            <ns3:hr>138</ns3:hr>
          </ns3:TrackPointExtension>
        </extensions>
      </trkpt>
      <trkpt lat="-22.0401045866310596466064453125" lon="166.455399356782436370849609375">
        <ele>916.5999755859375</ele>
        <time>2016-08-12T19:30:38.000Z</time>
        <extensions>
          <ns3:TrackPointExtension>
            <ns3:atemp>14.0</ns3:atemp>
            <ns3:hr>138</ns3:hr>
          </ns3:TrackPointExtension>
        </extensions>
      </trkpt>
      <trkpt lat="-22.04008053056895732879638671875" lon="166.4554025419056415557861328125">
        <ele>917</ele>
        <time>2016-08-12T19:30:39.000Z</time>
        <extensions>
          <ns3:TrackPointExtension>
            <ns3:atemp>14.0</ns3:atemp>
            <ns3:hr>138</ns3:hr>
          </ns3:TrackPointExtension>
        </extensions>
      </trkpt>
      <trkpt lat="-22.0400534570217132568359375" lon="166.4554102532565593719482421875">
        <ele>917.5999755859375</ele>
        <time>2016-08-12T19:30:40.000Z</time>
        <extensions>
          <ns3:TrackPointExtension>
            <ns3:atemp>14.0</ns3:atemp>
            <ns3:hr>137</ns3:hr>
          </ns3:TrackPointExtension>
        </extensions>
      </trkpt>
      <trkpt lat="-22.0400298200547695159912109375" lon="166.45542182028293609619140625">
        <ele>917.79998779296875</ele>
        <time>2016-08-12T19:30:41.000Z</time>
        <extensions>
          <ns3:TrackPointExtension>
            <ns3:atemp>14.0</ns3:atemp>
            <ns3:hr>138</ns3:hr>
          </ns3:TrackPointExtension>
        </extensions>
      </trkpt>
      <trkpt lat="-22.040005512535572052001953125" lon="166.45543548278510570526123046875">
        <ele>917.4000244140625</ele>
        <time>2016-08-12T19:30:42.000Z</time>
        <extensions>
          <ns3:TrackPointExtension>
            <ns3:atemp>14.0</ns3:atemp>
            <ns3:hr>138</ns3:hr>
          </ns3:TrackPointExtension>
        </extensions>
      </trkpt>
      <trkpt lat="-22.03998128883540630340576171875" lon="166.4554494805634021759033203125">
        <ele>917.20001220703125</ele>
        <time>2016-08-12T19:30:43.000Z</time>
        <extensions>
          <ns3:TrackPointExtension>
            <ns3:atemp>14.0</ns3:atemp>
            <ns3:hr>137</ns3:hr>
          </ns3:TrackPointExtension>
        </extensions>
      </trkpt>
      <trkpt lat="-22.0399614237248897552490234375" lon="166.4554627239704132080078125">
        <ele>917.4000244140625</ele>
        <time>2016-08-12T19:30:44.000Z</time>
        <extensions>
          <ns3:TrackPointExtension>
            <ns3:atemp>14.0</ns3:atemp>
            <ns3:hr>137</ns3:hr>
          </ns3:TrackPointExtension>
        </extensions>
      </trkpt>
      <trkpt lat="-22.03994214534759521484375" lon="166.4554814994335174560546875">
        <ele>918</ele>
        <time>2016-08-12T19:30:45.000Z</time>
        <extensions>
          <ns3:TrackPointExtension>
            <ns3:atemp>14.0</ns3:atemp>
            <ns3:hr>137</ns3:hr>
          </ns3:TrackPointExtension>
        </extensions>
      </trkpt>
      <trkpt lat="-22.03992228023707866668701171875" lon="166.45549801178276538848876953125">
        <ele>917.5999755859375</ele>
        <time>2016-08-12T19:30:46.000Z</time>
        <extensions>
          <ns3:TrackPointExtension>
            <ns3:atemp>14.0</ns3:atemp>
            <ns3:hr>137</ns3:hr>
          </ns3:TrackPointExtension>
        </extensions>
      </trkpt>
      <trkpt lat="-22.039905600249767303466796875" lon="166.4555172063410282135009765625">
        <ele>917.20001220703125</ele>
        <time>2016-08-12T19:30:47.000Z</time>
        <extensions>
          <ns3:TrackPointExtension>
            <ns3:atemp>14.0</ns3:atemp>
            <ns3:hr>137</ns3:hr>
          </ns3:TrackPointExtension>
        </extensions>
      </trkpt>
      <trkpt lat="-22.0398876629769802093505859375" lon="166.4555302821099758148193359375">
        <ele>917</ele>
        <time>2016-08-12T19:30:48.000Z</time>
        <extensions>
          <ns3:TrackPointExtension>
            <ns3:atemp>14.0</ns3:atemp>
            <ns3:hr>137</ns3:hr>
          </ns3:TrackPointExtension>
        </extensions>
      </trkpt>
      <trkpt lat="-22.03986897133290767669677734375" lon="166.4555443637073040008544921875">
        <ele>916.79998779296875</ele>
        <time>2016-08-12T19:30:49.000Z</time>
        <extensions>
          <ns3:TrackPointExtension>
            <ns3:atemp>14.0</ns3:atemp>
            <ns3:hr>137</ns3:hr>
          </ns3:TrackPointExtension>
        </extensions>
      </trkpt>
      <trkpt lat="-22.03985237516462802886962890625" lon="166.4555601216852664947509765625">
        <ele>916.79998779296875</ele>
        <time>2016-08-12T19:30:50.000Z</time>
        <extensions>
          <ns3:TrackPointExtension>
            <ns3:atemp>14.0</ns3:atemp>
            <ns3:hr>136</ns3:hr>
          </ns3:TrackPointExtension>
        </extensions>
      </trkpt>
      <trkpt lat="-22.0398361980915069580078125" lon="166.45557604730129241943359375">
        <ele>917</ele>
        <time>2016-08-12T19:30:51.000Z</time>
        <extensions>
          <ns3:TrackPointExtension>
            <ns3:atemp>14.0</ns3:atemp>
            <ns3:hr>136</ns3:hr>
          </ns3:TrackPointExtension>
        </extensions>
      </trkpt>
      <trkpt lat="-22.03981867991387844085693359375" lon="166.45558652468025684356689453125">
        <ele>917.20001220703125</ele>
        <time>2016-08-12T19:30:52.000Z</time>
        <extensions>
          <ns3:TrackPointExtension>
            <ns3:atemp>14.0</ns3:atemp>
            <ns3:hr>136</ns3:hr>
          </ns3:TrackPointExtension>
        </extensions>
      </trkpt>
      <trkpt lat="-22.03979688696563243865966796875" lon="166.45559222437441349029541015625">
        <ele>917.20001220703125</ele>
        <time>2016-08-12T19:30:53.000Z</time>
        <extensions>
          <ns3:TrackPointExtension>
            <ns3:atemp>14.0</ns3:atemp>
            <ns3:hr>136</ns3:hr>
          </ns3:TrackPointExtension>
        </extensions>
      </trkpt>
      <trkpt lat="-22.03977651894092559814453125" lon="166.45559675060212612152099609375">
        <ele>917.5999755859375</ele>
        <time>2016-08-12T19:30:54.000Z</time>
        <extensions>
          <ns3:TrackPointExtension>
            <ns3:atemp>14.0</ns3:atemp>
            <ns3:hr>136</ns3:hr>
          </ns3:TrackPointExtension>
        </extensions>
      </trkpt>
      <trkpt lat="-22.03975631855428218841552734375" lon="166.4556010253727436065673828125">
        <ele>917.79998779296875</ele>
        <time>2016-08-12T19:30:55.000Z</time>
        <extensions>
          <ns3:TrackPointExtension>
            <ns3:atemp>14.0</ns3:atemp>
            <ns3:hr>136</ns3:hr>
          </ns3:TrackPointExtension>
        </extensions>
      </trkpt>
      <trkpt lat="-22.03973569907248020172119140625" lon="166.45560278557240962982177734375">
        <ele>918</ele>
        <time>2016-08-12T19:30:56.000Z</time>
        <extensions>
          <ns3:TrackPointExtension>
            <ns3:atemp>14.0</ns3:atemp>
            <ns3:hr>136</ns3:hr>
          </ns3:TrackPointExtension>
        </extensions>
      </trkpt>
      <trkpt lat="-22.03971424140036106109619140625" lon="166.45560010336339473724365234375">
        <ele>918</ele>
        <time>2016-08-12T19:30:57.000Z</time>
        <extensions>
          <ns3:TrackPointExtension>
            <ns3:atemp>14.0</ns3:atemp>
            <ns3:hr>135</ns3:hr>
          </ns3:TrackPointExtension>
        </extensions>
      </trkpt>
      <trkpt lat="-22.03969211317598819732666015625" lon="166.45559507422149181365966796875">
        <ele>918</ele>
        <time>2016-08-12T19:30:58.000Z</time>
        <extensions>
          <ns3:TrackPointExtension>
            <ns3:atemp>14.0</ns3:atemp>
            <ns3:hr>136</ns3:hr>
          </ns3:TrackPointExtension>
        </extensions>
      </trkpt>
      <trkpt lat="-22.03966931439936161041259765625" lon="166.45559289492666721343994140625">
        <ele>918.20001220703125</ele>
        <time>2016-08-12T19:30:59.000Z</time>
        <extensions>
          <ns3:TrackPointExtension>
            <ns3:atemp>14.0</ns3:atemp>
            <ns3:hr>136</ns3:hr>
          </ns3:TrackPointExtension>
        </extensions>
      </trkpt>
      <trkpt lat="-22.039646096527576446533203125" lon="166.4555902965366840362548828125">
        <ele>918.20001220703125</ele>
        <time>2016-08-12T19:31:00.000Z</time>
        <extensions>
          <ns3:TrackPointExtension>
            <ns3:atemp>14.0</ns3:atemp>
            <ns3:hr>136</ns3:hr>
          </ns3:TrackPointExtension>
        </extensions>
      </trkpt>
      <trkpt lat="-22.03962354920804500579833984375" lon="166.4555856026709079742431640625">
        <ele>918.4000244140625</ele>
        <time>2016-08-12T19:31:01.000Z</time>
        <extensions>
          <ns3:TrackPointExtension>
            <ns3:atemp>14.0</ns3:atemp>
            <ns3:hr>136</ns3:hr>
          </ns3:TrackPointExtension>
        </extensions>
      </trkpt>
      <trkpt lat="-22.0396026782691478729248046875" lon="166.45557998679578304290771484375">
        <ele>918.20001220703125</ele>
        <time>2016-08-12T19:31:02.000Z</time>
        <extensions>
          <ns3:TrackPointExtension>
            <ns3:atemp>14.0</ns3:atemp>
            <ns3:hr>136</ns3:hr>
          </ns3:TrackPointExtension>
        </extensions>
      </trkpt>
      <trkpt lat="-22.03958180733025074005126953125" lon="166.4555762149393558502197265625">
        <ele>918.20001220703125</ele>
        <time>2016-08-12T19:31:03.000Z</time>
        <extensions>
          <ns3:TrackPointExtension>
            <ns3:atemp>14.0</ns3:atemp>
            <ns3:hr>136</ns3:hr>
          </ns3:TrackPointExtension>
        </extensions>
      </trkpt>
      <trkpt lat="-22.03956118784844875335693359375" lon="166.45557579584419727325439453125">
        <ele>918.20001220703125</ele>
        <time>2016-08-12T19:31:04.000Z</time>
        <extensions>
          <ns3:TrackPointExtension>
            <ns3:atemp>14.0</ns3:atemp>
            <ns3:hr>136</ns3:hr>
          </ns3:TrackPointExtension>
        </extensions>
      </trkpt>
      <trkpt lat="-22.0395356230437755584716796875" lon="166.4555748738348484039306640625">
        <ele>918.4000244140625</ele>
        <time>2016-08-12T19:31:05.000Z</time>
        <extensions>
          <ns3:TrackPointExtension>
            <ns3:atemp>14.0</ns3:atemp>
            <ns3:hr>136</ns3:hr>
          </ns3:TrackPointExtension>
        </extensions>
      </trkpt>
      <trkpt lat="-22.039510644972324371337890625" lon="166.45557512529194355010986328125">
        <ele>918.79998779296875</ele>
        <time>2016-08-12T19:31:06.000Z</time>
        <extensions>
          <ns3:TrackPointExtension>
            <ns3:atemp>14.0</ns3:atemp>
            <ns3:hr>136</ns3:hr>
          </ns3:TrackPointExtension>
        </extensions>
      </trkpt>
      <trkpt lat="-22.0394853316247463226318359375" lon="166.45558199845254421234130859375">
        <ele>919</ele>
        <time>2016-08-12T19:31:07.000Z</time>
        <extensions>
          <ns3:TrackPointExtension>
            <ns3:atemp>14.0</ns3:atemp>
            <ns3:hr>136</ns3:hr>
          </ns3:TrackPointExtension>
        </extensions>
      </trkpt>
      <trkpt lat="-22.0394611917436122894287109375" lon="166.4555941522121429443359375">
        <ele>918.79998779296875</ele>
        <time>2016-08-12T19:31:08.000Z</time>
        <extensions>
          <ns3:TrackPointExtension>
            <ns3:atemp>14.0</ns3:atemp>
            <ns3:hr>135</ns3:hr>
          </ns3:TrackPointExtension>
        </extensions>
      </trkpt>
      <trkpt lat="-22.039440236985683441162109375" lon="166.4556075632572174072265625">
        <ele>918.5999755859375</ele>
        <time>2016-08-12T19:31:09.000Z</time>
        <extensions>
          <ns3:TrackPointExtension>
            <ns3:atemp>14.0</ns3:atemp>
            <ns3:hr>136</ns3:hr>
          </ns3:TrackPointExtension>
        </extensions>
      </trkpt>
      <trkpt lat="-22.03942221589386463165283203125" lon="166.4556258358061313629150390625">
        <ele>918.20001220703125</ele>
        <time>2016-08-12T19:31:10.000Z</time>
        <extensions>
          <ns3:TrackPointExtension>
            <ns3:atemp>14.0</ns3:atemp>
            <ns3:hr>135</ns3:hr>
          </ns3:TrackPointExtension>
        </extensions>
      </trkpt>
      <trkpt lat="-22.03940561972558498382568359375" lon="166.4556459523737430572509765625">
        <ele>918</ele>
        <time>2016-08-12T19:31:11.000Z</time>
        <extensions>
          <ns3:TrackPointExtension>
            <ns3:atemp>14.0</ns3:atemp>
            <ns3:hr>136</ns3:hr>
          </ns3:TrackPointExtension>
        </extensions>
      </trkpt>
      <trkpt lat="-22.03939002938568592071533203125" lon="166.45566816441714763641357421875">
        <ele>917.79998779296875</ele>
        <time>2016-08-12T19:31:12.000Z</time>
        <extensions>
          <ns3:TrackPointExtension>
            <ns3:atemp>14.0</ns3:atemp>
            <ns3:hr>135</ns3:hr>
          </ns3:TrackPointExtension>
        </extensions>
      </trkpt>
      <trkpt lat="-22.03937879763543605804443359375" lon="166.45569565705955028533935546875">
        <ele>918</ele>
        <time>2016-08-12T19:31:13.000Z</time>
        <extensions>
          <ns3:TrackPointExtension>
            <ns3:atemp>14.0</ns3:atemp>
            <ns3:hr>136</ns3:hr>
          </ns3:TrackPointExtension>
        </extensions>
      </trkpt>
      <trkpt lat="-22.0393694937229156494140625" lon="166.45572314970195293426513671875">
        <ele>918</ele>
        <time>2016-08-12T19:31:14.000Z</time>
        <extensions>
          <ns3:TrackPointExtension>
            <ns3:atemp>14.0</ns3:atemp>
            <ns3:hr>136</ns3:hr>
          </ns3:TrackPointExtension>
        </extensions>
      </trkpt>
      <trkpt lat="-22.03936387784779071807861328125" lon="166.455754078924655914306640625">
        <ele>917.79998779296875</ele>
        <time>2016-08-12T19:31:15.000Z</time>
        <extensions>
          <ns3:TrackPointExtension>
            <ns3:atemp>14.0</ns3:atemp>
            <ns3:hr>136</ns3:hr>
          </ns3:TrackPointExtension>
        </extensions>
      </trkpt>
      <trkpt lat="-22.03936086036264896392822265625" lon="166.455782242119312286376953125">
        <ele>917.79998779296875</ele>
        <time>2016-08-12T19:31:16.000Z</time>
        <extensions>
          <ns3:TrackPointExtension>
            <ns3:atemp>14.0</ns3:atemp>
            <ns3:hr>136</ns3:hr>
          </ns3:TrackPointExtension>
        </extensions>
      </trkpt>
      <trkpt lat="-22.03935566358268260955810546875" lon="166.45580780692398548126220703125">
        <ele>918</ele>
        <time>2016-08-12T19:31:17.000Z</time>
        <extensions>
          <ns3:TrackPointExtension>
            <ns3:atemp>14.0</ns3:atemp>
            <ns3:hr>136</ns3:hr>
          </ns3:TrackPointExtension>
        </extensions>
      </trkpt>
      <trkpt lat="-22.03934694640338420867919921875" lon="166.45583228208124637603759765625">
        <ele>918</ele>
        <time>2016-08-12T19:31:18.000Z</time>
        <extensions>
          <ns3:TrackPointExtension>
            <ns3:atemp>14.0</ns3:atemp>
            <ns3:hr>136</ns3:hr>
          </ns3:TrackPointExtension>
        </extensions>
      </trkpt>
      <trkpt lat="-22.03933663666248321533203125" lon="166.45585407502949237823486328125">
        <ele>918.20001220703125</ele>
        <time>2016-08-12T19:31:19.000Z</time>
        <extensions>
          <ns3:TrackPointExtension>
            <ns3:atemp>14.0</ns3:atemp>
            <ns3:hr>136</ns3:hr>
          </ns3:TrackPointExtension>
        </extensions>
      </trkpt>
      <trkpt lat="-22.03932582400739192962646484375" lon="166.45587779581546783447265625">
        <ele>918.5999755859375</ele>
        <time>2016-08-12T19:31:20.000Z</time>
        <extensions>
          <ns3:TrackPointExtension>
            <ns3:atemp>14.0</ns3:atemp>
            <ns3:hr>136</ns3:hr>
          </ns3:TrackPointExtension>
        </extensions>
      </trkpt>
      <trkpt lat="-22.039314173161983489990234375" lon="166.45590084604918956756591796875">
        <ele>919.20001220703125</ele>
        <time>2016-08-12T19:31:21.000Z</time>
        <extensions>
          <ns3:TrackPointExtension>
            <ns3:atemp>14.0</ns3:atemp>
            <ns3:hr>137</ns3:hr>
          </ns3:TrackPointExtension>
        </extensions>
      </trkpt>
      <trkpt lat="-22.0393039472401142120361328125" lon="166.45592632703483104705810546875">
        <ele>919.20001220703125</ele>
        <time>2016-08-12T19:31:22.000Z</time>
        <extensions>
          <ns3:TrackPointExtension>
            <ns3:atemp>14.0</ns3:atemp>
            <ns3:hr>137</ns3:hr>
          </ns3:TrackPointExtension>
        </extensions>
      </trkpt>
      <trkpt lat="-22.039294056594371795654296875" lon="166.45595147274434566497802734375">
        <ele>919</ele>
        <time>2016-08-12T19:31:23.000Z</time>
        <extensions>
          <ns3:TrackPointExtension>
            <ns3:atemp>14.0</ns3:atemp>
            <ns3:hr>137</ns3:hr>
          </ns3:TrackPointExtension>
        </extensions>
      </trkpt>
      <trkpt lat="-22.0392851717770099639892578125" lon="166.4559768699109554290771484375">
        <ele>919</ele>
        <time>2016-08-12T19:31:24.000Z</time>
        <extensions>
          <ns3:TrackPointExtension>
            <ns3:atemp>14.0</ns3:atemp>
            <ns3:hr>137</ns3:hr>
          </ns3:TrackPointExtension>
        </extensions>
      </trkpt>
      <trkpt lat="-22.03927486203610897064208984375" lon="166.4560033567249774932861328125">
        <ele>919.4000244140625</ele>
        <time>2016-08-12T19:31:25.000Z</time>
        <extensions>
          <ns3:TrackPointExtension>
            <ns3:atemp>14.0</ns3:atemp>
            <ns3:hr>137</ns3:hr>
          </ns3:TrackPointExtension>
        </extensions>
      </trkpt>
      <trkpt lat="-22.039264552295207977294921875" lon="166.456024646759033203125">
        <ele>919.4000244140625</ele>
        <time>2016-08-12T19:31:26.000Z</time>
        <extensions>
          <ns3:TrackPointExtension>
            <ns3:atemp>14.0</ns3:atemp>
            <ns3:hr>137</ns3:hr>
          </ns3:TrackPointExtension>
        </extensions>
      </trkpt>
      <trkpt lat="-22.03925508074462413787841796875" lon="166.4560476131737232208251953125">
        <ele>919.20001220703125</ele>
        <time>2016-08-12T19:31:27.000Z</time>
        <extensions>
          <ns3:TrackPointExtension>
            <ns3:atemp>14.0</ns3:atemp>
            <ns3:hr>137</ns3:hr>
          </ns3:TrackPointExtension>
        </extensions>
      </trkpt>
      <trkpt lat="-22.0392452739179134368896484375" lon="166.4560717530548572540283203125">
        <ele>919.20001220703125</ele>
        <time>2016-08-12T19:31:28.000Z</time>
        <extensions>
          <ns3:TrackPointExtension>
            <ns3:atemp>14.0</ns3:atemp>
            <ns3:hr>138</ns3:hr>
          </ns3:TrackPointExtension>
        </extensions>
      </trkpt>
      <trkpt lat="-22.03923546709120273590087890625" lon="166.45609446801245212554931640625">
        <ele>919.4000244140625</ele>
        <time>2016-08-12T19:31:29.000Z</time>
        <extensions>
          <ns3:TrackPointExtension>
            <ns3:atemp>14.0</ns3:atemp>
            <ns3:hr>138</ns3:hr>
          </ns3:TrackPointExtension>
        </extensions>
      </trkpt>
      <trkpt lat="-22.03922423534095287322998046875" lon="166.4561203680932521820068359375">
        <ele>919.5999755859375</ele>
        <time>2016-08-12T19:31:30.000Z</time>
        <extensions>
          <ns3:TrackPointExtension>
            <ns3:atemp>14.0</ns3:atemp>
            <ns3:hr>137</ns3:hr>
          </ns3:TrackPointExtension>
        </extensions>
      </trkpt>
      <trkpt lat="-22.039215601980686187744140625" lon="166.45614459179341793060302734375">
        <ele>919.4000244140625</ele>
        <time>2016-08-12T19:31:31.000Z</time>
        <extensions>
          <ns3:TrackPointExtension>
            <ns3:atemp>14.0</ns3:atemp>
            <ns3:hr>137</ns3:hr>
          </ns3:TrackPointExtension>
        </extensions>
      </trkpt>
      <trkpt lat="-22.0392073877155780792236328125" lon="166.45616822876036167144775390625">
        <ele>919</ele>
        <time>2016-08-12T19:31:32.000Z</time>
        <extensions>
          <ns3:TrackPointExtension>
            <ns3:atemp>14.0</ns3:atemp>
            <ns3:hr>137</ns3:hr>
          </ns3:TrackPointExtension>
        </extensions>
      </trkpt>
      <trkpt lat="-22.0391978323459625244140625" lon="166.45619052462279796600341796875">
        <ele>919.4000244140625</ele>
        <time>2016-08-12T19:31:33.000Z</time>
        <extensions>
          <ns3:TrackPointExtension>
            <ns3:atemp>14.0</ns3:atemp>
            <ns3:hr>137</ns3:hr>
          </ns3:TrackPointExtension>
        </extensions>
      </trkpt>
      <trkpt lat="-22.0391882769763469696044921875" lon="166.4562139101326465606689453125">
        <ele>919.5999755859375</ele>
        <time>2016-08-12T19:31:34.000Z</time>
        <extensions>
          <ns3:TrackPointExtension>
            <ns3:atemp>14.0</ns3:atemp>
            <ns3:hr>137</ns3:hr>
          </ns3:TrackPointExtension>
        </extensions>
      </trkpt>
      <trkpt lat="-22.039176039397716522216796875" lon="166.4562373794615268707275390625">
        <ele>919.4000244140625</ele>
        <time>2016-08-12T19:31:35.000Z</time>
        <extensions>
          <ns3:TrackPointExtension>
            <ns3:atemp>14.0</ns3:atemp>
            <ns3:hr>137</ns3:hr>
          </ns3:TrackPointExtension>
        </extensions>
      </trkpt>
      <trkpt lat="-22.0391656458377838134765625" lon="166.45626042969524860382080078125">
        <ele>919</ele>
        <time>2016-08-12T19:31:36.000Z</time>
        <extensions>
          <ns3:TrackPointExtension>
            <ns3:atemp>14.0</ns3:atemp>
            <ns3:hr>137</ns3:hr>
          </ns3:TrackPointExtension>
        </extensions>
      </trkpt>
      <trkpt lat="-22.03915533609688282012939453125" lon="166.45628255791962146759033203125">
        <ele>919.20001220703125</ele>
        <time>2016-08-12T19:31:37.000Z</time>
        <extensions>
          <ns3:TrackPointExtension>
            <ns3:atemp>14.0</ns3:atemp>
            <ns3:hr>137</ns3:hr>
          </ns3:TrackPointExtension>
        </extensions>
      </trkpt>
      <trkpt lat="-22.039144523441791534423828125" lon="166.45630602724850177764892578125">
        <ele>919.4000244140625</ele>
        <time>2016-08-12T19:31:38.000Z</time>
        <extensions>
          <ns3:TrackPointExtension>
            <ns3:atemp>14.0</ns3:atemp>
            <ns3:hr>137</ns3:hr>
          </ns3:TrackPointExtension>
        </extensions>
      </trkpt>
      <trkpt lat="-22.03913538716733455657958984375" lon="166.45632849074900150299072265625">
        <ele>919.20001220703125</ele>
        <time>2016-08-12T19:31:39.000Z</time>
        <extensions>
          <ns3:TrackPointExtension>
            <ns3:atemp>14.0</ns3:atemp>
            <ns3:hr>137</ns3:hr>
          </ns3:TrackPointExtension>
        </extensions>
      </trkpt>
      <trkpt lat="-22.03912382014095783233642578125" lon="166.456350199878215789794921875">
        <ele>919</ele>
        <time>2016-08-12T19:31:40.000Z</time>
        <extensions>
          <ns3:TrackPointExtension>
            <ns3:atemp>14.0</ns3:atemp>
            <ns3:hr>137</ns3:hr>
          </ns3:TrackPointExtension>
        </extensions>
      </trkpt>
      <trkpt lat="-22.03911292366683483123779296875" lon="166.45637241192162036895751953125">
        <ele>919</ele>
        <time>2016-08-12T19:31:41.000Z</time>
        <extensions>
          <ns3:TrackPointExtension>
            <ns3:atemp>14.0</ns3:atemp>
            <ns3:hr>137</ns3:hr>
          </ns3:TrackPointExtension>
        </extensions>
      </trkpt>
      <trkpt lat="-22.03910219483077526092529296875" lon="166.45639638416469097137451171875">
        <ele>919.4000244140625</ele>
        <time>2016-08-12T19:31:42.000Z</time>
        <extensions>
          <ns3:TrackPointExtension>
            <ns3:atemp>14.0</ns3:atemp>
            <ns3:hr>136</ns3:hr>
          </ns3:TrackPointExtension>
        </extensions>
      </trkpt>
      <trkpt lat="-22.03909146599471569061279296875" lon="166.45642119459807872772216796875">
        <ele>919.4000244140625</ele>
        <time>2016-08-12T19:31:43.000Z</time>
        <extensions>
          <ns3:TrackPointExtension>
            <ns3:atemp>14.0</ns3:atemp>
            <ns3:hr>136</ns3:hr>
          </ns3:TrackPointExtension>
        </extensions>
      </trkpt>
      <trkpt lat="-22.03908182680606842041015625" lon="166.456447429955005645751953125">
        <ele>919</ele>
        <time>2016-08-12T19:31:44.000Z</time>
        <extensions>
          <ns3:TrackPointExtension>
            <ns3:atemp>14.0</ns3:atemp>
            <ns3:hr>136</ns3:hr>
          </ns3:TrackPointExtension>
        </extensions>
      </trkpt>
      <trkpt lat="-22.039070762693881988525390625" lon="166.45647450350224971771240234375">
        <ele>918.79998779296875</ele>
        <time>2016-08-12T19:31:45.000Z</time>
        <extensions>
          <ns3:TrackPointExtension>
            <ns3:atemp>14.0</ns3:atemp>
            <ns3:hr>136</ns3:hr>
          </ns3:TrackPointExtension>
        </extensions>
      </trkpt>
      <trkpt lat="-22.039060704410076141357421875" lon="166.4564999006688594818115234375">
        <ele>919</ele>
        <time>2016-08-12T19:31:46.000Z</time>
        <extensions>
          <ns3:TrackPointExtension>
            <ns3:atemp>14.0</ns3:atemp>
            <ns3:hr>136</ns3:hr>
          </ns3:TrackPointExtension>
        </extensions>
      </trkpt>
      <trkpt lat="-22.0390503108501434326171875" lon="166.45652697421610355377197265625">
        <ele>919.20001220703125</ele>
        <time>2016-08-12T19:31:47.000Z</time>
        <extensions>
          <ns3:TrackPointExtension>
            <ns3:atemp>14.0</ns3:atemp>
            <ns3:hr>136</ns3:hr>
          </ns3:TrackPointExtension>
        </extensions>
      </trkpt>
      <trkpt lat="-22.03903983347117900848388671875" lon="166.456553041934967041015625">
        <ele>919</ele>
        <time>2016-08-12T19:31:48.000Z</time>
        <extensions>
          <ns3:TrackPointExtension>
            <ns3:atemp>14.0</ns3:atemp>
            <ns3:hr>136</ns3:hr>
          </ns3:TrackPointExtension>
        </extensions>
      </trkpt>
      <trkpt lat="-22.03903078101575374603271484375" lon="166.45657642744481563568115234375">
        <ele>918.79998779296875</ele>
        <time>2016-08-12T19:31:49.000Z</time>
        <extensions>
          <ns3:TrackPointExtension>
            <ns3:atemp>14.0</ns3:atemp>
            <ns3:hr>136</ns3:hr>
          </ns3:TrackPointExtension>
        </extensions>
      </trkpt>
      <trkpt lat="-22.0390209741890430450439453125" lon="166.45660157315433025360107421875">
        <ele>918.79998779296875</ele>
        <time>2016-08-12T19:31:50.000Z</time>
        <extensions>
          <ns3:TrackPointExtension>
            <ns3:atemp>14.0</ns3:atemp>
            <ns3:hr>136</ns3:hr>
          </ns3:TrackPointExtension>
        </extensions>
      </trkpt>
      <trkpt lat="-22.03901032917201519012451171875" lon="166.45662370137870311737060546875">
        <ele>919.20001220703125</ele>
        <time>2016-08-12T19:31:51.000Z</time>
        <extensions>
          <ns3:TrackPointExtension>
            <ns3:atemp>14.0</ns3:atemp>
            <ns3:hr>136</ns3:hr>
          </ns3:TrackPointExtension>
        </extensions>
      </trkpt>
      <trkpt lat="-22.0389993488788604736328125" lon="166.45664784125983715057373046875">
        <ele>919.5999755859375</ele>
        <time>2016-08-12T19:31:52.000Z</time>
        <extensions>
          <ns3:TrackPointExtension>
            <ns3:atemp>14.0</ns3:atemp>
            <ns3:hr>136</ns3:hr>
          </ns3:TrackPointExtension>
        </extensions>
      </trkpt>
      <trkpt lat="-22.0389894582331180572509765625" lon="166.45667114295065402984619140625">
        <ele>919.4000244140625</ele>
        <time>2016-08-12T19:31:53.000Z</time>
        <extensions>
          <ns3:TrackPointExtension>
            <ns3:atemp>14.0</ns3:atemp>
            <ns3:hr>136</ns3:hr>
          </ns3:TrackPointExtension>
        </extensions>
      </trkpt>
      <trkpt lat="-22.0389800705015659332275390625" lon="166.456695534288883209228515625">
        <ele>919</ele>
        <time>2016-08-12T19:31:54.000Z</time>
        <extensions>
          <ns3:TrackPointExtension>
            <ns3:atemp>14.0</ns3:atemp>
            <ns3:hr>136</ns3:hr>
          </ns3:TrackPointExtension>
        </extensions>
      </trkpt>
      <trkpt lat="-22.03897051513195037841796875" lon="166.45672361366450786590576171875">
        <ele>919</ele>
        <time>2016-08-12T19:31:55.000Z</time>
        <extensions>
          <ns3:TrackPointExtension>
            <ns3:atemp>14.0</ns3:atemp>
            <ns3:hr>137</ns3:hr>
          </ns3:TrackPointExtension>
        </extensions>
      </trkpt>
      <trkpt lat="-22.03896087594330310821533203125" lon="166.45674859173595905303955078125">
        <ele>919.4000244140625</ele>
        <time>2016-08-12T19:31:56.000Z</time>
        <extensions>
          <ns3:TrackPointExtension>
            <ns3:atemp>14.0</ns3:atemp>
            <ns3:hr>136</ns3:hr>
          </ns3:TrackPointExtension>
        </extensions>
      </trkpt>
      <trkpt lat="-22.03895199112594127655029296875" lon="166.456778682768344879150390625">
        <ele>919.5999755859375</ele>
        <time>2016-08-12T19:31:57.000Z</time>
        <extensions>
          <ns3:TrackPointExtension>
            <ns3:atemp>14.0</ns3:atemp>
            <ns3:hr>136</ns3:hr>
          </ns3:TrackPointExtension>
        </extensions>
      </trkpt>
      <trkpt lat="-22.0389438606798648834228515625" lon="166.45680542103946208953857421875">
        <ele>919.5999755859375</ele>
        <time>2016-08-12T19:31:58.000Z</time>
        <extensions>
          <ns3:TrackPointExtension>
            <ns3:atemp>14.0</ns3:atemp>
            <ns3:hr>136</ns3:hr>
          </ns3:TrackPointExtension>
        </extensions>
      </trkpt>
      <trkpt lat="-22.038933970034122467041015625" lon="166.456830315291881561279296875">
        <ele>919.4000244140625</ele>
        <time>2016-08-12T19:31:59.000Z</time>
        <extensions>
          <ns3:TrackPointExtension>
            <ns3:atemp>14.0</ns3:atemp>
            <ns3:hr>137</ns3:hr>
          </ns3:TrackPointExtension>
        </extensions>
      </trkpt>
      <trkpt lat="-22.03892030753195285797119140625" lon="166.456853784620761871337890625">
        <ele>919.5999755859375</ele>
        <time>2016-08-12T19:32:00.000Z</time>
        <extensions>
          <ns3:TrackPointExtension>
            <ns3:atemp>14.0</ns3:atemp>
            <ns3:hr>136</ns3:hr>
          </ns3:TrackPointExtension>
        </extensions>
      </trkpt>
      <trkpt lat="-22.0389073155820369720458984375" lon="166.45687482319772243499755859375">
        <ele>919.79998779296875</ele>
        <time>2016-08-12T19:32:01.000Z</time>
        <extensions>
          <ns3:TrackPointExtension>
            <ns3:atemp>14.0</ns3:atemp>
            <ns3:hr>136</ns3:hr>
          </ns3:TrackPointExtension>
        </extensions>
      </trkpt>
      <trkpt lat="-22.03889415599405765533447265625" lon="166.4568988792598247528076171875">
        <ele>919.5999755859375</ele>
        <time>2016-08-12T19:32:02.000Z</time>
        <extensions>
          <ns3:TrackPointExtension>
            <ns3:atemp>14.0</ns3:atemp>
            <ns3:hr>137</ns3:hr>
          </ns3:TrackPointExtension>
        </extensions>
      </trkpt>
      <trkpt lat="-22.038882672786712646484375" lon="166.45692377351224422454833984375">
        <ele>919.4000244140625</ele>
        <time>2016-08-12T19:32:03.000Z</time>
        <extensions>
          <ns3:TrackPointExtension>
            <ns3:atemp>14.0</ns3:atemp>
            <ns3:hr>137</ns3:hr>
          </ns3:TrackPointExtension>
        </extensions>
      </trkpt>
      <trkpt lat="-22.03887169249355792999267578125" lon="166.456947661936283111572265625">
        <ele>919.79998779296875</ele>
        <time>2016-08-12T19:32:04.000Z</time>
        <extensions>
          <ns3:TrackPointExtension>
            <ns3:atemp>14.0</ns3:atemp>
            <ns3:hr>136</ns3:hr>
          </ns3:TrackPointExtension>
        </extensions>
      </trkpt>
      <trkpt lat="-22.0388593710958957672119140625" lon="166.456974484026432037353515625">
        <ele>919.79998779296875</ele>
        <time>2016-08-12T19:32:05.000Z</time>
        <extensions>
          <ns3:TrackPointExtension>
            <ns3:atemp>14.0</ns3:atemp>
            <ns3:hr>137</ns3:hr>
          </ns3:TrackPointExtension>
        </extensions>
      </trkpt>
      <trkpt lat="-22.038850821554660797119140625" lon="166.456998288631439208984375">
        <ele>919.5999755859375</ele>
        <time>2016-08-12T19:32:06.000Z</time>
        <extensions>
          <ns3:TrackPointExtension>
            <ns3:atemp>14.0</ns3:atemp>
            <ns3:hr>137</ns3:hr>
          </ns3:TrackPointExtension>
        </extensions>
      </trkpt>
      <trkpt lat="-22.03884311020374298095703125" lon="166.4570224285125732421875">
        <ele>919.4000244140625</ele>
        <time>2016-08-12T19:32:07.000Z</time>
        <extensions>
          <ns3:TrackPointExtension>
            <ns3:atemp>14.0</ns3:atemp>
            <ns3:hr>137</ns3:hr>
          </ns3:TrackPointExtension>
        </extensions>
      </trkpt>
      <trkpt lat="-22.03883430920541286468505859375" lon="166.4570480771362781524658203125">
        <ele>919.4000244140625</ele>
        <time>2016-08-12T19:32:08.000Z</time>
        <extensions>
          <ns3:TrackPointExtension>
            <ns3:atemp>14.0</ns3:atemp>
            <ns3:hr>137</ns3:hr>
          </ns3:TrackPointExtension>
        </extensions>
      </trkpt>
      <trkpt lat="-22.03882508911192417144775390625" lon="166.457073725759983062744140625">
        <ele>919.79998779296875</ele>
        <time>2016-08-12T19:32:09.000Z</time>
        <extensions>
          <ns3:TrackPointExtension>
            <ns3:atemp>14.0</ns3:atemp>
            <ns3:hr>137</ns3:hr>
          </ns3:TrackPointExtension>
        </extensions>
      </trkpt>
      <trkpt lat="-22.03881620429456233978271484375" lon="166.45709954202175140380859375">
        <ele>919.79998779296875</ele>
        <time>2016-08-12T19:32:10.000Z</time>
        <extensions>
          <ns3:TrackPointExtension>
            <ns3:atemp>14.0</ns3:atemp>
            <ns3:hr>137</ns3:hr>
          </ns3:TrackPointExtension>
        </extensions>
      </trkpt>
      <trkpt lat="-22.038810588419437408447265625" lon="166.45712376572191715240478515625">
        <ele>919.79998779296875</ele>
        <time>2016-08-12T19:32:11.000Z</time>
        <extensions>
          <ns3:TrackPointExtension>
            <ns3:atemp>14.0</ns3:atemp>
            <ns3:hr>138</ns3:hr>
          </ns3:TrackPointExtension>
        </extensions>
      </trkpt>
      <trkpt lat="-22.03880631364881992340087890625" lon="166.457148157060146331787109375">
        <ele>919.5999755859375</ele>
        <time>2016-08-12T19:32:12.000Z</time>
        <extensions>
          <ns3:TrackPointExtension>
            <ns3:atemp>14.0</ns3:atemp>
            <ns3:hr>138</ns3:hr>
          </ns3:TrackPointExtension>
        </extensions>
      </trkpt>
      <trkpt lat="-22.03880279324948787689208984375" lon="166.457176990807056427001953125">
        <ele>919.5999755859375</ele>
        <time>2016-08-12T19:32:13.000Z</time>
        <extensions>
          <ns3:TrackPointExtension>
            <ns3:atemp>14.0</ns3:atemp>
            <ns3:hr>138</ns3:hr>
          </ns3:TrackPointExtension>
        </extensions>
      </trkpt>
      <trkpt lat="-22.038802541792392730712890625" lon="166.45720624364912509918212890625">
        <ele>919.79998779296875</ele>
        <time>2016-08-12T19:32:14.000Z</time>
        <extensions>
          <ns3:TrackPointExtension>
            <ns3:atemp>14.0</ns3:atemp>
            <ns3:hr>138</ns3:hr>
          </ns3:TrackPointExtension>
        </extensions>
      </trkpt>
      <trkpt lat="-22.03880446963012218475341796875" lon="166.457234658300876617431640625">
        <ele>919.79998779296875</ele>
        <time>2016-08-12T19:32:15.000Z</time>
        <extensions>
          <ns3:TrackPointExtension>
            <ns3:atemp>14.0</ns3:atemp>
            <ns3:hr>138</ns3:hr>
          </ns3:TrackPointExtension>
        </extensions>
      </trkpt>
      <trkpt lat="-22.038804553449153900146484375" lon="166.457263492047786712646484375">
        <ele>919.5999755859375</ele>
        <time>2016-08-12T19:32:16.000Z</time>
        <extensions>
          <ns3:TrackPointExtension>
            <ns3:atemp>14.0</ns3:atemp>
            <ns3:hr>137</ns3:hr>
          </ns3:TrackPointExtension>
        </extensions>
      </trkpt>
      <trkpt lat="-22.0388053916394710540771484375" lon="166.4572919905185699462890625">
        <ele>919.5999755859375</ele>
        <time>2016-08-12T19:32:17.000Z</time>
        <extensions>
          <ns3:TrackPointExtension>
            <ns3:atemp>14.0</ns3:atemp>
            <ns3:hr>138</ns3:hr>
          </ns3:TrackPointExtension>
        </extensions>
      </trkpt>
      <trkpt lat="-22.038805224001407623291015625" lon="166.45731839351356029510498046875">
        <ele>919.79998779296875</ele>
        <time>2016-08-12T19:32:18.000Z</time>
        <extensions>
          <ns3:TrackPointExtension>
            <ns3:atemp>14.0</ns3:atemp>
            <ns3:hr>137</ns3:hr>
          </ns3:TrackPointExtension>
        </extensions>
      </trkpt>
      <trkpt lat="-22.03880430199205875396728515625" lon="166.45734203048050403594970703125">
        <ele>919.5999755859375</ele>
        <time>2016-08-12T19:32:19.000Z</time>
        <extensions>
          <ns3:TrackPointExtension>
            <ns3:atemp>14.0</ns3:atemp>
            <ns3:hr>137</ns3:hr>
          </ns3:TrackPointExtension>
        </extensions>
      </trkpt>
      <trkpt lat="-22.03879843465983867645263671875" lon="166.45736885257065296173095703125">
        <ele>919.5999755859375</ele>
        <time>2016-08-12T19:32:20.000Z</time>
        <extensions>
          <ns3:TrackPointExtension>
            <ns3:atemp>14.0</ns3:atemp>
            <ns3:hr>137</ns3:hr>
          </ns3:TrackPointExtension>
        </extensions>
      </trkpt>
      <trkpt lat="-22.03878871165215969085693359375" lon="166.45739081315696239471435546875">
        <ele>919.5999755859375</ele>
        <time>2016-08-12T19:32:21.000Z</time>
        <extensions>
          <ns3:TrackPointExtension>
            <ns3:atemp>14.0</ns3:atemp>
            <ns3:hr>137</ns3:hr>
          </ns3:TrackPointExtension>
        </extensions>
      </trkpt>
      <trkpt lat="-22.03877580352127552032470703125" lon="166.45741067826747894287109375">
        <ele>919.5999755859375</ele>
        <time>2016-08-12T19:32:22.000Z</time>
        <extensions>
          <ns3:TrackPointExtension>
            <ns3:atemp>14.0</ns3:atemp>
            <ns3:hr>137</ns3:hr>
          </ns3:TrackPointExtension>
        </extensions>
      </trkpt>
      <trkpt lat="-22.0387606322765350341796875" lon="166.457430459558963775634765625">
        <ele>919.4000244140625</ele>
        <time>2016-08-12T19:32:23.000Z</time>
        <extensions>
          <ns3:TrackPointExtension>
            <ns3:atemp>14.0</ns3:atemp>
            <ns3:hr>136</ns3:hr>
          </ns3:TrackPointExtension>
        </extensions>
      </trkpt>
      <trkpt lat="-22.03874629922211170196533203125" lon="166.45744764246046543121337890625">
        <ele>919.5999755859375</ele>
        <time>2016-08-12T19:32:24.000Z</time>
        <extensions>
          <ns3:TrackPointExtension>
            <ns3:atemp>14.0</ns3:atemp>
            <ns3:hr>137</ns3:hr>
          </ns3:TrackPointExtension>
        </extensions>
      </trkpt>
      <trkpt lat="-22.038732469081878662109375" lon="166.45746440626680850982666015625">
        <ele>919.79998779296875</ele>
        <time>2016-08-12T19:32:25.000Z</time>
        <extensions>
          <ns3:TrackPointExtension>
            <ns3:atemp>14.0</ns3:atemp>
            <ns3:hr>136</ns3:hr>
          </ns3:TrackPointExtension>
        </extensions>
      </trkpt>
      <trkpt lat="-22.03871729783713817596435546875" lon="166.45748234353959560394287109375">
        <ele>920</ele>
        <time>2016-08-12T19:32:26.000Z</time>
        <extensions>
          <ns3:TrackPointExtension>
            <ns3:atemp>14.0</ns3:atemp>
            <ns3:hr>137</ns3:hr>
          </ns3:TrackPointExtension>
        </extensions>
      </trkpt>
      <trkpt lat="-22.03869952820241451263427734375" lon="166.45749919116497039794921875">
        <ele>919.79998779296875</ele>
        <time>2016-08-12T19:32:27.000Z</time>
        <extensions>
          <ns3:TrackPointExtension>
            <ns3:atemp>14.0</ns3:atemp>
            <ns3:hr>137</ns3:hr>
          </ns3:TrackPointExtension>
        </extensions>
      </trkpt>
      <trkpt lat="-22.0386816747486591339111328125" lon="166.4575188048183917999267578125">
        <ele>919.79998779296875</ele>
        <time>2016-08-12T19:32:28.000Z</time>
        <extensions>
          <ns3:TrackPointExtension>
            <ns3:atemp>14.0</ns3:atemp>
            <ns3:hr>137</ns3:hr>
          </ns3:TrackPointExtension>
        </extensions>
      </trkpt>
      <trkpt lat="-22.03866633586585521697998046875" lon="166.45753850229084491729736328125">
        <ele>919.79998779296875</ele>
        <time>2016-08-12T19:32:29.000Z</time>
        <extensions>
          <ns3:TrackPointExtension>
            <ns3:atemp>14.0</ns3:atemp>
            <ns3:hr>136</ns3:hr>
          </ns3:TrackPointExtension>
        </extensions>
      </trkpt>
      <trkpt lat="-22.038650326430797576904296875" lon="166.45755778066813945770263671875">
        <ele>919.79998779296875</ele>
        <time>2016-08-12T19:32:30.000Z</time>
        <extensions>
          <ns3:TrackPointExtension>
            <ns3:atemp>14.0</ns3:atemp>
            <ns3:hr>136</ns3:hr>
          </ns3:TrackPointExtension>
        </extensions>
      </trkpt>
      <trkpt lat="-22.038634233176708221435546875" lon="166.457578651607036590576171875">
        <ele>919.5999755859375</ele>
        <time>2016-08-12T19:32:31.000Z</time>
        <extensions>
          <ns3:TrackPointExtension>
            <ns3:atemp>14.0</ns3:atemp>
            <ns3:hr>136</ns3:hr>
          </ns3:TrackPointExtension>
        </extensions>
      </trkpt>
      <trkpt lat="-22.038620822131633758544921875" lon="166.45759734325110912322998046875">
        <ele>919.79998779296875</ele>
        <time>2016-08-12T19:32:32.000Z</time>
        <extensions>
          <ns3:TrackPointExtension>
            <ns3:atemp>14.0</ns3:atemp>
            <ns3:hr>136</ns3:hr>
          </ns3:TrackPointExtension>
        </extensions>
      </trkpt>
      <trkpt lat="-22.03860548324882984161376953125" lon="166.4576183818280696868896484375">
        <ele>920.20001220703125</ele>
        <time>2016-08-12T19:32:33.000Z</time>
        <extensions>
          <ns3:TrackPointExtension>
            <ns3:atemp>14.0</ns3:atemp>
            <ns3:hr>136</ns3:hr>
          </ns3:TrackPointExtension>
        </extensions>
      </trkpt>
      <trkpt lat="-22.038593329489231109619140625" lon="166.4576441980898380279541015625">
        <ele>920.20001220703125</ele>
        <time>2016-08-12T19:32:34.000Z</time>
        <extensions>
          <ns3:TrackPointExtension>
            <ns3:atemp>14.0</ns3:atemp>
            <ns3:hr>136</ns3:hr>
          </ns3:TrackPointExtension>
        </extensions>
      </trkpt>
      <trkpt lat="-22.03858050517737865447998046875" lon="166.45766959525644779205322265625">
        <ele>920</ele>
        <time>2016-08-12T19:32:35.000Z</time>
        <extensions>
          <ns3:TrackPointExtension>
            <ns3:atemp>14.0</ns3:atemp>
            <ns3:hr>136</ns3:hr>
          </ns3:TrackPointExtension>
        </extensions>
      </trkpt>
      <trkpt lat="-22.0385680161416530609130859375" lon="166.45769490860402584075927734375">
        <ele>920</ele>
        <time>2016-08-12T19:32:36.000Z</time>
        <extensions>
          <ns3:TrackPointExtension>
            <ns3:atemp>14.0</ns3:atemp>
            <ns3:hr>136</ns3:hr>
          </ns3:TrackPointExtension>
        </extensions>
      </trkpt>
      <trkpt lat="-22.03855887986719608306884765625" lon="166.45772055722773075103759765625">
        <ele>920.20001220703125</ele>
        <time>2016-08-12T19:32:37.000Z</time>
        <extensions>
          <ns3:TrackPointExtension>
            <ns3:atemp>14.0</ns3:atemp>
            <ns3:hr>135</ns3:hr>
          </ns3:TrackPointExtension>
        </extensions>
      </trkpt>
      <trkpt lat="-22.03855033032596111297607421875" lon="166.457748301327228546142578125">
        <ele>920</ele>
        <time>2016-08-12T19:32:38.000Z</time>
        <extensions>
          <ns3:TrackPointExtension>
            <ns3:atemp>14.0</ns3:atemp>
            <ns3:hr>135</ns3:hr>
          </ns3:TrackPointExtension>
        </extensions>
      </trkpt>
      <trkpt lat="-22.03853960148990154266357421875" lon="166.4577722735702991485595703125">
        <ele>919.79998779296875</ele>
        <time>2016-08-12T19:32:39.000Z</time>
        <extensions>
          <ns3:TrackPointExtension>
            <ns3:atemp>14.0</ns3:atemp>
            <ns3:hr>135</ns3:hr>
          </ns3:TrackPointExtension>
        </extensions>
      </trkpt>
      <trkpt lat="-22.0385272800922393798828125" lon="166.4577935636043548583984375">
        <ele>920</ele>
        <time>2016-08-12T19:32:40.000Z</time>
        <extensions>
          <ns3:TrackPointExtension>
            <ns3:atemp>14.0</ns3:atemp>
            <ns3:hr>135</ns3:hr>
          </ns3:TrackPointExtension>
        </extensions>
      </trkpt>
      <trkpt lat="-22.0385120250284671783447265625" lon="166.45781409926712512969970703125">
        <ele>920.20001220703125</ele>
        <time>2016-08-12T19:32:41.000Z</time>
        <extensions>
          <ns3:TrackPointExtension>
            <ns3:atemp>14.0</ns3:atemp>
            <ns3:hr>135</ns3:hr>
          </ns3:TrackPointExtension>
        </extensions>
      </trkpt>
      <trkpt lat="-22.0384976081550121307373046875" lon="166.4578369818627834320068359375">
        <ele>920</ele>
        <time>2016-08-12T19:32:42.000Z</time>
        <extensions>
          <ns3:TrackPointExtension>
            <ns3:atemp>14.0</ns3:atemp>
            <ns3:hr>135</ns3:hr>
          </ns3:TrackPointExtension>
        </extensions>
      </trkpt>
      <trkpt lat="-22.03848511911928653717041015625" lon="166.45785734988749027252197265625">
        <ele>919.79998779296875</ele>
        <time>2016-08-12T19:32:43.000Z</time>
        <extensions>
          <ns3:TrackPointExtension>
            <ns3:atemp>14.0</ns3:atemp>
            <ns3:hr>135</ns3:hr>
          </ns3:TrackPointExtension>
        </extensions>
      </trkpt>
      <trkpt lat="-22.0384714566171169281005859375" lon="166.45787729881703853607177734375">
        <ele>920</ele>
        <time>2016-08-12T19:32:44.000Z</time>
        <extensions>
          <ns3:TrackPointExtension>
            <ns3:atemp>14.0</ns3:atemp>
            <ns3:hr>134</ns3:hr>
          </ns3:TrackPointExtension>
        </extensions>
      </trkpt>
      <trkpt lat="-22.03845477662980556488037109375" lon="166.4578949846327304840087890625">
        <ele>920</ele>
        <time>2016-08-12T19:32:45.000Z</time>
        <extensions>
          <ns3:TrackPointExtension>
            <ns3:atemp>14.0</ns3:atemp>
            <ns3:hr>134</ns3:hr>
          </ns3:TrackPointExtension>
        </extensions>
      </trkpt>
      <trkpt lat="-22.038437090814113616943359375" lon="166.45791585557162761688232421875">
        <ele>919.79998779296875</ele>
        <time>2016-08-12T19:32:46.000Z</time>
        <extensions>
          <ns3:TrackPointExtension>
            <ns3:atemp>14.0</ns3:atemp>
            <ns3:hr>134</ns3:hr>
          </ns3:TrackPointExtension>
        </extensions>
      </trkpt>
      <trkpt lat="-22.03841856680810451507568359375" lon="166.45793437957763671875">
        <ele>919.79998779296875</ele>
        <time>2016-08-12T19:32:47.000Z</time>
        <extensions>
          <ns3:TrackPointExtension>
            <ns3:atemp>14.0</ns3:atemp>
            <ns3:hr>135</ns3:hr>
          </ns3:TrackPointExtension>
        </extensions>
      </trkpt>
      <trkpt lat="-22.03840012662112712860107421875" lon="166.45795424468815326690673828125">
        <ele>920.4000244140625</ele>
        <time>2016-08-12T19:32:48.000Z</time>
        <extensions>
          <ns3:TrackPointExtension>
            <ns3:atemp>14.0</ns3:atemp>
            <ns3:hr>134</ns3:hr>
          </ns3:TrackPointExtension>
        </extensions>
      </trkpt>
      <trkpt lat="-22.03838470391929149627685546875" lon="166.4579788036644458770751953125">
        <ele>920.5999755859375</ele>
        <time>2016-08-12T19:32:49.000Z</time>
        <extensions>
          <ns3:TrackPointExtension>
            <ns3:atemp>14.0</ns3:atemp>
            <ns3:hr>135</ns3:hr>
          </ns3:TrackPointExtension>
        </extensions>
      </trkpt>
      <trkpt lat="-22.03837238252162933349609375" lon="166.45800369791686534881591796875">
        <ele>920.20001220703125</ele>
        <time>2016-08-12T19:32:50.000Z</time>
        <extensions>
          <ns3:TrackPointExtension>
            <ns3:atemp>14.0</ns3:atemp>
            <ns3:hr>135</ns3:hr>
          </ns3:TrackPointExtension>
        </extensions>
      </trkpt>
      <trkpt lat="-22.03836391679942607879638671875" lon="166.4580322802066802978515625">
        <ele>920</ele>
        <time>2016-08-12T19:32:51.000Z</time>
        <extensions>
          <ns3:TrackPointExtension>
            <ns3:atemp>14.0</ns3:atemp>
            <ns3:hr>135</ns3:hr>
          </ns3:TrackPointExtension>
        </extensions>
      </trkpt>
      <trkpt lat="-22.03835603781044483184814453125" lon="166.45806035958230495452880859375">
        <ele>920.20001220703125</ele>
        <time>2016-08-12T19:32:52.000Z</time>
        <extensions>
          <ns3:TrackPointExtension>
            <ns3:atemp>14.0</ns3:atemp>
            <ns3:hr>135</ns3:hr>
          </ns3:TrackPointExtension>
        </extensions>
      </trkpt>
      <trkpt lat="-22.0383514277637004852294921875" lon="166.45808818750083446502685546875">
        <ele>920.5999755859375</ele>
        <time>2016-08-12T19:32:53.000Z</time>
        <extensions>
          <ns3:TrackPointExtension>
            <ns3:atemp>14.0</ns3:atemp>
            <ns3:hr>135</ns3:hr>
          </ns3:TrackPointExtension>
        </extensions>
      </trkpt>
      <trkpt lat="-22.0383537746965885162353515625" lon="166.45812221802771091461181640625">
        <ele>920.20001220703125</ele>
        <time>2016-08-12T19:32:54.000Z</time>
        <extensions>
          <ns3:TrackPointExtension>
            <ns3:atemp>14.0</ns3:atemp>
            <ns3:hr>135</ns3:hr>
          </ns3:TrackPointExtension>
        </extensions>
      </trkpt>
      <trkpt lat="-22.03835637308657169342041015625" lon="166.4581514708697795867919921875">
        <ele>920</ele>
        <time>2016-08-12T19:32:55.000Z</time>
        <extensions>
          <ns3:TrackPointExtension>
            <ns3:atemp>14.0</ns3:atemp>
            <ns3:hr>135</ns3:hr>
          </ns3:TrackPointExtension>
        </extensions>
      </trkpt>
      <trkpt lat="-22.03836659900844097137451171875" lon="166.45818985998630523681640625">
        <ele>919.79998779296875</ele>
        <time>2016-08-12T19:32:56.000Z</time>
        <extensions>
          <ns3:TrackPointExtension>
            <ns3:atemp>14.0</ns3:atemp>
            <ns3:hr>135</ns3:hr>
          </ns3:TrackPointExtension>
        </extensions>
      </trkpt>
      <trkpt lat="-22.038374729454517364501953125" lon="166.45822070538997650146484375">
        <ele>919.79998779296875</ele>
        <time>2016-08-12T19:32:57.000Z</time>
        <extensions>
          <ns3:TrackPointExtension>
            <ns3:atemp>14.0</ns3:atemp>
            <ns3:hr>134</ns3:hr>
          </ns3:TrackPointExtension>
        </extensions>
      </trkpt>
      <trkpt lat="-22.03837833367288112640380859375" lon="166.45825012587010860443115234375">
        <ele>919.79998779296875</ele>
        <time>2016-08-12T19:32:58.000Z</time>
        <extensions>
          <ns3:TrackPointExtension>
            <ns3:atemp>14.0</ns3:atemp>
            <ns3:hr>135</ns3:hr>
          </ns3:TrackPointExtension>
        </extensions>
      </trkpt>
      <trkpt lat="-22.03837933950126171112060546875" lon="166.45827795378863811492919921875">
        <ele>919.79998779296875</ele>
        <time>2016-08-12T19:32:59.000Z</time>
        <extensions>
          <ns3:TrackPointExtension>
            <ns3:atemp>14.0</ns3:atemp>
            <ns3:hr>135</ns3:hr>
          </ns3:TrackPointExtension>
        </extensions>
      </trkpt>
      <trkpt lat="-22.03838118351995944976806640625" lon="166.45830326713621616363525390625">
        <ele>919.79998779296875</ele>
        <time>2016-08-12T19:33:00.000Z</time>
        <extensions>
          <ns3:TrackPointExtension>
            <ns3:atemp>14.0</ns3:atemp>
            <ns3:hr>135</ns3:hr>
          </ns3:TrackPointExtension>
        </extensions>
      </trkpt>
      <trkpt lat="-22.03838235698640346527099609375" lon="166.45833193324506282806396484375">
        <ele>920.20001220703125</ele>
        <time>2016-08-12T19:33:01.000Z</time>
        <extensions>
          <ns3:TrackPointExtension>
            <ns3:atemp>14.0</ns3:atemp>
            <ns3:hr>134</ns3:hr>
          </ns3:TrackPointExtension>
        </extensions>
      </trkpt>
      <trkpt lat="-22.03838168643414974212646484375" lon="166.4583633653819561004638671875">
        <ele>920.5999755859375</ele>
        <time>2016-08-12T19:33:02.000Z</time>
        <extensions>
          <ns3:TrackPointExtension>
            <ns3:atemp>14.0</ns3:atemp>
            <ns3:hr>135</ns3:hr>
          </ns3:TrackPointExtension>
        </extensions>
      </trkpt>
      <trkpt lat="-22.0383816026151180267333984375" lon="166.4583888463675975799560546875">
        <ele>920.5999755859375</ele>
        <time>2016-08-12T19:33:03.000Z</time>
        <extensions>
          <ns3:TrackPointExtension>
            <ns3:atemp>14.0</ns3:atemp>
            <ns3:hr>135</ns3:hr>
          </ns3:TrackPointExtension>
        </extensions>
      </trkpt>
      <trkpt lat="-22.0383812673389911651611328125" lon="166.45841474644839763641357421875">
        <ele>920.4000244140625</ele>
        <time>2016-08-12T19:33:04.000Z</time>
        <extensions>
          <ns3:TrackPointExtension>
            <ns3:atemp>14.0</ns3:atemp>
            <ns3:hr>135</ns3:hr>
          </ns3:TrackPointExtension>
        </extensions>
      </trkpt>
      <trkpt lat="-22.03838177025318145751953125" lon="166.45843989215791225433349609375">
        <ele>920.4000244140625</ele>
        <time>2016-08-12T19:33:05.000Z</time>
        <extensions>
          <ns3:TrackPointExtension>
            <ns3:atemp>14.0</ns3:atemp>
            <ns3:hr>134</ns3:hr>
          </ns3:TrackPointExtension>
        </extensions>
      </trkpt>
      <trkpt lat="-22.03837967477738857269287109375" lon="166.45846520550549030303955078125">
        <ele>920.5999755859375</ele>
        <time>2016-08-12T19:33:06.000Z</time>
        <extensions>
          <ns3:TrackPointExtension>
            <ns3:atemp>14.0</ns3:atemp>
            <ns3:hr>135</ns3:hr>
          </ns3:TrackPointExtension>
        </extensions>
      </trkpt>
      <trkpt lat="-22.0383735559880733489990234375" lon="166.45849219523370265960693359375">
        <ele>920.5999755859375</ele>
        <time>2016-08-12T19:33:07.000Z</time>
        <extensions>
          <ns3:TrackPointExtension>
            <ns3:atemp>14.0</ns3:atemp>
            <ns3:hr>135</ns3:hr>
          </ns3:TrackPointExtension>
        </extensions>
      </trkpt>
      <trkpt lat="-22.0383658446371555328369140625" lon="166.45851918496191501617431640625">
        <ele>920.4000244140625</ele>
        <time>2016-08-12T19:33:08.000Z</time>
        <extensions>
          <ns3:TrackPointExtension>
            <ns3:atemp>14.0</ns3:atemp>
            <ns3:hr>135</ns3:hr>
          </ns3:TrackPointExtension>
        </extensions>
      </trkpt>
      <trkpt lat="-22.03835905529558658599853515625" lon="166.4585460908710956573486328125">
        <ele>920.4000244140625</ele>
        <time>2016-08-12T19:33:09.000Z</time>
        <extensions>
          <ns3:TrackPointExtension>
            <ns3:atemp>14.0</ns3:atemp>
            <ns3:hr>134</ns3:hr>
          </ns3:TrackPointExtension>
        </extensions>
      </trkpt>
      <trkpt lat="-22.0383551158010959625244140625" lon="166.458571068942546844482421875">
        <ele>920.4000244140625</ele>
        <time>2016-08-12T19:33:10.000Z</time>
        <extensions>
          <ns3:TrackPointExtension>
            <ns3:atemp>14.0</ns3:atemp>
            <ns3:hr>135</ns3:hr>
          </ns3:TrackPointExtension>
        </extensions>
      </trkpt>
      <trkpt lat="-22.038351930677890777587890625" lon="166.45859411917626857757568359375">
        <ele>920.20001220703125</ele>
        <time>2016-08-12T19:33:11.000Z</time>
        <extensions>
          <ns3:TrackPointExtension>
            <ns3:atemp>14.0</ns3:atemp>
            <ns3:hr>134</ns3:hr>
          </ns3:TrackPointExtension>
        </extensions>
      </trkpt>
      <trkpt lat="-22.03834824264049530029296875" lon="166.4586181752383708953857421875">
        <ele>920</ele>
        <time>2016-08-12T19:33:12.000Z</time>
        <extensions>
          <ns3:TrackPointExtension>
            <ns3:atemp>14.0</ns3:atemp>
            <ns3:hr>134</ns3:hr>
          </ns3:TrackPointExtension>
        </extensions>
      </trkpt>
      <trkpt lat="-22.03834480606019496917724609375" lon="166.45864315330982208251953125">
        <ele>920</ele>
        <time>2016-08-12T19:33:13.000Z</time>
        <extensions>
          <ns3:TrackPointExtension>
            <ns3:atemp>14.0</ns3:atemp>
            <ns3:hr>134</ns3:hr>
          </ns3:TrackPointExtension>
        </extensions>
      </trkpt>
      <trkpt lat="-22.03834380023181438446044921875" lon="166.45867525599896907806396484375">
        <ele>920.5999755859375</ele>
        <time>2016-08-12T19:33:14.000Z</time>
        <extensions>
          <ns3:TrackPointExtension>
            <ns3:atemp>14.0</ns3:atemp>
            <ns3:hr>134</ns3:hr>
          </ns3:TrackPointExtension>
        </extensions>
      </trkpt>
      <trkpt lat="-22.03834279440343379974365234375" lon="166.45870618522167205810546875">
        <ele>921</ele>
        <time>2016-08-12T19:33:15.000Z</time>
        <extensions>
          <ns3:TrackPointExtension>
            <ns3:atemp>14.0</ns3:atemp>
            <ns3:hr>135</ns3:hr>
          </ns3:TrackPointExtension>
        </extensions>
      </trkpt>
      <trkpt lat="-22.038344554603099822998046875" lon="166.458737365901470184326171875">
        <ele>920.79998779296875</ele>
        <time>2016-08-12T19:33:16.000Z</time>
        <extensions>
          <ns3:TrackPointExtension>
            <ns3:atemp>14.0</ns3:atemp>
            <ns3:hr>134</ns3:hr>
          </ns3:TrackPointExtension>
        </extensions>
      </trkpt>
      <trkpt lat="-22.03834824264049530029296875" lon="166.4587672054767608642578125">
        <ele>920.4000244140625</ele>
        <time>2016-08-12T19:33:17.000Z</time>
        <extensions>
          <ns3:TrackPointExtension>
            <ns3:atemp>14.0</ns3:atemp>
            <ns3:hr>135</ns3:hr>
          </ns3:TrackPointExtension>
        </extensions>
      </trkpt>
      <trkpt lat="-22.03835000284016132354736328125" lon="166.4587915129959583282470703125">
        <ele>920</ele>
        <time>2016-08-12T19:33:18.000Z</time>
        <extensions>
          <ns3:TrackPointExtension>
            <ns3:atemp>14.0</ns3:atemp>
            <ns3:hr>134</ns3:hr>
          </ns3:TrackPointExtension>
        </extensions>
      </trkpt>
      <trkpt lat="-22.0383514277637004852294921875" lon="166.458817832171916961669921875">
        <ele>920.20001220703125</ele>
        <time>2016-08-12T19:33:19.000Z</time>
        <extensions>
          <ns3:TrackPointExtension>
            <ns3:atemp>14.0</ns3:atemp>
            <ns3:hr>134</ns3:hr>
          </ns3:TrackPointExtension>
        </extensions>
      </trkpt>
      <trkpt lat="-22.03835360705852508544921875" lon="166.458839960396289825439453125">
        <ele>920.79998779296875</ele>
        <time>2016-08-12T19:33:20.000Z</time>
        <extensions>
          <ns3:TrackPointExtension>
            <ns3:atemp>14.0</ns3:atemp>
            <ns3:hr>134</ns3:hr>
          </ns3:TrackPointExtension>
        </extensions>
      </trkpt>
      <trkpt lat="-22.03835285268723964691162109375" lon="166.4588637650012969970703125">
        <ele>921</ele>
        <time>2016-08-12T19:33:21.000Z</time>
        <extensions>
          <ns3:TrackPointExtension>
            <ns3:atemp>14.0</ns3:atemp>
            <ns3:hr>134</ns3:hr>
          </ns3:TrackPointExtension>
        </extensions>
      </trkpt>
      <trkpt lat="-22.03835486434400081634521484375" lon="166.45888455212116241455078125">
        <ele>920.79998779296875</ele>
        <time>2016-08-12T19:33:22.000Z</time>
        <extensions>
          <ns3:TrackPointExtension>
            <ns3:atemp>14.0</ns3:atemp>
            <ns3:hr>134</ns3:hr>
          </ns3:TrackPointExtension>
        </extensions>
      </trkpt>
      <trkpt lat="-22.03835771419107913970947265625" lon="166.45890827290713787078857421875">
        <ele>920.5999755859375</ele>
        <time>2016-08-12T19:33:23.000Z</time>
        <extensions>
          <ns3:TrackPointExtension>
            <ns3:atemp>14.0</ns3:atemp>
            <ns3:hr>134</ns3:hr>
          </ns3:TrackPointExtension>
        </extensions>
      </trkpt>
      <trkpt lat="-22.0383611507713794708251953125" lon="166.45893325097858905792236328125">
        <ele>921.20001220703125</ele>
        <time>2016-08-12T19:33:24.000Z</time>
        <extensions>
          <ns3:TrackPointExtension>
            <ns3:atemp>14.0</ns3:atemp>
            <ns3:hr>134</ns3:hr>
          </ns3:TrackPointExtension>
        </extensions>
      </trkpt>
      <trkpt lat="-22.03836240805685520172119140625" lon="166.45895822905004024505615234375">
        <ele>921.20001220703125</ele>
        <time>2016-08-12T19:33:25.000Z</time>
        <extensions>
          <ns3:TrackPointExtension>
            <ns3:atemp>14.0</ns3:atemp>
            <ns3:hr>134</ns3:hr>
          </ns3:TrackPointExtension>
        </extensions>
      </trkpt>
      <trkpt lat="-22.0383698679506778717041015625" lon="166.45898622460663318634033203125">
        <ele>921</ele>
        <time>2016-08-12T19:33:26.000Z</time>
        <extensions>
          <ns3:TrackPointExtension>
            <ns3:atemp>14.0</ns3:atemp>
            <ns3:hr>134</ns3:hr>
          </ns3:TrackPointExtension>
        </extensions>
      </trkpt>
      <trkpt lat="-22.03837866894900798797607421875" lon="166.4590127952396869659423828125">
        <ele>921</ele>
        <time>2016-08-12T19:33:27.000Z</time>
        <extensions>
          <ns3:TrackPointExtension>
            <ns3:atemp>14.0</ns3:atemp>
            <ns3:hr>134</ns3:hr>
          </ns3:TrackPointExtension>
        </extensions>
      </trkpt>
      <trkpt lat="-22.0383869670331478118896484375" lon="166.4590352587401866912841796875">
        <ele>921.4000244140625</ele>
        <time>2016-08-12T19:33:28.000Z</time>
        <extensions>
          <ns3:TrackPointExtension>
            <ns3:atemp>14.0</ns3:atemp>
            <ns3:hr>135</ns3:hr>
          </ns3:TrackPointExtension>
        </extensions>
      </trkpt>
      <trkpt lat="-22.0383896492421627044677734375" lon="166.4590593986213207244873046875">
        <ele>921.4000244140625</ele>
        <time>2016-08-12T19:33:29.000Z</time>
        <extensions>
          <ns3:TrackPointExtension>
            <ns3:atemp>14.0</ns3:atemp>
            <ns3:hr>135</ns3:hr>
          </ns3:TrackPointExtension>
        </extensions>
      </trkpt>
      <trkpt lat="-22.03839006833732128143310546875" lon="166.45908462814986705780029296875">
        <ele>921</ele>
        <time>2016-08-12T19:33:30.000Z</time>
        <extensions>
          <ns3:TrackPointExtension>
            <ns3:atemp>14.0</ns3:atemp>
            <ns3:hr>135</ns3:hr>
          </ns3:TrackPointExtension>
        </extensions>
      </trkpt>
      <trkpt lat="-22.03839157707989215850830078125" lon="166.45910876803100109100341796875">
        <ele>920.79998779296875</ele>
        <time>2016-08-12T19:33:31.000Z</time>
        <extensions>
          <ns3:TrackPointExtension>
            <ns3:atemp>14.0</ns3:atemp>
            <ns3:hr>135</ns3:hr>
          </ns3:TrackPointExtension>
        </extensions>
      </trkpt>
      <trkpt lat="-22.03838973306119441986083984375" lon="166.45913131535053253173828125">
        <ele>921</ele>
        <time>2016-08-12T19:33:32.000Z</time>
        <extensions>
          <ns3:TrackPointExtension>
            <ns3:atemp>14.0</ns3:atemp>
            <ns3:hr>135</ns3:hr>
          </ns3:TrackPointExtension>
        </extensions>
      </trkpt>
      <trkpt lat="-22.03838579356670379638671875" lon="166.45915000699460506439208984375">
        <ele>921</ele>
        <time>2016-08-12T19:33:33.000Z</time>
        <extensions>
          <ns3:TrackPointExtension>
            <ns3:atemp>14.0</ns3:atemp>
            <ns3:hr>135</ns3:hr>
          </ns3:TrackPointExtension>
        </extensions>
      </trkpt>
      <trkpt lat="-22.0383772440254688262939453125" lon="166.45917045883834362030029296875">
        <ele>920.79998779296875</ele>
        <time>2016-08-12T19:33:34.000Z</time>
        <extensions>
          <ns3:TrackPointExtension>
            <ns3:atemp>14.0</ns3:atemp>
            <ns3:hr>135</ns3:hr>
          </ns3:TrackPointExtension>
        </extensions>
      </trkpt>
      <trkpt lat="-22.0383678562939167022705078125" lon="166.45918588154017925262451171875">
        <ele>921</ele>
        <time>2016-08-12T19:33:35.000Z</time>
        <extensions>
          <ns3:TrackPointExtension>
            <ns3:atemp>14.0</ns3:atemp>
            <ns3:hr>135</ns3:hr>
          </ns3:TrackPointExtension>
        </extensions>
      </trkpt>
      <trkpt lat="-22.03835402615368366241455078125" lon="166.45919971168041229248046875">
        <ele>921.20001220703125</ele>
        <time>2016-08-12T19:33:36.000Z</time>
        <extensions>
          <ns3:TrackPointExtension>
            <ns3:atemp>14.0</ns3:atemp>
            <ns3:hr>135</ns3:hr>
          </ns3:TrackPointExtension>
        </extensions>
      </trkpt>
      <trkpt lat="-22.038335502147674560546875" lon="166.459218822419643402099609375">
        <ele>921.20001220703125</ele>
        <time>2016-08-12T19:33:37.000Z</time>
        <extensions>
          <ns3:TrackPointExtension>
            <ns3:atemp>14.0</ns3:atemp>
            <ns3:hr>135</ns3:hr>
          </ns3:TrackPointExtension>
        </extensions>
      </trkpt>
      <trkpt lat="-22.03832234255969524383544921875" lon="166.45923784933984279632568359375">
        <ele>921</ele>
        <time>2016-08-12T19:33:38.000Z</time>
        <extensions>
          <ns3:TrackPointExtension>
            <ns3:atemp>14.0</ns3:atemp>
            <ns3:hr>135</ns3:hr>
          </ns3:TrackPointExtension>
        </extensions>
      </trkpt>
      <trkpt lat="-22.03831295482814311981201171875" lon="166.4592629112303256988525390625">
        <ele>921.20001220703125</ele>
        <time>2016-08-12T19:33:39.000Z</time>
        <extensions>
          <ns3:TrackPointExtension>
            <ns3:atemp>14.0</ns3:atemp>
            <ns3:hr>135</ns3:hr>
          </ns3:TrackPointExtension>
        </extensions>
      </trkpt>
      <trkpt lat="-22.03830407001078128814697265625" lon="166.459285877645015716552734375">
        <ele>921.5999755859375</ele>
        <time>2016-08-12T19:33:40.000Z</time>
        <extensions>
          <ns3:TrackPointExtension>
            <ns3:atemp>14.0</ns3:atemp>
            <ns3:hr>135</ns3:hr>
          </ns3:TrackPointExtension>
        </extensions>
      </trkpt>
      <trkpt lat="-22.0382966101169586181640625" lon="166.45930373109877109527587890625">
        <ele>921.4000244140625</ele>
        <time>2016-08-12T19:33:41.000Z</time>
        <extensions>
          <ns3:TrackPointExtension>
            <ns3:atemp>14.0</ns3:atemp>
            <ns3:hr>135</ns3:hr>
          </ns3:TrackPointExtension>
        </extensions>
      </trkpt>
      <trkpt lat="-22.03828847967088222503662109375" lon="166.4593286253511905670166015625">
        <ele>921.4000244140625</ele>
        <time>2016-08-12T19:33:42.000Z</time>
        <extensions>
          <ns3:TrackPointExtension>
            <ns3:atemp>14.0</ns3:atemp>
            <ns3:hr>135</ns3:hr>
          </ns3:TrackPointExtension>
        </extensions>
      </trkpt>
      <trkpt lat="-22.038281857967376708984375" lon="166.45935134030878543853759765625">
        <ele>921.5999755859375</ele>
        <time>2016-08-12T19:33:43.000Z</time>
        <extensions>
          <ns3:TrackPointExtension>
            <ns3:atemp>14.0</ns3:atemp>
            <ns3:hr>135</ns3:hr>
          </ns3:TrackPointExtension>
        </extensions>
      </trkpt>
      <trkpt lat="-22.03827691264450550079345703125" lon="166.45937749184668064117431640625">
        <ele>921.79998779296875</ele>
        <time>2016-08-12T19:33:44.000Z</time>
        <extensions>
          <ns3:TrackPointExtension>
            <ns3:atemp>14.0</ns3:atemp>
            <ns3:hr>135</ns3:hr>
          </ns3:TrackPointExtension>
        </extensions>
      </trkpt>
      <trkpt lat="-22.03827087767422199249267578125" lon="166.45940364338457584381103515625">
        <ele>921.79998779296875</ele>
        <time>2016-08-12T19:33:45.000Z</time>
        <extensions>
          <ns3:TrackPointExtension>
            <ns3:atemp>14.0</ns3:atemp>
            <ns3:hr>135</ns3:hr>
          </ns3:TrackPointExtension>
        </extensions>
      </trkpt>
      <trkpt lat="-22.0382615737617015838623046875" lon="166.45942577160894870758056640625">
        <ele>921.5999755859375</ele>
        <time>2016-08-12T19:33:46.000Z</time>
        <extensions>
          <ns3:TrackPointExtension>
            <ns3:atemp>14.0</ns3:atemp>
            <ns3:hr>135</ns3:hr>
          </ns3:TrackPointExtension>
        </extensions>
      </trkpt>
      <trkpt lat="-22.03825168311595916748046875" lon="166.45945074968039989471435546875">
        <ele>921.5999755859375</ele>
        <time>2016-08-12T19:33:47.000Z</time>
        <extensions>
          <ns3:TrackPointExtension>
            <ns3:atemp>14.0</ns3:atemp>
            <ns3:hr>136</ns3:hr>
          </ns3:TrackPointExtension>
        </extensions>
      </trkpt>
      <trkpt lat="-22.038241960108280181884765625" lon="166.45947254262864589691162109375">
        <ele>922</ele>
        <time>2016-08-12T19:33:48.000Z</time>
        <extensions>
          <ns3:TrackPointExtension>
            <ns3:atemp>14.0</ns3:atemp>
            <ns3:hr>136</ns3:hr>
          </ns3:TrackPointExtension>
        </extensions>
      </trkpt>
      <trkpt lat="-22.038231231272220611572265625" lon="166.45949768833816051483154296875">
        <ele>922</ele>
        <time>2016-08-12T19:33:49.000Z</time>
        <extensions>
          <ns3:TrackPointExtension>
            <ns3:atemp>14.0</ns3:atemp>
            <ns3:hr>136</ns3:hr>
          </ns3:TrackPointExtension>
        </extensions>
      </trkpt>
      <trkpt lat="-22.03822209499776363372802734375" lon="166.4595230855047702789306640625">
        <ele>921.79998779296875</ele>
        <time>2016-08-12T19:33:50.000Z</time>
        <extensions>
          <ns3:TrackPointExtension>
            <ns3:atemp>14.0</ns3:atemp>
            <ns3:hr>136</ns3:hr>
          </ns3:TrackPointExtension>
        </extensions>
      </trkpt>
      <trkpt lat="-22.03821321018040180206298828125" lon="166.45954680629074573516845703125">
        <ele>921.79998779296875</ele>
        <time>2016-08-12T19:33:51.000Z</time>
        <extensions>
          <ns3:TrackPointExtension>
            <ns3:atemp>14.0</ns3:atemp>
            <ns3:hr>137</ns3:hr>
          </ns3:TrackPointExtension>
        </extensions>
      </trkpt>
      <trkpt lat="-22.03820499591529369354248046875" lon="166.45957245491445064544677734375">
        <ele>922.4000244140625</ele>
        <time>2016-08-12T19:33:52.000Z</time>
        <extensions>
          <ns3:TrackPointExtension>
            <ns3:atemp>14.0</ns3:atemp>
            <ns3:hr>137</ns3:hr>
          </ns3:TrackPointExtension>
        </extensions>
      </trkpt>
      <trkpt lat="-22.03819761984050273895263671875" lon="166.4595973491668701171875">
        <ele>922.4000244140625</ele>
        <time>2016-08-12T19:33:53.000Z</time>
        <extensions>
          <ns3:TrackPointExtension>
            <ns3:atemp>14.0</ns3:atemp>
            <ns3:hr>137</ns3:hr>
          </ns3:TrackPointExtension>
        </extensions>
      </trkpt>
      <trkpt lat="-22.03819141723215579986572265625" lon="166.4596226625144481658935546875">
        <ele>922</ele>
        <time>2016-08-12T19:33:54.000Z</time>
        <extensions>
          <ns3:TrackPointExtension>
            <ns3:atemp>14.0</ns3:atemp>
            <ns3:hr>137</ns3:hr>
          </ns3:TrackPointExtension>
        </extensions>
      </trkpt>
      <trkpt lat="-22.0381847955286502838134765625" lon="166.45965007133781909942626953125">
        <ele>922</ele>
        <time>2016-08-12T19:33:55.000Z</time>
        <extensions>
          <ns3:TrackPointExtension>
            <ns3:atemp>14.0</ns3:atemp>
            <ns3:hr>137</ns3:hr>
          </ns3:TrackPointExtension>
        </extensions>
      </trkpt>
      <trkpt lat="-22.03817817382514476776123046875" lon="166.459678150713443756103515625">
        <ele>922.20001220703125</ele>
        <time>2016-08-12T19:33:56.000Z</time>
        <extensions>
          <ns3:TrackPointExtension>
            <ns3:atemp>14.0</ns3:atemp>
            <ns3:hr>137</ns3:hr>
          </ns3:TrackPointExtension>
        </extensions>
      </trkpt>
      <trkpt lat="-22.03817163594067096710205078125" lon="166.459708325564861297607421875">
        <ele>922.20001220703125</ele>
        <time>2016-08-12T19:33:57.000Z</time>
        <extensions>
          <ns3:TrackPointExtension>
            <ns3:atemp>14.0</ns3:atemp>
            <ns3:hr>137</ns3:hr>
          </ns3:TrackPointExtension>
        </extensions>
      </trkpt>
      <trkpt lat="-22.03816560097038745880126953125" lon="166.4597366563975811004638671875">
        <ele>922.20001220703125</ele>
        <time>2016-08-12T19:33:58.000Z</time>
        <extensions>
          <ns3:TrackPointExtension>
            <ns3:atemp>14.0</ns3:atemp>
            <ns3:hr>137</ns3:hr>
          </ns3:TrackPointExtension>
        </extensions>
      </trkpt>
      <trkpt lat="-22.03816006891429424285888671875" lon="166.45976674742996692657470703125">
        <ele>922.20001220703125</ele>
        <time>2016-08-12T19:33:59.000Z</time>
        <extensions>
          <ns3:TrackPointExtension>
            <ns3:atemp>14.0</ns3:atemp>
            <ns3:hr>137</ns3:hr>
          </ns3:TrackPointExtension>
        </extensions>
      </trkpt>
      <trkpt lat="-22.03815872780978679656982421875" lon="166.459798850119113922119140625">
        <ele>922.5999755859375</ele>
        <time>2016-08-12T19:34:00.000Z</time>
        <extensions>
          <ns3:TrackPointExtension>
            <ns3:atemp>14.0</ns3:atemp>
            <ns3:hr>137</ns3:hr>
          </ns3:TrackPointExtension>
        </extensions>
      </trkpt>
      <trkpt lat="-22.0381571352481842041015625" lon="166.45982609130442142486572265625">
        <ele>922.5999755859375</ele>
        <time>2016-08-12T19:34:01.000Z</time>
        <extensions>
          <ns3:TrackPointExtension>
            <ns3:atemp>14.0</ns3:atemp>
            <ns3:hr>137</ns3:hr>
          </ns3:TrackPointExtension>
        </extensions>
      </trkpt>
      <trkpt lat="-22.0381598174571990966796875" lon="166.45985978655517101287841796875">
        <ele>922.4000244140625</ele>
        <time>2016-08-12T19:34:02.000Z</time>
        <extensions>
          <ns3:TrackPointExtension>
            <ns3:atemp>14.0</ns3:atemp>
            <ns3:hr>137</ns3:hr>
          </ns3:TrackPointExtension>
        </extensions>
      </trkpt>
      <trkpt lat="-22.03815956600010395050048828125" lon="166.45988929085433483123779296875">
        <ele>922.4000244140625</ele>
        <time>2016-08-12T19:34:03.000Z</time>
        <extensions>
          <ns3:TrackPointExtension>
            <ns3:atemp>14.0</ns3:atemp>
            <ns3:hr>137</ns3:hr>
          </ns3:TrackPointExtension>
        </extensions>
      </trkpt>
      <trkpt lat="-22.03815822489559650421142578125" lon="166.45991393364965915679931640625">
        <ele>922.79998779296875</ele>
        <time>2016-08-12T19:34:04.000Z</time>
        <extensions>
          <ns3:TrackPointExtension>
            <ns3:atemp>14.0</ns3:atemp>
            <ns3:hr>137</ns3:hr>
          </ns3:TrackPointExtension>
        </extensions>
      </trkpt>
      <trkpt lat="-22.0381583087146282196044921875" lon="166.45994477905333042144775390625">
        <ele>922.5999755859375</ele>
        <time>2016-08-12T19:34:05.000Z</time>
        <extensions>
          <ns3:TrackPointExtension>
            <ns3:atemp>14.0</ns3:atemp>
            <ns3:hr>137</ns3:hr>
          </ns3:TrackPointExtension>
        </extensions>
      </trkpt>
      <trkpt lat="-22.0381586439907550811767578125" lon="166.45997218787670135498046875">
        <ele>922.5999755859375</ele>
        <time>2016-08-12T19:34:06.000Z</time>
        <extensions>
          <ns3:TrackPointExtension>
            <ns3:atemp>14.0</ns3:atemp>
            <ns3:hr>138</ns3:hr>
          </ns3:TrackPointExtension>
        </extensions>
      </trkpt>
      <trkpt lat="-22.0381598174571990966796875" lon="166.45999926142394542694091796875">
        <ele>922.79998779296875</ele>
        <time>2016-08-12T19:34:07.000Z</time>
        <extensions>
          <ns3:TrackPointExtension>
            <ns3:atemp>14.0</ns3:atemp>
            <ns3:hr>138</ns3:hr>
          </ns3:TrackPointExtension>
        </extensions>
      </trkpt>
      <trkpt lat="-22.03815906308591365814208984375" lon="166.46002558059990406036376953125">
        <ele>923.4000244140625</ele>
        <time>2016-08-12T19:34:08.000Z</time>
        <extensions>
          <ns3:TrackPointExtension>
            <ns3:atemp>14.0</ns3:atemp>
            <ns3:hr>138</ns3:hr>
          </ns3:TrackPointExtension>
        </extensions>
      </trkpt>
      <trkpt lat="-22.03815856017172336578369140625" lon="166.4600457809865474700927734375">
        <ele>923.20001220703125</ele>
        <time>2016-08-12T19:34:09.000Z</time>
        <extensions>
          <ns3:TrackPointExtension>
            <ns3:atemp>14.0</ns3:atemp>
            <ns3:hr>137</ns3:hr>
          </ns3:TrackPointExtension>
        </extensions>
      </trkpt>
      <trkpt lat="-22.03815805725753307342529296875" lon="166.4600702561438083648681640625">
        <ele>923.20001220703125</ele>
        <time>2016-08-12T19:34:10.000Z</time>
        <extensions>
          <ns3:TrackPointExtension>
            <ns3:atemp>14.0</ns3:atemp>
            <ns3:hr>137</ns3:hr>
          </ns3:TrackPointExtension>
        </extensions>
      </trkpt>
      <trkpt lat="-22.03815906308591365814208984375" lon="166.46009548567235469818115234375">
        <ele>923.4000244140625</ele>
        <time>2016-08-12T19:34:11.000Z</time>
        <extensions>
          <ns3:TrackPointExtension>
            <ns3:atemp>14.0</ns3:atemp>
            <ns3:hr>137</ns3:hr>
          </ns3:TrackPointExtension>
        </extensions>
      </trkpt>
      <trkpt lat="-22.0381557941436767578125" lon="166.46011979319155216217041015625">
        <ele>923.4000244140625</ele>
        <time>2016-08-12T19:34:12.000Z</time>
        <extensions>
          <ns3:TrackPointExtension>
            <ns3:atemp>14.0</ns3:atemp>
            <ns3:hr>137</ns3:hr>
          </ns3:TrackPointExtension>
        </extensions>
      </trkpt>
      <trkpt lat="-22.03815420158207416534423828125" lon="166.4601480402052402496337890625">
        <ele>923.20001220703125</ele>
        <time>2016-08-12T19:34:13.000Z</time>
        <extensions>
          <ns3:TrackPointExtension>
            <ns3:atemp>14.0</ns3:atemp>
            <ns3:hr>137</ns3:hr>
          </ns3:TrackPointExtension>
        </extensions>
      </trkpt>
      <trkpt lat="-22.038152106106281280517578125" lon="166.46017142571508884429931640625">
        <ele>923.4000244140625</ele>
        <time>2016-08-12T19:34:14.000Z</time>
        <extensions>
          <ns3:TrackPointExtension>
            <ns3:atemp>14.0</ns3:atemp>
            <ns3:hr>137</ns3:hr>
          </ns3:TrackPointExtension>
        </extensions>
      </trkpt>
      <trkpt lat="-22.0381495915353298187255859375" lon="166.46018986590206623077392578125">
        <ele>924</ele>
        <time>2016-08-12T19:34:15.000Z</time>
        <extensions>
          <ns3:TrackPointExtension>
            <ns3:atemp>14.0</ns3:atemp>
            <ns3:hr>137</ns3:hr>
          </ns3:TrackPointExtension>
        </extensions>
      </trkpt>
      <trkpt lat="-22.038142383098602294921875" lon="166.4602100662887096405029296875">
        <ele>924</ele>
        <time>2016-08-12T19:34:16.000Z</time>
        <extensions>
          <ns3:TrackPointExtension>
            <ns3:atemp>14.0</ns3:atemp>
            <ns3:hr>137</ns3:hr>
          </ns3:TrackPointExtension>
        </extensions>
      </trkpt>
      <trkpt lat="-22.03813676722347736358642578125" lon="166.46022674627602100372314453125">
        <ele>923.79998779296875</ele>
        <time>2016-08-12T19:34:17.000Z</time>
        <extensions>
          <ns3:TrackPointExtension>
            <ns3:atemp>14.0</ns3:atemp>
            <ns3:hr>138</ns3:hr>
          </ns3:TrackPointExtension>
        </extensions>
      </trkpt>
      <trkpt lat="-22.0381314866244792938232421875" lon="166.46025172434747219085693359375">
        <ele>924.4000244140625</ele>
        <time>2016-08-12T19:34:18.000Z</time>
        <extensions>
          <ns3:TrackPointExtension>
            <ns3:atemp>14.0</ns3:atemp>
            <ns3:hr>137</ns3:hr>
          </ns3:TrackPointExtension>
        </extensions>
      </trkpt>
      <trkpt lat="-22.03813106752932071685791015625" lon="166.46027670241892337799072265625">
        <ele>924.79998779296875</ele>
        <time>2016-08-12T19:34:19.000Z</time>
        <extensions>
          <ns3:TrackPointExtension>
            <ns3:atemp>14.0</ns3:atemp>
            <ns3:hr>138</ns3:hr>
          </ns3:TrackPointExtension>
        </extensions>
      </trkpt>
      <trkpt lat="-22.038134671747684478759765625" lon="166.46029950119554996490478515625">
        <ele>924.79998779296875</ele>
        <time>2016-08-12T19:34:20.000Z</time>
        <extensions>
          <ns3:TrackPointExtension>
            <ns3:atemp>14.0</ns3:atemp>
            <ns3:hr>138</ns3:hr>
          </ns3:TrackPointExtension>
        </extensions>
      </trkpt>
      <trkpt lat="-22.03813794068992137908935546875" lon="166.46032598800957202911376953125">
        <ele>924.5999755859375</ele>
        <time>2016-08-12T19:34:21.000Z</time>
        <extensions>
          <ns3:TrackPointExtension>
            <ns3:atemp>14.0</ns3:atemp>
            <ns3:hr>138</ns3:hr>
          </ns3:TrackPointExtension>
        </extensions>
      </trkpt>
      <trkpt lat="-22.038143388926982879638671875" lon="166.4603475295007228851318359375">
        <ele>924.5999755859375</ele>
        <time>2016-08-12T19:34:22.000Z</time>
        <extensions>
          <ns3:TrackPointExtension>
            <ns3:atemp>14.0</ns3:atemp>
            <ns3:hr>138</ns3:hr>
          </ns3:TrackPointExtension>
        </extensions>
      </trkpt>
      <trkpt lat="-22.03815512359142303466796875" lon="166.4603720046579837799072265625">
        <ele>924.79998779296875</ele>
        <time>2016-08-12T19:34:23.000Z</time>
        <extensions>
          <ns3:TrackPointExtension>
            <ns3:atemp>14.0</ns3:atemp>
            <ns3:hr>139</ns3:hr>
          </ns3:TrackPointExtension>
        </extensions>
      </trkpt>
      <trkpt lat="-22.0381717197597026824951171875" lon="166.46039404906332492828369140625">
        <ele>924.5999755859375</ele>
        <time>2016-08-12T19:34:24.000Z</time>
        <extensions>
          <ns3:TrackPointExtension>
            <ns3:atemp>14.0</ns3:atemp>
            <ns3:hr>139</ns3:hr>
          </ns3:TrackPointExtension>
        </extensions>
      </trkpt>
      <trkpt lat="-22.03818923793733119964599609375" lon="166.46041399799287319183349609375">
        <ele>924.5999755859375</ele>
        <time>2016-08-12T19:34:25.000Z</time>
        <extensions>
          <ns3:TrackPointExtension>
            <ns3:atemp>14.0</ns3:atemp>
            <ns3:hr>139</ns3:hr>
          </ns3:TrackPointExtension>
        </extensions>
      </trkpt>
      <trkpt lat="-22.03821471892297267913818359375" lon="166.46043377928435802459716796875">
        <ele>924.79998779296875</ele>
        <time>2016-08-12T19:34:26.000Z</time>
        <extensions>
          <ns3:TrackPointExtension>
            <ns3:atemp>14.0</ns3:atemp>
            <ns3:hr>139</ns3:hr>
          </ns3:TrackPointExtension>
        </extensions>
      </trkpt>
      <trkpt lat="-22.0382404513657093048095703125" lon="166.46045054309070110321044921875">
        <ele>924.4000244140625</ele>
        <time>2016-08-12T19:34:27.000Z</time>
        <extensions>
          <ns3:TrackPointExtension>
            <ns3:atemp>14.0</ns3:atemp>
            <ns3:hr>139</ns3:hr>
          </ns3:TrackPointExtension>
        </extensions>
      </trkpt>
      <trkpt lat="-22.0382622443139553070068359375" lon="166.460465379059314727783203125">
        <ele>924.20001220703125</ele>
        <time>2016-08-12T19:34:28.000Z</time>
        <extensions>
          <ns3:TrackPointExtension>
            <ns3:atemp>14.0</ns3:atemp>
            <ns3:hr>139</ns3:hr>
          </ns3:TrackPointExtension>
        </extensions>
      </trkpt>
      <trkpt lat="-22.03828177414834499359130859375" lon="166.46048373542726039886474609375">
        <ele>924.20001220703125</ele>
        <time>2016-08-12T19:34:29.000Z</time>
        <extensions>
          <ns3:TrackPointExtension>
            <ns3:atemp>14.0</ns3:atemp>
            <ns3:hr>139</ns3:hr>
          </ns3:TrackPointExtension>
        </extensions>
      </trkpt>
      <trkpt lat="-22.03829987905919551849365234375" lon="166.46050385199487209320068359375">
        <ele>924.4000244140625</ele>
        <time>2016-08-12T19:34:30.000Z</time>
        <extensions>
          <ns3:TrackPointExtension>
            <ns3:atemp>14.0</ns3:atemp>
            <ns3:hr>139</ns3:hr>
          </ns3:TrackPointExtension>
        </extensions>
      </trkpt>
      <trkpt lat="-22.03831228427588939666748046875" lon="166.46052799187600612640380859375">
        <ele>924.20001220703125</ele>
        <time>2016-08-12T19:34:31.000Z</time>
        <extensions>
          <ns3:TrackPointExtension>
            <ns3:atemp>14.0</ns3:atemp>
            <ns3:hr>139</ns3:hr>
          </ns3:TrackPointExtension>
        </extensions>
      </trkpt>
      <trkpt lat="-22.03831781633198261260986328125" lon="166.460552550852298736572265625">
        <ele>924</ele>
        <time>2016-08-12T19:34:32.000Z</time>
        <extensions>
          <ns3:TrackPointExtension>
            <ns3:atemp>14.0</ns3:atemp>
            <ns3:hr>139</ns3:hr>
          </ns3:TrackPointExtension>
        </extensions>
      </trkpt>
      <trkpt lat="-22.03831966035068035125732421875" lon="166.46057744510471820831298828125">
        <ele>924</ele>
        <time>2016-08-12T19:34:33.000Z</time>
        <extensions>
          <ns3:TrackPointExtension>
            <ns3:atemp>14.0</ns3:atemp>
            <ns3:hr>139</ns3:hr>
          </ns3:TrackPointExtension>
        </extensions>
      </trkpt>
      <trkpt lat="-22.038314044475555419921875" lon="166.460783220827579498291015625">
        <ele>924.4000244140625</ele>
        <time>2016-08-12T19:34:41.000Z</time>
        <extensions>
          <ns3:TrackPointExtension>
            <ns3:atemp>14.0</ns3:atemp>
          </ns3:TrackPointExtension>
        </extensions>
      </trkpt>
      <trkpt lat="-22.03833592124283313751220703125" lon="166.460991762578487396240234375">
        <ele>924.4000244140625</ele>
        <time>2016-08-12T19:34:49.000Z</time>
        <extensions>
          <ns3:TrackPointExtension>
            <ns3:atemp>14.0</ns3:atemp>
          </ns3:TrackPointExtension>
        </extensions>
      </trkpt>
      <trkpt lat="-22.0384898968040943145751953125" lon="166.46114339120686054229736328125">
        <ele>924</ele>
        <time>2016-08-12T19:34:57.000Z</time>
        <extensions>
          <ns3:TrackPointExtension>
            <ns3:atemp>14.0</ns3:atemp>
            <ns3:hr>138</ns3:hr>
          </ns3:TrackPointExtension>
        </extensions>
      </trkpt>
      <trkpt lat="-22.03861487098038196563720703125" lon="166.46125294268131256103515625">
        <ele>922.79998779296875</ele>
        <time>2016-08-12T19:35:04.000Z</time>
        <extensions>
          <ns3:TrackPointExtension>
            <ns3:atemp>14.0</ns3:atemp>
            <ns3:hr>137</ns3:hr>
          </ns3:TrackPointExtension>
        </extensions>
      </trkpt>
      <trkpt lat="-22.0386099256575107574462890625" lon="166.46128353662788867950439453125">
        <ele>923</ele>
        <time>2016-08-12T19:35:05.000Z</time>
        <extensions>
          <ns3:TrackPointExtension>
            <ns3:atemp>14.0</ns3:atemp>
            <ns3:hr>136</ns3:hr>
          </ns3:TrackPointExtension>
        </extensions>
      </trkpt>
      <trkpt lat="-22.03859492205083370208740234375" lon="166.46129661239683628082275390625">
        <ele>923.20001220703125</ele>
        <time>2016-08-12T19:35:06.000Z</time>
        <extensions>
          <ns3:TrackPointExtension>
            <ns3:atemp>14.0</ns3:atemp>
            <ns3:hr>136</ns3:hr>
          </ns3:TrackPointExtension>
        </extensions>
      </trkpt>
      <trkpt lat="-22.03857078216969966888427734375" lon="166.46130180917680263519287109375">
        <ele>923.20001220703125</ele>
        <time>2016-08-12T19:35:07.000Z</time>
        <extensions>
          <ns3:TrackPointExtension>
            <ns3:atemp>14.0</ns3:atemp>
            <ns3:hr>135</ns3:hr>
          </ns3:TrackPointExtension>
        </extensions>
      </trkpt>
      <trkpt lat="-22.0385502465069293975830078125" lon="166.4613111130893230438232421875">
        <ele>923</ele>
        <time>2016-08-12T19:35:08.000Z</time>
        <extensions>
          <ns3:TrackPointExtension>
            <ns3:atemp>14.0</ns3:atemp>
            <ns3:hr>135</ns3:hr>
          </ns3:TrackPointExtension>
        </extensions>
      </trkpt>
      <trkpt lat="-22.03853130340576171875" lon="166.461321674287319183349609375">
        <ele>923.20001220703125</ele>
        <time>2016-08-12T19:35:09.000Z</time>
        <extensions>
          <ns3:TrackPointExtension>
            <ns3:atemp>14.0</ns3:atemp>
            <ns3:hr>135</ns3:hr>
          </ns3:TrackPointExtension>
        </extensions>
      </trkpt>
      <trkpt lat="-22.0385085046291351318359375" lon="166.4613305591046810150146484375">
        <ele>923.4000244140625</ele>
        <time>2016-08-12T19:35:10.000Z</time>
        <extensions>
          <ns3:TrackPointExtension>
            <ns3:atemp>14.0</ns3:atemp>
            <ns3:hr>135</ns3:hr>
          </ns3:TrackPointExtension>
        </extensions>
      </trkpt>
      <trkpt lat="-22.03848905861377716064453125" lon="166.4613412879407405853271484375">
        <ele>923.5999755859375</ele>
        <time>2016-08-12T19:35:11.000Z</time>
        <extensions>
          <ns3:TrackPointExtension>
            <ns3:atemp>14.0</ns3:atemp>
            <ns3:hr>135</ns3:hr>
          </ns3:TrackPointExtension>
        </extensions>
      </trkpt>
      <trkpt lat="-22.03847221098840236663818359375" lon="166.46135620772838592529296875">
        <ele>923.4000244140625</ele>
        <time>2016-08-12T19:35:12.000Z</time>
        <extensions>
          <ns3:TrackPointExtension>
            <ns3:atemp>14.0</ns3:atemp>
            <ns3:hr>135</ns3:hr>
          </ns3:TrackPointExtension>
        </extensions>
      </trkpt>
      <trkpt lat="-22.0384510047733783721923828125" lon="166.46137322299182415008544921875">
        <ele>923.79998779296875</ele>
        <time>2016-08-12T19:35:13.000Z</time>
        <extensions>
          <ns3:TrackPointExtension>
            <ns3:atemp>14.0</ns3:atemp>
            <ns3:hr>136</ns3:hr>
          </ns3:TrackPointExtension>
        </extensions>
      </trkpt>
      <trkpt lat="-22.038432396948337554931640625" lon="166.46138663403689861297607421875">
        <ele>924</ele>
        <time>2016-08-12T19:35:14.000Z</time>
        <extensions>
          <ns3:TrackPointExtension>
            <ns3:atemp>14.0</ns3:atemp>
            <ns3:hr>135</ns3:hr>
          </ns3:TrackPointExtension>
        </extensions>
      </trkpt>
      <trkpt lat="-22.0384131185710430145263671875" lon="166.46139970980584621429443359375">
        <ele>923.79998779296875</ele>
        <time>2016-08-12T19:35:15.000Z</time>
        <extensions>
          <ns3:TrackPointExtension>
            <ns3:atemp>14.0</ns3:atemp>
            <ns3:hr>136</ns3:hr>
          </ns3:TrackPointExtension>
        </extensions>
      </trkpt>
      <trkpt lat="-22.03839928843080997467041015625" lon="166.46141898818314075469970703125">
        <ele>923.5999755859375</ele>
        <time>2016-08-12T19:35:16.000Z</time>
        <extensions>
          <ns3:TrackPointExtension>
            <ns3:atemp>14.0</ns3:atemp>
            <ns3:hr>136</ns3:hr>
          </ns3:TrackPointExtension>
        </extensions>
      </trkpt>
      <trkpt lat="-22.03838118351995944976806640625" lon="166.46143239922821521759033203125">
        <ele>923.79998779296875</ele>
        <time>2016-08-12T19:35:17.000Z</time>
        <extensions>
          <ns3:TrackPointExtension>
            <ns3:atemp>14.0</ns3:atemp>
            <ns3:hr>136</ns3:hr>
          </ns3:TrackPointExtension>
        </extensions>
      </trkpt>
      <trkpt lat="-22.0383588038384914398193359375" lon="166.46144430153071880340576171875">
        <ele>924</ele>
        <time>2016-08-12T19:35:18.000Z</time>
        <extensions>
          <ns3:TrackPointExtension>
            <ns3:atemp>14.0</ns3:atemp>
            <ns3:hr>136</ns3:hr>
          </ns3:TrackPointExtension>
        </extensions>
      </trkpt>
      <trkpt lat="-22.03833458013832569122314453125" lon="166.4614515937864780426025390625">
        <ele>924</ele>
        <time>2016-08-12T19:35:19.000Z</time>
        <extensions>
          <ns3:TrackPointExtension>
            <ns3:atemp>14.0</ns3:atemp>
            <ns3:hr>136</ns3:hr>
          </ns3:TrackPointExtension>
        </extensions>
      </trkpt>
      <trkpt lat="-22.0383095182478427886962890625" lon="166.46145754493772983551025390625">
        <ele>923.5999755859375</ele>
        <time>2016-08-12T19:35:20.000Z</time>
        <extensions>
          <ns3:TrackPointExtension>
            <ns3:atemp>14.0</ns3:atemp>
            <ns3:hr>136</ns3:hr>
          </ns3:TrackPointExtension>
        </extensions>
      </trkpt>
      <trkpt lat="-22.03828529454767704010009765625" lon="166.4614609815180301666259765625">
        <ele>923.5999755859375</ele>
        <time>2016-08-12T19:35:21.000Z</time>
        <extensions>
          <ns3:TrackPointExtension>
            <ns3:atemp>14.0</ns3:atemp>
            <ns3:hr>136</ns3:hr>
          </ns3:TrackPointExtension>
        </extensions>
      </trkpt>
      <trkpt lat="-22.0382592268288135528564453125" lon="166.4614633284509181976318359375">
        <ele>924</ele>
        <time>2016-08-12T19:35:22.000Z</time>
        <extensions>
          <ns3:TrackPointExtension>
            <ns3:atemp>14.0</ns3:atemp>
            <ns3:hr>136</ns3:hr>
          </ns3:TrackPointExtension>
        </extensions>
      </trkpt>
      <trkpt lat="-22.03823290765285491943359375" lon="166.46146458573639392852783203125">
        <ele>924.20001220703125</ele>
        <time>2016-08-12T19:35:23.000Z</time>
        <extensions>
          <ns3:TrackPointExtension>
            <ns3:atemp>14.0</ns3:atemp>
            <ns3:hr>136</ns3:hr>
          </ns3:TrackPointExtension>
        </extensions>
      </trkpt>
      <trkpt lat="-22.0382086001336574554443359375" lon="166.46146659739315509796142578125">
        <ele>923.79998779296875</ele>
        <time>2016-08-12T19:35:24.000Z</time>
        <extensions>
          <ns3:TrackPointExtension>
            <ns3:atemp>14.0</ns3:atemp>
            <ns3:hr>135</ns3:hr>
          </ns3:TrackPointExtension>
        </extensions>
      </trkpt>
      <trkpt lat="-22.0381812751293182373046875" lon="166.4614681899547576904296875">
        <ele>923.79998779296875</ele>
        <time>2016-08-12T19:35:25.000Z</time>
        <extensions>
          <ns3:TrackPointExtension>
            <ns3:atemp>14.0</ns3:atemp>
            <ns3:hr>136</ns3:hr>
          </ns3:TrackPointExtension>
        </extensions>
      </trkpt>
      <trkpt lat="-22.03815520741045475006103515625" lon="166.46146743558347225189208984375">
        <ele>924</ele>
        <time>2016-08-12T19:35:26.000Z</time>
        <extensions>
          <ns3:TrackPointExtension>
            <ns3:atemp>14.0</ns3:atemp>
            <ns3:hr>136</ns3:hr>
          </ns3:TrackPointExtension>
        </extensions>
      </trkpt>
      <trkpt lat="-22.0381318219006061553955078125" lon="166.4614646695554256439208984375">
        <ele>924.4000244140625</ele>
        <time>2016-08-12T19:35:27.000Z</time>
        <extensions>
          <ns3:TrackPointExtension>
            <ns3:atemp>14.0</ns3:atemp>
            <ns3:hr>136</ns3:hr>
          </ns3:TrackPointExtension>
        </extensions>
      </trkpt>
      <trkpt lat="-22.0381056703627109527587890625" lon="166.46145821548998355865478515625">
        <ele>924.20001220703125</ele>
        <time>2016-08-12T19:35:28.000Z</time>
        <extensions>
          <ns3:TrackPointExtension>
            <ns3:atemp>14.0</ns3:atemp>
            <ns3:hr>136</ns3:hr>
          </ns3:TrackPointExtension>
        </extensions>
      </trkpt>
      <trkpt lat="-22.0380852185189723968505859375" lon="166.4614549465477466583251953125">
        <ele>923.79998779296875</ele>
        <time>2016-08-12T19:35:29.000Z</time>
        <extensions>
          <ns3:TrackPointExtension>
            <ns3:atemp>14.0</ns3:atemp>
            <ns3:hr>136</ns3:hr>
          </ns3:TrackPointExtension>
        </extensions>
      </trkpt>
      <trkpt lat="-22.0380597375333309173583984375" lon="166.461448408663272857666015625">
        <ele>923.79998779296875</ele>
        <time>2016-08-12T19:35:30.000Z</time>
        <extensions>
          <ns3:TrackPointExtension>
            <ns3:atemp>14.0</ns3:atemp>
            <ns3:hr>137</ns3:hr>
          </ns3:TrackPointExtension>
        </extensions>
      </trkpt>
      <trkpt lat="-22.03803266398608684539794921875" lon="166.46144279278814792633056640625">
        <ele>923.79998779296875</ele>
        <time>2016-08-12T19:35:31.000Z</time>
        <extensions>
          <ns3:TrackPointExtension>
            <ns3:atemp>14.0</ns3:atemp>
            <ns3:hr>136</ns3:hr>
          </ns3:TrackPointExtension>
        </extensions>
      </trkpt>
      <trkpt lat="-22.03800668008625507354736328125" lon="166.46143910475075244903564453125">
        <ele>924.20001220703125</ele>
        <time>2016-08-12T19:35:32.000Z</time>
        <extensions>
          <ns3:TrackPointExtension>
            <ns3:atemp>14.0</ns3:atemp>
            <ns3:hr>137</ns3:hr>
          </ns3:TrackPointExtension>
        </extensions>
      </trkpt>
      <trkpt lat="-22.03797834925353527069091796875" lon="166.4614344947040081024169921875">
        <ele>924.20001220703125</ele>
        <time>2016-08-12T19:35:33.000Z</time>
        <extensions>
          <ns3:TrackPointExtension>
            <ns3:atemp>14.0</ns3:atemp>
            <ns3:hr>136</ns3:hr>
          </ns3:TrackPointExtension>
        </extensions>
      </trkpt>
      <trkpt lat="-22.03795303590595722198486328125" lon="166.46143239922821521759033203125">
        <ele>923.79998779296875</ele>
        <time>2016-08-12T19:35:34.000Z</time>
        <extensions>
          <ns3:TrackPointExtension>
            <ns3:atemp>14.0</ns3:atemp>
            <ns3:hr>136</ns3:hr>
          </ns3:TrackPointExtension>
        </extensions>
      </trkpt>
      <trkpt lat="-22.0379264652729034423828125" lon="166.46143189631402492523193359375">
        <ele>923.79998779296875</ele>
        <time>2016-08-12T19:35:35.000Z</time>
        <extensions>
          <ns3:TrackPointExtension>
            <ns3:atemp>14.0</ns3:atemp>
            <ns3:hr>136</ns3:hr>
          </ns3:TrackPointExtension>
        </extensions>
      </trkpt>
      <trkpt lat="-22.03790022991597652435302734375" lon="166.4614333212375640869140625">
        <ele>924.20001220703125</ele>
        <time>2016-08-12T19:35:36.000Z</time>
        <extensions>
          <ns3:TrackPointExtension>
            <ns3:atemp>14.0</ns3:atemp>
            <ns3:hr>136</ns3:hr>
          </ns3:TrackPointExtension>
        </extensions>
      </trkpt>
      <trkpt lat="-22.03787692822515964508056640625" lon="166.46143625490367412567138671875">
        <ele>924.4000244140625</ele>
        <time>2016-08-12T19:35:37.000Z</time>
        <extensions>
          <ns3:TrackPointExtension>
            <ns3:atemp>14.0</ns3:atemp>
            <ns3:hr>136</ns3:hr>
          </ns3:TrackPointExtension>
        </extensions>
      </trkpt>
      <trkpt lat="-22.0378525368869304656982421875" lon="166.46144329570233821868896484375">
        <ele>924.4000244140625</ele>
        <time>2016-08-12T19:35:38.000Z</time>
        <extensions>
          <ns3:TrackPointExtension>
            <ns3:atemp>14.0</ns3:atemp>
            <ns3:hr>136</ns3:hr>
          </ns3:TrackPointExtension>
        </extensions>
      </trkpt>
      <trkpt lat="-22.03782781027257442474365234375" lon="166.4614542759954929351806640625">
        <ele>924.4000244140625</ele>
        <time>2016-08-12T19:35:39.000Z</time>
        <extensions>
          <ns3:TrackPointExtension>
            <ns3:atemp>14.0</ns3:atemp>
            <ns3:hr>136</ns3:hr>
          </ns3:TrackPointExtension>
        </extensions>
      </trkpt>
      <trkpt lat="-22.0378039218485355377197265625" lon="166.46147028543055057525634765625">
        <ele>924.5999755859375</ele>
        <time>2016-08-12T19:35:40.000Z</time>
        <extensions>
          <ns3:TrackPointExtension>
            <ns3:atemp>14.0</ns3:atemp>
            <ns3:hr>137</ns3:hr>
          </ns3:TrackPointExtension>
        </extensions>
      </trkpt>
      <trkpt lat="-22.037782631814479827880859375" lon="166.46148403175175189971923828125">
        <ele>925</ele>
        <time>2016-08-12T19:35:41.000Z</time>
        <extensions>
          <ns3:TrackPointExtension>
            <ns3:atemp>14.0</ns3:atemp>
            <ns3:hr>136</ns3:hr>
          </ns3:TrackPointExtension>
        </extensions>
      </trkpt>
      <trkpt lat="-22.03776394017040729522705078125" lon="166.4615012146532535552978515625">
        <ele>924.79998779296875</ele>
        <time>2016-08-12T19:35:42.000Z</time>
        <extensions>
          <ns3:TrackPointExtension>
            <ns3:atemp>14.0</ns3:atemp>
            <ns3:hr>137</ns3:hr>
          </ns3:TrackPointExtension>
        </extensions>
      </trkpt>
      <trkpt lat="-22.03774315305054187774658203125" lon="166.4615209959447383880615234375">
        <ele>924.5999755859375</ele>
        <time>2016-08-12T19:35:43.000Z</time>
        <extensions>
          <ns3:TrackPointExtension>
            <ns3:atemp>14.0</ns3:atemp>
            <ns3:hr>137</ns3:hr>
          </ns3:TrackPointExtension>
        </extensions>
      </trkpt>
      <trkpt lat="-22.0377224497497081756591796875" lon="166.46153834648430347442626953125">
        <ele>924.5999755859375</ele>
        <time>2016-08-12T19:35:44.000Z</time>
        <extensions>
          <ns3:TrackPointExtension>
            <ns3:atemp>14.0</ns3:atemp>
            <ns3:hr>137</ns3:hr>
          </ns3:TrackPointExtension>
        </extensions>
      </trkpt>
      <trkpt lat="-22.0377033390104770660400390625" lon="166.46155879832804203033447265625">
        <ele>925.20001220703125</ele>
        <time>2016-08-12T19:35:45.000Z</time>
        <extensions>
          <ns3:TrackPointExtension>
            <ns3:atemp>14.0</ns3:atemp>
            <ns3:hr>137</ns3:hr>
          </ns3:TrackPointExtension>
        </extensions>
      </trkpt>
      <trkpt lat="-22.03769017942249774932861328125" lon="166.46158142946660518646240234375">
        <ele>925.20001220703125</ele>
        <time>2016-08-12T19:35:46.000Z</time>
        <extensions>
          <ns3:TrackPointExtension>
            <ns3:atemp>14.0</ns3:atemp>
            <ns3:hr>136</ns3:hr>
          </ns3:TrackPointExtension>
        </extensions>
      </trkpt>
      <trkpt lat="-22.03768112696707248687744140625" lon="166.46160808391869068145751953125">
        <ele>925</ele>
        <time>2016-08-12T19:35:47.000Z</time>
        <extensions>
          <ns3:TrackPointExtension>
            <ns3:atemp>14.0</ns3:atemp>
            <ns3:hr>137</ns3:hr>
          </ns3:TrackPointExtension>
        </extensions>
      </trkpt>
      <trkpt lat="-22.03767190687358379364013671875" lon="166.461635492742061614990234375">
        <ele>924.79998779296875</ele>
        <time>2016-08-12T19:35:48.000Z</time>
        <extensions>
          <ns3:TrackPointExtension>
            <ns3:atemp>14.0</ns3:atemp>
            <ns3:hr>136</ns3:hr>
          </ns3:TrackPointExtension>
        </extensions>
      </trkpt>
      <trkpt lat="-22.03766570426523685455322265625" lon="166.4616611413657665252685546875">
        <ele>925</ele>
        <time>2016-08-12T19:35:49.000Z</time>
        <extensions>
          <ns3:TrackPointExtension>
            <ns3:atemp>14.0</ns3:atemp>
            <ns3:hr>137</ns3:hr>
          </ns3:TrackPointExtension>
        </extensions>
      </trkpt>
      <trkpt lat="-22.037661261856555938720703125" lon="166.4616876281797885894775390625">
        <ele>925.20001220703125</ele>
        <time>2016-08-12T19:35:50.000Z</time>
        <extensions>
          <ns3:TrackPointExtension>
            <ns3:atemp>14.0</ns3:atemp>
            <ns3:hr>136</ns3:hr>
          </ns3:TrackPointExtension>
        </extensions>
      </trkpt>
      <trkpt lat="-22.03765916638076305389404296875" lon="166.461718641221523284912109375">
        <ele>925.20001220703125</ele>
        <time>2016-08-12T19:35:51.000Z</time>
        <extensions>
          <ns3:TrackPointExtension>
            <ns3:atemp>14.0</ns3:atemp>
            <ns3:hr>137</ns3:hr>
          </ns3:TrackPointExtension>
        </extensions>
      </trkpt>
      <trkpt lat="-22.0376609265804290771484375" lon="166.46174889989197254180908203125">
        <ele>925</ele>
        <time>2016-08-12T19:35:52.000Z</time>
        <extensions>
          <ns3:TrackPointExtension>
            <ns3:atemp>14.0</ns3:atemp>
            <ns3:hr>136</ns3:hr>
          </ns3:TrackPointExtension>
        </extensions>
      </trkpt>
      <trkpt lat="-22.0376647822558879852294921875" lon="166.46177890710532665252685546875">
        <ele>925.20001220703125</ele>
        <time>2016-08-12T19:35:53.000Z</time>
        <extensions>
          <ns3:TrackPointExtension>
            <ns3:atemp>14.0</ns3:atemp>
            <ns3:hr>136</ns3:hr>
          </ns3:TrackPointExtension>
        </extensions>
      </trkpt>
      <trkpt lat="-22.03766754828393459320068359375" lon="166.461808495223522186279296875">
        <ele>925.20001220703125</ele>
        <time>2016-08-12T19:35:54.000Z</time>
        <extensions>
          <ns3:TrackPointExtension>
            <ns3:atemp>14.0</ns3:atemp>
            <ns3:hr>137</ns3:hr>
          </ns3:TrackPointExtension>
        </extensions>
      </trkpt>
      <trkpt lat="-22.03767643310129642486572265625" lon="166.4618415199220180511474609375">
        <ele>925</ele>
        <time>2016-08-12T19:35:55.000Z</time>
        <extensions>
          <ns3:TrackPointExtension>
            <ns3:atemp>14.0</ns3:atemp>
            <ns3:hr>136</ns3:hr>
          </ns3:TrackPointExtension>
        </extensions>
      </trkpt>
      <trkpt lat="-22.03768976032733917236328125" lon="166.4618673361837863922119140625">
        <ele>924.79998779296875</ele>
        <time>2016-08-12T19:35:56.000Z</time>
        <extensions>
          <ns3:TrackPointExtension>
            <ns3:atemp>14.0</ns3:atemp>
            <ns3:hr>136</ns3:hr>
          </ns3:TrackPointExtension>
        </extensions>
      </trkpt>
      <trkpt lat="-22.037707865238189697265625" lon="166.46188770420849323272705078125">
        <ele>925</ele>
        <time>2016-08-12T19:35:57.000Z</time>
        <extensions>
          <ns3:TrackPointExtension>
            <ns3:atemp>14.0</ns3:atemp>
            <ns3:hr>137</ns3:hr>
          </ns3:TrackPointExtension>
        </extensions>
      </trkpt>
      <trkpt lat="-22.03773007728159427642822265625" lon="166.461907736957073211669921875">
        <ele>925</ele>
        <time>2016-08-12T19:35:58.000Z</time>
        <extensions>
          <ns3:TrackPointExtension>
            <ns3:atemp>14.0</ns3:atemp>
            <ns3:hr>136</ns3:hr>
          </ns3:TrackPointExtension>
        </extensions>
      </trkpt>
      <trkpt lat="-22.03775036148726940155029296875" lon="166.461925171315670013427734375">
        <ele>924.79998779296875</ele>
        <time>2016-08-12T19:35:59.000Z</time>
        <extensions>
          <ns3:TrackPointExtension>
            <ns3:atemp>14.0</ns3:atemp>
            <ns3:hr>137</ns3:hr>
          </ns3:TrackPointExtension>
        </extensions>
      </trkpt>
      <trkpt lat="-22.0377735793590545654296875" lon="166.46194084547460079193115234375">
        <ele>924.4000244140625</ele>
        <time>2016-08-12T19:36:00.000Z</time>
        <extensions>
          <ns3:TrackPointExtension>
            <ns3:atemp>14.0</ns3:atemp>
            <ns3:hr>136</ns3:hr>
          </ns3:TrackPointExtension>
        </extensions>
      </trkpt>
      <trkpt lat="-22.03779411502182483673095703125" lon="166.4619581960141658782958984375">
        <ele>924.5999755859375</ele>
        <time>2016-08-12T19:36:01.000Z</time>
        <extensions>
          <ns3:TrackPointExtension>
            <ns3:atemp>14.0</ns3:atemp>
            <ns3:hr>137</ns3:hr>
          </ns3:TrackPointExtension>
        </extensions>
      </trkpt>
      <trkpt lat="-22.0378180034458637237548828125" lon="166.461970768868923187255859375">
        <ele>924.79998779296875</ele>
        <time>2016-08-12T19:36:02.000Z</time>
        <extensions>
          <ns3:TrackPointExtension>
            <ns3:atemp>14.0</ns3:atemp>
            <ns3:hr>136</ns3:hr>
          </ns3:TrackPointExtension>
        </extensions>
      </trkpt>
      <trkpt lat="-22.03784130513668060302734375" lon="166.46198141388595104217529296875">
        <ele>924.4000244140625</ele>
        <time>2016-08-12T19:36:03.000Z</time>
        <extensions>
          <ns3:TrackPointExtension>
            <ns3:atemp>14.0</ns3:atemp>
            <ns3:hr>136</ns3:hr>
          </ns3:TrackPointExtension>
        </extensions>
      </trkpt>
      <trkpt lat="-22.037863098084926605224609375" lon="166.46199113689363002777099609375">
        <ele>924.4000244140625</ele>
        <time>2016-08-12T19:36:04.000Z</time>
        <extensions>
          <ns3:TrackPointExtension>
            <ns3:atemp>14.0</ns3:atemp>
            <ns3:hr>136</ns3:hr>
          </ns3:TrackPointExtension>
        </extensions>
      </trkpt>
      <trkpt lat="-22.037885226309299468994140625" lon="166.4620041288435459136962890625">
        <ele>924.4000244140625</ele>
        <time>2016-08-12T19:36:05.000Z</time>
        <extensions>
          <ns3:TrackPointExtension>
            <ns3:atemp>14.0</ns3:atemp>
            <ns3:hr>136</ns3:hr>
          </ns3:TrackPointExtension>
        </extensions>
      </trkpt>
      <trkpt lat="-22.03790567815303802490234375" lon="166.4620249159634113311767578125">
        <ele>924.20001220703125</ele>
        <time>2016-08-12T19:36:06.000Z</time>
        <extensions>
          <ns3:TrackPointExtension>
            <ns3:atemp>14.0</ns3:atemp>
            <ns3:hr>135</ns3:hr>
          </ns3:TrackPointExtension>
        </extensions>
      </trkpt>
      <trkpt lat="-22.037925459444522857666015625" lon="166.46204461343586444854736328125">
        <ele>923.79998779296875</ele>
        <time>2016-08-12T19:36:07.000Z</time>
        <extensions>
          <ns3:TrackPointExtension>
            <ns3:atemp>14.0</ns3:atemp>
            <ns3:hr>135</ns3:hr>
          </ns3:TrackPointExtension>
        </extensions>
      </trkpt>
      <trkpt lat="-22.03794750384986400604248046875" lon="166.46206288598477840423583984375">
        <ele>924</ele>
        <time>2016-08-12T19:36:08.000Z</time>
        <extensions>
          <ns3:TrackPointExtension>
            <ns3:atemp>14.0</ns3:atemp>
            <ns3:hr>135</ns3:hr>
          </ns3:TrackPointExtension>
        </extensions>
      </trkpt>
      <trkpt lat="-22.037967704236507415771484375" lon="166.46208040416240692138671875">
        <ele>924.20001220703125</ele>
        <time>2016-08-12T19:36:09.000Z</time>
        <extensions>
          <ns3:TrackPointExtension>
            <ns3:atemp>14.0</ns3:atemp>
            <ns3:hr>135</ns3:hr>
          </ns3:TrackPointExtension>
        </extensions>
      </trkpt>
      <trkpt lat="-22.0379816181957721710205078125" lon="166.4620996825397014617919921875">
        <ele>923.79998779296875</ele>
        <time>2016-08-12T19:36:10.000Z</time>
        <extensions>
          <ns3:TrackPointExtension>
            <ns3:atemp>14.0</ns3:atemp>
            <ns3:hr>135</ns3:hr>
          </ns3:TrackPointExtension>
        </extensions>
      </trkpt>
      <trkpt lat="-22.03799360431730747222900390625" lon="166.462120302021503448486328125">
        <ele>923.5999755859375</ele>
        <time>2016-08-12T19:36:11.000Z</time>
        <extensions>
          <ns3:TrackPointExtension>
            <ns3:atemp>14.0</ns3:atemp>
            <ns3:hr>135</ns3:hr>
          </ns3:TrackPointExtension>
        </extensions>
      </trkpt>
      <trkpt lat="-22.03800626099109649658203125" lon="166.462139077484607696533203125">
        <ele>923.79998779296875</ele>
        <time>2016-08-12T19:36:12.000Z</time>
        <extensions>
          <ns3:TrackPointExtension>
            <ns3:atemp>14.0</ns3:atemp>
            <ns3:hr>134</ns3:hr>
          </ns3:TrackPointExtension>
        </extensions>
      </trkpt>
      <trkpt lat="-22.03801690600812435150146484375" lon="166.46215659566223621368408203125">
        <ele>924.4000244140625</ele>
        <time>2016-08-12T19:36:13.000Z</time>
        <extensions>
          <ns3:TrackPointExtension>
            <ns3:atemp>14.0</ns3:atemp>
            <ns3:hr>135</ns3:hr>
          </ns3:TrackPointExtension>
        </extensions>
      </trkpt>
      <trkpt lat="-22.03802637755870819091796875" lon="166.46217017434537410736083984375">
        <ele>924.4000244140625</ele>
        <time>2016-08-12T19:36:14.000Z</time>
        <extensions>
          <ns3:TrackPointExtension>
            <ns3:atemp>14.0</ns3:atemp>
            <ns3:hr>134</ns3:hr>
          </ns3:TrackPointExtension>
        </extensions>
      </trkpt>
      <trkpt lat="-22.038032747805118560791015625" lon="166.462185345590114593505859375">
        <ele>924.20001220703125</ele>
        <time>2016-08-12T19:36:15.000Z</time>
        <extensions>
          <ns3:TrackPointExtension>
            <ns3:atemp>14.0</ns3:atemp>
            <ns3:hr>134</ns3:hr>
          </ns3:TrackPointExtension>
        </extensions>
      </trkpt>
      <trkpt lat="-22.03803970478475093841552734375" lon="166.46220319904386997222900390625">
        <ele>924.4000244140625</ele>
        <time>2016-08-12T19:36:16.000Z</time>
        <extensions>
          <ns3:TrackPointExtension>
            <ns3:atemp>14.0</ns3:atemp>
            <ns3:hr>134</ns3:hr>
          </ns3:TrackPointExtension>
        </extensions>
      </trkpt>
      <trkpt lat="-22.03804875724017620086669921875" lon="166.46221661008894443511962890625">
        <ele>924.79998779296875</ele>
        <time>2016-08-12T19:36:17.000Z</time>
        <extensions>
          <ns3:TrackPointExtension>
            <ns3:atemp>14.0</ns3:atemp>
            <ns3:hr>135</ns3:hr>
          </ns3:TrackPointExtension>
        </extensions>
      </trkpt>
      <trkpt lat="-22.0380580611526966094970703125" lon="166.46223329007625579833984375">
        <ele>924.79998779296875</ele>
        <time>2016-08-12T19:36:18.000Z</time>
        <extensions>
          <ns3:TrackPointExtension>
            <ns3:atemp>14.0</ns3:atemp>
            <ns3:hr>134</ns3:hr>
          </ns3:TrackPointExtension>
        </extensions>
      </trkpt>
      <trkpt lat="-22.03806954436004161834716796875" lon="166.46224795840680599212646484375">
        <ele>924.79998779296875</ele>
        <time>2016-08-12T19:36:19.000Z</time>
        <extensions>
          <ns3:TrackPointExtension>
            <ns3:atemp>14.0</ns3:atemp>
            <ns3:hr>135</ns3:hr>
          </ns3:TrackPointExtension>
        </extensions>
      </trkpt>
      <trkpt lat="-22.03807775862514972686767578125" lon="166.46226405166089534759521484375">
        <ele>924.79998779296875</ele>
        <time>2016-08-12T19:36:20.000Z</time>
        <extensions>
          <ns3:TrackPointExtension>
            <ns3:atemp>14.0</ns3:atemp>
            <ns3:hr>134</ns3:hr>
          </ns3:TrackPointExtension>
        </extensions>
      </trkpt>
      <trkpt lat="-22.03808362595736980438232421875" lon="166.462285257875919342041015625">
        <ele>924.79998779296875</ele>
        <time>2016-08-12T19:36:21.000Z</time>
        <extensions>
          <ns3:TrackPointExtension>
            <ns3:atemp>14.0</ns3:atemp>
            <ns3:hr>134</ns3:hr>
          </ns3:TrackPointExtension>
        </extensions>
      </trkpt>
      <trkpt lat="-22.03808781690895557403564453125" lon="166.46230394951999187469482421875">
        <ele>924.5999755859375</ele>
        <time>2016-08-12T19:36:22.000Z</time>
        <extensions>
          <ns3:TrackPointExtension>
            <ns3:atemp>14.0</ns3:atemp>
            <ns3:hr>134</ns3:hr>
          </ns3:TrackPointExtension>
        </extensions>
      </trkpt>
      <trkpt lat="-22.03808429650962352752685546875" lon="166.46232959814369678497314453125">
        <ele>924.4000244140625</ele>
        <time>2016-08-12T19:36:23.000Z</time>
        <extensions>
          <ns3:TrackPointExtension>
            <ns3:atemp>14.0</ns3:atemp>
            <ns3:hr>134</ns3:hr>
          </ns3:TrackPointExtension>
        </extensions>
      </trkpt>
      <trkpt lat="-22.0380714721977710723876953125" lon="166.46234820596873760223388671875">
        <ele>924.5999755859375</ele>
        <time>2016-08-12T19:36:24.000Z</time>
        <extensions>
          <ns3:TrackPointExtension>
            <ns3:atemp>14.0</ns3:atemp>
            <ns3:hr>134</ns3:hr>
          </ns3:TrackPointExtension>
        </extensions>
      </trkpt>
      <trkpt lat="-22.038049511611461639404296875" lon="166.46235859952867031097412109375">
        <ele>924.4000244140625</ele>
        <time>2016-08-12T19:36:25.000Z</time>
        <extensions>
          <ns3:TrackPointExtension>
            <ns3:atemp>14.0</ns3:atemp>
            <ns3:hr>134</ns3:hr>
          </ns3:TrackPointExtension>
        </extensions>
      </trkpt>
      <trkpt lat="-22.03802478499710559844970703125" lon="166.462365053594112396240234375">
        <ele>924.20001220703125</ele>
        <time>2016-08-12T19:36:26.000Z</time>
        <extensions>
          <ns3:TrackPointExtension>
            <ns3:atemp>14.0</ns3:atemp>
            <ns3:hr>134</ns3:hr>
          </ns3:TrackPointExtension>
        </extensions>
      </trkpt>
      <trkpt lat="-22.03800223767757415771484375" lon="166.462379135191440582275390625">
        <ele>924.5999755859375</ele>
        <time>2016-08-12T19:36:27.000Z</time>
        <extensions>
          <ns3:TrackPointExtension>
            <ns3:atemp>14.0</ns3:atemp>
            <ns3:hr>134</ns3:hr>
          </ns3:TrackPointExtension>
        </extensions>
      </trkpt>
      <trkpt lat="-22.0379799418151378631591796875" lon="166.462389864027500152587890625">
        <ele>924.79998779296875</ele>
        <time>2016-08-12T19:36:28.000Z</time>
        <extensions>
          <ns3:TrackPointExtension>
            <ns3:atemp>14.0</ns3:atemp>
            <ns3:hr>135</ns3:hr>
          </ns3:TrackPointExtension>
        </extensions>
      </trkpt>
      <trkpt lat="-22.0379544608294963836669921875" lon="166.46240369416773319244384765625">
        <ele>924.79998779296875</ele>
        <time>2016-08-12T19:36:29.000Z</time>
        <extensions>
          <ns3:TrackPointExtension>
            <ns3:atemp>14.0</ns3:atemp>
            <ns3:hr>135</ns3:hr>
          </ns3:TrackPointExtension>
        </extensions>
      </trkpt>
      <trkpt lat="-22.037928812205791473388671875" lon="166.46241727285087108612060546875">
        <ele>924.5999755859375</ele>
        <time>2016-08-12T19:36:30.000Z</time>
        <extensions>
          <ns3:TrackPointExtension>
            <ns3:atemp>14.0</ns3:atemp>
            <ns3:hr>135</ns3:hr>
          </ns3:TrackPointExtension>
        </extensions>
      </trkpt>
      <trkpt lat="-22.03790743835270404815673828125" lon="166.46243487484753131866455078125">
        <ele>924.79998779296875</ele>
        <time>2016-08-12T19:36:31.000Z</time>
        <extensions>
          <ns3:TrackPointExtension>
            <ns3:atemp>14.0</ns3:atemp>
            <ns3:hr>135</ns3:hr>
          </ns3:TrackPointExtension>
        </extensions>
      </trkpt>
      <trkpt lat="-22.037886567413806915283203125" lon="166.46245147101581096649169921875">
        <ele>924.79998779296875</ele>
        <time>2016-08-12T19:36:32.000Z</time>
        <extensions>
          <ns3:TrackPointExtension>
            <ns3:atemp>14.0</ns3:atemp>
            <ns3:hr>135</ns3:hr>
          </ns3:TrackPointExtension>
        </extensions>
      </trkpt>
      <trkpt lat="-22.03786452300846576690673828125" lon="166.4624661393463611602783203125">
        <ele>924.79998779296875</ele>
        <time>2016-08-12T19:36:33.000Z</time>
        <extensions>
          <ns3:TrackPointExtension>
            <ns3:atemp>14.0</ns3:atemp>
            <ns3:hr>135</ns3:hr>
          </ns3:TrackPointExtension>
        </extensions>
      </trkpt>
      <trkpt lat="-22.0378408022224903106689453125" lon="166.4624839089810848236083984375">
        <ele>924.5999755859375</ele>
        <time>2016-08-12T19:36:34.000Z</time>
        <extensions>
          <ns3:TrackPointExtension>
            <ns3:atemp>14.0</ns3:atemp>
            <ns3:hr>135</ns3:hr>
          </ns3:TrackPointExtension>
        </extensions>
      </trkpt>
      <trkpt lat="-22.03781842254102230072021484375" lon="166.46250109188258647918701171875">
        <ele>924.79998779296875</ele>
        <time>2016-08-12T19:36:35.000Z</time>
        <extensions>
          <ns3:TrackPointExtension>
            <ns3:atemp>14.0</ns3:atemp>
            <ns3:hr>135</ns3:hr>
          </ns3:TrackPointExtension>
        </extensions>
      </trkpt>
      <trkpt lat="-22.0377977192401885986328125" lon="166.46251852624118328094482421875">
        <ele>925</ele>
        <time>2016-08-12T19:36:36.000Z</time>
        <extensions>
          <ns3:TrackPointExtension>
            <ns3:atemp>14.0</ns3:atemp>
            <ns3:hr>135</ns3:hr>
          </ns3:TrackPointExtension>
        </extensions>
      </trkpt>
      <trkpt lat="-22.0377774350345134735107421875" lon="166.4625342004001140594482421875">
        <ele>924.79998779296875</ele>
        <time>2016-08-12T19:36:37.000Z</time>
        <extensions>
          <ns3:TrackPointExtension>
            <ns3:atemp>14.0</ns3:atemp>
            <ns3:hr>135</ns3:hr>
          </ns3:TrackPointExtension>
        </extensions>
      </trkpt>
      <trkpt lat="-22.0377569831907749176025390625" lon="166.462547779083251953125">
        <ele>924.5999755859375</ele>
        <time>2016-08-12T19:36:38.000Z</time>
        <extensions>
          <ns3:TrackPointExtension>
            <ns3:atemp>14.0</ns3:atemp>
            <ns3:hr>135</ns3:hr>
          </ns3:TrackPointExtension>
        </extensions>
      </trkpt>
      <trkpt lat="-22.03773594461381435394287109375" lon="166.4625620283186435699462890625">
        <ele>924.5999755859375</ele>
        <time>2016-08-12T19:36:39.000Z</time>
        <extensions>
          <ns3:TrackPointExtension>
            <ns3:atemp>14.0</ns3:atemp>
            <ns3:hr>135</ns3:hr>
          </ns3:TrackPointExtension>
        </extensions>
      </trkpt>
      <trkpt lat="-22.03771666623651981353759765625" lon="166.4625821448862552642822265625">
        <ele>925</ele>
        <time>2016-08-12T19:36:40.000Z</time>
        <extensions>
          <ns3:TrackPointExtension>
            <ns3:atemp>14.0</ns3:atemp>
            <ns3:hr>136</ns3:hr>
          </ns3:TrackPointExtension>
        </extensions>
      </trkpt>
      <trkpt lat="-22.03769914805889129638671875" lon="166.4625999145209789276123046875">
        <ele>925.20001220703125</ele>
        <time>2016-08-12T19:36:41.000Z</time>
        <extensions>
          <ns3:TrackPointExtension>
            <ns3:atemp>14.0</ns3:atemp>
            <ns3:hr>135</ns3:hr>
          </ns3:TrackPointExtension>
        </extensions>
      </trkpt>
      <trkpt lat="-22.03768297098577022552490234375" lon="166.46261743269860744476318359375">
        <ele>925</ele>
        <time>2016-08-12T19:36:42.000Z</time>
        <extensions>
          <ns3:TrackPointExtension>
            <ns3:atemp>14.0</ns3:atemp>
            <ns3:hr>136</ns3:hr>
          </ns3:TrackPointExtension>
        </extensions>
      </trkpt>
      <trkpt lat="-22.03767023049294948577880859375" lon="166.46263696253299713134765625">
        <ele>924.79998779296875</ele>
        <time>2016-08-12T19:36:43.000Z</time>
        <extensions>
          <ns3:TrackPointExtension>
            <ns3:atemp>14.0</ns3:atemp>
            <ns3:hr>136</ns3:hr>
          </ns3:TrackPointExtension>
        </extensions>
      </trkpt>
      <trkpt lat="-22.037655897438526153564453125" lon="166.46265615709125995635986328125">
        <ele>925</ele>
        <time>2016-08-12T19:36:44.000Z</time>
        <extensions>
          <ns3:TrackPointExtension>
            <ns3:atemp>14.0</ns3:atemp>
            <ns3:hr>136</ns3:hr>
          </ns3:TrackPointExtension>
        </extensions>
      </trkpt>
      <trkpt lat="-22.037643156945705413818359375" lon="166.46267719566822052001953125">
        <ele>925.4000244140625</ele>
        <time>2016-08-12T19:36:45.000Z</time>
        <extensions>
          <ns3:TrackPointExtension>
            <ns3:atemp>14.0</ns3:atemp>
            <ns3:hr>136</ns3:hr>
          </ns3:TrackPointExtension>
        </extensions>
      </trkpt>
      <trkpt lat="-22.0376319251954555511474609375" lon="166.4626988209784030914306640625">
        <ele>925.4000244140625</ele>
        <time>2016-08-12T19:36:46.000Z</time>
        <extensions>
          <ns3:TrackPointExtension>
            <ns3:atemp>14.0</ns3:atemp>
            <ns3:hr>136</ns3:hr>
          </ns3:TrackPointExtension>
        </extensions>
      </trkpt>
      <trkpt lat="-22.03762195073068141937255859375" lon="166.46272254176437854766845703125">
        <ele>925</ele>
        <time>2016-08-12T19:36:47.000Z</time>
        <extensions>
          <ns3:TrackPointExtension>
            <ns3:atemp>14.0</ns3:atemp>
            <ns3:hr>136</ns3:hr>
          </ns3:TrackPointExtension>
        </extensions>
      </trkpt>
      <trkpt lat="-22.03761222772300243377685546875" lon="166.462745256721973419189453125">
        <ele>924.79998779296875</ele>
        <time>2016-08-12T19:36:48.000Z</time>
        <extensions>
          <ns3:TrackPointExtension>
            <ns3:atemp>14.0</ns3:atemp>
            <ns3:hr>136</ns3:hr>
          </ns3:TrackPointExtension>
        </extensions>
      </trkpt>
      <trkpt lat="-22.0376004092395305633544921875" lon="166.46277316845953464508056640625">
        <ele>925.20001220703125</ele>
        <time>2016-08-12T19:36:49.000Z</time>
        <extensions>
          <ns3:TrackPointExtension>
            <ns3:atemp>14.0</ns3:atemp>
            <ns3:hr>136</ns3:hr>
          </ns3:TrackPointExtension>
        </extensions>
      </trkpt>
      <trkpt lat="-22.037589512765407562255859375" lon="166.462799571454524993896484375">
        <ele>925.79998779296875</ele>
        <time>2016-08-12T19:36:50.000Z</time>
        <extensions>
          <ns3:TrackPointExtension>
            <ns3:atemp>14.0</ns3:atemp>
            <ns3:hr>136</ns3:hr>
          </ns3:TrackPointExtension>
        </extensions>
      </trkpt>
      <trkpt lat="-22.03757668845355510711669921875" lon="166.4628225378692150115966796875">
        <ele>925.5999755859375</ele>
        <time>2016-08-12T19:36:51.000Z</time>
        <extensions>
          <ns3:TrackPointExtension>
            <ns3:atemp>14.0</ns3:atemp>
            <ns3:hr>136</ns3:hr>
          </ns3:TrackPointExtension>
        </extensions>
      </trkpt>
      <trkpt lat="-22.037565708160400390625" lon="166.46284592337906360626220703125">
        <ele>925.20001220703125</ele>
        <time>2016-08-12T19:36:52.000Z</time>
        <extensions>
          <ns3:TrackPointExtension>
            <ns3:atemp>14.0</ns3:atemp>
            <ns3:hr>136</ns3:hr>
          </ns3:TrackPointExtension>
        </extensions>
      </trkpt>
      <trkpt lat="-22.03755405731499195098876953125" lon="166.46287274546921253204345703125">
        <ele>925.20001220703125</ele>
        <time>2016-08-12T19:36:53.000Z</time>
        <extensions>
          <ns3:TrackPointExtension>
            <ns3:atemp>14.0</ns3:atemp>
            <ns3:hr>136</ns3:hr>
          </ns3:TrackPointExtension>
        </extensions>
      </trkpt>
      <trkpt lat="-22.03754148446023464202880859375" lon="166.46289822645485401153564453125">
        <ele>925.5999755859375</ele>
        <time>2016-08-12T19:36:54.000Z</time>
        <extensions>
          <ns3:TrackPointExtension>
            <ns3:atemp>14.0</ns3:atemp>
            <ns3:hr>136</ns3:hr>
          </ns3:TrackPointExtension>
        </extensions>
      </trkpt>
      <trkpt lat="-22.03753410838544368743896484375" lon="166.46293007768690586090087890625">
        <ele>925.5999755859375</ele>
        <time>2016-08-12T19:36:55.000Z</time>
        <extensions>
          <ns3:TrackPointExtension>
            <ns3:atemp>14.0</ns3:atemp>
            <ns3:hr>136</ns3:hr>
          </ns3:TrackPointExtension>
        </extensions>
      </trkpt>
      <trkpt lat="-22.03752639703452587127685546875" lon="166.46295882761478424072265625">
        <ele>925.20001220703125</ele>
        <time>2016-08-12T19:36:56.000Z</time>
        <extensions>
          <ns3:TrackPointExtension>
            <ns3:atemp>14.0</ns3:atemp>
            <ns3:hr>136</ns3:hr>
          </ns3:TrackPointExtension>
        </extensions>
      </trkpt>
      <trkpt lat="-22.03751952387392520904541015625" lon="166.46298824809491634368896484375">
        <ele>925</ele>
        <time>2016-08-12T19:36:57.000Z</time>
        <extensions>
          <ns3:TrackPointExtension>
            <ns3:atemp>14.0</ns3:atemp>
            <ns3:hr>136</ns3:hr>
          </ns3:TrackPointExtension>
        </extensions>
      </trkpt>
      <trkpt lat="-22.0375132374465465545654296875" lon="166.46302043460309505462646484375">
        <ele>925.4000244140625</ele>
        <time>2016-08-12T19:36:58.000Z</time>
        <extensions>
          <ns3:TrackPointExtension>
            <ns3:atemp>14.0</ns3:atemp>
            <ns3:hr>136</ns3:hr>
          </ns3:TrackPointExtension>
        </extensions>
      </trkpt>
      <trkpt lat="-22.037507034838199615478515625" lon="166.463053040206432342529296875">
        <ele>925.5999755859375</ele>
        <time>2016-08-12T19:36:59.000Z</time>
        <extensions>
          <ns3:TrackPointExtension>
            <ns3:atemp>14.0</ns3:atemp>
            <ns3:hr>136</ns3:hr>
          </ns3:TrackPointExtension>
        </extensions>
      </trkpt>
      <trkpt lat="-22.03749974258244037628173828125" lon="166.46307927556335926055908203125">
        <ele>925.20001220703125</ele>
        <time>2016-08-12T19:37:00.000Z</time>
        <extensions>
          <ns3:TrackPointExtension>
            <ns3:atemp>14.0</ns3:atemp>
            <ns3:hr>136</ns3:hr>
          </ns3:TrackPointExtension>
        </extensions>
      </trkpt>
      <trkpt lat="-22.037492953240871429443359375" lon="166.46310693584382534027099609375">
        <ele>925</ele>
        <time>2016-08-12T19:37:01.000Z</time>
        <extensions>
          <ns3:TrackPointExtension>
            <ns3:atemp>14.0</ns3:atemp>
            <ns3:hr>137</ns3:hr>
          </ns3:TrackPointExtension>
        </extensions>
      </trkpt>
      <trkpt lat="-22.037485577166080474853515625" lon="166.46313342265784740447998046875">
        <ele>925</ele>
        <time>2016-08-12T19:37:02.000Z</time>
        <extensions>
          <ns3:TrackPointExtension>
            <ns3:atemp>14.0</ns3:atemp>
            <ns3:hr>136</ns3:hr>
          </ns3:TrackPointExtension>
        </extensions>
      </trkpt>
      <trkpt lat="-22.0374750159680843353271484375" lon="166.46315454505383968353271484375">
        <ele>925</ele>
        <time>2016-08-12T19:37:03.000Z</time>
        <extensions>
          <ns3:TrackPointExtension>
            <ns3:atemp>14.0</ns3:atemp>
            <ns3:hr>137</ns3:hr>
          </ns3:TrackPointExtension>
        </extensions>
      </trkpt>
      <trkpt lat="-22.037457413971424102783203125" lon="166.46316912956535816192626953125">
        <ele>924.79998779296875</ele>
        <time>2016-08-12T19:37:04.000Z</time>
        <extensions>
          <ns3:TrackPointExtension>
            <ns3:atemp>14.0</ns3:atemp>
            <ns3:hr>137</ns3:hr>
          </ns3:TrackPointExtension>
        </extensions>
      </trkpt>
      <trkpt lat="-22.0374411530792713165283203125" lon="166.46318606100976467132568359375">
        <ele>924.79998779296875</ele>
        <time>2016-08-12T19:37:05.000Z</time>
        <extensions>
          <ns3:TrackPointExtension>
            <ns3:atemp>14.0</ns3:atemp>
            <ns3:hr>136</ns3:hr>
          </ns3:TrackPointExtension>
        </extensions>
      </trkpt>
      <trkpt lat="-22.03743168152868747711181640625" lon="166.4632047526538372039794921875">
        <ele>924.79998779296875</ele>
        <time>2016-08-12T19:37:06.000Z</time>
        <extensions>
          <ns3:TrackPointExtension>
            <ns3:atemp>14.0</ns3:atemp>
            <ns3:hr>136</ns3:hr>
          </ns3:TrackPointExtension>
        </extensions>
      </trkpt>
      <trkpt lat="-22.03742447309195995330810546875" lon="166.463226042687892913818359375">
        <ele>924.79998779296875</ele>
        <time>2016-08-12T19:37:07.000Z</time>
        <extensions>
          <ns3:TrackPointExtension>
            <ns3:atemp>14.0</ns3:atemp>
            <ns3:hr>136</ns3:hr>
          </ns3:TrackPointExtension>
        </extensions>
      </trkpt>
      <trkpt lat="-22.0374119840562343597412109375" lon="166.46323434077203273773193359375">
        <ele>924.79998779296875</ele>
        <time>2016-08-12T19:37:08.000Z</time>
        <extensions>
          <ns3:TrackPointExtension>
            <ns3:atemp>14.0</ns3:atemp>
            <ns3:hr>136</ns3:hr>
          </ns3:TrackPointExtension>
        </extensions>
      </trkpt>
      <trkpt lat="-22.0374012552201747894287109375" lon="166.4632369391620159149169921875">
        <ele>925.20001220703125</ele>
        <time>2016-08-12T19:37:09.000Z</time>
        <extensions>
          <ns3:TrackPointExtension>
            <ns3:atemp>14.0</ns3:atemp>
            <ns3:hr>135</ns3:hr>
          </ns3:TrackPointExtension>
        </extensions>
      </trkpt>
      <trkpt lat="-22.03738591633737087249755859375" lon="166.46323434077203273773193359375">
        <ele>925.4000244140625</ele>
        <time>2016-08-12T19:37:10.000Z</time>
        <extensions>
          <ns3:TrackPointExtension>
            <ns3:atemp>14.0</ns3:atemp>
            <ns3:hr>135</ns3:hr>
          </ns3:TrackPointExtension>
        </extensions>
      </trkpt>
      <trkpt lat="-22.03736177645623683929443359375" lon="166.46323333494365215301513671875">
        <ele>925.4000244140625</ele>
        <time>2016-08-12T19:37:11.000Z</time>
        <extensions>
          <ns3:TrackPointExtension>
            <ns3:atemp>14.0</ns3:atemp>
            <ns3:hr>135</ns3:hr>
          </ns3:TrackPointExtension>
        </extensions>
      </trkpt>
      <trkpt lat="-22.0373439230024814605712890625" lon="166.46323333494365215301513671875">
        <ele>925.79998779296875</ele>
        <time>2016-08-12T19:37:12.000Z</time>
        <extensions>
          <ns3:TrackPointExtension>
            <ns3:atemp>14.0</ns3:atemp>
            <ns3:hr>135</ns3:hr>
          </ns3:TrackPointExtension>
        </extensions>
      </trkpt>
      <trkpt lat="-22.037323303520679473876953125" lon="166.46323434077203273773193359375">
        <ele>926</ele>
        <time>2016-08-12T19:37:13.000Z</time>
        <extensions>
          <ns3:TrackPointExtension>
            <ns3:atemp>14.0</ns3:atemp>
            <ns3:hr>135</ns3:hr>
          </ns3:TrackPointExtension>
        </extensions>
      </trkpt>
      <trkpt lat="-22.03730310313403606414794921875" lon="166.46323769353330135345458984375">
        <ele>926.20001220703125</ele>
        <time>2016-08-12T19:37:14.000Z</time>
        <extensions>
          <ns3:TrackPointExtension>
            <ns3:atemp>14.0</ns3:atemp>
            <ns3:hr>135</ns3:hr>
          </ns3:TrackPointExtension>
        </extensions>
      </trkpt>
      <trkpt lat="-22.03728198073804378509521484375" lon="166.46323316730558872222900390625">
        <ele>926</ele>
        <time>2016-08-12T19:37:15.000Z</time>
        <extensions>
          <ns3:TrackPointExtension>
            <ns3:atemp>14.0</ns3:atemp>
            <ns3:hr>135</ns3:hr>
          </ns3:TrackPointExtension>
        </extensions>
      </trkpt>
      <trkpt lat="-22.03726370818912982940673828125" lon="166.46323299966752529144287109375">
        <ele>926.20001220703125</ele>
        <time>2016-08-12T19:37:16.000Z</time>
        <extensions>
          <ns3:TrackPointExtension>
            <ns3:atemp>14.0</ns3:atemp>
            <ns3:hr>135</ns3:hr>
          </ns3:TrackPointExtension>
        </extensions>
      </trkpt>
      <trkpt lat="-22.0372453518211841583251953125" lon="166.4632288925349712371826171875">
        <ele>926.4000244140625</ele>
        <time>2016-08-12T19:37:17.000Z</time>
        <extensions>
          <ns3:TrackPointExtension>
            <ns3:atemp>14.0</ns3:atemp>
            <ns3:hr>135</ns3:hr>
          </ns3:TrackPointExtension>
        </extensions>
      </trkpt>
      <trkpt lat="-22.037222385406494140625" lon="166.46322210319340229034423828125">
        <ele>926.20001220703125</ele>
        <time>2016-08-12T19:37:18.000Z</time>
        <extensions>
          <ns3:TrackPointExtension>
            <ns3:atemp>14.0</ns3:atemp>
            <ns3:hr>135</ns3:hr>
          </ns3:TrackPointExtension>
        </extensions>
      </trkpt>
      <trkpt lat="-22.0372022688388824462890625" lon="166.4632198400795459747314453125">
        <ele>926.20001220703125</ele>
        <time>2016-08-12T19:37:19.000Z</time>
        <extensions>
          <ns3:TrackPointExtension>
            <ns3:atemp>14.0</ns3:atemp>
            <ns3:hr>135</ns3:hr>
          </ns3:TrackPointExtension>
        </extensions>
      </trkpt>
      <trkpt lat="-22.0371813140809535980224609375" lon="166.46321489475667476654052734375">
        <ele>926.5999755859375</ele>
        <time>2016-08-12T19:37:20.000Z</time>
        <extensions>
          <ns3:TrackPointExtension>
            <ns3:atemp>14.0</ns3:atemp>
            <ns3:hr>135</ns3:hr>
          </ns3:TrackPointExtension>
        </extensions>
      </trkpt>
      <trkpt lat="-22.03715910203754901885986328125" lon="166.4632111229002475738525390625">
        <ele>926.5999755859375</ele>
        <time>2016-08-12T19:37:21.000Z</time>
        <extensions>
          <ns3:TrackPointExtension>
            <ns3:atemp>14.0</ns3:atemp>
            <ns3:hr>135</ns3:hr>
          </ns3:TrackPointExtension>
        </extensions>
      </trkpt>
      <trkpt lat="-22.03713881783187389373779296875" lon="166.4632020704448223114013671875">
        <ele>926.4000244140625</ele>
        <time>2016-08-12T19:37:22.000Z</time>
        <extensions>
          <ns3:TrackPointExtension>
            <ns3:atemp>14.0</ns3:atemp>
            <ns3:hr>136</ns3:hr>
          </ns3:TrackPointExtension>
        </extensions>
      </trkpt>
      <trkpt lat="-22.03711970709264278411865234375" lon="166.46318790502846240997314453125">
        <ele>926.4000244140625</ele>
        <time>2016-08-12T19:37:23.000Z</time>
        <extensions>
          <ns3:TrackPointExtension>
            <ns3:atemp>14.0</ns3:atemp>
            <ns3:hr>136</ns3:hr>
          </ns3:TrackPointExtension>
        </extensions>
      </trkpt>
      <trkpt lat="-22.03709900379180908203125" lon="166.4631806127727031707763671875">
        <ele>926.79998779296875</ele>
        <time>2016-08-12T19:37:24.000Z</time>
        <extensions>
          <ns3:TrackPointExtension>
            <ns3:atemp>14.0</ns3:atemp>
            <ns3:hr>136</ns3:hr>
          </ns3:TrackPointExtension>
        </extensions>
      </trkpt>
      <trkpt lat="-22.03707779757678508758544921875" lon="166.46316980011761188507080078125">
        <ele>927.20001220703125</ele>
        <time>2016-08-12T19:37:25.000Z</time>
        <extensions>
          <ns3:TrackPointExtension>
            <ns3:atemp>14.0</ns3:atemp>
            <ns3:hr>136</ns3:hr>
          </ns3:TrackPointExtension>
        </extensions>
      </trkpt>
      <trkpt lat="-22.03705550171434879302978515625" lon="166.463159658014774322509765625">
        <ele>926.79998779296875</ele>
        <time>2016-08-12T19:37:26.000Z</time>
        <extensions>
          <ns3:TrackPointExtension>
            <ns3:atemp>14.0</ns3:atemp>
            <ns3:hr>135</ns3:hr>
          </ns3:TrackPointExtension>
        </extensions>
      </trkpt>
      <trkpt lat="-22.03703287057578563690185546875" lon="166.46315102465450763702392578125">
        <ele>926.5999755859375</ele>
        <time>2016-08-12T19:37:27.000Z</time>
        <extensions>
          <ns3:TrackPointExtension>
            <ns3:atemp>14.0</ns3:atemp>
            <ns3:hr>136</ns3:hr>
          </ns3:TrackPointExtension>
        </extensions>
      </trkpt>
      <trkpt lat="-22.03700990416109561920166015625" lon="166.46314331330358982086181640625">
        <ele>927</ele>
        <time>2016-08-12T19:37:28.000Z</time>
        <extensions>
          <ns3:TrackPointExtension>
            <ns3:atemp>14.0</ns3:atemp>
            <ns3:hr>136</ns3:hr>
          </ns3:TrackPointExtension>
        </extensions>
      </trkpt>
      <trkpt lat="-22.03698811121284961700439453125" lon="166.46313342265784740447998046875">
        <ele>927</ele>
        <time>2016-08-12T19:37:29.000Z</time>
        <extensions>
          <ns3:TrackPointExtension>
            <ns3:atemp>14.0</ns3:atemp>
            <ns3:hr>136</ns3:hr>
          </ns3:TrackPointExtension>
        </extensions>
      </trkpt>
      <trkpt lat="-22.036965899169445037841796875" lon="166.4631204307079315185546875">
        <ele>927</ele>
        <time>2016-08-12T19:37:30.000Z</time>
        <extensions>
          <ns3:TrackPointExtension>
            <ns3:atemp>14.0</ns3:atemp>
            <ns3:hr>136</ns3:hr>
          </ns3:TrackPointExtension>
        </extensions>
      </trkpt>
      <trkpt lat="-22.03694469295442104339599609375" lon="166.46310693584382534027099609375">
        <ele>926.79998779296875</ele>
        <time>2016-08-12T19:37:31.000Z</time>
        <extensions>
          <ns3:TrackPointExtension>
            <ns3:atemp>14.0</ns3:atemp>
            <ns3:hr>136</ns3:hr>
          </ns3:TrackPointExtension>
        </extensions>
      </trkpt>
      <trkpt lat="-22.03692591749131679534912109375" lon="166.46309000439941883087158203125">
        <ele>927</ele>
        <time>2016-08-12T19:37:32.000Z</time>
        <extensions>
          <ns3:TrackPointExtension>
            <ns3:atemp>14.0</ns3:atemp>
            <ns3:hr>136</ns3:hr>
          </ns3:TrackPointExtension>
        </extensions>
      </trkpt>
      <trkpt lat="-22.036904208362102508544921875" lon="166.46307525224983692169189453125">
        <ele>927.20001220703125</ele>
        <time>2016-08-12T19:37:33.000Z</time>
        <extensions>
          <ns3:TrackPointExtension>
            <ns3:atemp>14.0</ns3:atemp>
            <ns3:hr>136</ns3:hr>
          </ns3:TrackPointExtension>
        </extensions>
      </trkpt>
      <trkpt lat="-22.036882080137729644775390625" lon="166.463057734072208404541015625">
        <ele>927</ele>
        <time>2016-08-12T19:37:34.000Z</time>
        <extensions>
          <ns3:TrackPointExtension>
            <ns3:atemp>14.0</ns3:atemp>
            <ns3:hr>137</ns3:hr>
          </ns3:TrackPointExtension>
        </extensions>
      </trkpt>
      <trkpt lat="-22.036862634122371673583984375" lon="166.46304658614099025726318359375">
        <ele>927</ele>
        <time>2016-08-12T19:37:35.000Z</time>
        <extensions>
          <ns3:TrackPointExtension>
            <ns3:atemp>14.0</ns3:atemp>
            <ns3:hr>137</ns3:hr>
          </ns3:TrackPointExtension>
        </extensions>
      </trkpt>
      <trkpt lat="-22.0368369854986667633056640625" lon="166.463034264743328094482421875">
        <ele>927.20001220703125</ele>
        <time>2016-08-12T19:37:36.000Z</time>
        <extensions>
          <ns3:TrackPointExtension>
            <ns3:atemp>14.0</ns3:atemp>
            <ns3:hr>136</ns3:hr>
          </ns3:TrackPointExtension>
        </extensions>
      </trkpt>
      <trkpt lat="-22.0368128456175327301025390625" lon="166.463020853698253631591796875">
        <ele>927.4000244140625</ele>
        <time>2016-08-12T19:37:37.000Z</time>
        <extensions>
          <ns3:TrackPointExtension>
            <ns3:atemp>14.0</ns3:atemp>
            <ns3:hr>137</ns3:hr>
          </ns3:TrackPointExtension>
        </extensions>
      </trkpt>
      <trkpt lat="-22.0367892086505889892578125" lon="166.46301037631928920745849609375">
        <ele>927</ele>
        <time>2016-08-12T19:37:38.000Z</time>
        <extensions>
          <ns3:TrackPointExtension>
            <ns3:atemp>14.0</ns3:atemp>
            <ns3:hr>137</ns3:hr>
          </ns3:TrackPointExtension>
        </extensions>
      </trkpt>
      <trkpt lat="-22.036764062941074371337890625" lon="166.463004089891910552978515625">
        <ele>926.79998779296875</ele>
        <time>2016-08-12T19:37:39.000Z</time>
        <extensions>
          <ns3:TrackPointExtension>
            <ns3:atemp>14.0</ns3:atemp>
            <ns3:hr>136</ns3:hr>
          </ns3:TrackPointExtension>
        </extensions>
      </trkpt>
      <trkpt lat="-22.03674235381186008453369140625" lon="166.46299646236002445220947265625">
        <ele>927.20001220703125</ele>
        <time>2016-08-12T19:37:40.000Z</time>
        <extensions>
          <ns3:TrackPointExtension>
            <ns3:atemp>14.0</ns3:atemp>
            <ns3:hr>137</ns3:hr>
          </ns3:TrackPointExtension>
        </extensions>
      </trkpt>
      <trkpt lat="-22.0367199741303920745849609375" lon="166.4629901759326457977294921875">
        <ele>927.5999755859375</ele>
        <time>2016-08-12T19:37:41.000Z</time>
        <extensions>
          <ns3:TrackPointExtension>
            <ns3:atemp>14.0</ns3:atemp>
            <ns3:hr>137</ns3:hr>
          </ns3:TrackPointExtension>
        </extensions>
      </trkpt>
      <trkpt lat="-22.03669843263924121856689453125" lon="166.4629836380481719970703125">
        <ele>927.20001220703125</ele>
        <time>2016-08-12T19:37:42.000Z</time>
        <extensions>
          <ns3:TrackPointExtension>
            <ns3:atemp>14.0</ns3:atemp>
            <ns3:hr>137</ns3:hr>
          </ns3:TrackPointExtension>
        </extensions>
      </trkpt>
      <trkpt lat="-22.0366740413010120391845703125" lon="166.462977938354015350341796875">
        <ele>927.20001220703125</ele>
        <time>2016-08-12T19:37:43.000Z</time>
        <extensions>
          <ns3:TrackPointExtension>
            <ns3:atemp>14.0</ns3:atemp>
            <ns3:hr>136</ns3:hr>
          </ns3:TrackPointExtension>
        </extensions>
      </trkpt>
      <trkpt lat="-22.036650069057941436767578125" lon="166.4629729092121124267578125">
        <ele>927.4000244140625</ele>
        <time>2016-08-12T19:37:44.000Z</time>
        <extensions>
          <ns3:TrackPointExtension>
            <ns3:atemp>14.0</ns3:atemp>
            <ns3:hr>137</ns3:hr>
          </ns3:TrackPointExtension>
        </extensions>
      </trkpt>
      <trkpt lat="-22.0366291143000125885009765625" lon="166.46296863444149494171142578125">
        <ele>927.4000244140625</ele>
        <time>2016-08-12T19:37:45.000Z</time>
        <extensions>
          <ns3:TrackPointExtension>
            <ns3:atemp>14.0</ns3:atemp>
            <ns3:hr>136</ns3:hr>
          </ns3:TrackPointExtension>
        </extensions>
      </trkpt>
      <trkpt lat="-22.03660480678081512451171875" lon="166.46296930499374866485595703125">
        <ele>927.20001220703125</ele>
        <time>2016-08-12T19:37:46.000Z</time>
        <extensions>
          <ns3:TrackPointExtension>
            <ns3:atemp>14.0</ns3:atemp>
            <ns3:hr>137</ns3:hr>
          </ns3:TrackPointExtension>
        </extensions>
      </trkpt>
      <trkpt lat="-22.036579661071300506591796875" lon="166.46296687424182891845703125">
        <ele>927.20001220703125</ele>
        <time>2016-08-12T19:37:47.000Z</time>
        <extensions>
          <ns3:TrackPointExtension>
            <ns3:atemp>14.0</ns3:atemp>
            <ns3:hr>136</ns3:hr>
          </ns3:TrackPointExtension>
        </extensions>
      </trkpt>
      <trkpt lat="-22.03655526973307132720947265625" lon="166.4629621803760528564453125">
        <ele>927.5999755859375</ele>
        <time>2016-08-12T19:37:48.000Z</time>
        <extensions>
          <ns3:TrackPointExtension>
            <ns3:atemp>14.0</ns3:atemp>
            <ns3:hr>137</ns3:hr>
          </ns3:TrackPointExtension>
        </extensions>
      </trkpt>
      <trkpt lat="-22.03652978874742984771728515625" lon="166.46295505575835704803466796875">
        <ele>927.5999755859375</ele>
        <time>2016-08-12T19:37:49.000Z</time>
        <extensions>
          <ns3:TrackPointExtension>
            <ns3:atemp>14.0</ns3:atemp>
            <ns3:hr>137</ns3:hr>
          </ns3:TrackPointExtension>
        </extensions>
      </trkpt>
      <trkpt lat="-22.03650481067597866058349609375" lon="166.4629449136555194854736328125">
        <ele>927.4000244140625</ele>
        <time>2016-08-12T19:37:50.000Z</time>
        <extensions>
          <ns3:TrackPointExtension>
            <ns3:atemp>14.0</ns3:atemp>
            <ns3:hr>137</ns3:hr>
          </ns3:TrackPointExtension>
        </extensions>
      </trkpt>
      <trkpt lat="-22.03648184426128864288330078125" lon="166.46294030360877513885498046875">
        <ele>927.20001220703125</ele>
        <time>2016-08-12T19:37:51.000Z</time>
        <extensions>
          <ns3:TrackPointExtension>
            <ns3:atemp>14.0</ns3:atemp>
            <ns3:hr>136</ns3:hr>
          </ns3:TrackPointExtension>
        </extensions>
      </trkpt>
      <trkpt lat="-22.0364581234753131866455078125" lon="166.46293695084750652313232421875">
        <ele>927.5999755859375</ele>
        <time>2016-08-12T19:37:52.000Z</time>
        <extensions>
          <ns3:TrackPointExtension>
            <ns3:atemp>14.0</ns3:atemp>
            <ns3:hr>137</ns3:hr>
          </ns3:TrackPointExtension>
        </extensions>
      </trkpt>
      <trkpt lat="-22.0364326424896717071533203125" lon="166.462933011353015899658203125">
        <ele>927.5999755859375</ele>
        <time>2016-08-12T19:37:53.000Z</time>
        <extensions>
          <ns3:TrackPointExtension>
            <ns3:atemp>14.0</ns3:atemp>
            <ns3:hr>136</ns3:hr>
          </ns3:TrackPointExtension>
        </extensions>
      </trkpt>
      <trkpt lat="-22.03640540130436420440673828125" lon="166.46293477155268192291259765625">
        <ele>927.4000244140625</ele>
        <time>2016-08-12T19:37:54.000Z</time>
        <extensions>
          <ns3:TrackPointExtension>
            <ns3:atemp>14.0</ns3:atemp>
            <ns3:hr>137</ns3:hr>
          </ns3:TrackPointExtension>
        </extensions>
      </trkpt>
      <trkpt lat="-22.03638126142323017120361328125" lon="166.4629408903419971466064453125">
        <ele>927.4000244140625</ele>
        <time>2016-08-12T19:37:55.000Z</time>
        <extensions>
          <ns3:TrackPointExtension>
            <ns3:atemp>14.0</ns3:atemp>
            <ns3:hr>136</ns3:hr>
          </ns3:TrackPointExtension>
        </extensions>
      </trkpt>
      <trkpt lat="-22.0363595522940158843994140625" lon="166.46294935606420040130615234375">
        <ele>927.79998779296875</ele>
        <time>2016-08-12T19:37:56.000Z</time>
        <extensions>
          <ns3:TrackPointExtension>
            <ns3:atemp>14.0</ns3:atemp>
            <ns3:hr>137</ns3:hr>
          </ns3:TrackPointExtension>
        </extensions>
      </trkpt>
      <trkpt lat="-22.036334574222564697265625" lon="166.462959833443164825439453125">
        <ele>927.79998779296875</ele>
        <time>2016-08-12T19:37:57.000Z</time>
        <extensions>
          <ns3:TrackPointExtension>
            <ns3:atemp>14.0</ns3:atemp>
            <ns3:hr>136</ns3:hr>
          </ns3:TrackPointExtension>
        </extensions>
      </trkpt>
      <trkpt lat="-22.0363126136362552642822265625" lon="166.46297517232596874237060546875">
        <ele>927.4000244140625</ele>
        <time>2016-08-12T19:37:58.000Z</time>
        <extensions>
          <ns3:TrackPointExtension>
            <ns3:atemp>14.0</ns3:atemp>
            <ns3:hr>137</ns3:hr>
          </ns3:TrackPointExtension>
        </extensions>
      </trkpt>
      <trkpt lat="-22.03629392199218273162841796875" lon="166.46299243904650211334228515625">
        <ele>927.4000244140625</ele>
        <time>2016-08-12T19:37:59.000Z</time>
        <extensions>
          <ns3:TrackPointExtension>
            <ns3:atemp>14.0</ns3:atemp>
            <ns3:hr>136</ns3:hr>
          </ns3:TrackPointExtension>
        </extensions>
      </trkpt>
      <trkpt lat="-22.03627782873809337615966796875" lon="166.4630126394331455230712890625">
        <ele>927.79998779296875</ele>
        <time>2016-08-12T19:38:00.000Z</time>
        <extensions>
          <ns3:TrackPointExtension>
            <ns3:atemp>14.0</ns3:atemp>
            <ns3:hr>136</ns3:hr>
          </ns3:TrackPointExtension>
        </extensions>
      </trkpt>
      <trkpt lat="-22.0362626574933528900146484375" lon="166.46303401328623294830322265625">
        <ele>927.79998779296875</ele>
        <time>2016-08-12T19:38:01.000Z</time>
        <extensions>
          <ns3:TrackPointExtension>
            <ns3:atemp>14.0</ns3:atemp>
            <ns3:hr>136</ns3:hr>
          </ns3:TrackPointExtension>
        </extensions>
      </trkpt>
      <trkpt lat="-22.03624941408634185791015625" lon="166.4630585722625255584716796875">
        <ele>927.5999755859375</ele>
        <time>2016-08-12T19:38:02.000Z</time>
        <extensions>
          <ns3:TrackPointExtension>
            <ns3:atemp>14.0</ns3:atemp>
            <ns3:hr>136</ns3:hr>
          </ns3:TrackPointExtension>
        </extensions>
      </trkpt>
      <trkpt lat="-22.03623575158417224884033203125" lon="166.46307927556335926055908203125">
        <ele>927.79998779296875</ele>
        <time>2016-08-12T19:38:03.000Z</time>
        <extensions>
          <ns3:TrackPointExtension>
            <ns3:atemp>14.0</ns3:atemp>
            <ns3:hr>136</ns3:hr>
          </ns3:TrackPointExtension>
        </extensions>
      </trkpt>
      <trkpt lat="-22.0362232625484466552734375" lon="166.463106013834476470947265625">
        <ele>928</ele>
        <time>2016-08-12T19:38:04.000Z</time>
        <extensions>
          <ns3:TrackPointExtension>
            <ns3:atemp>14.0</ns3:atemp>
            <ns3:hr>137</ns3:hr>
          </ns3:TrackPointExtension>
        </extensions>
      </trkpt>
      <trkpt lat="-22.036210857331752777099609375" lon="166.4631319977343082427978515625">
        <ele>928</ele>
        <time>2016-08-12T19:38:05.000Z</time>
        <extensions>
          <ns3:TrackPointExtension>
            <ns3:atemp>14.0</ns3:atemp>
            <ns3:hr>137</ns3:hr>
          </ns3:TrackPointExtension>
        </extensions>
      </trkpt>
      <trkpt lat="-22.03619870357215404510498046875" lon="166.4631558023393154144287109375">
        <ele>927.79998779296875</ele>
        <time>2016-08-12T19:38:06.000Z</time>
        <extensions>
          <ns3:TrackPointExtension>
            <ns3:atemp>14.0</ns3:atemp>
            <ns3:hr>136</ns3:hr>
          </ns3:TrackPointExtension>
        </extensions>
      </trkpt>
      <trkpt lat="-22.0361830294132232666015625" lon="166.46317801438271999359130859375">
        <ele>928</ele>
        <time>2016-08-12T19:38:07.000Z</time>
        <extensions>
          <ns3:TrackPointExtension>
            <ns3:atemp>14.0</ns3:atemp>
            <ns3:hr>137</ns3:hr>
          </ns3:TrackPointExtension>
        </extensions>
      </trkpt>
      <trkpt lat="-22.0361654274165630340576171875" lon="166.46319863386452198028564453125">
        <ele>928.20001220703125</ele>
        <time>2016-08-12T19:38:08.000Z</time>
        <extensions>
          <ns3:TrackPointExtension>
            <ns3:atemp>14.0</ns3:atemp>
            <ns3:hr>137</ns3:hr>
          </ns3:TrackPointExtension>
        </extensions>
      </trkpt>
      <trkpt lat="-22.03614707104861736297607421875" lon="166.46321497857570648193359375">
        <ele>928</ele>
        <time>2016-08-12T19:38:09.000Z</time>
        <extensions>
          <ns3:TrackPointExtension>
            <ns3:atemp>14.0</ns3:atemp>
            <ns3:hr>137</ns3:hr>
          </ns3:TrackPointExtension>
        </extensions>
      </trkpt>
      <trkpt lat="-22.0361267030239105224609375" lon="166.46323299966752529144287109375">
        <ele>927.79998779296875</ele>
        <time>2016-08-12T19:38:10.000Z</time>
        <extensions>
          <ns3:TrackPointExtension>
            <ns3:atemp>14.0</ns3:atemp>
            <ns3:hr>136</ns3:hr>
          </ns3:TrackPointExtension>
        </extensions>
      </trkpt>
      <trkpt lat="-22.0361013896763324737548828125" lon="166.4632464945316314697265625">
        <ele>928</ele>
        <time>2016-08-12T19:38:11.000Z</time>
        <extensions>
          <ns3:TrackPointExtension>
            <ns3:atemp>14.0</ns3:atemp>
            <ns3:hr>136</ns3:hr>
          </ns3:TrackPointExtension>
        </extensions>
      </trkpt>
      <trkpt lat="-22.03607666306197643280029296875" lon="166.46326350979506969451904296875">
        <ele>928.20001220703125</ele>
        <time>2016-08-12T19:38:12.000Z</time>
        <extensions>
          <ns3:TrackPointExtension>
            <ns3:atemp>14.0</ns3:atemp>
            <ns3:hr>136</ns3:hr>
          </ns3:TrackPointExtension>
        </extensions>
      </trkpt>
      <trkpt lat="-22.036053948104381561279296875" lon="166.4632788486778736114501953125">
        <ele>927.79998779296875</ele>
        <time>2016-08-12T19:38:13.000Z</time>
        <extensions>
          <ns3:TrackPointExtension>
            <ns3:atemp>14.0</ns3:atemp>
            <ns3:hr>136</ns3:hr>
          </ns3:TrackPointExtension>
        </extensions>
      </trkpt>
      <trkpt lat="-22.03603391535580158233642578125" lon="166.46329418756067752838134765625">
        <ele>927.5999755859375</ele>
        <time>2016-08-12T19:38:14.000Z</time>
        <extensions>
          <ns3:TrackPointExtension>
            <ns3:atemp>14.0</ns3:atemp>
            <ns3:hr>136</ns3:hr>
          </ns3:TrackPointExtension>
        </extensions>
      </trkpt>
      <trkpt lat="-22.036011703312397003173828125" lon="166.463307179510593414306640625">
        <ele>927.79998779296875</ele>
        <time>2016-08-12T19:38:15.000Z</time>
        <extensions>
          <ns3:TrackPointExtension>
            <ns3:atemp>14.0</ns3:atemp>
            <ns3:hr>136</ns3:hr>
          </ns3:TrackPointExtension>
        </extensions>
      </trkpt>
      <trkpt lat="-22.03599192202091217041015625" lon="166.46332251839339733123779296875">
        <ele>928.20001220703125</ele>
        <time>2016-08-12T19:38:16.000Z</time>
        <extensions>
          <ns3:TrackPointExtension>
            <ns3:atemp>14.0</ns3:atemp>
            <ns3:hr>136</ns3:hr>
          </ns3:TrackPointExtension>
        </extensions>
      </trkpt>
      <trkpt lat="-22.03597046434879302978515625" lon="166.46333827637135982513427734375">
        <ele>927.79998779296875</ele>
        <time>2016-08-12T19:38:17.000Z</time>
        <extensions>
          <ns3:TrackPointExtension>
            <ns3:atemp>14.0</ns3:atemp>
            <ns3:hr>136</ns3:hr>
          </ns3:TrackPointExtension>
        </extensions>
      </trkpt>
      <trkpt lat="-22.03595361672341823577880859375" lon="166.463360153138637542724609375">
        <ele>927.5999755859375</ele>
        <time>2016-08-12T19:38:18.000Z</time>
        <extensions>
          <ns3:TrackPointExtension>
            <ns3:atemp>14.0</ns3:atemp>
            <ns3:hr>136</ns3:hr>
          </ns3:TrackPointExtension>
        </extensions>
      </trkpt>
      <trkpt lat="-22.03593266196548938751220703125" lon="166.4633730612695217132568359375">
        <ele>927.79998779296875</ele>
        <time>2016-08-12T19:38:19.000Z</time>
        <extensions>
          <ns3:TrackPointExtension>
            <ns3:atemp>14.0</ns3:atemp>
            <ns3:hr>136</ns3:hr>
          </ns3:TrackPointExtension>
        </extensions>
      </trkpt>
      <trkpt lat="-22.0359102822840213775634765625" lon="166.463388986885547637939453125">
        <ele>928.4000244140625</ele>
        <time>2016-08-12T19:38:20.000Z</time>
        <extensions>
          <ns3:TrackPointExtension>
            <ns3:atemp>14.0</ns3:atemp>
            <ns3:hr>136</ns3:hr>
          </ns3:TrackPointExtension>
        </extensions>
      </trkpt>
      <trkpt lat="-22.03588957898318767547607421875" lon="166.46340432576835155487060546875">
        <ele>928.20001220703125</ele>
        <time>2016-08-12T19:38:21.000Z</time>
        <extensions>
          <ns3:TrackPointExtension>
            <ns3:atemp>14.0</ns3:atemp>
            <ns3:hr>136</ns3:hr>
          </ns3:TrackPointExtension>
        </extensions>
      </trkpt>
      <trkpt lat="-22.035865522921085357666015625" lon="166.4634179882705211639404296875">
        <ele>928</ele>
        <time>2016-08-12T19:38:22.000Z</time>
        <extensions>
          <ns3:TrackPointExtension>
            <ns3:atemp>14.0</ns3:atemp>
            <ns3:hr>136</ns3:hr>
          </ns3:TrackPointExtension>
        </extensions>
      </trkpt>
      <trkpt lat="-22.03584196977317333221435546875" lon="166.46343114785850048065185546875">
        <ele>928</ele>
        <time>2016-08-12T19:38:23.000Z</time>
        <extensions>
          <ns3:TrackPointExtension>
            <ns3:atemp>14.0</ns3:atemp>
            <ns3:hr>136</ns3:hr>
          </ns3:TrackPointExtension>
        </extensions>
      </trkpt>
      <trkpt lat="-22.0358184166252613067626953125" lon="166.463440954685211181640625">
        <ele>928.20001220703125</ele>
        <time>2016-08-12T19:38:24.000Z</time>
        <extensions>
          <ns3:TrackPointExtension>
            <ns3:atemp>14.0</ns3:atemp>
            <ns3:hr>136</ns3:hr>
          </ns3:TrackPointExtension>
        </extensions>
      </trkpt>
      <trkpt lat="-22.035793773829936981201171875" lon="166.46344958804547786712646484375">
        <ele>928</ele>
        <time>2016-08-12T19:38:25.000Z</time>
        <extensions>
          <ns3:TrackPointExtension>
            <ns3:atemp>14.0</ns3:atemp>
            <ns3:hr>135</ns3:hr>
          </ns3:TrackPointExtension>
        </extensions>
      </trkpt>
      <trkpt lat="-22.035771310329437255859375" lon="166.4634595625102519989013671875">
        <ele>927.79998779296875</ele>
        <time>2016-08-12T19:38:26.000Z</time>
        <extensions>
          <ns3:TrackPointExtension>
            <ns3:atemp>14.0</ns3:atemp>
            <ns3:hr>136</ns3:hr>
          </ns3:TrackPointExtension>
        </extensions>
      </trkpt>
      <trkpt lat="-22.03574624843895435333251953125" lon="166.46346719004213809967041015625">
        <ele>927.79998779296875</ele>
        <time>2016-08-12T19:38:27.000Z</time>
        <extensions>
          <ns3:TrackPointExtension>
            <ns3:atemp>14.0</ns3:atemp>
            <ns3:hr>135</ns3:hr>
          </ns3:TrackPointExtension>
        </extensions>
      </trkpt>
      <trkpt lat="-22.0357211865484714508056640625" lon="166.46347322501242160797119140625">
        <ele>928</ele>
        <time>2016-08-12T19:38:28.000Z</time>
        <extensions>
          <ns3:TrackPointExtension>
            <ns3:atemp>14.0</ns3:atemp>
            <ns3:hr>135</ns3:hr>
          </ns3:TrackPointExtension>
        </extensions>
      </trkpt>
      <trkpt lat="-22.03569813631474971771240234375" lon="166.46348026581108570098876953125">
        <ele>928.20001220703125</ele>
        <time>2016-08-12T19:38:29.000Z</time>
        <extensions>
          <ns3:TrackPointExtension>
            <ns3:atemp>14.0</ns3:atemp>
            <ns3:hr>135</ns3:hr>
          </ns3:TrackPointExtension>
        </extensions>
      </trkpt>
      <trkpt lat="-22.03567299060523509979248046875" lon="166.46348814480006694793701171875">
        <ele>928</ele>
        <time>2016-08-12T19:38:30.000Z</time>
        <extensions>
          <ns3:TrackPointExtension>
            <ns3:atemp>14.0</ns3:atemp>
            <ns3:hr>135</ns3:hr>
          </ns3:TrackPointExtension>
        </extensions>
      </trkpt>
      <trkpt lat="-22.03564859926700592041015625" lon="166.46349485032260417938232421875">
        <ele>927.79998779296875</ele>
        <time>2016-08-12T19:38:31.000Z</time>
        <extensions>
          <ns3:TrackPointExtension>
            <ns3:atemp>14.0</ns3:atemp>
            <ns3:hr>135</ns3:hr>
          </ns3:TrackPointExtension>
        </extensions>
      </trkpt>
      <trkpt lat="-22.0356239564716815948486328125" lon="166.46350423805415630340576171875">
        <ele>927.79998779296875</ele>
        <time>2016-08-12T19:38:32.000Z</time>
        <extensions>
          <ns3:TrackPointExtension>
            <ns3:atemp>14.0</ns3:atemp>
            <ns3:hr>135</ns3:hr>
          </ns3:TrackPointExtension>
        </extensions>
      </trkpt>
      <trkpt lat="-22.03560124151408672332763671875" lon="166.4635172300040721893310546875">
        <ele>928.20001220703125</ele>
        <time>2016-08-12T19:38:33.000Z</time>
        <extensions>
          <ns3:TrackPointExtension>
            <ns3:atemp>14.0</ns3:atemp>
            <ns3:hr>135</ns3:hr>
          </ns3:TrackPointExtension>
        </extensions>
      </trkpt>
      <trkpt lat="-22.03557877801358699798583984375" lon="166.46352251060307025909423828125">
        <ele>928.20001220703125</ele>
        <time>2016-08-12T19:38:34.000Z</time>
        <extensions>
          <ns3:TrackPointExtension>
            <ns3:atemp>14.0</ns3:atemp>
            <ns3:hr>135</ns3:hr>
          </ns3:TrackPointExtension>
        </extensions>
      </trkpt>
      <trkpt lat="-22.0355538837611675262451171875" lon="166.46352938376367092132568359375">
        <ele>928</ele>
        <time>2016-08-12T19:38:35.000Z</time>
        <extensions>
          <ns3:TrackPointExtension>
            <ns3:atemp>14.0</ns3:atemp>
            <ns3:hr>136</ns3:hr>
          </ns3:TrackPointExtension>
        </extensions>
      </trkpt>
      <trkpt lat="-22.035526894032955169677734375" lon="166.46353608928620815277099609375">
        <ele>928</ele>
        <time>2016-08-12T19:38:36.000Z</time>
        <extensions>
          <ns3:TrackPointExtension>
            <ns3:atemp>14.0</ns3:atemp>
            <ns3:hr>135</ns3:hr>
          </ns3:TrackPointExtension>
        </extensions>
      </trkpt>
      <trkpt lat="-22.0355012454092502593994140625" lon="166.46354296244680881500244140625">
        <ele>928</ele>
        <time>2016-08-12T19:38:37.000Z</time>
        <extensions>
          <ns3:TrackPointExtension>
            <ns3:atemp>14.0</ns3:atemp>
            <ns3:hr>136</ns3:hr>
          </ns3:TrackPointExtension>
        </extensions>
      </trkpt>
      <trkpt lat="-22.03547769226133823394775390625" lon="166.46354950033128261566162109375">
        <ele>928</ele>
        <time>2016-08-12T19:38:38.000Z</time>
        <extensions>
          <ns3:TrackPointExtension>
            <ns3:atemp>14.0</ns3:atemp>
            <ns3:hr>135</ns3:hr>
          </ns3:TrackPointExtension>
        </extensions>
      </trkpt>
      <trkpt lat="-22.0354529656469821929931640625" lon="166.46355100907385349273681640625">
        <ele>927.79998779296875</ele>
        <time>2016-08-12T19:38:39.000Z</time>
        <extensions>
          <ns3:TrackPointExtension>
            <ns3:atemp>14.0</ns3:atemp>
            <ns3:hr>136</ns3:hr>
          </ns3:TrackPointExtension>
        </extensions>
      </trkpt>
      <trkpt lat="-22.03542924486100673675537109375" lon="166.46355436183512210845947265625">
        <ele>927.79998779296875</ele>
        <time>2016-08-12T19:38:40.000Z</time>
        <extensions>
          <ns3:TrackPointExtension>
            <ns3:atemp>14.0</ns3:atemp>
            <ns3:hr>136</ns3:hr>
          </ns3:TrackPointExtension>
        </extensions>
      </trkpt>
      <trkpt lat="-22.03540912829339504241943359375" lon="166.46355352364480495452880859375">
        <ele>928.4000244140625</ele>
        <time>2016-08-12T19:38:41.000Z</time>
        <extensions>
          <ns3:TrackPointExtension>
            <ns3:atemp>14.0</ns3:atemp>
            <ns3:hr>136</ns3:hr>
          </ns3:TrackPointExtension>
        </extensions>
      </trkpt>
      <trkpt lat="-22.03538683243095874786376953125" lon="166.463549919426441192626953125">
        <ele>928.79998779296875</ele>
        <time>2016-08-12T19:38:42.000Z</time>
        <extensions>
          <ns3:TrackPointExtension>
            <ns3:atemp>14.0</ns3:atemp>
            <ns3:hr>135</ns3:hr>
          </ns3:TrackPointExtension>
        </extensions>
      </trkpt>
      <trkpt lat="-22.0353631116449832916259765625" lon="166.46355117671191692352294921875">
        <ele>928.5999755859375</ele>
        <time>2016-08-12T19:38:43.000Z</time>
        <extensions>
          <ns3:TrackPointExtension>
            <ns3:atemp>14.0</ns3:atemp>
            <ns3:hr>136</ns3:hr>
          </ns3:TrackPointExtension>
        </extensions>
      </trkpt>
      <trkpt lat="-22.03534173779189586639404296875" lon="166.4635517634451389312744140625">
        <ele>928.4000244140625</ele>
        <time>2016-08-12T19:38:44.000Z</time>
        <extensions>
          <ns3:TrackPointExtension>
            <ns3:atemp>14.0</ns3:atemp>
            <ns3:hr>136</ns3:hr>
          </ns3:TrackPointExtension>
        </extensions>
      </trkpt>
      <trkpt lat="-22.0353193581104278564453125" lon="166.46355050615966320037841796875">
        <ele>928.5999755859375</ele>
        <time>2016-08-12T19:38:45.000Z</time>
        <extensions>
          <ns3:TrackPointExtension>
            <ns3:atemp>14.0</ns3:atemp>
            <ns3:hr>136</ns3:hr>
          </ns3:TrackPointExtension>
        </extensions>
      </trkpt>
      <trkpt lat="-22.03529655933380126953125" lon="166.4635504223406314849853515625">
        <ele>929</ele>
        <time>2016-08-12T19:38:46.000Z</time>
        <extensions>
          <ns3:TrackPointExtension>
            <ns3:atemp>14.0</ns3:atemp>
            <ns3:hr>136</ns3:hr>
          </ns3:TrackPointExtension>
        </extensions>
      </trkpt>
      <trkpt lat="-22.03527309000492095947265625" lon="166.4635490812361240386962890625">
        <ele>929</ele>
        <time>2016-08-12T19:38:47.000Z</time>
        <extensions>
          <ns3:TrackPointExtension>
            <ns3:atemp>14.0</ns3:atemp>
            <ns3:hr>137</ns3:hr>
          </ns3:TrackPointExtension>
        </extensions>
      </trkpt>
      <trkpt lat="-22.03524903394281864166259765625" lon="166.4635504223406314849853515625">
        <ele>928.79998779296875</ele>
        <time>2016-08-12T19:38:48.000Z</time>
        <extensions>
          <ns3:TrackPointExtension>
            <ns3:atemp>14.0</ns3:atemp>
            <ns3:hr>136</ns3:hr>
          </ns3:TrackPointExtension>
        </extensions>
      </trkpt>
      <trkpt lat="-22.03522640280425548553466796875" lon="166.4635598100721836090087890625">
        <ele>928.79998779296875</ele>
        <time>2016-08-12T19:38:49.000Z</time>
        <extensions>
          <ns3:TrackPointExtension>
            <ns3:atemp>14.0</ns3:atemp>
            <ns3:hr>137</ns3:hr>
          </ns3:TrackPointExtension>
        </extensions>
      </trkpt>
      <trkpt lat="-22.0352005027234554290771484375" lon="166.4635678566992282867431640625">
        <ele>929.20001220703125</ele>
        <time>2016-08-12T19:38:50.000Z</time>
        <extensions>
          <ns3:TrackPointExtension>
            <ns3:atemp>14.0</ns3:atemp>
            <ns3:hr>136</ns3:hr>
          </ns3:TrackPointExtension>
        </extensions>
      </trkpt>
      <trkpt lat="-22.03517678193747997283935546875" lon="166.463577412068843841552734375">
        <ele>929.4000244140625</ele>
        <time>2016-08-12T19:38:51.000Z</time>
        <extensions>
          <ns3:TrackPointExtension>
            <ns3:atemp>14.0</ns3:atemp>
            <ns3:hr>137</ns3:hr>
          </ns3:TrackPointExtension>
        </extensions>
      </trkpt>
      <trkpt lat="-22.0351515524089336395263671875" lon="166.46358973346650600433349609375">
        <ele>929.20001220703125</ele>
        <time>2016-08-12T19:38:52.000Z</time>
        <extensions>
          <ns3:TrackPointExtension>
            <ns3:atemp>14.0</ns3:atemp>
            <ns3:hr>137</ns3:hr>
          </ns3:TrackPointExtension>
        </extensions>
      </trkpt>
      <trkpt lat="-22.0351257361471652984619140625" lon="166.4636013843119144439697265625">
        <ele>929</ele>
        <time>2016-08-12T19:38:53.000Z</time>
        <extensions>
          <ns3:TrackPointExtension>
            <ns3:atemp>14.0</ns3:atemp>
            <ns3:hr>137</ns3:hr>
          </ns3:TrackPointExtension>
        </extensions>
      </trkpt>
      <trkpt lat="-22.03510142862796783447265625" lon="166.4636131189763545989990234375">
        <ele>929</ele>
        <time>2016-08-12T19:38:54.000Z</time>
        <extensions>
          <ns3:TrackPointExtension>
            <ns3:atemp>14.0</ns3:atemp>
            <ns3:hr>137</ns3:hr>
          </ns3:TrackPointExtension>
        </extensions>
      </trkpt>
      <trkpt lat="-22.0350774563848972320556640625" lon="166.4636251889169216156005859375">
        <ele>929.5999755859375</ele>
        <time>2016-08-12T19:38:55.000Z</time>
        <extensions>
          <ns3:TrackPointExtension>
            <ns3:atemp>14.0</ns3:atemp>
            <ns3:hr>137</ns3:hr>
          </ns3:TrackPointExtension>
        </extensions>
      </trkpt>
      <trkpt lat="-22.0350526459515094757080078125" lon="166.4636335708200931549072265625">
        <ele>929.4000244140625</ele>
        <time>2016-08-12T19:38:56.000Z</time>
        <extensions>
          <ns3:TrackPointExtension>
            <ns3:atemp>14.0</ns3:atemp>
            <ns3:hr>137</ns3:hr>
          </ns3:TrackPointExtension>
        </extensions>
      </trkpt>
      <trkpt lat="-22.0350281707942485809326171875" lon="166.46364304237067699432373046875">
        <ele>929</ele>
        <time>2016-08-12T19:38:57.000Z</time>
        <extensions>
          <ns3:TrackPointExtension>
            <ns3:atemp>14.0</ns3:atemp>
            <ns3:hr>136</ns3:hr>
          </ns3:TrackPointExtension>
        </extensions>
      </trkpt>
      <trkpt lat="-22.0350033603608608245849609375" lon="166.46365410648286342620849609375">
        <ele>929</ele>
        <time>2016-08-12T19:38:58.000Z</time>
        <extensions>
          <ns3:TrackPointExtension>
            <ns3:atemp>14.0</ns3:atemp>
            <ns3:hr>136</ns3:hr>
          </ns3:TrackPointExtension>
        </extensions>
      </trkpt>
      <trkpt lat="-22.03498081304132938385009765625" lon="166.46366885863244533538818359375">
        <ele>929.4000244140625</ele>
        <time>2016-08-12T19:38:59.000Z</time>
        <extensions>
          <ns3:TrackPointExtension>
            <ns3:atemp>14.0</ns3:atemp>
            <ns3:hr>136</ns3:hr>
          </ns3:TrackPointExtension>
        </extensions>
      </trkpt>
      <trkpt lat="-22.0349544100463390350341796875" lon="166.46367321722209453582763671875">
        <ele>929.4000244140625</ele>
        <time>2016-08-12T19:39:00.000Z</time>
        <extensions>
          <ns3:TrackPointExtension>
            <ns3:atemp>14.0</ns3:atemp>
            <ns3:hr>136</ns3:hr>
          </ns3:TrackPointExtension>
        </extensions>
      </trkpt>
      <trkpt lat="-22.03493186272680759429931640625" lon="166.4636761508882045745849609375">
        <ele>929</ele>
        <time>2016-08-12T19:39:01.000Z</time>
        <extensions>
          <ns3:TrackPointExtension>
            <ns3:atemp>14.0</ns3:atemp>
            <ns3:hr>136</ns3:hr>
          </ns3:TrackPointExtension>
        </extensions>
      </trkpt>
      <trkpt lat="-22.03490654937922954559326171875" lon="166.46368143148720264434814453125">
        <ele>928.5999755859375</ele>
        <time>2016-08-12T19:39:02.000Z</time>
        <extensions>
          <ns3:TrackPointExtension>
            <ns3:atemp>14.0</ns3:atemp>
            <ns3:hr>136</ns3:hr>
          </ns3:TrackPointExtension>
        </extensions>
      </trkpt>
      <trkpt lat="-22.03487805090844631195068359375" lon="166.46368361078202724456787109375">
        <ele>928.5999755859375</ele>
        <time>2016-08-12T19:39:03.000Z</time>
        <extensions>
          <ns3:TrackPointExtension>
            <ns3:atemp>14.0</ns3:atemp>
            <ns3:hr>135</ns3:hr>
          </ns3:TrackPointExtension>
        </extensions>
      </trkpt>
      <trkpt lat="-22.03485357575118541717529296875" lon="166.463692076504230499267578125">
        <ele>928.5999755859375</ele>
        <time>2016-08-12T19:39:04.000Z</time>
        <extensions>
          <ns3:TrackPointExtension>
            <ns3:atemp>14.0</ns3:atemp>
            <ns3:hr>136</ns3:hr>
          </ns3:TrackPointExtension>
        </extensions>
      </trkpt>
      <trkpt lat="-22.03482977114617824554443359375" lon="166.46370439790189266204833984375">
        <ele>928.79998779296875</ele>
        <time>2016-08-12T19:39:05.000Z</time>
        <extensions>
          <ns3:TrackPointExtension>
            <ns3:atemp>14.0</ns3:atemp>
            <ns3:hr>135</ns3:hr>
          </ns3:TrackPointExtension>
        </extensions>
      </trkpt>
      <trkpt lat="-22.034811079502105712890625" lon="166.46372065879404544830322265625">
        <ele>928.5999755859375</ele>
        <time>2016-08-12T19:39:06.000Z</time>
        <extensions>
          <ns3:TrackPointExtension>
            <ns3:atemp>14.0</ns3:atemp>
            <ns3:hr>135</ns3:hr>
          </ns3:TrackPointExtension>
        </extensions>
      </trkpt>
      <trkpt lat="-22.03479121439158916473388671875" lon="166.46373792551457881927490234375">
        <ele>928.5999755859375</ele>
        <time>2016-08-12T19:39:07.000Z</time>
        <extensions>
          <ns3:TrackPointExtension>
            <ns3:atemp>14.0</ns3:atemp>
            <ns3:hr>135</ns3:hr>
          </ns3:TrackPointExtension>
        </extensions>
      </trkpt>
      <trkpt lat="-22.0347750373184680938720703125" lon="166.46376156248152256011962890625">
        <ele>929</ele>
        <time>2016-08-12T19:39:08.000Z</time>
        <extensions>
          <ns3:TrackPointExtension>
            <ns3:atemp>14.0</ns3:atemp>
            <ns3:hr>135</ns3:hr>
          </ns3:TrackPointExtension>
        </extensions>
      </trkpt>
      <trkpt lat="-22.0347619615495204925537109375" lon="166.4637864567339420318603515625">
        <ele>929.20001220703125</ele>
        <time>2016-08-12T19:39:09.000Z</time>
        <extensions>
          <ns3:TrackPointExtension>
            <ns3:atemp>14.0</ns3:atemp>
            <ns3:hr>135</ns3:hr>
          </ns3:TrackPointExtension>
        </extensions>
      </trkpt>
      <trkpt lat="-22.03475701622664928436279296875" lon="166.46382560022175312042236328125">
        <ele>928.79998779296875</ele>
        <time>2016-08-12T19:39:10.000Z</time>
        <extensions>
          <ns3:TrackPointExtension>
            <ns3:atemp>14.0</ns3:atemp>
            <ns3:hr>135</ns3:hr>
          </ns3:TrackPointExtension>
        </extensions>
      </trkpt>
      <trkpt lat="-22.03475274145603179931640625" lon="166.46385812200605869293212890625">
        <ele>928.5999755859375</ele>
        <time>2016-08-12T19:39:11.000Z</time>
        <extensions>
          <ns3:TrackPointExtension>
            <ns3:atemp>14.0</ns3:atemp>
            <ns3:hr>134</ns3:hr>
          </ns3:TrackPointExtension>
        </extensions>
      </trkpt>
      <trkpt lat="-22.03474997542798519134521484375" lon="166.46389089524745941162109375">
        <ele>929</ele>
        <time>2016-08-12T19:39:12.000Z</time>
        <extensions>
          <ns3:TrackPointExtension>
            <ns3:atemp>14.0</ns3:atemp>
            <ns3:hr>134</ns3:hr>
          </ns3:TrackPointExtension>
        </extensions>
      </trkpt>
      <trkpt lat="-22.03474645502865314483642578125" lon="166.46392199210822582244873046875">
        <ele>929.4000244140625</ele>
        <time>2016-08-12T19:39:13.000Z</time>
        <extensions>
          <ns3:TrackPointExtension>
            <ns3:atemp>14.0</ns3:atemp>
            <ns3:hr>135</ns3:hr>
          </ns3:TrackPointExtension>
        </extensions>
      </trkpt>
      <trkpt lat="-22.03474209643900394439697265625" lon="166.46395334042608737945556640625">
        <ele>929.20001220703125</ele>
        <time>2016-08-12T19:39:14.000Z</time>
        <extensions>
          <ns3:TrackPointExtension>
            <ns3:atemp>14.0</ns3:atemp>
            <ns3:hr>135</ns3:hr>
          </ns3:TrackPointExtension>
        </extensions>
      </trkpt>
      <trkpt lat="-22.0347381569445133209228515625" lon="166.463985107839107513427734375">
        <ele>929</ele>
        <time>2016-08-12T19:39:15.000Z</time>
        <extensions>
          <ns3:TrackPointExtension>
            <ns3:atemp>14.0</ns3:atemp>
            <ns3:hr>135</ns3:hr>
          </ns3:TrackPointExtension>
        </extensions>
      </trkpt>
      <trkpt lat="-22.034728266298770904541015625" lon="166.464011929929256439208984375">
        <ele>929</ele>
        <time>2016-08-12T19:39:16.000Z</time>
        <extensions>
          <ns3:TrackPointExtension>
            <ns3:atemp>14.0</ns3:atemp>
            <ns3:hr>135</ns3:hr>
          </ns3:TrackPointExtension>
        </extensions>
      </trkpt>
      <trkpt lat="-22.03471728600561618804931640625" lon="166.464037410914897918701171875">
        <ele>929.20001220703125</ele>
        <time>2016-08-12T19:39:17.000Z</time>
        <extensions>
          <ns3:TrackPointExtension>
            <ns3:atemp>14.0</ns3:atemp>
            <ns3:hr>135</ns3:hr>
          </ns3:TrackPointExtension>
        </extensions>
      </trkpt>
      <trkpt lat="-22.034704126417636871337890625" lon="166.46406062878668308258056640625">
        <ele>929</ele>
        <time>2016-08-12T19:39:18.000Z</time>
        <extensions>
          <ns3:TrackPointExtension>
            <ns3:atemp>14.0</ns3:atemp>
            <ns3:hr>135</ns3:hr>
          </ns3:TrackPointExtension>
        </extensions>
      </trkpt>
      <trkpt lat="-22.03469146974384784698486328125" lon="166.46408124826848506927490234375">
        <ele>928.5999755859375</ele>
        <time>2016-08-12T19:39:19.000Z</time>
        <extensions>
          <ns3:TrackPointExtension>
            <ns3:atemp>14.0</ns3:atemp>
            <ns3:hr>135</ns3:hr>
          </ns3:TrackPointExtension>
        </extensions>
      </trkpt>
      <trkpt lat="-22.03467654995620250701904296875" lon="166.46410287357866764068603515625">
        <ele>928.79998779296875</ele>
        <time>2016-08-12T19:39:20.000Z</time>
        <extensions>
          <ns3:TrackPointExtension>
            <ns3:atemp>14.0</ns3:atemp>
            <ns3:hr>135</ns3:hr>
          </ns3:TrackPointExtension>
        </extensions>
      </trkpt>
      <trkpt lat="-22.034661881625652313232421875" lon="166.46412399597465991973876953125">
        <ele>928.79998779296875</ele>
        <time>2016-08-12T19:39:21.000Z</time>
        <extensions>
          <ns3:TrackPointExtension>
            <ns3:atemp>14.0</ns3:atemp>
            <ns3:hr>135</ns3:hr>
          </ns3:TrackPointExtension>
        </extensions>
      </trkpt>
      <trkpt lat="-22.0346496440470218658447265625" lon="166.464144028723239898681640625">
        <ele>928.5999755859375</ele>
        <time>2016-08-12T19:39:22.000Z</time>
        <extensions>
          <ns3:TrackPointExtension>
            <ns3:atemp>14.0</ns3:atemp>
            <ns3:hr>135</ns3:hr>
          </ns3:TrackPointExtension>
        </extensions>
      </trkpt>
      <trkpt lat="-22.03463430516421794891357421875" lon="166.46416489966213703155517578125">
        <ele>928.4000244140625</ele>
        <time>2016-08-12T19:39:23.000Z</time>
        <extensions>
          <ns3:TrackPointExtension>
            <ns3:atemp>14.0</ns3:atemp>
            <ns3:hr>135</ns3:hr>
          </ns3:TrackPointExtension>
        </extensions>
      </trkpt>
      <trkpt lat="-22.03461837954819202423095703125" lon="166.4641852676868438720703125">
        <ele>928.79998779296875</ele>
        <time>2016-08-12T19:39:24.000Z</time>
        <extensions>
          <ns3:TrackPointExtension>
            <ns3:atemp>14.0</ns3:atemp>
            <ns3:hr>135</ns3:hr>
          </ns3:TrackPointExtension>
        </extensions>
      </trkpt>
      <trkpt lat="-22.03460413031280040740966796875" lon="166.4642062224447727203369140625">
        <ele>929</ele>
        <time>2016-08-12T19:39:25.000Z</time>
        <extensions>
          <ns3:TrackPointExtension>
            <ns3:atemp>14.0</ns3:atemp>
            <ns3:hr>136</ns3:hr>
          </ns3:TrackPointExtension>
        </extensions>
      </trkpt>
      <trkpt lat="-22.03459105454385280609130859375" lon="166.4642273448407649993896484375">
        <ele>928.5999755859375</ele>
        <time>2016-08-12T19:39:26.000Z</time>
        <extensions>
          <ns3:TrackPointExtension>
            <ns3:atemp>14.0</ns3:atemp>
            <ns3:hr>135</ns3:hr>
          </ns3:TrackPointExtension>
        </extensions>
      </trkpt>
      <trkpt lat="-22.034578062593936920166015625" lon="166.464249975979328155517578125">
        <ele>928.20001220703125</ele>
        <time>2016-08-12T19:39:27.000Z</time>
        <extensions>
          <ns3:TrackPointExtension>
            <ns3:atemp>14.0</ns3:atemp>
            <ns3:hr>136</ns3:hr>
          </ns3:TrackPointExtension>
        </extensions>
      </trkpt>
      <trkpt lat="-22.03456540592014789581298828125" lon="166.4642742834985256195068359375">
        <ele>928.4000244140625</ele>
        <time>2016-08-12T19:39:28.000Z</time>
        <extensions>
          <ns3:TrackPointExtension>
            <ns3:atemp>14.0</ns3:atemp>
            <ns3:hr>135</ns3:hr>
          </ns3:TrackPointExtension>
        </extensions>
      </trkpt>
      <trkpt lat="-22.0345561020076274871826171875" lon="166.46430185995995998382568359375">
        <ele>928.5999755859375</ele>
        <time>2016-08-12T19:39:29.000Z</time>
        <extensions>
          <ns3:TrackPointExtension>
            <ns3:atemp>14.0</ns3:atemp>
            <ns3:hr>136</ns3:hr>
          </ns3:TrackPointExtension>
        </extensions>
      </trkpt>
      <trkpt lat="-22.03454562462866306304931640625" lon="166.4643285982310771942138671875">
        <ele>928.5999755859375</ele>
        <time>2016-08-12T19:39:30.000Z</time>
        <extensions>
          <ns3:TrackPointExtension>
            <ns3:atemp>14.0</ns3:atemp>
            <ns3:hr>135</ns3:hr>
          </ns3:TrackPointExtension>
        </extensions>
      </trkpt>
      <trkpt lat="-22.03453456051647663116455078125" lon="166.4643537439405918121337890625">
        <ele>928.4000244140625</ele>
        <time>2016-08-12T19:39:31.000Z</time>
        <extensions>
          <ns3:TrackPointExtension>
            <ns3:atemp>14.0</ns3:atemp>
            <ns3:hr>136</ns3:hr>
          </ns3:TrackPointExtension>
        </extensions>
      </trkpt>
      <trkpt lat="-22.0345178805291652679443359375" lon="166.4643735252320766448974609375">
        <ele>928.20001220703125</ele>
        <time>2016-08-12T19:39:32.000Z</time>
        <extensions>
          <ns3:TrackPointExtension>
            <ns3:atemp>14.0</ns3:atemp>
            <ns3:hr>136</ns3:hr>
          </ns3:TrackPointExtension>
        </extensions>
      </trkpt>
      <trkpt lat="-22.03450237400829792022705078125" lon="166.46439850330352783203125">
        <ele>928.4000244140625</ele>
        <time>2016-08-12T19:39:33.000Z</time>
        <extensions>
          <ns3:TrackPointExtension>
            <ns3:atemp>14.0</ns3:atemp>
            <ns3:hr>135</ns3:hr>
          </ns3:TrackPointExtension>
        </extensions>
      </trkpt>
      <trkpt lat="-22.03449030406773090362548828125" lon="166.46442356519401073455810546875">
        <ele>928.4000244140625</ele>
        <time>2016-08-12T19:39:34.000Z</time>
        <extensions>
          <ns3:TrackPointExtension>
            <ns3:atemp>14.0</ns3:atemp>
            <ns3:hr>135</ns3:hr>
          </ns3:TrackPointExtension>
        </extensions>
      </trkpt>
      <trkpt lat="-22.03447286970913410186767578125" lon="166.464445106685161590576171875">
        <ele>928.20001220703125</ele>
        <time>2016-08-12T19:39:35.000Z</time>
        <extensions>
          <ns3:TrackPointExtension>
            <ns3:atemp>14.0</ns3:atemp>
            <ns3:hr>135</ns3:hr>
          </ns3:TrackPointExtension>
        </extensions>
      </trkpt>
      <trkpt lat="-22.03445778228342533111572265625" lon="166.46446916274726390838623046875">
        <ele>928</ele>
        <time>2016-08-12T19:39:36.000Z</time>
        <extensions>
          <ns3:TrackPointExtension>
            <ns3:atemp>14.0</ns3:atemp>
            <ns3:hr>135</ns3:hr>
          </ns3:TrackPointExtension>
        </extensions>
      </trkpt>
      <trkpt lat="-22.03444856218993663787841796875" lon="166.46450151689350605010986328125">
        <ele>928.4000244140625</ele>
        <time>2016-08-12T19:39:37.000Z</time>
        <extensions>
          <ns3:TrackPointExtension>
            <ns3:atemp>14.0</ns3:atemp>
            <ns3:hr>135</ns3:hr>
          </ns3:TrackPointExtension>
        </extensions>
      </trkpt>
      <trkpt lat="-22.03444420360028743743896484375" lon="166.4645368047058582305908203125">
        <ele>928.5999755859375</ele>
        <time>2016-08-12T19:39:38.000Z</time>
        <extensions>
          <ns3:TrackPointExtension>
            <ns3:atemp>14.0</ns3:atemp>
            <ns3:hr>135</ns3:hr>
          </ns3:TrackPointExtension>
        </extensions>
      </trkpt>
      <trkpt lat="-22.03444386832416057586669921875" lon="166.4645693264901638031005859375">
        <ele>928.4000244140625</ele>
        <time>2016-08-12T19:39:39.000Z</time>
        <extensions>
          <ns3:TrackPointExtension>
            <ns3:atemp>14.0</ns3:atemp>
            <ns3:hr>135</ns3:hr>
          </ns3:TrackPointExtension>
        </extensions>
      </trkpt>
      <trkpt lat="-22.03444286249577999114990234375" lon="166.46460545249283313751220703125">
        <ele>928.20001220703125</ele>
        <time>2016-08-12T19:39:40.000Z</time>
        <extensions>
          <ns3:TrackPointExtension>
            <ns3:atemp>14.0</ns3:atemp>
            <ns3:hr>135</ns3:hr>
          </ns3:TrackPointExtension>
        </extensions>
      </trkpt>
      <trkpt lat="-22.03444286249577999114990234375" lon="166.46464057266712188720703125">
        <ele>928.4000244140625</ele>
        <time>2016-08-12T19:39:41.000Z</time>
        <extensions>
          <ns3:TrackPointExtension>
            <ns3:atemp>14.0</ns3:atemp>
            <ns3:hr>135</ns3:hr>
          </ns3:TrackPointExtension>
        </extensions>
      </trkpt>
      <trkpt lat="-22.034443952143192291259765625" lon="166.46467183716595172882080078125">
        <ele>928.4000244140625</ele>
        <time>2016-08-12T19:39:42.000Z</time>
        <extensions>
          <ns3:TrackPointExtension>
            <ns3:atemp>14.0</ns3:atemp>
            <ns3:hr>135</ns3:hr>
          </ns3:TrackPointExtension>
        </extensions>
      </trkpt>
      <trkpt lat="-22.034444622695446014404296875" lon="166.46470854990184307098388671875">
        <ele>928.20001220703125</ele>
        <time>2016-08-12T19:39:43.000Z</time>
        <extensions>
          <ns3:TrackPointExtension>
            <ns3:atemp>14.0</ns3:atemp>
            <ns3:hr>134</ns3:hr>
          </ns3:TrackPointExtension>
        </extensions>
      </trkpt>
      <trkpt lat="-22.03444587998092174530029296875" lon="166.464747525751590728759765625">
        <ele>927.79998779296875</ele>
        <time>2016-08-12T19:39:44.000Z</time>
        <extensions>
          <ns3:TrackPointExtension>
            <ns3:atemp>14.0</ns3:atemp>
            <ns3:hr>134</ns3:hr>
          </ns3:TrackPointExtension>
        </extensions>
      </trkpt>
      <trkpt lat="-22.0344476401805877685546875" lon="166.46479035727679729461669921875">
        <ele>927.79998779296875</ele>
        <time>2016-08-12T19:39:45.000Z</time>
        <extensions>
          <ns3:TrackPointExtension>
            <ns3:atemp>14.0</ns3:atemp>
            <ns3:hr>134</ns3:hr>
          </ns3:TrackPointExtension>
        </extensions>
      </trkpt>
      <trkpt lat="-22.03444269485771656036376953125" lon="166.464825309813022613525390625">
        <ele>928.20001220703125</ele>
        <time>2016-08-12T19:39:46.000Z</time>
        <extensions>
          <ns3:TrackPointExtension>
            <ns3:atemp>14.0</ns3:atemp>
            <ns3:hr>134</ns3:hr>
          </ns3:TrackPointExtension>
        </extensions>
      </trkpt>
      <trkpt lat="-22.034435234963893890380859375" lon="166.46485506556928157806396484375">
        <ele>928.20001220703125</ele>
        <time>2016-08-12T19:39:47.000Z</time>
        <extensions>
          <ns3:TrackPointExtension>
            <ns3:atemp>14.0</ns3:atemp>
            <ns3:hr>134</ns3:hr>
          </ns3:TrackPointExtension>
        </extensions>
      </trkpt>
      <trkpt lat="-22.0344235002994537353515625" lon="166.464881636202335357666015625">
        <ele>928</ele>
        <time>2016-08-12T19:39:48.000Z</time>
        <extensions>
          <ns3:TrackPointExtension>
            <ns3:atemp>14.0</ns3:atemp>
            <ns3:hr>134</ns3:hr>
          </ns3:TrackPointExtension>
        </extensions>
      </trkpt>
      <trkpt lat="-22.03440732322633266448974609375" lon="166.46489311940968036651611328125">
        <ele>928</ele>
        <time>2016-08-12T19:39:49.000Z</time>
        <extensions>
          <ns3:TrackPointExtension>
            <ns3:atemp>14.0</ns3:atemp>
            <ns3:hr>134</ns3:hr>
          </ns3:TrackPointExtension>
        </extensions>
      </trkpt>
      <trkpt lat="-22.03439734876155853271484375" lon="166.46491684019565582275390625">
        <ele>928.5999755859375</ele>
        <time>2016-08-12T19:39:50.000Z</time>
        <extensions>
          <ns3:TrackPointExtension>
            <ns3:atemp>14.0</ns3:atemp>
            <ns3:hr>134</ns3:hr>
          </ns3:TrackPointExtension>
        </extensions>
      </trkpt>
      <trkpt lat="-22.03438787721097469329833984375" lon="166.46493653766810894012451171875">
        <ele>928.79998779296875</ele>
        <time>2016-08-12T19:39:51.000Z</time>
        <extensions>
          <ns3:TrackPointExtension>
            <ns3:atemp>14.0</ns3:atemp>
            <ns3:hr>134</ns3:hr>
          </ns3:TrackPointExtension>
        </extensions>
      </trkpt>
      <trkpt lat="-22.03437966294586658477783203125" lon="166.46495841443538665771484375">
        <ele>928.4000244140625</ele>
        <time>2016-08-12T19:39:52.000Z</time>
        <extensions>
          <ns3:TrackPointExtension>
            <ns3:atemp>14.0</ns3:atemp>
            <ns3:hr>135</ns3:hr>
          </ns3:TrackPointExtension>
        </extensions>
      </trkpt>
      <trkpt lat="-22.03437480144202709197998046875" lon="166.4649860747158527374267578125">
        <ele>928.4000244140625</ele>
        <time>2016-08-12T19:39:53.000Z</time>
        <extensions>
          <ns3:TrackPointExtension>
            <ns3:atemp>14.0</ns3:atemp>
            <ns3:hr>135</ns3:hr>
          </ns3:TrackPointExtension>
        </extensions>
      </trkpt>
      <trkpt lat="-22.03437128104269504547119140625" lon="166.4650212787091732025146484375">
        <ele>928.79998779296875</ele>
        <time>2016-08-12T19:39:54.000Z</time>
        <extensions>
          <ns3:TrackPointExtension>
            <ns3:atemp>14.0</ns3:atemp>
            <ns3:hr>135</ns3:hr>
          </ns3:TrackPointExtension>
        </extensions>
      </trkpt>
      <trkpt lat="-22.034369520843029022216796875" lon="166.46505338139832019805908203125">
        <ele>928.5999755859375</ele>
        <time>2016-08-12T19:39:55.000Z</time>
        <extensions>
          <ns3:TrackPointExtension>
            <ns3:atemp>14.0</ns3:atemp>
            <ns3:hr>135</ns3:hr>
          </ns3:TrackPointExtension>
        </extensions>
      </trkpt>
      <trkpt lat="-22.0343720354139804840087890625" lon="166.46508925594389438629150390625">
        <ele>928.20001220703125</ele>
        <time>2016-08-12T19:39:56.000Z</time>
        <extensions>
          <ns3:TrackPointExtension>
            <ns3:atemp>14.0</ns3:atemp>
            <ns3:hr>135</ns3:hr>
          </ns3:TrackPointExtension>
        </extensions>
      </trkpt>
      <trkpt lat="-22.0343740470707416534423828125" lon="166.465121023356914520263671875">
        <ele>928.4000244140625</ele>
        <time>2016-08-12T19:39:57.000Z</time>
        <extensions>
          <ns3:TrackPointExtension>
            <ns3:atemp>14.0</ns3:atemp>
            <ns3:hr>135</ns3:hr>
          </ns3:TrackPointExtension>
        </extensions>
      </trkpt>
      <trkpt lat="-22.03437329269945621490478515625" lon="166.465153209865093231201171875">
        <ele>928.4000244140625</ele>
        <time>2016-08-12T19:39:58.000Z</time>
        <extensions>
          <ns3:TrackPointExtension>
            <ns3:atemp>14.0</ns3:atemp>
            <ns3:hr>135</ns3:hr>
          </ns3:TrackPointExtension>
        </extensions>
      </trkpt>
      <trkpt lat="-22.03436541371047496795654296875" lon="166.46518447436392307281494140625">
        <ele>928.20001220703125</ele>
        <time>2016-08-12T19:39:59.000Z</time>
        <extensions>
          <ns3:TrackPointExtension>
            <ns3:atemp>14.0</ns3:atemp>
            <ns3:hr>135</ns3:hr>
          </ns3:TrackPointExtension>
        </extensions>
      </trkpt>
      <trkpt lat="-22.03435585834085941314697265625" lon="166.46521322429180145263671875">
        <ele>928</ele>
        <time>2016-08-12T19:40:00.000Z</time>
        <extensions>
          <ns3:TrackPointExtension>
            <ns3:atemp>14.0</ns3:atemp>
            <ns3:hr>135</ns3:hr>
          </ns3:TrackPointExtension>
        </extensions>
      </trkpt>
      <trkpt lat="-22.03434278257191181182861328125" lon="166.465241052210330963134765625">
        <ele>928</ele>
        <time>2016-08-12T19:40:01.000Z</time>
        <extensions>
          <ns3:TrackPointExtension>
            <ns3:atemp>14.0</ns3:atemp>
            <ns3:hr>135</ns3:hr>
          </ns3:TrackPointExtension>
        </extensions>
      </trkpt>
      <trkpt lat="-22.0343354903161525726318359375" lon="166.46527089178562164306640625">
        <ele>928</ele>
        <time>2016-08-12T19:40:02.000Z</time>
        <extensions>
          <ns3:TrackPointExtension>
            <ns3:atemp>14.0</ns3:atemp>
            <ns3:hr>135</ns3:hr>
          </ns3:TrackPointExtension>
        </extensions>
      </trkpt>
      <trkpt lat="-22.03432166017591953277587890625" lon="166.46528807468712329864501953125">
        <ele>927.79998779296875</ele>
        <time>2016-08-12T19:40:03.000Z</time>
        <extensions>
          <ns3:TrackPointExtension>
            <ns3:atemp>14.0</ns3:atemp>
            <ns3:hr>136</ns3:hr>
          </ns3:TrackPointExtension>
        </extensions>
      </trkpt>
      <trkpt lat="-22.034307159483432769775390625" lon="166.4652992226183414459228515625">
        <ele>927.79998779296875</ele>
        <time>2016-08-12T19:40:04.000Z</time>
        <extensions>
          <ns3:TrackPointExtension>
            <ns3:atemp>14.0</ns3:atemp>
            <ns3:hr>135</ns3:hr>
          </ns3:TrackPointExtension>
        </extensions>
      </trkpt>
      <trkpt lat="-22.0342898927628993988037109375" lon="166.4653072692453861236572265625">
        <ele>928</ele>
        <time>2016-08-12T19:40:05.000Z</time>
        <extensions>
          <ns3:TrackPointExtension>
            <ns3:atemp>14.0</ns3:atemp>
            <ns3:hr>136</ns3:hr>
          </ns3:TrackPointExtension>
        </extensions>
      </trkpt>
      <trkpt lat="-22.0342687703669071197509765625" lon="166.46531514823436737060546875">
        <ele>928.20001220703125</ele>
        <time>2016-08-12T19:40:06.000Z</time>
        <extensions>
          <ns3:TrackPointExtension>
            <ns3:atemp>14.0</ns3:atemp>
            <ns3:hr>136</ns3:hr>
          </ns3:TrackPointExtension>
        </extensions>
      </trkpt>
      <trkpt lat="-22.03425410203635692596435546875" lon="166.46532948128879070281982421875">
        <ele>928.20001220703125</ele>
        <time>2016-08-12T19:40:07.000Z</time>
        <extensions>
          <ns3:TrackPointExtension>
            <ns3:atemp>14.0</ns3:atemp>
            <ns3:hr>136</ns3:hr>
          </ns3:TrackPointExtension>
        </extensions>
      </trkpt>
      <trkpt lat="-22.034237422049045562744140625" lon="166.46534356288611888885498046875">
        <ele>927.79998779296875</ele>
        <time>2016-08-12T19:40:08.000Z</time>
        <extensions>
          <ns3:TrackPointExtension>
            <ns3:atemp>14.0</ns3:atemp>
            <ns3:hr>136</ns3:hr>
          </ns3:TrackPointExtension>
        </extensions>
      </trkpt>
      <trkpt lat="-22.0342194847762584686279296875" lon="166.4653605781495571136474609375">
        <ele>927.79998779296875</ele>
        <time>2016-08-12T19:40:09.000Z</time>
        <extensions>
          <ns3:TrackPointExtension>
            <ns3:atemp>14.0</ns3:atemp>
            <ns3:hr>137</ns3:hr>
          </ns3:TrackPointExtension>
        </extensions>
      </trkpt>
      <trkpt lat="-22.0342030562460422515869140625" lon="166.465370468795299530029296875">
        <ele>928.20001220703125</ele>
        <time>2016-08-12T19:40:10.000Z</time>
        <extensions>
          <ns3:TrackPointExtension>
            <ns3:atemp>14.0</ns3:atemp>
            <ns3:hr>136</ns3:hr>
          </ns3:TrackPointExtension>
        </extensions>
      </trkpt>
      <trkpt lat="-22.034187801182270050048828125" lon="166.46538756787776947021484375">
        <ele>928.4000244140625</ele>
        <time>2016-08-12T19:40:11.000Z</time>
        <extensions>
          <ns3:TrackPointExtension>
            <ns3:atemp>14.0</ns3:atemp>
            <ns3:hr>137</ns3:hr>
          </ns3:TrackPointExtension>
        </extensions>
      </trkpt>
      <trkpt lat="-22.0341728813946247100830078125" lon="166.465403996407985687255859375">
        <ele>928.20001220703125</ele>
        <time>2016-08-12T19:40:12.000Z</time>
        <extensions>
          <ns3:TrackPointExtension>
            <ns3:atemp>14.0</ns3:atemp>
            <ns3:hr>137</ns3:hr>
          </ns3:TrackPointExtension>
        </extensions>
      </trkpt>
      <trkpt lat="-22.03415687195956707000732421875" lon="166.46541916765272617340087890625">
        <ele>928.20001220703125</ele>
        <time>2016-08-12T19:40:13.000Z</time>
        <extensions>
          <ns3:TrackPointExtension>
            <ns3:atemp>14.0</ns3:atemp>
            <ns3:hr>137</ns3:hr>
          </ns3:TrackPointExtension>
        </extensions>
      </trkpt>
      <trkpt lat="-22.03414044342935085296630859375" lon="166.46543811075389385223388671875">
        <ele>928.4000244140625</ele>
        <time>2016-08-12T19:40:14.000Z</time>
        <extensions>
          <ns3:TrackPointExtension>
            <ns3:atemp>14.0</ns3:atemp>
            <ns3:hr>137</ns3:hr>
          </ns3:TrackPointExtension>
        </extensions>
      </trkpt>
      <trkpt lat="-22.03412376344203948974609375" lon="166.46545328199863433837890625">
        <ele>928.20001220703125</ele>
        <time>2016-08-12T19:40:15.000Z</time>
        <extensions>
          <ns3:TrackPointExtension>
            <ns3:atemp>14.0</ns3:atemp>
            <ns3:hr>138</ns3:hr>
          </ns3:TrackPointExtension>
        </extensions>
      </trkpt>
      <trkpt lat="-22.03410901129245758056640625" lon="166.4654826186597347259521484375">
        <ele>928</ele>
        <time>2016-08-12T19:40:16.000Z</time>
        <extensions>
          <ns3:TrackPointExtension>
            <ns3:atemp>14.0</ns3:atemp>
            <ns3:hr>138</ns3:hr>
          </ns3:TrackPointExtension>
        </extensions>
      </trkpt>
      <trkpt lat="-22.03409467823803424835205078125" lon="166.46550516597926616668701171875">
        <ele>927.79998779296875</ele>
        <time>2016-08-12T19:40:17.000Z</time>
        <extensions>
          <ns3:TrackPointExtension>
            <ns3:atemp>14.0</ns3:atemp>
            <ns3:hr>138</ns3:hr>
          </ns3:TrackPointExtension>
        </extensions>
      </trkpt>
      <trkpt lat="-22.03408076427876949310302734375" lon="166.46552838385105133056640625">
        <ele>928</ele>
        <time>2016-08-12T19:40:18.000Z</time>
        <extensions>
          <ns3:TrackPointExtension>
            <ns3:atemp>14.0</ns3:atemp>
            <ns3:hr>137</ns3:hr>
          </ns3:TrackPointExtension>
        </extensions>
      </trkpt>
      <trkpt lat="-22.0340632461011409759521484375" lon="166.46554606966674327850341796875">
        <ele>928</ele>
        <time>2016-08-12T19:40:19.000Z</time>
        <extensions>
          <ns3:TrackPointExtension>
            <ns3:atemp>14.0</ns3:atemp>
            <ns3:hr>137</ns3:hr>
          </ns3:TrackPointExtension>
        </extensions>
      </trkpt>
      <trkpt lat="-22.03405000269412994384765625" lon="166.4655634202063083648681640625">
        <ele>927.5999755859375</ele>
        <time>2016-08-12T19:40:20.000Z</time>
        <extensions>
          <ns3:TrackPointExtension>
            <ns3:atemp>14.0</ns3:atemp>
            <ns3:hr>137</ns3:hr>
          </ns3:TrackPointExtension>
        </extensions>
      </trkpt>
      <trkpt lat="-22.03403382562100887298583984375" lon="166.46557020954787731170654296875">
        <ele>927.79998779296875</ele>
        <time>2016-08-12T19:40:21.000Z</time>
        <extensions>
          <ns3:TrackPointExtension>
            <ns3:atemp>14.0</ns3:atemp>
            <ns3:hr>137</ns3:hr>
          </ns3:TrackPointExtension>
        </extensions>
      </trkpt>
      <trkpt lat="-22.0340153016149997711181640625" lon="166.46558160893619060516357421875">
        <ele>928</ele>
        <time>2016-08-12T19:40:22.000Z</time>
        <extensions>
          <ns3:TrackPointExtension>
            <ns3:atemp>14.0</ns3:atemp>
            <ns3:hr>137</ns3:hr>
          </ns3:TrackPointExtension>
        </extensions>
      </trkpt>
      <trkpt lat="-22.03399711288511753082275390625" lon="166.46559267304837703704833984375">
        <ele>927.5999755859375</ele>
        <time>2016-08-12T19:40:23.000Z</time>
        <extensions>
          <ns3:TrackPointExtension>
            <ns3:atemp>14.0</ns3:atemp>
            <ns3:hr>137</ns3:hr>
          </ns3:TrackPointExtension>
        </extensions>
      </trkpt>
      <trkpt lat="-22.03397699631750583648681640625" lon="166.46560625173151493072509765625">
        <ele>927.5999755859375</ele>
        <time>2016-08-12T19:40:24.000Z</time>
        <extensions>
          <ns3:TrackPointExtension>
            <ns3:atemp>14.0</ns3:atemp>
            <ns3:hr>137</ns3:hr>
          </ns3:TrackPointExtension>
        </extensions>
      </trkpt>
      <trkpt lat="-22.03395771794021129608154296875" lon="166.46561681292951107025146484375">
        <ele>927.5999755859375</ele>
        <time>2016-08-12T19:40:25.000Z</time>
        <extensions>
          <ns3:TrackPointExtension>
            <ns3:atemp>14.0</ns3:atemp>
            <ns3:hr>137</ns3:hr>
          </ns3:TrackPointExtension>
        </extensions>
      </trkpt>
      <trkpt lat="-22.0339345000684261322021484375" lon="166.4656271226704120635986328125">
        <ele>927.5999755859375</ele>
        <time>2016-08-12T19:40:26.000Z</time>
        <extensions>
          <ns3:TrackPointExtension>
            <ns3:atemp>14.0</ns3:atemp>
            <ns3:hr>136</ns3:hr>
          </ns3:TrackPointExtension>
        </extensions>
      </trkpt>
      <trkpt lat="-22.033909857273101806640625" lon="166.46563969552516937255859375">
        <ele>927.79998779296875</ele>
        <time>2016-08-12T19:40:27.000Z</time>
        <extensions>
          <ns3:TrackPointExtension>
            <ns3:atemp>14.0</ns3:atemp>
            <ns3:hr>136</ns3:hr>
          </ns3:TrackPointExtension>
        </extensions>
      </trkpt>
      <trkpt lat="-22.03388663940131664276123046875" lon="166.465651094913482666015625">
        <ele>927.5999755859375</ele>
        <time>2016-08-12T19:40:28.000Z</time>
        <extensions>
          <ns3:TrackPointExtension>
            <ns3:atemp>14.0</ns3:atemp>
            <ns3:hr>135</ns3:hr>
          </ns3:TrackPointExtension>
        </extensions>
      </trkpt>
      <trkpt lat="-22.0338617451488971710205078125" lon="166.46566391922533512115478515625">
        <ele>927.79998779296875</ele>
        <time>2016-08-12T19:40:29.000Z</time>
        <extensions>
          <ns3:TrackPointExtension>
            <ns3:atemp>14.0</ns3:atemp>
            <ns3:hr>135</ns3:hr>
          </ns3:TrackPointExtension>
        </extensions>
      </trkpt>
      <trkpt lat="-22.03383668325841426849365234375" lon="166.465679593384265899658203125">
        <ele>928</ele>
        <time>2016-08-12T19:40:30.000Z</time>
        <extensions>
          <ns3:TrackPointExtension>
            <ns3:atemp>14.0</ns3:atemp>
            <ns3:hr>135</ns3:hr>
          </ns3:TrackPointExtension>
        </extensions>
      </trkpt>
      <trkpt lat="-22.033810280263423919677734375" lon="166.465691663324832916259765625">
        <ele>927.79998779296875</ele>
        <time>2016-08-12T19:40:31.000Z</time>
        <extensions>
          <ns3:TrackPointExtension>
            <ns3:atemp>14.0</ns3:atemp>
            <ns3:hr>135</ns3:hr>
          </ns3:TrackPointExtension>
        </extensions>
      </trkpt>
      <trkpt lat="-22.033787481486797332763671875" lon="166.46570616401731967926025390625">
        <ele>927.5999755859375</ele>
        <time>2016-08-12T19:40:32.000Z</time>
        <extensions>
          <ns3:TrackPointExtension>
            <ns3:atemp>14.0</ns3:atemp>
            <ns3:hr>135</ns3:hr>
          </ns3:TrackPointExtension>
        </extensions>
      </trkpt>
      <trkpt lat="-22.0337692089378833770751953125" lon="166.46572141908109188079833984375">
        <ele>927.5999755859375</ele>
        <time>2016-08-12T19:40:33.000Z</time>
        <extensions>
          <ns3:TrackPointExtension>
            <ns3:atemp>14.0</ns3:atemp>
            <ns3:hr>135</ns3:hr>
          </ns3:TrackPointExtension>
        </extensions>
      </trkpt>
      <trkpt lat="-22.03375051729381084442138671875" lon="166.46573835052549839019775390625">
        <ele>927.79998779296875</ele>
        <time>2016-08-12T19:40:34.000Z</time>
        <extensions>
          <ns3:TrackPointExtension>
            <ns3:atemp>14.0</ns3:atemp>
            <ns3:hr>135</ns3:hr>
          </ns3:TrackPointExtension>
        </extensions>
      </trkpt>
      <trkpt lat="-22.03373056836426258087158203125" lon="166.465756706893444061279296875">
        <ele>928</ele>
        <time>2016-08-12T19:40:35.000Z</time>
        <extensions>
          <ns3:TrackPointExtension>
            <ns3:atemp>14.0</ns3:atemp>
            <ns3:hr>135</ns3:hr>
          </ns3:TrackPointExtension>
        </extensions>
      </trkpt>
      <trkpt lat="-22.03371263109147548675537109375" lon="166.46577858366072177886962890625">
        <ele>927.79998779296875</ele>
        <time>2016-08-12T19:40:36.000Z</time>
        <extensions>
          <ns3:TrackPointExtension>
            <ns3:atemp>14.0</ns3:atemp>
            <ns3:hr>135</ns3:hr>
          </ns3:TrackPointExtension>
        </extensions>
      </trkpt>
      <trkpt lat="-22.033695615828037261962890625" lon="166.4658004604279994964599609375">
        <ele>927.79998779296875</ele>
        <time>2016-08-12T19:40:37.000Z</time>
        <extensions>
          <ns3:TrackPointExtension>
            <ns3:atemp>14.0</ns3:atemp>
            <ns3:hr>135</ns3:hr>
          </ns3:TrackPointExtension>
        </extensions>
      </trkpt>
      <trkpt lat="-22.03368254005908966064453125" lon="166.46582233719527721405029296875">
        <ele>927.79998779296875</ele>
        <time>2016-08-12T19:40:38.000Z</time>
        <extensions>
          <ns3:TrackPointExtension>
            <ns3:atemp>14.0</ns3:atemp>
            <ns3:hr>135</ns3:hr>
          </ns3:TrackPointExtension>
        </extensions>
      </trkpt>
      <trkpt lat="-22.03367323614656925201416015625" lon="166.46584982983767986297607421875">
        <ele>927.79998779296875</ele>
        <time>2016-08-12T19:40:39.000Z</time>
        <extensions>
          <ns3:TrackPointExtension>
            <ns3:atemp>14.0</ns3:atemp>
            <ns3:hr>135</ns3:hr>
          </ns3:TrackPointExtension>
        </extensions>
      </trkpt>
      <trkpt lat="-22.03366602770984172821044921875" lon="166.46588377654552459716796875">
        <ele>927.5999755859375</ele>
        <time>2016-08-12T19:40:40.000Z</time>
        <extensions>
          <ns3:TrackPointExtension>
            <ns3:atemp>14.0</ns3:atemp>
            <ns3:hr>135</ns3:hr>
          </ns3:TrackPointExtension>
        </extensions>
      </trkpt>
      <trkpt lat="-22.0336578972637653350830078125" lon="166.465914286673069000244140625">
        <ele>927.79998779296875</ele>
        <time>2016-08-12T19:40:41.000Z</time>
        <extensions>
          <ns3:TrackPointExtension>
            <ns3:atemp>14.0</ns3:atemp>
            <ns3:hr>135</ns3:hr>
          </ns3:TrackPointExtension>
        </extensions>
      </trkpt>
      <trkpt lat="-22.03364959917962551116943359375" lon="166.46594169549643993377685546875">
        <ele>928.20001220703125</ele>
        <time>2016-08-12T19:40:42.000Z</time>
        <extensions>
          <ns3:TrackPointExtension>
            <ns3:atemp>14.0</ns3:atemp>
            <ns3:hr>135</ns3:hr>
          </ns3:TrackPointExtension>
        </extensions>
      </trkpt>
      <trkpt lat="-22.03364524058997631072998046875" lon="166.46597572602331638336181640625">
        <ele>927.79998779296875</ele>
        <time>2016-08-12T19:40:43.000Z</time>
        <extensions>
          <ns3:TrackPointExtension>
            <ns3:atemp>14.0</ns3:atemp>
            <ns3:hr>135</ns3:hr>
          </ns3:TrackPointExtension>
        </extensions>
      </trkpt>
      <trkpt lat="-22.03364406712353229522705078125" lon="166.46601109765470027923583984375">
        <ele>927.5999755859375</ele>
        <time>2016-08-12T19:40:44.000Z</time>
        <extensions>
          <ns3:TrackPointExtension>
            <ns3:atemp>14.0</ns3:atemp>
            <ns3:hr>135</ns3:hr>
          </ns3:TrackPointExtension>
        </extensions>
      </trkpt>
      <trkpt lat="-22.03364088200032711029052734375" lon="166.46604496054351329803466796875">
        <ele>927.79998779296875</ele>
        <time>2016-08-12T19:40:45.000Z</time>
        <extensions>
          <ns3:TrackPointExtension>
            <ns3:atemp>14.0</ns3:atemp>
            <ns3:hr>136</ns3:hr>
          </ns3:TrackPointExtension>
        </extensions>
      </trkpt>
      <trkpt lat="-22.03363585285842418670654296875" lon="166.46619667299091815948486328125">
        <ele>928</ele>
        <time>2016-08-12T19:40:50.000Z</time>
        <extensions>
          <ns3:TrackPointExtension>
            <ns3:atemp>14.0</ns3:atemp>
            <ns3:hr>136</ns3:hr>
          </ns3:TrackPointExtension>
        </extensions>
      </trkpt>
      <trkpt lat="-22.0336481742560863494873046875" lon="166.46640571765601634979248046875">
        <ele>927.79998779296875</ele>
        <time>2016-08-12T19:40:59.000Z</time>
        <extensions>
          <ns3:TrackPointExtension>
            <ns3:atemp>14.0</ns3:atemp>
          </ns3:TrackPointExtension>
        </extensions>
      </trkpt>
      <trkpt lat="-22.0335965417325496673583984375" lon="166.46665683947503566741943359375">
        <ele>927.4000244140625</ele>
        <time>2016-08-12T19:41:10.000Z</time>
        <extensions>
          <ns3:TrackPointExtension>
            <ns3:atemp>14.0</ns3:atemp>
            <ns3:hr>135</ns3:hr>
          </ns3:TrackPointExtension>
        </extensions>
      </trkpt>
      <trkpt lat="-22.0335931889712810516357421875" lon="166.4667137525975704193115234375">
        <ele>927.5999755859375</ele>
        <time>2016-08-12T19:41:13.000Z</time>
        <extensions>
          <ns3:TrackPointExtension>
            <ns3:atemp>14.0</ns3:atemp>
            <ns3:hr>134</ns3:hr>
          </ns3:TrackPointExtension>
        </extensions>
      </trkpt>
      <trkpt lat="-22.03359109349548816680908203125" lon="166.4667368866503238677978515625">
        <ele>927.5999755859375</ele>
        <time>2016-08-12T19:41:14.000Z</time>
        <extensions>
          <ns3:TrackPointExtension>
            <ns3:atemp>14.0</ns3:atemp>
            <ns3:hr>134</ns3:hr>
          </ns3:TrackPointExtension>
        </extensions>
      </trkpt>
      <trkpt lat="-22.03359134495258331298828125" lon="166.4667553268373012542724609375">
        <ele>928.20001220703125</ele>
        <time>2016-08-12T19:41:15.000Z</time>
        <extensions>
          <ns3:TrackPointExtension>
            <ns3:atemp>14.0</ns3:atemp>
            <ns3:hr>134</ns3:hr>
          </ns3:TrackPointExtension>
        </extensions>
      </trkpt>
      <trkpt lat="-22.03359075821936130523681640625" lon="166.46677158772945404052734375">
        <ele>928</ele>
        <time>2016-08-12T19:41:16.000Z</time>
        <extensions>
          <ns3:TrackPointExtension>
            <ns3:atemp>14.0</ns3:atemp>
            <ns3:hr>134</ns3:hr>
          </ns3:TrackPointExtension>
        </extensions>
      </trkpt>
      <trkpt lat="-22.033593691885471343994140625" lon="166.46678625606000423431396484375">
        <ele>927.5999755859375</ele>
        <time>2016-08-12T19:41:17.000Z</time>
        <extensions>
          <ns3:TrackPointExtension>
            <ns3:atemp>14.0</ns3:atemp>
            <ns3:hr>135</ns3:hr>
          </ns3:TrackPointExtension>
        </extensions>
      </trkpt>
      <trkpt lat="-22.03359813429415225982666015625" lon="166.46679715253412723541259765625">
        <ele>927.4000244140625</ele>
        <time>2016-08-12T19:41:18.000Z</time>
        <extensions>
          <ns3:TrackPointExtension>
            <ns3:atemp>14.0</ns3:atemp>
            <ns3:hr>134</ns3:hr>
          </ns3:TrackPointExtension>
        </extensions>
      </trkpt>
      <trkpt lat="-22.03360048122704029083251953125" lon="166.46680972538888454437255859375">
        <ele>927.4000244140625</ele>
        <time>2016-08-12T19:41:19.000Z</time>
        <extensions>
          <ns3:TrackPointExtension>
            <ns3:atemp>14.0</ns3:atemp>
            <ns3:hr>134</ns3:hr>
          </ns3:TrackPointExtension>
        </extensions>
      </trkpt>
      <trkpt lat="-22.0336002297699451446533203125" lon="166.46682514809072017669677734375">
        <ele>927</ele>
        <time>2016-08-12T19:41:20.000Z</time>
        <extensions>
          <ns3:TrackPointExtension>
            <ns3:atemp>14.0</ns3:atemp>
            <ns3:hr>134</ns3:hr>
          </ns3:TrackPointExtension>
        </extensions>
      </trkpt>
      <trkpt lat="-22.033597715198993682861328125" lon="166.46685414947569370269775390625">
        <ele>926.79998779296875</ele>
        <time>2016-08-12T19:41:22.000Z</time>
        <extensions>
          <ns3:TrackPointExtension>
            <ns3:atemp>14.0</ns3:atemp>
            <ns3:hr>134</ns3:hr>
          </ns3:TrackPointExtension>
        </extensions>
      </trkpt>
      <trkpt lat="-22.0335905067622661590576171875" lon="166.4668723382055759429931640625">
        <ele>926.79998779296875</ele>
        <time>2016-08-12T19:41:23.000Z</time>
        <extensions>
          <ns3:TrackPointExtension>
            <ns3:atemp>14.0</ns3:atemp>
            <ns3:hr>134</ns3:hr>
          </ns3:TrackPointExtension>
        </extensions>
      </trkpt>
      <trkpt lat="-22.0335851423442363739013671875" lon="166.46689538843929767608642578125">
        <ele>926.5999755859375</ele>
        <time>2016-08-12T19:41:24.000Z</time>
        <extensions>
          <ns3:TrackPointExtension>
            <ns3:atemp>14.0</ns3:atemp>
            <ns3:hr>134</ns3:hr>
          </ns3:TrackPointExtension>
        </extensions>
      </trkpt>
      <trkpt lat="-22.0335566438734531402587890625" lon="166.46689505316317081451416015625">
        <ele>926.5999755859375</ele>
        <time>2016-08-12T19:41:25.000Z</time>
        <extensions>
          <ns3:TrackPointExtension>
            <ns3:atemp>14.0</ns3:atemp>
            <ns3:hr>134</ns3:hr>
          </ns3:TrackPointExtension>
        </extensions>
      </trkpt>
      <trkpt lat="-22.03353074379265308380126953125" lon="166.4669058658182621002197265625">
        <ele>926.79998779296875</ele>
        <time>2016-08-12T19:41:26.000Z</time>
        <extensions>
          <ns3:TrackPointExtension>
            <ns3:atemp>14.0</ns3:atemp>
            <ns3:hr>134</ns3:hr>
          </ns3:TrackPointExtension>
        </extensions>
      </trkpt>
      <trkpt lat="-22.03350953757762908935546875" lon="166.46691466681659221649169921875">
        <ele>927</ele>
        <time>2016-08-12T19:41:27.000Z</time>
        <extensions>
          <ns3:TrackPointExtension>
            <ns3:atemp>14.0</ns3:atemp>
            <ns3:hr>133</ns3:hr>
          </ns3:TrackPointExtension>
        </extensions>
      </trkpt>
      <trkpt lat="-22.03349771909415721893310546875" lon="166.4669129066169261932373046875">
        <ele>927</ele>
        <time>2016-08-12T19:41:28.000Z</time>
        <extensions>
          <ns3:TrackPointExtension>
            <ns3:atemp>14.0</ns3:atemp>
            <ns3:hr>133</ns3:hr>
          </ns3:TrackPointExtension>
        </extensions>
      </trkpt>
      <trkpt lat="-22.03348481096327304840087890625" lon="166.466906368732452392578125">
        <ele>927</ele>
        <time>2016-08-12T19:41:29.000Z</time>
        <extensions>
          <ns3:TrackPointExtension>
            <ns3:atemp>14.0</ns3:atemp>
            <ns3:hr>133</ns3:hr>
          </ns3:TrackPointExtension>
        </extensions>
      </trkpt>
      <trkpt lat="-22.03347575850784778594970703125" lon="166.4669102244079113006591796875">
        <ele>926.79998779296875</ele>
        <time>2016-08-12T19:41:30.000Z</time>
        <extensions>
          <ns3:TrackPointExtension>
            <ns3:atemp>14.0</ns3:atemp>
            <ns3:hr>133</ns3:hr>
          </ns3:TrackPointExtension>
        </extensions>
      </trkpt>
      <trkpt lat="-22.0334607549011707305908203125" lon="166.466910727322101593017578125">
        <ele>926.4000244140625</ele>
        <time>2016-08-12T19:41:31.000Z</time>
        <extensions>
          <ns3:TrackPointExtension>
            <ns3:atemp>14.0</ns3:atemp>
            <ns3:hr>133</ns3:hr>
          </ns3:TrackPointExtension>
        </extensions>
      </trkpt>
      <trkpt lat="-22.03344223089516162872314453125" lon="166.46690695546567440032958984375">
        <ele>926.4000244140625</ele>
        <time>2016-08-12T19:41:32.000Z</time>
        <extensions>
          <ns3:TrackPointExtension>
            <ns3:atemp>14.0</ns3:atemp>
            <ns3:hr>132</ns3:hr>
          </ns3:TrackPointExtension>
        </extensions>
      </trkpt>
      <trkpt lat="-22.03342328779399394989013671875" lon="166.46689890883862972259521484375">
        <ele>926.5999755859375</ele>
        <time>2016-08-12T19:41:33.000Z</time>
        <extensions>
          <ns3:TrackPointExtension>
            <ns3:atemp>14.0</ns3:atemp>
            <ns3:hr>133</ns3:hr>
          </ns3:TrackPointExtension>
        </extensions>
      </trkpt>
      <trkpt lat="-22.03340199775993824005126953125" lon="166.46688826382160186767578125">
        <ele>926.4000244140625</ele>
        <time>2016-08-12T19:41:34.000Z</time>
        <extensions>
          <ns3:TrackPointExtension>
            <ns3:atemp>14.0</ns3:atemp>
            <ns3:hr>133</ns3:hr>
          </ns3:TrackPointExtension>
        </extensions>
      </trkpt>
      <trkpt lat="-22.03338372521102428436279296875" lon="166.4668797142803668975830078125">
        <ele>926.20001220703125</ele>
        <time>2016-08-12T19:41:35.000Z</time>
        <extensions>
          <ns3:TrackPointExtension>
            <ns3:atemp>14.0</ns3:atemp>
            <ns3:hr>132</ns3:hr>
          </ns3:TrackPointExtension>
        </extensions>
      </trkpt>
      <trkpt lat="-22.0333678834140300750732421875" lon="166.466869823634624481201171875">
        <ele>926.20001220703125</ele>
        <time>2016-08-12T19:41:36.000Z</time>
        <extensions>
          <ns3:TrackPointExtension>
            <ns3:atemp>14.0</ns3:atemp>
            <ns3:hr>132</ns3:hr>
          </ns3:TrackPointExtension>
        </extensions>
      </trkpt>
      <trkpt lat="-22.03335438854992389678955078125" lon="166.4668569155037403106689453125">
        <ele>926.4000244140625</ele>
        <time>2016-08-12T19:41:37.000Z</time>
        <extensions>
          <ns3:TrackPointExtension>
            <ns3:atemp>14.0</ns3:atemp>
            <ns3:hr>133</ns3:hr>
          </ns3:TrackPointExtension>
        </extensions>
      </trkpt>
      <trkpt lat="-22.03333561308681964874267578125" lon="166.46684610284864902496337890625">
        <ele>926.20001220703125</ele>
        <time>2016-08-12T19:41:38.000Z</time>
        <extensions>
          <ns3:TrackPointExtension>
            <ns3:atemp>14.0</ns3:atemp>
            <ns3:hr>132</ns3:hr>
          </ns3:TrackPointExtension>
        </extensions>
      </trkpt>
      <trkpt lat="-22.03330929391086101531982421875" lon="166.46683319471776485443115234375">
        <ele>926</ele>
        <time>2016-08-12T19:41:39.000Z</time>
        <extensions>
          <ns3:TrackPointExtension>
            <ns3:atemp>14.0</ns3:atemp>
            <ns3:hr>132</ns3:hr>
          </ns3:TrackPointExtension>
        </extensions>
      </trkpt>
      <trkpt lat="-22.0332894288003444671630859375" lon="166.46682179532945156097412109375">
        <ele>926.4000244140625</ele>
        <time>2016-08-12T19:41:40.000Z</time>
        <extensions>
          <ns3:TrackPointExtension>
            <ns3:atemp>14.0</ns3:atemp>
            <ns3:hr>132</ns3:hr>
          </ns3:TrackPointExtension>
        </extensions>
      </trkpt>
      <trkpt lat="-22.03327006660401821136474609375" lon="166.46681173704564571380615234375">
        <ele>926.79998779296875</ele>
        <time>2016-08-12T19:41:41.000Z</time>
        <extensions>
          <ns3:TrackPointExtension>
            <ns3:atemp>14.0</ns3:atemp>
            <ns3:hr>132</ns3:hr>
          </ns3:TrackPointExtension>
        </extensions>
      </trkpt>
      <trkpt lat="-22.03324399888515472412109375" lon="166.46677619777619838714599609375">
        <ele>927</ele>
        <time>2016-08-12T19:41:42.000Z</time>
        <extensions>
          <ns3:TrackPointExtension>
            <ns3:atemp>14.0</ns3:atemp>
            <ns3:hr>132</ns3:hr>
          </ns3:TrackPointExtension>
        </extensions>
      </trkpt>
      <trkpt lat="-22.033217512071132659912109375" lon="166.46674552001059055328369140625">
        <ele>926.79998779296875</ele>
        <time>2016-08-12T19:41:43.000Z</time>
        <extensions>
          <ns3:TrackPointExtension>
            <ns3:atemp>14.0</ns3:atemp>
            <ns3:hr>131</ns3:hr>
          </ns3:TrackPointExtension>
        </extensions>
      </trkpt>
      <trkpt lat="-22.0331942103803157806396484375" lon="166.46671886555850505828857421875">
        <ele>926.5999755859375</ele>
        <time>2016-08-12T19:41:44.000Z</time>
        <extensions>
          <ns3:TrackPointExtension>
            <ns3:atemp>14.0</ns3:atemp>
            <ns3:hr>131</ns3:hr>
          </ns3:TrackPointExtension>
        </extensions>
      </trkpt>
      <trkpt lat="-22.03316277824342250823974609375" lon="166.4667033590376377105712890625">
        <ele>926.4000244140625</ele>
        <time>2016-08-12T19:41:45.000Z</time>
        <extensions>
          <ns3:TrackPointExtension>
            <ns3:atemp>14.0</ns3:atemp>
            <ns3:hr>131</ns3:hr>
          </ns3:TrackPointExtension>
        </extensions>
      </trkpt>
      <trkpt lat="-22.033133693039417266845703125" lon="166.4666832424700260162353515625">
        <ele>926.5999755859375</ele>
        <time>2016-08-12T19:41:46.000Z</time>
        <extensions>
          <ns3:TrackPointExtension>
            <ns3:atemp>14.0</ns3:atemp>
            <ns3:hr>130</ns3:hr>
          </ns3:TrackPointExtension>
        </extensions>
      </trkpt>
      <trkpt lat="-22.03311030752956867218017578125" lon="166.466659270226955413818359375">
        <ele>926.4000244140625</ele>
        <time>2016-08-12T19:41:47.000Z</time>
        <extensions>
          <ns3:TrackPointExtension>
            <ns3:atemp>14.0</ns3:atemp>
            <ns3:hr>130</ns3:hr>
          </ns3:TrackPointExtension>
        </extensions>
      </trkpt>
      <trkpt lat="-22.0330885984003543853759765625" lon="166.4666446857154369354248046875">
        <ele>926.20001220703125</ele>
        <time>2016-08-12T19:41:48.000Z</time>
        <extensions>
          <ns3:TrackPointExtension>
            <ns3:atemp>14.0</ns3:atemp>
            <ns3:hr>129</ns3:hr>
          </ns3:TrackPointExtension>
        </extensions>
      </trkpt>
      <trkpt lat="-22.033064626157283782958984375" lon="166.46662817336618900299072265625">
        <ele>926.20001220703125</ele>
        <time>2016-08-12T19:41:49.000Z</time>
        <extensions>
          <ns3:TrackPointExtension>
            <ns3:atemp>14.0</ns3:atemp>
            <ns3:hr>129</ns3:hr>
          </ns3:TrackPointExtension>
        </extensions>
      </trkpt>
      <trkpt lat="-22.03304476104676723480224609375" lon="166.4666111581027507781982421875">
        <ele>926.4000244140625</ele>
        <time>2016-08-12T19:41:50.000Z</time>
        <extensions>
          <ns3:TrackPointExtension>
            <ns3:atemp>14.0</ns3:atemp>
            <ns3:hr>128</ns3:hr>
          </ns3:TrackPointExtension>
        </extensions>
      </trkpt>
      <trkpt lat="-22.03302263282239437103271484375" lon="166.46659858524799346923828125">
        <ele>926</ele>
        <time>2016-08-12T19:41:51.000Z</time>
        <extensions>
          <ns3:TrackPointExtension>
            <ns3:atemp>14.0</ns3:atemp>
            <ns3:hr>128</ns3:hr>
          </ns3:TrackPointExtension>
        </extensions>
      </trkpt>
      <trkpt lat="-22.03300234861671924591064453125" lon="166.46658643148839473724365234375">
        <ele>925.79998779296875</ele>
        <time>2016-08-12T19:41:52.000Z</time>
        <extensions>
          <ns3:TrackPointExtension>
            <ns3:atemp>14.0</ns3:atemp>
            <ns3:hr>127</ns3:hr>
          </ns3:TrackPointExtension>
        </extensions>
      </trkpt>
      <trkpt lat="-22.03297837637364864349365234375" lon="166.466576792299747467041015625">
        <ele>926</ele>
        <time>2016-08-12T19:41:53.000Z</time>
        <extensions>
          <ns3:TrackPointExtension>
            <ns3:atemp>14.0</ns3:atemp>
            <ns3:hr>127</ns3:hr>
          </ns3:TrackPointExtension>
        </extensions>
      </trkpt>
      <trkpt lat="-22.03295524232089519500732421875" lon="166.466568745672702789306640625">
        <ele>926</ele>
        <time>2016-08-12T19:41:54.000Z</time>
        <extensions>
          <ns3:TrackPointExtension>
            <ns3:atemp>14.0</ns3:atemp>
            <ns3:hr>127</ns3:hr>
          </ns3:TrackPointExtension>
        </extensions>
      </trkpt>
      <trkpt lat="-22.03293277882039546966552734375" lon="166.46656212396919727325439453125">
        <ele>925.79998779296875</ele>
        <time>2016-08-12T19:41:55.000Z</time>
        <extensions>
          <ns3:TrackPointExtension>
            <ns3:atemp>14.0</ns3:atemp>
            <ns3:hr>127</ns3:hr>
          </ns3:TrackPointExtension>
        </extensions>
      </trkpt>
      <trkpt lat="-22.03290126286447048187255859375" lon="166.4665555022656917572021484375">
        <ele>925.5999755859375</ele>
        <time>2016-08-12T19:41:56.000Z</time>
        <extensions>
          <ns3:TrackPointExtension>
            <ns3:atemp>14.0</ns3:atemp>
            <ns3:hr>128</ns3:hr>
          </ns3:TrackPointExtension>
        </extensions>
      </trkpt>
      <trkpt lat="-22.0328820683062076568603515625" lon="166.46654217503964900970458984375">
        <ele>925.5999755859375</ele>
        <time>2016-08-12T19:41:57.000Z</time>
        <extensions>
          <ns3:TrackPointExtension>
            <ns3:atemp>14.0</ns3:atemp>
            <ns3:hr>128</ns3:hr>
          </ns3:TrackPointExtension>
        </extensions>
      </trkpt>
      <trkpt lat="-22.0328596048057079315185546875" lon="166.4665249921381473541259765625">
        <ele>925.5999755859375</ele>
        <time>2016-08-12T19:41:58.000Z</time>
        <extensions>
          <ns3:TrackPointExtension>
            <ns3:atemp>14.0</ns3:atemp>
            <ns3:hr>129</ns3:hr>
          </ns3:TrackPointExtension>
        </extensions>
      </trkpt>
      <trkpt lat="-22.03283638693392276763916015625" lon="166.466508395969867706298828125">
        <ele>925.5999755859375</ele>
        <time>2016-08-12T19:41:59.000Z</time>
        <extensions>
          <ns3:TrackPointExtension>
            <ns3:atemp>14.0</ns3:atemp>
            <ns3:hr>130</ns3:hr>
          </ns3:TrackPointExtension>
        </extensions>
      </trkpt>
      <trkpt lat="-22.0328153483569622039794921875" lon="166.46649339236319065093994140625">
        <ele>925.4000244140625</ele>
        <time>2016-08-12T19:42:00.000Z</time>
        <extensions>
          <ns3:TrackPointExtension>
            <ns3:atemp>14.0</ns3:atemp>
            <ns3:hr>130</ns3:hr>
          </ns3:TrackPointExtension>
        </extensions>
      </trkpt>
      <trkpt lat="-22.03279280103743076324462890625" lon="166.46648014895617961883544921875">
        <ele>925.4000244140625</ele>
        <time>2016-08-12T19:42:01.000Z</time>
        <extensions>
          <ns3:TrackPointExtension>
            <ns3:atemp>14.0</ns3:atemp>
            <ns3:hr>131</ns3:hr>
          </ns3:TrackPointExtension>
        </extensions>
      </trkpt>
      <trkpt lat="-22.03277218155562877655029296875" lon="166.46646455861628055572509765625">
        <ele>925.20001220703125</ele>
        <time>2016-08-12T19:42:02.000Z</time>
        <extensions>
          <ns3:TrackPointExtension>
            <ns3:atemp>14.0</ns3:atemp>
            <ns3:hr>132</ns3:hr>
          </ns3:TrackPointExtension>
        </extensions>
      </trkpt>
      <trkpt lat="-22.03275659121572971343994140625" lon="166.46644477732479572296142578125">
        <ele>925</ele>
        <time>2016-08-12T19:42:03.000Z</time>
        <extensions>
          <ns3:TrackPointExtension>
            <ns3:atemp>14.0</ns3:atemp>
            <ns3:hr>133</ns3:hr>
          </ns3:TrackPointExtension>
        </extensions>
      </trkpt>
      <trkpt lat="-22.03273773193359375" lon="166.46642734296619892120361328125">
        <ele>924.5999755859375</ele>
        <time>2016-08-12T19:42:04.000Z</time>
        <extensions>
          <ns3:TrackPointExtension>
            <ns3:atemp>14.0</ns3:atemp>
            <ns3:hr>133</ns3:hr>
          </ns3:TrackPointExtension>
        </extensions>
      </trkpt>
      <trkpt lat="-22.032718621194362640380859375" lon="166.46640974096953868865966796875">
        <ele>924.4000244140625</ele>
        <time>2016-08-12T19:42:05.000Z</time>
        <extensions>
          <ns3:TrackPointExtension>
            <ns3:atemp>14.0</ns3:atemp>
            <ns3:hr>134</ns3:hr>
          </ns3:TrackPointExtension>
        </extensions>
      </trkpt>
      <trkpt lat="-22.03269825316965579986572265625" lon="166.466391384601593017578125">
        <ele>924</ele>
        <time>2016-08-12T19:42:06.000Z</time>
        <extensions>
          <ns3:TrackPointExtension>
            <ns3:atemp>14.0</ns3:atemp>
            <ns3:hr>134</ns3:hr>
          </ns3:TrackPointExtension>
        </extensions>
      </trkpt>
      <trkpt lat="-22.032676041126251220703125" lon="166.46637001074850559234619140625">
        <ele>923.79998779296875</ele>
        <time>2016-08-12T19:42:07.000Z</time>
        <extensions>
          <ns3:TrackPointExtension>
            <ns3:atemp>14.0</ns3:atemp>
            <ns3:hr>134</ns3:hr>
          </ns3:TrackPointExtension>
        </extensions>
      </trkpt>
      <trkpt lat="-22.03264997340738773345947265625" lon="166.46634855307638645172119140625">
        <ele>923.79998779296875</ele>
        <time>2016-08-12T19:42:08.000Z</time>
        <extensions>
          <ns3:TrackPointExtension>
            <ns3:atemp>14.0</ns3:atemp>
            <ns3:hr>134</ns3:hr>
          </ns3:TrackPointExtension>
        </extensions>
      </trkpt>
      <trkpt lat="-22.032626084983348846435546875" lon="166.46632893942296504974365234375">
        <ele>923.5999755859375</ele>
        <time>2016-08-12T19:42:09.000Z</time>
        <extensions>
          <ns3:TrackPointExtension>
            <ns3:atemp>14.0</ns3:atemp>
            <ns3:hr>133</ns3:hr>
          </ns3:TrackPointExtension>
        </extensions>
      </trkpt>
      <trkpt lat="-22.03260303474962711334228515625" lon="166.4663107506930828094482421875">
        <ele>923.20001220703125</ele>
        <time>2016-08-12T19:42:10.000Z</time>
        <extensions>
          <ns3:TrackPointExtension>
            <ns3:atemp>14.0</ns3:atemp>
            <ns3:hr>133</ns3:hr>
          </ns3:TrackPointExtension>
        </extensions>
      </trkpt>
      <trkpt lat="-22.03257688321173191070556640625" lon="166.466294825077056884765625">
        <ele>923</ele>
        <time>2016-08-12T19:42:11.000Z</time>
        <extensions>
          <ns3:TrackPointExtension>
            <ns3:atemp>14.0</ns3:atemp>
            <ns3:hr>133</ns3:hr>
          </ns3:TrackPointExtension>
        </extensions>
      </trkpt>
      <trkpt lat="-22.0325432717800140380859375" lon="166.466289125382900238037109375">
        <ele>922.79998779296875</ele>
        <time>2016-08-12T19:42:12.000Z</time>
        <extensions>
          <ns3:TrackPointExtension>
            <ns3:atemp>14.0</ns3:atemp>
            <ns3:hr>133</ns3:hr>
          </ns3:TrackPointExtension>
        </extensions>
      </trkpt>
      <trkpt lat="-22.032504379749298095703125" lon="166.46629323251545429229736328125">
        <ele>922.5999755859375</ele>
        <time>2016-08-12T19:42:13.000Z</time>
        <extensions>
          <ns3:TrackPointExtension>
            <ns3:atemp>14.0</ns3:atemp>
            <ns3:hr>132</ns3:hr>
          </ns3:TrackPointExtension>
        </extensions>
      </trkpt>
      <trkpt lat="-22.03247345052659511566162109375" lon="166.46629641763865947723388671875">
        <ele>922.4000244140625</ele>
        <time>2016-08-12T19:42:14.000Z</time>
        <extensions>
          <ns3:TrackPointExtension>
            <ns3:atemp>14.0</ns3:atemp>
            <ns3:hr>132</ns3:hr>
          </ns3:TrackPointExtension>
        </extensions>
      </trkpt>
      <trkpt lat="-22.0324495621025562286376953125" lon="166.46629792638123035430908203125">
        <ele>922.20001220703125</ele>
        <time>2016-08-12T19:42:15.000Z</time>
        <extensions>
          <ns3:TrackPointExtension>
            <ns3:atemp>14.0</ns3:atemp>
            <ns3:hr>132</ns3:hr>
          </ns3:TrackPointExtension>
        </extensions>
      </trkpt>
      <trkpt lat="-22.0324291102588176727294921875" lon="166.46630798466503620147705078125">
        <ele>922</ele>
        <time>2016-08-12T19:42:16.000Z</time>
        <extensions>
          <ns3:TrackPointExtension>
            <ns3:atemp>14.0</ns3:atemp>
            <ns3:hr>132</ns3:hr>
          </ns3:TrackPointExtension>
        </extensions>
      </trkpt>
      <trkpt lat="-22.0324113406240940093994140625" lon="166.4663228206336498260498046875">
        <ele>921.79998779296875</ele>
        <time>2016-08-12T19:42:17.000Z</time>
        <extensions>
          <ns3:TrackPointExtension>
            <ns3:atemp>14.0</ns3:atemp>
            <ns3:hr>132</ns3:hr>
          </ns3:TrackPointExtension>
        </extensions>
      </trkpt>
      <trkpt lat="-22.03239331953227519989013671875" lon="166.46634167991578578948974609375">
        <ele>921.4000244140625</ele>
        <time>2016-08-12T19:42:18.000Z</time>
        <extensions>
          <ns3:TrackPointExtension>
            <ns3:atemp>14.0</ns3:atemp>
            <ns3:hr>132</ns3:hr>
          </ns3:TrackPointExtension>
        </extensions>
      </trkpt>
      <trkpt lat="-22.0323744602501392364501953125" lon="166.46636012010276317596435546875">
        <ele>921.20001220703125</ele>
        <time>2016-08-12T19:42:19.000Z</time>
        <extensions>
          <ns3:TrackPointExtension>
            <ns3:atemp>14.0</ns3:atemp>
            <ns3:hr>132</ns3:hr>
          </ns3:TrackPointExtension>
        </extensions>
      </trkpt>
      <trkpt lat="-22.0323556847870349884033203125" lon="166.46637906320393085479736328125">
        <ele>920.79998779296875</ele>
        <time>2016-08-12T19:42:20.000Z</time>
        <extensions>
          <ns3:TrackPointExtension>
            <ns3:atemp>14.0</ns3:atemp>
            <ns3:hr>131</ns3:hr>
          </ns3:TrackPointExtension>
        </extensions>
      </trkpt>
      <trkpt lat="-22.03233950771391391754150390625" lon="166.4663999341428279876708984375">
        <ele>920.5999755859375</ele>
        <time>2016-08-12T19:42:21.000Z</time>
        <extensions>
          <ns3:TrackPointExtension>
            <ns3:atemp>14.0</ns3:atemp>
            <ns3:hr>131</ns3:hr>
          </ns3:TrackPointExtension>
        </extensions>
      </trkpt>
      <trkpt lat="-22.0323271863162517547607421875" lon="166.46641887724399566650390625">
        <ele>920.20001220703125</ele>
        <time>2016-08-12T19:42:22.000Z</time>
        <extensions>
          <ns3:TrackPointExtension>
            <ns3:atemp>14.0</ns3:atemp>
            <ns3:hr>131</ns3:hr>
          </ns3:TrackPointExtension>
        </extensions>
      </trkpt>
      <trkpt lat="-22.03231436200439929962158203125" lon="166.466439664363861083984375">
        <ele>919.79998779296875</ele>
        <time>2016-08-12T19:42:23.000Z</time>
        <extensions>
          <ns3:TrackPointExtension>
            <ns3:atemp>14.0</ns3:atemp>
            <ns3:hr>130</ns3:hr>
          </ns3:TrackPointExtension>
        </extensions>
      </trkpt>
      <trkpt lat="-22.0322980172932147979736328125" lon="166.46646824665367603302001953125">
        <ele>919.5999755859375</ele>
        <time>2016-08-12T19:42:24.000Z</time>
        <extensions>
          <ns3:TrackPointExtension>
            <ns3:atemp>14.0</ns3:atemp>
            <ns3:hr>130</ns3:hr>
          </ns3:TrackPointExtension>
        </extensions>
      </trkpt>
      <trkpt lat="-22.0322795771062374114990234375" lon="166.46649154834449291229248046875">
        <ele>919.20001220703125</ele>
        <time>2016-08-12T19:42:25.000Z</time>
        <extensions>
          <ns3:TrackPointExtension>
            <ns3:atemp>14.0</ns3:atemp>
            <ns3:hr>130</ns3:hr>
          </ns3:TrackPointExtension>
        </extensions>
      </trkpt>
      <trkpt lat="-22.03226038254797458648681640625" lon="166.4665152691304683685302734375">
        <ele>918.79998779296875</ele>
        <time>2016-08-12T19:42:26.000Z</time>
        <extensions>
          <ns3:TrackPointExtension>
            <ns3:atemp>14.0</ns3:atemp>
            <ns3:hr>130</ns3:hr>
          </ns3:TrackPointExtension>
        </extensions>
      </trkpt>
      <trkpt lat="-22.03224495984613895416259765625" lon="166.4665373973548412322998046875">
        <ele>918.5999755859375</ele>
        <time>2016-08-12T19:42:27.000Z</time>
        <extensions>
          <ns3:TrackPointExtension>
            <ns3:atemp>14.0</ns3:atemp>
            <ns3:hr>129</ns3:hr>
          </ns3:TrackPointExtension>
        </extensions>
      </trkpt>
      <trkpt lat="-22.032230459153652191162109375" lon="166.46656044758856296539306640625">
        <ele>918.4000244140625</ele>
        <time>2016-08-12T19:42:28.000Z</time>
        <extensions>
          <ns3:TrackPointExtension>
            <ns3:atemp>14.0</ns3:atemp>
            <ns3:hr>129</ns3:hr>
          </ns3:TrackPointExtension>
        </extensions>
      </trkpt>
      <trkpt lat="-22.032214701175689697265625" lon="166.466586180031299591064453125">
        <ele>918.20001220703125</ele>
        <time>2016-08-12T19:42:29.000Z</time>
        <extensions>
          <ns3:TrackPointExtension>
            <ns3:atemp>14.0</ns3:atemp>
            <ns3:hr>129</ns3:hr>
          </ns3:TrackPointExtension>
        </extensions>
      </trkpt>
      <trkpt lat="-22.03220221213996410369873046875" lon="166.4666104875504970550537109375">
        <ele>918.20001220703125</ele>
        <time>2016-08-12T19:42:30.000Z</time>
        <extensions>
          <ns3:TrackPointExtension>
            <ns3:atemp>14.0</ns3:atemp>
            <ns3:hr>129</ns3:hr>
          </ns3:TrackPointExtension>
        </extensions>
      </trkpt>
      <trkpt lat="-22.03219366259872913360595703125" lon="166.46663479506969451904296875">
        <ele>918</ele>
        <time>2016-08-12T19:42:31.000Z</time>
        <extensions>
          <ns3:TrackPointExtension>
            <ns3:atemp>14.0</ns3:atemp>
            <ns3:hr>129</ns3:hr>
          </ns3:TrackPointExtension>
        </extensions>
      </trkpt>
      <trkpt lat="-22.0321887172758579254150390625" lon="166.46665533073246479034423828125">
        <ele>917.5999755859375</ele>
        <time>2016-08-12T19:42:32.000Z</time>
        <extensions>
          <ns3:TrackPointExtension>
            <ns3:atemp>14.0</ns3:atemp>
            <ns3:hr>129</ns3:hr>
          </ns3:TrackPointExtension>
        </extensions>
      </trkpt>
      <trkpt lat="-22.0321893878281116485595703125" lon="166.46668374538421630859375">
        <ele>917.5999755859375</ele>
        <time>2016-08-12T19:42:33.000Z</time>
        <extensions>
          <ns3:TrackPointExtension>
            <ns3:atemp>14.0</ns3:atemp>
            <ns3:hr>129</ns3:hr>
          </ns3:TrackPointExtension>
        </extensions>
      </trkpt>
      <trkpt lat="-22.03219248913228511810302734375" lon="166.4667080529034137725830078125">
        <ele>917.4000244140625</ele>
        <time>2016-08-12T19:42:34.000Z</time>
        <extensions>
          <ns3:TrackPointExtension>
            <ns3:atemp>14.0</ns3:atemp>
            <ns3:hr>128</ns3:hr>
          </ns3:TrackPointExtension>
        </extensions>
      </trkpt>
      <trkpt lat="-22.03219433315098285675048828125" lon="166.4667288400232791900634765625">
        <ele>917</ele>
        <time>2016-08-12T19:42:35.000Z</time>
        <extensions>
          <ns3:TrackPointExtension>
            <ns3:atemp>14.0</ns3:atemp>
            <ns3:hr>128</ns3:hr>
          </ns3:TrackPointExtension>
        </extensions>
      </trkpt>
      <trkpt lat="-22.03219584189355373382568359375" lon="166.466750465333461761474609375">
        <ele>916.79998779296875</ele>
        <time>2016-08-12T19:42:36.000Z</time>
        <extensions>
          <ns3:TrackPointExtension>
            <ns3:atemp>14.0</ns3:atemp>
            <ns3:hr>128</ns3:hr>
          </ns3:TrackPointExtension>
        </extensions>
      </trkpt>
      <trkpt lat="-22.03219751827418804168701171875" lon="166.4667710848152637481689453125">
        <ele>916.4000244140625</ele>
        <time>2016-08-12T19:42:37.000Z</time>
        <extensions>
          <ns3:TrackPointExtension>
            <ns3:atemp>14.0</ns3:atemp>
            <ns3:hr>128</ns3:hr>
          </ns3:TrackPointExtension>
        </extensions>
      </trkpt>
      <trkpt lat="-22.0321997813880443572998046875" lon="166.4667901955544948577880859375">
        <ele>916</ele>
        <time>2016-08-12T19:42:38.000Z</time>
        <extensions>
          <ns3:TrackPointExtension>
            <ns3:atemp>14.0</ns3:atemp>
            <ns3:hr>128</ns3:hr>
          </ns3:TrackPointExtension>
        </extensions>
      </trkpt>
      <trkpt lat="-22.0322021283209323883056640625" lon="166.46681249141693115234375">
        <ele>915.79998779296875</ele>
        <time>2016-08-12T19:42:39.000Z</time>
        <extensions>
          <ns3:TrackPointExtension>
            <ns3:atemp>14.0</ns3:atemp>
            <ns3:hr>128</ns3:hr>
          </ns3:TrackPointExtension>
        </extensions>
      </trkpt>
      <trkpt lat="-22.0322007872164249420166015625" lon="166.466834284365177154541015625">
        <ele>915.5999755859375</ele>
        <time>2016-08-12T19:42:40.000Z</time>
        <extensions>
          <ns3:TrackPointExtension>
            <ns3:atemp>14.0</ns3:atemp>
            <ns3:hr>128</ns3:hr>
          </ns3:TrackPointExtension>
        </extensions>
      </trkpt>
      <trkpt lat="-22.03219366259872913360595703125" lon="166.46685096435248851776123046875">
        <ele>915.4000244140625</ele>
        <time>2016-08-12T19:42:41.000Z</time>
        <extensions>
          <ns3:TrackPointExtension>
            <ns3:atemp>14.0</ns3:atemp>
            <ns3:hr>127</ns3:hr>
          </ns3:TrackPointExtension>
        </extensions>
      </trkpt>
      <trkpt lat="-22.032181508839130401611328125" lon="166.4668696559965610504150390625">
        <ele>915.4000244140625</ele>
        <time>2016-08-12T19:42:42.000Z</time>
        <extensions>
          <ns3:TrackPointExtension>
            <ns3:atemp>14.0</ns3:atemp>
            <ns3:hr>127</ns3:hr>
          </ns3:TrackPointExtension>
        </extensions>
      </trkpt>
      <trkpt lat="-22.03216868452727794647216796875" lon="166.46689354442059993743896484375">
        <ele>914.79998779296875</ele>
        <time>2016-08-12T19:42:43.000Z</time>
        <extensions>
          <ns3:TrackPointExtension>
            <ns3:atemp>14.0</ns3:atemp>
            <ns3:hr>127</ns3:hr>
          </ns3:TrackPointExtension>
        </extensions>
      </trkpt>
      <trkpt lat="-22.03215594403445720672607421875" lon="166.4669209532439708709716796875">
        <ele>914.79998779296875</ele>
        <time>2016-08-12T19:42:44.000Z</time>
        <extensions>
          <ns3:TrackPointExtension>
            <ns3:atemp>14.0</ns3:atemp>
            <ns3:hr>126</ns3:hr>
          </ns3:TrackPointExtension>
        </extensions>
      </trkpt>
      <trkpt lat="-22.032143957912921905517578125" lon="166.46694869734346866607666015625">
        <ele>914.79998779296875</ele>
        <time>2016-08-12T19:42:45.000Z</time>
        <extensions>
          <ns3:TrackPointExtension>
            <ns3:atemp>14.0</ns3:atemp>
            <ns3:hr>126</ns3:hr>
          </ns3:TrackPointExtension>
        </extensions>
      </trkpt>
      <trkpt lat="-22.0321367494761943817138671875" lon="166.46698121912777423858642578125">
        <ele>914.79998779296875</ele>
        <time>2016-08-12T19:42:46.000Z</time>
        <extensions>
          <ns3:TrackPointExtension>
            <ns3:atemp>14.0</ns3:atemp>
            <ns3:hr>127</ns3:hr>
          </ns3:TrackPointExtension>
        </extensions>
      </trkpt>
      <trkpt lat="-22.03212560154497623443603515625" lon="166.467008292675018310546875">
        <ele>914.5999755859375</ele>
        <time>2016-08-12T19:42:47.000Z</time>
        <extensions>
          <ns3:TrackPointExtension>
            <ns3:atemp>14.0</ns3:atemp>
            <ns3:hr>127</ns3:hr>
          </ns3:TrackPointExtension>
        </extensions>
      </trkpt>
      <trkpt lat="-22.03211168758571147918701171875" lon="166.46703083999454975128173828125">
        <ele>914</ele>
        <time>2016-08-12T19:42:48.000Z</time>
        <extensions>
          <ns3:TrackPointExtension>
            <ns3:atemp>14.0</ns3:atemp>
            <ns3:hr>126</ns3:hr>
          </ns3:TrackPointExtension>
        </extensions>
      </trkpt>
      <trkpt lat="-22.03209727071225643157958984375" lon="166.46705900318920612335205078125">
        <ele>913.79998779296875</ele>
        <time>2016-08-12T19:42:49.000Z</time>
        <extensions>
          <ns3:TrackPointExtension>
            <ns3:atemp>14.0</ns3:atemp>
            <ns3:hr>127</ns3:hr>
          </ns3:TrackPointExtension>
        </extensions>
      </trkpt>
      <trkpt lat="-22.03207681886851787567138671875" lon="166.4670761860907077789306640625">
        <ele>914</ele>
        <time>2016-08-12T19:42:50.000Z</time>
        <extensions>
          <ns3:TrackPointExtension>
            <ns3:atemp>14.0</ns3:atemp>
            <ns3:hr>126</ns3:hr>
          </ns3:TrackPointExtension>
        </extensions>
      </trkpt>
      <trkpt lat="-22.0320536009967327117919921875" lon="166.46708867512643337249755859375">
        <ele>913.79998779296875</ele>
        <time>2016-08-12T19:42:51.000Z</time>
        <extensions>
          <ns3:TrackPointExtension>
            <ns3:atemp>14.0</ns3:atemp>
            <ns3:hr>126</ns3:hr>
          </ns3:TrackPointExtension>
        </extensions>
      </trkpt>
      <trkpt lat="-22.03204102814197540283203125" lon="166.467109210789203643798828125">
        <ele>913.20001220703125</ele>
        <time>2016-08-12T19:42:52.000Z</time>
        <extensions>
          <ns3:TrackPointExtension>
            <ns3:atemp>14.0</ns3:atemp>
            <ns3:hr>126</ns3:hr>
          </ns3:TrackPointExtension>
        </extensions>
      </trkpt>
      <trkpt lat="-22.03202870674431324005126953125" lon="166.46712429821491241455078125">
        <ele>913</ele>
        <time>2016-08-12T19:42:53.000Z</time>
        <extensions>
          <ns3:TrackPointExtension>
            <ns3:atemp>14.0</ns3:atemp>
            <ns3:hr>126</ns3:hr>
          </ns3:TrackPointExtension>
        </extensions>
      </trkpt>
      <trkpt lat="-22.0320086739957332611083984375" lon="166.46713770925998687744140625">
        <ele>912.79998779296875</ele>
        <time>2016-08-12T19:42:54.000Z</time>
        <extensions>
          <ns3:TrackPointExtension>
            <ns3:atemp>14.0</ns3:atemp>
            <ns3:hr>126</ns3:hr>
          </ns3:TrackPointExtension>
        </extensions>
      </trkpt>
      <trkpt lat="-22.03199316747486591339111328125" lon="166.46716025657951831817626953125">
        <ele>912.5999755859375</ele>
        <time>2016-08-12T19:42:55.000Z</time>
        <extensions>
          <ns3:TrackPointExtension>
            <ns3:atemp>14.0</ns3:atemp>
            <ns3:hr>126</ns3:hr>
          </ns3:TrackPointExtension>
        </extensions>
      </trkpt>
      <trkpt lat="-22.031979672610759735107421875" lon="166.46718121133744716644287109375">
        <ele>912.4000244140625</ele>
        <time>2016-08-12T19:42:56.000Z</time>
        <extensions>
          <ns3:TrackPointExtension>
            <ns3:atemp>14.0</ns3:atemp>
            <ns3:hr>126</ns3:hr>
          </ns3:TrackPointExtension>
        </extensions>
      </trkpt>
      <trkpt lat="-22.0319670997560024261474609375" lon="166.46720283664762973785400390625">
        <ele>912.4000244140625</ele>
        <time>2016-08-12T19:42:57.000Z</time>
        <extensions>
          <ns3:TrackPointExtension>
            <ns3:atemp>14.0</ns3:atemp>
            <ns3:hr>126</ns3:hr>
          </ns3:TrackPointExtension>
        </extensions>
      </trkpt>
      <trkpt lat="-22.03195544891059398651123046875" lon="166.46722756326198577880859375">
        <ele>912.4000244140625</ele>
        <time>2016-08-12T19:42:58.000Z</time>
        <extensions>
          <ns3:TrackPointExtension>
            <ns3:atemp>14.0</ns3:atemp>
            <ns3:hr>126</ns3:hr>
          </ns3:TrackPointExtension>
        </extensions>
      </trkpt>
      <trkpt lat="-22.03194203786551952362060546875" lon="166.4672535471618175506591796875">
        <ele>912.20001220703125</ele>
        <time>2016-08-12T19:42:59.000Z</time>
        <extensions>
          <ns3:TrackPointExtension>
            <ns3:atemp>14.0</ns3:atemp>
            <ns3:hr>126</ns3:hr>
          </ns3:TrackPointExtension>
        </extensions>
      </trkpt>
      <trkpt lat="-22.03192912973463535308837890625" lon="166.4672837220132350921630859375">
        <ele>912.4000244140625</ele>
        <time>2016-08-12T19:43:00.000Z</time>
        <extensions>
          <ns3:TrackPointExtension>
            <ns3:atemp>14.0</ns3:atemp>
            <ns3:hr>126</ns3:hr>
          </ns3:TrackPointExtension>
        </extensions>
      </trkpt>
      <trkpt lat="-22.03191521577537059783935546875" lon="166.46731800399720668792724609375">
        <ele>912.20001220703125</ele>
        <time>2016-08-12T19:43:01.000Z</time>
        <extensions>
          <ns3:TrackPointExtension>
            <ns3:atemp>14.0</ns3:atemp>
            <ns3:hr>126</ns3:hr>
          </ns3:TrackPointExtension>
        </extensions>
      </trkpt>
      <trkpt lat="-22.03189493156969547271728515625" lon="166.4673467539250850677490234375">
        <ele>911.79998779296875</ele>
        <time>2016-08-12T19:43:02.000Z</time>
        <extensions>
          <ns3:TrackPointExtension>
            <ns3:atemp>14.0</ns3:atemp>
            <ns3:hr>126</ns3:hr>
          </ns3:TrackPointExtension>
        </extensions>
      </trkpt>
      <trkpt lat="-22.03187447972595691680908203125" lon="166.46737315692007541656494140625">
        <ele>911.79998779296875</ele>
        <time>2016-08-12T19:43:03.000Z</time>
        <extensions>
          <ns3:TrackPointExtension>
            <ns3:atemp>14.0</ns3:atemp>
            <ns3:hr>126</ns3:hr>
          </ns3:TrackPointExtension>
        </extensions>
      </trkpt>
      <trkpt lat="-22.03185193240642547607421875" lon="166.46739243529736995697021484375">
        <ele>911.5999755859375</ele>
        <time>2016-08-12T19:43:04.000Z</time>
        <extensions>
          <ns3:TrackPointExtension>
            <ns3:atemp>14.0</ns3:atemp>
            <ns3:hr>127</ns3:hr>
          </ns3:TrackPointExtension>
        </extensions>
      </trkpt>
      <trkpt lat="-22.0318306423723697662353515625" lon="166.46740785799920558929443359375">
        <ele>911.20001220703125</ele>
        <time>2016-08-12T19:43:05.000Z</time>
        <extensions>
          <ns3:TrackPointExtension>
            <ns3:atemp>14.0</ns3:atemp>
            <ns3:hr>127</ns3:hr>
          </ns3:TrackPointExtension>
        </extensions>
      </trkpt>
      <trkpt lat="-22.03180708922445774078369140625" lon="166.4674201793968677520751953125">
        <ele>911</ele>
        <time>2016-08-12T19:43:06.000Z</time>
        <extensions>
          <ns3:TrackPointExtension>
            <ns3:atemp>14.0</ns3:atemp>
            <ns3:hr>126</ns3:hr>
          </ns3:TrackPointExtension>
        </extensions>
      </trkpt>
      <trkpt lat="-22.03178378753364086151123046875" lon="166.46743317134678363800048828125">
        <ele>910.5999755859375</ele>
        <time>2016-08-12T19:43:07.000Z</time>
        <extensions>
          <ns3:TrackPointExtension>
            <ns3:atemp>14.0</ns3:atemp>
            <ns3:hr>126</ns3:hr>
          </ns3:TrackPointExtension>
        </extensions>
      </trkpt>
      <trkpt lat="-22.0317619107663631439208984375" lon="166.46744549274444580078125">
        <ele>910.5999755859375</ele>
        <time>2016-08-12T19:43:08.000Z</time>
        <extensions>
          <ns3:TrackPointExtension>
            <ns3:atemp>14.0</ns3:atemp>
            <ns3:hr>126</ns3:hr>
          </ns3:TrackPointExtension>
        </extensions>
      </trkpt>
      <trkpt lat="-22.03174221329391002655029296875" lon="166.46745244972407817840576171875">
        <ele>910.5999755859375</ele>
        <time>2016-08-12T19:43:09.000Z</time>
        <extensions>
          <ns3:TrackPointExtension>
            <ns3:atemp>14.0</ns3:atemp>
            <ns3:hr>126</ns3:hr>
          </ns3:TrackPointExtension>
        </extensions>
      </trkpt>
      <trkpt lat="-22.03172142617404460906982421875" lon="166.4674520306289196014404296875">
        <ele>910.5999755859375</ele>
        <time>2016-08-12T19:43:10.000Z</time>
        <extensions>
          <ns3:TrackPointExtension>
            <ns3:atemp>14.0</ns3:atemp>
            <ns3:hr>126</ns3:hr>
          </ns3:TrackPointExtension>
        </extensions>
      </trkpt>
      <trkpt lat="-22.03169678337872028350830078125" lon="166.46744607947766780853271484375">
        <ele>910.4000244140625</ele>
        <time>2016-08-12T19:43:11.000Z</time>
        <extensions>
          <ns3:TrackPointExtension>
            <ns3:atemp>14.0</ns3:atemp>
            <ns3:hr>126</ns3:hr>
          </ns3:TrackPointExtension>
        </extensions>
      </trkpt>
      <trkpt lat="-22.031671889126300811767578125" lon="166.46744088269770145416259765625">
        <ele>910.20001220703125</ele>
        <time>2016-08-12T19:43:12.000Z</time>
        <extensions>
          <ns3:TrackPointExtension>
            <ns3:atemp>14.0</ns3:atemp>
            <ns3:hr>126</ns3:hr>
          </ns3:TrackPointExtension>
        </extensions>
      </trkpt>
      <trkpt lat="-22.03164749778807163238525390625" lon="166.46743652410805225372314453125">
        <ele>910</ele>
        <time>2016-08-12T19:43:13.000Z</time>
        <extensions>
          <ns3:TrackPointExtension>
            <ns3:atemp>14.0</ns3:atemp>
            <ns3:hr>126</ns3:hr>
          </ns3:TrackPointExtension>
        </extensions>
      </trkpt>
      <trkpt lat="-22.031628303229808807373046875" lon="166.4674361050128936767578125">
        <ele>910</ele>
        <time>2016-08-12T19:43:14.000Z</time>
        <extensions>
          <ns3:TrackPointExtension>
            <ns3:atemp>14.0</ns3:atemp>
            <ns3:hr>126</ns3:hr>
          </ns3:TrackPointExtension>
        </extensions>
      </trkpt>
      <trkpt lat="-22.03161229379475116729736328125" lon="166.46743434481322765350341796875">
        <ele>909.4000244140625</ele>
        <time>2016-08-12T19:43:15.000Z</time>
        <extensions>
          <ns3:TrackPointExtension>
            <ns3:atemp>14.0</ns3:atemp>
            <ns3:hr>126</ns3:hr>
          </ns3:TrackPointExtension>
        </extensions>
      </trkpt>
      <trkpt lat="-22.03159536235034465789794921875" lon="166.467432081699371337890625">
        <ele>909.20001220703125</ele>
        <time>2016-08-12T19:43:16.000Z</time>
        <extensions>
          <ns3:TrackPointExtension>
            <ns3:atemp>14.0</ns3:atemp>
            <ns3:hr>126</ns3:hr>
          </ns3:TrackPointExtension>
        </extensions>
      </trkpt>
      <trkpt lat="-22.03157901763916015625" lon="166.46743451245129108428955078125">
        <ele>908.79998779296875</ele>
        <time>2016-08-12T19:43:17.000Z</time>
        <extensions>
          <ns3:TrackPointExtension>
            <ns3:atemp>14.0</ns3:atemp>
            <ns3:hr>126</ns3:hr>
          </ns3:TrackPointExtension>
        </extensions>
      </trkpt>
      <trkpt lat="-22.031563930213451385498046875" lon="166.4674372784793376922607421875">
        <ele>908.79998779296875</ele>
        <time>2016-08-12T19:43:18.000Z</time>
        <extensions>
          <ns3:TrackPointExtension>
            <ns3:atemp>14.0</ns3:atemp>
            <ns3:hr>126</ns3:hr>
          </ns3:TrackPointExtension>
        </extensions>
      </trkpt>
      <trkpt lat="-22.03154322691261768341064453125" lon="166.4674387872219085693359375">
        <ele>908.5999755859375</ele>
        <time>2016-08-12T19:43:19.000Z</time>
        <extensions>
          <ns3:TrackPointExtension>
            <ns3:atemp>14.0</ns3:atemp>
            <ns3:hr>126</ns3:hr>
          </ns3:TrackPointExtension>
        </extensions>
      </trkpt>
      <trkpt lat="-22.031525708734989166259765625" lon="166.4674312435090541839599609375">
        <ele>908.4000244140625</ele>
        <time>2016-08-12T19:43:20.000Z</time>
        <extensions>
          <ns3:TrackPointExtension>
            <ns3:atemp>14.0</ns3:atemp>
            <ns3:hr>127</ns3:hr>
          </ns3:TrackPointExtension>
        </extensions>
      </trkpt>
      <trkpt lat="-22.03151087276637554168701171875" lon="166.46742328070104122161865234375">
        <ele>908.20001220703125</ele>
        <time>2016-08-12T19:43:21.000Z</time>
        <extensions>
          <ns3:TrackPointExtension>
            <ns3:atemp>14.0</ns3:atemp>
            <ns3:hr>127</ns3:hr>
          </ns3:TrackPointExtension>
        </extensions>
      </trkpt>
      <trkpt lat="-22.03149477951228618621826171875" lon="166.4674104563891887664794921875">
        <ele>908.20001220703125</ele>
        <time>2016-08-12T19:43:22.000Z</time>
        <extensions>
          <ns3:TrackPointExtension>
            <ns3:atemp>14.0</ns3:atemp>
            <ns3:hr>127</ns3:hr>
          </ns3:TrackPointExtension>
        </extensions>
      </trkpt>
      <trkpt lat="-22.031478770077228546142578125" lon="166.46739796735346317291259765625">
        <ele>908</ele>
        <time>2016-08-12T19:43:23.000Z</time>
        <extensions>
          <ns3:TrackPointExtension>
            <ns3:atemp>14.0</ns3:atemp>
            <ns3:hr>127</ns3:hr>
          </ns3:TrackPointExtension>
        </extensions>
      </trkpt>
      <trkpt lat="-22.0314615033566951751708984375" lon="166.46738690324127674102783203125">
        <ele>908</ele>
        <time>2016-08-12T19:43:24.000Z</time>
        <extensions>
          <ns3:TrackPointExtension>
            <ns3:atemp>14.0</ns3:atemp>
            <ns3:hr>127</ns3:hr>
          </ns3:TrackPointExtension>
        </extensions>
      </trkpt>
      <trkpt lat="-22.0314454101026058197021484375" lon="166.4673732407391071319580078125">
        <ele>907.79998779296875</ele>
        <time>2016-08-12T19:43:25.000Z</time>
        <extensions>
          <ns3:TrackPointExtension>
            <ns3:atemp>14.0</ns3:atemp>
            <ns3:hr>127</ns3:hr>
          </ns3:TrackPointExtension>
        </extensions>
      </trkpt>
      <trkpt lat="-22.03142856247723102569580078125" lon="166.46736745722591876983642578125">
        <ele>907.79998779296875</ele>
        <time>2016-08-12T19:43:26.000Z</time>
        <extensions>
          <ns3:TrackPointExtension>
            <ns3:atemp>14.0</ns3:atemp>
            <ns3:hr>127</ns3:hr>
          </ns3:TrackPointExtension>
        </extensions>
      </trkpt>
      <trkpt lat="-22.031407691538333892822265625" lon="166.4673601649701595306396484375">
        <ele>907.5999755859375</ele>
        <time>2016-08-12T19:43:27.000Z</time>
        <extensions>
          <ns3:TrackPointExtension>
            <ns3:atemp>14.0</ns3:atemp>
            <ns3:hr>128</ns3:hr>
          </ns3:TrackPointExtension>
        </extensions>
      </trkpt>
      <trkpt lat="-22.03138925135135650634765625" lon="166.4673527888953685760498046875">
        <ele>907.5999755859375</ele>
        <time>2016-08-12T19:43:28.000Z</time>
        <extensions>
          <ns3:TrackPointExtension>
            <ns3:atemp>14.0</ns3:atemp>
            <ns3:hr>128</ns3:hr>
          </ns3:TrackPointExtension>
        </extensions>
      </trkpt>
      <trkpt lat="-22.03136108815670013427734375" lon="166.4673437364399433135986328125">
        <ele>907.4000244140625</ele>
        <time>2016-08-12T19:43:29.000Z</time>
        <extensions>
          <ns3:TrackPointExtension>
            <ns3:atemp>14.0</ns3:atemp>
            <ns3:hr>128</ns3:hr>
          </ns3:TrackPointExtension>
        </extensions>
      </trkpt>
      <trkpt lat="-22.03133284114301204681396484375" lon="166.4673383720219135284423828125">
        <ele>907.4000244140625</ele>
        <time>2016-08-12T19:43:30.000Z</time>
        <extensions>
          <ns3:TrackPointExtension>
            <ns3:atemp>14.0</ns3:atemp>
            <ns3:hr>128</ns3:hr>
          </ns3:TrackPointExtension>
        </extensions>
      </trkpt>
      <trkpt lat="-22.03130467794835567474365234375" lon="166.46733258850872516632080078125">
        <ele>907.4000244140625</ele>
        <time>2016-08-12T19:43:31.000Z</time>
        <extensions>
          <ns3:TrackPointExtension>
            <ns3:atemp>14.0</ns3:atemp>
            <ns3:hr>128</ns3:hr>
          </ns3:TrackPointExtension>
        </extensions>
      </trkpt>
      <trkpt lat="-22.031276933848857879638671875" lon="166.4673314988613128662109375">
        <ele>907.4000244140625</ele>
        <time>2016-08-12T19:43:32.000Z</time>
        <extensions>
          <ns3:TrackPointExtension>
            <ns3:atemp>14.0</ns3:atemp>
            <ns3:hr>128</ns3:hr>
          </ns3:TrackPointExtension>
        </extensions>
      </trkpt>
      <trkpt lat="-22.03125170432031154632568359375" lon="166.46733527071774005889892578125">
        <ele>907.79998779296875</ele>
        <time>2016-08-12T19:43:33.000Z</time>
        <extensions>
          <ns3:TrackPointExtension>
            <ns3:atemp>14.0</ns3:atemp>
            <ns3:hr>128</ns3:hr>
          </ns3:TrackPointExtension>
        </extensions>
      </trkpt>
      <trkpt lat="-22.0312251336872577667236328125" lon="166.46733560599386692047119140625">
        <ele>907.79998779296875</ele>
        <time>2016-08-12T19:43:34.000Z</time>
        <extensions>
          <ns3:TrackPointExtension>
            <ns3:atemp>14.0</ns3:atemp>
            <ns3:hr>128</ns3:hr>
          </ns3:TrackPointExtension>
        </extensions>
      </trkpt>
      <trkpt lat="-22.03120107762515544891357421875" lon="166.4673430658876895904541015625">
        <ele>907.4000244140625</ele>
        <time>2016-08-12T19:43:35.000Z</time>
        <extensions>
          <ns3:TrackPointExtension>
            <ns3:atemp>14.0</ns3:atemp>
            <ns3:hr>129</ns3:hr>
          </ns3:TrackPointExtension>
        </extensions>
      </trkpt>
      <trkpt lat="-22.03117609955370426177978515625" lon="166.4673514477908611297607421875">
        <ele>907.5999755859375</ele>
        <time>2016-08-12T19:43:36.000Z</time>
        <extensions>
          <ns3:TrackPointExtension>
            <ns3:atemp>14.0</ns3:atemp>
            <ns3:hr>129</ns3:hr>
          </ns3:TrackPointExtension>
        </extensions>
      </trkpt>
      <trkpt lat="-22.0311523787677288055419921875" lon="166.46735974587500095367431640625">
        <ele>907.79998779296875</ele>
        <time>2016-08-12T19:43:37.000Z</time>
        <extensions>
          <ns3:TrackPointExtension>
            <ns3:atemp>14.0</ns3:atemp>
            <ns3:hr>129</ns3:hr>
          </ns3:TrackPointExtension>
        </extensions>
      </trkpt>
      <trkpt lat="-22.0311309210956096649169921875" lon="166.4673678763210773468017578125">
        <ele>907.79998779296875</ele>
        <time>2016-08-12T19:43:38.000Z</time>
        <extensions>
          <ns3:TrackPointExtension>
            <ns3:atemp>14.0</ns3:atemp>
            <ns3:hr>129</ns3:hr>
          </ns3:TrackPointExtension>
        </extensions>
      </trkpt>
      <trkpt lat="-22.031109966337680816650390625" lon="166.46738070063292980194091796875">
        <ele>907.4000244140625</ele>
        <time>2016-08-12T19:43:39.000Z</time>
        <extensions>
          <ns3:TrackPointExtension>
            <ns3:atemp>14.0</ns3:atemp>
            <ns3:hr>129</ns3:hr>
          </ns3:TrackPointExtension>
        </extensions>
      </trkpt>
      <trkpt lat="-22.03108909539878368377685546875" lon="166.4673953689634799957275390625">
        <ele>907.4000244140625</ele>
        <time>2016-08-12T19:43:40.000Z</time>
        <extensions>
          <ns3:TrackPointExtension>
            <ns3:atemp>14.0</ns3:atemp>
            <ns3:hr>129</ns3:hr>
          </ns3:TrackPointExtension>
        </extensions>
      </trkpt>
      <trkpt lat="-22.03106914646923542022705078125" lon="166.4674064330756664276123046875">
        <ele>907.5999755859375</ele>
        <time>2016-08-12T19:43:41.000Z</time>
        <extensions>
          <ns3:TrackPointExtension>
            <ns3:atemp>14.0</ns3:atemp>
            <ns3:hr>130</ns3:hr>
          </ns3:TrackPointExtension>
        </extensions>
      </trkpt>
      <trkpt lat="-22.0310471020638942718505859375" lon="166.46742059849202632904052734375">
        <ele>907.20001220703125</ele>
        <time>2016-08-12T19:43:42.000Z</time>
        <extensions>
          <ns3:TrackPointExtension>
            <ns3:atemp>14.0</ns3:atemp>
            <ns3:hr>129</ns3:hr>
          </ns3:TrackPointExtension>
        </extensions>
      </trkpt>
      <trkpt lat="-22.03102958388626575469970703125" lon="166.46743685938417911529541015625">
        <ele>907</ele>
        <time>2016-08-12T19:43:43.000Z</time>
        <extensions>
          <ns3:TrackPointExtension>
            <ns3:atemp>14.0</ns3:atemp>
            <ns3:hr>130</ns3:hr>
          </ns3:TrackPointExtension>
        </extensions>
      </trkpt>
      <trkpt lat="-22.03100812621414661407470703125" lon="166.4674473367631435394287109375">
        <ele>906.79998779296875</ele>
        <time>2016-08-12T19:43:44.000Z</time>
        <extensions>
          <ns3:TrackPointExtension>
            <ns3:atemp>14.0</ns3:atemp>
            <ns3:hr>129</ns3:hr>
          </ns3:TrackPointExtension>
        </extensions>
      </trkpt>
      <trkpt lat="-22.0309850759804248809814453125" lon="166.4674607478082180023193359375">
        <ele>907</ele>
        <time>2016-08-12T19:43:45.000Z</time>
        <extensions>
          <ns3:TrackPointExtension>
            <ns3:atemp>14.0</ns3:atemp>
            <ns3:hr>129</ns3:hr>
          </ns3:TrackPointExtension>
        </extensions>
      </trkpt>
      <trkpt lat="-22.0309607684612274169921875" lon="166.4674694649875164031982421875">
        <ele>906.79998779296875</ele>
        <time>2016-08-12T19:43:46.000Z</time>
        <extensions>
          <ns3:TrackPointExtension>
            <ns3:atemp>14.0</ns3:atemp>
            <ns3:hr>130</ns3:hr>
          </ns3:TrackPointExtension>
        </extensions>
      </trkpt>
      <trkpt lat="-22.03093738295137882232666015625" lon="166.46747876890003681182861328125">
        <ele>906.5999755859375</ele>
        <time>2016-08-12T19:43:47.000Z</time>
        <extensions>
          <ns3:TrackPointExtension>
            <ns3:atemp>14.0</ns3:atemp>
            <ns3:hr>130</ns3:hr>
          </ns3:TrackPointExtension>
        </extensions>
      </trkpt>
      <trkpt lat="-22.030911482870578765869140625" lon="166.4674875698983669281005859375">
        <ele>906.4000244140625</ele>
        <time>2016-08-12T19:43:48.000Z</time>
        <extensions>
          <ns3:TrackPointExtension>
            <ns3:atemp>14.0</ns3:atemp>
            <ns3:hr>130</ns3:hr>
          </ns3:TrackPointExtension>
        </extensions>
      </trkpt>
      <trkpt lat="-22.0308868400752544403076171875" lon="166.467496119439601898193359375">
        <ele>906.20001220703125</ele>
        <time>2016-08-12T19:43:49.000Z</time>
        <extensions>
          <ns3:TrackPointExtension>
            <ns3:atemp>14.0</ns3:atemp>
            <ns3:hr>129</ns3:hr>
          </ns3:TrackPointExtension>
        </extensions>
      </trkpt>
      <trkpt lat="-22.030863203108310699462890625" lon="166.46750575862824916839599609375">
        <ele>906</ele>
        <time>2016-08-12T19:43:50.000Z</time>
        <extensions>
          <ns3:TrackPointExtension>
            <ns3:atemp>14.0</ns3:atemp>
            <ns3:hr>130</ns3:hr>
          </ns3:TrackPointExtension>
        </extensions>
      </trkpt>
      <trkpt lat="-22.0308402366936206817626953125" lon="166.4675224386155605316162109375">
        <ele>906</ele>
        <time>2016-08-12T19:43:51.000Z</time>
        <extensions>
          <ns3:TrackPointExtension>
            <ns3:atemp>14.0</ns3:atemp>
            <ns3:hr>130</ns3:hr>
          </ns3:TrackPointExtension>
        </extensions>
      </trkpt>
      <trkpt lat="-22.03082154504954814910888671875" lon="166.46754406392574310302734375">
        <ele>906</ele>
        <time>2016-08-12T19:43:52.000Z</time>
        <extensions>
          <ns3:TrackPointExtension>
            <ns3:atemp>14.0</ns3:atemp>
            <ns3:hr>130</ns3:hr>
          </ns3:TrackPointExtension>
        </extensions>
      </trkpt>
      <trkpt lat="-22.030801512300968170166015625" lon="166.4675603248178958892822265625">
        <ele>905.79998779296875</ele>
        <time>2016-08-12T19:43:53.000Z</time>
        <extensions>
          <ns3:TrackPointExtension>
            <ns3:atemp>14.0</ns3:atemp>
            <ns3:hr>130</ns3:hr>
          </ns3:TrackPointExtension>
        </extensions>
      </trkpt>
      <trkpt lat="-22.0307837426662445068359375" lon="166.4675774239003658294677734375">
        <ele>905.4000244140625</ele>
        <time>2016-08-12T19:43:54.000Z</time>
        <extensions>
          <ns3:TrackPointExtension>
            <ns3:atemp>14.0</ns3:atemp>
            <ns3:hr>130</ns3:hr>
          </ns3:TrackPointExtension>
        </extensions>
      </trkpt>
      <trkpt lat="-22.030766308307647705078125" lon="166.46759661845862865447998046875">
        <ele>905.4000244140625</ele>
        <time>2016-08-12T19:43:55.000Z</time>
        <extensions>
          <ns3:TrackPointExtension>
            <ns3:atemp>14.0</ns3:atemp>
            <ns3:hr>130</ns3:hr>
          </ns3:TrackPointExtension>
        </extensions>
      </trkpt>
      <trkpt lat="-22.030750550329685211181640625" lon="166.46761774085462093353271484375">
        <ele>905.4000244140625</ele>
        <time>2016-08-12T19:43:56.000Z</time>
        <extensions>
          <ns3:TrackPointExtension>
            <ns3:atemp>14.0</ns3:atemp>
            <ns3:hr>130</ns3:hr>
          </ns3:TrackPointExtension>
        </extensions>
      </trkpt>
      <trkpt lat="-22.0307326130568981170654296875" lon="166.46763936616480350494384765625">
        <ele>905.20001220703125</ele>
        <time>2016-08-12T19:43:57.000Z</time>
        <extensions>
          <ns3:TrackPointExtension>
            <ns3:atemp>14.0</ns3:atemp>
            <ns3:hr>130</ns3:hr>
          </ns3:TrackPointExtension>
        </extensions>
      </trkpt>
      <trkpt lat="-22.03071408905088901519775390625" lon="166.4676605723798274993896484375">
        <ele>905</ele>
        <time>2016-08-12T19:43:58.000Z</time>
        <extensions>
          <ns3:TrackPointExtension>
            <ns3:atemp>14.0</ns3:atemp>
            <ns3:hr>130</ns3:hr>
          </ns3:TrackPointExtension>
        </extensions>
      </trkpt>
      <trkpt lat="-22.03069816343486309051513671875" lon="166.4676820300519466400146484375">
        <ele>905.20001220703125</ele>
        <time>2016-08-12T19:43:59.000Z</time>
        <extensions>
          <ns3:TrackPointExtension>
            <ns3:atemp>14.0</ns3:atemp>
            <ns3:hr>130</ns3:hr>
          </ns3:TrackPointExtension>
        </extensions>
      </trkpt>
      <trkpt lat="-22.0306789688766002655029296875" lon="166.46769971586763858795166015625">
        <ele>905.20001220703125</ele>
        <time>2016-08-12T19:44:00.000Z</time>
        <extensions>
          <ns3:TrackPointExtension>
            <ns3:atemp>14.0</ns3:atemp>
            <ns3:hr>131</ns3:hr>
          </ns3:TrackPointExtension>
        </extensions>
      </trkpt>
      <trkpt lat="-22.03065960668027400970458984375" lon="166.46771631203591823577880859375">
        <ele>905</ele>
        <time>2016-08-12T19:44:01.000Z</time>
        <extensions>
          <ns3:TrackPointExtension>
            <ns3:atemp>14.0</ns3:atemp>
            <ns3:hr>130</ns3:hr>
          </ns3:TrackPointExtension>
        </extensions>
      </trkpt>
      <trkpt lat="-22.03063261695206165313720703125" lon="166.46773089654743671417236328125">
        <ele>904.5999755859375</ele>
        <time>2016-08-12T19:44:02.000Z</time>
        <extensions>
          <ns3:TrackPointExtension>
            <ns3:atemp>14.0</ns3:atemp>
            <ns3:hr>131</ns3:hr>
          </ns3:TrackPointExtension>
        </extensions>
      </trkpt>
      <trkpt lat="-22.03060931526124477386474609375" lon="166.46775151602923870086669921875">
        <ele>904.79998779296875</ele>
        <time>2016-08-12T19:44:03.000Z</time>
        <extensions>
          <ns3:TrackPointExtension>
            <ns3:atemp>14.0</ns3:atemp>
            <ns3:hr>131</ns3:hr>
          </ns3:TrackPointExtension>
        </extensions>
      </trkpt>
      <trkpt lat="-22.03059053979814052581787109375" lon="166.46777381189167499542236328125">
        <ele>905</ele>
        <time>2016-08-12T19:44:04.000Z</time>
        <extensions>
          <ns3:TrackPointExtension>
            <ns3:atemp>14.0</ns3:atemp>
            <ns3:hr>131</ns3:hr>
          </ns3:TrackPointExtension>
        </extensions>
      </trkpt>
      <trkpt lat="-22.03056715428829193115234375" lon="166.46779376082122325897216796875">
        <ele>904.5999755859375</ele>
        <time>2016-08-12T19:44:05.000Z</time>
        <extensions>
          <ns3:TrackPointExtension>
            <ns3:atemp>14.0</ns3:atemp>
            <ns3:hr>130</ns3:hr>
          </ns3:TrackPointExtension>
        </extensions>
      </trkpt>
      <trkpt lat="-22.0305525697767734527587890625" lon="166.467815302312374114990234375">
        <ele>904.4000244140625</ele>
        <time>2016-08-12T19:44:06.000Z</time>
        <extensions>
          <ns3:TrackPointExtension>
            <ns3:atemp>14.0</ns3:atemp>
            <ns3:hr>131</ns3:hr>
          </ns3:TrackPointExtension>
        </extensions>
      </trkpt>
      <trkpt lat="-22.030541002750396728515625" lon="166.4678362570703029632568359375">
        <ele>904.5999755859375</ele>
        <time>2016-08-12T19:44:07.000Z</time>
        <extensions>
          <ns3:TrackPointExtension>
            <ns3:atemp>14.0</ns3:atemp>
            <ns3:hr>131</ns3:hr>
          </ns3:TrackPointExtension>
        </extensions>
      </trkpt>
      <trkpt lat="-22.03052549622952938079833984375" lon="166.46785863675177097320556640625">
        <ele>904.4000244140625</ele>
        <time>2016-08-12T19:44:08.000Z</time>
        <extensions>
          <ns3:TrackPointExtension>
            <ns3:atemp>14.0</ns3:atemp>
            <ns3:hr>131</ns3:hr>
          </ns3:TrackPointExtension>
        </extensions>
      </trkpt>
      <trkpt lat="-22.03050621785223484039306640625" lon="166.46787975914776325225830078125">
        <ele>904.20001220703125</ele>
        <time>2016-08-12T19:44:09.000Z</time>
        <extensions>
          <ns3:TrackPointExtension>
            <ns3:atemp>14.0</ns3:atemp>
            <ns3:hr>131</ns3:hr>
          </ns3:TrackPointExtension>
        </extensions>
      </trkpt>
      <trkpt lat="-22.03049414791166782379150390625" lon="166.46790121681988239288330078125">
        <ele>904.20001220703125</ele>
        <time>2016-08-12T19:44:10.000Z</time>
        <extensions>
          <ns3:TrackPointExtension>
            <ns3:atemp>14.0</ns3:atemp>
            <ns3:hr>130</ns3:hr>
          </ns3:TrackPointExtension>
        </extensions>
      </trkpt>
      <trkpt lat="-22.03047864139080047607421875" lon="166.467927284538745880126953125">
        <ele>904.20001220703125</ele>
        <time>2016-08-12T19:44:11.000Z</time>
        <extensions>
          <ns3:TrackPointExtension>
            <ns3:atemp>14.0</ns3:atemp>
            <ns3:hr>131</ns3:hr>
          </ns3:TrackPointExtension>
        </extensions>
      </trkpt>
      <trkpt lat="-22.030462883412837982177734375" lon="166.4679482392966747283935546875">
        <ele>904</ele>
        <time>2016-08-12T19:44:12.000Z</time>
        <extensions>
          <ns3:TrackPointExtension>
            <ns3:atemp>14.0</ns3:atemp>
            <ns3:hr>130</ns3:hr>
          </ns3:TrackPointExtension>
        </extensions>
      </trkpt>
      <trkpt lat="-22.0304493047297000885009765625" lon="166.4679663442075252532958984375">
        <ele>903.79998779296875</ele>
        <time>2016-08-12T19:44:13.000Z</time>
        <extensions>
          <ns3:TrackPointExtension>
            <ns3:atemp>14.0</ns3:atemp>
            <ns3:hr>130</ns3:hr>
          </ns3:TrackPointExtension>
        </extensions>
      </trkpt>
      <trkpt lat="-22.030434720218181610107421875" lon="166.46798956207931041717529296875">
        <ele>904</ele>
        <time>2016-08-12T19:44:14.000Z</time>
        <extensions>
          <ns3:TrackPointExtension>
            <ns3:atemp>14.0</ns3:atemp>
            <ns3:hr>130</ns3:hr>
          </ns3:TrackPointExtension>
        </extensions>
      </trkpt>
      <trkpt lat="-22.03041200526058673858642578125" lon="166.46801638416945934295654296875">
        <ele>904</ele>
        <time>2016-08-12T19:44:15.000Z</time>
        <extensions>
          <ns3:TrackPointExtension>
            <ns3:atemp>14.0</ns3:atemp>
            <ns3:hr>130</ns3:hr>
          </ns3:TrackPointExtension>
        </extensions>
      </trkpt>
      <trkpt lat="-22.030393816530704498291015625" lon="166.4680427871644496917724609375">
        <ele>903.5999755859375</ele>
        <time>2016-08-12T19:44:16.000Z</time>
        <extensions>
          <ns3:TrackPointExtension>
            <ns3:atemp>14.0</ns3:atemp>
            <ns3:hr>130</ns3:hr>
          </ns3:TrackPointExtension>
        </extensions>
      </trkpt>
      <trkpt lat="-22.03037831000983715057373046875" lon="166.468068771064281463623046875">
        <ele>903.4000244140625</ele>
        <time>2016-08-12T19:44:17.000Z</time>
        <extensions>
          <ns3:TrackPointExtension>
            <ns3:atemp>14.0</ns3:atemp>
            <ns3:hr>130</ns3:hr>
          </ns3:TrackPointExtension>
        </extensions>
      </trkpt>
      <trkpt lat="-22.0303614623844623565673828125" lon="166.4680924080312252044677734375">
        <ele>903.4000244140625</ele>
        <time>2016-08-12T19:44:18.000Z</time>
        <extensions>
          <ns3:TrackPointExtension>
            <ns3:atemp>14.0</ns3:atemp>
            <ns3:hr>130</ns3:hr>
          </ns3:TrackPointExtension>
        </extensions>
      </trkpt>
      <trkpt lat="-22.0303492248058319091796875" lon="166.468118727207183837890625">
        <ele>903.20001220703125</ele>
        <time>2016-08-12T19:44:19.000Z</time>
        <extensions>
          <ns3:TrackPointExtension>
            <ns3:atemp>14.0</ns3:atemp>
            <ns3:hr>130</ns3:hr>
          </ns3:TrackPointExtension>
        </extensions>
      </trkpt>
      <trkpt lat="-22.0303339697420597076416015625" lon="166.4681442081928253173828125">
        <ele>903.20001220703125</ele>
        <time>2016-08-12T19:44:20.000Z</time>
        <extensions>
          <ns3:TrackPointExtension>
            <ns3:atemp>14.0</ns3:atemp>
            <ns3:hr>129</ns3:hr>
          </ns3:TrackPointExtension>
        </extensions>
      </trkpt>
      <trkpt lat="-22.03032282181084156036376953125" lon="166.46816432476043701171875">
        <ele>903.20001220703125</ele>
        <time>2016-08-12T19:44:21.000Z</time>
        <extensions>
          <ns3:TrackPointExtension>
            <ns3:atemp>14.0</ns3:atemp>
            <ns3:hr>129</ns3:hr>
          </ns3:TrackPointExtension>
        </extensions>
      </trkpt>
      <trkpt lat="-22.0303078182041645050048828125" lon="166.4681866206228733062744140625">
        <ele>903</ele>
        <time>2016-08-12T19:44:22.000Z</time>
        <extensions>
          <ns3:TrackPointExtension>
            <ns3:atemp>14.0</ns3:atemp>
            <ns3:hr>129</ns3:hr>
          </ns3:TrackPointExtension>
        </extensions>
      </trkpt>
      <trkpt lat="-22.03029625117778778076171875" lon="166.46820900030434131622314453125">
        <ele>902.5999755859375</ele>
        <time>2016-08-12T19:44:23.000Z</time>
        <extensions>
          <ns3:TrackPointExtension>
            <ns3:atemp>14.0</ns3:atemp>
            <ns3:hr>130</ns3:hr>
          </ns3:TrackPointExtension>
        </extensions>
      </trkpt>
      <trkpt lat="-22.03028325922787189483642578125" lon="166.46822928451001644134521484375">
        <ele>902.5999755859375</ele>
        <time>2016-08-12T19:44:24.000Z</time>
        <extensions>
          <ns3:TrackPointExtension>
            <ns3:atemp>14.0</ns3:atemp>
            <ns3:hr>130</ns3:hr>
          </ns3:TrackPointExtension>
        </extensions>
      </trkpt>
      <trkpt lat="-22.03027211129665374755859375" lon="166.4682503230869770050048828125">
        <ele>902.5999755859375</ele>
        <time>2016-08-12T19:44:25.000Z</time>
        <extensions>
          <ns3:TrackPointExtension>
            <ns3:atemp>14.0</ns3:atemp>
            <ns3:hr>130</ns3:hr>
          </ns3:TrackPointExtension>
        </extensions>
      </trkpt>
      <trkpt lat="-22.03026632778346538543701171875" lon="166.46826415322721004486083984375">
        <ele>902.4000244140625</ele>
        <time>2016-08-12T19:44:26.000Z</time>
        <extensions>
          <ns3:TrackPointExtension>
            <ns3:atemp>14.0</ns3:atemp>
            <ns3:hr>129</ns3:hr>
          </ns3:TrackPointExtension>
        </extensions>
      </trkpt>
      <trkpt lat="-22.03026280738413333892822265625" lon="166.4682622253894805908203125">
        <ele>902.20001220703125</ele>
        <time>2016-08-12T19:44:27.000Z</time>
        <extensions>
          <ns3:TrackPointExtension>
            <ns3:atemp>14.0</ns3:atemp>
            <ns3:hr>129</ns3:hr>
          </ns3:TrackPointExtension>
        </extensions>
      </trkpt>
      <trkpt lat="-22.03025878407061100006103515625" lon="166.46826633252203464508056640625">
        <ele>902.20001220703125</ele>
        <time>2016-08-12T19:44:28.000Z</time>
        <extensions>
          <ns3:TrackPointExtension>
            <ns3:atemp>14.0</ns3:atemp>
            <ns3:hr>129</ns3:hr>
          </ns3:TrackPointExtension>
        </extensions>
      </trkpt>
      <trkpt lat="-22.03026004135608673095703125" lon="166.468271277844905853271484375">
        <ele>902</ele>
        <time>2016-08-12T19:44:30.000Z</time>
        <extensions>
          <ns3:TrackPointExtension>
            <ns3:atemp>14.0</ns3:atemp>
            <ns3:hr>128</ns3:hr>
          </ns3:TrackPointExtension>
        </extensions>
      </trkpt>
      <trkpt lat="-22.03025928698480129241943359375" lon="166.4682737924158573150634765625">
        <ele>902</ele>
        <time>2016-08-12T19:44:31.000Z</time>
        <extensions>
          <ns3:TrackPointExtension>
            <ns3:atemp>14.0</ns3:atemp>
            <ns3:hr>128</ns3:hr>
          </ns3:TrackPointExtension>
        </extensions>
      </trkpt>
      <trkpt lat="-22.03026146627962589263916015625" lon="166.4682778157293796539306640625">
        <ele>902</ele>
        <time>2016-08-12T19:44:32.000Z</time>
        <extensions>
          <ns3:TrackPointExtension>
            <ns3:atemp>14.0</ns3:atemp>
            <ns3:hr>127</ns3:hr>
          </ns3:TrackPointExtension>
        </extensions>
      </trkpt>
      <trkpt lat="-22.03026180155575275421142578125" lon="166.468276642262935638427734375">
        <ele>902</ele>
        <time>2016-08-12T19:44:35.000Z</time>
        <extensions>
          <ns3:TrackPointExtension>
            <ns3:atemp>14.0</ns3:atemp>
            <ns3:hr>123</ns3:hr>
          </ns3:TrackPointExtension>
        </extensions>
      </trkpt>
      <trkpt lat="-22.0302633941173553466796875" lon="166.46827169694006443023681640625">
        <ele>902</ele>
        <time>2016-08-12T19:44:36.000Z</time>
        <extensions>
          <ns3:TrackPointExtension>
            <ns3:atemp>14.0</ns3:atemp>
            <ns3:hr>123</ns3:hr>
          </ns3:TrackPointExtension>
        </extensions>
      </trkpt>
      <trkpt lat="-22.03026196919381618499755859375" lon="166.46827370859682559967041015625">
        <ele>901.79998779296875</ele>
        <time>2016-08-12T19:44:37.000Z</time>
        <extensions>
          <ns3:TrackPointExtension>
            <ns3:atemp>14.0</ns3:atemp>
            <ns3:hr>122</ns3:hr>
          </ns3:TrackPointExtension>
        </extensions>
      </trkpt>
      <trkpt lat="-22.0302568562328815460205078125" lon="166.46827605552971363067626953125">
        <ele>901.79998779296875</ele>
        <time>2016-08-12T19:44:38.000Z</time>
        <extensions>
          <ns3:TrackPointExtension>
            <ns3:atemp>14.0</ns3:atemp>
            <ns3:hr>122</ns3:hr>
          </ns3:TrackPointExtension>
        </extensions>
      </trkpt>
      <trkpt lat="-22.030249647796154022216796875" lon="166.46828435361385345458984375">
        <ele>901.5999755859375</ele>
        <time>2016-08-12T19:44:39.000Z</time>
        <extensions>
          <ns3:TrackPointExtension>
            <ns3:atemp>14.0</ns3:atemp>
            <ns3:hr>122</ns3:hr>
          </ns3:TrackPointExtension>
        </extensions>
      </trkpt>
      <trkpt lat="-22.030244953930377960205078125" lon="166.46829114295542240142822265625">
        <ele>901.5999755859375</ele>
        <time>2016-08-12T19:44:40.000Z</time>
        <extensions>
          <ns3:TrackPointExtension>
            <ns3:atemp>14.0</ns3:atemp>
            <ns3:hr>122</ns3:hr>
          </ns3:TrackPointExtension>
        </extensions>
      </trkpt>
      <trkpt lat="-22.03023548237979412078857421875" lon="166.46829851903021335601806640625">
        <ele>901.5999755859375</ele>
        <time>2016-08-12T19:44:41.000Z</time>
        <extensions>
          <ns3:TrackPointExtension>
            <ns3:atemp>14.0</ns3:atemp>
            <ns3:hr>123</ns3:hr>
          </ns3:TrackPointExtension>
        </extensions>
      </trkpt>
      <trkpt lat="-22.0302263461053371429443359375" lon="166.468309499323368072509765625">
        <ele>901.79998779296875</ele>
        <time>2016-08-12T19:44:42.000Z</time>
        <extensions>
          <ns3:TrackPointExtension>
            <ns3:atemp>14.0</ns3:atemp>
            <ns3:hr>124</ns3:hr>
          </ns3:TrackPointExtension>
        </extensions>
      </trkpt>
      <trkpt lat="-22.0302209816873073577880859375" lon="166.46832056343555450439453125">
        <ele>901.79998779296875</ele>
        <time>2016-08-12T19:44:43.000Z</time>
        <extensions>
          <ns3:TrackPointExtension>
            <ns3:atemp>14.0</ns3:atemp>
            <ns3:hr>124</ns3:hr>
          </ns3:TrackPointExtension>
        </extensions>
      </trkpt>
      <trkpt lat="-22.030214108526706695556640625" lon="166.46832869388163089752197265625">
        <ele>901.79998779296875</ele>
        <time>2016-08-12T19:44:44.000Z</time>
        <extensions>
          <ns3:TrackPointExtension>
            <ns3:atemp>14.0</ns3:atemp>
            <ns3:hr>124</ns3:hr>
          </ns3:TrackPointExtension>
        </extensions>
      </trkpt>
      <trkpt lat="-22.030203379690647125244140625" lon="166.4683364890515804290771484375">
        <ele>901.5999755859375</ele>
        <time>2016-08-12T19:44:45.000Z</time>
        <extensions>
          <ns3:TrackPointExtension>
            <ns3:atemp>14.0</ns3:atemp>
            <ns3:hr>124</ns3:hr>
          </ns3:TrackPointExtension>
        </extensions>
      </trkpt>
      <trkpt lat="-22.03019642271101474761962890625" lon="166.46834604442119598388671875">
        <ele>901.4000244140625</ele>
        <time>2016-08-12T19:44:46.000Z</time>
        <extensions>
          <ns3:TrackPointExtension>
            <ns3:atemp>14.0</ns3:atemp>
            <ns3:hr>123</ns3:hr>
          </ns3:TrackPointExtension>
        </extensions>
      </trkpt>
      <trkpt lat="-22.0301908068358898162841796875" lon="166.4683562703430652618408203125">
        <ele>901.20001220703125</ele>
        <time>2016-08-12T19:44:47.000Z</time>
        <extensions>
          <ns3:TrackPointExtension>
            <ns3:atemp>14.0</ns3:atemp>
            <ns3:hr>123</ns3:hr>
          </ns3:TrackPointExtension>
        </extensions>
      </trkpt>
      <trkpt lat="-22.030185945332050323486328125" lon="166.46836590953171253204345703125">
        <ele>901.20001220703125</ele>
        <time>2016-08-12T19:44:48.000Z</time>
        <extensions>
          <ns3:TrackPointExtension>
            <ns3:atemp>14.0</ns3:atemp>
            <ns3:hr>122</ns3:hr>
          </ns3:TrackPointExtension>
        </extensions>
      </trkpt>
      <trkpt lat="-22.0301817543804645538330078125" lon="166.4683757163584232330322265625">
        <ele>901.20001220703125</ele>
        <time>2016-08-12T19:44:49.000Z</time>
        <extensions>
          <ns3:TrackPointExtension>
            <ns3:atemp>14.0</ns3:atemp>
            <ns3:hr>121</ns3:hr>
          </ns3:TrackPointExtension>
        </extensions>
      </trkpt>
      <trkpt lat="-22.030178569257259368896484375" lon="166.46838493645191192626953125">
        <ele>901</ele>
        <time>2016-08-12T19:44:50.000Z</time>
        <extensions>
          <ns3:TrackPointExtension>
            <ns3:atemp>14.0</ns3:atemp>
            <ns3:hr>121</ns3:hr>
          </ns3:TrackPointExtension>
        </extensions>
      </trkpt>
      <trkpt lat="-22.03017211519181728363037109375" lon="166.4683938212692737579345703125">
        <ele>901.20001220703125</ele>
        <time>2016-08-12T19:44:51.000Z</time>
        <extensions>
          <ns3:TrackPointExtension>
            <ns3:atemp>14.0</ns3:atemp>
            <ns3:hr>120</ns3:hr>
          </ns3:TrackPointExtension>
        </extensions>
      </trkpt>
      <trkpt lat="-22.0301636494696140289306640625" lon="166.46840848959982395172119140625">
        <ele>901.20001220703125</ele>
        <time>2016-08-12T19:44:52.000Z</time>
        <extensions>
          <ns3:TrackPointExtension>
            <ns3:atemp>14.0</ns3:atemp>
            <ns3:hr>119</ns3:hr>
          </ns3:TrackPointExtension>
        </extensions>
      </trkpt>
      <trkpt lat="-22.03015501610934734344482421875" lon="166.468422152101993560791015625">
        <ele>901.20001220703125</ele>
        <time>2016-08-12T19:44:53.000Z</time>
        <extensions>
          <ns3:TrackPointExtension>
            <ns3:atemp>14.0</ns3:atemp>
            <ns3:hr>119</ns3:hr>
          </ns3:TrackPointExtension>
        </extensions>
      </trkpt>
      <trkpt lat="-22.030145041644573211669921875" lon="166.46843648515641689300537109375">
        <ele>901.20001220703125</ele>
        <time>2016-08-12T19:44:54.000Z</time>
        <extensions>
          <ns3:TrackPointExtension>
            <ns3:atemp>14.0</ns3:atemp>
            <ns3:hr>118</ns3:hr>
          </ns3:TrackPointExtension>
        </extensions>
      </trkpt>
      <trkpt lat="-22.0301324687898159027099609375" lon="166.46845911629498004913330078125">
        <ele>901.20001220703125</ele>
        <time>2016-08-12T19:44:55.000Z</time>
        <extensions>
          <ns3:TrackPointExtension>
            <ns3:atemp>14.0</ns3:atemp>
            <ns3:hr>118</ns3:hr>
          </ns3:TrackPointExtension>
        </extensions>
      </trkpt>
      <trkpt lat="-22.0301187224686145782470703125" lon="166.468484513461589813232421875">
        <ele>901.4000244140625</ele>
        <time>2016-08-12T19:44:56.000Z</time>
        <extensions>
          <ns3:TrackPointExtension>
            <ns3:atemp>14.0</ns3:atemp>
            <ns3:hr>119</ns3:hr>
          </ns3:TrackPointExtension>
        </extensions>
      </trkpt>
      <trkpt lat="-22.030106820166110992431640625" lon="166.4685128442943096160888671875">
        <ele>901.5999755859375</ele>
        <time>2016-08-12T19:44:57.000Z</time>
        <extensions>
          <ns3:TrackPointExtension>
            <ns3:atemp>14.0</ns3:atemp>
            <ns3:hr>119</ns3:hr>
          </ns3:TrackPointExtension>
        </extensions>
      </trkpt>
      <trkpt lat="-22.03009785152971744537353515625" lon="166.46854092366993427276611328125">
        <ele>901.5999755859375</ele>
        <time>2016-08-12T19:44:58.000Z</time>
        <extensions>
          <ns3:TrackPointExtension>
            <ns3:atemp>14.0</ns3:atemp>
            <ns3:hr>120</ns3:hr>
          </ns3:TrackPointExtension>
        </extensions>
      </trkpt>
      <trkpt lat="-22.03008837997913360595703125" lon="166.468569673597812652587890625">
        <ele>901.4000244140625</ele>
        <time>2016-08-12T19:44:59.000Z</time>
        <extensions>
          <ns3:TrackPointExtension>
            <ns3:atemp>14.0</ns3:atemp>
            <ns3:hr>120</ns3:hr>
          </ns3:TrackPointExtension>
        </extensions>
      </trkpt>
      <trkpt lat="-22.03007656149566173553466796875" lon="166.46859691478312015533447265625">
        <ele>901.4000244140625</ele>
        <time>2016-08-12T19:45:00.000Z</time>
        <extensions>
          <ns3:TrackPointExtension>
            <ns3:atemp>14.0</ns3:atemp>
            <ns3:hr>120</ns3:hr>
          </ns3:TrackPointExtension>
        </extensions>
      </trkpt>
      <trkpt lat="-22.0300667546689510345458984375" lon="166.468619965016841888427734375">
        <ele>901.5999755859375</ele>
        <time>2016-08-12T19:45:01.000Z</time>
        <extensions>
          <ns3:TrackPointExtension>
            <ns3:atemp>14.0</ns3:atemp>
            <ns3:hr>121</ns3:hr>
          </ns3:TrackPointExtension>
        </extensions>
      </trkpt>
      <trkpt lat="-22.0300556905567646026611328125" lon="166.468644440174102783203125">
        <ele>901.4000244140625</ele>
        <time>2016-08-12T19:45:02.000Z</time>
        <extensions>
          <ns3:TrackPointExtension>
            <ns3:atemp>14.0</ns3:atemp>
            <ns3:hr>121</ns3:hr>
          </ns3:TrackPointExtension>
        </extensions>
      </trkpt>
      <trkpt lat="-22.0300449617207050323486328125" lon="166.4686700887978076934814453125">
        <ele>901.20001220703125</ele>
        <time>2016-08-12T19:45:03.000Z</time>
        <extensions>
          <ns3:TrackPointExtension>
            <ns3:atemp>14.0</ns3:atemp>
            <ns3:hr>121</ns3:hr>
          </ns3:TrackPointExtension>
        </extensions>
      </trkpt>
      <trkpt lat="-22.03003339469432830810546875" lon="166.46869917400181293487548828125">
        <ele>901.20001220703125</ele>
        <time>2016-08-12T19:45:04.000Z</time>
        <extensions>
          <ns3:TrackPointExtension>
            <ns3:atemp>14.0</ns3:atemp>
            <ns3:hr>121</ns3:hr>
          </ns3:TrackPointExtension>
        </extensions>
      </trkpt>
      <trkpt lat="-22.03001989983022212982177734375" lon="166.46872616373002529144287109375">
        <ele>901.20001220703125</ele>
        <time>2016-08-12T19:45:05.000Z</time>
        <extensions>
          <ns3:TrackPointExtension>
            <ns3:atemp>14.0</ns3:atemp>
            <ns3:hr>121</ns3:hr>
          </ns3:TrackPointExtension>
        </extensions>
      </trkpt>
      <trkpt lat="-22.03000632114708423614501953125" lon="166.468750052154064178466796875">
        <ele>900.79998779296875</ele>
        <time>2016-08-12T19:45:06.000Z</time>
        <extensions>
          <ns3:TrackPointExtension>
            <ns3:atemp>14.0</ns3:atemp>
            <ns3:hr>121</ns3:hr>
          </ns3:TrackPointExtension>
        </extensions>
      </trkpt>
      <trkpt lat="-22.02999207191169261932373046875" lon="166.46877595223486423492431640625">
        <ele>900.5999755859375</ele>
        <time>2016-08-12T19:45:07.000Z</time>
        <extensions>
          <ns3:TrackPointExtension>
            <ns3:atemp>14.0</ns3:atemp>
            <ns3:hr>121</ns3:hr>
          </ns3:TrackPointExtension>
        </extensions>
      </trkpt>
      <trkpt lat="-22.02998084016144275665283203125" lon="166.46880445070564746856689453125">
        <ele>900.79998779296875</ele>
        <time>2016-08-12T19:45:08.000Z</time>
        <extensions>
          <ns3:TrackPointExtension>
            <ns3:atemp>14.0</ns3:atemp>
            <ns3:hr>121</ns3:hr>
          </ns3:TrackPointExtension>
        </extensions>
      </trkpt>
      <trkpt lat="-22.029970027506351470947265625" lon="166.46883227862417697906494140625">
        <ele>900.5999755859375</ele>
        <time>2016-08-12T19:45:09.000Z</time>
        <extensions>
          <ns3:TrackPointExtension>
            <ns3:atemp>14.0</ns3:atemp>
            <ns3:hr>121</ns3:hr>
          </ns3:TrackPointExtension>
        </extensions>
      </trkpt>
      <trkpt lat="-22.02995770610868930816650390625" lon="166.468860022723674774169921875">
        <ele>900.20001220703125</ele>
        <time>2016-08-12T19:45:10.000Z</time>
        <extensions>
          <ns3:TrackPointExtension>
            <ns3:atemp>14.0</ns3:atemp>
            <ns3:hr>121</ns3:hr>
          </ns3:TrackPointExtension>
        </extensions>
      </trkpt>
      <trkpt lat="-22.02994680963456630706787109375" lon="166.46888877265155315399169921875">
        <ele>900.20001220703125</ele>
        <time>2016-08-12T19:45:11.000Z</time>
        <extensions>
          <ns3:TrackPointExtension>
            <ns3:atemp>14.0</ns3:atemp>
            <ns3:hr>122</ns3:hr>
          </ns3:TrackPointExtension>
        </extensions>
      </trkpt>
      <trkpt lat="-22.029933147132396697998046875" lon="166.46891333162784576416015625">
        <ele>900.20001220703125</ele>
        <time>2016-08-12T19:45:12.000Z</time>
        <extensions>
          <ns3:TrackPointExtension>
            <ns3:atemp>14.0</ns3:atemp>
            <ns3:hr>122</ns3:hr>
          </ns3:TrackPointExtension>
        </extensions>
      </trkpt>
      <trkpt lat="-22.0299162156879901885986328125" lon="166.4689393155276775360107421875">
        <ele>899.79998779296875</ele>
        <time>2016-08-12T19:45:13.000Z</time>
        <extensions>
          <ns3:TrackPointExtension>
            <ns3:atemp>14.0</ns3:atemp>
            <ns3:hr>122</ns3:hr>
          </ns3:TrackPointExtension>
        </extensions>
      </trkpt>
      <trkpt lat="-22.02990070916712284088134765625" lon="166.4689634554088115692138671875">
        <ele>899.5999755859375</ele>
        <time>2016-08-12T19:45:14.000Z</time>
        <extensions>
          <ns3:TrackPointExtension>
            <ns3:atemp>14.0</ns3:atemp>
            <ns3:hr>122</ns3:hr>
          </ns3:TrackPointExtension>
        </extensions>
      </trkpt>
      <trkpt lat="-22.0298870466649532318115234375" lon="166.468990109860897064208984375">
        <ele>899.5999755859375</ele>
        <time>2016-08-12T19:45:15.000Z</time>
        <extensions>
          <ns3:TrackPointExtension>
            <ns3:atemp>14.0</ns3:atemp>
            <ns3:hr>122</ns3:hr>
          </ns3:TrackPointExtension>
        </extensions>
      </trkpt>
      <trkpt lat="-22.02987338416278362274169921875" lon="166.46901265718042850494384765625">
        <ele>899.4000244140625</ele>
        <time>2016-08-12T19:45:16.000Z</time>
        <extensions>
          <ns3:TrackPointExtension>
            <ns3:atemp>14.0</ns3:atemp>
            <ns3:hr>123</ns3:hr>
          </ns3:TrackPointExtension>
        </extensions>
      </trkpt>
      <trkpt lat="-22.02985947020351886749267578125" lon="166.46903579123318195343017578125">
        <ele>899</ele>
        <time>2016-08-12T19:45:17.000Z</time>
        <extensions>
          <ns3:TrackPointExtension>
            <ns3:atemp>14.0</ns3:atemp>
            <ns3:hr>123</ns3:hr>
          </ns3:TrackPointExtension>
        </extensions>
      </trkpt>
      <trkpt lat="-22.02983918599784374237060546875" lon="166.4690553210675716400146484375">
        <ele>898.5999755859375</ele>
        <time>2016-08-12T19:45:18.000Z</time>
        <extensions>
          <ns3:TrackPointExtension>
            <ns3:atemp>14.0</ns3:atemp>
            <ns3:hr>123</ns3:hr>
          </ns3:TrackPointExtension>
        </extensions>
      </trkpt>
      <trkpt lat="-22.02982124872505664825439453125" lon="166.46907384507358074188232421875">
        <ele>898.4000244140625</ele>
        <time>2016-08-12T19:45:19.000Z</time>
        <extensions>
          <ns3:TrackPointExtension>
            <ns3:atemp>14.0</ns3:atemp>
            <ns3:hr>123</ns3:hr>
          </ns3:TrackPointExtension>
        </extensions>
      </trkpt>
      <trkpt lat="-22.02980079688131809234619140625" lon="166.469090022146701812744140625">
        <ele>898.5999755859375</ele>
        <time>2016-08-12T19:45:20.000Z</time>
        <extensions>
          <ns3:TrackPointExtension>
            <ns3:atemp>14.0</ns3:atemp>
            <ns3:hr>123</ns3:hr>
          </ns3:TrackPointExtension>
        </extensions>
      </trkpt>
      <trkpt lat="-22.0297824405133724212646484375" lon="166.4691072888672351837158203125">
        <ele>898.5999755859375</ele>
        <time>2016-08-12T19:45:21.000Z</time>
        <extensions>
          <ns3:TrackPointExtension>
            <ns3:atemp>14.0</ns3:atemp>
            <ns3:hr>124</ns3:hr>
          </ns3:TrackPointExtension>
        </extensions>
      </trkpt>
      <trkpt lat="-22.02976517379283905029296875" lon="166.4691250585019588470458984375">
        <ele>898.4000244140625</ele>
        <time>2016-08-12T19:45:22.000Z</time>
        <extensions>
          <ns3:TrackPointExtension>
            <ns3:atemp>14.0</ns3:atemp>
            <ns3:hr>124</ns3:hr>
          </ns3:TrackPointExtension>
        </extensions>
      </trkpt>
      <trkpt lat="-22.02974497340619564056396484375" lon="166.46913905628025531768798828125">
        <ele>898.4000244140625</ele>
        <time>2016-08-12T19:45:23.000Z</time>
        <extensions>
          <ns3:TrackPointExtension>
            <ns3:atemp>14.0</ns3:atemp>
            <ns3:hr>124</ns3:hr>
          </ns3:TrackPointExtension>
        </extensions>
      </trkpt>
      <trkpt lat="-22.0297220908105373382568359375" lon="166.46915028803050518035888671875">
        <ele>898.20001220703125</ele>
        <time>2016-08-12T19:45:24.000Z</time>
        <extensions>
          <ns3:TrackPointExtension>
            <ns3:atemp>14.0</ns3:atemp>
            <ns3:hr>124</ns3:hr>
          </ns3:TrackPointExtension>
        </extensions>
      </trkpt>
      <trkpt lat="-22.02970088459551334381103515625" lon="166.46916252560913562774658203125">
        <ele>898</ele>
        <time>2016-08-12T19:45:25.000Z</time>
        <extensions>
          <ns3:TrackPointExtension>
            <ns3:atemp>14.0</ns3:atemp>
            <ns3:hr>124</ns3:hr>
          </ns3:TrackPointExtension>
        </extensions>
      </trkpt>
      <trkpt lat="-22.02968277968466281890869140625" lon="166.46917392499744892120361328125">
        <ele>897.79998779296875</ele>
        <time>2016-08-12T19:45:26.000Z</time>
        <extensions>
          <ns3:TrackPointExtension>
            <ns3:atemp>14.0</ns3:atemp>
            <ns3:hr>124</ns3:hr>
          </ns3:TrackPointExtension>
        </extensions>
      </trkpt>
      <trkpt lat="-22.02966366894543170928955078125" lon="166.469187922775745391845703125">
        <ele>897.4000244140625</ele>
        <time>2016-08-12T19:45:27.000Z</time>
        <extensions>
          <ns3:TrackPointExtension>
            <ns3:atemp>14.0</ns3:atemp>
            <ns3:hr>124</ns3:hr>
          </ns3:TrackPointExtension>
        </extensions>
      </trkpt>
      <trkpt lat="-22.02964791096746921539306640625" lon="166.46920728497207164764404296875">
        <ele>897</ele>
        <time>2016-08-12T19:45:28.000Z</time>
        <extensions>
          <ns3:TrackPointExtension>
            <ns3:atemp>14.0</ns3:atemp>
            <ns3:hr>124</ns3:hr>
          </ns3:TrackPointExtension>
        </extensions>
      </trkpt>
      <trkpt lat="-22.0296308957040309906005859375" lon="166.46922321058809757232666015625">
        <ele>896.79998779296875</ele>
        <time>2016-08-12T19:45:29.000Z</time>
        <extensions>
          <ns3:TrackPointExtension>
            <ns3:atemp>14.0</ns3:atemp>
            <ns3:hr>124</ns3:hr>
          </ns3:TrackPointExtension>
        </extensions>
      </trkpt>
      <trkpt lat="-22.02961337752640247344970703125" lon="166.46923075430095195770263671875">
        <ele>896.4000244140625</ele>
        <time>2016-08-12T19:45:30.000Z</time>
        <extensions>
          <ns3:TrackPointExtension>
            <ns3:atemp>14.0</ns3:atemp>
            <ns3:hr>125</ns3:hr>
          </ns3:TrackPointExtension>
        </extensions>
      </trkpt>
      <trkpt lat="-22.02959694899618625640869140625" lon="166.46923712454736232757568359375">
        <ele>896</ele>
        <time>2016-08-12T19:45:31.000Z</time>
        <extensions>
          <ns3:TrackPointExtension>
            <ns3:atemp>14.0</ns3:atemp>
            <ns3:hr>125</ns3:hr>
          </ns3:TrackPointExtension>
        </extensions>
      </trkpt>
      <trkpt lat="-22.029582448303699493408203125" lon="166.46924718283116817474365234375">
        <ele>895.79998779296875</ele>
        <time>2016-08-12T19:45:32.000Z</time>
        <extensions>
          <ns3:TrackPointExtension>
            <ns3:atemp>14.0</ns3:atemp>
            <ns3:hr>125</ns3:hr>
          </ns3:TrackPointExtension>
        </extensions>
      </trkpt>
      <trkpt lat="-22.02956794761121273040771484375" lon="166.46926126442849636077880859375">
        <ele>895.20001220703125</ele>
        <time>2016-08-12T19:45:33.000Z</time>
        <extensions>
          <ns3:TrackPointExtension>
            <ns3:atemp>14.0</ns3:atemp>
            <ns3:hr>125</ns3:hr>
          </ns3:TrackPointExtension>
        </extensions>
      </trkpt>
      <trkpt lat="-22.02955252490937709808349609375" lon="166.46927350200712680816650390625">
        <ele>895</ele>
        <time>2016-08-12T19:45:34.000Z</time>
        <extensions>
          <ns3:TrackPointExtension>
            <ns3:atemp>14.0</ns3:atemp>
            <ns3:hr>125</ns3:hr>
          </ns3:TrackPointExtension>
        </extensions>
      </trkpt>
      <trkpt lat="-22.0295376889407634735107421875" lon="166.46929127164185047149658203125">
        <ele>894.5999755859375</ele>
        <time>2016-08-12T19:45:35.000Z</time>
        <extensions>
          <ns3:TrackPointExtension>
            <ns3:atemp>14.0</ns3:atemp>
            <ns3:hr>125</ns3:hr>
          </ns3:TrackPointExtension>
        </extensions>
      </trkpt>
      <trkpt lat="-22.02952536754310131072998046875" lon="166.46931356750428676605224609375">
        <ele>894.20001220703125</ele>
        <time>2016-08-12T19:45:36.000Z</time>
        <extensions>
          <ns3:TrackPointExtension>
            <ns3:atemp>14.0</ns3:atemp>
            <ns3:hr>125</ns3:hr>
          </ns3:TrackPointExtension>
        </extensions>
      </trkpt>
      <trkpt lat="-22.02951430343091487884521484375" lon="166.46933435462415218353271484375">
        <ele>894</ele>
        <time>2016-08-12T19:45:37.000Z</time>
        <extensions>
          <ns3:TrackPointExtension>
            <ns3:atemp>14.0</ns3:atemp>
            <ns3:hr>126</ns3:hr>
          </ns3:TrackPointExtension>
        </extensions>
      </trkpt>
      <trkpt lat="-22.02950256876647472381591796875" lon="166.46935522556304931640625">
        <ele>893.79998779296875</ele>
        <time>2016-08-12T19:45:38.000Z</time>
        <extensions>
          <ns3:TrackPointExtension>
            <ns3:atemp>14.0</ns3:atemp>
            <ns3:hr>126</ns3:hr>
          </ns3:TrackPointExtension>
        </extensions>
      </trkpt>
      <trkpt lat="-22.0294863916933536529541015625" lon="166.4693755097687244415283203125">
        <ele>893.5999755859375</ele>
        <time>2016-08-12T19:45:39.000Z</time>
        <extensions>
          <ns3:TrackPointExtension>
            <ns3:atemp>14.0</ns3:atemp>
            <ns3:hr>126</ns3:hr>
          </ns3:TrackPointExtension>
        </extensions>
      </trkpt>
      <trkpt lat="-22.0294723100960254669189453125" lon="166.46939721889793872833251953125">
        <ele>893.5999755859375</ele>
        <time>2016-08-12T19:45:40.000Z</time>
        <extensions>
          <ns3:TrackPointExtension>
            <ns3:atemp>14.0</ns3:atemp>
            <ns3:hr>126</ns3:hr>
          </ns3:TrackPointExtension>
        </extensions>
      </trkpt>
      <trkpt lat="-22.029459066689014434814453125" lon="166.46941347979009151458740234375">
        <ele>893.20001220703125</ele>
        <time>2016-08-12T19:45:41.000Z</time>
        <extensions>
          <ns3:TrackPointExtension>
            <ns3:atemp>14.0</ns3:atemp>
            <ns3:hr>126</ns3:hr>
          </ns3:TrackPointExtension>
        </extensions>
      </trkpt>
      <trkpt lat="-22.0294471643865108489990234375" lon="166.4694289863109588623046875">
        <ele>892.79998779296875</ele>
        <time>2016-08-12T19:45:42.000Z</time>
        <extensions>
          <ns3:TrackPointExtension>
            <ns3:atemp>14.0</ns3:atemp>
            <ns3:hr>126</ns3:hr>
          </ns3:TrackPointExtension>
        </extensions>
      </trkpt>
      <trkpt lat="-22.0294344238936901092529296875" lon="166.46944398991763591766357421875">
        <ele>892.5999755859375</ele>
        <time>2016-08-12T19:45:43.000Z</time>
        <extensions>
          <ns3:TrackPointExtension>
            <ns3:atemp>14.0</ns3:atemp>
            <ns3:hr>125</ns3:hr>
          </ns3:TrackPointExtension>
        </extensions>
      </trkpt>
      <trkpt lat="-22.02942009083926677703857421875" lon="166.469452790915966033935546875">
        <ele>892</ele>
        <time>2016-08-12T19:45:44.000Z</time>
        <extensions>
          <ns3:TrackPointExtension>
            <ns3:atemp>14.0</ns3:atemp>
            <ns3:hr>125</ns3:hr>
          </ns3:TrackPointExtension>
        </extensions>
      </trkpt>
      <trkpt lat="-22.02940198592841625213623046875" lon="166.46946041844785213470458984375">
        <ele>891.5999755859375</ele>
        <time>2016-08-12T19:45:45.000Z</time>
        <extensions>
          <ns3:TrackPointExtension>
            <ns3:atemp>14.0</ns3:atemp>
            <ns3:hr>125</ns3:hr>
          </ns3:TrackPointExtension>
        </extensions>
      </trkpt>
      <trkpt lat="-22.02938161790370941162109375" lon="166.46947257220745086669921875">
        <ele>891.4000244140625</ele>
        <time>2016-08-12T19:45:46.000Z</time>
        <extensions>
          <ns3:TrackPointExtension>
            <ns3:atemp>14.0</ns3:atemp>
            <ns3:hr>125</ns3:hr>
          </ns3:TrackPointExtension>
        </extensions>
      </trkpt>
      <trkpt lat="-22.029359824955463409423828125" lon="166.46948003210127353668212890625">
        <ele>890.79998779296875</ele>
        <time>2016-08-12T19:45:47.000Z</time>
        <extensions>
          <ns3:TrackPointExtension>
            <ns3:atemp>14.0</ns3:atemp>
            <ns3:hr>125</ns3:hr>
          </ns3:TrackPointExtension>
        </extensions>
      </trkpt>
      <trkpt lat="-22.02934113331139087677001953125" lon="166.4694881625473499298095703125">
        <ele>890.20001220703125</ele>
        <time>2016-08-12T19:45:48.000Z</time>
        <extensions>
          <ns3:TrackPointExtension>
            <ns3:atemp>14.0</ns3:atemp>
            <ns3:hr>125</ns3:hr>
          </ns3:TrackPointExtension>
        </extensions>
      </trkpt>
      <trkpt lat="-22.0293244533240795135498046875" lon="166.46950333379209041595458984375">
        <ele>890.20001220703125</ele>
        <time>2016-08-12T19:45:49.000Z</time>
        <extensions>
          <ns3:TrackPointExtension>
            <ns3:atemp>14.0</ns3:atemp>
            <ns3:hr>125</ns3:hr>
          </ns3:TrackPointExtension>
        </extensions>
      </trkpt>
      <trkpt lat="-22.0293085277080535888671875" lon="166.46951741538941860198974609375">
        <ele>889.5999755859375</ele>
        <time>2016-08-12T19:45:50.000Z</time>
        <extensions>
          <ns3:TrackPointExtension>
            <ns3:atemp>14.0</ns3:atemp>
            <ns3:hr>125</ns3:hr>
          </ns3:TrackPointExtension>
        </extensions>
      </trkpt>
      <trkpt lat="-22.02928765676915645599365234375" lon="166.4695277251303195953369140625">
        <ele>889.20001220703125</ele>
        <time>2016-08-12T19:45:51.000Z</time>
        <extensions>
          <ns3:TrackPointExtension>
            <ns3:atemp>14.0</ns3:atemp>
            <ns3:hr>125</ns3:hr>
          </ns3:TrackPointExtension>
        </extensions>
      </trkpt>
      <trkpt lat="-22.0292664505541324615478515625" lon="166.46954004652798175811767578125">
        <ele>888.79998779296875</ele>
        <time>2016-08-12T19:45:52.000Z</time>
        <extensions>
          <ns3:TrackPointExtension>
            <ns3:atemp>14.0</ns3:atemp>
            <ns3:hr>125</ns3:hr>
          </ns3:TrackPointExtension>
        </extensions>
      </trkpt>
      <trkpt lat="-22.02924591489136219024658203125" lon="166.46955044008791446685791015625">
        <ele>888.5999755859375</ele>
        <time>2016-08-12T19:45:53.000Z</time>
        <extensions>
          <ns3:TrackPointExtension>
            <ns3:atemp>14.0</ns3:atemp>
            <ns3:hr>126</ns3:hr>
          </ns3:TrackPointExtension>
        </extensions>
      </trkpt>
      <trkpt lat="-22.02922378666698932647705078125" lon="166.4695629291236400604248046875">
        <ele>888</ele>
        <time>2016-08-12T19:45:54.000Z</time>
        <extensions>
          <ns3:TrackPointExtension>
            <ns3:atemp>14.0</ns3:atemp>
            <ns3:hr>125</ns3:hr>
          </ns3:TrackPointExtension>
        </extensions>
      </trkpt>
      <trkpt lat="-22.0292024128139019012451171875" lon="166.46957608871161937713623046875">
        <ele>887.79998779296875</ele>
        <time>2016-08-12T19:45:55.000Z</time>
        <extensions>
          <ns3:TrackPointExtension>
            <ns3:atemp>14.0</ns3:atemp>
            <ns3:hr>126</ns3:hr>
          </ns3:TrackPointExtension>
        </extensions>
      </trkpt>
      <trkpt lat="-22.02918087132275104522705078125" lon="166.46959033794701099395751953125">
        <ele>887.79998779296875</ele>
        <time>2016-08-12T19:45:56.000Z</time>
        <extensions>
          <ns3:TrackPointExtension>
            <ns3:atemp>14.0</ns3:atemp>
            <ns3:hr>126</ns3:hr>
          </ns3:TrackPointExtension>
        </extensions>
      </trkpt>
      <trkpt lat="-22.02915991656482219696044921875" lon="166.4696086943149566650390625">
        <ele>887.4000244140625</ele>
        <time>2016-08-12T19:45:57.000Z</time>
        <extensions>
          <ns3:TrackPointExtension>
            <ns3:atemp>14.0</ns3:atemp>
            <ns3:hr>125</ns3:hr>
          </ns3:TrackPointExtension>
        </extensions>
      </trkpt>
      <trkpt lat="-22.029141895473003387451171875" lon="166.4696249552071094512939453125">
        <ele>887</ele>
        <time>2016-08-12T19:45:58.000Z</time>
        <extensions>
          <ns3:TrackPointExtension>
            <ns3:atemp>14.0</ns3:atemp>
            <ns3:hr>126</ns3:hr>
          </ns3:TrackPointExtension>
        </extensions>
      </trkpt>
      <trkpt lat="-22.02911968342959880828857421875" lon="166.46963325329124927520751953125">
        <ele>886.79998779296875</ele>
        <time>2016-08-12T19:45:59.000Z</time>
        <extensions>
          <ns3:TrackPointExtension>
            <ns3:atemp>14.0</ns3:atemp>
            <ns3:hr>125</ns3:hr>
          </ns3:TrackPointExtension>
        </extensions>
      </trkpt>
      <trkpt lat="-22.02909906394779682159423828125" lon="166.46964515559375286102294921875">
        <ele>886.5999755859375</ele>
        <time>2016-08-12T19:46:00.000Z</time>
        <extensions>
          <ns3:TrackPointExtension>
            <ns3:atemp>14.0</ns3:atemp>
            <ns3:hr>126</ns3:hr>
          </ns3:TrackPointExtension>
        </extensions>
      </trkpt>
      <trkpt lat="-22.0290770195424556732177734375" lon="166.46965823136270046234130859375">
        <ele>886.4000244140625</ele>
        <time>2016-08-12T19:46:01.000Z</time>
        <extensions>
          <ns3:TrackPointExtension>
            <ns3:atemp>14.0</ns3:atemp>
            <ns3:hr>125</ns3:hr>
          </ns3:TrackPointExtension>
        </extensions>
      </trkpt>
      <trkpt lat="-22.02905531041324138641357421875" lon="166.46967415697872638702392578125">
        <ele>886.20001220703125</ele>
        <time>2016-08-12T19:46:02.000Z</time>
        <extensions>
          <ns3:TrackPointExtension>
            <ns3:atemp>14.0</ns3:atemp>
            <ns3:hr>125</ns3:hr>
          </ns3:TrackPointExtension>
        </extensions>
      </trkpt>
      <trkpt lat="-22.02903402037918567657470703125" lon="166.4696856401860713958740234375">
        <ele>885.79998779296875</ele>
        <time>2016-08-12T19:46:03.000Z</time>
        <extensions>
          <ns3:TrackPointExtension>
            <ns3:atemp>14.0</ns3:atemp>
            <ns3:hr>125</ns3:hr>
          </ns3:TrackPointExtension>
        </extensions>
      </trkpt>
      <trkpt lat="-22.0290109701454639434814453125" lon="166.4696936868131160736083984375">
        <ele>885.5999755859375</ele>
        <time>2016-08-12T19:46:04.000Z</time>
        <extensions>
          <ns3:TrackPointExtension>
            <ns3:atemp>14.0</ns3:atemp>
            <ns3:hr>125</ns3:hr>
          </ns3:TrackPointExtension>
        </extensions>
      </trkpt>
      <trkpt lat="-22.028979957103729248046875" lon="166.469694860279560089111328125">
        <ele>885.5999755859375</ele>
        <time>2016-08-12T19:46:05.000Z</time>
        <extensions>
          <ns3:TrackPointExtension>
            <ns3:atemp>14.0</ns3:atemp>
            <ns3:hr>125</ns3:hr>
          </ns3:TrackPointExtension>
        </extensions>
      </trkpt>
      <trkpt lat="-22.02895271591842174530029296875" lon="166.46969930268824100494384765625">
        <ele>885.4000244140625</ele>
        <time>2016-08-12T19:46:06.000Z</time>
        <extensions>
          <ns3:TrackPointExtension>
            <ns3:atemp>14.0</ns3:atemp>
            <ns3:hr>125</ns3:hr>
          </ns3:TrackPointExtension>
        </extensions>
      </trkpt>
      <trkpt lat="-22.02892840839922428131103515625" lon="166.4697024039924144744873046875">
        <ele>885.20001220703125</ele>
        <time>2016-08-12T19:46:07.000Z</time>
        <extensions>
          <ns3:TrackPointExtension>
            <ns3:atemp>14.0</ns3:atemp>
            <ns3:hr>126</ns3:hr>
          </ns3:TrackPointExtension>
        </extensions>
      </trkpt>
      <trkpt lat="-22.02890175394713878631591796875" lon="166.4697079360485076904296875">
        <ele>885.20001220703125</ele>
        <time>2016-08-12T19:46:08.000Z</time>
        <extensions>
          <ns3:TrackPointExtension>
            <ns3:atemp>14.0</ns3:atemp>
            <ns3:hr>126</ns3:hr>
          </ns3:TrackPointExtension>
        </extensions>
      </trkpt>
      <trkpt lat="-22.0288815535604953765869140625" lon="166.4697211794555187225341796875">
        <ele>884.79998779296875</ele>
        <time>2016-08-12T19:46:09.000Z</time>
        <extensions>
          <ns3:TrackPointExtension>
            <ns3:atemp>14.0</ns3:atemp>
            <ns3:hr>126</ns3:hr>
          </ns3:TrackPointExtension>
        </extensions>
      </trkpt>
      <trkpt lat="-22.02886034734547138214111328125" lon="166.4697292260825634002685546875">
        <ele>884.5999755859375</ele>
        <time>2016-08-12T19:46:10.000Z</time>
        <extensions>
          <ns3:TrackPointExtension>
            <ns3:atemp>14.0</ns3:atemp>
            <ns3:hr>126</ns3:hr>
          </ns3:TrackPointExtension>
        </extensions>
      </trkpt>
      <trkpt lat="-22.028836794197559356689453125" lon="166.46974171511828899383544921875">
        <ele>884.5999755859375</ele>
        <time>2016-08-12T19:46:11.000Z</time>
        <extensions>
          <ns3:TrackPointExtension>
            <ns3:atemp>14.0</ns3:atemp>
            <ns3:hr>126</ns3:hr>
          </ns3:TrackPointExtension>
        </extensions>
      </trkpt>
      <trkpt lat="-22.02881525270640850067138671875" lon="166.469753868877887725830078125">
        <ele>884.4000244140625</ele>
        <time>2016-08-12T19:46:12.000Z</time>
        <extensions>
          <ns3:TrackPointExtension>
            <ns3:atemp>14.0</ns3:atemp>
            <ns3:hr>126</ns3:hr>
          </ns3:TrackPointExtension>
        </extensions>
      </trkpt>
      <trkpt lat="-22.0287930406630039215087890625" lon="166.46976769901812076568603515625">
        <ele>884.20001220703125</ele>
        <time>2016-08-12T19:46:13.000Z</time>
        <extensions>
          <ns3:TrackPointExtension>
            <ns3:atemp>14.0</ns3:atemp>
            <ns3:hr>127</ns3:hr>
          </ns3:TrackPointExtension>
        </extensions>
      </trkpt>
      <trkpt lat="-22.0287694036960601806640625" lon="166.46977792493999004364013671875">
        <ele>884.4000244140625</ele>
        <time>2016-08-12T19:46:14.000Z</time>
        <extensions>
          <ns3:TrackPointExtension>
            <ns3:atemp>14.0</ns3:atemp>
            <ns3:hr>126</ns3:hr>
          </ns3:TrackPointExtension>
        </extensions>
      </trkpt>
      <trkpt lat="-22.0287444256246089935302734375" lon="166.4697768352925777435302734375">
        <ele>884.4000244140625</ele>
        <time>2016-08-12T19:46:15.000Z</time>
        <extensions>
          <ns3:TrackPointExtension>
            <ns3:atemp>14.0</ns3:atemp>
            <ns3:hr>126</ns3:hr>
          </ns3:TrackPointExtension>
        </extensions>
      </trkpt>
      <trkpt lat="-22.02871869318187236785888671875" lon="166.46977297961711883544921875">
        <ele>884</ele>
        <time>2016-08-12T19:46:16.000Z</time>
        <extensions>
          <ns3:TrackPointExtension>
            <ns3:atemp>14.0</ns3:atemp>
            <ns3:hr>126</ns3:hr>
          </ns3:TrackPointExtension>
        </extensions>
      </trkpt>
      <trkpt lat="-22.0286941342055797576904296875" lon="166.4697701297700405120849609375">
        <ele>884</ele>
        <time>2016-08-12T19:46:17.000Z</time>
        <extensions>
          <ns3:TrackPointExtension>
            <ns3:atemp>14.0</ns3:atemp>
            <ns3:hr>126</ns3:hr>
          </ns3:TrackPointExtension>
        </extensions>
      </trkpt>
      <trkpt lat="-22.02866773121058940887451171875" lon="166.46975579671561717987060546875">
        <ele>884</ele>
        <time>2016-08-12T19:46:18.000Z</time>
        <extensions>
          <ns3:TrackPointExtension>
            <ns3:atemp>14.0</ns3:atemp>
            <ns3:hr>127</ns3:hr>
          </ns3:TrackPointExtension>
        </extensions>
      </trkpt>
      <trkpt lat="-22.02864711172878742218017578125" lon="166.46974691189825534820556640625">
        <ele>883.79998779296875</ele>
        <time>2016-08-12T19:46:19.000Z</time>
        <extensions>
          <ns3:TrackPointExtension>
            <ns3:atemp>14.0</ns3:atemp>
            <ns3:hr>126</ns3:hr>
          </ns3:TrackPointExtension>
        </extensions>
      </trkpt>
      <trkpt lat="-22.02863001264631748199462890625" lon="166.4697382785379886627197265625">
        <ele>883.5999755859375</ele>
        <time>2016-08-12T19:46:20.000Z</time>
        <extensions>
          <ns3:TrackPointExtension>
            <ns3:atemp>14.0</ns3:atemp>
            <ns3:hr>127</ns3:hr>
          </ns3:TrackPointExtension>
        </extensions>
      </trkpt>
      <trkpt lat="-22.0286119915544986724853515625" lon="166.46973484195768833160400390625">
        <ele>883.5999755859375</ele>
        <time>2016-08-12T19:46:21.000Z</time>
        <extensions>
          <ns3:TrackPointExtension>
            <ns3:atemp>14.0</ns3:atemp>
            <ns3:hr>127</ns3:hr>
          </ns3:TrackPointExtension>
        </extensions>
      </trkpt>
      <trkpt lat="-22.02859011478722095489501953125" lon="166.4697345905005931854248046875">
        <ele>883.4000244140625</ele>
        <time>2016-08-12T19:46:22.000Z</time>
        <extensions>
          <ns3:TrackPointExtension>
            <ns3:atemp>14.0</ns3:atemp>
            <ns3:hr>127</ns3:hr>
          </ns3:TrackPointExtension>
        </extensions>
      </trkpt>
      <trkpt lat="-22.0285643823444843292236328125" lon="166.46973970346152782440185546875">
        <ele>883</ele>
        <time>2016-08-12T19:46:23.000Z</time>
        <extensions>
          <ns3:TrackPointExtension>
            <ns3:atemp>14.0</ns3:atemp>
            <ns3:hr>127</ns3:hr>
          </ns3:TrackPointExtension>
        </extensions>
      </trkpt>
      <trkpt lat="-22.0285405777394771575927734375" lon="166.46974020637571811676025390625">
        <ele>883.20001220703125</ele>
        <time>2016-08-12T19:46:24.000Z</time>
        <extensions>
          <ns3:TrackPointExtension>
            <ns3:atemp>14.0</ns3:atemp>
            <ns3:hr>127</ns3:hr>
          </ns3:TrackPointExtension>
        </extensions>
      </trkpt>
      <trkpt lat="-22.02851853333413600921630859375" lon="166.46975177340209484100341796875">
        <ele>883</ele>
        <time>2016-08-12T19:46:25.000Z</time>
        <extensions>
          <ns3:TrackPointExtension>
            <ns3:atemp>14.0</ns3:atemp>
            <ns3:hr>128</ns3:hr>
          </ns3:TrackPointExtension>
        </extensions>
      </trkpt>
      <trkpt lat="-22.028501518070697784423828125" lon="166.46976619027554988861083984375">
        <ele>882.5999755859375</ele>
        <time>2016-08-12T19:46:26.000Z</time>
        <extensions>
          <ns3:TrackPointExtension>
            <ns3:atemp>14.0</ns3:atemp>
            <ns3:hr>127</ns3:hr>
          </ns3:TrackPointExtension>
        </extensions>
      </trkpt>
      <trkpt lat="-22.02847897075116634368896484375" lon="166.46977993659675121307373046875">
        <ele>882.5999755859375</ele>
        <time>2016-08-12T19:46:27.000Z</time>
        <extensions>
          <ns3:TrackPointExtension>
            <ns3:atemp>14.0</ns3:atemp>
            <ns3:hr>127</ns3:hr>
          </ns3:TrackPointExtension>
        </extensions>
      </trkpt>
      <trkpt lat="-22.02845684252679347991943359375" lon="166.46978773176670074462890625">
        <ele>882.79998779296875</ele>
        <time>2016-08-12T19:46:28.000Z</time>
        <extensions>
          <ns3:TrackPointExtension>
            <ns3:atemp>14.0</ns3:atemp>
            <ns3:hr>127</ns3:hr>
          </ns3:TrackPointExtension>
        </extensions>
      </trkpt>
      <trkpt lat="-22.0284379832446575164794921875" lon="166.4697946049273014068603515625">
        <ele>882.5999755859375</ele>
        <time>2016-08-12T19:46:29.000Z</time>
        <extensions>
          <ns3:TrackPointExtension>
            <ns3:atemp>14.0</ns3:atemp>
            <ns3:hr>127</ns3:hr>
          </ns3:TrackPointExtension>
        </extensions>
      </trkpt>
      <trkpt lat="-22.0284128375351428985595703125" lon="166.469802148640155792236328125">
        <ele>882.4000244140625</ele>
        <time>2016-08-12T19:46:30.000Z</time>
        <extensions>
          <ns3:TrackPointExtension>
            <ns3:atemp>14.0</ns3:atemp>
            <ns3:hr>127</ns3:hr>
          </ns3:TrackPointExtension>
        </extensions>
      </trkpt>
      <trkpt lat="-22.028386183083057403564453125" lon="166.46980005316436290740966796875">
        <ele>882.5999755859375</ele>
        <time>2016-08-12T19:46:31.000Z</time>
        <extensions>
          <ns3:TrackPointExtension>
            <ns3:atemp>14.0</ns3:atemp>
            <ns3:hr>127</ns3:hr>
          </ns3:TrackPointExtension>
        </extensions>
      </trkpt>
      <trkpt lat="-22.0283658988773822784423828125" lon="166.469810195267200469970703125">
        <ele>882.4000244140625</ele>
        <time>2016-08-12T19:46:32.000Z</time>
        <extensions>
          <ns3:TrackPointExtension>
            <ns3:atemp>14.0</ns3:atemp>
            <ns3:hr>127</ns3:hr>
          </ns3:TrackPointExtension>
        </extensions>
      </trkpt>
      <trkpt lat="-22.028346955776214599609375" lon="166.46981312893331050872802734375">
        <ele>882.20001220703125</ele>
        <time>2016-08-12T19:46:33.000Z</time>
        <extensions>
          <ns3:TrackPointExtension>
            <ns3:atemp>14.0</ns3:atemp>
            <ns3:hr>127</ns3:hr>
          </ns3:TrackPointExtension>
        </extensions>
      </trkpt>
      <trkpt lat="-22.0283273421227931976318359375" lon="166.4698207564651966094970703125">
        <ele>882</ele>
        <time>2016-08-12T19:46:34.000Z</time>
        <extensions>
          <ns3:TrackPointExtension>
            <ns3:atemp>14.0</ns3:atemp>
            <ns3:hr>126</ns3:hr>
          </ns3:TrackPointExtension>
        </extensions>
      </trkpt>
      <trkpt lat="-22.02830848284065723419189453125" lon="166.4698261208832263946533203125">
        <ele>882</ele>
        <time>2016-08-12T19:46:35.000Z</time>
        <extensions>
          <ns3:TrackPointExtension>
            <ns3:atemp>14.0</ns3:atemp>
            <ns3:hr>126</ns3:hr>
          </ns3:TrackPointExtension>
        </extensions>
      </trkpt>
      <trkpt lat="-22.02828886918723583221435546875" lon="166.4698366820812225341796875">
        <ele>882</ele>
        <time>2016-08-12T19:46:36.000Z</time>
        <extensions>
          <ns3:TrackPointExtension>
            <ns3:atemp>14.0</ns3:atemp>
            <ns3:hr>126</ns3:hr>
          </ns3:TrackPointExtension>
        </extensions>
      </trkpt>
      <trkpt lat="-22.02826640568673610687255859375" lon="166.4698492549359798431396484375">
        <ele>882</ele>
        <time>2016-08-12T19:46:37.000Z</time>
        <extensions>
          <ns3:TrackPointExtension>
            <ns3:atemp>14.0</ns3:atemp>
            <ns3:hr>126</ns3:hr>
          </ns3:TrackPointExtension>
        </extensions>
      </trkpt>
      <trkpt lat="-22.0282445289194583892822265625" lon="166.469857133924961090087890625">
        <ele>882.20001220703125</ele>
        <time>2016-08-12T19:46:38.000Z</time>
        <extensions>
          <ns3:TrackPointExtension>
            <ns3:atemp>14.0</ns3:atemp>
            <ns3:hr>126</ns3:hr>
          </ns3:TrackPointExtension>
        </extensions>
      </trkpt>
      <trkpt lat="-22.02821846120059490203857421875" lon="166.46985948085784912109375">
        <ele>882.20001220703125</ele>
        <time>2016-08-12T19:46:39.000Z</time>
        <extensions>
          <ns3:TrackPointExtension>
            <ns3:atemp>14.0</ns3:atemp>
            <ns3:hr>126</ns3:hr>
          </ns3:TrackPointExtension>
        </extensions>
      </trkpt>
      <trkpt lat="-22.02819348312914371490478515625" lon="166.469867192208766937255859375">
        <ele>882.20001220703125</ele>
        <time>2016-08-12T19:46:40.000Z</time>
        <extensions>
          <ns3:TrackPointExtension>
            <ns3:atemp>14.0</ns3:atemp>
            <ns3:hr>126</ns3:hr>
          </ns3:TrackPointExtension>
        </extensions>
      </trkpt>
      <trkpt lat="-22.0281721092760562896728515625" lon="166.46987096406519412994384765625">
        <ele>882.5999755859375</ele>
        <time>2016-08-12T19:46:41.000Z</time>
        <extensions>
          <ns3:TrackPointExtension>
            <ns3:atemp>14.0</ns3:atemp>
            <ns3:hr>127</ns3:hr>
          </ns3:TrackPointExtension>
        </extensions>
      </trkpt>
      <trkpt lat="-22.0281506516039371490478515625" lon="166.46987632848322391510009765625">
        <ele>883</ele>
        <time>2016-08-12T19:46:42.000Z</time>
        <extensions>
          <ns3:TrackPointExtension>
            <ns3:atemp>14.0</ns3:atemp>
            <ns3:hr>127</ns3:hr>
          </ns3:TrackPointExtension>
        </extensions>
      </trkpt>
      <trkpt lat="-22.02812994830310344696044921875" lon="166.46988353691995143890380859375">
        <ele>883</ele>
        <time>2016-08-12T19:46:43.000Z</time>
        <extensions>
          <ns3:TrackPointExtension>
            <ns3:atemp>14.0</ns3:atemp>
            <ns3:hr>128</ns3:hr>
          </ns3:TrackPointExtension>
        </extensions>
      </trkpt>
      <trkpt lat="-22.0281084068119525909423828125" lon="166.4698901586234569549560546875">
        <ele>882.5999755859375</ele>
        <time>2016-08-12T19:46:44.000Z</time>
        <extensions>
          <ns3:TrackPointExtension>
            <ns3:atemp>14.0</ns3:atemp>
            <ns3:hr>128</ns3:hr>
          </ns3:TrackPointExtension>
        </extensions>
      </trkpt>
      <trkpt lat="-22.0280849374830722808837890625" lon="166.46989770233631134033203125">
        <ele>882.5999755859375</ele>
        <time>2016-08-12T19:46:45.000Z</time>
        <extensions>
          <ns3:TrackPointExtension>
            <ns3:atemp>14.0</ns3:atemp>
            <ns3:hr>129</ns3:hr>
          </ns3:TrackPointExtension>
        </extensions>
      </trkpt>
      <trkpt lat="-22.02806272543966770172119140625" lon="166.46990843117237091064453125">
        <ele>883</ele>
        <time>2016-08-12T19:46:46.000Z</time>
        <extensions>
          <ns3:TrackPointExtension>
            <ns3:atemp>14.0</ns3:atemp>
            <ns3:hr>129</ns3:hr>
          </ns3:TrackPointExtension>
        </extensions>
      </trkpt>
      <trkpt lat="-22.0280386693775653839111328125" lon="166.46991639398038387298583984375">
        <ele>883.4000244140625</ele>
        <time>2016-08-12T19:46:47.000Z</time>
        <extensions>
          <ns3:TrackPointExtension>
            <ns3:atemp>14.0</ns3:atemp>
            <ns3:hr>130</ns3:hr>
          </ns3:TrackPointExtension>
        </extensions>
      </trkpt>
      <trkpt lat="-22.0280178822576999664306640625" lon="166.46992745809257030487060546875">
        <ele>883.4000244140625</ele>
        <time>2016-08-12T19:46:48.000Z</time>
        <extensions>
          <ns3:TrackPointExtension>
            <ns3:atemp>14.0</ns3:atemp>
            <ns3:hr>130</ns3:hr>
          </ns3:TrackPointExtension>
        </extensions>
      </trkpt>
      <trkpt lat="-22.02799600549042224884033203125" lon="166.4699367620050907135009765625">
        <ele>883</ele>
        <time>2016-08-12T19:46:49.000Z</time>
        <extensions>
          <ns3:TrackPointExtension>
            <ns3:atemp>14.0</ns3:atemp>
            <ns3:hr>131</ns3:hr>
          </ns3:TrackPointExtension>
        </extensions>
      </trkpt>
      <trkpt lat="-22.02797421254217624664306640625" lon="166.469946317374706268310546875">
        <ele>883.20001220703125</ele>
        <time>2016-08-12T19:46:50.000Z</time>
        <extensions>
          <ns3:TrackPointExtension>
            <ns3:atemp>14.0</ns3:atemp>
            <ns3:hr>131</ns3:hr>
          </ns3:TrackPointExtension>
        </extensions>
      </trkpt>
      <trkpt lat="-22.027950324118137359619140625" lon="166.46994866430759429931640625">
        <ele>883.5999755859375</ele>
        <time>2016-08-12T19:46:51.000Z</time>
        <extensions>
          <ns3:TrackPointExtension>
            <ns3:atemp>14.0</ns3:atemp>
            <ns3:hr>131</ns3:hr>
          </ns3:TrackPointExtension>
        </extensions>
      </trkpt>
      <trkpt lat="-22.0279243402183055877685546875" lon="166.46995428018271923065185546875">
        <ele>883.5999755859375</ele>
        <time>2016-08-12T19:46:52.000Z</time>
        <extensions>
          <ns3:TrackPointExtension>
            <ns3:atemp>14.0</ns3:atemp>
            <ns3:hr>131</ns3:hr>
          </ns3:TrackPointExtension>
        </extensions>
      </trkpt>
      <trkpt lat="-22.02789835631847381591796875" lon="166.46995997987687587738037109375">
        <ele>883.4000244140625</ele>
        <time>2016-08-12T19:46:53.000Z</time>
        <extensions>
          <ns3:TrackPointExtension>
            <ns3:atemp>14.0</ns3:atemp>
            <ns3:hr>132</ns3:hr>
          </ns3:TrackPointExtension>
        </extensions>
      </trkpt>
      <trkpt lat="-22.02787681482732295989990234375" lon="166.4699739776551723480224609375">
        <ele>883.5999755859375</ele>
        <time>2016-08-12T19:46:54.000Z</time>
        <extensions>
          <ns3:TrackPointExtension>
            <ns3:atemp>14.0</ns3:atemp>
            <ns3:hr>132</ns3:hr>
          </ns3:TrackPointExtension>
        </extensions>
      </trkpt>
      <trkpt lat="-22.0278562791645526885986328125" lon="166.4699920825660228729248046875">
        <ele>884</ele>
        <time>2016-08-12T19:46:55.000Z</time>
        <extensions>
          <ns3:TrackPointExtension>
            <ns3:atemp>14.0</ns3:atemp>
            <ns3:hr>132</ns3:hr>
          </ns3:TrackPointExtension>
        </extensions>
      </trkpt>
      <trkpt lat="-22.02784094028174877166748046875" lon="166.47001178003847599029541015625">
        <ele>884</ele>
        <time>2016-08-12T19:46:56.000Z</time>
        <extensions>
          <ns3:TrackPointExtension>
            <ns3:atemp>14.0</ns3:atemp>
            <ns3:hr>133</ns3:hr>
          </ns3:TrackPointExtension>
        </extensions>
      </trkpt>
      <trkpt lat="-22.0278294570744037628173828125" lon="166.47003323771059513092041015625">
        <ele>884</ele>
        <time>2016-08-12T19:46:57.000Z</time>
        <extensions>
          <ns3:TrackPointExtension>
            <ns3:atemp>14.0</ns3:atemp>
            <ns3:hr>133</ns3:hr>
          </ns3:TrackPointExtension>
        </extensions>
      </trkpt>
      <trkpt lat="-22.02781495638191699981689453125" lon="166.47005871869623661041259765625">
        <ele>884</ele>
        <time>2016-08-12T19:46:58.000Z</time>
        <extensions>
          <ns3:TrackPointExtension>
            <ns3:atemp>14.0</ns3:atemp>
            <ns3:hr>134</ns3:hr>
          </ns3:TrackPointExtension>
        </extensions>
      </trkpt>
      <trkpt lat="-22.0277959294617176055908203125" lon="166.47007933817803859710693359375">
        <ele>884.4000244140625</ele>
        <time>2016-08-12T19:46:59.000Z</time>
        <extensions>
          <ns3:TrackPointExtension>
            <ns3:atemp>14.0</ns3:atemp>
            <ns3:hr>134</ns3:hr>
          </ns3:TrackPointExtension>
        </extensions>
      </trkpt>
      <trkpt lat="-22.0277795009315013885498046875" lon="166.470098197460174560546875">
        <ele>884.4000244140625</ele>
        <time>2016-08-12T19:47:00.000Z</time>
        <extensions>
          <ns3:TrackPointExtension>
            <ns3:atemp>14.0</ns3:atemp>
            <ns3:hr>134</ns3:hr>
          </ns3:TrackPointExtension>
        </extensions>
      </trkpt>
      <trkpt lat="-22.02776022255420684814453125" lon="166.4701121114194393157958984375">
        <ele>884.4000244140625</ele>
        <time>2016-08-12T19:47:01.000Z</time>
        <extensions>
          <ns3:TrackPointExtension>
            <ns3:atemp>14.0</ns3:atemp>
            <ns3:hr>134</ns3:hr>
          </ns3:TrackPointExtension>
        </extensions>
      </trkpt>
      <trkpt lat="-22.02774119563400745391845703125" lon="166.47012828849256038665771484375">
        <ele>884.4000244140625</ele>
        <time>2016-08-12T19:47:02.000Z</time>
        <extensions>
          <ns3:TrackPointExtension>
            <ns3:atemp>14.0</ns3:atemp>
            <ns3:hr>135</ns3:hr>
          </ns3:TrackPointExtension>
        </extensions>
      </trkpt>
      <trkpt lat="-22.02772091142833232879638671875" lon="166.47014287300407886505126953125">
        <ele>885</ele>
        <time>2016-08-12T19:47:03.000Z</time>
        <extensions>
          <ns3:TrackPointExtension>
            <ns3:atemp>14.0</ns3:atemp>
            <ns3:hr>135</ns3:hr>
          </ns3:TrackPointExtension>
        </extensions>
      </trkpt>
      <trkpt lat="-22.02769660390913486480712890625" lon="166.4701478183269500732421875">
        <ele>885.4000244140625</ele>
        <time>2016-08-12T19:47:04.000Z</time>
        <extensions>
          <ns3:TrackPointExtension>
            <ns3:atemp>14.0</ns3:atemp>
            <ns3:hr>135</ns3:hr>
          </ns3:TrackPointExtension>
        </extensions>
      </trkpt>
      <trkpt lat="-22.02767564915120601654052734375" lon="166.47015728987753391265869140625">
        <ele>885.20001220703125</ele>
        <time>2016-08-12T19:47:05.000Z</time>
        <extensions>
          <ns3:TrackPointExtension>
            <ns3:atemp>14.0</ns3:atemp>
            <ns3:hr>135</ns3:hr>
          </ns3:TrackPointExtension>
        </extensions>
      </trkpt>
      <trkpt lat="-22.0276547782123088836669921875" lon="166.4701650850474834442138671875">
        <ele>885.20001220703125</ele>
        <time>2016-08-12T19:47:06.000Z</time>
        <extensions>
          <ns3:TrackPointExtension>
            <ns3:atemp>14.0</ns3:atemp>
            <ns3:hr>136</ns3:hr>
          </ns3:TrackPointExtension>
        </extensions>
      </trkpt>
      <trkpt lat="-22.02763684093952178955078125" lon="166.47017891518771648406982421875">
        <ele>885.4000244140625</ele>
        <time>2016-08-12T19:47:07.000Z</time>
        <extensions>
          <ns3:TrackPointExtension>
            <ns3:atemp>14.0</ns3:atemp>
            <ns3:hr>136</ns3:hr>
          </ns3:TrackPointExtension>
        </extensions>
      </trkpt>
      <trkpt lat="-22.02761764638125896453857421875" lon="166.4701949246227741241455078125">
        <ele>885.79998779296875</ele>
        <time>2016-08-12T19:47:08.000Z</time>
        <extensions>
          <ns3:TrackPointExtension>
            <ns3:atemp>14.0</ns3:atemp>
            <ns3:hr>137</ns3:hr>
          </ns3:TrackPointExtension>
        </extensions>
      </trkpt>
      <trkpt lat="-22.02760088257491588592529296875" lon="166.47021076641976833343505859375">
        <ele>885.79998779296875</ele>
        <time>2016-08-12T19:47:09.000Z</time>
        <extensions>
          <ns3:TrackPointExtension>
            <ns3:atemp>14.0</ns3:atemp>
            <ns3:hr>137</ns3:hr>
          </ns3:TrackPointExtension>
        </extensions>
      </trkpt>
      <trkpt lat="-22.02758252620697021484375" lon="166.47022266872227191925048828125">
        <ele>886</ele>
        <time>2016-08-12T19:47:10.000Z</time>
        <extensions>
          <ns3:TrackPointExtension>
            <ns3:atemp>14.0</ns3:atemp>
            <ns3:hr>137</ns3:hr>
          </ns3:TrackPointExtension>
        </extensions>
      </trkpt>
      <trkpt lat="-22.02756500802934169769287109375" lon="166.4702351577579975128173828125">
        <ele>886.20001220703125</ele>
        <time>2016-08-12T19:47:11.000Z</time>
        <extensions>
          <ns3:TrackPointExtension>
            <ns3:atemp>14.0</ns3:atemp>
            <ns3:hr>137</ns3:hr>
          </ns3:TrackPointExtension>
        </extensions>
      </trkpt>
      <trkpt lat="-22.02754992060363292694091796875" lon="166.470249406993389129638671875">
        <ele>886.20001220703125</ele>
        <time>2016-08-12T19:47:12.000Z</time>
        <extensions>
          <ns3:TrackPointExtension>
            <ns3:atemp>14.0</ns3:atemp>
            <ns3:hr>138</ns3:hr>
          </ns3:TrackPointExtension>
        </extensions>
      </trkpt>
      <trkpt lat="-22.0275317318737506866455078125" lon="166.470260135829448699951171875">
        <ele>886.20001220703125</ele>
        <time>2016-08-12T19:47:13.000Z</time>
        <extensions>
          <ns3:TrackPointExtension>
            <ns3:atemp>14.0</ns3:atemp>
            <ns3:hr>138</ns3:hr>
          </ns3:TrackPointExtension>
        </extensions>
      </trkpt>
      <trkpt lat="-22.02751153148710727691650390625" lon="166.47026441060006618499755859375">
        <ele>886.5999755859375</ele>
        <time>2016-08-12T19:47:14.000Z</time>
        <extensions>
          <ns3:TrackPointExtension>
            <ns3:atemp>14.0</ns3:atemp>
            <ns3:hr>138</ns3:hr>
          </ns3:TrackPointExtension>
        </extensions>
      </trkpt>
      <trkpt lat="-22.0274901576340198516845703125" lon="166.47026650607585906982421875">
        <ele>886.79998779296875</ele>
        <time>2016-08-12T19:47:15.000Z</time>
        <extensions>
          <ns3:TrackPointExtension>
            <ns3:atemp>14.0</ns3:atemp>
            <ns3:hr>138</ns3:hr>
          </ns3:TrackPointExtension>
        </extensions>
      </trkpt>
      <trkpt lat="-22.02746786177158355712890625" lon="166.47027111612260341644287109375">
        <ele>886.79998779296875</ele>
        <time>2016-08-12T19:47:16.000Z</time>
        <extensions>
          <ns3:TrackPointExtension>
            <ns3:atemp>14.0</ns3:atemp>
            <ns3:hr>138</ns3:hr>
          </ns3:TrackPointExtension>
        </extensions>
      </trkpt>
      <trkpt lat="-22.02744648791849613189697265625" lon="166.4702743850648403167724609375">
        <ele>887</ele>
        <time>2016-08-12T19:47:17.000Z</time>
        <extensions>
          <ns3:TrackPointExtension>
            <ns3:atemp>14.0</ns3:atemp>
            <ns3:hr>139</ns3:hr>
          </ns3:TrackPointExtension>
        </extensions>
      </trkpt>
      <trkpt lat="-22.02742570079863071441650390625" lon="166.47027723491191864013671875">
        <ele>887.4000244140625</ele>
        <time>2016-08-12T19:47:18.000Z</time>
        <extensions>
          <ns3:TrackPointExtension>
            <ns3:atemp>14.0</ns3:atemp>
            <ns3:hr>139</ns3:hr>
          </ns3:TrackPointExtension>
        </extensions>
      </trkpt>
      <trkpt lat="-22.027402818202972412109375" lon="166.47027731873095035552978515625">
        <ele>887.20001220703125</ele>
        <time>2016-08-12T19:47:19.000Z</time>
        <extensions>
          <ns3:TrackPointExtension>
            <ns3:atemp>14.0</ns3:atemp>
            <ns3:hr>139</ns3:hr>
          </ns3:TrackPointExtension>
        </extensions>
      </trkpt>
      <trkpt lat="-22.027382366359233856201171875" lon="166.4702831022441387176513671875">
        <ele>887.4000244140625</ele>
        <time>2016-08-12T19:47:20.000Z</time>
        <extensions>
          <ns3:TrackPointExtension>
            <ns3:atemp>14.0</ns3:atemp>
            <ns3:hr>140</ns3:hr>
          </ns3:TrackPointExtension>
        </extensions>
      </trkpt>
      <trkpt lat="-22.0273624174296855926513671875" lon="166.47029726766049861907958984375">
        <ele>887.79998779296875</ele>
        <time>2016-08-12T19:47:21.000Z</time>
        <extensions>
          <ns3:TrackPointExtension>
            <ns3:atemp>14.0</ns3:atemp>
            <ns3:hr>140</ns3:hr>
          </ns3:TrackPointExtension>
        </extensions>
      </trkpt>
      <trkpt lat="-22.0273412950336933135986328125" lon="166.4703072421252727508544921875">
        <ele>888</ele>
        <time>2016-08-12T19:47:22.000Z</time>
        <extensions>
          <ns3:TrackPointExtension>
            <ns3:atemp>14.0</ns3:atemp>
            <ns3:hr>140</ns3:hr>
          </ns3:TrackPointExtension>
        </extensions>
      </trkpt>
      <trkpt lat="-22.02732193283736705780029296875" lon="166.47031570784747600555419921875">
        <ele>888.20001220703125</ele>
        <time>2016-08-12T19:47:23.000Z</time>
        <extensions>
          <ns3:TrackPointExtension>
            <ns3:atemp>14.0</ns3:atemp>
            <ns3:hr>140</ns3:hr>
          </ns3:TrackPointExtension>
        </extensions>
      </trkpt>
      <trkpt lat="-22.027301900088787078857421875" lon="166.47032291628420352935791015625">
        <ele>888.4000244140625</ele>
        <time>2016-08-12T19:47:24.000Z</time>
        <extensions>
          <ns3:TrackPointExtension>
            <ns3:atemp>14.0</ns3:atemp>
            <ns3:hr>140</ns3:hr>
          </ns3:TrackPointExtension>
        </extensions>
      </trkpt>
      <trkpt lat="-22.02728555537760257720947265625" lon="166.4703333936631679534912109375">
        <ele>888.5999755859375</ele>
        <time>2016-08-12T19:47:25.000Z</time>
        <extensions>
          <ns3:TrackPointExtension>
            <ns3:atemp>14.0</ns3:atemp>
            <ns3:hr>141</ns3:hr>
          </ns3:TrackPointExtension>
        </extensions>
      </trkpt>
      <trkpt lat="-22.02726644463837146759033203125" lon="166.47034236229956150054931640625">
        <ele>888.4000244140625</ele>
        <time>2016-08-12T19:47:26.000Z</time>
        <extensions>
          <ns3:TrackPointExtension>
            <ns3:atemp>14.0</ns3:atemp>
            <ns3:hr>141</ns3:hr>
          </ns3:TrackPointExtension>
        </extensions>
      </trkpt>
      <trkpt lat="-22.02724766917526721954345703125" lon="166.47035594098269939422607421875">
        <ele>888.4000244140625</ele>
        <time>2016-08-12T19:47:27.000Z</time>
        <extensions>
          <ns3:TrackPointExtension>
            <ns3:atemp>14.0</ns3:atemp>
            <ns3:hr>141</ns3:hr>
          </ns3:TrackPointExtension>
        </extensions>
      </trkpt>
      <trkpt lat="-22.027228809893131256103515625" lon="166.47037086077034473419189453125">
        <ele>888.5999755859375</ele>
        <time>2016-08-12T19:47:28.000Z</time>
        <extensions>
          <ns3:TrackPointExtension>
            <ns3:atemp>14.0</ns3:atemp>
            <ns3:hr>141</ns3:hr>
          </ns3:TrackPointExtension>
        </extensions>
      </trkpt>
      <trkpt lat="-22.02720902860164642333984375" lon="166.47038628347218036651611328125">
        <ele>888.5999755859375</ele>
        <time>2016-08-12T19:47:29.000Z</time>
        <extensions>
          <ns3:TrackPointExtension>
            <ns3:atemp>14.0</ns3:atemp>
            <ns3:hr>141</ns3:hr>
          </ns3:TrackPointExtension>
        </extensions>
      </trkpt>
      <trkpt lat="-22.02718899585306644439697265625" lon="166.47040472365915775299072265625">
        <ele>888.4000244140625</ele>
        <time>2016-08-12T19:47:30.000Z</time>
        <extensions>
          <ns3:TrackPointExtension>
            <ns3:atemp>14.0</ns3:atemp>
            <ns3:hr>141</ns3:hr>
          </ns3:TrackPointExtension>
        </extensions>
      </trkpt>
      <trkpt lat="-22.0271666161715984344482421875" lon="166.47041427902877330780029296875">
        <ele>888.5999755859375</ele>
        <time>2016-08-12T19:47:31.000Z</time>
        <extensions>
          <ns3:TrackPointExtension>
            <ns3:atemp>14.0</ns3:atemp>
            <ns3:hr>142</ns3:hr>
          </ns3:TrackPointExtension>
        </extensions>
      </trkpt>
      <trkpt lat="-22.0271431468427181243896484375" lon="166.4704202301800251007080078125">
        <ele>888.5999755859375</ele>
        <time>2016-08-12T19:47:32.000Z</time>
        <extensions>
          <ns3:TrackPointExtension>
            <ns3:atemp>14.0</ns3:atemp>
            <ns3:hr>141</ns3:hr>
          </ns3:TrackPointExtension>
        </extensions>
      </trkpt>
      <trkpt lat="-22.02712261117994785308837890625" lon="166.47043104283511638641357421875">
        <ele>888.5999755859375</ele>
        <time>2016-08-12T19:47:33.000Z</time>
        <extensions>
          <ns3:TrackPointExtension>
            <ns3:atemp>14.0</ns3:atemp>
            <ns3:hr>142</ns3:hr>
          </ns3:TrackPointExtension>
        </extensions>
      </trkpt>
      <trkpt lat="-22.02710484154522418975830078125" lon="166.47044076584279537200927734375">
        <ele>888.4000244140625</ele>
        <time>2016-08-12T19:47:34.000Z</time>
        <extensions>
          <ns3:TrackPointExtension>
            <ns3:atemp>14.0</ns3:atemp>
            <ns3:hr>142</ns3:hr>
          </ns3:TrackPointExtension>
        </extensions>
      </trkpt>
      <trkpt lat="-22.02708556316792964935302734375" lon="166.4704549312591552734375">
        <ele>888</ele>
        <time>2016-08-12T19:47:35.000Z</time>
        <extensions>
          <ns3:TrackPointExtension>
            <ns3:atemp>14.0</ns3:atemp>
            <ns3:hr>142</ns3:hr>
          </ns3:TrackPointExtension>
        </extensions>
      </trkpt>
      <trkpt lat="-22.02706796117126941680908203125" lon="166.470472700893878936767578125">
        <ele>888</ele>
        <time>2016-08-12T19:47:36.000Z</time>
        <extensions>
          <ns3:TrackPointExtension>
            <ns3:atemp>14.0</ns3:atemp>
            <ns3:hr>141</ns3:hr>
          </ns3:TrackPointExtension>
        </extensions>
      </trkpt>
      <trkpt lat="-22.02705270610749721527099609375" lon="166.47048586048185825347900390625">
        <ele>887.79998779296875</ele>
        <time>2016-08-12T19:47:37.000Z</time>
        <extensions>
          <ns3:TrackPointExtension>
            <ns3:atemp>14.0</ns3:atemp>
            <ns3:hr>142</ns3:hr>
          </ns3:TrackPointExtension>
        </extensions>
      </trkpt>
      <trkpt lat="-22.02703543938696384429931640625" lon="166.470504887402057647705078125">
        <ele>887.5999755859375</ele>
        <time>2016-08-12T19:47:38.000Z</time>
        <extensions>
          <ns3:TrackPointExtension>
            <ns3:atemp>14.0</ns3:atemp>
            <ns3:hr>141</ns3:hr>
          </ns3:TrackPointExtension>
        </extensions>
      </trkpt>
      <trkpt lat="-22.02701699919998645782470703125" lon="166.47052441723644733428955078125">
        <ele>887.5999755859375</ele>
        <time>2016-08-12T19:47:39.000Z</time>
        <extensions>
          <ns3:TrackPointExtension>
            <ns3:atemp>14.0</ns3:atemp>
            <ns3:hr>141</ns3:hr>
          </ns3:TrackPointExtension>
        </extensions>
      </trkpt>
      <trkpt lat="-22.026996798813343048095703125" lon="166.4705312065780162811279296875">
        <ele>887.4000244140625</ele>
        <time>2016-08-12T19:47:40.000Z</time>
        <extensions>
          <ns3:TrackPointExtension>
            <ns3:atemp>14.0</ns3:atemp>
            <ns3:hr>141</ns3:hr>
          </ns3:TrackPointExtension>
        </extensions>
      </trkpt>
      <trkpt lat="-22.02697475440800189971923828125" lon="166.47053950466215610504150390625">
        <ele>887.20001220703125</ele>
        <time>2016-08-12T19:47:41.000Z</time>
        <extensions>
          <ns3:TrackPointExtension>
            <ns3:atemp>14.0</ns3:atemp>
            <ns3:hr>141</ns3:hr>
          </ns3:TrackPointExtension>
        </extensions>
      </trkpt>
      <trkpt lat="-22.02695463784039020538330078125" lon="166.470555178821086883544921875">
        <ele>887</ele>
        <time>2016-08-12T19:47:42.000Z</time>
        <extensions>
          <ns3:TrackPointExtension>
            <ns3:atemp>14.0</ns3:atemp>
            <ns3:hr>141</ns3:hr>
          </ns3:TrackPointExtension>
        </extensions>
      </trkpt>
      <trkpt lat="-22.02693150378763675689697265625" lon="166.47056146524846553802490234375">
        <ele>887.20001220703125</ele>
        <time>2016-08-12T19:47:43.000Z</time>
        <extensions>
          <ns3:TrackPointExtension>
            <ns3:atemp>14.0</ns3:atemp>
            <ns3:hr>141</ns3:hr>
          </ns3:TrackPointExtension>
        </extensions>
      </trkpt>
      <trkpt lat="-22.02690853737294673919677734375" lon="166.47056817077100276947021484375">
        <ele>887</ele>
        <time>2016-08-12T19:47:44.000Z</time>
        <extensions>
          <ns3:TrackPointExtension>
            <ns3:atemp>14.0</ns3:atemp>
            <ns3:hr>141</ns3:hr>
          </ns3:TrackPointExtension>
        </extensions>
      </trkpt>
      <trkpt lat="-22.02688557095825672149658203125" lon="166.47057403810322284698486328125">
        <ele>886.5999755859375</ele>
        <time>2016-08-12T19:47:45.000Z</time>
        <extensions>
          <ns3:TrackPointExtension>
            <ns3:atemp>14.0</ns3:atemp>
            <ns3:hr>140</ns3:hr>
          </ns3:TrackPointExtension>
        </extensions>
      </trkpt>
      <trkpt lat="-22.02686369419097900390625" lon="166.4705825038254261016845703125">
        <ele>886.5999755859375</ele>
        <time>2016-08-12T19:47:46.000Z</time>
        <extensions>
          <ns3:TrackPointExtension>
            <ns3:atemp>14.0</ns3:atemp>
            <ns3:hr>140</ns3:hr>
          </ns3:TrackPointExtension>
        </extensions>
      </trkpt>
      <trkpt lat="-22.0268393866717815399169921875" lon="166.47058568894863128662109375">
        <ele>886.4000244140625</ele>
        <time>2016-08-12T19:47:47.000Z</time>
        <extensions>
          <ns3:TrackPointExtension>
            <ns3:atemp>14.0</ns3:atemp>
            <ns3:hr>140</ns3:hr>
          </ns3:TrackPointExtension>
        </extensions>
      </trkpt>
      <trkpt lat="-22.02681549824774265289306640625" lon="166.47058971226215362548828125">
        <ele>886.20001220703125</ele>
        <time>2016-08-12T19:47:48.000Z</time>
        <extensions>
          <ns3:TrackPointExtension>
            <ns3:atemp>14.0</ns3:atemp>
            <ns3:hr>140</ns3:hr>
          </ns3:TrackPointExtension>
        </extensions>
      </trkpt>
      <trkpt lat="-22.026791609823703765869140625" lon="166.4705957472324371337890625">
        <ele>886</ele>
        <time>2016-08-12T19:47:49.000Z</time>
        <extensions>
          <ns3:TrackPointExtension>
            <ns3:atemp>14.0</ns3:atemp>
            <ns3:hr>140</ns3:hr>
          </ns3:TrackPointExtension>
        </extensions>
      </trkpt>
      <trkpt lat="-22.0267652906477451324462890625" lon="166.4705942384898662567138671875">
        <ele>886</ele>
        <time>2016-08-12T19:47:50.000Z</time>
        <extensions>
          <ns3:TrackPointExtension>
            <ns3:atemp>14.0</ns3:atemp>
            <ns3:hr>139</ns3:hr>
          </ns3:TrackPointExtension>
        </extensions>
      </trkpt>
      <trkpt lat="-22.0267428271472454071044921875" lon="166.47059549577534198760986328125">
        <ele>885.79998779296875</ele>
        <time>2016-08-12T19:47:51.000Z</time>
        <extensions>
          <ns3:TrackPointExtension>
            <ns3:atemp>14.0</ns3:atemp>
            <ns3:hr>139</ns3:hr>
          </ns3:TrackPointExtension>
        </extensions>
      </trkpt>
      <trkpt lat="-22.026717849075794219970703125" lon="166.4705982618033885955810546875">
        <ele>885.5999755859375</ele>
        <time>2016-08-12T19:47:52.000Z</time>
        <extensions>
          <ns3:TrackPointExtension>
            <ns3:atemp>14.0</ns3:atemp>
            <ns3:hr>139</ns3:hr>
          </ns3:TrackPointExtension>
        </extensions>
      </trkpt>
      <trkpt lat="-22.0266906917095184326171875" lon="166.47060102783143520355224609375">
        <ele>885.79998779296875</ele>
        <time>2016-08-12T19:47:53.000Z</time>
        <extensions>
          <ns3:TrackPointExtension>
            <ns3:atemp>14.0</ns3:atemp>
            <ns3:hr>139</ns3:hr>
          </ns3:TrackPointExtension>
        </extensions>
      </trkpt>
      <trkpt lat="-22.02666495926678180694580078125" lon="166.4706089906394481658935546875">
        <ele>885.79998779296875</ele>
        <time>2016-08-12T19:47:54.000Z</time>
        <extensions>
          <ns3:TrackPointExtension>
            <ns3:atemp>14.0</ns3:atemp>
            <ns3:hr>138</ns3:hr>
          </ns3:TrackPointExtension>
        </extensions>
      </trkpt>
      <trkpt lat="-22.0266395621001720428466796875" lon="166.47061242721974849700927734375">
        <ele>885.5999755859375</ele>
        <time>2016-08-12T19:47:55.000Z</time>
        <extensions>
          <ns3:TrackPointExtension>
            <ns3:atemp>14.0</ns3:atemp>
            <ns3:hr>138</ns3:hr>
          </ns3:TrackPointExtension>
        </extensions>
      </trkpt>
      <trkpt lat="-22.02661382965743541717529296875" lon="166.470610164105892181396484375">
        <ele>885.5999755859375</ele>
        <time>2016-08-12T19:47:56.000Z</time>
        <extensions>
          <ns3:TrackPointExtension>
            <ns3:atemp>14.0</ns3:atemp>
            <ns3:hr>138</ns3:hr>
          </ns3:TrackPointExtension>
        </extensions>
      </trkpt>
      <trkpt lat="-22.02658918686211109161376953125" lon="166.47061477415263652801513671875">
        <ele>885.5999755859375</ele>
        <time>2016-08-12T19:47:57.000Z</time>
        <extensions>
          <ns3:TrackPointExtension>
            <ns3:atemp>14.0</ns3:atemp>
            <ns3:hr>137</ns3:hr>
          </ns3:TrackPointExtension>
        </extensions>
      </trkpt>
      <trkpt lat="-22.0265627838671207427978515625" lon="166.470612846314907073974609375">
        <ele>885.4000244140625</ele>
        <time>2016-08-12T19:47:58.000Z</time>
        <extensions>
          <ns3:TrackPointExtension>
            <ns3:atemp>14.0</ns3:atemp>
            <ns3:hr>137</ns3:hr>
          </ns3:TrackPointExtension>
        </extensions>
      </trkpt>
      <trkpt lat="-22.0265352912247180938720703125" lon="166.47061116993427276611328125">
        <ele>885.20001220703125</ele>
        <time>2016-08-12T19:47:59.000Z</time>
        <extensions>
          <ns3:TrackPointExtension>
            <ns3:atemp>14.0</ns3:atemp>
            <ns3:hr>136</ns3:hr>
          </ns3:TrackPointExtension>
        </extensions>
      </trkpt>
      <trkpt lat="-22.02651157043874263763427734375" lon="166.47061460651457309722900390625">
        <ele>885.4000244140625</ele>
        <time>2016-08-12T19:48:00.000Z</time>
        <extensions>
          <ns3:TrackPointExtension>
            <ns3:atemp>14.0</ns3:atemp>
            <ns3:hr>136</ns3:hr>
          </ns3:TrackPointExtension>
        </extensions>
      </trkpt>
      <trkpt lat="-22.02648483216762542724609375" lon="166.47061360068619251251220703125">
        <ele>885.4000244140625</ele>
        <time>2016-08-12T19:48:01.000Z</time>
        <extensions>
          <ns3:TrackPointExtension>
            <ns3:atemp>14.0</ns3:atemp>
            <ns3:hr>135</ns3:hr>
          </ns3:TrackPointExtension>
        </extensions>
      </trkpt>
      <trkpt lat="-22.0264575071632862091064453125" lon="166.47061930038034915924072265625">
        <ele>885</ele>
        <time>2016-08-12T19:48:02.000Z</time>
        <extensions>
          <ns3:TrackPointExtension>
            <ns3:atemp>14.0</ns3:atemp>
            <ns3:hr>135</ns3:hr>
          </ns3:TrackPointExtension>
        </extensions>
      </trkpt>
      <trkpt lat="-22.02643227763473987579345703125" lon="166.47062516771256923675537109375">
        <ele>885</ele>
        <time>2016-08-12T19:48:03.000Z</time>
        <extensions>
          <ns3:TrackPointExtension>
            <ns3:atemp>14.0</ns3:atemp>
            <ns3:hr>135</ns3:hr>
          </ns3:TrackPointExtension>
        </extensions>
      </trkpt>
      <trkpt lat="-22.0264085568487644195556640625" lon="166.4706265926361083984375">
        <ele>885.20001220703125</ele>
        <time>2016-08-12T19:48:04.000Z</time>
        <extensions>
          <ns3:TrackPointExtension>
            <ns3:atemp>14.0</ns3:atemp>
            <ns3:hr>135</ns3:hr>
          </ns3:TrackPointExtension>
        </extensions>
      </trkpt>
      <trkpt lat="-22.026388607919216156005859375" lon="166.47063195705413818359375">
        <ele>885</ele>
        <time>2016-08-12T19:48:05.000Z</time>
        <extensions>
          <ns3:TrackPointExtension>
            <ns3:atemp>14.0</ns3:atemp>
            <ns3:hr>134</ns3:hr>
          </ns3:TrackPointExtension>
        </extensions>
      </trkpt>
      <trkpt lat="-22.0263643004000186920166015625" lon="166.47063707001507282257080078125">
        <ele>884.79998779296875</ele>
        <time>2016-08-12T19:48:06.000Z</time>
        <extensions>
          <ns3:TrackPointExtension>
            <ns3:atemp>14.0</ns3:atemp>
            <ns3:hr>134</ns3:hr>
          </ns3:TrackPointExtension>
        </extensions>
      </trkpt>
      <trkpt lat="-22.0263381488621234893798828125" lon="166.47063891403377056121826171875">
        <ele>884.79998779296875</ele>
        <time>2016-08-12T19:48:07.000Z</time>
        <extensions>
          <ns3:TrackPointExtension>
            <ns3:atemp>14.0</ns3:atemp>
            <ns3:hr>133</ns3:hr>
          </ns3:TrackPointExtension>
        </extensions>
      </trkpt>
      <trkpt lat="-22.02631074003875255584716796875" lon="166.470644362270832061767578125">
        <ele>884.79998779296875</ele>
        <time>2016-08-12T19:48:08.000Z</time>
        <extensions>
          <ns3:TrackPointExtension>
            <ns3:atemp>14.0</ns3:atemp>
            <ns3:hr>133</ns3:hr>
          </ns3:TrackPointExtension>
        </extensions>
      </trkpt>
      <trkpt lat="-22.02628676779568195343017578125" lon="166.47065408527851104736328125">
        <ele>884.5999755859375</ele>
        <time>2016-08-12T19:48:09.000Z</time>
        <extensions>
          <ns3:TrackPointExtension>
            <ns3:atemp>14.0</ns3:atemp>
            <ns3:hr>132</ns3:hr>
          </ns3:TrackPointExtension>
        </extensions>
      </trkpt>
      <trkpt lat="-22.02626531012356281280517578125" lon="166.47066120989620685577392578125">
        <ele>884.5999755859375</ele>
        <time>2016-08-12T19:48:10.000Z</time>
        <extensions>
          <ns3:TrackPointExtension>
            <ns3:atemp>14.0</ns3:atemp>
            <ns3:hr>132</ns3:hr>
          </ns3:TrackPointExtension>
        </extensions>
      </trkpt>
      <trkpt lat="-22.026243768632411956787109375" lon="166.47066255100071430206298828125">
        <ele>884.5999755859375</ele>
        <time>2016-08-12T19:48:11.000Z</time>
        <extensions>
          <ns3:TrackPointExtension>
            <ns3:atemp>14.0</ns3:atemp>
            <ns3:hr>132</ns3:hr>
          </ns3:TrackPointExtension>
        </extensions>
      </trkpt>
      <trkpt lat="-22.02622122131288051605224609375" lon="166.4706606231629848480224609375">
        <ele>884.4000244140625</ele>
        <time>2016-08-12T19:48:12.000Z</time>
        <extensions>
          <ns3:TrackPointExtension>
            <ns3:atemp>14.0</ns3:atemp>
            <ns3:hr>131</ns3:hr>
          </ns3:TrackPointExtension>
        </extensions>
      </trkpt>
      <trkpt lat="-22.02620185911655426025390625" lon="166.47065819241106510162353515625">
        <ele>884.20001220703125</ele>
        <time>2016-08-12T19:48:13.000Z</time>
        <extensions>
          <ns3:TrackPointExtension>
            <ns3:atemp>14.0</ns3:atemp>
            <ns3:hr>131</ns3:hr>
          </ns3:TrackPointExtension>
        </extensions>
      </trkpt>
      <trkpt lat="-22.0261909626424312591552734375" lon="166.4706601202487945556640625">
        <ele>884.4000244140625</ele>
        <time>2016-08-12T19:48:14.000Z</time>
        <extensions>
          <ns3:TrackPointExtension>
            <ns3:atemp>14.0</ns3:atemp>
            <ns3:hr>130</ns3:hr>
          </ns3:TrackPointExtension>
        </extensions>
      </trkpt>
      <trkpt lat="-22.0261852629482746124267578125" lon="166.47067545913159847259521484375">
        <ele>884.5999755859375</ele>
        <time>2016-08-12T19:48:15.000Z</time>
        <extensions>
          <ns3:TrackPointExtension>
            <ns3:atemp>14.0</ns3:atemp>
            <ns3:hr>130</ns3:hr>
          </ns3:TrackPointExtension>
        </extensions>
      </trkpt>
      <trkpt lat="-22.0261852629482746124267578125" lon="166.47069473750889301300048828125">
        <ele>884.5999755859375</ele>
        <time>2016-08-12T19:48:16.000Z</time>
        <extensions>
          <ns3:TrackPointExtension>
            <ns3:atemp>14.0</ns3:atemp>
            <ns3:hr>129</ns3:hr>
          </ns3:TrackPointExtension>
        </extensions>
      </trkpt>
      <trkpt lat="-22.0261798985302448272705078125" lon="166.4707042090594768524169921875">
        <ele>884.5999755859375</ele>
        <time>2016-08-12T19:48:17.000Z</time>
        <extensions>
          <ns3:TrackPointExtension>
            <ns3:atemp>14.0</ns3:atemp>
            <ns3:hr>129</ns3:hr>
          </ns3:TrackPointExtension>
        </extensions>
      </trkpt>
      <trkpt lat="-22.02617646194994449615478515625" lon="166.47071150131523609161376953125">
        <ele>884.5999755859375</ele>
        <time>2016-08-12T19:48:18.000Z</time>
        <extensions>
          <ns3:TrackPointExtension>
            <ns3:atemp>14.0</ns3:atemp>
            <ns3:hr>128</ns3:hr>
          </ns3:TrackPointExtension>
        </extensions>
      </trkpt>
      <trkpt lat="-22.0261708460748195648193359375" lon="166.47072072140872478485107421875">
        <ele>884.4000244140625</ele>
        <time>2016-08-12T19:48:19.000Z</time>
        <extensions>
          <ns3:TrackPointExtension>
            <ns3:atemp>14.0</ns3:atemp>
            <ns3:hr>128</ns3:hr>
          </ns3:TrackPointExtension>
        </extensions>
      </trkpt>
      <trkpt lat="-22.0261651463806629180908203125" lon="166.470732875168323516845703125">
        <ele>884.4000244140625</ele>
        <time>2016-08-12T19:48:20.000Z</time>
        <extensions>
          <ns3:TrackPointExtension>
            <ns3:atemp>14.0</ns3:atemp>
            <ns3:hr>127</ns3:hr>
          </ns3:TrackPointExtension>
        </extensions>
      </trkpt>
      <trkpt lat="-22.0261597819626331329345703125" lon="166.47074469365179538726806640625">
        <ele>884.4000244140625</ele>
        <time>2016-08-12T19:48:21.000Z</time>
        <extensions>
          <ns3:TrackPointExtension>
            <ns3:atemp>14.0</ns3:atemp>
            <ns3:hr>127</ns3:hr>
          </ns3:TrackPointExtension>
        </extensions>
      </trkpt>
      <trkpt lat="-22.02615316025912761688232421875" lon="166.47075659595429897308349609375">
        <ele>884.4000244140625</ele>
        <time>2016-08-12T19:48:22.000Z</time>
        <extensions>
          <ns3:TrackPointExtension>
            <ns3:atemp>14.0</ns3:atemp>
            <ns3:hr>126</ns3:hr>
          </ns3:TrackPointExtension>
        </extensions>
      </trkpt>
      <trkpt lat="-22.02614075504243373870849609375" lon="166.4707749523222446441650390625">
        <ele>884.4000244140625</ele>
        <time>2016-08-12T19:48:23.000Z</time>
        <extensions>
          <ns3:TrackPointExtension>
            <ns3:atemp>14.0</ns3:atemp>
            <ns3:hr>126</ns3:hr>
          </ns3:TrackPointExtension>
        </extensions>
      </trkpt>
      <trkpt lat="-22.0261296071112155914306640625" lon="166.4707954041659832000732421875">
        <ele>884.20001220703125</ele>
        <time>2016-08-12T19:48:24.000Z</time>
        <extensions>
          <ns3:TrackPointExtension>
            <ns3:atemp>14.0</ns3:atemp>
            <ns3:hr>127</ns3:hr>
          </ns3:TrackPointExtension>
        </extensions>
      </trkpt>
      <trkpt lat="-22.0261166989803314208984375" lon="166.4708111621439456939697265625">
        <ele>884</ele>
        <time>2016-08-12T19:48:25.000Z</time>
        <extensions>
          <ns3:TrackPointExtension>
            <ns3:atemp>14.0</ns3:atemp>
            <ns3:hr>127</ns3:hr>
          </ns3:TrackPointExtension>
        </extensions>
      </trkpt>
      <trkpt lat="-22.0260950736701488494873046875" lon="166.47080705501139163970947265625">
        <ele>884</ele>
        <time>2016-08-12T19:48:26.000Z</time>
        <extensions>
          <ns3:TrackPointExtension>
            <ns3:atemp>14.0</ns3:atemp>
            <ns3:hr>127</ns3:hr>
          </ns3:TrackPointExtension>
        </extensions>
      </trkpt>
      <trkpt lat="-22.02607252635061740875244140625" lon="166.47080956958234310150146484375">
        <ele>884</ele>
        <time>2016-08-12T19:48:27.000Z</time>
        <extensions>
          <ns3:TrackPointExtension>
            <ns3:atemp>14.0</ns3:atemp>
            <ns3:hr>128</ns3:hr>
          </ns3:TrackPointExtension>
        </extensions>
      </trkpt>
      <trkpt lat="-22.026050984859466552734375" lon="166.47080965340137481689453125">
        <ele>884</ele>
        <time>2016-08-12T19:48:28.000Z</time>
        <extensions>
          <ns3:TrackPointExtension>
            <ns3:atemp>14.0</ns3:atemp>
            <ns3:hr>128</ns3:hr>
          </ns3:TrackPointExtension>
        </extensions>
      </trkpt>
      <trkpt lat="-22.0260313712060451507568359375" lon="166.47080152295529842376708984375">
        <ele>884.20001220703125</ele>
        <time>2016-08-12T19:48:29.000Z</time>
        <extensions>
          <ns3:TrackPointExtension>
            <ns3:atemp>14.0</ns3:atemp>
            <ns3:hr>128</ns3:hr>
          </ns3:TrackPointExtension>
        </extensions>
      </trkpt>
      <trkpt lat="-22.02601410448551177978515625" lon="166.47079632617533206939697265625">
        <ele>884</ele>
        <time>2016-08-12T19:48:30.000Z</time>
        <extensions>
          <ns3:TrackPointExtension>
            <ns3:atemp>14.0</ns3:atemp>
            <ns3:hr>128</ns3:hr>
          </ns3:TrackPointExtension>
        </extensions>
      </trkpt>
      <trkpt lat="-22.02599658630788326263427734375" lon="166.47079414688050746917724609375">
        <ele>883.79998779296875</ele>
        <time>2016-08-12T19:48:31.000Z</time>
        <extensions>
          <ns3:TrackPointExtension>
            <ns3:atemp>14.0</ns3:atemp>
            <ns3:hr>128</ns3:hr>
          </ns3:TrackPointExtension>
        </extensions>
      </trkpt>
      <trkpt lat="-22.0259783975780010223388671875" lon="166.47079247049987316131591796875">
        <ele>883.5999755859375</ele>
        <time>2016-08-12T19:48:32.000Z</time>
        <extensions>
          <ns3:TrackPointExtension>
            <ns3:atemp>14.0</ns3:atemp>
            <ns3:hr>128</ns3:hr>
          </ns3:TrackPointExtension>
        </extensions>
      </trkpt>
      <trkpt lat="-22.02595836482942104339599609375" lon="166.470789201557636260986328125">
        <ele>883.5999755859375</ele>
        <time>2016-08-12T19:48:33.000Z</time>
        <extensions>
          <ns3:TrackPointExtension>
            <ns3:atemp>14.0</ns3:atemp>
            <ns3:hr>128</ns3:hr>
          </ns3:TrackPointExtension>
        </extensions>
      </trkpt>
      <trkpt lat="-22.0259364880621433258056640625" lon="166.47077587433159351348876953125">
        <ele>883.20001220703125</ele>
        <time>2016-08-12T19:48:34.000Z</time>
        <extensions>
          <ns3:TrackPointExtension>
            <ns3:atemp>14.0</ns3:atemp>
            <ns3:hr>129</ns3:hr>
          </ns3:TrackPointExtension>
        </extensions>
      </trkpt>
      <trkpt lat="-22.0259187184274196624755859375" lon="166.47076933644711971282958984375">
        <ele>883.20001220703125</ele>
        <time>2016-08-12T19:48:35.000Z</time>
        <extensions>
          <ns3:TrackPointExtension>
            <ns3:atemp>14.0</ns3:atemp>
            <ns3:hr>129</ns3:hr>
          </ns3:TrackPointExtension>
        </extensions>
      </trkpt>
      <trkpt lat="-22.02590505592525005340576171875" lon="166.470763720571994781494140625">
        <ele>883.20001220703125</ele>
        <time>2016-08-12T19:48:36.000Z</time>
        <extensions>
          <ns3:TrackPointExtension>
            <ns3:atemp>14.0</ns3:atemp>
            <ns3:hr>129</ns3:hr>
          </ns3:TrackPointExtension>
        </extensions>
      </trkpt>
      <trkpt lat="-22.02588896267116069793701171875" lon="166.47076447494328022003173828125">
        <ele>883</ele>
        <time>2016-08-12T19:48:37.000Z</time>
        <extensions>
          <ns3:TrackPointExtension>
            <ns3:atemp>14.0</ns3:atemp>
            <ns3:hr>129</ns3:hr>
          </ns3:TrackPointExtension>
        </extensions>
      </trkpt>
      <trkpt lat="-22.02587136067450046539306640625" lon="166.470760367810726165771484375">
        <ele>882.5999755859375</ele>
        <time>2016-08-12T19:48:38.000Z</time>
        <extensions>
          <ns3:TrackPointExtension>
            <ns3:atemp>14.0</ns3:atemp>
            <ns3:hr>129</ns3:hr>
          </ns3:TrackPointExtension>
        </extensions>
      </trkpt>
      <trkpt lat="-22.02584839425981044769287109375" lon="166.47076363675296306610107421875">
        <ele>882.79998779296875</ele>
        <time>2016-08-12T19:48:39.000Z</time>
        <extensions>
          <ns3:TrackPointExtension>
            <ns3:atemp>14.0</ns3:atemp>
            <ns3:hr>130</ns3:hr>
          </ns3:TrackPointExtension>
        </extensions>
      </trkpt>
      <trkpt lat="-22.0258281938731670379638671875" lon="166.4707632176578044891357421875">
        <ele>882.79998779296875</ele>
        <time>2016-08-12T19:48:40.000Z</time>
        <extensions>
          <ns3:TrackPointExtension>
            <ns3:atemp>14.0</ns3:atemp>
            <ns3:hr>129</ns3:hr>
          </ns3:TrackPointExtension>
        </extensions>
      </trkpt>
      <trkpt lat="-22.02580497600138187408447265625" lon="166.4707598648965358734130859375">
        <ele>882.4000244140625</ele>
        <time>2016-08-12T19:48:41.000Z</time>
        <extensions>
          <ns3:TrackPointExtension>
            <ns3:atemp>14.0</ns3:atemp>
            <ns3:hr>129</ns3:hr>
          </ns3:TrackPointExtension>
        </extensions>
      </trkpt>
      <trkpt lat="-22.0257829315960407257080078125" lon="166.4707568474113941192626953125">
        <ele>882.20001220703125</ele>
        <time>2016-08-12T19:48:42.000Z</time>
        <extensions>
          <ns3:TrackPointExtension>
            <ns3:atemp>14.0</ns3:atemp>
            <ns3:hr>129</ns3:hr>
          </ns3:TrackPointExtension>
        </extensions>
      </trkpt>
      <trkpt lat="-22.02576088719069957733154296875" lon="166.47075332701206207275390625">
        <ele>882.5999755859375</ele>
        <time>2016-08-12T19:48:43.000Z</time>
        <extensions>
          <ns3:TrackPointExtension>
            <ns3:atemp>14.0</ns3:atemp>
            <ns3:hr>129</ns3:hr>
          </ns3:TrackPointExtension>
        </extensions>
      </trkpt>
      <trkpt lat="-22.0257331430912017822265625" lon="166.4707498066127300262451171875">
        <ele>882.4000244140625</ele>
        <time>2016-08-12T19:48:44.000Z</time>
        <extensions>
          <ns3:TrackPointExtension>
            <ns3:atemp>14.0</ns3:atemp>
            <ns3:hr>129</ns3:hr>
          </ns3:TrackPointExtension>
        </extensions>
      </trkpt>
      <trkpt lat="-22.0257011242210865020751953125" lon="166.47075022570788860321044921875">
        <ele>882</ele>
        <time>2016-08-12T19:48:45.000Z</time>
        <extensions>
          <ns3:TrackPointExtension>
            <ns3:atemp>14.0</ns3:atemp>
            <ns3:hr>129</ns3:hr>
          </ns3:TrackPointExtension>
        </extensions>
      </trkpt>
      <trkpt lat="-22.02566734515130519866943359375" lon="166.4707514829933643341064453125">
        <ele>882</ele>
        <time>2016-08-12T19:48:46.000Z</time>
        <extensions>
          <ns3:TrackPointExtension>
            <ns3:atemp>14.0</ns3:atemp>
            <ns3:hr>129</ns3:hr>
          </ns3:TrackPointExtension>
        </extensions>
      </trkpt>
      <trkpt lat="-22.02563499100506305694580078125" lon="166.47075307555496692657470703125">
        <ele>882</ele>
        <time>2016-08-12T19:48:47.000Z</time>
        <extensions>
          <ns3:TrackPointExtension>
            <ns3:atemp>14.0</ns3:atemp>
            <ns3:hr>129</ns3:hr>
          </ns3:TrackPointExtension>
        </extensions>
      </trkpt>
      <trkpt lat="-22.02560347504913806915283203125" lon="166.4707551710307598114013671875">
        <ele>881.79998779296875</ele>
        <time>2016-08-12T19:48:48.000Z</time>
        <extensions>
          <ns3:TrackPointExtension>
            <ns3:atemp>14.0</ns3:atemp>
            <ns3:hr>129</ns3:hr>
          </ns3:TrackPointExtension>
        </extensions>
      </trkpt>
      <trkpt lat="-22.02557413838803768157958984375" lon="166.47075793705880641937255859375">
        <ele>881.79998779296875</ele>
        <time>2016-08-12T19:48:49.000Z</time>
        <extensions>
          <ns3:TrackPointExtension>
            <ns3:atemp>14.0</ns3:atemp>
            <ns3:hr>130</ns3:hr>
          </ns3:TrackPointExtension>
        </extensions>
      </trkpt>
      <trkpt lat="-22.025539688766002655029296875" lon="166.47076212801039218902587890625">
        <ele>881.79998779296875</ele>
        <time>2016-08-12T19:48:50.000Z</time>
        <extensions>
          <ns3:TrackPointExtension>
            <ns3:atemp>14.0</ns3:atemp>
            <ns3:hr>129</ns3:hr>
          </ns3:TrackPointExtension>
        </extensions>
      </trkpt>
      <trkpt lat="-22.025510184466838836669921875" lon="166.470763050019741058349609375">
        <ele>881.5999755859375</ele>
        <time>2016-08-12T19:48:51.000Z</time>
        <extensions>
          <ns3:TrackPointExtension>
            <ns3:atemp>14.0</ns3:atemp>
            <ns3:hr>130</ns3:hr>
          </ns3:TrackPointExtension>
        </extensions>
      </trkpt>
      <trkpt lat="-22.0254798419773578643798828125" lon="166.4707588590681552886962890625">
        <ele>881.4000244140625</ele>
        <time>2016-08-12T19:48:52.000Z</time>
        <extensions>
          <ns3:TrackPointExtension>
            <ns3:atemp>14.0</ns3:atemp>
            <ns3:hr>129</ns3:hr>
          </ns3:TrackPointExtension>
        </extensions>
      </trkpt>
      <trkpt lat="-22.0254476554691791534423828125" lon="166.47075206972658634185791015625">
        <ele>881.4000244140625</ele>
        <time>2016-08-12T19:48:53.000Z</time>
        <extensions>
          <ns3:TrackPointExtension>
            <ns3:atemp>14.0</ns3:atemp>
            <ns3:hr>129</ns3:hr>
          </ns3:TrackPointExtension>
        </extensions>
      </trkpt>
      <trkpt lat="-22.02541689388453960418701171875" lon="166.47074620239436626434326171875">
        <ele>881.4000244140625</ele>
        <time>2016-08-12T19:48:54.000Z</time>
        <extensions>
          <ns3:TrackPointExtension>
            <ns3:atemp>14.0</ns3:atemp>
            <ns3:hr>130</ns3:hr>
          </ns3:TrackPointExtension>
        </extensions>
      </trkpt>
      <trkpt lat="-22.025387473404407501220703125" lon="166.47073865868151187896728515625">
        <ele>881.4000244140625</ele>
        <time>2016-08-12T19:48:55.000Z</time>
        <extensions>
          <ns3:TrackPointExtension>
            <ns3:atemp>14.0</ns3:atemp>
            <ns3:hr>129</ns3:hr>
          </ns3:TrackPointExtension>
        </extensions>
      </trkpt>
      <trkpt lat="-22.0253554545342922210693359375" lon="166.4707323722541332244873046875">
        <ele>881</ele>
        <time>2016-08-12T19:48:56.000Z</time>
        <extensions>
          <ns3:TrackPointExtension>
            <ns3:atemp>14.0</ns3:atemp>
            <ns3:hr>129</ns3:hr>
          </ns3:TrackPointExtension>
        </extensions>
      </trkpt>
      <trkpt lat="-22.0253269560635089874267578125" lon="166.470734216272830963134765625">
        <ele>881.20001220703125</ele>
        <time>2016-08-12T19:48:57.000Z</time>
        <extensions>
          <ns3:TrackPointExtension>
            <ns3:atemp>14.0</ns3:atemp>
            <ns3:hr>129</ns3:hr>
          </ns3:TrackPointExtension>
        </extensions>
      </trkpt>
      <trkpt lat="-22.0253065042197704315185546875" lon="166.47072608582675457000732421875">
        <ele>881</ele>
        <time>2016-08-12T19:48:58.000Z</time>
        <extensions>
          <ns3:TrackPointExtension>
            <ns3:atemp>14.0</ns3:atemp>
            <ns3:hr>129</ns3:hr>
          </ns3:TrackPointExtension>
        </extensions>
      </trkpt>
      <trkpt lat="-22.02528311870992183685302734375" lon="166.470724157989025115966796875">
        <ele>880.5999755859375</ele>
        <time>2016-08-12T19:48:59.000Z</time>
        <extensions>
          <ns3:TrackPointExtension>
            <ns3:atemp>14.0</ns3:atemp>
            <ns3:hr>129</ns3:hr>
          </ns3:TrackPointExtension>
        </extensions>
      </trkpt>
      <trkpt lat="-22.02525906264781951904296875" lon="166.4707176201045513153076171875">
        <ele>880.5999755859375</ele>
        <time>2016-08-12T19:49:00.000Z</time>
        <extensions>
          <ns3:TrackPointExtension>
            <ns3:atemp>14.0</ns3:atemp>
            <ns3:hr>129</ns3:hr>
          </ns3:TrackPointExtension>
        </extensions>
      </trkpt>
      <trkpt lat="-22.0252367667853832244873046875" lon="166.47070211358368396759033203125">
        <ele>880.79998779296875</ele>
        <time>2016-08-12T19:49:01.000Z</time>
        <extensions>
          <ns3:TrackPointExtension>
            <ns3:atemp>14.0</ns3:atemp>
            <ns3:hr>129</ns3:hr>
          </ns3:TrackPointExtension>
        </extensions>
      </trkpt>
      <trkpt lat="-22.02521421946585178375244140625" lon="166.47069557569921016693115234375">
        <ele>880.5999755859375</ele>
        <time>2016-08-12T19:49:02.000Z</time>
        <extensions>
          <ns3:TrackPointExtension>
            <ns3:atemp>14.0</ns3:atemp>
            <ns3:hr>129</ns3:hr>
          </ns3:TrackPointExtension>
        </extensions>
      </trkpt>
      <trkpt lat="-22.02519242651760578155517578125" lon="166.4706901274621486663818359375">
        <ele>880.20001220703125</ele>
        <time>2016-08-12T19:49:03.000Z</time>
        <extensions>
          <ns3:TrackPointExtension>
            <ns3:atemp>14.0</ns3:atemp>
            <ns3:hr>129</ns3:hr>
          </ns3:TrackPointExtension>
        </extensions>
      </trkpt>
      <trkpt lat="-22.02517163939774036407470703125" lon="166.47067931480705738067626953125">
        <ele>880.20001220703125</ele>
        <time>2016-08-12T19:49:04.000Z</time>
        <extensions>
          <ns3:TrackPointExtension>
            <ns3:atemp>14.0</ns3:atemp>
            <ns3:hr>129</ns3:hr>
          </ns3:TrackPointExtension>
        </extensions>
      </trkpt>
      <trkpt lat="-22.02514775097370147705078125" lon="166.47067026235163211822509765625">
        <ele>880</ele>
        <time>2016-08-12T19:49:05.000Z</time>
        <extensions>
          <ns3:TrackPointExtension>
            <ns3:atemp>14.0</ns3:atemp>
            <ns3:hr>129</ns3:hr>
          </ns3:TrackPointExtension>
        </extensions>
      </trkpt>
      <trkpt lat="-22.02511548064649105072021484375" lon="166.470663808286190032958984375">
        <ele>879.79998779296875</ele>
        <time>2016-08-12T19:49:06.000Z</time>
        <extensions>
          <ns3:TrackPointExtension>
            <ns3:atemp>14.0</ns3:atemp>
            <ns3:hr>129</ns3:hr>
          </ns3:TrackPointExtension>
        </extensions>
      </trkpt>
      <trkpt lat="-22.02509008347988128662109375" lon="166.47065869532525539398193359375">
        <ele>879.79998779296875</ele>
        <time>2016-08-12T19:49:07.000Z</time>
        <extensions>
          <ns3:TrackPointExtension>
            <ns3:atemp>14.0</ns3:atemp>
            <ns3:hr>129</ns3:hr>
          </ns3:TrackPointExtension>
        </extensions>
      </trkpt>
      <trkpt lat="-22.02506636269390583038330078125" lon="166.47065500728785991668701171875">
        <ele>879.5999755859375</ele>
        <time>2016-08-12T19:49:08.000Z</time>
        <extensions>
          <ns3:TrackPointExtension>
            <ns3:atemp>14.0</ns3:atemp>
            <ns3:hr>129</ns3:hr>
          </ns3:TrackPointExtension>
        </extensions>
      </trkpt>
      <trkpt lat="-22.02504021115601062774658203125" lon="166.47065198980271816253662109375">
        <ele>879.20001220703125</ele>
        <time>2016-08-12T19:49:09.000Z</time>
        <extensions>
          <ns3:TrackPointExtension>
            <ns3:atemp>14.0</ns3:atemp>
            <ns3:hr>129</ns3:hr>
          </ns3:TrackPointExtension>
        </extensions>
      </trkpt>
      <trkpt lat="-22.02502244152128696441650390625" lon="166.47064360789954662322998046875">
        <ele>879.20001220703125</ele>
        <time>2016-08-12T19:49:10.000Z</time>
        <extensions>
          <ns3:TrackPointExtension>
            <ns3:atemp>14.0</ns3:atemp>
            <ns3:hr>129</ns3:hr>
          </ns3:TrackPointExtension>
        </extensions>
      </trkpt>
      <trkpt lat="-22.0250034146010875701904296875" lon="166.470634303987026214599609375">
        <ele>879.4000244140625</ele>
        <time>2016-08-12T19:49:11.000Z</time>
        <extensions>
          <ns3:TrackPointExtension>
            <ns3:atemp>14.0</ns3:atemp>
            <ns3:hr>129</ns3:hr>
          </ns3:TrackPointExtension>
        </extensions>
      </trkpt>
      <trkpt lat="-22.02498354949057102203369140625" lon="166.47063455544412136077880859375">
        <ele>879</ele>
        <time>2016-08-12T19:49:12.000Z</time>
        <extensions>
          <ns3:TrackPointExtension>
            <ns3:atemp>14.0</ns3:atemp>
            <ns3:hr>128</ns3:hr>
          </ns3:TrackPointExtension>
        </extensions>
      </trkpt>
      <trkpt lat="-22.02495890669524669647216796875" lon="166.47063857875764369964599609375">
        <ele>879</ele>
        <time>2016-08-12T19:49:13.000Z</time>
        <extensions>
          <ns3:TrackPointExtension>
            <ns3:atemp>14.0</ns3:atemp>
            <ns3:hr>128</ns3:hr>
          </ns3:TrackPointExtension>
        </extensions>
      </trkpt>
      <trkpt lat="-22.0249370299279689788818359375" lon="166.47063991986215114593505859375">
        <ele>879.20001220703125</ele>
        <time>2016-08-12T19:49:14.000Z</time>
        <extensions>
          <ns3:TrackPointExtension>
            <ns3:atemp>14.0</ns3:atemp>
            <ns3:hr>128</ns3:hr>
          </ns3:TrackPointExtension>
        </extensions>
      </trkpt>
      <trkpt lat="-22.02491330914199352264404296875" lon="166.4706391654908657073974609375">
        <ele>879.20001220703125</ele>
        <time>2016-08-12T19:49:15.000Z</time>
        <extensions>
          <ns3:TrackPointExtension>
            <ns3:atemp>14.0</ns3:atemp>
            <ns3:hr>128</ns3:hr>
          </ns3:TrackPointExtension>
        </extensions>
      </trkpt>
      <trkpt lat="-22.0248910970985889434814453125" lon="166.47063388489186763763427734375">
        <ele>879</ele>
        <time>2016-08-12T19:49:16.000Z</time>
        <extensions>
          <ns3:TrackPointExtension>
            <ns3:atemp>14.0</ns3:atemp>
            <ns3:hr>128</ns3:hr>
          </ns3:TrackPointExtension>
        </extensions>
      </trkpt>
      <trkpt lat="-22.02486938796937465667724609375" lon="166.47062994539737701416015625">
        <ele>878.79998779296875</ele>
        <time>2016-08-12T19:49:17.000Z</time>
        <extensions>
          <ns3:TrackPointExtension>
            <ns3:atemp>14.0</ns3:atemp>
            <ns3:hr>128</ns3:hr>
          </ns3:TrackPointExtension>
        </extensions>
      </trkpt>
      <trkpt lat="-22.02484868466854095458984375" lon="166.4706287719309329986572265625">
        <ele>878.79998779296875</ele>
        <time>2016-08-12T19:49:18.000Z</time>
        <extensions>
          <ns3:TrackPointExtension>
            <ns3:atemp>14.0</ns3:atemp>
            <ns3:hr>128</ns3:hr>
          </ns3:TrackPointExtension>
        </extensions>
      </trkpt>
      <trkpt lat="-22.02482664026319980621337890625" lon="166.4706250838935375213623046875">
        <ele>878.5999755859375</ele>
        <time>2016-08-12T19:49:19.000Z</time>
        <extensions>
          <ns3:TrackPointExtension>
            <ns3:atemp>14.0</ns3:atemp>
            <ns3:hr>128</ns3:hr>
          </ns3:TrackPointExtension>
        </extensions>
      </trkpt>
      <trkpt lat="-22.0248062722384929656982421875" lon="166.4706193841993808746337890625">
        <ele>878.4000244140625</ele>
        <time>2016-08-12T19:49:20.000Z</time>
        <extensions>
          <ns3:TrackPointExtension>
            <ns3:atemp>14.0</ns3:atemp>
            <ns3:hr>128</ns3:hr>
          </ns3:TrackPointExtension>
        </extensions>
      </trkpt>
      <trkpt lat="-22.02478406019508838653564453125" lon="166.47061896510422229766845703125">
        <ele>878.4000244140625</ele>
        <time>2016-08-12T19:49:21.000Z</time>
        <extensions>
          <ns3:TrackPointExtension>
            <ns3:atemp>14.0</ns3:atemp>
            <ns3:hr>128</ns3:hr>
          </ns3:TrackPointExtension>
        </extensions>
      </trkpt>
      <trkpt lat="-22.02475975267589092254638671875" lon="166.47061443887650966644287109375">
        <ele>878.4000244140625</ele>
        <time>2016-08-12T19:49:22.000Z</time>
        <extensions>
          <ns3:TrackPointExtension>
            <ns3:atemp>14.0</ns3:atemp>
            <ns3:hr>128</ns3:hr>
          </ns3:TrackPointExtension>
        </extensions>
      </trkpt>
      <trkpt lat="-22.02473661862313747406005859375" lon="166.47061008028686046600341796875">
        <ele>878.20001220703125</ele>
        <time>2016-08-12T19:49:23.000Z</time>
        <extensions>
          <ns3:TrackPointExtension>
            <ns3:atemp>14.0</ns3:atemp>
            <ns3:hr>129</ns3:hr>
          </ns3:TrackPointExtension>
        </extensions>
      </trkpt>
      <trkpt lat="-22.0247080363333225250244140625" lon="166.470592059195041656494140625">
        <ele>878</ele>
        <time>2016-08-12T19:49:24.000Z</time>
        <extensions>
          <ns3:TrackPointExtension>
            <ns3:atemp>14.0</ns3:atemp>
            <ns3:hr>128</ns3:hr>
          </ns3:TrackPointExtension>
        </extensions>
      </trkpt>
      <trkpt lat="-22.0246812142431735992431640625" lon="166.470580659806728363037109375">
        <ele>878.20001220703125</ele>
        <time>2016-08-12T19:49:25.000Z</time>
        <extensions>
          <ns3:TrackPointExtension>
            <ns3:atemp>14.0</ns3:atemp>
            <ns3:hr>129</ns3:hr>
          </ns3:TrackPointExtension>
        </extensions>
      </trkpt>
      <trkpt lat="-22.02465766109526157379150390625" lon="166.47057454101741313934326171875">
        <ele>878.20001220703125</ele>
        <time>2016-08-12T19:49:26.000Z</time>
        <extensions>
          <ns3:TrackPointExtension>
            <ns3:atemp>14.0</ns3:atemp>
            <ns3:hr>128</ns3:hr>
          </ns3:TrackPointExtension>
        </extensions>
      </trkpt>
      <trkpt lat="-22.02463218010962009429931640625" lon="166.47057236172258853912353515625">
        <ele>878</ele>
        <time>2016-08-12T19:49:27.000Z</time>
        <extensions>
          <ns3:TrackPointExtension>
            <ns3:atemp>14.0</ns3:atemp>
            <ns3:hr>128</ns3:hr>
          </ns3:TrackPointExtension>
        </extensions>
      </trkpt>
      <trkpt lat="-22.0246057771146297454833984375" lon="166.47056045942008495330810546875">
        <ele>877.79998779296875</ele>
        <time>2016-08-12T19:49:28.000Z</time>
        <extensions>
          <ns3:TrackPointExtension>
            <ns3:atemp>14.0</ns3:atemp>
            <ns3:hr>128</ns3:hr>
          </ns3:TrackPointExtension>
        </extensions>
      </trkpt>
      <trkpt lat="-22.024580799043178558349609375" lon="166.47054671309888362884521484375">
        <ele>877.79998779296875</ele>
        <time>2016-08-12T19:49:29.000Z</time>
        <extensions>
          <ns3:TrackPointExtension>
            <ns3:atemp>14.0</ns3:atemp>
            <ns3:hr>128</ns3:hr>
          </ns3:TrackPointExtension>
        </extensions>
      </trkpt>
      <trkpt lat="-22.02455540187656879425048828125" lon="166.470533721148967742919921875">
        <ele>877.5999755859375</ele>
        <time>2016-08-12T19:49:30.000Z</time>
        <extensions>
          <ns3:TrackPointExtension>
            <ns3:atemp>14.0</ns3:atemp>
            <ns3:hr>128</ns3:hr>
          </ns3:TrackPointExtension>
        </extensions>
      </trkpt>
      <trkpt lat="-22.02452891506254673004150390625" lon="166.4705278538167476654052734375">
        <ele>877.5999755859375</ele>
        <time>2016-08-12T19:49:31.000Z</time>
        <extensions>
          <ns3:TrackPointExtension>
            <ns3:atemp>14.0</ns3:atemp>
            <ns3:hr>128</ns3:hr>
          </ns3:TrackPointExtension>
        </extensions>
      </trkpt>
      <trkpt lat="-22.02450460754334926605224609375" lon="166.47052324377000331878662109375">
        <ele>877.79998779296875</ele>
        <time>2016-08-12T19:49:32.000Z</time>
        <extensions>
          <ns3:TrackPointExtension>
            <ns3:atemp>14.0</ns3:atemp>
            <ns3:hr>128</ns3:hr>
          </ns3:TrackPointExtension>
        </extensions>
      </trkpt>
      <trkpt lat="-22.0244793780148029327392578125" lon="166.47051938809454441070556640625">
        <ele>877.79998779296875</ele>
        <time>2016-08-12T19:49:33.000Z</time>
        <extensions>
          <ns3:TrackPointExtension>
            <ns3:atemp>14.0</ns3:atemp>
            <ns3:hr>129</ns3:hr>
          </ns3:TrackPointExtension>
        </extensions>
      </trkpt>
      <trkpt lat="-22.024455405771732330322265625" lon="166.4705161191523075103759765625">
        <ele>877.5999755859375</ele>
        <time>2016-08-12T19:49:34.000Z</time>
        <extensions>
          <ns3:TrackPointExtension>
            <ns3:atemp>14.0</ns3:atemp>
            <ns3:hr>128</ns3:hr>
          </ns3:TrackPointExtension>
        </extensions>
      </trkpt>
      <trkpt lat="-22.0244270749390125274658203125" lon="166.47050865925848484039306640625">
        <ele>877.5999755859375</ele>
        <time>2016-08-12T19:49:35.000Z</time>
        <extensions>
          <ns3:TrackPointExtension>
            <ns3:atemp>14.0</ns3:atemp>
            <ns3:hr>128</ns3:hr>
          </ns3:TrackPointExtension>
        </extensions>
      </trkpt>
      <trkpt lat="-22.024401761591434478759765625" lon="166.47049759514629840850830078125">
        <ele>877.5999755859375</ele>
        <time>2016-08-12T19:49:36.000Z</time>
        <extensions>
          <ns3:TrackPointExtension>
            <ns3:atemp>14.0</ns3:atemp>
            <ns3:hr>128</ns3:hr>
          </ns3:TrackPointExtension>
        </extensions>
      </trkpt>
      <trkpt lat="-22.02438189648091793060302734375" lon="166.4704785682260990142822265625">
        <ele>877.4000244140625</ele>
        <time>2016-08-12T19:49:37.000Z</time>
        <extensions>
          <ns3:TrackPointExtension>
            <ns3:atemp>14.0</ns3:atemp>
            <ns3:hr>128</ns3:hr>
          </ns3:TrackPointExtension>
        </extensions>
      </trkpt>
      <trkpt lat="-22.02436312101781368255615234375" lon="166.47046457044780254364013671875">
        <ele>877.20001220703125</ele>
        <time>2016-08-12T19:49:38.000Z</time>
        <extensions>
          <ns3:TrackPointExtension>
            <ns3:atemp>14.0</ns3:atemp>
            <ns3:hr>128</ns3:hr>
          </ns3:TrackPointExtension>
        </extensions>
      </trkpt>
      <trkpt lat="-22.02434241771697998046875" lon="166.47045752964913845062255859375">
        <ele>877.4000244140625</ele>
        <time>2016-08-12T19:49:39.000Z</time>
        <extensions>
          <ns3:TrackPointExtension>
            <ns3:atemp>14.0</ns3:atemp>
            <ns3:hr>127</ns3:hr>
          </ns3:TrackPointExtension>
        </extensions>
      </trkpt>
      <trkpt lat="-22.02432573772966861724853515625" lon="166.4704480580985546112060546875">
        <ele>877.20001220703125</ele>
        <time>2016-08-12T19:49:40.000Z</time>
        <extensions>
          <ns3:TrackPointExtension>
            <ns3:atemp>14.0</ns3:atemp>
            <ns3:hr>128</ns3:hr>
          </ns3:TrackPointExtension>
        </extensions>
      </trkpt>
      <trkpt lat="-22.0243103988468647003173828125" lon="166.47043137811124324798583984375">
        <ele>877</ele>
        <time>2016-08-12T19:49:41.000Z</time>
        <extensions>
          <ns3:TrackPointExtension>
            <ns3:atemp>14.0</ns3:atemp>
            <ns3:hr>128</ns3:hr>
          </ns3:TrackPointExtension>
        </extensions>
      </trkpt>
      <trkpt lat="-22.02429749071598052978515625" lon="166.47041344083845615386962890625">
        <ele>877</ele>
        <time>2016-08-12T19:49:42.000Z</time>
        <extensions>
          <ns3:TrackPointExtension>
            <ns3:atemp>14.0</ns3:atemp>
            <ns3:hr>128</ns3:hr>
          </ns3:TrackPointExtension>
        </extensions>
      </trkpt>
      <trkpt lat="-22.0242882706224918365478515625" lon="166.47039449773728847503662109375">
        <ele>876.79998779296875</ele>
        <time>2016-08-12T19:49:43.000Z</time>
        <extensions>
          <ns3:TrackPointExtension>
            <ns3:atemp>14.0</ns3:atemp>
            <ns3:hr>127</ns3:hr>
          </ns3:TrackPointExtension>
        </extensions>
      </trkpt>
      <trkpt lat="-22.0242738537490367889404296875" lon="166.47037907503545284271240234375">
        <ele>876.4000244140625</ele>
        <time>2016-08-12T19:49:44.000Z</time>
        <extensions>
          <ns3:TrackPointExtension>
            <ns3:atemp>14.0</ns3:atemp>
            <ns3:hr>127</ns3:hr>
          </ns3:TrackPointExtension>
        </extensions>
      </trkpt>
      <trkpt lat="-22.02425784431397914886474609375" lon="166.4703665859997272491455078125">
        <ele>876.4000244140625</ele>
        <time>2016-08-12T19:49:45.000Z</time>
        <extensions>
          <ns3:TrackPointExtension>
            <ns3:atemp>14.0</ns3:atemp>
            <ns3:hr>127</ns3:hr>
          </ns3:TrackPointExtension>
        </extensions>
      </trkpt>
      <trkpt lat="-22.0242446847259998321533203125" lon="166.47035476751625537872314453125">
        <ele>876</ele>
        <time>2016-08-12T19:49:46.000Z</time>
        <extensions>
          <ns3:TrackPointExtension>
            <ns3:atemp>14.0</ns3:atemp>
            <ns3:hr>127</ns3:hr>
          </ns3:TrackPointExtension>
        </extensions>
      </trkpt>
      <trkpt lat="-22.02423353679478168487548828125" lon="166.4703384228050708770751953125">
        <ele>875.5999755859375</ele>
        <time>2016-08-12T19:49:47.000Z</time>
        <extensions>
          <ns3:TrackPointExtension>
            <ns3:atemp>14.0</ns3:atemp>
            <ns3:hr>127</ns3:hr>
          </ns3:TrackPointExtension>
        </extensions>
      </trkpt>
      <trkpt lat="-22.02422968111932277679443359375" lon="166.47031771950423717498779296875">
        <ele>875.5999755859375</ele>
        <time>2016-08-12T19:49:48.000Z</time>
        <extensions>
          <ns3:TrackPointExtension>
            <ns3:atemp>14.0</ns3:atemp>
            <ns3:hr>127</ns3:hr>
          </ns3:TrackPointExtension>
        </extensions>
      </trkpt>
      <trkpt lat="-22.0242141745984554290771484375" lon="166.47029198706150054931640625">
        <ele>875.5999755859375</ele>
        <time>2016-08-12T19:49:49.000Z</time>
        <extensions>
          <ns3:TrackPointExtension>
            <ns3:atemp>14.0</ns3:atemp>
            <ns3:hr>127</ns3:hr>
          </ns3:TrackPointExtension>
        </extensions>
      </trkpt>
      <trkpt lat="-22.02420218847692012786865234375" lon="166.47026675753295421600341796875">
        <ele>875.20001220703125</ele>
        <time>2016-08-12T19:49:50.000Z</time>
        <extensions>
          <ns3:TrackPointExtension>
            <ns3:atemp>14.0</ns3:atemp>
            <ns3:hr>127</ns3:hr>
          </ns3:TrackPointExtension>
        </extensions>
      </trkpt>
      <trkpt lat="-22.0241937227547168731689453125" lon="166.4702470600605010986328125">
        <ele>874.79998779296875</ele>
        <time>2016-08-12T19:49:51.000Z</time>
        <extensions>
          <ns3:TrackPointExtension>
            <ns3:atemp>14.0</ns3:atemp>
            <ns3:hr>127</ns3:hr>
          </ns3:TrackPointExtension>
        </extensions>
      </trkpt>
      <trkpt lat="-22.02418341301381587982177734375" lon="166.47022015415132045745849609375">
        <ele>874.5999755859375</ele>
        <time>2016-08-12T19:49:52.000Z</time>
        <extensions>
          <ns3:TrackPointExtension>
            <ns3:atemp>14.0</ns3:atemp>
            <ns3:hr>128</ns3:hr>
          </ns3:TrackPointExtension>
        </extensions>
      </trkpt>
      <trkpt lat="-22.02416949905455112457275390625" lon="166.47019986994564533233642578125">
        <ele>874.20001220703125</ele>
        <time>2016-08-12T19:49:53.000Z</time>
        <extensions>
          <ns3:TrackPointExtension>
            <ns3:atemp>14.0</ns3:atemp>
            <ns3:hr>127</ns3:hr>
          </ns3:TrackPointExtension>
        </extensions>
      </trkpt>
      <trkpt lat="-22.024155668914318084716796875" lon="166.47017857991158962249755859375">
        <ele>874</ele>
        <time>2016-08-12T19:49:54.000Z</time>
        <extensions>
          <ns3:TrackPointExtension>
            <ns3:atemp>14.0</ns3:atemp>
            <ns3:hr>128</ns3:hr>
          </ns3:TrackPointExtension>
        </extensions>
      </trkpt>
      <trkpt lat="-22.0241425931453704833984375" lon="166.470157541334629058837890625">
        <ele>873.79998779296875</ele>
        <time>2016-08-12T19:49:55.000Z</time>
        <extensions>
          <ns3:TrackPointExtension>
            <ns3:atemp>14.0</ns3:atemp>
            <ns3:hr>127</ns3:hr>
          </ns3:TrackPointExtension>
        </extensions>
      </trkpt>
      <trkpt lat="-22.024134211242198944091796875" lon="166.47013348527252674102783203125">
        <ele>873.4000244140625</ele>
        <time>2016-08-12T19:49:56.000Z</time>
        <extensions>
          <ns3:TrackPointExtension>
            <ns3:atemp>14.0</ns3:atemp>
            <ns3:hr>127</ns3:hr>
          </ns3:TrackPointExtension>
        </extensions>
      </trkpt>
      <trkpt lat="-22.024121470749378204345703125" lon="166.4701111055910587310791015625">
        <ele>873.20001220703125</ele>
        <time>2016-08-12T19:49:57.000Z</time>
        <extensions>
          <ns3:TrackPointExtension>
            <ns3:atemp>14.0</ns3:atemp>
            <ns3:hr>127</ns3:hr>
          </ns3:TrackPointExtension>
        </extensions>
      </trkpt>
      <trkpt lat="-22.02410303056240081787109375" lon="166.47009006701409816741943359375">
        <ele>873.20001220703125</ele>
        <time>2016-08-12T19:49:58.000Z</time>
        <extensions>
          <ns3:TrackPointExtension>
            <ns3:atemp>14.0</ns3:atemp>
            <ns3:hr>127</ns3:hr>
          </ns3:TrackPointExtension>
        </extensions>
      </trkpt>
      <trkpt lat="-22.0240887813270092010498046875" lon="166.47006802260875701904296875">
        <ele>873</ele>
        <time>2016-08-12T19:49:59.000Z</time>
        <extensions>
          <ns3:TrackPointExtension>
            <ns3:atemp>14.0</ns3:atemp>
            <ns3:hr>126</ns3:hr>
          </ns3:TrackPointExtension>
        </extensions>
      </trkpt>
      <trkpt lat="-22.02407176606357097625732421875" lon="166.4700477384030818939208984375">
        <ele>872.79998779296875</ele>
        <time>2016-08-12T19:50:00.000Z</time>
        <extensions>
          <ns3:TrackPointExtension>
            <ns3:atemp>14.0</ns3:atemp>
            <ns3:hr>127</ns3:hr>
          </ns3:TrackPointExtension>
        </extensions>
      </trkpt>
      <trkpt lat="-22.0240542478859424591064453125" lon="166.47003105841577053070068359375">
        <ele>872.5999755859375</ele>
        <time>2016-08-12T19:50:01.000Z</time>
        <extensions>
          <ns3:TrackPointExtension>
            <ns3:atemp>14.0</ns3:atemp>
            <ns3:hr>127</ns3:hr>
          </ns3:TrackPointExtension>
        </extensions>
      </trkpt>
      <trkpt lat="-22.02403656207025051116943359375" lon="166.47001379169523715972900390625">
        <ele>872.5999755859375</ele>
        <time>2016-08-12T19:50:02.000Z</time>
        <extensions>
          <ns3:TrackPointExtension>
            <ns3:atemp>14.0</ns3:atemp>
            <ns3:hr>127</ns3:hr>
          </ns3:TrackPointExtension>
        </extensions>
      </trkpt>
      <trkpt lat="-22.02401661314070224761962890625" lon="166.4699914120137691497802734375">
        <ele>872.20001220703125</ele>
        <time>2016-08-12T19:50:03.000Z</time>
        <extensions>
          <ns3:TrackPointExtension>
            <ns3:atemp>14.0</ns3:atemp>
            <ns3:hr>127</ns3:hr>
          </ns3:TrackPointExtension>
        </extensions>
      </trkpt>
      <trkpt lat="-22.0239704288542270660400390625" lon="166.46997942589223384857177734375">
        <ele>871.79998779296875</ele>
        <time>2016-08-12T19:50:04.000Z</time>
        <extensions>
          <ns3:TrackPointExtension>
            <ns3:atemp>14.0</ns3:atemp>
            <ns3:hr>127</ns3:hr>
          </ns3:TrackPointExtension>
        </extensions>
      </trkpt>
      <trkpt lat="-22.02393673360347747802734375" lon="166.4699666015803813934326171875">
        <ele>872</ele>
        <time>2016-08-12T19:50:05.000Z</time>
        <extensions>
          <ns3:TrackPointExtension>
            <ns3:atemp>14.0</ns3:atemp>
            <ns3:hr>127</ns3:hr>
          </ns3:TrackPointExtension>
        </extensions>
      </trkpt>
      <trkpt lat="-22.02390043996274471282958984375" lon="166.46995277144014835357666015625">
        <ele>871.79998779296875</ele>
        <time>2016-08-12T19:50:06.000Z</time>
        <extensions>
          <ns3:TrackPointExtension>
            <ns3:atemp>14.0</ns3:atemp>
            <ns3:hr>127</ns3:hr>
          </ns3:TrackPointExtension>
        </extensions>
      </trkpt>
      <trkpt lat="-22.02387495897710323333740234375" lon="166.4699377678334712982177734375">
        <ele>871.5999755859375</ele>
        <time>2016-08-12T19:50:07.000Z</time>
        <extensions>
          <ns3:TrackPointExtension>
            <ns3:atemp>14.0</ns3:atemp>
            <ns3:hr>127</ns3:hr>
          </ns3:TrackPointExtension>
        </extensions>
      </trkpt>
      <trkpt lat="-22.02384897507727146148681640625" lon="166.46992008201777935028076171875">
        <ele>871.5999755859375</ele>
        <time>2016-08-12T19:50:08.000Z</time>
        <extensions>
          <ns3:TrackPointExtension>
            <ns3:atemp>14.0</ns3:atemp>
            <ns3:hr>127</ns3:hr>
          </ns3:TrackPointExtension>
        </extensions>
      </trkpt>
      <trkpt lat="-22.02382114715874195098876953125" lon="166.46990264765918254852294921875">
        <ele>871.79998779296875</ele>
        <time>2016-08-12T19:50:09.000Z</time>
        <extensions>
          <ns3:TrackPointExtension>
            <ns3:atemp>14.0</ns3:atemp>
            <ns3:hr>127</ns3:hr>
          </ns3:TrackPointExtension>
        </extensions>
      </trkpt>
      <trkpt lat="-22.02380086295306682586669921875" lon="166.46988923661410808563232421875">
        <ele>871.79998779296875</ele>
        <time>2016-08-12T19:50:10.000Z</time>
        <extensions>
          <ns3:TrackPointExtension>
            <ns3:atemp>14.0</ns3:atemp>
            <ns3:hr>127</ns3:hr>
          </ns3:TrackPointExtension>
        </extensions>
      </trkpt>
      <trkpt lat="-22.02378208748996257781982421875" lon="166.46987758576869964599609375">
        <ele>871.5999755859375</ele>
        <time>2016-08-12T19:50:11.000Z</time>
        <extensions>
          <ns3:TrackPointExtension>
            <ns3:atemp>14.0</ns3:atemp>
            <ns3:hr>127</ns3:hr>
          </ns3:TrackPointExtension>
        </extensions>
      </trkpt>
      <trkpt lat="-22.023766748607158660888671875" lon="166.4698606543242931365966796875">
        <ele>871.4000244140625</ele>
        <time>2016-08-12T19:50:12.000Z</time>
        <extensions>
          <ns3:TrackPointExtension>
            <ns3:atemp>14.0</ns3:atemp>
            <ns3:hr>127</ns3:hr>
          </ns3:TrackPointExtension>
        </extensions>
      </trkpt>
      <trkpt lat="-22.02375308610498905181884765625" lon="166.4698435552418231964111328125">
        <ele>871.20001220703125</ele>
        <time>2016-08-12T19:50:13.000Z</time>
        <extensions>
          <ns3:TrackPointExtension>
            <ns3:atemp>14.0</ns3:atemp>
            <ns3:hr>127</ns3:hr>
          </ns3:TrackPointExtension>
        </extensions>
      </trkpt>
      <trkpt lat="-22.02373213134706020355224609375" lon="166.4698254503309726715087890625">
        <ele>871</ele>
        <time>2016-08-12T19:50:14.000Z</time>
        <extensions>
          <ns3:TrackPointExtension>
            <ns3:atemp>14.0</ns3:atemp>
            <ns3:hr>127</ns3:hr>
          </ns3:TrackPointExtension>
        </extensions>
      </trkpt>
      <trkpt lat="-22.0237107574939727783203125" lon="166.469811536371707916259765625">
        <ele>871</ele>
        <time>2016-08-12T19:50:15.000Z</time>
        <extensions>
          <ns3:TrackPointExtension>
            <ns3:atemp>14.0</ns3:atemp>
            <ns3:hr>127</ns3:hr>
          </ns3:TrackPointExtension>
        </extensions>
      </trkpt>
      <trkpt lat="-22.02369935810565948486328125" lon="166.46979318000376224517822265625">
        <ele>870.79998779296875</ele>
        <time>2016-08-12T19:50:16.000Z</time>
        <extensions>
          <ns3:TrackPointExtension>
            <ns3:atemp>14.0</ns3:atemp>
            <ns3:hr>127</ns3:hr>
          </ns3:TrackPointExtension>
        </extensions>
      </trkpt>
      <trkpt lat="-22.02368636615574359893798828125" lon="166.46977591328322887420654296875">
        <ele>870.5999755859375</ele>
        <time>2016-08-12T19:50:17.000Z</time>
        <extensions>
          <ns3:TrackPointExtension>
            <ns3:atemp>14.0</ns3:atemp>
            <ns3:hr>127</ns3:hr>
          </ns3:TrackPointExtension>
        </extensions>
      </trkpt>
      <trkpt lat="-22.02366926707327365875244140625" lon="166.469757556915283203125">
        <ele>870.5999755859375</ele>
        <time>2016-08-12T19:50:18.000Z</time>
        <extensions>
          <ns3:TrackPointExtension>
            <ns3:atemp>14.0</ns3:atemp>
            <ns3:hr>127</ns3:hr>
          </ns3:TrackPointExtension>
        </extensions>
      </trkpt>
      <trkpt lat="-22.023656778037548065185546875" lon="166.46973869763314723968505859375">
        <ele>870.20001220703125</ele>
        <time>2016-08-12T19:50:19.000Z</time>
        <extensions>
          <ns3:TrackPointExtension>
            <ns3:atemp>14.0</ns3:atemp>
            <ns3:hr>127</ns3:hr>
          </ns3:TrackPointExtension>
        </extensions>
      </trkpt>
      <trkpt lat="-22.0236505754292011260986328125" lon="166.46971841342747211456298828125">
        <ele>870</ele>
        <time>2016-08-12T19:50:20.000Z</time>
        <extensions>
          <ns3:TrackPointExtension>
            <ns3:atemp>14.0</ns3:atemp>
            <ns3:hr>128</ns3:hr>
          </ns3:TrackPointExtension>
        </extensions>
      </trkpt>
      <trkpt lat="-22.02364043332636356353759765625" lon="166.46970030851662158966064453125">
        <ele>869.79998779296875</ele>
        <time>2016-08-12T19:50:21.000Z</time>
        <extensions>
          <ns3:TrackPointExtension>
            <ns3:atemp>14.0</ns3:atemp>
            <ns3:hr>127</ns3:hr>
          </ns3:TrackPointExtension>
        </extensions>
      </trkpt>
      <trkpt lat="-22.02363305725157260894775390625" lon="166.46968253888189792633056640625">
        <ele>869.4000244140625</ele>
        <time>2016-08-12T19:50:22.000Z</time>
        <extensions>
          <ns3:TrackPointExtension>
            <ns3:atemp>14.0</ns3:atemp>
            <ns3:hr>127</ns3:hr>
          </ns3:TrackPointExtension>
        </extensions>
      </trkpt>
      <trkpt lat="-22.02362802810966968536376953125" lon="166.46966326050460338592529296875">
        <ele>869.20001220703125</ele>
        <time>2016-08-12T19:50:23.000Z</time>
        <extensions>
          <ns3:TrackPointExtension>
            <ns3:atemp>14.0</ns3:atemp>
            <ns3:hr>127</ns3:hr>
          </ns3:TrackPointExtension>
        </extensions>
      </trkpt>
      <trkpt lat="-22.0236110128462314605712890625" lon="166.46964599378407001495361328125">
        <ele>869</ele>
        <time>2016-08-12T19:50:24.000Z</time>
        <extensions>
          <ns3:TrackPointExtension>
            <ns3:atemp>14.0</ns3:atemp>
            <ns3:hr>127</ns3:hr>
          </ns3:TrackPointExtension>
        </extensions>
      </trkpt>
      <trkpt lat="-22.02359349466860294342041015625" lon="166.46962353028357028961181640625">
        <ele>868.79998779296875</ele>
        <time>2016-08-12T19:50:25.000Z</time>
        <extensions>
          <ns3:TrackPointExtension>
            <ns3:atemp>14.0</ns3:atemp>
            <ns3:hr>127</ns3:hr>
          </ns3:TrackPointExtension>
        </extensions>
      </trkpt>
      <trkpt lat="-22.0235701091587543487548828125" lon="166.46959871985018253326416015625">
        <ele>868.5999755859375</ele>
        <time>2016-08-12T19:50:26.000Z</time>
        <extensions>
          <ns3:TrackPointExtension>
            <ns3:atemp>14.0</ns3:atemp>
            <ns3:hr>127</ns3:hr>
          </ns3:TrackPointExtension>
        </extensions>
      </trkpt>
      <trkpt lat="-22.02354739420115947723388671875" lon="166.46957608871161937713623046875">
        <ele>868.5999755859375</ele>
        <time>2016-08-12T19:50:27.000Z</time>
        <extensions>
          <ns3:TrackPointExtension>
            <ns3:atemp>14.0</ns3:atemp>
            <ns3:hr>127</ns3:hr>
          </ns3:TrackPointExtension>
        </extensions>
      </trkpt>
      <trkpt lat="-22.02352811582386493682861328125" lon="166.4695548824965953826904296875">
        <ele>868.20001220703125</ele>
        <time>2016-08-12T19:50:28.000Z</time>
        <extensions>
          <ns3:TrackPointExtension>
            <ns3:atemp>14.0</ns3:atemp>
            <ns3:hr>127</ns3:hr>
          </ns3:TrackPointExtension>
        </extensions>
      </trkpt>
      <trkpt lat="-22.02351051382720470428466796875" lon="166.46953267045319080352783203125">
        <ele>868</ele>
        <time>2016-08-12T19:50:29.000Z</time>
        <extensions>
          <ns3:TrackPointExtension>
            <ns3:atemp>14.0</ns3:atemp>
            <ns3:hr>128</ns3:hr>
          </ns3:TrackPointExtension>
        </extensions>
      </trkpt>
      <trkpt lat="-22.02349727042019367218017578125" lon="166.46950802765786647796630859375">
        <ele>867.79998779296875</ele>
        <time>2016-08-12T19:50:30.000Z</time>
        <extensions>
          <ns3:TrackPointExtension>
            <ns3:atemp>14.0</ns3:atemp>
            <ns3:hr>127</ns3:hr>
          </ns3:TrackPointExtension>
        </extensions>
      </trkpt>
      <trkpt lat="-22.0234809257090091705322265625" lon="166.4694834686815738677978515625">
        <ele>867.4000244140625</ele>
        <time>2016-08-12T19:50:31.000Z</time>
        <extensions>
          <ns3:TrackPointExtension>
            <ns3:atemp>14.0</ns3:atemp>
            <ns3:hr>127</ns3:hr>
          </ns3:TrackPointExtension>
        </extensions>
      </trkpt>
      <trkpt lat="-22.02346743084490299224853515625" lon="166.4694559760391712188720703125">
        <ele>867.4000244140625</ele>
        <time>2016-08-12T19:50:32.000Z</time>
        <extensions>
          <ns3:TrackPointExtension>
            <ns3:atemp>14.0</ns3:atemp>
            <ns3:hr>127</ns3:hr>
          </ns3:TrackPointExtension>
        </extensions>
      </trkpt>
      <trkpt lat="-22.02345385216176509857177734375" lon="166.46943091414868831634521484375">
        <ele>867.20001220703125</ele>
        <time>2016-08-12T19:50:33.000Z</time>
        <extensions>
          <ns3:TrackPointExtension>
            <ns3:atemp>14.0</ns3:atemp>
            <ns3:hr>127</ns3:hr>
          </ns3:TrackPointExtension>
        </extensions>
      </trkpt>
      <trkpt lat="-22.0234517566859722137451171875" lon="166.469404511153697967529296875">
        <ele>866.79998779296875</ele>
        <time>2016-08-12T19:50:34.000Z</time>
        <extensions>
          <ns3:TrackPointExtension>
            <ns3:atemp>14.0</ns3:atemp>
            <ns3:hr>127</ns3:hr>
          </ns3:TrackPointExtension>
        </extensions>
      </trkpt>
      <trkpt lat="-22.023451589047908782958984375" lon="166.4693751744925975799560546875">
        <ele>866.5999755859375</ele>
        <time>2016-08-12T19:50:35.000Z</time>
        <extensions>
          <ns3:TrackPointExtension>
            <ns3:atemp>14.0</ns3:atemp>
            <ns3:hr>127</ns3:hr>
          </ns3:TrackPointExtension>
        </extensions>
      </trkpt>
      <trkpt lat="-22.023444212973117828369140625" lon="166.4693473465740680694580078125">
        <ele>866.4000244140625</ele>
        <time>2016-08-12T19:50:36.000Z</time>
        <extensions>
          <ns3:TrackPointExtension>
            <ns3:atemp>14.0</ns3:atemp>
            <ns3:hr>127</ns3:hr>
          </ns3:TrackPointExtension>
        </extensions>
      </trkpt>
      <trkpt lat="-22.02344245277345180511474609375" lon="166.46931876428425312042236328125">
        <ele>866</ele>
        <time>2016-08-12T19:50:37.000Z</time>
        <extensions>
          <ns3:TrackPointExtension>
            <ns3:atemp>14.0</ns3:atemp>
            <ns3:hr>126</ns3:hr>
          </ns3:TrackPointExtension>
        </extensions>
      </trkpt>
      <trkpt lat="-22.02344044111669063568115234375" lon="166.4692913554608821868896484375">
        <ele>866</ele>
        <time>2016-08-12T19:50:38.000Z</time>
        <extensions>
          <ns3:TrackPointExtension>
            <ns3:atemp>14.0</ns3:atemp>
            <ns3:hr>127</ns3:hr>
          </ns3:TrackPointExtension>
        </extensions>
      </trkpt>
      <trkpt lat="-22.02343507669866085052490234375" lon="166.46926713176071643829345703125">
        <ele>866</ele>
        <time>2016-08-12T19:50:39.000Z</time>
        <extensions>
          <ns3:TrackPointExtension>
            <ns3:atemp>14.0</ns3:atemp>
            <ns3:hr>127</ns3:hr>
          </ns3:TrackPointExtension>
        </extensions>
      </trkpt>
      <trkpt lat="-22.02342585660517215728759765625" lon="166.46924383006989955902099609375">
        <ele>865.79998779296875</ele>
        <time>2016-08-12T19:50:40.000Z</time>
        <extensions>
          <ns3:TrackPointExtension>
            <ns3:atemp>14.0</ns3:atemp>
            <ns3:hr>127</ns3:hr>
          </ns3:TrackPointExtension>
        </extensions>
      </trkpt>
      <trkpt lat="-22.02341697178781032562255859375" lon="166.46921776235103607177734375">
        <ele>865.5999755859375</ele>
        <time>2016-08-12T19:50:41.000Z</time>
        <extensions>
          <ns3:TrackPointExtension>
            <ns3:atemp>14.0</ns3:atemp>
            <ns3:hr>127</ns3:hr>
          </ns3:TrackPointExtension>
        </extensions>
      </trkpt>
      <trkpt lat="-22.02340842224657535552978515625" lon="166.46919119171798229217529296875">
        <ele>865.5999755859375</ele>
        <time>2016-08-12T19:50:42.000Z</time>
        <extensions>
          <ns3:TrackPointExtension>
            <ns3:atemp>14.0</ns3:atemp>
            <ns3:hr>127</ns3:hr>
          </ns3:TrackPointExtension>
        </extensions>
      </trkpt>
      <trkpt lat="-22.0233942568302154541015625" lon="166.4691659621894359588623046875">
        <ele>865.20001220703125</ele>
        <time>2016-08-12T19:50:43.000Z</time>
        <extensions>
          <ns3:TrackPointExtension>
            <ns3:atemp>14.0</ns3:atemp>
            <ns3:hr>126</ns3:hr>
          </ns3:TrackPointExtension>
        </extensions>
      </trkpt>
      <trkpt lat="-22.02337137423455715179443359375" lon="166.46914190612733364105224609375">
        <ele>865</ele>
        <time>2016-08-12T19:50:44.000Z</time>
        <extensions>
          <ns3:TrackPointExtension>
            <ns3:atemp>14.0</ns3:atemp>
            <ns3:hr>126</ns3:hr>
          </ns3:TrackPointExtension>
        </extensions>
      </trkpt>
      <trkpt lat="-22.02335461042821407318115234375" lon="166.46911659277975559234619140625">
        <ele>865.20001220703125</ele>
        <time>2016-08-12T19:50:45.000Z</time>
        <extensions>
          <ns3:TrackPointExtension>
            <ns3:atemp>14.0</ns3:atemp>
            <ns3:hr>126</ns3:hr>
          </ns3:TrackPointExtension>
        </extensions>
      </trkpt>
      <trkpt lat="-22.02333114109933376312255859375" lon="166.46909262053668498992919921875">
        <ele>865.20001220703125</ele>
        <time>2016-08-12T19:50:46.000Z</time>
        <extensions>
          <ns3:TrackPointExtension>
            <ns3:atemp>14.0</ns3:atemp>
            <ns3:hr>126</ns3:hr>
          </ns3:TrackPointExtension>
        </extensions>
      </trkpt>
      <trkpt lat="-22.02331588603556156158447265625" lon="166.46906797774136066436767578125">
        <ele>864.79998779296875</ele>
        <time>2016-08-12T19:50:47.000Z</time>
        <extensions>
          <ns3:TrackPointExtension>
            <ns3:atemp>14.0</ns3:atemp>
            <ns3:hr>126</ns3:hr>
          </ns3:TrackPointExtension>
        </extensions>
      </trkpt>
      <trkpt lat="-22.02330239117145538330078125" lon="166.46904417313635349273681640625">
        <ele>864.79998779296875</ele>
        <time>2016-08-12T19:50:48.000Z</time>
        <extensions>
          <ns3:TrackPointExtension>
            <ns3:atemp>14.0</ns3:atemp>
            <ns3:hr>126</ns3:hr>
          </ns3:TrackPointExtension>
        </extensions>
      </trkpt>
      <trkpt lat="-22.02328336425125598907470703125" lon="166.46902196109294891357421875">
        <ele>864.79998779296875</ele>
        <time>2016-08-12T19:50:49.000Z</time>
        <extensions>
          <ns3:TrackPointExtension>
            <ns3:atemp>14.0</ns3:atemp>
            <ns3:hr>126</ns3:hr>
          </ns3:TrackPointExtension>
        </extensions>
      </trkpt>
      <trkpt lat="-22.02326676808297634124755859375" lon="166.4689998328685760498046875">
        <ele>864.5999755859375</ele>
        <time>2016-08-12T19:50:50.000Z</time>
        <extensions>
          <ns3:TrackPointExtension>
            <ns3:atemp>14.0</ns3:atemp>
            <ns3:hr>126</ns3:hr>
          </ns3:TrackPointExtension>
        </extensions>
      </trkpt>
      <trkpt lat="-22.02324296347796916961669921875" lon="166.46897795610129833221435546875">
        <ele>864.4000244140625</ele>
        <time>2016-08-12T19:50:51.000Z</time>
        <extensions>
          <ns3:TrackPointExtension>
            <ns3:atemp>14.0</ns3:atemp>
            <ns3:hr>126</ns3:hr>
          </ns3:TrackPointExtension>
        </extensions>
      </trkpt>
      <trkpt lat="-22.02322326600551605224609375" lon="166.4689528942108154296875">
        <ele>864.5999755859375</ele>
        <time>2016-08-12T19:50:52.000Z</time>
        <extensions>
          <ns3:TrackPointExtension>
            <ns3:atemp>14.0</ns3:atemp>
            <ns3:hr>126</ns3:hr>
          </ns3:TrackPointExtension>
        </extensions>
      </trkpt>
      <trkpt lat="-22.0232056640088558197021484375" lon="166.4689319394528865814208984375">
        <ele>864.5999755859375</ele>
        <time>2016-08-12T19:50:53.000Z</time>
        <extensions>
          <ns3:TrackPointExtension>
            <ns3:atemp>14.0</ns3:atemp>
            <ns3:hr>126</ns3:hr>
          </ns3:TrackPointExtension>
        </extensions>
      </trkpt>
      <trkpt lat="-22.023182697594165802001953125" lon="166.46890989504754543304443359375">
        <ele>864.20001220703125</ele>
        <time>2016-08-12T19:50:54.000Z</time>
        <extensions>
          <ns3:TrackPointExtension>
            <ns3:atemp>14.0</ns3:atemp>
            <ns3:hr>127</ns3:hr>
          </ns3:TrackPointExtension>
        </extensions>
      </trkpt>
      <trkpt lat="-22.0231607370078563690185546875" lon="166.46889053285121917724609375">
        <ele>864.20001220703125</ele>
        <time>2016-08-12T19:50:55.000Z</time>
        <extensions>
          <ns3:TrackPointExtension>
            <ns3:atemp>14.0</ns3:atemp>
            <ns3:hr>126</ns3:hr>
          </ns3:TrackPointExtension>
        </extensions>
      </trkpt>
      <trkpt lat="-22.0231365971267223358154296875" lon="166.4688736014068126678466796875">
        <ele>864</ele>
        <time>2016-08-12T19:50:56.000Z</time>
        <extensions>
          <ns3:TrackPointExtension>
            <ns3:atemp>14.0</ns3:atemp>
            <ns3:hr>126</ns3:hr>
          </ns3:TrackPointExtension>
        </extensions>
      </trkpt>
      <trkpt lat="-22.02311002649366855621337890625" lon="166.46885843016207218170166015625">
        <ele>863.5999755859375</ele>
        <time>2016-08-12T19:50:57.000Z</time>
        <extensions>
          <ns3:TrackPointExtension>
            <ns3:atemp>14.0</ns3:atemp>
            <ns3:hr>126</ns3:hr>
          </ns3:TrackPointExtension>
        </extensions>
      </trkpt>
      <trkpt lat="-22.02308823354542255401611328125" lon="166.46884434856474399566650390625">
        <ele>863.4000244140625</ele>
        <time>2016-08-12T19:50:58.000Z</time>
        <extensions>
          <ns3:TrackPointExtension>
            <ns3:atemp>14.0</ns3:atemp>
            <ns3:hr>126</ns3:hr>
          </ns3:TrackPointExtension>
        </extensions>
      </trkpt>
      <trkpt lat="-22.023068033158779144287109375" lon="166.46882859058678150177001953125">
        <ele>863.5999755859375</ele>
        <time>2016-08-12T19:50:59.000Z</time>
        <extensions>
          <ns3:TrackPointExtension>
            <ns3:atemp>14.0</ns3:atemp>
            <ns3:hr>126</ns3:hr>
          </ns3:TrackPointExtension>
        </extensions>
      </trkpt>
      <trkpt lat="-22.0230524428188800811767578125" lon="166.46881350316107273101806640625">
        <ele>863.5999755859375</ele>
        <time>2016-08-12T19:51:00.000Z</time>
        <extensions>
          <ns3:TrackPointExtension>
            <ns3:atemp>14.0</ns3:atemp>
            <ns3:hr>126</ns3:hr>
          </ns3:TrackPointExtension>
        </extensions>
      </trkpt>
      <trkpt lat="-22.02303148806095123291015625" lon="166.46880059503018856048583984375">
        <ele>863.4000244140625</ele>
        <time>2016-08-12T19:51:01.000Z</time>
        <extensions>
          <ns3:TrackPointExtension>
            <ns3:atemp>14.0</ns3:atemp>
            <ns3:hr>126</ns3:hr>
          </ns3:TrackPointExtension>
        </extensions>
      </trkpt>
      <trkpt lat="-22.02301497571170330047607421875" lon="166.468784920871257781982421875">
        <ele>863.20001220703125</ele>
        <time>2016-08-12T19:51:02.000Z</time>
        <extensions>
          <ns3:TrackPointExtension>
            <ns3:atemp>14.0</ns3:atemp>
            <ns3:hr>126</ns3:hr>
          </ns3:TrackPointExtension>
        </extensions>
      </trkpt>
      <trkpt lat="-22.02300089411437511444091796875" lon="166.46876581013202667236328125">
        <ele>863</ele>
        <time>2016-08-12T19:51:03.000Z</time>
        <extensions>
          <ns3:TrackPointExtension>
            <ns3:atemp>14.0</ns3:atemp>
            <ns3:hr>126</ns3:hr>
          </ns3:TrackPointExtension>
        </extensions>
      </trkpt>
      <trkpt lat="-22.0229830406606197357177734375" lon="166.46874845959246158599853515625">
        <ele>862.79998779296875</ele>
        <time>2016-08-12T19:51:04.000Z</time>
        <extensions>
          <ns3:TrackPointExtension>
            <ns3:atemp>14.0</ns3:atemp>
            <ns3:hr>126</ns3:hr>
          </ns3:TrackPointExtension>
        </extensions>
      </trkpt>
      <trkpt lat="-22.0229726471006870269775390625" lon="166.46872767247259616851806640625">
        <ele>862.79998779296875</ele>
        <time>2016-08-12T19:51:05.000Z</time>
        <extensions>
          <ns3:TrackPointExtension>
            <ns3:atemp>14.0</ns3:atemp>
            <ns3:hr>126</ns3:hr>
          </ns3:TrackPointExtension>
        </extensions>
      </trkpt>
      <trkpt lat="-22.02295965515077114105224609375" lon="166.46871224977076053619384765625">
        <ele>862.79998779296875</ele>
        <time>2016-08-12T19:51:06.000Z</time>
        <extensions>
          <ns3:TrackPointExtension>
            <ns3:atemp>14.0</ns3:atemp>
            <ns3:hr>126</ns3:hr>
          </ns3:TrackPointExtension>
        </extensions>
      </trkpt>
      <trkpt lat="-22.022948004305362701416015625" lon="166.4686948992311954498291015625">
        <ele>862.79998779296875</ele>
        <time>2016-08-12T19:51:07.000Z</time>
        <extensions>
          <ns3:TrackPointExtension>
            <ns3:atemp>14.0</ns3:atemp>
            <ns3:hr>126</ns3:hr>
          </ns3:TrackPointExtension>
        </extensions>
      </trkpt>
      <trkpt lat="-22.0229320786893367767333984375" lon="166.46867419593036174774169921875">
        <ele>862.5999755859375</ele>
        <time>2016-08-12T19:51:08.000Z</time>
        <extensions>
          <ns3:TrackPointExtension>
            <ns3:atemp>14.0</ns3:atemp>
            <ns3:hr>125</ns3:hr>
          </ns3:TrackPointExtension>
        </extensions>
      </trkpt>
      <trkpt lat="-22.022919841110706329345703125" lon="166.46865558810532093048095703125">
        <ele>862.5999755859375</ele>
        <time>2016-08-12T19:51:09.000Z</time>
        <extensions>
          <ns3:TrackPointExtension>
            <ns3:atemp>14.0</ns3:atemp>
            <ns3:hr>126</ns3:hr>
          </ns3:TrackPointExtension>
        </extensions>
      </trkpt>
      <trkpt lat="-22.022910453379154205322265625" lon="166.46863245405256748199462890625">
        <ele>862.4000244140625</ele>
        <time>2016-08-12T19:51:10.000Z</time>
        <extensions>
          <ns3:TrackPointExtension>
            <ns3:atemp>14.0</ns3:atemp>
            <ns3:hr>125</ns3:hr>
          </ns3:TrackPointExtension>
        </extensions>
      </trkpt>
      <trkpt lat="-22.02289528213441371917724609375" lon="166.4686083979904651641845703125">
        <ele>862.20001220703125</ele>
        <time>2016-08-12T19:51:11.000Z</time>
        <extensions>
          <ns3:TrackPointExtension>
            <ns3:atemp>14.0</ns3:atemp>
            <ns3:hr>125</ns3:hr>
          </ns3:TrackPointExtension>
        </extensions>
      </trkpt>
      <trkpt lat="-22.022885642945766448974609375" lon="166.4685852639377117156982421875">
        <ele>862</ele>
        <time>2016-08-12T19:51:12.000Z</time>
        <extensions>
          <ns3:TrackPointExtension>
            <ns3:atemp>14.0</ns3:atemp>
            <ns3:hr>126</ns3:hr>
          </ns3:TrackPointExtension>
        </extensions>
      </trkpt>
      <trkpt lat="-22.02287047170102596282958984375" lon="166.468564309179782867431640625">
        <ele>861.79998779296875</ele>
        <time>2016-08-12T19:51:13.000Z</time>
        <extensions>
          <ns3:TrackPointExtension>
            <ns3:atemp>14.0</ns3:atemp>
            <ns3:hr>125</ns3:hr>
          </ns3:TrackPointExtension>
        </extensions>
      </trkpt>
      <trkpt lat="-22.02285555191338062286376953125" lon="166.46854343824088573455810546875">
        <ele>861.5999755859375</ele>
        <time>2016-08-12T19:51:14.000Z</time>
        <extensions>
          <ns3:TrackPointExtension>
            <ns3:atemp>14.0</ns3:atemp>
            <ns3:hr>126</ns3:hr>
          </ns3:TrackPointExtension>
        </extensions>
      </trkpt>
      <trkpt lat="-22.02283845283091068267822265625" lon="166.46852499805390834808349609375">
        <ele>861.4000244140625</ele>
        <time>2016-08-12T19:51:15.000Z</time>
        <extensions>
          <ns3:TrackPointExtension>
            <ns3:atemp>14.0</ns3:atemp>
            <ns3:hr>126</ns3:hr>
          </ns3:TrackPointExtension>
        </extensions>
      </trkpt>
      <trkpt lat="-22.02281733043491840362548828125" lon="166.46850655786693096160888671875">
        <ele>861.4000244140625</ele>
        <time>2016-08-12T19:51:16.000Z</time>
        <extensions>
          <ns3:TrackPointExtension>
            <ns3:atemp>14.0</ns3:atemp>
            <ns3:hr>125</ns3:hr>
          </ns3:TrackPointExtension>
        </extensions>
      </trkpt>
      <trkpt lat="-22.02280207537114620208740234375" lon="166.46848526783287525177001953125">
        <ele>861.20001220703125</ele>
        <time>2016-08-12T19:51:17.000Z</time>
        <extensions>
          <ns3:TrackPointExtension>
            <ns3:atemp>14.0</ns3:atemp>
            <ns3:hr>126</ns3:hr>
          </ns3:TrackPointExtension>
        </extensions>
      </trkpt>
      <trkpt lat="-22.0227932743728160858154296875" lon="166.46846406161785125732421875">
        <ele>861</ele>
        <time>2016-08-12T19:51:18.000Z</time>
        <extensions>
          <ns3:TrackPointExtension>
            <ns3:atemp>14.0</ns3:atemp>
            <ns3:hr>125</ns3:hr>
          </ns3:TrackPointExtension>
        </extensions>
      </trkpt>
      <trkpt lat="-22.02278631739318370819091796875" lon="166.46843765862286090850830078125">
        <ele>861</ele>
        <time>2016-08-12T19:51:19.000Z</time>
        <extensions>
          <ns3:TrackPointExtension>
            <ns3:atemp>14.0</ns3:atemp>
            <ns3:hr>126</ns3:hr>
          </ns3:TrackPointExtension>
        </extensions>
      </trkpt>
      <trkpt lat="-22.0227835513651371002197265625" lon="166.46841167472302913665771484375">
        <ele>860.79998779296875</ele>
        <time>2016-08-12T19:51:20.000Z</time>
        <extensions>
          <ns3:TrackPointExtension>
            <ns3:atemp>14.0</ns3:atemp>
            <ns3:hr>126</ns3:hr>
          </ns3:TrackPointExtension>
        </extensions>
      </trkpt>
      <trkpt lat="-22.02277600765228271484375" lon="166.46839021705090999603271484375">
        <ele>860.5999755859375</ele>
        <time>2016-08-12T19:51:21.000Z</time>
        <extensions>
          <ns3:TrackPointExtension>
            <ns3:atemp>14.0</ns3:atemp>
            <ns3:hr>125</ns3:hr>
          </ns3:TrackPointExtension>
        </extensions>
      </trkpt>
      <trkpt lat="-22.02276787720620632171630859375" lon="166.4683659933507442474365234375">
        <ele>860.4000244140625</ele>
        <time>2016-08-12T19:51:22.000Z</time>
        <extensions>
          <ns3:TrackPointExtension>
            <ns3:atemp>14.0</ns3:atemp>
            <ns3:hr>126</ns3:hr>
          </ns3:TrackPointExtension>
        </extensions>
      </trkpt>
      <trkpt lat="-22.022761590778827667236328125" lon="166.46833992563188076019287109375">
        <ele>860.20001220703125</ele>
        <time>2016-08-12T19:51:23.000Z</time>
        <extensions>
          <ns3:TrackPointExtension>
            <ns3:atemp>14.0</ns3:atemp>
            <ns3:hr>125</ns3:hr>
          </ns3:TrackPointExtension>
        </extensions>
      </trkpt>
      <trkpt lat="-22.02275597490370273590087890625" lon="166.4683160372078418731689453125">
        <ele>860</ele>
        <time>2016-08-12T19:51:24.000Z</time>
        <extensions>
          <ns3:TrackPointExtension>
            <ns3:atemp>14.0</ns3:atemp>
            <ns3:hr>126</ns3:hr>
          </ns3:TrackPointExtension>
        </extensions>
      </trkpt>
      <trkpt lat="-22.02274574898183345794677734375" lon="166.4682918973267078399658203125">
        <ele>859.79998779296875</ele>
        <time>2016-08-12T19:51:25.000Z</time>
        <extensions>
          <ns3:TrackPointExtension>
            <ns3:atemp>14.0</ns3:atemp>
            <ns3:hr>126</ns3:hr>
          </ns3:TrackPointExtension>
        </extensions>
      </trkpt>
      <trkpt lat="-22.02273778617382049560546875" lon="166.46826826035976409912109375">
        <ele>859.5999755859375</ele>
        <time>2016-08-12T19:51:26.000Z</time>
        <extensions>
          <ns3:TrackPointExtension>
            <ns3:atemp>14.0</ns3:atemp>
            <ns3:hr>126</ns3:hr>
          </ns3:TrackPointExtension>
        </extensions>
      </trkpt>
      <trkpt lat="-22.02272797934710979461669921875" lon="166.468247808516025543212890625">
        <ele>859.5999755859375</ele>
        <time>2016-08-12T19:51:27.000Z</time>
        <extensions>
          <ns3:TrackPointExtension>
            <ns3:atemp>14.0</ns3:atemp>
            <ns3:hr>126</ns3:hr>
          </ns3:TrackPointExtension>
        </extensions>
      </trkpt>
      <trkpt lat="-22.0227064378559589385986328125" lon="166.46822727285325527191162109375">
        <ele>859.4000244140625</ele>
        <time>2016-08-12T19:51:28.000Z</time>
        <extensions>
          <ns3:TrackPointExtension>
            <ns3:atemp>14.0</ns3:atemp>
            <ns3:hr>125</ns3:hr>
          </ns3:TrackPointExtension>
        </extensions>
      </trkpt>
      <trkpt lat="-22.02268774621188640594482421875" lon="166.46820724010467529296875">
        <ele>859.20001220703125</ele>
        <time>2016-08-12T19:51:29.000Z</time>
        <extensions>
          <ns3:TrackPointExtension>
            <ns3:atemp>14.0</ns3:atemp>
            <ns3:hr>126</ns3:hr>
          </ns3:TrackPointExtension>
        </extensions>
      </trkpt>
      <trkpt lat="-22.02267249114811420440673828125" lon="166.46818754263222217559814453125">
        <ele>859.20001220703125</ele>
        <time>2016-08-12T19:51:30.000Z</time>
        <extensions>
          <ns3:TrackPointExtension>
            <ns3:atemp>14.0</ns3:atemp>
            <ns3:hr>125</ns3:hr>
          </ns3:TrackPointExtension>
        </extensions>
      </trkpt>
      <trkpt lat="-22.0226507820188999176025390625" lon="166.46816642023622989654541015625">
        <ele>858.79998779296875</ele>
        <time>2016-08-12T19:51:31.000Z</time>
        <extensions>
          <ns3:TrackPointExtension>
            <ns3:atemp>14.0</ns3:atemp>
            <ns3:hr>126</ns3:hr>
          </ns3:TrackPointExtension>
        </extensions>
      </trkpt>
      <trkpt lat="-22.02263594605028629302978515625" lon="166.46814445964992046356201171875">
        <ele>858.5999755859375</ele>
        <time>2016-08-12T19:51:32.000Z</time>
        <extensions>
          <ns3:TrackPointExtension>
            <ns3:atemp>14.0</ns3:atemp>
            <ns3:hr>125</ns3:hr>
          </ns3:TrackPointExtension>
        </extensions>
      </trkpt>
      <trkpt lat="-22.0226202718913555145263671875" lon="166.46812300197780132293701171875">
        <ele>858.5999755859375</ele>
        <time>2016-08-12T19:51:33.000Z</time>
        <extensions>
          <ns3:TrackPointExtension>
            <ns3:atemp>14.0</ns3:atemp>
            <ns3:hr>125</ns3:hr>
          </ns3:TrackPointExtension>
        </extensions>
      </trkpt>
      <trkpt lat="-22.0226041786372661590576171875" lon="166.46810137666761875152587890625">
        <ele>858.4000244140625</ele>
        <time>2016-08-12T19:51:34.000Z</time>
        <extensions>
          <ns3:TrackPointExtension>
            <ns3:atemp>14.0</ns3:atemp>
            <ns3:hr>125</ns3:hr>
          </ns3:TrackPointExtension>
        </extensions>
      </trkpt>
      <trkpt lat="-22.022588588297367095947265625" lon="166.46807941608130931854248046875">
        <ele>857.79998779296875</ele>
        <time>2016-08-12T19:51:35.000Z</time>
        <extensions>
          <ns3:TrackPointExtension>
            <ns3:atemp>14.0</ns3:atemp>
            <ns3:hr>125</ns3:hr>
          </ns3:TrackPointExtension>
        </extensions>
      </trkpt>
      <trkpt lat="-22.0225788652896881103515625" lon="166.46805712021887302398681640625">
        <ele>857.5999755859375</ele>
        <time>2016-08-12T19:51:36.000Z</time>
        <extensions>
          <ns3:TrackPointExtension>
            <ns3:atemp>14.0</ns3:atemp>
            <ns3:hr>125</ns3:hr>
          </ns3:TrackPointExtension>
        </extensions>
      </trkpt>
      <trkpt lat="-22.02256687916815280914306640625" lon="166.4680333994328975677490234375">
        <ele>857.5999755859375</ele>
        <time>2016-08-12T19:51:37.000Z</time>
        <extensions>
          <ns3:TrackPointExtension>
            <ns3:atemp>14.0</ns3:atemp>
            <ns3:hr>125</ns3:hr>
          </ns3:TrackPointExtension>
        </extensions>
      </trkpt>
      <trkpt lat="-22.02256076037883758544921875" lon="166.468010433018207550048828125">
        <ele>857.4000244140625</ele>
        <time>2016-08-12T19:51:38.000Z</time>
        <extensions>
          <ns3:TrackPointExtension>
            <ns3:atemp>14.0</ns3:atemp>
            <ns3:hr>125</ns3:hr>
          </ns3:TrackPointExtension>
        </extensions>
      </trkpt>
      <trkpt lat="-22.0225545577704906463623046875" lon="166.4679867960512638092041015625">
        <ele>857.4000244140625</ele>
        <time>2016-08-12T19:51:39.000Z</time>
        <extensions>
          <ns3:TrackPointExtension>
            <ns3:atemp>14.0</ns3:atemp>
            <ns3:hr>125</ns3:hr>
          </ns3:TrackPointExtension>
        </extensions>
      </trkpt>
      <trkpt lat="-22.02254760079085826873779296875" lon="166.46796123124659061431884765625">
        <ele>857</ele>
        <time>2016-08-12T19:51:40.000Z</time>
        <extensions>
          <ns3:TrackPointExtension>
            <ns3:atemp>14.0</ns3:atemp>
            <ns3:hr>125</ns3:hr>
          </ns3:TrackPointExtension>
        </extensions>
      </trkpt>
      <trkpt lat="-22.0225359499454498291015625" lon="166.46793893538415431976318359375">
        <ele>856.79998779296875</ele>
        <time>2016-08-12T19:51:41.000Z</time>
        <extensions>
          <ns3:TrackPointExtension>
            <ns3:atemp>14.0</ns3:atemp>
            <ns3:hr>125</ns3:hr>
          </ns3:TrackPointExtension>
        </extensions>
      </trkpt>
      <trkpt lat="-22.0225247181951999664306640625" lon="166.46791823208332061767578125">
        <ele>856.5999755859375</ele>
        <time>2016-08-12T19:51:42.000Z</time>
        <extensions>
          <ns3:TrackPointExtension>
            <ns3:atemp>14.0</ns3:atemp>
            <ns3:hr>125</ns3:hr>
          </ns3:TrackPointExtension>
        </extensions>
      </trkpt>
      <trkpt lat="-22.02250351198017597198486328125" lon="166.46789769642055034637451171875">
        <ele>856.20001220703125</ele>
        <time>2016-08-12T19:51:43.000Z</time>
        <extensions>
          <ns3:TrackPointExtension>
            <ns3:atemp>14.0</ns3:atemp>
            <ns3:hr>124</ns3:hr>
          </ns3:TrackPointExtension>
        </extensions>
      </trkpt>
      <trkpt lat="-22.0224871672689914703369140625" lon="166.467877328395843505859375">
        <ele>856</ele>
        <time>2016-08-12T19:51:44.000Z</time>
        <extensions>
          <ns3:TrackPointExtension>
            <ns3:atemp>14.0</ns3:atemp>
            <ns3:hr>124</ns3:hr>
          </ns3:TrackPointExtension>
        </extensions>
      </trkpt>
      <trkpt lat="-22.0224744267761707305908203125" lon="166.46785427816212177276611328125">
        <ele>855.79998779296875</ele>
        <time>2016-08-12T19:51:45.000Z</time>
        <extensions>
          <ns3:TrackPointExtension>
            <ns3:atemp>14.0</ns3:atemp>
            <ns3:hr>124</ns3:hr>
          </ns3:TrackPointExtension>
        </extensions>
      </trkpt>
      <trkpt lat="-22.022461183369159698486328125" lon="166.46782879717648029327392578125">
        <ele>855.5999755859375</ele>
        <time>2016-08-12T19:51:46.000Z</time>
        <extensions>
          <ns3:TrackPointExtension>
            <ns3:atemp>14.0</ns3:atemp>
            <ns3:hr>124</ns3:hr>
          </ns3:TrackPointExtension>
        </extensions>
      </trkpt>
      <trkpt lat="-22.0224462635815143585205078125" lon="166.46780884824693202972412109375">
        <ele>855.5999755859375</ele>
        <time>2016-08-12T19:51:47.000Z</time>
        <extensions>
          <ns3:TrackPointExtension>
            <ns3:atemp>14.0</ns3:atemp>
            <ns3:hr>124</ns3:hr>
          </ns3:TrackPointExtension>
        </extensions>
      </trkpt>
      <trkpt lat="-22.022422961890697479248046875" lon="166.46778873167932033538818359375">
        <ele>855.4000244140625</ele>
        <time>2016-08-12T19:51:48.000Z</time>
        <extensions>
          <ns3:TrackPointExtension>
            <ns3:atemp>14.0</ns3:atemp>
            <ns3:hr>124</ns3:hr>
          </ns3:TrackPointExtension>
        </extensions>
      </trkpt>
      <trkpt lat="-22.0223966427147388458251953125" lon="166.467769704759120941162109375">
        <ele>855.20001220703125</ele>
        <time>2016-08-12T19:51:49.000Z</time>
        <extensions>
          <ns3:TrackPointExtension>
            <ns3:atemp>14.0</ns3:atemp>
            <ns3:hr>125</ns3:hr>
          </ns3:TrackPointExtension>
        </extensions>
      </trkpt>
      <trkpt lat="-22.02236772514879703521728515625" lon="166.46775855682790279388427734375">
        <ele>855</ele>
        <time>2016-08-12T19:51:50.000Z</time>
        <extensions>
          <ns3:TrackPointExtension>
            <ns3:atemp>14.0</ns3:atemp>
            <ns3:hr>124</ns3:hr>
          </ns3:TrackPointExtension>
        </extensions>
      </trkpt>
      <trkpt lat="-22.0223374664783477783203125" lon="166.46775034256279468536376953125">
        <ele>855.20001220703125</ele>
        <time>2016-08-12T19:51:51.000Z</time>
        <extensions>
          <ns3:TrackPointExtension>
            <ns3:atemp>14.0</ns3:atemp>
            <ns3:hr>125</ns3:hr>
          </ns3:TrackPointExtension>
        </extensions>
      </trkpt>
      <trkpt lat="-22.0223098061978816986083984375" lon="166.46774413995444774627685546875">
        <ele>855.4000244140625</ele>
        <time>2016-08-12T19:51:52.000Z</time>
        <extensions>
          <ns3:TrackPointExtension>
            <ns3:atemp>14.0</ns3:atemp>
            <ns3:hr>125</ns3:hr>
          </ns3:TrackPointExtension>
        </extensions>
      </trkpt>
      <trkpt lat="-22.02228239737451076507568359375" lon="166.46773827262222766876220703125">
        <ele>855.20001220703125</ele>
        <time>2016-08-12T19:51:53.000Z</time>
        <extensions>
          <ns3:TrackPointExtension>
            <ns3:atemp>14.0</ns3:atemp>
            <ns3:hr>125</ns3:hr>
          </ns3:TrackPointExtension>
        </extensions>
      </trkpt>
      <trkpt lat="-22.02225473709404468536376953125" lon="166.46773626096546649932861328125">
        <ele>854.79998779296875</ele>
        <time>2016-08-12T19:51:54.000Z</time>
        <extensions>
          <ns3:TrackPointExtension>
            <ns3:atemp>14.0</ns3:atemp>
            <ns3:hr>125</ns3:hr>
          </ns3:TrackPointExtension>
        </extensions>
      </trkpt>
      <trkpt lat="-22.02222674153745174407958984375" lon="166.467739529907703399658203125">
        <ele>854.79998779296875</ele>
        <time>2016-08-12T19:51:55.000Z</time>
        <extensions>
          <ns3:TrackPointExtension>
            <ns3:atemp>14.0</ns3:atemp>
            <ns3:hr>125</ns3:hr>
          </ns3:TrackPointExtension>
        </extensions>
      </trkpt>
      <trkpt lat="-22.0221974886953830718994140625" lon="166.4677427150309085845947265625">
        <ele>855</ele>
        <time>2016-08-12T19:51:56.000Z</time>
        <extensions>
          <ns3:TrackPointExtension>
            <ns3:atemp>14.0</ns3:atemp>
            <ns3:hr>125</ns3:hr>
          </ns3:TrackPointExtension>
        </extensions>
      </trkpt>
      <trkpt lat="-22.02216756530106067657470703125" lon="166.46774430759251117706298828125">
        <ele>855</ele>
        <time>2016-08-12T19:51:57.000Z</time>
        <extensions>
          <ns3:TrackPointExtension>
            <ns3:atemp>14.0</ns3:atemp>
            <ns3:hr>125</ns3:hr>
          </ns3:TrackPointExtension>
        </extensions>
      </trkpt>
      <trkpt lat="-22.02214174903929233551025390625" lon="166.4677480794489383697509765625">
        <ele>854.79998779296875</ele>
        <time>2016-08-12T19:51:58.000Z</time>
        <extensions>
          <ns3:TrackPointExtension>
            <ns3:atemp>14.0</ns3:atemp>
            <ns3:hr>125</ns3:hr>
          </ns3:TrackPointExtension>
        </extensions>
      </trkpt>
      <trkpt lat="-22.0221150107681751251220703125" lon="166.46774715743958950042724609375">
        <ele>854.79998779296875</ele>
        <time>2016-08-12T19:51:59.000Z</time>
        <extensions>
          <ns3:TrackPointExtension>
            <ns3:atemp>14.0</ns3:atemp>
            <ns3:hr>125</ns3:hr>
          </ns3:TrackPointExtension>
        </extensions>
      </trkpt>
      <trkpt lat="-22.02209145762026309967041015625" lon="166.467746905982494354248046875">
        <ele>855.20001220703125</ele>
        <time>2016-08-12T19:52:00.000Z</time>
        <extensions>
          <ns3:TrackPointExtension>
            <ns3:atemp>14.0</ns3:atemp>
            <ns3:hr>125</ns3:hr>
          </ns3:TrackPointExtension>
        </extensions>
      </trkpt>
      <trkpt lat="-22.022065557539463043212890625" lon="166.4677500911056995391845703125">
        <ele>855.20001220703125</ele>
        <time>2016-08-12T19:52:01.000Z</time>
        <extensions>
          <ns3:TrackPointExtension>
            <ns3:atemp>14.0</ns3:atemp>
            <ns3:hr>126</ns3:hr>
          </ns3:TrackPointExtension>
        </extensions>
      </trkpt>
      <trkpt lat="-22.0220397412776947021484375" lon="166.46775059401988983154296875">
        <ele>854.79998779296875</ele>
        <time>2016-08-12T19:52:02.000Z</time>
        <extensions>
          <ns3:TrackPointExtension>
            <ns3:atemp>14.0</ns3:atemp>
            <ns3:hr>126</ns3:hr>
          </ns3:TrackPointExtension>
        </extensions>
      </trkpt>
      <trkpt lat="-22.02201367355883121490478515625" lon="166.46775051020085811614990234375">
        <ele>855</ele>
        <time>2016-08-12T19:52:03.000Z</time>
        <extensions>
          <ns3:TrackPointExtension>
            <ns3:atemp>14.0</ns3:atemp>
            <ns3:hr>126</ns3:hr>
          </ns3:TrackPointExtension>
        </extensions>
      </trkpt>
      <trkpt lat="-22.02198752202093601226806640625" lon="166.4677470736205577850341796875">
        <ele>855.20001220703125</ele>
        <time>2016-08-12T19:52:04.000Z</time>
        <extensions>
          <ns3:TrackPointExtension>
            <ns3:atemp>14.0</ns3:atemp>
            <ns3:hr>126</ns3:hr>
          </ns3:TrackPointExtension>
        </extensions>
      </trkpt>
      <trkpt lat="-22.02196396887302398681640625" lon="166.4677390269935131072998046875">
        <ele>855.20001220703125</ele>
        <time>2016-08-12T19:52:05.000Z</time>
        <extensions>
          <ns3:TrackPointExtension>
            <ns3:atemp>14.0</ns3:atemp>
            <ns3:hr>126</ns3:hr>
          </ns3:TrackPointExtension>
        </extensions>
      </trkpt>
      <trkpt lat="-22.0219383202493190765380859375" lon="166.4677400328218936920166015625">
        <ele>854.79998779296875</ele>
        <time>2016-08-12T19:52:06.000Z</time>
        <extensions>
          <ns3:TrackPointExtension>
            <ns3:atemp>14.0</ns3:atemp>
            <ns3:hr>126</ns3:hr>
          </ns3:TrackPointExtension>
        </extensions>
      </trkpt>
      <trkpt lat="-22.02191174961626529693603515625" lon="166.46774112246930599212646484375">
        <ele>854.79998779296875</ele>
        <time>2016-08-12T19:52:07.000Z</time>
        <extensions>
          <ns3:TrackPointExtension>
            <ns3:atemp>14.0</ns3:atemp>
            <ns3:hr>126</ns3:hr>
          </ns3:TrackPointExtension>
        </extensions>
      </trkpt>
      <trkpt lat="-22.02188828028738498687744140625" lon="166.4677380211651325225830078125">
        <ele>855</ele>
        <time>2016-08-12T19:52:08.000Z</time>
        <extensions>
          <ns3:TrackPointExtension>
            <ns3:atemp>14.0</ns3:atemp>
            <ns3:hr>126</ns3:hr>
          </ns3:TrackPointExtension>
        </extensions>
      </trkpt>
      <trkpt lat="-22.02186631970107555389404296875" lon="166.46773693151772022247314453125">
        <ele>854.79998779296875</ele>
        <time>2016-08-12T19:52:09.000Z</time>
        <extensions>
          <ns3:TrackPointExtension>
            <ns3:atemp>14.0</ns3:atemp>
            <ns3:hr>126</ns3:hr>
          </ns3:TrackPointExtension>
        </extensions>
      </trkpt>
      <trkpt lat="-22.021843604743480682373046875" lon="166.46773927845060825347900390625">
        <ele>854.79998779296875</ele>
        <time>2016-08-12T19:52:10.000Z</time>
        <extensions>
          <ns3:TrackPointExtension>
            <ns3:atemp>14.0</ns3:atemp>
            <ns3:hr>126</ns3:hr>
          </ns3:TrackPointExtension>
        </extensions>
      </trkpt>
      <trkpt lat="-22.02182072214782238006591796875" lon="166.46773844026029109954833984375">
        <ele>854.79998779296875</ele>
        <time>2016-08-12T19:52:11.000Z</time>
        <extensions>
          <ns3:TrackPointExtension>
            <ns3:atemp>14.0</ns3:atemp>
            <ns3:hr>126</ns3:hr>
          </ns3:TrackPointExtension>
        </extensions>
      </trkpt>
      <trkpt lat="-22.021797336637973785400390625" lon="166.4677380211651325225830078125">
        <ele>854.4000244140625</ele>
        <time>2016-08-12T19:52:12.000Z</time>
        <extensions>
          <ns3:TrackPointExtension>
            <ns3:atemp>14.0</ns3:atemp>
            <ns3:hr>126</ns3:hr>
          </ns3:TrackPointExtension>
        </extensions>
      </trkpt>
      <trkpt lat="-22.02177361585199832916259765625" lon="166.46773274056613445281982421875">
        <ele>854.4000244140625</ele>
        <time>2016-08-12T19:52:13.000Z</time>
        <extensions>
          <ns3:TrackPointExtension>
            <ns3:atemp>14.0</ns3:atemp>
            <ns3:hr>126</ns3:hr>
          </ns3:TrackPointExtension>
        </extensions>
      </trkpt>
      <trkpt lat="-22.021748386323451995849609375" lon="166.46772804670035839080810546875">
        <ele>854.4000244140625</ele>
        <time>2016-08-12T19:52:14.000Z</time>
        <extensions>
          <ns3:TrackPointExtension>
            <ns3:atemp>14.0</ns3:atemp>
            <ns3:hr>127</ns3:hr>
          </ns3:TrackPointExtension>
        </extensions>
      </trkpt>
      <trkpt lat="-22.02172902412712574005126953125" lon="166.467716731131076812744140625">
        <ele>854.20001220703125</ele>
        <time>2016-08-12T19:52:15.000Z</time>
        <extensions>
          <ns3:TrackPointExtension>
            <ns3:atemp>14.0</ns3:atemp>
            <ns3:hr>127</ns3:hr>
          </ns3:TrackPointExtension>
        </extensions>
      </trkpt>
      <trkpt lat="-22.021722234785556793212890625" lon="166.4676954410970211029052734375">
        <ele>854</ele>
        <time>2016-08-12T19:52:16.000Z</time>
        <extensions>
          <ns3:TrackPointExtension>
            <ns3:atemp>14.0</ns3:atemp>
            <ns3:hr>127</ns3:hr>
          </ns3:TrackPointExtension>
        </extensions>
      </trkpt>
      <trkpt lat="-22.02171544544398784637451171875" lon="166.46767205558717250823974609375">
        <ele>853.79998779296875</ele>
        <time>2016-08-12T19:52:17.000Z</time>
        <extensions>
          <ns3:TrackPointExtension>
            <ns3:atemp>14.0</ns3:atemp>
            <ns3:hr>127</ns3:hr>
          </ns3:TrackPointExtension>
        </extensions>
      </trkpt>
      <trkpt lat="-22.0217146910727024078369140625" lon="166.4676501788198947906494140625">
        <ele>853.5999755859375</ele>
        <time>2016-08-12T19:52:18.000Z</time>
        <extensions>
          <ns3:TrackPointExtension>
            <ns3:atemp>14.0</ns3:atemp>
            <ns3:hr>127</ns3:hr>
          </ns3:TrackPointExtension>
        </extensions>
      </trkpt>
      <trkpt lat="-22.0217130146920680999755859375" lon="166.4676317386329174041748046875">
        <ele>853.4000244140625</ele>
        <time>2016-08-12T19:52:19.000Z</time>
        <extensions>
          <ns3:TrackPointExtension>
            <ns3:atemp>14.0</ns3:atemp>
            <ns3:hr>127</ns3:hr>
          </ns3:TrackPointExtension>
        </extensions>
      </trkpt>
      <trkpt lat="-22.02171628363430500030517578125" lon="166.4676075987517833709716796875">
        <ele>853.4000244140625</ele>
        <time>2016-08-12T19:52:20.000Z</time>
        <extensions>
          <ns3:TrackPointExtension>
            <ns3:atemp>14.0</ns3:atemp>
            <ns3:hr>127</ns3:hr>
          </ns3:TrackPointExtension>
        </extensions>
      </trkpt>
      <trkpt lat="-22.02171762473881244659423828125" lon="166.46758295595645904541015625">
        <ele>853.4000244140625</ele>
        <time>2016-08-12T19:52:21.000Z</time>
        <extensions>
          <ns3:TrackPointExtension>
            <ns3:atemp>14.0</ns3:atemp>
            <ns3:hr>127</ns3:hr>
          </ns3:TrackPointExtension>
        </extensions>
      </trkpt>
      <trkpt lat="-22.021714858710765838623046875" lon="166.4675579778850078582763671875">
        <ele>853.20001220703125</ele>
        <time>2016-08-12T19:52:22.000Z</time>
        <extensions>
          <ns3:TrackPointExtension>
            <ns3:atemp>14.0</ns3:atemp>
            <ns3:hr>128</ns3:hr>
          </ns3:TrackPointExtension>
        </extensions>
      </trkpt>
      <trkpt lat="-22.02172416262328624725341796875" lon="166.46753023378551006317138671875">
        <ele>853.20001220703125</ele>
        <time>2016-08-12T19:52:23.000Z</time>
        <extensions>
          <ns3:TrackPointExtension>
            <ns3:atemp>14.0</ns3:atemp>
            <ns3:hr>128</ns3:hr>
          </ns3:TrackPointExtension>
        </extensions>
      </trkpt>
      <trkpt lat="-22.0217311196029186248779296875" lon="166.46750123240053653717041015625">
        <ele>853.20001220703125</ele>
        <time>2016-08-12T19:52:24.000Z</time>
        <extensions>
          <ns3:TrackPointExtension>
            <ns3:atemp>14.0</ns3:atemp>
            <ns3:hr>128</ns3:hr>
          </ns3:TrackPointExtension>
        </extensions>
      </trkpt>
      <trkpt lat="-22.02174243517220020294189453125" lon="166.4674723148345947265625">
        <ele>853.20001220703125</ele>
        <time>2016-08-12T19:52:25.000Z</time>
        <extensions>
          <ns3:TrackPointExtension>
            <ns3:atemp>14.0</ns3:atemp>
            <ns3:hr>128</ns3:hr>
          </ns3:TrackPointExtension>
        </extensions>
      </trkpt>
      <trkpt lat="-22.021746374666690826416015625" lon="166.46744289435446262359619140625">
        <ele>853.20001220703125</ele>
        <time>2016-08-12T19:52:26.000Z</time>
        <extensions>
          <ns3:TrackPointExtension>
            <ns3:atemp>14.0</ns3:atemp>
            <ns3:hr>129</ns3:hr>
          </ns3:TrackPointExtension>
        </extensions>
      </trkpt>
      <trkpt lat="-22.021747045218944549560546875" lon="166.46741741336882114410400390625">
        <ele>853.20001220703125</ele>
        <time>2016-08-12T19:52:27.000Z</time>
        <extensions>
          <ns3:TrackPointExtension>
            <ns3:atemp>14.0</ns3:atemp>
            <ns3:hr>129</ns3:hr>
          </ns3:TrackPointExtension>
        </extensions>
      </trkpt>
      <trkpt lat="-22.02175333164632320404052734375" lon="166.4673879928886890411376953125">
        <ele>853</ele>
        <time>2016-08-12T19:52:28.000Z</time>
        <extensions>
          <ns3:TrackPointExtension>
            <ns3:atemp>14.0</ns3:atemp>
            <ns3:hr>129</ns3:hr>
          </ns3:TrackPointExtension>
        </extensions>
      </trkpt>
      <trkpt lat="-22.02175232581794261932373046875" lon="166.4673578180372714996337890625">
        <ele>852.5999755859375</ele>
        <time>2016-08-12T19:52:29.000Z</time>
        <extensions>
          <ns3:TrackPointExtension>
            <ns3:atemp>14.0</ns3:atemp>
            <ns3:hr>129</ns3:hr>
          </ns3:TrackPointExtension>
        </extensions>
      </trkpt>
      <trkpt lat="-22.02175266109406948089599609375" lon="166.467330493032932281494140625">
        <ele>852.5999755859375</ele>
        <time>2016-08-12T19:52:30.000Z</time>
        <extensions>
          <ns3:TrackPointExtension>
            <ns3:atemp>14.0</ns3:atemp>
            <ns3:hr>129</ns3:hr>
          </ns3:TrackPointExtension>
        </extensions>
      </trkpt>
      <trkpt lat="-22.02174159698188304901123046875" lon="166.46730291657149791717529296875">
        <ele>852.79998779296875</ele>
        <time>2016-08-12T19:52:31.000Z</time>
        <extensions>
          <ns3:TrackPointExtension>
            <ns3:atemp>14.0</ns3:atemp>
            <ns3:hr>129</ns3:hr>
          </ns3:TrackPointExtension>
        </extensions>
      </trkpt>
      <trkpt lat="-22.0217314548790454864501953125" lon="166.46727575920522212982177734375">
        <ele>852.79998779296875</ele>
        <time>2016-08-12T19:52:32.000Z</time>
        <extensions>
          <ns3:TrackPointExtension>
            <ns3:atemp>14.0</ns3:atemp>
            <ns3:hr>129</ns3:hr>
          </ns3:TrackPointExtension>
        </extensions>
      </trkpt>
      <trkpt lat="-22.02171796001493930816650390625" lon="166.4672512002289295196533203125">
        <ele>852.4000244140625</ele>
        <time>2016-08-12T19:52:33.000Z</time>
        <extensions>
          <ns3:TrackPointExtension>
            <ns3:atemp>14.0</ns3:atemp>
            <ns3:hr>130</ns3:hr>
          </ns3:TrackPointExtension>
        </extensions>
      </trkpt>
      <trkpt lat="-22.0217012800276279449462890625" lon="166.4672257192432880401611328125">
        <ele>852.5999755859375</ele>
        <time>2016-08-12T19:52:34.000Z</time>
        <extensions>
          <ns3:TrackPointExtension>
            <ns3:atemp>14.0</ns3:atemp>
            <ns3:hr>130</ns3:hr>
          </ns3:TrackPointExtension>
        </extensions>
      </trkpt>
      <trkpt lat="-22.02167605049908161163330078125" lon="166.4672029204666614532470703125">
        <ele>853</ele>
        <time>2016-08-12T19:52:35.000Z</time>
        <extensions>
          <ns3:TrackPointExtension>
            <ns3:atemp>14.0</ns3:atemp>
            <ns3:hr>130</ns3:hr>
          </ns3:TrackPointExtension>
        </extensions>
      </trkpt>
      <trkpt lat="-22.02166029252111911773681640625" lon="166.4671787805855274200439453125">
        <ele>852.79998779296875</ele>
        <time>2016-08-12T19:52:36.000Z</time>
        <extensions>
          <ns3:TrackPointExtension>
            <ns3:atemp>14.0</ns3:atemp>
            <ns3:hr>130</ns3:hr>
          </ns3:TrackPointExtension>
        </extensions>
      </trkpt>
      <trkpt lat="-22.021630369126796722412109375" lon="166.46715757437050342559814453125">
        <ele>852.5999755859375</ele>
        <time>2016-08-12T19:52:37.000Z</time>
        <extensions>
          <ns3:TrackPointExtension>
            <ns3:atemp>14.0</ns3:atemp>
            <ns3:hr>131</ns3:hr>
          </ns3:TrackPointExtension>
        </extensions>
      </trkpt>
      <trkpt lat="-22.0215960033237934112548828125" lon="166.4671388827264308929443359375">
        <ele>852.5999755859375</ele>
        <time>2016-08-12T19:52:38.000Z</time>
        <extensions>
          <ns3:TrackPointExtension>
            <ns3:atemp>14.0</ns3:atemp>
            <ns3:hr>131</ns3:hr>
          </ns3:TrackPointExtension>
        </extensions>
      </trkpt>
      <trkpt lat="-22.021554596722126007080078125" lon="166.46712605841457843780517578125">
        <ele>852.79998779296875</ele>
        <time>2016-08-12T19:52:39.000Z</time>
        <extensions>
          <ns3:TrackPointExtension>
            <ns3:atemp>14.0</ns3:atemp>
            <ns3:hr>131</ns3:hr>
          </ns3:TrackPointExtension>
        </extensions>
      </trkpt>
      <trkpt lat="-22.02151830308139324188232421875" lon="166.46711884997785091400146484375">
        <ele>852.5999755859375</ele>
        <time>2016-08-12T19:52:40.000Z</time>
        <extensions>
          <ns3:TrackPointExtension>
            <ns3:atemp>14.0</ns3:atemp>
            <ns3:hr>131</ns3:hr>
          </ns3:TrackPointExtension>
        </extensions>
      </trkpt>
      <trkpt lat="-22.02148276381194591522216796875" lon="166.467118598520755767822265625">
        <ele>852.4000244140625</ele>
        <time>2016-08-12T19:52:41.000Z</time>
        <extensions>
          <ns3:TrackPointExtension>
            <ns3:atemp>14.0</ns3:atemp>
            <ns3:hr>132</ns3:hr>
          </ns3:TrackPointExtension>
        </extensions>
      </trkpt>
      <trkpt lat="-22.02145191840827465057373046875" lon="166.46712186746299266815185546875">
        <ele>852.5999755859375</ele>
        <time>2016-08-12T19:52:42.000Z</time>
        <extensions>
          <ns3:TrackPointExtension>
            <ns3:atemp>14.0</ns3:atemp>
            <ns3:hr>132</ns3:hr>
          </ns3:TrackPointExtension>
        </extensions>
      </trkpt>
      <trkpt lat="-22.02142124064266681671142578125" lon="166.46712505258619785308837890625">
        <ele>852.5999755859375</ele>
        <time>2016-08-12T19:52:43.000Z</time>
        <extensions>
          <ns3:TrackPointExtension>
            <ns3:atemp>14.0</ns3:atemp>
            <ns3:hr>132</ns3:hr>
          </ns3:TrackPointExtension>
        </extensions>
      </trkpt>
      <trkpt lat="-22.02139123342931270599365234375" lon="166.46713142283260822296142578125">
        <ele>852.4000244140625</ele>
        <time>2016-08-12T19:52:44.000Z</time>
        <extensions>
          <ns3:TrackPointExtension>
            <ns3:atemp>14.0</ns3:atemp>
            <ns3:hr>132</ns3:hr>
          </ns3:TrackPointExtension>
        </extensions>
      </trkpt>
      <trkpt lat="-22.02136726118624210357666015625" lon="166.46713376976549625396728515625">
        <ele>852.4000244140625</ele>
        <time>2016-08-12T19:52:45.000Z</time>
        <extensions>
          <ns3:TrackPointExtension>
            <ns3:atemp>14.0</ns3:atemp>
            <ns3:hr>132</ns3:hr>
          </ns3:TrackPointExtension>
        </extensions>
      </trkpt>
      <trkpt lat="-22.021346054971218109130859375" lon="166.46713661961257457733154296875">
        <ele>852.4000244140625</ele>
        <time>2016-08-12T19:52:46.000Z</time>
        <extensions>
          <ns3:TrackPointExtension>
            <ns3:atemp>14.0</ns3:atemp>
            <ns3:hr>133</ns3:hr>
          </ns3:TrackPointExtension>
        </extensions>
      </trkpt>
      <trkpt lat="-22.02132367528975009918212890625" lon="166.4671330153942108154296875">
        <ele>852.20001220703125</ele>
        <time>2016-08-12T19:52:47.000Z</time>
        <extensions>
          <ns3:TrackPointExtension>
            <ns3:atemp>14.0</ns3:atemp>
            <ns3:hr>133</ns3:hr>
          </ns3:TrackPointExtension>
        </extensions>
      </trkpt>
      <trkpt lat="-22.02130104415118694305419921875" lon="166.46713276393711566925048828125">
        <ele>852</ele>
        <time>2016-08-12T19:52:48.000Z</time>
        <extensions>
          <ns3:TrackPointExtension>
            <ns3:atemp>14.0</ns3:atemp>
            <ns3:hr>133</ns3:hr>
          </ns3:TrackPointExtension>
        </extensions>
      </trkpt>
      <trkpt lat="-22.0212798379361629486083984375" lon="166.4671291597187519073486328125">
        <ele>852.20001220703125</ele>
        <time>2016-08-12T19:52:49.000Z</time>
        <extensions>
          <ns3:TrackPointExtension>
            <ns3:atemp>14.0</ns3:atemp>
            <ns3:hr>133</ns3:hr>
          </ns3:TrackPointExtension>
        </extensions>
      </trkpt>
      <trkpt lat="-22.02125913463532924652099609375" lon="166.46712739951908588409423828125">
        <ele>852.4000244140625</ele>
        <time>2016-08-12T19:52:50.000Z</time>
        <extensions>
          <ns3:TrackPointExtension>
            <ns3:atemp>14.0</ns3:atemp>
            <ns3:hr>133</ns3:hr>
          </ns3:TrackPointExtension>
        </extensions>
      </trkpt>
      <trkpt lat="-22.0212389342486858367919921875" lon="166.46712698042392730712890625">
        <ele>852.20001220703125</ele>
        <time>2016-08-12T19:52:51.000Z</time>
        <extensions>
          <ns3:TrackPointExtension>
            <ns3:atemp>14.0</ns3:atemp>
            <ns3:hr>133</ns3:hr>
          </ns3:TrackPointExtension>
        </extensions>
      </trkpt>
      <trkpt lat="-22.02121320180594921112060546875" lon="166.467129997909069061279296875">
        <ele>852</ele>
        <time>2016-08-12T19:52:52.000Z</time>
        <extensions>
          <ns3:TrackPointExtension>
            <ns3:atemp>14.0</ns3:atemp>
            <ns3:hr>133</ns3:hr>
          </ns3:TrackPointExtension>
        </extensions>
      </trkpt>
      <trkpt lat="-22.021190486848354339599609375" lon="166.46713091991841793060302734375">
        <ele>852.20001220703125</ele>
        <time>2016-08-12T19:52:53.000Z</time>
        <extensions>
          <ns3:TrackPointExtension>
            <ns3:atemp>14.0</ns3:atemp>
            <ns3:hr>133</ns3:hr>
          </ns3:TrackPointExtension>
        </extensions>
      </trkpt>
      <trkpt lat="-22.0211695320904254913330078125" lon="166.46713427267968654632568359375">
        <ele>852</ele>
        <time>2016-08-12T19:52:54.000Z</time>
        <extensions>
          <ns3:TrackPointExtension>
            <ns3:atemp>14.0</ns3:atemp>
            <ns3:hr>132</ns3:hr>
          </ns3:TrackPointExtension>
        </extensions>
      </trkpt>
      <trkpt lat="-22.02114949934184551239013671875" lon="166.4671288244426250457763671875">
        <ele>851.79998779296875</ele>
        <time>2016-08-12T19:52:55.000Z</time>
        <extensions>
          <ns3:TrackPointExtension>
            <ns3:atemp>14.0</ns3:atemp>
            <ns3:hr>133</ns3:hr>
          </ns3:TrackPointExtension>
        </extensions>
      </trkpt>
      <trkpt lat="-22.02113089151680469512939453125" lon="166.46711884997785091400146484375">
        <ele>852</ele>
        <time>2016-08-12T19:52:56.000Z</time>
        <extensions>
          <ns3:TrackPointExtension>
            <ns3:atemp>14.0</ns3:atemp>
            <ns3:hr>133</ns3:hr>
          </ns3:TrackPointExtension>
        </extensions>
      </trkpt>
      <trkpt lat="-22.0211125351488590240478515625" lon="166.46711088716983795166015625">
        <ele>851.79998779296875</ele>
        <time>2016-08-12T19:52:57.000Z</time>
        <extensions>
          <ns3:TrackPointExtension>
            <ns3:atemp>14.0</ns3:atemp>
            <ns3:hr>133</ns3:hr>
          </ns3:TrackPointExtension>
        </extensions>
      </trkpt>
      <trkpt lat="-22.0210981182754039764404296875" lon="166.4670927822589874267578125">
        <ele>851.5999755859375</ele>
        <time>2016-08-12T19:52:58.000Z</time>
        <extensions>
          <ns3:TrackPointExtension>
            <ns3:atemp>14.0</ns3:atemp>
            <ns3:hr>133</ns3:hr>
          </ns3:TrackPointExtension>
        </extensions>
      </trkpt>
      <trkpt lat="-22.02108428813517093658447265625" lon="166.46707065403461456298828125">
        <ele>851.5999755859375</ele>
        <time>2016-08-12T19:52:59.000Z</time>
        <extensions>
          <ns3:TrackPointExtension>
            <ns3:atemp>14.0</ns3:atemp>
            <ns3:hr>133</ns3:hr>
          </ns3:TrackPointExtension>
        </extensions>
      </trkpt>
      <trkpt lat="-22.02107037417590618133544921875" lon="166.46704877726733684539794921875">
        <ele>851.5999755859375</ele>
        <time>2016-08-12T19:53:00.000Z</time>
        <extensions>
          <ns3:TrackPointExtension>
            <ns3:atemp>14.0</ns3:atemp>
            <ns3:hr>133</ns3:hr>
          </ns3:TrackPointExtension>
        </extensions>
      </trkpt>
      <trkpt lat="-22.02105897478759288787841796875" lon="166.46702832542359828948974609375">
        <ele>851.4000244140625</ele>
        <time>2016-08-12T19:53:01.000Z</time>
        <extensions>
          <ns3:TrackPointExtension>
            <ns3:atemp>14.0</ns3:atemp>
            <ns3:hr>133</ns3:hr>
          </ns3:TrackPointExtension>
        </extensions>
      </trkpt>
      <trkpt lat="-22.0210540294647216796875" lon="166.46701223216950893402099609375">
        <ele>851.4000244140625</ele>
        <time>2016-08-12T19:53:02.000Z</time>
        <extensions>
          <ns3:TrackPointExtension>
            <ns3:atemp>14.0</ns3:atemp>
            <ns3:hr>133</ns3:hr>
          </ns3:TrackPointExtension>
        </extensions>
      </trkpt>
      <trkpt lat="-22.02104170806705951690673828125" lon="166.4669943787157535552978515625">
        <ele>851.20001220703125</ele>
        <time>2016-08-12T19:53:03.000Z</time>
        <extensions>
          <ns3:TrackPointExtension>
            <ns3:atemp>14.0</ns3:atemp>
            <ns3:hr>133</ns3:hr>
          </ns3:TrackPointExtension>
        </extensions>
      </trkpt>
      <trkpt lat="-22.02103014104068279266357421875" lon="166.46697484888136386871337890625">
        <ele>851.20001220703125</ele>
        <time>2016-08-12T19:53:04.000Z</time>
        <extensions>
          <ns3:TrackPointExtension>
            <ns3:atemp>14.0</ns3:atemp>
            <ns3:hr>133</ns3:hr>
          </ns3:TrackPointExtension>
        </extensions>
      </trkpt>
      <trkpt lat="-22.0210183225572109222412109375" lon="166.46695205010473728179931640625">
        <ele>851</ele>
        <time>2016-08-12T19:53:05.000Z</time>
        <extensions>
          <ns3:TrackPointExtension>
            <ns3:atemp>14.0</ns3:atemp>
            <ns3:hr>133</ns3:hr>
          </ns3:TrackPointExtension>
        </extensions>
      </trkpt>
      <trkpt lat="-22.02099376358091831207275390625" lon="166.46692774258553981781005859375">
        <ele>851.20001220703125</ele>
        <time>2016-08-12T19:53:06.000Z</time>
        <extensions>
          <ns3:TrackPointExtension>
            <ns3:atemp>14.0</ns3:atemp>
            <ns3:hr>133</ns3:hr>
          </ns3:TrackPointExtension>
        </extensions>
      </trkpt>
      <trkpt lat="-22.02096593566238880157470703125" lon="166.46690209396183490753173828125">
        <ele>851.20001220703125</ele>
        <time>2016-08-12T19:53:07.000Z</time>
        <extensions>
          <ns3:TrackPointExtension>
            <ns3:atemp>14.0</ns3:atemp>
            <ns3:hr>133</ns3:hr>
          </ns3:TrackPointExtension>
        </extensions>
      </trkpt>
      <trkpt lat="-22.02093643136322498321533203125" lon="166.46688784472644329071044921875">
        <ele>850.79998779296875</ele>
        <time>2016-08-12T19:53:08.000Z</time>
        <extensions>
          <ns3:TrackPointExtension>
            <ns3:atemp>14.0</ns3:atemp>
            <ns3:hr>133</ns3:hr>
          </ns3:TrackPointExtension>
        </extensions>
      </trkpt>
      <trkpt lat="-22.0209086872637271881103515625" lon="166.46687996573746204376220703125">
        <ele>850.79998779296875</ele>
        <time>2016-08-12T19:53:09.000Z</time>
        <extensions>
          <ns3:TrackPointExtension>
            <ns3:atemp>14.0</ns3:atemp>
            <ns3:hr>133</ns3:hr>
          </ns3:TrackPointExtension>
        </extensions>
      </trkpt>
      <trkpt lat="-22.02088563703000545501708984375" lon="166.46686638705432415008544921875">
        <ele>851.20001220703125</ele>
        <time>2016-08-12T19:53:10.000Z</time>
        <extensions>
          <ns3:TrackPointExtension>
            <ns3:atemp>14.0</ns3:atemp>
            <ns3:hr>133</ns3:hr>
          </ns3:TrackPointExtension>
        </extensions>
      </trkpt>
      <trkpt lat="-22.0208604075014591217041015625" lon="166.46685901097953319549560546875">
        <ele>851</ele>
        <time>2016-08-12T19:53:11.000Z</time>
        <extensions>
          <ns3:TrackPointExtension>
            <ns3:atemp>14.0</ns3:atemp>
            <ns3:hr>133</ns3:hr>
          </ns3:TrackPointExtension>
        </extensions>
      </trkpt>
      <trkpt lat="-22.0208355970680713653564453125" lon="166.46685280837118625640869140625">
        <ele>850.79998779296875</ele>
        <time>2016-08-12T19:53:12.000Z</time>
        <extensions>
          <ns3:TrackPointExtension>
            <ns3:atemp>14.0</ns3:atemp>
            <ns3:hr>133</ns3:hr>
          </ns3:TrackPointExtension>
        </extensions>
      </trkpt>
      <trkpt lat="-22.02081271447241306304931640625" lon="166.4668485336005687713623046875">
        <ele>850.5999755859375</ele>
        <time>2016-08-12T19:53:13.000Z</time>
        <extensions>
          <ns3:TrackPointExtension>
            <ns3:atemp>14.0</ns3:atemp>
            <ns3:hr>133</ns3:hr>
          </ns3:TrackPointExtension>
        </extensions>
      </trkpt>
      <trkpt lat="-22.02078706584870815277099609375" lon="166.46685071289539337158203125">
        <ele>850.5999755859375</ele>
        <time>2016-08-12T19:53:14.000Z</time>
        <extensions>
          <ns3:TrackPointExtension>
            <ns3:atemp>14.0</ns3:atemp>
            <ns3:hr>132</ns3:hr>
          </ns3:TrackPointExtension>
        </extensions>
      </trkpt>
      <trkpt lat="-22.0207638479769229888916015625" lon="166.4668542332947254180908203125">
        <ele>850.4000244140625</ele>
        <time>2016-08-12T19:53:15.000Z</time>
        <extensions>
          <ns3:TrackPointExtension>
            <ns3:atemp>14.0</ns3:atemp>
            <ns3:hr>132</ns3:hr>
          </ns3:TrackPointExtension>
        </extensions>
      </trkpt>
      <trkpt lat="-22.02074356377124786376953125" lon="166.46685750223696231842041015625">
        <ele>850</ele>
        <time>2016-08-12T19:53:16.000Z</time>
        <extensions>
          <ns3:TrackPointExtension>
            <ns3:atemp>14.0</ns3:atemp>
            <ns3:hr>132</ns3:hr>
          </ns3:TrackPointExtension>
        </extensions>
      </trkpt>
      <trkpt lat="-22.02072604559361934661865234375" lon="166.4668585918843746185302734375">
        <ele>849.5999755859375</ele>
        <time>2016-08-12T19:53:17.000Z</time>
        <extensions>
          <ns3:TrackPointExtension>
            <ns3:atemp>14.0</ns3:atemp>
            <ns3:hr>132</ns3:hr>
          </ns3:TrackPointExtension>
        </extensions>
      </trkpt>
      <trkpt lat="-22.02070844359695911407470703125" lon="166.46686001680791378021240234375">
        <ele>849.5999755859375</ele>
        <time>2016-08-12T19:53:18.000Z</time>
        <extensions>
          <ns3:TrackPointExtension>
            <ns3:atemp>14.0</ns3:atemp>
            <ns3:hr>132</ns3:hr>
          </ns3:TrackPointExtension>
        </extensions>
      </trkpt>
      <trkpt lat="-22.0206910930573940277099609375" lon="166.4668616093695163726806640625">
        <ele>849.20001220703125</ele>
        <time>2016-08-12T19:53:19.000Z</time>
        <extensions>
          <ns3:TrackPointExtension>
            <ns3:atemp>14.0</ns3:atemp>
            <ns3:hr>131</ns3:hr>
          </ns3:TrackPointExtension>
        </extensions>
      </trkpt>
      <trkpt lat="-22.0206696353852748870849609375" lon="166.46686336956918239593505859375">
        <ele>849</ele>
        <time>2016-08-12T19:53:20.000Z</time>
        <extensions>
          <ns3:TrackPointExtension>
            <ns3:atemp>14.0</ns3:atemp>
            <ns3:hr>131</ns3:hr>
          </ns3:TrackPointExtension>
        </extensions>
      </trkpt>
      <trkpt lat="-22.02064960263669490814208984375" lon="166.4668646268546581268310546875">
        <ele>849</ele>
        <time>2016-08-12T19:53:21.000Z</time>
        <extensions>
          <ns3:TrackPointExtension>
            <ns3:atemp>14.0</ns3:atemp>
            <ns3:hr>131</ns3:hr>
          </ns3:TrackPointExtension>
        </extensions>
      </trkpt>
      <trkpt lat="-22.02063082717359066009521484375" lon="166.46685984916985034942626953125">
        <ele>848.79998779296875</ele>
        <time>2016-08-12T19:53:22.000Z</time>
        <extensions>
          <ns3:TrackPointExtension>
            <ns3:atemp>14.0</ns3:atemp>
            <ns3:hr>130</ns3:hr>
          </ns3:TrackPointExtension>
        </extensions>
      </trkpt>
      <trkpt lat="-22.0206136442720890045166015625" lon="166.46685532294213771820068359375">
        <ele>848.5999755859375</ele>
        <time>2016-08-12T19:53:23.000Z</time>
        <extensions>
          <ns3:TrackPointExtension>
            <ns3:atemp>14.0</ns3:atemp>
            <ns3:hr>130</ns3:hr>
          </ns3:TrackPointExtension>
        </extensions>
      </trkpt>
      <trkpt lat="-22.0206015743315219879150390625" lon="166.46685071289539337158203125">
        <ele>848.5999755859375</ele>
        <time>2016-08-12T19:53:24.000Z</time>
        <extensions>
          <ns3:TrackPointExtension>
            <ns3:atemp>14.0</ns3:atemp>
            <ns3:hr>130</ns3:hr>
          </ns3:TrackPointExtension>
        </extensions>
      </trkpt>
      <trkpt lat="-22.0205844752490520477294921875" lon="166.4668478630483150482177734375">
        <ele>848.4000244140625</ele>
        <time>2016-08-12T19:53:25.000Z</time>
        <extensions>
          <ns3:TrackPointExtension>
            <ns3:atemp>14.0</ns3:atemp>
            <ns3:hr>129</ns3:hr>
          </ns3:TrackPointExtension>
        </extensions>
      </trkpt>
      <trkpt lat="-22.02057282440364360809326171875" lon="166.46683637984097003936767578125">
        <ele>848</ele>
        <time>2016-08-12T19:53:26.000Z</time>
        <extensions>
          <ns3:TrackPointExtension>
            <ns3:atemp>14.0</ns3:atemp>
            <ns3:hr>129</ns3:hr>
          </ns3:TrackPointExtension>
        </extensions>
      </trkpt>
      <trkpt lat="-22.0205512829124927520751953125" lon="166.4668190293014049530029296875">
        <ele>848.20001220703125</ele>
        <time>2016-08-12T19:53:27.000Z</time>
        <extensions>
          <ns3:TrackPointExtension>
            <ns3:atemp>14.0</ns3:atemp>
            <ns3:hr>129</ns3:hr>
          </ns3:TrackPointExtension>
        </extensions>
      </trkpt>
      <trkpt lat="-22.02053024433553218841552734375" lon="166.46679849363863468170166015625">
        <ele>848.20001220703125</ele>
        <time>2016-08-12T19:53:28.000Z</time>
        <extensions>
          <ns3:TrackPointExtension>
            <ns3:atemp>14.0</ns3:atemp>
            <ns3:hr>128</ns3:hr>
          </ns3:TrackPointExtension>
        </extensions>
      </trkpt>
      <trkpt lat="-22.020538710057735443115234375" lon="166.46677770651876926422119140625">
        <ele>848</ele>
        <time>2016-08-12T19:53:29.000Z</time>
        <extensions>
          <ns3:TrackPointExtension>
            <ns3:atemp>14.0</ns3:atemp>
            <ns3:hr>128</ns3:hr>
          </ns3:TrackPointExtension>
        </extensions>
      </trkpt>
      <trkpt lat="-22.02053560875356197357177734375" lon="166.4667593501508235931396484375">
        <ele>847.5999755859375</ele>
        <time>2016-08-12T19:53:30.000Z</time>
        <extensions>
          <ns3:TrackPointExtension>
            <ns3:atemp>14.0</ns3:atemp>
            <ns3:hr>128</ns3:hr>
          </ns3:TrackPointExtension>
        </extensions>
      </trkpt>
      <trkpt lat="-22.02055119909346103668212890625" lon="166.466735042631626129150390625">
        <ele>847.20001220703125</ele>
        <time>2016-08-12T19:53:31.000Z</time>
        <extensions>
          <ns3:TrackPointExtension>
            <ns3:atemp>14.0</ns3:atemp>
            <ns3:hr>128</ns3:hr>
          </ns3:TrackPointExtension>
        </extensions>
      </trkpt>
      <trkpt lat="-22.0205589942634105682373046875" lon="166.46671383641660213470458984375">
        <ele>847</ele>
        <time>2016-08-12T19:53:32.000Z</time>
        <extensions>
          <ns3:TrackPointExtension>
            <ns3:atemp>14.0</ns3:atemp>
            <ns3:hr>128</ns3:hr>
          </ns3:TrackPointExtension>
        </extensions>
      </trkpt>
      <trkpt lat="-22.02056511305272579193115234375" lon="166.46668869070708751678466796875">
        <ele>846.79998779296875</ele>
        <time>2016-08-12T19:53:33.000Z</time>
        <extensions>
          <ns3:TrackPointExtension>
            <ns3:atemp>14.0</ns3:atemp>
            <ns3:hr>129</ns3:hr>
          </ns3:TrackPointExtension>
        </extensions>
      </trkpt>
      <trkpt lat="-22.020571567118167877197265625" lon="166.46665885113179683685302734375">
        <ele>846.79998779296875</ele>
        <time>2016-08-12T19:53:34.000Z</time>
        <extensions>
          <ns3:TrackPointExtension>
            <ns3:atemp>14.0</ns3:atemp>
            <ns3:hr>129</ns3:hr>
          </ns3:TrackPointExtension>
        </extensions>
      </trkpt>
      <trkpt lat="-22.0205725729465484619140625" lon="166.46662850864231586456298828125">
        <ele>847</ele>
        <time>2016-08-12T19:53:35.000Z</time>
        <extensions>
          <ns3:TrackPointExtension>
            <ns3:atemp>14.0</ns3:atemp>
            <ns3:hr>129</ns3:hr>
          </ns3:TrackPointExtension>
        </extensions>
      </trkpt>
      <trkpt lat="-22.02057659626007080078125" lon="166.46659984253346920013427734375">
        <ele>847</ele>
        <time>2016-08-12T19:53:36.000Z</time>
        <extensions>
          <ns3:TrackPointExtension>
            <ns3:atemp>14.0</ns3:atemp>
            <ns3:hr>129</ns3:hr>
          </ns3:TrackPointExtension>
        </extensions>
      </trkpt>
      <trkpt lat="-22.02057785354554653167724609375" lon="166.4665736071765422821044921875">
        <ele>846.79998779296875</ele>
        <time>2016-08-12T19:53:37.000Z</time>
        <extensions>
          <ns3:TrackPointExtension>
            <ns3:atemp>14.0</ns3:atemp>
            <ns3:hr>129</ns3:hr>
          </ns3:TrackPointExtension>
        </extensions>
      </trkpt>
      <trkpt lat="-22.0205794461071491241455078125" lon="166.466543264687061309814453125">
        <ele>846.4000244140625</ele>
        <time>2016-08-12T19:53:38.000Z</time>
        <extensions>
          <ns3:TrackPointExtension>
            <ns3:atemp>14.0</ns3:atemp>
            <ns3:hr>129</ns3:hr>
          </ns3:TrackPointExtension>
        </extensions>
      </trkpt>
      <trkpt lat="-22.02058170922100543975830078125" lon="166.46651702933013439178466796875">
        <ele>846.20001220703125</ele>
        <time>2016-08-12T19:53:39.000Z</time>
        <extensions>
          <ns3:TrackPointExtension>
            <ns3:atemp>14.0</ns3:atemp>
            <ns3:hr>129</ns3:hr>
          </ns3:TrackPointExtension>
        </extensions>
      </trkpt>
      <trkpt lat="-22.0205650292336940765380859375" lon="166.46648786030709743499755859375">
        <ele>846</ele>
        <time>2016-08-12T19:53:40.000Z</time>
        <extensions>
          <ns3:TrackPointExtension>
            <ns3:atemp>14.0</ns3:atemp>
            <ns3:hr>128</ns3:hr>
          </ns3:TrackPointExtension>
        </extensions>
      </trkpt>
      <trkpt lat="-22.02055849134922027587890625" lon="166.46645517088472843170166015625">
        <ele>846</ele>
        <time>2016-08-12T19:53:41.000Z</time>
        <extensions>
          <ns3:TrackPointExtension>
            <ns3:atemp>14.0</ns3:atemp>
            <ns3:hr>128</ns3:hr>
          </ns3:TrackPointExtension>
        </extensions>
      </trkpt>
      <trkpt lat="-22.020539380609989166259765625" lon="166.4664317853748798370361328125">
        <ele>846.20001220703125</ele>
        <time>2016-08-12T19:53:42.000Z</time>
        <extensions>
          <ns3:TrackPointExtension>
            <ns3:atemp>14.0</ns3:atemp>
            <ns3:hr>129</ns3:hr>
          </ns3:TrackPointExtension>
        </extensions>
      </trkpt>
      <trkpt lat="-22.0205237902700901031494140625" lon="166.46641192026436328887939453125">
        <ele>846.79998779296875</ele>
        <time>2016-08-12T19:53:43.000Z</time>
        <extensions>
          <ns3:TrackPointExtension>
            <ns3:atemp>14.0</ns3:atemp>
            <ns3:hr>128</ns3:hr>
          </ns3:TrackPointExtension>
        </extensions>
      </trkpt>
      <trkpt lat="-22.02051867730915546417236328125" lon="166.4663915522396564483642578125">
        <ele>847</ele>
        <time>2016-08-12T19:53:44.000Z</time>
        <extensions>
          <ns3:TrackPointExtension>
            <ns3:atemp>14.0</ns3:atemp>
            <ns3:hr>129</ns3:hr>
          </ns3:TrackPointExtension>
        </extensions>
      </trkpt>
      <trkpt lat="-22.02051289379596710205078125" lon="166.46637118421494960784912109375">
        <ele>846.79998779296875</ele>
        <time>2016-08-12T19:53:45.000Z</time>
        <extensions>
          <ns3:TrackPointExtension>
            <ns3:atemp>14.0</ns3:atemp>
            <ns3:hr>128</ns3:hr>
          </ns3:TrackPointExtension>
        </extensions>
      </trkpt>
      <trkpt lat="-22.02050677500665187835693359375" lon="166.46634704433381557464599609375">
        <ele>846.5999755859375</ele>
        <time>2016-08-12T19:53:46.000Z</time>
        <extensions>
          <ns3:TrackPointExtension>
            <ns3:atemp>14.0</ns3:atemp>
            <ns3:hr>128</ns3:hr>
          </ns3:TrackPointExtension>
        </extensions>
      </trkpt>
      <trkpt lat="-22.02050308696925640106201171875" lon="166.466320641338825225830078125">
        <ele>846.79998779296875</ele>
        <time>2016-08-12T19:53:47.000Z</time>
        <extensions>
          <ns3:TrackPointExtension>
            <ns3:atemp>14.0</ns3:atemp>
            <ns3:hr>129</ns3:hr>
          </ns3:TrackPointExtension>
        </extensions>
      </trkpt>
      <trkpt lat="-22.02050074003636837005615234375" lon="166.4662946574389934539794921875">
        <ele>846.79998779296875</ele>
        <time>2016-08-12T19:53:48.000Z</time>
        <extensions>
          <ns3:TrackPointExtension>
            <ns3:atemp>14.0</ns3:atemp>
            <ns3:hr>129</ns3:hr>
          </ns3:TrackPointExtension>
        </extensions>
      </trkpt>
      <trkpt lat="-22.02049856074154376983642578125" lon="166.4662708528339862823486328125">
        <ele>846.5999755859375</ele>
        <time>2016-08-12T19:53:49.000Z</time>
        <extensions>
          <ns3:TrackPointExtension>
            <ns3:atemp>14.0</ns3:atemp>
            <ns3:hr>129</ns3:hr>
          </ns3:TrackPointExtension>
        </extensions>
      </trkpt>
      <trkpt lat="-22.02050258405506610870361328125" lon="166.46624947898089885711669921875">
        <ele>846.5999755859375</ele>
        <time>2016-08-12T19:53:50.000Z</time>
        <extensions>
          <ns3:TrackPointExtension>
            <ns3:atemp>14.0</ns3:atemp>
            <ns3:hr>129</ns3:hr>
          </ns3:TrackPointExtension>
        </extensions>
      </trkpt>
      <trkpt lat="-22.02051582746207714080810546875" lon="166.4662302844226360321044921875">
        <ele>846.5999755859375</ele>
        <time>2016-08-12T19:53:51.000Z</time>
        <extensions>
          <ns3:TrackPointExtension>
            <ns3:atemp>14.0</ns3:atemp>
            <ns3:hr>130</ns3:hr>
          </ns3:TrackPointExtension>
        </extensions>
      </trkpt>
      <trkpt lat="-22.02053309418261051177978515625" lon="166.46621058695018291473388671875">
        <ele>846.5999755859375</ele>
        <time>2016-08-12T19:53:52.000Z</time>
        <extensions>
          <ns3:TrackPointExtension>
            <ns3:atemp>14.0</ns3:atemp>
            <ns3:hr>130</ns3:hr>
          </ns3:TrackPointExtension>
        </extensions>
      </trkpt>
      <trkpt lat="-22.0205415599048137664794921875" lon="166.4661923982203006744384765625">
        <ele>846.5999755859375</ele>
        <time>2016-08-12T19:53:53.000Z</time>
        <extensions>
          <ns3:TrackPointExtension>
            <ns3:atemp>14.0</ns3:atemp>
            <ns3:hr>130</ns3:hr>
          </ns3:TrackPointExtension>
        </extensions>
      </trkpt>
      <trkpt lat="-22.0205532945692539215087890625" lon="166.46617370657622814178466796875">
        <ele>846.79998779296875</ele>
        <time>2016-08-12T19:53:54.000Z</time>
        <extensions>
          <ns3:TrackPointExtension>
            <ns3:atemp>14.0</ns3:atemp>
            <ns3:hr>130</ns3:hr>
          </ns3:TrackPointExtension>
        </extensions>
      </trkpt>
      <trkpt lat="-22.02057634480297565460205078125" lon="166.46615241654217243194580078125">
        <ele>847</ele>
        <time>2016-08-12T19:53:55.000Z</time>
        <extensions>
          <ns3:TrackPointExtension>
            <ns3:atemp>14.0</ns3:atemp>
            <ns3:hr>130</ns3:hr>
          </ns3:TrackPointExtension>
        </extensions>
      </trkpt>
      <trkpt lat="-22.0205965451896190643310546875" lon="166.4661323837935924530029296875">
        <ele>847</ele>
        <time>2016-08-12T19:53:56.000Z</time>
        <extensions>
          <ns3:TrackPointExtension>
            <ns3:atemp>14.0</ns3:atemp>
            <ns3:hr>130</ns3:hr>
          </ns3:TrackPointExtension>
        </extensions>
      </trkpt>
      <trkpt lat="-22.02061624266207218170166015625" lon="166.4661099202930927276611328125">
        <ele>846.79998779296875</ele>
        <time>2016-08-12T19:53:57.000Z</time>
        <extensions>
          <ns3:TrackPointExtension>
            <ns3:atemp>14.0</ns3:atemp>
            <ns3:hr>130</ns3:hr>
          </ns3:TrackPointExtension>
        </extensions>
      </trkpt>
      <trkpt lat="-22.0206347666680812835693359375" lon="166.46608636714518070220947265625">
        <ele>846.79998779296875</ele>
        <time>2016-08-12T19:53:58.000Z</time>
        <extensions>
          <ns3:TrackPointExtension>
            <ns3:atemp>14.0</ns3:atemp>
            <ns3:hr>130</ns3:hr>
          </ns3:TrackPointExtension>
        </extensions>
      </trkpt>
      <trkpt lat="-22.0206424780189990997314453125" lon="166.46606071852147579193115234375">
        <ele>847.20001220703125</ele>
        <time>2016-08-12T19:53:59.000Z</time>
        <extensions>
          <ns3:TrackPointExtension>
            <ns3:atemp>14.0</ns3:atemp>
            <ns3:hr>130</ns3:hr>
          </ns3:TrackPointExtension>
        </extensions>
      </trkpt>
      <trkpt lat="-22.020637281239032745361328125" lon="166.46603506989777088165283203125">
        <ele>847.4000244140625</ele>
        <time>2016-08-12T19:54:00.000Z</time>
        <extensions>
          <ns3:TrackPointExtension>
            <ns3:atemp>14.0</ns3:atemp>
            <ns3:hr>130</ns3:hr>
          </ns3:TrackPointExtension>
        </extensions>
      </trkpt>
      <trkpt lat="-22.02063183300197124481201171875" lon="166.4660130254924297332763671875">
        <ele>847</ele>
        <time>2016-08-12T19:54:01.000Z</time>
        <extensions>
          <ns3:TrackPointExtension>
            <ns3:atemp>14.0</ns3:atemp>
            <ns3:hr>130</ns3:hr>
          </ns3:TrackPointExtension>
        </extensions>
      </trkpt>
      <trkpt lat="-22.0206297375261783599853515625" lon="166.46598913706839084625244140625">
        <ele>847</ele>
        <time>2016-08-12T19:54:02.000Z</time>
        <extensions>
          <ns3:TrackPointExtension>
            <ns3:atemp>14.0</ns3:atemp>
            <ns3:hr>130</ns3:hr>
          </ns3:TrackPointExtension>
        </extensions>
      </trkpt>
      <trkpt lat="-22.02062529511749744415283203125" lon="166.4659610576927661895751953125">
        <ele>847.20001220703125</ele>
        <time>2016-08-12T19:54:03.000Z</time>
        <extensions>
          <ns3:TrackPointExtension>
            <ns3:atemp>14.0</ns3:atemp>
            <ns3:hr>130</ns3:hr>
          </ns3:TrackPointExtension>
        </extensions>
      </trkpt>
      <trkpt lat="-22.0206223614513874053955078125" lon="166.46593549288809299468994140625">
        <ele>847.20001220703125</ele>
        <time>2016-08-12T19:54:04.000Z</time>
        <extensions>
          <ns3:TrackPointExtension>
            <ns3:atemp>14.0</ns3:atemp>
            <ns3:hr>131</ns3:hr>
          </ns3:TrackPointExtension>
        </extensions>
      </trkpt>
      <trkpt lat="-22.0206330902874469757080078125" lon="166.46590766496956348419189453125">
        <ele>847</ele>
        <time>2016-08-12T19:54:05.000Z</time>
        <extensions>
          <ns3:TrackPointExtension>
            <ns3:atemp>14.0</ns3:atemp>
            <ns3:hr>131</ns3:hr>
          </ns3:TrackPointExtension>
        </extensions>
      </trkpt>
      <trkpt lat="-22.020640634000301361083984375" lon="166.46587966941297054290771484375">
        <ele>847</ele>
        <time>2016-08-12T19:54:06.000Z</time>
        <extensions>
          <ns3:TrackPointExtension>
            <ns3:atemp>14.0</ns3:atemp>
            <ns3:hr>131</ns3:hr>
          </ns3:TrackPointExtension>
        </extensions>
      </trkpt>
      <trkpt lat="-22.020645998418331146240234375" lon="166.46585200913250446319580078125">
        <ele>847.4000244140625</ele>
        <time>2016-08-12T19:54:07.000Z</time>
        <extensions>
          <ns3:TrackPointExtension>
            <ns3:atemp>14.0</ns3:atemp>
            <ns3:hr>131</ns3:hr>
          </ns3:TrackPointExtension>
        </extensions>
      </trkpt>
      <trkpt lat="-22.020656056702136993408203125" lon="166.4658269472420215606689453125">
        <ele>847.4000244140625</ele>
        <time>2016-08-12T19:54:08.000Z</time>
        <extensions>
          <ns3:TrackPointExtension>
            <ns3:atemp>14.0</ns3:atemp>
            <ns3:hr>131</ns3:hr>
          </ns3:TrackPointExtension>
        </extensions>
      </trkpt>
      <trkpt lat="-22.0206639356911182403564453125" lon="166.46580456756055355072021484375">
        <ele>847.20001220703125</ele>
        <time>2016-08-12T19:54:09.000Z</time>
        <extensions>
          <ns3:TrackPointExtension>
            <ns3:atemp>14.0</ns3:atemp>
            <ns3:hr>131</ns3:hr>
          </ns3:TrackPointExtension>
        </extensions>
      </trkpt>
      <trkpt lat="-22.02066821046173572540283203125" lon="166.46577891893684864044189453125">
        <ele>847.20001220703125</ele>
        <time>2016-08-12T19:54:10.000Z</time>
        <extensions>
          <ns3:TrackPointExtension>
            <ns3:atemp>14.0</ns3:atemp>
            <ns3:hr>131</ns3:hr>
          </ns3:TrackPointExtension>
        </extensions>
      </trkpt>
      <trkpt lat="-22.02066921629011631011962890625" lon="166.46575427614152431488037109375">
        <ele>847.5999755859375</ele>
        <time>2016-08-12T19:54:11.000Z</time>
        <extensions>
          <ns3:TrackPointExtension>
            <ns3:atemp>14.0</ns3:atemp>
            <ns3:hr>132</ns3:hr>
          </ns3:TrackPointExtension>
        </extensions>
      </trkpt>
      <trkpt lat="-22.0206723175942897796630859375" lon="166.46572980098426342010498046875">
        <ele>847.5999755859375</ele>
        <time>2016-08-12T19:54:12.000Z</time>
        <extensions>
          <ns3:TrackPointExtension>
            <ns3:atemp>14.0</ns3:atemp>
            <ns3:hr>132</ns3:hr>
          </ns3:TrackPointExtension>
        </extensions>
      </trkpt>
      <trkpt lat="-22.02067826874554157257080078125" lon="166.46570331417024135589599609375">
        <ele>847.4000244140625</ele>
        <time>2016-08-12T19:54:13.000Z</time>
        <extensions>
          <ns3:TrackPointExtension>
            <ns3:atemp>14.0</ns3:atemp>
            <ns3:hr>132</ns3:hr>
          </ns3:TrackPointExtension>
        </extensions>
      </trkpt>
      <trkpt lat="-22.0206863991916179656982421875" lon="166.46567833609879016876220703125">
        <ele>847.4000244140625</ele>
        <time>2016-08-12T19:54:14.000Z</time>
        <extensions>
          <ns3:TrackPointExtension>
            <ns3:atemp>14.0</ns3:atemp>
            <ns3:hr>132</ns3:hr>
          </ns3:TrackPointExtension>
        </extensions>
      </trkpt>
      <trkpt lat="-22.02070157043635845184326171875" lon="166.46565084345638751983642578125">
        <ele>847.4000244140625</ele>
        <time>2016-08-12T19:54:15.000Z</time>
        <extensions>
          <ns3:TrackPointExtension>
            <ns3:atemp>14.0</ns3:atemp>
            <ns3:hr>131</ns3:hr>
          </ns3:TrackPointExtension>
        </extensions>
      </trkpt>
      <trkpt lat="-22.020706348121166229248046875" lon="166.46562485955655574798583984375">
        <ele>847.20001220703125</ele>
        <time>2016-08-12T19:54:16.000Z</time>
        <extensions>
          <ns3:TrackPointExtension>
            <ns3:atemp>14.0</ns3:atemp>
            <ns3:hr>132</ns3:hr>
          </ns3:TrackPointExtension>
        </extensions>
      </trkpt>
      <trkpt lat="-22.02070534229278564453125" lon="166.46559921093285083770751953125">
        <ele>847</ele>
        <time>2016-08-12T19:54:17.000Z</time>
        <extensions>
          <ns3:TrackPointExtension>
            <ns3:atemp>14.0</ns3:atemp>
            <ns3:hr>131</ns3:hr>
          </ns3:TrackPointExtension>
        </extensions>
      </trkpt>
      <trkpt lat="-22.02070534229278564453125" lon="166.4655711315572261810302734375">
        <ele>847.20001220703125</ele>
        <time>2016-08-12T19:54:18.000Z</time>
        <extensions>
          <ns3:TrackPointExtension>
            <ns3:atemp>14.0</ns3:atemp>
            <ns3:hr>131</ns3:hr>
          </ns3:TrackPointExtension>
        </extensions>
      </trkpt>
      <trkpt lat="-22.02070374973118305206298828125" lon="166.4655419625341892242431640625">
        <ele>847.5999755859375</ele>
        <time>2016-08-12T19:54:19.000Z</time>
        <extensions>
          <ns3:TrackPointExtension>
            <ns3:atemp>14.0</ns3:atemp>
            <ns3:hr>131</ns3:hr>
          </ns3:TrackPointExtension>
        </extensions>
      </trkpt>
      <trkpt lat="-22.02070333063602447509765625" lon="166.46551497280597686767578125">
        <ele>847.5999755859375</ele>
        <time>2016-08-12T19:54:20.000Z</time>
        <extensions>
          <ns3:TrackPointExtension>
            <ns3:atemp>14.0</ns3:atemp>
            <ns3:hr>130</ns3:hr>
          </ns3:TrackPointExtension>
        </extensions>
      </trkpt>
      <trkpt lat="-22.020701654255390167236328125" lon="166.4654893241822719573974609375">
        <ele>847.4000244140625</ele>
        <time>2016-08-12T19:54:21.000Z</time>
        <extensions>
          <ns3:TrackPointExtension>
            <ns3:atemp>14.0</ns3:atemp>
            <ns3:hr>130</ns3:hr>
          </ns3:TrackPointExtension>
        </extensions>
      </trkpt>
      <trkpt lat="-22.02070467174053192138671875" lon="166.46546158008277416229248046875">
        <ele>847.4000244140625</ele>
        <time>2016-08-12T19:54:22.000Z</time>
        <extensions>
          <ns3:TrackPointExtension>
            <ns3:atemp>14.0</ns3:atemp>
            <ns3:hr>130</ns3:hr>
          </ns3:TrackPointExtension>
        </extensions>
      </trkpt>
      <trkpt lat="-22.0207004807889461517333984375" lon="166.4654336683452129364013671875">
        <ele>847.5999755859375</ele>
        <time>2016-08-12T19:54:23.000Z</time>
        <extensions>
          <ns3:TrackPointExtension>
            <ns3:atemp>14.0</ns3:atemp>
            <ns3:hr>130</ns3:hr>
          </ns3:TrackPointExtension>
        </extensions>
      </trkpt>
      <trkpt lat="-22.02069394290447235107421875" lon="166.46540676243603229522705078125">
        <ele>847.79998779296875</ele>
        <time>2016-08-12T19:54:24.000Z</time>
        <extensions>
          <ns3:TrackPointExtension>
            <ns3:atemp>14.0</ns3:atemp>
            <ns3:hr>130</ns3:hr>
          </ns3:TrackPointExtension>
        </extensions>
      </trkpt>
      <trkpt lat="-22.0206879079341888427734375" lon="166.46537742577493190765380859375">
        <ele>847.4000244140625</ele>
        <time>2016-08-12T19:54:25.000Z</time>
        <extensions>
          <ns3:TrackPointExtension>
            <ns3:atemp>14.0</ns3:atemp>
            <ns3:hr>130</ns3:hr>
          </ns3:TrackPointExtension>
        </extensions>
      </trkpt>
      <trkpt lat="-22.02068044804036617279052734375" lon="166.46534976549446582794189453125">
        <ele>847.4000244140625</ele>
        <time>2016-08-12T19:54:26.000Z</time>
        <extensions>
          <ns3:TrackPointExtension>
            <ns3:atemp>14.0</ns3:atemp>
            <ns3:hr>130</ns3:hr>
          </ns3:TrackPointExtension>
        </extensions>
      </trkpt>
      <trkpt lat="-22.02065748162567615509033203125" lon="166.465323530137538909912109375">
        <ele>847.5999755859375</ele>
        <time>2016-08-12T19:54:27.000Z</time>
        <extensions>
          <ns3:TrackPointExtension>
            <ns3:atemp>14.0</ns3:atemp>
            <ns3:hr>131</ns3:hr>
          </ns3:TrackPointExtension>
        </extensions>
      </trkpt>
      <trkpt lat="-22.02063359320163726806640625" lon="166.465295366942882537841796875">
        <ele>848</ele>
        <time>2016-08-12T19:54:28.000Z</time>
        <extensions>
          <ns3:TrackPointExtension>
            <ns3:atemp>14.0</ns3:atemp>
            <ns3:hr>131</ns3:hr>
          </ns3:TrackPointExtension>
        </extensions>
      </trkpt>
      <trkpt lat="-22.02061842195689678192138671875" lon="166.46526996977627277374267578125">
        <ele>848</ele>
        <time>2016-08-12T19:54:29.000Z</time>
        <extensions>
          <ns3:TrackPointExtension>
            <ns3:atemp>14.0</ns3:atemp>
            <ns3:hr>131</ns3:hr>
          </ns3:TrackPointExtension>
        </extensions>
      </trkpt>
      <trkpt lat="-22.02059268951416015625" lon="166.465244404971599578857421875">
        <ele>847.4000244140625</ele>
        <time>2016-08-12T19:54:30.000Z</time>
        <extensions>
          <ns3:TrackPointExtension>
            <ns3:atemp>14.0</ns3:atemp>
            <ns3:hr>131</ns3:hr>
          </ns3:TrackPointExtension>
        </extensions>
      </trkpt>
      <trkpt lat="-22.02057215385138988494873046875" lon="166.46521783433854579925537109375">
        <ele>847.5999755859375</ele>
        <time>2016-08-12T19:54:31.000Z</time>
        <extensions>
          <ns3:TrackPointExtension>
            <ns3:atemp>14.0</ns3:atemp>
            <ns3:hr>132</ns3:hr>
          </ns3:TrackPointExtension>
        </extensions>
      </trkpt>
      <trkpt lat="-22.0205519534647464752197265625" lon="166.46519084461033344268798828125">
        <ele>847.79998779296875</ele>
        <time>2016-08-12T19:54:32.000Z</time>
        <extensions>
          <ns3:TrackPointExtension>
            <ns3:atemp>14.0</ns3:atemp>
            <ns3:hr>132</ns3:hr>
          </ns3:TrackPointExtension>
        </extensions>
      </trkpt>
      <trkpt lat="-22.02052756212651729583740234375" lon="166.46516586653888225555419921875">
        <ele>848</ele>
        <time>2016-08-12T19:54:33.000Z</time>
        <extensions>
          <ns3:TrackPointExtension>
            <ns3:atemp>14.0</ns3:atemp>
            <ns3:hr>132</ns3:hr>
          </ns3:TrackPointExtension>
        </extensions>
      </trkpt>
      <trkpt lat="-22.02050979249179363250732421875" lon="166.46514189429581165313720703125">
        <ele>847.79998779296875</ele>
        <time>2016-08-12T19:54:34.000Z</time>
        <extensions>
          <ns3:TrackPointExtension>
            <ns3:atemp>14.0</ns3:atemp>
            <ns3:hr>133</ns3:hr>
          </ns3:TrackPointExtension>
        </extensions>
      </trkpt>
      <trkpt lat="-22.020489759743213653564453125" lon="166.46511758677661418914794921875">
        <ele>847.5999755859375</ele>
        <time>2016-08-12T19:54:35.000Z</time>
        <extensions>
          <ns3:TrackPointExtension>
            <ns3:atemp>14.0</ns3:atemp>
            <ns3:hr>133</ns3:hr>
          </ns3:TrackPointExtension>
        </extensions>
      </trkpt>
      <trkpt lat="-22.020467631518840789794921875" lon="166.46509411744773387908935546875">
        <ele>847.79998779296875</ele>
        <time>2016-08-12T19:54:36.000Z</time>
        <extensions>
          <ns3:TrackPointExtension>
            <ns3:atemp>14.0</ns3:atemp>
            <ns3:hr>133</ns3:hr>
          </ns3:TrackPointExtension>
        </extensions>
      </trkpt>
      <trkpt lat="-22.02044575475156307220458984375" lon="166.46507299505174160003662109375">
        <ele>847.5999755859375</ele>
        <time>2016-08-12T19:54:37.000Z</time>
        <extensions>
          <ns3:TrackPointExtension>
            <ns3:atemp>14.0</ns3:atemp>
            <ns3:hr>133</ns3:hr>
          </ns3:TrackPointExtension>
        </extensions>
      </trkpt>
      <trkpt lat="-22.0204250514507293701171875" lon="166.46505296230316162109375">
        <ele>847.4000244140625</ele>
        <time>2016-08-12T19:54:38.000Z</time>
        <extensions>
          <ns3:TrackPointExtension>
            <ns3:atemp>14.0</ns3:atemp>
            <ns3:hr>133</ns3:hr>
          </ns3:TrackPointExtension>
        </extensions>
      </trkpt>
      <trkpt lat="-22.0204054377973079681396484375" lon="166.46503175608813762664794921875">
        <ele>847.4000244140625</ele>
        <time>2016-08-12T19:54:39.000Z</time>
        <extensions>
          <ns3:TrackPointExtension>
            <ns3:atemp>14.0</ns3:atemp>
            <ns3:hr>133</ns3:hr>
          </ns3:TrackPointExtension>
        </extensions>
      </trkpt>
      <trkpt lat="-22.02038490213453769683837890625" lon="166.46500996313989162445068359375">
        <ele>847.4000244140625</ele>
        <time>2016-08-12T19:54:40.000Z</time>
        <extensions>
          <ns3:TrackPointExtension>
            <ns3:atemp>14.0</ns3:atemp>
            <ns3:hr>133</ns3:hr>
          </ns3:TrackPointExtension>
        </extensions>
      </trkpt>
      <trkpt lat="-22.020362354815006256103515625" lon="166.464988924562931060791015625">
        <ele>847.4000244140625</ele>
        <time>2016-08-12T19:54:41.000Z</time>
        <extensions>
          <ns3:TrackPointExtension>
            <ns3:atemp>14.0</ns3:atemp>
            <ns3:hr>133</ns3:hr>
          </ns3:TrackPointExtension>
        </extensions>
      </trkpt>
      <trkpt lat="-22.02034232206642627716064453125" lon="166.46496671251952648162841796875">
        <ele>847.4000244140625</ele>
        <time>2016-08-12T19:54:42.000Z</time>
        <extensions>
          <ns3:TrackPointExtension>
            <ns3:atemp>14.0</ns3:atemp>
            <ns3:hr>133</ns3:hr>
          </ns3:TrackPointExtension>
        </extensions>
      </trkpt>
      <trkpt lat="-22.02032187022268772125244140625" lon="166.4649451710283756256103515625">
        <ele>847.20001220703125</ele>
        <time>2016-08-12T19:54:43.000Z</time>
        <extensions>
          <ns3:TrackPointExtension>
            <ns3:atemp>14.0</ns3:atemp>
            <ns3:hr>134</ns3:hr>
          </ns3:TrackPointExtension>
        </extensions>
      </trkpt>
      <trkpt lat="-22.02030309475958347320556640625" lon="166.464925892651081085205078125">
        <ele>847.4000244140625</ele>
        <time>2016-08-12T19:54:44.000Z</time>
        <extensions>
          <ns3:TrackPointExtension>
            <ns3:atemp>14.0</ns3:atemp>
            <ns3:hr>134</ns3:hr>
          </ns3:TrackPointExtension>
        </extensions>
      </trkpt>
      <trkpt lat="-22.0202854089438915252685546875" lon="166.4649025909602642059326171875">
        <ele>847.5999755859375</ele>
        <time>2016-08-12T19:54:45.000Z</time>
        <extensions>
          <ns3:TrackPointExtension>
            <ns3:atemp>14.0</ns3:atemp>
            <ns3:hr>134</ns3:hr>
          </ns3:TrackPointExtension>
        </extensions>
      </trkpt>
      <trkpt lat="-22.020266465842723846435546875" lon="166.4648781158030033111572265625">
        <ele>847.20001220703125</ele>
        <time>2016-08-12T19:54:46.000Z</time>
        <extensions>
          <ns3:TrackPointExtension>
            <ns3:atemp>14.0</ns3:atemp>
            <ns3:hr>134</ns3:hr>
          </ns3:TrackPointExtension>
        </extensions>
      </trkpt>
      <trkpt lat="-22.02024928294122219085693359375" lon="166.46485489793121814727783203125">
        <ele>847</ele>
        <time>2016-08-12T19:54:47.000Z</time>
        <extensions>
          <ns3:TrackPointExtension>
            <ns3:atemp>14.0</ns3:atemp>
            <ns3:hr>134</ns3:hr>
          </ns3:TrackPointExtension>
        </extensions>
      </trkpt>
      <trkpt lat="-22.02023151330649852752685546875" lon="166.46483126096427440643310546875">
        <ele>847</ele>
        <time>2016-08-12T19:54:48.000Z</time>
        <extensions>
          <ns3:TrackPointExtension>
            <ns3:atemp>14.0</ns3:atemp>
            <ns3:hr>134</ns3:hr>
          </ns3:TrackPointExtension>
        </extensions>
      </trkpt>
      <trkpt lat="-22.02021642588078975677490234375" lon="166.46480963565409183502197265625">
        <ele>847.4000244140625</ele>
        <time>2016-08-12T19:54:49.000Z</time>
        <extensions>
          <ns3:TrackPointExtension>
            <ns3:atemp>14.0</ns3:atemp>
            <ns3:hr>134</ns3:hr>
          </ns3:TrackPointExtension>
        </extensions>
      </trkpt>
      <trkpt lat="-22.0202046073973178863525390625" lon="166.46478968672454357147216796875">
        <ele>847.5999755859375</ele>
        <time>2016-08-12T19:54:50.000Z</time>
        <extensions>
          <ns3:TrackPointExtension>
            <ns3:atemp>14.0</ns3:atemp>
            <ns3:hr>134</ns3:hr>
          </ns3:TrackPointExtension>
        </extensions>
      </trkpt>
      <trkpt lat="-22.0201948843896389007568359375" lon="166.4647684805095195770263671875">
        <ele>847.20001220703125</ele>
        <time>2016-08-12T19:54:51.000Z</time>
        <extensions>
          <ns3:TrackPointExtension>
            <ns3:atemp>14.0</ns3:atemp>
            <ns3:hr>134</ns3:hr>
          </ns3:TrackPointExtension>
        </extensions>
      </trkpt>
      <trkpt lat="-22.02018859796226024627685546875" lon="166.4647460170090198516845703125">
        <ele>847</ele>
        <time>2016-08-12T19:54:52.000Z</time>
        <extensions>
          <ns3:TrackPointExtension>
            <ns3:atemp>14.0</ns3:atemp>
            <ns3:hr>134</ns3:hr>
          </ns3:TrackPointExtension>
        </extensions>
      </trkpt>
      <trkpt lat="-22.0201791264116764068603515625" lon="166.46472263149917125701904296875">
        <ele>847.20001220703125</ele>
        <time>2016-08-12T19:54:53.000Z</time>
        <extensions>
          <ns3:TrackPointExtension>
            <ns3:atemp>14.0</ns3:atemp>
            <ns3:hr>134</ns3:hr>
          </ns3:TrackPointExtension>
        </extensions>
      </trkpt>
      <trkpt lat="-22.0201730914413928985595703125" lon="166.46469899453222751617431640625">
        <ele>847.5999755859375</ele>
        <time>2016-08-12T19:54:54.000Z</time>
        <extensions>
          <ns3:TrackPointExtension>
            <ns3:atemp>14.0</ns3:atemp>
            <ns3:hr>134</ns3:hr>
          </ns3:TrackPointExtension>
        </extensions>
      </trkpt>
      <trkpt lat="-22.020168565213680267333984375" lon="166.46467485465109348297119140625">
        <ele>847.4000244140625</ele>
        <time>2016-08-12T19:54:55.000Z</time>
        <extensions>
          <ns3:TrackPointExtension>
            <ns3:atemp>14.0</ns3:atemp>
            <ns3:hr>134</ns3:hr>
          </ns3:TrackPointExtension>
        </extensions>
      </trkpt>
      <trkpt lat="-22.0201623626053333282470703125" lon="166.464650295674800872802734375">
        <ele>847</ele>
        <time>2016-08-12T19:54:56.000Z</time>
        <extensions>
          <ns3:TrackPointExtension>
            <ns3:atemp>14.0</ns3:atemp>
            <ns3:hr>135</ns3:hr>
          </ns3:TrackPointExtension>
        </extensions>
      </trkpt>
      <trkpt lat="-22.02015615999698638916015625" lon="166.46462607197463512420654296875">
        <ele>847.20001220703125</ele>
        <time>2016-08-12T19:54:57.000Z</time>
        <extensions>
          <ns3:TrackPointExtension>
            <ns3:atemp>14.0</ns3:atemp>
            <ns3:hr>134</ns3:hr>
          </ns3:TrackPointExtension>
        </extensions>
      </trkpt>
      <trkpt lat="-22.0201489515602588653564453125" lon="166.46459924988448619842529296875">
        <ele>847.4000244140625</ele>
        <time>2016-08-12T19:54:58.000Z</time>
        <extensions>
          <ns3:TrackPointExtension>
            <ns3:atemp>14.0</ns3:atemp>
            <ns3:hr>134</ns3:hr>
          </ns3:TrackPointExtension>
        </extensions>
      </trkpt>
      <trkpt lat="-22.0201298408210277557373046875" lon="166.46457678638398647308349609375">
        <ele>847.4000244140625</ele>
        <time>2016-08-12T19:54:59.000Z</time>
        <extensions>
          <ns3:TrackPointExtension>
            <ns3:atemp>14.0</ns3:atemp>
            <ns3:hr>135</ns3:hr>
          </ns3:TrackPointExtension>
        </extensions>
      </trkpt>
      <trkpt lat="-22.02010477893054485321044921875" lon="166.46455608308315277099609375">
        <ele>847.20001220703125</ele>
        <time>2016-08-12T19:55:00.000Z</time>
        <extensions>
          <ns3:TrackPointExtension>
            <ns3:atemp>14.0</ns3:atemp>
            <ns3:hr>134</ns3:hr>
          </ns3:TrackPointExtension>
        </extensions>
      </trkpt>
      <trkpt lat="-22.0200748555362224578857421875" lon="166.4645435102283954620361328125">
        <ele>847</ele>
        <time>2016-08-12T19:55:01.000Z</time>
        <extensions>
          <ns3:TrackPointExtension>
            <ns3:atemp>14.0</ns3:atemp>
            <ns3:hr>134</ns3:hr>
          </ns3:TrackPointExtension>
        </extensions>
      </trkpt>
      <trkpt lat="-22.02004845254123210906982421875" lon="166.46453755907714366912841796875">
        <ele>847.20001220703125</ele>
        <time>2016-08-12T19:55:02.000Z</time>
        <extensions>
          <ns3:TrackPointExtension>
            <ns3:atemp>14.0</ns3:atemp>
            <ns3:hr>134</ns3:hr>
          </ns3:TrackPointExtension>
        </extensions>
      </trkpt>
      <trkpt lat="-22.02002163045108318328857421875" lon="166.4645311050117015838623046875">
        <ele>847.5999755859375</ele>
        <time>2016-08-12T19:55:03.000Z</time>
        <extensions>
          <ns3:TrackPointExtension>
            <ns3:atemp>14.0</ns3:atemp>
            <ns3:hr>135</ns3:hr>
          </ns3:TrackPointExtension>
        </extensions>
      </trkpt>
      <trkpt lat="-22.01999464072287082672119140625" lon="166.464526914060115814208984375">
        <ele>847.20001220703125</ele>
        <time>2016-08-12T19:55:04.000Z</time>
        <extensions>
          <ns3:TrackPointExtension>
            <ns3:atemp>14.0</ns3:atemp>
            <ns3:hr>134</ns3:hr>
          </ns3:TrackPointExtension>
        </extensions>
      </trkpt>
      <trkpt lat="-22.019968740642070770263671875" lon="166.46452926099300384521484375">
        <ele>847</ele>
        <time>2016-08-12T19:55:05.000Z</time>
        <extensions>
          <ns3:TrackPointExtension>
            <ns3:atemp>14.0</ns3:atemp>
            <ns3:hr>134</ns3:hr>
          </ns3:TrackPointExtension>
        </extensions>
      </trkpt>
      <trkpt lat="-22.019933201372623443603515625" lon="166.46454007364809513092041015625">
        <ele>847.4000244140625</ele>
        <time>2016-08-12T19:55:06.000Z</time>
        <extensions>
          <ns3:TrackPointExtension>
            <ns3:atemp>14.0</ns3:atemp>
            <ns3:hr>134</ns3:hr>
          </ns3:TrackPointExtension>
        </extensions>
      </trkpt>
      <trkpt lat="-22.01990227214992046356201171875" lon="166.46454459987580776214599609375">
        <ele>847.5999755859375</ele>
        <time>2016-08-12T19:55:07.000Z</time>
        <extensions>
          <ns3:TrackPointExtension>
            <ns3:atemp>14.0</ns3:atemp>
            <ns3:hr>135</ns3:hr>
          </ns3:TrackPointExtension>
        </extensions>
      </trkpt>
      <trkpt lat="-22.01987075619399547576904296875" lon="166.4645554125308990478515625">
        <ele>847.20001220703125</ele>
        <time>2016-08-12T19:55:08.000Z</time>
        <extensions>
          <ns3:TrackPointExtension>
            <ns3:atemp>14.0</ns3:atemp>
            <ns3:hr>135</ns3:hr>
          </ns3:TrackPointExtension>
        </extensions>
      </trkpt>
      <trkpt lat="-22.0198431797325611114501953125" lon="166.46456186659634113311767578125">
        <ele>846.79998779296875</ele>
        <time>2016-08-12T19:55:09.000Z</time>
        <extensions>
          <ns3:TrackPointExtension>
            <ns3:atemp>14.0</ns3:atemp>
            <ns3:hr>134</ns3:hr>
          </ns3:TrackPointExtension>
        </extensions>
      </trkpt>
      <trkpt lat="-22.01981660909950733184814453125" lon="166.46456907503306865692138671875">
        <ele>847</ele>
        <time>2016-08-12T19:55:10.000Z</time>
        <extensions>
          <ns3:TrackPointExtension>
            <ns3:atemp>14.0</ns3:atemp>
            <ns3:hr>135</ns3:hr>
          </ns3:TrackPointExtension>
        </extensions>
      </trkpt>
      <trkpt lat="-22.01979045756161212921142578125" lon="166.4645673148334026336669921875">
        <ele>847.5999755859375</ele>
        <time>2016-08-12T19:55:11.000Z</time>
        <extensions>
          <ns3:TrackPointExtension>
            <ns3:atemp>14.0</ns3:atemp>
            <ns3:hr>134</ns3:hr>
          </ns3:TrackPointExtension>
        </extensions>
      </trkpt>
      <trkpt lat="-22.01976992189884185791015625" lon="166.46456873975694179534912109375">
        <ele>847.5999755859375</ele>
        <time>2016-08-12T19:55:12.000Z</time>
        <extensions>
          <ns3:TrackPointExtension>
            <ns3:atemp>14.0</ns3:atemp>
            <ns3:hr>134</ns3:hr>
          </ns3:TrackPointExtension>
        </extensions>
      </trkpt>
      <trkpt lat="-22.01974578201770782470703125" lon="166.4645688235759735107421875">
        <ele>847.4000244140625</ele>
        <time>2016-08-12T19:55:13.000Z</time>
        <extensions>
          <ns3:TrackPointExtension>
            <ns3:atemp>14.0</ns3:atemp>
            <ns3:hr>134</ns3:hr>
          </ns3:TrackPointExtension>
        </extensions>
      </trkpt>
      <trkpt lat="-22.01972306706011295318603515625" lon="166.46457460708916187286376953125">
        <ele>847.4000244140625</ele>
        <time>2016-08-12T19:55:14.000Z</time>
        <extensions>
          <ns3:TrackPointExtension>
            <ns3:atemp>14.0</ns3:atemp>
            <ns3:hr>135</ns3:hr>
          </ns3:TrackPointExtension>
        </extensions>
      </trkpt>
      <trkpt lat="-22.019695155322551727294921875" lon="166.46458365954458713531494140625">
        <ele>848</ele>
        <time>2016-08-12T19:55:15.000Z</time>
        <extensions>
          <ns3:TrackPointExtension>
            <ns3:atemp>14.0</ns3:atemp>
            <ns3:hr>135</ns3:hr>
          </ns3:TrackPointExtension>
        </extensions>
      </trkpt>
      <trkpt lat="-22.01966774649918079376220703125" lon="166.4645897783339023590087890625">
        <ele>848</ele>
        <time>2016-08-12T19:55:16.000Z</time>
        <extensions>
          <ns3:TrackPointExtension>
            <ns3:atemp>14.0</ns3:atemp>
            <ns3:hr>135</ns3:hr>
          </ns3:TrackPointExtension>
        </extensions>
      </trkpt>
      <trkpt lat="-22.01964142732322216033935546875" lon="166.4645964838564395904541015625">
        <ele>847.5999755859375</ele>
        <time>2016-08-12T19:55:17.000Z</time>
        <extensions>
          <ns3:TrackPointExtension>
            <ns3:atemp>14.0</ns3:atemp>
            <ns3:hr>135</ns3:hr>
          </ns3:TrackPointExtension>
        </extensions>
      </trkpt>
      <trkpt lat="-22.01961292885243892669677734375" lon="166.46460360847413539886474609375">
        <ele>847.4000244140625</ele>
        <time>2016-08-12T19:55:18.000Z</time>
        <extensions>
          <ns3:TrackPointExtension>
            <ns3:atemp>14.0</ns3:atemp>
            <ns3:hr>135</ns3:hr>
          </ns3:TrackPointExtension>
        </extensions>
      </trkpt>
      <trkpt lat="-22.01958845369517803192138671875" lon="166.46461131982505321502685546875">
        <ele>847.79998779296875</ele>
        <time>2016-08-12T19:55:19.000Z</time>
        <extensions>
          <ns3:TrackPointExtension>
            <ns3:atemp>14.0</ns3:atemp>
            <ns3:hr>135</ns3:hr>
          </ns3:TrackPointExtension>
        </extensions>
      </trkpt>
      <trkpt lat="-22.01956582255661487579345703125" lon="166.464616768062114715576171875">
        <ele>848.20001220703125</ele>
        <time>2016-08-12T19:55:20.000Z</time>
        <extensions>
          <ns3:TrackPointExtension>
            <ns3:atemp>14.0</ns3:atemp>
            <ns3:hr>135</ns3:hr>
          </ns3:TrackPointExtension>
        </extensions>
      </trkpt>
      <trkpt lat="-22.019541598856449127197265625" lon="166.46462338976562023162841796875">
        <ele>848.20001220703125</ele>
        <time>2016-08-12T19:55:21.000Z</time>
        <extensions>
          <ns3:TrackPointExtension>
            <ns3:atemp>14.0</ns3:atemp>
            <ns3:hr>135</ns3:hr>
          </ns3:TrackPointExtension>
        </extensions>
      </trkpt>
      <trkpt lat="-22.01951703988015651702880859375" lon="166.4646283350884914398193359375">
        <ele>848</ele>
        <time>2016-08-12T19:55:22.000Z</time>
        <extensions>
          <ns3:TrackPointExtension>
            <ns3:atemp>14.0</ns3:atemp>
            <ns3:hr>136</ns3:hr>
          </ns3:TrackPointExtension>
        </extensions>
      </trkpt>
      <trkpt lat="-22.01949424110352993011474609375" lon="166.46463294513523578643798828125">
        <ele>848.20001220703125</ele>
        <time>2016-08-12T19:55:23.000Z</time>
        <extensions>
          <ns3:TrackPointExtension>
            <ns3:atemp>14.0</ns3:atemp>
            <ns3:hr>136</ns3:hr>
          </ns3:TrackPointExtension>
        </extensions>
      </trkpt>
      <trkpt lat="-22.01947093941271305084228515625" lon="166.4646326936781406402587890625">
        <ele>848.5999755859375</ele>
        <time>2016-08-12T19:55:24.000Z</time>
        <extensions>
          <ns3:TrackPointExtension>
            <ns3:atemp>14.0</ns3:atemp>
            <ns3:hr>135</ns3:hr>
          </ns3:TrackPointExtension>
        </extensions>
      </trkpt>
      <trkpt lat="-22.0194462127983570098876953125" lon="166.464630849659442901611328125">
        <ele>848.4000244140625</ele>
        <time>2016-08-12T19:55:25.000Z</time>
        <extensions>
          <ns3:TrackPointExtension>
            <ns3:atemp>14.0</ns3:atemp>
            <ns3:hr>136</ns3:hr>
          </ns3:TrackPointExtension>
        </extensions>
      </trkpt>
      <trkpt lat="-22.019421570003032684326171875" lon="166.46462992765009403228759765625">
        <ele>848.20001220703125</ele>
        <time>2016-08-12T19:55:26.000Z</time>
        <extensions>
          <ns3:TrackPointExtension>
            <ns3:atemp>14.0</ns3:atemp>
            <ns3:hr>136</ns3:hr>
          </ns3:TrackPointExtension>
        </extensions>
      </trkpt>
      <trkpt lat="-22.0193982683122158050537109375" lon="166.4646286703646183013916015625">
        <ele>848</ele>
        <time>2016-08-12T19:55:27.000Z</time>
        <extensions>
          <ns3:TrackPointExtension>
            <ns3:atemp>14.0</ns3:atemp>
            <ns3:hr>136</ns3:hr>
          </ns3:TrackPointExtension>
        </extensions>
      </trkpt>
      <trkpt lat="-22.01937588863074779510498046875" lon="166.46463110111653804779052734375">
        <ele>848.4000244140625</ele>
        <time>2016-08-12T19:55:28.000Z</time>
        <extensions>
          <ns3:TrackPointExtension>
            <ns3:atemp>14.0</ns3:atemp>
            <ns3:hr>135</ns3:hr>
          </ns3:TrackPointExtension>
        </extensions>
      </trkpt>
      <trkpt lat="-22.0193530060350894927978515625" lon="166.46463160403072834014892578125">
        <ele>848.4000244140625</ele>
        <time>2016-08-12T19:55:29.000Z</time>
        <extensions>
          <ns3:TrackPointExtension>
            <ns3:atemp>14.0</ns3:atemp>
            <ns3:hr>136</ns3:hr>
          </ns3:TrackPointExtension>
        </extensions>
      </trkpt>
      <trkpt lat="-22.01933003962039947509765625" lon="166.46462447941303253173828125">
        <ele>848.20001220703125</ele>
        <time>2016-08-12T19:55:30.000Z</time>
        <extensions>
          <ns3:TrackPointExtension>
            <ns3:atemp>14.0</ns3:atemp>
            <ns3:hr>136</ns3:hr>
          </ns3:TrackPointExtension>
        </extensions>
      </trkpt>
      <trkpt lat="-22.01930782757699489593505859375" lon="166.46461048163473606109619140625">
        <ele>848.20001220703125</ele>
        <time>2016-08-12T19:55:31.000Z</time>
        <extensions>
          <ns3:TrackPointExtension>
            <ns3:atemp>14.0</ns3:atemp>
            <ns3:hr>136</ns3:hr>
          </ns3:TrackPointExtension>
        </extensions>
      </trkpt>
      <trkpt lat="-22.01928578317165374755859375" lon="166.4646008424460887908935546875">
        <ele>848.5999755859375</ele>
        <time>2016-08-12T19:55:32.000Z</time>
        <extensions>
          <ns3:TrackPointExtension>
            <ns3:atemp>14.0</ns3:atemp>
            <ns3:hr>136</ns3:hr>
          </ns3:TrackPointExtension>
        </extensions>
      </trkpt>
      <trkpt lat="-22.01926323585212230682373046875" lon="166.46460159681737422943115234375">
        <ele>848.4000244140625</ele>
        <time>2016-08-12T19:55:33.000Z</time>
        <extensions>
          <ns3:TrackPointExtension>
            <ns3:atemp>14.0</ns3:atemp>
            <ns3:hr>136</ns3:hr>
          </ns3:TrackPointExtension>
        </extensions>
      </trkpt>
      <trkpt lat="-22.01923976652324199676513671875" lon="166.46460377611219882965087890625">
        <ele>848.20001220703125</ele>
        <time>2016-08-12T19:55:34.000Z</time>
        <extensions>
          <ns3:TrackPointExtension>
            <ns3:atemp>14.0</ns3:atemp>
            <ns3:hr>136</ns3:hr>
          </ns3:TrackPointExtension>
        </extensions>
      </trkpt>
      <trkpt lat="-22.01921579428017139434814453125" lon="166.464610397815704345703125">
        <ele>848.4000244140625</ele>
        <time>2016-08-12T19:55:35.000Z</time>
        <extensions>
          <ns3:TrackPointExtension>
            <ns3:atemp>14.0</ns3:atemp>
            <ns3:hr>136</ns3:hr>
          </ns3:TrackPointExtension>
        </extensions>
      </trkpt>
      <trkpt lat="-22.0191914029419422149658203125" lon="166.464616768062114715576171875">
        <ele>848.79998779296875</ele>
        <time>2016-08-12T19:55:36.000Z</time>
        <extensions>
          <ns3:TrackPointExtension>
            <ns3:atemp>14.0</ns3:atemp>
            <ns3:hr>136</ns3:hr>
          </ns3:TrackPointExtension>
        </extensions>
      </trkpt>
      <trkpt lat="-22.019170783460140228271484375" lon="166.46461986936628818511962890625">
        <ele>848.79998779296875</ele>
        <time>2016-08-12T19:55:37.000Z</time>
        <extensions>
          <ns3:TrackPointExtension>
            <ns3:atemp>14.0</ns3:atemp>
            <ns3:hr>135</ns3:hr>
          </ns3:TrackPointExtension>
        </extensions>
      </trkpt>
      <trkpt lat="-22.01914773322641849517822265625" lon="166.4646279998123645782470703125">
        <ele>848.5999755859375</ele>
        <time>2016-08-12T19:55:38.000Z</time>
        <extensions>
          <ns3:TrackPointExtension>
            <ns3:atemp>14.0</ns3:atemp>
            <ns3:hr>135</ns3:hr>
          </ns3:TrackPointExtension>
        </extensions>
      </trkpt>
      <trkpt lat="-22.01912443153560161590576171875" lon="166.4646290056407451629638671875">
        <ele>848.5999755859375</ele>
        <time>2016-08-12T19:55:39.000Z</time>
        <extensions>
          <ns3:TrackPointExtension>
            <ns3:atemp>14.0</ns3:atemp>
            <ns3:hr>136</ns3:hr>
          </ns3:TrackPointExtension>
        </extensions>
      </trkpt>
      <trkpt lat="-22.0191035605967044830322265625" lon="166.46463998593389987945556640625">
        <ele>849.20001220703125</ele>
        <time>2016-08-12T19:55:40.000Z</time>
        <extensions>
          <ns3:TrackPointExtension>
            <ns3:atemp>14.0</ns3:atemp>
            <ns3:hr>135</ns3:hr>
          </ns3:TrackPointExtension>
        </extensions>
      </trkpt>
      <trkpt lat="-22.01907967217266559600830078125" lon="166.4646471105515956878662109375">
        <ele>849.4000244140625</ele>
        <time>2016-08-12T19:55:41.000Z</time>
        <extensions>
          <ns3:TrackPointExtension>
            <ns3:atemp>14.0</ns3:atemp>
            <ns3:hr>135</ns3:hr>
          </ns3:TrackPointExtension>
        </extensions>
      </trkpt>
      <trkpt lat="-22.0190569572150707244873046875" lon="166.4646538160741329193115234375">
        <ele>849.4000244140625</ele>
        <time>2016-08-12T19:55:42.000Z</time>
        <extensions>
          <ns3:TrackPointExtension>
            <ns3:atemp>14.0</ns3:atemp>
            <ns3:hr>135</ns3:hr>
          </ns3:TrackPointExtension>
        </extensions>
      </trkpt>
      <trkpt lat="-22.01903306879103183746337890625" lon="166.4646608568727970123291015625">
        <ele>849</ele>
        <time>2016-08-12T19:55:43.000Z</time>
        <extensions>
          <ns3:TrackPointExtension>
            <ns3:atemp>14.0</ns3:atemp>
            <ns3:hr>136</ns3:hr>
          </ns3:TrackPointExtension>
        </extensions>
      </trkpt>
      <trkpt lat="-22.0190110243856906890869140625" lon="166.46467183716595172882080078125">
        <ele>849</ele>
        <time>2016-08-12T19:55:44.000Z</time>
        <extensions>
          <ns3:TrackPointExtension>
            <ns3:atemp>14.0</ns3:atemp>
            <ns3:hr>135</ns3:hr>
          </ns3:TrackPointExtension>
        </extensions>
      </trkpt>
      <trkpt lat="-22.01899015344679355621337890625" lon="166.46466915495693683624267578125">
        <ele>849.4000244140625</ele>
        <time>2016-08-12T19:55:45.000Z</time>
        <extensions>
          <ns3:TrackPointExtension>
            <ns3:atemp>14.0</ns3:atemp>
            <ns3:hr>136</ns3:hr>
          </ns3:TrackPointExtension>
        </extensions>
      </trkpt>
      <trkpt lat="-22.018966935575008392333984375" lon="166.464661024510860443115234375">
        <ele>849.4000244140625</ele>
        <time>2016-08-12T19:55:46.000Z</time>
        <extensions>
          <ns3:TrackPointExtension>
            <ns3:atemp>14.0</ns3:atemp>
            <ns3:hr>136</ns3:hr>
          </ns3:TrackPointExtension>
        </extensions>
      </trkpt>
      <trkpt lat="-22.01894472353160381317138671875" lon="166.4646615274250507354736328125">
        <ele>849.4000244140625</ele>
        <time>2016-08-12T19:55:47.000Z</time>
        <extensions>
          <ns3:TrackPointExtension>
            <ns3:atemp>14.0</ns3:atemp>
            <ns3:hr>136</ns3:hr>
          </ns3:TrackPointExtension>
        </extensions>
      </trkpt>
      <trkpt lat="-22.01892175711691379547119140625" lon="166.46465272642672061920166015625">
        <ele>849.20001220703125</ele>
        <time>2016-08-12T19:55:48.000Z</time>
        <extensions>
          <ns3:TrackPointExtension>
            <ns3:atemp>14.0</ns3:atemp>
            <ns3:hr>136</ns3:hr>
          </ns3:TrackPointExtension>
        </extensions>
      </trkpt>
      <trkpt lat="-22.0188963599503040313720703125" lon="166.46462791599333286285400390625">
        <ele>849.5999755859375</ele>
        <time>2016-08-12T19:55:49.000Z</time>
        <extensions>
          <ns3:TrackPointExtension>
            <ns3:atemp>14.0</ns3:atemp>
            <ns3:hr>136</ns3:hr>
          </ns3:TrackPointExtension>
        </extensions>
      </trkpt>
      <trkpt lat="-22.01887163333594799041748046875" lon="166.46460880525410175323486328125">
        <ele>849.79998779296875</ele>
        <time>2016-08-12T19:55:50.000Z</time>
        <extensions>
          <ns3:TrackPointExtension>
            <ns3:atemp>14.0</ns3:atemp>
            <ns3:hr>136</ns3:hr>
          </ns3:TrackPointExtension>
        </extensions>
      </trkpt>
      <trkpt lat="-22.018847577273845672607421875" lon="166.4645964838564395904541015625">
        <ele>849.79998779296875</ele>
        <time>2016-08-12T19:55:51.000Z</time>
        <extensions>
          <ns3:TrackPointExtension>
            <ns3:atemp>14.0</ns3:atemp>
            <ns3:hr>136</ns3:hr>
          </ns3:TrackPointExtension>
        </extensions>
      </trkpt>
      <trkpt lat="-22.01882972382009029388427734375" lon="166.46457360126078128814697265625">
        <ele>849.5999755859375</ele>
        <time>2016-08-12T19:55:52.000Z</time>
        <extensions>
          <ns3:TrackPointExtension>
            <ns3:atemp>14.0</ns3:atemp>
            <ns3:hr>136</ns3:hr>
          </ns3:TrackPointExtension>
        </extensions>
      </trkpt>
      <trkpt lat="-22.01881698332726955413818359375" lon="166.464551389217376708984375">
        <ele>849.79998779296875</ele>
        <time>2016-08-12T19:55:53.000Z</time>
        <extensions>
          <ns3:TrackPointExtension>
            <ns3:atemp>14.0</ns3:atemp>
            <ns3:hr>136</ns3:hr>
          </ns3:TrackPointExtension>
        </extensions>
      </trkpt>
      <trkpt lat="-22.018803320825099945068359375" lon="166.4645267464220523834228515625">
        <ele>850.20001220703125</ele>
        <time>2016-08-12T19:55:54.000Z</time>
        <extensions>
          <ns3:TrackPointExtension>
            <ns3:atemp>14.0</ns3:atemp>
            <ns3:hr>136</ns3:hr>
          </ns3:TrackPointExtension>
        </extensions>
      </trkpt>
      <trkpt lat="-22.018791921436786651611328125" lon="166.46450051106512546539306640625">
        <ele>850</ele>
        <time>2016-08-12T19:55:55.000Z</time>
        <extensions>
          <ns3:TrackPointExtension>
            <ns3:atemp>14.0</ns3:atemp>
            <ns3:hr>137</ns3:hr>
          </ns3:TrackPointExtension>
        </extensions>
      </trkpt>
      <trkpt lat="-22.01877390034496784210205078125" lon="166.46447561681270599365234375">
        <ele>849.5999755859375</ele>
        <time>2016-08-12T19:55:56.000Z</time>
        <extensions>
          <ns3:TrackPointExtension>
            <ns3:atemp>14.0</ns3:atemp>
            <ns3:hr>137</ns3:hr>
          </ns3:TrackPointExtension>
        </extensions>
      </trkpt>
      <trkpt lat="-22.01875562779605388641357421875" lon="166.46445206366479396820068359375">
        <ele>849.5999755859375</ele>
        <time>2016-08-12T19:55:57.000Z</time>
        <extensions>
          <ns3:TrackPointExtension>
            <ns3:atemp>14.0</ns3:atemp>
            <ns3:hr>137</ns3:hr>
          </ns3:TrackPointExtension>
        </extensions>
      </trkpt>
      <trkpt lat="-22.01873366720974445343017578125" lon="166.4644328691065311431884765625">
        <ele>850</ele>
        <time>2016-08-12T19:55:58.000Z</time>
        <extensions>
          <ns3:TrackPointExtension>
            <ns3:atemp>14.0</ns3:atemp>
            <ns3:hr>137</ns3:hr>
          </ns3:TrackPointExtension>
        </extensions>
      </trkpt>
      <trkpt lat="-22.01870910823345184326171875" lon="166.46441702730953693389892578125">
        <ele>850</ele>
        <time>2016-08-12T19:55:59.000Z</time>
        <extensions>
          <ns3:TrackPointExtension>
            <ns3:atemp>14.0</ns3:atemp>
            <ns3:hr>137</ns3:hr>
          </ns3:TrackPointExtension>
        </extensions>
      </trkpt>
      <trkpt lat="-22.01868672855198383331298828125" lon="166.4644003473222255706787109375">
        <ele>849.5999755859375</ele>
        <time>2016-08-12T19:56:00.000Z</time>
        <extensions>
          <ns3:TrackPointExtension>
            <ns3:atemp>14.0</ns3:atemp>
            <ns3:hr>137</ns3:hr>
          </ns3:TrackPointExtension>
        </extensions>
      </trkpt>
      <trkpt lat="-22.01866225339472293853759765625" lon="166.464385427534580230712890625">
        <ele>849.4000244140625</ele>
        <time>2016-08-12T19:56:01.000Z</time>
        <extensions>
          <ns3:TrackPointExtension>
            <ns3:atemp>14.0</ns3:atemp>
            <ns3:hr>137</ns3:hr>
          </ns3:TrackPointExtension>
        </extensions>
      </trkpt>
      <trkpt lat="-22.01863878406584262847900390625" lon="166.46437478251755237579345703125">
        <ele>849.79998779296875</ele>
        <time>2016-08-12T19:56:02.000Z</time>
        <extensions>
          <ns3:TrackPointExtension>
            <ns3:atemp>14.0</ns3:atemp>
            <ns3:hr>137</ns3:hr>
          </ns3:TrackPointExtension>
        </extensions>
      </trkpt>
      <trkpt lat="-22.01861657202243804931640625" lon="166.464362628757953643798828125">
        <ele>849.79998779296875</ele>
        <time>2016-08-12T19:56:03.000Z</time>
        <extensions>
          <ns3:TrackPointExtension>
            <ns3:atemp>14.0</ns3:atemp>
            <ns3:hr>137</ns3:hr>
          </ns3:TrackPointExtension>
        </extensions>
      </trkpt>
      <trkpt lat="-22.01859016902744770050048828125" lon="166.46434980444610118865966796875">
        <ele>849.4000244140625</ele>
        <time>2016-08-12T19:56:04.000Z</time>
        <extensions>
          <ns3:TrackPointExtension>
            <ns3:atemp>14.0</ns3:atemp>
            <ns3:hr>136</ns3:hr>
          </ns3:TrackPointExtension>
        </extensions>
      </trkpt>
      <trkpt lat="-22.0185647718608379364013671875" lon="166.46433806978166103363037109375">
        <ele>849.20001220703125</ele>
        <time>2016-08-12T19:56:05.000Z</time>
        <extensions>
          <ns3:TrackPointExtension>
            <ns3:atemp>14.0</ns3:atemp>
            <ns3:hr>137</ns3:hr>
          </ns3:TrackPointExtension>
        </extensions>
      </trkpt>
      <trkpt lat="-22.0185396261513233184814453125" lon="166.4643302746117115020751953125">
        <ele>849.5999755859375</ele>
        <time>2016-08-12T19:56:06.000Z</time>
        <extensions>
          <ns3:TrackPointExtension>
            <ns3:atemp>14.0</ns3:atemp>
            <ns3:hr>137</ns3:hr>
          </ns3:TrackPointExtension>
        </extensions>
      </trkpt>
      <trkpt lat="-22.0185168273746967315673828125" lon="166.46432432346045970916748046875">
        <ele>849.79998779296875</ele>
        <time>2016-08-12T19:56:07.000Z</time>
        <extensions>
          <ns3:TrackPointExtension>
            <ns3:atemp>14.0</ns3:atemp>
            <ns3:hr>136</ns3:hr>
          </ns3:TrackPointExtension>
        </extensions>
      </trkpt>
      <trkpt lat="-22.01849319040775299072265625" lon="166.46431644447147846221923828125">
        <ele>849.79998779296875</ele>
        <time>2016-08-12T19:56:08.000Z</time>
        <extensions>
          <ns3:TrackPointExtension>
            <ns3:atemp>14.0</ns3:atemp>
            <ns3:hr>137</ns3:hr>
          </ns3:TrackPointExtension>
        </extensions>
      </trkpt>
      <trkpt lat="-22.01846863143146038055419921875" lon="166.46430655382573604583740234375">
        <ele>849.4000244140625</ele>
        <time>2016-08-12T19:56:09.000Z</time>
        <extensions>
          <ns3:TrackPointExtension>
            <ns3:atemp>14.0</ns3:atemp>
            <ns3:hr>137</ns3:hr>
          </ns3:TrackPointExtension>
        </extensions>
      </trkpt>
      <trkpt lat="-22.01844549737870693206787109375" lon="166.4642933942377567291259765625">
        <ele>849.5999755859375</ele>
        <time>2016-08-12T19:56:10.000Z</time>
        <extensions>
          <ns3:TrackPointExtension>
            <ns3:atemp>14.0</ns3:atemp>
            <ns3:hr>137</ns3:hr>
          </ns3:TrackPointExtension>
        </extensions>
      </trkpt>
      <trkpt lat="-22.01842286624014377593994140625" lon="166.464277468621730804443359375">
        <ele>850.20001220703125</ele>
        <time>2016-08-12T19:56:11.000Z</time>
        <extensions>
          <ns3:TrackPointExtension>
            <ns3:atemp>14.0</ns3:atemp>
            <ns3:hr>137</ns3:hr>
          </ns3:TrackPointExtension>
        </extensions>
      </trkpt>
      <trkpt lat="-22.01840258203446865081787109375" lon="166.46426363848149776458740234375">
        <ele>850.20001220703125</ele>
        <time>2016-08-12T19:56:12.000Z</time>
        <extensions>
          <ns3:TrackPointExtension>
            <ns3:atemp>14.0</ns3:atemp>
            <ns3:hr>137</ns3:hr>
          </ns3:TrackPointExtension>
        </extensions>
      </trkpt>
      <trkpt lat="-22.0183857344090938568115234375" lon="166.464245282113552093505859375">
        <ele>849.79998779296875</ele>
        <time>2016-08-12T19:56:13.000Z</time>
        <extensions>
          <ns3:TrackPointExtension>
            <ns3:atemp>14.0</ns3:atemp>
            <ns3:hr>137</ns3:hr>
          </ns3:TrackPointExtension>
        </extensions>
      </trkpt>
      <trkpt lat="-22.018369138240814208984375" lon="166.46422457881271839141845703125">
        <ele>849.79998779296875</ele>
        <time>2016-08-12T19:56:14.000Z</time>
        <extensions>
          <ns3:TrackPointExtension>
            <ns3:atemp>14.0</ns3:atemp>
            <ns3:hr>137</ns3:hr>
          </ns3:TrackPointExtension>
        </extensions>
      </trkpt>
      <trkpt lat="-22.01835446991026401519775390625" lon="166.464207731187343597412109375">
        <ele>850.20001220703125</ele>
        <time>2016-08-12T19:56:15.000Z</time>
        <extensions>
          <ns3:TrackPointExtension>
            <ns3:atemp>14.0</ns3:atemp>
            <ns3:hr>137</ns3:hr>
          </ns3:TrackPointExtension>
        </extensions>
      </trkpt>
      <trkpt lat="-22.0183367840945720672607421875" lon="166.46419205702841281890869140625">
        <ele>850.20001220703125</ele>
        <time>2016-08-12T19:56:16.000Z</time>
        <extensions>
          <ns3:TrackPointExtension>
            <ns3:atemp>14.0</ns3:atemp>
            <ns3:hr>137</ns3:hr>
          </ns3:TrackPointExtension>
        </extensions>
      </trkpt>
      <trkpt lat="-22.0183210261166095733642578125" lon="166.46417445503175258636474609375">
        <ele>850</ele>
        <time>2016-08-12T19:56:17.000Z</time>
        <extensions>
          <ns3:TrackPointExtension>
            <ns3:atemp>14.0</ns3:atemp>
            <ns3:hr>137</ns3:hr>
          </ns3:TrackPointExtension>
        </extensions>
      </trkpt>
      <trkpt lat="-22.018305100500583648681640625" lon="166.46415819413959980010986328125">
        <ele>850.20001220703125</ele>
        <time>2016-08-12T19:56:18.000Z</time>
        <extensions>
          <ns3:TrackPointExtension>
            <ns3:atemp>14.0</ns3:atemp>
            <ns3:hr>137</ns3:hr>
          </ns3:TrackPointExtension>
        </extensions>
      </trkpt>
      <trkpt lat="-22.0182844810187816619873046875" lon="166.46414277143776416778564453125">
        <ele>850.4000244140625</ele>
        <time>2016-08-12T19:56:19.000Z</time>
        <extensions>
          <ns3:TrackPointExtension>
            <ns3:atemp>14.0</ns3:atemp>
            <ns3:hr>137</ns3:hr>
          </ns3:TrackPointExtension>
        </extensions>
      </trkpt>
      <trkpt lat="-22.01826176606118679046630859375" lon="166.4641297794878482818603515625">
        <ele>850.4000244140625</ele>
        <time>2016-08-12T19:56:20.000Z</time>
        <extensions>
          <ns3:TrackPointExtension>
            <ns3:atemp>14.0</ns3:atemp>
            <ns3:hr>137</ns3:hr>
          </ns3:TrackPointExtension>
        </extensions>
      </trkpt>
      <trkpt lat="-22.0182392187416553497314453125" lon="166.4641200564801692962646484375">
        <ele>850.20001220703125</ele>
        <time>2016-08-12T19:56:21.000Z</time>
        <extensions>
          <ns3:TrackPointExtension>
            <ns3:atemp>14.0</ns3:atemp>
            <ns3:hr>137</ns3:hr>
          </ns3:TrackPointExtension>
        </extensions>
      </trkpt>
      <trkpt lat="-22.0182177610695362091064453125" lon="166.46410656161606311798095703125">
        <ele>850.4000244140625</ele>
        <time>2016-08-12T19:56:22.000Z</time>
        <extensions>
          <ns3:TrackPointExtension>
            <ns3:atemp>14.0</ns3:atemp>
            <ns3:hr>137</ns3:hr>
          </ns3:TrackPointExtension>
        </extensions>
      </trkpt>
      <trkpt lat="-22.018199153244495391845703125" lon="166.46408963017165660858154296875">
        <ele>850.79998779296875</ele>
        <time>2016-08-12T19:56:23.000Z</time>
        <extensions>
          <ns3:TrackPointExtension>
            <ns3:atemp>14.0</ns3:atemp>
            <ns3:hr>137</ns3:hr>
          </ns3:TrackPointExtension>
        </extensions>
      </trkpt>
      <trkpt lat="-22.01817878521978855133056640625" lon="166.4640717767179012298583984375">
        <ele>850.4000244140625</ele>
        <time>2016-08-12T19:56:24.000Z</time>
        <extensions>
          <ns3:TrackPointExtension>
            <ns3:atemp>14.0</ns3:atemp>
            <ns3:hr>137</ns3:hr>
          </ns3:TrackPointExtension>
        </extensions>
      </trkpt>
      <trkpt lat="-22.01815816573798656463623046875" lon="166.46405559964478015899658203125">
        <ele>850.20001220703125</ele>
        <time>2016-08-12T19:56:25.000Z</time>
        <extensions>
          <ns3:TrackPointExtension>
            <ns3:atemp>14.0</ns3:atemp>
            <ns3:hr>137</ns3:hr>
          </ns3:TrackPointExtension>
        </extensions>
      </trkpt>
      <trkpt lat="-22.01813804917037487030029296875" lon="166.4640375785529613494873046875">
        <ele>850.5999755859375</ele>
        <time>2016-08-12T19:56:26.000Z</time>
        <extensions>
          <ns3:TrackPointExtension>
            <ns3:atemp>14.0</ns3:atemp>
            <ns3:hr>137</ns3:hr>
          </ns3:TrackPointExtension>
        </extensions>
      </trkpt>
      <trkpt lat="-22.0181185193359851837158203125" lon="166.46401821635663509368896484375">
        <ele>851</ele>
        <time>2016-08-12T19:56:27.000Z</time>
        <extensions>
          <ns3:TrackPointExtension>
            <ns3:atemp>14.0</ns3:atemp>
            <ns3:hr>136</ns3:hr>
          </ns3:TrackPointExtension>
        </extensions>
      </trkpt>
      <trkpt lat="-22.01809865422546863555908203125" lon="166.4639948308467864990234375">
        <ele>851</ele>
        <time>2016-08-12T19:56:28.000Z</time>
        <extensions>
          <ns3:TrackPointExtension>
            <ns3:atemp>14.0</ns3:atemp>
            <ns3:hr>136</ns3:hr>
          </ns3:TrackPointExtension>
        </extensions>
      </trkpt>
      <trkpt lat="-22.01807610690593719482421875" lon="166.46397261880338191986083984375">
        <ele>850.5999755859375</ele>
        <time>2016-08-12T19:56:29.000Z</time>
        <extensions>
          <ns3:TrackPointExtension>
            <ns3:atemp>14.0</ns3:atemp>
            <ns3:hr>136</ns3:hr>
          </ns3:TrackPointExtension>
        </extensions>
      </trkpt>
      <trkpt lat="-22.0180521346628665924072265625" lon="166.46395686082541942596435546875">
        <ele>850.5999755859375</ele>
        <time>2016-08-12T19:56:30.000Z</time>
        <extensions>
          <ns3:TrackPointExtension>
            <ns3:atemp>14.0</ns3:atemp>
            <ns3:hr>136</ns3:hr>
          </ns3:TrackPointExtension>
        </extensions>
      </trkpt>
      <trkpt lat="-22.0180259831249713897705078125" lon="166.46394261159002780914306640625">
        <ele>851</ele>
        <time>2016-08-12T19:56:31.000Z</time>
        <extensions>
          <ns3:TrackPointExtension>
            <ns3:atemp>14.0</ns3:atemp>
            <ns3:hr>136</ns3:hr>
          </ns3:TrackPointExtension>
        </extensions>
      </trkpt>
      <trkpt lat="-22.01800209470093250274658203125" lon="166.463928781449794769287109375">
        <ele>850.79998779296875</ele>
        <time>2016-08-12T19:56:32.000Z</time>
        <extensions>
          <ns3:TrackPointExtension>
            <ns3:atemp>14.0</ns3:atemp>
            <ns3:hr>136</ns3:hr>
          </ns3:TrackPointExtension>
        </extensions>
      </trkpt>
      <trkpt lat="-22.0179817266762256622314453125" lon="166.463913023471832275390625">
        <ele>850.5999755859375</ele>
        <time>2016-08-12T19:56:33.000Z</time>
        <extensions>
          <ns3:TrackPointExtension>
            <ns3:atemp>14.0</ns3:atemp>
            <ns3:hr>137</ns3:hr>
          </ns3:TrackPointExtension>
        </extensions>
      </trkpt>
      <trkpt lat="-22.01795817352831363677978515625" lon="166.46389617584645748138427734375">
        <ele>850.79998779296875</ele>
        <time>2016-08-12T19:56:34.000Z</time>
        <extensions>
          <ns3:TrackPointExtension>
            <ns3:atemp>14.0</ns3:atemp>
            <ns3:hr>136</ns3:hr>
          </ns3:TrackPointExtension>
        </extensions>
      </trkpt>
      <trkpt lat="-22.01793638058006763458251953125" lon="166.46388159133493900299072265625">
        <ele>851</ele>
        <time>2016-08-12T19:56:35.000Z</time>
        <extensions>
          <ns3:TrackPointExtension>
            <ns3:atemp>14.0</ns3:atemp>
            <ns3:hr>136</ns3:hr>
          </ns3:TrackPointExtension>
        </extensions>
      </trkpt>
      <trkpt lat="-22.01791559346020221710205078125" lon="166.46386885084211826324462890625">
        <ele>851.20001220703125</ele>
        <time>2016-08-12T19:56:36.000Z</time>
        <extensions>
          <ns3:TrackPointExtension>
            <ns3:atemp>14.0</ns3:atemp>
            <ns3:hr>136</ns3:hr>
          </ns3:TrackPointExtension>
        </extensions>
      </trkpt>
      <trkpt lat="-22.01789380051195621490478515625" lon="166.4638526737689971923828125">
        <ele>851</ele>
        <time>2016-08-12T19:56:37.000Z</time>
        <extensions>
          <ns3:TrackPointExtension>
            <ns3:atemp>14.0</ns3:atemp>
            <ns3:hr>136</ns3:hr>
          </ns3:TrackPointExtension>
        </extensions>
      </trkpt>
      <trkpt lat="-22.01787083409726619720458984375" lon="166.46383582614362239837646484375">
        <ele>850.79998779296875</ele>
        <time>2016-08-12T19:56:38.000Z</time>
        <extensions>
          <ns3:TrackPointExtension>
            <ns3:atemp>14.0</ns3:atemp>
            <ns3:hr>136</ns3:hr>
          </ns3:TrackPointExtension>
        </extensions>
      </trkpt>
      <trkpt lat="-22.0178476162254810333251953125" lon="166.46381847560405731201171875">
        <ele>850.79998779296875</ele>
        <time>2016-08-12T19:56:39.000Z</time>
        <extensions>
          <ns3:TrackPointExtension>
            <ns3:atemp>14.0</ns3:atemp>
            <ns3:hr>137</ns3:hr>
          </ns3:TrackPointExtension>
        </extensions>
      </trkpt>
      <trkpt lat="-22.01782238669693470001220703125" lon="166.46380506455898284912109375">
        <ele>850.4000244140625</ele>
        <time>2016-08-12T19:56:40.000Z</time>
        <extensions>
          <ns3:TrackPointExtension>
            <ns3:atemp>14.0</ns3:atemp>
            <ns3:hr>136</ns3:hr>
          </ns3:TrackPointExtension>
        </extensions>
      </trkpt>
      <trkpt lat="-22.017800174653530120849609375" lon="166.46379224024713039398193359375">
        <ele>850.4000244140625</ele>
        <time>2016-08-12T19:56:41.000Z</time>
        <extensions>
          <ns3:TrackPointExtension>
            <ns3:atemp>14.0</ns3:atemp>
            <ns3:hr>136</ns3:hr>
          </ns3:TrackPointExtension>
        </extensions>
      </trkpt>
      <trkpt lat="-22.01777712441980838775634765625" lon="166.4637797512114048004150390625">
        <ele>850.20001220703125</ele>
        <time>2016-08-12T19:56:42.000Z</time>
        <extensions>
          <ns3:TrackPointExtension>
            <ns3:atemp>14.0</ns3:atemp>
            <ns3:hr>136</ns3:hr>
          </ns3:TrackPointExtension>
        </extensions>
      </trkpt>
      <trkpt lat="-22.01775331981480121612548828125" lon="166.46376826800405979156494140625">
        <ele>850</ele>
        <time>2016-08-12T19:56:43.000Z</time>
        <extensions>
          <ns3:TrackPointExtension>
            <ns3:atemp>14.0</ns3:atemp>
            <ns3:hr>136</ns3:hr>
          </ns3:TrackPointExtension>
        </extensions>
      </trkpt>
      <trkpt lat="-22.017729096114635467529296875" lon="166.46376751363277435302734375">
        <ele>849.79998779296875</ele>
        <time>2016-08-12T19:56:44.000Z</time>
        <extensions>
          <ns3:TrackPointExtension>
            <ns3:atemp>14.0</ns3:atemp>
            <ns3:hr>136</ns3:hr>
          </ns3:TrackPointExtension>
        </extensions>
      </trkpt>
      <trkpt lat="-22.01770101673901081085205078125" lon="166.4637695252895355224609375">
        <ele>850</ele>
        <time>2016-08-12T19:56:45.000Z</time>
        <extensions>
          <ns3:TrackPointExtension>
            <ns3:atemp>14.0</ns3:atemp>
            <ns3:hr>136</ns3:hr>
          </ns3:TrackPointExtension>
        </extensions>
      </trkpt>
      <trkpt lat="-22.01767352409660816192626953125" lon="166.46377212367951869964599609375">
        <ele>850.20001220703125</ele>
        <time>2016-08-12T19:56:46.000Z</time>
        <extensions>
          <ns3:TrackPointExtension>
            <ns3:atemp>14.0</ns3:atemp>
            <ns3:hr>136</ns3:hr>
          </ns3:TrackPointExtension>
        </extensions>
      </trkpt>
      <trkpt lat="-22.01765097677707672119140625" lon="166.463775895535945892333984375">
        <ele>849.79998779296875</ele>
        <time>2016-08-12T19:56:47.000Z</time>
        <extensions>
          <ns3:TrackPointExtension>
            <ns3:atemp>14.0</ns3:atemp>
            <ns3:hr>136</ns3:hr>
          </ns3:TrackPointExtension>
        </extensions>
      </trkpt>
      <trkpt lat="-22.0176293514668941497802734375" lon="166.46378452889621257781982421875">
        <ele>849.79998779296875</ele>
        <time>2016-08-12T19:56:48.000Z</time>
        <extensions>
          <ns3:TrackPointExtension>
            <ns3:atemp>14.0</ns3:atemp>
            <ns3:hr>136</ns3:hr>
          </ns3:TrackPointExtension>
        </extensions>
      </trkpt>
      <trkpt lat="-22.0176052115857601165771484375" lon="166.4637797512114048004150390625">
        <ele>849.79998779296875</ele>
        <time>2016-08-12T19:56:49.000Z</time>
        <extensions>
          <ns3:TrackPointExtension>
            <ns3:atemp>14.0</ns3:atemp>
            <ns3:hr>135</ns3:hr>
          </ns3:TrackPointExtension>
        </extensions>
      </trkpt>
      <trkpt lat="-22.0175797306001186370849609375" lon="166.4637767337262630462646484375">
        <ele>849.79998779296875</ele>
        <time>2016-08-12T19:56:50.000Z</time>
        <extensions>
          <ns3:TrackPointExtension>
            <ns3:atemp>14.0</ns3:atemp>
            <ns3:hr>135</ns3:hr>
          </ns3:TrackPointExtension>
        </extensions>
      </trkpt>
      <trkpt lat="-22.0175525732338428497314453125" lon="166.46378151141107082366943359375">
        <ele>850.20001220703125</ele>
        <time>2016-08-12T19:56:51.000Z</time>
        <extensions>
          <ns3:TrackPointExtension>
            <ns3:atemp>14.0</ns3:atemp>
            <ns3:hr>134</ns3:hr>
          </ns3:TrackPointExtension>
        </extensions>
      </trkpt>
      <trkpt lat="-22.01752935536205768585205078125" lon="166.46379039622843265533447265625">
        <ele>850.20001220703125</ele>
        <time>2016-08-12T19:56:52.000Z</time>
        <extensions>
          <ns3:TrackPointExtension>
            <ns3:atemp>14.0</ns3:atemp>
            <ns3:hr>134</ns3:hr>
          </ns3:TrackPointExtension>
        </extensions>
      </trkpt>
      <trkpt lat="-22.01750638894736766815185546875" lon="166.46380045451223850250244140625">
        <ele>849.79998779296875</ele>
        <time>2016-08-12T19:56:53.000Z</time>
        <extensions>
          <ns3:TrackPointExtension>
            <ns3:atemp>14.0</ns3:atemp>
            <ns3:hr>134</ns3:hr>
          </ns3:TrackPointExtension>
        </extensions>
      </trkpt>
      <trkpt lat="-22.0174848474562168121337890625" lon="166.4638151228427886962890625">
        <ele>849.79998779296875</ele>
        <time>2016-08-12T19:56:54.000Z</time>
        <extensions>
          <ns3:TrackPointExtension>
            <ns3:atemp>14.0</ns3:atemp>
            <ns3:hr>134</ns3:hr>
          </ns3:TrackPointExtension>
        </extensions>
      </trkpt>
      <trkpt lat="-22.01746590435504913330078125" lon="166.463831551373004913330078125">
        <ele>850</ele>
        <time>2016-08-12T19:56:55.000Z</time>
        <extensions>
          <ns3:TrackPointExtension>
            <ns3:atemp>14.0</ns3:atemp>
            <ns3:hr>135</ns3:hr>
          </ns3:TrackPointExtension>
        </extensions>
      </trkpt>
      <trkpt lat="-22.01744302175939083099365234375" lon="166.463844962418079376220703125">
        <ele>850.20001220703125</ele>
        <time>2016-08-12T19:56:56.000Z</time>
        <extensions>
          <ns3:TrackPointExtension>
            <ns3:atemp>14.0</ns3:atemp>
            <ns3:hr>135</ns3:hr>
          </ns3:TrackPointExtension>
        </extensions>
      </trkpt>
      <trkpt lat="-22.01741896569728851318359375" lon="166.4638605527579784393310546875">
        <ele>850</ele>
        <time>2016-08-12T19:56:57.000Z</time>
        <extensions>
          <ns3:TrackPointExtension>
            <ns3:atemp>14.0</ns3:atemp>
            <ns3:hr>135</ns3:hr>
          </ns3:TrackPointExtension>
        </extensions>
      </trkpt>
      <trkpt lat="-22.0173993520438671112060546875" lon="166.46387605927884578704833984375">
        <ele>850.20001220703125</ele>
        <time>2016-08-12T19:56:58.000Z</time>
        <extensions>
          <ns3:TrackPointExtension>
            <ns3:atemp>14.0</ns3:atemp>
            <ns3:hr>135</ns3:hr>
          </ns3:TrackPointExtension>
        </extensions>
      </trkpt>
      <trkpt lat="-22.01738032512366771697998046875" lon="166.46389198489487171173095703125">
        <ele>850.5999755859375</ele>
        <time>2016-08-12T19:56:59.000Z</time>
        <extensions>
          <ns3:TrackPointExtension>
            <ns3:atemp>14.0</ns3:atemp>
            <ns3:hr>135</ns3:hr>
          </ns3:TrackPointExtension>
        </extensions>
      </trkpt>
      <trkpt lat="-22.0173634774982929229736328125" lon="166.4639111794531345367431640625">
        <ele>850.5999755859375</ele>
        <time>2016-08-12T19:57:00.000Z</time>
        <extensions>
          <ns3:TrackPointExtension>
            <ns3:atemp>14.0</ns3:atemp>
            <ns3:hr>135</ns3:hr>
          </ns3:TrackPointExtension>
        </extensions>
      </trkpt>
      <trkpt lat="-22.01734243892133235931396484375" lon="166.46393288858234882354736328125">
        <ele>850.4000244140625</ele>
        <time>2016-08-12T19:57:01.000Z</time>
        <extensions>
          <ns3:TrackPointExtension>
            <ns3:atemp>14.0</ns3:atemp>
            <ns3:hr>135</ns3:hr>
          </ns3:TrackPointExtension>
        </extensions>
      </trkpt>
      <trkpt lat="-22.01732399873435497283935546875" lon="166.46395401097834110260009765625">
        <ele>850.5999755859375</ele>
        <time>2016-08-12T19:57:02.000Z</time>
        <extensions>
          <ns3:TrackPointExtension>
            <ns3:atemp>14.0</ns3:atemp>
            <ns3:hr>135</ns3:hr>
          </ns3:TrackPointExtension>
        </extensions>
      </trkpt>
      <trkpt lat="-22.01730807311832904815673828125" lon="166.463977731764316558837890625">
        <ele>850.79998779296875</ele>
        <time>2016-08-12T19:57:03.000Z</time>
        <extensions>
          <ns3:TrackPointExtension>
            <ns3:atemp>14.0</ns3:atemp>
            <ns3:hr>135</ns3:hr>
          </ns3:TrackPointExtension>
        </extensions>
      </trkpt>
      <trkpt lat="-22.0172890461981296539306640625" lon="166.4639970101416110992431640625">
        <ele>850.79998779296875</ele>
        <time>2016-08-12T19:57:04.000Z</time>
        <extensions>
          <ns3:TrackPointExtension>
            <ns3:atemp>14.0</ns3:atemp>
            <ns3:hr>135</ns3:hr>
          </ns3:TrackPointExtension>
        </extensions>
      </trkpt>
      <trkpt lat="-22.0172732882201671600341796875" lon="166.4640151150524616241455078125">
        <ele>850.79998779296875</ele>
        <time>2016-08-12T19:57:05.000Z</time>
        <extensions>
          <ns3:TrackPointExtension>
            <ns3:atemp>14.0</ns3:atemp>
            <ns3:hr>135</ns3:hr>
          </ns3:TrackPointExtension>
        </extensions>
      </trkpt>
      <trkpt lat="-22.0172605477273464202880859375" lon="166.46404922939836978912353515625">
        <ele>851</ele>
        <time>2016-08-12T19:57:06.000Z</time>
        <extensions>
          <ns3:TrackPointExtension>
            <ns3:atemp>14.0</ns3:atemp>
            <ns3:hr>135</ns3:hr>
          </ns3:TrackPointExtension>
        </extensions>
      </trkpt>
      <trkpt lat="-22.017242945730686187744140625" lon="166.4640672504901885986328125">
        <ele>851.20001220703125</ele>
        <time>2016-08-12T19:57:07.000Z</time>
        <extensions>
          <ns3:TrackPointExtension>
            <ns3:atemp>14.0</ns3:atemp>
            <ns3:hr>135</ns3:hr>
          </ns3:TrackPointExtension>
        </extensions>
      </trkpt>
      <trkpt lat="-22.017223834991455078125" lon="166.4640761353075504302978515625">
        <ele>851</ele>
        <time>2016-08-12T19:57:08.000Z</time>
        <extensions>
          <ns3:TrackPointExtension>
            <ns3:atemp>14.0</ns3:atemp>
            <ns3:hr>135</ns3:hr>
          </ns3:TrackPointExtension>
        </extensions>
      </trkpt>
      <trkpt lat="-22.01720413751900196075439453125" lon="166.4640989340841770172119140625">
        <ele>850.79998779296875</ele>
        <time>2016-08-12T19:57:09.000Z</time>
        <extensions>
          <ns3:TrackPointExtension>
            <ns3:atemp>14.0</ns3:atemp>
            <ns3:hr>135</ns3:hr>
          </ns3:TrackPointExtension>
        </extensions>
      </trkpt>
      <trkpt lat="-22.01717899180948734283447265625" lon="166.4641133509576320648193359375">
        <ele>851</ele>
        <time>2016-08-12T19:57:10.000Z</time>
        <extensions>
          <ns3:TrackPointExtension>
            <ns3:atemp>14.0</ns3:atemp>
            <ns3:hr>135</ns3:hr>
          </ns3:TrackPointExtension>
        </extensions>
      </trkpt>
      <trkpt lat="-22.01715636067092418670654296875" lon="166.464121229946613311767578125">
        <ele>851.4000244140625</ele>
        <time>2016-08-12T19:57:11.000Z</time>
        <extensions>
          <ns3:TrackPointExtension>
            <ns3:atemp>14.0</ns3:atemp>
            <ns3:hr>135</ns3:hr>
          </ns3:TrackPointExtension>
        </extensions>
      </trkpt>
      <trkpt lat="-22.01713641174137592315673828125" lon="166.4641327969729900360107421875">
        <ele>851.4000244140625</ele>
        <time>2016-08-12T19:57:12.000Z</time>
        <extensions>
          <ns3:TrackPointExtension>
            <ns3:atemp>14.0</ns3:atemp>
            <ns3:hr>136</ns3:hr>
          </ns3:TrackPointExtension>
        </extensions>
      </trkpt>
      <trkpt lat="-22.0171187259256839752197265625" lon="166.46414595656096935272216796875">
        <ele>851</ele>
        <time>2016-08-12T19:57:13.000Z</time>
        <extensions>
          <ns3:TrackPointExtension>
            <ns3:atemp>14.0</ns3:atemp>
            <ns3:hr>135</ns3:hr>
          </ns3:TrackPointExtension>
        </extensions>
      </trkpt>
      <trkpt lat="-22.01710003428161144256591796875" lon="166.46415366791188716888427734375">
        <ele>851</ele>
        <time>2016-08-12T19:57:14.000Z</time>
        <extensions>
          <ns3:TrackPointExtension>
            <ns3:atemp>14.0</ns3:atemp>
            <ns3:hr>136</ns3:hr>
          </ns3:TrackPointExtension>
        </extensions>
      </trkpt>
      <trkpt lat="-22.01708075590431690216064453125" lon="166.46416707895696163177490234375">
        <ele>851</ele>
        <time>2016-08-12T19:57:15.000Z</time>
        <extensions>
          <ns3:TrackPointExtension>
            <ns3:atemp>14.0</ns3:atemp>
            <ns3:hr>135</ns3:hr>
          </ns3:TrackPointExtension>
        </extensions>
      </trkpt>
      <trkpt lat="-22.0170600526034832000732421875" lon="166.4641767181456089019775390625">
        <ele>851</ele>
        <time>2016-08-12T19:57:16.000Z</time>
        <extensions>
          <ns3:TrackPointExtension>
            <ns3:atemp>14.0</ns3:atemp>
            <ns3:hr>135</ns3:hr>
          </ns3:TrackPointExtension>
        </extensions>
      </trkpt>
      <trkpt lat="-22.01704136095941066741943359375" lon="166.46418518386781215667724609375">
        <ele>850.79998779296875</ele>
        <time>2016-08-12T19:57:17.000Z</time>
        <extensions>
          <ns3:TrackPointExtension>
            <ns3:atemp>14.0</ns3:atemp>
            <ns3:hr>135</ns3:hr>
          </ns3:TrackPointExtension>
        </extensions>
      </trkpt>
      <trkpt lat="-22.017027698457241058349609375" lon="166.46418786607682704925537109375">
        <ele>850.79998779296875</ele>
        <time>2016-08-12T19:57:18.000Z</time>
        <extensions>
          <ns3:TrackPointExtension>
            <ns3:atemp>14.0</ns3:atemp>
            <ns3:hr>135</ns3:hr>
          </ns3:TrackPointExtension>
        </extensions>
      </trkpt>
      <trkpt lat="-22.01702493242919445037841796875" lon="166.46419306285679340362548828125">
        <ele>850.79998779296875</ele>
        <time>2016-08-12T19:57:19.000Z</time>
        <extensions>
          <ns3:TrackPointExtension>
            <ns3:atemp>14.0</ns3:atemp>
            <ns3:hr>135</ns3:hr>
          </ns3:TrackPointExtension>
        </extensions>
      </trkpt>
      <trkpt lat="-22.017022669315338134765625" lon="166.4641891233623027801513671875">
        <ele>850.5999755859375</ele>
        <time>2016-08-12T19:57:21.000Z</time>
        <extensions>
          <ns3:TrackPointExtension>
            <ns3:atemp>14.0</ns3:atemp>
            <ns3:hr>133</ns3:hr>
          </ns3:TrackPointExtension>
        </extensions>
      </trkpt>
      <trkpt lat="-22.01701487414538860321044921875" lon="166.46418325603008270263671875">
        <ele>850.79998779296875</ele>
        <time>2016-08-12T19:57:22.000Z</time>
        <extensions>
          <ns3:TrackPointExtension>
            <ns3:atemp>14.0</ns3:atemp>
            <ns3:hr>133</ns3:hr>
          </ns3:TrackPointExtension>
        </extensions>
      </trkpt>
      <trkpt lat="-22.01700389385223388671875" lon="166.4641871117055416107177734375">
        <ele>850.79998779296875</ele>
        <time>2016-08-12T19:57:23.000Z</time>
        <extensions>
          <ns3:TrackPointExtension>
            <ns3:atemp>14.0</ns3:atemp>
            <ns3:hr>132</ns3:hr>
          </ns3:TrackPointExtension>
        </extensions>
      </trkpt>
      <trkpt lat="-22.01699458993971347808837890625" lon="166.4641879498958587646484375">
        <ele>850.5999755859375</ele>
        <time>2016-08-12T19:57:24.000Z</time>
        <extensions>
          <ns3:TrackPointExtension>
            <ns3:atemp>14.0</ns3:atemp>
            <ns3:hr>132</ns3:hr>
          </ns3:TrackPointExtension>
        </extensions>
      </trkpt>
      <trkpt lat="-22.01698369346559047698974609375" lon="166.46418836899101734161376953125">
        <ele>850.4000244140625</ele>
        <time>2016-08-12T19:57:25.000Z</time>
        <extensions>
          <ns3:TrackPointExtension>
            <ns3:atemp>14.0</ns3:atemp>
            <ns3:hr>131</ns3:hr>
          </ns3:TrackPointExtension>
        </extensions>
      </trkpt>
      <trkpt lat="-22.01697170734405517578125" lon="166.4641959965229034423828125">
        <ele>850.4000244140625</ele>
        <time>2016-08-12T19:57:26.000Z</time>
        <extensions>
          <ns3:TrackPointExtension>
            <ns3:atemp>14.0</ns3:atemp>
            <ns3:hr>131</ns3:hr>
          </ns3:TrackPointExtension>
        </extensions>
      </trkpt>
      <trkpt lat="-22.0169556140899658203125" lon="166.4642018638551235198974609375">
        <ele>850.4000244140625</ele>
        <time>2016-08-12T19:57:27.000Z</time>
        <extensions>
          <ns3:TrackPointExtension>
            <ns3:atemp>14.0</ns3:atemp>
            <ns3:hr>131</ns3:hr>
          </ns3:TrackPointExtension>
        </extensions>
      </trkpt>
      <trkpt lat="-22.01693792827427387237548828125" lon="166.46420647390186786651611328125">
        <ele>850.4000244140625</ele>
        <time>2016-08-12T19:57:28.000Z</time>
        <extensions>
          <ns3:TrackPointExtension>
            <ns3:atemp>14.0</ns3:atemp>
            <ns3:hr>131</ns3:hr>
          </ns3:TrackPointExtension>
        </extensions>
      </trkpt>
      <trkpt lat="-22.0169162191450595855712890625" lon="166.46421066485345363616943359375">
        <ele>851</ele>
        <time>2016-08-12T19:57:29.000Z</time>
        <extensions>
          <ns3:TrackPointExtension>
            <ns3:atemp>14.0</ns3:atemp>
            <ns3:hr>131</ns3:hr>
          </ns3:TrackPointExtension>
        </extensions>
      </trkpt>
      <trkpt lat="-22.01688922941684722900390625" lon="166.464208066463470458984375">
        <ele>851.4000244140625</ele>
        <time>2016-08-12T19:57:30.000Z</time>
        <extensions>
          <ns3:TrackPointExtension>
            <ns3:atemp>14.0</ns3:atemp>
            <ns3:hr>131</ns3:hr>
          </ns3:TrackPointExtension>
        </extensions>
      </trkpt>
      <trkpt lat="-22.0168625749647617340087890625" lon="166.46420781500637531280517578125">
        <ele>851</ele>
        <time>2016-08-12T19:57:31.000Z</time>
        <extensions>
          <ns3:TrackPointExtension>
            <ns3:atemp>14.0</ns3:atemp>
            <ns3:hr>131</ns3:hr>
          </ns3:TrackPointExtension>
        </extensions>
      </trkpt>
      <trkpt lat="-22.01683868654072284698486328125" lon="166.4642156101763248443603515625">
        <ele>850.79998779296875</ele>
        <time>2016-08-12T19:57:32.000Z</time>
        <extensions>
          <ns3:TrackPointExtension>
            <ns3:atemp>14.0</ns3:atemp>
            <ns3:hr>132</ns3:hr>
          </ns3:TrackPointExtension>
        </extensions>
      </trkpt>
      <trkpt lat="-22.0168159715831279754638671875" lon="166.464224494993686676025390625">
        <ele>850.79998779296875</ele>
        <time>2016-08-12T19:57:33.000Z</time>
        <extensions>
          <ns3:TrackPointExtension>
            <ns3:atemp>14.0</ns3:atemp>
            <ns3:hr>132</ns3:hr>
          </ns3:TrackPointExtension>
        </extensions>
      </trkpt>
      <trkpt lat="-22.01679040677845478057861328125" lon="166.4642320387065410614013671875">
        <ele>851.20001220703125</ele>
        <time>2016-08-12T19:57:34.000Z</time>
        <extensions>
          <ns3:TrackPointExtension>
            <ns3:atemp>14.0</ns3:atemp>
            <ns3:hr>132</ns3:hr>
          </ns3:TrackPointExtension>
        </extensions>
      </trkpt>
      <trkpt lat="-22.0167663507163524627685546875" lon="166.4642397500574588775634765625">
        <ele>851.20001220703125</ele>
        <time>2016-08-12T19:57:35.000Z</time>
        <extensions>
          <ns3:TrackPointExtension>
            <ns3:atemp>14.0</ns3:atemp>
            <ns3:hr>132</ns3:hr>
          </ns3:TrackPointExtension>
        </extensions>
      </trkpt>
      <trkpt lat="-22.01674036681652069091796875" lon="166.464243270456790924072265625">
        <ele>851</ele>
        <time>2016-08-12T19:57:36.000Z</time>
        <extensions>
          <ns3:TrackPointExtension>
            <ns3:atemp>14.0</ns3:atemp>
            <ns3:hr>132</ns3:hr>
          </ns3:TrackPointExtension>
        </extensions>
      </trkpt>
      <trkpt lat="-22.01671580784022808074951171875" lon="166.4642437733709812164306640625">
        <ele>851</ele>
        <time>2016-08-12T19:57:37.000Z</time>
        <extensions>
          <ns3:TrackPointExtension>
            <ns3:atemp>14.0</ns3:atemp>
            <ns3:hr>132</ns3:hr>
          </ns3:TrackPointExtension>
        </extensions>
      </trkpt>
      <trkpt lat="-22.0166929252445697784423828125" lon="166.46424637176096439361572265625">
        <ele>851.20001220703125</ele>
        <time>2016-08-12T19:57:38.000Z</time>
        <extensions>
          <ns3:TrackPointExtension>
            <ns3:atemp>14.0</ns3:atemp>
            <ns3:hr>133</ns3:hr>
          </ns3:TrackPointExtension>
        </extensions>
      </trkpt>
      <trkpt lat="-22.016668953001499176025390625" lon="166.46424804814159870147705078125">
        <ele>851.4000244140625</ele>
        <time>2016-08-12T19:57:39.000Z</time>
        <extensions>
          <ns3:TrackPointExtension>
            <ns3:atemp>14.0</ns3:atemp>
            <ns3:hr>133</ns3:hr>
          </ns3:TrackPointExtension>
        </extensions>
      </trkpt>
      <trkpt lat="-22.01664472930133342742919921875" lon="166.4642518199980258941650390625">
        <ele>851.20001220703125</ele>
        <time>2016-08-12T19:57:40.000Z</time>
        <extensions>
          <ns3:TrackPointExtension>
            <ns3:atemp>14.0</ns3:atemp>
            <ns3:hr>133</ns3:hr>
          </ns3:TrackPointExtension>
        </extensions>
      </trkpt>
      <trkpt lat="-22.0166158117353916168212890625" lon="166.46424829959869384765625">
        <ele>850.79998779296875</ele>
        <time>2016-08-12T19:57:41.000Z</time>
        <extensions>
          <ns3:TrackPointExtension>
            <ns3:atemp>14.0</ns3:atemp>
            <ns3:hr>133</ns3:hr>
          </ns3:TrackPointExtension>
        </extensions>
      </trkpt>
      <trkpt lat="-22.016588486731052398681640625" lon="166.4642477966845035552978515625">
        <ele>851.20001220703125</ele>
        <time>2016-08-12T19:57:42.000Z</time>
        <extensions>
          <ns3:TrackPointExtension>
            <ns3:atemp>14.0</ns3:atemp>
            <ns3:hr>133</ns3:hr>
          </ns3:TrackPointExtension>
        </extensions>
      </trkpt>
      <trkpt lat="-22.01656359247863292694091796875" lon="166.4642451144754886627197265625">
        <ele>851.5999755859375</ele>
        <time>2016-08-12T19:57:43.000Z</time>
        <extensions>
          <ns3:TrackPointExtension>
            <ns3:atemp>14.0</ns3:atemp>
            <ns3:hr>133</ns3:hr>
          </ns3:TrackPointExtension>
        </extensions>
      </trkpt>
      <trkpt lat="-22.0165356807410717010498046875" lon="166.46424536593258380889892578125">
        <ele>851.4000244140625</ele>
        <time>2016-08-12T19:57:44.000Z</time>
        <extensions>
          <ns3:TrackPointExtension>
            <ns3:atemp>14.0</ns3:atemp>
            <ns3:hr>133</ns3:hr>
          </ns3:TrackPointExtension>
        </extensions>
      </trkpt>
      <trkpt lat="-22.0165091939270496368408203125" lon="166.46424737758934497833251953125">
        <ele>851.20001220703125</ele>
        <time>2016-08-12T19:57:45.000Z</time>
        <extensions>
          <ns3:TrackPointExtension>
            <ns3:atemp>14.0</ns3:atemp>
            <ns3:hr>133</ns3:hr>
          </ns3:TrackPointExtension>
        </extensions>
      </trkpt>
      <trkpt lat="-22.0164853893220424652099609375" lon="166.464260034263134002685546875">
        <ele>851</ele>
        <time>2016-08-12T19:57:46.000Z</time>
        <extensions>
          <ns3:TrackPointExtension>
            <ns3:atemp>14.0</ns3:atemp>
            <ns3:hr>133</ns3:hr>
          </ns3:TrackPointExtension>
        </extensions>
      </trkpt>
      <trkpt lat="-22.01646150089800357818603515625" lon="166.464271433651447296142578125">
        <ele>851.4000244140625</ele>
        <time>2016-08-12T19:57:47.000Z</time>
        <extensions>
          <ns3:TrackPointExtension>
            <ns3:atemp>14.0</ns3:atemp>
            <ns3:hr>133</ns3:hr>
          </ns3:TrackPointExtension>
        </extensions>
      </trkpt>
      <trkpt lat="-22.016438953578472137451171875" lon="166.4642830006778240203857421875">
        <ele>851.79998779296875</ele>
        <time>2016-08-12T19:57:48.000Z</time>
        <extensions>
          <ns3:TrackPointExtension>
            <ns3:atemp>14.0</ns3:atemp>
            <ns3:hr>134</ns3:hr>
          </ns3:TrackPointExtension>
        </extensions>
      </trkpt>
      <trkpt lat="-22.0164156518876552581787109375" lon="166.46429590880870819091796875">
        <ele>851.5999755859375</ele>
        <time>2016-08-12T19:57:49.000Z</time>
        <extensions>
          <ns3:TrackPointExtension>
            <ns3:atemp>14.0</ns3:atemp>
            <ns3:hr>134</ns3:hr>
          </ns3:TrackPointExtension>
        </extensions>
      </trkpt>
      <trkpt lat="-22.01639260165393352508544921875" lon="166.46430663764476776123046875">
        <ele>851.20001220703125</ele>
        <time>2016-08-12T19:57:50.000Z</time>
        <extensions>
          <ns3:TrackPointExtension>
            <ns3:atemp>14.0</ns3:atemp>
            <ns3:hr>134</ns3:hr>
          </ns3:TrackPointExtension>
        </extensions>
      </trkpt>
      <trkpt lat="-22.01637265272438526153564453125" lon="166.4643239043653011322021484375">
        <ele>851.4000244140625</ele>
        <time>2016-08-12T19:57:51.000Z</time>
        <extensions>
          <ns3:TrackPointExtension>
            <ns3:atemp>14.0</ns3:atemp>
            <ns3:hr>134</ns3:hr>
          </ns3:TrackPointExtension>
        </extensions>
      </trkpt>
      <trkpt lat="-22.01635253615677356719970703125" lon="166.46434485912322998046875">
        <ele>851.4000244140625</ele>
        <time>2016-08-12T19:57:52.000Z</time>
        <extensions>
          <ns3:TrackPointExtension>
            <ns3:atemp>14.0</ns3:atemp>
            <ns3:hr>134</ns3:hr>
          </ns3:TrackPointExtension>
        </extensions>
      </trkpt>
      <trkpt lat="-22.01633225195109844207763671875" lon="166.4643654786050319671630859375">
        <ele>850.79998779296875</ele>
        <time>2016-08-12T19:57:53.000Z</time>
        <extensions>
          <ns3:TrackPointExtension>
            <ns3:atemp>14.0</ns3:atemp>
            <ns3:hr>134</ns3:hr>
          </ns3:TrackPointExtension>
        </extensions>
      </trkpt>
      <trkpt lat="-22.0163113810122013092041015625" lon="166.464381404221057891845703125">
        <ele>850.5999755859375</ele>
        <time>2016-08-12T19:57:54.000Z</time>
        <extensions>
          <ns3:TrackPointExtension>
            <ns3:atemp>14.0</ns3:atemp>
            <ns3:hr>133</ns3:hr>
          </ns3:TrackPointExtension>
        </extensions>
      </trkpt>
      <trkpt lat="-22.01629017479717731475830078125" lon="166.4643889479339122772216796875">
        <ele>850.79998779296875</ele>
        <time>2016-08-12T19:57:55.000Z</time>
        <extensions>
          <ns3:TrackPointExtension>
            <ns3:atemp>14.0</ns3:atemp>
            <ns3:hr>133</ns3:hr>
          </ns3:TrackPointExtension>
        </extensions>
      </trkpt>
      <trkpt lat="-22.01627206988632678985595703125" lon="166.4643916301429271697998046875">
        <ele>850.5999755859375</ele>
        <time>2016-08-12T19:57:56.000Z</time>
        <extensions>
          <ns3:TrackPointExtension>
            <ns3:atemp>14.0</ns3:atemp>
            <ns3:hr>133</ns3:hr>
          </ns3:TrackPointExtension>
        </extensions>
      </trkpt>
      <trkpt lat="-22.0162537135183811187744140625" lon="166.46438417024910449981689453125">
        <ele>850.4000244140625</ele>
        <time>2016-08-12T19:57:57.000Z</time>
        <extensions>
          <ns3:TrackPointExtension>
            <ns3:atemp>14.0</ns3:atemp>
            <ns3:hr>133</ns3:hr>
          </ns3:TrackPointExtension>
        </extensions>
      </trkpt>
      <trkpt lat="-22.01623451896011829376220703125" lon="166.46437528543174266815185546875">
        <ele>850.4000244140625</ele>
        <time>2016-08-12T19:57:58.000Z</time>
        <extensions>
          <ns3:TrackPointExtension>
            <ns3:atemp>14.0</ns3:atemp>
            <ns3:hr>133</ns3:hr>
          </ns3:TrackPointExtension>
        </extensions>
      </trkpt>
      <trkpt lat="-22.01621607877314090728759765625" lon="166.464363299310207366943359375">
        <ele>850.5999755859375</ele>
        <time>2016-08-12T19:57:59.000Z</time>
        <extensions>
          <ns3:TrackPointExtension>
            <ns3:atemp>14.0</ns3:atemp>
            <ns3:hr>133</ns3:hr>
          </ns3:TrackPointExtension>
        </extensions>
      </trkpt>
      <trkpt lat="-22.016196213662624359130859375" lon="166.4643527381122112274169921875">
        <ele>850.79998779296875</ele>
        <time>2016-08-12T19:58:00.000Z</time>
        <extensions>
          <ns3:TrackPointExtension>
            <ns3:atemp>14.0</ns3:atemp>
            <ns3:hr>133</ns3:hr>
          </ns3:TrackPointExtension>
        </extensions>
      </trkpt>
      <trkpt lat="-22.01618255116045475006103515625" lon="166.46433077752590179443359375">
        <ele>850.79998779296875</ele>
        <time>2016-08-12T19:58:01.000Z</time>
        <extensions>
          <ns3:TrackPointExtension>
            <ns3:atemp>14.0</ns3:atemp>
            <ns3:hr>133</ns3:hr>
          </ns3:TrackPointExtension>
        </extensions>
      </trkpt>
      <trkpt lat="-22.01616411097347736358642578125" lon="166.46431426517665386199951171875">
        <ele>850.79998779296875</ele>
        <time>2016-08-12T19:58:02.000Z</time>
        <extensions>
          <ns3:TrackPointExtension>
            <ns3:atemp>14.0</ns3:atemp>
            <ns3:hr>133</ns3:hr>
          </ns3:TrackPointExtension>
        </extensions>
      </trkpt>
      <trkpt lat="-22.01614567078649997711181640625" lon="166.46430320106446743011474609375">
        <ele>851.20001220703125</ele>
        <time>2016-08-12T19:58:03.000Z</time>
        <extensions>
          <ns3:TrackPointExtension>
            <ns3:atemp>14.0</ns3:atemp>
            <ns3:hr>132</ns3:hr>
          </ns3:TrackPointExtension>
        </extensions>
      </trkpt>
      <trkpt lat="-22.016125135123729705810546875" lon="166.4642933942377567291259765625">
        <ele>851.4000244140625</ele>
        <time>2016-08-12T19:58:04.000Z</time>
        <extensions>
          <ns3:TrackPointExtension>
            <ns3:atemp>14.0</ns3:atemp>
            <ns3:hr>133</ns3:hr>
          </ns3:TrackPointExtension>
        </extensions>
      </trkpt>
      <trkpt lat="-22.01610376127064228057861328125" lon="166.4642830006778240203857421875">
        <ele>851.20001220703125</ele>
        <time>2016-08-12T19:58:05.000Z</time>
        <extensions>
          <ns3:TrackPointExtension>
            <ns3:atemp>14.0</ns3:atemp>
            <ns3:hr>133</ns3:hr>
          </ns3:TrackPointExtension>
        </extensions>
      </trkpt>
      <trkpt lat="-22.01608414761722087860107421875" lon="166.46426766179502010345458984375">
        <ele>851.20001220703125</ele>
        <time>2016-08-12T19:58:06.000Z</time>
        <extensions>
          <ns3:TrackPointExtension>
            <ns3:atemp>14.0</ns3:atemp>
            <ns3:hr>133</ns3:hr>
          </ns3:TrackPointExtension>
        </extensions>
      </trkpt>
      <trkpt lat="-22.01606486923992633819580078125" lon="166.4642477966845035552978515625">
        <ele>851.20001220703125</ele>
        <time>2016-08-12T19:58:07.000Z</time>
        <extensions>
          <ns3:TrackPointExtension>
            <ns3:atemp>14.0</ns3:atemp>
            <ns3:hr>133</ns3:hr>
          </ns3:TrackPointExtension>
        </extensions>
      </trkpt>
      <trkpt lat="-22.01604701578617095947265625" lon="166.4642337150871753692626953125">
        <ele>851.20001220703125</ele>
        <time>2016-08-12T19:58:08.000Z</time>
        <extensions>
          <ns3:TrackPointExtension>
            <ns3:atemp>14.0</ns3:atemp>
            <ns3:hr>133</ns3:hr>
          </ns3:TrackPointExtension>
        </extensions>
      </trkpt>
      <trkpt lat="-22.0160280726850032806396484375" lon="166.46422080695629119873046875">
        <ele>851.20001220703125</ele>
        <time>2016-08-12T19:58:09.000Z</time>
        <extensions>
          <ns3:TrackPointExtension>
            <ns3:atemp>14.0</ns3:atemp>
            <ns3:hr>133</ns3:hr>
          </ns3:TrackPointExtension>
        </extensions>
      </trkpt>
      <trkpt lat="-22.01600820757448673248291015625" lon="166.46421619690954685211181640625">
        <ele>851.20001220703125</ele>
        <time>2016-08-12T19:58:10.000Z</time>
        <extensions>
          <ns3:TrackPointExtension>
            <ns3:atemp>14.0</ns3:atemp>
            <ns3:hr>133</ns3:hr>
          </ns3:TrackPointExtension>
        </extensions>
      </trkpt>
      <trkpt lat="-22.01598842628300189971923828125" lon="166.464213095605373382568359375">
        <ele>851</ele>
        <time>2016-08-12T19:58:11.000Z</time>
        <extensions>
          <ns3:TrackPointExtension>
            <ns3:atemp>14.0</ns3:atemp>
            <ns3:hr>133</ns3:hr>
          </ns3:TrackPointExtension>
        </extensions>
      </trkpt>
      <trkpt lat="-22.01596730388700962066650390625" lon="166.4642075635492801666259765625">
        <ele>851</ele>
        <time>2016-08-12T19:58:12.000Z</time>
        <extensions>
          <ns3:TrackPointExtension>
            <ns3:atemp>14.0</ns3:atemp>
            <ns3:hr>134</ns3:hr>
          </ns3:TrackPointExtension>
        </extensions>
      </trkpt>
      <trkpt lat="-22.01594618149101734161376953125" lon="166.46420337259769439697265625">
        <ele>850.79998779296875</ele>
        <time>2016-08-12T19:58:13.000Z</time>
        <extensions>
          <ns3:TrackPointExtension>
            <ns3:atemp>14.0</ns3:atemp>
            <ns3:hr>134</ns3:hr>
          </ns3:TrackPointExtension>
        </extensions>
      </trkpt>
      <trkpt lat="-22.01592497527599334716796875" lon="166.46420362405478954315185546875">
        <ele>850.79998779296875</ele>
        <time>2016-08-12T19:58:14.000Z</time>
        <extensions>
          <ns3:TrackPointExtension>
            <ns3:atemp>14.0</ns3:atemp>
            <ns3:hr>134</ns3:hr>
          </ns3:TrackPointExtension>
        </extensions>
      </trkpt>
      <trkpt lat="-22.01590309850871562957763671875" lon="166.4642095752060413360595703125">
        <ele>850.5999755859375</ele>
        <time>2016-08-12T19:58:15.000Z</time>
        <extensions>
          <ns3:TrackPointExtension>
            <ns3:atemp>14.0</ns3:atemp>
            <ns3:hr>134</ns3:hr>
          </ns3:TrackPointExtension>
        </extensions>
      </trkpt>
      <trkpt lat="-22.0158822275698184967041015625" lon="166.4642122574150562286376953125">
        <ele>850.79998779296875</ele>
        <time>2016-08-12T19:58:16.000Z</time>
        <extensions>
          <ns3:TrackPointExtension>
            <ns3:atemp>14.0</ns3:atemp>
            <ns3:hr>134</ns3:hr>
          </ns3:TrackPointExtension>
        </extensions>
      </trkpt>
      <trkpt lat="-22.01586018316447734832763671875" lon="166.464213430881500244140625">
        <ele>850.79998779296875</ele>
        <time>2016-08-12T19:58:17.000Z</time>
        <extensions>
          <ns3:TrackPointExtension>
            <ns3:atemp>14.0</ns3:atemp>
            <ns3:hr>134</ns3:hr>
          </ns3:TrackPointExtension>
        </extensions>
      </trkpt>
      <trkpt lat="-22.0158366300165653228759765625" lon="166.46420898847281932830810546875">
        <ele>850.79998779296875</ele>
        <time>2016-08-12T19:58:18.000Z</time>
        <extensions>
          <ns3:TrackPointExtension>
            <ns3:atemp>14.0</ns3:atemp>
            <ns3:hr>134</ns3:hr>
          </ns3:TrackPointExtension>
        </extensions>
      </trkpt>
      <trkpt lat="-22.01581508852541446685791015625" lon="166.46420630626380443572998046875">
        <ele>850.79998779296875</ele>
        <time>2016-08-12T19:58:19.000Z</time>
        <extensions>
          <ns3:TrackPointExtension>
            <ns3:atemp>14.0</ns3:atemp>
            <ns3:hr>134</ns3:hr>
          </ns3:TrackPointExtension>
        </extensions>
      </trkpt>
      <trkpt lat="-22.0157930441200733184814453125" lon="166.46419725380837917327880859375">
        <ele>850.5999755859375</ele>
        <time>2016-08-12T19:58:20.000Z</time>
        <extensions>
          <ns3:TrackPointExtension>
            <ns3:atemp>14.0</ns3:atemp>
            <ns3:hr>134</ns3:hr>
          </ns3:TrackPointExtension>
        </extensions>
      </trkpt>
      <trkpt lat="-22.01577401719987392425537109375" lon="166.46417864598333835601806640625">
        <ele>850.5999755859375</ele>
        <time>2016-08-12T19:58:21.000Z</time>
        <extensions>
          <ns3:TrackPointExtension>
            <ns3:atemp>14.0</ns3:atemp>
            <ns3:hr>134</ns3:hr>
          </ns3:TrackPointExtension>
        </extensions>
      </trkpt>
      <trkpt lat="-22.015760354697704315185546875" lon="166.46416087634861469268798828125">
        <ele>850.5999755859375</ele>
        <time>2016-08-12T19:58:22.000Z</time>
        <extensions>
          <ns3:TrackPointExtension>
            <ns3:atemp>14.0</ns3:atemp>
            <ns3:hr>134</ns3:hr>
          </ns3:TrackPointExtension>
        </extensions>
      </trkpt>
      <trkpt lat="-22.01574526727199554443359375" lon="166.46413522772490978240966796875">
        <ele>850.5999755859375</ele>
        <time>2016-08-12T19:58:23.000Z</time>
        <extensions>
          <ns3:TrackPointExtension>
            <ns3:atemp>14.0</ns3:atemp>
            <ns3:hr>134</ns3:hr>
          </ns3:TrackPointExtension>
        </extensions>
      </trkpt>
      <trkpt lat="-22.0157290063798427581787109375" lon="166.46410739980638027191162109375">
        <ele>850.79998779296875</ele>
        <time>2016-08-12T19:58:24.000Z</time>
        <extensions>
          <ns3:TrackPointExtension>
            <ns3:atemp>14.0</ns3:atemp>
            <ns3:hr>134</ns3:hr>
          </ns3:TrackPointExtension>
        </extensions>
      </trkpt>
      <trkpt lat="-22.01571442186832427978515625" lon="166.4640858583152294158935546875">
        <ele>850.79998779296875</ele>
        <time>2016-08-12T19:58:25.000Z</time>
        <extensions>
          <ns3:TrackPointExtension>
            <ns3:atemp>14.0</ns3:atemp>
            <ns3:hr>135</ns3:hr>
          </ns3:TrackPointExtension>
        </extensions>
      </trkpt>
      <trkpt lat="-22.01569992117583751678466796875" lon="166.4640627242624759674072265625">
        <ele>850.79998779296875</ele>
        <time>2016-08-12T19:58:26.000Z</time>
        <extensions>
          <ns3:TrackPointExtension>
            <ns3:atemp>14.0</ns3:atemp>
            <ns3:hr>135</ns3:hr>
          </ns3:TrackPointExtension>
        </extensions>
      </trkpt>
      <trkpt lat="-22.015686593949794769287109375" lon="166.464046128094196319580078125">
        <ele>850.5999755859375</ele>
        <time>2016-08-12T19:58:27.000Z</time>
        <extensions>
          <ns3:TrackPointExtension>
            <ns3:atemp>14.0</ns3:atemp>
            <ns3:hr>134</ns3:hr>
          </ns3:TrackPointExtension>
        </extensions>
      </trkpt>
      <trkpt lat="-22.0156730152666568756103515625" lon="166.46403037011623382568359375">
        <ele>850.5999755859375</ele>
        <time>2016-08-12T19:58:28.000Z</time>
        <extensions>
          <ns3:TrackPointExtension>
            <ns3:atemp>14.0</ns3:atemp>
            <ns3:hr>135</ns3:hr>
          </ns3:TrackPointExtension>
        </extensions>
      </trkpt>
      <trkpt lat="-22.01565675437450408935546875" lon="166.46401050500571727752685546875">
        <ele>850.4000244140625</ele>
        <time>2016-08-12T19:58:29.000Z</time>
        <extensions>
          <ns3:TrackPointExtension>
            <ns3:atemp>14.0</ns3:atemp>
            <ns3:hr>134</ns3:hr>
          </ns3:TrackPointExtension>
        </extensions>
      </trkpt>
      <trkpt lat="-22.0156373083591461181640625" lon="166.4639879576861858367919921875">
        <ele>850.5999755859375</ele>
        <time>2016-08-12T19:58:30.000Z</time>
        <extensions>
          <ns3:TrackPointExtension>
            <ns3:atemp>14.0</ns3:atemp>
            <ns3:hr>135</ns3:hr>
          </ns3:TrackPointExtension>
        </extensions>
      </trkpt>
      <trkpt lat="-22.015620879828929901123046875" lon="166.4639706909656524658203125">
        <ele>851</ele>
        <time>2016-08-12T19:58:31.000Z</time>
        <extensions>
          <ns3:TrackPointExtension>
            <ns3:atemp>14.0</ns3:atemp>
            <ns3:hr>134</ns3:hr>
          </ns3:TrackPointExtension>
        </extensions>
      </trkpt>
      <trkpt lat="-22.0156036131083965301513671875" lon="166.46396222524344921112060546875">
        <ele>851</ele>
        <time>2016-08-12T19:58:32.000Z</time>
        <extensions>
          <ns3:TrackPointExtension>
            <ns3:atemp>14.0</ns3:atemp>
            <ns3:hr>135</ns3:hr>
          </ns3:TrackPointExtension>
        </extensions>
      </trkpt>
      <trkpt lat="-22.01558626256883144378662109375" lon="166.4639648236334323883056640625">
        <ele>851</ele>
        <time>2016-08-12T19:58:33.000Z</time>
        <extensions>
          <ns3:TrackPointExtension>
            <ns3:atemp>14.0</ns3:atemp>
            <ns3:hr>135</ns3:hr>
          </ns3:TrackPointExtension>
        </extensions>
      </trkpt>
      <trkpt lat="-22.015568912029266357421875" lon="166.46396960131824016571044921875">
        <ele>851</ele>
        <time>2016-08-12T19:58:34.000Z</time>
        <extensions>
          <ns3:TrackPointExtension>
            <ns3:atemp>14.0</ns3:atemp>
            <ns3:hr>134</ns3:hr>
          </ns3:TrackPointExtension>
        </extensions>
      </trkpt>
      <trkpt lat="-22.0155529864132404327392578125" lon="166.46397613920271396636962890625">
        <ele>851</ele>
        <time>2016-08-12T19:58:35.000Z</time>
        <extensions>
          <ns3:TrackPointExtension>
            <ns3:atemp>14.0</ns3:atemp>
            <ns3:hr>134</ns3:hr>
          </ns3:TrackPointExtension>
        </extensions>
      </trkpt>
      <trkpt lat="-22.0155394077301025390625" lon="166.463983096182346343994140625">
        <ele>851</ele>
        <time>2016-08-12T19:58:36.000Z</time>
        <extensions>
          <ns3:TrackPointExtension>
            <ns3:atemp>14.0</ns3:atemp>
            <ns3:hr>134</ns3:hr>
          </ns3:TrackPointExtension>
        </extensions>
      </trkpt>
      <trkpt lat="-22.01553010381758213043212890625" lon="166.46398938260972499847412109375">
        <ele>851</ele>
        <time>2016-08-12T19:58:37.000Z</time>
        <extensions>
          <ns3:TrackPointExtension>
            <ns3:atemp>14.0</ns3:atemp>
            <ns3:hr>133</ns3:hr>
          </ns3:TrackPointExtension>
        </extensions>
      </trkpt>
      <trkpt lat="-22.01552306301891803741455078125" lon="166.4639953337609767913818359375">
        <ele>851</ele>
        <time>2016-08-12T19:58:38.000Z</time>
        <extensions>
          <ns3:TrackPointExtension>
            <ns3:atemp>14.0</ns3:atemp>
            <ns3:hr>133</ns3:hr>
          </ns3:TrackPointExtension>
        </extensions>
      </trkpt>
      <trkpt lat="-22.01551283709704875946044921875" lon="166.46399659104645252227783203125">
        <ele>851</ele>
        <time>2016-08-12T19:58:39.000Z</time>
        <extensions>
          <ns3:TrackPointExtension>
            <ns3:atemp>14.0</ns3:atemp>
            <ns3:hr>132</ns3:hr>
          </ns3:TrackPointExtension>
        </extensions>
      </trkpt>
      <trkpt lat="-22.01550252735614776611328125" lon="166.4639980159699916839599609375">
        <ele>851</ele>
        <time>2016-08-12T19:58:40.000Z</time>
        <extensions>
          <ns3:TrackPointExtension>
            <ns3:atemp>14.0</ns3:atemp>
            <ns3:hr>132</ns3:hr>
          </ns3:TrackPointExtension>
        </extensions>
      </trkpt>
      <trkpt lat="-22.01548903249204158782958984375" lon="166.4640040509402751922607421875">
        <ele>850.79998779296875</ele>
        <time>2016-08-12T19:58:41.000Z</time>
        <extensions>
          <ns3:TrackPointExtension>
            <ns3:atemp>14.0</ns3:atemp>
            <ns3:hr>131</ns3:hr>
          </ns3:TrackPointExtension>
        </extensions>
      </trkpt>
      <trkpt lat="-22.0154684968292713165283203125" lon="166.4640120975673198699951171875">
        <ele>851.20001220703125</ele>
        <time>2016-08-12T19:58:42.000Z</time>
        <extensions>
          <ns3:TrackPointExtension>
            <ns3:atemp>14.0</ns3:atemp>
            <ns3:hr>131</ns3:hr>
          </ns3:TrackPointExtension>
        </extensions>
      </trkpt>
      <trkpt lat="-22.0154443569481372833251953125" lon="166.4640204794704914093017578125">
        <ele>851.5999755859375</ele>
        <time>2016-08-12T19:58:43.000Z</time>
        <extensions>
          <ns3:TrackPointExtension>
            <ns3:atemp>14.0</ns3:atemp>
            <ns3:hr>130</ns3:hr>
          </ns3:TrackPointExtension>
        </extensions>
      </trkpt>
      <trkpt lat="-22.01541745103895664215087890625" lon="166.46403078921139240264892578125">
        <ele>851.4000244140625</ele>
        <time>2016-08-12T19:58:44.000Z</time>
        <extensions>
          <ns3:TrackPointExtension>
            <ns3:atemp>14.0</ns3:atemp>
            <ns3:hr>130</ns3:hr>
          </ns3:TrackPointExtension>
        </extensions>
      </trkpt>
      <trkpt lat="-22.01539448462426662445068359375" lon="166.464035399258136749267578125">
        <ele>851</ele>
        <time>2016-08-12T19:58:45.000Z</time>
        <extensions>
          <ns3:TrackPointExtension>
            <ns3:atemp>14.0</ns3:atemp>
            <ns3:hr>131</ns3:hr>
          </ns3:TrackPointExtension>
        </extensions>
      </trkpt>
      <trkpt lat="-22.01537688262760639190673828125" lon="166.46404780447483062744140625">
        <ele>851.20001220703125</ele>
        <time>2016-08-12T19:58:46.000Z</time>
        <extensions>
          <ns3:TrackPointExtension>
            <ns3:atemp>14.0</ns3:atemp>
            <ns3:hr>131</ns3:hr>
          </ns3:TrackPointExtension>
        </extensions>
      </trkpt>
      <trkpt lat="-22.01535701751708984375" lon="166.4640553481876850128173828125">
        <ele>851.79998779296875</ele>
        <time>2016-08-12T19:58:47.000Z</time>
        <extensions>
          <ns3:TrackPointExtension>
            <ns3:atemp>14.0</ns3:atemp>
            <ns3:hr>132</ns3:hr>
          </ns3:TrackPointExtension>
        </extensions>
      </trkpt>
      <trkpt lat="-22.01533396728336811065673828125" lon="166.464057527482509613037109375">
        <ele>852</ele>
        <time>2016-08-12T19:58:48.000Z</time>
        <extensions>
          <ns3:TrackPointExtension>
            <ns3:atemp>14.0</ns3:atemp>
            <ns3:hr>132</ns3:hr>
          </ns3:TrackPointExtension>
        </extensions>
      </trkpt>
      <trkpt lat="-22.01530815102159976959228515625" lon="166.46405191160738468170166015625">
        <ele>851.5999755859375</ele>
        <time>2016-08-12T19:58:49.000Z</time>
        <extensions>
          <ns3:TrackPointExtension>
            <ns3:atemp>14.0</ns3:atemp>
            <ns3:hr>132</ns3:hr>
          </ns3:TrackPointExtension>
        </extensions>
      </trkpt>
      <trkpt lat="-22.0152844302356243133544921875" lon="166.4640462957322597503662109375">
        <ele>851.4000244140625</ele>
        <time>2016-08-12T19:58:50.000Z</time>
        <extensions>
          <ns3:TrackPointExtension>
            <ns3:atemp>14.0</ns3:atemp>
            <ns3:hr>133</ns3:hr>
          </ns3:TrackPointExtension>
        </extensions>
      </trkpt>
      <trkpt lat="-22.01525785960257053375244140625" lon="166.46404034458100795745849609375">
        <ele>851.79998779296875</ele>
        <time>2016-08-12T19:58:51.000Z</time>
        <extensions>
          <ns3:TrackPointExtension>
            <ns3:atemp>14.0</ns3:atemp>
            <ns3:hr>133</ns3:hr>
          </ns3:TrackPointExtension>
        </extensions>
      </trkpt>
      <trkpt lat="-22.0152314566075801849365234375" lon="166.4640392549335956573486328125">
        <ele>851.79998779296875</ele>
        <time>2016-08-12T19:58:52.000Z</time>
        <extensions>
          <ns3:TrackPointExtension>
            <ns3:atemp>14.0</ns3:atemp>
            <ns3:hr>133</ns3:hr>
          </ns3:TrackPointExtension>
        </extensions>
      </trkpt>
      <trkpt lat="-22.01520488597452640533447265625" lon="166.46403841674327850341796875">
        <ele>851.5999755859375</ele>
        <time>2016-08-12T19:58:53.000Z</time>
        <extensions>
          <ns3:TrackPointExtension>
            <ns3:atemp>14.0</ns3:atemp>
            <ns3:hr>133</ns3:hr>
          </ns3:TrackPointExtension>
        </extensions>
      </trkpt>
      <trkpt lat="-22.01518024317920207977294921875" lon="166.464038752019405364990234375">
        <ele>851.79998779296875</ele>
        <time>2016-08-12T19:58:54.000Z</time>
        <extensions>
          <ns3:TrackPointExtension>
            <ns3:atemp>14.0</ns3:atemp>
            <ns3:hr>133</ns3:hr>
          </ns3:TrackPointExtension>
        </extensions>
      </trkpt>
      <trkpt lat="-22.01515576802194118499755859375" lon="166.46403967402875423431396484375">
        <ele>852</ele>
        <time>2016-08-12T19:58:55.000Z</time>
        <extensions>
          <ns3:TrackPointExtension>
            <ns3:atemp>14.0</ns3:atemp>
            <ns3:hr>133</ns3:hr>
          </ns3:TrackPointExtension>
        </extensions>
      </trkpt>
      <trkpt lat="-22.0151302032172679901123046875" lon="166.46403598599135875701904296875">
        <ele>851.79998779296875</ele>
        <time>2016-08-12T19:58:56.000Z</time>
        <extensions>
          <ns3:TrackPointExtension>
            <ns3:atemp>14.0</ns3:atemp>
            <ns3:hr>133</ns3:hr>
          </ns3:TrackPointExtension>
        </extensions>
      </trkpt>
      <trkpt lat="-22.0151053927838802337646484375" lon="166.46403598599135875701904296875">
        <ele>851.5999755859375</ele>
        <time>2016-08-12T19:58:57.000Z</time>
        <extensions>
          <ns3:TrackPointExtension>
            <ns3:atemp>14.0</ns3:atemp>
            <ns3:hr>134</ns3:hr>
          </ns3:TrackPointExtension>
        </extensions>
      </trkpt>
      <trkpt lat="-22.01508343219757080078125" lon="166.4640295319259166717529296875">
        <ele>851.5999755859375</ele>
        <time>2016-08-12T19:58:58.000Z</time>
        <extensions>
          <ns3:TrackPointExtension>
            <ns3:atemp>14.0</ns3:atemp>
            <ns3:hr>133</ns3:hr>
          </ns3:TrackPointExtension>
        </extensions>
      </trkpt>
      <trkpt lat="-22.01506155543029308319091796875" lon="166.4640261791646480560302734375">
        <ele>851.5999755859375</ele>
        <time>2016-08-12T19:58:59.000Z</time>
        <extensions>
          <ns3:TrackPointExtension>
            <ns3:atemp>14.0</ns3:atemp>
            <ns3:hr>133</ns3:hr>
          </ns3:TrackPointExtension>
        </extensions>
      </trkpt>
      <trkpt lat="-22.01503842137753963470458984375" lon="166.4640245027840137481689453125">
        <ele>851.79998779296875</ele>
        <time>2016-08-12T19:59:00.000Z</time>
        <extensions>
          <ns3:TrackPointExtension>
            <ns3:atemp>14.0</ns3:atemp>
            <ns3:hr>133</ns3:hr>
          </ns3:TrackPointExtension>
        </extensions>
      </trkpt>
      <trkpt lat="-22.0150135271251201629638671875" lon="166.46401972509920597076416015625">
        <ele>851.79998779296875</ele>
        <time>2016-08-12T19:59:01.000Z</time>
        <extensions>
          <ns3:TrackPointExtension>
            <ns3:atemp>14.0</ns3:atemp>
            <ns3:hr>133</ns3:hr>
          </ns3:TrackPointExtension>
        </extensions>
      </trkpt>
      <trkpt lat="-22.0149867050349712371826171875" lon="166.464009918272495269775390625">
        <ele>851.79998779296875</ele>
        <time>2016-08-12T19:59:02.000Z</time>
        <extensions>
          <ns3:TrackPointExtension>
            <ns3:atemp>14.0</ns3:atemp>
            <ns3:hr>133</ns3:hr>
          </ns3:TrackPointExtension>
        </extensions>
      </trkpt>
      <trkpt lat="-22.0149602182209491729736328125" lon="166.46400220692157745361328125">
        <ele>851.79998779296875</ele>
        <time>2016-08-12T19:59:03.000Z</time>
        <extensions>
          <ns3:TrackPointExtension>
            <ns3:atemp>14.0</ns3:atemp>
            <ns3:hr>133</ns3:hr>
          </ns3:TrackPointExtension>
        </extensions>
      </trkpt>
      <trkpt lat="-22.0149360783398151397705078125" lon="166.46399709396064281463623046875">
        <ele>852.20001220703125</ele>
        <time>2016-08-12T19:59:04.000Z</time>
        <extensions>
          <ns3:TrackPointExtension>
            <ns3:atemp>14.0</ns3:atemp>
            <ns3:hr>133</ns3:hr>
          </ns3:TrackPointExtension>
        </extensions>
      </trkpt>
      <trkpt lat="-22.0149099268019199371337890625" lon="166.46399809978902339935302734375">
        <ele>852.20001220703125</ele>
        <time>2016-08-12T19:59:05.000Z</time>
        <extensions>
          <ns3:TrackPointExtension>
            <ns3:atemp>14.0</ns3:atemp>
            <ns3:hr>133</ns3:hr>
          </ns3:TrackPointExtension>
        </extensions>
      </trkpt>
      <trkpt lat="-22.01488805003464221954345703125" lon="166.46400061435997486114501953125">
        <ele>852</ele>
        <time>2016-08-12T19:59:06.000Z</time>
        <extensions>
          <ns3:TrackPointExtension>
            <ns3:atemp>14.0</ns3:atemp>
            <ns3:hr>133</ns3:hr>
          </ns3:TrackPointExtension>
        </extensions>
      </trkpt>
      <trkpt lat="-22.01486692763864994049072265625" lon="166.46400312893092632293701171875">
        <ele>852.20001220703125</ele>
        <time>2016-08-12T19:59:07.000Z</time>
        <extensions>
          <ns3:TrackPointExtension>
            <ns3:atemp>14.0</ns3:atemp>
            <ns3:hr>134</ns3:hr>
          </ns3:TrackPointExtension>
        </extensions>
      </trkpt>
      <trkpt lat="-22.01484748162329196929931640625" lon="166.46400597877800464630126953125">
        <ele>852.4000244140625</ele>
        <time>2016-08-12T19:59:08.000Z</time>
        <extensions>
          <ns3:TrackPointExtension>
            <ns3:atemp>14.0</ns3:atemp>
            <ns3:hr>134</ns3:hr>
          </ns3:TrackPointExtension>
        </extensions>
      </trkpt>
      <trkpt lat="-22.0148257724940776824951171875" lon="166.464006900787353515625">
        <ele>852.5999755859375</ele>
        <time>2016-08-12T19:59:09.000Z</time>
        <extensions>
          <ns3:TrackPointExtension>
            <ns3:atemp>14.0</ns3:atemp>
            <ns3:hr>134</ns3:hr>
          </ns3:TrackPointExtension>
        </extensions>
      </trkpt>
      <trkpt lat="-22.01480523683130741119384765625" lon="166.464009582996368408203125">
        <ele>852.4000244140625</ele>
        <time>2016-08-12T19:59:10.000Z</time>
        <extensions>
          <ns3:TrackPointExtension>
            <ns3:atemp>14.0</ns3:atemp>
            <ns3:hr>135</ns3:hr>
          </ns3:TrackPointExtension>
        </extensions>
      </trkpt>
      <trkpt lat="-22.01478444971144199371337890625" lon="166.464015953242778778076171875">
        <ele>852.5999755859375</ele>
        <time>2016-08-12T19:59:11.000Z</time>
        <extensions>
          <ns3:TrackPointExtension>
            <ns3:atemp>14.0</ns3:atemp>
            <ns3:hr>135</ns3:hr>
          </ns3:TrackPointExtension>
        </extensions>
      </trkpt>
      <trkpt lat="-22.0147607289254665374755859375" lon="166.46402106620371341705322265625">
        <ele>853</ele>
        <time>2016-08-12T19:59:12.000Z</time>
        <extensions>
          <ns3:TrackPointExtension>
            <ns3:atemp>14.0</ns3:atemp>
            <ns3:hr>135</ns3:hr>
          </ns3:TrackPointExtension>
        </extensions>
      </trkpt>
      <trkpt lat="-22.0147379301488399505615234375" lon="166.464020311832427978515625">
        <ele>853.20001220703125</ele>
        <time>2016-08-12T19:59:13.000Z</time>
        <extensions>
          <ns3:TrackPointExtension>
            <ns3:atemp>14.0</ns3:atemp>
            <ns3:hr>135</ns3:hr>
          </ns3:TrackPointExtension>
        </extensions>
      </trkpt>
      <trkpt lat="-22.0147151313722133636474609375" lon="166.4640194736421108245849609375">
        <ele>853</ele>
        <time>2016-08-12T19:59:14.000Z</time>
        <extensions>
          <ns3:TrackPointExtension>
            <ns3:atemp>14.0</ns3:atemp>
            <ns3:hr>136</ns3:hr>
          </ns3:TrackPointExtension>
        </extensions>
      </trkpt>
      <trkpt lat="-22.0146916620433330535888671875" lon="166.464015953242778778076171875">
        <ele>853</ele>
        <time>2016-08-12T19:59:15.000Z</time>
        <extensions>
          <ns3:TrackPointExtension>
            <ns3:atemp>14.0</ns3:atemp>
            <ns3:hr>136</ns3:hr>
          </ns3:TrackPointExtension>
        </extensions>
      </trkpt>
      <trkpt lat="-22.0146685279905796051025390625" lon="166.46401369012892246246337890625">
        <ele>853.20001220703125</ele>
        <time>2016-08-12T19:59:16.000Z</time>
        <extensions>
          <ns3:TrackPointExtension>
            <ns3:atemp>14.0</ns3:atemp>
            <ns3:hr>136</ns3:hr>
          </ns3:TrackPointExtension>
        </extensions>
      </trkpt>
      <trkpt lat="-22.01464765705168247222900390625" lon="166.464014947414398193359375">
        <ele>853.20001220703125</ele>
        <time>2016-08-12T19:59:17.000Z</time>
        <extensions>
          <ns3:TrackPointExtension>
            <ns3:atemp>14.0</ns3:atemp>
            <ns3:hr>136</ns3:hr>
          </ns3:TrackPointExtension>
        </extensions>
      </trkpt>
      <trkpt lat="-22.0146269537508487701416015625" lon="166.4640100859105587005615234375">
        <ele>853</ele>
        <time>2016-08-12T19:59:18.000Z</time>
        <extensions>
          <ns3:TrackPointExtension>
            <ns3:atemp>14.0</ns3:atemp>
            <ns3:hr>137</ns3:hr>
          </ns3:TrackPointExtension>
        </extensions>
      </trkpt>
      <trkpt lat="-22.01460910029709339141845703125" lon="166.46400547586381435394287109375">
        <ele>853.4000244140625</ele>
        <time>2016-08-12T19:59:19.000Z</time>
        <extensions>
          <ns3:TrackPointExtension>
            <ns3:atemp>14.0</ns3:atemp>
            <ns3:hr>137</ns3:hr>
          </ns3:TrackPointExtension>
        </extensions>
      </trkpt>
      <trkpt lat="-22.0145890675485134124755859375" lon="166.46400916390120983123779296875">
        <ele>853.5999755859375</ele>
        <time>2016-08-12T19:59:20.000Z</time>
        <extensions>
          <ns3:TrackPointExtension>
            <ns3:atemp>14.0</ns3:atemp>
            <ns3:hr>137</ns3:hr>
          </ns3:TrackPointExtension>
        </extensions>
      </trkpt>
      <trkpt lat="-22.01456953771412372589111328125" lon="166.4640033803880214691162109375">
        <ele>853.4000244140625</ele>
        <time>2016-08-12T19:59:21.000Z</time>
        <extensions>
          <ns3:TrackPointExtension>
            <ns3:atemp>14.0</ns3:atemp>
            <ns3:hr>137</ns3:hr>
          </ns3:TrackPointExtension>
        </extensions>
      </trkpt>
      <trkpt lat="-22.0145525224506855010986328125" lon="166.46399608813226222991943359375">
        <ele>853.4000244140625</ele>
        <time>2016-08-12T19:59:22.000Z</time>
        <extensions>
          <ns3:TrackPointExtension>
            <ns3:atemp>14.0</ns3:atemp>
            <ns3:hr>137</ns3:hr>
          </ns3:TrackPointExtension>
        </extensions>
      </trkpt>
      <trkpt lat="-22.0145414583384990692138671875" lon="166.4639921486377716064453125">
        <ele>853.20001220703125</ele>
        <time>2016-08-12T19:59:23.000Z</time>
        <extensions>
          <ns3:TrackPointExtension>
            <ns3:atemp>14.0</ns3:atemp>
            <ns3:hr>137</ns3:hr>
          </ns3:TrackPointExtension>
        </extensions>
      </trkpt>
      <trkpt lat="-22.01452930457890033721923828125" lon="166.4639949984848499298095703125">
        <ele>853.20001220703125</ele>
        <time>2016-08-12T19:59:24.000Z</time>
        <extensions>
          <ns3:TrackPointExtension>
            <ns3:atemp>14.0</ns3:atemp>
            <ns3:hr>137</ns3:hr>
          </ns3:TrackPointExtension>
        </extensions>
      </trkpt>
      <trkpt lat="-22.01451689936220645904541015625" lon="166.463999859988689422607421875">
        <ele>853.20001220703125</ele>
        <time>2016-08-12T19:59:25.000Z</time>
        <extensions>
          <ns3:TrackPointExtension>
            <ns3:atemp>14.0</ns3:atemp>
            <ns3:hr>136</ns3:hr>
          </ns3:TrackPointExtension>
        </extensions>
      </trkpt>
      <trkpt lat="-22.01450516469776630401611328125" lon="166.464003883302211761474609375">
        <ele>853.20001220703125</ele>
        <time>2016-08-12T19:59:26.000Z</time>
        <extensions>
          <ns3:TrackPointExtension>
            <ns3:atemp>14.0</ns3:atemp>
            <ns3:hr>136</ns3:hr>
          </ns3:TrackPointExtension>
        </extensions>
      </trkpt>
      <trkpt lat="-22.01449359767138957977294921875" lon="166.46402106620371341705322265625">
        <ele>853.20001220703125</ele>
        <time>2016-08-12T19:59:27.000Z</time>
        <extensions>
          <ns3:TrackPointExtension>
            <ns3:atemp>14.0</ns3:atemp>
            <ns3:hr>135</ns3:hr>
          </ns3:TrackPointExtension>
        </extensions>
      </trkpt>
      <trkpt lat="-22.0144841261208057403564453125" lon="166.46402366459369659423828125">
        <ele>853.20001220703125</ele>
        <time>2016-08-12T19:59:28.000Z</time>
        <extensions>
          <ns3:TrackPointExtension>
            <ns3:atemp>14.0</ns3:atemp>
            <ns3:hr>135</ns3:hr>
          </ns3:TrackPointExtension>
        </extensions>
      </trkpt>
      <trkpt lat="-22.01447264291346073150634765625" lon="166.46402693353593349456787109375">
        <ele>853.20001220703125</ele>
        <time>2016-08-12T19:59:29.000Z</time>
        <extensions>
          <ns3:TrackPointExtension>
            <ns3:atemp>14.0</ns3:atemp>
            <ns3:hr>134</ns3:hr>
          </ns3:TrackPointExtension>
        </extensions>
      </trkpt>
      <trkpt lat="-22.01446191407740116119384765625" lon="166.4640295319259166717529296875">
        <ele>853</ele>
        <time>2016-08-12T19:59:30.000Z</time>
        <extensions>
          <ns3:TrackPointExtension>
            <ns3:atemp>14.0</ns3:atemp>
            <ns3:hr>133</ns3:hr>
          </ns3:TrackPointExtension>
        </extensions>
      </trkpt>
      <trkpt lat="-22.01445604674518108367919921875" lon="166.4640271849930286407470703125">
        <ele>853</ele>
        <time>2016-08-12T19:59:31.000Z</time>
        <extensions>
          <ns3:TrackPointExtension>
            <ns3:atemp>14.0</ns3:atemp>
            <ns3:hr>133</ns3:hr>
          </ns3:TrackPointExtension>
        </extensions>
      </trkpt>
      <trkpt lat="-22.01444297097623348236083984375" lon="166.4640268497169017791748046875">
        <ele>853.20001220703125</ele>
        <time>2016-08-12T19:59:32.000Z</time>
        <extensions>
          <ns3:TrackPointExtension>
            <ns3:atemp>14.0</ns3:atemp>
            <ns3:hr>133</ns3:hr>
          </ns3:TrackPointExtension>
        </extensions>
      </trkpt>
      <trkpt lat="-22.01442293822765350341796875" lon="166.46403045393526554107666015625">
        <ele>853.5999755859375</ele>
        <time>2016-08-12T19:59:33.000Z</time>
        <extensions>
          <ns3:TrackPointExtension>
            <ns3:atemp>14.0</ns3:atemp>
            <ns3:hr>132</ns3:hr>
          </ns3:TrackPointExtension>
        </extensions>
      </trkpt>
      <trkpt lat="-22.01440550386905670166015625" lon="166.4640211500227451324462890625">
        <ele>854</ele>
        <time>2016-08-12T19:59:34.000Z</time>
        <extensions>
          <ns3:TrackPointExtension>
            <ns3:atemp>14.0</ns3:atemp>
            <ns3:hr>132</ns3:hr>
          </ns3:TrackPointExtension>
        </extensions>
      </trkpt>
      <trkpt lat="-22.01438044197857379913330078125" lon="166.46402358077466487884521484375">
        <ele>853.79998779296875</ele>
        <time>2016-08-12T19:59:35.000Z</time>
        <extensions>
          <ns3:TrackPointExtension>
            <ns3:atemp>14.0</ns3:atemp>
            <ns3:hr>133</ns3:hr>
          </ns3:TrackPointExtension>
        </extensions>
      </trkpt>
      <trkpt lat="-22.0143513567745685577392578125" lon="166.4640270173549652099609375">
        <ele>853.5999755859375</ele>
        <time>2016-08-12T19:59:36.000Z</time>
        <extensions>
          <ns3:TrackPointExtension>
            <ns3:atemp>14.0</ns3:atemp>
            <ns3:hr>132</ns3:hr>
          </ns3:TrackPointExtension>
        </extensions>
      </trkpt>
      <trkpt lat="-22.014324031770229339599609375" lon="166.46402844227850437164306640625">
        <ele>853.4000244140625</ele>
        <time>2016-08-12T19:59:37.000Z</time>
        <extensions>
          <ns3:TrackPointExtension>
            <ns3:atemp>14.0</ns3:atemp>
            <ns3:hr>133</ns3:hr>
          </ns3:TrackPointExtension>
        </extensions>
      </trkpt>
      <trkpt lat="-22.014296539127826690673828125" lon="166.46402274258434772491455078125">
        <ele>853.79998779296875</ele>
        <time>2016-08-12T19:59:38.000Z</time>
        <extensions>
          <ns3:TrackPointExtension>
            <ns3:atemp>14.0</ns3:atemp>
            <ns3:hr>133</ns3:hr>
          </ns3:TrackPointExtension>
        </extensions>
      </trkpt>
      <trkpt lat="-22.01427030377089977264404296875" lon="166.4640164561569690704345703125">
        <ele>853.5999755859375</ele>
        <time>2016-08-12T19:59:39.000Z</time>
        <extensions>
          <ns3:TrackPointExtension>
            <ns3:atemp>14.0</ns3:atemp>
            <ns3:hr>134</ns3:hr>
          </ns3:TrackPointExtension>
        </extensions>
      </trkpt>
      <trkpt lat="-22.014246247708797454833984375" lon="166.46401226520538330078125">
        <ele>853.20001220703125</ele>
        <time>2016-08-12T19:59:40.000Z</time>
        <extensions>
          <ns3:TrackPointExtension>
            <ns3:atemp>14.0</ns3:atemp>
            <ns3:hr>134</ns3:hr>
          </ns3:TrackPointExtension>
        </extensions>
      </trkpt>
      <trkpt lat="-22.0142264664173126220703125" lon="166.464006565511226654052734375">
        <ele>853</ele>
        <time>2016-08-12T19:59:41.000Z</time>
        <extensions>
          <ns3:TrackPointExtension>
            <ns3:atemp>14.0</ns3:atemp>
            <ns3:hr>134</ns3:hr>
          </ns3:TrackPointExtension>
        </extensions>
      </trkpt>
      <trkpt lat="-22.01420760713517665863037109375" lon="166.46400212310254573822021484375">
        <ele>853.4000244140625</ele>
        <time>2016-08-12T19:59:42.000Z</time>
        <extensions>
          <ns3:TrackPointExtension>
            <ns3:atemp>14.0</ns3:atemp>
            <ns3:hr>134</ns3:hr>
          </ns3:TrackPointExtension>
        </extensions>
      </trkpt>
      <trkpt lat="-22.0141880773007869720458984375" lon="166.46400614641606807708740234375">
        <ele>853.4000244140625</ele>
        <time>2016-08-12T19:59:43.000Z</time>
        <extensions>
          <ns3:TrackPointExtension>
            <ns3:atemp>14.0</ns3:atemp>
            <ns3:hr>134</ns3:hr>
          </ns3:TrackPointExtension>
        </extensions>
      </trkpt>
      <trkpt lat="-22.0141674578189849853515625" lon="166.46400530822575092315673828125">
        <ele>853.20001220703125</ele>
        <time>2016-08-12T19:59:44.000Z</time>
        <extensions>
          <ns3:TrackPointExtension>
            <ns3:atemp>14.0</ns3:atemp>
            <ns3:hr>134</ns3:hr>
          </ns3:TrackPointExtension>
        </extensions>
      </trkpt>
      <trkpt lat="-22.014144994318485260009765625" lon="166.46399927325546741485595703125">
        <ele>853.20001220703125</ele>
        <time>2016-08-12T19:59:45.000Z</time>
        <extensions>
          <ns3:TrackPointExtension>
            <ns3:atemp>14.0</ns3:atemp>
            <ns3:hr>134</ns3:hr>
          </ns3:TrackPointExtension>
        </extensions>
      </trkpt>
      <trkpt lat="-22.014118842780590057373046875" lon="166.46400312893092632293701171875">
        <ele>853.20001220703125</ele>
        <time>2016-08-12T19:59:46.000Z</time>
        <extensions>
          <ns3:TrackPointExtension>
            <ns3:atemp>14.0</ns3:atemp>
            <ns3:hr>134</ns3:hr>
          </ns3:TrackPointExtension>
        </extensions>
      </trkpt>
      <trkpt lat="-22.01409378089010715484619140625" lon="166.463999859988689422607421875">
        <ele>853.20001220703125</ele>
        <time>2016-08-12T19:59:47.000Z</time>
        <extensions>
          <ns3:TrackPointExtension>
            <ns3:atemp>14.0</ns3:atemp>
            <ns3:hr>134</ns3:hr>
          </ns3:TrackPointExtension>
        </extensions>
      </trkpt>
      <trkpt lat="-22.0140683837234973907470703125" lon="166.46400514058768749237060546875">
        <ele>853.4000244140625</ele>
        <time>2016-08-12T19:59:48.000Z</time>
        <extensions>
          <ns3:TrackPointExtension>
            <ns3:atemp>14.0</ns3:atemp>
            <ns3:hr>133</ns3:hr>
          </ns3:TrackPointExtension>
        </extensions>
      </trkpt>
      <trkpt lat="-22.0140459202229976654052734375" lon="166.464006565511226654052734375">
        <ele>853.4000244140625</ele>
        <time>2016-08-12T19:59:49.000Z</time>
        <extensions>
          <ns3:TrackPointExtension>
            <ns3:atemp>14.0</ns3:atemp>
            <ns3:hr>133</ns3:hr>
          </ns3:TrackPointExtension>
        </extensions>
      </trkpt>
      <trkpt lat="-22.014023624360561370849609375" lon="166.4640094153583049774169921875">
        <ele>853.4000244140625</ele>
        <time>2016-08-12T19:59:50.000Z</time>
        <extensions>
          <ns3:TrackPointExtension>
            <ns3:atemp>14.0</ns3:atemp>
            <ns3:hr>133</ns3:hr>
          </ns3:TrackPointExtension>
        </extensions>
      </trkpt>
      <trkpt lat="-22.01400023885071277618408203125" lon="166.46400631405413150787353515625">
        <ele>853.4000244140625</ele>
        <time>2016-08-12T19:59:51.000Z</time>
        <extensions>
          <ns3:TrackPointExtension>
            <ns3:atemp>14.0</ns3:atemp>
            <ns3:hr>132</ns3:hr>
          </ns3:TrackPointExtension>
        </extensions>
      </trkpt>
      <trkpt lat="-22.0139781944453716278076171875" lon="166.46399927325546741485595703125">
        <ele>853.5999755859375</ele>
        <time>2016-08-12T19:59:52.000Z</time>
        <extensions>
          <ns3:TrackPointExtension>
            <ns3:atemp>14.0</ns3:atemp>
            <ns3:hr>132</ns3:hr>
          </ns3:TrackPointExtension>
        </extensions>
      </trkpt>
      <trkpt lat="-22.01395883224904537200927734375" lon="166.46399818360805511474609375">
        <ele>853.5999755859375</ele>
        <time>2016-08-12T19:59:53.000Z</time>
        <extensions>
          <ns3:TrackPointExtension>
            <ns3:atemp>14.0</ns3:atemp>
            <ns3:hr>132</ns3:hr>
          </ns3:TrackPointExtension>
        </extensions>
      </trkpt>
      <trkpt lat="-22.0139394700527191162109375" lon="166.4639949984848499298095703125">
        <ele>853.4000244140625</ele>
        <time>2016-08-12T19:59:54.000Z</time>
        <extensions>
          <ns3:TrackPointExtension>
            <ns3:atemp>14.0</ns3:atemp>
            <ns3:hr>132</ns3:hr>
          </ns3:TrackPointExtension>
        </extensions>
      </trkpt>
      <trkpt lat="-22.01391759328544139862060546875" lon="166.4639894664287567138671875">
        <ele>853.4000244140625</ele>
        <time>2016-08-12T19:59:55.000Z</time>
        <extensions>
          <ns3:TrackPointExtension>
            <ns3:atemp>14.0</ns3:atemp>
            <ns3:hr>132</ns3:hr>
          </ns3:TrackPointExtension>
        </extensions>
      </trkpt>
      <trkpt lat="-22.013899572193622589111328125" lon="166.46398385055363178253173828125">
        <ele>853.5999755859375</ele>
        <time>2016-08-12T19:59:56.000Z</time>
        <extensions>
          <ns3:TrackPointExtension>
            <ns3:atemp>14.0</ns3:atemp>
            <ns3:hr>132</ns3:hr>
          </ns3:TrackPointExtension>
        </extensions>
      </trkpt>
      <trkpt lat="-22.01387534849345684051513671875" lon="166.4639862813055515289306640625">
        <ele>853.4000244140625</ele>
        <time>2016-08-12T19:59:57.000Z</time>
        <extensions>
          <ns3:TrackPointExtension>
            <ns3:atemp>14.0</ns3:atemp>
            <ns3:hr>132</ns3:hr>
          </ns3:TrackPointExtension>
        </extensions>
      </trkpt>
      <trkpt lat="-22.0138427428901195526123046875" lon="166.46400229074060916900634765625">
        <ele>853.20001220703125</ele>
        <time>2016-08-12T19:59:58.000Z</time>
        <extensions>
          <ns3:TrackPointExtension>
            <ns3:atemp>14.0</ns3:atemp>
            <ns3:hr>132</ns3:hr>
          </ns3:TrackPointExtension>
        </extensions>
      </trkpt>
      <trkpt lat="-22.0138196088373661041259765625" lon="166.46400061435997486114501953125">
        <ele>853.5999755859375</ele>
        <time>2016-08-12T19:59:59.000Z</time>
        <extensions>
          <ns3:TrackPointExtension>
            <ns3:atemp>14.0</ns3:atemp>
            <ns3:hr>132</ns3:hr>
          </ns3:TrackPointExtension>
        </extensions>
      </trkpt>
      <trkpt lat="-22.01379655860364437103271484375" lon="166.46399793215095996856689453125">
        <ele>853.5999755859375</ele>
        <time>2016-08-12T20:00:00.000Z</time>
        <extensions>
          <ns3:TrackPointExtension>
            <ns3:atemp>14.0</ns3:atemp>
            <ns3:hr>132</ns3:hr>
          </ns3:TrackPointExtension>
        </extensions>
      </trkpt>
      <trkpt lat="-22.01377451419830322265625" lon="166.4639990217983722686767578125">
        <ele>853.4000244140625</ele>
        <time>2016-08-12T20:00:01.000Z</time>
        <extensions>
          <ns3:TrackPointExtension>
            <ns3:atemp>14.0</ns3:atemp>
            <ns3:hr>132</ns3:hr>
          </ns3:TrackPointExtension>
        </extensions>
      </trkpt>
      <trkpt lat="-22.01375934295356273651123046875" lon="166.4639923162758350372314453125">
        <ele>853.79998779296875</ele>
        <time>2016-08-12T20:00:02.000Z</time>
        <extensions>
          <ns3:TrackPointExtension>
            <ns3:atemp>14.0</ns3:atemp>
            <ns3:hr>132</ns3:hr>
          </ns3:TrackPointExtension>
        </extensions>
      </trkpt>
      <trkpt lat="-22.0137458480894565582275390625" lon="166.46397965960204601287841796875">
        <ele>853.79998779296875</ele>
        <time>2016-08-12T20:00:03.000Z</time>
        <extensions>
          <ns3:TrackPointExtension>
            <ns3:atemp>14.0</ns3:atemp>
            <ns3:hr>132</ns3:hr>
          </ns3:TrackPointExtension>
        </extensions>
      </trkpt>
      <trkpt lat="-22.0137248933315277099609375" lon="166.46396943368017673492431640625">
        <ele>853.4000244140625</ele>
        <time>2016-08-12T20:00:04.000Z</time>
        <extensions>
          <ns3:TrackPointExtension>
            <ns3:atemp>14.0</ns3:atemp>
            <ns3:hr>132</ns3:hr>
          </ns3:TrackPointExtension>
        </extensions>
      </trkpt>
      <trkpt lat="-22.01370569877326488494873046875" lon="166.46395585499703884124755859375">
        <ele>853.5999755859375</ele>
        <time>2016-08-12T20:00:05.000Z</time>
        <extensions>
          <ns3:TrackPointExtension>
            <ns3:atemp>14.0</ns3:atemp>
            <ns3:hr>133</ns3:hr>
          </ns3:TrackPointExtension>
        </extensions>
      </trkpt>
      <trkpt lat="-22.0136925391852855682373046875" lon="166.463942192494869232177734375">
        <ele>853.79998779296875</ele>
        <time>2016-08-12T20:00:06.000Z</time>
        <extensions>
          <ns3:TrackPointExtension>
            <ns3:atemp>14.0</ns3:atemp>
            <ns3:hr>133</ns3:hr>
          </ns3:TrackPointExtension>
        </extensions>
      </trkpt>
      <trkpt lat="-22.01368038542568683624267578125" lon="166.4639242552220821380615234375">
        <ele>853.5999755859375</ele>
        <time>2016-08-12T20:00:07.000Z</time>
        <extensions>
          <ns3:TrackPointExtension>
            <ns3:atemp>14.0</ns3:atemp>
            <ns3:hr>133</ns3:hr>
          </ns3:TrackPointExtension>
        </extensions>
      </trkpt>
      <trkpt lat="-22.01366378925740718841552734375" lon="166.463905982673168182373046875">
        <ele>853.5999755859375</ele>
        <time>2016-08-12T20:00:08.000Z</time>
        <extensions>
          <ns3:TrackPointExtension>
            <ns3:atemp>14.0</ns3:atemp>
            <ns3:hr>133</ns3:hr>
          </ns3:TrackPointExtension>
        </extensions>
      </trkpt>
      <trkpt lat="-22.01365088112652301788330078125" lon="166.46388712339103221893310546875">
        <ele>853.5999755859375</ele>
        <time>2016-08-12T20:00:09.000Z</time>
        <extensions>
          <ns3:TrackPointExtension>
            <ns3:atemp>14.0</ns3:atemp>
            <ns3:hr>133</ns3:hr>
          </ns3:TrackPointExtension>
        </extensions>
      </trkpt>
      <trkpt lat="-22.01364367268979549407958984375" lon="166.463872455060482025146484375">
        <ele>853.4000244140625</ele>
        <time>2016-08-12T20:00:10.000Z</time>
        <extensions>
          <ns3:TrackPointExtension>
            <ns3:atemp>14.0</ns3:atemp>
            <ns3:hr>133</ns3:hr>
          </ns3:TrackPointExtension>
        </extensions>
      </trkpt>
      <trkpt lat="-22.013631351292133331298828125" lon="166.46385912783443927764892578125">
        <ele>853.20001220703125</ele>
        <time>2016-08-12T20:00:11.000Z</time>
        <extensions>
          <ns3:TrackPointExtension>
            <ns3:atemp>14.0</ns3:atemp>
            <ns3:hr>134</ns3:hr>
          </ns3:TrackPointExtension>
        </extensions>
      </trkpt>
      <trkpt lat="-22.0136274956166744232177734375" lon="166.463846303522586822509765625">
        <ele>853.20001220703125</ele>
        <time>2016-08-12T20:00:12.000Z</time>
        <extensions>
          <ns3:TrackPointExtension>
            <ns3:atemp>14.0</ns3:atemp>
            <ns3:hr>134</ns3:hr>
          </ns3:TrackPointExtension>
        </extensions>
      </trkpt>
      <trkpt lat="-22.0136244781315326690673828125" lon="166.46383767016232013702392578125">
        <ele>853</ele>
        <time>2016-08-12T20:00:13.000Z</time>
        <extensions>
          <ns3:TrackPointExtension>
            <ns3:atemp>14.0</ns3:atemp>
            <ns3:hr>134</ns3:hr>
          </ns3:TrackPointExtension>
        </extensions>
      </trkpt>
      <trkpt lat="-22.01361919753253459930419921875" lon="166.4638287015259265899658203125">
        <ele>853</ele>
        <time>2016-08-12T20:00:14.000Z</time>
        <extensions>
          <ns3:TrackPointExtension>
            <ns3:atemp>14.0</ns3:atemp>
            <ns3:hr>133</ns3:hr>
          </ns3:TrackPointExtension>
        </extensions>
      </trkpt>
      <trkpt lat="-22.013607881963253021240234375" lon="166.463816799223423004150390625">
        <ele>853</ele>
        <time>2016-08-12T20:00:15.000Z</time>
        <extensions>
          <ns3:TrackPointExtension>
            <ns3:atemp>14.0</ns3:atemp>
            <ns3:hr>134</ns3:hr>
          </ns3:TrackPointExtension>
        </extensions>
      </trkpt>
      <trkpt lat="-22.0136041939258575439453125" lon="166.46380213089287281036376953125">
        <ele>853</ele>
        <time>2016-08-12T20:00:16.000Z</time>
        <extensions>
          <ns3:TrackPointExtension>
            <ns3:atemp>14.0</ns3:atemp>
            <ns3:hr>133</ns3:hr>
          </ns3:TrackPointExtension>
        </extensions>
      </trkpt>
      <trkpt lat="-22.01359489001333713531494140625" lon="166.46378695964813232421875">
        <ele>852.5999755859375</ele>
        <time>2016-08-12T20:00:17.000Z</time>
        <extensions>
          <ns3:TrackPointExtension>
            <ns3:atemp>14.0</ns3:atemp>
            <ns3:hr>134</ns3:hr>
          </ns3:TrackPointExtension>
        </extensions>
      </trkpt>
      <trkpt lat="-22.013597823679447174072265625" lon="166.4637676812708377838134765625">
        <ele>852.79998779296875</ele>
        <time>2016-08-12T20:00:18.000Z</time>
        <extensions>
          <ns3:TrackPointExtension>
            <ns3:atemp>14.0</ns3:atemp>
            <ns3:hr>133</ns3:hr>
          </ns3:TrackPointExtension>
        </extensions>
      </trkpt>
      <trkpt lat="-22.01359606347978115081787109375" lon="166.463747732341289520263671875">
        <ele>852.79998779296875</ele>
        <time>2016-08-12T20:00:19.000Z</time>
        <extensions>
          <ns3:TrackPointExtension>
            <ns3:atemp>14.0</ns3:atemp>
            <ns3:hr>134</ns3:hr>
          </ns3:TrackPointExtension>
        </extensions>
      </trkpt>
      <trkpt lat="-22.01361886225640773773193359375" lon="166.46370439790189266204833984375">
        <ele>852.4000244140625</ele>
        <time>2016-08-12T20:00:20.000Z</time>
        <extensions>
          <ns3:TrackPointExtension>
            <ns3:atemp>14.0</ns3:atemp>
            <ns3:hr>134</ns3:hr>
          </ns3:TrackPointExtension>
        </extensions>
      </trkpt>
      <trkpt lat="-22.01362640596926212310791015625" lon="166.46367405541241168975830078125">
        <ele>852.4000244140625</ele>
        <time>2016-08-12T20:00:21.000Z</time>
        <extensions>
          <ns3:TrackPointExtension>
            <ns3:atemp>14.0</ns3:atemp>
            <ns3:hr>134</ns3:hr>
          </ns3:TrackPointExtension>
        </extensions>
      </trkpt>
      <trkpt lat="-22.0136298425495624542236328125" lon="166.4636369235813617706298828125">
        <ele>852.5999755859375</ele>
        <time>2016-08-12T20:00:22.000Z</time>
        <extensions>
          <ns3:TrackPointExtension>
            <ns3:atemp>14.0</ns3:atemp>
            <ns3:hr>134</ns3:hr>
          </ns3:TrackPointExtension>
        </extensions>
      </trkpt>
      <trkpt lat="-22.01364367268979549407958984375" lon="166.4636030606925487518310546875">
        <ele>852.20001220703125</ele>
        <time>2016-08-12T20:00:23.000Z</time>
        <extensions>
          <ns3:TrackPointExtension>
            <ns3:atemp>14.0</ns3:atemp>
            <ns3:hr>134</ns3:hr>
          </ns3:TrackPointExtension>
        </extensions>
      </trkpt>
      <trkpt lat="-22.01365892775356769561767578125" lon="166.46355737932026386260986328125">
        <ele>852</ele>
        <time>2016-08-12T20:00:24.000Z</time>
        <extensions>
          <ns3:TrackPointExtension>
            <ns3:atemp>14.0</ns3:atemp>
            <ns3:hr>134</ns3:hr>
          </ns3:TrackPointExtension>
        </extensions>
      </trkpt>
      <trkpt lat="-22.013664208352565765380859375" lon="166.46351798437535762786865234375">
        <ele>852</ele>
        <time>2016-08-12T20:00:25.000Z</time>
        <extensions>
          <ns3:TrackPointExtension>
            <ns3:atemp>14.0</ns3:atemp>
            <ns3:hr>134</ns3:hr>
          </ns3:TrackPointExtension>
        </extensions>
      </trkpt>
      <trkpt lat="-22.01365808956325054168701171875" lon="166.4634894020855426788330078125">
        <ele>851.79998779296875</ele>
        <time>2016-08-12T20:00:26.000Z</time>
        <extensions>
          <ns3:TrackPointExtension>
            <ns3:atemp>14.0</ns3:atemp>
            <ns3:hr>135</ns3:hr>
          </ns3:TrackPointExtension>
        </extensions>
      </trkpt>
      <trkpt lat="-22.01366043649613857269287109375" lon="166.4634622447192668914794921875">
        <ele>851.5999755859375</ele>
        <time>2016-08-12T20:00:27.000Z</time>
        <extensions>
          <ns3:TrackPointExtension>
            <ns3:atemp>14.0</ns3:atemp>
            <ns3:hr>134</ns3:hr>
          </ns3:TrackPointExtension>
        </extensions>
      </trkpt>
      <trkpt lat="-22.0136740989983081817626953125" lon="166.4634387753903865814208984375">
        <ele>851.79998779296875</ele>
        <time>2016-08-12T20:00:28.000Z</time>
        <extensions>
          <ns3:TrackPointExtension>
            <ns3:atemp>14.0</ns3:atemp>
            <ns3:hr>134</ns3:hr>
          </ns3:TrackPointExtension>
        </extensions>
      </trkpt>
      <trkpt lat="-22.0136881805956363677978515625" lon="166.463412456214427947998046875">
        <ele>851.5999755859375</ele>
        <time>2016-08-12T20:00:29.000Z</time>
        <extensions>
          <ns3:TrackPointExtension>
            <ns3:atemp>14.0</ns3:atemp>
            <ns3:hr>134</ns3:hr>
          </ns3:TrackPointExtension>
        </extensions>
      </trkpt>
      <trkpt lat="-22.0137072913348674774169921875" lon="166.46338739432394504547119140625">
        <ele>851.4000244140625</ele>
        <time>2016-08-12T20:00:30.000Z</time>
        <extensions>
          <ns3:TrackPointExtension>
            <ns3:atemp>14.0</ns3:atemp>
            <ns3:hr>134</ns3:hr>
          </ns3:TrackPointExtension>
        </extensions>
      </trkpt>
      <trkpt lat="-22.0137250609695911407470703125" lon="166.46336157806217670440673828125">
        <ele>851.4000244140625</ele>
        <time>2016-08-12T20:00:31.000Z</time>
        <extensions>
          <ns3:TrackPointExtension>
            <ns3:atemp>14.0</ns3:atemp>
            <ns3:hr>134</ns3:hr>
          </ns3:TrackPointExtension>
        </extensions>
      </trkpt>
      <trkpt lat="-22.01373361051082611083984375" lon="166.46333693526685237884521484375">
        <ele>851.4000244140625</ele>
        <time>2016-08-12T20:00:32.000Z</time>
        <extensions>
          <ns3:TrackPointExtension>
            <ns3:atemp>14.0</ns3:atemp>
            <ns3:hr>134</ns3:hr>
          </ns3:TrackPointExtension>
        </extensions>
      </trkpt>
      <trkpt lat="-22.0137324370443820953369140625" lon="166.4633130468428134918212890625">
        <ele>851.4000244140625</ele>
        <time>2016-08-12T20:00:33.000Z</time>
        <extensions>
          <ns3:TrackPointExtension>
            <ns3:atemp>14.0</ns3:atemp>
            <ns3:hr>133</ns3:hr>
          </ns3:TrackPointExtension>
        </extensions>
      </trkpt>
      <trkpt lat="-22.0137369632720947265625" lon="166.46329452283680438995361328125">
        <ele>851.5999755859375</ele>
        <time>2016-08-12T20:00:34.000Z</time>
        <extensions>
          <ns3:TrackPointExtension>
            <ns3:atemp>14.0</ns3:atemp>
            <ns3:hr>133</ns3:hr>
          </ns3:TrackPointExtension>
        </extensions>
      </trkpt>
      <trkpt lat="-22.013735286891460418701171875" lon="166.46326334215700626373291015625">
        <ele>851.79998779296875</ele>
        <time>2016-08-12T20:00:35.000Z</time>
        <extensions>
          <ns3:TrackPointExtension>
            <ns3:atemp>14.0</ns3:atemp>
            <ns3:hr>133</ns3:hr>
          </ns3:TrackPointExtension>
        </extensions>
      </trkpt>
      <trkpt lat="-22.0137314312160015106201171875" lon="166.4632345922291278839111328125">
        <ele>851.5999755859375</ele>
        <time>2016-08-12T20:00:36.000Z</time>
        <extensions>
          <ns3:TrackPointExtension>
            <ns3:atemp>14.0</ns3:atemp>
            <ns3:hr>133</ns3:hr>
          </ns3:TrackPointExtension>
        </extensions>
      </trkpt>
      <trkpt lat="-22.013715170323848724365234375" lon="166.46319779567420482635498046875">
        <ele>851.4000244140625</ele>
        <time>2016-08-12T20:00:37.000Z</time>
        <extensions>
          <ns3:TrackPointExtension>
            <ns3:atemp>14.0</ns3:atemp>
            <ns3:hr>133</ns3:hr>
          </ns3:TrackPointExtension>
        </extensions>
      </trkpt>
      <trkpt lat="-22.01371357776224613189697265625" lon="166.46316912956535816192626953125">
        <ele>851.79998779296875</ele>
        <time>2016-08-12T20:00:38.000Z</time>
        <extensions>
          <ns3:TrackPointExtension>
            <ns3:atemp>14.0</ns3:atemp>
            <ns3:hr>133</ns3:hr>
          </ns3:TrackPointExtension>
        </extensions>
      </trkpt>
      <trkpt lat="-22.01370737515389919281005859375" lon="166.46314465440809726715087890625">
        <ele>851.79998779296875</ele>
        <time>2016-08-12T20:00:39.000Z</time>
        <extensions>
          <ns3:TrackPointExtension>
            <ns3:atemp>14.0</ns3:atemp>
            <ns3:hr>133</ns3:hr>
          </ns3:TrackPointExtension>
        </extensions>
      </trkpt>
      <trkpt lat="-22.01369748450815677642822265625" lon="166.46312504075467586517333984375">
        <ele>851.79998779296875</ele>
        <time>2016-08-12T20:00:40.000Z</time>
        <extensions>
          <ns3:TrackPointExtension>
            <ns3:atemp>14.0</ns3:atemp>
            <ns3:hr>133</ns3:hr>
          </ns3:TrackPointExtension>
        </extensions>
      </trkpt>
      <trkpt lat="-22.01369547285139560699462890625" lon="166.46310140378773212432861328125">
        <ele>851.79998779296875</ele>
        <time>2016-08-12T20:00:41.000Z</time>
        <extensions>
          <ns3:TrackPointExtension>
            <ns3:atemp>14.0</ns3:atemp>
            <ns3:hr>133</ns3:hr>
          </ns3:TrackPointExtension>
        </extensions>
      </trkpt>
      <trkpt lat="-22.01369446702301502227783203125" lon="166.46307592280209064483642578125">
        <ele>852</ele>
        <time>2016-08-12T20:00:42.000Z</time>
        <extensions>
          <ns3:TrackPointExtension>
            <ns3:atemp>14.0</ns3:atemp>
            <ns3:hr>133</ns3:hr>
          </ns3:TrackPointExtension>
        </extensions>
      </trkpt>
      <trkpt lat="-22.01369396410882472991943359375" lon="166.46305312402546405792236328125">
        <ele>851.79998779296875</ele>
        <time>2016-08-12T20:00:43.000Z</time>
        <extensions>
          <ns3:TrackPointExtension>
            <ns3:atemp>14.0</ns3:atemp>
            <ns3:hr>132</ns3:hr>
          </ns3:TrackPointExtension>
        </extensions>
      </trkpt>
      <trkpt lat="-22.013697065412998199462890625" lon="166.46302881650626659393310546875">
        <ele>851.4000244140625</ele>
        <time>2016-08-12T20:00:44.000Z</time>
        <extensions>
          <ns3:TrackPointExtension>
            <ns3:atemp>14.0</ns3:atemp>
            <ns3:hr>132</ns3:hr>
          </ns3:TrackPointExtension>
        </extensions>
      </trkpt>
      <trkpt lat="-22.0136999152600765228271484375" lon="166.4630066044628620147705078125">
        <ele>851.5999755859375</ele>
        <time>2016-08-12T20:00:45.000Z</time>
        <extensions>
          <ns3:TrackPointExtension>
            <ns3:atemp>14.0</ns3:atemp>
            <ns3:hr>132</ns3:hr>
          </ns3:TrackPointExtension>
        </extensions>
      </trkpt>
      <trkpt lat="-22.01370167545974254608154296875" lon="166.462980620563030242919921875">
        <ele>851.5999755859375</ele>
        <time>2016-08-12T20:00:46.000Z</time>
        <extensions>
          <ns3:TrackPointExtension>
            <ns3:atemp>14.0</ns3:atemp>
            <ns3:hr>131</ns3:hr>
          </ns3:TrackPointExtension>
        </extensions>
      </trkpt>
      <trkpt lat="-22.0137141644954681396484375" lon="166.46295388229191303253173828125">
        <ele>851.5999755859375</ele>
        <time>2016-08-12T20:00:47.000Z</time>
        <extensions>
          <ns3:TrackPointExtension>
            <ns3:atemp>14.0</ns3:atemp>
            <ns3:hr>131</ns3:hr>
          </ns3:TrackPointExtension>
        </extensions>
      </trkpt>
      <trkpt lat="-22.01370871625840663909912109375" lon="166.46292664110660552978515625">
        <ele>851.5999755859375</ele>
        <time>2016-08-12T20:00:48.000Z</time>
        <extensions>
          <ns3:TrackPointExtension>
            <ns3:atemp>14.0</ns3:atemp>
            <ns3:hr>131</ns3:hr>
          </ns3:TrackPointExtension>
        </extensions>
      </trkpt>
      <trkpt lat="-22.013712488114833831787109375" lon="166.46290744654834270477294921875">
        <ele>851.5999755859375</ele>
        <time>2016-08-12T20:00:49.000Z</time>
        <extensions>
          <ns3:TrackPointExtension>
            <ns3:atemp>14.0</ns3:atemp>
            <ns3:hr>131</ns3:hr>
          </ns3:TrackPointExtension>
        </extensions>
      </trkpt>
      <trkpt lat="-22.0137210376560688018798828125" lon="166.4628966338932514190673828125">
        <ele>851.5999755859375</ele>
        <time>2016-08-12T20:00:50.000Z</time>
        <extensions>
          <ns3:TrackPointExtension>
            <ns3:atemp>14.0</ns3:atemp>
            <ns3:hr>130</ns3:hr>
          </ns3:TrackPointExtension>
        </extensions>
      </trkpt>
      <trkpt lat="-22.01373201794922351837158203125" lon="166.46287299692630767822265625">
        <ele>851.5999755859375</ele>
        <time>2016-08-12T20:00:51.000Z</time>
        <extensions>
          <ns3:TrackPointExtension>
            <ns3:atemp>14.0</ns3:atemp>
            <ns3:hr>130</ns3:hr>
          </ns3:TrackPointExtension>
        </extensions>
      </trkpt>
      <trkpt lat="-22.01373218558728694915771484375" lon="166.4628610946238040924072265625">
        <ele>851.5999755859375</ele>
        <time>2016-08-12T20:00:52.000Z</time>
        <extensions>
          <ns3:TrackPointExtension>
            <ns3:atemp>14.0</ns3:atemp>
            <ns3:hr>130</ns3:hr>
          </ns3:TrackPointExtension>
        </extensions>
      </trkpt>
      <trkpt lat="-22.0137361250817775726318359375" lon="166.4628480188548564910888671875">
        <ele>851.5999755859375</ele>
        <time>2016-08-12T20:00:53.000Z</time>
        <extensions>
          <ns3:TrackPointExtension>
            <ns3:atemp>14.0</ns3:atemp>
            <ns3:hr>129</ns3:hr>
          </ns3:TrackPointExtension>
        </extensions>
      </trkpt>
      <trkpt lat="-22.01372958719730377197265625" lon="166.46283418871462345123291015625">
        <ele>851.5999755859375</ele>
        <time>2016-08-12T20:00:54.000Z</time>
        <extensions>
          <ns3:TrackPointExtension>
            <ns3:atemp>14.0</ns3:atemp>
            <ns3:hr>129</ns3:hr>
          </ns3:TrackPointExtension>
        </extensions>
      </trkpt>
      <trkpt lat="-22.013721205294132232666015625" lon="166.46281792782247066497802734375">
        <ele>851.5999755859375</ele>
        <time>2016-08-12T20:00:55.000Z</time>
        <extensions>
          <ns3:TrackPointExtension>
            <ns3:atemp>14.0</ns3:atemp>
            <ns3:hr>129</ns3:hr>
          </ns3:TrackPointExtension>
        </extensions>
      </trkpt>
      <trkpt lat="-22.01371843926608562469482421875" lon="166.46280183456838130950927734375">
        <ele>851.5999755859375</ele>
        <time>2016-08-12T20:00:56.000Z</time>
        <extensions>
          <ns3:TrackPointExtension>
            <ns3:atemp>14.0</ns3:atemp>
            <ns3:hr>128</ns3:hr>
          </ns3:TrackPointExtension>
        </extensions>
      </trkpt>
      <trkpt lat="-22.01371827162802219390869140625" lon="166.46278909407556056976318359375">
        <ele>851.5999755859375</ele>
        <time>2016-08-12T20:00:57.000Z</time>
        <extensions>
          <ns3:TrackPointExtension>
            <ns3:atemp>14.0</ns3:atemp>
            <ns3:hr>128</ns3:hr>
          </ns3:TrackPointExtension>
        </extensions>
      </trkpt>
      <trkpt lat="-22.01372061856091022491455078125" lon="166.46277870051562786102294921875">
        <ele>851.4000244140625</ele>
        <time>2016-08-12T20:00:58.000Z</time>
        <extensions>
          <ns3:TrackPointExtension>
            <ns3:atemp>14.0</ns3:atemp>
            <ns3:hr>127</ns3:hr>
          </ns3:TrackPointExtension>
        </extensions>
      </trkpt>
      <trkpt lat="-22.013721205294132232666015625" lon="166.4627702347934246063232421875">
        <ele>851.4000244140625</ele>
        <time>2016-08-12T20:00:59.000Z</time>
        <extensions>
          <ns3:TrackPointExtension>
            <ns3:atemp>14.0</ns3:atemp>
            <ns3:hr>127</ns3:hr>
          </ns3:TrackPointExtension>
        </extensions>
      </trkpt>
      <trkpt lat="-22.01371894218027591705322265625" lon="166.46276311017572879791259765625">
        <ele>851.4000244140625</ele>
        <time>2016-08-12T20:01:00.000Z</time>
        <extensions>
          <ns3:TrackPointExtension>
            <ns3:atemp>14.0</ns3:atemp>
            <ns3:hr>127</ns3:hr>
          </ns3:TrackPointExtension>
        </extensions>
      </trkpt>
      <trkpt lat="-22.013729922473430633544921875" lon="166.46274886094033718109130859375">
        <ele>851.4000244140625</ele>
        <time>2016-08-12T20:01:01.000Z</time>
        <extensions>
          <ns3:TrackPointExtension>
            <ns3:atemp>14.0</ns3:atemp>
            <ns3:hr>126</ns3:hr>
          </ns3:TrackPointExtension>
        </extensions>
      </trkpt>
      <trkpt lat="-22.0137280784547328948974609375" lon="166.4627363719046115875244140625">
        <ele>851.4000244140625</ele>
        <time>2016-08-12T20:01:02.000Z</time>
        <extensions>
          <ns3:TrackPointExtension>
            <ns3:atemp>14.0</ns3:atemp>
            <ns3:hr>125</ns3:hr>
          </ns3:TrackPointExtension>
        </extensions>
      </trkpt>
      <trkpt lat="-22.01373335905373096466064453125" lon="166.462716422975063323974609375">
        <ele>851.20001220703125</ele>
        <time>2016-08-12T20:01:03.000Z</time>
        <extensions>
          <ns3:TrackPointExtension>
            <ns3:atemp>14.0</ns3:atemp>
            <ns3:hr>125</ns3:hr>
          </ns3:TrackPointExtension>
        </extensions>
      </trkpt>
      <trkpt lat="-22.01372288167476654052734375" lon="166.4626951329410076141357421875">
        <ele>851.4000244140625</ele>
        <time>2016-08-12T20:01:04.000Z</time>
        <extensions>
          <ns3:TrackPointExtension>
            <ns3:atemp>14.0</ns3:atemp>
            <ns3:hr>125</ns3:hr>
          </ns3:TrackPointExtension>
        </extensions>
      </trkpt>
      <trkpt lat="-22.0137233845889568328857421875" lon="166.46267325617372989654541015625">
        <ele>851.4000244140625</ele>
        <time>2016-08-12T20:01:05.000Z</time>
        <extensions>
          <ns3:TrackPointExtension>
            <ns3:atemp>14.0</ns3:atemp>
            <ns3:hr>125</ns3:hr>
          </ns3:TrackPointExtension>
        </extensions>
      </trkpt>
      <trkpt lat="-22.013719193637371063232421875" lon="166.46265079267323017120361328125">
        <ele>851.4000244140625</ele>
        <time>2016-08-12T20:01:06.000Z</time>
        <extensions>
          <ns3:TrackPointExtension>
            <ns3:atemp>14.0</ns3:atemp>
            <ns3:hr>126</ns3:hr>
          </ns3:TrackPointExtension>
        </extensions>
      </trkpt>
      <trkpt lat="-22.0137270726263523101806640625" lon="166.46262363530695438385009765625">
        <ele>851.79998779296875</ele>
        <time>2016-08-12T20:01:07.000Z</time>
        <extensions>
          <ns3:TrackPointExtension>
            <ns3:atemp>14.0</ns3:atemp>
            <ns3:hr>126</ns3:hr>
          </ns3:TrackPointExtension>
        </extensions>
      </trkpt>
      <trkpt lat="-22.01372497715055942535400390625" lon="166.4625935442745685577392578125">
        <ele>852</ele>
        <time>2016-08-12T20:01:08.000Z</time>
        <extensions>
          <ns3:TrackPointExtension>
            <ns3:atemp>14.0</ns3:atemp>
            <ns3:hr>126</ns3:hr>
          </ns3:TrackPointExtension>
        </extensions>
      </trkpt>
      <trkpt lat="-22.013719864189624786376953125" lon="166.46256362088024616241455078125">
        <ele>851.79998779296875</ele>
        <time>2016-08-12T20:01:09.000Z</time>
        <extensions>
          <ns3:TrackPointExtension>
            <ns3:atemp>14.0</ns3:atemp>
            <ns3:hr>127</ns3:hr>
          </ns3:TrackPointExtension>
        </extensions>
      </trkpt>
      <trkpt lat="-22.0136938802897930145263671875" lon="166.462529338896274566650390625">
        <ele>852</ele>
        <time>2016-08-12T20:01:10.000Z</time>
        <extensions>
          <ns3:TrackPointExtension>
            <ns3:atemp>14.0</ns3:atemp>
            <ns3:hr>127</ns3:hr>
          </ns3:TrackPointExtension>
        </extensions>
      </trkpt>
      <trkpt lat="-22.01368139125406742095947265625" lon="166.4625026844441890716552734375">
        <ele>852.4000244140625</ele>
        <time>2016-08-12T20:01:11.000Z</time>
        <extensions>
          <ns3:TrackPointExtension>
            <ns3:atemp>14.0</ns3:atemp>
            <ns3:hr>128</ns3:hr>
          </ns3:TrackPointExtension>
        </extensions>
      </trkpt>
      <trkpt lat="-22.0136660523712635040283203125" lon="166.46246991120278835296630859375">
        <ele>852.5999755859375</ele>
        <time>2016-08-12T20:01:12.000Z</time>
        <extensions>
          <ns3:TrackPointExtension>
            <ns3:atemp>14.0</ns3:atemp>
            <ns3:hr>128</ns3:hr>
          </ns3:TrackPointExtension>
        </extensions>
      </trkpt>
      <trkpt lat="-22.013646773993968963623046875" lon="166.4624436758458614349365234375">
        <ele>852.20001220703125</ele>
        <time>2016-08-12T20:01:13.000Z</time>
        <extensions>
          <ns3:TrackPointExtension>
            <ns3:atemp>14.0</ns3:atemp>
            <ns3:hr>128</ns3:hr>
          </ns3:TrackPointExtension>
        </extensions>
      </trkpt>
      <trkpt lat="-22.0136375539004802703857421875" lon="166.462418027222156524658203125">
        <ele>852.20001220703125</ele>
        <time>2016-08-12T20:01:14.000Z</time>
        <extensions>
          <ns3:TrackPointExtension>
            <ns3:atemp>14.0</ns3:atemp>
            <ns3:hr>128</ns3:hr>
          </ns3:TrackPointExtension>
        </extensions>
      </trkpt>
      <trkpt lat="-22.0136264897882938385009765625" lon="166.4623908698558807373046875">
        <ele>852.79998779296875</ele>
        <time>2016-08-12T20:01:15.000Z</time>
        <extensions>
          <ns3:TrackPointExtension>
            <ns3:atemp>14.0</ns3:atemp>
            <ns3:hr>129</ns3:hr>
          </ns3:TrackPointExtension>
        </extensions>
      </trkpt>
      <trkpt lat="-22.01361483894288539886474609375" lon="166.46236471831798553466796875">
        <ele>852.79998779296875</ele>
        <time>2016-08-12T20:01:16.000Z</time>
        <extensions>
          <ns3:TrackPointExtension>
            <ns3:atemp>14.0</ns3:atemp>
            <ns3:hr>129</ns3:hr>
          </ns3:TrackPointExtension>
        </extensions>
      </trkpt>
      <trkpt lat="-22.0136167667806148529052734375" lon="166.462339572608470916748046875">
        <ele>852.5999755859375</ele>
        <time>2016-08-12T20:01:17.000Z</time>
        <extensions>
          <ns3:TrackPointExtension>
            <ns3:atemp>14.0</ns3:atemp>
            <ns3:hr>129</ns3:hr>
          </ns3:TrackPointExtension>
        </extensions>
      </trkpt>
      <trkpt lat="-22.0136283338069915771484375" lon="166.46231166087090969085693359375">
        <ele>852.5999755859375</ele>
        <time>2016-08-12T20:01:18.000Z</time>
        <extensions>
          <ns3:TrackPointExtension>
            <ns3:atemp>14.0</ns3:atemp>
            <ns3:hr>129</ns3:hr>
          </ns3:TrackPointExtension>
        </extensions>
      </trkpt>
      <trkpt lat="-22.0136388950049877166748046875" lon="166.4622847549617290496826171875">
        <ele>852.79998779296875</ele>
        <time>2016-08-12T20:01:19.000Z</time>
        <extensions>
          <ns3:TrackPointExtension>
            <ns3:atemp>14.0</ns3:atemp>
            <ns3:hr>130</ns3:hr>
          </ns3:TrackPointExtension>
        </extensions>
      </trkpt>
      <trkpt lat="-22.0136435888707637786865234375" lon="166.46225432865321636199951171875">
        <ele>852.5999755859375</ele>
        <time>2016-08-12T20:01:20.000Z</time>
        <extensions>
          <ns3:TrackPointExtension>
            <ns3:atemp>14.0</ns3:atemp>
            <ns3:hr>130</ns3:hr>
          </ns3:TrackPointExtension>
        </extensions>
      </trkpt>
      <trkpt lat="-22.01366144232451915740966796875" lon="166.4622311107814311981201171875">
        <ele>852.4000244140625</ele>
        <time>2016-08-12T20:01:21.000Z</time>
        <extensions>
          <ns3:TrackPointExtension>
            <ns3:atemp>14.0</ns3:atemp>
            <ns3:hr>130</ns3:hr>
          </ns3:TrackPointExtension>
        </extensions>
      </trkpt>
      <trkpt lat="-22.0136690698564052581787109375" lon="166.46220873109996318817138671875">
        <ele>852.5999755859375</ele>
        <time>2016-08-12T20:01:22.000Z</time>
        <extensions>
          <ns3:TrackPointExtension>
            <ns3:atemp>14.0</ns3:atemp>
            <ns3:hr>130</ns3:hr>
          </ns3:TrackPointExtension>
        </extensions>
      </trkpt>
      <trkpt lat="-22.013696394860744476318359375" lon="166.4621838368475437164306640625">
        <ele>852.5999755859375</ele>
        <time>2016-08-12T20:01:23.000Z</time>
        <extensions>
          <ns3:TrackPointExtension>
            <ns3:atemp>14.0</ns3:atemp>
            <ns3:hr>130</ns3:hr>
          </ns3:TrackPointExtension>
        </extensions>
      </trkpt>
      <trkpt lat="-22.01371458359062671661376953125" lon="166.462161876261234283447265625">
        <ele>852.20001220703125</ele>
        <time>2016-08-12T20:01:24.000Z</time>
        <extensions>
          <ns3:TrackPointExtension>
            <ns3:atemp>14.0</ns3:atemp>
            <ns3:hr>130</ns3:hr>
          </ns3:TrackPointExtension>
        </extensions>
      </trkpt>
      <trkpt lat="-22.013732604682445526123046875" lon="166.4621387422084808349609375">
        <ele>852.20001220703125</ele>
        <time>2016-08-12T20:01:25.000Z</time>
        <extensions>
          <ns3:TrackPointExtension>
            <ns3:atemp>14.0</ns3:atemp>
            <ns3:hr>130</ns3:hr>
          </ns3:TrackPointExtension>
        </extensions>
      </trkpt>
      <trkpt lat="-22.013737969100475311279296875" lon="166.4621114172041416168212890625">
        <ele>852.5999755859375</ele>
        <time>2016-08-12T20:01:26.000Z</time>
        <extensions>
          <ns3:TrackPointExtension>
            <ns3:atemp>14.0</ns3:atemp>
            <ns3:hr>131</ns3:hr>
          </ns3:TrackPointExtension>
        </extensions>
      </trkpt>
      <trkpt lat="-22.01374626718461513519287109375" lon="166.46208317019045352935791015625">
        <ele>852.4000244140625</ele>
        <time>2016-08-12T20:01:27.000Z</time>
        <extensions>
          <ns3:TrackPointExtension>
            <ns3:atemp>14.0</ns3:atemp>
            <ns3:hr>131</ns3:hr>
          </ns3:TrackPointExtension>
        </extensions>
      </trkpt>
      <trkpt lat="-22.01375381089746952056884765625" lon="166.46205752156674861907958984375">
        <ele>852.4000244140625</ele>
        <time>2016-08-12T20:01:28.000Z</time>
        <extensions>
          <ns3:TrackPointExtension>
            <ns3:atemp>14.0</ns3:atemp>
            <ns3:hr>131</ns3:hr>
          </ns3:TrackPointExtension>
        </extensions>
      </trkpt>
      <trkpt lat="-22.01374643482267856597900390625" lon="166.46202935837209224700927734375">
        <ele>852.4000244140625</ele>
        <time>2016-08-12T20:01:29.000Z</time>
        <extensions>
          <ns3:TrackPointExtension>
            <ns3:atemp>14.0</ns3:atemp>
            <ns3:hr>131</ns3:hr>
          </ns3:TrackPointExtension>
        </extensions>
      </trkpt>
      <trkpt lat="-22.0137492008507251739501953125" lon="166.46200505085289478302001953125">
        <ele>852.20001220703125</ele>
        <time>2016-08-12T20:01:30.000Z</time>
        <extensions>
          <ns3:TrackPointExtension>
            <ns3:atemp>14.0</ns3:atemp>
            <ns3:hr>131</ns3:hr>
          </ns3:TrackPointExtension>
        </extensions>
      </trkpt>
      <trkpt lat="-22.01374526135623455047607421875" lon="166.4619856886565685272216796875">
        <ele>852.20001220703125</ele>
        <time>2016-08-12T20:01:31.000Z</time>
        <extensions>
          <ns3:TrackPointExtension>
            <ns3:atemp>14.0</ns3:atemp>
            <ns3:hr>132</ns3:hr>
          </ns3:TrackPointExtension>
        </extensions>
      </trkpt>
      <trkpt lat="-22.0137495361268520355224609375" lon="166.4619652368128299713134765625">
        <ele>852</ele>
        <time>2016-08-12T20:01:32.000Z</time>
        <extensions>
          <ns3:TrackPointExtension>
            <ns3:atemp>14.0</ns3:atemp>
            <ns3:hr>132</ns3:hr>
          </ns3:TrackPointExtension>
        </extensions>
      </trkpt>
      <trkpt lat="-22.0137562416493892669677734375" lon="166.46195123903453350067138671875">
        <ele>852</ele>
        <time>2016-08-12T20:01:33.000Z</time>
        <extensions>
          <ns3:TrackPointExtension>
            <ns3:atemp>14.0</ns3:atemp>
            <ns3:hr>131</ns3:hr>
          </ns3:TrackPointExtension>
        </extensions>
      </trkpt>
      <trkpt lat="-22.01376956887543201446533203125" lon="166.461939252912998199462890625">
        <ele>852</ele>
        <time>2016-08-12T20:01:34.000Z</time>
        <extensions>
          <ns3:TrackPointExtension>
            <ns3:atemp>14.0</ns3:atemp>
            <ns3:hr>131</ns3:hr>
          </ns3:TrackPointExtension>
        </extensions>
      </trkpt>
      <trkpt lat="-22.01377074234187602996826171875" lon="166.46192642860114574432373046875">
        <ele>852</ele>
        <time>2016-08-12T20:01:35.000Z</time>
        <extensions>
          <ns3:TrackPointExtension>
            <ns3:atemp>14.0</ns3:atemp>
            <ns3:hr>131</ns3:hr>
          </ns3:TrackPointExtension>
        </extensions>
      </trkpt>
      <trkpt lat="-22.01377225108444690704345703125" lon="166.4619109220802783966064453125">
        <ele>852</ele>
        <time>2016-08-12T20:01:36.000Z</time>
        <extensions>
          <ns3:TrackPointExtension>
            <ns3:atemp>14.0</ns3:atemp>
            <ns3:hr>130</ns3:hr>
          </ns3:TrackPointExtension>
        </extensions>
      </trkpt>
      <trkpt lat="-22.01377811841666698455810546875" lon="166.461896002292633056640625">
        <ele>852</ele>
        <time>2016-08-12T20:01:37.000Z</time>
        <extensions>
          <ns3:TrackPointExtension>
            <ns3:atemp>14.0</ns3:atemp>
            <ns3:hr>130</ns3:hr>
          </ns3:TrackPointExtension>
        </extensions>
      </trkpt>
      <trkpt lat="-22.01378448866307735443115234375" lon="166.46188435144722461700439453125">
        <ele>852</ele>
        <time>2016-08-12T20:01:38.000Z</time>
        <extensions>
          <ns3:TrackPointExtension>
            <ns3:atemp>14.0</ns3:atemp>
            <ns3:hr>129</ns3:hr>
          </ns3:TrackPointExtension>
        </extensions>
      </trkpt>
      <trkpt lat="-22.0137890987098217010498046875" lon="166.46187446080148220062255859375">
        <ele>851.79998779296875</ele>
        <time>2016-08-12T20:01:39.000Z</time>
        <extensions>
          <ns3:TrackPointExtension>
            <ns3:atemp>14.0</ns3:atemp>
            <ns3:hr>129</ns3:hr>
          </ns3:TrackPointExtension>
        </extensions>
      </trkpt>
      <trkpt lat="-22.01378700323402881622314453125" lon="166.4618599601089954376220703125">
        <ele>851.79998779296875</ele>
        <time>2016-08-12T20:01:40.000Z</time>
        <extensions>
          <ns3:TrackPointExtension>
            <ns3:atemp>14.0</ns3:atemp>
            <ns3:hr>129</ns3:hr>
          </ns3:TrackPointExtension>
        </extensions>
      </trkpt>
      <trkpt lat="-22.0137803815305233001708984375" lon="166.4618358202278614044189453125">
        <ele>851.79998779296875</ele>
        <time>2016-08-12T20:01:41.000Z</time>
        <extensions>
          <ns3:TrackPointExtension>
            <ns3:atemp>14.0</ns3:atemp>
            <ns3:hr>129</ns3:hr>
          </ns3:TrackPointExtension>
        </extensions>
      </trkpt>
      <trkpt lat="-22.01377007178962230682373046875" lon="166.46180690266191959381103515625">
        <ele>852</ele>
        <time>2016-08-12T20:01:42.000Z</time>
        <extensions>
          <ns3:TrackPointExtension>
            <ns3:atemp>14.0</ns3:atemp>
            <ns3:hr>129</ns3:hr>
          </ns3:TrackPointExtension>
        </extensions>
      </trkpt>
      <trkpt lat="-22.01377250254154205322265625" lon="166.46177857182919979095458984375">
        <ele>852.20001220703125</ele>
        <time>2016-08-12T20:01:43.000Z</time>
        <extensions>
          <ns3:TrackPointExtension>
            <ns3:atemp>14.0</ns3:atemp>
            <ns3:hr>129</ns3:hr>
          </ns3:TrackPointExtension>
        </extensions>
      </trkpt>
      <trkpt lat="-22.01376847922801971435546875" lon="166.46175074391067028045654296875">
        <ele>852.20001220703125</ele>
        <time>2016-08-12T20:01:44.000Z</time>
        <extensions>
          <ns3:TrackPointExtension>
            <ns3:atemp>14.0</ns3:atemp>
            <ns3:hr>130</ns3:hr>
          </ns3:TrackPointExtension>
        </extensions>
      </trkpt>
      <trkpt lat="-22.013769485056400299072265625" lon="166.4617198146879673004150390625">
        <ele>852</ele>
        <time>2016-08-12T20:01:45.000Z</time>
        <extensions>
          <ns3:TrackPointExtension>
            <ns3:atemp>14.0</ns3:atemp>
            <ns3:hr>130</ns3:hr>
          </ns3:TrackPointExtension>
        </extensions>
      </trkpt>
      <trkpt lat="-22.013772837817668914794921875" lon="166.46169156767427921295166015625">
        <ele>852.20001220703125</ele>
        <time>2016-08-12T20:01:46.000Z</time>
        <extensions>
          <ns3:TrackPointExtension>
            <ns3:atemp>14.0</ns3:atemp>
            <ns3:hr>130</ns3:hr>
          </ns3:TrackPointExtension>
        </extensions>
      </trkpt>
      <trkpt lat="-22.01377409510314464569091796875" lon="166.46166340447962284088134765625">
        <ele>852.4000244140625</ele>
        <time>2016-08-12T20:01:47.000Z</time>
        <extensions>
          <ns3:TrackPointExtension>
            <ns3:atemp>14.0</ns3:atemp>
            <ns3:hr>131</ns3:hr>
          </ns3:TrackPointExtension>
        </extensions>
      </trkpt>
      <trkpt lat="-22.01378163881599903106689453125" lon="166.4616393484175205230712890625">
        <ele>852.4000244140625</ele>
        <time>2016-08-12T20:01:48.000Z</time>
        <extensions>
          <ns3:TrackPointExtension>
            <ns3:atemp>14.0</ns3:atemp>
            <ns3:hr>131</ns3:hr>
          </ns3:TrackPointExtension>
        </extensions>
      </trkpt>
      <trkpt lat="-22.01379530131816864013671875" lon="166.46161428652703762054443359375">
        <ele>852.20001220703125</ele>
        <time>2016-08-12T20:01:49.000Z</time>
        <extensions>
          <ns3:TrackPointExtension>
            <ns3:atemp>14.0</ns3:atemp>
            <ns3:hr>132</ns3:hr>
          </ns3:TrackPointExtension>
        </extensions>
      </trkpt>
      <trkpt lat="-22.01381298713386058807373046875" lon="166.46158746443688869476318359375">
        <ele>852.20001220703125</ele>
        <time>2016-08-12T20:01:50.000Z</time>
        <extensions>
          <ns3:TrackPointExtension>
            <ns3:atemp>14.0</ns3:atemp>
            <ns3:hr>132</ns3:hr>
          </ns3:TrackPointExtension>
        </extensions>
      </trkpt>
      <trkpt lat="-22.0138239674270153045654296875" lon="166.46156282164156436920166015625">
        <ele>852.4000244140625</ele>
        <time>2016-08-12T20:01:51.000Z</time>
        <extensions>
          <ns3:TrackPointExtension>
            <ns3:atemp>14.0</ns3:atemp>
            <ns3:hr>132</ns3:hr>
          </ns3:TrackPointExtension>
        </extensions>
      </trkpt>
      <trkpt lat="-22.0138487778604030609130859375" lon="166.4615407772362232208251953125">
        <ele>852</ele>
        <time>2016-08-12T20:01:52.000Z</time>
        <extensions>
          <ns3:TrackPointExtension>
            <ns3:atemp>14.0</ns3:atemp>
            <ns3:hr>132</ns3:hr>
          </ns3:TrackPointExtension>
        </extensions>
      </trkpt>
      <trkpt lat="-22.01386830769479274749755859375" lon="166.4615159668028354644775390625">
        <ele>852</ele>
        <time>2016-08-12T20:01:53.000Z</time>
        <extensions>
          <ns3:TrackPointExtension>
            <ns3:atemp>14.0</ns3:atemp>
            <ns3:hr>132</ns3:hr>
          </ns3:TrackPointExtension>
        </extensions>
      </trkpt>
      <trkpt lat="-22.01389051973819732666015625" lon="166.46149509586393833160400390625">
        <ele>852.4000244140625</ele>
        <time>2016-08-12T20:01:54.000Z</time>
        <extensions>
          <ns3:TrackPointExtension>
            <ns3:atemp>14.0</ns3:atemp>
            <ns3:hr>131</ns3:hr>
          </ns3:TrackPointExtension>
        </extensions>
      </trkpt>
      <trkpt lat="-22.01389856636524200439453125" lon="166.4614708721637725830078125">
        <ele>852.4000244140625</ele>
        <time>2016-08-12T20:01:55.000Z</time>
        <extensions>
          <ns3:TrackPointExtension>
            <ns3:atemp>14.0</ns3:atemp>
            <ns3:hr>131</ns3:hr>
          </ns3:TrackPointExtension>
        </extensions>
      </trkpt>
      <trkpt lat="-22.01392480172216892242431640625" lon="166.46144346334040164947509765625">
        <ele>852</ele>
        <time>2016-08-12T20:01:56.000Z</time>
        <extensions>
          <ns3:TrackPointExtension>
            <ns3:atemp>14.0</ns3:atemp>
            <ns3:hr>131</ns3:hr>
          </ns3:TrackPointExtension>
        </extensions>
      </trkpt>
      <trkpt lat="-22.01394475065171718597412109375" lon="166.46141664125025272369384765625">
        <ele>852</ele>
        <time>2016-08-12T20:01:57.000Z</time>
        <extensions>
          <ns3:TrackPointExtension>
            <ns3:atemp>14.0</ns3:atemp>
            <ns3:hr>131</ns3:hr>
          </ns3:TrackPointExtension>
        </extensions>
      </trkpt>
      <trkpt lat="-22.013967968523502349853515625" lon="166.461388729512691497802734375">
        <ele>852.20001220703125</ele>
        <time>2016-08-12T20:01:58.000Z</time>
        <extensions>
          <ns3:TrackPointExtension>
            <ns3:atemp>14.0</ns3:atemp>
            <ns3:hr>131</ns3:hr>
          </ns3:TrackPointExtension>
        </extensions>
      </trkpt>
      <trkpt lat="-22.0139795355498790740966796875" lon="166.46136157214641571044921875">
        <ele>851.79998779296875</ele>
        <time>2016-08-12T20:01:59.000Z</time>
        <extensions>
          <ns3:TrackPointExtension>
            <ns3:atemp>14.0</ns3:atemp>
            <ns3:hr>131</ns3:hr>
          </ns3:TrackPointExtension>
        </extensions>
      </trkpt>
      <trkpt lat="-22.01399889774620532989501953125" lon="166.46133734844624996185302734375">
        <ele>851.79998779296875</ele>
        <time>2016-08-12T20:02:00.000Z</time>
        <extensions>
          <ns3:TrackPointExtension>
            <ns3:atemp>14.0</ns3:atemp>
            <ns3:hr>131</ns3:hr>
          </ns3:TrackPointExtension>
        </extensions>
      </trkpt>
      <trkpt lat="-22.0140113867819309234619140625" lon="166.4613139629364013671875">
        <ele>852</ele>
        <time>2016-08-12T20:02:01.000Z</time>
        <extensions>
          <ns3:TrackPointExtension>
            <ns3:atemp>14.0</ns3:atemp>
            <ns3:hr>131</ns3:hr>
          </ns3:TrackPointExtension>
        </extensions>
      </trkpt>
      <trkpt lat="-22.01401717029511928558349609375" lon="166.46129191853106021881103515625">
        <ele>851.79998779296875</ele>
        <time>2016-08-12T20:02:02.000Z</time>
        <extensions>
          <ns3:TrackPointExtension>
            <ns3:atemp>14.0</ns3:atemp>
            <ns3:hr>132</ns3:hr>
          </ns3:TrackPointExtension>
        </extensions>
      </trkpt>
      <trkpt lat="-22.0140429027378559112548828125" lon="166.461268030107021331787109375">
        <ele>851.5999755859375</ele>
        <time>2016-08-12T20:02:03.000Z</time>
        <extensions>
          <ns3:TrackPointExtension>
            <ns3:atemp>14.0</ns3:atemp>
            <ns3:hr>131</ns3:hr>
          </ns3:TrackPointExtension>
        </extensions>
      </trkpt>
      <trkpt lat="-22.014065869152545928955078125" lon="166.46124447695910930633544921875">
        <ele>851.79998779296875</ele>
        <time>2016-08-12T20:02:04.000Z</time>
        <extensions>
          <ns3:TrackPointExtension>
            <ns3:atemp>14.0</ns3:atemp>
            <ns3:hr>131</ns3:hr>
          </ns3:TrackPointExtension>
        </extensions>
      </trkpt>
      <trkpt lat="-22.01407835818827152252197265625" lon="166.4612246118485927581787109375">
        <ele>851.79998779296875</ele>
        <time>2016-08-12T20:02:05.000Z</time>
        <extensions>
          <ns3:TrackPointExtension>
            <ns3:atemp>14.0</ns3:atemp>
            <ns3:hr>131</ns3:hr>
          </ns3:TrackPointExtension>
        </extensions>
      </trkpt>
      <trkpt lat="-22.014088667929172515869140625" lon="166.46120374090969562530517578125">
        <ele>851.5999755859375</ele>
        <time>2016-08-12T20:02:06.000Z</time>
        <extensions>
          <ns3:TrackPointExtension>
            <ns3:atemp>14.0</ns3:atemp>
            <ns3:hr>131</ns3:hr>
          </ns3:TrackPointExtension>
        </extensions>
      </trkpt>
      <trkpt lat="-22.01410400681197643280029296875" lon="166.461180858314037322998046875">
        <ele>851.5999755859375</ele>
        <time>2016-08-12T20:02:07.000Z</time>
        <extensions>
          <ns3:TrackPointExtension>
            <ns3:atemp>14.0</ns3:atemp>
            <ns3:hr>131</ns3:hr>
          </ns3:TrackPointExtension>
        </extensions>
      </trkpt>
      <trkpt lat="-22.0141052640974521636962890625" lon="166.461161077022552490234375">
        <ele>851.79998779296875</ele>
        <time>2016-08-12T20:02:08.000Z</time>
        <extensions>
          <ns3:TrackPointExtension>
            <ns3:atemp>14.0</ns3:atemp>
            <ns3:hr>131</ns3:hr>
          </ns3:TrackPointExtension>
        </extensions>
      </trkpt>
      <trkpt lat="-22.01411574147641658782958984375" lon="166.4611397869884967803955078125">
        <ele>851.5999755859375</ele>
        <time>2016-08-12T20:02:09.000Z</time>
        <extensions>
          <ns3:TrackPointExtension>
            <ns3:atemp>14.0</ns3:atemp>
            <ns3:hr>131</ns3:hr>
          </ns3:TrackPointExtension>
        </extensions>
      </trkpt>
      <trkpt lat="-22.01411641202867031097412109375" lon="166.4611193351447582244873046875">
        <ele>851.5999755859375</ele>
        <time>2016-08-12T20:02:10.000Z</time>
        <extensions>
          <ns3:TrackPointExtension>
            <ns3:atemp>14.0</ns3:atemp>
            <ns3:hr>131</ns3:hr>
          </ns3:TrackPointExtension>
        </extensions>
      </trkpt>
      <trkpt lat="-22.0141136460006237030029296875" lon="166.46109712310135364532470703125">
        <ele>851.79998779296875</ele>
        <time>2016-08-12T20:02:11.000Z</time>
        <extensions>
          <ns3:TrackPointExtension>
            <ns3:atemp>14.0</ns3:atemp>
            <ns3:hr>131</ns3:hr>
          </ns3:TrackPointExtension>
        </extensions>
      </trkpt>
      <trkpt lat="-22.01410920359194278717041015625" lon="166.4610703848302364349365234375">
        <ele>851.79998779296875</ele>
        <time>2016-08-12T20:02:12.000Z</time>
        <extensions>
          <ns3:TrackPointExtension>
            <ns3:atemp>14.0</ns3:atemp>
            <ns3:hr>131</ns3:hr>
          </ns3:TrackPointExtension>
        </extensions>
      </trkpt>
      <trkpt lat="-22.01410534791648387908935546875" lon="166.46104465238749980926513671875">
        <ele>851.4000244140625</ele>
        <time>2016-08-12T20:02:13.000Z</time>
        <extensions>
          <ns3:TrackPointExtension>
            <ns3:atemp>14.0</ns3:atemp>
            <ns3:hr>130</ns3:hr>
          </ns3:TrackPointExtension>
        </extensions>
      </trkpt>
      <trkpt lat="-22.0140848122537136077880859375" lon="166.46101648919284343719482421875">
        <ele>851.4000244140625</ele>
        <time>2016-08-12T20:02:14.000Z</time>
        <extensions>
          <ns3:TrackPointExtension>
            <ns3:atemp>14.0</ns3:atemp>
            <ns3:hr>131</ns3:hr>
          </ns3:TrackPointExtension>
        </extensions>
      </trkpt>
      <trkpt lat="-22.01408204622566699981689453125" lon="166.4609869010746479034423828125">
        <ele>851.5999755859375</ele>
        <time>2016-08-12T20:02:15.000Z</time>
        <extensions>
          <ns3:TrackPointExtension>
            <ns3:atemp>14.0</ns3:atemp>
            <ns3:hr>131</ns3:hr>
          </ns3:TrackPointExtension>
        </extensions>
      </trkpt>
      <trkpt lat="-22.0140670426189899444580078125" lon="166.460956893861293792724609375">
        <ele>851.5999755859375</ele>
        <time>2016-08-12T20:02:16.000Z</time>
        <extensions>
          <ns3:TrackPointExtension>
            <ns3:atemp>14.0</ns3:atemp>
            <ns3:hr>131</ns3:hr>
          </ns3:TrackPointExtension>
        </extensions>
      </trkpt>
      <trkpt lat="-22.0140526257455348968505859375" lon="166.4609248749911785125732421875">
        <ele>851.20001220703125</ele>
        <time>2016-08-12T20:02:17.000Z</time>
        <extensions>
          <ns3:TrackPointExtension>
            <ns3:atemp>14.0</ns3:atemp>
            <ns3:hr>131</ns3:hr>
          </ns3:TrackPointExtension>
        </extensions>
      </trkpt>
      <trkpt lat="-22.01404633931815624237060546875" lon="166.460895873606204986572265625">
        <ele>851.20001220703125</ele>
        <time>2016-08-12T20:02:18.000Z</time>
        <extensions>
          <ns3:TrackPointExtension>
            <ns3:atemp>14.0</ns3:atemp>
            <ns3:hr>131</ns3:hr>
          </ns3:TrackPointExtension>
        </extensions>
      </trkpt>
      <trkpt lat="-22.0140333473682403564453125" lon="166.4608662016689777374267578125">
        <ele>851.5999755859375</ele>
        <time>2016-08-12T20:02:19.000Z</time>
        <extensions>
          <ns3:TrackPointExtension>
            <ns3:atemp>14.0</ns3:atemp>
            <ns3:hr>130</ns3:hr>
          </ns3:TrackPointExtension>
        </extensions>
      </trkpt>
      <trkpt lat="-22.01401256024837493896484375" lon="166.46083896048367023468017578125">
        <ele>851.5999755859375</ele>
        <time>2016-08-12T20:02:20.000Z</time>
        <extensions>
          <ns3:TrackPointExtension>
            <ns3:atemp>14.0</ns3:atemp>
            <ns3:hr>131</ns3:hr>
          </ns3:TrackPointExtension>
        </extensions>
      </trkpt>
      <trkpt lat="-22.01399780809879302978515625" lon="166.4608128927648067474365234375">
        <ele>851.20001220703125</ele>
        <time>2016-08-12T20:02:21.000Z</time>
        <extensions>
          <ns3:TrackPointExtension>
            <ns3:atemp>14.0</ns3:atemp>
            <ns3:hr>131</ns3:hr>
          </ns3:TrackPointExtension>
        </extensions>
      </trkpt>
      <trkpt lat="-22.0139768533408641815185546875" lon="166.4607870765030384063720703125">
        <ele>851.4000244140625</ele>
        <time>2016-08-12T20:02:22.000Z</time>
        <extensions>
          <ns3:TrackPointExtension>
            <ns3:atemp>14.0</ns3:atemp>
            <ns3:hr>130</ns3:hr>
          </ns3:TrackPointExtension>
        </extensions>
      </trkpt>
      <trkpt lat="-22.0139600895345211029052734375" lon="166.460761763155460357666015625">
        <ele>851.79998779296875</ele>
        <time>2016-08-12T20:02:23.000Z</time>
        <extensions>
          <ns3:TrackPointExtension>
            <ns3:atemp>14.0</ns3:atemp>
            <ns3:hr>131</ns3:hr>
          </ns3:TrackPointExtension>
        </extensions>
      </trkpt>
      <trkpt lat="-22.01394357718527317047119140625" lon="166.46073871292173862457275390625">
        <ele>851.5999755859375</ele>
        <time>2016-08-12T20:02:24.000Z</time>
        <extensions>
          <ns3:TrackPointExtension>
            <ns3:atemp>14.0</ns3:atemp>
            <ns3:hr>131</ns3:hr>
          </ns3:TrackPointExtension>
        </extensions>
      </trkpt>
      <trkpt lat="-22.0139252208173274993896484375" lon="166.460714824497699737548828125">
        <ele>851.4000244140625</ele>
        <time>2016-08-12T20:02:25.000Z</time>
        <extensions>
          <ns3:TrackPointExtension>
            <ns3:atemp>14.0</ns3:atemp>
            <ns3:hr>131</ns3:hr>
          </ns3:TrackPointExtension>
        </extensions>
      </trkpt>
      <trkpt lat="-22.01391155831515789031982421875" lon="166.46069043315947055816650390625">
        <ele>851.5999755859375</ele>
        <time>2016-08-12T20:02:26.000Z</time>
        <extensions>
          <ns3:TrackPointExtension>
            <ns3:atemp>14.0</ns3:atemp>
            <ns3:hr>131</ns3:hr>
          </ns3:TrackPointExtension>
        </extensions>
      </trkpt>
      <trkpt lat="-22.01389454305171966552734375" lon="166.46066595800220966339111328125">
        <ele>851.79998779296875</ele>
        <time>2016-08-12T20:02:27.000Z</time>
        <extensions>
          <ns3:TrackPointExtension>
            <ns3:atemp>14.0</ns3:atemp>
            <ns3:hr>131</ns3:hr>
          </ns3:TrackPointExtension>
        </extensions>
      </trkpt>
      <trkpt lat="-22.01388071291148662567138671875" lon="166.46064148284494876861572265625">
        <ele>851.79998779296875</ele>
        <time>2016-08-12T20:02:28.000Z</time>
        <extensions>
          <ns3:TrackPointExtension>
            <ns3:atemp>14.0</ns3:atemp>
            <ns3:hr>131</ns3:hr>
          </ns3:TrackPointExtension>
        </extensions>
      </trkpt>
      <trkpt lat="-22.013866715133190155029296875" lon="166.46061784587800502777099609375">
        <ele>851.5999755859375</ele>
        <time>2016-08-12T20:02:29.000Z</time>
        <extensions>
          <ns3:TrackPointExtension>
            <ns3:atemp>14.0</ns3:atemp>
            <ns3:hr>132</ns3:hr>
          </ns3:TrackPointExtension>
        </extensions>
      </trkpt>
      <trkpt lat="-22.01384869404137134552001953125" lon="166.4605942927300930023193359375">
        <ele>851.79998779296875</ele>
        <time>2016-08-12T20:02:30.000Z</time>
        <extensions>
          <ns3:TrackPointExtension>
            <ns3:atemp>14.0</ns3:atemp>
            <ns3:hr>132</ns3:hr>
          </ns3:TrackPointExtension>
        </extensions>
      </trkpt>
      <trkpt lat="-22.01382941566407680511474609375" lon="166.4605745114386081695556640625">
        <ele>852.20001220703125</ele>
        <time>2016-08-12T20:02:31.000Z</time>
        <extensions>
          <ns3:TrackPointExtension>
            <ns3:atemp>14.0</ns3:atemp>
            <ns3:hr>132</ns3:hr>
          </ns3:TrackPointExtension>
        </extensions>
      </trkpt>
      <trkpt lat="-22.013809718191623687744140625" lon="166.46055380813777446746826171875">
        <ele>852.20001220703125</ele>
        <time>2016-08-12T20:02:32.000Z</time>
        <extensions>
          <ns3:TrackPointExtension>
            <ns3:atemp>14.0</ns3:atemp>
            <ns3:hr>132</ns3:hr>
          </ns3:TrackPointExtension>
        </extensions>
      </trkpt>
      <trkpt lat="-22.0137921161949634552001953125" lon="166.46053134463727474212646484375">
        <ele>852</ele>
        <time>2016-08-12T20:02:33.000Z</time>
        <extensions>
          <ns3:TrackPointExtension>
            <ns3:atemp>14.0</ns3:atemp>
            <ns3:hr>132</ns3:hr>
          </ns3:TrackPointExtension>
        </extensions>
      </trkpt>
      <trkpt lat="-22.01378063298761844635009765625" lon="166.46050653420388698577880859375">
        <ele>852.20001220703125</ele>
        <time>2016-08-12T20:02:34.000Z</time>
        <extensions>
          <ns3:TrackPointExtension>
            <ns3:atemp>14.0</ns3:atemp>
            <ns3:hr>133</ns3:hr>
          </ns3:TrackPointExtension>
        </extensions>
      </trkpt>
      <trkpt lat="-22.0137706585228443145751953125" lon="166.46048071794211864471435546875">
        <ele>852.4000244140625</ele>
        <time>2016-08-12T20:02:35.000Z</time>
        <extensions>
          <ns3:TrackPointExtension>
            <ns3:atemp>14.0</ns3:atemp>
            <ns3:hr>133</ns3:hr>
          </ns3:TrackPointExtension>
        </extensions>
      </trkpt>
      <trkpt lat="-22.01376101933419704437255859375" lon="166.46045691333711147308349609375">
        <ele>852.20001220703125</ele>
        <time>2016-08-12T20:02:36.000Z</time>
        <extensions>
          <ns3:TrackPointExtension>
            <ns3:atemp>14.0</ns3:atemp>
            <ns3:hr>133</ns3:hr>
          </ns3:TrackPointExtension>
        </extensions>
      </trkpt>
      <trkpt lat="-22.01375263743102550506591796875" lon="166.460431851446628570556640625">
        <ele>851.79998779296875</ele>
        <time>2016-08-12T20:02:37.000Z</time>
        <extensions>
          <ns3:TrackPointExtension>
            <ns3:atemp>14.0</ns3:atemp>
            <ns3:hr>133</ns3:hr>
          </ns3:TrackPointExtension>
        </extensions>
      </trkpt>
      <trkpt lat="-22.01374341733753681182861328125" lon="166.46040611900389194488525390625">
        <ele>852</ele>
        <time>2016-08-12T20:02:38.000Z</time>
        <extensions>
          <ns3:TrackPointExtension>
            <ns3:atemp>14.0</ns3:atemp>
            <ns3:hr>134</ns3:hr>
          </ns3:TrackPointExtension>
        </extensions>
      </trkpt>
      <trkpt lat="-22.01373587362468242645263671875" lon="166.460380889475345611572265625">
        <ele>852.20001220703125</ele>
        <time>2016-08-12T20:02:39.000Z</time>
        <extensions>
          <ns3:TrackPointExtension>
            <ns3:atemp>14.0</ns3:atemp>
            <ns3:hr>134</ns3:hr>
          </ns3:TrackPointExtension>
        </extensions>
      </trkpt>
      <trkpt lat="-22.01372497715055942535400390625" lon="166.46035448648035526275634765625">
        <ele>852</ele>
        <time>2016-08-12T20:02:40.000Z</time>
        <extensions>
          <ns3:TrackPointExtension>
            <ns3:atemp>14.0</ns3:atemp>
            <ns3:hr>135</ns3:hr>
          </ns3:TrackPointExtension>
        </extensions>
      </trkpt>
      <trkpt lat="-22.01370821334421634674072265625" lon="166.46033168770372867584228515625">
        <ele>852.20001220703125</ele>
        <time>2016-08-12T20:02:41.000Z</time>
        <extensions>
          <ns3:TrackPointExtension>
            <ns3:atemp>14.0</ns3:atemp>
            <ns3:hr>135</ns3:hr>
          </ns3:TrackPointExtension>
        </extensions>
      </trkpt>
      <trkpt lat="-22.01369337737560272216796875" lon="166.46030821837484836578369140625">
        <ele>852.4000244140625</ele>
        <time>2016-08-12T20:02:42.000Z</time>
        <extensions>
          <ns3:TrackPointExtension>
            <ns3:atemp>14.0</ns3:atemp>
            <ns3:hr>135</ns3:hr>
          </ns3:TrackPointExtension>
        </extensions>
      </trkpt>
      <trkpt lat="-22.01367736794054508209228515625" lon="166.46028424613177776336669921875">
        <ele>852.20001220703125</ele>
        <time>2016-08-12T20:02:43.000Z</time>
        <extensions>
          <ns3:TrackPointExtension>
            <ns3:atemp>14.0</ns3:atemp>
            <ns3:hr>135</ns3:hr>
          </ns3:TrackPointExtension>
        </extensions>
      </trkpt>
      <trkpt lat="-22.0136650465428829193115234375" lon="166.46026052534580230712890625">
        <ele>851.79998779296875</ele>
        <time>2016-08-12T20:02:44.000Z</time>
        <extensions>
          <ns3:TrackPointExtension>
            <ns3:atemp>14.0</ns3:atemp>
            <ns3:hr>136</ns3:hr>
          </ns3:TrackPointExtension>
        </extensions>
      </trkpt>
      <trkpt lat="-22.01364736072719097137451171875" lon="166.4602422527968883514404296875">
        <ele>852</ele>
        <time>2016-08-12T20:02:45.000Z</time>
        <extensions>
          <ns3:TrackPointExtension>
            <ns3:atemp>14.0</ns3:atemp>
            <ns3:hr>135</ns3:hr>
          </ns3:TrackPointExtension>
        </extensions>
      </trkpt>
      <trkpt lat="-22.01362632215023040771484375" lon="166.46022339351475238800048828125">
        <ele>852.20001220703125</ele>
        <time>2016-08-12T20:02:46.000Z</time>
        <extensions>
          <ns3:TrackPointExtension>
            <ns3:atemp>14.0</ns3:atemp>
            <ns3:hr>136</ns3:hr>
          </ns3:TrackPointExtension>
        </extensions>
      </trkpt>
      <trkpt lat="-22.01360494829714298248291015625" lon="166.46020730026066303253173828125">
        <ele>852</ele>
        <time>2016-08-12T20:02:47.000Z</time>
        <extensions>
          <ns3:TrackPointExtension>
            <ns3:atemp>14.0</ns3:atemp>
            <ns3:hr>135</ns3:hr>
          </ns3:TrackPointExtension>
        </extensions>
      </trkpt>
      <trkpt lat="-22.01357829384505748748779296875" lon="166.4601949788630008697509765625">
        <ele>851.79998779296875</ele>
        <time>2016-08-12T20:02:48.000Z</time>
        <extensions>
          <ns3:TrackPointExtension>
            <ns3:atemp>14.0</ns3:atemp>
            <ns3:hr>136</ns3:hr>
          </ns3:TrackPointExtension>
        </extensions>
      </trkpt>
      <trkpt lat="-22.0135513879358768463134765625" lon="166.46018818952143192291259765625">
        <ele>852</ele>
        <time>2016-08-12T20:02:49.000Z</time>
        <extensions>
          <ns3:TrackPointExtension>
            <ns3:atemp>14.0</ns3:atemp>
            <ns3:hr>136</ns3:hr>
          </ns3:TrackPointExtension>
        </extensions>
      </trkpt>
      <trkpt lat="-22.013526074588298797607421875" lon="166.46018718369305133819580078125">
        <ele>852.4000244140625</ele>
        <time>2016-08-12T20:02:50.000Z</time>
        <extensions>
          <ns3:TrackPointExtension>
            <ns3:atemp>14.0</ns3:atemp>
            <ns3:hr>136</ns3:hr>
          </ns3:TrackPointExtension>
        </extensions>
      </trkpt>
      <trkpt lat="-22.0134997554123401641845703125" lon="166.46018986590206623077392578125">
        <ele>852.4000244140625</ele>
        <time>2016-08-12T20:02:51.000Z</time>
        <extensions>
          <ns3:TrackPointExtension>
            <ns3:atemp>14.0</ns3:atemp>
            <ns3:hr>136</ns3:hr>
          </ns3:TrackPointExtension>
        </extensions>
      </trkpt>
      <trkpt lat="-22.013475112617015838623046875" lon="166.4601983316242694854736328125">
        <ele>852.4000244140625</ele>
        <time>2016-08-12T20:02:52.000Z</time>
        <extensions>
          <ns3:TrackPointExtension>
            <ns3:atemp>14.0</ns3:atemp>
            <ns3:hr>136</ns3:hr>
          </ns3:TrackPointExtension>
        </extensions>
      </trkpt>
      <trkpt lat="-22.013450972735881805419921875" lon="166.46020352840423583984375">
        <ele>852.4000244140625</ele>
        <time>2016-08-12T20:02:53.000Z</time>
        <extensions>
          <ns3:TrackPointExtension>
            <ns3:atemp>14.0</ns3:atemp>
            <ns3:hr>136</ns3:hr>
          </ns3:TrackPointExtension>
        </extensions>
      </trkpt>
      <trkpt lat="-22.0134236477315425872802734375" lon="166.46020562388002872467041015625">
        <ele>852.20001220703125</ele>
        <time>2016-08-12T20:02:54.000Z</time>
        <extensions>
          <ns3:TrackPointExtension>
            <ns3:atemp>14.0</ns3:atemp>
            <ns3:hr>136</ns3:hr>
          </ns3:TrackPointExtension>
        </extensions>
      </trkpt>
      <trkpt lat="-22.0133988372981548309326171875" lon="166.46020629443228244781494140625">
        <ele>852.20001220703125</ele>
        <time>2016-08-12T20:02:55.000Z</time>
        <extensions>
          <ns3:TrackPointExtension>
            <ns3:atemp>14.0</ns3:atemp>
            <ns3:hr>136</ns3:hr>
          </ns3:TrackPointExtension>
        </extensions>
      </trkpt>
      <trkpt lat="-22.013370506465435028076171875" lon="166.46020143292844295501708984375">
        <ele>852.20001220703125</ele>
        <time>2016-08-12T20:02:56.000Z</time>
        <extensions>
          <ns3:TrackPointExtension>
            <ns3:atemp>14.0</ns3:atemp>
            <ns3:hr>136</ns3:hr>
          </ns3:TrackPointExtension>
        </extensions>
      </trkpt>
      <trkpt lat="-22.01334393583238124847412109375" lon="166.460191123187541961669921875">
        <ele>852.4000244140625</ele>
        <time>2016-08-12T20:02:57.000Z</time>
        <extensions>
          <ns3:TrackPointExtension>
            <ns3:atemp>14.0</ns3:atemp>
            <ns3:hr>136</ns3:hr>
          </ns3:TrackPointExtension>
        </extensions>
      </trkpt>
      <trkpt lat="-22.01332247816026210784912109375" lon="166.46018433384597301483154296875">
        <ele>852.20001220703125</ele>
        <time>2016-08-12T20:02:58.000Z</time>
        <extensions>
          <ns3:TrackPointExtension>
            <ns3:atemp>14.0</ns3:atemp>
            <ns3:hr>136</ns3:hr>
          </ns3:TrackPointExtension>
        </extensions>
      </trkpt>
      <trkpt lat="-22.01329984702169895172119140625" lon="166.46017645485699176788330078125">
        <ele>851.79998779296875</ele>
        <time>2016-08-12T20:02:59.000Z</time>
        <extensions>
          <ns3:TrackPointExtension>
            <ns3:atemp>14.0</ns3:atemp>
            <ns3:hr>136</ns3:hr>
          </ns3:TrackPointExtension>
        </extensions>
      </trkpt>
      <trkpt lat="-22.01328258030116558074951171875" lon="166.46015784703195095062255859375">
        <ele>852</ele>
        <time>2016-08-12T20:03:00.000Z</time>
        <extensions>
          <ns3:TrackPointExtension>
            <ns3:atemp>14.0</ns3:atemp>
            <ns3:hr>136</ns3:hr>
          </ns3:TrackPointExtension>
        </extensions>
      </trkpt>
      <trkpt lat="-22.0132716000080108642578125" lon="166.46013638935983180999755859375">
        <ele>852.20001220703125</ele>
        <time>2016-08-12T20:03:01.000Z</time>
        <extensions>
          <ns3:TrackPointExtension>
            <ns3:atemp>14.0</ns3:atemp>
            <ns3:hr>136</ns3:hr>
          </ns3:TrackPointExtension>
        </extensions>
      </trkpt>
      <trkpt lat="-22.0132670737802982330322265625" lon="166.4601098187267780303955078125">
        <ele>852</ele>
        <time>2016-08-12T20:03:02.000Z</time>
        <extensions>
          <ns3:TrackPointExtension>
            <ns3:atemp>14.0</ns3:atemp>
            <ns3:hr>136</ns3:hr>
          </ns3:TrackPointExtension>
        </extensions>
      </trkpt>
      <trkpt lat="-22.01326363719999790191650390625" lon="166.46008643321692943572998046875">
        <ele>852</ele>
        <time>2016-08-12T20:03:03.000Z</time>
        <extensions>
          <ns3:TrackPointExtension>
            <ns3:atemp>14.0</ns3:atemp>
            <ns3:hr>136</ns3:hr>
          </ns3:TrackPointExtension>
        </extensions>
      </trkpt>
      <trkpt lat="-22.01326330192387104034423828125" lon="166.46005977876484394073486328125">
        <ele>852.20001220703125</ele>
        <time>2016-08-12T20:03:04.000Z</time>
        <extensions>
          <ns3:TrackPointExtension>
            <ns3:atemp>14.0</ns3:atemp>
            <ns3:hr>136</ns3:hr>
          </ns3:TrackPointExtension>
        </extensions>
      </trkpt>
      <trkpt lat="-22.013262547552585601806640625" lon="166.460036225616931915283203125">
        <ele>852.4000244140625</ele>
        <time>2016-08-12T20:03:05.000Z</time>
        <extensions>
          <ns3:TrackPointExtension>
            <ns3:atemp>14.0</ns3:atemp>
            <ns3:hr>137</ns3:hr>
          </ns3:TrackPointExtension>
        </extensions>
      </trkpt>
      <trkpt lat="-22.013261206448078155517578125" lon="166.46001183427870273590087890625">
        <ele>852</ele>
        <time>2016-08-12T20:03:06.000Z</time>
        <extensions>
          <ns3:TrackPointExtension>
            <ns3:atemp>14.0</ns3:atemp>
            <ns3:hr>136</ns3:hr>
          </ns3:TrackPointExtension>
        </extensions>
      </trkpt>
      <trkpt lat="-22.0132553391158580780029296875" lon="166.45998635329306125640869140625">
        <ele>852</ele>
        <time>2016-08-12T20:03:07.000Z</time>
        <extensions>
          <ns3:TrackPointExtension>
            <ns3:atemp>14.0</ns3:atemp>
            <ns3:hr>136</ns3:hr>
          </ns3:TrackPointExtension>
        </extensions>
      </trkpt>
      <trkpt lat="-22.01325106434524059295654296875" lon="166.459960453212261199951171875">
        <ele>852.4000244140625</ele>
        <time>2016-08-12T20:03:08.000Z</time>
        <extensions>
          <ns3:TrackPointExtension>
            <ns3:atemp>14.0</ns3:atemp>
            <ns3:hr>136</ns3:hr>
          </ns3:TrackPointExtension>
        </extensions>
      </trkpt>
      <trkpt lat="-22.013247795403003692626953125" lon="166.45993187092244625091552734375">
        <ele>852.4000244140625</ele>
        <time>2016-08-12T20:03:09.000Z</time>
        <extensions>
          <ns3:TrackPointExtension>
            <ns3:atemp>14.0</ns3:atemp>
            <ns3:hr>136</ns3:hr>
          </ns3:TrackPointExtension>
        </extensions>
      </trkpt>
      <trkpt lat="-22.0132429338991641998291015625" lon="166.45990454591810703277587890625">
        <ele>852.20001220703125</ele>
        <time>2016-08-12T20:03:10.000Z</time>
        <extensions>
          <ns3:TrackPointExtension>
            <ns3:atemp>14.0</ns3:atemp>
            <ns3:hr>136</ns3:hr>
          </ns3:TrackPointExtension>
        </extensions>
      </trkpt>
      <trkpt lat="-22.0132367312908172607421875" lon="166.45988258533179759979248046875">
        <ele>852.20001220703125</ele>
        <time>2016-08-12T20:03:11.000Z</time>
        <extensions>
          <ns3:TrackPointExtension>
            <ns3:atemp>14.0</ns3:atemp>
            <ns3:hr>136</ns3:hr>
          </ns3:TrackPointExtension>
        </extensions>
      </trkpt>
      <trkpt lat="-22.01323228888213634490966796875" lon="166.4598593674600124359130859375">
        <ele>852.4000244140625</ele>
        <time>2016-08-12T20:03:12.000Z</time>
        <extensions>
          <ns3:TrackPointExtension>
            <ns3:atemp>14.0</ns3:atemp>
            <ns3:hr>136</ns3:hr>
          </ns3:TrackPointExtension>
        </extensions>
      </trkpt>
      <trkpt lat="-22.0132265053689479827880859375" lon="166.45983514375984668731689453125">
        <ele>852.20001220703125</ele>
        <time>2016-08-12T20:03:13.000Z</time>
        <extensions>
          <ns3:TrackPointExtension>
            <ns3:atemp>14.0</ns3:atemp>
            <ns3:hr>136</ns3:hr>
          </ns3:TrackPointExtension>
        </extensions>
      </trkpt>
      <trkpt lat="-22.01322390697896480560302734375" lon="166.4598119258880615234375">
        <ele>852.20001220703125</ele>
        <time>2016-08-12T20:03:14.000Z</time>
        <extensions>
          <ns3:TrackPointExtension>
            <ns3:atemp>14.0</ns3:atemp>
            <ns3:hr>136</ns3:hr>
          </ns3:TrackPointExtension>
        </extensions>
      </trkpt>
      <trkpt lat="-22.0132224820554256439208984375" lon="166.45978719927370548248291015625">
        <ele>852.5999755859375</ele>
        <time>2016-08-12T20:03:15.000Z</time>
        <extensions>
          <ns3:TrackPointExtension>
            <ns3:atemp>14.0</ns3:atemp>
            <ns3:hr>136</ns3:hr>
          </ns3:TrackPointExtension>
        </extensions>
      </trkpt>
      <trkpt lat="-22.01321787200868129730224609375" lon="166.4597624726593494415283203125">
        <ele>852.5999755859375</ele>
        <time>2016-08-12T20:03:16.000Z</time>
        <extensions>
          <ns3:TrackPointExtension>
            <ns3:atemp>14.0</ns3:atemp>
            <ns3:hr>136</ns3:hr>
          </ns3:TrackPointExtension>
        </extensions>
      </trkpt>
      <trkpt lat="-22.01320814900100231170654296875" lon="166.45973623730242252349853515625">
        <ele>852.4000244140625</ele>
        <time>2016-08-12T20:03:17.000Z</time>
        <extensions>
          <ns3:TrackPointExtension>
            <ns3:atemp>14.0</ns3:atemp>
            <ns3:hr>136</ns3:hr>
          </ns3:TrackPointExtension>
        </extensions>
      </trkpt>
      <trkpt lat="-22.0131933130323886871337890625" lon="166.45971109159290790557861328125">
        <ele>852.4000244140625</ele>
        <time>2016-08-12T20:03:18.000Z</time>
        <extensions>
          <ns3:TrackPointExtension>
            <ns3:atemp>14.0</ns3:atemp>
            <ns3:hr>135</ns3:hr>
          </ns3:TrackPointExtension>
        </extensions>
      </trkpt>
      <trkpt lat="-22.01318333856761455535888671875" lon="166.45968762226402759552001953125">
        <ele>852.5999755859375</ele>
        <time>2016-08-12T20:03:19.000Z</time>
        <extensions>
          <ns3:TrackPointExtension>
            <ns3:atemp>14.0</ns3:atemp>
            <ns3:hr>136</ns3:hr>
          </ns3:TrackPointExtension>
        </extensions>
      </trkpt>
      <trkpt lat="-22.01317126862704753875732421875" lon="166.4596598781645298004150390625">
        <ele>852.5999755859375</ele>
        <time>2016-08-12T20:03:20.000Z</time>
        <extensions>
          <ns3:TrackPointExtension>
            <ns3:atemp>14.0</ns3:atemp>
            <ns3:hr>136</ns3:hr>
          </ns3:TrackPointExtension>
        </extensions>
      </trkpt>
      <trkpt lat="-22.01315693557262420654296875" lon="166.45963397808372974395751953125">
        <ele>852.4000244140625</ele>
        <time>2016-08-12T20:03:21.000Z</time>
        <extensions>
          <ns3:TrackPointExtension>
            <ns3:atemp>14.0</ns3:atemp>
            <ns3:hr>135</ns3:hr>
          </ns3:TrackPointExtension>
        </extensions>
      </trkpt>
      <trkpt lat="-22.013143859803676605224609375" lon="166.45961117930710315704345703125">
        <ele>852.5999755859375</ele>
        <time>2016-08-12T20:03:22.000Z</time>
        <extensions>
          <ns3:TrackPointExtension>
            <ns3:atemp>14.0</ns3:atemp>
            <ns3:hr>136</ns3:hr>
          </ns3:TrackPointExtension>
        </extensions>
      </trkpt>
      <trkpt lat="-22.0131265930831432342529296875" lon="166.45958720706403255462646484375">
        <ele>852.79998779296875</ele>
        <time>2016-08-12T20:03:23.000Z</time>
        <extensions>
          <ns3:TrackPointExtension>
            <ns3:atemp>14.0</ns3:atemp>
            <ns3:hr>135</ns3:hr>
          </ns3:TrackPointExtension>
        </extensions>
      </trkpt>
      <trkpt lat="-22.01310974545776844024658203125" lon="166.459564156830310821533203125">
        <ele>852.5999755859375</ele>
        <time>2016-08-12T20:03:24.000Z</time>
        <extensions>
          <ns3:TrackPointExtension>
            <ns3:atemp>14.0</ns3:atemp>
            <ns3:hr>136</ns3:hr>
          </ns3:TrackPointExtension>
        </extensions>
      </trkpt>
      <trkpt lat="-22.0130947418510913848876953125" lon="166.4595398493111133575439453125">
        <ele>852.5999755859375</ele>
        <time>2016-08-12T20:03:25.000Z</time>
        <extensions>
          <ns3:TrackPointExtension>
            <ns3:atemp>14.0</ns3:atemp>
            <ns3:hr>135</ns3:hr>
          </ns3:TrackPointExtension>
        </extensions>
      </trkpt>
      <trkpt lat="-22.0130659081041812896728515625" lon="166.45951755344867706298828125">
        <ele>853</ele>
        <time>2016-08-12T20:03:26.000Z</time>
        <extensions>
          <ns3:TrackPointExtension>
            <ns3:atemp>14.0</ns3:atemp>
            <ns3:hr>136</ns3:hr>
          </ns3:TrackPointExtension>
        </extensions>
      </trkpt>
      <trkpt lat="-22.01304520480334758758544921875" lon="166.4594962634146213531494140625">
        <ele>852.79998779296875</ele>
        <time>2016-08-12T20:03:27.000Z</time>
        <extensions>
          <ns3:TrackPointExtension>
            <ns3:atemp>14.0</ns3:atemp>
            <ns3:hr>135</ns3:hr>
          </ns3:TrackPointExtension>
        </extensions>
      </trkpt>
      <trkpt lat="-22.01301637105643749237060546875" lon="166.45948134362697601318359375">
        <ele>852.5999755859375</ele>
        <time>2016-08-12T20:03:28.000Z</time>
        <extensions>
          <ns3:TrackPointExtension>
            <ns3:atemp>14.0</ns3:atemp>
            <ns3:hr>135</ns3:hr>
          </ns3:TrackPointExtension>
        </extensions>
      </trkpt>
      <trkpt lat="-22.01299541629850864410400390625" lon="166.459462903439998626708984375">
        <ele>852.79998779296875</ele>
        <time>2016-08-12T20:03:29.000Z</time>
        <extensions>
          <ns3:TrackPointExtension>
            <ns3:atemp>14.0</ns3:atemp>
            <ns3:hr>135</ns3:hr>
          </ns3:TrackPointExtension>
        </extensions>
      </trkpt>
      <trkpt lat="-22.01297949068248271942138671875" lon="166.4594426192343235015869140625">
        <ele>853.20001220703125</ele>
        <time>2016-08-12T20:03:30.000Z</time>
        <extensions>
          <ns3:TrackPointExtension>
            <ns3:atemp>14.0</ns3:atemp>
            <ns3:hr>135</ns3:hr>
          </ns3:TrackPointExtension>
        </extensions>
      </trkpt>
      <trkpt lat="-22.012960128486156463623046875" lon="166.45942233502864837646484375">
        <ele>853</ele>
        <time>2016-08-12T20:03:31.000Z</time>
        <extensions>
          <ns3:TrackPointExtension>
            <ns3:atemp>14.0</ns3:atemp>
            <ns3:hr>135</ns3:hr>
          </ns3:TrackPointExtension>
        </extensions>
      </trkpt>
      <trkpt lat="-22.0129415206611156463623046875" lon="166.4594017155468463897705078125">
        <ele>852.79998779296875</ele>
        <time>2016-08-12T20:03:32.000Z</time>
        <extensions>
          <ns3:TrackPointExtension>
            <ns3:atemp>14.0</ns3:atemp>
            <ns3:hr>135</ns3:hr>
          </ns3:TrackPointExtension>
        </extensions>
      </trkpt>
      <trkpt lat="-22.01292215846478939056396484375" lon="166.45938386209309101104736328125">
        <ele>853.20001220703125</ele>
        <time>2016-08-12T20:03:33.000Z</time>
        <extensions>
          <ns3:TrackPointExtension>
            <ns3:atemp>14.0</ns3:atemp>
            <ns3:hr>135</ns3:hr>
          </ns3:TrackPointExtension>
        </extensions>
      </trkpt>
      <trkpt lat="-22.01290053315460681915283203125" lon="166.45936860702931880950927734375">
        <ele>853.20001220703125</ele>
        <time>2016-08-12T20:03:34.000Z</time>
        <extensions>
          <ns3:TrackPointExtension>
            <ns3:atemp>14.0</ns3:atemp>
            <ns3:hr>136</ns3:hr>
          </ns3:TrackPointExtension>
        </extensions>
      </trkpt>
      <trkpt lat="-22.01288242824375629425048828125" lon="166.4593591354787349700927734375">
        <ele>853</ele>
        <time>2016-08-12T20:03:35.000Z</time>
        <extensions>
          <ns3:TrackPointExtension>
            <ns3:atemp>14.0</ns3:atemp>
            <ns3:hr>135</ns3:hr>
          </ns3:TrackPointExtension>
        </extensions>
      </trkpt>
      <trkpt lat="-22.01286566443741321563720703125" lon="166.45934865809977054595947265625">
        <ele>853</ele>
        <time>2016-08-12T20:03:36.000Z</time>
        <extensions>
          <ns3:TrackPointExtension>
            <ns3:atemp>14.0</ns3:atemp>
            <ns3:hr>136</ns3:hr>
          </ns3:TrackPointExtension>
        </extensions>
      </trkpt>
      <trkpt lat="-22.012846134603023529052734375" lon="166.45933591760694980621337890625">
        <ele>853.20001220703125</ele>
        <time>2016-08-12T20:03:37.000Z</time>
        <extensions>
          <ns3:TrackPointExtension>
            <ns3:atemp>14.0</ns3:atemp>
            <ns3:hr>135</ns3:hr>
          </ns3:TrackPointExtension>
        </extensions>
      </trkpt>
      <trkpt lat="-22.01282392255961894989013671875" lon="166.459320746362209320068359375">
        <ele>853</ele>
        <time>2016-08-12T20:03:38.000Z</time>
        <extensions>
          <ns3:TrackPointExtension>
            <ns3:atemp>14.0</ns3:atemp>
            <ns3:hr>135</ns3:hr>
          </ns3:TrackPointExtension>
        </extensions>
      </trkpt>
      <trkpt lat="-22.01279492117464542388916015625" lon="166.4593085087835788726806640625">
        <ele>852.79998779296875</ele>
        <time>2016-08-12T20:03:39.000Z</time>
        <extensions>
          <ns3:TrackPointExtension>
            <ns3:atemp>14.0</ns3:atemp>
            <ns3:hr>135</ns3:hr>
          </ns3:TrackPointExtension>
        </extensions>
      </trkpt>
      <trkpt lat="-22.012784443795680999755859375" lon="166.45929367281496524810791015625">
        <ele>852.5999755859375</ele>
        <time>2016-08-12T20:03:40.000Z</time>
        <extensions>
          <ns3:TrackPointExtension>
            <ns3:atemp>14.0</ns3:atemp>
            <ns3:hr>135</ns3:hr>
          </ns3:TrackPointExtension>
        </extensions>
      </trkpt>
      <trkpt lat="-22.01276960782706737518310546875" lon="166.459281183779239654541015625">
        <ele>852.5999755859375</ele>
        <time>2016-08-12T20:03:41.000Z</time>
        <extensions>
          <ns3:TrackPointExtension>
            <ns3:atemp>14.0</ns3:atemp>
            <ns3:hr>135</ns3:hr>
          </ns3:TrackPointExtension>
        </extensions>
      </trkpt>
      <trkpt lat="-22.012752927839756011962890625" lon="166.45926651544868946075439453125">
        <ele>852.5999755859375</ele>
        <time>2016-08-12T20:03:42.000Z</time>
        <extensions>
          <ns3:TrackPointExtension>
            <ns3:atemp>14.0</ns3:atemp>
            <ns3:hr>135</ns3:hr>
          </ns3:TrackPointExtension>
        </extensions>
      </trkpt>
      <trkpt lat="-22.01273155398666858673095703125" lon="166.459255702793598175048828125">
        <ele>853</ele>
        <time>2016-08-12T20:03:43.000Z</time>
        <extensions>
          <ns3:TrackPointExtension>
            <ns3:atemp>14.0</ns3:atemp>
            <ns3:hr>135</ns3:hr>
          </ns3:TrackPointExtension>
        </extensions>
      </trkpt>
      <trkpt lat="-22.0127225853502750396728515625" lon="166.4592397771775722503662109375">
        <ele>853.4000244140625</ele>
        <time>2016-08-12T20:03:44.000Z</time>
        <extensions>
          <ns3:TrackPointExtension>
            <ns3:atemp>14.0</ns3:atemp>
            <ns3:hr>135</ns3:hr>
          </ns3:TrackPointExtension>
        </extensions>
      </trkpt>
      <trkpt lat="-22.012723423540592193603515625" lon="166.4592186547815799713134765625">
        <ele>853.4000244140625</ele>
        <time>2016-08-12T20:03:45.000Z</time>
        <extensions>
          <ns3:TrackPointExtension>
            <ns3:atemp>14.0</ns3:atemp>
            <ns3:hr>135</ns3:hr>
          </ns3:TrackPointExtension>
        </extensions>
      </trkpt>
      <trkpt lat="-22.0127175562083721160888671875" lon="166.45919837057590484619140625">
        <ele>853.20001220703125</ele>
        <time>2016-08-12T20:03:46.000Z</time>
        <extensions>
          <ns3:TrackPointExtension>
            <ns3:atemp>14.0</ns3:atemp>
            <ns3:hr>135</ns3:hr>
          </ns3:TrackPointExtension>
        </extensions>
      </trkpt>
      <trkpt lat="-22.0127229206264019012451171875" lon="166.45917288959026336669921875">
        <ele>853.4000244140625</ele>
        <time>2016-08-12T20:03:47.000Z</time>
        <extensions>
          <ns3:TrackPointExtension>
            <ns3:atemp>14.0</ns3:atemp>
            <ns3:hr>135</ns3:hr>
          </ns3:TrackPointExtension>
        </extensions>
      </trkpt>
      <trkpt lat="-22.0127490721642971038818359375" lon="166.45914338529109954833984375">
        <ele>853.4000244140625</ele>
        <time>2016-08-12T20:03:48.000Z</time>
        <extensions>
          <ns3:TrackPointExtension>
            <ns3:atemp>14.0</ns3:atemp>
            <ns3:hr>135</ns3:hr>
          </ns3:TrackPointExtension>
        </extensions>
      </trkpt>
      <trkpt lat="-22.01276876963675022125244140625" lon="166.4591217599809169769287109375">
        <ele>853.20001220703125</ele>
        <time>2016-08-12T20:03:49.000Z</time>
        <extensions>
          <ns3:TrackPointExtension>
            <ns3:atemp>14.0</ns3:atemp>
            <ns3:hr>135</ns3:hr>
          </ns3:TrackPointExtension>
        </extensions>
      </trkpt>
      <trkpt lat="-22.0127926580607891082763671875" lon="166.459101140499114990234375">
        <ele>853.20001220703125</ele>
        <time>2016-08-12T20:03:50.000Z</time>
        <extensions>
          <ns3:TrackPointExtension>
            <ns3:atemp>14.0</ns3:atemp>
            <ns3:hr>135</ns3:hr>
          </ns3:TrackPointExtension>
        </extensions>
      </trkpt>
      <trkpt lat="-22.01280565001070499420166015625" lon="166.4590810239315032958984375">
        <ele>853.4000244140625</ele>
        <time>2016-08-12T20:03:51.000Z</time>
        <extensions>
          <ns3:TrackPointExtension>
            <ns3:atemp>14.0</ns3:atemp>
            <ns3:hr>135</ns3:hr>
          </ns3:TrackPointExtension>
        </extensions>
      </trkpt>
      <trkpt lat="-22.01282861642539501190185546875" lon="166.4590617455542087554931640625">
        <ele>853.4000244140625</ele>
        <time>2016-08-12T20:03:52.000Z</time>
        <extensions>
          <ns3:TrackPointExtension>
            <ns3:atemp>14.0</ns3:atemp>
            <ns3:hr>135</ns3:hr>
          </ns3:TrackPointExtension>
        </extensions>
      </trkpt>
      <trkpt lat="-22.01285384595394134521484375" lon="166.45904204808175563812255859375">
        <ele>853.4000244140625</ele>
        <time>2016-08-12T20:03:53.000Z</time>
        <extensions>
          <ns3:TrackPointExtension>
            <ns3:atemp>14.0</ns3:atemp>
            <ns3:hr>135</ns3:hr>
          </ns3:TrackPointExtension>
        </extensions>
      </trkpt>
      <trkpt lat="-22.01286952011287212371826171875" lon="166.45902176387608051300048828125">
        <ele>853.5999755859375</ele>
        <time>2016-08-12T20:03:54.000Z</time>
        <extensions>
          <ns3:TrackPointExtension>
            <ns3:atemp>14.0</ns3:atemp>
            <ns3:hr>135</ns3:hr>
          </ns3:TrackPointExtension>
        </extensions>
      </trkpt>
      <trkpt lat="-22.0128888823091983795166015625" lon="166.45900215022265911102294921875">
        <ele>853.4000244140625</ele>
        <time>2016-08-12T20:03:55.000Z</time>
        <extensions>
          <ns3:TrackPointExtension>
            <ns3:atemp>14.0</ns3:atemp>
            <ns3:hr>135</ns3:hr>
          </ns3:TrackPointExtension>
        </extensions>
      </trkpt>
      <trkpt lat="-22.0129143632948398590087890625" lon="166.458982117474079132080078125">
        <ele>853.4000244140625</ele>
        <time>2016-08-12T20:03:56.000Z</time>
        <extensions>
          <ns3:TrackPointExtension>
            <ns3:atemp>14.0</ns3:atemp>
            <ns3:hr>135</ns3:hr>
          </ns3:TrackPointExtension>
        </extensions>
      </trkpt>
      <trkpt lat="-22.01293271966278553009033203125" lon="166.458961665630340576171875">
        <ele>853.4000244140625</ele>
        <time>2016-08-12T20:03:57.000Z</time>
        <extensions>
          <ns3:TrackPointExtension>
            <ns3:atemp>14.0</ns3:atemp>
            <ns3:hr>135</ns3:hr>
          </ns3:TrackPointExtension>
        </extensions>
      </trkpt>
      <trkpt lat="-22.01294478960335254669189453125" lon="166.458941213786602020263671875">
        <ele>853.5999755859375</ele>
        <time>2016-08-12T20:03:58.000Z</time>
        <extensions>
          <ns3:TrackPointExtension>
            <ns3:atemp>14.0</ns3:atemp>
            <ns3:hr>134</ns3:hr>
          </ns3:TrackPointExtension>
        </extensions>
      </trkpt>
      <trkpt lat="-22.01295719482004642486572265625" lon="166.45892369560897350311279296875">
        <ele>853.4000244140625</ele>
        <time>2016-08-12T20:03:59.000Z</time>
        <extensions>
          <ns3:TrackPointExtension>
            <ns3:atemp>14.0</ns3:atemp>
            <ns3:hr>134</ns3:hr>
          </ns3:TrackPointExtension>
        </extensions>
      </trkpt>
      <trkpt lat="-22.012964822351932525634765625" lon="166.4589061774313449859619140625">
        <ele>853.4000244140625</ele>
        <time>2016-08-12T20:04:00.000Z</time>
        <extensions>
          <ns3:TrackPointExtension>
            <ns3:atemp>13.0</ns3:atemp>
            <ns3:hr>134</ns3:hr>
          </ns3:TrackPointExtension>
        </extensions>
      </trkpt>
      <trkpt lat="-22.0129703544080257415771484375" lon="166.4588843844830989837646484375">
        <ele>853.20001220703125</ele>
        <time>2016-08-12T20:04:01.000Z</time>
        <extensions>
          <ns3:TrackPointExtension>
            <ns3:atemp>13.0</ns3:atemp>
            <ns3:hr>134</ns3:hr>
          </ns3:TrackPointExtension>
        </extensions>
      </trkpt>
      <trkpt lat="-22.01296473853290081024169921875" lon="166.45886653102934360504150390625">
        <ele>853.20001220703125</ele>
        <time>2016-08-12T20:04:02.000Z</time>
        <extensions>
          <ns3:TrackPointExtension>
            <ns3:atemp>13.0</ns3:atemp>
            <ns3:hr>134</ns3:hr>
          </ns3:TrackPointExtension>
        </extensions>
      </trkpt>
      <trkpt lat="-22.01295702718198299407958984375" lon="166.45885479636490345001220703125">
        <ele>853.20001220703125</ele>
        <time>2016-08-12T20:04:03.000Z</time>
        <extensions>
          <ns3:TrackPointExtension>
            <ns3:atemp>13.0</ns3:atemp>
            <ns3:hr>133</ns3:hr>
          </ns3:TrackPointExtension>
        </extensions>
      </trkpt>
      <trkpt lat="-22.01295820064842700958251953125" lon="166.458841301500797271728515625">
        <ele>853.20001220703125</ele>
        <time>2016-08-12T20:04:04.000Z</time>
        <extensions>
          <ns3:TrackPointExtension>
            <ns3:atemp>13.0</ns3:atemp>
            <ns3:hr>133</ns3:hr>
          </ns3:TrackPointExtension>
        </extensions>
      </trkpt>
      <trkpt lat="-22.01295174658298492431640625" lon="166.4588324166834354400634765625">
        <ele>853</ele>
        <time>2016-08-12T20:04:05.000Z</time>
        <extensions>
          <ns3:TrackPointExtension>
            <ns3:atemp>13.0</ns3:atemp>
            <ns3:hr>133</ns3:hr>
          </ns3:TrackPointExtension>
        </extensions>
      </trkpt>
      <trkpt lat="-22.0129532553255558013916015625" lon="166.458827219903469085693359375">
        <ele>853</ele>
        <time>2016-08-12T20:04:06.000Z</time>
        <extensions>
          <ns3:TrackPointExtension>
            <ns3:atemp>13.0</ns3:atemp>
            <ns3:hr>132</ns3:hr>
          </ns3:TrackPointExtension>
        </extensions>
      </trkpt>
      <trkpt lat="-22.01295300386846065521240234375" lon="166.45881942473351955413818359375">
        <ele>853</ele>
        <time>2016-08-12T20:04:07.000Z</time>
        <extensions>
          <ns3:TrackPointExtension>
            <ns3:atemp>13.0</ns3:atemp>
            <ns3:hr>132</ns3:hr>
          </ns3:TrackPointExtension>
        </extensions>
      </trkpt>
      <trkpt lat="-22.01294839382171630859375" lon="166.45880542695522308349609375">
        <ele>853</ele>
        <time>2016-08-12T20:04:08.000Z</time>
        <extensions>
          <ns3:TrackPointExtension>
            <ns3:atemp>13.0</ns3:atemp>
            <ns3:hr>131</ns3:hr>
          </ns3:TrackPointExtension>
        </extensions>
      </trkpt>
      <trkpt lat="-22.0129455439746379852294921875" lon="166.45879394374787807464599609375">
        <ele>853.20001220703125</ele>
        <time>2016-08-12T20:04:09.000Z</time>
        <extensions>
          <ns3:TrackPointExtension>
            <ns3:atemp>13.0</ns3:atemp>
            <ns3:hr>130</ns3:hr>
          </ns3:TrackPointExtension>
        </extensions>
      </trkpt>
      <trkpt lat="-22.012941353023052215576171875" lon="166.458780951797962188720703125">
        <ele>853.4000244140625</ele>
        <time>2016-08-12T20:04:10.000Z</time>
        <extensions>
          <ns3:TrackPointExtension>
            <ns3:atemp>13.0</ns3:atemp>
            <ns3:hr>130</ns3:hr>
          </ns3:TrackPointExtension>
        </extensions>
      </trkpt>
      <trkpt lat="-22.01294504106044769287109375" lon="166.4587672054767608642578125">
        <ele>853.4000244140625</ele>
        <time>2016-08-12T20:04:11.000Z</time>
        <extensions>
          <ns3:TrackPointExtension>
            <ns3:atemp>14.0</ns3:atemp>
            <ns3:hr>130</ns3:hr>
          </ns3:TrackPointExtension>
        </extensions>
      </trkpt>
      <trkpt lat="-22.0129515789449214935302734375" lon="166.45875178277492523193359375">
        <ele>853.4000244140625</ele>
        <time>2016-08-12T20:04:12.000Z</time>
        <extensions>
          <ns3:TrackPointExtension>
            <ns3:atemp>14.0</ns3:atemp>
            <ns3:hr>130</ns3:hr>
          </ns3:TrackPointExtension>
        </extensions>
      </trkpt>
      <trkpt lat="-22.01295384205877780914306640625" lon="166.45873744972050189971923828125">
        <ele>853.5999755859375</ele>
        <time>2016-08-12T20:04:13.000Z</time>
        <extensions>
          <ns3:TrackPointExtension>
            <ns3:atemp>14.0</ns3:atemp>
            <ns3:hr>130</ns3:hr>
          </ns3:TrackPointExtension>
        </extensions>
      </trkpt>
      <trkpt lat="-22.0129619725048542022705078125" lon="166.45872370339930057525634765625">
        <ele>853.4000244140625</ele>
        <time>2016-08-12T20:04:14.000Z</time>
        <extensions>
          <ns3:TrackPointExtension>
            <ns3:atemp>14.0</ns3:atemp>
            <ns3:hr>130</ns3:hr>
          </ns3:TrackPointExtension>
        </extensions>
      </trkpt>
      <trkpt lat="-22.012964151799678802490234375" lon="166.4587083645164966583251953125">
        <ele>853.20001220703125</ele>
        <time>2016-08-12T20:04:15.000Z</time>
        <extensions>
          <ns3:TrackPointExtension>
            <ns3:atemp>14.0</ns3:atemp>
            <ns3:hr>130</ns3:hr>
          </ns3:TrackPointExtension>
        </extensions>
      </trkpt>
      <trkpt lat="-22.01297027058899402618408203125" lon="166.4586892537772655487060546875">
        <ele>853.5999755859375</ele>
        <time>2016-08-12T20:04:16.000Z</time>
        <extensions>
          <ns3:TrackPointExtension>
            <ns3:atemp>14.0</ns3:atemp>
            <ns3:hr>130</ns3:hr>
          </ns3:TrackPointExtension>
        </extensions>
      </trkpt>
      <trkpt lat="-22.0129784010350704193115234375" lon="166.45866729319095611572265625">
        <ele>853.5999755859375</ele>
        <time>2016-08-12T20:04:17.000Z</time>
        <extensions>
          <ns3:TrackPointExtension>
            <ns3:atemp>14.0</ns3:atemp>
            <ns3:hr>131</ns3:hr>
          </ns3:TrackPointExtension>
        </extensions>
      </trkpt>
      <trkpt lat="-22.012978903949260711669921875" lon="166.45863921381533145904541015625">
        <ele>853.4000244140625</ele>
        <time>2016-08-12T20:04:18.000Z</time>
        <extensions>
          <ns3:TrackPointExtension>
            <ns3:atemp>14.0</ns3:atemp>
            <ns3:hr>131</ns3:hr>
          </ns3:TrackPointExtension>
        </extensions>
      </trkpt>
      <trkpt lat="-22.012987621128559112548828125" lon="166.45861255936324596405029296875">
        <ele>853.4000244140625</ele>
        <time>2016-08-12T20:04:19.000Z</time>
        <extensions>
          <ns3:TrackPointExtension>
            <ns3:atemp>14.0</ns3:atemp>
            <ns3:hr>131</ns3:hr>
          </ns3:TrackPointExtension>
        </extensions>
      </trkpt>
      <trkpt lat="-22.01300430111587047576904296875" lon="166.4585856534540653228759765625">
        <ele>853.5999755859375</ele>
        <time>2016-08-12T20:04:20.000Z</time>
        <extensions>
          <ns3:TrackPointExtension>
            <ns3:atemp>14.0</ns3:atemp>
            <ns3:hr>131</ns3:hr>
          </ns3:TrackPointExtension>
        </extensions>
      </trkpt>
      <trkpt lat="-22.0130119286477565765380859375" lon="166.4585564844310283660888671875">
        <ele>853.5999755859375</ele>
        <time>2016-08-12T20:04:21.000Z</time>
        <extensions>
          <ns3:TrackPointExtension>
            <ns3:atemp>14.0</ns3:atemp>
            <ns3:hr>131</ns3:hr>
          </ns3:TrackPointExtension>
        </extensions>
      </trkpt>
      <trkpt lat="-22.0130179636180400848388671875" lon="166.4585311710834503173828125">
        <ele>853.4000244140625</ele>
        <time>2016-08-12T20:04:22.000Z</time>
        <extensions>
          <ns3:TrackPointExtension>
            <ns3:atemp>14.0</ns3:atemp>
            <ns3:hr>132</ns3:hr>
          </ns3:TrackPointExtension>
        </extensions>
      </trkpt>
      <trkpt lat="-22.01303087174892425537109375" lon="166.4585065282881259918212890625">
        <ele>853.5999755859375</ele>
        <time>2016-08-12T20:04:23.000Z</time>
        <extensions>
          <ns3:TrackPointExtension>
            <ns3:atemp>14.0</ns3:atemp>
            <ns3:hr>132</ns3:hr>
          </ns3:TrackPointExtension>
        </extensions>
      </trkpt>
      <trkpt lat="-22.0130424387753009796142578125" lon="166.45848758518695831298828125">
        <ele>853.79998779296875</ele>
        <time>2016-08-12T20:04:24.000Z</time>
        <extensions>
          <ns3:TrackPointExtension>
            <ns3:atemp>14.0</ns3:atemp>
            <ns3:hr>132</ns3:hr>
          </ns3:TrackPointExtension>
        </extensions>
      </trkpt>
      <trkpt lat="-22.013072110712528228759765625" lon="166.4584666304290294647216796875">
        <ele>853.5999755859375</ele>
        <time>2016-08-12T20:04:25.000Z</time>
        <extensions>
          <ns3:TrackPointExtension>
            <ns3:atemp>14.0</ns3:atemp>
            <ns3:hr>133</ns3:hr>
          </ns3:TrackPointExtension>
        </extensions>
      </trkpt>
      <trkpt lat="-22.013066075742244720458984375" lon="166.458441652357578277587890625">
        <ele>853.5999755859375</ele>
        <time>2016-08-12T20:04:26.000Z</time>
        <extensions>
          <ns3:TrackPointExtension>
            <ns3:atemp>14.0</ns3:atemp>
            <ns3:hr>133</ns3:hr>
          </ns3:TrackPointExtension>
        </extensions>
      </trkpt>
      <trkpt lat="-22.01307688839733600616455078125" lon="166.45842128433287143707275390625">
        <ele>854</ele>
        <time>2016-08-12T20:04:27.000Z</time>
        <extensions>
          <ns3:TrackPointExtension>
            <ns3:atemp>14.0</ns3:atemp>
            <ns3:hr>133</ns3:hr>
          </ns3:TrackPointExtension>
        </extensions>
      </trkpt>
      <trkpt lat="-22.01309859752655029296875" lon="166.45839781500399112701416015625">
        <ele>854.20001220703125</ele>
        <time>2016-08-12T20:04:28.000Z</time>
        <extensions>
          <ns3:TrackPointExtension>
            <ns3:atemp>14.0</ns3:atemp>
            <ns3:hr>133</ns3:hr>
          </ns3:TrackPointExtension>
        </extensions>
      </trkpt>
      <trkpt lat="-22.01310270465910434722900390625" lon="166.45837132818996906280517578125">
        <ele>854.20001220703125</ele>
        <time>2016-08-12T20:04:29.000Z</time>
        <extensions>
          <ns3:TrackPointExtension>
            <ns3:atemp>14.0</ns3:atemp>
            <ns3:hr>133</ns3:hr>
          </ns3:TrackPointExtension>
        </extensions>
      </trkpt>
      <trkpt lat="-22.01311494223773479461669921875" lon="166.45834886468946933746337890625">
        <ele>854</ele>
        <time>2016-08-12T20:04:30.000Z</time>
        <extensions>
          <ns3:TrackPointExtension>
            <ns3:atemp>14.0</ns3:atemp>
            <ns3:hr>134</ns3:hr>
          </ns3:TrackPointExtension>
        </extensions>
      </trkpt>
      <trkpt lat="-22.01312852092087268829345703125" lon="166.4583246409893035888671875">
        <ele>854</ele>
        <time>2016-08-12T20:04:31.000Z</time>
        <extensions>
          <ns3:TrackPointExtension>
            <ns3:atemp>14.0</ns3:atemp>
            <ns3:hr>134</ns3:hr>
          </ns3:TrackPointExtension>
        </extensions>
      </trkpt>
      <trkpt lat="-22.01314729638397693634033203125" lon="166.4582953043282032012939453125">
        <ele>853.79998779296875</ele>
        <time>2016-08-12T20:04:32.000Z</time>
        <extensions>
          <ns3:TrackPointExtension>
            <ns3:atemp>14.0</ns3:atemp>
            <ns3:hr>134</ns3:hr>
          </ns3:TrackPointExtension>
        </extensions>
      </trkpt>
      <trkpt lat="-22.013154588639736175537109375" lon="166.4582698233425617218017578125">
        <ele>853.79998779296875</ele>
        <time>2016-08-12T20:04:33.000Z</time>
        <extensions>
          <ns3:TrackPointExtension>
            <ns3:atemp>14.0</ns3:atemp>
            <ns3:hr>134</ns3:hr>
          </ns3:TrackPointExtension>
        </extensions>
      </trkpt>
      <trkpt lat="-22.01316791586577892303466796875" lon="166.4582446776330471038818359375">
        <ele>853.79998779296875</ele>
        <time>2016-08-12T20:04:34.000Z</time>
        <extensions>
          <ns3:TrackPointExtension>
            <ns3:atemp>14.0</ns3:atemp>
            <ns3:hr>134</ns3:hr>
          </ns3:TrackPointExtension>
        </extensions>
      </trkpt>
      <trkpt lat="-22.01318585313856601715087890625" lon="166.458219699561595916748046875">
        <ele>853.5999755859375</ele>
        <time>2016-08-12T20:04:35.000Z</time>
        <extensions>
          <ns3:TrackPointExtension>
            <ns3:atemp>14.0</ns3:atemp>
            <ns3:hr>134</ns3:hr>
          </ns3:TrackPointExtension>
        </extensions>
      </trkpt>
      <trkpt lat="-22.0131939835846424102783203125" lon="166.45819120109081268310546875">
        <ele>853.4000244140625</ele>
        <time>2016-08-12T20:04:36.000Z</time>
        <extensions>
          <ns3:TrackPointExtension>
            <ns3:atemp>14.0</ns3:atemp>
            <ns3:hr>134</ns3:hr>
          </ns3:TrackPointExtension>
        </extensions>
      </trkpt>
      <trkpt lat="-22.01320177875459194183349609375" lon="166.4581638760864734649658203125">
        <ele>853.5999755859375</ele>
        <time>2016-08-12T20:04:37.000Z</time>
        <extensions>
          <ns3:TrackPointExtension>
            <ns3:atemp>14.0</ns3:atemp>
            <ns3:hr>133</ns3:hr>
          </ns3:TrackPointExtension>
        </extensions>
      </trkpt>
      <trkpt lat="-22.0132114179432392120361328125" lon="166.45813931711018085479736328125">
        <ele>853.4000244140625</ele>
        <time>2016-08-12T20:04:38.000Z</time>
        <extensions>
          <ns3:TrackPointExtension>
            <ns3:atemp>14.0</ns3:atemp>
            <ns3:hr>133</ns3:hr>
          </ns3:TrackPointExtension>
        </extensions>
      </trkpt>
      <trkpt lat="-22.0132087357342243194580078125" lon="166.4581132493913173675537109375">
        <ele>853.20001220703125</ele>
        <time>2016-08-12T20:04:39.000Z</time>
        <extensions>
          <ns3:TrackPointExtension>
            <ns3:atemp>14.0</ns3:atemp>
            <ns3:hr>133</ns3:hr>
          </ns3:TrackPointExtension>
        </extensions>
      </trkpt>
      <trkpt lat="-22.01320848427712917327880859375" lon="166.45808433182537555694580078125">
        <ele>853.4000244140625</ele>
        <time>2016-08-12T20:04:40.000Z</time>
        <extensions>
          <ns3:TrackPointExtension>
            <ns3:atemp>14.0</ns3:atemp>
            <ns3:hr>133</ns3:hr>
          </ns3:TrackPointExtension>
        </extensions>
      </trkpt>
      <trkpt lat="-22.0132161118090152740478515625" lon="166.45805306732654571533203125">
        <ele>853.20001220703125</ele>
        <time>2016-08-12T20:04:41.000Z</time>
        <extensions>
          <ns3:TrackPointExtension>
            <ns3:atemp>14.0</ns3:atemp>
            <ns3:hr>133</ns3:hr>
          </ns3:TrackPointExtension>
        </extensions>
      </trkpt>
      <trkpt lat="-22.0132221467792987823486328125" lon="166.45802557468414306640625">
        <ele>852.5999755859375</ele>
        <time>2016-08-12T20:04:42.000Z</time>
        <extensions>
          <ns3:TrackPointExtension>
            <ns3:atemp>14.0</ns3:atemp>
            <ns3:hr>133</ns3:hr>
          </ns3:TrackPointExtension>
        </extensions>
      </trkpt>
      <trkpt lat="-22.01321552507579326629638671875" lon="166.45799984224140644073486328125">
        <ele>852.5999755859375</ele>
        <time>2016-08-12T20:04:43.000Z</time>
        <extensions>
          <ns3:TrackPointExtension>
            <ns3:atemp>14.0</ns3:atemp>
            <ns3:hr>132</ns3:hr>
          </ns3:TrackPointExtension>
        </extensions>
      </trkpt>
      <trkpt lat="-22.013221643865108489990234375" lon="166.45797184668481349945068359375">
        <ele>852.5999755859375</ele>
        <time>2016-08-12T20:04:44.000Z</time>
        <extensions>
          <ns3:TrackPointExtension>
            <ns3:atemp>14.0</ns3:atemp>
            <ns3:hr>133</ns3:hr>
          </ns3:TrackPointExtension>
        </extensions>
      </trkpt>
      <trkpt lat="-22.01321250759065151214599609375" lon="166.45794452168047428131103515625">
        <ele>852.4000244140625</ele>
        <time>2016-08-12T20:04:45.000Z</time>
        <extensions>
          <ns3:TrackPointExtension>
            <ns3:atemp>14.0</ns3:atemp>
            <ns3:hr>132</ns3:hr>
          </ns3:TrackPointExtension>
        </extensions>
      </trkpt>
      <trkpt lat="-22.0132157765328884124755859375" lon="166.457918621599674224853515625">
        <ele>852.4000244140625</ele>
        <time>2016-08-12T20:04:46.000Z</time>
        <extensions>
          <ns3:TrackPointExtension>
            <ns3:atemp>14.0</ns3:atemp>
            <ns3:hr>132</ns3:hr>
          </ns3:TrackPointExtension>
        </extensions>
      </trkpt>
      <trkpt lat="-22.01322306878864765167236328125" lon="166.45788987167179584503173828125">
        <ele>852.5999755859375</ele>
        <time>2016-08-12T20:04:47.000Z</time>
        <extensions>
          <ns3:TrackPointExtension>
            <ns3:atemp>14.0</ns3:atemp>
            <ns3:hr>133</ns3:hr>
          </ns3:TrackPointExtension>
        </extensions>
      </trkpt>
      <trkpt lat="-22.0132291875779628753662109375" lon="166.457858942449092864990234375">
        <ele>852.20001220703125</ele>
        <time>2016-08-12T20:04:48.000Z</time>
        <extensions>
          <ns3:TrackPointExtension>
            <ns3:atemp>14.0</ns3:atemp>
            <ns3:hr>133</ns3:hr>
          </ns3:TrackPointExtension>
        </extensions>
      </trkpt>
      <trkpt lat="-22.0132474601268768310546875" lon="166.4578356407582759857177734375">
        <ele>852</ele>
        <time>2016-08-12T20:04:49.000Z</time>
        <extensions>
          <ns3:TrackPointExtension>
            <ns3:atemp>14.0</ns3:atemp>
            <ns3:hr>132</ns3:hr>
          </ns3:TrackPointExtension>
        </extensions>
      </trkpt>
      <trkpt lat="-22.013256512582302093505859375" lon="166.45781309343874454498291015625">
        <ele>852.20001220703125</ele>
        <time>2016-08-12T20:04:50.000Z</time>
        <extensions>
          <ns3:TrackPointExtension>
            <ns3:atemp>14.0</ns3:atemp>
            <ns3:hr>133</ns3:hr>
          </ns3:TrackPointExtension>
        </extensions>
      </trkpt>
      <trkpt lat="-22.01327905990183353424072265625" lon="166.457789205014705657958984375">
        <ele>852.20001220703125</ele>
        <time>2016-08-12T20:04:51.000Z</time>
        <extensions>
          <ns3:TrackPointExtension>
            <ns3:atemp>14.0</ns3:atemp>
            <ns3:hr>132</ns3:hr>
          </ns3:TrackPointExtension>
        </extensions>
      </trkpt>
      <trkpt lat="-22.0132982544600963592529296875" lon="166.45776598714292049407958984375">
        <ele>852</ele>
        <time>2016-08-12T20:04:52.000Z</time>
        <extensions>
          <ns3:TrackPointExtension>
            <ns3:atemp>14.0</ns3:atemp>
            <ns3:hr>132</ns3:hr>
          </ns3:TrackPointExtension>
        </extensions>
      </trkpt>
      <trkpt lat="-22.01331158168613910675048828125" lon="166.45774369128048419952392578125">
        <ele>852.4000244140625</ele>
        <time>2016-08-12T20:04:53.000Z</time>
        <extensions>
          <ns3:TrackPointExtension>
            <ns3:atemp>14.0</ns3:atemp>
            <ns3:hr>132</ns3:hr>
          </ns3:TrackPointExtension>
        </extensions>
      </trkpt>
      <trkpt lat="-22.01333932578563690185546875" lon="166.45772290416061878204345703125">
        <ele>852.4000244140625</ele>
        <time>2016-08-12T20:04:54.000Z</time>
        <extensions>
          <ns3:TrackPointExtension>
            <ns3:atemp>14.0</ns3:atemp>
            <ns3:hr>132</ns3:hr>
          </ns3:TrackPointExtension>
        </extensions>
      </trkpt>
      <trkpt lat="-22.01335131190717220306396484375" lon="166.4577052183449268341064453125">
        <ele>852</ele>
        <time>2016-08-12T20:04:55.000Z</time>
        <extensions>
          <ns3:TrackPointExtension>
            <ns3:atemp>14.0</ns3:atemp>
            <ns3:hr>132</ns3:hr>
          </ns3:TrackPointExtension>
        </extensions>
      </trkpt>
      <trkpt lat="-22.01336153782904148101806640625" lon="166.4576877839863300323486328125">
        <ele>851.79998779296875</ele>
        <time>2016-08-12T20:04:56.000Z</time>
        <extensions>
          <ns3:TrackPointExtension>
            <ns3:atemp>14.0</ns3:atemp>
            <ns3:hr>132</ns3:hr>
          </ns3:TrackPointExtension>
        </extensions>
      </trkpt>
      <trkpt lat="-22.01337494887411594390869140625" lon="166.45766808651387691497802734375">
        <ele>852</ele>
        <time>2016-08-12T20:04:57.000Z</time>
        <extensions>
          <ns3:TrackPointExtension>
            <ns3:atemp>14.0</ns3:atemp>
            <ns3:hr>131</ns3:hr>
          </ns3:TrackPointExtension>
        </extensions>
      </trkpt>
      <trkpt lat="-22.01338785700500011444091796875" lon="166.457647047936916351318359375">
        <ele>852</ele>
        <time>2016-08-12T20:04:58.000Z</time>
        <extensions>
          <ns3:TrackPointExtension>
            <ns3:atemp>14.0</ns3:atemp>
            <ns3:hr>131</ns3:hr>
          </ns3:TrackPointExtension>
        </extensions>
      </trkpt>
      <trkpt lat="-22.01339925639331340789794921875" lon="166.45762383006513118743896484375">
        <ele>852</ele>
        <time>2016-08-12T20:04:59.000Z</time>
        <extensions>
          <ns3:TrackPointExtension>
            <ns3:atemp>14.0</ns3:atemp>
            <ns3:hr>132</ns3:hr>
          </ns3:TrackPointExtension>
        </extensions>
      </trkpt>
      <trkpt lat="-22.01340395025908946990966796875" lon="166.4575982652604579925537109375">
        <ele>852.20001220703125</ele>
        <time>2016-08-12T20:05:00.000Z</time>
        <extensions>
          <ns3:TrackPointExtension>
            <ns3:atemp>14.0</ns3:atemp>
            <ns3:hr>132</ns3:hr>
          </ns3:TrackPointExtension>
        </extensions>
      </trkpt>
      <trkpt lat="-22.0134042017161846160888671875" lon="166.4575731195509433746337890625">
        <ele>852.4000244140625</ele>
        <time>2016-08-12T20:05:01.000Z</time>
        <extensions>
          <ns3:TrackPointExtension>
            <ns3:atemp>14.0</ns3:atemp>
            <ns3:hr>132</ns3:hr>
          </ns3:TrackPointExtension>
        </extensions>
      </trkpt>
      <trkpt lat="-22.01341442763805389404296875" lon="166.45754990167915821075439453125">
        <ele>852.20001220703125</ele>
        <time>2016-08-12T20:05:02.000Z</time>
        <extensions>
          <ns3:TrackPointExtension>
            <ns3:atemp>14.0</ns3:atemp>
            <ns3:hr>132</ns3:hr>
          </ns3:TrackPointExtension>
        </extensions>
      </trkpt>
      <trkpt lat="-22.0134300179779529571533203125" lon="166.45752869546413421630859375">
        <ele>852.4000244140625</ele>
        <time>2016-08-12T20:05:03.000Z</time>
        <extensions>
          <ns3:TrackPointExtension>
            <ns3:atemp>14.0</ns3:atemp>
            <ns3:hr>132</ns3:hr>
          </ns3:TrackPointExtension>
        </extensions>
      </trkpt>
      <trkpt lat="-22.01344602741301059722900390625" lon="166.45750815980136394500732421875">
        <ele>852.5999755859375</ele>
        <time>2016-08-12T20:05:04.000Z</time>
        <extensions>
          <ns3:TrackPointExtension>
            <ns3:atemp>14.0</ns3:atemp>
            <ns3:hr>132</ns3:hr>
          </ns3:TrackPointExtension>
        </extensions>
      </trkpt>
      <trkpt lat="-22.013452984392642974853515625" lon="166.45748636685311794281005859375">
        <ele>852.4000244140625</ele>
        <time>2016-08-12T20:05:05.000Z</time>
        <extensions>
          <ns3:TrackPointExtension>
            <ns3:atemp>14.0</ns3:atemp>
            <ns3:hr>132</ns3:hr>
          </ns3:TrackPointExtension>
        </extensions>
      </trkpt>
      <trkpt lat="-22.01345440931618213653564453125" lon="166.45746507681906223297119140625">
        <ele>852.20001220703125</ele>
        <time>2016-08-12T20:05:06.000Z</time>
        <extensions>
          <ns3:TrackPointExtension>
            <ns3:atemp>14.0</ns3:atemp>
            <ns3:hr>132</ns3:hr>
          </ns3:TrackPointExtension>
        </extensions>
      </trkpt>
      <trkpt lat="-22.01347385533154010772705078125" lon="166.45744244568049907684326171875">
        <ele>852.4000244140625</ele>
        <time>2016-08-12T20:05:07.000Z</time>
        <extensions>
          <ns3:TrackPointExtension>
            <ns3:atemp>14.0</ns3:atemp>
            <ns3:hr>132</ns3:hr>
          </ns3:TrackPointExtension>
        </extensions>
      </trkpt>
      <trkpt lat="-22.01349548064172267913818359375" lon="166.45742249675095081329345703125">
        <ele>852.4000244140625</ele>
        <time>2016-08-12T20:05:08.000Z</time>
        <extensions>
          <ns3:TrackPointExtension>
            <ns3:atemp>14.0</ns3:atemp>
            <ns3:hr>132</ns3:hr>
          </ns3:TrackPointExtension>
        </extensions>
      </trkpt>
      <trkpt lat="-22.01351794414222240447998046875" lon="166.45740271545946598052978515625">
        <ele>852</ele>
        <time>2016-08-12T20:05:09.000Z</time>
        <extensions>
          <ns3:TrackPointExtension>
            <ns3:atemp>14.0</ns3:atemp>
            <ns3:hr>132</ns3:hr>
          </ns3:TrackPointExtension>
        </extensions>
      </trkpt>
      <trkpt lat="-22.01353588141500949859619140625" lon="166.45737723447382450103759765625">
        <ele>852</ele>
        <time>2016-08-12T20:05:10.000Z</time>
        <extensions>
          <ns3:TrackPointExtension>
            <ns3:atemp>14.0</ns3:atemp>
            <ns3:hr>132</ns3:hr>
          </ns3:TrackPointExtension>
        </extensions>
      </trkpt>
      <trkpt lat="-22.0135476998984813690185546875" lon="166.45735703408718109130859375">
        <ele>852.20001220703125</ele>
        <time>2016-08-12T20:05:11.000Z</time>
        <extensions>
          <ns3:TrackPointExtension>
            <ns3:atemp>14.0</ns3:atemp>
            <ns3:hr>133</ns3:hr>
          </ns3:TrackPointExtension>
        </extensions>
      </trkpt>
      <trkpt lat="-22.01356136240065097808837890625" lon="166.457335911691188812255859375">
        <ele>852.20001220703125</ele>
        <time>2016-08-12T20:05:12.000Z</time>
        <extensions>
          <ns3:TrackPointExtension>
            <ns3:atemp>14.0</ns3:atemp>
            <ns3:hr>132</ns3:hr>
          </ns3:TrackPointExtension>
        </extensions>
      </trkpt>
      <trkpt lat="-22.013578377664089202880859375" lon="166.4573136158287525177001953125">
        <ele>852</ele>
        <time>2016-08-12T20:05:13.000Z</time>
        <extensions>
          <ns3:TrackPointExtension>
            <ns3:atemp>13.0</ns3:atemp>
            <ns3:hr>132</ns3:hr>
          </ns3:TrackPointExtension>
        </extensions>
      </trkpt>
      <trkpt lat="-22.01359589584171772003173828125" lon="166.45729324780404567718505859375">
        <ele>852.20001220703125</ele>
        <time>2016-08-12T20:05:14.000Z</time>
        <extensions>
          <ns3:TrackPointExtension>
            <ns3:atemp>14.0</ns3:atemp>
            <ns3:hr>133</ns3:hr>
          </ns3:TrackPointExtension>
        </extensions>
      </trkpt>
      <trkpt lat="-22.0136100612580776214599609375" lon="166.45727455615997314453125">
        <ele>852.4000244140625</ele>
        <time>2016-08-12T20:05:15.000Z</time>
        <extensions>
          <ns3:TrackPointExtension>
            <ns3:atemp>13.0</ns3:atemp>
            <ns3:hr>133</ns3:hr>
          </ns3:TrackPointExtension>
        </extensions>
      </trkpt>
      <trkpt lat="-22.01362087391316890716552734375" lon="166.4572571218013763427734375">
        <ele>852.20001220703125</ele>
        <time>2016-08-12T20:05:16.000Z</time>
        <extensions>
          <ns3:TrackPointExtension>
            <ns3:atemp>13.0</ns3:atemp>
            <ns3:hr>133</ns3:hr>
          </ns3:TrackPointExtension>
        </extensions>
      </trkpt>
      <trkpt lat="-22.0136385597288608551025390625" lon="166.4572401903569698333740234375">
        <ele>852</ele>
        <time>2016-08-12T20:05:17.000Z</time>
        <extensions>
          <ns3:TrackPointExtension>
            <ns3:atemp>14.0</ns3:atemp>
            <ns3:hr>133</ns3:hr>
          </ns3:TrackPointExtension>
        </extensions>
      </trkpt>
      <trkpt lat="-22.013651467859745025634765625" lon="166.457222588360309600830078125">
        <ele>852.20001220703125</ele>
        <time>2016-08-12T20:05:18.000Z</time>
        <extensions>
          <ns3:TrackPointExtension>
            <ns3:atemp>13.0</ns3:atemp>
            <ns3:hr>133</ns3:hr>
          </ns3:TrackPointExtension>
        </extensions>
      </trkpt>
      <trkpt lat="-22.01365649700164794921875" lon="166.45720574073493480682373046875">
        <ele>852.20001220703125</ele>
        <time>2016-08-12T20:05:19.000Z</time>
        <extensions>
          <ns3:TrackPointExtension>
            <ns3:atemp>13.0</ns3:atemp>
            <ns3:hr>133</ns3:hr>
          </ns3:TrackPointExtension>
        </extensions>
      </trkpt>
      <trkpt lat="-22.013672925531864166259765625" lon="166.45718847401440143585205078125">
        <ele>851.79998779296875</ele>
        <time>2016-08-12T20:05:20.000Z</time>
        <extensions>
          <ns3:TrackPointExtension>
            <ns3:atemp>13.0</ns3:atemp>
            <ns3:hr>133</ns3:hr>
          </ns3:TrackPointExtension>
        </extensions>
      </trkpt>
      <trkpt lat="-22.0136932097375392913818359375" lon="166.4571738056838512420654296875">
        <ele>851.79998779296875</ele>
        <time>2016-08-12T20:05:21.000Z</time>
        <extensions>
          <ns3:TrackPointExtension>
            <ns3:atemp>13.0</ns3:atemp>
            <ns3:hr>133</ns3:hr>
          </ns3:TrackPointExtension>
        </extensions>
      </trkpt>
      <trkpt lat="-22.01370603404939174652099609375" lon="166.4571617357432842254638671875">
        <ele>852</ele>
        <time>2016-08-12T20:05:22.000Z</time>
        <extensions>
          <ns3:TrackPointExtension>
            <ns3:atemp>13.0</ns3:atemp>
            <ns3:hr>133</ns3:hr>
          </ns3:TrackPointExtension>
        </extensions>
      </trkpt>
      <trkpt lat="-22.01371483504772186279296875" lon="166.45714757032692432403564453125">
        <ele>852</ele>
        <time>2016-08-12T20:05:23.000Z</time>
        <extensions>
          <ns3:TrackPointExtension>
            <ns3:atemp>13.0</ns3:atemp>
            <ns3:hr>133</ns3:hr>
          </ns3:TrackPointExtension>
        </extensions>
      </trkpt>
      <trkpt lat="-22.013727240264415740966796875" lon="166.457134075462818145751953125">
        <ele>851.79998779296875</ele>
        <time>2016-08-12T20:05:24.000Z</time>
        <extensions>
          <ns3:TrackPointExtension>
            <ns3:atemp>13.0</ns3:atemp>
            <ns3:hr>133</ns3:hr>
          </ns3:TrackPointExtension>
        </extensions>
      </trkpt>
      <trkpt lat="-22.01374433934688568115234375" lon="166.457124017179012298583984375">
        <ele>851.79998779296875</ele>
        <time>2016-08-12T20:05:25.000Z</time>
        <extensions>
          <ns3:TrackPointExtension>
            <ns3:atemp>13.0</ns3:atemp>
            <ns3:hr>133</ns3:hr>
          </ns3:TrackPointExtension>
        </extensions>
      </trkpt>
      <trkpt lat="-22.01376655139029026031494140625" lon="166.457110941410064697265625">
        <ele>852</ele>
        <time>2016-08-12T20:05:26.000Z</time>
        <extensions>
          <ns3:TrackPointExtension>
            <ns3:atemp>13.0</ns3:atemp>
            <ns3:hr>134</ns3:hr>
          </ns3:TrackPointExtension>
        </extensions>
      </trkpt>
      <trkpt lat="-22.0137911103665828704833984375" lon="166.45709417760372161865234375">
        <ele>852</ele>
        <time>2016-08-12T20:05:27.000Z</time>
        <extensions>
          <ns3:TrackPointExtension>
            <ns3:atemp>13.0</ns3:atemp>
            <ns3:hr>133</ns3:hr>
          </ns3:TrackPointExtension>
        </extensions>
      </trkpt>
      <trkpt lat="-22.0138018392026424407958984375" lon="166.45707213319838047027587890625">
        <ele>851.79998779296875</ele>
        <time>2016-08-12T20:05:28.000Z</time>
        <extensions>
          <ns3:TrackPointExtension>
            <ns3:atemp>13.0</ns3:atemp>
            <ns3:hr>134</ns3:hr>
          </ns3:TrackPointExtension>
        </extensions>
      </trkpt>
      <trkpt lat="-22.0138222910463809967041015625" lon="166.4570474065840244293212890625">
        <ele>852</ele>
        <time>2016-08-12T20:05:29.000Z</time>
        <extensions>
          <ns3:TrackPointExtension>
            <ns3:atemp>13.0</ns3:atemp>
            <ns3:hr>133</ns3:hr>
          </ns3:TrackPointExtension>
        </extensions>
      </trkpt>
      <trkpt lat="-22.01384182088077068328857421875" lon="166.45702184177935123443603515625">
        <ele>852.20001220703125</ele>
        <time>2016-08-12T20:05:30.000Z</time>
        <extensions>
          <ns3:TrackPointExtension>
            <ns3:atemp>13.0</ns3:atemp>
            <ns3:hr>133</ns3:hr>
          </ns3:TrackPointExtension>
        </extensions>
      </trkpt>
      <trkpt lat="-22.013859339058399200439453125" lon="166.4569937624037265777587890625">
        <ele>852</ele>
        <time>2016-08-12T20:05:31.000Z</time>
        <extensions>
          <ns3:TrackPointExtension>
            <ns3:atemp>13.0</ns3:atemp>
            <ns3:hr>133</ns3:hr>
          </ns3:TrackPointExtension>
        </extensions>
      </trkpt>
      <trkpt lat="-22.01387166045606136322021484375" lon="166.45696870051324367523193359375">
        <ele>851.79998779296875</ele>
        <time>2016-08-12T20:05:32.000Z</time>
        <extensions>
          <ns3:TrackPointExtension>
            <ns3:atemp>13.0</ns3:atemp>
            <ns3:hr>133</ns3:hr>
          </ns3:TrackPointExtension>
        </extensions>
      </trkpt>
      <trkpt lat="-22.01388540677726268768310546875" lon="166.45694539882242679595947265625">
        <ele>852</ele>
        <time>2016-08-12T20:05:33.000Z</time>
        <extensions>
          <ns3:TrackPointExtension>
            <ns3:atemp>13.0</ns3:atemp>
            <ns3:hr>133</ns3:hr>
          </ns3:TrackPointExtension>
        </extensions>
      </trkpt>
      <trkpt lat="-22.013898901641368865966796875" lon="166.45692117512226104736328125">
        <ele>852</ele>
        <time>2016-08-12T20:05:34.000Z</time>
        <extensions>
          <ns3:TrackPointExtension>
            <ns3:atemp>13.0</ns3:atemp>
            <ns3:hr>132</ns3:hr>
          </ns3:TrackPointExtension>
        </extensions>
      </trkpt>
      <trkpt lat="-22.0139071159064769744873046875" lon="166.456902734935283660888671875">
        <ele>851.79998779296875</ele>
        <time>2016-08-12T20:05:35.000Z</time>
        <extensions>
          <ns3:TrackPointExtension>
            <ns3:atemp>13.0</ns3:atemp>
            <ns3:hr>132</ns3:hr>
          </ns3:TrackPointExtension>
        </extensions>
      </trkpt>
      <trkpt lat="-22.0139191858470439910888671875" lon="166.456884630024433135986328125">
        <ele>851.79998779296875</ele>
        <time>2016-08-12T20:05:36.000Z</time>
        <extensions>
          <ns3:TrackPointExtension>
            <ns3:atemp>13.0</ns3:atemp>
            <ns3:hr>132</ns3:hr>
          </ns3:TrackPointExtension>
        </extensions>
      </trkpt>
      <trkpt lat="-22.01392698101699352264404296875" lon="166.45686442963778972625732421875">
        <ele>852</ele>
        <time>2016-08-12T20:05:37.000Z</time>
        <extensions>
          <ns3:TrackPointExtension>
            <ns3:atemp>13.0</ns3:atemp>
            <ns3:hr>132</ns3:hr>
          </ns3:TrackPointExtension>
        </extensions>
      </trkpt>
      <trkpt lat="-22.013938128948211669921875" lon="166.45684146322309970855712890625">
        <ele>852</ele>
        <time>2016-08-12T20:05:38.000Z</time>
        <extensions>
          <ns3:TrackPointExtension>
            <ns3:atemp>13.0</ns3:atemp>
            <ns3:hr>132</ns3:hr>
          </ns3:TrackPointExtension>
        </extensions>
      </trkpt>
      <trkpt lat="-22.013943828642368316650390625" lon="166.45681715570390224456787109375">
        <ele>851.5999755859375</ele>
        <time>2016-08-12T20:05:39.000Z</time>
        <extensions>
          <ns3:TrackPointExtension>
            <ns3:atemp>13.0</ns3:atemp>
            <ns3:hr>132</ns3:hr>
          </ns3:TrackPointExtension>
        </extensions>
      </trkpt>
      <trkpt lat="-22.01394743286073207855224609375" lon="166.45679452456533908843994140625">
        <ele>852</ele>
        <time>2016-08-12T20:05:40.000Z</time>
        <extensions>
          <ns3:TrackPointExtension>
            <ns3:atemp>13.0</ns3:atemp>
            <ns3:hr>132</ns3:hr>
          </ns3:TrackPointExtension>
        </extensions>
      </trkpt>
      <trkpt lat="-22.0139483548700809478759765625" lon="166.4567714743316173553466796875">
        <ele>852.20001220703125</ele>
        <time>2016-08-12T20:05:41.000Z</time>
        <extensions>
          <ns3:TrackPointExtension>
            <ns3:atemp>13.0</ns3:atemp>
            <ns3:hr>132</ns3:hr>
          </ns3:TrackPointExtension>
        </extensions>
      </trkpt>
      <trkpt lat="-22.0139530487358570098876953125" lon="166.45674859173595905303955078125">
        <ele>852.20001220703125</ele>
        <time>2016-08-12T20:05:42.000Z</time>
        <extensions>
          <ns3:TrackPointExtension>
            <ns3:atemp>13.0</ns3:atemp>
            <ns3:hr>132</ns3:hr>
          </ns3:TrackPointExtension>
        </extensions>
      </trkpt>
      <trkpt lat="-22.01395682059228420257568359375" lon="166.4567285589873790740966796875">
        <ele>852</ele>
        <time>2016-08-12T20:05:43.000Z</time>
        <extensions>
          <ns3:TrackPointExtension>
            <ns3:atemp>13.0</ns3:atemp>
            <ns3:hr>132</ns3:hr>
          </ns3:TrackPointExtension>
        </extensions>
      </trkpt>
      <trkpt lat="-22.01396428048610687255859375" lon="166.4567047543823719024658203125">
        <ele>852.20001220703125</ele>
        <time>2016-08-12T20:05:44.000Z</time>
        <extensions>
          <ns3:TrackPointExtension>
            <ns3:atemp>13.0</ns3:atemp>
            <ns3:hr>132</ns3:hr>
          </ns3:TrackPointExtension>
        </extensions>
      </trkpt>
      <trkpt lat="-22.01397098600864410400390625" lon="166.456682793796062469482421875">
        <ele>852.5999755859375</ele>
        <time>2016-08-12T20:05:45.000Z</time>
        <extensions>
          <ns3:TrackPointExtension>
            <ns3:atemp>13.0</ns3:atemp>
            <ns3:hr>132</ns3:hr>
          </ns3:TrackPointExtension>
        </extensions>
      </trkpt>
      <trkpt lat="-22.0139728300273418426513671875" lon="166.45665756426751613616943359375">
        <ele>852.5999755859375</ele>
        <time>2016-08-12T20:05:46.000Z</time>
        <extensions>
          <ns3:TrackPointExtension>
            <ns3:atemp>13.0</ns3:atemp>
            <ns3:hr>132</ns3:hr>
          </ns3:TrackPointExtension>
        </extensions>
      </trkpt>
      <trkpt lat="-22.01397777535021305084228515625" lon="166.4566316641867160797119140625">
        <ele>852.5999755859375</ele>
        <time>2016-08-12T20:05:47.000Z</time>
        <extensions>
          <ns3:TrackPointExtension>
            <ns3:atemp>13.0</ns3:atemp>
            <ns3:hr>132</ns3:hr>
          </ns3:TrackPointExtension>
        </extensions>
      </trkpt>
      <trkpt lat="-22.013988755643367767333984375" lon="166.45660400390625">
        <ele>852.79998779296875</ele>
        <time>2016-08-12T20:05:48.000Z</time>
        <extensions>
          <ns3:TrackPointExtension>
            <ns3:atemp>13.0</ns3:atemp>
            <ns3:hr>133</ns3:hr>
          </ns3:TrackPointExtension>
        </extensions>
      </trkpt>
      <trkpt lat="-22.013994790613651275634765625" lon="166.4565760083496570587158203125">
        <ele>852.79998779296875</ele>
        <time>2016-08-12T20:05:49.000Z</time>
        <extensions>
          <ns3:TrackPointExtension>
            <ns3:atemp>13.0</ns3:atemp>
            <ns3:hr>133</ns3:hr>
          </ns3:TrackPointExtension>
        </extensions>
      </trkpt>
      <trkpt lat="-22.0140076987445354461669921875" lon="166.45655530504882335662841796875">
        <ele>852.79998779296875</ele>
        <time>2016-08-12T20:05:50.000Z</time>
        <extensions>
          <ns3:TrackPointExtension>
            <ns3:atemp>13.0</ns3:atemp>
            <ns3:hr>133</ns3:hr>
          </ns3:TrackPointExtension>
        </extensions>
      </trkpt>
      <trkpt lat="-22.014020942151546478271484375" lon="166.45654390566051006317138671875">
        <ele>852.79998779296875</ele>
        <time>2016-08-12T20:05:51.000Z</time>
        <extensions>
          <ns3:TrackPointExtension>
            <ns3:atemp>13.0</ns3:atemp>
            <ns3:hr>133</ns3:hr>
          </ns3:TrackPointExtension>
        </extensions>
      </trkpt>
      <trkpt lat="-22.01403980143368244171142578125" lon="166.45653334446251392364501953125">
        <ele>852.79998779296875</ele>
        <time>2016-08-12T20:05:52.000Z</time>
        <extensions>
          <ns3:TrackPointExtension>
            <ns3:atemp>13.0</ns3:atemp>
            <ns3:hr>133</ns3:hr>
          </ns3:TrackPointExtension>
        </extensions>
      </trkpt>
      <trkpt lat="-22.0140563137829303741455078125" lon="166.4565220288932323455810546875">
        <ele>852.5999755859375</ele>
        <time>2016-08-12T20:05:53.000Z</time>
        <extensions>
          <ns3:TrackPointExtension>
            <ns3:atemp>13.0</ns3:atemp>
            <ns3:hr>133</ns3:hr>
          </ns3:TrackPointExtension>
        </extensions>
      </trkpt>
      <trkpt lat="-22.0140693895518779754638671875" lon="166.4565129764378070831298828125">
        <ele>852.5999755859375</ele>
        <time>2016-08-12T20:05:54.000Z</time>
        <extensions>
          <ns3:TrackPointExtension>
            <ns3:atemp>13.0</ns3:atemp>
            <ns3:hr>133</ns3:hr>
          </ns3:TrackPointExtension>
        </extensions>
      </trkpt>
      <trkpt lat="-22.01409973204135894775390625" lon="166.45650534890592098236083984375">
        <ele>852.4000244140625</ele>
        <time>2016-08-12T20:05:55.000Z</time>
        <extensions>
          <ns3:TrackPointExtension>
            <ns3:atemp>13.0</ns3:atemp>
            <ns3:hr>133</ns3:hr>
          </ns3:TrackPointExtension>
        </extensions>
      </trkpt>
      <trkpt lat="-22.01412211172282695770263671875" lon="166.45649797283113002777099609375">
        <ele>852.4000244140625</ele>
        <time>2016-08-12T20:05:56.000Z</time>
        <extensions>
          <ns3:TrackPointExtension>
            <ns3:atemp>13.0</ns3:atemp>
            <ns3:hr>133</ns3:hr>
          </ns3:TrackPointExtension>
        </extensions>
      </trkpt>
      <trkpt lat="-22.01414130628108978271484375" lon="166.456482969224452972412109375">
        <ele>852.20001220703125</ele>
        <time>2016-08-12T20:05:57.000Z</time>
        <extensions>
          <ns3:TrackPointExtension>
            <ns3:atemp>13.0</ns3:atemp>
            <ns3:hr>133</ns3:hr>
          </ns3:TrackPointExtension>
        </extensions>
      </trkpt>
      <trkpt lat="-22.01414390467107295989990234375" lon="166.45646595396101474761962890625">
        <ele>852.5999755859375</ele>
        <time>2016-08-12T20:05:58.000Z</time>
        <extensions>
          <ns3:TrackPointExtension>
            <ns3:atemp>13.0</ns3:atemp>
            <ns3:hr>133</ns3:hr>
          </ns3:TrackPointExtension>
        </extensions>
      </trkpt>
      <trkpt lat="-22.0141421444714069366455078125" lon="166.4564519561827182769775390625">
        <ele>852.5999755859375</ele>
        <time>2016-08-12T20:05:59.000Z</time>
        <extensions>
          <ns3:TrackPointExtension>
            <ns3:atemp>13.0</ns3:atemp>
            <ns3:hr>134</ns3:hr>
          </ns3:TrackPointExtension>
        </extensions>
      </trkpt>
      <trkpt lat="-22.0141535438597202301025390625" lon="166.45643443800508975982666015625">
        <ele>852.20001220703125</ele>
        <time>2016-08-12T20:06:00.000Z</time>
        <extensions>
          <ns3:TrackPointExtension>
            <ns3:atemp>13.0</ns3:atemp>
            <ns3:hr>134</ns3:hr>
          </ns3:TrackPointExtension>
        </extensions>
      </trkpt>
      <trkpt lat="-22.01416318304836750030517578125" lon="166.45641163922846317291259765625">
        <ele>852.20001220703125</ele>
        <time>2016-08-12T20:06:01.000Z</time>
        <extensions>
          <ns3:TrackPointExtension>
            <ns3:atemp>13.0</ns3:atemp>
            <ns3:hr>134</ns3:hr>
          </ns3:TrackPointExtension>
        </extensions>
      </trkpt>
      <trkpt lat="-22.01417156495153903961181640625" lon="166.4563892595469951629638671875">
        <ele>852.20001220703125</ele>
        <time>2016-08-12T20:06:02.000Z</time>
        <extensions>
          <ns3:TrackPointExtension>
            <ns3:atemp>13.0</ns3:atemp>
            <ns3:hr>133</ns3:hr>
          </ns3:TrackPointExtension>
        </extensions>
      </trkpt>
      <trkpt lat="-22.01418078504502773284912109375" lon="166.4563644491136074066162109375">
        <ele>852</ele>
        <time>2016-08-12T20:06:03.000Z</time>
        <extensions>
          <ns3:TrackPointExtension>
            <ns3:atemp>13.0</ns3:atemp>
            <ns3:hr>134</ns3:hr>
          </ns3:TrackPointExtension>
        </extensions>
      </trkpt>
      <trkpt lat="-22.014196626842021942138671875" lon="166.45633938722312450408935546875">
        <ele>851.79998779296875</ele>
        <time>2016-08-12T20:06:04.000Z</time>
        <extensions>
          <ns3:TrackPointExtension>
            <ns3:atemp>13.0</ns3:atemp>
            <ns3:hr>133</ns3:hr>
          </ns3:TrackPointExtension>
        </extensions>
      </trkpt>
      <trkpt lat="-22.0142065174877643585205078125" lon="166.45631675608456134796142578125">
        <ele>852</ele>
        <time>2016-08-12T20:06:05.000Z</time>
        <extensions>
          <ns3:TrackPointExtension>
            <ns3:atemp>13.0</ns3:atemp>
            <ns3:hr>134</ns3:hr>
          </ns3:TrackPointExtension>
        </extensions>
      </trkpt>
      <trkpt lat="-22.01420542784035205841064453125" lon="166.45629244856536388397216796875">
        <ele>851.79998779296875</ele>
        <time>2016-08-12T20:06:06.000Z</time>
        <extensions>
          <ns3:TrackPointExtension>
            <ns3:atemp>13.0</ns3:atemp>
            <ns3:hr>133</ns3:hr>
          </ns3:TrackPointExtension>
        </extensions>
      </trkpt>
      <trkpt lat="-22.0142148993909358978271484375" lon="166.45626646466553211212158203125">
        <ele>851.5999755859375</ele>
        <time>2016-08-12T20:06:07.000Z</time>
        <extensions>
          <ns3:TrackPointExtension>
            <ns3:atemp>13.0</ns3:atemp>
            <ns3:hr>133</ns3:hr>
          </ns3:TrackPointExtension>
        </extensions>
      </trkpt>
      <trkpt lat="-22.01422319747507572174072265625" lon="166.456238217651844024658203125">
        <ele>851.79998779296875</ele>
        <time>2016-08-12T20:06:08.000Z</time>
        <extensions>
          <ns3:TrackPointExtension>
            <ns3:atemp>13.0</ns3:atemp>
            <ns3:hr>133</ns3:hr>
          </ns3:TrackPointExtension>
        </extensions>
      </trkpt>
      <trkpt lat="-22.01421833597123622894287109375" lon="166.45621147938072681427001953125">
        <ele>852</ele>
        <time>2016-08-12T20:06:09.000Z</time>
        <extensions>
          <ns3:TrackPointExtension>
            <ns3:atemp>13.0</ns3:atemp>
            <ns3:hr>133</ns3:hr>
          </ns3:TrackPointExtension>
        </extensions>
      </trkpt>
      <trkpt lat="-22.0142148993909358978271484375" lon="166.4561870880424976348876953125">
        <ele>852</ele>
        <time>2016-08-12T20:06:10.000Z</time>
        <extensions>
          <ns3:TrackPointExtension>
            <ns3:atemp>13.0</ns3:atemp>
            <ns3:hr>134</ns3:hr>
          </ns3:TrackPointExtension>
        </extensions>
      </trkpt>
      <trkpt lat="-22.01421347446739673614501953125" lon="166.45615900866687297821044921875">
        <ele>851.79998779296875</ele>
        <time>2016-08-12T20:06:11.000Z</time>
        <extensions>
          <ns3:TrackPointExtension>
            <ns3:atemp>13.0</ns3:atemp>
            <ns3:hr>134</ns3:hr>
          </ns3:TrackPointExtension>
        </extensions>
      </trkpt>
      <trkpt lat="-22.01421146281063556671142578125" lon="166.4561270736157894134521484375">
        <ele>852</ele>
        <time>2016-08-12T20:06:12.000Z</time>
        <extensions>
          <ns3:TrackPointExtension>
            <ns3:atemp>13.0</ns3:atemp>
            <ns3:hr>134</ns3:hr>
          </ns3:TrackPointExtension>
        </extensions>
      </trkpt>
      <trkpt lat="-22.014198638498783111572265625" lon="166.45609832368791103363037109375">
        <ele>852</ele>
        <time>2016-08-12T20:06:13.000Z</time>
        <extensions>
          <ns3:TrackPointExtension>
            <ns3:atemp>13.0</ns3:atemp>
            <ns3:hr>134</ns3:hr>
          </ns3:TrackPointExtension>
        </extensions>
      </trkpt>
      <trkpt lat="-22.01419687829911708831787109375" lon="166.4560687355697154998779296875">
        <ele>851.79998779296875</ele>
        <time>2016-08-12T20:06:14.000Z</time>
        <extensions>
          <ns3:TrackPointExtension>
            <ns3:atemp>13.0</ns3:atemp>
            <ns3:hr>134</ns3:hr>
          </ns3:TrackPointExtension>
        </extensions>
      </trkpt>
      <trkpt lat="-22.01418883167207241058349609375" lon="166.4560402370989322662353515625">
        <ele>851.79998779296875</ele>
        <time>2016-08-12T20:06:15.000Z</time>
        <extensions>
          <ns3:TrackPointExtension>
            <ns3:atemp>13.0</ns3:atemp>
            <ns3:hr>134</ns3:hr>
          </ns3:TrackPointExtension>
        </extensions>
      </trkpt>
      <trkpt lat="-22.01417877338826656341552734375" lon="166.456016935408115386962890625">
        <ele>851.5999755859375</ele>
        <time>2016-08-12T20:06:16.000Z</time>
        <extensions>
          <ns3:TrackPointExtension>
            <ns3:atemp>13.0</ns3:atemp>
            <ns3:hr>134</ns3:hr>
          </ns3:TrackPointExtension>
        </extensions>
      </trkpt>
      <trkpt lat="-22.01417039148509502410888671875" lon="166.45599178969860076904296875">
        <ele>851.4000244140625</ele>
        <time>2016-08-12T20:06:17.000Z</time>
        <extensions>
          <ns3:TrackPointExtension>
            <ns3:atemp>14.0</ns3:atemp>
            <ns3:hr>134</ns3:hr>
          </ns3:TrackPointExtension>
        </extensions>
      </trkpt>
      <trkpt lat="-22.01417324133217334747314453125" lon="166.45596320740878582000732421875">
        <ele>851.4000244140625</ele>
        <time>2016-08-12T20:06:18.000Z</time>
        <extensions>
          <ns3:TrackPointExtension>
            <ns3:atemp>14.0</ns3:atemp>
            <ns3:hr>134</ns3:hr>
          </ns3:TrackPointExtension>
        </extensions>
      </trkpt>
      <trkpt lat="-22.01417357660830020904541015625" lon="166.455937139689922332763671875">
        <ele>851.20001220703125</ele>
        <time>2016-08-12T20:06:19.000Z</time>
        <extensions>
          <ns3:TrackPointExtension>
            <ns3:atemp>14.0</ns3:atemp>
            <ns3:hr>134</ns3:hr>
          </ns3:TrackPointExtension>
        </extensions>
      </trkpt>
      <trkpt lat="-22.014186568558216094970703125" lon="166.4559121616184711456298828125">
        <ele>850.79998779296875</ele>
        <time>2016-08-12T20:06:20.000Z</time>
        <extensions>
          <ns3:TrackPointExtension>
            <ns3:atemp>14.0</ns3:atemp>
            <ns3:hr>133</ns3:hr>
          </ns3:TrackPointExtension>
        </extensions>
      </trkpt>
      <trkpt lat="-22.0141921006143093109130859375" lon="166.455887854099273681640625">
        <ele>850.5999755859375</ele>
        <time>2016-08-12T20:06:21.000Z</time>
        <extensions>
          <ns3:TrackPointExtension>
            <ns3:atemp>14.0</ns3:atemp>
            <ns3:hr>133</ns3:hr>
          </ns3:TrackPointExtension>
        </extensions>
      </trkpt>
      <trkpt lat="-22.01419352553784847259521484375" lon="166.45586329512298107147216796875">
        <ele>850.4000244140625</ele>
        <time>2016-08-12T20:06:22.000Z</time>
        <extensions>
          <ns3:TrackPointExtension>
            <ns3:atemp>14.0</ns3:atemp>
            <ns3:hr>133</ns3:hr>
          </ns3:TrackPointExtension>
        </extensions>
      </trkpt>
      <trkpt lat="-22.01419721357524394989013671875" lon="166.455833874642848968505859375">
        <ele>850</ele>
        <time>2016-08-12T20:06:23.000Z</time>
        <extensions>
          <ns3:TrackPointExtension>
            <ns3:atemp>14.0</ns3:atemp>
            <ns3:hr>133</ns3:hr>
          </ns3:TrackPointExtension>
        </extensions>
      </trkpt>
      <trkpt lat="-22.0142008177936077117919921875" lon="166.45580277778208255767822265625">
        <ele>849.79998779296875</ele>
        <time>2016-08-12T20:06:24.000Z</time>
        <extensions>
          <ns3:TrackPointExtension>
            <ns3:atemp>14.0</ns3:atemp>
            <ns3:hr>133</ns3:hr>
          </ns3:TrackPointExtension>
        </extensions>
      </trkpt>
      <trkpt lat="-22.01419721357524394989013671875" lon="166.455773524940013885498046875">
        <ele>849.5999755859375</ele>
        <time>2016-08-12T20:06:25.000Z</time>
        <extensions>
          <ns3:TrackPointExtension>
            <ns3:atemp>14.0</ns3:atemp>
            <ns3:hr>133</ns3:hr>
          </ns3:TrackPointExtension>
        </extensions>
      </trkpt>
      <trkpt lat="-22.01419671066105365753173828125" lon="166.455745361745357513427734375">
        <ele>849</ele>
        <time>2016-08-12T20:06:26.000Z</time>
        <extensions>
          <ns3:TrackPointExtension>
            <ns3:atemp>14.0</ns3:atemp>
            <ns3:hr>133</ns3:hr>
          </ns3:TrackPointExtension>
        </extensions>
      </trkpt>
      <trkpt lat="-22.01420207507908344268798828125" lon="166.45571644417941570281982421875">
        <ele>848.79998779296875</ele>
        <time>2016-08-12T20:06:27.000Z</time>
        <extensions>
          <ns3:TrackPointExtension>
            <ns3:atemp>14.0</ns3:atemp>
            <ns3:hr>134</ns3:hr>
          </ns3:TrackPointExtension>
        </extensions>
      </trkpt>
      <trkpt lat="-22.0142157375812530517578125" lon="166.45569012500345706939697265625">
        <ele>848.4000244140625</ele>
        <time>2016-08-12T20:06:28.000Z</time>
        <extensions>
          <ns3:TrackPointExtension>
            <ns3:atemp>14.0</ns3:atemp>
            <ns3:hr>133</ns3:hr>
          </ns3:TrackPointExtension>
        </extensions>
      </trkpt>
      <trkpt lat="-22.0142249576747417449951171875" lon="166.45566347055137157440185546875">
        <ele>848.20001220703125</ele>
        <time>2016-08-12T20:06:29.000Z</time>
        <extensions>
          <ns3:TrackPointExtension>
            <ns3:atemp>14.0</ns3:atemp>
            <ns3:hr>133</ns3:hr>
          </ns3:TrackPointExtension>
        </extensions>
      </trkpt>
      <trkpt lat="-22.01423241756856441497802734375" lon="166.45563228987157344818115234375">
        <ele>848.20001220703125</ele>
        <time>2016-08-12T20:06:30.000Z</time>
        <extensions>
          <ns3:TrackPointExtension>
            <ns3:atemp>14.0</ns3:atemp>
            <ns3:hr>133</ns3:hr>
          </ns3:TrackPointExtension>
        </extensions>
      </trkpt>
      <trkpt lat="-22.0142323337495326995849609375" lon="166.45560312084853649139404296875">
        <ele>848.20001220703125</ele>
        <time>2016-08-12T20:06:31.000Z</time>
        <extensions>
          <ns3:TrackPointExtension>
            <ns3:atemp>14.0</ns3:atemp>
            <ns3:hr>133</ns3:hr>
          </ns3:TrackPointExtension>
        </extensions>
      </trkpt>
      <trkpt lat="-22.01424063183367252349853515625" lon="166.45557872951030731201171875">
        <ele>848</ele>
        <time>2016-08-12T20:06:32.000Z</time>
        <extensions>
          <ns3:TrackPointExtension>
            <ns3:atemp>14.0</ns3:atemp>
            <ns3:hr>134</ns3:hr>
          </ns3:TrackPointExtension>
        </extensions>
      </trkpt>
      <trkpt lat="-22.01424700208008289337158203125" lon="166.45555148832499980926513671875">
        <ele>847.4000244140625</ele>
        <time>2016-08-12T20:06:33.000Z</time>
        <extensions>
          <ns3:TrackPointExtension>
            <ns3:atemp>14.0</ns3:atemp>
            <ns3:hr>133</ns3:hr>
          </ns3:TrackPointExtension>
        </extensions>
      </trkpt>
      <trkpt lat="-22.01425672508776187896728515625" lon="166.4555289410054683685302734375">
        <ele>847.20001220703125</ele>
        <time>2016-08-12T20:06:34.000Z</time>
        <extensions>
          <ns3:TrackPointExtension>
            <ns3:atemp>14.0</ns3:atemp>
            <ns3:hr>133</ns3:hr>
          </ns3:TrackPointExtension>
        </extensions>
      </trkpt>
      <trkpt lat="-22.01426594518125057220458984375" lon="166.45550454966723918914794921875">
        <ele>847.20001220703125</ele>
        <time>2016-08-12T20:06:35.000Z</time>
        <extensions>
          <ns3:TrackPointExtension>
            <ns3:atemp>14.0</ns3:atemp>
            <ns3:hr>133</ns3:hr>
          </ns3:TrackPointExtension>
        </extensions>
      </trkpt>
      <trkpt lat="-22.0142734050750732421875" lon="166.45547655411064624786376953125">
        <ele>847.20001220703125</ele>
        <time>2016-08-12T20:06:36.000Z</time>
        <extensions>
          <ns3:TrackPointExtension>
            <ns3:atemp>14.0</ns3:atemp>
            <ns3:hr>132</ns3:hr>
          </ns3:TrackPointExtension>
        </extensions>
      </trkpt>
      <trkpt lat="-22.01427801512181758880615234375" lon="166.4554508216679096221923828125">
        <ele>847.5999755859375</ele>
        <time>2016-08-12T20:06:37.000Z</time>
        <extensions>
          <ns3:TrackPointExtension>
            <ns3:atemp>14.0</ns3:atemp>
            <ns3:hr>132</ns3:hr>
          </ns3:TrackPointExtension>
        </extensions>
      </trkpt>
      <trkpt lat="-22.01429125852882862091064453125" lon="166.45542290993034839630126953125">
        <ele>847.4000244140625</ele>
        <time>2016-08-12T20:06:38.000Z</time>
        <extensions>
          <ns3:TrackPointExtension>
            <ns3:atemp>14.0</ns3:atemp>
            <ns3:hr>132</ns3:hr>
          </ns3:TrackPointExtension>
        </extensions>
      </trkpt>
      <trkpt lat="-22.0143020711839199066162109375" lon="166.45539491437375545501708984375">
        <ele>847.20001220703125</ele>
        <time>2016-08-12T20:06:39.000Z</time>
        <extensions>
          <ns3:TrackPointExtension>
            <ns3:atemp>14.0</ns3:atemp>
            <ns3:hr>132</ns3:hr>
          </ns3:TrackPointExtension>
        </extensions>
      </trkpt>
      <trkpt lat="-22.014316655695438385009765625" lon="166.455367170274257659912109375">
        <ele>847.4000244140625</ele>
        <time>2016-08-12T20:06:40.000Z</time>
        <extensions>
          <ns3:TrackPointExtension>
            <ns3:atemp>14.0</ns3:atemp>
            <ns3:hr>132</ns3:hr>
          </ns3:TrackPointExtension>
        </extensions>
      </trkpt>
      <trkpt lat="-22.01434381306171417236328125" lon="166.45533992908895015716552734375">
        <ele>847.4000244140625</ele>
        <time>2016-08-12T20:06:41.000Z</time>
        <extensions>
          <ns3:TrackPointExtension>
            <ns3:atemp>14.0</ns3:atemp>
            <ns3:hr>131</ns3:hr>
          </ns3:TrackPointExtension>
        </extensions>
      </trkpt>
      <trkpt lat="-22.014366276562213897705078125" lon="166.4553140290081501007080078125">
        <ele>847.4000244140625</ele>
        <time>2016-08-12T20:06:42.000Z</time>
        <extensions>
          <ns3:TrackPointExtension>
            <ns3:atemp>14.0</ns3:atemp>
            <ns3:hr>131</ns3:hr>
          </ns3:TrackPointExtension>
        </extensions>
      </trkpt>
      <trkpt lat="-22.0143775083124637603759765625" lon="166.455289386212825775146484375">
        <ele>847.4000244140625</ele>
        <time>2016-08-12T20:06:43.000Z</time>
        <extensions>
          <ns3:TrackPointExtension>
            <ns3:atemp>14.0</ns3:atemp>
            <ns3:hr>131</ns3:hr>
          </ns3:TrackPointExtension>
        </extensions>
      </trkpt>
      <trkpt lat="-22.01438060961663722991943359375" lon="166.45526264794170856475830078125">
        <ele>847.4000244140625</ele>
        <time>2016-08-12T20:06:44.000Z</time>
        <extensions>
          <ns3:TrackPointExtension>
            <ns3:atemp>14.0</ns3:atemp>
            <ns3:hr>131</ns3:hr>
          </ns3:TrackPointExtension>
        </extensions>
      </trkpt>
      <trkpt lat="-22.01439301483333110809326171875" lon="166.45523808896541595458984375">
        <ele>847</ele>
        <time>2016-08-12T20:06:45.000Z</time>
        <extensions>
          <ns3:TrackPointExtension>
            <ns3:atemp>14.0</ns3:atemp>
            <ns3:hr>130</ns3:hr>
          </ns3:TrackPointExtension>
        </extensions>
      </trkpt>
      <trkpt lat="-22.01438195072114467620849609375" lon="166.45521285943686962127685546875">
        <ele>847.20001220703125</ele>
        <time>2016-08-12T20:06:46.000Z</time>
        <extensions>
          <ns3:TrackPointExtension>
            <ns3:atemp>14.0</ns3:atemp>
            <ns3:hr>130</ns3:hr>
          </ns3:TrackPointExtension>
        </extensions>
      </trkpt>
      <trkpt lat="-22.01433576643466949462890625" lon="166.45518712699413299560546875">
        <ele>847.20001220703125</ele>
        <time>2016-08-12T20:06:47.000Z</time>
        <extensions>
          <ns3:TrackPointExtension>
            <ns3:atemp>14.0</ns3:atemp>
            <ns3:hr>130</ns3:hr>
          </ns3:TrackPointExtension>
        </extensions>
      </trkpt>
      <trkpt lat="-22.01432981528341770172119140625" lon="166.45515896379947662353515625">
        <ele>847.20001220703125</ele>
        <time>2016-08-12T20:06:48.000Z</time>
        <extensions>
          <ns3:TrackPointExtension>
            <ns3:atemp>14.0</ns3:atemp>
            <ns3:hr>130</ns3:hr>
          </ns3:TrackPointExtension>
        </extensions>
      </trkpt>
      <trkpt lat="-22.01431171037256717681884765625" lon="166.45513289608061313629150390625">
        <ele>847.20001220703125</ele>
        <time>2016-08-12T20:06:49.000Z</time>
        <extensions>
          <ns3:TrackPointExtension>
            <ns3:atemp>14.0</ns3:atemp>
            <ns3:hr>130</ns3:hr>
          </ns3:TrackPointExtension>
        </extensions>
      </trkpt>
      <trkpt lat="-22.01430349610745906829833984375" lon="166.45510733127593994140625">
        <ele>847.20001220703125</ele>
        <time>2016-08-12T20:06:50.000Z</time>
        <extensions>
          <ns3:TrackPointExtension>
            <ns3:atemp>14.0</ns3:atemp>
            <ns3:hr>130</ns3:hr>
          </ns3:TrackPointExtension>
        </extensions>
      </trkpt>
      <trkpt lat="-22.01429813168942928314208984375" lon="166.45508520305156707763671875">
        <ele>847.20001220703125</ele>
        <time>2016-08-12T20:06:51.000Z</time>
        <extensions>
          <ns3:TrackPointExtension>
            <ns3:atemp>14.0</ns3:atemp>
            <ns3:hr>130</ns3:hr>
          </ns3:TrackPointExtension>
        </extensions>
      </trkpt>
      <trkpt lat="-22.01429109089076519012451171875" lon="166.455067433416843414306640625">
        <ele>847.4000244140625</ele>
        <time>2016-08-12T20:06:52.000Z</time>
        <extensions>
          <ns3:TrackPointExtension>
            <ns3:atemp>14.0</ns3:atemp>
            <ns3:hr>130</ns3:hr>
          </ns3:TrackPointExtension>
        </extensions>
      </trkpt>
      <trkpt lat="-22.0142742432653903961181640625" lon="166.4550538547337055206298828125">
        <ele>847.79998779296875</ele>
        <time>2016-08-12T20:06:53.000Z</time>
        <extensions>
          <ns3:TrackPointExtension>
            <ns3:atemp>14.0</ns3:atemp>
            <ns3:hr>129</ns3:hr>
          </ns3:TrackPointExtension>
        </extensions>
      </trkpt>
      <trkpt lat="-22.01425940729677677154541015625" lon="166.455045975744724273681640625">
        <ele>847.79998779296875</ele>
        <time>2016-08-12T20:06:54.000Z</time>
        <extensions>
          <ns3:TrackPointExtension>
            <ns3:atemp>14.0</ns3:atemp>
            <ns3:hr>129</ns3:hr>
          </ns3:TrackPointExtension>
        </extensions>
      </trkpt>
      <trkpt lat="-22.014243900775909423828125" lon="166.45504153333604335784912109375">
        <ele>847.79998779296875</ele>
        <time>2016-08-12T20:06:55.000Z</time>
        <extensions>
          <ns3:TrackPointExtension>
            <ns3:atemp>14.0</ns3:atemp>
            <ns3:hr>129</ns3:hr>
          </ns3:TrackPointExtension>
        </extensions>
      </trkpt>
      <trkpt lat="-22.01422638259828090667724609375" lon="166.455032564699649810791015625">
        <ele>847.79998779296875</ele>
        <time>2016-08-12T20:06:56.000Z</time>
        <extensions>
          <ns3:TrackPointExtension>
            <ns3:atemp>14.0</ns3:atemp>
            <ns3:hr>130</ns3:hr>
          </ns3:TrackPointExtension>
        </extensions>
      </trkpt>
      <trkpt lat="-22.01420827768743038177490234375" lon="166.45502275787293910980224609375">
        <ele>848</ele>
        <time>2016-08-12T20:06:57.000Z</time>
        <extensions>
          <ns3:TrackPointExtension>
            <ns3:atemp>14.0</ns3:atemp>
            <ns3:hr>130</ns3:hr>
          </ns3:TrackPointExtension>
        </extensions>
      </trkpt>
      <trkpt lat="-22.014193944633007049560546875" lon="166.45501202903687953948974609375">
        <ele>848.20001220703125</ele>
        <time>2016-08-12T20:06:58.000Z</time>
        <extensions>
          <ns3:TrackPointExtension>
            <ns3:atemp>14.0</ns3:atemp>
            <ns3:hr>130</ns3:hr>
          </ns3:TrackPointExtension>
        </extensions>
      </trkpt>
      <trkpt lat="-22.0141760073602199554443359375" lon="166.45500071346759796142578125">
        <ele>848.4000244140625</ele>
        <time>2016-08-12T20:06:59.000Z</time>
        <extensions>
          <ns3:TrackPointExtension>
            <ns3:atemp>14.0</ns3:atemp>
            <ns3:hr>130</ns3:hr>
          </ns3:TrackPointExtension>
        </extensions>
      </trkpt>
      <trkpt lat="-22.01415580697357654571533203125" lon="166.45498990081250667572021484375">
        <ele>848.5999755859375</ele>
        <time>2016-08-12T20:07:00.000Z</time>
        <extensions>
          <ns3:TrackPointExtension>
            <ns3:atemp>14.0</ns3:atemp>
            <ns3:hr>130</ns3:hr>
          </ns3:TrackPointExtension>
        </extensions>
      </trkpt>
      <trkpt lat="-22.01414139010012149810791015625" lon="166.45498353056609630584716796875">
        <ele>848.79998779296875</ele>
        <time>2016-08-12T20:07:01.000Z</time>
        <extensions>
          <ns3:TrackPointExtension>
            <ns3:atemp>14.0</ns3:atemp>
            <ns3:hr>131</ns3:hr>
          </ns3:TrackPointExtension>
        </extensions>
      </trkpt>
      <trkpt lat="-22.0141299068927764892578125" lon="166.4549745619297027587890625">
        <ele>849</ele>
        <time>2016-08-12T20:07:02.000Z</time>
        <extensions>
          <ns3:TrackPointExtension>
            <ns3:atemp>14.0</ns3:atemp>
            <ns3:hr>131</ns3:hr>
          </ns3:TrackPointExtension>
        </extensions>
      </trkpt>
      <trkpt lat="-22.01411305926740169525146484375" lon="166.454961486160755157470703125">
        <ele>849.20001220703125</ele>
        <time>2016-08-12T20:07:03.000Z</time>
        <extensions>
          <ns3:TrackPointExtension>
            <ns3:atemp>14.0</ns3:atemp>
            <ns3:hr>131</ns3:hr>
          </ns3:TrackPointExtension>
        </extensions>
      </trkpt>
      <trkpt lat="-22.014095373451709747314453125" lon="166.454948075115680694580078125">
        <ele>849.4000244140625</ele>
        <time>2016-08-12T20:07:04.000Z</time>
        <extensions>
          <ns3:TrackPointExtension>
            <ns3:atemp>14.0</ns3:atemp>
            <ns3:hr>131</ns3:hr>
          </ns3:TrackPointExtension>
        </extensions>
      </trkpt>
      <trkpt lat="-22.01408095657825469970703125" lon="166.45493558607995510101318359375">
        <ele>849.4000244140625</ele>
        <time>2016-08-12T20:07:05.000Z</time>
        <extensions>
          <ns3:TrackPointExtension>
            <ns3:atemp>14.0</ns3:atemp>
            <ns3:hr>131</ns3:hr>
          </ns3:TrackPointExtension>
        </extensions>
      </trkpt>
      <trkpt lat="-22.01406695879995822906494140625" lon="166.454919911921024322509765625">
        <ele>849.5999755859375</ele>
        <time>2016-08-12T20:07:06.000Z</time>
        <extensions>
          <ns3:TrackPointExtension>
            <ns3:atemp>14.0</ns3:atemp>
            <ns3:hr>131</ns3:hr>
          </ns3:TrackPointExtension>
        </extensions>
      </trkpt>
      <trkpt lat="-22.01405287720263004302978515625" lon="166.45490071736276149749755859375">
        <ele>849.5999755859375</ele>
        <time>2016-08-12T20:07:07.000Z</time>
        <extensions>
          <ns3:TrackPointExtension>
            <ns3:atemp>14.0</ns3:atemp>
            <ns3:hr>131</ns3:hr>
          </ns3:TrackPointExtension>
        </extensions>
      </trkpt>
      <trkpt lat="-22.01404265128076076507568359375" lon="166.45488127134740352630615234375">
        <ele>849.79998779296875</ele>
        <time>2016-08-12T20:07:08.000Z</time>
        <extensions>
          <ns3:TrackPointExtension>
            <ns3:atemp>14.0</ns3:atemp>
            <ns3:hr>132</ns3:hr>
          </ns3:TrackPointExtension>
        </extensions>
      </trkpt>
      <trkpt lat="-22.01403242535889148712158203125" lon="166.45486433990299701690673828125">
        <ele>850.20001220703125</ele>
        <time>2016-08-12T20:07:09.000Z</time>
        <extensions>
          <ns3:TrackPointExtension>
            <ns3:atemp>14.0</ns3:atemp>
            <ns3:hr>132</ns3:hr>
          </ns3:TrackPointExtension>
        </extensions>
      </trkpt>
      <trkpt lat="-22.0140253007411956787109375" lon="166.45484573207795619964599609375">
        <ele>850.20001220703125</ele>
        <time>2016-08-12T20:07:10.000Z</time>
        <extensions>
          <ns3:TrackPointExtension>
            <ns3:atemp>14.0</ns3:atemp>
            <ns3:hr>133</ns3:hr>
          </ns3:TrackPointExtension>
        </extensions>
      </trkpt>
      <trkpt lat="-22.0140187628567218780517578125" lon="166.4548268727958202362060546875">
        <ele>850.4000244140625</ele>
        <time>2016-08-12T20:07:11.000Z</time>
        <extensions>
          <ns3:TrackPointExtension>
            <ns3:atemp>14.0</ns3:atemp>
            <ns3:hr>133</ns3:hr>
          </ns3:TrackPointExtension>
        </extensions>
      </trkpt>
      <trkpt lat="-22.01401130296289920806884765625" lon="166.45480684004724025726318359375">
        <ele>850.79998779296875</ele>
        <time>2016-08-12T20:07:12.000Z</time>
        <extensions>
          <ns3:TrackPointExtension>
            <ns3:atemp>14.0</ns3:atemp>
            <ns3:hr>133</ns3:hr>
          </ns3:TrackPointExtension>
        </extensions>
      </trkpt>
      <trkpt lat="-22.014001496136188507080078125" lon="166.4547899924218654632568359375">
        <ele>850.79998779296875</ele>
        <time>2016-08-12T20:07:13.000Z</time>
        <extensions>
          <ns3:TrackPointExtension>
            <ns3:atemp>14.0</ns3:atemp>
            <ns3:hr>134</ns3:hr>
          </ns3:TrackPointExtension>
        </extensions>
      </trkpt>
      <trkpt lat="-22.01399453915655612945556640625" lon="166.4547738991677761077880859375">
        <ele>850.79998779296875</ele>
        <time>2016-08-12T20:07:14.000Z</time>
        <extensions>
          <ns3:TrackPointExtension>
            <ns3:atemp>14.0</ns3:atemp>
            <ns3:hr>134</ns3:hr>
          </ns3:TrackPointExtension>
        </extensions>
      </trkpt>
      <trkpt lat="-22.01398783363401889801025390625" lon="166.45475453697144985198974609375">
        <ele>851</ele>
        <time>2016-08-12T20:07:15.000Z</time>
        <extensions>
          <ns3:TrackPointExtension>
            <ns3:atemp>14.0</ns3:atemp>
            <ns3:hr>134</ns3:hr>
          </ns3:TrackPointExtension>
        </extensions>
      </trkpt>
      <trkpt lat="-22.01397727243602275848388671875" lon="166.454736851155757904052734375">
        <ele>851.20001220703125</ele>
        <time>2016-08-12T20:07:16.000Z</time>
        <extensions>
          <ns3:TrackPointExtension>
            <ns3:atemp>14.0</ns3:atemp>
            <ns3:hr>135</ns3:hr>
          </ns3:TrackPointExtension>
        </extensions>
      </trkpt>
      <trkpt lat="-22.0139674656093120574951171875" lon="166.45472335629165172576904296875">
        <ele>851.20001220703125</ele>
        <time>2016-08-12T20:07:17.000Z</time>
        <extensions>
          <ns3:TrackPointExtension>
            <ns3:atemp>14.0</ns3:atemp>
            <ns3:hr>135</ns3:hr>
          </ns3:TrackPointExtension>
        </extensions>
      </trkpt>
      <trkpt lat="-22.01395631767809391021728515625" lon="166.45470810122787952423095703125">
        <ele>851.20001220703125</ele>
        <time>2016-08-12T20:07:18.000Z</time>
        <extensions>
          <ns3:TrackPointExtension>
            <ns3:atemp>14.0</ns3:atemp>
            <ns3:hr>136</ns3:hr>
          </ns3:TrackPointExtension>
        </extensions>
      </trkpt>
      <trkpt lat="-22.0139423198997974395751953125" lon="166.45469150505959987640380859375">
        <ele>851.4000244140625</ele>
        <time>2016-08-12T20:07:19.000Z</time>
        <extensions>
          <ns3:TrackPointExtension>
            <ns3:atemp>14.0</ns3:atemp>
            <ns3:hr>135</ns3:hr>
          </ns3:TrackPointExtension>
        </extensions>
      </trkpt>
      <trkpt lat="-22.013924382627010345458984375" lon="166.45468278788030147552490234375">
        <ele>851.5999755859375</ele>
        <time>2016-08-12T20:07:20.000Z</time>
        <extensions>
          <ns3:TrackPointExtension>
            <ns3:atemp>14.0</ns3:atemp>
            <ns3:hr>136</ns3:hr>
          </ns3:TrackPointExtension>
        </extensions>
      </trkpt>
      <trkpt lat="-22.0139061100780963897705078125" lon="166.4546753279864788055419921875">
        <ele>851.79998779296875</ele>
        <time>2016-08-12T20:07:21.000Z</time>
        <extensions>
          <ns3:TrackPointExtension>
            <ns3:atemp>14.0</ns3:atemp>
            <ns3:hr>136</ns3:hr>
          </ns3:TrackPointExtension>
        </extensions>
      </trkpt>
      <trkpt lat="-22.01388792134821414947509765625" lon="166.45466543734073638916015625">
        <ele>852.20001220703125</ele>
        <time>2016-08-12T20:07:22.000Z</time>
        <extensions>
          <ns3:TrackPointExtension>
            <ns3:atemp>14.0</ns3:atemp>
            <ns3:hr>136</ns3:hr>
          </ns3:TrackPointExtension>
        </extensions>
      </trkpt>
      <trkpt lat="-22.0138688944280147552490234375" lon="166.45465495996177196502685546875">
        <ele>852.4000244140625</ele>
        <time>2016-08-12T20:07:23.000Z</time>
        <extensions>
          <ns3:TrackPointExtension>
            <ns3:atemp>14.0</ns3:atemp>
            <ns3:hr>136</ns3:hr>
          </ns3:TrackPointExtension>
        </extensions>
      </trkpt>
      <trkpt lat="-22.01384835876524448394775390625" lon="166.45464557223021984100341796875">
        <ele>852.4000244140625</ele>
        <time>2016-08-12T20:07:24.000Z</time>
        <extensions>
          <ns3:TrackPointExtension>
            <ns3:atemp>14.0</ns3:atemp>
            <ns3:hr>137</ns3:hr>
          </ns3:TrackPointExtension>
        </extensions>
      </trkpt>
      <trkpt lat="-22.01382757164537906646728515625" lon="166.45463861525058746337890625">
        <ele>852.4000244140625</ele>
        <time>2016-08-12T20:07:25.000Z</time>
        <extensions>
          <ns3:TrackPointExtension>
            <ns3:atemp>14.0</ns3:atemp>
            <ns3:hr>137</ns3:hr>
          </ns3:TrackPointExtension>
        </extensions>
      </trkpt>
      <trkpt lat="-22.0138085447251796722412109375" lon="166.4546310715377330780029296875">
        <ele>852.4000244140625</ele>
        <time>2016-08-12T20:07:26.000Z</time>
        <extensions>
          <ns3:TrackPointExtension>
            <ns3:atemp>14.0</ns3:atemp>
            <ns3:hr>137</ns3:hr>
          </ns3:TrackPointExtension>
        </extensions>
      </trkpt>
      <trkpt lat="-22.0137914456427097320556640625" lon="166.454616151750087738037109375">
        <ele>852.4000244140625</ele>
        <time>2016-08-12T20:07:27.000Z</time>
        <extensions>
          <ns3:TrackPointExtension>
            <ns3:atemp>14.0</ns3:atemp>
            <ns3:hr>138</ns3:hr>
          </ns3:TrackPointExtension>
        </extensions>
      </trkpt>
      <trkpt lat="-22.01376940123736858367919921875" lon="166.45459980703890323638916015625">
        <ele>852.79998779296875</ele>
        <time>2016-08-12T20:07:28.000Z</time>
        <extensions>
          <ns3:TrackPointExtension>
            <ns3:atemp>14.0</ns3:atemp>
            <ns3:hr>138</ns3:hr>
          </ns3:TrackPointExtension>
        </extensions>
      </trkpt>
      <trkpt lat="-22.01374911703169345855712890625" lon="166.45458488725125789642333984375">
        <ele>852.79998779296875</ele>
        <time>2016-08-12T20:07:29.000Z</time>
        <extensions>
          <ns3:TrackPointExtension>
            <ns3:atemp>14.0</ns3:atemp>
            <ns3:hr>138</ns3:hr>
          </ns3:TrackPointExtension>
        </extensions>
      </trkpt>
      <trkpt lat="-22.01373201794922351837158203125" lon="166.4545663632452487945556640625">
        <ele>852.79998779296875</ele>
        <time>2016-08-12T20:07:30.000Z</time>
        <extensions>
          <ns3:TrackPointExtension>
            <ns3:atemp>14.0</ns3:atemp>
            <ns3:hr>138</ns3:hr>
          </ns3:TrackPointExtension>
        </extensions>
      </trkpt>
      <trkpt lat="-22.01371726579964160919189453125" lon="166.45454850979149341583251953125">
        <ele>853.20001220703125</ele>
        <time>2016-08-12T20:07:31.000Z</time>
        <extensions>
          <ns3:TrackPointExtension>
            <ns3:atemp>14.0</ns3:atemp>
            <ns3:hr>139</ns3:hr>
          </ns3:TrackPointExtension>
        </extensions>
      </trkpt>
      <trkpt lat="-22.01370670460164546966552734375" lon="166.454528979957103729248046875">
        <ele>853.5999755859375</ele>
        <time>2016-08-12T20:07:32.000Z</time>
        <extensions>
          <ns3:TrackPointExtension>
            <ns3:atemp>14.0</ns3:atemp>
            <ns3:hr>139</ns3:hr>
          </ns3:TrackPointExtension>
        </extensions>
      </trkpt>
      <trkpt lat="-22.01369446702301502227783203125" lon="166.4545078575611114501953125">
        <ele>853.4000244140625</ele>
        <time>2016-08-12T20:07:33.000Z</time>
        <extensions>
          <ns3:TrackPointExtension>
            <ns3:atemp>14.0</ns3:atemp>
            <ns3:hr>139</ns3:hr>
          </ns3:TrackPointExtension>
        </extensions>
      </trkpt>
      <trkpt lat="-22.0136794634163379669189453125" lon="166.45449000410735607147216796875">
        <ele>853.20001220703125</ele>
        <time>2016-08-12T20:07:34.000Z</time>
        <extensions>
          <ns3:TrackPointExtension>
            <ns3:atemp>14.0</ns3:atemp>
            <ns3:hr>139</ns3:hr>
          </ns3:TrackPointExtension>
        </extensions>
      </trkpt>
      <trkpt lat="-22.0136626996099948883056640625" lon="166.45447692833840847015380859375">
        <ele>853</ele>
        <time>2016-08-12T20:07:35.000Z</time>
        <extensions>
          <ns3:TrackPointExtension>
            <ns3:atemp>14.0</ns3:atemp>
            <ns3:hr>139</ns3:hr>
          </ns3:TrackPointExtension>
        </extensions>
      </trkpt>
      <trkpt lat="-22.01364501379430294036865234375" lon="166.45446695387363433837890625">
        <ele>853</ele>
        <time>2016-08-12T20:07:36.000Z</time>
        <extensions>
          <ns3:TrackPointExtension>
            <ns3:atemp>14.0</ns3:atemp>
            <ns3:hr>139</ns3:hr>
          </ns3:TrackPointExtension>
        </extensions>
      </trkpt>
      <trkpt lat="-22.01362942345440387725830078125" lon="166.45445764996111392974853515625">
        <ele>853</ele>
        <time>2016-08-12T20:07:37.000Z</time>
        <extensions>
          <ns3:TrackPointExtension>
            <ns3:atemp>14.0</ns3:atemp>
            <ns3:hr>139</ns3:hr>
          </ns3:TrackPointExtension>
        </extensions>
      </trkpt>
      <trkpt lat="-22.013613246381282806396484375" lon="166.4544486813247203826904296875">
        <ele>853.20001220703125</ele>
        <time>2016-08-12T20:07:38.000Z</time>
        <extensions>
          <ns3:TrackPointExtension>
            <ns3:atemp>14.0</ns3:atemp>
            <ns3:hr>139</ns3:hr>
          </ns3:TrackPointExtension>
        </extensions>
      </trkpt>
      <trkpt lat="-22.01359438709914684295654296875" lon="166.45444013178348541259765625">
        <ele>853.4000244140625</ele>
        <time>2016-08-12T20:07:39.000Z</time>
        <extensions>
          <ns3:TrackPointExtension>
            <ns3:atemp>14.0</ns3:atemp>
            <ns3:hr>139</ns3:hr>
          </ns3:TrackPointExtension>
        </extensions>
      </trkpt>
      <trkpt lat="-22.01357544399797916412353515625" lon="166.45443401299417018890380859375">
        <ele>853.79998779296875</ele>
        <time>2016-08-12T20:07:40.000Z</time>
        <extensions>
          <ns3:TrackPointExtension>
            <ns3:atemp>14.0</ns3:atemp>
            <ns3:hr>139</ns3:hr>
          </ns3:TrackPointExtension>
        </extensions>
      </trkpt>
      <trkpt lat="-22.013554908335208892822265625" lon="166.454429738223552703857421875">
        <ele>854.20001220703125</ele>
        <time>2016-08-12T20:07:41.000Z</time>
        <extensions>
          <ns3:TrackPointExtension>
            <ns3:atemp>14.0</ns3:atemp>
            <ns3:hr>139</ns3:hr>
          </ns3:TrackPointExtension>
        </extensions>
      </trkpt>
      <trkpt lat="-22.0135339535772800445556640625" lon="166.45442781038582324981689453125">
        <ele>854.4000244140625</ele>
        <time>2016-08-12T20:07:42.000Z</time>
        <extensions>
          <ns3:TrackPointExtension>
            <ns3:atemp>14.0</ns3:atemp>
            <ns3:hr>139</ns3:hr>
          </ns3:TrackPointExtension>
        </extensions>
      </trkpt>
      <trkpt lat="-22.0135171897709369659423828125" lon="166.45442579872906208038330078125">
        <ele>854.5999755859375</ele>
        <time>2016-08-12T20:07:43.000Z</time>
        <extensions>
          <ns3:TrackPointExtension>
            <ns3:atemp>14.0</ns3:atemp>
            <ns3:hr>139</ns3:hr>
          </ns3:TrackPointExtension>
        </extensions>
      </trkpt>
      <trkpt lat="-22.01349883340299129486083984375" lon="166.45442537963390350341796875">
        <ele>855.20001220703125</ele>
        <time>2016-08-12T20:07:44.000Z</time>
        <extensions>
          <ns3:TrackPointExtension>
            <ns3:atemp>14.0</ns3:atemp>
            <ns3:hr>140</ns3:hr>
          </ns3:TrackPointExtension>
        </extensions>
      </trkpt>
      <trkpt lat="-22.01348123140633106231689453125" lon="166.4544285647571086883544921875">
        <ele>855.4000244140625</ele>
        <time>2016-08-12T20:07:45.000Z</time>
        <extensions>
          <ns3:TrackPointExtension>
            <ns3:atemp>14.0</ns3:atemp>
            <ns3:hr>140</ns3:hr>
          </ns3:TrackPointExtension>
        </extensions>
      </trkpt>
      <trkpt lat="-22.01346228830516338348388671875" lon="166.4544372819364070892333984375">
        <ele>855.20001220703125</ele>
        <time>2016-08-12T20:07:46.000Z</time>
        <extensions>
          <ns3:TrackPointExtension>
            <ns3:atemp>14.0</ns3:atemp>
            <ns3:hr>140</ns3:hr>
          </ns3:TrackPointExtension>
        </extensions>
      </trkpt>
      <trkpt lat="-22.01344192028045654296875" lon="166.45443904213607311248779296875">
        <ele>855.4000244140625</ele>
        <time>2016-08-12T20:07:47.000Z</time>
        <extensions>
          <ns3:TrackPointExtension>
            <ns3:atemp>14.0</ns3:atemp>
            <ns3:hr>141</ns3:hr>
          </ns3:TrackPointExtension>
        </extensions>
      </trkpt>
      <trkpt lat="-22.01342289336025714874267578125" lon="166.45443971268832683563232421875">
        <ele>855.5999755859375</ele>
        <time>2016-08-12T20:07:48.000Z</time>
        <extensions>
          <ns3:TrackPointExtension>
            <ns3:atemp>14.0</ns3:atemp>
            <ns3:hr>141</ns3:hr>
          </ns3:TrackPointExtension>
        </extensions>
      </trkpt>
      <trkpt lat="-22.01340629719197750091552734375" lon="166.45443568937480449676513671875">
        <ele>855.5999755859375</ele>
        <time>2016-08-12T20:07:49.000Z</time>
        <extensions>
          <ns3:TrackPointExtension>
            <ns3:atemp>14.0</ns3:atemp>
            <ns3:hr>141</ns3:hr>
          </ns3:TrackPointExtension>
        </extensions>
      </trkpt>
      <trkpt lat="-22.01338785700500011444091796875" lon="166.454428397119045257568359375">
        <ele>856</ele>
        <time>2016-08-12T20:07:50.000Z</time>
        <extensions>
          <ns3:TrackPointExtension>
            <ns3:atemp>14.0</ns3:atemp>
            <ns3:hr>141</ns3:hr>
          </ns3:TrackPointExtension>
        </extensions>
      </trkpt>
      <trkpt lat="-22.0133681595325469970703125" lon="166.4544228650629520416259765625">
        <ele>856.20001220703125</ele>
        <time>2016-08-12T20:07:51.000Z</time>
        <extensions>
          <ns3:TrackPointExtension>
            <ns3:atemp>14.0</ns3:atemp>
            <ns3:hr>142</ns3:hr>
          </ns3:TrackPointExtension>
        </extensions>
      </trkpt>
      <trkpt lat="-22.01335139572620391845703125" lon="166.45441892556846141815185546875">
        <ele>856.20001220703125</ele>
        <time>2016-08-12T20:07:52.000Z</time>
        <extensions>
          <ns3:TrackPointExtension>
            <ns3:atemp>14.0</ns3:atemp>
            <ns3:hr>142</ns3:hr>
          </ns3:TrackPointExtension>
        </extensions>
      </trkpt>
      <trkpt lat="-22.0133354701101779937744140625" lon="166.4544154889881610870361328125">
        <ele>856.5999755859375</ele>
        <time>2016-08-12T20:07:53.000Z</time>
        <extensions>
          <ns3:TrackPointExtension>
            <ns3:atemp>14.0</ns3:atemp>
            <ns3:hr>142</ns3:hr>
          </ns3:TrackPointExtension>
        </extensions>
      </trkpt>
      <trkpt lat="-22.0133163593709468841552734375" lon="166.454417668282985687255859375">
        <ele>856.79998779296875</ele>
        <time>2016-08-12T20:07:54.000Z</time>
        <extensions>
          <ns3:TrackPointExtension>
            <ns3:atemp>14.0</ns3:atemp>
            <ns3:hr>142</ns3:hr>
          </ns3:TrackPointExtension>
        </extensions>
      </trkpt>
      <trkpt lat="-22.01329833827912807464599609375" lon="166.45442001521587371826171875">
        <ele>857</ele>
        <time>2016-08-12T20:07:55.000Z</time>
        <extensions>
          <ns3:TrackPointExtension>
            <ns3:atemp>14.0</ns3:atemp>
            <ns3:hr>142</ns3:hr>
          </ns3:TrackPointExtension>
        </extensions>
      </trkpt>
      <trkpt lat="-22.0132804848253726959228515625" lon="166.45442211069166660308837890625">
        <ele>857.20001220703125</ele>
        <time>2016-08-12T20:07:56.000Z</time>
        <extensions>
          <ns3:TrackPointExtension>
            <ns3:atemp>14.0</ns3:atemp>
            <ns3:hr>143</ns3:hr>
          </ns3:TrackPointExtension>
        </extensions>
      </trkpt>
      <trkpt lat="-22.01326020061969757080078125" lon="166.45442211069166660308837890625">
        <ele>857.20001220703125</ele>
        <time>2016-08-12T20:07:57.000Z</time>
        <extensions>
          <ns3:TrackPointExtension>
            <ns3:atemp>14.0</ns3:atemp>
            <ns3:hr>143</ns3:hr>
          </ns3:TrackPointExtension>
        </extensions>
      </trkpt>
      <trkpt lat="-22.013240419328212738037109375" lon="166.454421021044254302978515625">
        <ele>857.4000244140625</ele>
        <time>2016-08-12T20:07:58.000Z</time>
        <extensions>
          <ns3:TrackPointExtension>
            <ns3:atemp>14.0</ns3:atemp>
            <ns3:hr>143</ns3:hr>
          </ns3:TrackPointExtension>
        </extensions>
      </trkpt>
      <trkpt lat="-22.01321770437061786651611328125" lon="166.454423032701015472412109375">
        <ele>857.5999755859375</ele>
        <time>2016-08-12T20:07:59.000Z</time>
        <extensions>
          <ns3:TrackPointExtension>
            <ns3:atemp>14.0</ns3:atemp>
            <ns3:hr>143</ns3:hr>
          </ns3:TrackPointExtension>
        </extensions>
      </trkpt>
      <trkpt lat="-22.0131939835846424102783203125" lon="166.4544242061674594879150390625">
        <ele>857.5999755859375</ele>
        <time>2016-08-12T20:08:00.000Z</time>
        <extensions>
          <ns3:TrackPointExtension>
            <ns3:atemp>14.0</ns3:atemp>
            <ns3:hr>143</ns3:hr>
          </ns3:TrackPointExtension>
        </extensions>
      </trkpt>
      <trkpt lat="-22.01317571103572845458984375" lon="166.454416997730731964111328125">
        <ele>858</ele>
        <time>2016-08-12T20:08:01.000Z</time>
        <extensions>
          <ns3:TrackPointExtension>
            <ns3:atemp>14.0</ns3:atemp>
            <ns3:hr>143</ns3:hr>
          </ns3:TrackPointExtension>
        </extensions>
      </trkpt>
      <trkpt lat="-22.01316154561936855316162109375" lon="166.45441020838916301727294921875">
        <ele>857.79998779296875</ele>
        <time>2016-08-12T20:08:02.000Z</time>
        <extensions>
          <ns3:TrackPointExtension>
            <ns3:atemp>14.0</ns3:atemp>
            <ns3:hr>142</ns3:hr>
          </ns3:TrackPointExtension>
        </extensions>
      </trkpt>
      <trkpt lat="-22.013153918087482452392578125" lon="166.45439612679183483123779296875">
        <ele>857.5999755859375</ele>
        <time>2016-08-12T20:08:03.000Z</time>
        <extensions>
          <ns3:TrackPointExtension>
            <ns3:atemp>14.0</ns3:atemp>
            <ns3:hr>142</ns3:hr>
          </ns3:TrackPointExtension>
        </extensions>
      </trkpt>
      <trkpt lat="-22.01314746402204036712646484375" lon="166.45437684841454029083251953125">
        <ele>857.5999755859375</ele>
        <time>2016-08-12T20:08:04.000Z</time>
        <extensions>
          <ns3:TrackPointExtension>
            <ns3:atemp>14.0</ns3:atemp>
            <ns3:hr>141</ns3:hr>
          </ns3:TrackPointExtension>
        </extensions>
      </trkpt>
      <trkpt lat="-22.013138495385646820068359375" lon="166.4543571509420871734619140625">
        <ele>857.5999755859375</ele>
        <time>2016-08-12T20:08:05.000Z</time>
        <extensions>
          <ns3:TrackPointExtension>
            <ns3:atemp>14.0</ns3:atemp>
            <ns3:hr>141</ns3:hr>
          </ns3:TrackPointExtension>
        </extensions>
      </trkpt>
      <trkpt lat="-22.0131286047399044036865234375" lon="166.45433845929801464080810546875">
        <ele>857.5999755859375</ele>
        <time>2016-08-12T20:08:06.000Z</time>
        <extensions>
          <ns3:TrackPointExtension>
            <ns3:atemp>14.0</ns3:atemp>
            <ns3:hr>140</ns3:hr>
          </ns3:TrackPointExtension>
        </extensions>
      </trkpt>
      <trkpt lat="-22.01311762444674968719482421875" lon="166.45431809127330780029296875">
        <ele>857.20001220703125</ele>
        <time>2016-08-12T20:08:07.000Z</time>
        <extensions>
          <ns3:TrackPointExtension>
            <ns3:atemp>14.0</ns3:atemp>
            <ns3:hr>139</ns3:hr>
          </ns3:TrackPointExtension>
        </extensions>
      </trkpt>
      <trkpt lat="-22.01310597360134124755859375" lon="166.454300992190837860107421875">
        <ele>857.20001220703125</ele>
        <time>2016-08-12T20:08:08.000Z</time>
        <extensions>
          <ns3:TrackPointExtension>
            <ns3:atemp>14.0</ns3:atemp>
            <ns3:hr>139</ns3:hr>
          </ns3:TrackPointExtension>
        </extensions>
      </trkpt>
      <trkpt lat="-22.0130984298884868621826171875" lon="166.45428196527063846588134765625">
        <ele>856.5999755859375</ele>
        <time>2016-08-12T20:08:09.000Z</time>
        <extensions>
          <ns3:TrackPointExtension>
            <ns3:atemp>14.0</ns3:atemp>
            <ns3:hr>137</ns3:hr>
          </ns3:TrackPointExtension>
        </extensions>
      </trkpt>
      <trkpt lat="-22.0130937360227108001708984375" lon="166.454260759055614471435546875">
        <ele>856.4000244140625</ele>
        <time>2016-08-12T20:08:10.000Z</time>
        <extensions>
          <ns3:TrackPointExtension>
            <ns3:atemp>14.0</ns3:atemp>
            <ns3:hr>137</ns3:hr>
          </ns3:TrackPointExtension>
        </extensions>
      </trkpt>
      <trkpt lat="-22.01308585703372955322265625" lon="166.45424030721187591552734375">
        <ele>856.20001220703125</ele>
        <time>2016-08-12T20:08:11.000Z</time>
        <extensions>
          <ns3:TrackPointExtension>
            <ns3:atemp>14.0</ns3:atemp>
            <ns3:hr>136</ns3:hr>
          </ns3:TrackPointExtension>
        </extensions>
      </trkpt>
      <trkpt lat="-22.01307990588247776031494140625" lon="166.4542170055210590362548828125">
        <ele>856.20001220703125</ele>
        <time>2016-08-12T20:08:12.000Z</time>
        <extensions>
          <ns3:TrackPointExtension>
            <ns3:atemp>14.0</ns3:atemp>
            <ns3:hr>135</ns3:hr>
          </ns3:TrackPointExtension>
        </extensions>
      </trkpt>
      <trkpt lat="-22.01307638548314571380615234375" lon="166.45419261418282985687255859375">
        <ele>855.79998779296875</ele>
        <time>2016-08-12T20:08:13.000Z</time>
        <extensions>
          <ns3:TrackPointExtension>
            <ns3:atemp>14.0</ns3:atemp>
            <ns3:hr>134</ns3:hr>
          </ns3:TrackPointExtension>
        </extensions>
      </trkpt>
      <trkpt lat="-22.01307621784508228302001953125" lon="166.45417098887264728546142578125">
        <ele>855.5999755859375</ele>
        <time>2016-08-12T20:08:14.000Z</time>
        <extensions>
          <ns3:TrackPointExtension>
            <ns3:atemp>14.0</ns3:atemp>
            <ns3:hr>133</ns3:hr>
          </ns3:TrackPointExtension>
        </extensions>
      </trkpt>
      <trkpt lat="-22.0130763016641139984130859375" lon="166.4541538059711456298828125">
        <ele>855.4000244140625</ele>
        <time>2016-08-12T20:08:15.000Z</time>
        <extensions>
          <ns3:TrackPointExtension>
            <ns3:atemp>14.0</ns3:atemp>
            <ns3:hr>132</ns3:hr>
          </ns3:TrackPointExtension>
        </extensions>
      </trkpt>
      <trkpt lat="-22.0130717754364013671875" lon="166.4541355334222316741943359375">
        <ele>855.20001220703125</ele>
        <time>2016-08-12T20:08:16.000Z</time>
        <extensions>
          <ns3:TrackPointExtension>
            <ns3:atemp>14.0</ns3:atemp>
            <ns3:hr>133</ns3:hr>
          </ns3:TrackPointExtension>
        </extensions>
      </trkpt>
      <trkpt lat="-22.0130702666938304901123046875" lon="166.45411667414009571075439453125">
        <ele>855.4000244140625</ele>
        <time>2016-08-12T20:08:17.000Z</time>
        <extensions>
          <ns3:TrackPointExtension>
            <ns3:atemp>14.0</ns3:atemp>
            <ns3:hr>133</ns3:hr>
          </ns3:TrackPointExtension>
        </extensions>
      </trkpt>
      <trkpt lat="-22.01306699775159358978271484375" lon="166.454096138477325439453125">
        <ele>855.4000244140625</ele>
        <time>2016-08-12T20:08:18.000Z</time>
        <extensions>
          <ns3:TrackPointExtension>
            <ns3:atemp>14.0</ns3:atemp>
            <ns3:hr>133</ns3:hr>
          </ns3:TrackPointExtension>
        </extensions>
      </trkpt>
      <trkpt lat="-22.0130645669996738433837890625" lon="166.4540728367865085601806640625">
        <ele>855.20001220703125</ele>
        <time>2016-08-12T20:08:19.000Z</time>
        <extensions>
          <ns3:TrackPointExtension>
            <ns3:atemp>14.0</ns3:atemp>
            <ns3:hr>134</ns3:hr>
          </ns3:TrackPointExtension>
        </extensions>
      </trkpt>
      <trkpt lat="-22.01306867413222789764404296875" lon="166.45404852926731109619140625">
        <ele>855.20001220703125</ele>
        <time>2016-08-12T20:08:20.000Z</time>
        <extensions>
          <ns3:TrackPointExtension>
            <ns3:atemp>14.0</ns3:atemp>
            <ns3:hr>134</ns3:hr>
          </ns3:TrackPointExtension>
        </extensions>
      </trkpt>
      <trkpt lat="-22.0130811631679534912109375" lon="166.45402279682457447052001953125">
        <ele>855</ele>
        <time>2016-08-12T20:08:21.000Z</time>
        <extensions>
          <ns3:TrackPointExtension>
            <ns3:atemp>14.0</ns3:atemp>
            <ns3:hr>135</ns3:hr>
          </ns3:TrackPointExtension>
        </extensions>
      </trkpt>
      <trkpt lat="-22.01308325864374637603759765625" lon="166.45399597473442554473876953125">
        <ele>854.79998779296875</ele>
        <time>2016-08-12T20:08:22.000Z</time>
        <extensions>
          <ns3:TrackPointExtension>
            <ns3:atemp>14.0</ns3:atemp>
            <ns3:hr>135</ns3:hr>
          </ns3:TrackPointExtension>
        </extensions>
      </trkpt>
      <trkpt lat="-22.01308443211019039154052734375" lon="166.45396898500621318817138671875">
        <ele>854.4000244140625</ele>
        <time>2016-08-12T20:08:23.000Z</time>
        <extensions>
          <ns3:TrackPointExtension>
            <ns3:atemp>14.0</ns3:atemp>
            <ns3:hr>135</ns3:hr>
          </ns3:TrackPointExtension>
        </extensions>
      </trkpt>
      <trkpt lat="-22.01308292336761951446533203125" lon="166.45394266583025455474853515625">
        <ele>854.20001220703125</ele>
        <time>2016-08-12T20:08:24.000Z</time>
        <extensions>
          <ns3:TrackPointExtension>
            <ns3:atemp>14.0</ns3:atemp>
            <ns3:hr>136</ns3:hr>
          </ns3:TrackPointExtension>
        </extensions>
      </trkpt>
      <trkpt lat="-22.0130820013582706451416015625" lon="166.45391467027366161346435546875">
        <ele>854.20001220703125</ele>
        <time>2016-08-12T20:08:25.000Z</time>
        <extensions>
          <ns3:TrackPointExtension>
            <ns3:atemp>14.0</ns3:atemp>
            <ns3:hr>136</ns3:hr>
          </ns3:TrackPointExtension>
        </extensions>
      </trkpt>
      <trkpt lat="-22.013082168996334075927734375" lon="166.4538882672786712646484375">
        <ele>854</ele>
        <time>2016-08-12T20:08:26.000Z</time>
        <extensions>
          <ns3:TrackPointExtension>
            <ns3:atemp>14.0</ns3:atemp>
            <ns3:hr>136</ns3:hr>
          </ns3:TrackPointExtension>
        </extensions>
      </trkpt>
      <trkpt lat="-22.01308309100568294525146484375" lon="166.4538636244833469390869140625">
        <ele>854</ele>
        <time>2016-08-12T20:08:27.000Z</time>
        <extensions>
          <ns3:TrackPointExtension>
            <ns3:atemp>14.0</ns3:atemp>
            <ns3:hr>136</ns3:hr>
          </ns3:TrackPointExtension>
        </extensions>
      </trkpt>
      <trkpt lat="-22.01308141462504863739013671875" lon="166.453835628926753997802734375">
        <ele>854</ele>
        <time>2016-08-12T20:08:28.000Z</time>
        <extensions>
          <ns3:TrackPointExtension>
            <ns3:atemp>14.0</ns3:atemp>
            <ns3:hr>136</ns3:hr>
          </ns3:TrackPointExtension>
        </extensions>
      </trkpt>
      <trkpt lat="-22.01307588256895542144775390625" lon="166.45381056703627109527587890625">
        <ele>853.5999755859375</ele>
        <time>2016-08-12T20:08:29.000Z</time>
        <extensions>
          <ns3:TrackPointExtension>
            <ns3:atemp>14.0</ns3:atemp>
            <ns3:hr>136</ns3:hr>
          </ns3:TrackPointExtension>
        </extensions>
      </trkpt>
      <trkpt lat="-22.01308275572955608367919921875" lon="166.45378776825964450836181640625">
        <ele>853.4000244140625</ele>
        <time>2016-08-12T20:08:30.000Z</time>
        <extensions>
          <ns3:TrackPointExtension>
            <ns3:atemp>14.0</ns3:atemp>
            <ns3:hr>137</ns3:hr>
          </ns3:TrackPointExtension>
        </extensions>
      </trkpt>
      <trkpt lat="-22.01309599913656711578369140625" lon="166.4537606947124004364013671875">
        <ele>853.20001220703125</ele>
        <time>2016-08-12T20:08:31.000Z</time>
        <extensions>
          <ns3:TrackPointExtension>
            <ns3:atemp>14.0</ns3:atemp>
            <ns3:hr>136</ns3:hr>
          </ns3:TrackPointExtension>
        </extensions>
      </trkpt>
      <trkpt lat="-22.01309398747980594635009765625" lon="166.45373328588902950286865234375">
        <ele>853</ele>
        <time>2016-08-12T20:08:32.000Z</time>
        <extensions>
          <ns3:TrackPointExtension>
            <ns3:atemp>14.0</ns3:atemp>
            <ns3:hr>136</ns3:hr>
          </ns3:TrackPointExtension>
        </extensions>
      </trkpt>
      <trkpt lat="-22.01310303993523120880126953125" lon="166.453709565103054046630859375">
        <ele>852.79998779296875</ele>
        <time>2016-08-12T20:08:33.000Z</time>
        <extensions>
          <ns3:TrackPointExtension>
            <ns3:atemp>14.0</ns3:atemp>
            <ns3:hr>136</ns3:hr>
          </ns3:TrackPointExtension>
        </extensions>
      </trkpt>
      <trkpt lat="-22.0131118409335613250732421875" lon="166.45368500612676143646240234375">
        <ele>852.79998779296875</ele>
        <time>2016-08-12T20:08:34.000Z</time>
        <extensions>
          <ns3:TrackPointExtension>
            <ns3:atemp>14.0</ns3:atemp>
            <ns3:hr>135</ns3:hr>
          </ns3:TrackPointExtension>
        </extensions>
      </trkpt>
      <trkpt lat="-22.013139836490154266357421875" lon="166.45366019569337368011474609375">
        <ele>852.79998779296875</ele>
        <time>2016-08-12T20:08:35.000Z</time>
        <extensions>
          <ns3:TrackPointExtension>
            <ns3:atemp>14.0</ns3:atemp>
            <ns3:hr>134</ns3:hr>
          </ns3:TrackPointExtension>
        </extensions>
      </trkpt>
      <trkpt lat="-22.0131567679345607757568359375" lon="166.45363555289804935455322265625">
        <ele>852.5999755859375</ele>
        <time>2016-08-12T20:08:36.000Z</time>
        <extensions>
          <ns3:TrackPointExtension>
            <ns3:atemp>14.0</ns3:atemp>
            <ns3:hr>134</ns3:hr>
          </ns3:TrackPointExtension>
        </extensions>
      </trkpt>
      <trkpt lat="-22.01315768994390964508056640625" lon="166.45361174829304218292236328125">
        <ele>852.4000244140625</ele>
        <time>2016-08-12T20:08:37.000Z</time>
        <extensions>
          <ns3:TrackPointExtension>
            <ns3:atemp>14.0</ns3:atemp>
            <ns3:hr>133</ns3:hr>
          </ns3:TrackPointExtension>
        </extensions>
      </trkpt>
      <trkpt lat="-22.0131611265242099761962890625" lon="166.45358718931674957275390625">
        <ele>852.20001220703125</ele>
        <time>2016-08-12T20:08:38.000Z</time>
        <extensions>
          <ns3:TrackPointExtension>
            <ns3:atemp>14.0</ns3:atemp>
            <ns3:hr>133</ns3:hr>
          </ns3:TrackPointExtension>
        </extensions>
      </trkpt>
      <trkpt lat="-22.01316858641803264617919921875" lon="166.453563384711742401123046875">
        <ele>852.20001220703125</ele>
        <time>2016-08-12T20:08:39.000Z</time>
        <extensions>
          <ns3:TrackPointExtension>
            <ns3:atemp>14.0</ns3:atemp>
            <ns3:hr>133</ns3:hr>
          </ns3:TrackPointExtension>
        </extensions>
      </trkpt>
      <trkpt lat="-22.013174034655094146728515625" lon="166.45354159176349639892578125">
        <ele>852</ele>
        <time>2016-08-12T20:08:40.000Z</time>
        <extensions>
          <ns3:TrackPointExtension>
            <ns3:atemp>14.0</ns3:atemp>
            <ns3:hr>133</ns3:hr>
          </ns3:TrackPointExtension>
        </extensions>
      </trkpt>
      <trkpt lat="-22.0131768845021724700927734375" lon="166.45351787097752094268798828125">
        <ele>852</ele>
        <time>2016-08-12T20:08:41.000Z</time>
        <extensions>
          <ns3:TrackPointExtension>
            <ns3:atemp>14.0</ns3:atemp>
            <ns3:hr>132</ns3:hr>
          </ns3:TrackPointExtension>
        </extensions>
      </trkpt>
      <trkpt lat="-22.01318182982504367828369140625" lon="166.453493647277355194091796875">
        <ele>851.79998779296875</ele>
        <time>2016-08-12T20:08:42.000Z</time>
        <extensions>
          <ns3:TrackPointExtension>
            <ns3:atemp>14.0</ns3:atemp>
            <ns3:hr>132</ns3:hr>
          </ns3:TrackPointExtension>
        </extensions>
      </trkpt>
      <trkpt lat="-22.0131943188607692718505859375" lon="166.4534703455865383148193359375">
        <ele>851.5999755859375</ele>
        <time>2016-08-12T20:08:43.000Z</time>
        <extensions>
          <ns3:TrackPointExtension>
            <ns3:atemp>14.0</ns3:atemp>
            <ns3:hr>132</ns3:hr>
          </ns3:TrackPointExtension>
        </extensions>
      </trkpt>
      <trkpt lat="-22.01319859363138675689697265625" lon="166.45344545133411884307861328125">
        <ele>851.5999755859375</ele>
        <time>2016-08-12T20:08:44.000Z</time>
        <extensions>
          <ns3:TrackPointExtension>
            <ns3:atemp>14.0</ns3:atemp>
            <ns3:hr>131</ns3:hr>
          </ns3:TrackPointExtension>
        </extensions>
      </trkpt>
      <trkpt lat="-22.0132050476968288421630859375" lon="166.45342231728136539459228515625">
        <ele>851.4000244140625</ele>
        <time>2016-08-12T20:08:45.000Z</time>
        <extensions>
          <ns3:TrackPointExtension>
            <ns3:atemp>14.0</ns3:atemp>
            <ns3:hr>131</ns3:hr>
          </ns3:TrackPointExtension>
        </extensions>
      </trkpt>
      <trkpt lat="-22.0132067240774631500244140625" lon="166.45339767448604106903076171875">
        <ele>851.4000244140625</ele>
        <time>2016-08-12T20:08:46.000Z</time>
        <extensions>
          <ns3:TrackPointExtension>
            <ns3:atemp>14.0</ns3:atemp>
            <ns3:hr>131</ns3:hr>
          </ns3:TrackPointExtension>
        </extensions>
      </trkpt>
      <trkpt lat="-22.0132057182490825653076171875" lon="166.4533697627484798431396484375">
        <ele>851.5999755859375</ele>
        <time>2016-08-12T20:08:47.000Z</time>
        <extensions>
          <ns3:TrackPointExtension>
            <ns3:atemp>14.0</ns3:atemp>
            <ns3:hr>130</ns3:hr>
          </ns3:TrackPointExtension>
        </extensions>
      </trkpt>
      <trkpt lat="-22.01320898719131946563720703125" lon="166.4533429406583309173583984375">
        <ele>851.4000244140625</ele>
        <time>2016-08-12T20:08:48.000Z</time>
        <extensions>
          <ns3:TrackPointExtension>
            <ns3:atemp>14.0</ns3:atemp>
            <ns3:hr>130</ns3:hr>
          </ns3:TrackPointExtension>
        </extensions>
      </trkpt>
      <trkpt lat="-22.01322130858898162841796875" lon="166.4533157832920551300048828125">
        <ele>851.20001220703125</ele>
        <time>2016-08-12T20:08:49.000Z</time>
        <extensions>
          <ns3:TrackPointExtension>
            <ns3:atemp>14.0</ns3:atemp>
            <ns3:hr>130</ns3:hr>
          </ns3:TrackPointExtension>
        </extensions>
      </trkpt>
      <trkpt lat="-22.01322658918797969818115234375" lon="166.45328720100224018096923828125">
        <ele>851.20001220703125</ele>
        <time>2016-08-12T20:08:50.000Z</time>
        <extensions>
          <ns3:TrackPointExtension>
            <ns3:atemp>14.0</ns3:atemp>
            <ns3:hr>129</ns3:hr>
          </ns3:TrackPointExtension>
        </extensions>
      </trkpt>
      <trkpt lat="-22.01322943903505802154541015625" lon="166.4532611332833766937255859375">
        <ele>851.20001220703125</ele>
        <time>2016-08-12T20:08:51.000Z</time>
        <extensions>
          <ns3:TrackPointExtension>
            <ns3:atemp>14.0</ns3:atemp>
            <ns3:hr>129</ns3:hr>
          </ns3:TrackPointExtension>
        </extensions>
      </trkpt>
      <trkpt lat="-22.01322709210216999053955078125" lon="166.453232802450656890869140625">
        <ele>851.20001220703125</ele>
        <time>2016-08-12T20:08:52.000Z</time>
        <extensions>
          <ns3:TrackPointExtension>
            <ns3:atemp>14.0</ns3:atemp>
            <ns3:hr>129</ns3:hr>
          </ns3:TrackPointExtension>
        </extensions>
      </trkpt>
      <trkpt lat="-22.0132281817495822906494140625" lon="166.45320363342761993408203125">
        <ele>851.4000244140625</ele>
        <time>2016-08-12T20:08:53.000Z</time>
        <extensions>
          <ns3:TrackPointExtension>
            <ns3:atemp>14.0</ns3:atemp>
            <ns3:hr>129</ns3:hr>
          </ns3:TrackPointExtension>
        </extensions>
      </trkpt>
      <trkpt lat="-22.01322390697896480560302734375" lon="166.4531783200800418853759765625">
        <ele>851.4000244140625</ele>
        <time>2016-08-12T20:08:54.000Z</time>
        <extensions>
          <ns3:TrackPointExtension>
            <ns3:atemp>14.0</ns3:atemp>
            <ns3:hr>128</ns3:hr>
          </ns3:TrackPointExtension>
        </extensions>
      </trkpt>
      <trkpt lat="-22.01322005130350589752197265625" lon="166.4531518332660198211669921875">
        <ele>851.4000244140625</ele>
        <time>2016-08-12T20:08:55.000Z</time>
        <extensions>
          <ns3:TrackPointExtension>
            <ns3:atemp>14.0</ns3:atemp>
            <ns3:hr>128</ns3:hr>
          </ns3:TrackPointExtension>
        </extensions>
      </trkpt>
      <trkpt lat="-22.01322172768414020538330078125" lon="166.45312710665166378021240234375">
        <ele>851.4000244140625</ele>
        <time>2016-08-12T20:08:56.000Z</time>
        <extensions>
          <ns3:TrackPointExtension>
            <ns3:atemp>14.0</ns3:atemp>
            <ns3:hr>128</ns3:hr>
          </ns3:TrackPointExtension>
        </extensions>
      </trkpt>
      <trkpt lat="-22.0132271759212017059326171875" lon="166.453104056417942047119140625">
        <ele>851.20001220703125</ele>
        <time>2016-08-12T20:08:57.000Z</time>
        <extensions>
          <ns3:TrackPointExtension>
            <ns3:atemp>14.0</ns3:atemp>
            <ns3:hr>129</ns3:hr>
          </ns3:TrackPointExtension>
        </extensions>
      </trkpt>
      <trkpt lat="-22.0132258348166942596435546875" lon="166.45308159291744232177734375">
        <ele>851</ele>
        <time>2016-08-12T20:08:58.000Z</time>
        <extensions>
          <ns3:TrackPointExtension>
            <ns3:atemp>14.0</ns3:atemp>
            <ns3:hr>128</ns3:hr>
          </ns3:TrackPointExtension>
        </extensions>
      </trkpt>
      <trkpt lat="-22.0132315345108509063720703125" lon="166.4530582912266254425048828125">
        <ele>851.20001220703125</ele>
        <time>2016-08-12T20:08:59.000Z</time>
        <extensions>
          <ns3:TrackPointExtension>
            <ns3:atemp>14.0</ns3:atemp>
            <ns3:hr>129</ns3:hr>
          </ns3:TrackPointExtension>
        </extensions>
      </trkpt>
      <trkpt lat="-22.01323396526277065277099609375" lon="166.4530324749648571014404296875">
        <ele>851.20001220703125</ele>
        <time>2016-08-12T20:09:00.000Z</time>
        <extensions>
          <ns3:TrackPointExtension>
            <ns3:atemp>14.0</ns3:atemp>
            <ns3:hr>128</ns3:hr>
          </ns3:TrackPointExtension>
        </extensions>
      </trkpt>
      <trkpt lat="-22.0132224820554256439208984375" lon="166.453003473579883575439453125">
        <ele>851</ele>
        <time>2016-08-12T20:09:01.000Z</time>
        <extensions>
          <ns3:TrackPointExtension>
            <ns3:atemp>14.0</ns3:atemp>
            <ns3:hr>128</ns3:hr>
          </ns3:TrackPointExtension>
        </extensions>
      </trkpt>
      <trkpt lat="-22.01321326196193695068359375" lon="166.45297556184232234954833984375">
        <ele>851</ele>
        <time>2016-08-12T20:09:02.000Z</time>
        <extensions>
          <ns3:TrackPointExtension>
            <ns3:atemp>14.0</ns3:atemp>
            <ns3:hr>129</ns3:hr>
          </ns3:TrackPointExtension>
        </extensions>
      </trkpt>
      <trkpt lat="-22.0131966657936573028564453125" lon="166.45295460708439350128173828125">
        <ele>851.20001220703125</ele>
        <time>2016-08-12T20:09:03.000Z</time>
        <extensions>
          <ns3:TrackPointExtension>
            <ns3:atemp>14.0</ns3:atemp>
            <ns3:hr>128</ns3:hr>
          </ns3:TrackPointExtension>
        </extensions>
      </trkpt>
      <trkpt lat="-22.0131775550544261932373046875" lon="166.45293666981160640716552734375">
        <ele>851</ele>
        <time>2016-08-12T20:09:04.000Z</time>
        <extensions>
          <ns3:TrackPointExtension>
            <ns3:atemp>14.0</ns3:atemp>
            <ns3:hr>128</ns3:hr>
          </ns3:TrackPointExtension>
        </extensions>
      </trkpt>
      <trkpt lat="-22.0131614618003368377685546875" lon="166.4529157988727092742919921875">
        <ele>851.20001220703125</ele>
        <time>2016-08-12T20:09:05.000Z</time>
        <extensions>
          <ns3:TrackPointExtension>
            <ns3:atemp>14.0</ns3:atemp>
            <ns3:hr>129</ns3:hr>
          </ns3:TrackPointExtension>
        </extensions>
      </trkpt>
      <trkpt lat="-22.013145871460437774658203125" lon="166.45289341919124126434326171875">
        <ele>851.20001220703125</ele>
        <time>2016-08-12T20:09:06.000Z</time>
        <extensions>
          <ns3:TrackPointExtension>
            <ns3:atemp>14.0</ns3:atemp>
            <ns3:hr>129</ns3:hr>
          </ns3:TrackPointExtension>
        </extensions>
      </trkpt>
      <trkpt lat="-22.01313086785376071929931640625" lon="166.4528688602149486541748046875">
        <ele>851.20001220703125</ele>
        <time>2016-08-12T20:09:07.000Z</time>
        <extensions>
          <ns3:TrackPointExtension>
            <ns3:atemp>14.0</ns3:atemp>
            <ns3:hr>129</ns3:hr>
          </ns3:TrackPointExtension>
        </extensions>
      </trkpt>
      <trkpt lat="-22.0131188817322254180908203125" lon="166.4528453908860683441162109375">
        <ele>851.20001220703125</ele>
        <time>2016-08-12T20:09:08.000Z</time>
        <extensions>
          <ns3:TrackPointExtension>
            <ns3:atemp>14.0</ns3:atemp>
            <ns3:hr>129</ns3:hr>
          </ns3:TrackPointExtension>
        </extensions>
      </trkpt>
      <trkpt lat="-22.0131031237542629241943359375" lon="166.45282301120460033416748046875">
        <ele>851.5999755859375</ele>
        <time>2016-08-12T20:09:09.000Z</time>
        <extensions>
          <ns3:TrackPointExtension>
            <ns3:atemp>14.0</ns3:atemp>
            <ns3:hr>129</ns3:hr>
          </ns3:TrackPointExtension>
        </extensions>
      </trkpt>
      <trkpt lat="-22.01309381984174251556396484375" lon="166.45279920659959316253662109375">
        <ele>851.4000244140625</ele>
        <time>2016-08-12T20:09:10.000Z</time>
        <extensions>
          <ns3:TrackPointExtension>
            <ns3:atemp>14.0</ns3:atemp>
            <ns3:hr>129</ns3:hr>
          </ns3:TrackPointExtension>
        </extensions>
      </trkpt>
      <trkpt lat="-22.01309113763272762298583984375" lon="166.45277154631912708282470703125">
        <ele>851.4000244140625</ele>
        <time>2016-08-12T20:09:11.000Z</time>
        <extensions>
          <ns3:TrackPointExtension>
            <ns3:atemp>14.0</ns3:atemp>
            <ns3:hr>130</ns3:hr>
          </ns3:TrackPointExtension>
        </extensions>
      </trkpt>
      <trkpt lat="-22.01308342628180980682373046875" lon="166.45274204201996326446533203125">
        <ele>851.79998779296875</ele>
        <time>2016-08-12T20:09:12.000Z</time>
        <extensions>
          <ns3:TrackPointExtension>
            <ns3:atemp>14.0</ns3:atemp>
            <ns3:hr>130</ns3:hr>
          </ns3:TrackPointExtension>
        </extensions>
      </trkpt>
      <trkpt lat="-22.01307068578898906707763671875" lon="166.452717147767543792724609375">
        <ele>851.5999755859375</ele>
        <time>2016-08-12T20:09:13.000Z</time>
        <extensions>
          <ns3:TrackPointExtension>
            <ns3:atemp>14.0</ns3:atemp>
            <ns3:hr>130</ns3:hr>
          </ns3:TrackPointExtension>
        </extensions>
      </trkpt>
      <trkpt lat="-22.01305023394525051116943359375" lon="166.45269828848540782928466796875">
        <ele>851.4000244140625</ele>
        <time>2016-08-12T20:09:14.000Z</time>
        <extensions>
          <ns3:TrackPointExtension>
            <ns3:atemp>14.0</ns3:atemp>
            <ns3:hr>131</ns3:hr>
          </ns3:TrackPointExtension>
        </extensions>
      </trkpt>
      <trkpt lat="-22.01302877627313137054443359375" lon="166.45267817191779613494873046875">
        <ele>851.5999755859375</ele>
        <time>2016-08-12T20:09:15.000Z</time>
        <extensions>
          <ns3:TrackPointExtension>
            <ns3:atemp>14.0</ns3:atemp>
            <ns3:hr>131</ns3:hr>
          </ns3:TrackPointExtension>
        </extensions>
      </trkpt>
      <trkpt lat="-22.01301067136228084564208984375" lon="166.45265587605535984039306640625">
        <ele>851.5999755859375</ele>
        <time>2016-08-12T20:09:16.000Z</time>
        <extensions>
          <ns3:TrackPointExtension>
            <ns3:atemp>14.0</ns3:atemp>
            <ns3:hr>131</ns3:hr>
          </ns3:TrackPointExtension>
        </extensions>
      </trkpt>
      <trkpt lat="-22.01299172826111316680908203125" lon="166.452634334564208984375">
        <ele>851.4000244140625</ele>
        <time>2016-08-12T20:09:17.000Z</time>
        <extensions>
          <ns3:TrackPointExtension>
            <ns3:atemp>14.0</ns3:atemp>
            <ns3:hr>131</ns3:hr>
          </ns3:TrackPointExtension>
        </extensions>
      </trkpt>
      <trkpt lat="-22.012973539531230926513671875" lon="166.45261379890143871307373046875">
        <ele>851.20001220703125</ele>
        <time>2016-08-12T20:09:18.000Z</time>
        <extensions>
          <ns3:TrackPointExtension>
            <ns3:atemp>14.0</ns3:atemp>
            <ns3:hr>131</ns3:hr>
          </ns3:TrackPointExtension>
        </extensions>
      </trkpt>
      <trkpt lat="-22.01295484788715839385986328125" lon="166.452595777809619903564453125">
        <ele>851.4000244140625</ele>
        <time>2016-08-12T20:09:19.000Z</time>
        <extensions>
          <ns3:TrackPointExtension>
            <ns3:atemp>14.0</ns3:atemp>
            <ns3:hr>131</ns3:hr>
          </ns3:TrackPointExtension>
        </extensions>
      </trkpt>
      <trkpt lat="-22.01293833553791046142578125" lon="166.45257591269910335540771484375">
        <ele>851.4000244140625</ele>
        <time>2016-08-12T20:09:20.000Z</time>
        <extensions>
          <ns3:TrackPointExtension>
            <ns3:atemp>14.0</ns3:atemp>
            <ns3:hr>131</ns3:hr>
          </ns3:TrackPointExtension>
        </extensions>
      </trkpt>
      <trkpt lat="-22.01292534358799457550048828125" lon="166.45255663432180881500244140625">
        <ele>851.20001220703125</ele>
        <time>2016-08-12T20:09:21.000Z</time>
        <extensions>
          <ns3:TrackPointExtension>
            <ns3:atemp>14.0</ns3:atemp>
            <ns3:hr>131</ns3:hr>
          </ns3:TrackPointExtension>
        </extensions>
      </trkpt>
      <trkpt lat="-22.0129150338470935821533203125" lon="166.452534087002277374267578125">
        <ele>851.20001220703125</ele>
        <time>2016-08-12T20:09:22.000Z</time>
        <extensions>
          <ns3:TrackPointExtension>
            <ns3:atemp>14.0</ns3:atemp>
            <ns3:hr>131</ns3:hr>
          </ns3:TrackPointExtension>
        </extensions>
      </trkpt>
      <trkpt lat="-22.01290522702038288116455078125" lon="166.45250718109309673309326171875">
        <ele>851.4000244140625</ele>
        <time>2016-08-12T20:09:23.000Z</time>
        <extensions>
          <ns3:TrackPointExtension>
            <ns3:atemp>14.0</ns3:atemp>
            <ns3:hr>131</ns3:hr>
          </ns3:TrackPointExtension>
        </extensions>
      </trkpt>
      <trkpt lat="-22.0128979347646236419677734375" lon="166.452481113374233245849609375">
        <ele>851.20001220703125</ele>
        <time>2016-08-12T20:09:24.000Z</time>
        <extensions>
          <ns3:TrackPointExtension>
            <ns3:atemp>14.0</ns3:atemp>
            <ns3:hr>132</ns3:hr>
          </ns3:TrackPointExtension>
        </extensions>
      </trkpt>
      <trkpt lat="-22.01289081014692783355712890625" lon="166.452452950179576873779296875">
        <ele>851</ele>
        <time>2016-08-12T20:09:25.000Z</time>
        <extensions>
          <ns3:TrackPointExtension>
            <ns3:atemp>14.0</ns3:atemp>
            <ns3:hr>132</ns3:hr>
          </ns3:TrackPointExtension>
        </extensions>
      </trkpt>
      <trkpt lat="-22.01288645155727863311767578125" lon="166.45242302678525447845458984375">
        <ele>851.20001220703125</ele>
        <time>2016-08-12T20:09:26.000Z</time>
        <extensions>
          <ns3:TrackPointExtension>
            <ns3:atemp>14.0</ns3:atemp>
            <ns3:hr>131</ns3:hr>
          </ns3:TrackPointExtension>
        </extensions>
      </trkpt>
      <trkpt lat="-22.0128821767866611480712890625" lon="166.4523964561522006988525390625">
        <ele>851</ele>
        <time>2016-08-12T20:09:27.000Z</time>
        <extensions>
          <ns3:TrackPointExtension>
            <ns3:atemp>14.0</ns3:atemp>
            <ns3:hr>132</ns3:hr>
          </ns3:TrackPointExtension>
        </extensions>
      </trkpt>
      <trkpt lat="-22.01287069357931613922119140625" lon="166.4523716457188129425048828125">
        <ele>850.79998779296875</ele>
        <time>2016-08-12T20:09:28.000Z</time>
        <extensions>
          <ns3:TrackPointExtension>
            <ns3:atemp>14.0</ns3:atemp>
            <ns3:hr>131</ns3:hr>
          </ns3:TrackPointExtension>
        </extensions>
      </trkpt>
      <trkpt lat="-22.01285476796329021453857421875" lon="166.4523498527705669403076171875">
        <ele>851</ele>
        <time>2016-08-12T20:09:29.000Z</time>
        <extensions>
          <ns3:TrackPointExtension>
            <ns3:atemp>14.0</ns3:atemp>
            <ns3:hr>132</ns3:hr>
          </ns3:TrackPointExtension>
        </extensions>
      </trkpt>
      <trkpt lat="-22.01284001581370830535888671875" lon="166.45232655107975006103515625">
        <ele>851</ele>
        <time>2016-08-12T20:09:30.000Z</time>
        <extensions>
          <ns3:TrackPointExtension>
            <ns3:atemp>14.0</ns3:atemp>
            <ns3:hr>132</ns3:hr>
          </ns3:TrackPointExtension>
        </extensions>
      </trkpt>
      <trkpt lat="-22.0128288678824901580810546875" lon="166.45230182446539402008056640625">
        <ele>850.5999755859375</ele>
        <time>2016-08-12T20:09:31.000Z</time>
        <extensions>
          <ns3:TrackPointExtension>
            <ns3:atemp>14.0</ns3:atemp>
            <ns3:hr>132</ns3:hr>
          </ns3:TrackPointExtension>
        </extensions>
      </trkpt>
      <trkpt lat="-22.012824006378650665283203125" lon="166.4522791095077991485595703125">
        <ele>850.4000244140625</ele>
        <time>2016-08-12T20:09:32.000Z</time>
        <extensions>
          <ns3:TrackPointExtension>
            <ns3:atemp>14.0</ns3:atemp>
            <ns3:hr>132</ns3:hr>
          </ns3:TrackPointExtension>
        </extensions>
      </trkpt>
      <trkpt lat="-22.0128221623599529266357421875" lon="166.452256143093109130859375">
        <ele>850.79998779296875</ele>
        <time>2016-08-12T20:09:33.000Z</time>
        <extensions>
          <ns3:TrackPointExtension>
            <ns3:atemp>14.0</ns3:atemp>
            <ns3:hr>132</ns3:hr>
          </ns3:TrackPointExtension>
        </extensions>
      </trkpt>
      <trkpt lat="-22.0128221623599529266357421875" lon="166.45223141647875308990478515625">
        <ele>850.79998779296875</ele>
        <time>2016-08-12T20:09:34.000Z</time>
        <extensions>
          <ns3:TrackPointExtension>
            <ns3:atemp>14.0</ns3:atemp>
            <ns3:hr>132</ns3:hr>
          </ns3:TrackPointExtension>
        </extensions>
      </trkpt>
      <trkpt lat="-22.0128218270838260650634765625" lon="166.4522070251405239105224609375">
        <ele>850.79998779296875</ele>
        <time>2016-08-12T20:09:35.000Z</time>
        <extensions>
          <ns3:TrackPointExtension>
            <ns3:atemp>14.0</ns3:atemp>
            <ns3:hr>132</ns3:hr>
          </ns3:TrackPointExtension>
        </extensions>
      </trkpt>
      <trkpt lat="-22.01282165944576263427734375" lon="166.4521788619458675384521484375">
        <ele>850.79998779296875</ele>
        <time>2016-08-12T20:09:36.000Z</time>
        <extensions>
          <ns3:TrackPointExtension>
            <ns3:atemp>14.0</ns3:atemp>
            <ns3:hr>132</ns3:hr>
          </ns3:TrackPointExtension>
        </extensions>
      </trkpt>
      <trkpt lat="-22.0128201507031917572021484375" lon="166.45215086638927459716796875">
        <ele>850.79998779296875</ele>
        <time>2016-08-12T20:09:37.000Z</time>
        <extensions>
          <ns3:TrackPointExtension>
            <ns3:atemp>14.0</ns3:atemp>
            <ns3:hr>132</ns3:hr>
          </ns3:TrackPointExtension>
        </extensions>
      </trkpt>
      <trkpt lat="-22.01282031834125518798828125" lon="166.45212597213685512542724609375">
        <ele>850.5999755859375</ele>
        <time>2016-08-12T20:09:38.000Z</time>
        <extensions>
          <ns3:TrackPointExtension>
            <ns3:atemp>14.0</ns3:atemp>
            <ns3:hr>132</ns3:hr>
          </ns3:TrackPointExtension>
        </extensions>
      </trkpt>
      <trkpt lat="-22.0128154568374156951904296875" lon="166.4520980603992938995361328125">
        <ele>850.79998779296875</ele>
        <time>2016-08-12T20:09:39.000Z</time>
        <extensions>
          <ns3:TrackPointExtension>
            <ns3:atemp>14.0</ns3:atemp>
            <ns3:hr>132</ns3:hr>
          </ns3:TrackPointExtension>
        </extensions>
      </trkpt>
      <trkpt lat="-22.01280816458165645599365234375" lon="166.4520729146897792816162109375">
        <ele>851</ele>
        <time>2016-08-12T20:09:40.000Z</time>
        <extensions>
          <ns3:TrackPointExtension>
            <ns3:atemp>14.0</ns3:atemp>
            <ns3:hr>132</ns3:hr>
          </ns3:TrackPointExtension>
        </extensions>
      </trkpt>
      <trkpt lat="-22.01279911212623119354248046875" lon="166.4520509541034698486328125">
        <ele>850.5999755859375</ele>
        <time>2016-08-12T20:09:41.000Z</time>
        <extensions>
          <ns3:TrackPointExtension>
            <ns3:atemp>14.0</ns3:atemp>
            <ns3:hr>132</ns3:hr>
          </ns3:TrackPointExtension>
        </extensions>
      </trkpt>
      <trkpt lat="-22.01278687454760074615478515625" lon="166.45202756859362125396728515625">
        <ele>850.5999755859375</ele>
        <time>2016-08-12T20:09:42.000Z</time>
        <extensions>
          <ns3:TrackPointExtension>
            <ns3:atemp>14.0</ns3:atemp>
            <ns3:hr>133</ns3:hr>
          </ns3:TrackPointExtension>
        </extensions>
      </trkpt>
      <trkpt lat="-22.0127789117395877838134765625" lon="166.45200326107442378997802734375">
        <ele>850.79998779296875</ele>
        <time>2016-08-12T20:09:43.000Z</time>
        <extensions>
          <ns3:TrackPointExtension>
            <ns3:atemp>14.0</ns3:atemp>
            <ns3:hr>133</ns3:hr>
          </ns3:TrackPointExtension>
        </extensions>
      </trkpt>
      <trkpt lat="-22.01277069747447967529296875" lon="166.451978869736194610595703125">
        <ele>850.79998779296875</ele>
        <time>2016-08-12T20:09:44.000Z</time>
        <extensions>
          <ns3:TrackPointExtension>
            <ns3:atemp>14.0</ns3:atemp>
            <ns3:hr>132</ns3:hr>
          </ns3:TrackPointExtension>
        </extensions>
      </trkpt>
      <trkpt lat="-22.01275804080069065093994140625" lon="166.451954729855060577392578125">
        <ele>850.5999755859375</ele>
        <time>2016-08-12T20:09:45.000Z</time>
        <extensions>
          <ns3:TrackPointExtension>
            <ns3:atemp>14.0</ns3:atemp>
            <ns3:hr>132</ns3:hr>
          </ns3:TrackPointExtension>
        </extensions>
      </trkpt>
      <trkpt lat="-22.012743540108203887939453125" lon="166.4519337750971317291259765625">
        <ele>850.79998779296875</ele>
        <time>2016-08-12T20:09:46.000Z</time>
        <extensions>
          <ns3:TrackPointExtension>
            <ns3:atemp>14.0</ns3:atemp>
            <ns3:hr>132</ns3:hr>
          </ns3:TrackPointExtension>
        </extensions>
      </trkpt>
      <trkpt lat="-22.01272451318800449371337890625" lon="166.45191525109112262725830078125">
        <ele>850.79998779296875</ele>
        <time>2016-08-12T20:09:47.000Z</time>
        <extensions>
          <ns3:TrackPointExtension>
            <ns3:atemp>14.0</ns3:atemp>
            <ns3:hr>132</ns3:hr>
          </ns3:TrackPointExtension>
        </extensions>
      </trkpt>
      <trkpt lat="-22.01270766556262969970703125" lon="166.4518982358276844024658203125">
        <ele>850.5999755859375</ele>
        <time>2016-08-12T20:09:48.000Z</time>
        <extensions>
          <ns3:TrackPointExtension>
            <ns3:atemp>14.0</ns3:atemp>
            <ns3:hr>132</ns3:hr>
          </ns3:TrackPointExtension>
        </extensions>
      </trkpt>
      <trkpt lat="-22.012687884271144866943359375" lon="166.45188323222100734710693359375">
        <ele>850.79998779296875</ele>
        <time>2016-08-12T20:09:49.000Z</time>
        <extensions>
          <ns3:TrackPointExtension>
            <ns3:atemp>14.0</ns3:atemp>
            <ns3:hr>132</ns3:hr>
          </ns3:TrackPointExtension>
        </extensions>
      </trkpt>
      <trkpt lat="-22.01267204247415065765380859375" lon="166.451859511435031890869140625">
        <ele>851</ele>
        <time>2016-08-12T20:09:50.000Z</time>
        <extensions>
          <ns3:TrackPointExtension>
            <ns3:atemp>14.0</ns3:atemp>
            <ns3:hr>132</ns3:hr>
          </ns3:TrackPointExtension>
        </extensions>
      </trkpt>
      <trkpt lat="-22.0126595534384250640869140625" lon="166.45183461718261241912841796875">
        <ele>850.79998779296875</ele>
        <time>2016-08-12T20:09:51.000Z</time>
        <extensions>
          <ns3:TrackPointExtension>
            <ns3:atemp>14.0</ns3:atemp>
            <ns3:hr>133</ns3:hr>
          </ns3:TrackPointExtension>
        </extensions>
      </trkpt>
      <trkpt lat="-22.012651003897190093994140625" lon="166.45180754363536834716796875">
        <ele>850.79998779296875</ele>
        <time>2016-08-12T20:09:52.000Z</time>
        <extensions>
          <ns3:TrackPointExtension>
            <ns3:atemp>14.0</ns3:atemp>
            <ns3:hr>132</ns3:hr>
          </ns3:TrackPointExtension>
        </extensions>
      </trkpt>
      <trkpt lat="-22.01263767667114734649658203125" lon="166.45178130827844142913818359375">
        <ele>850.79998779296875</ele>
        <time>2016-08-12T20:09:53.000Z</time>
        <extensions>
          <ns3:TrackPointExtension>
            <ns3:atemp>14.0</ns3:atemp>
            <ns3:hr>132</ns3:hr>
          </ns3:TrackPointExtension>
        </extensions>
      </trkpt>
      <trkpt lat="-22.01262694783508777618408203125" lon="166.45175733603537082672119140625">
        <ele>851.20001220703125</ele>
        <time>2016-08-12T20:09:54.000Z</time>
        <extensions>
          <ns3:TrackPointExtension>
            <ns3:atemp>14.0</ns3:atemp>
            <ns3:hr>132</ns3:hr>
          </ns3:TrackPointExtension>
        </extensions>
      </trkpt>
      <trkpt lat="-22.01261269859969615936279296875" lon="166.4517366327345371246337890625">
        <ele>851.20001220703125</ele>
        <time>2016-08-12T20:09:55.000Z</time>
        <extensions>
          <ns3:TrackPointExtension>
            <ns3:atemp>14.0</ns3:atemp>
            <ns3:hr>132</ns3:hr>
          </ns3:TrackPointExtension>
        </extensions>
      </trkpt>
      <trkpt lat="-22.01259174384176731109619140625" lon="166.45171727053821086883544921875">
        <ele>851</ele>
        <time>2016-08-12T20:09:56.000Z</time>
        <extensions>
          <ns3:TrackPointExtension>
            <ns3:atemp>14.0</ns3:atemp>
            <ns3:hr>133</ns3:hr>
          </ns3:TrackPointExtension>
        </extensions>
      </trkpt>
      <trkpt lat="-22.012571208178997039794921875" lon="166.45170285366475582122802734375">
        <ele>851</ele>
        <time>2016-08-12T20:09:57.000Z</time>
        <extensions>
          <ns3:TrackPointExtension>
            <ns3:atemp>14.0</ns3:atemp>
            <ns3:hr>133</ns3:hr>
          </ns3:TrackPointExtension>
        </extensions>
      </trkpt>
      <trkpt lat="-22.01255804859101772308349609375" lon="166.45168189890682697296142578125">
        <ele>851</ele>
        <time>2016-08-12T20:09:58.000Z</time>
        <extensions>
          <ns3:TrackPointExtension>
            <ns3:atemp>14.0</ns3:atemp>
            <ns3:hr>132</ns3:hr>
          </ns3:TrackPointExtension>
        </extensions>
      </trkpt>
      <trkpt lat="-22.01254664920270442962646484375" lon="166.45165792666375637054443359375">
        <ele>850.79998779296875</ele>
        <time>2016-08-12T20:09:59.000Z</time>
        <extensions>
          <ns3:TrackPointExtension>
            <ns3:atemp>14.0</ns3:atemp>
            <ns3:hr>132</ns3:hr>
          </ns3:TrackPointExtension>
        </extensions>
      </trkpt>
      <trkpt lat="-22.012541033327579498291015625" lon="166.45163479261100292205810546875">
        <ele>850.79998779296875</ele>
        <time>2016-08-12T20:10:00.000Z</time>
        <extensions>
          <ns3:TrackPointExtension>
            <ns3:atemp>14.0</ns3:atemp>
            <ns3:hr>132</ns3:hr>
          </ns3:TrackPointExtension>
        </extensions>
      </trkpt>
      <trkpt lat="-22.01253407634794712066650390625" lon="166.45161132328212261199951171875">
        <ele>850.79998779296875</ele>
        <time>2016-08-12T20:10:01.000Z</time>
        <extensions>
          <ns3:TrackPointExtension>
            <ns3:atemp>14.0</ns3:atemp>
            <ns3:hr>132</ns3:hr>
          </ns3:TrackPointExtension>
        </extensions>
      </trkpt>
      <trkpt lat="-22.01253323815762996673583984375" lon="166.45158818922936916351318359375">
        <ele>850.79998779296875</ele>
        <time>2016-08-12T20:10:02.000Z</time>
        <extensions>
          <ns3:TrackPointExtension>
            <ns3:atemp>14.0</ns3:atemp>
            <ns3:hr>132</ns3:hr>
          </ns3:TrackPointExtension>
        </extensions>
      </trkpt>
      <trkpt lat="-22.012534998357295989990234375" lon="166.45156882703304290771484375">
        <ele>850.5999755859375</ele>
        <time>2016-08-12T20:10:03.000Z</time>
        <extensions>
          <ns3:TrackPointExtension>
            <ns3:atemp>14.0</ns3:atemp>
            <ns3:hr>132</ns3:hr>
          </ns3:TrackPointExtension>
        </extensions>
      </trkpt>
      <trkpt lat="-22.012543715536594390869140625" lon="166.45155139267444610595703125">
        <ele>850.5999755859375</ele>
        <time>2016-08-12T20:10:04.000Z</time>
        <extensions>
          <ns3:TrackPointExtension>
            <ns3:atemp>14.0</ns3:atemp>
            <ns3:hr>132</ns3:hr>
          </ns3:TrackPointExtension>
        </extensions>
      </trkpt>
      <trkpt lat="-22.01255075633525848388671875" lon="166.451532281935214996337890625">
        <ele>850.4000244140625</ele>
        <time>2016-08-12T20:10:05.000Z</time>
        <extensions>
          <ns3:TrackPointExtension>
            <ns3:atemp>14.0</ns3:atemp>
            <ns3:hr>132</ns3:hr>
          </ns3:TrackPointExtension>
        </extensions>
      </trkpt>
      <trkpt lat="-22.01255285181105136871337890625" lon="166.45151275210082530975341796875">
        <ele>850.4000244140625</ele>
        <time>2016-08-12T20:10:06.000Z</time>
        <extensions>
          <ns3:TrackPointExtension>
            <ns3:atemp>14.0</ns3:atemp>
            <ns3:hr>131</ns3:hr>
          </ns3:TrackPointExtension>
        </extensions>
      </trkpt>
      <trkpt lat="-22.01256391592323780059814453125" lon="166.4514930546283721923828125">
        <ele>850.20001220703125</ele>
        <time>2016-08-12T20:10:07.000Z</time>
        <extensions>
          <ns3:TrackPointExtension>
            <ns3:atemp>14.0</ns3:atemp>
            <ns3:hr>131</ns3:hr>
          </ns3:TrackPointExtension>
        </extensions>
      </trkpt>
      <trkpt lat="-22.0125626586377620697021484375" lon="166.451457850635051727294921875">
        <ele>850.20001220703125</ele>
        <time>2016-08-12T20:10:09.000Z</time>
        <extensions>
          <ns3:TrackPointExtension>
            <ns3:atemp>14.0</ns3:atemp>
            <ns3:hr>131</ns3:hr>
          </ns3:TrackPointExtension>
        </extensions>
      </trkpt>
      <trkpt lat="-22.01256215572357177734375" lon="166.4514379017055034637451171875">
        <ele>850</ele>
        <time>2016-08-12T20:10:10.000Z</time>
        <extensions>
          <ns3:TrackPointExtension>
            <ns3:atemp>14.0</ns3:atemp>
            <ns3:hr>130</ns3:hr>
          </ns3:TrackPointExtension>
        </extensions>
      </trkpt>
      <trkpt lat="-22.01255603693425655364990234375" lon="166.451418288052082061767578125">
        <ele>849.79998779296875</ele>
        <time>2016-08-12T20:10:11.000Z</time>
        <extensions>
          <ns3:TrackPointExtension>
            <ns3:atemp>14.0</ns3:atemp>
            <ns3:hr>130</ns3:hr>
          </ns3:TrackPointExtension>
        </extensions>
      </trkpt>
      <trkpt lat="-22.01255251653492450714111328125" lon="166.4513963274657726287841796875">
        <ele>849.79998779296875</ele>
        <time>2016-08-12T20:10:12.000Z</time>
        <extensions>
          <ns3:TrackPointExtension>
            <ns3:atemp>14.0</ns3:atemp>
            <ns3:hr>130</ns3:hr>
          </ns3:TrackPointExtension>
        </extensions>
      </trkpt>
      <trkpt lat="-22.01255067251622676849365234375" lon="166.45137411542236804962158203125">
        <ele>849.4000244140625</ele>
        <time>2016-08-12T20:10:13.000Z</time>
        <extensions>
          <ns3:TrackPointExtension>
            <ns3:atemp>14.0</ns3:atemp>
            <ns3:hr>129</ns3:hr>
          </ns3:TrackPointExtension>
        </extensions>
      </trkpt>
      <trkpt lat="-22.01254229061305522918701171875" lon="166.4513514004647731781005859375">
        <ele>849.20001220703125</ele>
        <time>2016-08-12T20:10:14.000Z</time>
        <extensions>
          <ns3:TrackPointExtension>
            <ns3:atemp>14.0</ns3:atemp>
            <ns3:hr>129</ns3:hr>
          </ns3:TrackPointExtension>
        </extensions>
      </trkpt>
      <trkpt lat="-22.0125328190624713897705078125" lon="166.45132566802203655242919921875">
        <ele>848.79998779296875</ele>
        <time>2016-08-12T20:10:15.000Z</time>
        <extensions>
          <ns3:TrackPointExtension>
            <ns3:atemp>14.0</ns3:atemp>
            <ns3:hr>129</ns3:hr>
          </ns3:TrackPointExtension>
        </extensions>
      </trkpt>
      <trkpt lat="-22.01252929866313934326171875" lon="166.4513001032173633575439453125">
        <ele>848.5999755859375</ele>
        <time>2016-08-12T20:10:16.000Z</time>
        <extensions>
          <ns3:TrackPointExtension>
            <ns3:atemp>14.0</ns3:atemp>
            <ns3:hr>129</ns3:hr>
          </ns3:TrackPointExtension>
        </extensions>
      </trkpt>
      <trkpt lat="-22.01252083294093608856201171875" lon="166.45127353258430957794189453125">
        <ele>848.4000244140625</ele>
        <time>2016-08-12T20:10:17.000Z</time>
        <extensions>
          <ns3:TrackPointExtension>
            <ns3:atemp>14.0</ns3:atemp>
            <ns3:hr>129</ns3:hr>
          </ns3:TrackPointExtension>
        </extensions>
      </trkpt>
      <trkpt lat="-22.01251496560871601104736328125" lon="166.45122148096561431884765625">
        <ele>848.4000244140625</ele>
        <time>2016-08-12T20:10:19.000Z</time>
        <extensions>
          <ns3:TrackPointExtension>
            <ns3:atemp>14.0</ns3:atemp>
            <ns3:hr>129</ns3:hr>
          </ns3:TrackPointExtension>
        </extensions>
      </trkpt>
      <trkpt lat="-22.0125184021890163421630859375" lon="166.4511914737522602081298828125">
        <ele>848.4000244140625</ele>
        <time>2016-08-12T20:10:20.000Z</time>
        <extensions>
          <ns3:TrackPointExtension>
            <ns3:atemp>14.0</ns3:atemp>
            <ns3:hr>130</ns3:hr>
          </ns3:TrackPointExtension>
        </extensions>
      </trkpt>
      <trkpt lat="-22.01252133585512638092041015625" lon="166.45116406492888927459716796875">
        <ele>848.4000244140625</ele>
        <time>2016-08-12T20:10:21.000Z</time>
        <extensions>
          <ns3:TrackPointExtension>
            <ns3:atemp>14.0</ns3:atemp>
            <ns3:hr>130</ns3:hr>
          </ns3:TrackPointExtension>
        </extensions>
      </trkpt>
      <trkpt lat="-22.01251856982707977294921875" lon="166.45113891921937465667724609375">
        <ele>848.5999755859375</ele>
        <time>2016-08-12T20:10:22.000Z</time>
        <extensions>
          <ns3:TrackPointExtension>
            <ns3:atemp>14.0</ns3:atemp>
            <ns3:hr>130</ns3:hr>
          </ns3:TrackPointExtension>
        </extensions>
      </trkpt>
      <trkpt lat="-22.0125125348567962646484375" lon="166.4510613866150379180908203125">
        <ele>848.5999755859375</ele>
        <time>2016-08-12T20:10:25.000Z</time>
        <extensions>
          <ns3:TrackPointExtension>
            <ns3:atemp>14.0</ns3:atemp>
            <ns3:hr>130</ns3:hr>
          </ns3:TrackPointExtension>
        </extensions>
      </trkpt>
      <trkpt lat="-22.01251748017966747283935546875" lon="166.45103548653423786163330078125">
        <ele>848.5999755859375</ele>
        <time>2016-08-12T20:10:26.000Z</time>
        <extensions>
          <ns3:TrackPointExtension>
            <ns3:atemp>14.0</ns3:atemp>
            <ns3:hr>129</ns3:hr>
          </ns3:TrackPointExtension>
        </extensions>
      </trkpt>
      <trkpt lat="-22.01252116821706295013427734375" lon="166.4510084129869937896728515625">
        <ele>848.5999755859375</ele>
        <time>2016-08-12T20:10:27.000Z</time>
        <extensions>
          <ns3:TrackPointExtension>
            <ns3:atemp>14.0</ns3:atemp>
            <ns3:hr>130</ns3:hr>
          </ns3:TrackPointExtension>
        </extensions>
      </trkpt>
      <trkpt lat="-22.01253122650086879730224609375" lon="166.450931131839752197265625">
        <ele>848.4000244140625</ele>
        <time>2016-08-12T20:10:30.000Z</time>
        <extensions>
          <ns3:TrackPointExtension>
            <ns3:atemp>14.0</ns3:atemp>
            <ns3:hr>130</ns3:hr>
          </ns3:TrackPointExtension>
        </extensions>
      </trkpt>
      <trkpt lat="-22.01253139413893222808837890625" lon="166.45090405829250812530517578125">
        <ele>848.4000244140625</ele>
        <time>2016-08-12T20:10:31.000Z</time>
        <extensions>
          <ns3:TrackPointExtension>
            <ns3:atemp>14.0</ns3:atemp>
            <ns3:hr>130</ns3:hr>
          </ns3:TrackPointExtension>
        </extensions>
      </trkpt>
      <trkpt lat="-22.01253206469118595123291015625" lon="166.45087891258299350738525390625">
        <ele>848.4000244140625</ele>
        <time>2016-08-12T20:10:32.000Z</time>
        <extensions>
          <ns3:TrackPointExtension>
            <ns3:atemp>14.0</ns3:atemp>
            <ns3:hr>130</ns3:hr>
          </ns3:TrackPointExtension>
        </extensions>
      </trkpt>
      <trkpt lat="-22.012528963387012481689453125" lon="166.4508521743118762969970703125">
        <ele>848.4000244140625</ele>
        <time>2016-08-12T20:10:33.000Z</time>
        <extensions>
          <ns3:TrackPointExtension>
            <ns3:atemp>14.0</ns3:atemp>
            <ns3:hr>130</ns3:hr>
          </ns3:TrackPointExtension>
        </extensions>
      </trkpt>
      <trkpt lat="-22.01252653263509273529052734375" lon="166.45082443021237850189208984375">
        <ele>848.5999755859375</ele>
        <time>2016-08-12T20:10:34.000Z</time>
        <extensions>
          <ns3:TrackPointExtension>
            <ns3:atemp>14.0</ns3:atemp>
            <ns3:hr>130</ns3:hr>
          </ns3:TrackPointExtension>
        </extensions>
      </trkpt>
      <trkpt lat="-22.0125227607786655426025390625" lon="166.4507965184748172760009765625">
        <ele>848.4000244140625</ele>
        <time>2016-08-12T20:10:35.000Z</time>
        <extensions>
          <ns3:TrackPointExtension>
            <ns3:atemp>14.0</ns3:atemp>
            <ns3:hr>130</ns3:hr>
          </ns3:TrackPointExtension>
        </extensions>
      </trkpt>
      <trkpt lat="-22.01252317987382411956787109375" lon="166.45076860673725605010986328125">
        <ele>848.4000244140625</ele>
        <time>2016-08-12T20:10:36.000Z</time>
        <extensions>
          <ns3:TrackPointExtension>
            <ns3:atemp>14.0</ns3:atemp>
            <ns3:hr>130</ns3:hr>
          </ns3:TrackPointExtension>
        </extensions>
      </trkpt>
      <trkpt lat="-22.0125241018831729888916015625" lon="166.450739689171314239501953125">
        <ele>848.4000244140625</ele>
        <time>2016-08-12T20:10:37.000Z</time>
        <extensions>
          <ns3:TrackPointExtension>
            <ns3:atemp>14.0</ns3:atemp>
            <ns3:hr>130</ns3:hr>
          </ns3:TrackPointExtension>
        </extensions>
      </trkpt>
      <trkpt lat="-22.01252049766480922698974609375" lon="166.45071144215762615203857421875">
        <ele>848.4000244140625</ele>
        <time>2016-08-12T20:10:38.000Z</time>
        <extensions>
          <ns3:TrackPointExtension>
            <ns3:atemp>14.0</ns3:atemp>
            <ns3:hr>131</ns3:hr>
          </ns3:TrackPointExtension>
        </extensions>
      </trkpt>
      <trkpt lat="-22.0125137083232402801513671875" lon="166.45068495534360408782958984375">
        <ele>848.4000244140625</ele>
        <time>2016-08-12T20:10:39.000Z</time>
        <extensions>
          <ns3:TrackPointExtension>
            <ns3:atemp>14.0</ns3:atemp>
            <ns3:hr>131</ns3:hr>
          </ns3:TrackPointExtension>
        </extensions>
      </trkpt>
      <trkpt lat="-22.01250976882874965667724609375" lon="166.45064120180904865264892578125">
        <ele>848.4000244140625</ele>
        <time>2016-08-12T20:10:41.000Z</time>
        <extensions>
          <ns3:TrackPointExtension>
            <ns3:atemp>14.0</ns3:atemp>
            <ns3:hr>131</ns3:hr>
          </ns3:TrackPointExtension>
        </extensions>
      </trkpt>
      <trkpt lat="-22.0125153847038745880126953125" lon="166.4506141282618045806884765625">
        <ele>848.4000244140625</ele>
        <time>2016-08-12T20:10:42.000Z</time>
        <extensions>
          <ns3:TrackPointExtension>
            <ns3:atemp>14.0</ns3:atemp>
            <ns3:hr>131</ns3:hr>
          </ns3:TrackPointExtension>
        </extensions>
      </trkpt>
      <trkpt lat="-22.01252049766480922698974609375" lon="166.4505876414477825164794921875">
        <ele>848.4000244140625</ele>
        <time>2016-08-12T20:10:43.000Z</time>
        <extensions>
          <ns3:TrackPointExtension>
            <ns3:atemp>14.0</ns3:atemp>
            <ns3:hr>132</ns3:hr>
          </ns3:TrackPointExtension>
        </extensions>
      </trkpt>
      <trkpt lat="-22.01252125203609466552734375" lon="166.4505655132234096527099609375">
        <ele>848.5999755859375</ele>
        <time>2016-08-12T20:10:44.000Z</time>
        <extensions>
          <ns3:TrackPointExtension>
            <ns3:atemp>14.0</ns3:atemp>
            <ns3:hr>132</ns3:hr>
          </ns3:TrackPointExtension>
        </extensions>
      </trkpt>
      <trkpt lat="-22.012518905103206634521484375" lon="166.4505440555512905120849609375">
        <ele>849</ele>
        <time>2016-08-12T20:10:45.000Z</time>
        <extensions>
          <ns3:TrackPointExtension>
            <ns3:atemp>14.0</ns3:atemp>
            <ns3:hr>132</ns3:hr>
          </ns3:TrackPointExtension>
        </extensions>
      </trkpt>
      <trkpt lat="-22.01251965947449207305908203125" lon="166.45052301697432994842529296875">
        <ele>849.20001220703125</ele>
        <time>2016-08-12T20:10:46.000Z</time>
        <extensions>
          <ns3:TrackPointExtension>
            <ns3:atemp>14.0</ns3:atemp>
            <ns3:hr>132</ns3:hr>
          </ns3:TrackPointExtension>
        </extensions>
      </trkpt>
      <trkpt lat="-22.01252502389252185821533203125" lon="166.4505011402070522308349609375">
        <ele>849.20001220703125</ele>
        <time>2016-08-12T20:10:47.000Z</time>
        <extensions>
          <ns3:TrackPointExtension>
            <ns3:atemp>14.0</ns3:atemp>
            <ns3:hr>132</ns3:hr>
          </ns3:TrackPointExtension>
        </extensions>
      </trkpt>
      <trkpt lat="-22.012525610625743865966796875" lon="166.4504773356020450592041015625">
        <ele>849.20001220703125</ele>
        <time>2016-08-12T20:10:48.000Z</time>
        <extensions>
          <ns3:TrackPointExtension>
            <ns3:atemp>14.0</ns3:atemp>
            <ns3:hr>132</ns3:hr>
          </ns3:TrackPointExtension>
        </extensions>
      </trkpt>
      <trkpt lat="-22.012528963387012481689453125" lon="166.45045294426381587982177734375">
        <ele>849.4000244140625</ele>
        <time>2016-08-12T20:10:49.000Z</time>
        <extensions>
          <ns3:TrackPointExtension>
            <ns3:atemp>14.0</ns3:atemp>
            <ns3:hr>133</ns3:hr>
          </ns3:TrackPointExtension>
        </extensions>
      </trkpt>
      <trkpt lat="-22.012526281177997589111328125" lon="166.450428552925586700439453125">
        <ele>849.4000244140625</ele>
        <time>2016-08-12T20:10:50.000Z</time>
        <extensions>
          <ns3:TrackPointExtension>
            <ns3:atemp>14.0</ns3:atemp>
            <ns3:hr>133</ns3:hr>
          </ns3:TrackPointExtension>
        </extensions>
      </trkpt>
      <trkpt lat="-22.01252502389252185821533203125" lon="166.450405083596706390380859375">
        <ele>849.4000244140625</ele>
        <time>2016-08-12T20:10:51.000Z</time>
        <extensions>
          <ns3:TrackPointExtension>
            <ns3:atemp>14.0</ns3:atemp>
            <ns3:hr>133</ns3:hr>
          </ns3:TrackPointExtension>
        </extensions>
      </trkpt>
      <trkpt lat="-22.01252636499702930450439453125" lon="166.4503853023052215576171875">
        <ele>849.5999755859375</ele>
        <time>2016-08-12T20:10:52.000Z</time>
        <extensions>
          <ns3:TrackPointExtension>
            <ns3:atemp>14.0</ns3:atemp>
            <ns3:hr>133</ns3:hr>
          </ns3:TrackPointExtension>
        </extensions>
      </trkpt>
      <trkpt lat="-22.01252619735896587371826171875" lon="166.4503636769950389862060546875">
        <ele>849.79998779296875</ele>
        <time>2016-08-12T20:10:53.000Z</time>
        <extensions>
          <ns3:TrackPointExtension>
            <ns3:atemp>14.0</ns3:atemp>
            <ns3:hr>133</ns3:hr>
          </ns3:TrackPointExtension>
        </extensions>
      </trkpt>
      <trkpt lat="-22.01253089122474193572998046875" lon="166.45034171640872955322265625">
        <ele>849.79998779296875</ele>
        <time>2016-08-12T20:10:54.000Z</time>
        <extensions>
          <ns3:TrackPointExtension>
            <ns3:atemp>14.0</ns3:atemp>
            <ns3:hr>134</ns3:hr>
          </ns3:TrackPointExtension>
        </extensions>
      </trkpt>
      <trkpt lat="-22.01253877021372318267822265625" lon="166.4503234438598155975341796875">
        <ele>850</ele>
        <time>2016-08-12T20:10:55.000Z</time>
        <extensions>
          <ns3:TrackPointExtension>
            <ns3:atemp>14.0</ns3:atemp>
            <ns3:hr>134</ns3:hr>
          </ns3:TrackPointExtension>
        </extensions>
      </trkpt>
      <trkpt lat="-22.0125851221382617950439453125" lon="166.45026183687150478363037109375">
        <ele>850</ele>
        <time>2016-08-12T20:10:59.000Z</time>
        <extensions>
          <ns3:TrackPointExtension>
            <ns3:atemp>14.0</ns3:atemp>
            <ns3:hr>134</ns3:hr>
          </ns3:TrackPointExtension>
        </extensions>
      </trkpt>
      <trkpt lat="-22.01260037720203399658203125" lon="166.4502476714551448822021484375">
        <ele>850.20001220703125</ele>
        <time>2016-08-12T20:11:00.000Z</time>
        <extensions>
          <ns3:TrackPointExtension>
            <ns3:atemp>14.0</ns3:atemp>
            <ns3:hr>135</ns3:hr>
          </ns3:TrackPointExtension>
        </extensions>
      </trkpt>
      <trkpt lat="-22.01261471025645732879638671875" lon="166.45023451186716556549072265625">
        <ele>850.79998779296875</ele>
        <time>2016-08-12T20:11:01.000Z</time>
        <extensions>
          <ns3:TrackPointExtension>
            <ns3:atemp>14.0</ns3:atemp>
            <ns3:hr>135</ns3:hr>
          </ns3:TrackPointExtension>
        </extensions>
      </trkpt>
      <trkpt lat="-22.01262476854026317596435546875" lon="166.45022210665047168731689453125">
        <ele>851</ele>
        <time>2016-08-12T20:11:02.000Z</time>
        <extensions>
          <ns3:TrackPointExtension>
            <ns3:atemp>14.0</ns3:atemp>
            <ns3:hr>136</ns3:hr>
          </ns3:TrackPointExtension>
        </extensions>
      </trkpt>
      <trkpt lat="-22.012631893157958984375" lon="166.4502094499766826629638671875">
        <ele>850.79998779296875</ele>
        <time>2016-08-12T20:11:03.000Z</time>
        <extensions>
          <ns3:TrackPointExtension>
            <ns3:atemp>14.0</ns3:atemp>
            <ns3:hr>136</ns3:hr>
          </ns3:TrackPointExtension>
        </extensions>
      </trkpt>
      <trkpt lat="-22.012649662792682647705078125" lon="166.4501923508942127227783203125">
        <ele>850.5999755859375</ele>
        <time>2016-08-12T20:11:04.000Z</time>
        <extensions>
          <ns3:TrackPointExtension>
            <ns3:atemp>14.0</ns3:atemp>
            <ns3:hr>136</ns3:hr>
          </ns3:TrackPointExtension>
        </extensions>
      </trkpt>
      <trkpt lat="-22.01266516931354999542236328125" lon="166.4501742459833621978759765625">
        <ele>850.79998779296875</ele>
        <time>2016-08-12T20:11:05.000Z</time>
        <extensions>
          <ns3:TrackPointExtension>
            <ns3:atemp>14.0</ns3:atemp>
            <ns3:hr>136</ns3:hr>
          </ns3:TrackPointExtension>
        </extensions>
      </trkpt>
      <trkpt lat="-22.012679167091846466064453125" lon="166.45015505142509937286376953125">
        <ele>851</ele>
        <time>2016-08-12T20:11:06.000Z</time>
        <extensions>
          <ns3:TrackPointExtension>
            <ns3:atemp>14.0</ns3:atemp>
            <ns3:hr>137</ns3:hr>
          </ns3:TrackPointExtension>
        </extensions>
      </trkpt>
      <trkpt lat="-22.01269433833658695220947265625" lon="166.4501345157623291015625">
        <ele>851.4000244140625</ele>
        <time>2016-08-12T20:11:07.000Z</time>
        <extensions>
          <ns3:TrackPointExtension>
            <ns3:atemp>14.0</ns3:atemp>
            <ns3:hr>137</ns3:hr>
          </ns3:TrackPointExtension>
        </extensions>
      </trkpt>
      <trkpt lat="-22.01270439662039279937744140625" lon="166.45011414773762226104736328125">
        <ele>851.20001220703125</ele>
        <time>2016-08-12T20:11:08.000Z</time>
        <extensions>
          <ns3:TrackPointExtension>
            <ns3:atemp>14.0</ns3:atemp>
            <ns3:hr>137</ns3:hr>
          </ns3:TrackPointExtension>
        </extensions>
      </trkpt>
      <trkpt lat="-22.01271797530353069305419921875" lon="166.45009118132293224334716796875">
        <ele>851.20001220703125</ele>
        <time>2016-08-12T20:11:09.000Z</time>
        <extensions>
          <ns3:TrackPointExtension>
            <ns3:atemp>14.0</ns3:atemp>
            <ns3:hr>137</ns3:hr>
          </ns3:TrackPointExtension>
        </extensions>
      </trkpt>
      <trkpt lat="-22.01272602193057537078857421875" lon="166.4500661194324493408203125">
        <ele>851.4000244140625</ele>
        <time>2016-08-12T20:11:10.000Z</time>
        <extensions>
          <ns3:TrackPointExtension>
            <ns3:atemp>14.0</ns3:atemp>
            <ns3:hr>137</ns3:hr>
          </ns3:TrackPointExtension>
        </extensions>
      </trkpt>
      <trkpt lat="-22.01273222453892230987548828125" lon="166.45004055462777614593505859375">
        <ele>851.4000244140625</ele>
        <time>2016-08-12T20:11:11.000Z</time>
        <extensions>
          <ns3:TrackPointExtension>
            <ns3:atemp>14.0</ns3:atemp>
            <ns3:hr>137</ns3:hr>
          </ns3:TrackPointExtension>
        </extensions>
      </trkpt>
      <trkpt lat="-22.01273976825177669525146484375" lon="166.45001172088086605072021484375">
        <ele>851.20001220703125</ele>
        <time>2016-08-12T20:11:12.000Z</time>
        <extensions>
          <ns3:TrackPointExtension>
            <ns3:atemp>14.0</ns3:atemp>
            <ns3:hr>137</ns3:hr>
          </ns3:TrackPointExtension>
        </extensions>
      </trkpt>
      <trkpt lat="-22.012730799615383148193359375" lon="166.44987073726952075958251953125">
        <ele>851.20001220703125</ele>
        <time>2016-08-12T20:11:17.000Z</time>
        <extensions>
          <ns3:TrackPointExtension>
            <ns3:atemp>14.0</ns3:atemp>
            <ns3:hr>137</ns3:hr>
          </ns3:TrackPointExtension>
        </extensions>
      </trkpt>
      <trkpt lat="-22.01273038052022457122802734375" lon="166.44984274171292781829833984375">
        <ele>851</ele>
        <time>2016-08-12T20:11:18.000Z</time>
        <extensions>
          <ns3:TrackPointExtension>
            <ns3:atemp>14.0</ns3:atemp>
            <ns3:hr>138</ns3:hr>
          </ns3:TrackPointExtension>
        </extensions>
      </trkpt>
      <trkpt lat="-22.01272702775895595550537109375" lon="166.44981659017503261566162109375">
        <ele>851</ele>
        <time>2016-08-12T20:11:19.000Z</time>
        <extensions>
          <ns3:TrackPointExtension>
            <ns3:atemp>14.0</ns3:atemp>
            <ns3:hr>138</ns3:hr>
          </ns3:TrackPointExtension>
        </extensions>
      </trkpt>
      <trkpt lat="-22.01272199861705303192138671875" lon="166.4497896842658519744873046875">
        <ele>851</ele>
        <time>2016-08-12T20:11:20.000Z</time>
        <extensions>
          <ns3:TrackPointExtension>
            <ns3:atemp>14.0</ns3:atemp>
            <ns3:hr>138</ns3:hr>
          </ns3:TrackPointExtension>
        </extensions>
      </trkpt>
      <trkpt lat="-22.01271764002740383148193359375" lon="166.449760682880878448486328125">
        <ele>851.20001220703125</ele>
        <time>2016-08-12T20:11:21.000Z</time>
        <extensions>
          <ns3:TrackPointExtension>
            <ns3:atemp>14.0</ns3:atemp>
            <ns3:hr>138</ns3:hr>
          </ns3:TrackPointExtension>
        </extensions>
      </trkpt>
      <trkpt lat="-22.01271110214293003082275390625" lon="166.44973143003880977630615234375">
        <ele>851.5999755859375</ele>
        <time>2016-08-12T20:11:22.000Z</time>
        <extensions>
          <ns3:TrackPointExtension>
            <ns3:atemp>14.0</ns3:atemp>
            <ns3:hr>138</ns3:hr>
          </ns3:TrackPointExtension>
        </extensions>
      </trkpt>
      <trkpt lat="-22.0127038098871707916259765625" lon="166.44970326684415340423583984375">
        <ele>851.5999755859375</ele>
        <time>2016-08-12T20:11:23.000Z</time>
        <extensions>
          <ns3:TrackPointExtension>
            <ns3:atemp>14.0</ns3:atemp>
            <ns3:hr>137</ns3:hr>
          </ns3:TrackPointExtension>
        </extensions>
      </trkpt>
      <trkpt lat="-22.012698948383331298828125" lon="166.44967518746852874755859375">
        <ele>851.5999755859375</ele>
        <time>2016-08-12T20:11:24.000Z</time>
        <extensions>
          <ns3:TrackPointExtension>
            <ns3:atemp>14.0</ns3:atemp>
            <ns3:hr>137</ns3:hr>
          </ns3:TrackPointExtension>
        </extensions>
      </trkpt>
      <trkpt lat="-22.012696601450443267822265625" lon="166.44962380640208721160888671875">
        <ele>852</ele>
        <time>2016-08-12T20:11:26.000Z</time>
        <extensions>
          <ns3:TrackPointExtension>
            <ns3:atemp>14.0</ns3:atemp>
            <ns3:hr>137</ns3:hr>
          </ns3:TrackPointExtension>
        </extensions>
      </trkpt>
      <trkpt lat="-22.012691237032413482666015625" lon="166.44959715195000171661376953125">
        <ele>852</ele>
        <time>2016-08-12T20:11:27.000Z</time>
        <extensions>
          <ns3:TrackPointExtension>
            <ns3:atemp>14.0</ns3:atemp>
            <ns3:hr>138</ns3:hr>
          </ns3:TrackPointExtension>
        </extensions>
      </trkpt>
      <trkpt lat="-22.0126863755285739898681640625" lon="166.4495680667459964752197265625">
        <ele>851.79998779296875</ele>
        <time>2016-08-12T20:11:28.000Z</time>
        <extensions>
          <ns3:TrackPointExtension>
            <ns3:atemp>14.0</ns3:atemp>
            <ns3:hr>137</ns3:hr>
          </ns3:TrackPointExtension>
        </extensions>
      </trkpt>
      <trkpt lat="-22.012684531509876251220703125" lon="166.44954199902713298797607421875">
        <ele>852</ele>
        <time>2016-08-12T20:11:29.000Z</time>
        <extensions>
          <ns3:TrackPointExtension>
            <ns3:atemp>14.0</ns3:atemp>
            <ns3:hr>137</ns3:hr>
          </ns3:TrackPointExtension>
        </extensions>
      </trkpt>
      <trkpt lat="-22.01268277131021022796630859375" lon="166.44951584748923778533935546875">
        <ele>852.4000244140625</ele>
        <time>2016-08-12T20:11:30.000Z</time>
        <extensions>
          <ns3:TrackPointExtension>
            <ns3:atemp>14.0</ns3:atemp>
            <ns3:hr>137</ns3:hr>
          </ns3:TrackPointExtension>
        </extensions>
      </trkpt>
      <trkpt lat="-22.0126773230731487274169921875" lon="166.449489779770374298095703125">
        <ele>852.5999755859375</ele>
        <time>2016-08-12T20:11:31.000Z</time>
        <extensions>
          <ns3:TrackPointExtension>
            <ns3:atemp>14.0</ns3:atemp>
            <ns3:hr>137</ns3:hr>
          </ns3:TrackPointExtension>
        </extensions>
      </trkpt>
      <trkpt lat="-22.0126788318157196044921875" lon="166.44946463406085968017578125">
        <ele>852.5999755859375</ele>
        <time>2016-08-12T20:11:32.000Z</time>
        <extensions>
          <ns3:TrackPointExtension>
            <ns3:atemp>14.0</ns3:atemp>
            <ns3:hr>137</ns3:hr>
          </ns3:TrackPointExtension>
        </extensions>
      </trkpt>
      <trkpt lat="-22.01268210075795650482177734375" lon="166.44944024272263050079345703125">
        <ele>852.5999755859375</ele>
        <time>2016-08-12T20:11:33.000Z</time>
        <extensions>
          <ns3:TrackPointExtension>
            <ns3:atemp>14.0</ns3:atemp>
            <ns3:hr>138</ns3:hr>
          </ns3:TrackPointExtension>
        </extensions>
      </trkpt>
      <trkpt lat="-22.01268545351922512054443359375" lon="166.44941559992730617523193359375">
        <ele>852.79998779296875</ele>
        <time>2016-08-12T20:11:34.000Z</time>
        <extensions>
          <ns3:TrackPointExtension>
            <ns3:atemp>14.0</ns3:atemp>
            <ns3:hr>137</ns3:hr>
          </ns3:TrackPointExtension>
        </extensions>
      </trkpt>
      <trkpt lat="-22.01269081793725490570068359375" lon="166.4493943937122821807861328125">
        <ele>853</ele>
        <time>2016-08-12T20:11:35.000Z</time>
        <extensions>
          <ns3:TrackPointExtension>
            <ns3:atemp>14.0</ns3:atemp>
            <ns3:hr>137</ns3:hr>
          </ns3:TrackPointExtension>
        </extensions>
      </trkpt>
      <trkpt lat="-22.0126974396407604217529296875" lon="166.449372768402099609375">
        <ele>853</ele>
        <time>2016-08-12T20:11:36.000Z</time>
        <extensions>
          <ns3:TrackPointExtension>
            <ns3:atemp>14.0</ns3:atemp>
            <ns3:hr>138</ns3:hr>
          </ns3:TrackPointExtension>
        </extensions>
      </trkpt>
      <trkpt lat="-22.01270355843007564544677734375" lon="166.44935064017772674560546875">
        <ele>853.20001220703125</ele>
        <time>2016-08-12T20:11:37.000Z</time>
        <extensions>
          <ns3:TrackPointExtension>
            <ns3:atemp>14.0</ns3:atemp>
            <ns3:hr>137</ns3:hr>
          </ns3:TrackPointExtension>
        </extensions>
      </trkpt>
      <trkpt lat="-22.012710012495517730712890625" lon="166.44933194853365421295166015625">
        <ele>853.20001220703125</ele>
        <time>2016-08-12T20:11:38.000Z</time>
        <extensions>
          <ns3:TrackPointExtension>
            <ns3:atemp>14.0</ns3:atemp>
            <ns3:hr>138</ns3:hr>
          </ns3:TrackPointExtension>
        </extensions>
      </trkpt>
      <trkpt lat="-22.01271864585578441619873046875" lon="166.44931040704250335693359375">
        <ele>853.20001220703125</ele>
        <time>2016-08-12T20:11:39.000Z</time>
        <extensions>
          <ns3:TrackPointExtension>
            <ns3:atemp>14.0</ns3:atemp>
            <ns3:hr>138</ns3:hr>
          </ns3:TrackPointExtension>
        </extensions>
      </trkpt>
      <trkpt lat="-22.0127323083579540252685546875" lon="166.44928769208490848541259765625">
        <ele>853.20001220703125</ele>
        <time>2016-08-12T20:11:40.000Z</time>
        <extensions>
          <ns3:TrackPointExtension>
            <ns3:atemp>14.0</ns3:atemp>
            <ns3:hr>137</ns3:hr>
          </ns3:TrackPointExtension>
        </extensions>
      </trkpt>
      <trkpt lat="-22.0127423666417598724365234375" lon="166.4492656476795673370361328125">
        <ele>853.4000244140625</ele>
        <time>2016-08-12T20:11:41.000Z</time>
        <extensions>
          <ns3:TrackPointExtension>
            <ns3:atemp>14.0</ns3:atemp>
            <ns3:hr>137</ns3:hr>
          </ns3:TrackPointExtension>
        </extensions>
      </trkpt>
      <trkpt lat="-22.01275435276329517364501953125" lon="166.44924469292163848876953125">
        <ele>853.4000244140625</ele>
        <time>2016-08-12T20:11:42.000Z</time>
        <extensions>
          <ns3:TrackPointExtension>
            <ns3:atemp>14.0</ns3:atemp>
            <ns3:hr>137</ns3:hr>
          </ns3:TrackPointExtension>
        </extensions>
      </trkpt>
      <trkpt lat="-22.01276156120002269744873046875" lon="166.44922365434467792510986328125">
        <ele>853.4000244140625</ele>
        <time>2016-08-12T20:11:43.000Z</time>
        <extensions>
          <ns3:TrackPointExtension>
            <ns3:atemp>14.0</ns3:atemp>
            <ns3:hr>137</ns3:hr>
          </ns3:TrackPointExtension>
        </extensions>
      </trkpt>
      <trkpt lat="-22.012767009437084197998046875" lon="166.449204124510288238525390625">
        <ele>853.4000244140625</ele>
        <time>2016-08-12T20:11:44.000Z</time>
        <extensions>
          <ns3:TrackPointExtension>
            <ns3:atemp>14.0</ns3:atemp>
            <ns3:hr>137</ns3:hr>
          </ns3:TrackPointExtension>
        </extensions>
      </trkpt>
      <trkpt lat="-22.01277396641671657562255859375" lon="166.44918576814234256744384765625">
        <ele>853.5999755859375</ele>
        <time>2016-08-12T20:11:45.000Z</time>
        <extensions>
          <ns3:TrackPointExtension>
            <ns3:atemp>14.0</ns3:atemp>
            <ns3:hr>136</ns3:hr>
          </ns3:TrackPointExtension>
        </extensions>
      </trkpt>
      <trkpt lat="-22.0127762295305728912353515625" lon="166.4491677470505237579345703125">
        <ele>853.79998779296875</ele>
        <time>2016-08-12T20:11:46.000Z</time>
        <extensions>
          <ns3:TrackPointExtension>
            <ns3:atemp>14.0</ns3:atemp>
            <ns3:hr>136</ns3:hr>
          </ns3:TrackPointExtension>
        </extensions>
      </trkpt>
      <trkpt lat="-22.0127785764634609222412109375" lon="166.44915039651095867156982421875">
        <ele>853.79998779296875</ele>
        <time>2016-08-12T20:11:47.000Z</time>
        <extensions>
          <ns3:TrackPointExtension>
            <ns3:atemp>14.0</ns3:atemp>
            <ns3:hr>136</ns3:hr>
          </ns3:TrackPointExtension>
        </extensions>
      </trkpt>
      <trkpt lat="-22.01276306994259357452392578125" lon="166.44913061521947383880615234375">
        <ele>854</ele>
        <time>2016-08-12T20:11:48.000Z</time>
        <extensions>
          <ns3:TrackPointExtension>
            <ns3:atemp>14.0</ns3:atemp>
            <ns3:hr>136</ns3:hr>
          </ns3:TrackPointExtension>
        </extensions>
      </trkpt>
      <trkpt lat="-22.012746892869472503662109375" lon="166.44911284558475017547607421875">
        <ele>854.20001220703125</ele>
        <time>2016-08-12T20:11:49.000Z</time>
        <extensions>
          <ns3:TrackPointExtension>
            <ns3:atemp>14.0</ns3:atemp>
            <ns3:hr>136</ns3:hr>
          </ns3:TrackPointExtension>
        </extensions>
      </trkpt>
      <trkpt lat="-22.01273038052022457122802734375" lon="166.4490939863026142120361328125">
        <ele>854.20001220703125</ele>
        <time>2016-08-12T20:11:50.000Z</time>
        <extensions>
          <ns3:TrackPointExtension>
            <ns3:atemp>14.0</ns3:atemp>
            <ns3:hr>136</ns3:hr>
          </ns3:TrackPointExtension>
        </extensions>
      </trkpt>
      <trkpt lat="-22.01270724646747112274169921875" lon="166.44907663576304912567138671875">
        <ele>854.4000244140625</ele>
        <time>2016-08-12T20:11:51.000Z</time>
        <extensions>
          <ns3:TrackPointExtension>
            <ns3:atemp>14.0</ns3:atemp>
            <ns3:hr>136</ns3:hr>
          </ns3:TrackPointExtension>
        </extensions>
      </trkpt>
      <trkpt lat="-22.0126823522150516510009765625" lon="166.44906355999410152435302734375">
        <ele>854.4000244140625</ele>
        <time>2016-08-12T20:11:52.000Z</time>
        <extensions>
          <ns3:TrackPointExtension>
            <ns3:atemp>14.0</ns3:atemp>
            <ns3:hr>137</ns3:hr>
          </ns3:TrackPointExtension>
        </extensions>
      </trkpt>
      <trkpt lat="-22.0126498304307460784912109375" lon="166.4490584470331668853759765625">
        <ele>854.5999755859375</ele>
        <time>2016-08-12T20:11:53.000Z</time>
        <extensions>
          <ns3:TrackPointExtension>
            <ns3:atemp>14.0</ns3:atemp>
            <ns3:hr>137</ns3:hr>
          </ns3:TrackPointExtension>
        </extensions>
      </trkpt>
      <trkpt lat="-22.012619487941265106201171875" lon="166.44905693829059600830078125">
        <ele>854.79998779296875</ele>
        <time>2016-08-12T20:11:54.000Z</time>
        <extensions>
          <ns3:TrackPointExtension>
            <ns3:atemp>14.0</ns3:atemp>
            <ns3:hr>136</ns3:hr>
          </ns3:TrackPointExtension>
        </extensions>
      </trkpt>
      <trkpt lat="-22.012596689164638519287109375" lon="166.449055932462215423583984375">
        <ele>854.79998779296875</ele>
        <time>2016-08-12T20:11:55.000Z</time>
        <extensions>
          <ns3:TrackPointExtension>
            <ns3:atemp>14.0</ns3:atemp>
            <ns3:hr>137</ns3:hr>
          </ns3:TrackPointExtension>
        </extensions>
      </trkpt>
      <trkpt lat="-22.01257078908383846282958984375" lon="166.44906071014702320098876953125">
        <ele>855.20001220703125</ele>
        <time>2016-08-12T20:11:56.000Z</time>
        <extensions>
          <ns3:TrackPointExtension>
            <ns3:atemp>14.0</ns3:atemp>
            <ns3:hr>136</ns3:hr>
          </ns3:TrackPointExtension>
        </extensions>
      </trkpt>
      <trkpt lat="-22.012547068297863006591796875" lon="166.44907060079276561737060546875">
        <ele>855.5999755859375</ele>
        <time>2016-08-12T20:11:57.000Z</time>
        <extensions>
          <ns3:TrackPointExtension>
            <ns3:atemp>14.0</ns3:atemp>
            <ns3:hr>137</ns3:hr>
          </ns3:TrackPointExtension>
        </extensions>
      </trkpt>
      <trkpt lat="-22.0125257782638072967529296875" lon="166.449082084000110626220703125">
        <ele>855.5999755859375</ele>
        <time>2016-08-12T20:11:58.000Z</time>
        <extensions>
          <ns3:TrackPointExtension>
            <ns3:atemp>14.0</ns3:atemp>
            <ns3:hr>137</ns3:hr>
          </ns3:TrackPointExtension>
        </extensions>
      </trkpt>
      <trkpt lat="-22.01250390149652957916259765625" lon="166.44909490831196308135986328125">
        <ele>855.5999755859375</ele>
        <time>2016-08-12T20:11:59.000Z</time>
        <extensions>
          <ns3:TrackPointExtension>
            <ns3:atemp>14.0</ns3:atemp>
            <ns3:hr>137</ns3:hr>
          </ns3:TrackPointExtension>
        </extensions>
      </trkpt>
      <trkpt lat="-22.0124815218150615692138671875" lon="166.449103541672229766845703125">
        <ele>855.5999755859375</ele>
        <time>2016-08-12T20:12:00.000Z</time>
        <extensions>
          <ns3:TrackPointExtension>
            <ns3:atemp>14.0</ns3:atemp>
            <ns3:hr>137</ns3:hr>
          </ns3:TrackPointExtension>
        </extensions>
      </trkpt>
      <trkpt lat="-22.01246182434260845184326171875" lon="166.44911619834601879119873046875">
        <ele>855.79998779296875</ele>
        <time>2016-08-12T20:12:01.000Z</time>
        <extensions>
          <ns3:TrackPointExtension>
            <ns3:atemp>14.0</ns3:atemp>
            <ns3:hr>137</ns3:hr>
          </ns3:TrackPointExtension>
        </extensions>
      </trkpt>
      <trkpt lat="-22.0124426297843456268310546875" lon="166.4491308666765689849853515625">
        <ele>855.79998779296875</ele>
        <time>2016-08-12T20:12:02.000Z</time>
        <extensions>
          <ns3:TrackPointExtension>
            <ns3:atemp>14.0</ns3:atemp>
            <ns3:hr>137</ns3:hr>
          </ns3:TrackPointExtension>
        </extensions>
      </trkpt>
      <trkpt lat="-22.01242712326347827911376953125" lon="166.44914302043616771697998046875">
        <ele>856</ele>
        <time>2016-08-12T20:12:03.000Z</time>
        <extensions>
          <ns3:TrackPointExtension>
            <ns3:atemp>14.0</ns3:atemp>
            <ns3:hr>138</ns3:hr>
          </ns3:TrackPointExtension>
        </extensions>
      </trkpt>
      <trkpt lat="-22.01241438277065753936767578125" lon="166.44915349781513214111328125">
        <ele>856.20001220703125</ele>
        <time>2016-08-12T20:12:04.000Z</time>
        <extensions>
          <ns3:TrackPointExtension>
            <ns3:atemp>14.0</ns3:atemp>
            <ns3:hr>138</ns3:hr>
          </ns3:TrackPointExtension>
        </extensions>
      </trkpt>
      <trkpt lat="-22.01240650378167629241943359375" lon="166.4491576887667179107666015625">
        <ele>856.20001220703125</ele>
        <time>2016-08-12T20:12:05.000Z</time>
        <extensions>
          <ns3:TrackPointExtension>
            <ns3:atemp>14.0</ns3:atemp>
            <ns3:hr>138</ns3:hr>
          </ns3:TrackPointExtension>
        </extensions>
      </trkpt>
      <trkpt lat="-22.01240449212491512298583984375" lon="166.44915978424251079559326171875">
        <ele>856.4000244140625</ele>
        <time>2016-08-12T20:12:06.000Z</time>
        <extensions>
          <ns3:TrackPointExtension>
            <ns3:atemp>14.0</ns3:atemp>
            <ns3:hr>138</ns3:hr>
          </ns3:TrackPointExtension>
        </extensions>
      </trkpt>
      <trkpt lat="-22.01240298338234424591064453125" lon="166.44916280172765254974365234375">
        <ele>856.5999755859375</ele>
        <time>2016-08-12T20:12:08.000Z</time>
        <extensions>
          <ns3:TrackPointExtension>
            <ns3:atemp>14.0</ns3:atemp>
            <ns3:hr>137</ns3:hr>
          </ns3:TrackPointExtension>
        </extensions>
      </trkpt>
      <trkpt lat="-22.01240164227783679962158203125" lon="166.44916263408958911895751953125">
        <ele>856.79998779296875</ele>
        <time>2016-08-12T20:12:09.000Z</time>
        <extensions>
          <ns3:TrackPointExtension>
            <ns3:atemp>14.0</ns3:atemp>
            <ns3:hr>137</ns3:hr>
          </ns3:TrackPointExtension>
        </extensions>
      </trkpt>
      <trkpt lat="-22.01240046881139278411865234375" lon="166.44916229881346225738525390625">
        <ele>856.79998779296875</ele>
        <time>2016-08-12T20:12:10.000Z</time>
        <extensions>
          <ns3:TrackPointExtension>
            <ns3:atemp>14.0</ns3:atemp>
            <ns3:hr>136</ns3:hr>
          </ns3:TrackPointExtension>
        </extensions>
      </trkpt>
      <trkpt lat="-22.01240063644945621490478515625" lon="166.44916246645152568817138671875">
        <ele>856.79998779296875</ele>
        <time>2016-08-12T20:12:11.000Z</time>
        <extensions>
          <ns3:TrackPointExtension>
            <ns3:atemp>14.0</ns3:atemp>
            <ns3:hr>136</ns3:hr>
          </ns3:TrackPointExtension>
        </extensions>
      </trkpt>
      <trkpt lat="-22.01239963062107563018798828125" lon="166.44916263408958911895751953125">
        <ele>856.79998779296875</ele>
        <time>2016-08-12T20:12:12.000Z</time>
        <extensions>
          <ns3:TrackPointExtension>
            <ns3:atemp>14.0</ns3:atemp>
            <ns3:hr>135</ns3:hr>
          </ns3:TrackPointExtension>
        </extensions>
      </trkpt>
      <trkpt lat="-22.012398876249790191650390625" lon="166.44916288554668426513671875">
        <ele>856.79998779296875</ele>
        <time>2016-08-12T20:12:13.000Z</time>
        <extensions>
          <ns3:TrackPointExtension>
            <ns3:atemp>14.0</ns3:atemp>
            <ns3:hr>135</ns3:hr>
          </ns3:TrackPointExtension>
        </extensions>
      </trkpt>
      <trkpt lat="-22.01239728368818759918212890625" lon="166.44916380755603313446044921875">
        <ele>856.79998779296875</ele>
        <time>2016-08-12T20:12:14.000Z</time>
        <extensions>
          <ns3:TrackPointExtension>
            <ns3:atemp>14.0</ns3:atemp>
            <ns3:hr>134</ns3:hr>
          </ns3:TrackPointExtension>
        </extensions>
      </trkpt>
      <trkpt lat="-22.01239510439336299896240234375" lon="166.44916397519409656524658203125">
        <ele>856.79998779296875</ele>
        <time>2016-08-12T20:12:15.000Z</time>
        <extensions>
          <ns3:TrackPointExtension>
            <ns3:atemp>14.0</ns3:atemp>
            <ns3:hr>134</ns3:hr>
          </ns3:TrackPointExtension>
        </extensions>
      </trkpt>
      <trkpt lat="-22.01239242218434810638427734375" lon="166.44916330464184284210205078125">
        <ele>856.79998779296875</ele>
        <time>2016-08-12T20:12:16.000Z</time>
        <extensions>
          <ns3:TrackPointExtension>
            <ns3:atemp>14.0</ns3:atemp>
            <ns3:hr>133</ns3:hr>
          </ns3:TrackPointExtension>
        </extensions>
      </trkpt>
      <trkpt lat="-22.01239124871790409088134765625" lon="166.44916548393666744232177734375">
        <ele>856.79998779296875</ele>
        <time>2016-08-12T20:12:17.000Z</time>
        <extensions>
          <ns3:TrackPointExtension>
            <ns3:atemp>14.0</ns3:atemp>
            <ns3:hr>133</ns3:hr>
          </ns3:TrackPointExtension>
        </extensions>
      </trkpt>
      <trkpt lat="-22.0123859681189060211181640625" lon="166.44917135126888751983642578125">
        <ele>856.79998779296875</ele>
        <time>2016-08-12T20:12:18.000Z</time>
        <extensions>
          <ns3:TrackPointExtension>
            <ns3:atemp>14.0</ns3:atemp>
            <ns3:hr>133</ns3:hr>
          </ns3:TrackPointExtension>
        </extensions>
      </trkpt>
      <trkpt lat="-22.012376077473163604736328125" lon="166.44917822442948818206787109375">
        <ele>856.79998779296875</ele>
        <time>2016-08-12T20:12:19.000Z</time>
        <extensions>
          <ns3:TrackPointExtension>
            <ns3:atemp>14.0</ns3:atemp>
            <ns3:hr>134</ns3:hr>
          </ns3:TrackPointExtension>
        </extensions>
      </trkpt>
      <trkpt lat="-22.0123668573796749114990234375" lon="166.44918459467589855194091796875">
        <ele>857.20001220703125</ele>
        <time>2016-08-12T20:12:20.000Z</time>
        <extensions>
          <ns3:TrackPointExtension>
            <ns3:atemp>14.0</ns3:atemp>
            <ns3:hr>134</ns3:hr>
          </ns3:TrackPointExtension>
        </extensions>
      </trkpt>
      <trkpt lat="-22.012356631457805633544921875" lon="166.4491908811032772064208984375">
        <ele>857.4000244140625</ele>
        <time>2016-08-12T20:12:21.000Z</time>
        <extensions>
          <ns3:TrackPointExtension>
            <ns3:atemp>14.0</ns3:atemp>
            <ns3:hr>135</ns3:hr>
          </ns3:TrackPointExtension>
        </extensions>
      </trkpt>
      <trkpt lat="-22.01234598644077777862548828125" lon="166.44919817335903644561767578125">
        <ele>857.5999755859375</ele>
        <time>2016-08-12T20:12:22.000Z</time>
        <extensions>
          <ns3:TrackPointExtension>
            <ns3:atemp>14.0</ns3:atemp>
            <ns3:hr>135</ns3:hr>
          </ns3:TrackPointExtension>
        </extensions>
      </trkpt>
      <trkpt lat="-22.01233617961406707763671875" lon="166.44920018501579761505126953125">
        <ele>857.79998779296875</ele>
        <time>2016-08-12T20:12:23.000Z</time>
        <extensions>
          <ns3:TrackPointExtension>
            <ns3:atemp>14.0</ns3:atemp>
            <ns3:hr>135</ns3:hr>
          </ns3:TrackPointExtension>
        </extensions>
      </trkpt>
      <trkpt lat="-22.0123249478638172149658203125" lon="166.44920454360544681549072265625">
        <ele>858</ele>
        <time>2016-08-12T20:12:24.000Z</time>
        <extensions>
          <ns3:TrackPointExtension>
            <ns3:atemp>14.0</ns3:atemp>
            <ns3:hr>135</ns3:hr>
          </ns3:TrackPointExtension>
        </extensions>
      </trkpt>
      <trkpt lat="-22.0123145543038845062255859375" lon="166.44920839928090572357177734375">
        <ele>858</ele>
        <time>2016-08-12T20:12:25.000Z</time>
        <extensions>
          <ns3:TrackPointExtension>
            <ns3:atemp>14.0</ns3:atemp>
            <ns3:hr>135</ns3:hr>
          </ns3:TrackPointExtension>
        </extensions>
      </trkpt>
      <trkpt lat="-22.0123058371245861053466796875" lon="166.44921342842280864715576171875">
        <ele>858.4000244140625</ele>
        <time>2016-08-12T20:12:26.000Z</time>
        <extensions>
          <ns3:TrackPointExtension>
            <ns3:atemp>14.0</ns3:atemp>
            <ns3:hr>135</ns3:hr>
          </ns3:TrackPointExtension>
        </extensions>
      </trkpt>
      <trkpt lat="-22.01229435391724109649658203125" lon="166.44921694882214069366455078125">
        <ele>858.5999755859375</ele>
        <time>2016-08-12T20:12:27.000Z</time>
        <extensions>
          <ns3:TrackPointExtension>
            <ns3:atemp>14.0</ns3:atemp>
            <ns3:hr>134</ns3:hr>
          </ns3:TrackPointExtension>
        </extensions>
      </trkpt>
      <trkpt lat="-22.0122810266911983489990234375" lon="166.4492223970592021942138671875">
        <ele>858.79998779296875</ele>
        <time>2016-08-12T20:12:28.000Z</time>
        <extensions>
          <ns3:TrackPointExtension>
            <ns3:atemp>14.0</ns3:atemp>
            <ns3:hr>134</ns3:hr>
          </ns3:TrackPointExtension>
        </extensions>
      </trkpt>
      <trkpt lat="-22.0122676156461238861083984375" lon="166.44922801293432712554931640625">
        <ele>858.79998779296875</ele>
        <time>2016-08-12T20:12:29.000Z</time>
        <extensions>
          <ns3:TrackPointExtension>
            <ns3:atemp>14.0</ns3:atemp>
            <ns3:hr>133</ns3:hr>
          </ns3:TrackPointExtension>
        </extensions>
      </trkpt>
      <trkpt lat="-22.01225646771490573883056640625" lon="166.449235975742340087890625">
        <ele>858.79998779296875</ele>
        <time>2016-08-12T20:12:30.000Z</time>
        <extensions>
          <ns3:TrackPointExtension>
            <ns3:atemp>14.0</ns3:atemp>
            <ns3:hr>133</ns3:hr>
          </ns3:TrackPointExtension>
        </extensions>
      </trkpt>
      <trkpt lat="-22.01224490068852901458740234375" lon="166.4492455311119556427001953125">
        <ele>858.79998779296875</ele>
        <time>2016-08-12T20:12:31.000Z</time>
        <extensions>
          <ns3:TrackPointExtension>
            <ns3:atemp>14.0</ns3:atemp>
            <ns3:hr>133</ns3:hr>
          </ns3:TrackPointExtension>
        </extensions>
      </trkpt>
      <trkpt lat="-22.01223266310989856719970703125" lon="166.4492507278919219970703125">
        <ele>858.79998779296875</ele>
        <time>2016-08-12T20:12:32.000Z</time>
        <extensions>
          <ns3:TrackPointExtension>
            <ns3:atemp>14.0</ns3:atemp>
            <ns3:hr>132</ns3:hr>
          </ns3:TrackPointExtension>
        </extensions>
      </trkpt>
      <trkpt lat="-22.01222084462642669677734375" lon="166.4492587745189666748046875">
        <ele>859</ele>
        <time>2016-08-12T20:12:33.000Z</time>
        <extensions>
          <ns3:TrackPointExtension>
            <ns3:atemp>14.0</ns3:atemp>
            <ns3:hr>132</ns3:hr>
          </ns3:TrackPointExtension>
        </extensions>
      </trkpt>
      <trkpt lat="-22.01220835559070110321044921875" lon="166.44926690496504306793212890625">
        <ele>859.20001220703125</ele>
        <time>2016-08-12T20:12:34.000Z</time>
        <extensions>
          <ns3:TrackPointExtension>
            <ns3:atemp>14.0</ns3:atemp>
            <ns3:hr>132</ns3:hr>
          </ns3:TrackPointExtension>
        </extensions>
      </trkpt>
      <trkpt lat="-22.0121975429356098175048828125" lon="166.44927629269659519195556640625">
        <ele>859.20001220703125</ele>
        <time>2016-08-12T20:12:35.000Z</time>
        <extensions>
          <ns3:TrackPointExtension>
            <ns3:atemp>14.0</ns3:atemp>
            <ns3:hr>132</ns3:hr>
          </ns3:TrackPointExtension>
        </extensions>
      </trkpt>
      <trkpt lat="-22.01218773610889911651611328125" lon="166.44928635098040103912353515625">
        <ele>859.4000244140625</ele>
        <time>2016-08-12T20:12:36.000Z</time>
        <extensions>
          <ns3:TrackPointExtension>
            <ns3:atemp>14.0</ns3:atemp>
            <ns3:hr>132</ns3:hr>
          </ns3:TrackPointExtension>
        </extensions>
      </trkpt>
      <trkpt lat="-22.01217533089220523834228515625" lon="166.449296660721302032470703125">
        <ele>859.5999755859375</ele>
        <time>2016-08-12T20:12:37.000Z</time>
        <extensions>
          <ns3:TrackPointExtension>
            <ns3:atemp>14.0</ns3:atemp>
            <ns3:hr>131</ns3:hr>
          </ns3:TrackPointExtension>
        </extensions>
      </trkpt>
      <trkpt lat="-22.012162506580352783203125" lon="166.44930613227188587188720703125">
        <ele>859.5999755859375</ele>
        <time>2016-08-12T20:12:38.000Z</time>
        <extensions>
          <ns3:TrackPointExtension>
            <ns3:atemp>14.0</ns3:atemp>
            <ns3:hr>132</ns3:hr>
          </ns3:TrackPointExtension>
        </extensions>
      </trkpt>
      <trkpt lat="-22.01215085573494434356689453125" lon="166.44931769929826259613037109375">
        <ele>859.79998779296875</ele>
        <time>2016-08-12T20:12:39.000Z</time>
        <extensions>
          <ns3:TrackPointExtension>
            <ns3:atemp>14.0</ns3:atemp>
            <ns3:hr>131</ns3:hr>
          </ns3:TrackPointExtension>
        </extensions>
      </trkpt>
      <trkpt lat="-22.0121422223746776580810546875" lon="166.44933186471462249755859375">
        <ele>860</ele>
        <time>2016-08-12T20:12:40.000Z</time>
        <extensions>
          <ns3:TrackPointExtension>
            <ns3:atemp>14.0</ns3:atemp>
            <ns3:hr>131</ns3:hr>
          </ns3:TrackPointExtension>
        </extensions>
      </trkpt>
      <trkpt lat="-22.01213425956666469573974609375" lon="166.4493447728455066680908203125">
        <ele>860.20001220703125</ele>
        <time>2016-08-12T20:12:41.000Z</time>
        <extensions>
          <ns3:TrackPointExtension>
            <ns3:atemp>14.0</ns3:atemp>
            <ns3:hr>131</ns3:hr>
          </ns3:TrackPointExtension>
        </extensions>
      </trkpt>
      <trkpt lat="-22.01212520711123943328857421875" lon="166.44935910589993000030517578125">
        <ele>860.20001220703125</ele>
        <time>2016-08-12T20:12:42.000Z</time>
        <extensions>
          <ns3:TrackPointExtension>
            <ns3:atemp>14.0</ns3:atemp>
            <ns3:hr>131</ns3:hr>
          </ns3:TrackPointExtension>
        </extensions>
      </trkpt>
      <trkpt lat="-22.012116573750972747802734375" lon="166.4493736065924167633056640625">
        <ele>860.4000244140625</ele>
        <time>2016-08-12T20:12:43.000Z</time>
        <extensions>
          <ns3:TrackPointExtension>
            <ns3:atemp>14.0</ns3:atemp>
            <ns3:hr>132</ns3:hr>
          </ns3:TrackPointExtension>
        </extensions>
      </trkpt>
      <trkpt lat="-22.01210861094295978546142578125" lon="166.44938643090426921844482421875">
        <ele>860.5999755859375</ele>
        <time>2016-08-12T20:12:44.000Z</time>
        <extensions>
          <ns3:TrackPointExtension>
            <ns3:atemp>14.0</ns3:atemp>
            <ns3:hr>132</ns3:hr>
          </ns3:TrackPointExtension>
        </extensions>
      </trkpt>
      <trkpt lat="-22.012101151049137115478515625" lon="166.44940026104450225830078125">
        <ele>860.5999755859375</ele>
        <time>2016-08-12T20:12:45.000Z</time>
        <extensions>
          <ns3:TrackPointExtension>
            <ns3:atemp>14.0</ns3:atemp>
            <ns3:hr>131</ns3:hr>
          </ns3:TrackPointExtension>
        </extensions>
      </trkpt>
      <trkpt lat="-22.012094445526599884033203125" lon="166.44941291771829128265380859375">
        <ele>860.79998779296875</ele>
        <time>2016-08-12T20:12:46.000Z</time>
        <extensions>
          <ns3:TrackPointExtension>
            <ns3:atemp>14.0</ns3:atemp>
            <ns3:hr>131</ns3:hr>
          </ns3:TrackPointExtension>
        </extensions>
      </trkpt>
      <trkpt lat="-22.01208866201341152191162109375" lon="166.44942532293498516082763671875">
        <ele>860.79998779296875</ele>
        <time>2016-08-12T20:12:47.000Z</time>
        <extensions>
          <ns3:TrackPointExtension>
            <ns3:atemp>14.0</ns3:atemp>
            <ns3:hr>131</ns3:hr>
          </ns3:TrackPointExtension>
        </extensions>
      </trkpt>
      <trkpt lat="-22.01208195649087429046630859375" lon="166.449439488351345062255859375">
        <ele>861</ele>
        <time>2016-08-12T20:12:48.000Z</time>
        <extensions>
          <ns3:TrackPointExtension>
            <ns3:atemp>14.0</ns3:atemp>
            <ns3:hr>132</ns3:hr>
          </ns3:TrackPointExtension>
        </extensions>
      </trkpt>
      <trkpt lat="-22.012075670063495635986328125" lon="166.44945231266319751739501953125">
        <ele>861</ele>
        <time>2016-08-12T20:12:49.000Z</time>
        <extensions>
          <ns3:TrackPointExtension>
            <ns3:atemp>14.0</ns3:atemp>
            <ns3:hr>131</ns3:hr>
          </ns3:TrackPointExtension>
        </extensions>
      </trkpt>
      <trkpt lat="-22.01207122765481472015380859375" lon="166.4494674839079380035400390625">
        <ele>861.20001220703125</ele>
        <time>2016-08-12T20:12:50.000Z</time>
        <extensions>
          <ns3:TrackPointExtension>
            <ns3:atemp>14.0</ns3:atemp>
            <ns3:hr>131</ns3:hr>
          </ns3:TrackPointExtension>
        </extensions>
      </trkpt>
      <trkpt lat="-22.0120687969028949737548828125" lon="166.4494835771620273590087890625">
        <ele>861.4000244140625</ele>
        <time>2016-08-12T20:12:51.000Z</time>
        <extensions>
          <ns3:TrackPointExtension>
            <ns3:atemp>14.0</ns3:atemp>
            <ns3:hr>131</ns3:hr>
          </ns3:TrackPointExtension>
        </extensions>
      </trkpt>
      <trkpt lat="-22.0120681263506412506103515625" lon="166.44949824549257755279541015625">
        <ele>861.4000244140625</ele>
        <time>2016-08-12T20:12:52.000Z</time>
        <extensions>
          <ns3:TrackPointExtension>
            <ns3:atemp>14.0</ns3:atemp>
            <ns3:hr>131</ns3:hr>
          </ns3:TrackPointExtension>
        </extensions>
      </trkpt>
      <trkpt lat="-22.01206670142710208892822265625" lon="166.44951249472796916961669921875">
        <ele>861.79998779296875</ele>
        <time>2016-08-12T20:12:53.000Z</time>
        <extensions>
          <ns3:TrackPointExtension>
            <ns3:atemp>14.0</ns3:atemp>
            <ns3:hr>131</ns3:hr>
          </ns3:TrackPointExtension>
        </extensions>
      </trkpt>
      <trkpt lat="-22.0120619237422943115234375" lon="166.4495269954204559326171875">
        <ele>861.79998779296875</ele>
        <time>2016-08-12T20:12:54.000Z</time>
        <extensions>
          <ns3:TrackPointExtension>
            <ns3:atemp>14.0</ns3:atemp>
            <ns3:hr>131</ns3:hr>
          </ns3:TrackPointExtension>
        </extensions>
      </trkpt>
      <trkpt lat="-22.012056224048137664794921875" lon="166.44954015500843524932861328125">
        <ele>861.79998779296875</ele>
        <time>2016-08-12T20:12:55.000Z</time>
        <extensions>
          <ns3:TrackPointExtension>
            <ns3:atemp>14.0</ns3:atemp>
            <ns3:hr>131</ns3:hr>
          </ns3:TrackPointExtension>
        </extensions>
      </trkpt>
      <trkpt lat="-22.0120510272681713104248046875" lon="166.44955473951995372772216796875">
        <ele>862</ele>
        <time>2016-08-12T20:12:56.000Z</time>
        <extensions>
          <ns3:TrackPointExtension>
            <ns3:atemp>14.0</ns3:atemp>
            <ns3:hr>131</ns3:hr>
          </ns3:TrackPointExtension>
        </extensions>
      </trkpt>
      <trkpt lat="-22.01204574666917324066162109375" lon="166.4495694078505039215087890625">
        <ele>862.20001220703125</ele>
        <time>2016-08-12T20:12:57.000Z</time>
        <extensions>
          <ns3:TrackPointExtension>
            <ns3:atemp>14.0</ns3:atemp>
            <ns3:hr>131</ns3:hr>
          </ns3:TrackPointExtension>
        </extensions>
      </trkpt>
      <trkpt lat="-22.0120399631559848785400390625" lon="166.4495831541717052459716796875">
        <ele>862.4000244140625</ele>
        <time>2016-08-12T20:12:58.000Z</time>
        <extensions>
          <ns3:TrackPointExtension>
            <ns3:atemp>14.0</ns3:atemp>
            <ns3:hr>132</ns3:hr>
          </ns3:TrackPointExtension>
        </extensions>
      </trkpt>
      <trkpt lat="-22.01203535310924053192138671875" lon="166.4495955593883991241455078125">
        <ele>862.5999755859375</ele>
        <time>2016-08-12T20:12:59.000Z</time>
        <extensions>
          <ns3:TrackPointExtension>
            <ns3:atemp>14.0</ns3:atemp>
            <ns3:hr>132</ns3:hr>
          </ns3:TrackPointExtension>
        </extensions>
      </trkpt>
      <trkpt lat="-22.0120305754244327545166015625" lon="166.4496066235005855560302734375">
        <ele>862.79998779296875</ele>
        <time>2016-08-12T20:13:00.000Z</time>
        <extensions>
          <ns3:TrackPointExtension>
            <ns3:atemp>14.0</ns3:atemp>
            <ns3:hr>132</ns3:hr>
          </ns3:TrackPointExtension>
        </extensions>
      </trkpt>
      <trkpt lat="-22.01202412135899066925048828125" lon="166.44961751997470855712890625">
        <ele>863</ele>
        <time>2016-08-12T20:13:01.000Z</time>
        <extensions>
          <ns3:TrackPointExtension>
            <ns3:atemp>14.0</ns3:atemp>
            <ns3:hr>132</ns3:hr>
          </ns3:TrackPointExtension>
        </extensions>
      </trkpt>
      <trkpt lat="-22.0120185054838657379150390625" lon="166.44962967373430728912353515625">
        <ele>863.20001220703125</ele>
        <time>2016-08-12T20:13:02.000Z</time>
        <extensions>
          <ns3:TrackPointExtension>
            <ns3:atemp>14.0</ns3:atemp>
            <ns3:hr>132</ns3:hr>
          </ns3:TrackPointExtension>
        </extensions>
      </trkpt>
      <trkpt lat="-22.01201305724680423736572265625" lon="166.44964191131293773651123046875">
        <ele>863.4000244140625</ele>
        <time>2016-08-12T20:13:03.000Z</time>
        <extensions>
          <ns3:TrackPointExtension>
            <ns3:atemp>14.0</ns3:atemp>
            <ns3:hr>132</ns3:hr>
          </ns3:TrackPointExtension>
        </extensions>
      </trkpt>
      <trkpt lat="-22.01200802810490131378173828125" lon="166.44965331070125102996826171875">
        <ele>863.5999755859375</ele>
        <time>2016-08-12T20:13:04.000Z</time>
        <extensions>
          <ns3:TrackPointExtension>
            <ns3:atemp>14.0</ns3:atemp>
            <ns3:hr>132</ns3:hr>
          </ns3:TrackPointExtension>
        </extensions>
      </trkpt>
      <trkpt lat="-22.0120020769536495208740234375" lon="166.44966538064181804656982421875">
        <ele>863.79998779296875</ele>
        <time>2016-08-12T20:13:05.000Z</time>
        <extensions>
          <ns3:TrackPointExtension>
            <ns3:atemp>14.0</ns3:atemp>
            <ns3:hr>132</ns3:hr>
          </ns3:TrackPointExtension>
        </extensions>
      </trkpt>
      <trkpt lat="-22.01199545525014400482177734375" lon="166.449676193296909332275390625">
        <ele>864</ele>
        <time>2016-08-12T20:13:06.000Z</time>
        <extensions>
          <ns3:TrackPointExtension>
            <ns3:atemp>14.0</ns3:atemp>
            <ns3:hr>131</ns3:hr>
          </ns3:TrackPointExtension>
        </extensions>
      </trkpt>
      <trkpt lat="-22.01198908500373363494873046875" lon="166.44968734122812747955322265625">
        <ele>864.20001220703125</ele>
        <time>2016-08-12T20:13:07.000Z</time>
        <extensions>
          <ns3:TrackPointExtension>
            <ns3:atemp>14.0</ns3:atemp>
            <ns3:hr>132</ns3:hr>
          </ns3:TrackPointExtension>
        </extensions>
      </trkpt>
      <trkpt lat="-22.01198237948119640350341796875" lon="166.449699662625789642333984375">
        <ele>864.4000244140625</ele>
        <time>2016-08-12T20:13:08.000Z</time>
        <extensions>
          <ns3:TrackPointExtension>
            <ns3:atemp>14.0</ns3:atemp>
            <ns3:hr>132</ns3:hr>
          </ns3:TrackPointExtension>
        </extensions>
      </trkpt>
      <trkpt lat="-22.0119749195873737335205078125" lon="166.44971072673797607421875">
        <ele>864.5999755859375</ele>
        <time>2016-08-12T20:13:09.000Z</time>
        <extensions>
          <ns3:TrackPointExtension>
            <ns3:atemp>14.0</ns3:atemp>
            <ns3:hr>132</ns3:hr>
          </ns3:TrackPointExtension>
        </extensions>
      </trkpt>
      <trkpt lat="-22.0119651965796947479248046875" lon="166.44972438924014568328857421875">
        <ele>864.79998779296875</ele>
        <time>2016-08-12T20:13:10.000Z</time>
        <extensions>
          <ns3:TrackPointExtension>
            <ns3:atemp>14.0</ns3:atemp>
            <ns3:hr>132</ns3:hr>
          </ns3:TrackPointExtension>
        </extensions>
      </trkpt>
      <trkpt lat="-22.0119561441242694854736328125" lon="166.449735872447490692138671875">
        <ele>865.20001220703125</ele>
        <time>2016-08-12T20:13:11.000Z</time>
        <extensions>
          <ns3:TrackPointExtension>
            <ns3:atemp>14.0</ns3:atemp>
            <ns3:hr>132</ns3:hr>
          </ns3:TrackPointExtension>
        </extensions>
      </trkpt>
      <trkpt lat="-22.01194616965949535369873046875" lon="166.4497471041977405548095703125">
        <ele>865.4000244140625</ele>
        <time>2016-08-12T20:13:12.000Z</time>
        <extensions>
          <ns3:TrackPointExtension>
            <ns3:atemp>14.0</ns3:atemp>
            <ns3:hr>133</ns3:hr>
          </ns3:TrackPointExtension>
        </extensions>
      </trkpt>
      <trkpt lat="-22.011934854090213775634765625" lon="166.4497591741383075714111328125">
        <ele>866</ele>
        <time>2016-08-12T20:13:13.000Z</time>
        <extensions>
          <ns3:TrackPointExtension>
            <ns3:atemp>14.0</ns3:atemp>
            <ns3:hr>133</ns3:hr>
          </ns3:TrackPointExtension>
        </extensions>
      </trkpt>
      <trkpt lat="-22.0119249634444713592529296875" lon="166.44976998679339885711669921875">
        <ele>866.4000244140625</ele>
        <time>2016-08-12T20:13:14.000Z</time>
        <extensions>
          <ns3:TrackPointExtension>
            <ns3:atemp>14.0</ns3:atemp>
            <ns3:hr>133</ns3:hr>
          </ns3:TrackPointExtension>
        </extensions>
      </trkpt>
      <trkpt lat="-22.011914737522602081298828125" lon="166.44977987743914127349853515625">
        <ele>866.79998779296875</ele>
        <time>2016-08-12T20:13:15.000Z</time>
        <extensions>
          <ns3:TrackPointExtension>
            <ns3:atemp>14.0</ns3:atemp>
            <ns3:hr>133</ns3:hr>
          </ns3:TrackPointExtension>
        </extensions>
      </trkpt>
      <trkpt lat="-22.011904008686542510986328125" lon="166.4497883431613445281982421875">
        <ele>867</ele>
        <time>2016-08-12T20:13:16.000Z</time>
        <extensions>
          <ns3:TrackPointExtension>
            <ns3:atemp>14.0</ns3:atemp>
            <ns3:hr>132</ns3:hr>
          </ns3:TrackPointExtension>
        </extensions>
      </trkpt>
      <trkpt lat="-22.01189436949789524078369140625" lon="166.44979882054030895233154296875">
        <ele>867.20001220703125</ele>
        <time>2016-08-12T20:13:17.000Z</time>
        <extensions>
          <ns3:TrackPointExtension>
            <ns3:atemp>14.0</ns3:atemp>
            <ns3:hr>132</ns3:hr>
          </ns3:TrackPointExtension>
        </extensions>
      </trkpt>
      <trkpt lat="-22.011883221566677093505859375" lon="166.449807621538639068603515625">
        <ele>867.4000244140625</ele>
        <time>2016-08-12T20:13:18.000Z</time>
        <extensions>
          <ns3:TrackPointExtension>
            <ns3:atemp>14.0</ns3:atemp>
            <ns3:hr>132</ns3:hr>
          </ns3:TrackPointExtension>
        </extensions>
      </trkpt>
      <trkpt lat="-22.0118706487119197845458984375" lon="166.44981776364147663116455078125">
        <ele>867.5999755859375</ele>
        <time>2016-08-12T20:13:19.000Z</time>
        <extensions>
          <ns3:TrackPointExtension>
            <ns3:atemp>14.0</ns3:atemp>
            <ns3:hr>132</ns3:hr>
          </ns3:TrackPointExtension>
        </extensions>
      </trkpt>
      <trkpt lat="-22.01185765676200389862060546875" lon="166.449827067553997039794921875">
        <ele>867.5999755859375</ele>
        <time>2016-08-12T20:13:20.000Z</time>
        <extensions>
          <ns3:TrackPointExtension>
            <ns3:atemp>14.0</ns3:atemp>
            <ns3:hr>132</ns3:hr>
          </ns3:TrackPointExtension>
        </extensions>
      </trkpt>
      <trkpt lat="-22.0118441618978977203369140625" lon="166.44983452744781970977783203125">
        <ele>867.5999755859375</ele>
        <time>2016-08-12T20:13:21.000Z</time>
        <extensions>
          <ns3:TrackPointExtension>
            <ns3:atemp>14.0</ns3:atemp>
            <ns3:hr>132</ns3:hr>
          </ns3:TrackPointExtension>
        </extensions>
      </trkpt>
      <trkpt lat="-22.0118324272334575653076171875" lon="166.44984357990324497222900390625">
        <ele>867.5999755859375</ele>
        <time>2016-08-12T20:13:22.000Z</time>
        <extensions>
          <ns3:TrackPointExtension>
            <ns3:atemp>14.0</ns3:atemp>
            <ns3:hr>133</ns3:hr>
          </ns3:TrackPointExtension>
        </extensions>
      </trkpt>
      <trkpt lat="-22.0118220336735248565673828125" lon="166.44984995014965534210205078125">
        <ele>867.5999755859375</ele>
        <time>2016-08-12T20:13:23.000Z</time>
        <extensions>
          <ns3:TrackPointExtension>
            <ns3:atemp>14.0</ns3:atemp>
            <ns3:hr>133</ns3:hr>
          </ns3:TrackPointExtension>
        </extensions>
      </trkpt>
      <trkpt lat="-22.0118099637329578399658203125" lon="166.44985430873930454254150390625">
        <ele>868</ele>
        <time>2016-08-12T20:13:24.000Z</time>
        <extensions>
          <ns3:TrackPointExtension>
            <ns3:atemp>14.0</ns3:atemp>
            <ns3:hr>133</ns3:hr>
          </ns3:TrackPointExtension>
        </extensions>
      </trkpt>
      <trkpt lat="-22.0117972232401371002197265625" lon="166.44986017607152462005615234375">
        <ele>868.4000244140625</ele>
        <time>2016-08-12T20:13:25.000Z</time>
        <extensions>
          <ns3:TrackPointExtension>
            <ns3:atemp>14.0</ns3:atemp>
            <ns3:hr>133</ns3:hr>
          </ns3:TrackPointExtension>
        </extensions>
      </trkpt>
      <trkpt lat="-22.01178389601409435272216796875" lon="166.4498664624989032745361328125">
        <ele>868.5999755859375</ele>
        <time>2016-08-12T20:13:26.000Z</time>
        <extensions>
          <ns3:TrackPointExtension>
            <ns3:atemp>14.0</ns3:atemp>
            <ns3:hr>133</ns3:hr>
          </ns3:TrackPointExtension>
        </extensions>
      </trkpt>
      <trkpt lat="-22.0117704011499881744384765625" lon="166.44987409003078937530517578125">
        <ele>868.5999755859375</ele>
        <time>2016-08-12T20:13:27.000Z</time>
        <extensions>
          <ns3:TrackPointExtension>
            <ns3:atemp>14.0</ns3:atemp>
            <ns3:hr>133</ns3:hr>
          </ns3:TrackPointExtension>
        </extensions>
      </trkpt>
      <trkpt lat="-22.01175740920007228851318359375" lon="166.44988129846751689910888671875">
        <ele>868.5999755859375</ele>
        <time>2016-08-12T20:13:28.000Z</time>
        <extensions>
          <ns3:TrackPointExtension>
            <ns3:atemp>14.0</ns3:atemp>
            <ns3:hr>133</ns3:hr>
          </ns3:TrackPointExtension>
        </extensions>
      </trkpt>
      <trkpt lat="-22.01174550689756870269775390625" lon="166.449887752532958984375">
        <ele>868.5999755859375</ele>
        <time>2016-08-12T20:13:29.000Z</time>
        <extensions>
          <ns3:TrackPointExtension>
            <ns3:atemp>14.0</ns3:atemp>
            <ns3:hr>133</ns3:hr>
          </ns3:TrackPointExtension>
        </extensions>
      </trkpt>
      <trkpt lat="-22.01173310168087482452392578125" lon="166.44989403896033763885498046875">
        <ele>868.5999755859375</ele>
        <time>2016-08-12T20:13:30.000Z</time>
        <extensions>
          <ns3:TrackPointExtension>
            <ns3:atemp>14.0</ns3:atemp>
            <ns3:hr>133</ns3:hr>
          </ns3:TrackPointExtension>
        </extensions>
      </trkpt>
      <trkpt lat="-22.01171985827386379241943359375" lon="166.4498983137309551239013671875">
        <ele>868.79998779296875</ele>
        <time>2016-08-12T20:13:31.000Z</time>
        <extensions>
          <ns3:TrackPointExtension>
            <ns3:atemp>14.0</ns3:atemp>
            <ns3:hr>133</ns3:hr>
          </ns3:TrackPointExtension>
        </extensions>
      </trkpt>
      <trkpt lat="-22.01170678250491619110107421875" lon="166.44990460015833377838134765625">
        <ele>869.4000244140625</ele>
        <time>2016-08-12T20:13:32.000Z</time>
        <extensions>
          <ns3:TrackPointExtension>
            <ns3:atemp>14.0</ns3:atemp>
            <ns3:hr>134</ns3:hr>
          </ns3:TrackPointExtension>
        </extensions>
      </trkpt>
      <trkpt lat="-22.0116942934691905975341796875" lon="166.4499120600521564483642578125">
        <ele>869.5999755859375</ele>
        <time>2016-08-12T20:13:33.000Z</time>
        <extensions>
          <ns3:TrackPointExtension>
            <ns3:atemp>14.0</ns3:atemp>
            <ns3:hr>134</ns3:hr>
          </ns3:TrackPointExtension>
        </extensions>
      </trkpt>
      <trkpt lat="-22.01168130151927471160888671875" lon="166.44991935230791568756103515625">
        <ele>869.79998779296875</ele>
        <time>2016-08-12T20:13:34.000Z</time>
        <extensions>
          <ns3:TrackPointExtension>
            <ns3:atemp>14.0</ns3:atemp>
            <ns3:hr>134</ns3:hr>
          </ns3:TrackPointExtension>
        </extensions>
      </trkpt>
      <trkpt lat="-22.01167023740708827972412109375" lon="166.44992505200207233428955078125">
        <ele>870.20001220703125</ele>
        <time>2016-08-12T20:13:35.000Z</time>
        <extensions>
          <ns3:TrackPointExtension>
            <ns3:atemp>14.0</ns3:atemp>
            <ns3:hr>134</ns3:hr>
          </ns3:TrackPointExtension>
        </extensions>
      </trkpt>
      <trkpt lat="-22.01165917329490184783935546875" lon="166.449931003153324127197265625">
        <ele>870.5999755859375</ele>
        <time>2016-08-12T20:13:36.000Z</time>
        <extensions>
          <ns3:TrackPointExtension>
            <ns3:atemp>14.0</ns3:atemp>
            <ns3:hr>134</ns3:hr>
          </ns3:TrackPointExtension>
        </extensions>
      </trkpt>
      <trkpt lat="-22.01164710335433483123779296875" lon="166.44994097761809825897216796875">
        <ele>870.79998779296875</ele>
        <time>2016-08-12T20:13:37.000Z</time>
        <extensions>
          <ns3:TrackPointExtension>
            <ns3:atemp>14.0</ns3:atemp>
            <ns3:hr>134</ns3:hr>
          </ns3:TrackPointExtension>
        </extensions>
      </trkpt>
      <trkpt lat="-22.01163620688021183013916015625" lon="166.4499502815306186676025390625">
        <ele>871</ele>
        <time>2016-08-12T20:13:38.000Z</time>
        <extensions>
          <ns3:TrackPointExtension>
            <ns3:atemp>14.0</ns3:atemp>
            <ns3:hr>134</ns3:hr>
          </ns3:TrackPointExtension>
        </extensions>
      </trkpt>
      <trkpt lat="-22.01162497512996196746826171875" lon="166.4499576576054096221923828125">
        <ele>871.20001220703125</ele>
        <time>2016-08-12T20:13:39.000Z</time>
        <extensions>
          <ns3:TrackPointExtension>
            <ns3:atemp>14.0</ns3:atemp>
            <ns3:hr>134</ns3:hr>
          </ns3:TrackPointExtension>
        </extensions>
      </trkpt>
      <trkpt lat="-22.0116144977509975433349609375" lon="166.4499660395085811614990234375">
        <ele>871.4000244140625</ele>
        <time>2016-08-12T20:13:40.000Z</time>
        <extensions>
          <ns3:TrackPointExtension>
            <ns3:atemp>14.0</ns3:atemp>
            <ns3:hr>134</ns3:hr>
          </ns3:TrackPointExtension>
        </extensions>
      </trkpt>
      <trkpt lat="-22.01160536147654056549072265625" lon="166.44997735507786273956298828125">
        <ele>871.5999755859375</ele>
        <time>2016-08-12T20:13:41.000Z</time>
        <extensions>
          <ns3:TrackPointExtension>
            <ns3:atemp>14.0</ns3:atemp>
            <ns3:hr>135</ns3:hr>
          </ns3:TrackPointExtension>
        </extensions>
      </trkpt>
      <trkpt lat="-22.01159496791660785675048828125" lon="166.44998707808554172515869140625">
        <ele>871.79998779296875</ele>
        <time>2016-08-12T20:13:42.000Z</time>
        <extensions>
          <ns3:TrackPointExtension>
            <ns3:atemp>14.0</ns3:atemp>
            <ns3:hr>135</ns3:hr>
          </ns3:TrackPointExtension>
        </extensions>
      </trkpt>
      <trkpt lat="-22.01158390380442142486572265625" lon="166.44999571144580841064453125">
        <ele>872</ele>
        <time>2016-08-12T20:13:43.000Z</time>
        <extensions>
          <ns3:TrackPointExtension>
            <ns3:atemp>14.0</ns3:atemp>
            <ns3:hr>135</ns3:hr>
          </ns3:TrackPointExtension>
        </extensions>
      </trkpt>
      <trkpt lat="-22.011574096977710723876953125" lon="166.4500071108341217041015625">
        <ele>872.20001220703125</ele>
        <time>2016-08-12T20:13:44.000Z</time>
        <extensions>
          <ns3:TrackPointExtension>
            <ns3:atemp>14.0</ns3:atemp>
            <ns3:hr>135</ns3:hr>
          </ns3:TrackPointExtension>
        </extensions>
      </trkpt>
      <trkpt lat="-22.01156370341777801513671875" lon="166.4500193484127521514892578125">
        <ele>872.20001220703125</ele>
        <time>2016-08-12T20:13:45.000Z</time>
        <extensions>
          <ns3:TrackPointExtension>
            <ns3:atemp>14.0</ns3:atemp>
            <ns3:hr>135</ns3:hr>
          </ns3:TrackPointExtension>
        </extensions>
      </trkpt>
      <trkpt lat="-22.0115523040294647216796875" lon="166.450035274028778076171875">
        <ele>872.4000244140625</ele>
        <time>2016-08-12T20:13:46.000Z</time>
        <extensions>
          <ns3:TrackPointExtension>
            <ns3:atemp>14.0</ns3:atemp>
            <ns3:hr>135</ns3:hr>
          </ns3:TrackPointExtension>
        </extensions>
      </trkpt>
      <trkpt lat="-22.01153897680342197418212890625" lon="166.450051367282867431640625">
        <ele>872.5999755859375</ele>
        <time>2016-08-12T20:13:47.000Z</time>
        <extensions>
          <ns3:TrackPointExtension>
            <ns3:atemp>14.0</ns3:atemp>
            <ns3:hr>135</ns3:hr>
          </ns3:TrackPointExtension>
        </extensions>
      </trkpt>
      <trkpt lat="-22.01152523048222064971923828125" lon="166.45006720907986164093017578125">
        <ele>872.79998779296875</ele>
        <time>2016-08-12T20:13:48.000Z</time>
        <extensions>
          <ns3:TrackPointExtension>
            <ns3:atemp>14.0</ns3:atemp>
            <ns3:hr>135</ns3:hr>
          </ns3:TrackPointExtension>
        </extensions>
      </trkpt>
      <trkpt lat="-22.0115098915994167327880859375" lon="166.45008497871458530426025390625">
        <ele>872.79998779296875</ele>
        <time>2016-08-12T20:13:49.000Z</time>
        <extensions>
          <ns3:TrackPointExtension>
            <ns3:atemp>14.0</ns3:atemp>
            <ns3:hr>136</ns3:hr>
          </ns3:TrackPointExtension>
        </extensions>
      </trkpt>
      <trkpt lat="-22.01149287633597850799560546875" lon="166.450102664530277252197265625">
        <ele>873.20001220703125</ele>
        <time>2016-08-12T20:13:50.000Z</time>
        <extensions>
          <ns3:TrackPointExtension>
            <ns3:atemp>14.0</ns3:atemp>
            <ns3:hr>136</ns3:hr>
          </ns3:TrackPointExtension>
        </extensions>
      </trkpt>
      <trkpt lat="-22.011476196348667144775390625" lon="166.450118087232112884521484375">
        <ele>873.4000244140625</ele>
        <time>2016-08-12T20:13:51.000Z</time>
        <extensions>
          <ns3:TrackPointExtension>
            <ns3:atemp>14.0</ns3:atemp>
            <ns3:hr>137</ns3:hr>
          </ns3:TrackPointExtension>
        </extensions>
      </trkpt>
      <trkpt lat="-22.01145708560943603515625" lon="166.45013359375298023223876953125">
        <ele>873.5999755859375</ele>
        <time>2016-08-12T20:13:52.000Z</time>
        <extensions>
          <ns3:TrackPointExtension>
            <ns3:atemp>14.0</ns3:atemp>
            <ns3:hr>137</ns3:hr>
          </ns3:TrackPointExtension>
        </extensions>
      </trkpt>
      <trkpt lat="-22.01143705286085605621337890625" lon="166.45014566369354724884033203125">
        <ele>873.4000244140625</ele>
        <time>2016-08-12T20:13:53.000Z</time>
        <extensions>
          <ns3:TrackPointExtension>
            <ns3:atemp>14.0</ns3:atemp>
            <ns3:hr>137</ns3:hr>
          </ns3:TrackPointExtension>
        </extensions>
      </trkpt>
      <trkpt lat="-22.01141626574099063873291015625" lon="166.450153626501560211181640625">
        <ele>873.5999755859375</ele>
        <time>2016-08-12T20:13:54.000Z</time>
        <extensions>
          <ns3:TrackPointExtension>
            <ns3:atemp>14.0</ns3:atemp>
            <ns3:hr>138</ns3:hr>
          </ns3:TrackPointExtension>
        </extensions>
      </trkpt>
      <trkpt lat="-22.01139464043080806732177734375" lon="166.45016225986182689666748046875">
        <ele>873.79998779296875</ele>
        <time>2016-08-12T20:13:55.000Z</time>
        <extensions>
          <ns3:TrackPointExtension>
            <ns3:atemp>14.0</ns3:atemp>
            <ns3:hr>138</ns3:hr>
          </ns3:TrackPointExtension>
        </extensions>
      </trkpt>
      <trkpt lat="-22.01137368567287921905517578125" lon="166.45016946829855442047119140625">
        <ele>873.79998779296875</ele>
        <time>2016-08-12T20:13:56.000Z</time>
        <extensions>
          <ns3:TrackPointExtension>
            <ns3:atemp>14.0</ns3:atemp>
            <ns3:hr>139</ns3:hr>
          </ns3:TrackPointExtension>
        </extensions>
      </trkpt>
      <trkpt lat="-22.0113526470959186553955078125" lon="166.45017147995531558990478515625">
        <ele>873.79998779296875</ele>
        <time>2016-08-12T20:13:57.000Z</time>
        <extensions>
          <ns3:TrackPointExtension>
            <ns3:atemp>14.0</ns3:atemp>
            <ns3:hr>138</ns3:hr>
          </ns3:TrackPointExtension>
        </extensions>
      </trkpt>
      <trkpt lat="-22.01133026741445064544677734375" lon="166.450171731412410736083984375">
        <ele>874.20001220703125</ele>
        <time>2016-08-12T20:13:58.000Z</time>
        <extensions>
          <ns3:TrackPointExtension>
            <ns3:atemp>14.0</ns3:atemp>
            <ns3:hr>139</ns3:hr>
          </ns3:TrackPointExtension>
        </extensions>
      </trkpt>
      <trkpt lat="-22.011307887732982635498046875" lon="166.4501695521175861358642578125">
        <ele>874.4000244140625</ele>
        <time>2016-08-12T20:13:59.000Z</time>
        <extensions>
          <ns3:TrackPointExtension>
            <ns3:atemp>14.0</ns3:atemp>
            <ns3:hr>139</ns3:hr>
          </ns3:TrackPointExtension>
        </extensions>
      </trkpt>
      <trkpt lat="-22.01128634624183177947998046875" lon="166.45015941001474857330322265625">
        <ele>874.20001220703125</ele>
        <time>2016-08-12T20:14:00.000Z</time>
        <extensions>
          <ns3:TrackPointExtension>
            <ns3:atemp>14.0</ns3:atemp>
            <ns3:hr>139</ns3:hr>
          </ns3:TrackPointExtension>
        </extensions>
      </trkpt>
      <trkpt lat="-22.01126874424517154693603515625" lon="166.45014482550323009490966796875">
        <ele>874.20001220703125</ele>
        <time>2016-08-12T20:14:01.000Z</time>
        <extensions>
          <ns3:TrackPointExtension>
            <ns3:atemp>14.0</ns3:atemp>
            <ns3:hr>139</ns3:hr>
          </ns3:TrackPointExtension>
        </extensions>
      </trkpt>
      <trkpt lat="-22.011250890791416168212890625" lon="166.4501340128481388092041015625">
        <ele>874.4000244140625</ele>
        <time>2016-08-12T20:14:02.000Z</time>
        <extensions>
          <ns3:TrackPointExtension>
            <ns3:atemp>14.0</ns3:atemp>
            <ns3:hr>139</ns3:hr>
          </ns3:TrackPointExtension>
        </extensions>
      </trkpt>
      <trkpt lat="-22.0112285949289798736572265625" lon="166.450124122202396392822265625">
        <ele>874.4000244140625</ele>
        <time>2016-08-12T20:14:03.000Z</time>
        <extensions>
          <ns3:TrackPointExtension>
            <ns3:atemp>14.0</ns3:atemp>
            <ns3:hr>139</ns3:hr>
          </ns3:TrackPointExtension>
        </extensions>
      </trkpt>
      <trkpt lat="-22.011208645999431610107421875" lon="166.45011532120406627655029296875">
        <ele>874.4000244140625</ele>
        <time>2016-08-12T20:14:04.000Z</time>
        <extensions>
          <ns3:TrackPointExtension>
            <ns3:atemp>14.0</ns3:atemp>
            <ns3:hr>139</ns3:hr>
          </ns3:TrackPointExtension>
        </extensions>
      </trkpt>
      <trkpt lat="-22.0111880265176296234130859375" lon="166.45010568201541900634765625">
        <ele>874.5999755859375</ele>
        <time>2016-08-12T20:14:05.000Z</time>
        <extensions>
          <ns3:TrackPointExtension>
            <ns3:atemp>14.0</ns3:atemp>
            <ns3:hr>140</ns3:hr>
          </ns3:TrackPointExtension>
        </extensions>
      </trkpt>
      <trkpt lat="-22.01116816140711307525634765625" lon="166.4500956237316131591796875">
        <ele>875.20001220703125</ele>
        <time>2016-08-12T20:14:06.000Z</time>
        <extensions>
          <ns3:TrackPointExtension>
            <ns3:atemp>14.0</ns3:atemp>
            <ns3:hr>139</ns3:hr>
          </ns3:TrackPointExtension>
        </extensions>
      </trkpt>
      <trkpt lat="-22.01114804483950138092041015625" lon="166.45008380524814128875732421875">
        <ele>875</ele>
        <time>2016-08-12T20:14:07.000Z</time>
        <extensions>
          <ns3:TrackPointExtension>
            <ns3:atemp>14.0</ns3:atemp>
            <ns3:hr>140</ns3:hr>
          </ns3:TrackPointExtension>
        </extensions>
      </trkpt>
      <trkpt lat="-22.0111276768147945404052734375" lon="166.45007257349789142608642578125">
        <ele>874.79998779296875</ele>
        <time>2016-08-12T20:14:08.000Z</time>
        <extensions>
          <ns3:TrackPointExtension>
            <ns3:atemp>14.0</ns3:atemp>
            <ns3:hr>140</ns3:hr>
          </ns3:TrackPointExtension>
        </extensions>
      </trkpt>
      <trkpt lat="-22.011108733713626861572265625" lon="166.4500602521002292633056640625">
        <ele>875.20001220703125</ele>
        <time>2016-08-12T20:14:09.000Z</time>
        <extensions>
          <ns3:TrackPointExtension>
            <ns3:atemp>14.0</ns3:atemp>
            <ns3:hr>139</ns3:hr>
          </ns3:TrackPointExtension>
        </extensions>
      </trkpt>
      <trkpt lat="-22.01108937151730060577392578125" lon="166.4500495232641696929931640625">
        <ele>875.4000244140625</ele>
        <time>2016-08-12T20:14:10.000Z</time>
        <extensions>
          <ns3:TrackPointExtension>
            <ns3:atemp>14.0</ns3:atemp>
            <ns3:hr>140</ns3:hr>
          </ns3:TrackPointExtension>
        </extensions>
      </trkpt>
      <trkpt lat="-22.0110659860074520111083984375" lon="166.45004809834063053131103515625">
        <ele>875.4000244140625</ele>
        <time>2016-08-12T20:14:11.000Z</time>
        <extensions>
          <ns3:TrackPointExtension>
            <ns3:atemp>14.0</ns3:atemp>
            <ns3:hr>140</ns3:hr>
          </ns3:TrackPointExtension>
        </extensions>
      </trkpt>
      <trkpt lat="-22.01104737818241119384765625" lon="166.4500501938164234161376953125">
        <ele>875.5999755859375</ele>
        <time>2016-08-12T20:14:12.000Z</time>
        <extensions>
          <ns3:TrackPointExtension>
            <ns3:atemp>14.0</ns3:atemp>
            <ns3:hr>139</ns3:hr>
          </ns3:TrackPointExtension>
        </extensions>
      </trkpt>
      <trkpt lat="-22.0110307820141315460205078125" lon="166.45005069673061370849609375">
        <ele>875.79998779296875</ele>
        <time>2016-08-12T20:14:13.000Z</time>
        <extensions>
          <ns3:TrackPointExtension>
            <ns3:atemp>14.0</ns3:atemp>
            <ns3:hr>140</ns3:hr>
          </ns3:TrackPointExtension>
        </extensions>
      </trkpt>
      <trkpt lat="-22.0110180415213108062744140625" lon="166.45005111582577228546142578125">
        <ele>876</ele>
        <time>2016-08-12T20:14:14.000Z</time>
        <extensions>
          <ns3:TrackPointExtension>
            <ns3:atemp>14.0</ns3:atemp>
            <ns3:hr>139</ns3:hr>
          </ns3:TrackPointExtension>
        </extensions>
      </trkpt>
      <trkpt lat="-22.01100572012364864349365234375" lon="166.4500538818538188934326171875">
        <ele>876.20001220703125</ele>
        <time>2016-08-12T20:14:15.000Z</time>
        <extensions>
          <ns3:TrackPointExtension>
            <ns3:atemp>14.0</ns3:atemp>
            <ns3:hr>139</ns3:hr>
          </ns3:TrackPointExtension>
        </extensions>
      </trkpt>
      <trkpt lat="-22.01099197380244731903076171875" lon="166.45005404949188232421875">
        <ele>876.4000244140625</ele>
        <time>2016-08-12T20:14:16.000Z</time>
        <extensions>
          <ns3:TrackPointExtension>
            <ns3:atemp>14.0</ns3:atemp>
            <ns3:hr>139</ns3:hr>
          </ns3:TrackPointExtension>
        </extensions>
      </trkpt>
      <trkpt lat="-22.01097940094769001007080078125" lon="166.45005606114864349365234375">
        <ele>876.5999755859375</ele>
        <time>2016-08-12T20:14:17.000Z</time>
        <extensions>
          <ns3:TrackPointExtension>
            <ns3:atemp>14.0</ns3:atemp>
            <ns3:hr>139</ns3:hr>
          </ns3:TrackPointExtension>
        </extensions>
      </trkpt>
      <trkpt lat="-22.0109670795500278472900390625" lon="166.45005530677735805511474609375">
        <ele>876.79998779296875</ele>
        <time>2016-08-12T20:14:18.000Z</time>
        <extensions>
          <ns3:TrackPointExtension>
            <ns3:atemp>14.0</ns3:atemp>
            <ns3:hr>139</ns3:hr>
          </ns3:TrackPointExtension>
        </extensions>
      </trkpt>
      <trkpt lat="-22.01095676980912685394287109375" lon="166.4500589109957218170166015625">
        <ele>877</ele>
        <time>2016-08-12T20:14:19.000Z</time>
        <extensions>
          <ns3:TrackPointExtension>
            <ns3:atemp>14.0</ns3:atemp>
            <ns3:hr>139</ns3:hr>
          </ns3:TrackPointExtension>
        </extensions>
      </trkpt>
      <trkpt lat="-22.0109436102211475372314453125" lon="166.45006268285214900970458984375">
        <ele>877.20001220703125</ele>
        <time>2016-08-12T20:14:20.000Z</time>
        <extensions>
          <ns3:TrackPointExtension>
            <ns3:atemp>14.0</ns3:atemp>
            <ns3:hr>139</ns3:hr>
          </ns3:TrackPointExtension>
        </extensions>
      </trkpt>
      <trkpt lat="-22.0109305344521999359130859375" lon="166.4500699751079082489013671875">
        <ele>877.4000244140625</ele>
        <time>2016-08-12T20:14:21.000Z</time>
        <extensions>
          <ns3:TrackPointExtension>
            <ns3:atemp>14.0</ns3:atemp>
            <ns3:hr>139</ns3:hr>
          </ns3:TrackPointExtension>
        </extensions>
      </trkpt>
      <trkpt lat="-22.01091720722615718841552734375" lon="166.45007391460239887237548828125">
        <ele>877.5999755859375</ele>
        <time>2016-08-12T20:14:22.000Z</time>
        <extensions>
          <ns3:TrackPointExtension>
            <ns3:atemp>14.0</ns3:atemp>
            <ns3:hr>138</ns3:hr>
          </ns3:TrackPointExtension>
        </extensions>
      </trkpt>
      <trkpt lat="-22.0109037123620510101318359375" lon="166.45007810555398464202880859375">
        <ele>877.79998779296875</ele>
        <time>2016-08-12T20:14:23.000Z</time>
        <extensions>
          <ns3:TrackPointExtension>
            <ns3:atemp>14.0</ns3:atemp>
            <ns3:hr>138</ns3:hr>
          </ns3:TrackPointExtension>
        </extensions>
      </trkpt>
      <trkpt lat="-22.01089273206889629364013671875" lon="166.45008631981909275054931640625">
        <ele>878</ele>
        <time>2016-08-12T20:14:24.000Z</time>
        <extensions>
          <ns3:TrackPointExtension>
            <ns3:atemp>14.0</ns3:atemp>
            <ns3:hr>138</ns3:hr>
          </ns3:TrackPointExtension>
        </extensions>
      </trkpt>
      <trkpt lat="-22.01088082976639270782470703125" lon="166.450094617903232574462890625">
        <ele>878.20001220703125</ele>
        <time>2016-08-12T20:14:25.000Z</time>
        <extensions>
          <ns3:TrackPointExtension>
            <ns3:atemp>14.0</ns3:atemp>
            <ns3:hr>139</ns3:hr>
          </ns3:TrackPointExtension>
        </extensions>
      </trkpt>
      <trkpt lat="-22.01087026856839656829833984375" lon="166.45009956322610378265380859375">
        <ele>878.5999755859375</ele>
        <time>2016-08-12T20:14:26.000Z</time>
        <extensions>
          <ns3:TrackPointExtension>
            <ns3:atemp>14.0</ns3:atemp>
            <ns3:hr>138</ns3:hr>
          </ns3:TrackPointExtension>
        </extensions>
      </trkpt>
      <trkpt lat="-22.01086037792265415191650390625" lon="166.45010568201541900634765625">
        <ele>878.79998779296875</ele>
        <time>2016-08-12T20:14:27.000Z</time>
        <extensions>
          <ns3:TrackPointExtension>
            <ns3:atemp>14.0</ns3:atemp>
            <ns3:hr>138</ns3:hr>
          </ns3:TrackPointExtension>
        </extensions>
      </trkpt>
      <trkpt lat="-22.01085149310529232025146484375" lon="166.450112052261829376220703125">
        <ele>879</ele>
        <time>2016-08-12T20:14:28.000Z</time>
        <extensions>
          <ns3:TrackPointExtension>
            <ns3:atemp>14.0</ns3:atemp>
            <ns3:hr>138</ns3:hr>
          </ns3:TrackPointExtension>
        </extensions>
      </trkpt>
      <trkpt lat="-22.01084160245954990386962890625" lon="166.45011900924146175384521484375">
        <ele>879.20001220703125</ele>
        <time>2016-08-12T20:14:29.000Z</time>
        <extensions>
          <ns3:TrackPointExtension>
            <ns3:atemp>14.0</ns3:atemp>
            <ns3:hr>138</ns3:hr>
          </ns3:TrackPointExtension>
        </extensions>
      </trkpt>
      <trkpt lat="-22.01083020307123661041259765625" lon="166.450128816068172454833984375">
        <ele>879.4000244140625</ele>
        <time>2016-08-12T20:14:30.000Z</time>
        <extensions>
          <ns3:TrackPointExtension>
            <ns3:atemp>14.0</ns3:atemp>
            <ns3:hr>138</ns3:hr>
          </ns3:TrackPointExtension>
        </extensions>
      </trkpt>
      <trkpt lat="-22.010821066796779632568359375" lon="166.45013979636132717132568359375">
        <ele>879.5999755859375</ele>
        <time>2016-08-12T20:14:31.000Z</time>
        <extensions>
          <ns3:TrackPointExtension>
            <ns3:atemp>14.0</ns3:atemp>
            <ns3:hr>138</ns3:hr>
          </ns3:TrackPointExtension>
        </extensions>
      </trkpt>
      <trkpt lat="-22.01081159524619579315185546875" lon="166.4501491002738475799560546875">
        <ele>879.79998779296875</ele>
        <time>2016-08-12T20:14:32.000Z</time>
        <extensions>
          <ns3:TrackPointExtension>
            <ns3:atemp>14.0</ns3:atemp>
            <ns3:hr>138</ns3:hr>
          </ns3:TrackPointExtension>
        </extensions>
      </trkpt>
      <trkpt lat="-22.0108027942478656768798828125" lon="166.450158655643463134765625">
        <ele>880.20001220703125</ele>
        <time>2016-08-12T20:14:33.000Z</time>
        <extensions>
          <ns3:TrackPointExtension>
            <ns3:atemp>14.0</ns3:atemp>
            <ns3:hr>138</ns3:hr>
          </ns3:TrackPointExtension>
        </extensions>
      </trkpt>
      <trkpt lat="-22.0107932388782501220703125" lon="166.4501698873937129974365234375">
        <ele>880.4000244140625</ele>
        <time>2016-08-12T20:14:34.000Z</time>
        <extensions>
          <ns3:TrackPointExtension>
            <ns3:atemp>14.0</ns3:atemp>
            <ns3:hr>138</ns3:hr>
          </ns3:TrackPointExtension>
        </extensions>
      </trkpt>
      <trkpt lat="-22.01078527607023715972900390625" lon="166.45018539391458034515380859375">
        <ele>880.4000244140625</ele>
        <time>2016-08-12T20:14:35.000Z</time>
        <extensions>
          <ns3:TrackPointExtension>
            <ns3:atemp>14.0</ns3:atemp>
            <ns3:hr>138</ns3:hr>
          </ns3:TrackPointExtension>
        </extensions>
      </trkpt>
      <trkpt lat="-22.010778486728668212890625" lon="166.4501997269690036773681640625">
        <ele>880.5999755859375</ele>
        <time>2016-08-12T20:14:36.000Z</time>
        <extensions>
          <ns3:TrackPointExtension>
            <ns3:atemp>14.0</ns3:atemp>
            <ns3:hr>139</ns3:hr>
          </ns3:TrackPointExtension>
        </extensions>
      </trkpt>
      <trkpt lat="-22.01077521778643131256103515625" lon="166.450220681726932525634765625">
        <ele>880.79998779296875</ele>
        <time>2016-08-12T20:14:37.000Z</time>
        <extensions>
          <ns3:TrackPointExtension>
            <ns3:atemp>14.0</ns3:atemp>
            <ns3:hr>139</ns3:hr>
          </ns3:TrackPointExtension>
        </extensions>
      </trkpt>
      <trkpt lat="-22.01077320612967014312744140625" lon="166.45024172030389308929443359375">
        <ele>881</ele>
        <time>2016-08-12T20:14:38.000Z</time>
        <extensions>
          <ns3:TrackPointExtension>
            <ns3:atemp>14.0</ns3:atemp>
            <ns3:hr>139</ns3:hr>
          </ns3:TrackPointExtension>
        </extensions>
      </trkpt>
      <trkpt lat="-22.0107726193964481353759765625" lon="166.45026150159537792205810546875">
        <ele>881</ele>
        <time>2016-08-12T20:14:39.000Z</time>
        <extensions>
          <ns3:TrackPointExtension>
            <ns3:atemp>14.0</ns3:atemp>
            <ns3:hr>139</ns3:hr>
          </ns3:TrackPointExtension>
        </extensions>
      </trkpt>
      <trkpt lat="-22.0107746310532093048095703125" lon="166.45028111524879932403564453125">
        <ele>881.20001220703125</ele>
        <time>2016-08-12T20:14:40.000Z</time>
        <extensions>
          <ns3:TrackPointExtension>
            <ns3:atemp>14.0</ns3:atemp>
            <ns3:hr>139</ns3:hr>
          </ns3:TrackPointExtension>
        </extensions>
      </trkpt>
      <trkpt lat="-22.01077689416706562042236328125" lon="166.450298130512237548828125">
        <ele>881.4000244140625</ele>
        <time>2016-08-12T20:14:41.000Z</time>
        <extensions>
          <ns3:TrackPointExtension>
            <ns3:atemp>14.0</ns3:atemp>
            <ns3:hr>139</ns3:hr>
          </ns3:TrackPointExtension>
        </extensions>
      </trkpt>
      <trkpt lat="-22.01077823527157306671142578125" lon="166.450313888490200042724609375">
        <ele>881.5999755859375</ele>
        <time>2016-08-12T20:14:42.000Z</time>
        <extensions>
          <ns3:TrackPointExtension>
            <ns3:atemp>14.0</ns3:atemp>
            <ns3:hr>139</ns3:hr>
          </ns3:TrackPointExtension>
        </extensions>
      </trkpt>
      <trkpt lat="-22.0107793249189853668212890625" lon="166.45033040083944797515869140625">
        <ele>881.79998779296875</ele>
        <time>2016-08-12T20:14:43.000Z</time>
        <extensions>
          <ns3:TrackPointExtension>
            <ns3:atemp>14.0</ns3:atemp>
            <ns3:hr>139</ns3:hr>
          </ns3:TrackPointExtension>
        </extensions>
      </trkpt>
      <trkpt lat="-22.01078041456639766693115234375" lon="166.45034716464579105377197265625">
        <ele>881.79998779296875</ele>
        <time>2016-08-12T20:14:44.000Z</time>
        <extensions>
          <ns3:TrackPointExtension>
            <ns3:atemp>14.0</ns3:atemp>
            <ns3:hr>139</ns3:hr>
          </ns3:TrackPointExtension>
        </extensions>
      </trkpt>
      <trkpt lat="-22.01078242622315883636474609375" lon="166.450362503528594970703125">
        <ele>882</ele>
        <time>2016-08-12T20:14:45.000Z</time>
        <extensions>
          <ns3:TrackPointExtension>
            <ns3:atemp>14.0</ns3:atemp>
            <ns3:hr>139</ns3:hr>
          </ns3:TrackPointExtension>
        </extensions>
      </trkpt>
      <trkpt lat="-22.01078544370830059051513671875" lon="166.45037951879203319549560546875">
        <ele>882.20001220703125</ele>
        <time>2016-08-12T20:14:46.000Z</time>
        <extensions>
          <ns3:TrackPointExtension>
            <ns3:atemp>14.0</ns3:atemp>
            <ns3:hr>140</ns3:hr>
          </ns3:TrackPointExtension>
        </extensions>
      </trkpt>
      <trkpt lat="-22.0107883773744106292724609375" lon="166.45039410330355167388916015625">
        <ele>882.4000244140625</ele>
        <time>2016-08-12T20:14:47.000Z</time>
        <extensions>
          <ns3:TrackPointExtension>
            <ns3:atemp>14.0</ns3:atemp>
            <ns3:hr>140</ns3:hr>
          </ns3:TrackPointExtension>
        </extensions>
      </trkpt>
      <trkpt lat="-22.01079064048826694488525390625" lon="166.4504055865108966827392578125">
        <ele>882.4000244140625</ele>
        <time>2016-08-12T20:14:48.000Z</time>
        <extensions>
          <ns3:TrackPointExtension>
            <ns3:atemp>14.0</ns3:atemp>
            <ns3:hr>140</ns3:hr>
          </ns3:TrackPointExtension>
        </extensions>
      </trkpt>
      <trkpt lat="-22.01079432852566242218017578125" lon="166.45041656680405139923095703125">
        <ele>882.5999755859375</ele>
        <time>2016-08-12T20:14:49.000Z</time>
        <extensions>
          <ns3:TrackPointExtension>
            <ns3:atemp>14.0</ns3:atemp>
            <ns3:hr>140</ns3:hr>
          </ns3:TrackPointExtension>
        </extensions>
      </trkpt>
      <trkpt lat="-22.01079449616372585296630859375" lon="166.45043148659169673919677734375">
        <ele>882.79998779296875</ele>
        <time>2016-08-12T20:14:50.000Z</time>
        <extensions>
          <ns3:TrackPointExtension>
            <ns3:atemp>14.0</ns3:atemp>
            <ns3:hr>140</ns3:hr>
          </ns3:TrackPointExtension>
        </extensions>
      </trkpt>
      <trkpt lat="-22.01079550199210643768310546875" lon="166.4504448138177394866943359375">
        <ele>883.20001220703125</ele>
        <time>2016-08-12T20:14:51.000Z</time>
        <extensions>
          <ns3:TrackPointExtension>
            <ns3:atemp>14.0</ns3:atemp>
            <ns3:hr>140</ns3:hr>
          </ns3:TrackPointExtension>
        </extensions>
      </trkpt>
      <trkpt lat="-22.0107960887253284454345703125" lon="166.45045814104378223419189453125">
        <ele>883.20001220703125</ele>
        <time>2016-08-12T20:14:52.000Z</time>
        <extensions>
          <ns3:TrackPointExtension>
            <ns3:atemp>14.0</ns3:atemp>
            <ns3:hr>139</ns3:hr>
          </ns3:TrackPointExtension>
        </extensions>
      </trkpt>
      <trkpt lat="-22.010794579982757568359375" lon="166.4504702948033809661865234375">
        <ele>883.4000244140625</ele>
        <time>2016-08-12T20:14:53.000Z</time>
        <extensions>
          <ns3:TrackPointExtension>
            <ns3:atemp>14.0</ns3:atemp>
            <ns3:hr>140</ns3:hr>
          </ns3:TrackPointExtension>
        </extensions>
      </trkpt>
      <trkpt lat="-22.01079189777374267578125" lon="166.45048320293426513671875">
        <ele>883.5999755859375</ele>
        <time>2016-08-12T20:14:54.000Z</time>
        <extensions>
          <ns3:TrackPointExtension>
            <ns3:atemp>14.0</ns3:atemp>
            <ns3:hr>140</ns3:hr>
          </ns3:TrackPointExtension>
        </extensions>
      </trkpt>
      <trkpt lat="-22.01078795827925205230712890625" lon="166.45049653016030788421630859375">
        <ele>883.79998779296875</ele>
        <time>2016-08-12T20:14:55.000Z</time>
        <extensions>
          <ns3:TrackPointExtension>
            <ns3:atemp>14.0</ns3:atemp>
            <ns3:hr>139</ns3:hr>
          </ns3:TrackPointExtension>
        </extensions>
      </trkpt>
      <trkpt lat="-22.01078007929027080535888671875" lon="166.45050994120538234710693359375">
        <ele>884</ele>
        <time>2016-08-12T20:14:56.000Z</time>
        <extensions>
          <ns3:TrackPointExtension>
            <ns3:atemp>14.0</ns3:atemp>
            <ns3:hr>139</ns3:hr>
          </ns3:TrackPointExtension>
        </extensions>
      </trkpt>
      <trkpt lat="-22.01077085919678211212158203125" lon="166.4505209214985370635986328125">
        <ele>884</ele>
        <time>2016-08-12T20:14:57.000Z</time>
        <extensions>
          <ns3:TrackPointExtension>
            <ns3:atemp>14.0</ns3:atemp>
            <ns3:hr>139</ns3:hr>
          </ns3:TrackPointExtension>
        </extensions>
      </trkpt>
      <trkpt lat="-22.0107618905603885650634765625" lon="166.45053349435329437255859375">
        <ele>884.20001220703125</ele>
        <time>2016-08-12T20:14:58.000Z</time>
        <extensions>
          <ns3:TrackPointExtension>
            <ns3:atemp>14.0</ns3:atemp>
            <ns3:hr>139</ns3:hr>
          </ns3:TrackPointExtension>
        </extensions>
      </trkpt>
      <trkpt lat="-22.01075543649494647979736328125" lon="166.45054782740771770477294921875">
        <ele>884.4000244140625</ele>
        <time>2016-08-12T20:14:59.000Z</time>
        <extensions>
          <ns3:TrackPointExtension>
            <ns3:atemp>14.0</ns3:atemp>
            <ns3:hr>139</ns3:hr>
          </ns3:TrackPointExtension>
        </extensions>
      </trkpt>
      <trkpt lat="-22.0107514970004558563232421875" lon="166.4505624957382678985595703125">
        <ele>884.79998779296875</ele>
        <time>2016-08-12T20:15:00.000Z</time>
        <extensions>
          <ns3:TrackPointExtension>
            <ns3:atemp>14.0</ns3:atemp>
            <ns3:hr>139</ns3:hr>
          </ns3:TrackPointExtension>
        </extensions>
      </trkpt>
      <trkpt lat="-22.01074562966823577880859375" lon="166.45057632587850093841552734375">
        <ele>885</ele>
        <time>2016-08-12T20:15:01.000Z</time>
        <extensions>
          <ns3:TrackPointExtension>
            <ns3:atemp>14.0</ns3:atemp>
            <ns3:hr>139</ns3:hr>
          </ns3:TrackPointExtension>
        </extensions>
      </trkpt>
      <trkpt lat="-22.01073892414569854736328125" lon="166.4505893178284168243408203125">
        <ele>885.20001220703125</ele>
        <time>2016-08-12T20:15:02.000Z</time>
        <extensions>
          <ns3:TrackPointExtension>
            <ns3:atemp>14.0</ns3:atemp>
            <ns3:hr>139</ns3:hr>
          </ns3:TrackPointExtension>
        </extensions>
      </trkpt>
      <trkpt lat="-22.0107303746044635772705078125" lon="166.45060214214026927947998046875">
        <ele>885.4000244140625</ele>
        <time>2016-08-12T20:15:03.000Z</time>
        <extensions>
          <ns3:TrackPointExtension>
            <ns3:atemp>14.0</ns3:atemp>
            <ns3:hr>139</ns3:hr>
          </ns3:TrackPointExtension>
        </extensions>
      </trkpt>
      <trkpt lat="-22.01071822084486484527587890625" lon="166.45061236806213855743408203125">
        <ele>885.5999755859375</ele>
        <time>2016-08-12T20:15:04.000Z</time>
        <extensions>
          <ns3:TrackPointExtension>
            <ns3:atemp>14.0</ns3:atemp>
            <ns3:hr>139</ns3:hr>
          </ns3:TrackPointExtension>
        </extensions>
      </trkpt>
      <trkpt lat="-22.01070447452366352081298828125" lon="166.45062108524143695831298828125">
        <ele>885.79998779296875</ele>
        <time>2016-08-12T20:15:05.000Z</time>
        <extensions>
          <ns3:TrackPointExtension>
            <ns3:atemp>14.0</ns3:atemp>
            <ns3:hr>139</ns3:hr>
          </ns3:TrackPointExtension>
        </extensions>
      </trkpt>
      <trkpt lat="-22.01069332659244537353515625" lon="166.45062745548784732818603515625">
        <ele>886</ele>
        <time>2016-08-12T20:15:06.000Z</time>
        <extensions>
          <ns3:TrackPointExtension>
            <ns3:atemp>14.0</ns3:atemp>
            <ns3:hr>139</ns3:hr>
          </ns3:TrackPointExtension>
        </extensions>
      </trkpt>
      <trkpt lat="-22.01068284921348094940185546875" lon="166.45063114352524280548095703125">
        <ele>886.20001220703125</ele>
        <time>2016-08-12T20:15:07.000Z</time>
        <extensions>
          <ns3:TrackPointExtension>
            <ns3:atemp>14.0</ns3:atemp>
            <ns3:hr>139</ns3:hr>
          </ns3:TrackPointExtension>
        </extensions>
      </trkpt>
      <trkpt lat="-22.01067228801548480987548828125" lon="166.45063818432390689849853515625">
        <ele>886.4000244140625</ele>
        <time>2016-08-12T20:15:08.000Z</time>
        <extensions>
          <ns3:TrackPointExtension>
            <ns3:atemp>14.0</ns3:atemp>
            <ns3:hr>139</ns3:hr>
          </ns3:TrackPointExtension>
        </extensions>
      </trkpt>
      <trkpt lat="-22.01065904460847377777099609375" lon="166.4506466500461101531982421875">
        <ele>886.5999755859375</ele>
        <time>2016-08-12T20:15:09.000Z</time>
        <extensions>
          <ns3:TrackPointExtension>
            <ns3:atemp>14.0</ns3:atemp>
            <ns3:hr>139</ns3:hr>
          </ns3:TrackPointExtension>
        </extensions>
      </trkpt>
      <trkpt lat="-22.01064781285822391510009765625" lon="166.45065310411155223846435546875">
        <ele>886.79998779296875</ele>
        <time>2016-08-12T20:15:10.000Z</time>
        <extensions>
          <ns3:TrackPointExtension>
            <ns3:atemp>14.0</ns3:atemp>
            <ns3:hr>139</ns3:hr>
          </ns3:TrackPointExtension>
        </extensions>
      </trkpt>
      <trkpt lat="-22.01063658110797405242919921875" lon="166.4506587199866771697998046875">
        <ele>887.20001220703125</ele>
        <time>2016-08-12T20:15:11.000Z</time>
        <extensions>
          <ns3:TrackPointExtension>
            <ns3:atemp>14.0</ns3:atemp>
            <ns3:hr>139</ns3:hr>
          </ns3:TrackPointExtension>
        </extensions>
      </trkpt>
      <trkpt lat="-22.01062283478677272796630859375" lon="166.4506650902330875396728515625">
        <ele>887.4000244140625</ele>
        <time>2016-08-12T20:15:12.000Z</time>
        <extensions>
          <ns3:TrackPointExtension>
            <ns3:atemp>14.0</ns3:atemp>
            <ns3:hr>138</ns3:hr>
          </ns3:TrackPointExtension>
        </extensions>
      </trkpt>
      <trkpt lat="-22.01060757972300052642822265625" lon="166.4506684429943561553955078125">
        <ele>887.5999755859375</ele>
        <time>2016-08-12T20:15:13.000Z</time>
        <extensions>
          <ns3:TrackPointExtension>
            <ns3:atemp>14.0</ns3:atemp>
            <ns3:hr>139</ns3:hr>
          </ns3:TrackPointExtension>
        </extensions>
      </trkpt>
      <trkpt lat="-22.0105939172208309173583984375" lon="166.450669951736927032470703125">
        <ele>887.79998779296875</ele>
        <time>2016-08-12T20:15:14.000Z</time>
        <extensions>
          <ns3:TrackPointExtension>
            <ns3:atemp>14.0</ns3:atemp>
            <ns3:hr>138</ns3:hr>
          </ns3:TrackPointExtension>
        </extensions>
      </trkpt>
      <trkpt lat="-22.010580003261566162109375" lon="166.45067003555595874786376953125">
        <ele>887.79998779296875</ele>
        <time>2016-08-12T20:15:15.000Z</time>
        <extensions>
          <ns3:TrackPointExtension>
            <ns3:atemp>14.0</ns3:atemp>
            <ns3:hr>138</ns3:hr>
          </ns3:TrackPointExtension>
        </extensions>
      </trkpt>
      <trkpt lat="-22.01056659221649169921875" lon="166.45067020319402217864990234375">
        <ele>888</ele>
        <time>2016-08-12T20:15:16.000Z</time>
        <extensions>
          <ns3:TrackPointExtension>
            <ns3:atemp>14.0</ns3:atemp>
            <ns3:hr>138</ns3:hr>
          </ns3:TrackPointExtension>
        </extensions>
      </trkpt>
      <trkpt lat="-22.0105545222759246826171875" lon="166.45066852681338787078857421875">
        <ele>888.20001220703125</ele>
        <time>2016-08-12T20:15:17.000Z</time>
        <extensions>
          <ns3:TrackPointExtension>
            <ns3:atemp>14.0</ns3:atemp>
            <ns3:hr>138</ns3:hr>
          </ns3:TrackPointExtension>
        </extensions>
      </trkpt>
      <trkpt lat="-22.0105426199734210968017578125" lon="166.45066349767148494720458984375">
        <ele>888.4000244140625</ele>
        <time>2016-08-12T20:15:18.000Z</time>
        <extensions>
          <ns3:TrackPointExtension>
            <ns3:atemp>14.0</ns3:atemp>
            <ns3:hr>138</ns3:hr>
          </ns3:TrackPointExtension>
        </extensions>
      </trkpt>
      <trkpt lat="-22.0105268619954586029052734375" lon="166.450661234557628631591796875">
        <ele>888.4000244140625</ele>
        <time>2016-08-12T20:15:19.000Z</time>
        <extensions>
          <ns3:TrackPointExtension>
            <ns3:atemp>14.0</ns3:atemp>
            <ns3:hr>138</ns3:hr>
          </ns3:TrackPointExtension>
        </extensions>
      </trkpt>
      <trkpt lat="-22.010511271655559539794921875" lon="166.45066433586180210113525390625">
        <ele>888.5999755859375</ele>
        <time>2016-08-12T20:15:20.000Z</time>
        <extensions>
          <ns3:TrackPointExtension>
            <ns3:atemp>14.0</ns3:atemp>
            <ns3:hr>138</ns3:hr>
          </ns3:TrackPointExtension>
        </extensions>
      </trkpt>
      <trkpt lat="-22.01049752533435821533203125" lon="166.450671292841434478759765625">
        <ele>888.79998779296875</ele>
        <time>2016-08-12T20:15:21.000Z</time>
        <extensions>
          <ns3:TrackPointExtension>
            <ns3:atemp>14.0</ns3:atemp>
            <ns3:hr>138</ns3:hr>
          </ns3:TrackPointExtension>
        </extensions>
      </trkpt>
      <trkpt lat="-22.0104821026325225830078125" lon="166.450680010020732879638671875">
        <ele>889</ele>
        <time>2016-08-12T20:15:22.000Z</time>
        <extensions>
          <ns3:TrackPointExtension>
            <ns3:atemp>14.0</ns3:atemp>
            <ns3:hr>138</ns3:hr>
          </ns3:TrackPointExtension>
        </extensions>
      </trkpt>
      <trkpt lat="-22.0104695297777652740478515625" lon="166.4506905712187290191650390625">
        <ele>889</ele>
        <time>2016-08-12T20:15:23.000Z</time>
        <extensions>
          <ns3:TrackPointExtension>
            <ns3:atemp>14.0</ns3:atemp>
            <ns3:hr>138</ns3:hr>
          </ns3:TrackPointExtension>
        </extensions>
      </trkpt>
      <trkpt lat="-22.01045737601816654205322265625" lon="166.45070104859769344329833984375">
        <ele>889.20001220703125</ele>
        <time>2016-08-12T20:15:24.000Z</time>
        <extensions>
          <ns3:TrackPointExtension>
            <ns3:atemp>14.0</ns3:atemp>
            <ns3:hr>137</ns3:hr>
          </ns3:TrackPointExtension>
        </extensions>
      </trkpt>
      <trkpt lat="-22.01044564135372638702392578125" lon="166.45071160979568958282470703125">
        <ele>889.4000244140625</ele>
        <time>2016-08-12T20:15:25.000Z</time>
        <extensions>
          <ns3:TrackPointExtension>
            <ns3:atemp>14.0</ns3:atemp>
            <ns3:hr>137</ns3:hr>
          </ns3:TrackPointExtension>
        </extensions>
      </trkpt>
      <trkpt lat="-22.010435163974761962890625" lon="166.45072217099368572235107421875">
        <ele>889.5999755859375</ele>
        <time>2016-08-12T20:15:26.000Z</time>
        <extensions>
          <ns3:TrackPointExtension>
            <ns3:atemp>14.0</ns3:atemp>
            <ns3:hr>137</ns3:hr>
          </ns3:TrackPointExtension>
        </extensions>
      </trkpt>
      <trkpt lat="-22.01042401604354381561279296875" lon="166.45073206163942813873291015625">
        <ele>889.79998779296875</ele>
        <time>2016-08-12T20:15:27.000Z</time>
        <extensions>
          <ns3:TrackPointExtension>
            <ns3:atemp>14.0</ns3:atemp>
            <ns3:hr>138</ns3:hr>
          </ns3:TrackPointExtension>
        </extensions>
      </trkpt>
      <trkpt lat="-22.010413706302642822265625" lon="166.4507408626377582550048828125">
        <ele>890</ele>
        <time>2016-08-12T20:15:28.000Z</time>
        <extensions>
          <ns3:TrackPointExtension>
            <ns3:atemp>14.0</ns3:atemp>
            <ns3:hr>137</ns3:hr>
          </ns3:TrackPointExtension>
        </extensions>
      </trkpt>
      <trkpt lat="-22.0104038156569004058837890625" lon="166.450747735798358917236328125">
        <ele>890</ele>
        <time>2016-08-12T20:15:29.000Z</time>
        <extensions>
          <ns3:TrackPointExtension>
            <ns3:atemp>14.0</ns3:atemp>
            <ns3:hr>137</ns3:hr>
          </ns3:TrackPointExtension>
        </extensions>
      </trkpt>
      <trkpt lat="-22.010394595563411712646484375" lon="166.45075611770153045654296875">
        <ele>890.20001220703125</ele>
        <time>2016-08-12T20:15:30.000Z</time>
        <extensions>
          <ns3:TrackPointExtension>
            <ns3:atemp>14.0</ns3:atemp>
            <ns3:hr>137</ns3:hr>
          </ns3:TrackPointExtension>
        </extensions>
      </trkpt>
      <trkpt lat="-22.0103840343654155731201171875" lon="166.450764499604701995849609375">
        <ele>890.20001220703125</ele>
        <time>2016-08-12T20:15:31.000Z</time>
        <extensions>
          <ns3:TrackPointExtension>
            <ns3:atemp>14.0</ns3:atemp>
            <ns3:hr>137</ns3:hr>
          </ns3:TrackPointExtension>
        </extensions>
      </trkpt>
      <trkpt lat="-22.010245732963085174560546875" lon="166.4509199000895023345947265625">
        <ele>893.4000244140625</ele>
        <time>2016-08-12T20:15:46.000Z</time>
        <extensions>
          <ns3:TrackPointExtension>
            <ns3:atemp>14.0</ns3:atemp>
            <ns3:hr>137</ns3:hr>
          </ns3:TrackPointExtension>
        </extensions>
      </trkpt>
      <trkpt lat="-22.01020642183721065521240234375" lon="166.45096893422305583953857421875">
        <ele>894.20001220703125</ele>
        <time>2016-08-12T20:15:50.000Z</time>
        <extensions>
          <ns3:TrackPointExtension>
            <ns3:atemp>14.0</ns3:atemp>
            <ns3:hr>136</ns3:hr>
          </ns3:TrackPointExtension>
        </extensions>
      </trkpt>
      <trkpt lat="-22.01019443571567535400390625" lon="166.450979746878147125244140625">
        <ele>894.20001220703125</ele>
        <time>2016-08-12T20:15:51.000Z</time>
        <extensions>
          <ns3:TrackPointExtension>
            <ns3:atemp>14.0</ns3:atemp>
            <ns3:hr>137</ns3:hr>
          </ns3:TrackPointExtension>
        </extensions>
      </trkpt>
      <trkpt lat="-22.010182701051235198974609375" lon="166.450990475714206695556640625">
        <ele>894.4000244140625</ele>
        <time>2016-08-12T20:15:52.000Z</time>
        <extensions>
          <ns3:TrackPointExtension>
            <ns3:atemp>14.0</ns3:atemp>
            <ns3:hr>136</ns3:hr>
          </ns3:TrackPointExtension>
        </extensions>
      </trkpt>
      <trkpt lat="-22.0101709663867950439453125" lon="166.4509990252554416656494140625">
        <ele>894.5999755859375</ele>
        <time>2016-08-12T20:15:53.000Z</time>
        <extensions>
          <ns3:TrackPointExtension>
            <ns3:atemp>14.0</ns3:atemp>
            <ns3:hr>136</ns3:hr>
          </ns3:TrackPointExtension>
        </extensions>
      </trkpt>
      <trkpt lat="-22.01015948317945003509521484375" lon="166.451005898416042327880859375">
        <ele>894.79998779296875</ele>
        <time>2016-08-12T20:15:54.000Z</time>
        <extensions>
          <ns3:TrackPointExtension>
            <ns3:atemp>14.0</ns3:atemp>
            <ns3:hr>136</ns3:hr>
          </ns3:TrackPointExtension>
        </extensions>
      </trkpt>
      <trkpt lat="-22.01014615595340728759765625" lon="166.4510102570056915283203125">
        <ele>895</ele>
        <time>2016-08-12T20:15:55.000Z</time>
        <extensions>
          <ns3:TrackPointExtension>
            <ns3:atemp>14.0</ns3:atemp>
            <ns3:hr>136</ns3:hr>
          </ns3:TrackPointExtension>
        </extensions>
      </trkpt>
      <trkpt lat="-22.01012863777577877044677734375" lon="166.45101637579500675201416015625">
        <ele>895.20001220703125</ele>
        <time>2016-08-12T20:15:56.000Z</time>
        <extensions>
          <ns3:TrackPointExtension>
            <ns3:atemp>14.0</ns3:atemp>
            <ns3:hr>135</ns3:hr>
          </ns3:TrackPointExtension>
        </extensions>
      </trkpt>
      <trkpt lat="-22.01010818593204021453857421875" lon="166.451023332774639129638671875">
        <ele>895.4000244140625</ele>
        <time>2016-08-12T20:15:57.000Z</time>
        <extensions>
          <ns3:TrackPointExtension>
            <ns3:atemp>14.0</ns3:atemp>
            <ns3:hr>136</ns3:hr>
          </ns3:TrackPointExtension>
        </extensions>
      </trkpt>
      <trkpt lat="-22.01008656062185764312744140625" lon="166.45102425478398799896240234375">
        <ele>895.4000244140625</ele>
        <time>2016-08-12T20:15:58.000Z</time>
        <extensions>
          <ns3:TrackPointExtension>
            <ns3:atemp>14.0</ns3:atemp>
            <ns3:hr>136</ns3:hr>
          </ns3:TrackPointExtension>
        </extensions>
      </trkpt>
      <trkpt lat="-22.01006426475942134857177734375" lon="166.4510275237262248992919921875">
        <ele>895.5999755859375</ele>
        <time>2016-08-12T20:15:59.000Z</time>
        <extensions>
          <ns3:TrackPointExtension>
            <ns3:atemp>14.0</ns3:atemp>
            <ns3:hr>136</ns3:hr>
          </ns3:TrackPointExtension>
        </extensions>
      </trkpt>
      <trkpt lat="-22.0100420527160167694091796875" lon="166.45102928392589092254638671875">
        <ele>895.79998779296875</ele>
        <time>2016-08-12T20:16:00.000Z</time>
        <extensions>
          <ns3:TrackPointExtension>
            <ns3:atemp>14.0</ns3:atemp>
            <ns3:hr>136</ns3:hr>
          </ns3:TrackPointExtension>
        </extensions>
      </trkpt>
      <trkpt lat="-22.01002084650099277496337890625" lon="166.45103079266846179962158203125">
        <ele>895.79998779296875</ele>
        <time>2016-08-12T20:16:01.000Z</time>
        <extensions>
          <ns3:TrackPointExtension>
            <ns3:atemp>14.0</ns3:atemp>
            <ns3:hr>137</ns3:hr>
          </ns3:TrackPointExtension>
        </extensions>
      </trkpt>
      <trkpt lat="-22.00999888591468334197998046875" lon="166.451032720506191253662109375">
        <ele>896</ele>
        <time>2016-08-12T20:16:02.000Z</time>
        <extensions>
          <ns3:TrackPointExtension>
            <ns3:atemp>14.0</ns3:atemp>
            <ns3:hr>137</ns3:hr>
          </ns3:TrackPointExtension>
        </extensions>
      </trkpt>
      <trkpt lat="-22.00997826643288135528564453125" lon="166.45103297196328639984130859375">
        <ele>896.4000244140625</ele>
        <time>2016-08-12T20:16:03.000Z</time>
        <extensions>
          <ns3:TrackPointExtension>
            <ns3:atemp>14.0</ns3:atemp>
            <ns3:hr>137</ns3:hr>
          </ns3:TrackPointExtension>
        </extensions>
      </trkpt>
      <trkpt lat="-22.009957730770111083984375" lon="166.45103297196328639984130859375">
        <ele>896.79998779296875</ele>
        <time>2016-08-12T20:16:04.000Z</time>
        <extensions>
          <ns3:TrackPointExtension>
            <ns3:atemp>14.0</ns3:atemp>
            <ns3:hr>138</ns3:hr>
          </ns3:TrackPointExtension>
        </extensions>
      </trkpt>
      <trkpt lat="-22.009935937821865081787109375" lon="166.45103246904909610748291015625">
        <ele>896.79998779296875</ele>
        <time>2016-08-12T20:16:05.000Z</time>
        <extensions>
          <ns3:TrackPointExtension>
            <ns3:atemp>14.0</ns3:atemp>
            <ns3:hr>138</ns3:hr>
          </ns3:TrackPointExtension>
        </extensions>
      </trkpt>
      <trkpt lat="-22.009913809597492218017578125" lon="166.45102911628782749176025390625">
        <ele>896.5999755859375</ele>
        <time>2016-08-12T20:16:06.000Z</time>
        <extensions>
          <ns3:TrackPointExtension>
            <ns3:atemp>14.0</ns3:atemp>
            <ns3:hr>138</ns3:hr>
          </ns3:TrackPointExtension>
        </extensions>
      </trkpt>
      <trkpt lat="-22.00989176519215106964111328125" lon="166.45102743990719318389892578125">
        <ele>897</ele>
        <time>2016-08-12T20:16:07.000Z</time>
        <extensions>
          <ns3:TrackPointExtension>
            <ns3:atemp>14.0</ns3:atemp>
            <ns3:hr>138</ns3:hr>
          </ns3:TrackPointExtension>
        </extensions>
      </trkpt>
      <trkpt lat="-22.00987047515809535980224609375" lon="166.4510228298604488372802734375">
        <ele>897.20001220703125</ele>
        <time>2016-08-12T20:16:08.000Z</time>
        <extensions>
          <ns3:TrackPointExtension>
            <ns3:atemp>14.0</ns3:atemp>
            <ns3:hr>139</ns3:hr>
          </ns3:TrackPointExtension>
        </extensions>
      </trkpt>
      <trkpt lat="-22.0098509453237056732177734375" lon="166.45101738162338733673095703125">
        <ele>897.20001220703125</ele>
        <time>2016-08-12T20:16:09.000Z</time>
        <extensions>
          <ns3:TrackPointExtension>
            <ns3:atemp>14.0</ns3:atemp>
            <ns3:hr>139</ns3:hr>
          </ns3:TrackPointExtension>
        </extensions>
      </trkpt>
      <trkpt lat="-22.00982957147061824798583984375" lon="166.4510121010243892669677734375">
        <ele>897.20001220703125</ele>
        <time>2016-08-12T20:16:10.000Z</time>
        <extensions>
          <ns3:TrackPointExtension>
            <ns3:atemp>14.0</ns3:atemp>
            <ns3:hr>139</ns3:hr>
          </ns3:TrackPointExtension>
        </extensions>
      </trkpt>
      <trkpt lat="-22.00980794616043567657470703125" lon="166.45100313238799571990966796875">
        <ele>897.4000244140625</ele>
        <time>2016-08-12T20:16:11.000Z</time>
        <extensions>
          <ns3:TrackPointExtension>
            <ns3:atemp>14.0</ns3:atemp>
            <ns3:hr>139</ns3:hr>
          </ns3:TrackPointExtension>
        </extensions>
      </trkpt>
      <trkpt lat="-22.009787745773792266845703125" lon="166.45100296474993228912353515625">
        <ele>897.4000244140625</ele>
        <time>2016-08-12T20:16:12.000Z</time>
        <extensions>
          <ns3:TrackPointExtension>
            <ns3:atemp>14.0</ns3:atemp>
            <ns3:hr>138</ns3:hr>
          </ns3:TrackPointExtension>
        </extensions>
      </trkpt>
      <trkpt lat="-22.009769640862941741943359375" lon="166.45101252011954784393310546875">
        <ele>897.5999755859375</ele>
        <time>2016-08-12T20:16:13.000Z</time>
        <extensions>
          <ns3:TrackPointExtension>
            <ns3:atemp>14.0</ns3:atemp>
            <ns3:hr>139</ns3:hr>
          </ns3:TrackPointExtension>
        </extensions>
      </trkpt>
      <trkpt lat="-22.0097533799707889556884765625" lon="166.45102257840335369110107421875">
        <ele>898.20001220703125</ele>
        <time>2016-08-12T20:16:14.000Z</time>
        <extensions>
          <ns3:TrackPointExtension>
            <ns3:atemp>14.0</ns3:atemp>
            <ns3:hr>139</ns3:hr>
          </ns3:TrackPointExtension>
        </extensions>
      </trkpt>
      <trkpt lat="-22.0097366161644458770751953125" lon="166.45103833638131618499755859375">
        <ele>898.20001220703125</ele>
        <time>2016-08-12T20:16:15.000Z</time>
        <extensions>
          <ns3:TrackPointExtension>
            <ns3:atemp>14.0</ns3:atemp>
            <ns3:hr>139</ns3:hr>
          </ns3:TrackPointExtension>
        </extensions>
      </trkpt>
      <trkpt lat="-22.00971909798681735992431640625" lon="166.45105359144508838653564453125">
        <ele>898.20001220703125</ele>
        <time>2016-08-12T20:16:16.000Z</time>
        <extensions>
          <ns3:TrackPointExtension>
            <ns3:atemp>14.0</ns3:atemp>
            <ns3:hr>139</ns3:hr>
          </ns3:TrackPointExtension>
        </extensions>
      </trkpt>
      <trkpt lat="-22.00970334000885486602783203125" lon="166.45106884650886058807373046875">
        <ele>898.5999755859375</ele>
        <time>2016-08-12T20:16:17.000Z</time>
        <extensions>
          <ns3:TrackPointExtension>
            <ns3:atemp>14.0</ns3:atemp>
            <ns3:hr>139</ns3:hr>
          </ns3:TrackPointExtension>
        </extensions>
      </trkpt>
      <trkpt lat="-22.009687162935733795166015625" lon="166.4510818384587764739990234375">
        <ele>899</ele>
        <time>2016-08-12T20:16:18.000Z</time>
        <extensions>
          <ns3:TrackPointExtension>
            <ns3:atemp>14.0</ns3:atemp>
            <ns3:hr>139</ns3:hr>
          </ns3:TrackPointExtension>
        </extensions>
      </trkpt>
      <trkpt lat="-22.0096739195287227630615234375" lon="166.4510898850858211517333984375">
        <ele>899</ele>
        <time>2016-08-12T20:16:19.000Z</time>
        <extensions>
          <ns3:TrackPointExtension>
            <ns3:atemp>14.0</ns3:atemp>
            <ns3:hr>139</ns3:hr>
          </ns3:TrackPointExtension>
        </extensions>
      </trkpt>
      <trkpt lat="-22.0096640288829803466796875" lon="166.4510992728173732757568359375">
        <ele>899.20001220703125</ele>
        <time>2016-08-12T20:16:20.000Z</time>
        <extensions>
          <ns3:TrackPointExtension>
            <ns3:atemp>14.0</ns3:atemp>
            <ns3:hr>139</ns3:hr>
          </ns3:TrackPointExtension>
        </extensions>
      </trkpt>
      <trkpt lat="-22.0096533000469207763671875" lon="166.451108157634735107421875">
        <ele>899.4000244140625</ele>
        <time>2016-08-12T20:16:21.000Z</time>
        <extensions>
          <ns3:TrackPointExtension>
            <ns3:atemp>14.0</ns3:atemp>
            <ns3:hr>139</ns3:hr>
          </ns3:TrackPointExtension>
        </extensions>
      </trkpt>
      <trkpt lat="-22.00964164920151233673095703125" lon="166.45111687481403350830078125">
        <ele>899.5999755859375</ele>
        <time>2016-08-12T20:16:22.000Z</time>
        <extensions>
          <ns3:TrackPointExtension>
            <ns3:atemp>14.0</ns3:atemp>
            <ns3:hr>139</ns3:hr>
          </ns3:TrackPointExtension>
        </extensions>
      </trkpt>
      <trkpt lat="-22.00963075272738933563232421875" lon="166.45112601108849048614501953125">
        <ele>899.5999755859375</ele>
        <time>2016-08-12T20:16:23.000Z</time>
        <extensions>
          <ns3:TrackPointExtension>
            <ns3:atemp>14.0</ns3:atemp>
            <ns3:hr>139</ns3:hr>
          </ns3:TrackPointExtension>
        </extensions>
      </trkpt>
      <trkpt lat="-22.0096199400722980499267578125" lon="166.45113539882004261016845703125">
        <ele>899.79998779296875</ele>
        <time>2016-08-12T20:16:24.000Z</time>
        <extensions>
          <ns3:TrackPointExtension>
            <ns3:atemp>14.0</ns3:atemp>
            <ns3:hr>139</ns3:hr>
          </ns3:TrackPointExtension>
        </extensions>
      </trkpt>
      <trkpt lat="-22.00960745103657245635986328125" lon="166.45114713348448276519775390625">
        <ele>900</ele>
        <time>2016-08-12T20:16:25.000Z</time>
        <extensions>
          <ns3:TrackPointExtension>
            <ns3:atemp>14.0</ns3:atemp>
            <ns3:hr>139</ns3:hr>
          </ns3:TrackPointExtension>
        </extensions>
      </trkpt>
      <trkpt lat="-22.00959538109600543975830078125" lon="166.45115802995860576629638671875">
        <ele>900</ele>
        <time>2016-08-12T20:16:26.000Z</time>
        <extensions>
          <ns3:TrackPointExtension>
            <ns3:atemp>14.0</ns3:atemp>
            <ns3:hr>139</ns3:hr>
          </ns3:TrackPointExtension>
        </extensions>
      </trkpt>
      <trkpt lat="-22.00958381406962871551513671875" lon="166.451168172061443328857421875">
        <ele>900.20001220703125</ele>
        <time>2016-08-12T20:16:27.000Z</time>
        <extensions>
          <ns3:TrackPointExtension>
            <ns3:atemp>14.0</ns3:atemp>
            <ns3:hr>139</ns3:hr>
          </ns3:TrackPointExtension>
        </extensions>
      </trkpt>
      <trkpt lat="-22.0095703192055225372314453125" lon="166.45117730833590030670166015625">
        <ele>900.4000244140625</ele>
        <time>2016-08-12T20:16:28.000Z</time>
        <extensions>
          <ns3:TrackPointExtension>
            <ns3:atemp>14.0</ns3:atemp>
            <ns3:hr>139</ns3:hr>
          </ns3:TrackPointExtension>
        </extensions>
      </trkpt>
      <trkpt lat="-22.0095567405223846435546875" lon="166.45118652842938899993896484375">
        <ele>900.5999755859375</ele>
        <time>2016-08-12T20:16:29.000Z</time>
        <extensions>
          <ns3:TrackPointExtension>
            <ns3:atemp>14.0</ns3:atemp>
            <ns3:hr>139</ns3:hr>
          </ns3:TrackPointExtension>
        </extensions>
      </trkpt>
      <trkpt lat="-22.00954726897180080413818359375" lon="166.45119859836995601654052734375">
        <ele>900.79998779296875</ele>
        <time>2016-08-12T20:16:30.000Z</time>
        <extensions>
          <ns3:TrackPointExtension>
            <ns3:atemp>14.0</ns3:atemp>
            <ns3:hr>139</ns3:hr>
          </ns3:TrackPointExtension>
        </extensions>
      </trkpt>
      <trkpt lat="-22.00953721068799495697021484375" lon="166.4512092433869838714599609375">
        <ele>901</ele>
        <time>2016-08-12T20:16:31.000Z</time>
        <extensions>
          <ns3:TrackPointExtension>
            <ns3:atemp>14.0</ns3:atemp>
            <ns3:hr>139</ns3:hr>
          </ns3:TrackPointExtension>
        </extensions>
      </trkpt>
      <trkpt lat="-22.0095272362232208251953125" lon="166.451218463480472564697265625">
        <ele>901.20001220703125</ele>
        <time>2016-08-12T20:16:32.000Z</time>
        <extensions>
          <ns3:TrackPointExtension>
            <ns3:atemp>14.0</ns3:atemp>
            <ns3:hr>139</ns3:hr>
          </ns3:TrackPointExtension>
        </extensions>
      </trkpt>
      <trkpt lat="-22.00951575301587581634521484375" lon="166.451225839555263519287109375">
        <ele>901.4000244140625</ele>
        <time>2016-08-12T20:16:33.000Z</time>
        <extensions>
          <ns3:TrackPointExtension>
            <ns3:atemp>14.0</ns3:atemp>
            <ns3:hr>139</ns3:hr>
          </ns3:TrackPointExtension>
        </extensions>
      </trkpt>
      <trkpt lat="-22.0095039345324039459228515625" lon="166.4512327127158641815185546875">
        <ele>901.5999755859375</ele>
        <time>2016-08-12T20:16:34.000Z</time>
        <extensions>
          <ns3:TrackPointExtension>
            <ns3:atemp>14.0</ns3:atemp>
            <ns3:hr>139</ns3:hr>
          </ns3:TrackPointExtension>
        </extensions>
      </trkpt>
      <trkpt lat="-22.00949328951537609100341796875" lon="166.45123899914324283599853515625">
        <ele>901.79998779296875</ele>
        <time>2016-08-12T20:16:35.000Z</time>
        <extensions>
          <ns3:TrackPointExtension>
            <ns3:atemp>14.0</ns3:atemp>
            <ns3:hr>139</ns3:hr>
          </ns3:TrackPointExtension>
        </extensions>
      </trkpt>
      <trkpt lat="-22.0094821415841579437255859375" lon="166.4512471295893192291259765625">
        <ele>902</ele>
        <time>2016-08-12T20:16:36.000Z</time>
        <extensions>
          <ns3:TrackPointExtension>
            <ns3:atemp>14.0</ns3:atemp>
            <ns3:hr>140</ns3:hr>
          </ns3:TrackPointExtension>
        </extensions>
      </trkpt>
      <trkpt lat="-22.009471245110034942626953125" lon="166.4512565173208713531494140625">
        <ele>902.20001220703125</ele>
        <time>2016-08-12T20:16:37.000Z</time>
        <extensions>
          <ns3:TrackPointExtension>
            <ns3:atemp>14.0</ns3:atemp>
            <ns3:hr>140</ns3:hr>
          </ns3:TrackPointExtension>
        </extensions>
      </trkpt>
      <trkpt lat="-22.00946026481688022613525390625" lon="166.451263725757598876953125">
        <ele>902.4000244140625</ele>
        <time>2016-08-12T20:16:38.000Z</time>
        <extensions>
          <ns3:TrackPointExtension>
            <ns3:atemp>14.0</ns3:atemp>
            <ns3:hr>140</ns3:hr>
          </ns3:TrackPointExtension>
        </extensions>
      </trkpt>
      <trkpt lat="-22.0094516314566135406494140625" lon="166.45127302967011928558349609375">
        <ele>902.4000244140625</ele>
        <time>2016-08-12T20:16:39.000Z</time>
        <extensions>
          <ns3:TrackPointExtension>
            <ns3:atemp>14.0</ns3:atemp>
            <ns3:hr>140</ns3:hr>
          </ns3:TrackPointExtension>
        </extensions>
      </trkpt>
      <trkpt lat="-22.00944283045828342437744140625" lon="166.45128208212554454803466796875">
        <ele>902.5999755859375</ele>
        <time>2016-08-12T20:16:40.000Z</time>
        <extensions>
          <ns3:TrackPointExtension>
            <ns3:atemp>14.0</ns3:atemp>
            <ns3:hr>140</ns3:hr>
          </ns3:TrackPointExtension>
        </extensions>
      </trkpt>
      <trkpt lat="-22.00943495146930217742919921875" lon="166.4512907154858112335205078125">
        <ele>902.79998779296875</ele>
        <time>2016-08-12T20:16:41.000Z</time>
        <extensions>
          <ns3:TrackPointExtension>
            <ns3:atemp>14.0</ns3:atemp>
            <ns3:hr>139</ns3:hr>
          </ns3:TrackPointExtension>
        </extensions>
      </trkpt>
      <trkpt lat="-22.00942623429000377655029296875" lon="166.451300941407680511474609375">
        <ele>903</ele>
        <time>2016-08-12T20:16:42.000Z</time>
        <extensions>
          <ns3:TrackPointExtension>
            <ns3:atemp>14.0</ns3:atemp>
            <ns3:hr>139</ns3:hr>
          </ns3:TrackPointExtension>
        </extensions>
      </trkpt>
      <trkpt lat="-22.00941734947264194488525390625" lon="166.4513138495385646820068359375">
        <ele>903.20001220703125</ele>
        <time>2016-08-12T20:16:43.000Z</time>
        <extensions>
          <ns3:TrackPointExtension>
            <ns3:atemp>14.0</ns3:atemp>
            <ns3:hr>139</ns3:hr>
          </ns3:TrackPointExtension>
        </extensions>
      </trkpt>
      <trkpt lat="-22.00940879993140697479248046875" lon="166.45132667385041713714599609375">
        <ele>903.4000244140625</ele>
        <time>2016-08-12T20:16:44.000Z</time>
        <extensions>
          <ns3:TrackPointExtension>
            <ns3:atemp>14.0</ns3:atemp>
            <ns3:hr>139</ns3:hr>
          </ns3:TrackPointExtension>
        </extensions>
      </trkpt>
      <trkpt lat="-22.00940025039017200469970703125" lon="166.45133815705776214599609375">
        <ele>903.79998779296875</ele>
        <time>2016-08-12T20:16:45.000Z</time>
        <extensions>
          <ns3:TrackPointExtension>
            <ns3:atemp>14.0</ns3:atemp>
            <ns3:hr>139</ns3:hr>
          </ns3:TrackPointExtension>
        </extensions>
      </trkpt>
      <trkpt lat="-22.00939245522022247314453125" lon="166.4513490535318851470947265625">
        <ele>904</ele>
        <time>2016-08-12T20:16:46.000Z</time>
        <extensions>
          <ns3:TrackPointExtension>
            <ns3:atemp>14.0</ns3:atemp>
            <ns3:hr>139</ns3:hr>
          </ns3:TrackPointExtension>
        </extensions>
      </trkpt>
      <trkpt lat="-22.00938583351671695709228515625" lon="166.4513634704053401947021484375">
        <ele>904.20001220703125</ele>
        <time>2016-08-12T20:16:47.000Z</time>
        <extensions>
          <ns3:TrackPointExtension>
            <ns3:atemp>14.0</ns3:atemp>
            <ns3:hr>139</ns3:hr>
          </ns3:TrackPointExtension>
        </extensions>
      </trkpt>
      <trkpt lat="-22.00937996618449687957763671875" lon="166.45137830637395381927490234375">
        <ele>904.4000244140625</ele>
        <time>2016-08-12T20:16:48.000Z</time>
        <extensions>
          <ns3:TrackPointExtension>
            <ns3:atemp>14.0</ns3:atemp>
            <ns3:hr>139</ns3:hr>
          </ns3:TrackPointExtension>
        </extensions>
      </trkpt>
      <trkpt lat="-22.00937342830002307891845703125" lon="166.4513943158090114593505859375">
        <ele>904.4000244140625</ele>
        <time>2016-08-12T20:16:49.000Z</time>
        <extensions>
          <ns3:TrackPointExtension>
            <ns3:atemp>14.0</ns3:atemp>
            <ns3:hr>139</ns3:hr>
          </ns3:TrackPointExtension>
        </extensions>
      </trkpt>
      <trkpt lat="-22.0093671418726444244384765625" lon="166.45141066052019596099853515625">
        <ele>904.5999755859375</ele>
        <time>2016-08-12T20:16:50.000Z</time>
        <extensions>
          <ns3:TrackPointExtension>
            <ns3:atemp>14.0</ns3:atemp>
            <ns3:hr>139</ns3:hr>
          </ns3:TrackPointExtension>
        </extensions>
      </trkpt>
      <trkpt lat="-22.0093595981597900390625" lon="166.4514244906604290008544921875">
        <ele>904.79998779296875</ele>
        <time>2016-08-12T20:16:51.000Z</time>
        <extensions>
          <ns3:TrackPointExtension>
            <ns3:atemp>14.0</ns3:atemp>
            <ns3:hr>139</ns3:hr>
          </ns3:TrackPointExtension>
        </extensions>
      </trkpt>
      <trkpt lat="-22.00935423374176025390625" lon="166.4514434337615966796875">
        <ele>905</ele>
        <time>2016-08-12T20:16:52.000Z</time>
        <extensions>
          <ns3:TrackPointExtension>
            <ns3:atemp>14.0</ns3:atemp>
            <ns3:hr>139</ns3:hr>
          </ns3:TrackPointExtension>
        </extensions>
      </trkpt>
      <trkpt lat="-22.00934995897114276885986328125" lon="166.4514596946537494659423828125">
        <ele>905.4000244140625</ele>
        <time>2016-08-12T20:16:53.000Z</time>
        <extensions>
          <ns3:TrackPointExtension>
            <ns3:atemp>14.0</ns3:atemp>
            <ns3:hr>138</ns3:hr>
          </ns3:TrackPointExtension>
        </extensions>
      </trkpt>
      <trkpt lat="-22.0093463547527790069580078125" lon="166.45147419534623622894287109375">
        <ele>905.5999755859375</ele>
        <time>2016-08-12T20:16:54.000Z</time>
        <extensions>
          <ns3:TrackPointExtension>
            <ns3:atemp>14.0</ns3:atemp>
            <ns3:hr>138</ns3:hr>
          </ns3:TrackPointExtension>
        </extensions>
      </trkpt>
      <trkpt lat="-22.0093433372676372528076171875" lon="166.45149179734289646148681640625">
        <ele>905.79998779296875</ele>
        <time>2016-08-12T20:16:55.000Z</time>
        <extensions>
          <ns3:TrackPointExtension>
            <ns3:atemp>14.0</ns3:atemp>
            <ns3:hr>138</ns3:hr>
          </ns3:TrackPointExtension>
        </extensions>
      </trkpt>
      <trkpt lat="-22.0093421638011932373046875" lon="166.45151359029114246368408203125">
        <ele>906</ele>
        <time>2016-08-12T20:16:56.000Z</time>
        <extensions>
          <ns3:TrackPointExtension>
            <ns3:atemp>14.0</ns3:atemp>
            <ns3:hr>138</ns3:hr>
          </ns3:TrackPointExtension>
        </extensions>
      </trkpt>
      <trkpt lat="-22.0093369670212268829345703125" lon="166.45152716897428035736083984375">
        <ele>906</ele>
        <time>2016-08-12T20:16:57.000Z</time>
        <extensions>
          <ns3:TrackPointExtension>
            <ns3:atemp>14.0</ns3:atemp>
            <ns3:hr>138</ns3:hr>
          </ns3:TrackPointExtension>
        </extensions>
      </trkpt>
      <trkpt lat="-22.0093279145658016204833984375" lon="166.4515378139913082122802734375">
        <ele>906</ele>
        <time>2016-08-12T20:16:58.000Z</time>
        <extensions>
          <ns3:TrackPointExtension>
            <ns3:atemp>14.0</ns3:atemp>
            <ns3:hr>138</ns3:hr>
          </ns3:TrackPointExtension>
        </extensions>
      </trkpt>
      <trkpt lat="-22.00932011939585208892822265625" lon="166.45154980011284351348876953125">
        <ele>906.4000244140625</ele>
        <time>2016-08-12T20:16:59.000Z</time>
        <extensions>
          <ns3:TrackPointExtension>
            <ns3:atemp>14.0</ns3:atemp>
            <ns3:hr>138</ns3:hr>
          </ns3:TrackPointExtension>
        </extensions>
      </trkpt>
      <trkpt lat="-22.00931123457849025726318359375" lon="166.45156471990048885345458984375">
        <ele>906.5999755859375</ele>
        <time>2016-08-12T20:17:00.000Z</time>
        <extensions>
          <ns3:TrackPointExtension>
            <ns3:atemp>14.0</ns3:atemp>
            <ns3:hr>138</ns3:hr>
          </ns3:TrackPointExtension>
        </extensions>
      </trkpt>
      <trkpt lat="-22.0093000866472721099853515625" lon="166.4515797235071659088134765625">
        <ele>906.79998779296875</ele>
        <time>2016-08-12T20:17:01.000Z</time>
        <extensions>
          <ns3:TrackPointExtension>
            <ns3:atemp>14.0</ns3:atemp>
            <ns3:hr>138</ns3:hr>
          </ns3:TrackPointExtension>
        </extensions>
      </trkpt>
      <trkpt lat="-22.00929053127765655517578125" lon="166.45159271545708179473876953125">
        <ele>907</ele>
        <time>2016-08-12T20:17:02.000Z</time>
        <extensions>
          <ns3:TrackPointExtension>
            <ns3:atemp>14.0</ns3:atemp>
            <ns3:hr>138</ns3:hr>
          </ns3:TrackPointExtension>
        </extensions>
      </trkpt>
      <trkpt lat="-22.00928256846964359283447265625" lon="166.451604366302490234375">
        <ele>907.20001220703125</ele>
        <time>2016-08-12T20:17:03.000Z</time>
        <extensions>
          <ns3:TrackPointExtension>
            <ns3:atemp>14.0</ns3:atemp>
            <ns3:hr>138</ns3:hr>
          </ns3:TrackPointExtension>
        </extensions>
      </trkpt>
      <trkpt lat="-22.00927368365228176116943359375" lon="166.451616771519184112548828125">
        <ele>907.4000244140625</ele>
        <time>2016-08-12T20:17:04.000Z</time>
        <extensions>
          <ns3:TrackPointExtension>
            <ns3:atemp>14.0</ns3:atemp>
            <ns3:hr>138</ns3:hr>
          </ns3:TrackPointExtension>
        </extensions>
      </trkpt>
      <trkpt lat="-22.0092648826539516448974609375" lon="166.451628506183624267578125">
        <ele>907.5999755859375</ele>
        <time>2016-08-12T20:17:05.000Z</time>
        <extensions>
          <ns3:TrackPointExtension>
            <ns3:atemp>14.0</ns3:atemp>
            <ns3:hr>138</ns3:hr>
          </ns3:TrackPointExtension>
        </extensions>
      </trkpt>
      <trkpt lat="-22.0092551596462726593017578125" lon="166.4516373910009860992431640625">
        <ele>907.79998779296875</ele>
        <time>2016-08-12T20:17:06.000Z</time>
        <extensions>
          <ns3:TrackPointExtension>
            <ns3:atemp>14.0</ns3:atemp>
            <ns3:hr>138</ns3:hr>
          </ns3:TrackPointExtension>
        </extensions>
      </trkpt>
      <trkpt lat="-22.0092464424669742584228515625" lon="166.45164870657026767730712890625">
        <ele>908</ele>
        <time>2016-08-12T20:17:07.000Z</time>
        <extensions>
          <ns3:TrackPointExtension>
            <ns3:atemp>14.0</ns3:atemp>
            <ns3:hr>138</ns3:hr>
          </ns3:TrackPointExtension>
        </extensions>
      </trkpt>
      <trkpt lat="-22.00923680327832698822021484375" lon="166.45165960304439067840576171875">
        <ele>908.4000244140625</ele>
        <time>2016-08-12T20:17:08.000Z</time>
        <extensions>
          <ns3:TrackPointExtension>
            <ns3:atemp>14.0</ns3:atemp>
            <ns3:hr>138</ns3:hr>
          </ns3:TrackPointExtension>
        </extensions>
      </trkpt>
      <trkpt lat="-22.009227834641933441162109375" lon="166.45166966132819652557373046875">
        <ele>908.4000244140625</ele>
        <time>2016-08-12T20:17:09.000Z</time>
        <extensions>
          <ns3:TrackPointExtension>
            <ns3:atemp>14.0</ns3:atemp>
            <ns3:hr>138</ns3:hr>
          </ns3:TrackPointExtension>
        </extensions>
      </trkpt>
      <trkpt lat="-22.00921869836747646331787109375" lon="166.45167904905974864959716796875">
        <ele>908.5999755859375</ele>
        <time>2016-08-12T20:17:10.000Z</time>
        <extensions>
          <ns3:TrackPointExtension>
            <ns3:atemp>14.0</ns3:atemp>
            <ns3:hr>138</ns3:hr>
          </ns3:TrackPointExtension>
        </extensions>
      </trkpt>
      <trkpt lat="-22.00921014882624149322509765625" lon="166.45169028080999851226806640625">
        <ele>908.79998779296875</ele>
        <time>2016-08-12T20:17:11.000Z</time>
        <extensions>
          <ns3:TrackPointExtension>
            <ns3:atemp>14.0</ns3:atemp>
            <ns3:hr>138</ns3:hr>
          </ns3:TrackPointExtension>
        </extensions>
      </trkpt>
      <trkpt lat="-22.00919941999018192291259765625" lon="166.4516967348754405975341796875">
        <ele>908.79998779296875</ele>
        <time>2016-08-12T20:17:12.000Z</time>
        <extensions>
          <ns3:TrackPointExtension>
            <ns3:atemp>14.0</ns3:atemp>
            <ns3:hr>138</ns3:hr>
          </ns3:TrackPointExtension>
        </extensions>
      </trkpt>
      <trkpt lat="-22.0091884396970272064208984375" lon="166.451703272759914398193359375">
        <ele>909</ele>
        <time>2016-08-12T20:17:13.000Z</time>
        <extensions>
          <ns3:TrackPointExtension>
            <ns3:atemp>14.0</ns3:atemp>
            <ns3:hr>138</ns3:hr>
          </ns3:TrackPointExtension>
        </extensions>
      </trkpt>
      <trkpt lat="-22.0091773755848407745361328125" lon="166.45171358250081539154052734375">
        <ele>909</ele>
        <time>2016-08-12T20:17:14.000Z</time>
        <extensions>
          <ns3:TrackPointExtension>
            <ns3:atemp>14.0</ns3:atemp>
            <ns3:hr>138</ns3:hr>
          </ns3:TrackPointExtension>
        </extensions>
      </trkpt>
      <trkpt lat="-22.00916312634944915771484375" lon="166.45172213204205036163330078125">
        <ele>909.20001220703125</ele>
        <time>2016-08-12T20:17:15.000Z</time>
        <extensions>
          <ns3:TrackPointExtension>
            <ns3:atemp>14.0</ns3:atemp>
            <ns3:hr>137</ns3:hr>
          </ns3:TrackPointExtension>
        </extensions>
      </trkpt>
      <trkpt lat="-22.0091472007334232330322265625" lon="166.45173034630715847015380859375">
        <ele>909.4000244140625</ele>
        <time>2016-08-12T20:17:16.000Z</time>
        <extensions>
          <ns3:TrackPointExtension>
            <ns3:atemp>14.0</ns3:atemp>
            <ns3:hr>138</ns3:hr>
          </ns3:TrackPointExtension>
        </extensions>
      </trkpt>
      <trkpt lat="-22.00913152657449245452880859375" lon="166.4517416618764400482177734375">
        <ele>909.4000244140625</ele>
        <time>2016-08-12T20:17:17.000Z</time>
        <extensions>
          <ns3:TrackPointExtension>
            <ns3:atemp>14.0</ns3:atemp>
            <ns3:hr>138</ns3:hr>
          </ns3:TrackPointExtension>
        </extensions>
      </trkpt>
      <trkpt lat="-22.00911660678684711456298828125" lon="166.451751887798309326171875">
        <ele>909.5999755859375</ele>
        <time>2016-08-12T20:17:18.000Z</time>
        <extensions>
          <ns3:TrackPointExtension>
            <ns3:atemp>14.0</ns3:atemp>
            <ns3:hr>138</ns3:hr>
          </ns3:TrackPointExtension>
        </extensions>
      </trkpt>
      <trkpt lat="-22.00910001061856746673583984375" lon="166.45176068879663944244384765625">
        <ele>909.79998779296875</ele>
        <time>2016-08-12T20:17:19.000Z</time>
        <extensions>
          <ns3:TrackPointExtension>
            <ns3:atemp>14.0</ns3:atemp>
            <ns3:hr>138</ns3:hr>
          </ns3:TrackPointExtension>
        </extensions>
      </trkpt>
      <trkpt lat="-22.00908291153609752655029296875" lon="166.45177594386041164398193359375">
        <ele>910.20001220703125</ele>
        <time>2016-08-12T20:17:20.000Z</time>
        <extensions>
          <ns3:TrackPointExtension>
            <ns3:atemp>14.0</ns3:atemp>
            <ns3:hr>138</ns3:hr>
          </ns3:TrackPointExtension>
        </extensions>
      </trkpt>
      <trkpt lat="-22.009066902101039886474609375" lon="166.4517892710864543914794921875">
        <ele>910.5999755859375</ele>
        <time>2016-08-12T20:17:21.000Z</time>
        <extensions>
          <ns3:TrackPointExtension>
            <ns3:atemp>14.0</ns3:atemp>
            <ns3:hr>138</ns3:hr>
          </ns3:TrackPointExtension>
        </extensions>
      </trkpt>
      <trkpt lat="-22.00905441306531429290771484375" lon="166.4518068730831146240234375">
        <ele>910.79998779296875</ele>
        <time>2016-08-12T20:17:22.000Z</time>
        <extensions>
          <ns3:TrackPointExtension>
            <ns3:atemp>14.0</ns3:atemp>
            <ns3:hr>139</ns3:hr>
          </ns3:TrackPointExtension>
        </extensions>
      </trkpt>
      <trkpt lat="-22.0090395770967006683349609375" lon="166.4518248103559017181396484375">
        <ele>910.79998779296875</ele>
        <time>2016-08-12T20:17:23.000Z</time>
        <extensions>
          <ns3:TrackPointExtension>
            <ns3:atemp>14.0</ns3:atemp>
            <ns3:hr>139</ns3:hr>
          </ns3:TrackPointExtension>
        </extensions>
      </trkpt>
      <trkpt lat="-22.00902407057583332061767578125" lon="166.4518392272293567657470703125">
        <ele>911.4000244140625</ele>
        <time>2016-08-12T20:17:24.000Z</time>
        <extensions>
          <ns3:TrackPointExtension>
            <ns3:atemp>14.0</ns3:atemp>
            <ns3:hr>139</ns3:hr>
          </ns3:TrackPointExtension>
        </extensions>
      </trkpt>
      <trkpt lat="-22.0090097375214099884033203125" lon="166.45185624249279499053955078125">
        <ele>911.79998779296875</ele>
        <time>2016-08-12T20:17:25.000Z</time>
        <extensions>
          <ns3:TrackPointExtension>
            <ns3:atemp>14.0</ns3:atemp>
            <ns3:hr>139</ns3:hr>
          </ns3:TrackPointExtension>
        </extensions>
      </trkpt>
      <trkpt lat="-22.00899641029536724090576171875" lon="166.45187317393720149993896484375">
        <ele>912</ele>
        <time>2016-08-12T20:17:26.000Z</time>
        <extensions>
          <ns3:TrackPointExtension>
            <ns3:atemp>14.0</ns3:atemp>
            <ns3:hr>139</ns3:hr>
          </ns3:TrackPointExtension>
        </extensions>
      </trkpt>
      <trkpt lat="-22.0089827477931976318359375" lon="166.45188524387776851654052734375">
        <ele>912.20001220703125</ele>
        <time>2016-08-12T20:17:27.000Z</time>
        <extensions>
          <ns3:TrackPointExtension>
            <ns3:atemp>14.0</ns3:atemp>
            <ns3:hr>140</ns3:hr>
          </ns3:TrackPointExtension>
        </extensions>
      </trkpt>
      <trkpt lat="-22.00897042639553546905517578125" lon="166.45190368406474590301513671875">
        <ele>912.4000244140625</ele>
        <time>2016-08-12T20:17:28.000Z</time>
        <extensions>
          <ns3:TrackPointExtension>
            <ns3:atemp>14.0</ns3:atemp>
            <ns3:hr>140</ns3:hr>
          </ns3:TrackPointExtension>
        </extensions>
      </trkpt>
      <trkpt lat="-22.00895718298852443695068359375" lon="166.4519217051565647125244140625">
        <ele>912.4000244140625</ele>
        <time>2016-08-12T20:17:29.000Z</time>
        <extensions>
          <ns3:TrackPointExtension>
            <ns3:atemp>14.0</ns3:atemp>
            <ns3:hr>140</ns3:hr>
          </ns3:TrackPointExtension>
        </extensions>
      </trkpt>
      <trkpt lat="-22.0089450292289257049560546875" lon="166.451939307153224945068359375">
        <ele>912.4000244140625</ele>
        <time>2016-08-12T20:17:30.000Z</time>
        <extensions>
          <ns3:TrackPointExtension>
            <ns3:atemp>14.0</ns3:atemp>
            <ns3:hr>140</ns3:hr>
          </ns3:TrackPointExtension>
        </extensions>
      </trkpt>
      <trkpt lat="-22.00893136672675609588623046875" lon="166.4519552327692508697509765625">
        <ele>912.5999755859375</ele>
        <time>2016-08-12T20:17:31.000Z</time>
        <extensions>
          <ns3:TrackPointExtension>
            <ns3:atemp>14.0</ns3:atemp>
            <ns3:hr>140</ns3:hr>
          </ns3:TrackPointExtension>
        </extensions>
      </trkpt>
      <trkpt lat="-22.00891795568168163299560546875" lon="166.45196671597659587860107421875">
        <ele>912.5999755859375</ele>
        <time>2016-08-12T20:17:32.000Z</time>
        <extensions>
          <ns3:TrackPointExtension>
            <ns3:atemp>14.0</ns3:atemp>
            <ns3:hr>140</ns3:hr>
          </ns3:TrackPointExtension>
        </extensions>
      </trkpt>
      <trkpt lat="-22.0089031197130680084228515625" lon="166.4519758522510528564453125">
        <ele>912.79998779296875</ele>
        <time>2016-08-12T20:17:33.000Z</time>
        <extensions>
          <ns3:TrackPointExtension>
            <ns3:atemp>14.0</ns3:atemp>
            <ns3:hr>140</ns3:hr>
          </ns3:TrackPointExtension>
        </extensions>
      </trkpt>
      <trkpt lat="-22.00888677500188350677490234375" lon="166.4519867487251758575439453125">
        <ele>913.4000244140625</ele>
        <time>2016-08-12T20:17:34.000Z</time>
        <extensions>
          <ns3:TrackPointExtension>
            <ns3:atemp>14.0</ns3:atemp>
            <ns3:hr>140</ns3:hr>
          </ns3:TrackPointExtension>
        </extensions>
      </trkpt>
      <trkpt lat="-22.0088716037571430206298828125" lon="166.45199705846607685089111328125">
        <ele>913.4000244140625</ele>
        <time>2016-08-12T20:17:35.000Z</time>
        <extensions>
          <ns3:TrackPointExtension>
            <ns3:atemp>14.0</ns3:atemp>
            <ns3:hr>140</ns3:hr>
          </ns3:TrackPointExtension>
        </extensions>
      </trkpt>
      <trkpt lat="-22.0088565163314342498779296875" lon="166.4520065300166606903076171875">
        <ele>913.4000244140625</ele>
        <time>2016-08-12T20:17:36.000Z</time>
        <extensions>
          <ns3:TrackPointExtension>
            <ns3:atemp>14.0</ns3:atemp>
            <ns3:hr>140</ns3:hr>
          </ns3:TrackPointExtension>
        </extensions>
      </trkpt>
      <trkpt lat="-22.0088394172489643096923828125" lon="166.452015750110149383544921875">
        <ele>913.79998779296875</ele>
        <time>2016-08-12T20:17:37.000Z</time>
        <extensions>
          <ns3:TrackPointExtension>
            <ns3:atemp>14.0</ns3:atemp>
            <ns3:hr>141</ns3:hr>
          </ns3:TrackPointExtension>
        </extensions>
      </trkpt>
      <trkpt lat="-22.008823491632938385009765625" lon="166.45202346146106719970703125">
        <ele>914</ele>
        <time>2016-08-12T20:17:38.000Z</time>
        <extensions>
          <ns3:TrackPointExtension>
            <ns3:atemp>14.0</ns3:atemp>
            <ns3:hr>141</ns3:hr>
          </ns3:TrackPointExtension>
        </extensions>
      </trkpt>
      <trkpt lat="-22.008806057274341583251953125" lon="166.45203108899295330047607421875">
        <ele>914</ele>
        <time>2016-08-12T20:17:39.000Z</time>
        <extensions>
          <ns3:TrackPointExtension>
            <ns3:atemp>14.0</ns3:atemp>
            <ns3:hr>140</ns3:hr>
          </ns3:TrackPointExtension>
        </extensions>
      </trkpt>
      <trkpt lat="-22.0087874494493007659912109375" lon="166.45203611813485622406005859375">
        <ele>914.20001220703125</ele>
        <time>2016-08-12T20:17:40.000Z</time>
        <extensions>
          <ns3:TrackPointExtension>
            <ns3:atemp>14.0</ns3:atemp>
            <ns3:hr>141</ns3:hr>
          </ns3:TrackPointExtension>
        </extensions>
      </trkpt>
      <trkpt lat="-22.008770518004894256591796875" lon="166.45204047672450542449951171875">
        <ele>914.4000244140625</ele>
        <time>2016-08-12T20:17:41.000Z</time>
        <extensions>
          <ns3:TrackPointExtension>
            <ns3:atemp>14.0</ns3:atemp>
            <ns3:hr>140</ns3:hr>
          </ns3:TrackPointExtension>
        </extensions>
      </trkpt>
      <trkpt lat="-22.0087512396275997161865234375" lon="166.4520420692861080169677734375">
        <ele>914.5999755859375</ele>
        <time>2016-08-12T20:17:42.000Z</time>
        <extensions>
          <ns3:TrackPointExtension>
            <ns3:atemp>14.0</ns3:atemp>
            <ns3:hr>141</ns3:hr>
          </ns3:TrackPointExtension>
        </extensions>
      </trkpt>
      <trkpt lat="-22.0087331347167491912841796875" lon="166.452044583857059478759765625">
        <ele>914.5999755859375</ele>
        <time>2016-08-12T20:17:43.000Z</time>
        <extensions>
          <ns3:TrackPointExtension>
            <ns3:atemp>14.0</ns3:atemp>
            <ns3:hr>141</ns3:hr>
          </ns3:TrackPointExtension>
        </extensions>
      </trkpt>
      <trkpt lat="-22.0087190531194210052490234375" lon="166.45205019973218441009521484375">
        <ele>915</ele>
        <time>2016-08-12T20:17:44.000Z</time>
        <extensions>
          <ns3:TrackPointExtension>
            <ns3:atemp>14.0</ns3:atemp>
            <ns3:hr>141</ns3:hr>
          </ns3:TrackPointExtension>
        </extensions>
      </trkpt>
      <trkpt lat="-22.0087036304175853729248046875" lon="166.452057659626007080078125">
        <ele>915.20001220703125</ele>
        <time>2016-08-12T20:17:45.000Z</time>
        <extensions>
          <ns3:TrackPointExtension>
            <ns3:atemp>14.0</ns3:atemp>
            <ns3:hr>141</ns3:hr>
          </ns3:TrackPointExtension>
        </extensions>
      </trkpt>
      <trkpt lat="-22.0086895488202571868896484375" lon="166.45206746645271778106689453125">
        <ele>915.4000244140625</ele>
        <time>2016-08-12T20:17:46.000Z</time>
        <extensions>
          <ns3:TrackPointExtension>
            <ns3:atemp>14.0</ns3:atemp>
            <ns3:hr>141</ns3:hr>
          </ns3:TrackPointExtension>
        </extensions>
      </trkpt>
      <trkpt lat="-22.0086744613945484161376953125" lon="166.4520759321749210357666015625">
        <ele>915.5999755859375</ele>
        <time>2016-08-12T20:17:47.000Z</time>
        <extensions>
          <ns3:TrackPointExtension>
            <ns3:atemp>14.0</ns3:atemp>
            <ns3:hr>141</ns3:hr>
          </ns3:TrackPointExtension>
        </extensions>
      </trkpt>
      <trkpt lat="-22.008659541606903076171875" lon="166.4520885050296783447265625">
        <ele>915.79998779296875</ele>
        <time>2016-08-12T20:17:48.000Z</time>
        <extensions>
          <ns3:TrackPointExtension>
            <ns3:atemp>14.0</ns3:atemp>
            <ns3:hr>141</ns3:hr>
          </ns3:TrackPointExtension>
        </extensions>
      </trkpt>
      <trkpt lat="-22.00864822603762149810791015625" lon="166.45210267044603824615478515625">
        <ele>915.79998779296875</ele>
        <time>2016-08-12T20:17:49.000Z</time>
        <extensions>
          <ns3:TrackPointExtension>
            <ns3:atemp>14.0</ns3:atemp>
            <ns3:hr>141</ns3:hr>
          </ns3:TrackPointExtension>
        </extensions>
      </trkpt>
      <trkpt lat="-22.0086379162967205047607421875" lon="166.45212010480463504791259765625">
        <ele>916</ele>
        <time>2016-08-12T20:17:50.000Z</time>
        <extensions>
          <ns3:TrackPointExtension>
            <ns3:atemp>14.0</ns3:atemp>
            <ns3:hr>142</ns3:hr>
          </ns3:TrackPointExtension>
        </extensions>
      </trkpt>
      <trkpt lat="-22.00862743891775608062744140625" lon="166.452139131724834442138671875">
        <ele>916.4000244140625</ele>
        <time>2016-08-12T20:17:51.000Z</time>
        <extensions>
          <ns3:TrackPointExtension>
            <ns3:atemp>14.0</ns3:atemp>
            <ns3:hr>142</ns3:hr>
          </ns3:TrackPointExtension>
        </extensions>
      </trkpt>
      <trkpt lat="-22.00861570425331592559814453125" lon="166.45215664990246295928955078125">
        <ele>916.4000244140625</ele>
        <time>2016-08-12T20:17:52.000Z</time>
        <extensions>
          <ns3:TrackPointExtension>
            <ns3:atemp>14.0</ns3:atemp>
            <ns3:hr>142</ns3:hr>
          </ns3:TrackPointExtension>
        </extensions>
      </trkpt>
      <trkpt lat="-22.00860145501792430877685546875" lon="166.45217542536556720733642578125">
        <ele>916.5999755859375</ele>
        <time>2016-08-12T20:17:53.000Z</time>
        <extensions>
          <ns3:TrackPointExtension>
            <ns3:atemp>14.0</ns3:atemp>
            <ns3:hr>142</ns3:hr>
          </ns3:TrackPointExtension>
        </extensions>
      </trkpt>
      <trkpt lat="-22.00858645141124725341796875" lon="166.4521919377148151397705078125">
        <ele>917</ele>
        <time>2016-08-12T20:17:54.000Z</time>
        <extensions>
          <ns3:TrackPointExtension>
            <ns3:atemp>14.0</ns3:atemp>
            <ns3:hr>142</ns3:hr>
          </ns3:TrackPointExtension>
        </extensions>
      </trkpt>
      <trkpt lat="-22.00857312418520450592041015625" lon="166.45220794714987277984619140625">
        <ele>916.79998779296875</ele>
        <time>2016-08-12T20:17:55.000Z</time>
        <extensions>
          <ns3:TrackPointExtension>
            <ns3:atemp>14.0</ns3:atemp>
            <ns3:hr>142</ns3:hr>
          </ns3:TrackPointExtension>
        </extensions>
      </trkpt>
      <trkpt lat="-22.008558623492717742919921875" lon="166.45222538150846958160400390625">
        <ele>917</ele>
        <time>2016-08-12T20:17:56.000Z</time>
        <extensions>
          <ns3:TrackPointExtension>
            <ns3:atemp>14.0</ns3:atemp>
            <ns3:hr>142</ns3:hr>
          </ns3:TrackPointExtension>
        </extensions>
      </trkpt>
      <trkpt lat="-22.00854378752410411834716796875" lon="166.4522422291338443756103515625">
        <ele>917.4000244140625</ele>
        <time>2016-08-12T20:17:57.000Z</time>
        <extensions>
          <ns3:TrackPointExtension>
            <ns3:atemp>14.0</ns3:atemp>
            <ns3:hr>142</ns3:hr>
          </ns3:TrackPointExtension>
        </extensions>
      </trkpt>
      <trkpt lat="-22.00852668844163417816162109375" lon="166.4522516168653964996337890625">
        <ele>917.4000244140625</ele>
        <time>2016-08-12T20:17:58.000Z</time>
        <extensions>
          <ns3:TrackPointExtension>
            <ns3:atemp>14.0</ns3:atemp>
            <ns3:hr>142</ns3:hr>
          </ns3:TrackPointExtension>
        </extensions>
      </trkpt>
      <trkpt lat="-22.00851000845432281494140625" lon="166.452262513339519500732421875">
        <ele>917.4000244140625</ele>
        <time>2016-08-12T20:17:59.000Z</time>
        <extensions>
          <ns3:TrackPointExtension>
            <ns3:atemp>14.0</ns3:atemp>
            <ns3:hr>142</ns3:hr>
          </ns3:TrackPointExtension>
        </extensions>
      </trkpt>
      <trkpt lat="-22.0084917359054088592529296875" lon="166.45227022469043731689453125">
        <ele>917.79998779296875</ele>
        <time>2016-08-12T20:18:00.000Z</time>
        <extensions>
          <ns3:TrackPointExtension>
            <ns3:atemp>14.0</ns3:atemp>
            <ns3:hr>142</ns3:hr>
          </ns3:TrackPointExtension>
        </extensions>
      </trkpt>
      <trkpt lat="-22.0084709487855434417724609375" lon="166.45227667875587940216064453125">
        <ele>918.20001220703125</ele>
        <time>2016-08-12T20:18:01.000Z</time>
        <extensions>
          <ns3:TrackPointExtension>
            <ns3:atemp>14.0</ns3:atemp>
            <ns3:hr>142</ns3:hr>
          </ns3:TrackPointExtension>
        </extensions>
      </trkpt>
      <trkpt lat="-22.008452005684375762939453125" lon="166.45228606648743152618408203125">
        <ele>918.20001220703125</ele>
        <time>2016-08-12T20:18:02.000Z</time>
        <extensions>
          <ns3:TrackPointExtension>
            <ns3:atemp>14.0</ns3:atemp>
            <ns3:hr>143</ns3:hr>
          </ns3:TrackPointExtension>
        </extensions>
      </trkpt>
      <trkpt lat="-22.008434571325778961181640625" lon="166.45229361020028591156005859375">
        <ele>918</ele>
        <time>2016-08-12T20:18:03.000Z</time>
        <extensions>
          <ns3:TrackPointExtension>
            <ns3:atemp>14.0</ns3:atemp>
            <ns3:hr>143</ns3:hr>
          </ns3:TrackPointExtension>
        </extensions>
      </trkpt>
      <trkpt lat="-22.00841789133846759796142578125" lon="166.45230450667440891265869140625">
        <ele>918</ele>
        <time>2016-08-12T20:18:04.000Z</time>
        <extensions>
          <ns3:TrackPointExtension>
            <ns3:atemp>14.0</ns3:atemp>
            <ns3:hr>143</ns3:hr>
          </ns3:TrackPointExtension>
        </extensions>
      </trkpt>
      <trkpt lat="-22.00840272009372711181640625" lon="166.45231808535754680633544921875">
        <ele>918.20001220703125</ele>
        <time>2016-08-12T20:18:05.000Z</time>
        <extensions>
          <ns3:TrackPointExtension>
            <ns3:atemp>14.0</ns3:atemp>
            <ns3:hr>143</ns3:hr>
          </ns3:TrackPointExtension>
        </extensions>
      </trkpt>
      <trkpt lat="-22.00838863849639892578125" lon="166.4523290656507015228271484375">
        <ele>918.4000244140625</ele>
        <time>2016-08-12T20:18:06.000Z</time>
        <extensions>
          <ns3:TrackPointExtension>
            <ns3:atemp>14.0</ns3:atemp>
            <ns3:hr>143</ns3:hr>
          </ns3:TrackPointExtension>
        </extensions>
      </trkpt>
      <trkpt lat="-22.00837665237486362457275390625" lon="166.452336944639682769775390625">
        <ele>918.5999755859375</ele>
        <time>2016-08-12T20:18:07.000Z</time>
        <extensions>
          <ns3:TrackPointExtension>
            <ns3:atemp>14.0</ns3:atemp>
            <ns3:hr>143</ns3:hr>
          </ns3:TrackPointExtension>
        </extensions>
      </trkpt>
      <trkpt lat="-22.00836642645299434661865234375" lon="166.45234138704836368560791015625">
        <ele>918.79998779296875</ele>
        <time>2016-08-12T20:18:08.000Z</time>
        <extensions>
          <ns3:TrackPointExtension>
            <ns3:atemp>14.0</ns3:atemp>
            <ns3:hr>143</ns3:hr>
          </ns3:TrackPointExtension>
        </extensions>
      </trkpt>
      <trkpt lat="-22.00835645198822021484375" lon="166.4523505233228206634521484375">
        <ele>918.79998779296875</ele>
        <time>2016-08-12T20:18:09.000Z</time>
        <extensions>
          <ns3:TrackPointExtension>
            <ns3:atemp>14.0</ns3:atemp>
            <ns3:hr>142</ns3:hr>
          </ns3:TrackPointExtension>
        </extensions>
      </trkpt>
      <trkpt lat="-22.008348740637302398681640625" lon="166.45235697738826274871826171875">
        <ele>919</ele>
        <time>2016-08-12T20:18:10.000Z</time>
        <extensions>
          <ns3:TrackPointExtension>
            <ns3:atemp>14.0</ns3:atemp>
            <ns3:hr>142</ns3:hr>
          </ns3:TrackPointExtension>
        </extensions>
      </trkpt>
      <trkpt lat="-22.0083422027528285980224609375" lon="166.45236770622432231903076171875">
        <ele>919.20001220703125</ele>
        <time>2016-08-12T20:18:11.000Z</time>
        <extensions>
          <ns3:TrackPointExtension>
            <ns3:atemp>14.0</ns3:atemp>
            <ns3:hr>142</ns3:hr>
          </ns3:TrackPointExtension>
        </extensions>
      </trkpt>
      <trkpt lat="-22.00833499431610107421875" lon="166.45237994380295276641845703125">
        <ele>919.4000244140625</ele>
        <time>2016-08-12T20:18:12.000Z</time>
        <extensions>
          <ns3:TrackPointExtension>
            <ns3:atemp>14.0</ns3:atemp>
            <ns3:hr>142</ns3:hr>
          </ns3:TrackPointExtension>
        </extensions>
      </trkpt>
      <trkpt lat="-22.0083281211555004119873046875" lon="166.45239084027707576751708984375">
        <ele>919.5999755859375</ele>
        <time>2016-08-12T20:18:13.000Z</time>
        <extensions>
          <ns3:TrackPointExtension>
            <ns3:atemp>14.0</ns3:atemp>
            <ns3:hr>142</ns3:hr>
          </ns3:TrackPointExtension>
        </extensions>
      </trkpt>
      <trkpt lat="-22.0083220861852169036865234375" lon="166.4524008147418498992919921875">
        <ele>920</ele>
        <time>2016-08-12T20:18:14.000Z</time>
        <extensions>
          <ns3:TrackPointExtension>
            <ns3:atemp>14.0</ns3:atemp>
            <ns3:hr>142</ns3:hr>
          </ns3:TrackPointExtension>
        </extensions>
      </trkpt>
      <trkpt lat="-22.00831596739590167999267578125" lon="166.4524142257869243621826171875">
        <ele>920.20001220703125</ele>
        <time>2016-08-12T20:18:15.000Z</time>
        <extensions>
          <ns3:TrackPointExtension>
            <ns3:atemp>14.0</ns3:atemp>
            <ns3:hr>142</ns3:hr>
          </ns3:TrackPointExtension>
        </extensions>
      </trkpt>
      <trkpt lat="-22.00831043533980846405029296875" lon="166.45242805592715740203857421875">
        <ele>920.4000244140625</ele>
        <time>2016-08-12T20:18:16.000Z</time>
        <extensions>
          <ns3:TrackPointExtension>
            <ns3:atemp>14.0</ns3:atemp>
            <ns3:hr>142</ns3:hr>
          </ns3:TrackPointExtension>
        </extensions>
      </trkpt>
      <trkpt lat="-22.00830607675015926361083984375" lon="166.45244129933416843414306640625">
        <ele>920.5999755859375</ele>
        <time>2016-08-12T20:18:17.000Z</time>
        <extensions>
          <ns3:TrackPointExtension>
            <ns3:atemp>14.0</ns3:atemp>
            <ns3:hr>142</ns3:hr>
          </ns3:TrackPointExtension>
        </extensions>
      </trkpt>
      <trkpt lat="-22.0083009637892246246337890625" lon="166.4524559676647186279296875">
        <ele>920.79998779296875</ele>
        <time>2016-08-12T20:18:18.000Z</time>
        <extensions>
          <ns3:TrackPointExtension>
            <ns3:atemp>14.0</ns3:atemp>
            <ns3:hr>142</ns3:hr>
          </ns3:TrackPointExtension>
        </extensions>
      </trkpt>
      <trkpt lat="-22.00829585082828998565673828125" lon="166.45246845670044422149658203125">
        <ele>921</ele>
        <time>2016-08-12T20:18:19.000Z</time>
        <extensions>
          <ns3:TrackPointExtension>
            <ns3:atemp>14.0</ns3:atemp>
            <ns3:hr>142</ns3:hr>
          </ns3:TrackPointExtension>
        </extensions>
      </trkpt>
      <trkpt lat="-22.00829249806702136993408203125" lon="166.45248052664101123809814453125">
        <ele>921.20001220703125</ele>
        <time>2016-08-12T20:18:20.000Z</time>
        <extensions>
          <ns3:TrackPointExtension>
            <ns3:atemp>14.0</ns3:atemp>
            <ns3:hr>142</ns3:hr>
          </ns3:TrackPointExtension>
        </extensions>
      </trkpt>
      <trkpt lat="-22.00828663073480129241943359375" lon="166.45249125547707080841064453125">
        <ele>921.5999755859375</ele>
        <time>2016-08-12T20:18:21.000Z</time>
        <extensions>
          <ns3:TrackPointExtension>
            <ns3:atemp>14.0</ns3:atemp>
            <ns3:hr>142</ns3:hr>
          </ns3:TrackPointExtension>
        </extensions>
      </trkpt>
      <trkpt lat="-22.0082791708409786224365234375" lon="166.45250022411346435546875">
        <ele>921.5999755859375</ele>
        <time>2016-08-12T20:18:22.000Z</time>
        <extensions>
          <ns3:TrackPointExtension>
            <ns3:atemp>14.0</ns3:atemp>
            <ns3:hr>142</ns3:hr>
          </ns3:TrackPointExtension>
        </extensions>
      </trkpt>
      <trkpt lat="-22.0082721300423145294189453125" lon="166.4525124616920948028564453125">
        <ele>922</ele>
        <time>2016-08-12T20:18:23.000Z</time>
        <extensions>
          <ns3:TrackPointExtension>
            <ns3:atemp>14.0</ns3:atemp>
            <ns3:hr>142</ns3:hr>
          </ns3:TrackPointExtension>
        </extensions>
      </trkpt>
      <trkpt lat="-22.00826634652912616729736328125" lon="166.45252495072782039642333984375">
        <ele>922.20001220703125</ele>
        <time>2016-08-12T20:18:24.000Z</time>
        <extensions>
          <ns3:TrackPointExtension>
            <ns3:atemp>14.0</ns3:atemp>
            <ns3:hr>142</ns3:hr>
          </ns3:TrackPointExtension>
        </extensions>
      </trkpt>
      <trkpt lat="-22.008261568844318389892578125" lon="166.45253710448741912841796875">
        <ele>922.4000244140625</ele>
        <time>2016-08-12T20:18:25.000Z</time>
        <extensions>
          <ns3:TrackPointExtension>
            <ns3:atemp>14.0</ns3:atemp>
            <ns3:hr>142</ns3:hr>
          </ns3:TrackPointExtension>
        </extensions>
      </trkpt>
      <trkpt lat="-22.008257210254669189453125" lon="166.45254959352314472198486328125">
        <ele>922.5999755859375</ele>
        <time>2016-08-12T20:18:26.000Z</time>
        <extensions>
          <ns3:TrackPointExtension>
            <ns3:atemp>14.0</ns3:atemp>
            <ns3:hr>143</ns3:hr>
          </ns3:TrackPointExtension>
        </extensions>
      </trkpt>
      <trkpt lat="-22.0082533545792102813720703125" lon="166.45256367512047290802001953125">
        <ele>923</ele>
        <time>2016-08-12T20:18:27.000Z</time>
        <extensions>
          <ns3:TrackPointExtension>
            <ns3:atemp>14.0</ns3:atemp>
            <ns3:hr>143</ns3:hr>
          </ns3:TrackPointExtension>
        </extensions>
      </trkpt>
      <trkpt lat="-22.00824941508471965789794921875" lon="166.452578008174896240234375">
        <ele>923.20001220703125</ele>
        <time>2016-08-12T20:18:28.000Z</time>
        <extensions>
          <ns3:TrackPointExtension>
            <ns3:atemp>14.0</ns3:atemp>
            <ns3:hr>143</ns3:hr>
          </ns3:TrackPointExtension>
        </extensions>
      </trkpt>
      <trkpt lat="-22.00824673287570476531982421875" lon="166.452592425048351287841796875">
        <ele>923.20001220703125</ele>
        <time>2016-08-12T20:18:29.000Z</time>
        <extensions>
          <ns3:TrackPointExtension>
            <ns3:atemp>14.0</ns3:atemp>
            <ns3:hr>143</ns3:hr>
          </ns3:TrackPointExtension>
        </extensions>
      </trkpt>
      <trkpt lat="-22.00824287720024585723876953125" lon="166.4526061713695526123046875">
        <ele>923.4000244140625</ele>
        <time>2016-08-12T20:18:30.000Z</time>
        <extensions>
          <ns3:TrackPointExtension>
            <ns3:atemp>14.0</ns3:atemp>
            <ns3:hr>143</ns3:hr>
          </ns3:TrackPointExtension>
        </extensions>
      </trkpt>
      <trkpt lat="-22.008237428963184356689453125" lon="166.45261916331946849822998046875">
        <ele>923.5999755859375</ele>
        <time>2016-08-12T20:18:31.000Z</time>
        <extensions>
          <ns3:TrackPointExtension>
            <ns3:atemp>14.0</ns3:atemp>
            <ns3:hr>144</ns3:hr>
          </ns3:TrackPointExtension>
        </extensions>
      </trkpt>
      <trkpt lat="-22.00823114253580570220947265625" lon="166.4526318199932575225830078125">
        <ele>923.79998779296875</ele>
        <time>2016-08-12T20:18:32.000Z</time>
        <extensions>
          <ns3:TrackPointExtension>
            <ns3:atemp>14.0</ns3:atemp>
            <ns3:hr>144</ns3:hr>
          </ns3:TrackPointExtension>
        </extensions>
      </trkpt>
      <trkpt lat="-22.008226029574871063232421875" lon="166.4526452310383319854736328125">
        <ele>924</ele>
        <time>2016-08-12T20:18:33.000Z</time>
        <extensions>
          <ns3:TrackPointExtension>
            <ns3:atemp>14.0</ns3:atemp>
            <ns3:hr>143</ns3:hr>
          </ns3:TrackPointExtension>
        </extensions>
      </trkpt>
      <trkpt lat="-22.008219994604587554931640625" lon="166.45265704952180385589599609375">
        <ele>924.20001220703125</ele>
        <time>2016-08-12T20:18:34.000Z</time>
        <extensions>
          <ns3:TrackPointExtension>
            <ns3:atemp>14.0</ns3:atemp>
            <ns3:hr>144</ns3:hr>
          </ns3:TrackPointExtension>
        </extensions>
      </trkpt>
      <trkpt lat="-22.00821354053914546966552734375" lon="166.45266585052013397216796875">
        <ele>924.4000244140625</ele>
        <time>2016-08-12T20:18:35.000Z</time>
        <extensions>
          <ns3:TrackPointExtension>
            <ns3:atemp>14.0</ns3:atemp>
            <ns3:hr>143</ns3:hr>
          </ns3:TrackPointExtension>
        </extensions>
      </trkpt>
      <trkpt lat="-22.0082084275782108306884765625" lon="166.4526757411658763885498046875">
        <ele>924.20001220703125</ele>
        <time>2016-08-12T20:18:36.000Z</time>
        <extensions>
          <ns3:TrackPointExtension>
            <ns3:atemp>14.0</ns3:atemp>
            <ns3:hr>144</ns3:hr>
          </ns3:TrackPointExtension>
        </extensions>
      </trkpt>
      <trkpt lat="-22.00819962657988071441650390625" lon="166.45268806256353855133056640625">
        <ele>924.4000244140625</ele>
        <time>2016-08-12T20:18:37.000Z</time>
        <extensions>
          <ns3:TrackPointExtension>
            <ns3:atemp>14.0</ns3:atemp>
            <ns3:hr>143</ns3:hr>
          </ns3:TrackPointExtension>
        </extensions>
      </trkpt>
      <trkpt lat="-22.008193172514438629150390625" lon="166.45269962958991527557373046875">
        <ele>925</ele>
        <time>2016-08-12T20:18:38.000Z</time>
        <extensions>
          <ns3:TrackPointExtension>
            <ns3:atemp>14.0</ns3:atemp>
            <ns3:hr>143</ns3:hr>
          </ns3:TrackPointExtension>
        </extensions>
      </trkpt>
      <trkpt lat="-22.00818772427737712860107421875" lon="166.45271237008273601531982421875">
        <ele>925.20001220703125</ele>
        <time>2016-08-12T20:18:39.000Z</time>
        <extensions>
          <ns3:TrackPointExtension>
            <ns3:atemp>14.0</ns3:atemp>
            <ns3:hr>143</ns3:hr>
          </ns3:TrackPointExtension>
        </extensions>
      </trkpt>
      <trkpt lat="-22.00818303041160106658935546875" lon="166.45273030735552310943603515625">
        <ele>925.5999755859375</ele>
        <time>2016-08-12T20:18:40.000Z</time>
        <extensions>
          <ns3:TrackPointExtension>
            <ns3:atemp>14.0</ns3:atemp>
            <ns3:hr>143</ns3:hr>
          </ns3:TrackPointExtension>
        </extensions>
      </trkpt>
      <trkpt lat="-22.00817741453647613525390625" lon="166.45274606533348560333251953125">
        <ele>925.79998779296875</ele>
        <time>2016-08-12T20:18:41.000Z</time>
        <extensions>
          <ns3:TrackPointExtension>
            <ns3:atemp>14.0</ns3:atemp>
            <ns3:hr>143</ns3:hr>
          </ns3:TrackPointExtension>
        </extensions>
      </trkpt>
      <trkpt lat="-22.00817205011844635009765625" lon="166.452760398387908935546875">
        <ele>926</ele>
        <time>2016-08-12T20:18:42.000Z</time>
        <extensions>
          <ns3:TrackPointExtension>
            <ns3:atemp>14.0</ns3:atemp>
            <ns3:hr>143</ns3:hr>
          </ns3:TrackPointExtension>
        </extensions>
      </trkpt>
      <trkpt lat="-22.0081673562526702880859375" lon="166.4527780003845691680908203125">
        <ele>926.20001220703125</ele>
        <time>2016-08-12T20:18:43.000Z</time>
        <extensions>
          <ns3:TrackPointExtension>
            <ns3:atemp>14.0</ns3:atemp>
            <ns3:hr>143</ns3:hr>
          </ns3:TrackPointExtension>
        </extensions>
      </trkpt>
      <trkpt lat="-22.008161656558513641357421875" lon="166.45279434509575366973876953125">
        <ele>926.4000244140625</ele>
        <time>2016-08-12T20:18:44.000Z</time>
        <extensions>
          <ns3:TrackPointExtension>
            <ns3:atemp>14.0</ns3:atemp>
            <ns3:hr>142</ns3:hr>
          </ns3:TrackPointExtension>
        </extensions>
      </trkpt>
      <trkpt lat="-22.0081564597785472869873046875" lon="166.45280859433114528656005859375">
        <ele>926.4000244140625</ele>
        <time>2016-08-12T20:18:45.000Z</time>
        <extensions>
          <ns3:TrackPointExtension>
            <ns3:atemp>14.0</ns3:atemp>
            <ns3:hr>142</ns3:hr>
          </ns3:TrackPointExtension>
        </extensions>
      </trkpt>
      <trkpt lat="-22.0081490837037563323974609375" lon="166.45282049663364887237548828125">
        <ele>926.5999755859375</ele>
        <time>2016-08-12T20:18:46.000Z</time>
        <extensions>
          <ns3:TrackPointExtension>
            <ns3:atemp>14.0</ns3:atemp>
            <ns3:hr>142</ns3:hr>
          </ns3:TrackPointExtension>
        </extensions>
      </trkpt>
      <trkpt lat="-22.008144892752170562744140625" lon="166.45283642224967479705810546875">
        <ele>926.79998779296875</ele>
        <time>2016-08-12T20:18:47.000Z</time>
        <extensions>
          <ns3:TrackPointExtension>
            <ns3:atemp>14.0</ns3:atemp>
            <ns3:hr>142</ns3:hr>
          </ns3:TrackPointExtension>
        </extensions>
      </trkpt>
      <trkpt lat="-22.00814380310475826263427734375" lon="166.45285385660827159881591796875">
        <ele>927</ele>
        <time>2016-08-12T20:18:48.000Z</time>
        <extensions>
          <ns3:TrackPointExtension>
            <ns3:atemp>14.0</ns3:atemp>
            <ns3:hr>141</ns3:hr>
          </ns3:TrackPointExtension>
        </extensions>
      </trkpt>
      <trkpt lat="-22.0081413723528385162353515625" lon="166.45287036895751953125">
        <ele>927.20001220703125</ele>
        <time>2016-08-12T20:18:49.000Z</time>
        <extensions>
          <ns3:TrackPointExtension>
            <ns3:atemp>14.0</ns3:atemp>
            <ns3:hr>141</ns3:hr>
          </ns3:TrackPointExtension>
        </extensions>
      </trkpt>
      <trkpt lat="-22.00813852250576019287109375" lon="166.45288486965000629425048828125">
        <ele>927.4000244140625</ele>
        <time>2016-08-12T20:18:50.000Z</time>
        <extensions>
          <ns3:TrackPointExtension>
            <ns3:atemp>14.0</ns3:atemp>
            <ns3:hr>141</ns3:hr>
          </ns3:TrackPointExtension>
        </extensions>
      </trkpt>
      <trkpt lat="-22.00813491828739643096923828125" lon="166.4528966881334781646728515625">
        <ele>927.5999755859375</ele>
        <time>2016-08-12T20:18:51.000Z</time>
        <extensions>
          <ns3:TrackPointExtension>
            <ns3:atemp>14.0</ns3:atemp>
            <ns3:hr>141</ns3:hr>
          </ns3:TrackPointExtension>
        </extensions>
      </trkpt>
      <trkpt lat="-22.00813139788806438446044921875" lon="166.45291202701628208160400390625">
        <ele>927.79998779296875</ele>
        <time>2016-08-12T20:18:52.000Z</time>
        <extensions>
          <ns3:TrackPointExtension>
            <ns3:atemp>14.0</ns3:atemp>
            <ns3:hr>141</ns3:hr>
          </ns3:TrackPointExtension>
        </extensions>
      </trkpt>
      <trkpt lat="-22.008127458393573760986328125" lon="166.45292711444199085235595703125">
        <ele>928</ele>
        <time>2016-08-12T20:18:53.000Z</time>
        <extensions>
          <ns3:TrackPointExtension>
            <ns3:atemp>14.0</ns3:atemp>
            <ns3:hr>140</ns3:hr>
          </ns3:TrackPointExtension>
        </extensions>
      </trkpt>
      <trkpt lat="-22.00812502764165401458740234375" lon="166.452940441668033599853515625">
        <ele>928.20001220703125</ele>
        <time>2016-08-12T20:18:54.000Z</time>
        <extensions>
          <ns3:TrackPointExtension>
            <ns3:atemp>14.0</ns3:atemp>
            <ns3:hr>140</ns3:hr>
          </ns3:TrackPointExtension>
        </extensions>
      </trkpt>
      <trkpt lat="-22.008121423423290252685546875" lon="166.4529516734182834625244140625">
        <ele>928.4000244140625</ele>
        <time>2016-08-12T20:18:55.000Z</time>
        <extensions>
          <ns3:TrackPointExtension>
            <ns3:atemp>14.0</ns3:atemp>
            <ns3:hr>140</ns3:hr>
          </ns3:TrackPointExtension>
        </extensions>
      </trkpt>
      <trkpt lat="-22.0081202499568462371826171875" lon="166.45296617411077022552490234375">
        <ele>928.4000244140625</ele>
        <time>2016-08-12T20:18:56.000Z</time>
        <extensions>
          <ns3:TrackPointExtension>
            <ns3:atemp>14.0</ns3:atemp>
            <ns3:hr>140</ns3:hr>
          </ns3:TrackPointExtension>
        </extensions>
      </trkpt>
      <trkpt lat="-22.00811681337654590606689453125" lon="166.45298042334616184234619140625">
        <ele>928.4000244140625</ele>
        <time>2016-08-12T20:18:57.000Z</time>
        <extensions>
          <ns3:TrackPointExtension>
            <ns3:atemp>14.0</ns3:atemp>
            <ns3:hr>139</ns3:hr>
          </ns3:TrackPointExtension>
        </extensions>
      </trkpt>
      <trkpt lat="-22.0081118680536746978759765625" lon="166.4529925771057605743408203125">
        <ele>928.5999755859375</ele>
        <time>2016-08-12T20:18:58.000Z</time>
        <extensions>
          <ns3:TrackPointExtension>
            <ns3:atemp>14.0</ns3:atemp>
            <ns3:hr>139</ns3:hr>
          </ns3:TrackPointExtension>
        </extensions>
      </trkpt>
      <trkpt lat="-22.008106000721454620361328125" lon="166.45300514996051788330078125">
        <ele>928.79998779296875</ele>
        <time>2016-08-12T20:18:59.000Z</time>
        <extensions>
          <ns3:TrackPointExtension>
            <ns3:atemp>14.0</ns3:atemp>
            <ns3:hr>139</ns3:hr>
          </ns3:TrackPointExtension>
        </extensions>
      </trkpt>
      <trkpt lat="-22.0081038214266300201416015625" lon="166.45302065648138523101806640625">
        <ele>929</ele>
        <time>2016-08-12T20:19:00.000Z</time>
        <extensions>
          <ns3:TrackPointExtension>
            <ns3:atemp>14.0</ns3:atemp>
            <ns3:hr>139</ns3:hr>
          </ns3:TrackPointExtension>
        </extensions>
      </trkpt>
      <trkpt lat="-22.008101977407932281494140625" lon="166.45303691737353801727294921875">
        <ele>929.20001220703125</ele>
        <time>2016-08-12T20:19:01.000Z</time>
        <extensions>
          <ns3:TrackPointExtension>
            <ns3:atemp>14.0</ns3:atemp>
            <ns3:hr>139</ns3:hr>
          </ns3:TrackPointExtension>
        </extensions>
      </trkpt>
      <trkpt lat="-22.0080974511802196502685546875" lon="166.4530515857040882110595703125">
        <ele>929.4000244140625</ele>
        <time>2016-08-12T20:19:02.000Z</time>
        <extensions>
          <ns3:TrackPointExtension>
            <ns3:atemp>14.0</ns3:atemp>
            <ns3:hr>138</ns3:hr>
          </ns3:TrackPointExtension>
        </extensions>
      </trkpt>
      <trkpt lat="-22.00809150002896785736083984375" lon="166.45306675694882869720458984375">
        <ele>929.79998779296875</ele>
        <time>2016-08-12T20:19:03.000Z</time>
        <extensions>
          <ns3:TrackPointExtension>
            <ns3:atemp>14.0</ns3:atemp>
            <ns3:hr>138</ns3:hr>
          </ns3:TrackPointExtension>
        </extensions>
      </trkpt>
      <trkpt lat="-22.00808362103998661041259765625" lon="166.4530790783464908599853515625">
        <ele>930</ele>
        <time>2016-08-12T20:19:04.000Z</time>
        <extensions>
          <ns3:TrackPointExtension>
            <ns3:atemp>14.0</ns3:atemp>
            <ns3:hr>138</ns3:hr>
          </ns3:TrackPointExtension>
        </extensions>
      </trkpt>
      <trkpt lat="-22.00807775370776653289794921875" lon="166.4530931599438190460205078125">
        <ele>930</ele>
        <time>2016-08-12T20:19:05.000Z</time>
        <extensions>
          <ns3:TrackPointExtension>
            <ns3:atemp>14.0</ns3:atemp>
            <ns3:hr>138</ns3:hr>
          </ns3:TrackPointExtension>
        </extensions>
      </trkpt>
      <trkpt lat="-22.00807641260325908660888671875" lon="166.45310933701694011688232421875">
        <ele>930</ele>
        <time>2016-08-12T20:19:06.000Z</time>
        <extensions>
          <ns3:TrackPointExtension>
            <ns3:atemp>14.0</ns3:atemp>
            <ns3:hr>138</ns3:hr>
          </ns3:TrackPointExtension>
        </extensions>
      </trkpt>
      <trkpt lat="-22.008073814213275909423828125" lon="166.45312123931944370269775390625">
        <ele>930</ele>
        <time>2016-08-12T20:19:07.000Z</time>
        <extensions>
          <ns3:TrackPointExtension>
            <ns3:atemp>14.0</ns3:atemp>
            <ns3:hr>138</ns3:hr>
          </ns3:TrackPointExtension>
        </extensions>
      </trkpt>
      <trkpt lat="-22.00806744396686553955078125" lon="166.45313012413680553436279296875">
        <ele>929.79998779296875</ele>
        <time>2016-08-12T20:19:08.000Z</time>
        <extensions>
          <ns3:TrackPointExtension>
            <ns3:atemp>14.0</ns3:atemp>
            <ns3:hr>138</ns3:hr>
          </ns3:TrackPointExtension>
        </extensions>
      </trkpt>
      <trkpt lat="-22.008058391511440277099609375" lon="166.45313800312578678131103515625">
        <ele>930</ele>
        <time>2016-08-12T20:19:09.000Z</time>
        <extensions>
          <ns3:TrackPointExtension>
            <ns3:atemp>14.0</ns3:atemp>
            <ns3:hr>138</ns3:hr>
          </ns3:TrackPointExtension>
        </extensions>
      </trkpt>
      <trkpt lat="-22.00804757885634899139404296875" lon="166.45314219407737255096435546875">
        <ele>930.4000244140625</ele>
        <time>2016-08-12T20:19:10.000Z</time>
        <extensions>
          <ns3:TrackPointExtension>
            <ns3:atemp>14.0</ns3:atemp>
            <ns3:hr>138</ns3:hr>
          </ns3:TrackPointExtension>
        </extensions>
      </trkpt>
      <trkpt lat="-22.0080359280109405517578125" lon="166.453146636486053466796875">
        <ele>930.4000244140625</ele>
        <time>2016-08-12T20:19:11.000Z</time>
        <extensions>
          <ns3:TrackPointExtension>
            <ns3:atemp>14.0</ns3:atemp>
            <ns3:hr>138</ns3:hr>
          </ns3:TrackPointExtension>
        </extensions>
      </trkpt>
      <trkpt lat="-22.008024863898754119873046875" lon="166.45315191708505153656005859375">
        <ele>930.5999755859375</ele>
        <time>2016-08-12T20:19:12.000Z</time>
        <extensions>
          <ns3:TrackPointExtension>
            <ns3:atemp>14.0</ns3:atemp>
            <ns3:hr>137</ns3:hr>
          </ns3:TrackPointExtension>
        </extensions>
      </trkpt>
      <trkpt lat="-22.00801338069140911102294921875" lon="166.4531600475311279296875">
        <ele>930.79998779296875</ele>
        <time>2016-08-12T20:19:13.000Z</time>
        <extensions>
          <ns3:TrackPointExtension>
            <ns3:atemp>14.0</ns3:atemp>
            <ns3:hr>137</ns3:hr>
          </ns3:TrackPointExtension>
        </extensions>
      </trkpt>
      <trkpt lat="-22.00800172984600067138671875" lon="166.4531706087291240692138671875">
        <ele>931</ele>
        <time>2016-08-12T20:19:14.000Z</time>
        <extensions>
          <ns3:TrackPointExtension>
            <ns3:atemp>14.0</ns3:atemp>
            <ns3:hr>138</ns3:hr>
          </ns3:TrackPointExtension>
        </extensions>
      </trkpt>
      <trkpt lat="-22.00799074955284595489501953125" lon="166.45318225957453250885009765625">
        <ele>931.20001220703125</ele>
        <time>2016-08-12T20:19:15.000Z</time>
        <extensions>
          <ns3:TrackPointExtension>
            <ns3:atemp>14.0</ns3:atemp>
            <ns3:hr>138</ns3:hr>
          </ns3:TrackPointExtension>
        </extensions>
      </trkpt>
      <trkpt lat="-22.00798085890710353851318359375" lon="166.45319215022027492523193359375">
        <ele>931.4000244140625</ele>
        <time>2016-08-12T20:19:16.000Z</time>
        <extensions>
          <ns3:TrackPointExtension>
            <ns3:atemp>14.0</ns3:atemp>
            <ns3:hr>137</ns3:hr>
          </ns3:TrackPointExtension>
        </extensions>
      </trkpt>
      <trkpt lat="-22.00797080062329769134521484375" lon="166.4532001130282878875732421875">
        <ele>931.4000244140625</ele>
        <time>2016-08-12T20:19:17.000Z</time>
        <extensions>
          <ns3:TrackPointExtension>
            <ns3:atemp>14.0</ns3:atemp>
            <ns3:hr>137</ns3:hr>
          </ns3:TrackPointExtension>
        </extensions>
      </trkpt>
      <trkpt lat="-22.00795956887304782867431640625" lon="166.45320740528404712677001953125">
        <ele>931.5999755859375</ele>
        <time>2016-08-12T20:19:18.000Z</time>
        <extensions>
          <ns3:TrackPointExtension>
            <ns3:atemp>14.0</ns3:atemp>
            <ns3:hr>137</ns3:hr>
          </ns3:TrackPointExtension>
        </extensions>
      </trkpt>
      <trkpt lat="-22.0079474151134490966796875" lon="166.45321302115917205810546875">
        <ele>931.79998779296875</ele>
        <time>2016-08-12T20:19:19.000Z</time>
        <extensions>
          <ns3:TrackPointExtension>
            <ns3:atemp>14.0</ns3:atemp>
            <ns3:hr>137</ns3:hr>
          </ns3:TrackPointExtension>
        </extensions>
      </trkpt>
      <trkpt lat="-22.00793408788740634918212890625" lon="166.45321746356785297393798828125">
        <ele>932</ele>
        <time>2016-08-12T20:19:20.000Z</time>
        <extensions>
          <ns3:TrackPointExtension>
            <ns3:atemp>14.0</ns3:atemp>
            <ns3:hr>137</ns3:hr>
          </ns3:TrackPointExtension>
        </extensions>
      </trkpt>
      <trkpt lat="-22.0079214312136173248291015625" lon="166.45322467200458049774169921875">
        <ele>932.20001220703125</ele>
        <time>2016-08-12T20:19:21.000Z</time>
        <extensions>
          <ns3:TrackPointExtension>
            <ns3:atemp>14.0</ns3:atemp>
            <ns3:hr>138</ns3:hr>
          </ns3:TrackPointExtension>
        </extensions>
      </trkpt>
      <trkpt lat="-22.0079117082059383392333984375" lon="166.45323640666902065277099609375">
        <ele>932.4000244140625</ele>
        <time>2016-08-12T20:19:22.000Z</time>
        <extensions>
          <ns3:TrackPointExtension>
            <ns3:atemp>14.0</ns3:atemp>
            <ns3:hr>137</ns3:hr>
          </ns3:TrackPointExtension>
        </extensions>
      </trkpt>
      <trkpt lat="-22.0079016499221324920654296875" lon="166.45324830897152423858642578125">
        <ele>932.5999755859375</ele>
        <time>2016-08-12T20:19:23.000Z</time>
        <extensions>
          <ns3:TrackPointExtension>
            <ns3:atemp>14.0</ns3:atemp>
            <ns3:hr>137</ns3:hr>
          </ns3:TrackPointExtension>
        </extensions>
      </trkpt>
      <trkpt lat="-22.00788949616253376007080078125" lon="166.453259624540805816650390625">
        <ele>932.79998779296875</ele>
        <time>2016-08-12T20:19:24.000Z</time>
        <extensions>
          <ns3:TrackPointExtension>
            <ns3:atemp>14.0</ns3:atemp>
            <ns3:hr>137</ns3:hr>
          </ns3:TrackPointExtension>
        </extensions>
      </trkpt>
      <trkpt lat="-22.00787759386003017425537109375" lon="166.4532695151865482330322265625">
        <ele>933</ele>
        <time>2016-08-12T20:19:25.000Z</time>
        <extensions>
          <ns3:TrackPointExtension>
            <ns3:atemp>14.0</ns3:atemp>
            <ns3:hr>137</ns3:hr>
          </ns3:TrackPointExtension>
        </extensions>
      </trkpt>
      <trkpt lat="-22.00786686502397060394287109375" lon="166.4532794058322906494140625">
        <ele>933.20001220703125</ele>
        <time>2016-08-12T20:19:26.000Z</time>
        <extensions>
          <ns3:TrackPointExtension>
            <ns3:atemp>14.0</ns3:atemp>
            <ns3:hr>137</ns3:hr>
          </ns3:TrackPointExtension>
        </extensions>
      </trkpt>
      <trkpt lat="-22.00785554945468902587890625" lon="166.4532903023064136505126953125">
        <ele>933.4000244140625</ele>
        <time>2016-08-12T20:19:27.000Z</time>
        <extensions>
          <ns3:TrackPointExtension>
            <ns3:atemp>14.0</ns3:atemp>
            <ns3:hr>137</ns3:hr>
          </ns3:TrackPointExtension>
        </extensions>
      </trkpt>
      <trkpt lat="-22.00784607790410518646240234375" lon="166.45330245606601238250732421875">
        <ele>933.79998779296875</ele>
        <time>2016-08-12T20:19:28.000Z</time>
        <extensions>
          <ns3:TrackPointExtension>
            <ns3:atemp>14.0</ns3:atemp>
            <ns3:hr>137</ns3:hr>
          </ns3:TrackPointExtension>
        </extensions>
      </trkpt>
      <trkpt lat="-22.0078369416296482086181640625" lon="166.45331486128270626068115234375">
        <ele>934</ele>
        <time>2016-08-12T20:19:29.000Z</time>
        <extensions>
          <ns3:TrackPointExtension>
            <ns3:atemp>14.0</ns3:atemp>
            <ns3:hr>137</ns3:hr>
          </ns3:TrackPointExtension>
        </extensions>
      </trkpt>
      <trkpt lat="-22.00782897882163524627685546875" lon="166.45332642830908298492431640625">
        <ele>934.20001220703125</ele>
        <time>2016-08-12T20:19:30.000Z</time>
        <extensions>
          <ns3:TrackPointExtension>
            <ns3:atemp>14.0</ns3:atemp>
            <ns3:hr>136</ns3:hr>
          </ns3:TrackPointExtension>
        </extensions>
      </trkpt>
      <trkpt lat="-22.00782076455652713775634765625" lon="166.45333916880190372467041015625">
        <ele>934.4000244140625</ele>
        <time>2016-08-12T20:19:31.000Z</time>
        <extensions>
          <ns3:TrackPointExtension>
            <ns3:atemp>14.0</ns3:atemp>
            <ns3:hr>136</ns3:hr>
          </ns3:TrackPointExtension>
        </extensions>
      </trkpt>
      <trkpt lat="-22.007812969386577606201171875" lon="166.4533519931137561798095703125">
        <ele>934.4000244140625</ele>
        <time>2016-08-12T20:19:32.000Z</time>
        <extensions>
          <ns3:TrackPointExtension>
            <ns3:atemp>14.0</ns3:atemp>
            <ns3:hr>136</ns3:hr>
          </ns3:TrackPointExtension>
        </extensions>
      </trkpt>
      <trkpt lat="-22.00780668295919895172119140625" lon="166.45337068475782871246337890625">
        <ele>934.5999755859375</ele>
        <time>2016-08-12T20:19:33.000Z</time>
        <extensions>
          <ns3:TrackPointExtension>
            <ns3:atemp>14.0</ns3:atemp>
            <ns3:hr>137</ns3:hr>
          </ns3:TrackPointExtension>
        </extensions>
      </trkpt>
      <trkpt lat="-22.00780165381729602813720703125" lon="166.4533875323832035064697265625">
        <ele>934.79998779296875</ele>
        <time>2016-08-12T20:19:34.000Z</time>
        <extensions>
          <ns3:TrackPointExtension>
            <ns3:atemp>14.0</ns3:atemp>
            <ns3:hr>136</ns3:hr>
          </ns3:TrackPointExtension>
        </extensions>
      </trkpt>
      <trkpt lat="-22.00779880397021770477294921875" lon="166.45340203307569026947021484375">
        <ele>934.79998779296875</ele>
        <time>2016-08-12T20:19:35.000Z</time>
        <extensions>
          <ns3:TrackPointExtension>
            <ns3:atemp>14.0</ns3:atemp>
            <ns3:hr>136</ns3:hr>
          </ns3:TrackPointExtension>
        </extensions>
      </trkpt>
      <trkpt lat="-22.0077953673899173736572265625" lon="166.4534150250256061553955078125">
        <ele>935</ele>
        <time>2016-08-12T20:19:36.000Z</time>
        <extensions>
          <ns3:TrackPointExtension>
            <ns3:atemp>14.0</ns3:atemp>
            <ns3:hr>137</ns3:hr>
          </ns3:TrackPointExtension>
        </extensions>
      </trkpt>
      <trkpt lat="-22.0077910088002681732177734375" lon="166.45342701114714145660400390625">
        <ele>935.4000244140625</ele>
        <time>2016-08-12T20:19:37.000Z</time>
        <extensions>
          <ns3:TrackPointExtension>
            <ns3:atemp>14.0</ns3:atemp>
            <ns3:hr>137</ns3:hr>
          </ns3:TrackPointExtension>
        </extensions>
      </trkpt>
      <trkpt lat="-22.0077891647815704345703125" lon="166.45343908108770847320556640625">
        <ele>935.5999755859375</ele>
        <time>2016-08-12T20:19:38.000Z</time>
        <extensions>
          <ns3:TrackPointExtension>
            <ns3:atemp>14.0</ns3:atemp>
            <ns3:hr>136</ns3:hr>
          </ns3:TrackPointExtension>
        </extensions>
      </trkpt>
      <trkpt lat="-22.00778849422931671142578125" lon="166.453452073037624359130859375">
        <ele>935.5999755859375</ele>
        <time>2016-08-12T20:19:39.000Z</time>
        <extensions>
          <ns3:TrackPointExtension>
            <ns3:atemp>14.0</ns3:atemp>
            <ns3:hr>137</ns3:hr>
          </ns3:TrackPointExtension>
        </extensions>
      </trkpt>
      <trkpt lat="-22.00778472237288951873779296875" lon="166.45346741192042827606201171875">
        <ele>936</ele>
        <time>2016-08-12T20:19:40.000Z</time>
        <extensions>
          <ns3:TrackPointExtension>
            <ns3:atemp>14.0</ns3:atemp>
            <ns3:hr>136</ns3:hr>
          </ns3:TrackPointExtension>
        </extensions>
      </trkpt>
      <trkpt lat="-22.00778254307806491851806640625" lon="166.4534827508032321929931640625">
        <ele>936.20001220703125</ele>
        <time>2016-08-12T20:19:41.000Z</time>
        <extensions>
          <ns3:TrackPointExtension>
            <ns3:atemp>14.0</ns3:atemp>
            <ns3:hr>137</ns3:hr>
          </ns3:TrackPointExtension>
        </extensions>
      </trkpt>
      <trkpt lat="-22.00778053142130374908447265625" lon="166.45349867641925811767578125">
        <ele>936.4000244140625</ele>
        <time>2016-08-12T20:19:42.000Z</time>
        <extensions>
          <ns3:TrackPointExtension>
            <ns3:atemp>14.0</ns3:atemp>
            <ns3:hr>137</ns3:hr>
          </ns3:TrackPointExtension>
        </extensions>
      </trkpt>
      <trkpt lat="-22.0077789388597011566162109375" lon="166.45351435057818889617919921875">
        <ele>936.5999755859375</ele>
        <time>2016-08-12T20:19:43.000Z</time>
        <extensions>
          <ns3:TrackPointExtension>
            <ns3:atemp>14.0</ns3:atemp>
            <ns3:hr>137</ns3:hr>
          </ns3:TrackPointExtension>
        </extensions>
      </trkpt>
      <trkpt lat="-22.00777776539325714111328125" lon="166.45353086292743682861328125">
        <ele>937</ele>
        <time>2016-08-12T20:19:44.000Z</time>
        <extensions>
          <ns3:TrackPointExtension>
            <ns3:atemp>14.0</ns3:atemp>
            <ns3:hr>137</ns3:hr>
          </ns3:TrackPointExtension>
        </extensions>
      </trkpt>
      <trkpt lat="-22.00777516700327396392822265625" lon="166.45354603417217731475830078125">
        <ele>937</ele>
        <time>2016-08-12T20:19:45.000Z</time>
        <extensions>
          <ns3:TrackPointExtension>
            <ns3:atemp>14.0</ns3:atemp>
            <ns3:hr>137</ns3:hr>
          </ns3:TrackPointExtension>
        </extensions>
      </trkpt>
      <trkpt lat="-22.0077708922326564788818359375" lon="166.45356128923594951629638671875">
        <ele>937.20001220703125</ele>
        <time>2016-08-12T20:19:46.000Z</time>
        <extensions>
          <ns3:TrackPointExtension>
            <ns3:atemp>14.0</ns3:atemp>
            <ns3:hr>137</ns3:hr>
          </ns3:TrackPointExtension>
        </extensions>
      </trkpt>
      <trkpt lat="-22.0077668689191341400146484375" lon="166.45357377827167510986328125">
        <ele>937.4000244140625</ele>
        <time>2016-08-12T20:19:47.000Z</time>
        <extensions>
          <ns3:TrackPointExtension>
            <ns3:atemp>14.0</ns3:atemp>
            <ns3:hr>137</ns3:hr>
          </ns3:TrackPointExtension>
        </extensions>
      </trkpt>
      <trkpt lat="-22.00776527635753154754638671875" lon="166.45358811132609844207763671875">
        <ele>937.5999755859375</ele>
        <time>2016-08-12T20:19:48.000Z</time>
        <extensions>
          <ns3:TrackPointExtension>
            <ns3:atemp>14.0</ns3:atemp>
            <ns3:hr>137</ns3:hr>
          </ns3:TrackPointExtension>
        </extensions>
      </trkpt>
      <trkpt lat="-22.0077661983668804168701171875" lon="166.4536027796566486358642578125">
        <ele>937.79998779296875</ele>
        <time>2016-08-12T20:19:49.000Z</time>
        <extensions>
          <ns3:TrackPointExtension>
            <ns3:atemp>14.0</ns3:atemp>
            <ns3:hr>137</ns3:hr>
          </ns3:TrackPointExtension>
        </extensions>
      </trkpt>
      <trkpt lat="-22.007770054042339324951171875" lon="166.453617028892040252685546875">
        <ele>937.79998779296875</ele>
        <time>2016-08-12T20:19:50.000Z</time>
        <extensions>
          <ns3:TrackPointExtension>
            <ns3:atemp>14.0</ns3:atemp>
            <ns3:hr>138</ns3:hr>
          </ns3:TrackPointExtension>
        </extensions>
      </trkpt>
      <trkpt lat="-22.0077725686132907867431640625" lon="166.45363169722259044647216796875">
        <ele>938</ele>
        <time>2016-08-12T20:19:51.000Z</time>
        <extensions>
          <ns3:TrackPointExtension>
            <ns3:atemp>14.0</ns3:atemp>
            <ns3:hr>137</ns3:hr>
          </ns3:TrackPointExtension>
        </extensions>
      </trkpt>
      <trkpt lat="-22.00777315534651279449462890625" lon="166.45364460535347461700439453125">
        <ele>938.20001220703125</ele>
        <time>2016-08-12T20:19:52.000Z</time>
        <extensions>
          <ns3:TrackPointExtension>
            <ns3:atemp>14.0</ns3:atemp>
            <ns3:hr>137</ns3:hr>
          </ns3:TrackPointExtension>
        </extensions>
      </trkpt>
      <trkpt lat="-22.00777298770844936370849609375" lon="166.45365684293210506439208984375">
        <ele>938.20001220703125</ele>
        <time>2016-08-12T20:19:53.000Z</time>
        <extensions>
          <ns3:TrackPointExtension>
            <ns3:atemp>14.0</ns3:atemp>
            <ns3:hr>137</ns3:hr>
          </ns3:TrackPointExtension>
        </extensions>
      </trkpt>
      <trkpt lat="-22.00777315534651279449462890625" lon="166.4536711759865283966064453125">
        <ele>938.20001220703125</ele>
        <time>2016-08-12T20:19:54.000Z</time>
        <extensions>
          <ns3:TrackPointExtension>
            <ns3:atemp>14.0</ns3:atemp>
            <ns3:hr>138</ns3:hr>
          </ns3:TrackPointExtension>
        </extensions>
      </trkpt>
      <trkpt lat="-22.0077730715274810791015625" lon="166.45368416793644428253173828125">
        <ele>938.4000244140625</ele>
        <time>2016-08-12T20:19:55.000Z</time>
        <extensions>
          <ns3:TrackPointExtension>
            <ns3:atemp>14.0</ns3:atemp>
            <ns3:hr>137</ns3:hr>
          </ns3:TrackPointExtension>
        </extensions>
      </trkpt>
      <trkpt lat="-22.00777248479425907135009765625" lon="166.45369623787701129913330078125">
        <ele>938.5999755859375</ele>
        <time>2016-08-12T20:19:56.000Z</time>
        <extensions>
          <ns3:TrackPointExtension>
            <ns3:atemp>14.0</ns3:atemp>
            <ns3:hr>137</ns3:hr>
          </ns3:TrackPointExtension>
        </extensions>
      </trkpt>
      <trkpt lat="-22.007774077355861663818359375" lon="166.45370797254145145416259765625">
        <ele>938.79998779296875</ele>
        <time>2016-08-12T20:19:57.000Z</time>
        <extensions>
          <ns3:TrackPointExtension>
            <ns3:atemp>14.0</ns3:atemp>
            <ns3:hr>137</ns3:hr>
          </ns3:TrackPointExtension>
        </extensions>
      </trkpt>
      <trkpt lat="-22.0077784359455108642578125" lon="166.45372104831039905548095703125">
        <ele>939</ele>
        <time>2016-08-12T20:19:58.000Z</time>
        <extensions>
          <ns3:TrackPointExtension>
            <ns3:atemp>14.0</ns3:atemp>
            <ns3:hr>137</ns3:hr>
          </ns3:TrackPointExtension>
        </extensions>
      </trkpt>
      <trkpt lat="-22.0077839680016040802001953125" lon="166.45373378880321979522705078125">
        <ele>939</ele>
        <time>2016-08-12T20:19:59.000Z</time>
        <extensions>
          <ns3:TrackPointExtension>
            <ns3:atemp>14.0</ns3:atemp>
            <ns3:hr>137</ns3:hr>
          </ns3:TrackPointExtension>
        </extensions>
      </trkpt>
      <trkpt lat="-22.0077896676957607269287109375" lon="166.45374543964862823486328125">
        <ele>939.20001220703125</ele>
        <time>2016-08-12T20:20:00.000Z</time>
        <extensions>
          <ns3:TrackPointExtension>
            <ns3:atemp>14.0</ns3:atemp>
            <ns3:hr>136</ns3:hr>
          </ns3:TrackPointExtension>
        </extensions>
      </trkpt>
      <trkpt lat="-22.0077936910092830657958984375" lon="166.45375658757984638214111328125">
        <ele>939.4000244140625</ele>
        <time>2016-08-12T20:20:01.000Z</time>
        <extensions>
          <ns3:TrackPointExtension>
            <ns3:atemp>14.0</ns3:atemp>
            <ns3:hr>136</ns3:hr>
          </ns3:TrackPointExtension>
        </extensions>
      </trkpt>
      <trkpt lat="-22.00779461301863193511962890625" lon="166.453768908977508544921875">
        <ele>939.5999755859375</ele>
        <time>2016-08-12T20:20:02.000Z</time>
        <extensions>
          <ns3:TrackPointExtension>
            <ns3:atemp>14.0</ns3:atemp>
            <ns3:hr>136</ns3:hr>
          </ns3:TrackPointExtension>
        </extensions>
      </trkpt>
      <trkpt lat="-22.00779411010444164276123046875" lon="166.45377888344228267669677734375">
        <ele>939.79998779296875</ele>
        <time>2016-08-12T20:20:03.000Z</time>
        <extensions>
          <ns3:TrackPointExtension>
            <ns3:atemp>14.0</ns3:atemp>
            <ns3:hr>137</ns3:hr>
          </ns3:TrackPointExtension>
        </extensions>
      </trkpt>
      <trkpt lat="-22.00779025442898273468017578125" lon="166.45379363559186458587646484375">
        <ele>940</ele>
        <time>2016-08-12T20:20:04.000Z</time>
        <extensions>
          <ns3:TrackPointExtension>
            <ns3:atemp>14.0</ns3:atemp>
            <ns3:hr>136</ns3:hr>
          </ns3:TrackPointExtension>
        </extensions>
      </trkpt>
      <trkpt lat="-22.0077876560389995574951171875" lon="166.45380939356982707977294921875">
        <ele>940.20001220703125</ele>
        <time>2016-08-12T20:20:05.000Z</time>
        <extensions>
          <ns3:TrackPointExtension>
            <ns3:atemp>14.0</ns3:atemp>
            <ns3:hr>136</ns3:hr>
          </ns3:TrackPointExtension>
        </extensions>
      </trkpt>
      <trkpt lat="-22.00778639875352382659912109375" lon="166.45382565446197986602783203125">
        <ele>940.4000244140625</ele>
        <time>2016-08-12T20:20:06.000Z</time>
        <extensions>
          <ns3:TrackPointExtension>
            <ns3:atemp>14.0</ns3:atemp>
            <ns3:hr>137</ns3:hr>
          </ns3:TrackPointExtension>
        </extensions>
      </trkpt>
      <trkpt lat="-22.0077869854867458343505859375" lon="166.45384124480187892913818359375">
        <ele>940.4000244140625</ele>
        <time>2016-08-12T20:20:07.000Z</time>
        <extensions>
          <ns3:TrackPointExtension>
            <ns3:atemp>14.0</ns3:atemp>
            <ns3:hr>137</ns3:hr>
          </ns3:TrackPointExtension>
        </extensions>
      </trkpt>
      <trkpt lat="-22.00778924860060214996337890625" lon="166.45385666750371456146240234375">
        <ele>940.5999755859375</ele>
        <time>2016-08-12T20:20:08.000Z</time>
        <extensions>
          <ns3:TrackPointExtension>
            <ns3:atemp>14.0</ns3:atemp>
            <ns3:hr>137</ns3:hr>
          </ns3:TrackPointExtension>
        </extensions>
      </trkpt>
      <trkpt lat="-22.00779444538056850433349609375" lon="166.4538713358342647552490234375">
        <ele>940.79998779296875</ele>
        <time>2016-08-12T20:20:09.000Z</time>
        <extensions>
          <ns3:TrackPointExtension>
            <ns3:atemp>14.0</ns3:atemp>
            <ns3:hr>137</ns3:hr>
          </ns3:TrackPointExtension>
        </extensions>
      </trkpt>
      <trkpt lat="-22.00780190527439117431640625" lon="166.45388533361256122589111328125">
        <ele>941</ele>
        <time>2016-08-12T20:20:10.000Z</time>
        <extensions>
          <ns3:TrackPointExtension>
            <ns3:atemp>14.0</ns3:atemp>
            <ns3:hr>136</ns3:hr>
          </ns3:TrackPointExtension>
        </extensions>
      </trkpt>
      <trkpt lat="-22.007808946073055267333984375" lon="166.4538974873721599578857421875">
        <ele>941.20001220703125</ele>
        <time>2016-08-12T20:20:11.000Z</time>
        <extensions>
          <ns3:TrackPointExtension>
            <ns3:atemp>14.0</ns3:atemp>
            <ns3:hr>137</ns3:hr>
          </ns3:TrackPointExtension>
        </extensions>
      </trkpt>
      <trkpt lat="-22.0078146457672119140625" lon="166.4539102278649806976318359375">
        <ele>941.4000244140625</ele>
        <time>2016-08-12T20:20:12.000Z</time>
        <extensions>
          <ns3:TrackPointExtension>
            <ns3:atemp>14.0</ns3:atemp>
            <ns3:hr>137</ns3:hr>
          </ns3:TrackPointExtension>
        </extensions>
      </trkpt>
      <trkpt lat="-22.0078188367187976837158203125" lon="166.45392405800521373748779296875">
        <ele>941.5999755859375</ele>
        <time>2016-08-12T20:20:13.000Z</time>
        <extensions>
          <ns3:TrackPointExtension>
            <ns3:atemp>14.0</ns3:atemp>
            <ns3:hr>136</ns3:hr>
          </ns3:TrackPointExtension>
        </extensions>
      </trkpt>
      <trkpt lat="-22.007821016013622283935546875" lon="166.4539360441267490386962890625">
        <ele>941.79998779296875</ele>
        <time>2016-08-12T20:20:14.000Z</time>
        <extensions>
          <ns3:TrackPointExtension>
            <ns3:atemp>14.0</ns3:atemp>
            <ns3:hr>136</ns3:hr>
          </ns3:TrackPointExtension>
        </extensions>
      </trkpt>
      <trkpt lat="-22.00782604515552520751953125" lon="166.453945599496364593505859375">
        <ele>942</ele>
        <time>2016-08-12T20:20:15.000Z</time>
        <extensions>
          <ns3:TrackPointExtension>
            <ns3:atemp>14.0</ns3:atemp>
            <ns3:hr>136</ns3:hr>
          </ns3:TrackPointExtension>
        </extensions>
      </trkpt>
      <trkpt lat="-22.00783149339258670806884765625" lon="166.4539578370749950408935546875">
        <ele>942.20001220703125</ele>
        <time>2016-08-12T20:20:16.000Z</time>
        <extensions>
          <ns3:TrackPointExtension>
            <ns3:atemp>14.0</ns3:atemp>
            <ns3:hr>136</ns3:hr>
          </ns3:TrackPointExtension>
        </extensions>
      </trkpt>
      <trkpt lat="-22.00784037820994853973388671875" lon="166.4539705775678157806396484375">
        <ele>942.4000244140625</ele>
        <time>2016-08-12T20:20:17.000Z</time>
        <extensions>
          <ns3:TrackPointExtension>
            <ns3:atemp>14.0</ns3:atemp>
            <ns3:hr>136</ns3:hr>
          </ns3:TrackPointExtension>
        </extensions>
      </trkpt>
      <trkpt lat="-22.00784892775118350982666015625" lon="166.45398071967065334320068359375">
        <ele>942.5999755859375</ele>
        <time>2016-08-12T20:20:18.000Z</time>
        <extensions>
          <ns3:TrackPointExtension>
            <ns3:atemp>14.0</ns3:atemp>
            <ns3:hr>136</ns3:hr>
          </ns3:TrackPointExtension>
        </extensions>
      </trkpt>
      <trkpt lat="-22.00785496272146701812744140625" lon="166.45399111323058605194091796875">
        <ele>942.5999755859375</ele>
        <time>2016-08-12T20:20:19.000Z</time>
        <extensions>
          <ns3:TrackPointExtension>
            <ns3:atemp>14.0</ns3:atemp>
            <ns3:hr>136</ns3:hr>
          </ns3:TrackPointExtension>
        </extensions>
      </trkpt>
      <trkpt lat="-22.00786351226270198822021484375" lon="166.45400293171405792236328125">
        <ele>942.79998779296875</ele>
        <time>2016-08-12T20:20:20.000Z</time>
        <extensions>
          <ns3:TrackPointExtension>
            <ns3:atemp>14.0</ns3:atemp>
            <ns3:hr>136</ns3:hr>
          </ns3:TrackPointExtension>
        </extensions>
      </trkpt>
      <trkpt lat="-22.0078711397945880889892578125" lon="166.45401709713041782379150390625">
        <ele>943.20001220703125</ele>
        <time>2016-08-12T20:20:21.000Z</time>
        <extensions>
          <ns3:TrackPointExtension>
            <ns3:atemp>14.0</ns3:atemp>
            <ns3:hr>136</ns3:hr>
          </ns3:TrackPointExtension>
        </extensions>
      </trkpt>
      <trkpt lat="-22.00787700712680816650390625" lon="166.45403050817549228668212890625">
        <ele>943.20001220703125</ele>
        <time>2016-08-12T20:20:22.000Z</time>
        <extensions>
          <ns3:TrackPointExtension>
            <ns3:atemp>14.0</ns3:atemp>
            <ns3:hr>136</ns3:hr>
          </ns3:TrackPointExtension>
        </extensions>
      </trkpt>
      <trkpt lat="-22.0078815333545207977294921875" lon="166.4540446735918521881103515625">
        <ele>943.4000244140625</ele>
        <time>2016-08-12T20:20:23.000Z</time>
        <extensions>
          <ns3:TrackPointExtension>
            <ns3:atemp>14.0</ns3:atemp>
            <ns3:hr>136</ns3:hr>
          </ns3:TrackPointExtension>
        </extensions>
      </trkpt>
      <trkpt lat="-22.00788329355418682098388671875" lon="166.45406051538884639739990234375">
        <ele>943.5999755859375</ele>
        <time>2016-08-12T20:20:24.000Z</time>
        <extensions>
          <ns3:TrackPointExtension>
            <ns3:atemp>14.0</ns3:atemp>
            <ns3:hr>136</ns3:hr>
          </ns3:TrackPointExtension>
        </extensions>
      </trkpt>
      <trkpt lat="-22.00788103044033050537109375" lon="166.45407761447131633758544921875">
        <ele>943.79998779296875</ele>
        <time>2016-08-12T20:20:25.000Z</time>
        <extensions>
          <ns3:TrackPointExtension>
            <ns3:atemp>14.0</ns3:atemp>
            <ns3:hr>136</ns3:hr>
          </ns3:TrackPointExtension>
        </extensions>
      </trkpt>
      <trkpt lat="-22.00787725858390331268310546875" lon="166.4540959708392620086669921875">
        <ele>943.79998779296875</ele>
        <time>2016-08-12T20:20:26.000Z</time>
        <extensions>
          <ns3:TrackPointExtension>
            <ns3:atemp>14.0</ns3:atemp>
            <ns3:hr>135</ns3:hr>
          </ns3:TrackPointExtension>
        </extensions>
      </trkpt>
      <trkpt lat="-22.00787566602230072021484375" lon="166.454113237559795379638671875">
        <ele>944</ele>
        <time>2016-08-12T20:20:27.000Z</time>
        <extensions>
          <ns3:TrackPointExtension>
            <ns3:atemp>14.0</ns3:atemp>
            <ns3:hr>135</ns3:hr>
          </ns3:TrackPointExtension>
        </extensions>
      </trkpt>
      <trkpt lat="-22.0078751631081104278564453125" lon="166.4541298337280750274658203125">
        <ele>944.20001220703125</ele>
        <time>2016-08-12T20:20:28.000Z</time>
        <extensions>
          <ns3:TrackPointExtension>
            <ns3:atemp>14.0</ns3:atemp>
            <ns3:hr>135</ns3:hr>
          </ns3:TrackPointExtension>
        </extensions>
      </trkpt>
      <trkpt lat="-22.00787709094583988189697265625" lon="166.45414550788700580596923828125">
        <ele>944.4000244140625</ele>
        <time>2016-08-12T20:20:29.000Z</time>
        <extensions>
          <ns3:TrackPointExtension>
            <ns3:atemp>14.0</ns3:atemp>
            <ns3:hr>135</ns3:hr>
          </ns3:TrackPointExtension>
        </extensions>
      </trkpt>
      <trkpt lat="-22.0078805275261402130126953125" lon="166.4541616849601268768310546875">
        <ele>944.4000244140625</ele>
        <time>2016-08-12T20:20:30.000Z</time>
        <extensions>
          <ns3:TrackPointExtension>
            <ns3:atemp>14.0</ns3:atemp>
            <ns3:hr>135</ns3:hr>
          </ns3:TrackPointExtension>
        </extensions>
      </trkpt>
      <trkpt lat="-22.00788329355418682098388671875" lon="166.454176940023899078369140625">
        <ele>944.5999755859375</ele>
        <time>2016-08-12T20:20:31.000Z</time>
        <extensions>
          <ns3:TrackPointExtension>
            <ns3:atemp>14.0</ns3:atemp>
            <ns3:hr>135</ns3:hr>
          </ns3:TrackPointExtension>
        </extensions>
      </trkpt>
      <trkpt lat="-22.0078852213919162750244140625" lon="166.4541905187070369720458984375">
        <ele>944.79998779296875</ele>
        <time>2016-08-12T20:20:32.000Z</time>
        <extensions>
          <ns3:TrackPointExtension>
            <ns3:atemp>14.0</ns3:atemp>
            <ns3:hr>135</ns3:hr>
          </ns3:TrackPointExtension>
        </extensions>
      </trkpt>
      <trkpt lat="-22.00788748450577259063720703125" lon="166.4542039297521114349365234375">
        <ele>945</ele>
        <time>2016-08-12T20:20:33.000Z</time>
        <extensions>
          <ns3:TrackPointExtension>
            <ns3:atemp>14.0</ns3:atemp>
            <ns3:hr>135</ns3:hr>
          </ns3:TrackPointExtension>
        </extensions>
      </trkpt>
      <trkpt lat="-22.00788966380059719085693359375" lon="166.45421742461621761322021484375">
        <ele>945.20001220703125</ele>
        <time>2016-08-12T20:20:34.000Z</time>
        <extensions>
          <ns3:TrackPointExtension>
            <ns3:atemp>14.0</ns3:atemp>
            <ns3:hr>135</ns3:hr>
          </ns3:TrackPointExtension>
        </extensions>
      </trkpt>
      <trkpt lat="-22.00789175927639007568359375" lon="166.45423066802322864532470703125">
        <ele>945.4000244140625</ele>
        <time>2016-08-12T20:20:35.000Z</time>
        <extensions>
          <ns3:TrackPointExtension>
            <ns3:atemp>14.0</ns3:atemp>
            <ns3:hr>135</ns3:hr>
          </ns3:TrackPointExtension>
        </extensions>
      </trkpt>
      <trkpt lat="-22.0078910887241363525390625" lon="166.4542423188686370849609375">
        <ele>945.5999755859375</ele>
        <time>2016-08-12T20:20:36.000Z</time>
        <extensions>
          <ns3:TrackPointExtension>
            <ns3:atemp>14.0</ns3:atemp>
            <ns3:hr>135</ns3:hr>
          </ns3:TrackPointExtension>
        </extensions>
      </trkpt>
      <trkpt lat="-22.00788882561028003692626953125" lon="166.45425413735210895538330078125">
        <ele>945.79998779296875</ele>
        <time>2016-08-12T20:20:37.000Z</time>
        <extensions>
          <ns3:TrackPointExtension>
            <ns3:atemp>14.0</ns3:atemp>
            <ns3:hr>135</ns3:hr>
          </ns3:TrackPointExtension>
        </extensions>
      </trkpt>
      <trkpt lat="-22.007888071238994598388671875" lon="166.45426553674042224884033203125">
        <ele>946</ele>
        <time>2016-08-12T20:20:38.000Z</time>
        <extensions>
          <ns3:TrackPointExtension>
            <ns3:atemp>14.0</ns3:atemp>
            <ns3:hr>136</ns3:hr>
          </ns3:TrackPointExtension>
        </extensions>
      </trkpt>
      <trkpt lat="-22.00788295827805995941162109375" lon="166.45427651703357696533203125">
        <ele>946.4000244140625</ele>
        <time>2016-08-12T20:20:39.000Z</time>
        <extensions>
          <ns3:TrackPointExtension>
            <ns3:atemp>14.0</ns3:atemp>
            <ns3:hr>135</ns3:hr>
          </ns3:TrackPointExtension>
        </extensions>
      </trkpt>
      <trkpt lat="-22.00787876732647418975830078125" lon="166.4542864076793193817138671875">
        <ele>946.5999755859375</ele>
        <time>2016-08-12T20:20:40.000Z</time>
        <extensions>
          <ns3:TrackPointExtension>
            <ns3:atemp>14.0</ns3:atemp>
            <ns3:hr>135</ns3:hr>
          </ns3:TrackPointExtension>
        </extensions>
      </trkpt>
      <trkpt lat="-22.00787256471812725067138671875" lon="166.45429956726729869842529296875">
        <ele>946.79998779296875</ele>
        <time>2016-08-12T20:20:41.000Z</time>
        <extensions>
          <ns3:TrackPointExtension>
            <ns3:atemp>14.0</ns3:atemp>
            <ns3:hr>135</ns3:hr>
          </ns3:TrackPointExtension>
        </extensions>
      </trkpt>
      <trkpt lat="-22.007867954671382904052734375" lon="166.45431666634976863861083984375">
        <ele>947</ele>
        <time>2016-08-12T20:20:42.000Z</time>
        <extensions>
          <ns3:TrackPointExtension>
            <ns3:atemp>14.0</ns3:atemp>
            <ns3:hr>135</ns3:hr>
          </ns3:TrackPointExtension>
        </extensions>
      </trkpt>
      <trkpt lat="-22.00786720030009746551513671875" lon="166.45433359779417514801025390625">
        <ele>947</ele>
        <time>2016-08-12T20:20:43.000Z</time>
        <extensions>
          <ns3:TrackPointExtension>
            <ns3:atemp>14.0</ns3:atemp>
            <ns3:hr>135</ns3:hr>
          </ns3:TrackPointExtension>
        </extensions>
      </trkpt>
      <trkpt lat="-22.00787030160427093505859375" lon="166.45434893667697906494140625">
        <ele>947.20001220703125</ele>
        <time>2016-08-12T20:20:44.000Z</time>
        <extensions>
          <ns3:TrackPointExtension>
            <ns3:atemp>14.0</ns3:atemp>
            <ns3:hr>136</ns3:hr>
          </ns3:TrackPointExtension>
        </extensions>
      </trkpt>
      <trkpt lat="-22.007870636880397796630859375" lon="166.45436234772205352783203125">
        <ele>947.4000244140625</ele>
        <time>2016-08-12T20:20:45.000Z</time>
        <extensions>
          <ns3:TrackPointExtension>
            <ns3:atemp>14.0</ns3:atemp>
            <ns3:hr>136</ns3:hr>
          </ns3:TrackPointExtension>
        </extensions>
      </trkpt>
      <trkpt lat="-22.00786937959492206573486328125" lon="166.45437148399651050567626953125">
        <ele>947.5999755859375</ele>
        <time>2016-08-12T20:20:46.000Z</time>
        <extensions>
          <ns3:TrackPointExtension>
            <ns3:atemp>14.0</ns3:atemp>
            <ns3:hr>136</ns3:hr>
          </ns3:TrackPointExtension>
        </extensions>
      </trkpt>
      <trkpt lat="-22.00786535628139972686767578125" lon="166.45438355393707752227783203125">
        <ele>947.79998779296875</ele>
        <time>2016-08-12T20:20:47.000Z</time>
        <extensions>
          <ns3:TrackPointExtension>
            <ns3:atemp>14.0</ns3:atemp>
            <ns3:hr>136</ns3:hr>
          </ns3:TrackPointExtension>
        </extensions>
      </trkpt>
      <trkpt lat="-22.00786015950143337249755859375" lon="166.45439746789634227752685546875">
        <ele>948</ele>
        <time>2016-08-12T20:20:48.000Z</time>
        <extensions>
          <ns3:TrackPointExtension>
            <ns3:atemp>14.0</ns3:atemp>
            <ns3:hr>136</ns3:hr>
          </ns3:TrackPointExtension>
        </extensions>
      </trkpt>
      <trkpt lat="-22.00785144232213497161865234375" lon="166.4544084481894969940185546875">
        <ele>948.4000244140625</ele>
        <time>2016-08-12T20:20:49.000Z</time>
        <extensions>
          <ns3:TrackPointExtension>
            <ns3:atemp>14.0</ns3:atemp>
            <ns3:hr>136</ns3:hr>
          </ns3:TrackPointExtension>
        </extensions>
      </trkpt>
      <trkpt lat="-22.00784406624734401702880859375" lon="166.45442001521587371826171875">
        <ele>948.4000244140625</ele>
        <time>2016-08-12T20:20:50.000Z</time>
        <extensions>
          <ns3:TrackPointExtension>
            <ns3:atemp>14.0</ns3:atemp>
            <ns3:hr>136</ns3:hr>
          </ns3:TrackPointExtension>
        </extensions>
      </trkpt>
      <trkpt lat="-22.00783635489642620086669921875" lon="166.45443208515644073486328125">
        <ele>948.5999755859375</ele>
        <time>2016-08-12T20:20:51.000Z</time>
        <extensions>
          <ns3:TrackPointExtension>
            <ns3:atemp>14.0</ns3:atemp>
            <ns3:hr>136</ns3:hr>
          </ns3:TrackPointExtension>
        </extensions>
      </trkpt>
      <trkpt lat="-22.00782797299325466156005859375" lon="166.45444440655410289764404296875">
        <ele>948.79998779296875</ele>
        <time>2016-08-12T20:20:52.000Z</time>
        <extensions>
          <ns3:TrackPointExtension>
            <ns3:atemp>14.0</ns3:atemp>
            <ns3:hr>136</ns3:hr>
          </ns3:TrackPointExtension>
        </extensions>
      </trkpt>
      <trkpt lat="-22.0078213512897491455078125" lon="166.454453878104686737060546875">
        <ele>948.79998779296875</ele>
        <time>2016-08-12T20:20:53.000Z</time>
        <extensions>
          <ns3:TrackPointExtension>
            <ns3:atemp>14.0</ns3:atemp>
            <ns3:hr>137</ns3:hr>
          </ns3:TrackPointExtension>
        </extensions>
      </trkpt>
      <trkpt lat="-22.00781120918691158294677734375" lon="166.45446653477847576141357421875">
        <ele>949.20001220703125</ele>
        <time>2016-08-12T20:20:54.000Z</time>
        <extensions>
          <ns3:TrackPointExtension>
            <ns3:atemp>14.0</ns3:atemp>
            <ns3:hr>137</ns3:hr>
          </ns3:TrackPointExtension>
        </extensions>
      </trkpt>
      <trkpt lat="-22.00779830105602741241455078125" lon="166.45448380149900913238525390625">
        <ele>949.4000244140625</ele>
        <time>2016-08-12T20:20:55.000Z</time>
        <extensions>
          <ns3:TrackPointExtension>
            <ns3:atemp>14.0</ns3:atemp>
            <ns3:hr>137</ns3:hr>
          </ns3:TrackPointExtension>
        </extensions>
      </trkpt>
      <trkpt lat="-22.00778539292514324188232421875" lon="166.45449939183890819549560546875">
        <ele>949.5999755859375</ele>
        <time>2016-08-12T20:20:56.000Z</time>
        <extensions>
          <ns3:TrackPointExtension>
            <ns3:atemp>14.0</ns3:atemp>
            <ns3:hr>137</ns3:hr>
          </ns3:TrackPointExtension>
        </extensions>
      </trkpt>
      <trkpt lat="-22.00777064077556133270263671875" lon="166.45451347343623638153076171875">
        <ele>949.79998779296875</ele>
        <time>2016-08-12T20:20:57.000Z</time>
        <extensions>
          <ns3:TrackPointExtension>
            <ns3:atemp>14.0</ns3:atemp>
            <ns3:hr>137</ns3:hr>
          </ns3:TrackPointExtension>
        </extensions>
      </trkpt>
      <trkpt lat="-22.00775471515953540802001953125" lon="166.4545264653861522674560546875">
        <ele>950</ele>
        <time>2016-08-12T20:20:58.000Z</time>
        <extensions>
          <ns3:TrackPointExtension>
            <ns3:atemp>14.0</ns3:atemp>
            <ns3:hr>138</ns3:hr>
          </ns3:TrackPointExtension>
        </extensions>
      </trkpt>
      <trkpt lat="-22.00773887336254119873046875" lon="166.45453778095543384552001953125">
        <ele>950</ele>
        <time>2016-08-12T20:20:59.000Z</time>
        <extensions>
          <ns3:TrackPointExtension>
            <ns3:atemp>14.0</ns3:atemp>
            <ns3:hr>138</ns3:hr>
          </ns3:TrackPointExtension>
        </extensions>
      </trkpt>
      <trkpt lat="-22.00772001408040523529052734375" lon="166.45454700104892253875732421875">
        <ele>950.20001220703125</ele>
        <time>2016-08-12T20:21:00.000Z</time>
        <extensions>
          <ns3:TrackPointExtension>
            <ns3:atemp>14.0</ns3:atemp>
            <ns3:hr>138</ns3:hr>
          </ns3:TrackPointExtension>
        </extensions>
      </trkpt>
      <trkpt lat="-22.00770241208374500274658203125" lon="166.45455814898014068603515625">
        <ele>950.79998779296875</ele>
        <time>2016-08-12T20:21:01.000Z</time>
        <extensions>
          <ns3:TrackPointExtension>
            <ns3:atemp>14.0</ns3:atemp>
            <ns3:hr>138</ns3:hr>
          </ns3:TrackPointExtension>
        </extensions>
      </trkpt>
      <trkpt lat="-22.0076887495815753936767578125" lon="166.4545695483684539794921875">
        <ele>950.79998779296875</ele>
        <time>2016-08-12T20:21:02.000Z</time>
        <extensions>
          <ns3:TrackPointExtension>
            <ns3:atemp>14.0</ns3:atemp>
            <ns3:hr>138</ns3:hr>
          </ns3:TrackPointExtension>
        </extensions>
      </trkpt>
      <trkpt lat="-22.00767391361296176910400390625" lon="166.45458254031836986541748046875">
        <ele>950.79998779296875</ele>
        <time>2016-08-12T20:21:03.000Z</time>
        <extensions>
          <ns3:TrackPointExtension>
            <ns3:atemp>14.0</ns3:atemp>
            <ns3:hr>139</ns3:hr>
          </ns3:TrackPointExtension>
        </extensions>
      </trkpt>
      <trkpt lat="-22.0076572336256504058837890625" lon="166.4545968733727931976318359375">
        <ele>951.20001220703125</ele>
        <time>2016-08-12T20:21:04.000Z</time>
        <extensions>
          <ns3:TrackPointExtension>
            <ns3:atemp>14.0</ns3:atemp>
            <ns3:hr>139</ns3:hr>
          </ns3:TrackPointExtension>
        </extensions>
      </trkpt>
      <trkpt lat="-22.0076414756476879119873046875" lon="166.4546102844178676605224609375">
        <ele>951.20001220703125</ele>
        <time>2016-08-12T20:21:05.000Z</time>
        <extensions>
          <ns3:TrackPointExtension>
            <ns3:atemp>14.0</ns3:atemp>
            <ns3:hr>139</ns3:hr>
          </ns3:TrackPointExtension>
        </extensions>
      </trkpt>
      <trkpt lat="-22.00762362219393253326416015625" lon="166.4546200074255466461181640625">
        <ele>951.20001220703125</ele>
        <time>2016-08-12T20:21:06.000Z</time>
        <extensions>
          <ns3:TrackPointExtension>
            <ns3:atemp>14.0</ns3:atemp>
            <ns3:hr>139</ns3:hr>
          </ns3:TrackPointExtension>
        </extensions>
      </trkpt>
      <trkpt lat="-22.00760551728308200836181640625" lon="166.4546297304332256317138671875">
        <ele>951.4000244140625</ele>
        <time>2016-08-12T20:21:07.000Z</time>
        <extensions>
          <ns3:TrackPointExtension>
            <ns3:atemp>14.0</ns3:atemp>
            <ns3:hr>140</ns3:hr>
          </ns3:TrackPointExtension>
        </extensions>
      </trkpt>
      <trkpt lat="-22.007585652172565460205078125" lon="166.454639621078968048095703125">
        <ele>951.79998779296875</ele>
        <time>2016-08-12T20:21:08.000Z</time>
        <extensions>
          <ns3:TrackPointExtension>
            <ns3:atemp>14.0</ns3:atemp>
            <ns3:hr>140</ns3:hr>
          </ns3:TrackPointExtension>
        </extensions>
      </trkpt>
      <trkpt lat="-22.0075646974146366119384765625" lon="166.4546501822769641876220703125">
        <ele>952</ele>
        <time>2016-08-12T20:21:09.000Z</time>
        <extensions>
          <ns3:TrackPointExtension>
            <ns3:atemp>14.0</ns3:atemp>
            <ns3:hr>140</ns3:hr>
          </ns3:TrackPointExtension>
        </extensions>
      </trkpt>
      <trkpt lat="-22.0075449161231517791748046875" lon="166.45465864799916744232177734375">
        <ele>951.79998779296875</ele>
        <time>2016-08-12T20:21:10.000Z</time>
        <extensions>
          <ns3:TrackPointExtension>
            <ns3:atemp>14.0</ns3:atemp>
            <ns3:hr>140</ns3:hr>
          </ns3:TrackPointExtension>
        </extensions>
      </trkpt>
      <trkpt lat="-22.00752287171781063079833984375" lon="166.45466552115976810455322265625">
        <ele>952</ele>
        <time>2016-08-12T20:21:11.000Z</time>
        <extensions>
          <ns3:TrackPointExtension>
            <ns3:atemp>14.0</ns3:atemp>
            <ns3:hr>140</ns3:hr>
          </ns3:TrackPointExtension>
        </extensions>
      </trkpt>
      <trkpt lat="-22.0075033418834209442138671875" lon="166.454672478139400482177734375">
        <ele>952.4000244140625</ele>
        <time>2016-08-12T20:21:12.000Z</time>
        <extensions>
          <ns3:TrackPointExtension>
            <ns3:atemp>14.0</ns3:atemp>
            <ns3:hr>140</ns3:hr>
          </ns3:TrackPointExtension>
        </extensions>
      </trkpt>
      <trkpt lat="-22.00748582370579242706298828125" lon="166.4546776749193668365478515625">
        <ele>952.4000244140625</ele>
        <time>2016-08-12T20:21:13.000Z</time>
        <extensions>
          <ns3:TrackPointExtension>
            <ns3:atemp>14.0</ns3:atemp>
            <ns3:hr>140</ns3:hr>
          </ns3:TrackPointExtension>
        </extensions>
      </trkpt>
      <trkpt lat="-22.0074654556810855865478515625" lon="166.45468362607061862945556640625">
        <ele>952.20001220703125</ele>
        <time>2016-08-12T20:21:14.000Z</time>
        <extensions>
          <ns3:TrackPointExtension>
            <ns3:atemp>14.0</ns3:atemp>
            <ns3:hr>141</ns3:hr>
          </ns3:TrackPointExtension>
        </extensions>
      </trkpt>
      <trkpt lat="-22.00744642876088619232177734375" lon="166.45468865521252155303955078125">
        <ele>952.5999755859375</ele>
        <time>2016-08-12T20:21:15.000Z</time>
        <extensions>
          <ns3:TrackPointExtension>
            <ns3:atemp>14.0</ns3:atemp>
            <ns3:hr>141</ns3:hr>
          </ns3:TrackPointExtension>
        </extensions>
      </trkpt>
      <trkpt lat="-22.00742698274552822113037109375" lon="166.45469762384891510009765625">
        <ele>953</ele>
        <time>2016-08-12T20:21:16.000Z</time>
        <extensions>
          <ns3:TrackPointExtension>
            <ns3:atemp>14.0</ns3:atemp>
            <ns3:hr>141</ns3:hr>
          </ns3:TrackPointExtension>
        </extensions>
      </trkpt>
      <trkpt lat="-22.0074082911014556884765625" lon="166.454709358513355255126953125">
        <ele>952.79998779296875</ele>
        <time>2016-08-12T20:21:17.000Z</time>
        <extensions>
          <ns3:TrackPointExtension>
            <ns3:atemp>14.0</ns3:atemp>
            <ns3:hr>141</ns3:hr>
          </ns3:TrackPointExtension>
        </extensions>
      </trkpt>
      <trkpt lat="-22.007392533123493194580078125" lon="166.4547246135771274566650390625">
        <ele>952.79998779296875</ele>
        <time>2016-08-12T20:21:18.000Z</time>
        <extensions>
          <ns3:TrackPointExtension>
            <ns3:atemp>14.0</ns3:atemp>
            <ns3:hr>141</ns3:hr>
          </ns3:TrackPointExtension>
        </extensions>
      </trkpt>
      <trkpt lat="-22.00737702660262584686279296875" lon="166.45474263466894626617431640625">
        <ele>953.4000244140625</ele>
        <time>2016-08-12T20:21:19.000Z</time>
        <extensions>
          <ns3:TrackPointExtension>
            <ns3:atemp>14.0</ns3:atemp>
            <ns3:hr>141</ns3:hr>
          </ns3:TrackPointExtension>
        </extensions>
      </trkpt>
      <trkpt lat="-22.00736378319561481475830078125" lon="166.4547614939510822296142578125">
        <ele>953.79998779296875</ele>
        <time>2016-08-12T20:21:20.000Z</time>
        <extensions>
          <ns3:TrackPointExtension>
            <ns3:atemp>14.0</ns3:atemp>
            <ns3:hr>141</ns3:hr>
          </ns3:TrackPointExtension>
        </extensions>
      </trkpt>
      <trkpt lat="-22.0073521323502063751220703125" lon="166.45478345453739166259765625">
        <ele>953.5999755859375</ele>
        <time>2016-08-12T20:21:21.000Z</time>
        <extensions>
          <ns3:TrackPointExtension>
            <ns3:atemp>14.0</ns3:atemp>
            <ns3:hr>141</ns3:hr>
          </ns3:TrackPointExtension>
        </extensions>
      </trkpt>
      <trkpt lat="-22.0073425769805908203125" lon="166.45480893552303314208984375">
        <ele>953.5999755859375</ele>
        <time>2016-08-12T20:21:22.000Z</time>
        <extensions>
          <ns3:TrackPointExtension>
            <ns3:atemp>14.0</ns3:atemp>
            <ns3:hr>142</ns3:hr>
          </ns3:TrackPointExtension>
        </extensions>
      </trkpt>
      <trkpt lat="-22.00733427889645099639892578125" lon="166.45483248867094516754150390625">
        <ele>954</ele>
        <time>2016-08-12T20:21:23.000Z</time>
        <extensions>
          <ns3:TrackPointExtension>
            <ns3:atemp>14.0</ns3:atemp>
            <ns3:hr>142</ns3:hr>
          </ns3:TrackPointExtension>
        </extensions>
      </trkpt>
      <trkpt lat="-22.00732220895588397979736328125" lon="166.45485260523855686187744140625">
        <ele>954</ele>
        <time>2016-08-12T20:21:24.000Z</time>
        <extensions>
          <ns3:TrackPointExtension>
            <ns3:atemp>14.0</ns3:atemp>
            <ns3:hr>142</ns3:hr>
          </ns3:TrackPointExtension>
        </extensions>
      </trkpt>
      <trkpt lat="-22.00730712153017520904541015625" lon="166.45486970432102680206298828125">
        <ele>953.79998779296875</ele>
        <time>2016-08-12T20:21:25.000Z</time>
        <extensions>
          <ns3:TrackPointExtension>
            <ns3:atemp>14.0</ns3:atemp>
            <ns3:hr>142</ns3:hr>
          </ns3:TrackPointExtension>
        </extensions>
      </trkpt>
      <trkpt lat="-22.007291950285434722900390625" lon="166.45488160662353038787841796875">
        <ele>954.20001220703125</ele>
        <time>2016-08-12T20:21:26.000Z</time>
        <extensions>
          <ns3:TrackPointExtension>
            <ns3:atemp>14.0</ns3:atemp>
            <ns3:hr>142</ns3:hr>
          </ns3:TrackPointExtension>
        </extensions>
      </trkpt>
      <trkpt lat="-22.0072736777365207672119140625" lon="166.454891078174114227294921875">
        <ele>954.5999755859375</ele>
        <time>2016-08-12T20:21:27.000Z</time>
        <extensions>
          <ns3:TrackPointExtension>
            <ns3:atemp>14.0</ns3:atemp>
            <ns3:hr>142</ns3:hr>
          </ns3:TrackPointExtension>
        </extensions>
      </trkpt>
      <trkpt lat="-22.00725716538727283477783203125" lon="166.4549002982676029205322265625">
        <ele>954.79998779296875</ele>
        <time>2016-08-12T20:21:28.000Z</time>
        <extensions>
          <ns3:TrackPointExtension>
            <ns3:atemp>14.0</ns3:atemp>
            <ns3:hr>142</ns3:hr>
          </ns3:TrackPointExtension>
        </extensions>
      </trkpt>
      <trkpt lat="-22.00724325142800807952880859375" lon="166.45490524359047412872314453125">
        <ele>955</ele>
        <time>2016-08-12T20:21:29.000Z</time>
        <extensions>
          <ns3:TrackPointExtension>
            <ns3:atemp>14.0</ns3:atemp>
            <ns3:hr>142</ns3:hr>
          </ns3:TrackPointExtension>
        </extensions>
      </trkpt>
      <trkpt lat="-22.007231600582599639892578125" lon="166.45490809343755245208740234375">
        <ele>955.20001220703125</ele>
        <time>2016-08-12T20:21:30.000Z</time>
        <extensions>
          <ns3:TrackPointExtension>
            <ns3:atemp>14.0</ns3:atemp>
            <ns3:hr>143</ns3:hr>
          </ns3:TrackPointExtension>
        </extensions>
      </trkpt>
      <trkpt lat="-22.007220871746540069580078125" lon="166.45490893162786960601806640625">
        <ele>955.4000244140625</ele>
        <time>2016-08-12T20:21:31.000Z</time>
        <extensions>
          <ns3:TrackPointExtension>
            <ns3:atemp>14.0</ns3:atemp>
            <ns3:hr>142</ns3:hr>
          </ns3:TrackPointExtension>
        </extensions>
      </trkpt>
      <trkpt lat="-22.00721056200563907623291015625" lon="166.4549143798649311065673828125">
        <ele>955.4000244140625</ele>
        <time>2016-08-12T20:21:32.000Z</time>
        <extensions>
          <ns3:TrackPointExtension>
            <ns3:atemp>14.0</ns3:atemp>
            <ns3:hr>143</ns3:hr>
          </ns3:TrackPointExtension>
        </extensions>
      </trkpt>
      <trkpt lat="-22.00720134191215038299560546875" lon="166.45491865463554859161376953125">
        <ele>955.5999755859375</ele>
        <time>2016-08-12T20:21:33.000Z</time>
        <extensions>
          <ns3:TrackPointExtension>
            <ns3:atemp>14.0</ns3:atemp>
            <ns3:hr>143</ns3:hr>
          </ns3:TrackPointExtension>
        </extensions>
      </trkpt>
      <trkpt lat="-22.0071925409138202667236328125" lon="166.45492267794907093048095703125">
        <ele>955.79998779296875</ele>
        <time>2016-08-12T20:21:34.000Z</time>
        <extensions>
          <ns3:TrackPointExtension>
            <ns3:atemp>14.0</ns3:atemp>
            <ns3:hr>142</ns3:hr>
          </ns3:TrackPointExtension>
        </extensions>
      </trkpt>
      <trkpt lat="-22.0071821473538875579833984375" lon="166.454922258853912353515625">
        <ele>956</ele>
        <time>2016-08-12T20:21:35.000Z</time>
        <extensions>
          <ns3:TrackPointExtension>
            <ns3:atemp>14.0</ns3:atemp>
            <ns3:hr>142</ns3:hr>
          </ns3:TrackPointExtension>
        </extensions>
      </trkpt>
      <trkpt lat="-22.00717049650847911834716796875" lon="166.45492427051067352294921875">
        <ele>956</ele>
        <time>2016-08-12T20:21:36.000Z</time>
        <extensions>
          <ns3:TrackPointExtension>
            <ns3:atemp>14.0</ns3:atemp>
            <ns3:hr>142</ns3:hr>
          </ns3:TrackPointExtension>
        </extensions>
      </trkpt>
      <trkpt lat="-22.0071588456630706787109375" lon="166.45492569543421268463134765625">
        <ele>956</ele>
        <time>2016-08-12T20:21:37.000Z</time>
        <extensions>
          <ns3:TrackPointExtension>
            <ns3:atemp>14.0</ns3:atemp>
            <ns3:hr>142</ns3:hr>
          </ns3:TrackPointExtension>
        </extensions>
      </trkpt>
      <trkpt lat="-22.00714853592216968536376953125" lon="166.4549284614622592926025390625">
        <ele>956</ele>
        <time>2016-08-12T20:21:38.000Z</time>
        <extensions>
          <ns3:TrackPointExtension>
            <ns3:atemp>14.0</ns3:atemp>
            <ns3:hr>142</ns3:hr>
          </ns3:TrackPointExtension>
        </extensions>
      </trkpt>
      <trkpt lat="-22.00714032165706157684326171875" lon="166.45493709482252597808837890625">
        <ele>956.4000244140625</ele>
        <time>2016-08-12T20:21:39.000Z</time>
        <extensions>
          <ns3:TrackPointExtension>
            <ns3:atemp>14.0</ns3:atemp>
            <ns3:hr>141</ns3:hr>
          </ns3:TrackPointExtension>
        </extensions>
      </trkpt>
      <trkpt lat="-22.007133699953556060791015625" lon="166.45495084114372730255126953125">
        <ele>956.5999755859375</ele>
        <time>2016-08-12T20:21:40.000Z</time>
        <extensions>
          <ns3:TrackPointExtension>
            <ns3:atemp>14.0</ns3:atemp>
            <ns3:hr>141</ns3:hr>
          </ns3:TrackPointExtension>
        </extensions>
      </trkpt>
      <trkpt lat="-22.0071295090019702911376953125" lon="166.45496592856943607330322265625">
        <ele>957</ele>
        <time>2016-08-12T20:21:41.000Z</time>
        <extensions>
          <ns3:TrackPointExtension>
            <ns3:atemp>14.0</ns3:atemp>
            <ns3:hr>141</ns3:hr>
          </ns3:TrackPointExtension>
        </extensions>
      </trkpt>
      <trkpt lat="-22.0071268267929553985595703125" lon="166.45498202182352542877197265625">
        <ele>957</ele>
        <time>2016-08-12T20:21:42.000Z</time>
        <extensions>
          <ns3:TrackPointExtension>
            <ns3:atemp>14.0</ns3:atemp>
            <ns3:hr>141</ns3:hr>
          </ns3:TrackPointExtension>
        </extensions>
      </trkpt>
      <trkpt lat="-22.007125318050384521484375" lon="166.45499794743955135345458984375">
        <ele>957.20001220703125</ele>
        <time>2016-08-12T20:21:43.000Z</time>
        <extensions>
          <ns3:TrackPointExtension>
            <ns3:atemp>14.0</ns3:atemp>
            <ns3:hr>141</ns3:hr>
          </ns3:TrackPointExtension>
        </extensions>
      </trkpt>
      <trkpt lat="-22.00712691061198711395263671875" lon="166.4550149627029895782470703125">
        <ele>957.4000244140625</ele>
        <time>2016-08-12T20:21:44.000Z</time>
        <extensions>
          <ns3:TrackPointExtension>
            <ns3:atemp>14.0</ns3:atemp>
            <ns3:hr>141</ns3:hr>
          </ns3:TrackPointExtension>
        </extensions>
      </trkpt>
      <trkpt lat="-22.00713177211582660675048828125" lon="166.4550290443003177642822265625">
        <ele>957.5999755859375</ele>
        <time>2016-08-12T20:21:45.000Z</time>
        <extensions>
          <ns3:TrackPointExtension>
            <ns3:atemp>14.0</ns3:atemp>
            <ns3:hr>141</ns3:hr>
          </ns3:TrackPointExtension>
        </extensions>
      </trkpt>
      <trkpt lat="-22.00713914819061756134033203125" lon="166.4550404436886310577392578125">
        <ele>957.79998779296875</ele>
        <time>2016-08-12T20:21:46.000Z</time>
        <extensions>
          <ns3:TrackPointExtension>
            <ns3:atemp>14.0</ns3:atemp>
            <ns3:hr>141</ns3:hr>
          </ns3:TrackPointExtension>
        </extensions>
      </trkpt>
      <trkpt lat="-22.0071482844650745391845703125" lon="166.4550531841814517974853515625">
        <ele>958</ele>
        <time>2016-08-12T20:21:47.000Z</time>
        <extensions>
          <ns3:TrackPointExtension>
            <ns3:atemp>14.0</ns3:atemp>
            <ns3:hr>141</ns3:hr>
          </ns3:TrackPointExtension>
        </extensions>
      </trkpt>
      <trkpt lat="-22.00716043822467327117919921875" lon="166.4550649188458919525146484375">
        <ele>958</ele>
        <time>2016-08-12T20:21:48.000Z</time>
        <extensions>
          <ns3:TrackPointExtension>
            <ns3:atemp>14.0</ns3:atemp>
            <ns3:hr>141</ns3:hr>
          </ns3:TrackPointExtension>
        </extensions>
      </trkpt>
      <trkpt lat="-22.0071757771074771881103515625" lon="166.4550749771296977996826171875">
        <ele>958.20001220703125</ele>
        <time>2016-08-12T20:21:49.000Z</time>
        <extensions>
          <ns3:TrackPointExtension>
            <ns3:atemp>14.0</ns3:atemp>
            <ns3:hr>141</ns3:hr>
          </ns3:TrackPointExtension>
        </extensions>
      </trkpt>
      <trkpt lat="-22.007191367447376251220703125" lon="166.455080844461917877197265625">
        <ele>958.20001220703125</ele>
        <time>2016-08-12T20:21:50.000Z</time>
        <extensions>
          <ns3:TrackPointExtension>
            <ns3:atemp>14.0</ns3:atemp>
            <ns3:hr>141</ns3:hr>
          </ns3:TrackPointExtension>
        </extensions>
      </trkpt>
      <trkpt lat="-22.00720670633018016815185546875" lon="166.45508612506091594696044921875">
        <ele>958.4000244140625</ele>
        <time>2016-08-12T20:21:51.000Z</time>
        <extensions>
          <ns3:TrackPointExtension>
            <ns3:atemp>14.0</ns3:atemp>
            <ns3:hr>140</ns3:hr>
          </ns3:TrackPointExtension>
        </extensions>
      </trkpt>
      <trkpt lat="-22.00721927918493747711181640625" lon="166.45509115420281887054443359375">
        <ele>958.5999755859375</ele>
        <time>2016-08-12T20:21:52.000Z</time>
        <extensions>
          <ns3:TrackPointExtension>
            <ns3:atemp>14.0</ns3:atemp>
            <ns3:hr>140</ns3:hr>
          </ns3:TrackPointExtension>
        </extensions>
      </trkpt>
      <trkpt lat="-22.00723134912550449371337890625" lon="166.4550927467644214630126953125">
        <ele>958.79998779296875</ele>
        <time>2016-08-12T20:21:53.000Z</time>
        <extensions>
          <ns3:TrackPointExtension>
            <ns3:atemp>14.0</ns3:atemp>
            <ns3:hr>140</ns3:hr>
          </ns3:TrackPointExtension>
        </extensions>
      </trkpt>
      <trkpt lat="-22.00724744237959384918212890625" lon="166.45509534515440464019775390625">
        <ele>959</ele>
        <time>2016-08-12T20:21:54.000Z</time>
        <extensions>
          <ns3:TrackPointExtension>
            <ns3:atemp>14.0</ns3:atemp>
            <ns3:hr>140</ns3:hr>
          </ns3:TrackPointExtension>
        </extensions>
      </trkpt>
      <trkpt lat="-22.00725750066339969635009765625" lon="166.45510070957243442535400390625">
        <ele>959.20001220703125</ele>
        <time>2016-08-12T20:21:55.000Z</time>
        <extensions>
          <ns3:TrackPointExtension>
            <ns3:atemp>14.0</ns3:atemp>
            <ns3:hr>140</ns3:hr>
          </ns3:TrackPointExtension>
        </extensions>
      </trkpt>
      <trkpt lat="-22.00726806186139583587646484375" lon="166.45510490052402019500732421875">
        <ele>959.4000244140625</ele>
        <time>2016-08-12T20:21:56.000Z</time>
        <extensions>
          <ns3:TrackPointExtension>
            <ns3:atemp>14.0</ns3:atemp>
            <ns3:hr>140</ns3:hr>
          </ns3:TrackPointExtension>
        </extensions>
      </trkpt>
      <trkpt lat="-22.0072827301919460296630859375" lon="166.45510775037109851837158203125">
        <ele>959.79998779296875</ele>
        <time>2016-08-12T20:21:57.000Z</time>
        <extensions>
          <ns3:TrackPointExtension>
            <ns3:atemp>14.0</ns3:atemp>
            <ns3:hr>140</ns3:hr>
          </ns3:TrackPointExtension>
        </extensions>
      </trkpt>
      <trkpt lat="-22.00729857198894023895263671875" lon="166.45510573871433734893798828125">
        <ele>960.20001220703125</ele>
        <time>2016-08-12T20:21:58.000Z</time>
        <extensions>
          <ns3:TrackPointExtension>
            <ns3:atemp>14.0</ns3:atemp>
            <ns3:hr>140</ns3:hr>
          </ns3:TrackPointExtension>
        </extensions>
      </trkpt>
      <trkpt lat="-22.007313407957553863525390625" lon="166.45509861409664154052734375">
        <ele>960.20001220703125</ele>
        <time>2016-08-12T20:21:59.000Z</time>
        <extensions>
          <ns3:TrackPointExtension>
            <ns3:atemp>14.0</ns3:atemp>
            <ns3:hr>140</ns3:hr>
          </ns3:TrackPointExtension>
        </extensions>
      </trkpt>
      <trkpt lat="-22.00732581317424774169921875" lon="166.455094926059246063232421875">
        <ele>960.20001220703125</ele>
        <time>2016-08-12T20:22:00.000Z</time>
        <extensions>
          <ns3:TrackPointExtension>
            <ns3:atemp>14.0</ns3:atemp>
            <ns3:hr>140</ns3:hr>
          </ns3:TrackPointExtension>
        </extensions>
      </trkpt>
      <trkpt lat="-22.00733528472483158111572265625" lon="166.4550964348018169403076171875">
        <ele>960.20001220703125</ele>
        <time>2016-08-12T20:22:01.000Z</time>
        <extensions>
          <ns3:TrackPointExtension>
            <ns3:atemp>14.0</ns3:atemp>
            <ns3:hr>139</ns3:hr>
          </ns3:TrackPointExtension>
        </extensions>
      </trkpt>
      <trkpt lat="-22.0073497854173183441162109375" lon="166.45510221831500530242919921875">
        <ele>960.4000244140625</ele>
        <time>2016-08-12T20:22:02.000Z</time>
        <extensions>
          <ns3:TrackPointExtension>
            <ns3:atemp>14.0</ns3:atemp>
            <ns3:hr>139</ns3:hr>
          </ns3:TrackPointExtension>
        </extensions>
      </trkpt>
      <trkpt lat="-22.0073652081191539764404296875" lon="166.45510490052402019500732421875">
        <ele>960.79998779296875</ele>
        <time>2016-08-12T20:22:03.000Z</time>
        <extensions>
          <ns3:TrackPointExtension>
            <ns3:atemp>14.0</ns3:atemp>
            <ns3:hr>138</ns3:hr>
          </ns3:TrackPointExtension>
        </extensions>
      </trkpt>
      <trkpt lat="-22.00737945735454559326171875" lon="166.45510238595306873321533203125">
        <ele>961.20001220703125</ele>
        <time>2016-08-12T20:22:04.000Z</time>
        <extensions>
          <ns3:TrackPointExtension>
            <ns3:atemp>14.0</ns3:atemp>
            <ns3:hr>137</ns3:hr>
          </ns3:TrackPointExtension>
        </extensions>
      </trkpt>
      <trkpt lat="-22.00739563442766666412353515625" lon="166.45509853027760982513427734375">
        <ele>961.4000244140625</ele>
        <time>2016-08-12T20:22:05.000Z</time>
        <extensions>
          <ns3:TrackPointExtension>
            <ns3:atemp>14.0</ns3:atemp>
            <ns3:hr>137</ns3:hr>
          </ns3:TrackPointExtension>
        </extensions>
      </trkpt>
      <trkpt lat="-22.00741122476756572723388671875" lon="166.45509702153503894805908203125">
        <ele>961.4000244140625</ele>
        <time>2016-08-12T20:22:06.000Z</time>
        <extensions>
          <ns3:TrackPointExtension>
            <ns3:atemp>14.0</ns3:atemp>
            <ns3:hr>137</ns3:hr>
          </ns3:TrackPointExtension>
        </extensions>
      </trkpt>
      <trkpt lat="-22.007425725460052490234375" lon="166.45509517751634120941162109375">
        <ele>961.4000244140625</ele>
        <time>2016-08-12T20:22:07.000Z</time>
        <extensions>
          <ns3:TrackPointExtension>
            <ns3:atemp>14.0</ns3:atemp>
            <ns3:hr>137</ns3:hr>
          </ns3:TrackPointExtension>
        </extensions>
      </trkpt>
      <trkpt lat="-22.007439471781253814697265625" lon="166.45509056746959686279296875">
        <ele>961.4000244140625</ele>
        <time>2016-08-12T20:22:08.000Z</time>
        <extensions>
          <ns3:TrackPointExtension>
            <ns3:atemp>14.0</ns3:atemp>
            <ns3:hr>137</ns3:hr>
          </ns3:TrackPointExtension>
        </extensions>
      </trkpt>
      <trkpt lat="-22.00745430774986743927001953125" lon="166.455085538327693939208984375">
        <ele>961.79998779296875</ele>
        <time>2016-08-12T20:22:09.000Z</time>
        <extensions>
          <ns3:TrackPointExtension>
            <ns3:atemp>14.0</ns3:atemp>
            <ns3:hr>138</ns3:hr>
          </ns3:TrackPointExtension>
        </extensions>
      </trkpt>
      <trkpt lat="-22.0074688084423542022705078125" lon="166.45508109591901302337646484375">
        <ele>962.20001220703125</ele>
        <time>2016-08-12T20:22:10.000Z</time>
        <extensions>
          <ns3:TrackPointExtension>
            <ns3:atemp>14.0</ns3:atemp>
            <ns3:hr>138</ns3:hr>
          </ns3:TrackPointExtension>
        </extensions>
      </trkpt>
      <trkpt lat="-22.00748364441096782684326171875" lon="166.45507715642452239990234375">
        <ele>962.5999755859375</ele>
        <time>2016-08-12T20:22:11.000Z</time>
        <extensions>
          <ns3:TrackPointExtension>
            <ns3:atemp>14.0</ns3:atemp>
            <ns3:hr>138</ns3:hr>
          </ns3:TrackPointExtension>
        </extensions>
      </trkpt>
      <trkpt lat="-22.0074973069131374359130859375" lon="166.4550739713013172149658203125">
        <ele>962.79998779296875</ele>
        <time>2016-08-12T20:22:12.000Z</time>
        <extensions>
          <ns3:TrackPointExtension>
            <ns3:atemp>14.0</ns3:atemp>
            <ns3:hr>138</ns3:hr>
          </ns3:TrackPointExtension>
        </extensions>
      </trkpt>
      <trkpt lat="-22.00750962831079959869384765625" lon="166.455068774521350860595703125">
        <ele>963</ele>
        <time>2016-08-12T20:22:13.000Z</time>
        <extensions>
          <ns3:TrackPointExtension>
            <ns3:atemp>14.0</ns3:atemp>
            <ns3:hr>138</ns3:hr>
          </ns3:TrackPointExtension>
        </extensions>
      </trkpt>
      <trkpt lat="-22.0075224526226520538330078125" lon="166.455061733722686767578125">
        <ele>963.20001220703125</ele>
        <time>2016-08-12T20:22:14.000Z</time>
        <extensions>
          <ns3:TrackPointExtension>
            <ns3:atemp>14.0</ns3:atemp>
            <ns3:hr>138</ns3:hr>
          </ns3:TrackPointExtension>
        </extensions>
      </trkpt>
      <trkpt lat="-22.00753577984869480133056640625" lon="166.45505611784756183624267578125">
        <ele>963.4000244140625</ele>
        <time>2016-08-12T20:22:15.000Z</time>
        <extensions>
          <ns3:TrackPointExtension>
            <ns3:atemp>14.0</ns3:atemp>
            <ns3:hr>138</ns3:hr>
          </ns3:TrackPointExtension>
        </extensions>
      </trkpt>
      <trkpt lat="-22.00754902325570583343505859375" lon="166.45505393855273723602294921875">
        <ele>963.5999755859375</ele>
        <time>2016-08-12T20:22:16.000Z</time>
        <extensions>
          <ns3:TrackPointExtension>
            <ns3:atemp>14.0</ns3:atemp>
            <ns3:hr>138</ns3:hr>
          </ns3:TrackPointExtension>
        </extensions>
      </trkpt>
      <trkpt lat="-22.0075589977204799652099609375" lon="166.4550528489053249359130859375">
        <ele>963.79998779296875</ele>
        <time>2016-08-12T20:22:17.000Z</time>
        <extensions>
          <ns3:TrackPointExtension>
            <ns3:atemp>14.0</ns3:atemp>
            <ns3:hr>139</ns3:hr>
          </ns3:TrackPointExtension>
        </extensions>
      </trkpt>
      <trkpt lat="-22.00757098384201526641845703125" lon="166.45505192689597606658935546875">
        <ele>964</ele>
        <time>2016-08-12T20:22:18.000Z</time>
        <extensions>
          <ns3:TrackPointExtension>
            <ns3:atemp>14.0</ns3:atemp>
            <ns3:hr>139</ns3:hr>
          </ns3:TrackPointExtension>
        </extensions>
      </trkpt>
      <trkpt lat="-22.0075811259448528289794921875" lon="166.4550498314201831817626953125">
        <ele>964</ele>
        <time>2016-08-12T20:22:19.000Z</time>
        <extensions>
          <ns3:TrackPointExtension>
            <ns3:atemp>14.0</ns3:atemp>
            <ns3:hr>139</ns3:hr>
          </ns3:TrackPointExtension>
        </extensions>
      </trkpt>
      <trkpt lat="-22.00758825056254863739013671875" lon="166.45504555664956569671630859375">
        <ele>964.4000244140625</ele>
        <time>2016-08-12T20:22:20.000Z</time>
        <extensions>
          <ns3:TrackPointExtension>
            <ns3:atemp>14.0</ns3:atemp>
            <ns3:hr>139</ns3:hr>
          </ns3:TrackPointExtension>
        </extensions>
      </trkpt>
      <trkpt lat="-22.007597386837005615234375" lon="166.455043293535709381103515625">
        <ele>964.5999755859375</ele>
        <time>2016-08-12T20:22:21.000Z</time>
        <extensions>
          <ns3:TrackPointExtension>
            <ns3:atemp>14.0</ns3:atemp>
            <ns3:hr>139</ns3:hr>
          </ns3:TrackPointExtension>
        </extensions>
      </trkpt>
      <trkpt lat="-22.00760769657790660858154296875" lon="166.455042622983455657958984375">
        <ele>964.79998779296875</ele>
        <time>2016-08-12T20:22:22.000Z</time>
        <extensions>
          <ns3:TrackPointExtension>
            <ns3:atemp>14.0</ns3:atemp>
            <ns3:hr>139</ns3:hr>
          </ns3:TrackPointExtension>
        </extensions>
      </trkpt>
      <trkpt lat="-22.00762177817523479461669921875" lon="166.45504362881183624267578125">
        <ele>965</ele>
        <time>2016-08-12T20:22:23.000Z</time>
        <extensions>
          <ns3:TrackPointExtension>
            <ns3:atemp>14.0</ns3:atemp>
            <ns3:hr>139</ns3:hr>
          </ns3:TrackPointExtension>
        </extensions>
      </trkpt>
      <trkpt lat="-22.00763653032481670379638671875" lon="166.4550442993640899658203125">
        <ele>965.20001220703125</ele>
        <time>2016-08-12T20:22:24.000Z</time>
        <extensions>
          <ns3:TrackPointExtension>
            <ns3:atemp>14.0</ns3:atemp>
            <ns3:hr>139</ns3:hr>
          </ns3:TrackPointExtension>
        </extensions>
      </trkpt>
      <trkpt lat="-22.00764876790344715118408203125" lon="166.4550461433827877044677734375">
        <ele>965.20001220703125</ele>
        <time>2016-08-12T20:22:25.000Z</time>
        <extensions>
          <ns3:TrackPointExtension>
            <ns3:atemp>14.0</ns3:atemp>
            <ns3:hr>138</ns3:hr>
          </ns3:TrackPointExtension>
        </extensions>
      </trkpt>
      <trkpt lat="-22.0076632685959339141845703125" lon="166.45504840649664402008056640625">
        <ele>965.5999755859375</ele>
        <time>2016-08-12T20:22:26.000Z</time>
        <extensions>
          <ns3:TrackPointExtension>
            <ns3:atemp>14.0</ns3:atemp>
            <ns3:hr>138</ns3:hr>
          </ns3:TrackPointExtension>
        </extensions>
      </trkpt>
      <trkpt lat="-22.0076770149171352386474609375" lon="166.455051004886627197265625">
        <ele>965.5999755859375</ele>
        <time>2016-08-12T20:22:27.000Z</time>
        <extensions>
          <ns3:TrackPointExtension>
            <ns3:atemp>14.0</ns3:atemp>
            <ns3:hr>138</ns3:hr>
          </ns3:TrackPointExtension>
        </extensions>
      </trkpt>
      <trkpt lat="-22.00768925249576568603515625" lon="166.45505226217210292816162109375">
        <ele>965.79998779296875</ele>
        <time>2016-08-12T20:22:28.000Z</time>
        <extensions>
          <ns3:TrackPointExtension>
            <ns3:atemp>14.0</ns3:atemp>
            <ns3:hr>138</ns3:hr>
          </ns3:TrackPointExtension>
        </extensions>
      </trkpt>
      <trkpt lat="-22.00770157389342784881591796875" lon="166.45505427382886409759521484375">
        <ele>966</ele>
        <time>2016-08-12T20:22:29.000Z</time>
        <extensions>
          <ns3:TrackPointExtension>
            <ns3:atemp>14.0</ns3:atemp>
            <ns3:hr>137</ns3:hr>
          </ns3:TrackPointExtension>
        </extensions>
      </trkpt>
      <trkpt lat="-22.0077149011194705963134765625" lon="166.4550551958382129669189453125">
        <ele>966.20001220703125</ele>
        <time>2016-08-12T20:22:30.000Z</time>
        <extensions>
          <ns3:TrackPointExtension>
            <ns3:atemp>14.0</ns3:atemp>
            <ns3:hr>137</ns3:hr>
          </ns3:TrackPointExtension>
        </extensions>
      </trkpt>
      <trkpt lat="-22.0077299885451793670654296875" lon="166.45505368709564208984375">
        <ele>966.4000244140625</ele>
        <time>2016-08-12T20:22:31.000Z</time>
        <extensions>
          <ns3:TrackPointExtension>
            <ns3:atemp>14.0</ns3:atemp>
            <ns3:hr>137</ns3:hr>
          </ns3:TrackPointExtension>
        </extensions>
      </trkpt>
      <trkpt lat="-22.0077454112470149993896484375" lon="166.4550505019724369049072265625">
        <ele>966.5999755859375</ele>
        <time>2016-08-12T20:22:32.000Z</time>
        <extensions>
          <ns3:TrackPointExtension>
            <ns3:atemp>14.0</ns3:atemp>
            <ns3:hr>136</ns3:hr>
          </ns3:TrackPointExtension>
        </extensions>
      </trkpt>
      <trkpt lat="-22.00775907374918460845947265625" lon="166.45504656247794628143310546875">
        <ele>966.79998779296875</ele>
        <time>2016-08-12T20:22:33.000Z</time>
        <extensions>
          <ns3:TrackPointExtension>
            <ns3:atemp>14.0</ns3:atemp>
            <ns3:hr>136</ns3:hr>
          </ns3:TrackPointExtension>
        </extensions>
      </trkpt>
      <trkpt lat="-22.00777114368975162506103515625" lon="166.4550394378602504730224609375">
        <ele>967</ele>
        <time>2016-08-12T20:22:34.000Z</time>
        <extensions>
          <ns3:TrackPointExtension>
            <ns3:atemp>14.0</ns3:atemp>
            <ns3:hr>136</ns3:hr>
          </ns3:TrackPointExtension>
        </extensions>
      </trkpt>
      <trkpt lat="-22.007782123982906341552734375" lon="166.4550367556512355804443359375">
        <ele>967</ele>
        <time>2016-08-12T20:22:35.000Z</time>
        <extensions>
          <ns3:TrackPointExtension>
            <ns3:atemp>14.0</ns3:atemp>
            <ns3:hr>136</ns3:hr>
          </ns3:TrackPointExtension>
        </extensions>
      </trkpt>
      <trkpt lat="-22.00779126025736331939697265625" lon="166.455035917460918426513671875">
        <ele>967.20001220703125</ele>
        <time>2016-08-12T20:22:36.000Z</time>
        <extensions>
          <ns3:TrackPointExtension>
            <ns3:atemp>14.0</ns3:atemp>
            <ns3:hr>136</ns3:hr>
          </ns3:TrackPointExtension>
        </extensions>
      </trkpt>
      <trkpt lat="-22.00779964216053485870361328125" lon="166.45503449253737926483154296875">
        <ele>967.4000244140625</ele>
        <time>2016-08-12T20:22:37.000Z</time>
        <extensions>
          <ns3:TrackPointExtension>
            <ns3:atemp>14.0</ns3:atemp>
            <ns3:hr>136</ns3:hr>
          </ns3:TrackPointExtension>
        </extensions>
      </trkpt>
      <trkpt lat="-22.0078111253678798675537109375" lon="166.4550323970615863800048828125">
        <ele>967.5999755859375</ele>
        <time>2016-08-12T20:22:38.000Z</time>
        <extensions>
          <ns3:TrackPointExtension>
            <ns3:atemp>14.0</ns3:atemp>
            <ns3:hr>135</ns3:hr>
          </ns3:TrackPointExtension>
        </extensions>
      </trkpt>
      <trkpt lat="-22.00782294385135173797607421875" lon="166.4550300501286983489990234375">
        <ele>967.79998779296875</ele>
        <time>2016-08-12T20:22:39.000Z</time>
        <extensions>
          <ns3:TrackPointExtension>
            <ns3:atemp>14.0</ns3:atemp>
            <ns3:hr>135</ns3:hr>
          </ns3:TrackPointExtension>
        </extensions>
      </trkpt>
      <trkpt lat="-22.007835097610950469970703125" lon="166.45503130741417407989501953125">
        <ele>968</ele>
        <time>2016-08-12T20:22:40.000Z</time>
        <extensions>
          <ns3:TrackPointExtension>
            <ns3:atemp>14.0</ns3:atemp>
            <ns3:hr>134</ns3:hr>
          </ns3:TrackPointExtension>
        </extensions>
      </trkpt>
      <trkpt lat="-22.00785093940794467926025390625" lon="166.4550317265093326568603515625">
        <ele>968.20001220703125</ele>
        <time>2016-08-12T20:22:41.000Z</time>
        <extensions>
          <ns3:TrackPointExtension>
            <ns3:atemp>14.0</ns3:atemp>
            <ns3:hr>133</ns3:hr>
          </ns3:TrackPointExtension>
        </extensions>
      </trkpt>
      <trkpt lat="-22.00786636210978031158447265625" lon="166.4550303854048252105712890625">
        <ele>968.4000244140625</ele>
        <time>2016-08-12T20:22:42.000Z</time>
        <extensions>
          <ns3:TrackPointExtension>
            <ns3:atemp>14.0</ns3:atemp>
            <ns3:hr>133</ns3:hr>
          </ns3:TrackPointExtension>
        </extensions>
      </trkpt>
      <trkpt lat="-22.0078791864216327667236328125" lon="166.4550282061100006103515625">
        <ele>968.4000244140625</ele>
        <time>2016-08-12T20:22:43.000Z</time>
        <extensions>
          <ns3:TrackPointExtension>
            <ns3:atemp>14.0</ns3:atemp>
            <ns3:hr>132</ns3:hr>
          </ns3:TrackPointExtension>
        </extensions>
      </trkpt>
      <trkpt lat="-22.00788983143866062164306640625" lon="166.4550260268151760101318359375">
        <ele>968.79998779296875</ele>
        <time>2016-08-12T20:22:44.000Z</time>
        <extensions>
          <ns3:TrackPointExtension>
            <ns3:atemp>14.0</ns3:atemp>
            <ns3:hr>132</ns3:hr>
          </ns3:TrackPointExtension>
        </extensions>
      </trkpt>
      <trkpt lat="-22.0079013146460056304931640625" lon="166.45502292551100254058837890625">
        <ele>969.20001220703125</ele>
        <time>2016-08-12T20:22:45.000Z</time>
        <extensions>
          <ns3:TrackPointExtension>
            <ns3:atemp>14.0</ns3:atemp>
            <ns3:hr>132</ns3:hr>
          </ns3:TrackPointExtension>
        </extensions>
      </trkpt>
      <trkpt lat="-22.00791313312947750091552734375" lon="166.45501890219748020172119140625">
        <ele>969.4000244140625</ele>
        <time>2016-08-12T20:22:46.000Z</time>
        <extensions>
          <ns3:TrackPointExtension>
            <ns3:atemp>14.0</ns3:atemp>
            <ns3:hr>131</ns3:hr>
          </ns3:TrackPointExtension>
        </extensions>
      </trkpt>
      <trkpt lat="-22.007925622165203094482421875" lon="166.45501135848462581634521484375">
        <ele>969.5999755859375</ele>
        <time>2016-08-12T20:22:47.000Z</time>
        <extensions>
          <ns3:TrackPointExtension>
            <ns3:atemp>14.0</ns3:atemp>
            <ns3:hr>130</ns3:hr>
          </ns3:TrackPointExtension>
        </extensions>
      </trkpt>
      <trkpt lat="-22.00793802738189697265625" lon="166.4550049044191837310791015625">
        <ele>969.5999755859375</ele>
        <time>2016-08-12T20:22:48.000Z</time>
        <extensions>
          <ns3:TrackPointExtension>
            <ns3:atemp>14.0</ns3:atemp>
            <ns3:hr>130</ns3:hr>
          </ns3:TrackPointExtension>
        </extensions>
      </trkpt>
      <trkpt lat="-22.00795210897922515869140625" lon="166.454997360706329345703125">
        <ele>969.79998779296875</ele>
        <time>2016-08-12T20:22:49.000Z</time>
        <extensions>
          <ns3:TrackPointExtension>
            <ns3:atemp>14.0</ns3:atemp>
            <ns3:hr>129</ns3:hr>
          </ns3:TrackPointExtension>
        </extensions>
      </trkpt>
      <trkpt lat="-22.00796686112880706787109375" lon="166.4549864642322063446044921875">
        <ele>970</ele>
        <time>2016-08-12T20:22:50.000Z</time>
        <extensions>
          <ns3:TrackPointExtension>
            <ns3:atemp>14.0</ns3:atemp>
            <ns3:hr>129</ns3:hr>
          </ns3:TrackPointExtension>
        </extensions>
      </trkpt>
      <trkpt lat="-22.007979936897754669189453125" lon="166.454975903034210205078125">
        <ele>970.4000244140625</ele>
        <time>2016-08-12T20:22:51.000Z</time>
        <extensions>
          <ns3:TrackPointExtension>
            <ns3:atemp>14.0</ns3:atemp>
            <ns3:hr>129</ns3:hr>
          </ns3:TrackPointExtension>
        </extensions>
      </trkpt>
      <trkpt lat="-22.00799242593348026275634765625" lon="166.45496986806392669677734375">
        <ele>970.4000244140625</ele>
        <time>2016-08-12T20:22:52.000Z</time>
        <extensions>
          <ns3:TrackPointExtension>
            <ns3:atemp>14.0</ns3:atemp>
            <ns3:hr>129</ns3:hr>
          </ns3:TrackPointExtension>
        </extensions>
      </trkpt>
      <trkpt lat="-22.008003406226634979248046875" lon="166.45496492274105548858642578125">
        <ele>970.5999755859375</ele>
        <time>2016-08-12T20:22:53.000Z</time>
        <extensions>
          <ns3:TrackPointExtension>
            <ns3:atemp>14.0</ns3:atemp>
            <ns3:hr>130</ns3:hr>
          </ns3:TrackPointExtension>
        </extensions>
      </trkpt>
      <trkpt lat="-22.0080176554620265960693359375" lon="166.45496039651334285736083984375">
        <ele>970.79998779296875</ele>
        <time>2016-08-12T20:22:54.000Z</time>
        <extensions>
          <ns3:TrackPointExtension>
            <ns3:atemp>14.0</ns3:atemp>
            <ns3:hr>131</ns3:hr>
          </ns3:TrackPointExtension>
        </extensions>
      </trkpt>
      <trkpt lat="-22.00803182087838649749755859375" lon="166.45495570264756679534912109375">
        <ele>970.79998779296875</ele>
        <time>2016-08-12T20:22:55.000Z</time>
        <extensions>
          <ns3:TrackPointExtension>
            <ns3:atemp>14.0</ns3:atemp>
            <ns3:hr>132</ns3:hr>
          </ns3:TrackPointExtension>
        </extensions>
      </trkpt>
      <trkpt lat="-22.008042968809604644775390625" lon="166.4549479074776172637939453125">
        <ele>971</ele>
        <time>2016-08-12T20:22:56.000Z</time>
        <extensions>
          <ns3:TrackPointExtension>
            <ns3:atemp>14.0</ns3:atemp>
            <ns3:hr>133</ns3:hr>
          </ns3:TrackPointExtension>
        </extensions>
      </trkpt>
      <trkpt lat="-22.0080535300076007843017578125" lon="166.4549432136118412017822265625">
        <ele>971.20001220703125</ele>
        <time>2016-08-12T20:22:57.000Z</time>
        <extensions>
          <ns3:TrackPointExtension>
            <ns3:atemp>14.0</ns3:atemp>
            <ns3:hr>133</ns3:hr>
          </ns3:TrackPointExtension>
        </extensions>
      </trkpt>
      <trkpt lat="-22.00806467793881893157958984375" lon="166.4549398608505725860595703125">
        <ele>971.20001220703125</ele>
        <time>2016-08-12T20:22:58.000Z</time>
        <extensions>
          <ns3:TrackPointExtension>
            <ns3:atemp>14.0</ns3:atemp>
            <ns3:hr>134</ns3:hr>
          </ns3:TrackPointExtension>
        </extensions>
      </trkpt>
      <trkpt lat="-22.00807750225067138671875" lon="166.4549368433654308319091796875">
        <ele>971.4000244140625</ele>
        <time>2016-08-12T20:22:59.000Z</time>
        <extensions>
          <ns3:TrackPointExtension>
            <ns3:atemp>14.0</ns3:atemp>
            <ns3:hr>135</ns3:hr>
          </ns3:TrackPointExtension>
        </extensions>
      </trkpt>
      <trkpt lat="-22.00809133239090442657470703125" lon="166.45493290387094020843505859375">
        <ele>971.5999755859375</ele>
        <time>2016-08-12T20:23:00.000Z</time>
        <extensions>
          <ns3:TrackPointExtension>
            <ns3:atemp>14.0</ns3:atemp>
            <ns3:hr>135</ns3:hr>
          </ns3:TrackPointExtension>
        </extensions>
      </trkpt>
      <trkpt lat="-22.00810365378856658935546875" lon="166.454927958548069000244140625">
        <ele>971.5999755859375</ele>
        <time>2016-08-12T20:23:01.000Z</time>
        <extensions>
          <ns3:TrackPointExtension>
            <ns3:atemp>14.0</ns3:atemp>
            <ns3:hr>136</ns3:hr>
          </ns3:TrackPointExtension>
        </extensions>
      </trkpt>
      <trkpt lat="-22.00811647810041904449462890625" lon="166.454922258853912353515625">
        <ele>971.79998779296875</ele>
        <time>2016-08-12T20:23:02.000Z</time>
        <extensions>
          <ns3:TrackPointExtension>
            <ns3:atemp>14.0</ns3:atemp>
            <ns3:hr>136</ns3:hr>
          </ns3:TrackPointExtension>
        </extensions>
      </trkpt>
      <trkpt lat="-22.00812988914549350738525390625" lon="166.4549184031784534454345703125">
        <ele>971.79998779296875</ele>
        <time>2016-08-12T20:23:03.000Z</time>
        <extensions>
          <ns3:TrackPointExtension>
            <ns3:atemp>14.0</ns3:atemp>
            <ns3:hr>137</ns3:hr>
          </ns3:TrackPointExtension>
        </extensions>
      </trkpt>
      <trkpt lat="-22.00814145617187023162841796875" lon="166.45491614006459712982177734375">
        <ele>972</ele>
        <time>2016-08-12T20:23:04.000Z</time>
        <extensions>
          <ns3:TrackPointExtension>
            <ns3:atemp>14.0</ns3:atemp>
            <ns3:hr>137</ns3:hr>
          </ns3:TrackPointExtension>
        </extensions>
      </trkpt>
      <trkpt lat="-22.0081477425992488861083984375" lon="166.4549096859991550445556640625">
        <ele>972.20001220703125</ele>
        <time>2016-08-12T20:23:05.000Z</time>
        <extensions>
          <ns3:TrackPointExtension>
            <ns3:atemp>14.0</ns3:atemp>
            <ns3:hr>137</ns3:hr>
          </ns3:TrackPointExtension>
        </extensions>
      </trkpt>
      <trkpt lat="-22.0081541128456592559814453125" lon="166.4549039863049983978271484375">
        <ele>972.20001220703125</ele>
        <time>2016-08-12T20:23:06.000Z</time>
        <extensions>
          <ns3:TrackPointExtension>
            <ns3:atemp>14.0</ns3:atemp>
            <ns3:hr>137</ns3:hr>
          </ns3:TrackPointExtension>
        </extensions>
      </trkpt>
      <trkpt lat="-22.0081624947488307952880859375" lon="166.454899795353412628173828125">
        <ele>972.4000244140625</ele>
        <time>2016-08-12T20:23:07.000Z</time>
        <extensions>
          <ns3:TrackPointExtension>
            <ns3:atemp>14.0</ns3:atemp>
            <ns3:hr>137</ns3:hr>
          </ns3:TrackPointExtension>
        </extensions>
      </trkpt>
      <trkpt lat="-22.00817230157554149627685546875" lon="166.45489669404923915863037109375">
        <ele>972.5999755859375</ele>
        <time>2016-08-12T20:23:08.000Z</time>
        <extensions>
          <ns3:TrackPointExtension>
            <ns3:atemp>14.0</ns3:atemp>
            <ns3:hr>137</ns3:hr>
          </ns3:TrackPointExtension>
        </extensions>
      </trkpt>
      <trkpt lat="-22.00818319804966449737548828125" lon="166.45489183254539966583251953125">
        <ele>972.5999755859375</ele>
        <time>2016-08-12T20:23:09.000Z</time>
        <extensions>
          <ns3:TrackPointExtension>
            <ns3:atemp>14.0</ns3:atemp>
            <ns3:hr>137</ns3:hr>
          </ns3:TrackPointExtension>
        </extensions>
      </trkpt>
      <trkpt lat="-22.00819157995283603668212890625" lon="166.45488403737545013427734375">
        <ele>972.79998779296875</ele>
        <time>2016-08-12T20:23:10.000Z</time>
        <extensions>
          <ns3:TrackPointExtension>
            <ns3:atemp>14.0</ns3:atemp>
            <ns3:hr>137</ns3:hr>
          </ns3:TrackPointExtension>
        </extensions>
      </trkpt>
      <trkpt lat="-22.0081956870853900909423828125" lon="166.454874314367771148681640625">
        <ele>973</ele>
        <time>2016-08-12T20:23:11.000Z</time>
        <extensions>
          <ns3:TrackPointExtension>
            <ns3:atemp>14.0</ns3:atemp>
            <ns3:hr>137</ns3:hr>
          </ns3:TrackPointExtension>
        </extensions>
      </trkpt>
      <trkpt lat="-22.00820029713213443756103515625" lon="166.4548645913600921630859375">
        <ele>973.20001220703125</ele>
        <time>2016-08-12T20:23:12.000Z</time>
        <extensions>
          <ns3:TrackPointExtension>
            <ns3:atemp>14.0</ns3:atemp>
            <ns3:hr>136</ns3:hr>
          </ns3:TrackPointExtension>
        </extensions>
      </trkpt>
      <trkpt lat="-22.00820884667336940765380859375" lon="166.45485226996243000030517578125">
        <ele>973.4000244140625</ele>
        <time>2016-08-12T20:23:13.000Z</time>
        <extensions>
          <ns3:TrackPointExtension>
            <ns3:atemp>14.0</ns3:atemp>
            <ns3:hr>136</ns3:hr>
          </ns3:TrackPointExtension>
        </extensions>
      </trkpt>
      <trkpt lat="-22.00821555219590663909912109375" lon="166.45483936183154582977294921875">
        <ele>973.4000244140625</ele>
        <time>2016-08-12T20:23:14.000Z</time>
        <extensions>
          <ns3:TrackPointExtension>
            <ns3:atemp>14.0</ns3:atemp>
            <ns3:hr>135</ns3:hr>
          </ns3:TrackPointExtension>
        </extensions>
      </trkpt>
      <trkpt lat="-22.00822108425199985504150390625" lon="166.4548265375196933746337890625">
        <ele>973.4000244140625</ele>
        <time>2016-08-12T20:23:15.000Z</time>
        <extensions>
          <ns3:TrackPointExtension>
            <ns3:atemp>14.0</ns3:atemp>
            <ns3:hr>135</ns3:hr>
          </ns3:TrackPointExtension>
        </extensions>
      </trkpt>
      <trkpt lat="-22.00822963379323482513427734375" lon="166.45481455139815807342529296875">
        <ele>973.4000244140625</ele>
        <time>2016-08-12T20:23:16.000Z</time>
        <extensions>
          <ns3:TrackPointExtension>
            <ns3:atemp>14.0</ns3:atemp>
            <ns3:hr>136</ns3:hr>
          </ns3:TrackPointExtension>
        </extensions>
      </trkpt>
      <trkpt lat="-22.0082369260489940643310546875" lon="166.4548034034669399261474609375">
        <ele>973.4000244140625</ele>
        <time>2016-08-12T20:23:17.000Z</time>
        <extensions>
          <ns3:TrackPointExtension>
            <ns3:atemp>14.0</ns3:atemp>
            <ns3:hr>135</ns3:hr>
          </ns3:TrackPointExtension>
        </extensions>
      </trkpt>
      <trkpt lat="-22.0082432962954044342041015625" lon="166.45478940568864345550537109375">
        <ele>973.5999755859375</ele>
        <time>2016-08-12T20:23:18.000Z</time>
        <extensions>
          <ns3:TrackPointExtension>
            <ns3:atemp>14.0</ns3:atemp>
            <ns3:hr>135</ns3:hr>
          </ns3:TrackPointExtension>
        </extensions>
      </trkpt>
      <trkpt lat="-22.0082486607134342193603515625" lon="166.45477767102420330047607421875">
        <ele>973.5999755859375</ele>
        <time>2016-08-12T20:23:19.000Z</time>
        <extensions>
          <ns3:TrackPointExtension>
            <ns3:atemp>14.0</ns3:atemp>
            <ns3:hr>135</ns3:hr>
          </ns3:TrackPointExtension>
        </extensions>
      </trkpt>
      <trkpt lat="-22.00825461186468601226806640625" lon="166.4547675289213657379150390625">
        <ele>973.79998779296875</ele>
        <time>2016-08-12T20:23:20.000Z</time>
        <extensions>
          <ns3:TrackPointExtension>
            <ns3:atemp>14.0</ns3:atemp>
            <ns3:hr>135</ns3:hr>
          </ns3:TrackPointExtension>
        </extensions>
      </trkpt>
      <trkpt lat="-22.00826416723430156707763671875" lon="166.4547581411898136138916015625">
        <ele>973.79998779296875</ele>
        <time>2016-08-12T20:23:21.000Z</time>
        <extensions>
          <ns3:TrackPointExtension>
            <ns3:atemp>14.0</ns3:atemp>
            <ns3:hr>135</ns3:hr>
          </ns3:TrackPointExtension>
        </extensions>
      </trkpt>
      <trkpt lat="-22.00827397406101226806640625" lon="166.4547487534582614898681640625">
        <ele>974</ele>
        <time>2016-08-12T20:23:22.000Z</time>
        <extensions>
          <ns3:TrackPointExtension>
            <ns3:atemp>14.0</ns3:atemp>
            <ns3:hr>134</ns3:hr>
          </ns3:TrackPointExtension>
        </extensions>
      </trkpt>
      <trkpt lat="-22.0082841999828815460205078125" lon="166.4547410421073436737060546875">
        <ele>974.20001220703125</ele>
        <time>2016-08-12T20:23:23.000Z</time>
        <extensions>
          <ns3:TrackPointExtension>
            <ns3:atemp>14.0</ns3:atemp>
            <ns3:hr>134</ns3:hr>
          </ns3:TrackPointExtension>
        </extensions>
      </trkpt>
      <trkpt lat="-22.00829300098121166229248046875" lon="166.45473475567996501922607421875">
        <ele>974.20001220703125</ele>
        <time>2016-08-12T20:23:24.000Z</time>
        <extensions>
          <ns3:TrackPointExtension>
            <ns3:atemp>14.0</ns3:atemp>
            <ns3:hr>134</ns3:hr>
          </ns3:TrackPointExtension>
        </extensions>
      </trkpt>
      <trkpt lat="-22.00830406509339809417724609375" lon="166.45472805015742778778076171875">
        <ele>974.4000244140625</ele>
        <time>2016-08-12T20:23:25.000Z</time>
        <extensions>
          <ns3:TrackPointExtension>
            <ns3:atemp>14.0</ns3:atemp>
            <ns3:hr>134</ns3:hr>
          </ns3:TrackPointExtension>
        </extensions>
      </trkpt>
      <trkpt lat="-22.0083130337297916412353515625" lon="166.45472050644457340240478515625">
        <ele>974.4000244140625</ele>
        <time>2016-08-12T20:23:26.000Z</time>
        <extensions>
          <ns3:TrackPointExtension>
            <ns3:atemp>14.0</ns3:atemp>
            <ns3:hr>134</ns3:hr>
          </ns3:TrackPointExtension>
        </extensions>
      </trkpt>
      <trkpt lat="-22.00832434929907321929931640625" lon="166.45471413619816303253173828125">
        <ele>974.5999755859375</ele>
        <time>2016-08-12T20:23:27.000Z</time>
        <extensions>
          <ns3:TrackPointExtension>
            <ns3:atemp>14.0</ns3:atemp>
            <ns3:hr>134</ns3:hr>
          </ns3:TrackPointExtension>
        </extensions>
      </trkpt>
      <trkpt lat="-22.00833440758287906646728515625" lon="166.4547049999237060546875">
        <ele>974.5999755859375</ele>
        <time>2016-08-12T20:23:28.000Z</time>
        <extensions>
          <ns3:TrackPointExtension>
            <ns3:atemp>14.0</ns3:atemp>
            <ns3:hr>133</ns3:hr>
          </ns3:TrackPointExtension>
        </extensions>
      </trkpt>
      <trkpt lat="-22.00834278948605060577392578125" lon="166.45469435490667819976806640625">
        <ele>974.79998779296875</ele>
        <time>2016-08-12T20:23:29.000Z</time>
        <extensions>
          <ns3:TrackPointExtension>
            <ns3:atemp>14.0</ns3:atemp>
            <ns3:hr>133</ns3:hr>
          </ns3:TrackPointExtension>
        </extensions>
      </trkpt>
      <trkpt lat="-22.0083499141037464141845703125" lon="166.45468312315642833709716796875">
        <ele>975.20001220703125</ele>
        <time>2016-08-12T20:23:30.000Z</time>
        <extensions>
          <ns3:TrackPointExtension>
            <ns3:atemp>14.0</ns3:atemp>
            <ns3:hr>133</ns3:hr>
          </ns3:TrackPointExtension>
        </extensions>
      </trkpt>
      <trkpt lat="-22.008358128368854522705078125" lon="166.4546716399490833282470703125">
        <ele>975.5999755859375</ele>
        <time>2016-08-12T20:23:31.000Z</time>
        <extensions>
          <ns3:TrackPointExtension>
            <ns3:atemp>14.0</ns3:atemp>
            <ns3:hr>133</ns3:hr>
          </ns3:TrackPointExtension>
        </extensions>
      </trkpt>
      <trkpt lat="-22.00837212614715099334716796875" lon="166.4546649344265460968017578125">
        <ele>975.79998779296875</ele>
        <time>2016-08-12T20:23:32.000Z</time>
        <extensions>
          <ns3:TrackPointExtension>
            <ns3:atemp>14.0</ns3:atemp>
            <ns3:hr>132</ns3:hr>
          </ns3:TrackPointExtension>
        </extensions>
      </trkpt>
      <trkpt lat="-22.00838620774447917938232421875" lon="166.4546575583517551422119140625">
        <ele>975.79998779296875</ele>
        <time>2016-08-12T20:23:33.000Z</time>
        <extensions>
          <ns3:TrackPointExtension>
            <ns3:atemp>14.0</ns3:atemp>
            <ns3:hr>132</ns3:hr>
          </ns3:TrackPointExtension>
        </extensions>
      </trkpt>
      <trkpt lat="-22.00839894823729991912841796875" lon="166.45464926026761531829833984375">
        <ele>976</ele>
        <time>2016-08-12T20:23:34.000Z</time>
        <extensions>
          <ns3:TrackPointExtension>
            <ns3:atemp>14.0</ns3:atemp>
            <ns3:hr>133</ns3:hr>
          </ns3:TrackPointExtension>
        </extensions>
      </trkpt>
      <trkpt lat="-22.00840967707335948944091796875" lon="166.4546404592692852020263671875">
        <ele>976.4000244140625</ele>
        <time>2016-08-12T20:23:35.000Z</time>
        <extensions>
          <ns3:TrackPointExtension>
            <ns3:atemp>14.0</ns3:atemp>
            <ns3:hr>133</ns3:hr>
          </ns3:TrackPointExtension>
        </extensions>
      </trkpt>
      <trkpt lat="-22.0084194839000701904296875" lon="166.4546337537467479705810546875">
        <ele>976.4000244140625</ele>
        <time>2016-08-12T20:23:36.000Z</time>
        <extensions>
          <ns3:TrackPointExtension>
            <ns3:atemp>14.0</ns3:atemp>
            <ns3:hr>133</ns3:hr>
          </ns3:TrackPointExtension>
        </extensions>
      </trkpt>
      <trkpt lat="-22.00843222439289093017578125" lon="166.4546283893287181854248046875">
        <ele>976.79998779296875</ele>
        <time>2016-08-12T20:23:37.000Z</time>
        <extensions>
          <ns3:TrackPointExtension>
            <ns3:atemp>14.0</ns3:atemp>
            <ns3:hr>133</ns3:hr>
          </ns3:TrackPointExtension>
        </extensions>
      </trkpt>
      <trkpt lat="-22.00844706036150455474853515625" lon="166.45462629385292530059814453125">
        <ele>977</ele>
        <time>2016-08-12T20:23:38.000Z</time>
        <extensions>
          <ns3:TrackPointExtension>
            <ns3:atemp>14.0</ns3:atemp>
            <ns3:hr>134</ns3:hr>
          </ns3:TrackPointExtension>
        </extensions>
      </trkpt>
      <trkpt lat="-22.00845980085432529449462890625" lon="166.4546213485300540924072265625">
        <ele>977</ele>
        <time>2016-08-12T20:23:39.000Z</time>
        <extensions>
          <ns3:TrackPointExtension>
            <ns3:atemp>14.0</ns3:atemp>
            <ns3:hr>134</ns3:hr>
          </ns3:TrackPointExtension>
        </extensions>
      </trkpt>
      <trkpt lat="-22.0084732957184314727783203125" lon="166.45461707375943660736083984375">
        <ele>977.20001220703125</ele>
        <time>2016-08-12T20:23:40.000Z</time>
        <extensions>
          <ns3:TrackPointExtension>
            <ns3:atemp>14.0</ns3:atemp>
            <ns3:hr>134</ns3:hr>
          </ns3:TrackPointExtension>
        </extensions>
      </trkpt>
      <trkpt lat="-22.00848746113479137420654296875" lon="166.4546099491417407989501953125">
        <ele>977.4000244140625</ele>
        <time>2016-08-12T20:23:41.000Z</time>
        <extensions>
          <ns3:TrackPointExtension>
            <ns3:atemp>14.0</ns3:atemp>
            <ns3:hr>134</ns3:hr>
          </ns3:TrackPointExtension>
        </extensions>
      </trkpt>
      <trkpt lat="-22.00849936343729496002197265625" lon="166.45460332743823528289794921875">
        <ele>977.4000244140625</ele>
        <time>2016-08-12T20:23:42.000Z</time>
        <extensions>
          <ns3:TrackPointExtension>
            <ns3:atemp>14.0</ns3:atemp>
            <ns3:hr>135</ns3:hr>
          </ns3:TrackPointExtension>
        </extensions>
      </trkpt>
      <trkpt lat="-22.0085095055401325225830078125" lon="166.4545948617160320281982421875">
        <ele>977.5999755859375</ele>
        <time>2016-08-12T20:23:43.000Z</time>
        <extensions>
          <ns3:TrackPointExtension>
            <ns3:atemp>14.0</ns3:atemp>
            <ns3:hr>134</ns3:hr>
          </ns3:TrackPointExtension>
        </extensions>
      </trkpt>
      <trkpt lat="-22.0085178874433040618896484375" lon="166.45458631217479705810546875">
        <ele>977.5999755859375</ele>
        <time>2016-08-12T20:23:44.000Z</time>
        <extensions>
          <ns3:TrackPointExtension>
            <ns3:atemp>14.0</ns3:atemp>
            <ns3:hr>135</ns3:hr>
          </ns3:TrackPointExtension>
        </extensions>
      </trkpt>
      <trkpt lat="-22.0085267722606658935546875" lon="166.45457633771002292633056640625">
        <ele>977.79998779296875</ele>
        <time>2016-08-12T20:23:45.000Z</time>
        <extensions>
          <ns3:TrackPointExtension>
            <ns3:atemp>14.0</ns3:atemp>
            <ns3:hr>135</ns3:hr>
          </ns3:TrackPointExtension>
        </extensions>
      </trkpt>
      <trkpt lat="-22.00853590853512287139892578125" lon="166.45456728525459766387939453125">
        <ele>978</ele>
        <time>2016-08-12T20:23:46.000Z</time>
        <extensions>
          <ns3:TrackPointExtension>
            <ns3:atemp>14.0</ns3:atemp>
            <ns3:hr>135</ns3:hr>
          </ns3:TrackPointExtension>
        </extensions>
      </trkpt>
      <trkpt lat="-22.00854579918086528778076171875" lon="166.45455538295209407806396484375">
        <ele>978</ele>
        <time>2016-08-12T20:23:47.000Z</time>
        <extensions>
          <ns3:TrackPointExtension>
            <ns3:atemp>14.0</ns3:atemp>
            <ns3:hr>135</ns3:hr>
          </ns3:TrackPointExtension>
        </extensions>
      </trkpt>
      <trkpt lat="-22.008555941283702850341796875" lon="166.4545428939163684844970703125">
        <ele>978</ele>
        <time>2016-08-12T20:23:48.000Z</time>
        <extensions>
          <ns3:TrackPointExtension>
            <ns3:atemp>14.0</ns3:atemp>
            <ns3:hr>136</ns3:hr>
          </ns3:TrackPointExtension>
        </extensions>
      </trkpt>
      <trkpt lat="-22.00856625102460384368896484375" lon="166.454533003270626068115234375">
        <ele>978</ele>
        <time>2016-08-12T20:23:49.000Z</time>
        <extensions>
          <ns3:TrackPointExtension>
            <ns3:atemp>14.0</ns3:atemp>
            <ns3:hr>136</ns3:hr>
          </ns3:TrackPointExtension>
        </extensions>
      </trkpt>
      <trkpt lat="-22.00857597403228282928466796875" lon="166.454520933330059051513671875">
        <ele>978.20001220703125</ele>
        <time>2016-08-12T20:23:50.000Z</time>
        <extensions>
          <ns3:TrackPointExtension>
            <ns3:atemp>14.0</ns3:atemp>
            <ns3:hr>136</ns3:hr>
          </ns3:TrackPointExtension>
        </extensions>
      </trkpt>
      <trkpt lat="-22.0085842721164226531982421875" lon="166.454507522284984588623046875">
        <ele>978.20001220703125</ele>
        <time>2016-08-12T20:23:51.000Z</time>
        <extensions>
          <ns3:TrackPointExtension>
            <ns3:atemp>14.0</ns3:atemp>
            <ns3:hr>135</ns3:hr>
          </ns3:TrackPointExtension>
        </extensions>
      </trkpt>
      <trkpt lat="-22.0085913129150867462158203125" lon="166.45449620671570301055908203125">
        <ele>978.20001220703125</ele>
        <time>2016-08-12T20:23:52.000Z</time>
        <extensions>
          <ns3:TrackPointExtension>
            <ns3:atemp>14.0</ns3:atemp>
            <ns3:hr>135</ns3:hr>
          </ns3:TrackPointExtension>
        </extensions>
      </trkpt>
      <trkpt lat="-22.00860145501792430877685546875" lon="166.4544862322509288787841796875">
        <ele>978.20001220703125</ele>
        <time>2016-08-12T20:23:53.000Z</time>
        <extensions>
          <ns3:TrackPointExtension>
            <ns3:atemp>14.0</ns3:atemp>
            <ns3:hr>135</ns3:hr>
          </ns3:TrackPointExtension>
        </extensions>
      </trkpt>
      <trkpt lat="-22.0086131058633327484130859375" lon="166.454473994672298431396484375">
        <ele>978.4000244140625</ele>
        <time>2016-08-12T20:23:54.000Z</time>
        <extensions>
          <ns3:TrackPointExtension>
            <ns3:atemp>14.0</ns3:atemp>
            <ns3:hr>135</ns3:hr>
          </ns3:TrackPointExtension>
        </extensions>
      </trkpt>
      <trkpt lat="-22.00862324796617031097412109375" lon="166.45446351729333400726318359375">
        <ele>978.5999755859375</ele>
        <time>2016-08-12T20:23:55.000Z</time>
        <extensions>
          <ns3:TrackPointExtension>
            <ns3:atemp>14.0</ns3:atemp>
            <ns3:hr>135</ns3:hr>
          </ns3:TrackPointExtension>
        </extensions>
      </trkpt>
      <trkpt lat="-22.0086338929831981658935546875" lon="166.4544580690562725067138671875">
        <ele>978.5999755859375</ele>
        <time>2016-08-12T20:23:56.000Z</time>
        <extensions>
          <ns3:TrackPointExtension>
            <ns3:atemp>14.0</ns3:atemp>
            <ns3:hr>135</ns3:hr>
          </ns3:TrackPointExtension>
        </extensions>
      </trkpt>
      <trkpt lat="-22.008646465837955474853515625" lon="166.45445362664759159088134765625">
        <ele>978.79998779296875</ele>
        <time>2016-08-12T20:23:57.000Z</time>
        <extensions>
          <ns3:TrackPointExtension>
            <ns3:atemp>14.0</ns3:atemp>
            <ns3:hr>135</ns3:hr>
          </ns3:TrackPointExtension>
        </extensions>
      </trkpt>
      <trkpt lat="-22.0086590386927127838134765625" lon="166.45444775931537151336669921875">
        <ele>978.79998779296875</ele>
        <time>2016-08-12T20:23:58.000Z</time>
        <extensions>
          <ns3:TrackPointExtension>
            <ns3:atemp>14.0</ns3:atemp>
            <ns3:hr>134</ns3:hr>
          </ns3:TrackPointExtension>
        </extensions>
      </trkpt>
      <trkpt lat="-22.0086707733571529388427734375" lon="166.45444055087864398956298828125">
        <ele>979</ele>
        <time>2016-08-12T20:23:59.000Z</time>
        <extensions>
          <ns3:TrackPointExtension>
            <ns3:atemp>14.0</ns3:atemp>
            <ns3:hr>134</ns3:hr>
          </ns3:TrackPointExtension>
        </extensions>
      </trkpt>
      <trkpt lat="-22.0086811669170856475830078125" lon="166.4544325880706310272216796875">
        <ele>979.20001220703125</ele>
        <time>2016-08-12T20:24:00.000Z</time>
        <extensions>
          <ns3:TrackPointExtension>
            <ns3:atemp>14.0</ns3:atemp>
            <ns3:hr>135</ns3:hr>
          </ns3:TrackPointExtension>
        </extensions>
      </trkpt>
      <trkpt lat="-22.00869466178119182586669921875" lon="166.4544181711971759796142578125">
        <ele>979.5999755859375</ele>
        <time>2016-08-12T20:24:01.000Z</time>
        <extensions>
          <ns3:TrackPointExtension>
            <ns3:atemp>14.0</ns3:atemp>
            <ns3:hr>134</ns3:hr>
          </ns3:TrackPointExtension>
        </extensions>
      </trkpt>
      <trkpt lat="-22.0087056420743465423583984375" lon="166.45440467633306980133056640625">
        <ele>979.5999755859375</ele>
        <time>2016-08-12T20:24:02.000Z</time>
        <extensions>
          <ns3:TrackPointExtension>
            <ns3:atemp>14.0</ns3:atemp>
            <ns3:hr>134</ns3:hr>
          </ns3:TrackPointExtension>
        </extensions>
      </trkpt>
      <trkpt lat="-22.00871477834880352020263671875" lon="166.454393863677978515625">
        <ele>979.5999755859375</ele>
        <time>2016-08-12T20:24:03.000Z</time>
        <extensions>
          <ns3:TrackPointExtension>
            <ns3:atemp>14.0</ns3:atemp>
            <ns3:hr>134</ns3:hr>
          </ns3:TrackPointExtension>
        </extensions>
      </trkpt>
      <trkpt lat="-22.0087234117090702056884765625" lon="166.4543836377561092376708984375">
        <ele>979.79998779296875</ele>
        <time>2016-08-12T20:24:04.000Z</time>
        <extensions>
          <ns3:TrackPointExtension>
            <ns3:atemp>14.0</ns3:atemp>
            <ns3:hr>134</ns3:hr>
          </ns3:TrackPointExtension>
        </extensions>
      </trkpt>
      <trkpt lat="-22.0087321288883686065673828125" lon="166.4543712325394153594970703125">
        <ele>980</ele>
        <time>2016-08-12T20:24:05.000Z</time>
        <extensions>
          <ns3:TrackPointExtension>
            <ns3:atemp>14.0</ns3:atemp>
            <ns3:hr>134</ns3:hr>
          </ns3:TrackPointExtension>
        </extensions>
      </trkpt>
      <trkpt lat="-22.00874210335314273834228515625" lon="166.45436008460819721221923828125">
        <ele>980.20001220703125</ele>
        <time>2016-08-12T20:24:06.000Z</time>
        <extensions>
          <ns3:TrackPointExtension>
            <ns3:atemp>14.0</ns3:atemp>
            <ns3:hr>133</ns3:hr>
          </ns3:TrackPointExtension>
        </extensions>
      </trkpt>
      <trkpt lat="-22.00875132344663143157958984375" lon="166.4543522894382476806640625">
        <ele>980.4000244140625</ele>
        <time>2016-08-12T20:24:07.000Z</time>
        <extensions>
          <ns3:TrackPointExtension>
            <ns3:atemp>14.0</ns3:atemp>
            <ns3:hr>134</ns3:hr>
          </ns3:TrackPointExtension>
        </extensions>
      </trkpt>
      <trkpt lat="-22.0087609626352787017822265625" lon="166.45434415899217128753662109375">
        <ele>980.4000244140625</ele>
        <time>2016-08-12T20:24:08.000Z</time>
        <extensions>
          <ns3:TrackPointExtension>
            <ns3:atemp>14.0</ns3:atemp>
            <ns3:hr>133</ns3:hr>
          </ns3:TrackPointExtension>
        </extensions>
      </trkpt>
      <trkpt lat="-22.00877160765230655670166015625" lon="166.45433896221220493316650390625">
        <ele>980.5999755859375</ele>
        <time>2016-08-12T20:24:09.000Z</time>
        <extensions>
          <ns3:TrackPointExtension>
            <ns3:atemp>14.0</ns3:atemp>
            <ns3:hr>133</ns3:hr>
          </ns3:TrackPointExtension>
        </extensions>
      </trkpt>
      <trkpt lat="-22.00878183357417583465576171875" lon="166.4543346874415874481201171875">
        <ele>980.79998779296875</ele>
        <time>2016-08-12T20:24:10.000Z</time>
        <extensions>
          <ns3:TrackPointExtension>
            <ns3:atemp>14.0</ns3:atemp>
            <ns3:hr>133</ns3:hr>
          </ns3:TrackPointExtension>
        </extensions>
      </trkpt>
      <trkpt lat="-22.00879189185798168182373046875" lon="166.454331167042255401611328125">
        <ele>981</ele>
        <time>2016-08-12T20:24:11.000Z</time>
        <extensions>
          <ns3:TrackPointExtension>
            <ns3:atemp>14.0</ns3:atemp>
            <ns3:hr>133</ns3:hr>
          </ns3:TrackPointExtension>
        </extensions>
      </trkpt>
      <trkpt lat="-22.00880127958953380584716796875" lon="166.4543273113667964935302734375">
        <ele>981.20001220703125</ele>
        <time>2016-08-12T20:24:12.000Z</time>
        <extensions>
          <ns3:TrackPointExtension>
            <ns3:atemp>14.0</ns3:atemp>
            <ns3:hr>133</ns3:hr>
          </ns3:TrackPointExtension>
        </extensions>
      </trkpt>
      <trkpt lat="-22.0088095776736736297607421875" lon="166.45432353951036930084228515625">
        <ele>981.4000244140625</ele>
        <time>2016-08-12T20:24:13.000Z</time>
        <extensions>
          <ns3:TrackPointExtension>
            <ns3:atemp>14.0</ns3:atemp>
            <ns3:hr>132</ns3:hr>
          </ns3:TrackPointExtension>
        </extensions>
      </trkpt>
      <trkpt lat="-22.00882072560489177703857421875" lon="166.45432119257748126983642578125">
        <ele>981.4000244140625</ele>
        <time>2016-08-12T20:24:14.000Z</time>
        <extensions>
          <ns3:TrackPointExtension>
            <ns3:atemp>14.0</ns3:atemp>
            <ns3:hr>132</ns3:hr>
          </ns3:TrackPointExtension>
        </extensions>
      </trkpt>
      <trkpt lat="-22.0088333822786808013916015625" lon="166.45432353951036930084228515625">
        <ele>981.5999755859375</ele>
        <time>2016-08-12T20:24:15.000Z</time>
        <extensions>
          <ns3:TrackPointExtension>
            <ns3:atemp>14.0</ns3:atemp>
            <ns3:hr>132</ns3:hr>
          </ns3:TrackPointExtension>
        </extensions>
      </trkpt>
      <trkpt lat="-22.00884453020989894866943359375" lon="166.45432873629033565521240234375">
        <ele>982</ele>
        <time>2016-08-12T20:24:16.000Z</time>
        <extensions>
          <ns3:TrackPointExtension>
            <ns3:atemp>14.0</ns3:atemp>
            <ns3:hr>132</ns3:hr>
          </ns3:TrackPointExtension>
        </extensions>
      </trkpt>
      <trkpt lat="-22.00885492376983165740966796875" lon="166.4543316699564456939697265625">
        <ele>982</ele>
        <time>2016-08-12T20:24:17.000Z</time>
        <extensions>
          <ns3:TrackPointExtension>
            <ns3:atemp>14.0</ns3:atemp>
            <ns3:hr>133</ns3:hr>
          </ns3:TrackPointExtension>
        </extensions>
      </trkpt>
      <trkpt lat="-22.00886984355747699737548828125" lon="166.45433326251804828643798828125">
        <ele>982.20001220703125</ele>
        <time>2016-08-12T20:24:18.000Z</time>
        <extensions>
          <ns3:TrackPointExtension>
            <ns3:atemp>14.0</ns3:atemp>
            <ns3:hr>133</ns3:hr>
          </ns3:TrackPointExtension>
        </extensions>
      </trkpt>
      <trkpt lat="-22.0088835060596466064453125" lon="166.4543393813073635101318359375">
        <ele>982.4000244140625</ele>
        <time>2016-08-12T20:24:19.000Z</time>
        <extensions>
          <ns3:TrackPointExtension>
            <ns3:atemp>14.0</ns3:atemp>
            <ns3:hr>133</ns3:hr>
          </ns3:TrackPointExtension>
        </extensions>
      </trkpt>
      <trkpt lat="-22.00889364816248416900634765625" lon="166.45434097386896610260009765625">
        <ele>982.5999755859375</ele>
        <time>2016-08-12T20:24:20.000Z</time>
        <extensions>
          <ns3:TrackPointExtension>
            <ns3:atemp>14.0</ns3:atemp>
            <ns3:hr>132</ns3:hr>
          </ns3:TrackPointExtension>
        </extensions>
      </trkpt>
      <trkpt lat="-22.00890454463660717010498046875" lon="166.45434130914509296417236328125">
        <ele>982.79998779296875</ele>
        <time>2016-08-12T20:24:21.000Z</time>
        <extensions>
          <ns3:TrackPointExtension>
            <ns3:atemp>14.0</ns3:atemp>
            <ns3:hr>132</ns3:hr>
          </ns3:TrackPointExtension>
        </extensions>
      </trkpt>
      <trkpt lat="-22.00891477055847644805908203125" lon="166.45434164442121982574462890625">
        <ele>983</ele>
        <time>2016-08-12T20:24:22.000Z</time>
        <extensions>
          <ns3:TrackPointExtension>
            <ns3:atemp>14.0</ns3:atemp>
            <ns3:hr>133</ns3:hr>
          </ns3:TrackPointExtension>
        </extensions>
      </trkpt>
      <trkpt lat="-22.00892650522291660308837890625" lon="166.45434449426829814910888671875">
        <ele>983.20001220703125</ele>
        <time>2016-08-12T20:24:23.000Z</time>
        <extensions>
          <ns3:TrackPointExtension>
            <ns3:atemp>14.0</ns3:atemp>
            <ns3:hr>133</ns3:hr>
          </ns3:TrackPointExtension>
        </extensions>
      </trkpt>
      <trkpt lat="-22.00893740169703960418701171875" lon="166.4543491043150424957275390625">
        <ele>983.4000244140625</ele>
        <time>2016-08-12T20:24:24.000Z</time>
        <extensions>
          <ns3:TrackPointExtension>
            <ns3:atemp>14.0</ns3:atemp>
            <ns3:hr>133</ns3:hr>
          </ns3:TrackPointExtension>
        </extensions>
      </trkpt>
      <trkpt lat="-22.00894796289503574371337890625" lon="166.45435606129467487335205078125">
        <ele>983.5999755859375</ele>
        <time>2016-08-12T20:24:25.000Z</time>
        <extensions>
          <ns3:TrackPointExtension>
            <ns3:atemp>14.0</ns3:atemp>
            <ns3:hr>133</ns3:hr>
          </ns3:TrackPointExtension>
        </extensions>
      </trkpt>
      <trkpt lat="-22.00895885936915874481201171875" lon="166.454360671341419219970703125">
        <ele>983.79998779296875</ele>
        <time>2016-08-12T20:24:26.000Z</time>
        <extensions>
          <ns3:TrackPointExtension>
            <ns3:atemp>14.0</ns3:atemp>
            <ns3:hr>133</ns3:hr>
          </ns3:TrackPointExtension>
        </extensions>
      </trkpt>
      <trkpt lat="-22.0089725218713283538818359375" lon="166.45436176098883152008056640625">
        <ele>984</ele>
        <time>2016-08-12T20:24:27.000Z</time>
        <extensions>
          <ns3:TrackPointExtension>
            <ns3:atemp>14.0</ns3:atemp>
            <ns3:hr>134</ns3:hr>
          </ns3:TrackPointExtension>
        </extensions>
      </trkpt>
      <trkpt lat="-22.00898434035480022430419921875" lon="166.454360671341419219970703125">
        <ele>984.20001220703125</ele>
        <time>2016-08-12T20:24:28.000Z</time>
        <extensions>
          <ns3:TrackPointExtension>
            <ns3:atemp>14.0</ns3:atemp>
            <ns3:hr>134</ns3:hr>
          </ns3:TrackPointExtension>
        </extensions>
      </trkpt>
      <trkpt lat="-22.008997164666652679443359375" lon="166.45435488782823085784912109375">
        <ele>984.4000244140625</ele>
        <time>2016-08-12T20:24:29.000Z</time>
        <extensions>
          <ns3:TrackPointExtension>
            <ns3:atemp>14.0</ns3:atemp>
            <ns3:hr>134</ns3:hr>
          </ns3:TrackPointExtension>
        </extensions>
      </trkpt>
      <trkpt lat="-22.00901024043560028076171875" lon="166.45435069687664508819580078125">
        <ele>984.5999755859375</ele>
        <time>2016-08-12T20:24:30.000Z</time>
        <extensions>
          <ns3:TrackPointExtension>
            <ns3:atemp>14.0</ns3:atemp>
            <ns3:hr>134</ns3:hr>
          </ns3:TrackPointExtension>
        </extensions>
      </trkpt>
      <trkpt lat="-22.0090251602232456207275390625" lon="166.45433845929801464080810546875">
        <ele>984.79998779296875</ele>
        <time>2016-08-12T20:24:31.000Z</time>
        <extensions>
          <ns3:TrackPointExtension>
            <ns3:atemp>14.0</ns3:atemp>
            <ns3:hr>135</ns3:hr>
          </ns3:TrackPointExtension>
        </extensions>
      </trkpt>
      <trkpt lat="-22.00903982855379581451416015625" lon="166.45432747900485992431640625">
        <ele>984.79998779296875</ele>
        <time>2016-08-12T20:24:32.000Z</time>
        <extensions>
          <ns3:TrackPointExtension>
            <ns3:atemp>14.0</ns3:atemp>
            <ns3:hr>135</ns3:hr>
          </ns3:TrackPointExtension>
        </extensions>
      </trkpt>
      <trkpt lat="-22.00904938392341136932373046875" lon="166.454311050474643707275390625">
        <ele>985</ele>
        <time>2016-08-12T20:24:33.000Z</time>
        <extensions>
          <ns3:TrackPointExtension>
            <ns3:atemp>14.0</ns3:atemp>
            <ns3:hr>135</ns3:hr>
          </ns3:TrackPointExtension>
        </extensions>
      </trkpt>
      <trkpt lat="-22.0090536586940288543701171875" lon="166.4542905986309051513671875">
        <ele>985</ele>
        <time>2016-08-12T20:24:34.000Z</time>
        <extensions>
          <ns3:TrackPointExtension>
            <ns3:atemp>14.0</ns3:atemp>
            <ns3:hr>135</ns3:hr>
          </ns3:TrackPointExtension>
        </extensions>
      </trkpt>
      <trkpt lat="-22.009056843817234039306640625" lon="166.45427173934876918792724609375">
        <ele>985.20001220703125</ele>
        <time>2016-08-12T20:24:35.000Z</time>
        <extensions>
          <ns3:TrackPointExtension>
            <ns3:atemp>14.0</ns3:atemp>
            <ns3:hr>135</ns3:hr>
          </ns3:TrackPointExtension>
        </extensions>
      </trkpt>
      <trkpt lat="-22.00905927456915378570556640625" lon="166.4542543888092041015625">
        <ele>985.4000244140625</ele>
        <time>2016-08-12T20:24:36.000Z</time>
        <extensions>
          <ns3:TrackPointExtension>
            <ns3:atemp>14.0</ns3:atemp>
            <ns3:hr>135</ns3:hr>
          </ns3:TrackPointExtension>
        </extensions>
      </trkpt>
      <trkpt lat="-22.00906388461589813232421875" lon="166.4542364515364170074462890625">
        <ele>985.4000244140625</ele>
        <time>2016-08-12T20:24:37.000Z</time>
        <extensions>
          <ns3:TrackPointExtension>
            <ns3:atemp>14.0</ns3:atemp>
            <ns3:hr>135</ns3:hr>
          </ns3:TrackPointExtension>
        </extensions>
      </trkpt>
      <trkpt lat="-22.0090710930526256561279296875" lon="166.45422262139618396759033203125">
        <ele>985.5999755859375</ele>
        <time>2016-08-12T20:24:38.000Z</time>
        <extensions>
          <ns3:TrackPointExtension>
            <ns3:atemp>14.0</ns3:atemp>
            <ns3:hr>135</ns3:hr>
          </ns3:TrackPointExtension>
        </extensions>
      </trkpt>
      <trkpt lat="-22.009080313146114349365234375" lon="166.45421038381755352020263671875">
        <ele>985.5999755859375</ele>
        <time>2016-08-12T20:24:39.000Z</time>
        <extensions>
          <ns3:TrackPointExtension>
            <ns3:atemp>14.0</ns3:atemp>
            <ns3:hr>135</ns3:hr>
          </ns3:TrackPointExtension>
        </extensions>
      </trkpt>
      <trkpt lat="-22.00908626429736614227294921875" lon="166.45419538021087646484375">
        <ele>985.5999755859375</ele>
        <time>2016-08-12T20:24:40.000Z</time>
        <extensions>
          <ns3:TrackPointExtension>
            <ns3:atemp>14.0</ns3:atemp>
            <ns3:hr>135</ns3:hr>
          </ns3:TrackPointExtension>
        </extensions>
      </trkpt>
      <trkpt lat="-22.0090935565531253814697265625" lon="166.4541824720799922943115234375">
        <ele>985.5999755859375</ele>
        <time>2016-08-12T20:24:41.000Z</time>
        <extensions>
          <ns3:TrackPointExtension>
            <ns3:atemp>14.0</ns3:atemp>
            <ns3:hr>135</ns3:hr>
          </ns3:TrackPointExtension>
        </extensions>
      </trkpt>
      <trkpt lat="-22.00909984298050403594970703125" lon="166.45416813902556896209716796875">
        <ele>985.5999755859375</ele>
        <time>2016-08-12T20:24:42.000Z</time>
        <extensions>
          <ns3:TrackPointExtension>
            <ns3:atemp>14.0</ns3:atemp>
            <ns3:hr>134</ns3:hr>
          </ns3:TrackPointExtension>
        </extensions>
      </trkpt>
      <trkpt lat="-22.00910537503659725189208984375" lon="166.45415824837982654571533203125">
        <ele>985.5999755859375</ele>
        <time>2016-08-12T20:24:43.000Z</time>
        <extensions>
          <ns3:TrackPointExtension>
            <ns3:atemp>14.0</ns3:atemp>
            <ns3:hr>134</ns3:hr>
          </ns3:TrackPointExtension>
        </extensions>
      </trkpt>
      <trkpt lat="-22.00911208055913448333740234375" lon="166.45414911210536956787109375">
        <ele>985.79998779296875</ele>
        <time>2016-08-12T20:24:44.000Z</time>
        <extensions>
          <ns3:TrackPointExtension>
            <ns3:atemp>14.0</ns3:atemp>
            <ns3:hr>134</ns3:hr>
          </ns3:TrackPointExtension>
        </extensions>
      </trkpt>
      <trkpt lat="-22.00912096537649631500244140625" lon="166.45414031110703945159912109375">
        <ele>986.4000244140625</ele>
        <time>2016-08-12T20:24:45.000Z</time>
        <extensions>
          <ns3:TrackPointExtension>
            <ns3:atemp>14.0</ns3:atemp>
            <ns3:hr>134</ns3:hr>
          </ns3:TrackPointExtension>
        </extensions>
      </trkpt>
      <trkpt lat="-22.00913270004093647003173828125" lon="166.4541323482990264892578125">
        <ele>986.5999755859375</ele>
        <time>2016-08-12T20:24:46.000Z</time>
        <extensions>
          <ns3:TrackPointExtension>
            <ns3:atemp>14.0</ns3:atemp>
            <ns3:hr>134</ns3:hr>
          </ns3:TrackPointExtension>
        </extensions>
      </trkpt>
      <trkpt lat="-22.0091455243527889251708984375" lon="166.45412706770002841949462890625">
        <ele>986.79998779296875</ele>
        <time>2016-08-12T20:24:47.000Z</time>
        <extensions>
          <ns3:TrackPointExtension>
            <ns3:atemp>14.0</ns3:atemp>
            <ns3:hr>135</ns3:hr>
          </ns3:TrackPointExtension>
        </extensions>
      </trkpt>
      <trkpt lat="-22.00915734283626079559326171875" lon="166.45412555895745754241943359375">
        <ele>987.20001220703125</ele>
        <time>2016-08-12T20:24:48.000Z</time>
        <extensions>
          <ns3:TrackPointExtension>
            <ns3:atemp>14.0</ns3:atemp>
            <ns3:hr>135</ns3:hr>
          </ns3:TrackPointExtension>
        </extensions>
      </trkpt>
      <trkpt lat="-22.00917276553809642791748046875" lon="166.45411969162523746490478515625">
        <ele>987.20001220703125</ele>
        <time>2016-08-12T20:24:49.000Z</time>
        <extensions>
          <ns3:TrackPointExtension>
            <ns3:atemp>14.0</ns3:atemp>
            <ns3:hr>135</ns3:hr>
          </ns3:TrackPointExtension>
        </extensions>
      </trkpt>
      <trkpt lat="-22.009185254573822021484375" lon="166.45411248318850994110107421875">
        <ele>987.4000244140625</ele>
        <time>2016-08-12T20:24:50.000Z</time>
        <extensions>
          <ns3:TrackPointExtension>
            <ns3:atemp>14.0</ns3:atemp>
            <ns3:hr>135</ns3:hr>
          </ns3:TrackPointExtension>
        </extensions>
      </trkpt>
      <trkpt lat="-22.0092001743614673614501953125" lon="166.45410745404660701751708984375">
        <ele>987.4000244140625</ele>
        <time>2016-08-12T20:24:51.000Z</time>
        <extensions>
          <ns3:TrackPointExtension>
            <ns3:atemp>14.0</ns3:atemp>
            <ns3:hr>135</ns3:hr>
          </ns3:TrackPointExtension>
        </extensions>
      </trkpt>
      <trkpt lat="-22.0092145912349224090576171875" lon="166.454101167619228363037109375">
        <ele>987.5999755859375</ele>
        <time>2016-08-12T20:24:52.000Z</time>
        <extensions>
          <ns3:TrackPointExtension>
            <ns3:atemp>14.0</ns3:atemp>
            <ns3:hr>136</ns3:hr>
          </ns3:TrackPointExtension>
        </extensions>
      </trkpt>
      <trkpt lat="-22.0092290081083774566650390625" lon="166.45409421063959598541259765625">
        <ele>987.79998779296875</ele>
        <time>2016-08-12T20:24:53.000Z</time>
        <extensions>
          <ns3:TrackPointExtension>
            <ns3:atemp>14.0</ns3:atemp>
            <ns3:hr>136</ns3:hr>
          </ns3:TrackPointExtension>
        </extensions>
      </trkpt>
      <trkpt lat="-22.00924200005829334259033203125" lon="166.454086415469646453857421875">
        <ele>988</ele>
        <time>2016-08-12T20:24:54.000Z</time>
        <extensions>
          <ns3:TrackPointExtension>
            <ns3:atemp>14.0</ns3:atemp>
            <ns3:hr>136</ns3:hr>
          </ns3:TrackPointExtension>
        </extensions>
      </trkpt>
      <trkpt lat="-22.00925507582724094390869140625" lon="166.45408180542290210723876953125">
        <ele>988.20001220703125</ele>
        <time>2016-08-12T20:24:55.000Z</time>
        <extensions>
          <ns3:TrackPointExtension>
            <ns3:atemp>14.0</ns3:atemp>
            <ns3:hr>136</ns3:hr>
          </ns3:TrackPointExtension>
        </extensions>
      </trkpt>
      <trkpt lat="-22.00926982797682285308837890625" lon="166.45407929085195064544677734375">
        <ele>988.20001220703125</ele>
        <time>2016-08-12T20:24:56.000Z</time>
        <extensions>
          <ns3:TrackPointExtension>
            <ns3:atemp>14.0</ns3:atemp>
            <ns3:hr>136</ns3:hr>
          </ns3:TrackPointExtension>
        </extensions>
      </trkpt>
      <trkpt lat="-22.00928374193608760833740234375" lon="166.4540748484432697296142578125">
        <ele>988.4000244140625</ele>
        <time>2016-08-12T20:24:57.000Z</time>
        <extensions>
          <ns3:TrackPointExtension>
            <ns3:atemp>14.0</ns3:atemp>
            <ns3:hr>136</ns3:hr>
          </ns3:TrackPointExtension>
        </extensions>
      </trkpt>
      <trkpt lat="-22.0092974044382572174072265625" lon="166.4540698193013668060302734375">
        <ele>988.5999755859375</ele>
        <time>2016-08-12T20:24:58.000Z</time>
        <extensions>
          <ns3:TrackPointExtension>
            <ns3:atemp>14.0</ns3:atemp>
            <ns3:hr>136</ns3:hr>
          </ns3:TrackPointExtension>
        </extensions>
      </trkpt>
      <trkpt lat="-22.009308636188507080078125" lon="166.4540671370923519134521484375">
        <ele>988.79998779296875</ele>
        <time>2016-08-12T20:24:59.000Z</time>
        <extensions>
          <ns3:TrackPointExtension>
            <ns3:atemp>14.0</ns3:atemp>
            <ns3:hr>136</ns3:hr>
          </ns3:TrackPointExtension>
        </extensions>
      </trkpt>
      <trkpt lat="-22.00931810773909091949462890625" lon="166.45406487397849559783935546875">
        <ele>989</ele>
        <time>2016-08-12T20:25:00.000Z</time>
        <extensions>
          <ns3:TrackPointExtension>
            <ns3:atemp>14.0</ns3:atemp>
            <ns3:hr>136</ns3:hr>
          </ns3:TrackPointExtension>
        </extensions>
      </trkpt>
      <trkpt lat="-22.00932749547064304351806640625" lon="166.454060263931751251220703125">
        <ele>989</ele>
        <time>2016-08-12T20:25:01.000Z</time>
        <extensions>
          <ns3:TrackPointExtension>
            <ns3:atemp>14.0</ns3:atemp>
            <ns3:hr>136</ns3:hr>
          </ns3:TrackPointExtension>
        </extensions>
      </trkpt>
      <trkpt lat="-22.00933923013508319854736328125" lon="166.45405590534210205078125">
        <ele>989</ele>
        <time>2016-08-12T20:25:02.000Z</time>
        <extensions>
          <ns3:TrackPointExtension>
            <ns3:atemp>14.0</ns3:atemp>
            <ns3:hr>135</ns3:hr>
          </ns3:TrackPointExtension>
        </extensions>
      </trkpt>
      <trkpt lat="-22.00935163535177707672119140625" lon="166.454051546752452850341796875">
        <ele>989.20001220703125</ele>
        <time>2016-08-12T20:25:03.000Z</time>
        <extensions>
          <ns3:TrackPointExtension>
            <ns3:atemp>14.0</ns3:atemp>
            <ns3:hr>135</ns3:hr>
          </ns3:TrackPointExtension>
        </extensions>
      </trkpt>
      <trkpt lat="-22.00936370529234409332275390625" lon="166.45405062474310398101806640625">
        <ele>989.20001220703125</ele>
        <time>2016-08-12T20:25:04.000Z</time>
        <extensions>
          <ns3:TrackPointExtension>
            <ns3:atemp>14.0</ns3:atemp>
            <ns3:hr>135</ns3:hr>
          </ns3:TrackPointExtension>
        </extensions>
      </trkpt>
      <trkpt lat="-22.00937543995678424835205078125" lon="166.4540543965995311737060546875">
        <ele>989.4000244140625</ele>
        <time>2016-08-12T20:25:05.000Z</time>
        <extensions>
          <ns3:TrackPointExtension>
            <ns3:atemp>14.0</ns3:atemp>
            <ns3:hr>135</ns3:hr>
          </ns3:TrackPointExtension>
        </extensions>
      </trkpt>
      <trkpt lat="-22.00938968919217586517333984375" lon="166.45405598916113376617431640625">
        <ele>989.5999755859375</ele>
        <time>2016-08-12T20:25:06.000Z</time>
        <extensions>
          <ns3:TrackPointExtension>
            <ns3:atemp>14.0</ns3:atemp>
            <ns3:hr>135</ns3:hr>
          </ns3:TrackPointExtension>
        </extensions>
      </trkpt>
      <trkpt lat="-22.009404189884662628173828125" lon="166.45405448041856288909912109375">
        <ele>989.79998779296875</ele>
        <time>2016-08-12T20:25:07.000Z</time>
        <extensions>
          <ns3:TrackPointExtension>
            <ns3:atemp>14.0</ns3:atemp>
            <ns3:hr>135</ns3:hr>
          </ns3:TrackPointExtension>
        </extensions>
      </trkpt>
      <trkpt lat="-22.0094181038439273834228515625" lon="166.454048864543437957763671875">
        <ele>990</ele>
        <time>2016-08-12T20:25:08.000Z</time>
        <extensions>
          <ns3:TrackPointExtension>
            <ns3:atemp>14.0</ns3:atemp>
            <ns3:hr>135</ns3:hr>
          </ns3:TrackPointExtension>
        </extensions>
      </trkpt>
      <trkpt lat="-22.00942992232739925384521484375" lon="166.45404341630637645721435546875">
        <ele>990</ele>
        <time>2016-08-12T20:25:09.000Z</time>
        <extensions>
          <ns3:TrackPointExtension>
            <ns3:atemp>14.0</ns3:atemp>
            <ns3:hr>135</ns3:hr>
          </ns3:TrackPointExtension>
        </extensions>
      </trkpt>
      <trkpt lat="-22.00944207608699798583984375" lon="166.45403671078383922576904296875">
        <ele>990.20001220703125</ele>
        <time>2016-08-12T20:25:10.000Z</time>
        <extensions>
          <ns3:TrackPointExtension>
            <ns3:atemp>14.0</ns3:atemp>
            <ns3:hr>135</ns3:hr>
          </ns3:TrackPointExtension>
        </extensions>
      </trkpt>
      <trkpt lat="-22.00945339165627956390380859375" lon="166.454031765460968017578125">
        <ele>990</ele>
        <time>2016-08-12T20:25:11.000Z</time>
        <extensions>
          <ns3:TrackPointExtension>
            <ns3:atemp>14.0</ns3:atemp>
            <ns3:hr>135</ns3:hr>
          </ns3:TrackPointExtension>
        </extensions>
      </trkpt>
      <trkpt lat="-22.0094673894345760345458984375" lon="166.4540258981287479400634765625">
        <ele>990</ele>
        <time>2016-08-12T20:25:12.000Z</time>
        <extensions>
          <ns3:TrackPointExtension>
            <ns3:atemp>14.0</ns3:atemp>
            <ns3:hr>135</ns3:hr>
          </ns3:TrackPointExtension>
        </extensions>
      </trkpt>
      <trkpt lat="-22.0094808004796504974365234375" lon="166.4540181867778301239013671875">
        <ele>990</ele>
        <time>2016-08-12T20:25:13.000Z</time>
        <extensions>
          <ns3:TrackPointExtension>
            <ns3:atemp>14.0</ns3:atemp>
            <ns3:hr>135</ns3:hr>
          </ns3:TrackPointExtension>
        </extensions>
      </trkpt>
      <trkpt lat="-22.00949328951537609100341796875" lon="166.45401089452207088470458984375">
        <ele>990.20001220703125</ele>
        <time>2016-08-12T20:25:14.000Z</time>
        <extensions>
          <ns3:TrackPointExtension>
            <ns3:atemp>14.0</ns3:atemp>
            <ns3:hr>135</ns3:hr>
          </ns3:TrackPointExtension>
        </extensions>
      </trkpt>
      <trkpt lat="-22.0095030963420867919921875" lon="166.4540047757327556610107421875">
        <ele>990.20001220703125</ele>
        <time>2016-08-12T20:25:15.000Z</time>
        <extensions>
          <ns3:TrackPointExtension>
            <ns3:atemp>14.0</ns3:atemp>
            <ns3:hr>134</ns3:hr>
          </ns3:TrackPointExtension>
        </extensions>
      </trkpt>
      <trkpt lat="-22.00951407663524150848388671875" lon="166.4539955556392669677734375">
        <ele>990.5999755859375</ele>
        <time>2016-08-12T20:25:16.000Z</time>
        <extensions>
          <ns3:TrackPointExtension>
            <ns3:atemp>14.0</ns3:atemp>
            <ns3:hr>134</ns3:hr>
          </ns3:TrackPointExtension>
        </extensions>
      </trkpt>
      <trkpt lat="-22.00952648185193538665771484375" lon="166.45398817956447601318359375">
        <ele>991</ele>
        <time>2016-08-12T20:25:17.000Z</time>
        <extensions>
          <ns3:TrackPointExtension>
            <ns3:atemp>14.0</ns3:atemp>
            <ns3:hr>135</ns3:hr>
          </ns3:TrackPointExtension>
        </extensions>
      </trkpt>
      <trkpt lat="-22.00954006053507328033447265625" lon="166.45398491062223911285400390625">
        <ele>991.20001220703125</ele>
        <time>2016-08-12T20:25:18.000Z</time>
        <extensions>
          <ns3:TrackPointExtension>
            <ns3:atemp>14.0</ns3:atemp>
            <ns3:hr>135</ns3:hr>
          </ns3:TrackPointExtension>
        </extensions>
      </trkpt>
      <trkpt lat="-22.00955196283757686614990234375" lon="166.4539839886128902435302734375">
        <ele>991.4000244140625</ele>
        <time>2016-08-12T20:25:19.000Z</time>
        <extensions>
          <ns3:TrackPointExtension>
            <ns3:atemp>14.0</ns3:atemp>
            <ns3:hr>134</ns3:hr>
          </ns3:TrackPointExtension>
        </extensions>
      </trkpt>
      <trkpt lat="-22.0095636136829853057861328125" lon="166.45398239605128765106201171875">
        <ele>991.5999755859375</ele>
        <time>2016-08-12T20:25:20.000Z</time>
        <extensions>
          <ns3:TrackPointExtension>
            <ns3:atemp>14.0</ns3:atemp>
            <ns3:hr>135</ns3:hr>
          </ns3:TrackPointExtension>
        </extensions>
      </trkpt>
      <trkpt lat="-22.0095756836235523223876953125" lon="166.45398289896547794342041015625">
        <ele>991.79998779296875</ele>
        <time>2016-08-12T20:25:21.000Z</time>
        <extensions>
          <ns3:TrackPointExtension>
            <ns3:atemp>14.0</ns3:atemp>
            <ns3:hr>135</ns3:hr>
          </ns3:TrackPointExtension>
        </extensions>
      </trkpt>
      <trkpt lat="-22.00958783738315105438232421875" lon="166.4539846591651439666748046875">
        <ele>991.79998779296875</ele>
        <time>2016-08-12T20:25:22.000Z</time>
        <extensions>
          <ns3:TrackPointExtension>
            <ns3:atemp>14.0</ns3:atemp>
            <ns3:hr>135</ns3:hr>
          </ns3:TrackPointExtension>
        </extensions>
      </trkpt>
      <trkpt lat="-22.00960091315209865570068359375" lon="166.45398658700287342071533203125">
        <ele>992</ele>
        <time>2016-08-12T20:25:23.000Z</time>
        <extensions>
          <ns3:TrackPointExtension>
            <ns3:atemp>14.0</ns3:atemp>
            <ns3:hr>135</ns3:hr>
          </ns3:TrackPointExtension>
        </extensions>
      </trkpt>
      <trkpt lat="-22.00961164198815822601318359375" lon="166.45399010740220546722412109375">
        <ele>992.20001220703125</ele>
        <time>2016-08-12T20:25:24.000Z</time>
        <extensions>
          <ns3:TrackPointExtension>
            <ns3:atemp>14.0</ns3:atemp>
            <ns3:hr>135</ns3:hr>
          </ns3:TrackPointExtension>
        </extensions>
      </trkpt>
      <trkpt lat="-22.00962580740451812744140625" lon="166.4539940468966960906982421875">
        <ele>992.4000244140625</ele>
        <time>2016-08-12T20:25:25.000Z</time>
        <extensions>
          <ns3:TrackPointExtension>
            <ns3:atemp>14.0</ns3:atemp>
            <ns3:hr>135</ns3:hr>
          </ns3:TrackPointExtension>
        </extensions>
      </trkpt>
      <trkpt lat="-22.00963846407830715179443359375" lon="166.45399698056280612945556640625">
        <ele>992.4000244140625</ele>
        <time>2016-08-12T20:25:26.000Z</time>
        <extensions>
          <ns3:TrackPointExtension>
            <ns3:atemp>14.0</ns3:atemp>
            <ns3:hr>135</ns3:hr>
          </ns3:TrackPointExtension>
        </extensions>
      </trkpt>
      <trkpt lat="-22.00965086929500102996826171875" lon="166.453999914228916168212890625">
        <ele>992.4000244140625</ele>
        <time>2016-08-12T20:25:27.000Z</time>
        <extensions>
          <ns3:TrackPointExtension>
            <ns3:atemp>14.0</ns3:atemp>
            <ns3:hr>135</ns3:hr>
          </ns3:TrackPointExtension>
        </extensions>
      </trkpt>
      <trkpt lat="-22.00966612435877323150634765625" lon="166.4540044404566287994384765625">
        <ele>992.5999755859375</ele>
        <time>2016-08-12T20:25:28.000Z</time>
        <extensions>
          <ns3:TrackPointExtension>
            <ns3:atemp>14.0</ns3:atemp>
            <ns3:hr>135</ns3:hr>
          </ns3:TrackPointExtension>
        </extensions>
      </trkpt>
      <trkpt lat="-22.009679786860942840576171875" lon="166.454005949199199676513671875">
        <ele>992.79998779296875</ele>
        <time>2016-08-12T20:25:29.000Z</time>
        <extensions>
          <ns3:TrackPointExtension>
            <ns3:atemp>14.0</ns3:atemp>
            <ns3:hr>135</ns3:hr>
          </ns3:TrackPointExtension>
        </extensions>
      </trkpt>
      <trkpt lat="-22.00969328172504901885986328125" lon="166.454006619751453399658203125">
        <ele>993</ele>
        <time>2016-08-12T20:25:30.000Z</time>
        <extensions>
          <ns3:TrackPointExtension>
            <ns3:atemp>14.0</ns3:atemp>
            <ns3:hr>135</ns3:hr>
          </ns3:TrackPointExtension>
        </extensions>
      </trkpt>
      <trkpt lat="-22.0097064413130283355712890625" lon="166.4540071226656436920166015625">
        <ele>993.20001220703125</ele>
        <time>2016-08-12T20:25:31.000Z</time>
        <extensions>
          <ns3:TrackPointExtension>
            <ns3:atemp>14.0</ns3:atemp>
            <ns3:hr>136</ns3:hr>
          </ns3:TrackPointExtension>
        </extensions>
      </trkpt>
      <trkpt lat="-22.00972102582454681396484375" lon="166.454004608094692230224609375">
        <ele>993.4000244140625</ele>
        <time>2016-08-12T20:25:32.000Z</time>
        <extensions>
          <ns3:TrackPointExtension>
            <ns3:atemp>14.0</ns3:atemp>
            <ns3:hr>135</ns3:hr>
          </ns3:TrackPointExtension>
        </extensions>
      </trkpt>
      <trkpt lat="-22.00973468832671642303466796875" lon="166.45400427281856536865234375">
        <ele>993.4000244140625</ele>
        <time>2016-08-12T20:25:33.000Z</time>
        <extensions>
          <ns3:TrackPointExtension>
            <ns3:atemp>14.0</ns3:atemp>
            <ns3:hr>135</ns3:hr>
          </ns3:TrackPointExtension>
        </extensions>
      </trkpt>
      <trkpt lat="-22.0097486861050128936767578125" lon="166.45399614237248897552490234375">
        <ele>993.5999755859375</ele>
        <time>2016-08-12T20:25:34.000Z</time>
        <extensions>
          <ns3:TrackPointExtension>
            <ns3:atemp>14.0</ns3:atemp>
            <ns3:hr>135</ns3:hr>
          </ns3:TrackPointExtension>
        </extensions>
      </trkpt>
      <trkpt lat="-22.009762935340404510498046875" lon="166.4539893530309200286865234375">
        <ele>993.5999755859375</ele>
        <time>2016-08-12T20:25:35.000Z</time>
        <extensions>
          <ns3:TrackPointExtension>
            <ns3:atemp>14.0</ns3:atemp>
            <ns3:hr>135</ns3:hr>
          </ns3:TrackPointExtension>
        </extensions>
      </trkpt>
      <trkpt lat="-22.00977542437613010406494140625" lon="166.45398390479385852813720703125">
        <ele>993.79998779296875</ele>
        <time>2016-08-12T20:25:36.000Z</time>
        <extensions>
          <ns3:TrackPointExtension>
            <ns3:atemp>14.0</ns3:atemp>
            <ns3:hr>135</ns3:hr>
          </ns3:TrackPointExtension>
        </extensions>
      </trkpt>
      <trkpt lat="-22.00978833250701427459716796875" lon="166.45397803746163845062255859375">
        <ele>994</ele>
        <time>2016-08-12T20:25:37.000Z</time>
        <extensions>
          <ns3:TrackPointExtension>
            <ns3:atemp>14.0</ns3:atemp>
            <ns3:hr>135</ns3:hr>
          </ns3:TrackPointExtension>
        </extensions>
      </trkpt>
      <trkpt lat="-22.0098026655614376068115234375" lon="166.45397401414811611175537109375">
        <ele>994.20001220703125</ele>
        <time>2016-08-12T20:25:38.000Z</time>
        <extensions>
          <ns3:TrackPointExtension>
            <ns3:atemp>14.0</ns3:atemp>
            <ns3:hr>135</ns3:hr>
          </ns3:TrackPointExtension>
        </extensions>
      </trkpt>
      <trkpt lat="-22.00981431640684604644775390625" lon="166.45397007465362548828125">
        <ele>994.20001220703125</ele>
        <time>2016-08-12T20:25:39.000Z</time>
        <extensions>
          <ns3:TrackPointExtension>
            <ns3:atemp>14.0</ns3:atemp>
            <ns3:hr>134</ns3:hr>
          </ns3:TrackPointExtension>
        </extensions>
      </trkpt>
      <trkpt lat="-22.00982755981385707855224609375" lon="166.45396781153976917266845703125">
        <ele>994.4000244140625</ele>
        <time>2016-08-12T20:25:40.000Z</time>
        <extensions>
          <ns3:TrackPointExtension>
            <ns3:atemp>14.0</ns3:atemp>
            <ns3:hr>135</ns3:hr>
          </ns3:TrackPointExtension>
        </extensions>
      </trkpt>
      <trkpt lat="-22.00984080322086811065673828125" lon="166.453967057168483734130859375">
        <ele>994.5999755859375</ele>
        <time>2016-08-12T20:25:41.000Z</time>
        <extensions>
          <ns3:TrackPointExtension>
            <ns3:atemp>14.0</ns3:atemp>
            <ns3:hr>134</ns3:hr>
          </ns3:TrackPointExtension>
        </extensions>
      </trkpt>
      <trkpt lat="-22.00985287316143512725830078125" lon="166.453964374959468841552734375">
        <ele>994.79998779296875</ele>
        <time>2016-08-12T20:25:42.000Z</time>
        <extensions>
          <ns3:TrackPointExtension>
            <ns3:atemp>14.0</ns3:atemp>
            <ns3:hr>134</ns3:hr>
          </ns3:TrackPointExtension>
        </extensions>
      </trkpt>
      <trkpt lat="-22.00986494310200214385986328125" lon="166.45396345295011997222900390625">
        <ele>995</ele>
        <time>2016-08-12T20:25:43.000Z</time>
        <extensions>
          <ns3:TrackPointExtension>
            <ns3:atemp>14.0</ns3:atemp>
            <ns3:hr>134</ns3:hr>
          </ns3:TrackPointExtension>
        </extensions>
      </trkpt>
      <trkpt lat="-22.0098754204809665679931640625" lon="166.4539652131497859954833984375">
        <ele>995.20001220703125</ele>
        <time>2016-08-12T20:25:44.000Z</time>
        <extensions>
          <ns3:TrackPointExtension>
            <ns3:atemp>14.0</ns3:atemp>
            <ns3:hr>134</ns3:hr>
          </ns3:TrackPointExtension>
        </extensions>
      </trkpt>
      <trkpt lat="-22.00988841243088245391845703125" lon="166.45396479405462741851806640625">
        <ele>995.4000244140625</ele>
        <time>2016-08-12T20:25:45.000Z</time>
        <extensions>
          <ns3:TrackPointExtension>
            <ns3:atemp>14.0</ns3:atemp>
            <ns3:hr>134</ns3:hr>
          </ns3:TrackPointExtension>
        </extensions>
      </trkpt>
      <trkpt lat="-22.009903080761432647705078125" lon="166.453962363302707672119140625">
        <ele>995.4000244140625</ele>
        <time>2016-08-12T20:25:46.000Z</time>
        <extensions>
          <ns3:TrackPointExtension>
            <ns3:atemp>14.0</ns3:atemp>
            <ns3:hr>134</ns3:hr>
          </ns3:TrackPointExtension>
        </extensions>
      </trkpt>
      <trkpt lat="-22.0099166594445705413818359375" lon="166.45395926199853420257568359375">
        <ele>995.4000244140625</ele>
        <time>2016-08-12T20:25:47.000Z</time>
        <extensions>
          <ns3:TrackPointExtension>
            <ns3:atemp>14.0</ns3:atemp>
            <ns3:hr>133</ns3:hr>
          </ns3:TrackPointExtension>
        </extensions>
      </trkpt>
      <trkpt lat="-22.00992889702320098876953125" lon="166.453954987227916717529296875">
        <ele>995.5999755859375</ele>
        <time>2016-08-12T20:25:48.000Z</time>
        <extensions>
          <ns3:TrackPointExtension>
            <ns3:atemp>14.0</ns3:atemp>
            <ns3:hr>133</ns3:hr>
          </ns3:TrackPointExtension>
        </extensions>
      </trkpt>
      <trkpt lat="-22.00994121842086315155029296875" lon="166.4539541490375995635986328125">
        <ele>995.5999755859375</ele>
        <time>2016-08-12T20:25:49.000Z</time>
        <extensions>
          <ns3:TrackPointExtension>
            <ns3:atemp>14.0</ns3:atemp>
            <ns3:hr>134</ns3:hr>
          </ns3:TrackPointExtension>
        </extensions>
      </trkpt>
      <trkpt lat="-22.00995312072336673736572265625" lon="166.453958339989185333251953125">
        <ele>996</ele>
        <time>2016-08-12T20:25:50.000Z</time>
        <extensions>
          <ns3:TrackPointExtension>
            <ns3:atemp>14.0</ns3:atemp>
            <ns3:hr>133</ns3:hr>
          </ns3:TrackPointExtension>
        </extensions>
      </trkpt>
      <trkpt lat="-22.00996502302587032318115234375" lon="166.45396144129335880279541015625">
        <ele>996.4000244140625</ele>
        <time>2016-08-12T20:25:51.000Z</time>
        <extensions>
          <ns3:TrackPointExtension>
            <ns3:atemp>14.0</ns3:atemp>
            <ns3:hr>133</ns3:hr>
          </ns3:TrackPointExtension>
        </extensions>
      </trkpt>
      <trkpt lat="-22.00997726060450077056884765625" lon="166.4539628662168979644775390625">
        <ele>996.79998779296875</ele>
        <time>2016-08-12T20:25:52.000Z</time>
        <extensions>
          <ns3:TrackPointExtension>
            <ns3:atemp>14.0</ns3:atemp>
            <ns3:hr>134</ns3:hr>
          </ns3:TrackPointExtension>
        </extensions>
      </trkpt>
      <trkpt lat="-22.00999134220182895660400390625" lon="166.45396278239786624908447265625">
        <ele>997</ele>
        <time>2016-08-12T20:25:53.000Z</time>
        <extensions>
          <ns3:TrackPointExtension>
            <ns3:atemp>14.0</ns3:atemp>
            <ns3:hr>134</ns3:hr>
          </ns3:TrackPointExtension>
        </extensions>
      </trkpt>
      <trkpt lat="-22.0100038312375545501708984375" lon="166.45396345295011997222900390625">
        <ele>997.20001220703125</ele>
        <time>2016-08-12T20:25:54.000Z</time>
        <extensions>
          <ns3:TrackPointExtension>
            <ns3:atemp>14.0</ns3:atemp>
            <ns3:hr>134</ns3:hr>
          </ns3:TrackPointExtension>
        </extensions>
      </trkpt>
      <trkpt lat="-22.01001564972102642059326171875" lon="166.45396613515913486480712890625">
        <ele>997.5999755859375</ele>
        <time>2016-08-12T20:25:55.000Z</time>
        <extensions>
          <ns3:TrackPointExtension>
            <ns3:atemp>14.0</ns3:atemp>
            <ns3:hr>134</ns3:hr>
          </ns3:TrackPointExtension>
        </extensions>
      </trkpt>
      <trkpt lat="-22.01002973131835460662841796875" lon="166.45396948792040348052978515625">
        <ele>997.79998779296875</ele>
        <time>2016-08-12T20:25:56.000Z</time>
        <extensions>
          <ns3:TrackPointExtension>
            <ns3:atemp>14.0</ns3:atemp>
            <ns3:hr>134</ns3:hr>
          </ns3:TrackPointExtension>
        </extensions>
      </trkpt>
      <trkpt lat="-22.01004364527761936187744140625" lon="166.4539705775678157806396484375">
        <ele>998</ele>
        <time>2016-08-12T20:25:57.000Z</time>
        <extensions>
          <ns3:TrackPointExtension>
            <ns3:atemp>14.0</ns3:atemp>
            <ns3:hr>134</ns3:hr>
          </ns3:TrackPointExtension>
        </extensions>
      </trkpt>
      <trkpt lat="-22.0100581459701061248779296875" lon="166.45397418178617954254150390625">
        <ele>998.20001220703125</ele>
        <time>2016-08-12T20:25:58.000Z</time>
        <extensions>
          <ns3:TrackPointExtension>
            <ns3:atemp>14.0</ns3:atemp>
            <ns3:hr>134</ns3:hr>
          </ns3:TrackPointExtension>
        </extensions>
      </trkpt>
      <trkpt lat="-22.01007516123354434967041015625" lon="166.453976444900035858154296875">
        <ele>998.4000244140625</ele>
        <time>2016-08-12T20:25:59.000Z</time>
        <extensions>
          <ns3:TrackPointExtension>
            <ns3:atemp>14.0</ns3:atemp>
            <ns3:hr>134</ns3:hr>
          </ns3:TrackPointExtension>
        </extensions>
      </trkpt>
      <trkpt lat="-22.01009142212569713592529296875" lon="166.45397501997649669647216796875">
        <ele>998.5999755859375</ele>
        <time>2016-08-12T20:26:00.000Z</time>
        <extensions>
          <ns3:TrackPointExtension>
            <ns3:atemp>14.0</ns3:atemp>
            <ns3:hr>135</ns3:hr>
          </ns3:TrackPointExtension>
        </extensions>
      </trkpt>
      <trkpt lat="-22.01010667718946933746337890625" lon="166.4539762772619724273681640625">
        <ele>998.79998779296875</ele>
        <time>2016-08-12T20:26:01.000Z</time>
        <extensions>
          <ns3:TrackPointExtension>
            <ns3:atemp>14.0</ns3:atemp>
            <ns3:hr>135</ns3:hr>
          </ns3:TrackPointExtension>
        </extensions>
      </trkpt>
      <trkpt lat="-22.0101200044155120849609375" lon="166.453975774347782135009765625">
        <ele>999</ele>
        <time>2016-08-12T20:26:02.000Z</time>
        <extensions>
          <ns3:TrackPointExtension>
            <ns3:atemp>14.0</ns3:atemp>
            <ns3:hr>135</ns3:hr>
          </ns3:TrackPointExtension>
        </extensions>
      </trkpt>
      <trkpt lat="-22.010132409632205963134765625" lon="166.45397183485329151153564453125">
        <ele>999</ele>
        <time>2016-08-12T20:26:03.000Z</time>
        <extensions>
          <ns3:TrackPointExtension>
            <ns3:atemp>14.0</ns3:atemp>
            <ns3:hr>135</ns3:hr>
          </ns3:TrackPointExtension>
        </extensions>
      </trkpt>
      <trkpt lat="-22.010145150125026702880859375" lon="166.45397166721522808074951171875">
        <ele>999.20001220703125</ele>
        <time>2016-08-12T20:26:04.000Z</time>
        <extensions>
          <ns3:TrackPointExtension>
            <ns3:atemp>14.0</ns3:atemp>
            <ns3:hr>136</ns3:hr>
          </ns3:TrackPointExtension>
        </extensions>
      </trkpt>
      <trkpt lat="-22.01015830971300601959228515625" lon="166.45396630279719829559326171875">
        <ele>999.4000244140625</ele>
        <time>2016-08-12T20:26:05.000Z</time>
        <extensions>
          <ns3:TrackPointExtension>
            <ns3:atemp>14.0</ns3:atemp>
            <ns3:hr>136</ns3:hr>
          </ns3:TrackPointExtension>
        </extensions>
      </trkpt>
      <trkpt lat="-22.0101701281964778900146484375" lon="166.453962028026580810546875">
        <ele>999.4000244140625</ele>
        <time>2016-08-12T20:26:06.000Z</time>
        <extensions>
          <ns3:TrackPointExtension>
            <ns3:atemp>14.0</ns3:atemp>
            <ns3:hr>136</ns3:hr>
          </ns3:TrackPointExtension>
        </extensions>
      </trkpt>
      <trkpt lat="-22.01018261723220348358154296875" lon="166.45395725034177303314208984375">
        <ele>999.5999755859375</ele>
        <time>2016-08-12T20:26:07.000Z</time>
        <extensions>
          <ns3:TrackPointExtension>
            <ns3:atemp>14.0</ns3:atemp>
            <ns3:hr>136</ns3:hr>
          </ns3:TrackPointExtension>
        </extensions>
      </trkpt>
      <trkpt lat="-22.0101969502866268157958984375" lon="166.4539514668285846710205078125">
        <ele>999.79998779296875</ele>
        <time>2016-08-12T20:26:08.000Z</time>
        <extensions>
          <ns3:TrackPointExtension>
            <ns3:atemp>14.0</ns3:atemp>
            <ns3:hr>136</ns3:hr>
          </ns3:TrackPointExtension>
        </extensions>
      </trkpt>
      <trkpt lat="-22.01021329499781131744384765625" lon="166.45394484512507915496826171875">
        <ele>999.79998779296875</ele>
        <time>2016-08-12T20:26:09.000Z</time>
        <extensions>
          <ns3:TrackPointExtension>
            <ns3:atemp>14.0</ns3:atemp>
            <ns3:hr>136</ns3:hr>
          </ns3:TrackPointExtension>
        </extensions>
      </trkpt>
      <trkpt lat="-22.010228969156742095947265625" lon="166.453939564526081085205078125">
        <ele>999.79998779296875</ele>
        <time>2016-08-12T20:26:10.000Z</time>
        <extensions>
          <ns3:TrackPointExtension>
            <ns3:atemp>14.0</ns3:atemp>
            <ns3:hr>136</ns3:hr>
          </ns3:TrackPointExtension>
        </extensions>
      </trkpt>
      <trkpt lat="-22.01024648733437061309814453125" lon="166.45393076352775096893310546875">
        <ele>999.79998779296875</ele>
        <time>2016-08-12T20:26:11.000Z</time>
        <extensions>
          <ns3:TrackPointExtension>
            <ns3:atemp>14.0</ns3:atemp>
            <ns3:hr>136</ns3:hr>
          </ns3:TrackPointExtension>
        </extensions>
      </trkpt>
      <trkpt lat="-22.01025880873203277587890625" lon="166.45391802303493022918701171875">
        <ele>999.79998779296875</ele>
        <time>2016-08-12T20:26:12.000Z</time>
        <extensions>
          <ns3:TrackPointExtension>
            <ns3:atemp>14.0</ns3:atemp>
            <ns3:hr>136</ns3:hr>
          </ns3:TrackPointExtension>
        </extensions>
      </trkpt>
      <trkpt lat="-22.01027213595807552337646484375" lon="166.4539062045514583587646484375">
        <ele>1000</ele>
        <time>2016-08-12T20:26:13.000Z</time>
        <extensions>
          <ns3:TrackPointExtension>
            <ns3:atemp>14.0</ns3:atemp>
            <ns3:hr>136</ns3:hr>
          </ns3:TrackPointExtension>
        </extensions>
      </trkpt>
      <trkpt lat="-22.0102837868034839630126953125" lon="166.45389706827700138092041015625">
        <ele>1000</ele>
        <time>2016-08-12T20:26:14.000Z</time>
        <extensions>
          <ns3:TrackPointExtension>
            <ns3:atemp>14.0</ns3:atemp>
            <ns3:hr>135</ns3:hr>
          </ns3:TrackPointExtension>
        </extensions>
      </trkpt>
      <trkpt lat="-22.010296024382114410400390625" lon="166.45388416014611721038818359375">
        <ele>1000.20001220703125</ele>
        <time>2016-08-12T20:26:15.000Z</time>
        <extensions>
          <ns3:TrackPointExtension>
            <ns3:atemp>14.0</ns3:atemp>
            <ns3:hr>135</ns3:hr>
          </ns3:TrackPointExtension>
        </extensions>
      </trkpt>
      <trkpt lat="-22.0103042386472225189208984375" lon="166.45387477241456508636474609375">
        <ele>1000.4000244140625</ele>
        <time>2016-08-12T20:26:16.000Z</time>
        <extensions>
          <ns3:TrackPointExtension>
            <ns3:atemp>14.0</ns3:atemp>
            <ns3:hr>135</ns3:hr>
          </ns3:TrackPointExtension>
        </extensions>
      </trkpt>
      <trkpt lat="-22.010315470397472381591796875" lon="166.4538696594536304473876953125">
        <ele>1000.79998779296875</ele>
        <time>2016-08-12T20:26:17.000Z</time>
        <extensions>
          <ns3:TrackPointExtension>
            <ns3:atemp>14.0</ns3:atemp>
            <ns3:hr>135</ns3:hr>
          </ns3:TrackPointExtension>
        </extensions>
      </trkpt>
      <trkpt lat="-22.0103307254612445831298828125" lon="166.4538639597594738006591796875">
        <ele>1001.20001220703125</ele>
        <time>2016-08-12T20:26:18.000Z</time>
        <extensions>
          <ns3:TrackPointExtension>
            <ns3:atemp>14.0</ns3:atemp>
            <ns3:hr>135</ns3:hr>
          </ns3:TrackPointExtension>
        </extensions>
      </trkpt>
      <trkpt lat="-22.01034673489630222320556640625" lon="166.45385515876114368438720703125">
        <ele>1001.4000244140625</ele>
        <time>2016-08-12T20:26:19.000Z</time>
        <extensions>
          <ns3:TrackPointExtension>
            <ns3:atemp>14.0</ns3:atemp>
            <ns3:hr>135</ns3:hr>
          </ns3:TrackPointExtension>
        </extensions>
      </trkpt>
      <trkpt lat="-22.01036148704588413238525390625" lon="166.45384468138217926025390625">
        <ele>1001.79998779296875</ele>
        <time>2016-08-12T20:26:20.000Z</time>
        <extensions>
          <ns3:TrackPointExtension>
            <ns3:atemp>14.0</ns3:atemp>
            <ns3:hr>135</ns3:hr>
          </ns3:TrackPointExtension>
        </extensions>
      </trkpt>
      <trkpt lat="-22.01037389226257801055908203125" lon="166.453834958374500274658203125">
        <ele>1002</ele>
        <time>2016-08-12T20:26:21.000Z</time>
        <extensions>
          <ns3:TrackPointExtension>
            <ns3:atemp>14.0</ns3:atemp>
            <ns3:hr>135</ns3:hr>
          </ns3:TrackPointExtension>
        </extensions>
      </trkpt>
      <trkpt lat="-22.01038327999413013458251953125" lon="166.453824900090694427490234375">
        <ele>1002.20001220703125</ele>
        <time>2016-08-12T20:26:22.000Z</time>
        <extensions>
          <ns3:TrackPointExtension>
            <ns3:atemp>14.0</ns3:atemp>
            <ns3:hr>135</ns3:hr>
          </ns3:TrackPointExtension>
        </extensions>
      </trkpt>
      <trkpt lat="-22.0103910751640796661376953125" lon="166.45381391979753971099853515625">
        <ele>1002.4000244140625</ele>
        <time>2016-08-12T20:26:23.000Z</time>
        <extensions>
          <ns3:TrackPointExtension>
            <ns3:atemp>14.0</ns3:atemp>
            <ns3:hr>136</ns3:hr>
          </ns3:TrackPointExtension>
        </extensions>
      </trkpt>
      <trkpt lat="-22.01039719395339488983154296875" lon="166.45380168221890926361083984375">
        <ele>1002.5999755859375</ele>
        <time>2016-08-12T20:26:24.000Z</time>
        <extensions>
          <ns3:TrackPointExtension>
            <ns3:atemp>14.0</ns3:atemp>
            <ns3:hr>136</ns3:hr>
          </ns3:TrackPointExtension>
        </extensions>
      </trkpt>
      <trkpt lat="-22.0104044862091541290283203125" lon="166.453792043030261993408203125">
        <ele>1002.79998779296875</ele>
        <time>2016-08-12T20:26:25.000Z</time>
        <extensions>
          <ns3:TrackPointExtension>
            <ns3:atemp>14.0</ns3:atemp>
            <ns3:hr>136</ns3:hr>
          </ns3:TrackPointExtension>
        </extensions>
      </trkpt>
      <trkpt lat="-22.0104162208735942840576171875" lon="166.4537824876606464385986328125">
        <ele>1003</ele>
        <time>2016-08-12T20:26:26.000Z</time>
        <extensions>
          <ns3:TrackPointExtension>
            <ns3:atemp>14.0</ns3:atemp>
            <ns3:hr>136</ns3:hr>
          </ns3:TrackPointExtension>
        </extensions>
      </trkpt>
      <trkpt lat="-22.0104296319186687469482421875" lon="166.4537697471678256988525390625">
        <ele>1003</ele>
        <time>2016-08-12T20:26:27.000Z</time>
        <extensions>
          <ns3:TrackPointExtension>
            <ns3:atemp>14.0</ns3:atemp>
            <ns3:hr>136</ns3:hr>
          </ns3:TrackPointExtension>
        </extensions>
      </trkpt>
      <trkpt lat="-22.0104403607547283172607421875" lon="166.4537541568279266357421875">
        <ele>1003.20001220703125</ele>
        <time>2016-08-12T20:26:28.000Z</time>
        <extensions>
          <ns3:TrackPointExtension>
            <ns3:atemp>14.0</ns3:atemp>
            <ns3:hr>135</ns3:hr>
          </ns3:TrackPointExtension>
        </extensions>
      </trkpt>
      <trkpt lat="-22.01044698245823383331298828125" lon="166.4537392370402812957763671875">
        <ele>1003.20001220703125</ele>
        <time>2016-08-12T20:26:29.000Z</time>
        <extensions>
          <ns3:TrackPointExtension>
            <ns3:atemp>14.0</ns3:atemp>
            <ns3:hr>136</ns3:hr>
          </ns3:TrackPointExtension>
        </extensions>
      </trkpt>
      <trkpt lat="-22.0104527659714221954345703125" lon="166.4537248201668262481689453125">
        <ele>1003.20001220703125</ele>
        <time>2016-08-12T20:26:30.000Z</time>
        <extensions>
          <ns3:TrackPointExtension>
            <ns3:atemp>14.0</ns3:atemp>
            <ns3:hr>136</ns3:hr>
          </ns3:TrackPointExtension>
        </extensions>
      </trkpt>
      <trkpt lat="-22.0104608125984668731689453125" lon="166.4537107385694980621337890625">
        <ele>1003.4000244140625</ele>
        <time>2016-08-12T20:26:31.000Z</time>
        <extensions>
          <ns3:TrackPointExtension>
            <ns3:atemp>14.0</ns3:atemp>
            <ns3:hr>135</ns3:hr>
          </ns3:TrackPointExtension>
        </extensions>
      </trkpt>
      <trkpt lat="-22.0104688592255115509033203125" lon="166.453696824610233306884765625">
        <ele>1003.79998779296875</ele>
        <time>2016-08-12T20:26:32.000Z</time>
        <extensions>
          <ns3:TrackPointExtension>
            <ns3:atemp>14.0</ns3:atemp>
            <ns3:hr>136</ns3:hr>
          </ns3:TrackPointExtension>
        </extensions>
      </trkpt>
      <trkpt lat="-22.0104745589196681976318359375" lon="166.4536852575838565826416015625">
        <ele>1004</ele>
        <time>2016-08-12T20:26:33.000Z</time>
        <extensions>
          <ns3:TrackPointExtension>
            <ns3:atemp>14.0</ns3:atemp>
            <ns3:hr>136</ns3:hr>
          </ns3:TrackPointExtension>
        </extensions>
      </trkpt>
      <trkpt lat="-22.01048118062317371368408203125" lon="166.45367193035781383514404296875">
        <ele>1004.20001220703125</ele>
        <time>2016-08-12T20:26:34.000Z</time>
        <extensions>
          <ns3:TrackPointExtension>
            <ns3:atemp>14.0</ns3:atemp>
            <ns3:hr>136</ns3:hr>
          </ns3:TrackPointExtension>
        </extensions>
      </trkpt>
      <trkpt lat="-22.0104872994124889373779296875" lon="166.45365734584629535675048828125">
        <ele>1004.4000244140625</ele>
        <time>2016-08-12T20:26:35.000Z</time>
        <extensions>
          <ns3:TrackPointExtension>
            <ns3:atemp>14.0</ns3:atemp>
            <ns3:hr>136</ns3:hr>
          </ns3:TrackPointExtension>
        </extensions>
      </trkpt>
      <trkpt lat="-22.0104955136775970458984375" lon="166.4536433480679988861083984375">
        <ele>1004.5999755859375</ele>
        <time>2016-08-12T20:26:36.000Z</time>
        <extensions>
          <ns3:TrackPointExtension>
            <ns3:atemp>14.0</ns3:atemp>
            <ns3:hr>136</ns3:hr>
          </ns3:TrackPointExtension>
        </extensions>
      </trkpt>
      <trkpt lat="-22.01050423085689544677734375" lon="166.4536307752132415771484375">
        <ele>1004.5999755859375</ele>
        <time>2016-08-12T20:26:37.000Z</time>
        <extensions>
          <ns3:TrackPointExtension>
            <ns3:atemp>14.0</ns3:atemp>
            <ns3:hr>135</ns3:hr>
          </ns3:TrackPointExtension>
        </extensions>
      </trkpt>
      <trkpt lat="-22.01051034964621067047119140625" lon="166.45361535251140594482421875">
        <ele>1004.79998779296875</ele>
        <time>2016-08-12T20:26:38.000Z</time>
        <extensions>
          <ns3:TrackPointExtension>
            <ns3:atemp>14.0</ns3:atemp>
            <ns3:hr>136</ns3:hr>
          </ns3:TrackPointExtension>
        </extensions>
      </trkpt>
      <trkpt lat="-22.010515965521335601806640625" lon="166.45360018126666545867919921875">
        <ele>1005</ele>
        <time>2016-08-12T20:26:39.000Z</time>
        <extensions>
          <ns3:TrackPointExtension>
            <ns3:atemp>14.0</ns3:atemp>
            <ns3:hr>136</ns3:hr>
          </ns3:TrackPointExtension>
        </extensions>
      </trkpt>
      <trkpt lat="-22.0105204917490482330322265625" lon="166.45358450710773468017578125">
        <ele>1005.4000244140625</ele>
        <time>2016-08-12T20:26:40.000Z</time>
        <extensions>
          <ns3:TrackPointExtension>
            <ns3:atemp>14.0</ns3:atemp>
            <ns3:hr>135</ns3:hr>
          </ns3:TrackPointExtension>
        </extensions>
      </trkpt>
      <trkpt lat="-22.01052158139646053314208984375" lon="166.4535675756633281707763671875">
        <ele>1005.4000244140625</ele>
        <time>2016-08-12T20:26:41.000Z</time>
        <extensions>
          <ns3:TrackPointExtension>
            <ns3:atemp>14.0</ns3:atemp>
            <ns3:hr>136</ns3:hr>
          </ns3:TrackPointExtension>
        </extensions>
      </trkpt>
      <trkpt lat="-22.01052174903452396392822265625" lon="166.45354854874312877655029296875">
        <ele>1005.5999755859375</ele>
        <time>2016-08-12T20:26:42.000Z</time>
        <extensions>
          <ns3:TrackPointExtension>
            <ns3:atemp>14.0</ns3:atemp>
            <ns3:hr>136</ns3:hr>
          </ns3:TrackPointExtension>
        </extensions>
      </trkpt>
      <trkpt lat="-22.01052568852901458740234375" lon="166.45353396423161029815673828125">
        <ele>1005.4000244140625</ele>
        <time>2016-08-12T20:26:43.000Z</time>
        <extensions>
          <ns3:TrackPointExtension>
            <ns3:atemp>14.0</ns3:atemp>
            <ns3:hr>136</ns3:hr>
          </ns3:TrackPointExtension>
        </extensions>
      </trkpt>
      <trkpt lat="-22.01053247787058353424072265625" lon="166.4535203017294406890869140625">
        <ele>1005.5999755859375</ele>
        <time>2016-08-12T20:26:44.000Z</time>
        <extensions>
          <ns3:TrackPointExtension>
            <ns3:atemp>14.0</ns3:atemp>
            <ns3:hr>135</ns3:hr>
          </ns3:TrackPointExtension>
        </extensions>
      </trkpt>
      <trkpt lat="-22.010540105402469635009765625" lon="166.4535072259604930877685546875">
        <ele>1005.79998779296875</ele>
        <time>2016-08-12T20:26:45.000Z</time>
        <extensions>
          <ns3:TrackPointExtension>
            <ns3:atemp>14.0</ns3:atemp>
            <ns3:hr>136</ns3:hr>
          </ns3:TrackPointExtension>
        </extensions>
      </trkpt>
      <trkpt lat="-22.0105486549437046051025390625" lon="166.45349465310573577880859375">
        <ele>1005.79998779296875</ele>
        <time>2016-08-12T20:26:46.000Z</time>
        <extensions>
          <ns3:TrackPointExtension>
            <ns3:atemp>14.0</ns3:atemp>
            <ns3:hr>135</ns3:hr>
          </ns3:TrackPointExtension>
        </extensions>
      </trkpt>
      <trkpt lat="-22.01055611483752727508544921875" lon="166.4534824155271053314208984375">
        <ele>1005.79998779296875</ele>
        <time>2016-08-12T20:26:47.000Z</time>
        <extensions>
          <ns3:TrackPointExtension>
            <ns3:atemp>14.0</ns3:atemp>
            <ns3:hr>135</ns3:hr>
          </ns3:TrackPointExtension>
        </extensions>
      </trkpt>
      <trkpt lat="-22.0105620659887790679931640625" lon="166.45346925593912601470947265625">
        <ele>1006</ele>
        <time>2016-08-12T20:26:48.000Z</time>
        <extensions>
          <ns3:TrackPointExtension>
            <ns3:atemp>14.0</ns3:atemp>
            <ns3:hr>135</ns3:hr>
          </ns3:TrackPointExtension>
        </extensions>
      </trkpt>
      <trkpt lat="-22.01056734658777713775634765625" lon="166.45345634780824184417724609375">
        <ele>1006.20001220703125</ele>
        <time>2016-08-12T20:26:49.000Z</time>
        <extensions>
          <ns3:TrackPointExtension>
            <ns3:atemp>14.0</ns3:atemp>
            <ns3:hr>134</ns3:hr>
          </ns3:TrackPointExtension>
        </extensions>
      </trkpt>
      <trkpt lat="-22.0105717889964580535888671875" lon="166.45344369113445281982421875">
        <ele>1006.4000244140625</ele>
        <time>2016-08-12T20:26:50.000Z</time>
        <extensions>
          <ns3:TrackPointExtension>
            <ns3:atemp>14.0</ns3:atemp>
            <ns3:hr>134</ns3:hr>
          </ns3:TrackPointExtension>
        </extensions>
      </trkpt>
      <trkpt lat="-22.01057673431932926177978515625" lon="166.45343254320323467254638671875">
        <ele>1007</ele>
        <time>2016-08-12T20:26:51.000Z</time>
        <extensions>
          <ns3:TrackPointExtension>
            <ns3:atemp>14.0</ns3:atemp>
            <ns3:hr>135</ns3:hr>
          </ns3:TrackPointExtension>
        </extensions>
      </trkpt>
      <trkpt lat="-22.01058293692767620086669921875" lon="166.45342382602393627166748046875">
        <ele>1007.20001220703125</ele>
        <time>2016-08-12T20:26:52.000Z</time>
        <extensions>
          <ns3:TrackPointExtension>
            <ns3:atemp>14.0</ns3:atemp>
            <ns3:hr>134</ns3:hr>
          </ns3:TrackPointExtension>
        </extensions>
      </trkpt>
      <trkpt lat="-22.01059031300246715545654296875" lon="166.45341376774013042449951171875">
        <ele>1007.5999755859375</ele>
        <time>2016-08-12T20:26:53.000Z</time>
        <extensions>
          <ns3:TrackPointExtension>
            <ns3:atemp>14.0</ns3:atemp>
            <ns3:hr>135</ns3:hr>
          </ns3:TrackPointExtension>
        </extensions>
      </trkpt>
      <trkpt lat="-22.0105986110866069793701171875" lon="166.45340236835181713104248046875">
        <ele>1007.79998779296875</ele>
        <time>2016-08-12T20:26:54.000Z</time>
        <extensions>
          <ns3:TrackPointExtension>
            <ns3:atemp>14.0</ns3:atemp>
            <ns3:hr>135</ns3:hr>
          </ns3:TrackPointExtension>
        </extensions>
      </trkpt>
      <trkpt lat="-22.01060858555138111114501953125" lon="166.45338979549705982208251953125">
        <ele>1008</ele>
        <time>2016-08-12T20:26:55.000Z</time>
        <extensions>
          <ns3:TrackPointExtension>
            <ns3:atemp>14.0</ns3:atemp>
            <ns3:hr>135</ns3:hr>
          </ns3:TrackPointExtension>
        </extensions>
      </trkpt>
      <trkpt lat="-22.010615877807140350341796875" lon="166.45337688736617565155029296875">
        <ele>1008</ele>
        <time>2016-08-12T20:26:56.000Z</time>
        <extensions>
          <ns3:TrackPointExtension>
            <ns3:atemp>14.0</ns3:atemp>
            <ns3:hr>135</ns3:hr>
          </ns3:TrackPointExtension>
        </extensions>
      </trkpt>
      <trkpt lat="-22.01062484644353389739990234375" lon="166.4533657394349575042724609375">
        <ele>1008.4000244140625</ele>
        <time>2016-08-12T20:26:57.000Z</time>
        <extensions>
          <ns3:TrackPointExtension>
            <ns3:atemp>14.0</ns3:atemp>
            <ns3:hr>135</ns3:hr>
          </ns3:TrackPointExtension>
        </extensions>
      </trkpt>
      <trkpt lat="-22.01063624583184719085693359375" lon="166.45335760898888111114501953125">
        <ele>1008.5999755859375</ele>
        <time>2016-08-12T20:26:58.000Z</time>
        <extensions>
          <ns3:TrackPointExtension>
            <ns3:atemp>14.0</ns3:atemp>
            <ns3:hr>135</ns3:hr>
          </ns3:TrackPointExtension>
        </extensions>
      </trkpt>
      <trkpt lat="-22.01064730994403362274169921875" lon="166.45334981381893157958984375">
        <ele>1008.79998779296875</ele>
        <time>2016-08-12T20:26:59.000Z</time>
        <extensions>
          <ns3:TrackPointExtension>
            <ns3:atemp>14.0</ns3:atemp>
            <ns3:hr>136</ns3:hr>
          </ns3:TrackPointExtension>
        </extensions>
      </trkpt>
      <trkpt lat="-22.0106569491326808929443359375" lon="166.45334403030574321746826171875">
        <ele>1009</ele>
        <time>2016-08-12T20:27:00.000Z</time>
        <extensions>
          <ns3:TrackPointExtension>
            <ns3:atemp>14.0</ns3:atemp>
            <ns3:hr>135</ns3:hr>
          </ns3:TrackPointExtension>
        </extensions>
      </trkpt>
      <trkpt lat="-22.01066709123551845550537109375" lon="166.4533399231731891632080078125">
        <ele>1009.20001220703125</ele>
        <time>2016-08-12T20:27:01.000Z</time>
        <extensions>
          <ns3:TrackPointExtension>
            <ns3:atemp>14.0</ns3:atemp>
            <ns3:hr>135</ns3:hr>
          </ns3:TrackPointExtension>
        </extensions>
      </trkpt>
      <trkpt lat="-22.01067857444286346435546875" lon="166.453335396945476531982421875">
        <ele>1009.4000244140625</ele>
        <time>2016-08-12T20:27:02.000Z</time>
        <extensions>
          <ns3:TrackPointExtension>
            <ns3:atemp>14.0</ns3:atemp>
            <ns3:hr>136</ns3:hr>
          </ns3:TrackPointExtension>
        </extensions>
      </trkpt>
      <trkpt lat="-22.01068930327892303466796875" lon="166.45333179272711277008056640625">
        <ele>1009.5999755859375</ele>
        <time>2016-08-12T20:27:03.000Z</time>
        <extensions>
          <ns3:TrackPointExtension>
            <ns3:atemp>14.0</ns3:atemp>
            <ns3:hr>136</ns3:hr>
          </ns3:TrackPointExtension>
        </extensions>
      </trkpt>
      <trkpt lat="-22.01069944538176059722900390625" lon="166.45332961343228816986083984375">
        <ele>1009.79998779296875</ele>
        <time>2016-08-12T20:27:04.000Z</time>
        <extensions>
          <ns3:TrackPointExtension>
            <ns3:atemp>14.0</ns3:atemp>
            <ns3:hr>136</ns3:hr>
          </ns3:TrackPointExtension>
        </extensions>
      </trkpt>
      <trkpt lat="-22.01070673763751983642578125" lon="166.45333103835582733154296875">
        <ele>1010</ele>
        <time>2016-08-12T20:27:05.000Z</time>
        <extensions>
          <ns3:TrackPointExtension>
            <ns3:atemp>14.0</ns3:atemp>
            <ns3:hr>136</ns3:hr>
          </ns3:TrackPointExtension>
        </extensions>
      </trkpt>
      <trkpt lat="-22.01071503572165966033935546875" lon="166.4533345587551593780517578125">
        <ele>1010.20001220703125</ele>
        <time>2016-08-12T20:27:06.000Z</time>
        <extensions>
          <ns3:TrackPointExtension>
            <ns3:atemp>14.0</ns3:atemp>
            <ns3:hr>136</ns3:hr>
          </ns3:TrackPointExtension>
        </extensions>
      </trkpt>
      <trkpt lat="-22.01072492636740207672119140625" lon="166.45334017463028430938720703125">
        <ele>1010.20001220703125</ele>
        <time>2016-08-12T20:27:07.000Z</time>
        <extensions>
          <ns3:TrackPointExtension>
            <ns3:atemp>14.0</ns3:atemp>
            <ns3:hr>136</ns3:hr>
          </ns3:TrackPointExtension>
        </extensions>
      </trkpt>
      <trkpt lat="-22.01073632575571537017822265625" lon="166.4533446170389652252197265625">
        <ele>1010.4000244140625</ele>
        <time>2016-08-12T20:27:08.000Z</time>
        <extensions>
          <ns3:TrackPointExtension>
            <ns3:atemp>14.0</ns3:atemp>
            <ns3:hr>137</ns3:hr>
          </ns3:TrackPointExtension>
        </extensions>
      </trkpt>
      <trkpt lat="-22.01074873097240924835205078125" lon="166.4533493109047412872314453125">
        <ele>1010.5999755859375</ele>
        <time>2016-08-12T20:27:09.000Z</time>
        <extensions>
          <ns3:TrackPointExtension>
            <ns3:atemp>14.0</ns3:atemp>
            <ns3:hr>137</ns3:hr>
          </ns3:TrackPointExtension>
        </extensions>
      </trkpt>
      <trkpt lat="-22.01076130382716655731201171875" lon="166.4533545076847076416015625">
        <ele>1010.79998779296875</ele>
        <time>2016-08-12T20:27:10.000Z</time>
        <extensions>
          <ns3:TrackPointExtension>
            <ns3:atemp>14.0</ns3:atemp>
            <ns3:hr>137</ns3:hr>
          </ns3:TrackPointExtension>
        </extensions>
      </trkpt>
      <trkpt lat="-22.0107716135680675506591796875" lon="166.45335978828370571136474609375">
        <ele>1011</ele>
        <time>2016-08-12T20:27:11.000Z</time>
        <extensions>
          <ns3:TrackPointExtension>
            <ns3:atemp>14.0</ns3:atemp>
            <ns3:hr>137</ns3:hr>
          </ns3:TrackPointExtension>
        </extensions>
      </trkpt>
      <trkpt lat="-22.01078024692833423614501953125" lon="166.45336733199656009674072265625">
        <ele>1011.20001220703125</ele>
        <time>2016-08-12T20:27:12.000Z</time>
        <extensions>
          <ns3:TrackPointExtension>
            <ns3:atemp>14.0</ns3:atemp>
            <ns3:hr>137</ns3:hr>
          </ns3:TrackPointExtension>
        </extensions>
      </trkpt>
      <trkpt lat="-22.0107880420982837677001953125" lon="166.453375630080699920654296875">
        <ele>1011.4000244140625</ele>
        <time>2016-08-12T20:27:13.000Z</time>
        <extensions>
          <ns3:TrackPointExtension>
            <ns3:atemp>14.0</ns3:atemp>
            <ns3:hr>137</ns3:hr>
          </ns3:TrackPointExtension>
        </extensions>
      </trkpt>
      <trkpt lat="-22.01079550199210643768310546875" lon="166.45338359288871288299560546875">
        <ele>1011.5999755859375</ele>
        <time>2016-08-12T20:27:14.000Z</time>
        <extensions>
          <ns3:TrackPointExtension>
            <ns3:atemp>14.0</ns3:atemp>
            <ns3:hr>137</ns3:hr>
          </ns3:TrackPointExtension>
        </extensions>
      </trkpt>
      <trkpt lat="-22.0108001120388507843017578125" lon="166.45339448936283588409423828125">
        <ele>1011.5999755859375</ele>
        <time>2016-08-12T20:27:15.000Z</time>
        <extensions>
          <ns3:TrackPointExtension>
            <ns3:atemp>14.0</ns3:atemp>
            <ns3:hr>137</ns3:hr>
          </ns3:TrackPointExtension>
        </extensions>
      </trkpt>
      <trkpt lat="-22.010803632438182830810546875" lon="166.45340706221759319305419921875">
        <ele>1011.79998779296875</ele>
        <time>2016-08-12T20:27:16.000Z</time>
        <extensions>
          <ns3:TrackPointExtension>
            <ns3:atemp>14.0</ns3:atemp>
            <ns3:hr>137</ns3:hr>
          </ns3:TrackPointExtension>
        </extensions>
      </trkpt>
      <trkpt lat="-22.01080623082816600799560546875" lon="166.45342097617685794830322265625">
        <ele>1012</ele>
        <time>2016-08-12T20:27:17.000Z</time>
        <extensions>
          <ns3:TrackPointExtension>
            <ns3:atemp>14.0</ns3:atemp>
            <ns3:hr>136</ns3:hr>
          </ns3:TrackPointExtension>
        </extensions>
      </trkpt>
      <trkpt lat="-22.01080958358943462371826171875" lon="166.453433297574520111083984375">
        <ele>1012.20001220703125</ele>
        <time>2016-08-12T20:27:18.000Z</time>
        <extensions>
          <ns3:TrackPointExtension>
            <ns3:atemp>14.0</ns3:atemp>
            <ns3:hr>136</ns3:hr>
          </ns3:TrackPointExtension>
        </extensions>
      </trkpt>
      <trkpt lat="-22.01081402599811553955078125" lon="166.4534457027912139892578125">
        <ele>1012.20001220703125</ele>
        <time>2016-08-12T20:27:19.000Z</time>
        <extensions>
          <ns3:TrackPointExtension>
            <ns3:atemp>14.0</ns3:atemp>
            <ns3:hr>136</ns3:hr>
          </ns3:TrackPointExtension>
        </extensions>
      </trkpt>
      <trkpt lat="-22.010819055140018463134765625" lon="166.45345768891274929046630859375">
        <ele>1012.4000244140625</ele>
        <time>2016-08-12T20:27:20.000Z</time>
        <extensions>
          <ns3:TrackPointExtension>
            <ns3:atemp>14.0</ns3:atemp>
            <ns3:hr>136</ns3:hr>
          </ns3:TrackPointExtension>
        </extensions>
      </trkpt>
      <trkpt lat="-22.0108254253864288330078125" lon="166.45346992649137973785400390625">
        <ele>1012.4000244140625</ele>
        <time>2016-08-12T20:27:21.000Z</time>
        <extensions>
          <ns3:TrackPointExtension>
            <ns3:atemp>14.0</ns3:atemp>
            <ns3:hr>136</ns3:hr>
          </ns3:TrackPointExtension>
        </extensions>
      </trkpt>
      <trkpt lat="-22.01082986779510974884033203125" lon="166.45348283462226390838623046875">
        <ele>1012.4000244140625</ele>
        <time>2016-08-12T20:27:22.000Z</time>
        <extensions>
          <ns3:TrackPointExtension>
            <ns3:atemp>14.0</ns3:atemp>
            <ns3:hr>136</ns3:hr>
          </ns3:TrackPointExtension>
        </extensions>
      </trkpt>
      <trkpt lat="-22.0108299516141414642333984375" lon="166.45349465310573577880859375">
        <ele>1012.5999755859375</ele>
        <time>2016-08-12T20:27:23.000Z</time>
        <extensions>
          <ns3:TrackPointExtension>
            <ns3:atemp>14.0</ns3:atemp>
            <ns3:hr>135</ns3:hr>
          </ns3:TrackPointExtension>
        </extensions>
      </trkpt>
      <trkpt lat="-22.01083338819444179534912109375" lon="166.45350672304630279541015625">
        <ele>1012.79998779296875</ele>
        <time>2016-08-12T20:27:24.000Z</time>
        <extensions>
          <ns3:TrackPointExtension>
            <ns3:atemp>14.0</ns3:atemp>
            <ns3:hr>135</ns3:hr>
          </ns3:TrackPointExtension>
        </extensions>
      </trkpt>
      <trkpt lat="-22.0108376629650592803955078125" lon="166.45351904444396495819091796875">
        <ele>1013</ele>
        <time>2016-08-12T20:27:25.000Z</time>
        <extensions>
          <ns3:TrackPointExtension>
            <ns3:atemp>14.0</ns3:atemp>
            <ns3:hr>135</ns3:hr>
          </ns3:TrackPointExtension>
        </extensions>
      </trkpt>
      <trkpt lat="-22.0108390040695667266845703125" lon="166.45353094674646854400634765625">
        <ele>1013.20001220703125</ele>
        <time>2016-08-12T20:27:26.000Z</time>
        <extensions>
          <ns3:TrackPointExtension>
            <ns3:atemp>14.0</ns3:atemp>
            <ns3:hr>135</ns3:hr>
          </ns3:TrackPointExtension>
        </extensions>
      </trkpt>
      <trkpt lat="-22.01084084808826446533203125" lon="166.4535431005060672760009765625">
        <ele>1013.5999755859375</ele>
        <time>2016-08-12T20:27:27.000Z</time>
        <extensions>
          <ns3:TrackPointExtension>
            <ns3:atemp>14.0</ns3:atemp>
            <ns3:hr>135</ns3:hr>
          </ns3:TrackPointExtension>
        </extensions>
      </trkpt>
      <trkpt lat="-22.01084353029727935791015625" lon="166.45355659537017345428466796875">
        <ele>1013.79998779296875</ele>
        <time>2016-08-12T20:27:28.000Z</time>
        <extensions>
          <ns3:TrackPointExtension>
            <ns3:atemp>14.0</ns3:atemp>
            <ns3:hr>135</ns3:hr>
          </ns3:TrackPointExtension>
        </extensions>
      </trkpt>
      <trkpt lat="-22.01084881089627742767333984375" lon="166.45356816239655017852783203125">
        <ele>1014</ele>
        <time>2016-08-12T20:27:29.000Z</time>
        <extensions>
          <ns3:TrackPointExtension>
            <ns3:atemp>14.0</ns3:atemp>
            <ns3:hr>135</ns3:hr>
          </ns3:TrackPointExtension>
        </extensions>
      </trkpt>
      <trkpt lat="-22.010851912200450897216796875" lon="166.45358157344162464141845703125">
        <ele>1014</ele>
        <time>2016-08-12T20:27:30.000Z</time>
        <extensions>
          <ns3:TrackPointExtension>
            <ns3:atemp>14.0</ns3:atemp>
            <ns3:hr>135</ns3:hr>
          </ns3:TrackPointExtension>
        </extensions>
      </trkpt>
      <trkpt lat="-22.01085367240011692047119140625" lon="166.45359498448669910430908203125">
        <ele>1014.20001220703125</ele>
        <time>2016-08-12T20:27:31.000Z</time>
        <extensions>
          <ns3:TrackPointExtension>
            <ns3:atemp>14.0</ns3:atemp>
            <ns3:hr>135</ns3:hr>
          </ns3:TrackPointExtension>
        </extensions>
      </trkpt>
      <trkpt lat="-22.01085434295237064361572265625" lon="166.4536044560372829437255859375">
        <ele>1014.20001220703125</ele>
        <time>2016-08-12T20:27:32.000Z</time>
        <extensions>
          <ns3:TrackPointExtension>
            <ns3:atemp>14.0</ns3:atemp>
            <ns3:hr>135</ns3:hr>
          </ns3:TrackPointExtension>
        </extensions>
      </trkpt>
      <trkpt lat="-22.010855935513973236083984375" lon="166.4536151848733425140380859375">
        <ele>1014.5999755859375</ele>
        <time>2016-08-12T20:27:33.000Z</time>
        <extensions>
          <ns3:TrackPointExtension>
            <ns3:atemp>15.0</ns3:atemp>
            <ns3:hr>136</ns3:hr>
          </ns3:TrackPointExtension>
        </extensions>
      </trkpt>
      <trkpt lat="-22.0108571089804172515869140625" lon="166.453629098832607269287109375">
        <ele>1015.4000244140625</ele>
        <time>2016-08-12T20:27:34.000Z</time>
        <extensions>
          <ns3:TrackPointExtension>
            <ns3:atemp>15.0</ns3:atemp>
            <ns3:hr>136</ns3:hr>
          </ns3:TrackPointExtension>
        </extensions>
      </trkpt>
      <trkpt lat="-22.0108561031520366668701171875" lon="166.45364217460155487060546875">
        <ele>1015.5999755859375</ele>
        <time>2016-08-12T20:27:35.000Z</time>
        <extensions>
          <ns3:TrackPointExtension>
            <ns3:atemp>15.0</ns3:atemp>
            <ns3:hr>136</ns3:hr>
          </ns3:TrackPointExtension>
        </extensions>
      </trkpt>
      <trkpt lat="-22.0108554325997829437255859375" lon="166.4536557532846927642822265625">
        <ele>1015.79998779296875</ele>
        <time>2016-08-12T20:27:36.000Z</time>
        <extensions>
          <ns3:TrackPointExtension>
            <ns3:atemp>15.0</ns3:atemp>
            <ns3:hr>136</ns3:hr>
          </ns3:TrackPointExtension>
        </extensions>
      </trkpt>
      <trkpt lat="-22.010857276618480682373046875" lon="166.45367243327200412750244140625">
        <ele>1015.79998779296875</ele>
        <time>2016-08-12T20:27:37.000Z</time>
        <extensions>
          <ns3:TrackPointExtension>
            <ns3:atemp>15.0</ns3:atemp>
            <ns3:hr>136</ns3:hr>
          </ns3:TrackPointExtension>
        </extensions>
      </trkpt>
      <trkpt lat="-22.01086364686489105224609375" lon="166.45368819124996662139892578125">
        <ele>1016</ele>
        <time>2016-08-12T20:27:38.000Z</time>
        <extensions>
          <ns3:TrackPointExtension>
            <ns3:atemp>15.0</ns3:atemp>
            <ns3:hr>136</ns3:hr>
          </ns3:TrackPointExtension>
        </extensions>
      </trkpt>
      <trkpt lat="-22.010867334902286529541015625" lon="166.4537020213901996612548828125">
        <ele>1016</ele>
        <time>2016-08-12T20:27:39.000Z</time>
        <extensions>
          <ns3:TrackPointExtension>
            <ns3:atemp>15.0</ns3:atemp>
            <ns3:hr>136</ns3:hr>
          </ns3:TrackPointExtension>
        </extensions>
      </trkpt>
      <trkpt lat="-22.01086959801614284515380859375" lon="166.45371685735881328582763671875">
        <ele>1016.20001220703125</ele>
        <time>2016-08-12T20:27:40.000Z</time>
        <extensions>
          <ns3:TrackPointExtension>
            <ns3:atemp>15.0</ns3:atemp>
            <ns3:hr>137</ns3:hr>
          </ns3:TrackPointExtension>
        </extensions>
      </trkpt>
      <trkpt lat="-22.0108698494732379913330078125" lon="166.45373160950839519500732421875">
        <ele>1016.4000244140625</ele>
        <time>2016-08-12T20:27:41.000Z</time>
        <extensions>
          <ns3:TrackPointExtension>
            <ns3:atemp>15.0</ns3:atemp>
            <ns3:hr>137</ns3:hr>
          </ns3:TrackPointExtension>
        </extensions>
      </trkpt>
      <trkpt lat="-22.01086959801614284515380859375" lon="166.45374535582959651947021484375">
        <ele>1016.4000244140625</ele>
        <time>2016-08-12T20:27:42.000Z</time>
        <extensions>
          <ns3:TrackPointExtension>
            <ns3:atemp>15.0</ns3:atemp>
            <ns3:hr>137</ns3:hr>
          </ns3:TrackPointExtension>
        </extensions>
      </trkpt>
      <trkpt lat="-22.01086926274001598358154296875" lon="166.45375809632241725921630859375">
        <ele>1016.5999755859375</ele>
        <time>2016-08-12T20:27:43.000Z</time>
        <extensions>
          <ns3:TrackPointExtension>
            <ns3:atemp>15.0</ns3:atemp>
            <ns3:hr>137</ns3:hr>
          </ns3:TrackPointExtension>
        </extensions>
      </trkpt>
      <trkpt lat="-22.01086825691163539886474609375" lon="166.45377226173877716064453125">
        <ele>1017</ele>
        <time>2016-08-12T20:27:44.000Z</time>
        <extensions>
          <ns3:TrackPointExtension>
            <ns3:atemp>15.0</ns3:atemp>
            <ns3:hr>137</ns3:hr>
          </ns3:TrackPointExtension>
        </extensions>
      </trkpt>
      <trkpt lat="-22.01086926274001598358154296875" lon="166.45378701388835906982421875">
        <ele>1017.20001220703125</ele>
        <time>2016-08-12T20:27:45.000Z</time>
        <extensions>
          <ns3:TrackPointExtension>
            <ns3:atemp>15.0</ns3:atemp>
            <ns3:hr>137</ns3:hr>
          </ns3:TrackPointExtension>
        </extensions>
      </trkpt>
      <trkpt lat="-22.0108721964061260223388671875" lon="166.4538009278476238250732421875">
        <ele>1017.4000244140625</ele>
        <time>2016-08-12T20:27:46.000Z</time>
        <extensions>
          <ns3:TrackPointExtension>
            <ns3:atemp>15.0</ns3:atemp>
            <ns3:hr>137</ns3:hr>
          </ns3:TrackPointExtension>
        </extensions>
      </trkpt>
      <trkpt lat="-22.010876722633838653564453125" lon="166.4538129977881908416748046875">
        <ele>1017.4000244140625</ele>
        <time>2016-08-12T20:27:47.000Z</time>
        <extensions>
          <ns3:TrackPointExtension>
            <ns3:atemp>15.0</ns3:atemp>
            <ns3:hr>137</ns3:hr>
          </ns3:TrackPointExtension>
        </extensions>
      </trkpt>
      <trkpt lat="-22.0108819194138050079345703125" lon="166.453827582299709320068359375">
        <ele>1017.5999755859375</ele>
        <time>2016-08-12T20:27:48.000Z</time>
        <extensions>
          <ns3:TrackPointExtension>
            <ns3:atemp>15.0</ns3:atemp>
            <ns3:hr>138</ns3:hr>
          </ns3:TrackPointExtension>
        </extensions>
      </trkpt>
      <trkpt lat="-22.010887451469898223876953125" lon="166.45384208299219608306884765625">
        <ele>1017.5999755859375</ele>
        <time>2016-08-12T20:27:49.000Z</time>
        <extensions>
          <ns3:TrackPointExtension>
            <ns3:atemp>15.0</ns3:atemp>
            <ns3:hr>137</ns3:hr>
          </ns3:TrackPointExtension>
        </extensions>
      </trkpt>
      <trkpt lat="-22.01088921166956424713134765625" lon="166.453854739665985107421875">
        <ele>1017.5999755859375</ele>
        <time>2016-08-12T20:27:50.000Z</time>
        <extensions>
          <ns3:TrackPointExtension>
            <ns3:atemp>15.0</ns3:atemp>
            <ns3:hr>137</ns3:hr>
          </ns3:TrackPointExtension>
        </extensions>
      </trkpt>
      <trkpt lat="-22.01089004985988140106201171875" lon="166.4538669772446155548095703125">
        <ele>1017.79998779296875</ele>
        <time>2016-08-12T20:27:51.000Z</time>
        <extensions>
          <ns3:TrackPointExtension>
            <ns3:atemp>15.0</ns3:atemp>
            <ns3:hr>137</ns3:hr>
          </ns3:TrackPointExtension>
        </extensions>
      </trkpt>
      <trkpt lat="-22.01089273206889629364013671875" lon="166.45387879572808742523193359375">
        <ele>1018.20001220703125</ele>
        <time>2016-08-12T20:27:52.000Z</time>
        <extensions>
          <ns3:TrackPointExtension>
            <ns3:atemp>15.0</ns3:atemp>
            <ns3:hr>138</ns3:hr>
          </ns3:TrackPointExtension>
        </extensions>
      </trkpt>
      <trkpt lat="-22.0108956657350063323974609375" lon="166.453891284763813018798828125">
        <ele>1018.4000244140625</ele>
        <time>2016-08-12T20:27:53.000Z</time>
        <extensions>
          <ns3:TrackPointExtension>
            <ns3:atemp>15.0</ns3:atemp>
            <ns3:hr>137</ns3:hr>
          </ns3:TrackPointExtension>
        </extensions>
      </trkpt>
      <trkpt lat="-22.0108978450298309326171875" lon="166.453904025256633758544921875">
        <ele>1018.5999755859375</ele>
        <time>2016-08-12T20:27:54.000Z</time>
        <extensions>
          <ns3:TrackPointExtension>
            <ns3:atemp>15.0</ns3:atemp>
            <ns3:hr>138</ns3:hr>
          </ns3:TrackPointExtension>
        </extensions>
      </trkpt>
      <trkpt lat="-22.01089843176305294036865234375" lon="166.45391785539686679840087890625">
        <ele>1018.5999755859375</ele>
        <time>2016-08-12T20:27:55.000Z</time>
        <extensions>
          <ns3:TrackPointExtension>
            <ns3:atemp>15.0</ns3:atemp>
            <ns3:hr>138</ns3:hr>
          </ns3:TrackPointExtension>
        </extensions>
      </trkpt>
      <trkpt lat="-22.01089926995337009429931640625" lon="166.4539333619177341461181640625">
        <ele>1018.5999755859375</ele>
        <time>2016-08-12T20:27:56.000Z</time>
        <extensions>
          <ns3:TrackPointExtension>
            <ns3:atemp>15.0</ns3:atemp>
            <ns3:hr>138</ns3:hr>
          </ns3:TrackPointExtension>
        </extensions>
      </trkpt>
      <trkpt lat="-22.010903544723987579345703125" lon="166.45394819788634777069091796875">
        <ele>1018.5999755859375</ele>
        <time>2016-08-12T20:27:57.000Z</time>
        <extensions>
          <ns3:TrackPointExtension>
            <ns3:atemp>15.0</ns3:atemp>
            <ns3:hr>137</ns3:hr>
          </ns3:TrackPointExtension>
        </extensions>
      </trkpt>
      <trkpt lat="-22.01090966351330280303955078125" lon="166.4539633691310882568359375">
        <ele>1018.79998779296875</ele>
        <time>2016-08-12T20:27:58.000Z</time>
        <extensions>
          <ns3:TrackPointExtension>
            <ns3:atemp>15.0</ns3:atemp>
            <ns3:hr>137</ns3:hr>
          </ns3:TrackPointExtension>
        </extensions>
      </trkpt>
      <trkpt lat="-22.01091284863650798797607421875" lon="166.4539786241948604583740234375">
        <ele>1019</ele>
        <time>2016-08-12T20:27:59.000Z</time>
        <extensions>
          <ns3:TrackPointExtension>
            <ns3:atemp>15.0</ns3:atemp>
            <ns3:hr>137</ns3:hr>
          </ns3:TrackPointExtension>
        </extensions>
      </trkpt>
      <trkpt lat="-22.01091569848358631134033203125" lon="166.453992538154125213623046875">
        <ele>1019.20001220703125</ele>
        <time>2016-08-12T20:28:00.000Z</time>
        <extensions>
          <ns3:TrackPointExtension>
            <ns3:atemp>15.0</ns3:atemp>
            <ns3:hr>136</ns3:hr>
          </ns3:TrackPointExtension>
        </extensions>
      </trkpt>
      <trkpt lat="-22.0109167881309986114501953125" lon="166.45400737412273883819580078125">
        <ele>1019.4000244140625</ele>
        <time>2016-08-12T20:28:01.000Z</time>
        <extensions>
          <ns3:TrackPointExtension>
            <ns3:atemp>15.0</ns3:atemp>
            <ns3:hr>136</ns3:hr>
          </ns3:TrackPointExtension>
        </extensions>
      </trkpt>
      <trkpt lat="-22.01091569848358631134033203125" lon="166.45402262918651103973388671875">
        <ele>1019.5999755859375</ele>
        <time>2016-08-12T20:28:02.000Z</time>
        <extensions>
          <ns3:TrackPointExtension>
            <ns3:atemp>15.0</ns3:atemp>
            <ns3:hr>136</ns3:hr>
          </ns3:TrackPointExtension>
        </extensions>
      </trkpt>
      <trkpt lat="-22.010911591351032257080078125" lon="166.4540362916886806488037109375">
        <ele>1019.79998779296875</ele>
        <time>2016-08-12T20:28:03.000Z</time>
        <extensions>
          <ns3:TrackPointExtension>
            <ns3:atemp>15.0</ns3:atemp>
            <ns3:hr>136</ns3:hr>
          </ns3:TrackPointExtension>
        </extensions>
      </trkpt>
      <trkpt lat="-22.0109063945710659027099609375" lon="166.45404827781021595001220703125">
        <ele>1020</ele>
        <time>2016-08-12T20:28:04.000Z</time>
        <extensions>
          <ns3:TrackPointExtension>
            <ns3:atemp>15.0</ns3:atemp>
            <ns3:hr>135</ns3:hr>
          </ns3:TrackPointExtension>
        </extensions>
      </trkpt>
      <trkpt lat="-22.0109017007052898406982421875" lon="166.4540611021220684051513671875">
        <ele>1020.20001220703125</ele>
        <time>2016-08-12T20:28:05.000Z</time>
        <extensions>
          <ns3:TrackPointExtension>
            <ns3:atemp>15.0</ns3:atemp>
            <ns3:hr>135</ns3:hr>
          </ns3:TrackPointExtension>
        </extensions>
      </trkpt>
      <trkpt lat="-22.010899521410465240478515625" lon="166.45407627336680889129638671875">
        <ele>1020.5999755859375</ele>
        <time>2016-08-12T20:28:06.000Z</time>
        <extensions>
          <ns3:TrackPointExtension>
            <ns3:atemp>15.0</ns3:atemp>
            <ns3:hr>135</ns3:hr>
          </ns3:TrackPointExtension>
        </extensions>
      </trkpt>
      <trkpt lat="-22.010896503925323486328125" lon="166.454090774059295654296875">
        <ele>1020.5999755859375</ele>
        <time>2016-08-12T20:28:07.000Z</time>
        <extensions>
          <ns3:TrackPointExtension>
            <ns3:atemp>15.0</ns3:atemp>
            <ns3:hr>135</ns3:hr>
          </ns3:TrackPointExtension>
        </extensions>
      </trkpt>
      <trkpt lat="-22.01089155860245227813720703125" lon="166.4541050232946872711181640625">
        <ele>1020.4000244140625</ele>
        <time>2016-08-12T20:28:08.000Z</time>
        <extensions>
          <ns3:TrackPointExtension>
            <ns3:atemp>15.0</ns3:atemp>
            <ns3:hr>135</ns3:hr>
          </ns3:TrackPointExtension>
        </extensions>
      </trkpt>
      <trkpt lat="-22.01088384725153446197509765625" lon="166.4541167579591274261474609375">
        <ele>1020.5999755859375</ele>
        <time>2016-08-12T20:28:09.000Z</time>
        <extensions>
          <ns3:TrackPointExtension>
            <ns3:atemp>15.0</ns3:atemp>
            <ns3:hr>135</ns3:hr>
          </ns3:TrackPointExtension>
        </extensions>
      </trkpt>
      <trkpt lat="-22.010874710977077484130859375" lon="166.45412589423358440399169921875">
        <ele>1020.79998779296875</ele>
        <time>2016-08-12T20:28:10.000Z</time>
        <extensions>
          <ns3:TrackPointExtension>
            <ns3:atemp>15.0</ns3:atemp>
            <ns3:hr>135</ns3:hr>
          </ns3:TrackPointExtension>
        </extensions>
      </trkpt>
      <trkpt lat="-22.010865323245525360107421875" lon="166.45413394086062908172607421875">
        <ele>1021.20001220703125</ele>
        <time>2016-08-12T20:28:11.000Z</time>
        <extensions>
          <ns3:TrackPointExtension>
            <ns3:atemp>15.0</ns3:atemp>
            <ns3:hr>136</ns3:hr>
          </ns3:TrackPointExtension>
        </extensions>
      </trkpt>
      <trkpt lat="-22.0108564384281635284423828125" lon="166.4541422389447689056396484375">
        <ele>1021.5999755859375</ele>
        <time>2016-08-12T20:28:12.000Z</time>
        <extensions>
          <ns3:TrackPointExtension>
            <ns3:atemp>15.0</ns3:atemp>
            <ns3:hr>135</ns3:hr>
          </ns3:TrackPointExtension>
        </extensions>
      </trkpt>
      <trkpt lat="-22.01084847562015056610107421875" lon="166.45415338687598705291748046875">
        <ele>1021.79998779296875</ele>
        <time>2016-08-12T20:28:13.000Z</time>
        <extensions>
          <ns3:TrackPointExtension>
            <ns3:atemp>15.0</ns3:atemp>
            <ns3:hr>135</ns3:hr>
          </ns3:TrackPointExtension>
        </extensions>
      </trkpt>
      <trkpt lat="-22.010839842259883880615234375" lon="166.454164870083332061767578125">
        <ele>1021.5999755859375</ele>
        <time>2016-08-12T20:28:14.000Z</time>
        <extensions>
          <ns3:TrackPointExtension>
            <ns3:atemp>15.0</ns3:atemp>
            <ns3:hr>136</ns3:hr>
          </ns3:TrackPointExtension>
        </extensions>
      </trkpt>
      <trkpt lat="-22.01083154417574405670166015625" lon="166.4541764371097087860107421875">
        <ele>1021.5999755859375</ele>
        <time>2016-08-12T20:28:15.000Z</time>
        <extensions>
          <ns3:TrackPointExtension>
            <ns3:atemp>15.0</ns3:atemp>
            <ns3:hr>136</ns3:hr>
          </ns3:TrackPointExtension>
        </extensions>
      </trkpt>
      <trkpt lat="-22.01082282699644565582275390625" lon="166.4541851542890071868896484375">
        <ele>1021.5999755859375</ele>
        <time>2016-08-12T20:28:16.000Z</time>
        <extensions>
          <ns3:TrackPointExtension>
            <ns3:atemp>15.0</ns3:atemp>
            <ns3:hr>135</ns3:hr>
          </ns3:TrackPointExtension>
        </extensions>
      </trkpt>
      <trkpt lat="-22.01081394217908382415771484375" lon="166.45419336855411529541015625">
        <ele>1021.79998779296875</ele>
        <time>2016-08-12T20:28:17.000Z</time>
        <extensions>
          <ns3:TrackPointExtension>
            <ns3:atemp>15.0</ns3:atemp>
            <ns3:hr>136</ns3:hr>
          </ns3:TrackPointExtension>
        </extensions>
      </trkpt>
      <trkpt lat="-22.01080539263784885406494140625" lon="166.454201750457286834716796875">
        <ele>1022</ele>
        <time>2016-08-12T20:28:18.000Z</time>
        <extensions>
          <ns3:TrackPointExtension>
            <ns3:atemp>15.0</ns3:atemp>
            <ns3:hr>135</ns3:hr>
          </ns3:TrackPointExtension>
        </extensions>
      </trkpt>
      <trkpt lat="-22.0107977651059627532958984375" lon="166.45420946180820465087890625">
        <ele>1022.79998779296875</ele>
        <time>2016-08-12T20:28:19.000Z</time>
        <extensions>
          <ns3:TrackPointExtension>
            <ns3:atemp>15.0</ns3:atemp>
            <ns3:hr>136</ns3:hr>
          </ns3:TrackPointExtension>
        </extensions>
      </trkpt>
      <trkpt lat="-22.01078996993601322174072265625" lon="166.45421884953975677490234375">
        <ele>1023</ele>
        <time>2016-08-12T20:28:20.000Z</time>
        <extensions>
          <ns3:TrackPointExtension>
            <ns3:atemp>15.0</ns3:atemp>
            <ns3:hr>136</ns3:hr>
          </ns3:TrackPointExtension>
        </extensions>
      </trkpt>
      <trkpt lat="-22.01078225858509540557861328125" lon="166.4542307518422603607177734375">
        <ele>1023.4000244140625</ele>
        <time>2016-08-12T20:28:21.000Z</time>
        <extensions>
          <ns3:TrackPointExtension>
            <ns3:atemp>15.0</ns3:atemp>
            <ns3:hr>136</ns3:hr>
          </ns3:TrackPointExtension>
        </extensions>
      </trkpt>
      <trkpt lat="-22.0107746310532093048095703125" lon="166.4542414806783199310302734375">
        <ele>1023.5999755859375</ele>
        <time>2016-08-12T20:28:22.000Z</time>
        <extensions>
          <ns3:TrackPointExtension>
            <ns3:atemp>15.0</ns3:atemp>
            <ns3:hr>136</ns3:hr>
          </ns3:TrackPointExtension>
        </extensions>
      </trkpt>
      <trkpt lat="-22.01076666824519634246826171875" lon="166.454251706600189208984375">
        <ele>1023.79998779296875</ele>
        <time>2016-08-12T20:28:23.000Z</time>
        <extensions>
          <ns3:TrackPointExtension>
            <ns3:atemp>15.0</ns3:atemp>
            <ns3:hr>136</ns3:hr>
          </ns3:TrackPointExtension>
        </extensions>
      </trkpt>
      <trkpt lat="-22.010758034884929656982421875" lon="166.4542615972459316253662109375">
        <ele>1024</ele>
        <time>2016-08-12T20:28:24.000Z</time>
        <extensions>
          <ns3:TrackPointExtension>
            <ns3:atemp>15.0</ns3:atemp>
            <ns3:hr>135</ns3:hr>
          </ns3:TrackPointExtension>
        </extensions>
      </trkpt>
      <trkpt lat="-22.01075007207691669464111328125" lon="166.45427257753908634185791015625">
        <ele>1024.199951171875</ele>
        <time>2016-08-12T20:28:25.000Z</time>
        <extensions>
          <ns3:TrackPointExtension>
            <ns3:atemp>15.0</ns3:atemp>
            <ns3:hr>136</ns3:hr>
          </ns3:TrackPointExtension>
        </extensions>
      </trkpt>
      <trkpt lat="-22.010740935802459716796875" lon="166.45428313873708248138427734375">
        <ele>1024.4000244140625</ele>
        <time>2016-08-12T20:28:26.000Z</time>
        <extensions>
          <ns3:TrackPointExtension>
            <ns3:atemp>15.0</ns3:atemp>
            <ns3:hr>136</ns3:hr>
          </ns3:TrackPointExtension>
        </extensions>
      </trkpt>
      <trkpt lat="-22.010731212794780731201171875" lon="166.4542927779257297515869140625">
        <ele>1024.4000244140625</ele>
        <time>2016-08-12T20:28:27.000Z</time>
        <extensions>
          <ns3:TrackPointExtension>
            <ns3:atemp>15.0</ns3:atemp>
            <ns3:hr>136</ns3:hr>
          </ns3:TrackPointExtension>
        </extensions>
      </trkpt>
      <trkpt lat="-22.0107223279774188995361328125" lon="166.45430275239050388336181640625">
        <ele>1024.5999755859375</ele>
        <time>2016-08-12T20:28:28.000Z</time>
        <extensions>
          <ns3:TrackPointExtension>
            <ns3:atemp>15.0</ns3:atemp>
            <ns3:hr>136</ns3:hr>
          </ns3:TrackPointExtension>
        </extensions>
      </trkpt>
      <trkpt lat="-22.0107136107981204986572265625" lon="166.45431096665561199188232421875">
        <ele>1025</ele>
        <time>2016-08-12T20:28:29.000Z</time>
        <extensions>
          <ns3:TrackPointExtension>
            <ns3:atemp>15.0</ns3:atemp>
            <ns3:hr>136</ns3:hr>
          </ns3:TrackPointExtension>
        </extensions>
      </trkpt>
      <trkpt lat="-22.0107055641710758209228515625" lon="166.4543192647397518157958984375">
        <ele>1025.199951171875</ele>
        <time>2016-08-12T20:28:30.000Z</time>
        <extensions>
          <ns3:TrackPointExtension>
            <ns3:atemp>15.0</ns3:atemp>
            <ns3:hr>136</ns3:hr>
          </ns3:TrackPointExtension>
        </extensions>
      </trkpt>
      <trkpt lat="-22.01069734990596771240234375" lon="166.45432957448065280914306640625">
        <ele>1025.4000244140625</ele>
        <time>2016-08-12T20:28:31.000Z</time>
        <extensions>
          <ns3:TrackPointExtension>
            <ns3:atemp>15.0</ns3:atemp>
            <ns3:hr>136</ns3:hr>
          </ns3:TrackPointExtension>
        </extensions>
      </trkpt>
      <trkpt lat="-22.01068821363151073455810546875" lon="166.454340554773807525634765625">
        <ele>1025.5999755859375</ele>
        <time>2016-08-12T20:28:32.000Z</time>
        <extensions>
          <ns3:TrackPointExtension>
            <ns3:atemp>15.0</ns3:atemp>
            <ns3:hr>136</ns3:hr>
          </ns3:TrackPointExtension>
        </extensions>
      </trkpt>
      <trkpt lat="-22.010677568614482879638671875" lon="166.45435027778148651123046875">
        <ele>1025.5999755859375</ele>
        <time>2016-08-12T20:28:33.000Z</time>
        <extensions>
          <ns3:TrackPointExtension>
            <ns3:atemp>15.0</ns3:atemp>
            <ns3:hr>136</ns3:hr>
          </ns3:TrackPointExtension>
        </extensions>
      </trkpt>
      <trkpt lat="-22.01066709123551845550537109375" lon="166.4543571509420871734619140625">
        <ele>1025.800048828125</ele>
        <time>2016-08-12T20:28:34.000Z</time>
        <extensions>
          <ns3:TrackPointExtension>
            <ns3:atemp>15.0</ns3:atemp>
            <ns3:hr>136</ns3:hr>
          </ns3:TrackPointExtension>
        </extensions>
      </trkpt>
      <trkpt lat="-22.01065711677074432373046875" lon="166.45436477847397327423095703125">
        <ele>1026</ele>
        <time>2016-08-12T20:28:35.000Z</time>
        <extensions>
          <ns3:TrackPointExtension>
            <ns3:atemp>15.0</ns3:atemp>
            <ns3:hr>136</ns3:hr>
          </ns3:TrackPointExtension>
        </extensions>
      </trkpt>
      <trkpt lat="-22.01064907014369964599609375" lon="166.45437466911971569061279296875">
        <ele>1026.199951171875</ele>
        <time>2016-08-12T20:28:36.000Z</time>
        <extensions>
          <ns3:TrackPointExtension>
            <ns3:atemp>15.0</ns3:atemp>
            <ns3:hr>136</ns3:hr>
          </ns3:TrackPointExtension>
        </extensions>
      </trkpt>
      <trkpt lat="-22.01064144261181354522705078125" lon="166.45438640378415584564208984375">
        <ele>1026.4000244140625</ele>
        <time>2016-08-12T20:28:37.000Z</time>
        <extensions>
          <ns3:TrackPointExtension>
            <ns3:atemp>15.0</ns3:atemp>
            <ns3:hr>136</ns3:hr>
          </ns3:TrackPointExtension>
        </extensions>
      </trkpt>
      <trkpt lat="-22.01063272543251514434814453125" lon="166.45439847372472286224365234375">
        <ele>1026.5999755859375</ele>
        <time>2016-08-12T20:28:38.000Z</time>
        <extensions>
          <ns3:TrackPointExtension>
            <ns3:atemp>15.0</ns3:atemp>
            <ns3:hr>136</ns3:hr>
          </ns3:TrackPointExtension>
        </extensions>
      </trkpt>
      <trkpt lat="-22.01062518171966075897216796875" lon="166.45440903492271900177001953125">
        <ele>1026.800048828125</ele>
        <time>2016-08-12T20:28:39.000Z</time>
        <extensions>
          <ns3:TrackPointExtension>
            <ns3:atemp>15.0</ns3:atemp>
            <ns3:hr>136</ns3:hr>
          </ns3:TrackPointExtension>
        </extensions>
      </trkpt>
      <trkpt lat="-22.0106167159974575042724609375" lon="166.4544185064733028411865234375">
        <ele>1026.800048828125</ele>
        <time>2016-08-12T20:28:40.000Z</time>
        <extensions>
          <ns3:TrackPointExtension>
            <ns3:atemp>15.0</ns3:atemp>
            <ns3:hr>136</ns3:hr>
          </ns3:TrackPointExtension>
        </extensions>
      </trkpt>
      <trkpt lat="-22.01060657389461994171142578125" lon="166.45442781038582324981689453125">
        <ele>1027.199951171875</ele>
        <time>2016-08-12T20:28:41.000Z</time>
        <extensions>
          <ns3:TrackPointExtension>
            <ns3:atemp>15.0</ns3:atemp>
            <ns3:hr>136</ns3:hr>
          </ns3:TrackPointExtension>
        </extensions>
      </trkpt>
      <trkpt lat="-22.0105955936014652252197265625" lon="166.45443652756512165069580078125">
        <ele>1027.4000244140625</ele>
        <time>2016-08-12T20:28:42.000Z</time>
        <extensions>
          <ns3:TrackPointExtension>
            <ns3:atemp>15.0</ns3:atemp>
            <ns3:hr>136</ns3:hr>
          </ns3:TrackPointExtension>
        </extensions>
      </trkpt>
      <trkpt lat="-22.01058327220380306243896484375" lon="166.4544470049440860748291015625">
        <ele>1027.4000244140625</ele>
        <time>2016-08-12T20:28:43.000Z</time>
        <extensions>
          <ns3:TrackPointExtension>
            <ns3:atemp>15.0</ns3:atemp>
            <ns3:hr>136</ns3:hr>
          </ns3:TrackPointExtension>
        </extensions>
      </trkpt>
      <trkpt lat="-22.0105679333209991455078125" lon="166.4544597454369068145751953125">
        <ele>1027.4000244140625</ele>
        <time>2016-08-12T20:28:44.000Z</time>
        <extensions>
          <ns3:TrackPointExtension>
            <ns3:atemp>15.0</ns3:atemp>
            <ns3:hr>136</ns3:hr>
          </ns3:TrackPointExtension>
        </extensions>
      </trkpt>
      <trkpt lat="-22.0105530135333538055419921875" lon="166.454473324120044708251953125">
        <ele>1027.800048828125</ele>
        <time>2016-08-12T20:28:45.000Z</time>
        <extensions>
          <ns3:TrackPointExtension>
            <ns3:atemp>15.0</ns3:atemp>
            <ns3:hr>136</ns3:hr>
          </ns3:TrackPointExtension>
        </extensions>
      </trkpt>
      <trkpt lat="-22.01053767465054988861083984375" lon="166.4544869028031826019287109375">
        <ele>1028</ele>
        <time>2016-08-12T20:28:46.000Z</time>
        <extensions>
          <ns3:TrackPointExtension>
            <ns3:atemp>15.0</ns3:atemp>
            <ns3:hr>136</ns3:hr>
          </ns3:TrackPointExtension>
        </extensions>
      </trkpt>
      <trkpt lat="-22.010522000491619110107421875" lon="166.45450115203857421875">
        <ele>1028</ele>
        <time>2016-08-12T20:28:47.000Z</time>
        <extensions>
          <ns3:TrackPointExtension>
            <ns3:atemp>15.0</ns3:atemp>
            <ns3:hr>137</ns3:hr>
          </ns3:TrackPointExtension>
        </extensions>
      </trkpt>
      <trkpt lat="-22.01050733216106891632080078125" lon="166.45451548509299755096435546875">
        <ele>1028.199951171875</ele>
        <time>2016-08-12T20:28:48.000Z</time>
        <extensions>
          <ns3:TrackPointExtension>
            <ns3:atemp>15.0</ns3:atemp>
            <ns3:hr>137</ns3:hr>
          </ns3:TrackPointExtension>
        </extensions>
      </trkpt>
      <trkpt lat="-22.010489813983440399169921875" lon="166.45452906377613544464111328125">
        <ele>1028.4000244140625</ele>
        <time>2016-08-12T20:28:49.000Z</time>
        <extensions>
          <ns3:TrackPointExtension>
            <ns3:atemp>15.0</ns3:atemp>
            <ns3:hr>137</ns3:hr>
          </ns3:TrackPointExtension>
        </extensions>
      </trkpt>
      <trkpt lat="-22.01047413982450962066650390625" lon="166.45454163663089275360107421875">
        <ele>1028.5999755859375</ele>
        <time>2016-08-12T20:28:50.000Z</time>
        <extensions>
          <ns3:TrackPointExtension>
            <ns3:atemp>15.0</ns3:atemp>
            <ns3:hr>137</ns3:hr>
          </ns3:TrackPointExtension>
        </extensions>
      </trkpt>
      <trkpt lat="-22.0104584656655788421630859375" lon="166.45455420948565006256103515625">
        <ele>1028.800048828125</ele>
        <time>2016-08-12T20:28:51.000Z</time>
        <extensions>
          <ns3:TrackPointExtension>
            <ns3:atemp>15.0</ns3:atemp>
            <ns3:hr>137</ns3:hr>
          </ns3:TrackPointExtension>
        </extensions>
      </trkpt>
      <trkpt lat="-22.0104423724114894866943359375" lon="166.45456594415009021759033203125">
        <ele>1029.199951171875</ele>
        <time>2016-08-12T20:28:52.000Z</time>
        <extensions>
          <ns3:TrackPointExtension>
            <ns3:atemp>15.0</ns3:atemp>
            <ns3:hr>138</ns3:hr>
          </ns3:TrackPointExtension>
        </extensions>
      </trkpt>
      <trkpt lat="-22.01042736880481243133544921875" lon="166.45457583479583263397216796875">
        <ele>1029.199951171875</ele>
        <time>2016-08-12T20:28:53.000Z</time>
        <extensions>
          <ns3:TrackPointExtension>
            <ns3:atemp>15.0</ns3:atemp>
            <ns3:hr>138</ns3:hr>
          </ns3:TrackPointExtension>
        </extensions>
      </trkpt>
      <trkpt lat="-22.01041035354137420654296875" lon="166.454585976898670196533203125">
        <ele>1029.199951171875</ele>
        <time>2016-08-12T20:28:54.000Z</time>
        <extensions>
          <ns3:TrackPointExtension>
            <ns3:atemp>15.0</ns3:atemp>
            <ns3:hr>138</ns3:hr>
          </ns3:TrackPointExtension>
        </extensions>
      </trkpt>
      <trkpt lat="-22.01039291918277740478515625" lon="166.45459947176277637481689453125">
        <ele>1029.4000244140625</ele>
        <time>2016-08-12T20:28:55.000Z</time>
        <extensions>
          <ns3:TrackPointExtension>
            <ns3:atemp>15.0</ns3:atemp>
            <ns3:hr>138</ns3:hr>
          </ns3:TrackPointExtension>
        </extensions>
      </trkpt>
      <trkpt lat="-22.01037707738578319549560546875" lon="166.454608440399169921875">
        <ele>1029.5999755859375</ele>
        <time>2016-08-12T20:28:56.000Z</time>
        <extensions>
          <ns3:TrackPointExtension>
            <ns3:atemp>15.0</ns3:atemp>
            <ns3:hr>138</ns3:hr>
          </ns3:TrackPointExtension>
        </extensions>
      </trkpt>
      <trkpt lat="-22.01035930775105953216552734375" lon="166.4546159841120243072509765625">
        <ele>1029.5999755859375</ele>
        <time>2016-08-12T20:28:57.000Z</time>
        <extensions>
          <ns3:TrackPointExtension>
            <ns3:atemp>15.0</ns3:atemp>
            <ns3:hr>138</ns3:hr>
          </ns3:TrackPointExtension>
        </extensions>
      </trkpt>
      <trkpt lat="-22.01034271158277988433837890625" lon="166.4546230249106884002685546875">
        <ele>1029.5999755859375</ele>
        <time>2016-08-12T20:28:58.000Z</time>
        <extensions>
          <ns3:TrackPointExtension>
            <ns3:atemp>15.0</ns3:atemp>
            <ns3:hr>138</ns3:hr>
          </ns3:TrackPointExtension>
        </extensions>
      </trkpt>
      <trkpt lat="-22.01032527722418308258056640625" lon="166.45462377928197383880615234375">
        <ele>1029.800048828125</ele>
        <time>2016-08-12T20:28:59.000Z</time>
        <extensions>
          <ns3:TrackPointExtension>
            <ns3:atemp>15.0</ns3:atemp>
            <ns3:hr>138</ns3:hr>
          </ns3:TrackPointExtension>
        </extensions>
      </trkpt>
      <trkpt lat="-22.01030574738979339599609375" lon="166.4546236954629421234130859375">
        <ele>1030</ele>
        <time>2016-08-12T20:29:00.000Z</time>
        <extensions>
          <ns3:TrackPointExtension>
            <ns3:atemp>15.0</ns3:atemp>
            <ns3:hr>138</ns3:hr>
          </ns3:TrackPointExtension>
        </extensions>
      </trkpt>
      <trkpt lat="-22.01028831303119659423828125" lon="166.45462947897613048553466796875">
        <ele>1030</ele>
        <time>2016-08-12T20:29:01.000Z</time>
        <extensions>
          <ns3:TrackPointExtension>
            <ns3:atemp>15.0</ns3:atemp>
            <ns3:hr>138</ns3:hr>
          </ns3:TrackPointExtension>
        </extensions>
      </trkpt>
      <trkpt lat="-22.01026995666325092315673828125" lon="166.45463769324123859405517578125">
        <ele>1030.4000244140625</ele>
        <time>2016-08-12T20:29:02.000Z</time>
        <extensions>
          <ns3:TrackPointExtension>
            <ns3:atemp>15.0</ns3:atemp>
            <ns3:hr>138</ns3:hr>
          </ns3:TrackPointExtension>
        </extensions>
      </trkpt>
      <trkpt lat="-22.01025252230465412139892578125" lon="166.45464557223021984100341796875">
        <ele>1030.5999755859375</ele>
        <time>2016-08-12T20:29:03.000Z</time>
        <extensions>
          <ns3:TrackPointExtension>
            <ns3:atemp>15.0</ns3:atemp>
            <ns3:hr>139</ns3:hr>
          </ns3:TrackPointExtension>
        </extensions>
      </trkpt>
      <trkpt lat="-22.01023466885089874267578125" lon="166.45465093664824962615966796875">
        <ele>1030.5999755859375</ele>
        <time>2016-08-12T20:29:04.000Z</time>
        <extensions>
          <ns3:TrackPointExtension>
            <ns3:atemp>15.0</ns3:atemp>
            <ns3:hr>139</ns3:hr>
          </ns3:TrackPointExtension>
        </extensions>
      </trkpt>
      <trkpt lat="-22.01021731831133365631103515625" lon="166.45466200076043605804443359375">
        <ele>1030.5999755859375</ele>
        <time>2016-08-12T20:29:05.000Z</time>
        <extensions>
          <ns3:TrackPointExtension>
            <ns3:atemp>15.0</ns3:atemp>
            <ns3:hr>139</ns3:hr>
          </ns3:TrackPointExtension>
        </extensions>
      </trkpt>
      <trkpt lat="-22.01020172797143459320068359375" lon="166.4546768367290496826171875">
        <ele>1031</ele>
        <time>2016-08-12T20:29:06.000Z</time>
        <extensions>
          <ns3:TrackPointExtension>
            <ns3:atemp>15.0</ns3:atemp>
            <ns3:hr>139</ns3:hr>
          </ns3:TrackPointExtension>
        </extensions>
      </trkpt>
      <trkpt lat="-22.01018638908863067626953125" lon="166.4546902477741241455078125">
        <ele>1031.199951171875</ele>
        <time>2016-08-12T20:29:07.000Z</time>
        <extensions>
          <ns3:TrackPointExtension>
            <ns3:atemp>15.0</ns3:atemp>
            <ns3:hr>139</ns3:hr>
          </ns3:TrackPointExtension>
        </extensions>
      </trkpt>
      <trkpt lat="-22.010170631110668182373046875" lon="166.45470298826694488525390625">
        <ele>1031</ele>
        <time>2016-08-12T20:29:08.000Z</time>
        <extensions>
          <ns3:TrackPointExtension>
            <ns3:atemp>15.0</ns3:atemp>
            <ns3:hr>139</ns3:hr>
          </ns3:TrackPointExtension>
        </extensions>
      </trkpt>
      <trkpt lat="-22.01015462167561054229736328125" lon="166.4547145552933216094970703125">
        <ele>1031.199951171875</ele>
        <time>2016-08-12T20:29:09.000Z</time>
        <extensions>
          <ns3:TrackPointExtension>
            <ns3:atemp>15.0</ns3:atemp>
            <ns3:hr>139</ns3:hr>
          </ns3:TrackPointExtension>
        </extensions>
      </trkpt>
      <trkpt lat="-22.01014020480215549468994140625" lon="166.4547246135771274566650390625">
        <ele>1031.5999755859375</ele>
        <time>2016-08-12T20:29:10.000Z</time>
        <extensions>
          <ns3:TrackPointExtension>
            <ns3:atemp>15.0</ns3:atemp>
            <ns3:hr>139</ns3:hr>
          </ns3:TrackPointExtension>
        </extensions>
      </trkpt>
      <trkpt lat="-22.0101255364716053009033203125" lon="166.45473525859415531158447265625">
        <ele>1031.800048828125</ele>
        <time>2016-08-12T20:29:11.000Z</time>
        <extensions>
          <ns3:TrackPointExtension>
            <ns3:atemp>15.0</ns3:atemp>
            <ns3:hr>139</ns3:hr>
          </ns3:TrackPointExtension>
        </extensions>
      </trkpt>
      <trkpt lat="-22.01011053286492824554443359375" lon="166.454745233058929443359375">
        <ele>1032</ele>
        <time>2016-08-12T20:29:12.000Z</time>
        <extensions>
          <ns3:TrackPointExtension>
            <ns3:atemp>15.0</ns3:atemp>
            <ns3:hr>139</ns3:hr>
          </ns3:TrackPointExtension>
        </extensions>
      </trkpt>
      <trkpt lat="-22.010094188153743743896484375" lon="166.45475327968597412109375">
        <ele>1032.199951171875</ele>
        <time>2016-08-12T20:29:13.000Z</time>
        <extensions>
          <ns3:TrackPointExtension>
            <ns3:atemp>15.0</ns3:atemp>
            <ns3:hr>139</ns3:hr>
          </ns3:TrackPointExtension>
        </extensions>
      </trkpt>
      <trkpt lat="-22.01007499359548091888427734375" lon="166.45475663244724273681640625">
        <ele>1032.199951171875</ele>
        <time>2016-08-12T20:29:14.000Z</time>
        <extensions>
          <ns3:TrackPointExtension>
            <ns3:atemp>15.0</ns3:atemp>
            <ns3:hr>140</ns3:hr>
          </ns3:TrackPointExtension>
        </extensions>
      </trkpt>
      <trkpt lat="-22.01005705632269382476806640625" lon="166.4547574706375598907470703125">
        <ele>1032.4000244140625</ele>
        <time>2016-08-12T20:29:15.000Z</time>
        <extensions>
          <ns3:TrackPointExtension>
            <ns3:atemp>15.0</ns3:atemp>
            <ns3:hr>140</ns3:hr>
          </ns3:TrackPointExtension>
        </extensions>
      </trkpt>
      <trkpt lat="-22.01004079543054103851318359375" lon="166.45476275123655796051025390625">
        <ele>1032.4000244140625</ele>
        <time>2016-08-12T20:29:16.000Z</time>
        <extensions>
          <ns3:TrackPointExtension>
            <ns3:atemp>15.0</ns3:atemp>
            <ns3:hr>140</ns3:hr>
          </ns3:TrackPointExtension>
        </extensions>
      </trkpt>
      <trkpt lat="-22.01002419926226139068603515625" lon="166.45477180369198322296142578125">
        <ele>1032.5999755859375</ele>
        <time>2016-08-12T20:29:17.000Z</time>
        <extensions>
          <ns3:TrackPointExtension>
            <ns3:atemp>15.0</ns3:atemp>
            <ns3:hr>140</ns3:hr>
          </ns3:TrackPointExtension>
        </extensions>
      </trkpt>
      <trkpt lat="-22.01000978238880634307861328125" lon="166.45478211343288421630859375">
        <ele>1032.5999755859375</ele>
        <time>2016-08-12T20:29:18.000Z</time>
        <extensions>
          <ns3:TrackPointExtension>
            <ns3:atemp>15.0</ns3:atemp>
            <ns3:hr>140</ns3:hr>
          </ns3:TrackPointExtension>
        </extensions>
      </trkpt>
      <trkpt lat="-22.0099954493343830108642578125" lon="166.4547913335263729095458984375">
        <ele>1032.800048828125</ele>
        <time>2016-08-12T20:29:19.000Z</time>
        <extensions>
          <ns3:TrackPointExtension>
            <ns3:atemp>15.0</ns3:atemp>
            <ns3:hr>141</ns3:hr>
          </ns3:TrackPointExtension>
        </extensions>
      </trkpt>
      <trkpt lat="-22.0099796913564205169677734375" lon="166.45480348728597164154052734375">
        <ele>1032.800048828125</ele>
        <time>2016-08-12T20:29:20.000Z</time>
        <extensions>
          <ns3:TrackPointExtension>
            <ns3:atemp>15.0</ns3:atemp>
            <ns3:hr>141</ns3:hr>
          </ns3:TrackPointExtension>
        </extensions>
      </trkpt>
      <trkpt lat="-22.009965442121028900146484375" lon="166.45481388084590435028076171875">
        <ele>1033.199951171875</ele>
        <time>2016-08-12T20:29:21.000Z</time>
        <extensions>
          <ns3:TrackPointExtension>
            <ns3:atemp>15.0</ns3:atemp>
            <ns3:hr>141</ns3:hr>
          </ns3:TrackPointExtension>
        </extensions>
      </trkpt>
      <trkpt lat="-22.00995094142854213714599609375" lon="166.4548243582248687744140625">
        <ele>1033.199951171875</ele>
        <time>2016-08-12T20:29:22.000Z</time>
        <extensions>
          <ns3:TrackPointExtension>
            <ns3:atemp>15.0</ns3:atemp>
            <ns3:hr>141</ns3:hr>
          </ns3:TrackPointExtension>
        </extensions>
      </trkpt>
      <trkpt lat="-22.00993468053638935089111328125" lon="166.45483617670834064483642578125">
        <ele>1033.4000244140625</ele>
        <time>2016-08-12T20:29:23.000Z</time>
        <extensions>
          <ns3:TrackPointExtension>
            <ns3:atemp>15.0</ns3:atemp>
            <ns3:hr>141</ns3:hr>
          </ns3:TrackPointExtension>
        </extensions>
      </trkpt>
      <trkpt lat="-22.00991959311068058013916015625" lon="166.45484623499214649200439453125">
        <ele>1033.800048828125</ele>
        <time>2016-08-12T20:29:24.000Z</time>
        <extensions>
          <ns3:TrackPointExtension>
            <ns3:atemp>15.0</ns3:atemp>
            <ns3:hr>141</ns3:hr>
          </ns3:TrackPointExtension>
        </extensions>
      </trkpt>
      <trkpt lat="-22.0099042542278766632080078125" lon="166.4548600651323795318603515625">
        <ele>1033.800048828125</ele>
        <time>2016-08-12T20:29:25.000Z</time>
        <extensions>
          <ns3:TrackPointExtension>
            <ns3:atemp>15.0</ns3:atemp>
            <ns3:hr>142</ns3:hr>
          </ns3:TrackPointExtension>
        </extensions>
      </trkpt>
      <trkpt lat="-22.00989067554473876953125" lon="166.45487322472035884857177734375">
        <ele>1034</ele>
        <time>2016-08-12T20:29:26.000Z</time>
        <extensions>
          <ns3:TrackPointExtension>
            <ns3:atemp>15.0</ns3:atemp>
            <ns3:hr>142</ns3:hr>
          </ns3:TrackPointExtension>
        </extensions>
      </trkpt>
      <trkpt lat="-22.00988195836544036865234375" lon="166.45488160662353038787841796875">
        <ele>1034.4000244140625</ele>
        <time>2016-08-12T20:29:27.000Z</time>
        <extensions>
          <ns3:TrackPointExtension>
            <ns3:atemp>15.0</ns3:atemp>
            <ns3:hr>142</ns3:hr>
          </ns3:TrackPointExtension>
        </extensions>
      </trkpt>
      <trkpt lat="-22.00987533666193485260009765625" lon="166.45488881506025791168212890625">
        <ele>1034.5999755859375</ele>
        <time>2016-08-12T20:29:28.000Z</time>
        <extensions>
          <ns3:TrackPointExtension>
            <ns3:atemp>14.0</ns3:atemp>
            <ns3:hr>142</ns3:hr>
          </ns3:TrackPointExtension>
        </extensions>
      </trkpt>
      <trkpt lat="-22.0098693855106830596923828125" lon="166.45489853806793689727783203125">
        <ele>1034.800048828125</ele>
        <time>2016-08-12T20:29:29.000Z</time>
        <extensions>
          <ns3:TrackPointExtension>
            <ns3:atemp>14.0</ns3:atemp>
            <ns3:hr>142</ns3:hr>
          </ns3:TrackPointExtension>
        </extensions>
      </trkpt>
      <trkpt lat="-22.00986209325492382049560546875" lon="166.45490742288529872894287109375">
        <ele>1034.800048828125</ele>
        <time>2016-08-12T20:29:30.000Z</time>
        <extensions>
          <ns3:TrackPointExtension>
            <ns3:atemp>14.0</ns3:atemp>
            <ns3:hr>142</ns3:hr>
          </ns3:TrackPointExtension>
        </extensions>
      </trkpt>
      <trkpt lat="-22.009855471551418304443359375" lon="166.45491865463554859161376953125">
        <ele>1035</ele>
        <time>2016-08-12T20:29:31.000Z</time>
        <extensions>
          <ns3:TrackPointExtension>
            <ns3:atemp>14.0</ns3:atemp>
            <ns3:hr>142</ns3:hr>
          </ns3:TrackPointExtension>
        </extensions>
      </trkpt>
      <trkpt lat="-22.00984935276210308074951171875" lon="166.45493105985224246978759765625">
        <ele>1035.199951171875</ele>
        <time>2016-08-12T20:29:32.000Z</time>
        <extensions>
          <ns3:TrackPointExtension>
            <ns3:atemp>14.0</ns3:atemp>
            <ns3:hr>142</ns3:hr>
          </ns3:TrackPointExtension>
        </extensions>
      </trkpt>
      <trkpt lat="-22.009842060506343841552734375" lon="166.454941369593143463134765625">
        <ele>1035.4000244140625</ele>
        <time>2016-08-12T20:29:33.000Z</time>
        <extensions>
          <ns3:TrackPointExtension>
            <ns3:atemp>14.0</ns3:atemp>
            <ns3:hr>142</ns3:hr>
          </ns3:TrackPointExtension>
        </extensions>
      </trkpt>
      <trkpt lat="-22.00983376242220401763916015625" lon="166.45495000295341014862060546875">
        <ele>1035.5999755859375</ele>
        <time>2016-08-12T20:29:34.000Z</time>
        <extensions>
          <ns3:TrackPointExtension>
            <ns3:atemp>14.0</ns3:atemp>
            <ns3:hr>142</ns3:hr>
          </ns3:TrackPointExtension>
        </extensions>
      </trkpt>
      <trkpt lat="-22.0098249614238739013671875" lon="166.45495838485658168792724609375">
        <ele>1035.800048828125</ele>
        <time>2016-08-12T20:29:35.000Z</time>
        <extensions>
          <ns3:TrackPointExtension>
            <ns3:atemp>14.0</ns3:atemp>
            <ns3:hr>141</ns3:hr>
          </ns3:TrackPointExtension>
        </extensions>
      </trkpt>
      <trkpt lat="-22.00981716625392436981201171875" lon="166.4549686945974826812744140625">
        <ele>1036</ele>
        <time>2016-08-12T20:29:36.000Z</time>
        <extensions>
          <ns3:TrackPointExtension>
            <ns3:atemp>14.0</ns3:atemp>
            <ns3:hr>141</ns3:hr>
          </ns3:TrackPointExtension>
        </extensions>
      </trkpt>
      <trkpt lat="-22.009807862341403961181640625" lon="166.45497917197644710540771484375">
        <ele>1036.199951171875</ele>
        <time>2016-08-12T20:29:37.000Z</time>
        <extensions>
          <ns3:TrackPointExtension>
            <ns3:atemp>14.0</ns3:atemp>
            <ns3:hr>142</ns3:hr>
          </ns3:TrackPointExtension>
        </extensions>
      </trkpt>
      <trkpt lat="-22.0097979716956615447998046875" lon="166.45498906262218952178955078125">
        <ele>1036.4000244140625</ele>
        <time>2016-08-12T20:29:38.000Z</time>
        <extensions>
          <ns3:TrackPointExtension>
            <ns3:atemp>14.0</ns3:atemp>
            <ns3:hr>141</ns3:hr>
          </ns3:TrackPointExtension>
        </extensions>
      </trkpt>
      <trkpt lat="-22.00978984124958515167236328125" lon="166.454999037086963653564453125">
        <ele>1036.4000244140625</ele>
        <time>2016-08-12T20:29:39.000Z</time>
        <extensions>
          <ns3:TrackPointExtension>
            <ns3:atemp>14.0</ns3:atemp>
            <ns3:hr>141</ns3:hr>
          </ns3:TrackPointExtension>
        </extensions>
      </trkpt>
      <trkpt lat="-22.009783722460269927978515625" lon="166.45501010119915008544921875">
        <ele>1036.5999755859375</ele>
        <time>2016-08-12T20:29:40.000Z</time>
        <extensions>
          <ns3:TrackPointExtension>
            <ns3:atemp>14.0</ns3:atemp>
            <ns3:hr>141</ns3:hr>
          </ns3:TrackPointExtension>
        </extensions>
      </trkpt>
      <trkpt lat="-22.009777687489986419677734375" lon="166.45502342842519283294677734375">
        <ele>1036.800048828125</ele>
        <time>2016-08-12T20:29:41.000Z</time>
        <extensions>
          <ns3:TrackPointExtension>
            <ns3:atemp>14.0</ns3:atemp>
            <ns3:hr>141</ns3:hr>
          </ns3:TrackPointExtension>
        </extensions>
      </trkpt>
      <trkpt lat="-22.00977056287229061126708984375" lon="166.45504086278378963470458984375">
        <ele>1037.199951171875</ele>
        <time>2016-08-12T20:29:42.000Z</time>
        <extensions>
          <ns3:TrackPointExtension>
            <ns3:atemp>14.0</ns3:atemp>
            <ns3:hr>141</ns3:hr>
          </ns3:TrackPointExtension>
        </extensions>
      </trkpt>
      <trkpt lat="-22.00976335443556308746337890625" lon="166.4550555311143398284912109375">
        <ele>1037.4000244140625</ele>
        <time>2016-08-12T20:29:43.000Z</time>
        <extensions>
          <ns3:TrackPointExtension>
            <ns3:atemp>14.0</ns3:atemp>
            <ns3:hr>141</ns3:hr>
          </ns3:TrackPointExtension>
        </extensions>
      </trkpt>
      <trkpt lat="-22.00975631363689899444580078125" lon="166.45506785251200199127197265625">
        <ele>1037.4000244140625</ele>
        <time>2016-08-12T20:29:44.000Z</time>
        <extensions>
          <ns3:TrackPointExtension>
            <ns3:atemp>14.0</ns3:atemp>
            <ns3:hr>141</ns3:hr>
          </ns3:TrackPointExtension>
        </extensions>
      </trkpt>
      <trkpt lat="-22.0097493566572666168212890625" lon="166.455081515014171600341796875">
        <ele>1037.5999755859375</ele>
        <time>2016-08-12T20:29:45.000Z</time>
        <extensions>
          <ns3:TrackPointExtension>
            <ns3:atemp>14.0</ns3:atemp>
            <ns3:hr>141</ns3:hr>
          </ns3:TrackPointExtension>
        </extensions>
      </trkpt>
      <trkpt lat="-22.00974650681018829345703125" lon="166.45509861409664154052734375">
        <ele>1037.5999755859375</ele>
        <time>2016-08-12T20:29:46.000Z</time>
        <extensions>
          <ns3:TrackPointExtension>
            <ns3:atemp>14.0</ns3:atemp>
            <ns3:hr>141</ns3:hr>
          </ns3:TrackPointExtension>
        </extensions>
      </trkpt>
      <trkpt lat="-22.00974114239215850830078125" lon="166.45511093549430370330810546875">
        <ele>1037.800048828125</ele>
        <time>2016-08-12T20:29:47.000Z</time>
        <extensions>
          <ns3:TrackPointExtension>
            <ns3:atemp>14.0</ns3:atemp>
            <ns3:hr>141</ns3:hr>
          </ns3:TrackPointExtension>
        </extensions>
      </trkpt>
      <trkpt lat="-22.00973669998347759246826171875" lon="166.4551235921680927276611328125">
        <ele>1037.5999755859375</ele>
        <time>2016-08-12T20:29:48.000Z</time>
        <extensions>
          <ns3:TrackPointExtension>
            <ns3:atemp>14.0</ns3:atemp>
            <ns3:hr>140</ns3:hr>
          </ns3:TrackPointExtension>
        </extensions>
      </trkpt>
      <trkpt lat="-22.00973100028932094573974609375" lon="166.455136500298976898193359375">
        <ele>1037.5999755859375</ele>
        <time>2016-08-12T20:29:49.000Z</time>
        <extensions>
          <ns3:TrackPointExtension>
            <ns3:atemp>14.0</ns3:atemp>
            <ns3:hr>140</ns3:hr>
          </ns3:TrackPointExtension>
        </extensions>
      </trkpt>
      <trkpt lat="-22.0097230374813079833984375" lon="166.45515133626759052276611328125">
        <ele>1038</ele>
        <time>2016-08-12T20:29:50.000Z</time>
        <extensions>
          <ns3:TrackPointExtension>
            <ns3:atemp>14.0</ns3:atemp>
            <ns3:hr>140</ns3:hr>
          </ns3:TrackPointExtension>
        </extensions>
      </trkpt>
      <trkpt lat="-22.00971540994942188262939453125" lon="166.4551649987697601318359375">
        <ele>1038.4000244140625</ele>
        <time>2016-08-12T20:29:51.000Z</time>
        <extensions>
          <ns3:TrackPointExtension>
            <ns3:atemp>14.0</ns3:atemp>
            <ns3:hr>140</ns3:hr>
          </ns3:TrackPointExtension>
        </extensions>
      </trkpt>
      <trkpt lat="-22.00970702804625034332275390625" lon="166.45517866127192974090576171875">
        <ele>1038.5999755859375</ele>
        <time>2016-08-12T20:29:52.000Z</time>
        <extensions>
          <ns3:TrackPointExtension>
            <ns3:atemp>14.0</ns3:atemp>
            <ns3:hr>140</ns3:hr>
          </ns3:TrackPointExtension>
        </extensions>
      </trkpt>
      <trkpt lat="-22.00969554483890533447265625" lon="166.45519089885056018829345703125">
        <ele>1038.800048828125</ele>
        <time>2016-08-12T20:29:53.000Z</time>
        <extensions>
          <ns3:TrackPointExtension>
            <ns3:atemp>14.0</ns3:atemp>
            <ns3:hr>140</ns3:hr>
          </ns3:TrackPointExtension>
        </extensions>
      </trkpt>
      <trkpt lat="-22.00968288816511631011962890625" lon="166.455199532210826873779296875">
        <ele>1039</ele>
        <time>2016-08-12T20:29:54.000Z</time>
        <extensions>
          <ns3:TrackPointExtension>
            <ns3:atemp>14.0</ns3:atemp>
            <ns3:hr>140</ns3:hr>
          </ns3:TrackPointExtension>
        </extensions>
      </trkpt>
      <trkpt lat="-22.0096692256629467010498046875" lon="166.45520581863820552825927734375">
        <ele>1039</ele>
        <time>2016-08-12T20:29:55.000Z</time>
        <extensions>
          <ns3:TrackPointExtension>
            <ns3:atemp>14.0</ns3:atemp>
            <ns3:hr>140</ns3:hr>
          </ns3:TrackPointExtension>
        </extensions>
      </trkpt>
      <trkpt lat="-22.0096551440656185150146484375" lon="166.455211937427520751953125">
        <ele>1039.199951171875</ele>
        <time>2016-08-12T20:29:56.000Z</time>
        <extensions>
          <ns3:TrackPointExtension>
            <ns3:atemp>14.0</ns3:atemp>
            <ns3:hr>140</ns3:hr>
          </ns3:TrackPointExtension>
        </extensions>
      </trkpt>
      <trkpt lat="-22.00964014045894145965576171875" lon="166.4552186429500579833984375">
        <ele>1039.4000244140625</ele>
        <time>2016-08-12T20:29:57.000Z</time>
        <extensions>
          <ns3:TrackPointExtension>
            <ns3:atemp>14.0</ns3:atemp>
            <ns3:hr>140</ns3:hr>
          </ns3:TrackPointExtension>
        </extensions>
      </trkpt>
      <trkpt lat="-22.00962580740451812744140625" lon="166.455226354300975799560546875">
        <ele>1039.4000244140625</ele>
        <time>2016-08-12T20:29:58.000Z</time>
        <extensions>
          <ns3:TrackPointExtension>
            <ns3:atemp>14.0</ns3:atemp>
            <ns3:hr>140</ns3:hr>
          </ns3:TrackPointExtension>
        </extensions>
      </trkpt>
      <trkpt lat="-22.00961315073072910308837890625" lon="166.45523138344287872314453125">
        <ele>1039.4000244140625</ele>
        <time>2016-08-12T20:29:59.000Z</time>
        <extensions>
          <ns3:TrackPointExtension>
            <ns3:atemp>14.0</ns3:atemp>
            <ns3:hr>139</ns3:hr>
          </ns3:TrackPointExtension>
        </extensions>
      </trkpt>
      <trkpt lat="-22.0096021704375743865966796875" lon="166.45523297600448131561279296875">
        <ele>1039.4000244140625</ele>
        <time>2016-08-12T20:30:00.000Z</time>
        <extensions>
          <ns3:TrackPointExtension>
            <ns3:atemp>14.0</ns3:atemp>
            <ns3:hr>139</ns3:hr>
          </ns3:TrackPointExtension>
        </extensions>
      </trkpt>
      <trkpt lat="-22.00959135778248310089111328125" lon="166.45523800514638423919677734375">
        <ele>1039.5999755859375</ele>
        <time>2016-08-12T20:30:01.000Z</time>
        <extensions>
          <ns3:TrackPointExtension>
            <ns3:atemp>14.0</ns3:atemp>
            <ns3:hr>139</ns3:hr>
          </ns3:TrackPointExtension>
        </extensions>
      </trkpt>
      <trkpt lat="-22.0095793716609477996826171875" lon="166.4552463032305240631103515625">
        <ele>1040</ele>
        <time>2016-08-12T20:30:02.000Z</time>
        <extensions>
          <ns3:TrackPointExtension>
            <ns3:atemp>14.0</ns3:atemp>
            <ns3:hr>139</ns3:hr>
          </ns3:TrackPointExtension>
        </extensions>
      </trkpt>
      <trkpt lat="-22.00956654734909534454345703125" lon="166.4552566967904567718505859375">
        <ele>1040</ele>
        <time>2016-08-12T20:30:03.000Z</time>
        <extensions>
          <ns3:TrackPointExtension>
            <ns3:atemp>14.0</ns3:atemp>
            <ns3:hr>138</ns3:hr>
          </ns3:TrackPointExtension>
        </extensions>
      </trkpt>
      <trkpt lat="-22.0095528848469257354736328125" lon="166.45526348613202571868896484375">
        <ele>1040.199951171875</ele>
        <time>2016-08-12T20:30:04.000Z</time>
        <extensions>
          <ns3:TrackPointExtension>
            <ns3:atemp>14.0</ns3:atemp>
            <ns3:hr>138</ns3:hr>
          </ns3:TrackPointExtension>
        </extensions>
      </trkpt>
      <trkpt lat="-22.00953972525894641876220703125" lon="166.45526893436908721923828125">
        <ele>1040.4000244140625</ele>
        <time>2016-08-12T20:30:05.000Z</time>
        <extensions>
          <ns3:TrackPointExtension>
            <ns3:atemp>14.0</ns3:atemp>
            <ns3:hr>138</ns3:hr>
          </ns3:TrackPointExtension>
        </extensions>
      </trkpt>
      <trkpt lat="-22.009527571499347686767578125" lon="166.45527455024421215057373046875">
        <ele>1040.4000244140625</ele>
        <time>2016-08-12T20:30:06.000Z</time>
        <extensions>
          <ns3:TrackPointExtension>
            <ns3:atemp>14.0</ns3:atemp>
            <ns3:hr>138</ns3:hr>
          </ns3:TrackPointExtension>
        </extensions>
      </trkpt>
      <trkpt lat="-22.00951491482555866241455078125" lon="166.45528108812868595123291015625">
        <ele>1040.4000244140625</ele>
        <time>2016-08-12T20:30:07.000Z</time>
        <extensions>
          <ns3:TrackPointExtension>
            <ns3:atemp>14.0</ns3:atemp>
            <ns3:hr>137</ns3:hr>
          </ns3:TrackPointExtension>
        </extensions>
      </trkpt>
      <trkpt lat="-22.0095030963420867919921875" lon="166.4552875421941280364990234375">
        <ele>1040.5999755859375</ele>
        <time>2016-08-12T20:30:08.000Z</time>
        <extensions>
          <ns3:TrackPointExtension>
            <ns3:atemp>14.0</ns3:atemp>
            <ns3:hr>138</ns3:hr>
          </ns3:TrackPointExtension>
        </extensions>
      </trkpt>
      <trkpt lat="-22.0094921998679637908935546875" lon="166.4552949182689189910888671875">
        <ele>1040.800048828125</ele>
        <time>2016-08-12T20:30:09.000Z</time>
        <extensions>
          <ns3:TrackPointExtension>
            <ns3:atemp>14.0</ns3:atemp>
            <ns3:hr>137</ns3:hr>
          </ns3:TrackPointExtension>
        </extensions>
      </trkpt>
      <trkpt lat="-22.00948038138449192047119140625" lon="166.455302797257900238037109375">
        <ele>1040.800048828125</ele>
        <time>2016-08-12T20:30:10.000Z</time>
        <extensions>
          <ns3:TrackPointExtension>
            <ns3:atemp>14.0</ns3:atemp>
            <ns3:hr>137</ns3:hr>
          </ns3:TrackPointExtension>
        </extensions>
      </trkpt>
      <trkpt lat="-22.009467892348766326904296875" lon="166.45530975423753261566162109375">
        <ele>1041</ele>
        <time>2016-08-12T20:30:11.000Z</time>
        <extensions>
          <ns3:TrackPointExtension>
            <ns3:atemp>14.0</ns3:atemp>
            <ns3:hr>137</ns3:hr>
          </ns3:TrackPointExtension>
        </extensions>
      </trkpt>
      <trkpt lat="-22.00945540331304073333740234375" lon="166.45531662739813327789306640625">
        <ele>1041.199951171875</ele>
        <time>2016-08-12T20:30:12.000Z</time>
        <extensions>
          <ns3:TrackPointExtension>
            <ns3:atemp>14.0</ns3:atemp>
            <ns3:hr>137</ns3:hr>
          </ns3:TrackPointExtension>
        </extensions>
      </trkpt>
      <trkpt lat="-22.0094419084489345550537109375" lon="166.4553230814635753631591796875">
        <ele>1041.4000244140625</ele>
        <time>2016-08-12T20:30:13.000Z</time>
        <extensions>
          <ns3:TrackPointExtension>
            <ns3:atemp>14.0</ns3:atemp>
            <ns3:hr>136</ns3:hr>
          </ns3:TrackPointExtension>
        </extensions>
      </trkpt>
      <trkpt lat="-22.00942866504192352294921875" lon="166.4553314633667469024658203125">
        <ele>1041.5999755859375</ele>
        <time>2016-08-12T20:30:14.000Z</time>
        <extensions>
          <ns3:TrackPointExtension>
            <ns3:atemp>14.0</ns3:atemp>
            <ns3:hr>136</ns3:hr>
          </ns3:TrackPointExtension>
        </extensions>
      </trkpt>
      <trkpt lat="-22.00941391289234161376953125" lon="166.45534059964120388031005859375">
        <ele>1041.800048828125</ele>
        <time>2016-08-12T20:30:15.000Z</time>
        <extensions>
          <ns3:TrackPointExtension>
            <ns3:atemp>14.0</ns3:atemp>
            <ns3:hr>136</ns3:hr>
          </ns3:TrackPointExtension>
        </extensions>
      </trkpt>
      <trkpt lat="-22.0094020105898380279541015625" lon="166.45535451360046863555908203125">
        <ele>1041.800048828125</ele>
        <time>2016-08-12T20:30:16.000Z</time>
        <extensions>
          <ns3:TrackPointExtension>
            <ns3:atemp>14.0</ns3:atemp>
            <ns3:hr>136</ns3:hr>
          </ns3:TrackPointExtension>
        </extensions>
      </trkpt>
      <trkpt lat="-22.00939136557281017303466796875" lon="166.45536574535071849822998046875">
        <ele>1042</ele>
        <time>2016-08-12T20:30:17.000Z</time>
        <extensions>
          <ns3:TrackPointExtension>
            <ns3:atemp>14.0</ns3:atemp>
            <ns3:hr>136</ns3:hr>
          </ns3:TrackPointExtension>
        </extensions>
      </trkpt>
      <trkpt lat="-22.00938130728900432586669921875" lon="166.45537764765322208404541015625">
        <ele>1042.199951171875</ele>
        <time>2016-08-12T20:30:18.000Z</time>
        <extensions>
          <ns3:TrackPointExtension>
            <ns3:atemp>14.0</ns3:atemp>
            <ns3:hr>135</ns3:hr>
          </ns3:TrackPointExtension>
        </extensions>
      </trkpt>
      <trkpt lat="-22.00937108136713504791259765625" lon="166.455388627946376800537109375">
        <ele>1042.4000244140625</ele>
        <time>2016-08-12T20:30:19.000Z</time>
        <extensions>
          <ns3:TrackPointExtension>
            <ns3:atemp>14.0</ns3:atemp>
            <ns3:hr>135</ns3:hr>
          </ns3:TrackPointExtension>
        </extensions>
      </trkpt>
      <trkpt lat="-22.009362615644931793212890625" lon="166.45540036261081695556640625">
        <ele>1042.5999755859375</ele>
        <time>2016-08-12T20:30:20.000Z</time>
        <extensions>
          <ns3:TrackPointExtension>
            <ns3:atemp>14.0</ns3:atemp>
            <ns3:hr>136</ns3:hr>
          </ns3:TrackPointExtension>
        </extensions>
      </trkpt>
      <trkpt lat="-22.00935490429401397705078125" lon="166.45541151054203510284423828125">
        <ele>1042.800048828125</ele>
        <time>2016-08-12T20:30:21.000Z</time>
        <extensions>
          <ns3:TrackPointExtension>
            <ns3:atemp>14.0</ns3:atemp>
            <ns3:hr>136</ns3:hr>
          </ns3:TrackPointExtension>
        </extensions>
      </trkpt>
      <trkpt lat="-22.0093480311334133148193359375" lon="166.45542508922517299652099609375">
        <ele>1043</ele>
        <time>2016-08-12T20:30:22.000Z</time>
        <extensions>
          <ns3:TrackPointExtension>
            <ns3:atemp>14.0</ns3:atemp>
            <ns3:hr>135</ns3:hr>
          </ns3:TrackPointExtension>
        </extensions>
      </trkpt>
      <trkpt lat="-22.0093423314392566680908203125" lon="166.4554390870034694671630859375">
        <ele>1043.199951171875</ele>
        <time>2016-08-12T20:30:23.000Z</time>
        <extensions>
          <ns3:TrackPointExtension>
            <ns3:atemp>14.0</ns3:atemp>
            <ns3:hr>136</ns3:hr>
          </ns3:TrackPointExtension>
        </extensions>
      </trkpt>
      <trkpt lat="-22.00933746993541717529296875" lon="166.4554531686007976531982421875">
        <ele>1043.4000244140625</ele>
        <time>2016-08-12T20:30:24.000Z</time>
        <extensions>
          <ns3:TrackPointExtension>
            <ns3:atemp>14.0</ns3:atemp>
            <ns3:hr>136</ns3:hr>
          </ns3:TrackPointExtension>
        </extensions>
      </trkpt>
      <trkpt lat="-22.00933168642222881317138671875" lon="166.4554680883884429931640625">
        <ele>1043.5999755859375</ele>
        <time>2016-08-12T20:30:25.000Z</time>
        <extensions>
          <ns3:TrackPointExtension>
            <ns3:atemp>14.0</ns3:atemp>
            <ns3:hr>136</ns3:hr>
          </ns3:TrackPointExtension>
        </extensions>
      </trkpt>
      <trkpt lat="-22.00932498089969158172607421875" lon="166.45548225380480289459228515625">
        <ele>1043.5999755859375</ele>
        <time>2016-08-12T20:30:26.000Z</time>
        <extensions>
          <ns3:TrackPointExtension>
            <ns3:atemp>14.0</ns3:atemp>
            <ns3:hr>136</ns3:hr>
          </ns3:TrackPointExtension>
        </extensions>
      </trkpt>
      <trkpt lat="-22.00932062231004238128662109375" lon="166.455496251583099365234375">
        <ele>1043.800048828125</ele>
        <time>2016-08-12T20:30:27.000Z</time>
        <extensions>
          <ns3:TrackPointExtension>
            <ns3:atemp>14.0</ns3:atemp>
            <ns3:hr>136</ns3:hr>
          </ns3:TrackPointExtension>
        </extensions>
      </trkpt>
      <trkpt lat="-22.00931928120553493499755859375" lon="166.4555115066468715667724609375">
        <ele>1044.199951171875</ele>
        <time>2016-08-12T20:30:28.000Z</time>
        <extensions>
          <ns3:TrackPointExtension>
            <ns3:atemp>14.0</ns3:atemp>
            <ns3:hr>136</ns3:hr>
          </ns3:TrackPointExtension>
        </extensions>
      </trkpt>
      <trkpt lat="-22.00932162813842296600341796875" lon="166.45552801899611949920654296875">
        <ele>1044.4000244140625</ele>
        <time>2016-08-12T20:30:29.000Z</time>
        <extensions>
          <ns3:TrackPointExtension>
            <ns3:atemp>14.0</ns3:atemp>
            <ns3:hr>136</ns3:hr>
          </ns3:TrackPointExtension>
        </extensions>
      </trkpt>
      <trkpt lat="-22.00932330451905727386474609375" lon="166.4555436931550502777099609375">
        <ele>1044.4000244140625</ele>
        <time>2016-08-12T20:30:30.000Z</time>
        <extensions>
          <ns3:TrackPointExtension>
            <ns3:atemp>14.0</ns3:atemp>
            <ns3:hr>136</ns3:hr>
          </ns3:TrackPointExtension>
        </extensions>
      </trkpt>
      <trkpt lat="-22.009324394166469573974609375" lon="166.45555869676172733306884765625">
        <ele>1044.5999755859375</ele>
        <time>2016-08-12T20:30:31.000Z</time>
        <extensions>
          <ns3:TrackPointExtension>
            <ns3:atemp>14.0</ns3:atemp>
            <ns3:hr>136</ns3:hr>
          </ns3:TrackPointExtension>
        </extensions>
      </trkpt>
      <trkpt lat="-22.009326405823230743408203125" lon="166.45557261072099208831787109375">
        <ele>1044.800048828125</ele>
        <time>2016-08-12T20:30:32.000Z</time>
        <extensions>
          <ns3:TrackPointExtension>
            <ns3:atemp>14.0</ns3:atemp>
            <ns3:hr>136</ns3:hr>
          </ns3:TrackPointExtension>
        </extensions>
      </trkpt>
      <trkpt lat="-22.0093292556703090667724609375" lon="166.4555856026709079742431640625">
        <ele>1045</ele>
        <time>2016-08-12T20:30:33.000Z</time>
        <extensions>
          <ns3:TrackPointExtension>
            <ns3:atemp>14.0</ns3:atemp>
            <ns3:hr>136</ns3:hr>
          </ns3:TrackPointExtension>
        </extensions>
      </trkpt>
      <trkpt lat="-22.00932900421321392059326171875" lon="166.4556010253727436065673828125">
        <ele>1045.199951171875</ele>
        <time>2016-08-12T20:30:34.000Z</time>
        <extensions>
          <ns3:TrackPointExtension>
            <ns3:atemp>14.0</ns3:atemp>
            <ns3:hr>136</ns3:hr>
          </ns3:TrackPointExtension>
        </extensions>
      </trkpt>
      <trkpt lat="-22.00932799838483333587646484375" lon="166.4556177891790866851806640625">
        <ele>1045.199951171875</ele>
        <time>2016-08-12T20:30:35.000Z</time>
        <extensions>
          <ns3:TrackPointExtension>
            <ns3:atemp>14.0</ns3:atemp>
            <ns3:hr>136</ns3:hr>
          </ns3:TrackPointExtension>
        </extensions>
      </trkpt>
      <trkpt lat="-22.00932539999485015869140625" lon="166.455634720623493194580078125">
        <ele>1045.4000244140625</ele>
        <time>2016-08-12T20:30:36.000Z</time>
        <extensions>
          <ns3:TrackPointExtension>
            <ns3:atemp>14.0</ns3:atemp>
            <ns3:hr>136</ns3:hr>
          </ns3:TrackPointExtension>
        </extensions>
      </trkpt>
      <trkpt lat="-22.0093233883380889892578125" lon="166.45565089769661426544189453125">
        <ele>1045.5999755859375</ele>
        <time>2016-08-12T20:30:37.000Z</time>
        <extensions>
          <ns3:TrackPointExtension>
            <ns3:atemp>14.0</ns3:atemp>
            <ns3:hr>136</ns3:hr>
          </ns3:TrackPointExtension>
        </extensions>
      </trkpt>
      <trkpt lat="-22.0093155093491077423095703125" lon="166.45566883496940135955810546875">
        <ele>1045.5999755859375</ele>
        <time>2016-08-12T20:30:38.000Z</time>
        <extensions>
          <ns3:TrackPointExtension>
            <ns3:atemp>14.0</ns3:atemp>
            <ns3:hr>136</ns3:hr>
          </ns3:TrackPointExtension>
        </extensions>
      </trkpt>
      <trkpt lat="-22.00930704362690448760986328125" lon="166.45568392239511013031005859375">
        <ele>1045.800048828125</ele>
        <time>2016-08-12T20:30:39.000Z</time>
        <extensions>
          <ns3:TrackPointExtension>
            <ns3:atemp>14.0</ns3:atemp>
            <ns3:hr>137</ns3:hr>
          </ns3:TrackPointExtension>
        </extensions>
      </trkpt>
      <trkpt lat="-22.009298242628574371337890625" lon="166.45569733344018459320068359375">
        <ele>1046</ele>
        <time>2016-08-12T20:30:40.000Z</time>
        <extensions>
          <ns3:TrackPointExtension>
            <ns3:atemp>14.0</ns3:atemp>
            <ns3:hr>137</ns3:hr>
          </ns3:TrackPointExtension>
        </extensions>
      </trkpt>
      <trkpt lat="-22.00928986072540283203125" lon="166.45571141503751277923583984375">
        <ele>1046.199951171875</ele>
        <time>2016-08-12T20:30:41.000Z</time>
        <extensions>
          <ns3:TrackPointExtension>
            <ns3:atemp>14.0</ns3:atemp>
            <ns3:hr>137</ns3:hr>
          </ns3:TrackPointExtension>
        </extensions>
      </trkpt>
      <trkpt lat="-22.009282819926738739013671875" lon="166.4557257480919361114501953125">
        <ele>1046.4000244140625</ele>
        <time>2016-08-12T20:30:42.000Z</time>
        <extensions>
          <ns3:TrackPointExtension>
            <ns3:atemp>14.0</ns3:atemp>
            <ns3:hr>137</ns3:hr>
          </ns3:TrackPointExtension>
        </extensions>
      </trkpt>
      <trkpt lat="-22.00927485711872577667236328125" lon="166.45573974587023258209228515625">
        <ele>1046.5999755859375</ele>
        <time>2016-08-12T20:30:43.000Z</time>
        <extensions>
          <ns3:TrackPointExtension>
            <ns3:atemp>14.0</ns3:atemp>
            <ns3:hr>137</ns3:hr>
          </ns3:TrackPointExtension>
        </extensions>
      </trkpt>
      <trkpt lat="-22.00926773250102996826171875" lon="166.45575550384819507598876953125">
        <ele>1046.5999755859375</ele>
        <time>2016-08-12T20:30:44.000Z</time>
        <extensions>
          <ns3:TrackPointExtension>
            <ns3:atemp>14.0</ns3:atemp>
            <ns3:hr>137</ns3:hr>
          </ns3:TrackPointExtension>
        </extensions>
      </trkpt>
      <trkpt lat="-22.009261362254619598388671875" lon="166.4557711780071258544921875">
        <ele>1046.5999755859375</ele>
        <time>2016-08-12T20:30:45.000Z</time>
        <extensions>
          <ns3:TrackPointExtension>
            <ns3:atemp>14.0</ns3:atemp>
            <ns3:hr>137</ns3:hr>
          </ns3:TrackPointExtension>
        </extensions>
      </trkpt>
      <trkpt lat="-22.00925172306597232818603515625" lon="166.4557864330708980560302734375">
        <ele>1046.5999755859375</ele>
        <time>2016-08-12T20:30:46.000Z</time>
        <extensions>
          <ns3:TrackPointExtension>
            <ns3:atemp>14.0</ns3:atemp>
            <ns3:hr>137</ns3:hr>
          </ns3:TrackPointExtension>
        </extensions>
      </trkpt>
      <trkpt lat="-22.00924082659184932708740234375" lon="166.4557971619069576263427734375">
        <ele>1046.800048828125</ele>
        <time>2016-08-12T20:30:47.000Z</time>
        <extensions>
          <ns3:TrackPointExtension>
            <ns3:atemp>14.0</ns3:atemp>
            <ns3:hr>137</ns3:hr>
          </ns3:TrackPointExtension>
        </extensions>
      </trkpt>
      <trkpt lat="-22.00923294760286808013916015625" lon="166.455807387828826904296875">
        <ele>1047.199951171875</ele>
        <time>2016-08-12T20:30:48.000Z</time>
        <extensions>
          <ns3:TrackPointExtension>
            <ns3:atemp>14.0</ns3:atemp>
            <ns3:hr>137</ns3:hr>
          </ns3:TrackPointExtension>
        </extensions>
      </trkpt>
      <trkpt lat="-22.00922456569969654083251953125" lon="166.455818116664886474609375">
        <ele>1047.4000244140625</ele>
        <time>2016-08-12T20:30:49.000Z</time>
        <extensions>
          <ns3:TrackPointExtension>
            <ns3:atemp>14.0</ns3:atemp>
            <ns3:hr>137</ns3:hr>
          </ns3:TrackPointExtension>
        </extensions>
      </trkpt>
      <trkpt lat="-22.00921408832073211669921875" lon="166.45582859404385089874267578125">
        <ele>1047.5999755859375</ele>
        <time>2016-08-12T20:30:50.000Z</time>
        <extensions>
          <ns3:TrackPointExtension>
            <ns3:atemp>14.0</ns3:atemp>
            <ns3:hr>136</ns3:hr>
          </ns3:TrackPointExtension>
        </extensions>
      </trkpt>
      <trkpt lat="-22.009203694760799407958984375" lon="166.455839574337005615234375">
        <ele>1047.800048828125</ele>
        <time>2016-08-12T20:30:51.000Z</time>
        <extensions>
          <ns3:TrackPointExtension>
            <ns3:atemp>14.0</ns3:atemp>
            <ns3:hr>136</ns3:hr>
          </ns3:TrackPointExtension>
        </extensions>
      </trkpt>
      <trkpt lat="-22.009192965924739837646484375" lon="166.45585097372531890869140625">
        <ele>1048</ele>
        <time>2016-08-12T20:30:52.000Z</time>
        <extensions>
          <ns3:TrackPointExtension>
            <ns3:atemp>14.0</ns3:atemp>
            <ns3:hr>136</ns3:hr>
          </ns3:TrackPointExtension>
        </extensions>
      </trkpt>
      <trkpt lat="-22.00918265618383884429931640625" lon="166.45586295984685420989990234375">
        <ele>1048.199951171875</ele>
        <time>2016-08-12T20:30:53.000Z</time>
        <extensions>
          <ns3:TrackPointExtension>
            <ns3:atemp>14.0</ns3:atemp>
            <ns3:hr>136</ns3:hr>
          </ns3:TrackPointExtension>
        </extensions>
      </trkpt>
      <trkpt lat="-22.0091710053384304046630859375" lon="166.4558742754161357879638671875">
        <ele>1048.4000244140625</ele>
        <time>2016-08-12T20:30:54.000Z</time>
        <extensions>
          <ns3:TrackPointExtension>
            <ns3:atemp>14.0</ns3:atemp>
            <ns3:hr>136</ns3:hr>
          </ns3:TrackPointExtension>
        </extensions>
      </trkpt>
      <trkpt lat="-22.00916019268333911895751953125" lon="166.45588584244251251220703125">
        <ele>1048.5999755859375</ele>
        <time>2016-08-12T20:30:55.000Z</time>
        <extensions>
          <ns3:TrackPointExtension>
            <ns3:atemp>14.0</ns3:atemp>
            <ns3:hr>136</ns3:hr>
          </ns3:TrackPointExtension>
        </extensions>
      </trkpt>
      <trkpt lat="-22.0091495476663112640380859375" lon="166.45589715801179409027099609375">
        <ele>1048.5999755859375</ele>
        <time>2016-08-12T20:30:56.000Z</time>
        <extensions>
          <ns3:TrackPointExtension>
            <ns3:atemp>14.0</ns3:atemp>
            <ns3:hr>136</ns3:hr>
          </ns3:TrackPointExtension>
        </extensions>
      </trkpt>
      <trkpt lat="-22.0091388188302516937255859375" lon="166.45590788684785366058349609375">
        <ele>1048.800048828125</ele>
        <time>2016-08-12T20:30:57.000Z</time>
        <extensions>
          <ns3:TrackPointExtension>
            <ns3:atemp>14.0</ns3:atemp>
            <ns3:hr>136</ns3:hr>
          </ns3:TrackPointExtension>
        </extensions>
      </trkpt>
      <trkpt lat="-22.009128592908382415771484375" lon="166.4559188671410083770751953125">
        <ele>1049</ele>
        <time>2016-08-12T20:30:58.000Z</time>
        <extensions>
          <ns3:TrackPointExtension>
            <ns3:atemp>14.0</ns3:atemp>
            <ns3:hr>135</ns3:hr>
          </ns3:TrackPointExtension>
        </extensions>
      </trkpt>
      <trkpt lat="-22.0091200433671474456787109375" lon="166.45592934451997280120849609375">
        <ele>1049.199951171875</ele>
        <time>2016-08-12T20:30:59.000Z</time>
        <extensions>
          <ns3:TrackPointExtension>
            <ns3:atemp>14.0</ns3:atemp>
            <ns3:hr>135</ns3:hr>
          </ns3:TrackPointExtension>
        </extensions>
      </trkpt>
      <trkpt lat="-22.00911124236881732940673828125" lon="166.4559389837086200714111328125">
        <ele>1049.199951171875</ele>
        <time>2016-08-12T20:31:00.000Z</time>
        <extensions>
          <ns3:TrackPointExtension>
            <ns3:atemp>14.0</ns3:atemp>
            <ns3:hr>135</ns3:hr>
          </ns3:TrackPointExtension>
        </extensions>
      </trkpt>
      <trkpt lat="-22.00910202227532863616943359375" lon="166.45595063455402851104736328125">
        <ele>1049.4000244140625</ele>
        <time>2016-08-12T20:31:01.000Z</time>
        <extensions>
          <ns3:TrackPointExtension>
            <ns3:atemp>14.0</ns3:atemp>
            <ns3:hr>135</ns3:hr>
          </ns3:TrackPointExtension>
        </extensions>
      </trkpt>
      <trkpt lat="-22.0090925507247447967529296875" lon="166.4559631235897541046142578125">
        <ele>1049.4000244140625</ele>
        <time>2016-08-12T20:31:02.000Z</time>
        <extensions>
          <ns3:TrackPointExtension>
            <ns3:atemp>14.0</ns3:atemp>
            <ns3:hr>135</ns3:hr>
          </ns3:TrackPointExtension>
        </extensions>
      </trkpt>
      <trkpt lat="-22.00908224098384380340576171875" lon="166.45597309805452823638916015625">
        <ele>1049.5999755859375</ele>
        <time>2016-08-12T20:31:03.000Z</time>
        <extensions>
          <ns3:TrackPointExtension>
            <ns3:atemp>14.0</ns3:atemp>
            <ns3:hr>134</ns3:hr>
          </ns3:TrackPointExtension>
        </extensions>
      </trkpt>
      <trkpt lat="-22.0090727694332599639892578125" lon="166.4559825696051120758056640625">
        <ele>1049.800048828125</ele>
        <time>2016-08-12T20:31:04.000Z</time>
        <extensions>
          <ns3:TrackPointExtension>
            <ns3:atemp>14.0</ns3:atemp>
            <ns3:hr>134</ns3:hr>
          </ns3:TrackPointExtension>
        </extensions>
      </trkpt>
      <trkpt lat="-22.00906480662524700164794921875" lon="166.4559919573366641998291015625">
        <ele>1050</ele>
        <time>2016-08-12T20:31:05.000Z</time>
        <extensions>
          <ns3:TrackPointExtension>
            <ns3:atemp>14.0</ns3:atemp>
            <ns3:hr>135</ns3:hr>
          </ns3:TrackPointExtension>
        </extensions>
      </trkpt>
      <trkpt lat="-22.0090583525598049163818359375" lon="166.4560023508965969085693359375">
        <ele>1050.199951171875</ele>
        <time>2016-08-12T20:31:06.000Z</time>
        <extensions>
          <ns3:TrackPointExtension>
            <ns3:atemp>14.0</ns3:atemp>
            <ns3:hr>134</ns3:hr>
          </ns3:TrackPointExtension>
        </extensions>
      </trkpt>
      <trkpt lat="-22.0090524852275848388671875" lon="166.4560137502849102020263671875">
        <ele>1050.4000244140625</ele>
        <time>2016-08-12T20:31:07.000Z</time>
        <extensions>
          <ns3:TrackPointExtension>
            <ns3:atemp>14.0</ns3:atemp>
            <ns3:hr>134</ns3:hr>
          </ns3:TrackPointExtension>
        </extensions>
      </trkpt>
      <trkpt lat="-22.00904737226665019989013671875" lon="166.456025652587413787841796875">
        <ele>1050.5999755859375</ele>
        <time>2016-08-12T20:31:08.000Z</time>
        <extensions>
          <ns3:TrackPointExtension>
            <ns3:atemp>14.0</ns3:atemp>
            <ns3:hr>134</ns3:hr>
          </ns3:TrackPointExtension>
        </extensions>
      </trkpt>
      <trkpt lat="-22.0090419240295886993408203125" lon="166.4560382254421710968017578125">
        <ele>1050.800048828125</ele>
        <time>2016-08-12T20:31:09.000Z</time>
        <extensions>
          <ns3:TrackPointExtension>
            <ns3:atemp>14.0</ns3:atemp>
            <ns3:hr>134</ns3:hr>
          </ns3:TrackPointExtension>
        </extensions>
      </trkpt>
      <trkpt lat="-22.00903429649770259857177734375" lon="166.456048451364040374755859375">
        <ele>1050.800048828125</ele>
        <time>2016-08-12T20:31:10.000Z</time>
        <extensions>
          <ns3:TrackPointExtension>
            <ns3:atemp>14.0</ns3:atemp>
            <ns3:hr>134</ns3:hr>
          </ns3:TrackPointExtension>
        </extensions>
      </trkpt>
      <trkpt lat="-22.00902633368968963623046875" lon="166.4560600183904170989990234375">
        <ele>1051</ele>
        <time>2016-08-12T20:31:11.000Z</time>
        <extensions>
          <ns3:TrackPointExtension>
            <ns3:atemp>14.0</ns3:atemp>
            <ns3:hr>134</ns3:hr>
          </ns3:TrackPointExtension>
        </extensions>
      </trkpt>
      <trkpt lat="-22.00901828706264495849609375" lon="166.4560727588832378387451171875">
        <ele>1051.199951171875</ele>
        <time>2016-08-12T20:31:12.000Z</time>
        <extensions>
          <ns3:TrackPointExtension>
            <ns3:atemp>14.0</ns3:atemp>
            <ns3:hr>134</ns3:hr>
          </ns3:TrackPointExtension>
        </extensions>
      </trkpt>
      <trkpt lat="-22.00900965370237827301025390625" lon="166.45608692429959774017333984375">
        <ele>1051.4000244140625</ele>
        <time>2016-08-12T20:31:13.000Z</time>
        <extensions>
          <ns3:TrackPointExtension>
            <ns3:atemp>14.0</ns3:atemp>
            <ns3:hr>134</ns3:hr>
          </ns3:TrackPointExtension>
        </extensions>
      </trkpt>
      <trkpt lat="-22.00900244526565074920654296875" lon="166.4561009220778942108154296875">
        <ele>1051.800048828125</ele>
        <time>2016-08-12T20:31:14.000Z</time>
        <extensions>
          <ns3:TrackPointExtension>
            <ns3:atemp>14.0</ns3:atemp>
            <ns3:hr>134</ns3:hr>
          </ns3:TrackPointExtension>
        </extensions>
      </trkpt>
      <trkpt lat="-22.0089943148195743560791015625" lon="166.4561129920184612274169921875">
        <ele>1052</ele>
        <time>2016-08-12T20:31:15.000Z</time>
        <extensions>
          <ns3:TrackPointExtension>
            <ns3:atemp>14.0</ns3:atemp>
            <ns3:hr>134</ns3:hr>
          </ns3:TrackPointExtension>
        </extensions>
      </trkpt>
      <trkpt lat="-22.0089862681925296783447265625" lon="166.45612497813999652862548828125">
        <ele>1052</ele>
        <time>2016-08-12T20:31:16.000Z</time>
        <extensions>
          <ns3:TrackPointExtension>
            <ns3:atemp>14.0</ns3:atemp>
            <ns3:hr>133</ns3:hr>
          </ns3:TrackPointExtension>
        </extensions>
      </trkpt>
      <trkpt lat="-22.00897763483226299285888671875" lon="166.45613520406186580657958984375">
        <ele>1052.199951171875</ele>
        <time>2016-08-12T20:31:17.000Z</time>
        <extensions>
          <ns3:TrackPointExtension>
            <ns3:atemp>14.0</ns3:atemp>
            <ns3:hr>133</ns3:hr>
          </ns3:TrackPointExtension>
        </extensions>
      </trkpt>
      <trkpt lat="-22.00896891765296459197998046875" lon="166.4561471901834011077880859375">
        <ele>1052.4000244140625</ele>
        <time>2016-08-12T20:31:18.000Z</time>
        <extensions>
          <ns3:TrackPointExtension>
            <ns3:atemp>14.0</ns3:atemp>
            <ns3:hr>133</ns3:hr>
          </ns3:TrackPointExtension>
        </extensions>
      </trkpt>
      <trkpt lat="-22.00896003283560276031494140625" lon="166.45615884102880954742431640625">
        <ele>1052.5999755859375</ele>
        <time>2016-08-12T20:31:19.000Z</time>
        <extensions>
          <ns3:TrackPointExtension>
            <ns3:atemp>14.0</ns3:atemp>
            <ns3:hr>133</ns3:hr>
          </ns3:TrackPointExtension>
        </extensions>
      </trkpt>
      <trkpt lat="-22.0089532434940338134765625" lon="166.45617426373064517974853515625">
        <ele>1052.800048828125</ele>
        <time>2016-08-12T20:31:20.000Z</time>
        <extensions>
          <ns3:TrackPointExtension>
            <ns3:atemp>14.0</ns3:atemp>
            <ns3:hr>133</ns3:hr>
          </ns3:TrackPointExtension>
        </extensions>
      </trkpt>
      <trkpt lat="-22.00894678942859172821044921875" lon="166.456188596785068511962890625">
        <ele>1053</ele>
        <time>2016-08-12T20:31:21.000Z</time>
        <extensions>
          <ns3:TrackPointExtension>
            <ns3:atemp>14.0</ns3:atemp>
            <ns3:hr>132</ns3:hr>
          </ns3:TrackPointExtension>
        </extensions>
      </trkpt>
      <trkpt lat="-22.00893941335380077362060546875" lon="166.456200666725635528564453125">
        <ele>1053.199951171875</ele>
        <time>2016-08-12T20:31:22.000Z</time>
        <extensions>
          <ns3:TrackPointExtension>
            <ns3:atemp>14.0</ns3:atemp>
            <ns3:hr>132</ns3:hr>
          </ns3:TrackPointExtension>
        </extensions>
      </trkpt>
      <trkpt lat="-22.0089316181838512420654296875" lon="166.45621214993298053741455078125">
        <ele>1053.199951171875</ele>
        <time>2016-08-12T20:31:23.000Z</time>
        <extensions>
          <ns3:TrackPointExtension>
            <ns3:atemp>14.0</ns3:atemp>
            <ns3:hr>132</ns3:hr>
          </ns3:TrackPointExtension>
        </extensions>
      </trkpt>
      <trkpt lat="-22.008922733366489410400390625" lon="166.4562249742448329925537109375">
        <ele>1053.5999755859375</ele>
        <time>2016-08-12T20:31:24.000Z</time>
        <extensions>
          <ns3:TrackPointExtension>
            <ns3:atemp>14.0</ns3:atemp>
            <ns3:hr>131</ns3:hr>
          </ns3:TrackPointExtension>
        </extensions>
      </trkpt>
      <trkpt lat="-22.00891309417784214019775390625" lon="166.45623595453798770904541015625">
        <ele>1053.5999755859375</ele>
        <time>2016-08-12T20:31:25.000Z</time>
        <extensions>
          <ns3:TrackPointExtension>
            <ns3:atemp>14.0</ns3:atemp>
            <ns3:hr>131</ns3:hr>
          </ns3:TrackPointExtension>
        </extensions>
      </trkpt>
      <trkpt lat="-22.00890253297984600067138671875" lon="166.4562464319169521331787109375">
        <ele>1053.800048828125</ele>
        <time>2016-08-12T20:31:26.000Z</time>
        <extensions>
          <ns3:TrackPointExtension>
            <ns3:atemp>14.0</ns3:atemp>
            <ns3:hr>130</ns3:hr>
          </ns3:TrackPointExtension>
        </extensions>
      </trkpt>
      <trkpt lat="-22.00889331288635730743408203125" lon="166.456257998943328857421875">
        <ele>1054</ele>
        <time>2016-08-12T20:31:27.000Z</time>
        <extensions>
          <ns3:TrackPointExtension>
            <ns3:atemp>14.0</ns3:atemp>
            <ns3:hr>129</ns3:hr>
          </ns3:TrackPointExtension>
        </extensions>
      </trkpt>
      <trkpt lat="-22.0088846795260906219482421875" lon="166.45627073943614959716796875">
        <ele>1054.199951171875</ele>
        <time>2016-08-12T20:31:28.000Z</time>
        <extensions>
          <ns3:TrackPointExtension>
            <ns3:atemp>14.0</ns3:atemp>
            <ns3:hr>129</ns3:hr>
          </ns3:TrackPointExtension>
        </extensions>
      </trkpt>
      <trkpt lat="-22.008875794708728790283203125" lon="166.45628272555768489837646484375">
        <ele>1054.4000244140625</ele>
        <time>2016-08-12T20:31:29.000Z</time>
        <extensions>
          <ns3:TrackPointExtension>
            <ns3:atemp>14.0</ns3:atemp>
            <ns3:hr>129</ns3:hr>
          </ns3:TrackPointExtension>
        </extensions>
      </trkpt>
      <trkpt lat="-22.00886808335781097412109375" lon="166.45629563368856906890869140625">
        <ele>1054.5999755859375</ele>
        <time>2016-08-12T20:31:30.000Z</time>
        <extensions>
          <ns3:TrackPointExtension>
            <ns3:atemp>14.0</ns3:atemp>
            <ns3:hr>128</ns3:hr>
          </ns3:TrackPointExtension>
        </extensions>
      </trkpt>
      <trkpt lat="-22.0088620483875274658203125" lon="166.45630921237170696258544921875">
        <ele>1054.5999755859375</ele>
        <time>2016-08-12T20:31:31.000Z</time>
        <extensions>
          <ns3:TrackPointExtension>
            <ns3:atemp>14.0</ns3:atemp>
            <ns3:hr>128</ns3:hr>
          </ns3:TrackPointExtension>
        </extensions>
      </trkpt>
      <trkpt lat="-22.00885475613176822662353515625" lon="166.45632195286452770233154296875">
        <ele>1054.800048828125</ele>
        <time>2016-08-12T20:31:32.000Z</time>
        <extensions>
          <ns3:TrackPointExtension>
            <ns3:atemp>14.0</ns3:atemp>
            <ns3:hr>127</ns3:hr>
          </ns3:TrackPointExtension>
        </extensions>
      </trkpt>
      <trkpt lat="-22.00884754769504070281982421875" lon="166.4563342742621898651123046875">
        <ele>1054.800048828125</ele>
        <time>2016-08-12T20:31:33.000Z</time>
        <extensions>
          <ns3:TrackPointExtension>
            <ns3:atemp>14.0</ns3:atemp>
            <ns3:hr>127</ns3:hr>
          </ns3:TrackPointExtension>
        </extensions>
      </trkpt>
      <trkpt lat="-22.00884033925831317901611328125" lon="166.45634475164115428924560546875">
        <ele>1055.199951171875</ele>
        <time>2016-08-12T20:31:34.000Z</time>
        <extensions>
          <ns3:TrackPointExtension>
            <ns3:atemp>14.0</ns3:atemp>
            <ns3:hr>127</ns3:hr>
          </ns3:TrackPointExtension>
        </extensions>
      </trkpt>
      <trkpt lat="-22.00883380137383937835693359375" lon="166.45635581575334072113037109375">
        <ele>1055.4000244140625</ele>
        <time>2016-08-12T20:31:35.000Z</time>
        <extensions>
          <ns3:TrackPointExtension>
            <ns3:atemp>14.0</ns3:atemp>
            <ns3:hr>127</ns3:hr>
          </ns3:TrackPointExtension>
        </extensions>
      </trkpt>
      <trkpt lat="-22.00882776640355587005615234375" lon="166.45636771805584430694580078125">
        <ele>1055.5999755859375</ele>
        <time>2016-08-12T20:31:36.000Z</time>
        <extensions>
          <ns3:TrackPointExtension>
            <ns3:atemp>14.0</ns3:atemp>
            <ns3:hr>127</ns3:hr>
          </ns3:TrackPointExtension>
        </extensions>
      </trkpt>
      <trkpt lat="-22.0088218152523040771484375" lon="166.4563800394535064697265625">
        <ele>1055.800048828125</ele>
        <time>2016-08-12T20:31:37.000Z</time>
        <extensions>
          <ns3:TrackPointExtension>
            <ns3:atemp>14.0</ns3:atemp>
            <ns3:hr>127</ns3:hr>
          </ns3:TrackPointExtension>
        </extensions>
      </trkpt>
      <trkpt lat="-22.0088146068155765533447265625" lon="166.456392109394073486328125">
        <ele>1055.800048828125</ele>
        <time>2016-08-12T20:31:38.000Z</time>
        <extensions>
          <ns3:TrackPointExtension>
            <ns3:atemp>14.0</ns3:atemp>
            <ns3:hr>127</ns3:hr>
          </ns3:TrackPointExtension>
        </extensions>
      </trkpt>
      <trkpt lat="-22.00880714692175388336181640625" lon="166.45640392787754535675048828125">
        <ele>1056.199951171875</ele>
        <time>2016-08-12T20:31:39.000Z</time>
        <extensions>
          <ns3:TrackPointExtension>
            <ns3:atemp>14.0</ns3:atemp>
            <ns3:hr>126</ns3:hr>
          </ns3:TrackPointExtension>
        </extensions>
      </trkpt>
      <trkpt lat="-22.00879943557083606719970703125" lon="166.45641532726585865020751953125">
        <ele>1056.4000244140625</ele>
        <time>2016-08-12T20:31:40.000Z</time>
        <extensions>
          <ns3:TrackPointExtension>
            <ns3:atemp>14.0</ns3:atemp>
            <ns3:hr>126</ns3:hr>
          </ns3:TrackPointExtension>
        </extensions>
      </trkpt>
      <trkpt lat="-22.008790634572505950927734375" lon="166.45642764866352081298828125">
        <ele>1056.5999755859375</ele>
        <time>2016-08-12T20:31:41.000Z</time>
        <extensions>
          <ns3:TrackPointExtension>
            <ns3:atemp>14.0</ns3:atemp>
            <ns3:hr>127</ns3:hr>
          </ns3:TrackPointExtension>
        </extensions>
      </trkpt>
      <trkpt lat="-22.00878300704061985015869140625" lon="166.45644030533730983734130859375">
        <ele>1056.5999755859375</ele>
        <time>2016-08-12T20:31:42.000Z</time>
        <extensions>
          <ns3:TrackPointExtension>
            <ns3:atemp>14.0</ns3:atemp>
            <ns3:hr>128</ns3:hr>
          </ns3:TrackPointExtension>
        </extensions>
      </trkpt>
      <trkpt lat="-22.00877546332776546478271484375" lon="166.456452794373035430908203125">
        <ele>1056.5999755859375</ele>
        <time>2016-08-12T20:31:43.000Z</time>
        <extensions>
          <ns3:TrackPointExtension>
            <ns3:atemp>14.0</ns3:atemp>
            <ns3:hr>129</ns3:hr>
          </ns3:TrackPointExtension>
        </extensions>
      </trkpt>
      <trkpt lat="-22.0087656565010547637939453125" lon="166.45646310411393642425537109375">
        <ele>1056.800048828125</ele>
        <time>2016-08-12T20:31:44.000Z</time>
        <extensions>
          <ns3:TrackPointExtension>
            <ns3:atemp>14.0</ns3:atemp>
            <ns3:hr>130</ns3:hr>
          </ns3:TrackPointExtension>
        </extensions>
      </trkpt>
      <trkpt lat="-22.00875450856983661651611328125" lon="166.456470899283885955810546875">
        <ele>1056.800048828125</ele>
        <time>2016-08-12T20:31:45.000Z</time>
        <extensions>
          <ns3:TrackPointExtension>
            <ns3:atemp>14.0</ns3:atemp>
            <ns3:hr>131</ns3:hr>
          </ns3:TrackPointExtension>
        </extensions>
      </trkpt>
      <trkpt lat="-22.008745707571506500244140625" lon="166.4564814604818820953369140625">
        <ele>1057.199951171875</ele>
        <time>2016-08-12T20:31:46.000Z</time>
        <extensions>
          <ns3:TrackPointExtension>
            <ns3:atemp>14.0</ns3:atemp>
            <ns3:hr>131</ns3:hr>
          </ns3:TrackPointExtension>
        </extensions>
      </trkpt>
      <trkpt lat="-22.00874160043895244598388671875" lon="166.4564958773553371429443359375">
        <ele>1057.4000244140625</ele>
        <time>2016-08-12T20:31:47.000Z</time>
        <extensions>
          <ns3:TrackPointExtension>
            <ns3:atemp>14.0</ns3:atemp>
            <ns3:hr>132</ns3:hr>
          </ns3:TrackPointExtension>
        </extensions>
      </trkpt>
      <trkpt lat="-22.00873824767768383026123046875" lon="166.4565096236765384674072265625">
        <ele>1057.4000244140625</ele>
        <time>2016-08-12T20:31:48.000Z</time>
        <extensions>
          <ns3:TrackPointExtension>
            <ns3:atemp>14.0</ns3:atemp>
            <ns3:hr>133</ns3:hr>
          </ns3:TrackPointExtension>
        </extensions>
      </trkpt>
      <trkpt lat="-22.008737660944461822509765625" lon="166.45652395673096179962158203125">
        <ele>1057.4000244140625</ele>
        <time>2016-08-12T20:31:49.000Z</time>
        <extensions>
          <ns3:TrackPointExtension>
            <ns3:atemp>14.0</ns3:atemp>
            <ns3:hr>134</ns3:hr>
          </ns3:TrackPointExtension>
        </extensions>
      </trkpt>
      <trkpt lat="-22.0087373256683349609375" lon="166.456540636718273162841796875">
        <ele>1057.4000244140625</ele>
        <time>2016-08-12T20:31:50.000Z</time>
        <extensions>
          <ns3:TrackPointExtension>
            <ns3:atemp>14.0</ns3:atemp>
            <ns3:hr>134</ns3:hr>
          </ns3:TrackPointExtension>
        </extensions>
      </trkpt>
      <trkpt lat="-22.0087378285825252532958984375" lon="166.45655731670558452606201171875">
        <ele>1057.5999755859375</ele>
        <time>2016-08-12T20:31:51.000Z</time>
        <extensions>
          <ns3:TrackPointExtension>
            <ns3:atemp>14.0</ns3:atemp>
            <ns3:hr>134</ns3:hr>
          </ns3:TrackPointExtension>
        </extensions>
      </trkpt>
      <trkpt lat="-22.00874344445765018463134765625" lon="166.45657089538872241973876953125">
        <ele>1058.199951171875</ele>
        <time>2016-08-12T20:31:52.000Z</time>
        <extensions>
          <ns3:TrackPointExtension>
            <ns3:atemp>14.0</ns3:atemp>
            <ns3:hr>135</ns3:hr>
          </ns3:TrackPointExtension>
        </extensions>
      </trkpt>
      <trkpt lat="-22.00875299982726573944091796875" lon="166.45658078603446483612060546875">
        <ele>1058.5999755859375</ele>
        <time>2016-08-12T20:31:53.000Z</time>
        <extensions>
          <ns3:TrackPointExtension>
            <ns3:atemp>14.0</ns3:atemp>
            <ns3:hr>135</ns3:hr>
          </ns3:TrackPointExtension>
        </extensions>
      </trkpt>
      <trkpt lat="-22.008764483034610748291015625" lon="166.4565880782902240753173828125">
        <ele>1058.800048828125</ele>
        <time>2016-08-12T20:31:54.000Z</time>
        <extensions>
          <ns3:TrackPointExtension>
            <ns3:atemp>14.0</ns3:atemp>
            <ns3:hr>135</ns3:hr>
          </ns3:TrackPointExtension>
        </extensions>
      </trkpt>
      <trkpt lat="-22.00877563096582889556884765625" lon="166.45659302361309528350830078125">
        <ele>1059</ele>
        <time>2016-08-12T20:31:55.000Z</time>
        <extensions>
          <ns3:TrackPointExtension>
            <ns3:atemp>14.0</ns3:atemp>
            <ns3:hr>135</ns3:hr>
          </ns3:TrackPointExtension>
        </extensions>
      </trkpt>
      <trkpt lat="-22.0087874494493007659912109375" lon="166.45659796893596649169921875">
        <ele>1059.199951171875</ele>
        <time>2016-08-12T20:31:56.000Z</time>
        <extensions>
          <ns3:TrackPointExtension>
            <ns3:atemp>14.0</ns3:atemp>
            <ns3:hr>135</ns3:hr>
          </ns3:TrackPointExtension>
        </extensions>
      </trkpt>
      <trkpt lat="-22.0087998546659946441650390625" lon="166.4566026628017425537109375">
        <ele>1059.5999755859375</ele>
        <time>2016-08-12T20:31:57.000Z</time>
        <extensions>
          <ns3:TrackPointExtension>
            <ns3:atemp>14.0</ns3:atemp>
            <ns3:hr>135</ns3:hr>
          </ns3:TrackPointExtension>
        </extensions>
      </trkpt>
      <trkpt lat="-22.00881536118686199188232421875" lon="166.45660257898271083831787109375">
        <ele>1059.800048828125</ele>
        <time>2016-08-12T20:31:58.000Z</time>
        <extensions>
          <ns3:TrackPointExtension>
            <ns3:atemp>14.0</ns3:atemp>
            <ns3:hr>136</ns3:hr>
          </ns3:TrackPointExtension>
        </extensions>
      </trkpt>
      <trkpt lat="-22.00883061625063419342041015625" lon="166.45660065114498138427734375">
        <ele>1060</ele>
        <time>2016-08-12T20:31:59.000Z</time>
        <extensions>
          <ns3:TrackPointExtension>
            <ns3:atemp>14.0</ns3:atemp>
            <ns3:hr>136</ns3:hr>
          </ns3:TrackPointExtension>
        </extensions>
      </trkpt>
      <trkpt lat="-22.00884536840021610260009765625" lon="166.45659721456468105316162109375">
        <ele>1060.199951171875</ele>
        <time>2016-08-12T20:32:00.000Z</time>
        <extensions>
          <ns3:TrackPointExtension>
            <ns3:atemp>14.0</ns3:atemp>
            <ns3:hr>136</ns3:hr>
          </ns3:TrackPointExtension>
        </extensions>
      </trkpt>
      <trkpt lat="-22.0088612101972103118896484375" lon="166.4565910957753658294677734375">
        <ele>1060.199951171875</ele>
        <time>2016-08-12T20:32:01.000Z</time>
        <extensions>
          <ns3:TrackPointExtension>
            <ns3:atemp>14.0</ns3:atemp>
            <ns3:hr>135</ns3:hr>
          </ns3:TrackPointExtension>
        </extensions>
      </trkpt>
      <trkpt lat="-22.00887688435614109039306640625" lon="166.45658279769122600555419921875">
        <ele>1060.4000244140625</ele>
        <time>2016-08-12T20:32:02.000Z</time>
        <extensions>
          <ns3:TrackPointExtension>
            <ns3:atemp>14.0</ns3:atemp>
            <ns3:hr>136</ns3:hr>
          </ns3:TrackPointExtension>
        </extensions>
      </trkpt>
      <trkpt lat="-22.00888945721089839935302734375" lon="166.4565726555883884429931640625">
        <ele>1060.5999755859375</ele>
        <time>2016-08-12T20:32:03.000Z</time>
        <extensions>
          <ns3:TrackPointExtension>
            <ns3:atemp>14.0</ns3:atemp>
            <ns3:hr>136</ns3:hr>
          </ns3:TrackPointExtension>
        </extensions>
      </trkpt>
      <trkpt lat="-22.0089007727801799774169921875" lon="166.4565619267523288726806640625">
        <ele>1060.5999755859375</ele>
        <time>2016-08-12T20:32:04.000Z</time>
        <extensions>
          <ns3:TrackPointExtension>
            <ns3:atemp>14.0</ns3:atemp>
            <ns3:hr>136</ns3:hr>
          </ns3:TrackPointExtension>
        </extensions>
      </trkpt>
      <trkpt lat="-22.00891158543527126312255859375" lon="166.4565491862595081329345703125">
        <ele>1060.800048828125</ele>
        <time>2016-08-12T20:32:05.000Z</time>
        <extensions>
          <ns3:TrackPointExtension>
            <ns3:atemp>14.0</ns3:atemp>
            <ns3:hr>136</ns3:hr>
          </ns3:TrackPointExtension>
        </extensions>
      </trkpt>
      <trkpt lat="-22.00892231427133083343505859375" lon="166.45653770305216312408447265625">
        <ele>1060.800048828125</ele>
        <time>2016-08-12T20:32:06.000Z</time>
        <extensions>
          <ns3:TrackPointExtension>
            <ns3:atemp>14.0</ns3:atemp>
            <ns3:hr>137</ns3:hr>
          </ns3:TrackPointExtension>
        </extensions>
      </trkpt>
      <trkpt lat="-22.0089339651167392730712890625" lon="166.45653049461543560028076171875">
        <ele>1061</ele>
        <time>2016-08-12T20:32:07.000Z</time>
        <extensions>
          <ns3:TrackPointExtension>
            <ns3:atemp>14.0</ns3:atemp>
            <ns3:hr>136</ns3:hr>
          </ns3:TrackPointExtension>
        </extensions>
      </trkpt>
      <trkpt lat="-22.0089478790760040283203125" lon="166.45652211271226406097412109375">
        <ele>1061</ele>
        <time>2016-08-12T20:32:08.000Z</time>
        <extensions>
          <ns3:TrackPointExtension>
            <ns3:atemp>14.0</ns3:atemp>
            <ns3:hr>136</ns3:hr>
          </ns3:TrackPointExtension>
        </extensions>
      </trkpt>
      <trkpt lat="-22.008966319262981414794921875" lon="166.4565106295049190521240234375">
        <ele>1061</ele>
        <time>2016-08-12T20:32:09.000Z</time>
        <extensions>
          <ns3:TrackPointExtension>
            <ns3:atemp>14.0</ns3:atemp>
            <ns3:hr>137</ns3:hr>
          </ns3:TrackPointExtension>
        </extensions>
      </trkpt>
      <trkpt lat="-22.00898341834545135498046875" lon="166.45650207996368408203125">
        <ele>1061.199951171875</ele>
        <time>2016-08-12T20:32:10.000Z</time>
        <extensions>
          <ns3:TrackPointExtension>
            <ns3:atemp>14.0</ns3:atemp>
            <ns3:hr>136</ns3:hr>
          </ns3:TrackPointExtension>
        </extensions>
      </trkpt>
      <trkpt lat="-22.00900395400822162628173828125" lon="166.4564955420792102813720703125">
        <ele>1061.4000244140625</ele>
        <time>2016-08-12T20:32:11.000Z</time>
        <extensions>
          <ns3:TrackPointExtension>
            <ns3:atemp>14.0</ns3:atemp>
            <ns3:hr>136</ns3:hr>
          </ns3:TrackPointExtension>
        </extensions>
      </trkpt>
      <trkpt lat="-22.009027004241943359375" lon="166.4564871601760387420654296875">
        <ele>1061.4000244140625</ele>
        <time>2016-08-12T20:32:12.000Z</time>
        <extensions>
          <ns3:TrackPointExtension>
            <ns3:atemp>14.0</ns3:atemp>
            <ns3:hr>136</ns3:hr>
          </ns3:TrackPointExtension>
        </extensions>
      </trkpt>
      <trkpt lat="-22.00904837809503078460693359375" lon="166.4564771018922328948974609375">
        <ele>1061.5999755859375</ele>
        <time>2016-08-12T20:32:13.000Z</time>
        <extensions>
          <ns3:TrackPointExtension>
            <ns3:atemp>14.0</ns3:atemp>
            <ns3:hr>136</ns3:hr>
          </ns3:TrackPointExtension>
        </extensions>
      </trkpt>
      <trkpt lat="-22.00906849466264247894287109375" lon="166.4564633555710315704345703125">
        <ele>1061.800048828125</ele>
        <time>2016-08-12T20:32:14.000Z</time>
        <extensions>
          <ns3:TrackPointExtension>
            <ns3:atemp>14.0</ns3:atemp>
            <ns3:hr>137</ns3:hr>
          </ns3:TrackPointExtension>
        </extensions>
      </trkpt>
      <trkpt lat="-22.0090868510305881500244140625" lon="166.4564475975930690765380859375">
        <ele>1062.199951171875</ele>
        <time>2016-08-12T20:32:15.000Z</time>
        <extensions>
          <ns3:TrackPointExtension>
            <ns3:atemp>14.0</ns3:atemp>
            <ns3:hr>137</ns3:hr>
          </ns3:TrackPointExtension>
        </extensions>
      </trkpt>
      <trkpt lat="-22.0091042853891849517822265625" lon="166.45643301308155059814453125">
        <ele>1062.199951171875</ele>
        <time>2016-08-12T20:32:16.000Z</time>
        <extensions>
          <ns3:TrackPointExtension>
            <ns3:atemp>14.0</ns3:atemp>
            <ns3:hr>137</ns3:hr>
          </ns3:TrackPointExtension>
        </extensions>
      </trkpt>
      <trkpt lat="-22.0091210491955280303955078125" lon="166.456418931484222412109375">
        <ele>1062.199951171875</ele>
        <time>2016-08-12T20:32:17.000Z</time>
        <extensions>
          <ns3:TrackPointExtension>
            <ns3:atemp>14.0</ns3:atemp>
            <ns3:hr>137</ns3:hr>
          </ns3:TrackPointExtension>
        </extensions>
      </trkpt>
      <trkpt lat="-22.00913839973509311676025390625" lon="166.4564073644578456878662109375">
        <ele>1062.5999755859375</ele>
        <time>2016-08-12T20:32:18.000Z</time>
        <extensions>
          <ns3:TrackPointExtension>
            <ns3:atemp>14.0</ns3:atemp>
            <ns3:hr>138</ns3:hr>
          </ns3:TrackPointExtension>
        </extensions>
      </trkpt>
      <trkpt lat="-22.00915818102657794952392578125" lon="166.456395797431468963623046875">
        <ele>1062.800048828125</ele>
        <time>2016-08-12T20:32:19.000Z</time>
        <extensions>
          <ns3:TrackPointExtension>
            <ns3:atemp>14.0</ns3:atemp>
            <ns3:hr>137</ns3:hr>
          </ns3:TrackPointExtension>
        </extensions>
      </trkpt>
      <trkpt lat="-22.00917645357549190521240234375" lon="166.45638163201510906219482421875">
        <ele>1062.800048828125</ele>
        <time>2016-08-12T20:32:20.000Z</time>
        <extensions>
          <ns3:TrackPointExtension>
            <ns3:atemp>14.0</ns3:atemp>
            <ns3:hr>138</ns3:hr>
          </ns3:TrackPointExtension>
        </extensions>
      </trkpt>
      <trkpt lat="-22.0091904513537883758544921875" lon="166.4563637785613536834716796875">
        <ele>1062.800048828125</ele>
        <time>2016-08-12T20:32:21.000Z</time>
        <extensions>
          <ns3:TrackPointExtension>
            <ns3:atemp>14.0</ns3:atemp>
            <ns3:hr>138</ns3:hr>
          </ns3:TrackPointExtension>
        </extensions>
      </trkpt>
      <trkpt lat="-22.00920738279819488525390625" lon="166.456344835460186004638671875">
        <ele>1062.800048828125</ele>
        <time>2016-08-12T20:32:22.000Z</time>
        <extensions>
          <ns3:TrackPointExtension>
            <ns3:atemp>14.0</ns3:atemp>
            <ns3:hr>138</ns3:hr>
          </ns3:TrackPointExtension>
        </extensions>
      </trkpt>
      <trkpt lat="-22.0092243142426013946533203125" lon="166.456332094967365264892578125">
        <ele>1063</ele>
        <time>2016-08-12T20:32:23.000Z</time>
        <extensions>
          <ns3:TrackPointExtension>
            <ns3:atemp>14.0</ns3:atemp>
            <ns3:hr>138</ns3:hr>
          </ns3:TrackPointExtension>
        </extensions>
      </trkpt>
      <trkpt lat="-22.00924216769635677337646484375" lon="166.4563208632171154022216796875">
        <ele>1063</ele>
        <time>2016-08-12T20:32:24.000Z</time>
        <extensions>
          <ns3:TrackPointExtension>
            <ns3:atemp>14.0</ns3:atemp>
            <ns3:hr>138</ns3:hr>
          </ns3:TrackPointExtension>
        </extensions>
      </trkpt>
      <trkpt lat="-22.0092628709971904754638671875" lon="166.45631440915167331695556640625">
        <ele>1063</ele>
        <time>2016-08-12T20:32:25.000Z</time>
        <extensions>
          <ns3:TrackPointExtension>
            <ns3:atemp>14.0</ns3:atemp>
            <ns3:hr>138</ns3:hr>
          </ns3:TrackPointExtension>
        </extensions>
      </trkpt>
      <trkpt lat="-22.0092836581170558929443359375" lon="166.45630770362913608551025390625">
        <ele>1063.5999755859375</ele>
        <time>2016-08-12T20:32:26.000Z</time>
        <extensions>
          <ns3:TrackPointExtension>
            <ns3:atemp>14.0</ns3:atemp>
            <ns3:hr>138</ns3:hr>
          </ns3:TrackPointExtension>
        </extensions>
      </trkpt>
      <trkpt lat="-22.0093034394085407257080078125" lon="166.456296555697917938232421875">
        <ele>1063.800048828125</ele>
        <time>2016-08-12T20:32:27.000Z</time>
        <extensions>
          <ns3:TrackPointExtension>
            <ns3:atemp>14.0</ns3:atemp>
            <ns3:hr>138</ns3:hr>
          </ns3:TrackPointExtension>
        </extensions>
      </trkpt>
      <trkpt lat="-22.00931961648166179656982421875" lon="166.4562859944999217987060546875">
        <ele>1063.5999755859375</ele>
        <time>2016-08-12T20:32:28.000Z</time>
        <extensions>
          <ns3:TrackPointExtension>
            <ns3:atemp>14.0</ns3:atemp>
            <ns3:hr>138</ns3:hr>
          </ns3:TrackPointExtension>
        </extensions>
      </trkpt>
      <trkpt lat="-22.0093275792896747589111328125" lon="166.45628104917705059051513671875">
        <ele>1063.5999755859375</ele>
        <time>2016-08-12T20:32:29.000Z</time>
        <extensions>
          <ns3:TrackPointExtension>
            <ns3:atemp>14.0</ns3:atemp>
            <ns3:hr>139</ns3:hr>
          </ns3:TrackPointExtension>
        </extensions>
      </trkpt>
      <trkpt lat="-22.0093413256108760833740234375" lon="166.456283144652843475341796875">
        <ele>1063.800048828125</ele>
        <time>2016-08-12T20:32:30.000Z</time>
        <extensions>
          <ns3:TrackPointExtension>
            <ns3:atemp>14.0</ns3:atemp>
            <ns3:hr>138</ns3:hr>
          </ns3:TrackPointExtension>
        </extensions>
      </trkpt>
      <trkpt lat="-22.00935867615044116973876953125" lon="166.45628054626286029815673828125">
        <ele>1064.199951171875</ele>
        <time>2016-08-12T20:32:31.000Z</time>
        <extensions>
          <ns3:TrackPointExtension>
            <ns3:atemp>14.0</ns3:atemp>
            <ns3:hr>138</ns3:hr>
          </ns3:TrackPointExtension>
        </extensions>
      </trkpt>
      <trkpt lat="-22.00937761925160884857177734375" lon="166.456278450787067413330078125">
        <ele>1064.5999755859375</ele>
        <time>2016-08-12T20:32:32.000Z</time>
        <extensions>
          <ns3:TrackPointExtension>
            <ns3:atemp>14.0</ns3:atemp>
            <ns3:hr>138</ns3:hr>
          </ns3:TrackPointExtension>
        </extensions>
      </trkpt>
      <trkpt lat="-22.00939371250569820404052734375" lon="166.45627618767321109771728515625">
        <ele>1064.4000244140625</ele>
        <time>2016-08-12T20:32:33.000Z</time>
        <extensions>
          <ns3:TrackPointExtension>
            <ns3:atemp>14.0</ns3:atemp>
            <ns3:hr>138</ns3:hr>
          </ns3:TrackPointExtension>
        </extensions>
      </trkpt>
      <trkpt lat="-22.009410895407199859619140625" lon="166.45627166144549846649169921875">
        <ele>1064.4000244140625</ele>
        <time>2016-08-12T20:32:34.000Z</time>
        <extensions>
          <ns3:TrackPointExtension>
            <ns3:atemp>14.0</ns3:atemp>
            <ns3:hr>137</ns3:hr>
          </ns3:TrackPointExtension>
        </extensions>
      </trkpt>
      <trkpt lat="-22.0094325207173824310302734375" lon="166.4562655426561832427978515625">
        <ele>1064.5999755859375</ele>
        <time>2016-08-12T20:32:35.000Z</time>
        <extensions>
          <ns3:TrackPointExtension>
            <ns3:atemp>14.0</ns3:atemp>
            <ns3:hr>137</ns3:hr>
          </ns3:TrackPointExtension>
        </extensions>
      </trkpt>
      <trkpt lat="-22.0094512961804866790771484375" lon="166.45626135170459747314453125">
        <ele>1064.800048828125</ele>
        <time>2016-08-12T20:32:36.000Z</time>
        <extensions>
          <ns3:TrackPointExtension>
            <ns3:atemp>14.0</ns3:atemp>
            <ns3:hr>138</ns3:hr>
          </ns3:TrackPointExtension>
        </extensions>
      </trkpt>
      <trkpt lat="-22.0094700716435909271240234375" lon="166.45625531673431396484375">
        <ele>1064.800048828125</ele>
        <time>2016-08-12T20:32:37.000Z</time>
        <extensions>
          <ns3:TrackPointExtension>
            <ns3:atemp>14.0</ns3:atemp>
            <ns3:hr>138</ns3:hr>
          </ns3:TrackPointExtension>
        </extensions>
      </trkpt>
      <trkpt lat="-22.00948876328766345977783203125" lon="166.45625322125852108001708984375">
        <ele>1065.199951171875</ele>
        <time>2016-08-12T20:32:38.000Z</time>
        <extensions>
          <ns3:TrackPointExtension>
            <ns3:atemp>14.0</ns3:atemp>
            <ns3:hr>138</ns3:hr>
          </ns3:TrackPointExtension>
        </extensions>
      </trkpt>
      <trkpt lat="-22.00950435362756252288818359375" lon="166.456250287592411041259765625">
        <ele>1065.4000244140625</ele>
        <time>2016-08-12T20:32:39.000Z</time>
        <extensions>
          <ns3:TrackPointExtension>
            <ns3:atemp>14.0</ns3:atemp>
            <ns3:hr>139</ns3:hr>
          </ns3:TrackPointExtension>
        </extensions>
      </trkpt>
      <trkpt lat="-22.00952296145260334014892578125" lon="166.45624467171728610992431640625">
        <ele>1065.5999755859375</ele>
        <time>2016-08-12T20:32:40.000Z</time>
        <extensions>
          <ns3:TrackPointExtension>
            <ns3:atemp>14.0</ns3:atemp>
            <ns3:hr>139</ns3:hr>
          </ns3:TrackPointExtension>
        </extensions>
      </trkpt>
      <trkpt lat="-22.00953989289700984954833984375" lon="166.45624182187020778656005859375">
        <ele>1065.800048828125</ele>
        <time>2016-08-12T20:32:41.000Z</time>
        <extensions>
          <ns3:TrackPointExtension>
            <ns3:atemp>14.0</ns3:atemp>
            <ns3:hr>139</ns3:hr>
          </ns3:TrackPointExtension>
        </extensions>
      </trkpt>
      <trkpt lat="-22.00955783016979694366455078125" lon="166.4562370441854000091552734375">
        <ele>1066</ele>
        <time>2016-08-12T20:32:42.000Z</time>
        <extensions>
          <ns3:TrackPointExtension>
            <ns3:atemp>14.0</ns3:atemp>
            <ns3:hr>139</ns3:hr>
          </ns3:TrackPointExtension>
        </extensions>
      </trkpt>
      <trkpt lat="-22.0095766894519329071044921875" lon="166.45622623153030872344970703125">
        <ele>1066.4000244140625</ele>
        <time>2016-08-12T20:32:43.000Z</time>
        <extensions>
          <ns3:TrackPointExtension>
            <ns3:atemp>14.0</ns3:atemp>
            <ns3:hr>139</ns3:hr>
          </ns3:TrackPointExtension>
        </extensions>
      </trkpt>
      <trkpt lat="-22.0095942914485931396484375" lon="166.4562202803790569305419921875">
        <ele>1066.4000244140625</ele>
        <time>2016-08-12T20:32:44.000Z</time>
        <extensions>
          <ns3:TrackPointExtension>
            <ns3:atemp>14.0</ns3:atemp>
            <ns3:hr>140</ns3:hr>
          </ns3:TrackPointExtension>
        </extensions>
      </trkpt>
      <trkpt lat="-22.00961507856845855712890625" lon="166.456212736666202545166015625">
        <ele>1066.5999755859375</ele>
        <time>2016-08-12T20:32:45.000Z</time>
        <extensions>
          <ns3:TrackPointExtension>
            <ns3:atemp>14.0</ns3:atemp>
            <ns3:hr>140</ns3:hr>
          </ns3:TrackPointExtension>
        </extensions>
      </trkpt>
      <trkpt lat="-22.00963561423122882843017578125" lon="166.456202007830142974853515625">
        <ele>1067</ele>
        <time>2016-08-12T20:32:46.000Z</time>
        <extensions>
          <ns3:TrackPointExtension>
            <ns3:atemp>14.0</ns3:atemp>
            <ns3:hr>140</ns3:hr>
          </ns3:TrackPointExtension>
        </extensions>
      </trkpt>
      <trkpt lat="-22.0096558146178722381591796875" lon="166.45619220100343227386474609375">
        <ele>1067.199951171875</ele>
        <time>2016-08-12T20:32:47.000Z</time>
        <extensions>
          <ns3:TrackPointExtension>
            <ns3:atemp>14.0</ns3:atemp>
            <ns3:hr>140</ns3:hr>
          </ns3:TrackPointExtension>
        </extensions>
      </trkpt>
      <trkpt lat="-22.00967735610902309417724609375" lon="166.456179209053516387939453125">
        <ele>1067.199951171875</ele>
        <time>2016-08-12T20:32:48.000Z</time>
        <extensions>
          <ns3:TrackPointExtension>
            <ns3:atemp>14.0</ns3:atemp>
            <ns3:hr>140</ns3:hr>
          </ns3:TrackPointExtension>
        </extensions>
      </trkpt>
      <trkpt lat="-22.00969688594341278076171875" lon="166.45616621710360050201416015625">
        <ele>1067.5999755859375</ele>
        <time>2016-08-12T20:32:49.000Z</time>
        <extensions>
          <ns3:TrackPointExtension>
            <ns3:atemp>14.0</ns3:atemp>
            <ns3:hr>141</ns3:hr>
          </ns3:TrackPointExtension>
        </extensions>
      </trkpt>
      <trkpt lat="-22.00971834361553192138671875" lon="166.456155069172382354736328125">
        <ele>1068</ele>
        <time>2016-08-12T20:32:50.000Z</time>
        <extensions>
          <ns3:TrackPointExtension>
            <ns3:atemp>14.0</ns3:atemp>
            <ns3:hr>141</ns3:hr>
          </ns3:TrackPointExtension>
        </extensions>
      </trkpt>
      <trkpt lat="-22.00973820872604846954345703125" lon="166.45614442415535449981689453125">
        <ele>1067.800048828125</ele>
        <time>2016-08-12T20:32:51.000Z</time>
        <extensions>
          <ns3:TrackPointExtension>
            <ns3:atemp>14.0</ns3:atemp>
            <ns3:hr>141</ns3:hr>
          </ns3:TrackPointExtension>
        </extensions>
      </trkpt>
      <trkpt lat="-22.00975161977112293243408203125" lon="166.45613419823348522186279296875">
        <ele>1067.800048828125</ele>
        <time>2016-08-12T20:32:52.000Z</time>
        <extensions>
          <ns3:TrackPointExtension>
            <ns3:atemp>14.0</ns3:atemp>
            <ns3:hr>141</ns3:hr>
          </ns3:TrackPointExtension>
        </extensions>
      </trkpt>
      <trkpt lat="-22.009769976139068603515625" lon="166.45612321794033050537109375">
        <ele>1068.199951171875</ele>
        <time>2016-08-12T20:32:53.000Z</time>
        <extensions>
          <ns3:TrackPointExtension>
            <ns3:atemp>14.0</ns3:atemp>
            <ns3:hr>141</ns3:hr>
          </ns3:TrackPointExtension>
        </extensions>
      </trkpt>
      <trkpt lat="-22.00979168526828289031982421875" lon="166.45611441694200038909912109375">
        <ele>1068.4000244140625</ele>
        <time>2016-08-12T20:32:54.000Z</time>
        <extensions>
          <ns3:TrackPointExtension>
            <ns3:atemp>14.0</ns3:atemp>
            <ns3:hr>142</ns3:hr>
          </ns3:TrackPointExtension>
        </extensions>
      </trkpt>
      <trkpt lat="-22.0098102092742919921875" lon="166.45610704086720943450927734375">
        <ele>1068.4000244140625</ele>
        <time>2016-08-12T20:32:55.000Z</time>
        <extensions>
          <ns3:TrackPointExtension>
            <ns3:atemp>14.0</ns3:atemp>
            <ns3:hr>142</ns3:hr>
          </ns3:TrackPointExtension>
        </extensions>
      </trkpt>
      <trkpt lat="-22.00982873328030109405517578125" lon="166.4560958929359912872314453125">
        <ele>1068.5999755859375</ele>
        <time>2016-08-12T20:32:56.000Z</time>
        <extensions>
          <ns3:TrackPointExtension>
            <ns3:atemp>14.0</ns3:atemp>
            <ns3:hr>142</ns3:hr>
          </ns3:TrackPointExtension>
        </extensions>
      </trkpt>
      <trkpt lat="-22.0098459161818027496337890625" lon="166.4560854993760585784912109375">
        <ele>1068.800048828125</ele>
        <time>2016-08-12T20:32:57.000Z</time>
        <extensions>
          <ns3:TrackPointExtension>
            <ns3:atemp>14.0</ns3:atemp>
            <ns3:hr>142</ns3:hr>
          </ns3:TrackPointExtension>
        </extensions>
      </trkpt>
      <trkpt lat="-22.009864859282970428466796875" lon="166.45607770420610904693603515625">
        <ele>1068.800048828125</ele>
        <time>2016-08-12T20:32:58.000Z</time>
        <extensions>
          <ns3:TrackPointExtension>
            <ns3:atemp>14.0</ns3:atemp>
            <ns3:hr>142</ns3:hr>
          </ns3:TrackPointExtension>
        </extensions>
      </trkpt>
      <trkpt lat="-22.00988824479281902313232421875" lon="166.4560714177787303924560546875">
        <ele>1068.800048828125</ele>
        <time>2016-08-12T20:32:59.000Z</time>
        <extensions>
          <ns3:TrackPointExtension>
            <ns3:atemp>14.0</ns3:atemp>
            <ns3:hr>142</ns3:hr>
          </ns3:TrackPointExtension>
        </extensions>
      </trkpt>
      <trkpt lat="-22.0099059306085109710693359375" lon="166.45607049576938152313232421875">
        <ele>1069</ele>
        <time>2016-08-12T20:33:00.000Z</time>
        <extensions>
          <ns3:TrackPointExtension>
            <ns3:atemp>14.0</ns3:atemp>
            <ns3:hr>142</ns3:hr>
          </ns3:TrackPointExtension>
        </extensions>
      </trkpt>
      <trkpt lat="-22.00991959311068058013916015625" lon="166.4560757763683795928955078125">
        <ele>1069.199951171875</ele>
        <time>2016-08-12T20:33:01.000Z</time>
        <extensions>
          <ns3:TrackPointExtension>
            <ns3:atemp>14.0</ns3:atemp>
            <ns3:hr>142</ns3:hr>
          </ns3:TrackPointExtension>
        </extensions>
      </trkpt>
      <trkpt lat="-22.00993149541318416595458984375" lon="166.456088684499263763427734375">
        <ele>1069.199951171875</ele>
        <time>2016-08-12T20:33:02.000Z</time>
        <extensions>
          <ns3:TrackPointExtension>
            <ns3:atemp>14.0</ns3:atemp>
            <ns3:hr>142</ns3:hr>
          </ns3:TrackPointExtension>
        </extensions>
      </trkpt>
      <trkpt lat="-22.0099349319934844970703125" lon="166.4561032690107822418212890625">
        <ele>1069.4000244140625</ele>
        <time>2016-08-12T20:33:03.000Z</time>
        <extensions>
          <ns3:TrackPointExtension>
            <ns3:atemp>14.0</ns3:atemp>
            <ns3:hr>142</ns3:hr>
          </ns3:TrackPointExtension>
        </extensions>
      </trkpt>
      <trkpt lat="-22.00993568636476993560791015625" lon="166.45611793734133243560791015625">
        <ele>1069.800048828125</ele>
        <time>2016-08-12T20:33:04.000Z</time>
        <extensions>
          <ns3:TrackPointExtension>
            <ns3:atemp>14.0</ns3:atemp>
            <ns3:hr>142</ns3:hr>
          </ns3:TrackPointExtension>
        </extensions>
      </trkpt>
      <trkpt lat="-22.00993451289832592010498046875" lon="166.456134617328643798828125">
        <ele>1069.800048828125</ele>
        <time>2016-08-12T20:33:05.000Z</time>
        <extensions>
          <ns3:TrackPointExtension>
            <ns3:atemp>14.0</ns3:atemp>
            <ns3:hr>142</ns3:hr>
          </ns3:TrackPointExtension>
        </extensions>
      </trkpt>
      <trkpt lat="-22.00992864556610584259033203125" lon="166.4561525546014308929443359375">
        <ele>1070</ele>
        <time>2016-08-12T20:33:06.000Z</time>
        <extensions>
          <ns3:TrackPointExtension>
            <ns3:atemp>14.0</ns3:atemp>
            <ns3:hr>143</ns3:hr>
          </ns3:TrackPointExtension>
        </extensions>
      </trkpt>
      <trkpt lat="-22.0099188387393951416015625" lon="166.4561730064451694488525390625">
        <ele>1070.4000244140625</ele>
        <time>2016-08-12T20:33:07.000Z</time>
        <extensions>
          <ns3:TrackPointExtension>
            <ns3:atemp>14.0</ns3:atemp>
            <ns3:hr>143</ns3:hr>
          </ns3:TrackPointExtension>
        </extensions>
      </trkpt>
      <trkpt lat="-22.00990668497979640960693359375" lon="166.45619354210793972015380859375">
        <ele>1070.800048828125</ele>
        <time>2016-08-12T20:33:08.000Z</time>
        <extensions>
          <ns3:TrackPointExtension>
            <ns3:atemp>14.0</ns3:atemp>
            <ns3:hr>142</ns3:hr>
          </ns3:TrackPointExtension>
        </extensions>
      </trkpt>
      <trkpt lat="-22.00989411212503910064697265625" lon="166.45621080882847309112548828125">
        <ele>1071.199951171875</ele>
        <time>2016-08-12T20:33:09.000Z</time>
        <extensions>
          <ns3:TrackPointExtension>
            <ns3:atemp>14.0</ns3:atemp>
            <ns3:hr>143</ns3:hr>
          </ns3:TrackPointExtension>
        </extensions>
      </trkpt>
      <trkpt lat="-22.009880952537059783935546875" lon="166.45622975192964076995849609375">
        <ele>1071.199951171875</ele>
        <time>2016-08-12T20:33:10.000Z</time>
        <extensions>
          <ns3:TrackPointExtension>
            <ns3:atemp>14.0</ns3:atemp>
            <ns3:hr>143</ns3:hr>
          </ns3:TrackPointExtension>
        </extensions>
      </trkpt>
      <trkpt lat="-22.00986988842487335205078125" lon="166.45624567754566669464111328125">
        <ele>1071.4000244140625</ele>
        <time>2016-08-12T20:33:11.000Z</time>
        <extensions>
          <ns3:TrackPointExtension>
            <ns3:atemp>14.0</ns3:atemp>
            <ns3:hr>143</ns3:hr>
          </ns3:TrackPointExtension>
        </extensions>
      </trkpt>
      <trkpt lat="-22.0098593272268772125244140625" lon="166.45626076497137546539306640625">
        <ele>1071.800048828125</ele>
        <time>2016-08-12T20:33:12.000Z</time>
        <extensions>
          <ns3:TrackPointExtension>
            <ns3:atemp>14.0</ns3:atemp>
            <ns3:hr>143</ns3:hr>
          </ns3:TrackPointExtension>
        </extensions>
      </trkpt>
      <trkpt lat="-22.00984574854373931884765625" lon="166.4562779478728771209716796875">
        <ele>1072</ele>
        <time>2016-08-12T20:33:13.000Z</time>
        <extensions>
          <ns3:TrackPointExtension>
            <ns3:atemp>14.0</ns3:atemp>
            <ns3:hr>143</ns3:hr>
          </ns3:TrackPointExtension>
        </extensions>
      </trkpt>
      <trkpt lat="-22.0098311640322208404541015625" lon="166.4562947116792201995849609375">
        <ele>1072</ele>
        <time>2016-08-12T20:33:14.000Z</time>
        <extensions>
          <ns3:TrackPointExtension>
            <ns3:atemp>14.0</ns3:atemp>
            <ns3:hr>143</ns3:hr>
          </ns3:TrackPointExtension>
        </extensions>
      </trkpt>
      <trkpt lat="-22.00981850735843181610107421875" lon="166.456311307847499847412109375">
        <ele>1072.199951171875</ele>
        <time>2016-08-12T20:33:15.000Z</time>
        <extensions>
          <ns3:TrackPointExtension>
            <ns3:atemp>14.0</ns3:atemp>
            <ns3:hr>144</ns3:hr>
          </ns3:TrackPointExtension>
        </extensions>
      </trkpt>
      <trkpt lat="-22.00980409048497676849365234375" lon="166.45632782019674777984619140625">
        <ele>1072.4000244140625</ele>
        <time>2016-08-12T20:33:16.000Z</time>
        <extensions>
          <ns3:TrackPointExtension>
            <ns3:atemp>14.0</ns3:atemp>
            <ns3:hr>144</ns3:hr>
          </ns3:TrackPointExtension>
        </extensions>
      </trkpt>
      <trkpt lat="-22.00978917069733142852783203125" lon="166.45634156651794910430908203125">
        <ele>1072.4000244140625</ele>
        <time>2016-08-12T20:33:17.000Z</time>
        <extensions>
          <ns3:TrackPointExtension>
            <ns3:atemp>14.0</ns3:atemp>
            <ns3:hr>143</ns3:hr>
          </ns3:TrackPointExtension>
        </extensions>
      </trkpt>
      <trkpt lat="-22.00977324508130550384521484375" lon="166.4563527144491672515869140625">
        <ele>1072.800048828125</ele>
        <time>2016-08-12T20:33:18.000Z</time>
        <extensions>
          <ns3:TrackPointExtension>
            <ns3:atemp>14.0</ns3:atemp>
            <ns3:hr>143</ns3:hr>
          </ns3:TrackPointExtension>
        </extensions>
      </trkpt>
      <trkpt lat="-22.0097577385604381561279296875" lon="166.45636704750359058380126953125">
        <ele>1072.800048828125</ele>
        <time>2016-08-12T20:33:19.000Z</time>
        <extensions>
          <ns3:TrackPointExtension>
            <ns3:atemp>14.0</ns3:atemp>
            <ns3:hr>144</ns3:hr>
          </ns3:TrackPointExtension>
        </extensions>
      </trkpt>
      <trkpt lat="-22.0097436569631099700927734375" lon="166.45637936890125274658203125">
        <ele>1072.800048828125</ele>
        <time>2016-08-12T20:33:20.000Z</time>
        <extensions>
          <ns3:TrackPointExtension>
            <ns3:atemp>14.0</ns3:atemp>
            <ns3:hr>144</ns3:hr>
          </ns3:TrackPointExtension>
        </extensions>
      </trkpt>
      <trkpt lat="-22.0097275637090206146240234375" lon="166.45638934336602687835693359375">
        <ele>1073.199951171875</ele>
        <time>2016-08-12T20:33:21.000Z</time>
        <extensions>
          <ns3:TrackPointExtension>
            <ns3:atemp>14.0</ns3:atemp>
            <ns3:hr>143</ns3:hr>
          </ns3:TrackPointExtension>
        </extensions>
      </trkpt>
      <trkpt lat="-22.009711973369121551513671875" lon="166.456400491297245025634765625">
        <ele>1073.5999755859375</ele>
        <time>2016-08-12T20:33:22.000Z</time>
        <extensions>
          <ns3:TrackPointExtension>
            <ns3:atemp>14.0</ns3:atemp>
            <ns3:hr>143</ns3:hr>
          </ns3:TrackPointExtension>
        </extensions>
      </trkpt>
      <trkpt lat="-22.0096967183053493499755859375" lon="166.45640895701944828033447265625">
        <ele>1073.5999755859375</ele>
        <time>2016-08-12T20:33:23.000Z</time>
        <extensions>
          <ns3:TrackPointExtension>
            <ns3:atemp>14.0</ns3:atemp>
            <ns3:hr>144</ns3:hr>
          </ns3:TrackPointExtension>
        </extensions>
      </trkpt>
      <trkpt lat="-22.00968288816511631011962890625" lon="166.4564180932939052581787109375">
        <ele>1073.800048828125</ele>
        <time>2016-08-12T20:33:24.000Z</time>
        <extensions>
          <ns3:TrackPointExtension>
            <ns3:atemp>14.0</ns3:atemp>
            <ns3:hr>143</ns3:hr>
          </ns3:TrackPointExtension>
        </extensions>
      </trkpt>
      <trkpt lat="-22.00966763310134410858154296875" lon="166.45642890594899654388427734375">
        <ele>1073.800048828125</ele>
        <time>2016-08-12T20:33:25.000Z</time>
        <extensions>
          <ns3:TrackPointExtension>
            <ns3:atemp>14.0</ns3:atemp>
            <ns3:hr>144</ns3:hr>
          </ns3:TrackPointExtension>
        </extensions>
      </trkpt>
      <trkpt lat="-22.00965304858982563018798828125" lon="166.4564390480518341064453125">
        <ele>1074</ele>
        <time>2016-08-12T20:33:26.000Z</time>
        <extensions>
          <ns3:TrackPointExtension>
            <ns3:atemp>14.0</ns3:atemp>
            <ns3:hr>144</ns3:hr>
          </ns3:TrackPointExtension>
        </extensions>
      </trkpt>
      <trkpt lat="-22.00963997282087802886962890625" lon="166.45644776523113250732421875">
        <ele>1074.199951171875</ele>
        <time>2016-08-12T20:33:27.000Z</time>
        <extensions>
          <ns3:TrackPointExtension>
            <ns3:atemp>14.0</ns3:atemp>
            <ns3:hr>144</ns3:hr>
          </ns3:TrackPointExtension>
        </extensions>
      </trkpt>
      <trkpt lat="-22.00962438248097896575927734375" lon="166.4564559794962406158447265625">
        <ele>1074.5999755859375</ele>
        <time>2016-08-12T20:33:28.000Z</time>
        <extensions>
          <ns3:TrackPointExtension>
            <ns3:atemp>14.0</ns3:atemp>
            <ns3:hr>144</ns3:hr>
          </ns3:TrackPointExtension>
        </extensions>
      </trkpt>
      <trkpt lat="-22.00960862450301647186279296875" lon="166.45645941607654094696044921875">
        <ele>1074.800048828125</ele>
        <time>2016-08-12T20:33:29.000Z</time>
        <extensions>
          <ns3:TrackPointExtension>
            <ns3:atemp>14.0</ns3:atemp>
            <ns3:hr>144</ns3:hr>
          </ns3:TrackPointExtension>
        </extensions>
      </trkpt>
      <trkpt lat="-22.009592950344085693359375" lon="166.45646654069423675537109375">
        <ele>1075</ele>
        <time>2016-08-12T20:33:30.000Z</time>
        <extensions>
          <ns3:TrackPointExtension>
            <ns3:atemp>14.0</ns3:atemp>
            <ns3:hr>144</ns3:hr>
          </ns3:TrackPointExtension>
        </extensions>
      </trkpt>
      <trkpt lat="-22.009578533470630645751953125" lon="166.45647232420742511749267578125">
        <ele>1075.199951171875</ele>
        <time>2016-08-12T20:33:31.000Z</time>
        <extensions>
          <ns3:TrackPointExtension>
            <ns3:atemp>14.0</ns3:atemp>
            <ns3:hr>144</ns3:hr>
          </ns3:TrackPointExtension>
        </extensions>
      </trkpt>
      <trkpt lat="-22.0095683075487613677978515625" lon="166.456482298672199249267578125">
        <ele>1075.199951171875</ele>
        <time>2016-08-12T20:33:32.000Z</time>
        <extensions>
          <ns3:TrackPointExtension>
            <ns3:atemp>14.0</ns3:atemp>
            <ns3:hr>144</ns3:hr>
          </ns3:TrackPointExtension>
        </extensions>
      </trkpt>
      <trkpt lat="-22.00955682434141635894775390625" lon="166.45649135112762451171875">
        <ele>1075.5999755859375</ele>
        <time>2016-08-12T20:33:33.000Z</time>
        <extensions>
          <ns3:TrackPointExtension>
            <ns3:atemp>14.0</ns3:atemp>
            <ns3:hr>144</ns3:hr>
          </ns3:TrackPointExtension>
        </extensions>
      </trkpt>
      <trkpt lat="-22.0095451734960079193115234375" lon="166.45650115795433521270751953125">
        <ele>1075.800048828125</ele>
        <time>2016-08-12T20:33:34.000Z</time>
        <extensions>
          <ns3:TrackPointExtension>
            <ns3:atemp>14.0</ns3:atemp>
            <ns3:hr>144</ns3:hr>
          </ns3:TrackPointExtension>
        </extensions>
      </trkpt>
      <trkpt lat="-22.0095334388315677642822265625" lon="166.4565059356391429901123046875">
        <ele>1076</ele>
        <time>2016-08-12T20:33:35.000Z</time>
        <extensions>
          <ns3:TrackPointExtension>
            <ns3:atemp>14.0</ns3:atemp>
            <ns3:hr>144</ns3:hr>
          </ns3:TrackPointExtension>
        </extensions>
      </trkpt>
      <trkpt lat="-22.0095203630626201629638671875" lon="166.45651054568588733673095703125">
        <ele>1076.199951171875</ele>
        <time>2016-08-12T20:33:36.000Z</time>
        <extensions>
          <ns3:TrackPointExtension>
            <ns3:atemp>14.0</ns3:atemp>
            <ns3:hr>144</ns3:hr>
          </ns3:TrackPointExtension>
        </extensions>
      </trkpt>
      <trkpt lat="-22.00950820930302143096923828125" lon="166.45652093924582004547119140625">
        <ele>1076.4000244140625</ele>
        <time>2016-08-12T20:33:37.000Z</time>
        <extensions>
          <ns3:TrackPointExtension>
            <ns3:atemp>14.0</ns3:atemp>
            <ns3:hr>144</ns3:hr>
          </ns3:TrackPointExtension>
        </extensions>
      </trkpt>
      <trkpt lat="-22.00949613936245441436767578125" lon="166.45653217099606990814208984375">
        <ele>1076.4000244140625</ele>
        <time>2016-08-12T20:33:38.000Z</time>
        <extensions>
          <ns3:TrackPointExtension>
            <ns3:atemp>14.0</ns3:atemp>
            <ns3:hr>144</ns3:hr>
          </ns3:TrackPointExtension>
        </extensions>
      </trkpt>
      <trkpt lat="-22.0094824768602848052978515625" lon="166.4565451629459857940673828125">
        <ele>1076.800048828125</ele>
        <time>2016-08-12T20:33:39.000Z</time>
        <extensions>
          <ns3:TrackPointExtension>
            <ns3:atemp>14.0</ns3:atemp>
            <ns3:hr>143</ns3:hr>
          </ns3:TrackPointExtension>
        </extensions>
      </trkpt>
      <trkpt lat="-22.00946797616779804229736328125" lon="166.4565582387149333953857421875">
        <ele>1077</ele>
        <time>2016-08-12T20:33:40.000Z</time>
        <extensions>
          <ns3:TrackPointExtension>
            <ns3:atemp>14.0</ns3:atemp>
            <ns3:hr>144</ns3:hr>
          </ns3:TrackPointExtension>
        </extensions>
      </trkpt>
      <trkpt lat="-22.00945490039885044097900390625" lon="166.4565719850361347198486328125">
        <ele>1077.199951171875</ele>
        <time>2016-08-12T20:33:41.000Z</time>
        <extensions>
          <ns3:TrackPointExtension>
            <ns3:atemp>14.0</ns3:atemp>
            <ns3:hr>144</ns3:hr>
          </ns3:TrackPointExtension>
        </extensions>
      </trkpt>
      <trkpt lat="-22.00943998061120510101318359375" lon="166.456586234271526336669921875">
        <ele>1077.4000244140625</ele>
        <time>2016-08-12T20:33:42.000Z</time>
        <extensions>
          <ns3:TrackPointExtension>
            <ns3:atemp>14.0</ns3:atemp>
            <ns3:hr>144</ns3:hr>
          </ns3:TrackPointExtension>
        </extensions>
      </trkpt>
      <trkpt lat="-22.00942522846162319183349609375" lon="166.45659922622144222259521484375">
        <ele>1077.5999755859375</ele>
        <time>2016-08-12T20:33:43.000Z</time>
        <extensions>
          <ns3:TrackPointExtension>
            <ns3:atemp>14.0</ns3:atemp>
            <ns3:hr>144</ns3:hr>
          </ns3:TrackPointExtension>
        </extensions>
      </trkpt>
      <trkpt lat="-22.00941164977848529815673828125" lon="166.456613056361675262451171875">
        <ele>1077.5999755859375</ele>
        <time>2016-08-12T20:33:44.000Z</time>
        <extensions>
          <ns3:TrackPointExtension>
            <ns3:atemp>14.0</ns3:atemp>
            <ns3:hr>144</ns3:hr>
          </ns3:TrackPointExtension>
        </extensions>
      </trkpt>
      <trkpt lat="-22.00939740054309368133544921875" lon="166.4566276408731937408447265625">
        <ele>1077.800048828125</ele>
        <time>2016-08-12T20:33:45.000Z</time>
        <extensions>
          <ns3:TrackPointExtension>
            <ns3:atemp>14.0</ns3:atemp>
            <ns3:hr>144</ns3:hr>
          </ns3:TrackPointExtension>
        </extensions>
      </trkpt>
      <trkpt lat="-22.0093815587460994720458984375" lon="166.45663929171860218048095703125">
        <ele>1078</ele>
        <time>2016-08-12T20:33:46.000Z</time>
        <extensions>
          <ns3:TrackPointExtension>
            <ns3:atemp>14.0</ns3:atemp>
            <ns3:hr>144</ns3:hr>
          </ns3:TrackPointExtension>
        </extensions>
      </trkpt>
      <trkpt lat="-22.0093654654920101165771484375" lon="166.45665387623012065887451171875">
        <ele>1078.199951171875</ele>
        <time>2016-08-12T20:33:47.000Z</time>
        <extensions>
          <ns3:TrackPointExtension>
            <ns3:atemp>14.0</ns3:atemp>
            <ns3:hr>144</ns3:hr>
          </ns3:TrackPointExtension>
        </extensions>
      </trkpt>
      <trkpt lat="-22.00935046188533306121826171875" lon="166.4566718973219394683837890625">
        <ele>1078.5999755859375</ele>
        <time>2016-08-12T20:33:48.000Z</time>
        <extensions>
          <ns3:TrackPointExtension>
            <ns3:atemp>14.0</ns3:atemp>
            <ns3:hr>144</ns3:hr>
          </ns3:TrackPointExtension>
        </extensions>
      </trkpt>
      <trkpt lat="-22.0093373022973537445068359375" lon="166.4566873200237751007080078125">
        <ele>1078.800048828125</ele>
        <time>2016-08-12T20:33:49.000Z</time>
        <extensions>
          <ns3:TrackPointExtension>
            <ns3:atemp>14.0</ns3:atemp>
            <ns3:hr>144</ns3:hr>
          </ns3:TrackPointExtension>
        </extensions>
      </trkpt>
      <trkpt lat="-22.0093238912522792816162109375" lon="166.45670215599238872528076171875">
        <ele>1078.800048828125</ele>
        <time>2016-08-12T20:33:50.000Z</time>
        <extensions>
          <ns3:TrackPointExtension>
            <ns3:atemp>14.0</ns3:atemp>
            <ns3:hr>144</ns3:hr>
          </ns3:TrackPointExtension>
        </extensions>
      </trkpt>
      <trkpt lat="-22.0093111507594585418701171875" lon="166.45672026090323925018310546875">
        <ele>1079</ele>
        <time>2016-08-12T20:33:51.000Z</time>
        <extensions>
          <ns3:TrackPointExtension>
            <ns3:atemp>14.0</ns3:atemp>
            <ns3:hr>144</ns3:hr>
          </ns3:TrackPointExtension>
        </extensions>
      </trkpt>
      <trkpt lat="-22.00930126011371612548828125" lon="166.45673501305282115936279296875">
        <ele>1079.199951171875</ele>
        <time>2016-08-12T20:33:52.000Z</time>
        <extensions>
          <ns3:TrackPointExtension>
            <ns3:atemp>14.0</ns3:atemp>
            <ns3:hr>144</ns3:hr>
          </ns3:TrackPointExtension>
        </extensions>
      </trkpt>
      <trkpt lat="-22.00929212383925914764404296875" lon="166.45675077103078365325927734375">
        <ele>1079.4000244140625</ele>
        <time>2016-08-12T20:33:53.000Z</time>
        <extensions>
          <ns3:TrackPointExtension>
            <ns3:atemp>14.0</ns3:atemp>
            <ns3:hr>144</ns3:hr>
          </ns3:TrackPointExtension>
        </extensions>
      </trkpt>
      <trkpt lat="-22.0092826522886753082275390625" lon="166.45676988177001476287841796875">
        <ele>1079.5999755859375</ele>
        <time>2016-08-12T20:33:54.000Z</time>
        <extensions>
          <ns3:TrackPointExtension>
            <ns3:atemp>14.0</ns3:atemp>
            <ns3:hr>144</ns3:hr>
          </ns3:TrackPointExtension>
        </extensions>
      </trkpt>
      <trkpt lat="-22.00927334837615489959716796875" lon="166.4567863941192626953125">
        <ele>1080</ele>
        <time>2016-08-12T20:33:55.000Z</time>
        <extensions>
          <ns3:TrackPointExtension>
            <ns3:atemp>14.0</ns3:atemp>
            <ns3:hr>144</ns3:hr>
          </ns3:TrackPointExtension>
        </extensions>
      </trkpt>
      <trkpt lat="-22.0092625357210636138916015625" lon="166.4568019844591617584228515625">
        <ele>1080</ele>
        <time>2016-08-12T20:33:56.000Z</time>
        <extensions>
          <ns3:TrackPointExtension>
            <ns3:atemp>14.0</ns3:atemp>
            <ns3:hr>144</ns3:hr>
          </ns3:TrackPointExtension>
        </extensions>
      </trkpt>
      <trkpt lat="-22.00925507582724094390869140625" lon="166.456820257008075714111328125">
        <ele>1080.199951171875</ele>
        <time>2016-08-12T20:33:57.000Z</time>
        <extensions>
          <ns3:TrackPointExtension>
            <ns3:atemp>14.0</ns3:atemp>
            <ns3:hr>144</ns3:hr>
          </ns3:TrackPointExtension>
        </extensions>
      </trkpt>
      <trkpt lat="-22.00924652628600597381591796875" lon="166.456840373575687408447265625">
        <ele>1080.5999755859375</ele>
        <time>2016-08-12T20:33:58.000Z</time>
        <extensions>
          <ns3:TrackPointExtension>
            <ns3:atemp>14.0</ns3:atemp>
            <ns3:hr>144</ns3:hr>
          </ns3:TrackPointExtension>
        </extensions>
      </trkpt>
      <trkpt lat="-22.0092343725264072418212890625" lon="166.45685738883912563323974609375">
        <ele>1080.5999755859375</ele>
        <time>2016-08-12T20:33:59.000Z</time>
        <extensions>
          <ns3:TrackPointExtension>
            <ns3:atemp>14.0</ns3:atemp>
            <ns3:hr>144</ns3:hr>
          </ns3:TrackPointExtension>
        </extensions>
      </trkpt>
      <trkpt lat="-22.00922624208033084869384765625" lon="166.45687331445515155792236328125">
        <ele>1080.5999755859375</ele>
        <time>2016-08-12T20:34:00.000Z</time>
        <extensions>
          <ns3:TrackPointExtension>
            <ns3:atemp>14.0</ns3:atemp>
            <ns3:hr>144</ns3:hr>
          </ns3:TrackPointExtension>
        </extensions>
      </trkpt>
      <trkpt lat="-22.00921970419585704803466796875" lon="166.4568888209760189056396484375">
        <ele>1080.800048828125</ele>
        <time>2016-08-12T20:34:01.000Z</time>
        <extensions>
          <ns3:TrackPointExtension>
            <ns3:atemp>14.0</ns3:atemp>
            <ns3:hr>144</ns3:hr>
          </ns3:TrackPointExtension>
        </extensions>
      </trkpt>
      <trkpt lat="-22.00921132229268550872802734375" lon="166.45690365694463253021240234375">
        <ele>1081</ele>
        <time>2016-08-12T20:34:02.000Z</time>
        <extensions>
          <ns3:TrackPointExtension>
            <ns3:atemp>14.0</ns3:atemp>
            <ns3:hr>144</ns3:hr>
          </ns3:TrackPointExtension>
        </extensions>
      </trkpt>
      <trkpt lat="-22.00920511968433856964111328125" lon="166.45691891200840473175048828125">
        <ele>1081.199951171875</ele>
        <time>2016-08-12T20:34:03.000Z</time>
        <extensions>
          <ns3:TrackPointExtension>
            <ns3:atemp>14.0</ns3:atemp>
            <ns3:hr>144</ns3:hr>
          </ns3:TrackPointExtension>
        </extensions>
      </trkpt>
      <trkpt lat="-22.00919757597148418426513671875" lon="166.4569352567195892333984375">
        <ele>1081.800048828125</ele>
        <time>2016-08-12T20:34:04.000Z</time>
        <extensions>
          <ns3:TrackPointExtension>
            <ns3:atemp>14.0</ns3:atemp>
            <ns3:hr>144</ns3:hr>
          </ns3:TrackPointExtension>
        </extensions>
      </trkpt>
      <trkpt lat="-22.00918584130704402923583984375" lon="166.45695327781140804290771484375">
        <ele>1082.199951171875</ele>
        <time>2016-08-12T20:34:05.000Z</time>
        <extensions>
          <ns3:TrackPointExtension>
            <ns3:atemp>14.0</ns3:atemp>
            <ns3:hr>144</ns3:hr>
          </ns3:TrackPointExtension>
        </extensions>
      </trkpt>
      <trkpt lat="-22.0091787166893482208251953125" lon="166.45696953870356082916259765625">
        <ele>1082.199951171875</ele>
        <time>2016-08-12T20:34:06.000Z</time>
        <extensions>
          <ns3:TrackPointExtension>
            <ns3:atemp>14.0</ns3:atemp>
            <ns3:hr>144</ns3:hr>
          </ns3:TrackPointExtension>
        </extensions>
      </trkpt>
      <trkpt lat="-22.009169496595859527587890625" lon="166.456990577280521392822265625">
        <ele>1082.4000244140625</ele>
        <time>2016-08-12T20:34:07.000Z</time>
        <extensions>
          <ns3:TrackPointExtension>
            <ns3:atemp>14.0</ns3:atemp>
            <ns3:hr>144</ns3:hr>
          </ns3:TrackPointExtension>
        </extensions>
      </trkpt>
      <trkpt lat="-22.00916253961622714996337890625" lon="166.45701345987617969512939453125">
        <ele>1082.5999755859375</ele>
        <time>2016-08-12T20:34:08.000Z</time>
        <extensions>
          <ns3:TrackPointExtension>
            <ns3:atemp>14.0</ns3:atemp>
            <ns3:hr>144</ns3:hr>
          </ns3:TrackPointExtension>
        </extensions>
      </trkpt>
      <trkpt lat="-22.00915776193141937255859375" lon="166.4570318162441253662109375">
        <ele>1082.800048828125</ele>
        <time>2016-08-12T20:34:09.000Z</time>
        <extensions>
          <ns3:TrackPointExtension>
            <ns3:atemp>14.0</ns3:atemp>
            <ns3:hr>144</ns3:hr>
          </ns3:TrackPointExtension>
        </extensions>
      </trkpt>
      <trkpt lat="-22.0091515593230724334716796875" lon="166.4570534415543079376220703125">
        <ele>1083.199951171875</ele>
        <time>2016-08-12T20:34:10.000Z</time>
        <extensions>
          <ns3:TrackPointExtension>
            <ns3:atemp>14.0</ns3:atemp>
            <ns3:hr>144</ns3:hr>
          </ns3:TrackPointExtension>
        </extensions>
      </trkpt>
      <trkpt lat="-22.00914778746664524078369140625" lon="166.4570775814354419708251953125">
        <ele>1083.4000244140625</ele>
        <time>2016-08-12T20:34:11.000Z</time>
        <extensions>
          <ns3:TrackPointExtension>
            <ns3:atemp>14.0</ns3:atemp>
            <ns3:hr>145</ns3:hr>
          </ns3:TrackPointExtension>
        </extensions>
      </trkpt>
      <trkpt lat="-22.00914426706731319427490234375" lon="166.4570936746895313262939453125">
        <ele>1083.199951171875</ele>
        <time>2016-08-12T20:34:12.000Z</time>
        <extensions>
          <ns3:TrackPointExtension>
            <ns3:atemp>14.0</ns3:atemp>
            <ns3:hr>145</ns3:hr>
          </ns3:TrackPointExtension>
        </extensions>
      </trkpt>
      <trkpt lat="-22.00913940556347370147705078125" lon="166.457115970551967620849609375">
        <ele>1083.5999755859375</ele>
        <time>2016-08-12T20:34:13.000Z</time>
        <extensions>
          <ns3:TrackPointExtension>
            <ns3:atemp>14.0</ns3:atemp>
            <ns3:hr>144</ns3:hr>
          </ns3:TrackPointExtension>
        </extensions>
      </trkpt>
      <trkpt lat="-22.00913806445896625518798828125" lon="166.4571402780711650848388671875">
        <ele>1083.800048828125</ele>
        <time>2016-08-12T20:34:14.000Z</time>
        <extensions>
          <ns3:TrackPointExtension>
            <ns3:atemp>14.0</ns3:atemp>
            <ns3:hr>144</ns3:hr>
          </ns3:TrackPointExtension>
        </extensions>
      </trkpt>
      <trkpt lat="-22.00913772918283939361572265625" lon="166.45716114901006221771240234375">
        <ele>1083.800048828125</ele>
        <time>2016-08-12T20:34:15.000Z</time>
        <extensions>
          <ns3:TrackPointExtension>
            <ns3:atemp>14.0</ns3:atemp>
            <ns3:hr>145</ns3:hr>
          </ns3:TrackPointExtension>
        </extensions>
      </trkpt>
      <trkpt lat="-22.00913605280220508575439453125" lon="166.457185707986354827880859375">
        <ele>1084</ele>
        <time>2016-08-12T20:34:16.000Z</time>
        <extensions>
          <ns3:TrackPointExtension>
            <ns3:atemp>14.0</ns3:atemp>
            <ns3:hr>145</ns3:hr>
          </ns3:TrackPointExtension>
        </extensions>
      </trkpt>
      <trkpt lat="-22.0091421715915203094482421875" lon="166.4572116918861865997314453125">
        <ele>1084.199951171875</ele>
        <time>2016-08-12T20:34:17.000Z</time>
        <extensions>
          <ns3:TrackPointExtension>
            <ns3:atemp>14.0</ns3:atemp>
            <ns3:hr>144</ns3:hr>
          </ns3:TrackPointExtension>
        </extensions>
      </trkpt>
      <trkpt lat="-22.00914912857115268707275390625" lon="166.45723356865346431732177734375">
        <ele>1084.199951171875</ele>
        <time>2016-08-12T20:34:18.000Z</time>
        <extensions>
          <ns3:TrackPointExtension>
            <ns3:atemp>14.0</ns3:atemp>
            <ns3:hr>145</ns3:hr>
          </ns3:TrackPointExtension>
        </extensions>
      </trkpt>
      <trkpt lat="-22.0091575942933559417724609375" lon="166.4572586305439472198486328125">
        <ele>1084.199951171875</ele>
        <time>2016-08-12T20:34:19.000Z</time>
        <extensions>
          <ns3:TrackPointExtension>
            <ns3:atemp>14.0</ns3:atemp>
            <ns3:hr>145</ns3:hr>
          </ns3:TrackPointExtension>
        </extensions>
      </trkpt>
      <trkpt lat="-22.00916756875813007354736328125" lon="166.457282938063144683837890625">
        <ele>1084.199951171875</ele>
        <time>2016-08-12T20:34:20.000Z</time>
        <extensions>
          <ns3:TrackPointExtension>
            <ns3:atemp>14.0</ns3:atemp>
            <ns3:hr>145</ns3:hr>
          </ns3:TrackPointExtension>
        </extensions>
      </trkpt>
      <trkpt lat="-22.00917695648968219757080078125" lon="166.45730347372591495513916015625">
        <ele>1084.199951171875</ele>
        <time>2016-08-12T20:34:21.000Z</time>
        <extensions>
          <ns3:TrackPointExtension>
            <ns3:atemp>14.0</ns3:atemp>
            <ns3:hr>145</ns3:hr>
          </ns3:TrackPointExtension>
        </extensions>
      </trkpt>
      <trkpt lat="-22.0091892778873443603515625" lon="166.4573253504931926727294921875">
        <ele>1084.199951171875</ele>
        <time>2016-08-12T20:34:22.000Z</time>
        <extensions>
          <ns3:TrackPointExtension>
            <ns3:atemp>14.0</ns3:atemp>
            <ns3:hr>145</ns3:hr>
          </ns3:TrackPointExtension>
        </extensions>
      </trkpt>
      <trkpt lat="-22.0091995038092136383056640625" lon="166.4573429524898529052734375">
        <ele>1084.4000244140625</ele>
        <time>2016-08-12T20:34:23.000Z</time>
        <extensions>
          <ns3:TrackPointExtension>
            <ns3:atemp>14.0</ns3:atemp>
            <ns3:hr>145</ns3:hr>
          </ns3:TrackPointExtension>
        </extensions>
      </trkpt>
      <trkpt lat="-22.009213753044605255126953125" lon="166.4573588781058788299560546875">
        <ele>1084.5999755859375</ele>
        <time>2016-08-12T20:34:24.000Z</time>
        <extensions>
          <ns3:TrackPointExtension>
            <ns3:atemp>14.0</ns3:atemp>
            <ns3:hr>145</ns3:hr>
          </ns3:TrackPointExtension>
        </extensions>
      </trkpt>
      <trkpt lat="-22.00922724790871143341064453125" lon="166.4573820121586322784423828125">
        <ele>1084.5999755859375</ele>
        <time>2016-08-12T20:34:25.000Z</time>
        <extensions>
          <ns3:TrackPointExtension>
            <ns3:atemp>14.0</ns3:atemp>
            <ns3:hr>145</ns3:hr>
          </ns3:TrackPointExtension>
        </extensions>
      </trkpt>
      <trkpt lat="-22.0092340372502803802490234375" lon="166.45740640349686145782470703125">
        <ele>1084.4000244140625</ele>
        <time>2016-08-12T20:34:26.000Z</time>
        <extensions>
          <ns3:TrackPointExtension>
            <ns3:atemp>14.0</ns3:atemp>
            <ns3:hr>145</ns3:hr>
          </ns3:TrackPointExtension>
        </extensions>
      </trkpt>
      <trkpt lat="-22.00923998840153217315673828125" lon="166.45743188448250293731689453125">
        <ele>1084.199951171875</ele>
        <time>2016-08-12T20:34:27.000Z</time>
        <extensions>
          <ns3:TrackPointExtension>
            <ns3:atemp>14.0</ns3:atemp>
            <ns3:hr>144</ns3:hr>
          </ns3:TrackPointExtension>
        </extensions>
      </trkpt>
      <trkpt lat="-22.0092544890940189361572265625" lon="166.45745887421071529388427734375">
        <ele>1084.199951171875</ele>
        <time>2016-08-12T20:34:28.000Z</time>
        <extensions>
          <ns3:TrackPointExtension>
            <ns3:atemp>14.0</ns3:atemp>
            <ns3:hr>144</ns3:hr>
          </ns3:TrackPointExtension>
        </extensions>
      </trkpt>
      <trkpt lat="-22.009262032806873321533203125" lon="166.45748251117765903472900390625">
        <ele>1084.199951171875</ele>
        <time>2016-08-12T20:34:29.000Z</time>
        <extensions>
          <ns3:TrackPointExtension>
            <ns3:atemp>14.0</ns3:atemp>
            <ns3:hr>145</ns3:hr>
          </ns3:TrackPointExtension>
        </extensions>
      </trkpt>
      <trkpt lat="-22.0092685706913471221923828125" lon="166.45750598050653934478759765625">
        <ele>1084</ele>
        <time>2016-08-12T20:34:30.000Z</time>
        <extensions>
          <ns3:TrackPointExtension>
            <ns3:atemp>14.0</ns3:atemp>
            <ns3:hr>145</ns3:hr>
          </ns3:TrackPointExtension>
        </extensions>
      </trkpt>
      <trkpt lat="-22.00927200727164745330810546875" lon="166.45753028802573680877685546875">
        <ele>1083.800048828125</ele>
        <time>2016-08-12T20:34:31.000Z</time>
        <extensions>
          <ns3:TrackPointExtension>
            <ns3:atemp>14.0</ns3:atemp>
            <ns3:hr>144</ns3:hr>
          </ns3:TrackPointExtension>
        </extensions>
      </trkpt>
      <trkpt lat="-22.009278126060962677001953125" lon="166.45755107514560222625732421875">
        <ele>1083.800048828125</ele>
        <time>2016-08-12T20:34:32.000Z</time>
        <extensions>
          <ns3:TrackPointExtension>
            <ns3:atemp>14.0</ns3:atemp>
            <ns3:hr>144</ns3:hr>
          </ns3:TrackPointExtension>
        </extensions>
      </trkpt>
      <trkpt lat="-22.00928508304059505462646484375" lon="166.45757471211254596710205078125">
        <ele>1083.800048828125</ele>
        <time>2016-08-12T20:34:33.000Z</time>
        <extensions>
          <ns3:TrackPointExtension>
            <ns3:atemp>14.0</ns3:atemp>
            <ns3:hr>144</ns3:hr>
          </ns3:TrackPointExtension>
        </extensions>
      </trkpt>
      <trkpt lat="-22.00929061509668827056884765625" lon="166.45759901963174343109130859375">
        <ele>1083.800048828125</ele>
        <time>2016-08-12T20:34:34.000Z</time>
        <extensions>
          <ns3:TrackPointExtension>
            <ns3:atemp>14.0</ns3:atemp>
            <ns3:hr>144</ns3:hr>
          </ns3:TrackPointExtension>
        </extensions>
      </trkpt>
      <trkpt lat="-22.00929396785795688629150390625" lon="166.457622237503528594970703125">
        <ele>1083.800048828125</ele>
        <time>2016-08-12T20:34:35.000Z</time>
        <extensions>
          <ns3:TrackPointExtension>
            <ns3:atemp>14.0</ns3:atemp>
            <ns3:hr>144</ns3:hr>
          </ns3:TrackPointExtension>
        </extensions>
      </trkpt>
      <trkpt lat="-22.0092960633337497711181640625" lon="166.45764595828950405120849609375">
        <ele>1083.5999755859375</ele>
        <time>2016-08-12T20:34:36.000Z</time>
        <extensions>
          <ns3:TrackPointExtension>
            <ns3:atemp>14.0</ns3:atemp>
            <ns3:hr>144</ns3:hr>
          </ns3:TrackPointExtension>
        </extensions>
      </trkpt>
      <trkpt lat="-22.00929614715278148651123046875" lon="166.4576676674187183380126953125">
        <ele>1083.5999755859375</ele>
        <time>2016-08-12T20:34:37.000Z</time>
        <extensions>
          <ns3:TrackPointExtension>
            <ns3:atemp>14.0</ns3:atemp>
            <ns3:hr>143</ns3:hr>
          </ns3:TrackPointExtension>
        </extensions>
      </trkpt>
      <trkpt lat="-22.00929044745862483978271484375" lon="166.4576931484043598175048828125">
        <ele>1083.800048828125</ele>
        <time>2016-08-12T20:34:38.000Z</time>
        <extensions>
          <ns3:TrackPointExtension>
            <ns3:atemp>14.0</ns3:atemp>
            <ns3:hr>143</ns3:hr>
          </ns3:TrackPointExtension>
        </extensions>
      </trkpt>
      <trkpt lat="-22.00928382575511932373046875" lon="166.45771971903741359710693359375">
        <ele>1083.800048828125</ele>
        <time>2016-08-12T20:34:39.000Z</time>
        <extensions>
          <ns3:TrackPointExtension>
            <ns3:atemp>14.0</ns3:atemp>
            <ns3:hr>143</ns3:hr>
          </ns3:TrackPointExtension>
        </extensions>
      </trkpt>
      <trkpt lat="-22.009281814098358154296875" lon="166.45773924887180328369140625">
        <ele>1083.5999755859375</ele>
        <time>2016-08-12T20:34:40.000Z</time>
        <extensions>
          <ns3:TrackPointExtension>
            <ns3:atemp>14.0</ns3:atemp>
            <ns3:hr>142</ns3:hr>
          </ns3:TrackPointExtension>
        </extensions>
      </trkpt>
      <trkpt lat="-22.00927351601421833038330078125" lon="166.45776347257196903228759765625">
        <ele>1083.5999755859375</ele>
        <time>2016-08-12T20:34:41.000Z</time>
        <extensions>
          <ns3:TrackPointExtension>
            <ns3:atemp>14.0</ns3:atemp>
            <ns3:hr>142</ns3:hr>
          </ns3:TrackPointExtension>
        </extensions>
      </trkpt>
      <trkpt lat="-22.00926697812974452972412109375" lon="166.45778778009116649627685546875">
        <ele>1084</ele>
        <time>2016-08-12T20:34:42.000Z</time>
        <extensions>
          <ns3:TrackPointExtension>
            <ns3:atemp>14.0</ns3:atemp>
            <ns3:hr>142</ns3:hr>
          </ns3:TrackPointExtension>
        </extensions>
      </trkpt>
      <trkpt lat="-22.009262032806873321533203125" lon="166.4578101597726345062255859375">
        <ele>1083.800048828125</ele>
        <time>2016-08-12T20:34:43.000Z</time>
        <extensions>
          <ns3:TrackPointExtension>
            <ns3:atemp>14.0</ns3:atemp>
            <ns3:hr>141</ns3:hr>
          </ns3:TrackPointExtension>
        </extensions>
      </trkpt>
      <trkpt lat="-22.0092558301985263824462890625" lon="166.4578332938253879547119140625">
        <ele>1083.5999755859375</ele>
        <time>2016-08-12T20:34:44.000Z</time>
        <extensions>
          <ns3:TrackPointExtension>
            <ns3:atemp>14.0</ns3:atemp>
            <ns3:hr>141</ns3:hr>
          </ns3:TrackPointExtension>
        </extensions>
      </trkpt>
      <trkpt lat="-22.00925323180854320526123046875" lon="166.45785332657396793365478515625">
        <ele>1083.800048828125</ele>
        <time>2016-08-12T20:34:45.000Z</time>
        <extensions>
          <ns3:TrackPointExtension>
            <ns3:atemp>14.0</ns3:atemp>
            <ns3:hr>141</ns3:hr>
          </ns3:TrackPointExtension>
        </extensions>
      </trkpt>
      <trkpt lat="-22.00924937613308429718017578125" lon="166.4578772149980068206787109375">
        <ele>1084.199951171875</ele>
        <time>2016-08-12T20:34:46.000Z</time>
        <extensions>
          <ns3:TrackPointExtension>
            <ns3:atemp>14.0</ns3:atemp>
            <ns3:hr>141</ns3:hr>
          </ns3:TrackPointExtension>
        </extensions>
      </trkpt>
      <trkpt lat="-22.0092444308102130889892578125" lon="166.4579023607075214385986328125">
        <ele>1084.199951171875</ele>
        <time>2016-08-12T20:34:47.000Z</time>
        <extensions>
          <ns3:TrackPointExtension>
            <ns3:atemp>14.0</ns3:atemp>
            <ns3:hr>141</ns3:hr>
          </ns3:TrackPointExtension>
        </extensions>
      </trkpt>
      <trkpt lat="-22.00923831202089786529541015625" lon="166.45792608149349689483642578125">
        <ele>1084</ele>
        <time>2016-08-12T20:34:48.000Z</time>
        <extensions>
          <ns3:TrackPointExtension>
            <ns3:atemp>14.0</ns3:atemp>
            <ns3:hr>140</ns3:hr>
          </ns3:TrackPointExtension>
        </extensions>
      </trkpt>
      <trkpt lat="-22.00923076830804347991943359375" lon="166.45795407705008983612060546875">
        <ele>1084</ele>
        <time>2016-08-12T20:34:49.000Z</time>
        <extensions>
          <ns3:TrackPointExtension>
            <ns3:atemp>14.0</ns3:atemp>
            <ns3:hr>140</ns3:hr>
          </ns3:TrackPointExtension>
        </extensions>
      </trkpt>
      <trkpt lat="-22.0092253200709819793701171875" lon="166.45797788165509700775146484375">
        <ele>1084.199951171875</ele>
        <time>2016-08-12T20:34:50.000Z</time>
        <extensions>
          <ns3:TrackPointExtension>
            <ns3:atemp>14.0</ns3:atemp>
            <ns3:hr>140</ns3:hr>
          </ns3:TrackPointExtension>
        </extensions>
      </trkpt>
      <trkpt lat="-22.0092206262052059173583984375" lon="166.45799942314624786376953125">
        <ele>1084</ele>
        <time>2016-08-12T20:34:51.000Z</time>
        <extensions>
          <ns3:TrackPointExtension>
            <ns3:atemp>14.0</ns3:atemp>
            <ns3:hr>139</ns3:hr>
          </ns3:TrackPointExtension>
        </extensions>
      </trkpt>
      <trkpt lat="-22.00921283103525638580322265625" lon="166.4580230601131916046142578125">
        <ele>1084</ele>
        <time>2016-08-12T20:34:52.000Z</time>
        <extensions>
          <ns3:TrackPointExtension>
            <ns3:atemp>14.0</ns3:atemp>
            <ns3:hr>139</ns3:hr>
          </ns3:TrackPointExtension>
        </extensions>
      </trkpt>
      <trkpt lat="-22.00920478440821170806884765625" lon="166.45804476924240589141845703125">
        <ele>1084.4000244140625</ele>
        <time>2016-08-12T20:34:53.000Z</time>
        <extensions>
          <ns3:TrackPointExtension>
            <ns3:atemp>14.0</ns3:atemp>
            <ns3:hr>139</ns3:hr>
          </ns3:TrackPointExtension>
        </extensions>
      </trkpt>
      <trkpt lat="-22.0091974921524524688720703125" lon="166.45806849002838134765625">
        <ele>1084.4000244140625</ele>
        <time>2016-08-12T20:34:54.000Z</time>
        <extensions>
          <ns3:TrackPointExtension>
            <ns3:atemp>14.0</ns3:atemp>
            <ns3:hr>139</ns3:hr>
          </ns3:TrackPointExtension>
        </extensions>
      </trkpt>
      <trkpt lat="-22.009192965924739837646484375" lon="166.4580931328237056732177734375">
        <ele>1084.199951171875</ele>
        <time>2016-08-12T20:34:55.000Z</time>
        <extensions>
          <ns3:TrackPointExtension>
            <ns3:atemp>14.0</ns3:atemp>
            <ns3:hr>139</ns3:hr>
          </ns3:TrackPointExtension>
        </extensions>
      </trkpt>
      <trkpt lat="-22.00919237919151782989501953125" lon="166.45811500959098339080810546875">
        <ele>1084.5999755859375</ele>
        <time>2016-08-12T20:34:56.000Z</time>
        <extensions>
          <ns3:TrackPointExtension>
            <ns3:atemp>14.0</ns3:atemp>
            <ns3:hr>139</ns3:hr>
          </ns3:TrackPointExtension>
        </extensions>
      </trkpt>
      <trkpt lat="-22.0091870985925197601318359375" lon="166.45813889801502227783203125">
        <ele>1085</ele>
        <time>2016-08-12T20:34:57.000Z</time>
        <extensions>
          <ns3:TrackPointExtension>
            <ns3:atemp>14.0</ns3:atemp>
            <ns3:hr>138</ns3:hr>
          </ns3:TrackPointExtension>
        </extensions>
      </trkpt>
      <trkpt lat="-22.00918030925095081329345703125" lon="166.45816178061068058013916015625">
        <ele>1085</ele>
        <time>2016-08-12T20:34:58.000Z</time>
        <extensions>
          <ns3:TrackPointExtension>
            <ns3:atemp>14.0</ns3:atemp>
            <ns3:hr>138</ns3:hr>
          </ns3:TrackPointExtension>
        </extensions>
      </trkpt>
      <trkpt lat="-22.00917444191873073577880859375" lon="166.45818575285375118255615234375">
        <ele>1084.800048828125</ele>
        <time>2016-08-12T20:34:59.000Z</time>
        <extensions>
          <ns3:TrackPointExtension>
            <ns3:atemp>14.0</ns3:atemp>
            <ns3:hr>138</ns3:hr>
          </ns3:TrackPointExtension>
        </extensions>
      </trkpt>
      <trkpt lat="-22.0091679878532886505126953125" lon="166.4582081325352191925048828125">
        <ele>1085</ele>
        <time>2016-08-12T20:35:00.000Z</time>
        <extensions>
          <ns3:TrackPointExtension>
            <ns3:atemp>14.0</ns3:atemp>
            <ns3:hr>138</ns3:hr>
          </ns3:TrackPointExtension>
        </extensions>
      </trkpt>
      <trkpt lat="-22.00916522182524204254150390625" lon="166.45822615362703800201416015625">
        <ele>1085</ele>
        <time>2016-08-12T20:35:01.000Z</time>
        <extensions>
          <ns3:TrackPointExtension>
            <ns3:atemp>14.0</ns3:atemp>
            <ns3:hr>138</ns3:hr>
          </ns3:TrackPointExtension>
        </extensions>
      </trkpt>
      <trkpt lat="-22.00915834866464138031005859375" lon="166.45824928767979145050048828125">
        <ele>1084.800048828125</ele>
        <time>2016-08-12T20:35:02.000Z</time>
        <extensions>
          <ns3:TrackPointExtension>
            <ns3:atemp>14.0</ns3:atemp>
            <ns3:hr>138</ns3:hr>
          </ns3:TrackPointExtension>
        </extensions>
      </trkpt>
      <trkpt lat="-22.00914971530437469482421875" lon="166.45827166736125946044921875">
        <ele>1085.199951171875</ele>
        <time>2016-08-12T20:35:03.000Z</time>
        <extensions>
          <ns3:TrackPointExtension>
            <ns3:atemp>14.0</ns3:atemp>
            <ns3:hr>138</ns3:hr>
          </ns3:TrackPointExtension>
        </extensions>
      </trkpt>
      <trkpt lat="-22.00914393179118633270263671875" lon="166.45829471759498119354248046875">
        <ele>1085.5999755859375</ele>
        <time>2016-08-12T20:35:04.000Z</time>
        <extensions>
          <ns3:TrackPointExtension>
            <ns3:atemp>14.0</ns3:atemp>
            <ns3:hr>137</ns3:hr>
          </ns3:TrackPointExtension>
        </extensions>
      </trkpt>
      <trkpt lat="-22.00913772918283939361572265625" lon="166.45831667818129062652587890625">
        <ele>1085.5999755859375</ele>
        <time>2016-08-12T20:35:05.000Z</time>
        <extensions>
          <ns3:TrackPointExtension>
            <ns3:atemp>14.0</ns3:atemp>
            <ns3:hr>137</ns3:hr>
          </ns3:TrackPointExtension>
        </extensions>
      </trkpt>
      <trkpt lat="-22.00912968255579471588134765625" lon="166.458335034549236297607421875">
        <ele>1085.5999755859375</ele>
        <time>2016-08-12T20:35:06.000Z</time>
        <extensions>
          <ns3:TrackPointExtension>
            <ns3:atemp>14.0</ns3:atemp>
            <ns3:hr>137</ns3:hr>
          </ns3:TrackPointExtension>
        </extensions>
      </trkpt>
      <trkpt lat="-22.00912096537649631500244140625" lon="166.4583533070981502532958984375">
        <ele>1085.800048828125</ele>
        <time>2016-08-12T20:35:07.000Z</time>
        <extensions>
          <ns3:TrackPointExtension>
            <ns3:atemp>14.0</ns3:atemp>
            <ns3:hr>138</ns3:hr>
          </ns3:TrackPointExtension>
        </extensions>
      </trkpt>
      <trkpt lat="-22.00910990126430988311767578125" lon="166.45837484858930110931396484375">
        <ele>1086</ele>
        <time>2016-08-12T20:35:08.000Z</time>
        <extensions>
          <ns3:TrackPointExtension>
            <ns3:atemp>14.0</ns3:atemp>
            <ns3:hr>137</ns3:hr>
          </ns3:TrackPointExtension>
        </extensions>
      </trkpt>
      <trkpt lat="-22.0091062970459461212158203125" lon="166.458392031490802764892578125">
        <ele>1085.800048828125</ele>
        <time>2016-08-12T20:35:09.000Z</time>
        <extensions>
          <ns3:TrackPointExtension>
            <ns3:atemp>14.0</ns3:atemp>
            <ns3:hr>137</ns3:hr>
          </ns3:TrackPointExtension>
        </extensions>
      </trkpt>
      <trkpt lat="-22.00909741222858428955078125" lon="166.45841273479163646697998046875">
        <ele>1085.800048828125</ele>
        <time>2016-08-12T20:35:10.000Z</time>
        <extensions>
          <ns3:TrackPointExtension>
            <ns3:atemp>14.0</ns3:atemp>
            <ns3:hr>137</ns3:hr>
          </ns3:TrackPointExtension>
        </extensions>
      </trkpt>
      <trkpt lat="-22.00908559374511241912841796875" lon="166.4584337733685970306396484375">
        <ele>1086.199951171875</ele>
        <time>2016-08-12T20:35:11.000Z</time>
        <extensions>
          <ns3:TrackPointExtension>
            <ns3:atemp>14.0</ns3:atemp>
            <ns3:hr>137</ns3:hr>
          </ns3:TrackPointExtension>
        </extensions>
      </trkpt>
      <trkpt lat="-22.00907888822257518768310546875" lon="166.458451040089130401611328125">
        <ele>1086.4000244140625</ele>
        <time>2016-08-12T20:35:12.000Z</time>
        <extensions>
          <ns3:TrackPointExtension>
            <ns3:atemp>14.0</ns3:atemp>
            <ns3:hr>137</ns3:hr>
          </ns3:TrackPointExtension>
        </extensions>
      </trkpt>
      <trkpt lat="-22.00907201506197452545166015625" lon="166.45846520550549030303955078125">
        <ele>1086.5999755859375</ele>
        <time>2016-08-12T20:35:13.000Z</time>
        <extensions>
          <ns3:TrackPointExtension>
            <ns3:atemp>14.0</ns3:atemp>
            <ns3:hr>137</ns3:hr>
          </ns3:TrackPointExtension>
        </extensions>
      </trkpt>
      <trkpt lat="-22.00906388461589813232421875" lon="166.4584810473024845123291015625">
        <ele>1087</ele>
        <time>2016-08-12T20:35:14.000Z</time>
        <extensions>
          <ns3:TrackPointExtension>
            <ns3:atemp>14.0</ns3:atemp>
            <ns3:hr>137</ns3:hr>
          </ns3:TrackPointExtension>
        </extensions>
      </trkpt>
      <trkpt lat="-22.00905592180788516998291015625" lon="166.4584954641759395599365234375">
        <ele>1087.199951171875</ele>
        <time>2016-08-12T20:35:15.000Z</time>
        <extensions>
          <ns3:TrackPointExtension>
            <ns3:atemp>14.0</ns3:atemp>
            <ns3:hr>136</ns3:hr>
          </ns3:TrackPointExtension>
        </extensions>
      </trkpt>
      <trkpt lat="-22.0090436004102230072021484375" lon="166.4585061930119991302490234375">
        <ele>1087.4000244140625</ele>
        <time>2016-08-12T20:35:16.000Z</time>
        <extensions>
          <ns3:TrackPointExtension>
            <ns3:atemp>14.0</ns3:atemp>
            <ns3:hr>136</ns3:hr>
          </ns3:TrackPointExtension>
        </extensions>
      </trkpt>
      <trkpt lat="-22.0090337097644805908203125" lon="166.45851910114288330078125">
        <ele>1087.800048828125</ele>
        <time>2016-08-12T20:35:17.000Z</time>
        <extensions>
          <ns3:TrackPointExtension>
            <ns3:atemp>14.0</ns3:atemp>
            <ns3:hr>136</ns3:hr>
          </ns3:TrackPointExtension>
        </extensions>
      </trkpt>
      <trkpt lat="-22.00902708806097507476806640625" lon="166.45852874033153057098388671875">
        <ele>1088</ele>
        <time>2016-08-12T20:35:18.000Z</time>
        <extensions>
          <ns3:TrackPointExtension>
            <ns3:atemp>14.0</ns3:atemp>
            <ns3:hr>136</ns3:hr>
          </ns3:TrackPointExtension>
        </extensions>
      </trkpt>
      <trkpt lat="-22.00902457349002361297607421875" lon="166.45853645168244838714599609375">
        <ele>1088.199951171875</ele>
        <time>2016-08-12T20:35:19.000Z</time>
        <extensions>
          <ns3:TrackPointExtension>
            <ns3:atemp>14.0</ns3:atemp>
            <ns3:hr>136</ns3:hr>
          </ns3:TrackPointExtension>
        </extensions>
      </trkpt>
      <trkpt lat="-22.009020633995532989501953125" lon="166.45854500122368335723876953125">
        <ele>1088.5999755859375</ele>
        <time>2016-08-12T20:35:20.000Z</time>
        <extensions>
          <ns3:TrackPointExtension>
            <ns3:atemp>14.0</ns3:atemp>
            <ns3:hr>136</ns3:hr>
          </ns3:TrackPointExtension>
        </extensions>
      </trkpt>
      <trkpt lat="-22.0090162754058837890625" lon="166.458553634583950042724609375">
        <ele>1088.5999755859375</ele>
        <time>2016-08-12T20:35:21.000Z</time>
        <extensions>
          <ns3:TrackPointExtension>
            <ns3:atemp>14.0</ns3:atemp>
            <ns3:hr>136</ns3:hr>
          </ns3:TrackPointExtension>
        </extensions>
      </trkpt>
      <trkpt lat="-22.009011916816234588623046875" lon="166.45856344141066074371337890625">
        <ele>1088.800048828125</ele>
        <time>2016-08-12T20:35:22.000Z</time>
        <extensions>
          <ns3:TrackPointExtension>
            <ns3:atemp>14.0</ns3:atemp>
            <ns3:hr>136</ns3:hr>
          </ns3:TrackPointExtension>
        </extensions>
      </trkpt>
      <trkpt lat="-22.0090063847601413726806640625" lon="166.458576433360576629638671875">
        <ele>1089</ele>
        <time>2016-08-12T20:35:23.000Z</time>
        <extensions>
          <ns3:TrackPointExtension>
            <ns3:atemp>14.0</ns3:atemp>
            <ns3:hr>136</ns3:hr>
          </ns3:TrackPointExtension>
        </extensions>
      </trkpt>
      <trkpt lat="-22.0090033672749996185302734375" lon="166.45858355797827243804931640625">
        <ele>1089.199951171875</ele>
        <time>2016-08-12T20:35:24.000Z</time>
        <extensions>
          <ns3:TrackPointExtension>
            <ns3:atemp>14.0</ns3:atemp>
            <ns3:hr>137</ns3:hr>
          </ns3:TrackPointExtension>
        </extensions>
      </trkpt>
      <trkpt lat="-22.008999846875667572021484375" lon="166.4585906825959682464599609375">
        <ele>1089.4000244140625</ele>
        <time>2016-08-12T20:35:25.000Z</time>
        <extensions>
          <ns3:TrackPointExtension>
            <ns3:atemp>14.0</ns3:atemp>
            <ns3:hr>137</ns3:hr>
          </ns3:TrackPointExtension>
        </extensions>
      </trkpt>
      <trkpt lat="-22.00899741612374782562255859375" lon="166.45859914831817150115966796875">
        <ele>1089.5999755859375</ele>
        <time>2016-08-12T20:35:26.000Z</time>
        <extensions>
          <ns3:TrackPointExtension>
            <ns3:atemp>14.0</ns3:atemp>
            <ns3:hr>137</ns3:hr>
          </ns3:TrackPointExtension>
        </extensions>
      </trkpt>
      <trkpt lat="-22.00899892486631870269775390625" lon="166.45860903896391391754150390625">
        <ele>1089.800048828125</ele>
        <time>2016-08-12T20:35:27.000Z</time>
        <extensions>
          <ns3:TrackPointExtension>
            <ns3:atemp>14.0</ns3:atemp>
            <ns3:hr>137</ns3:hr>
          </ns3:TrackPointExtension>
        </extensions>
      </trkpt>
      <trkpt lat="-22.0089923031628131866455078125" lon="166.45861943252384662628173828125">
        <ele>1090</ele>
        <time>2016-08-12T20:35:28.000Z</time>
        <extensions>
          <ns3:TrackPointExtension>
            <ns3:atemp>14.0</ns3:atemp>
            <ns3:hr>137</ns3:hr>
          </ns3:TrackPointExtension>
        </extensions>
      </trkpt>
      <trkpt lat="-22.00898618437349796295166015625" lon="166.45863066427409648895263671875">
        <ele>1090.199951171875</ele>
        <time>2016-08-12T20:35:29.000Z</time>
        <extensions>
          <ns3:TrackPointExtension>
            <ns3:atemp>14.0</ns3:atemp>
            <ns3:hr>137</ns3:hr>
          </ns3:TrackPointExtension>
        </extensions>
      </trkpt>
      <trkpt lat="-22.008980400860309600830078125" lon="166.45864340476691722869873046875">
        <ele>1090.199951171875</ele>
        <time>2016-08-12T20:35:30.000Z</time>
        <extensions>
          <ns3:TrackPointExtension>
            <ns3:atemp>14.0</ns3:atemp>
            <ns3:hr>137</ns3:hr>
          </ns3:TrackPointExtension>
        </extensions>
      </trkpt>
      <trkpt lat="-22.00897461734712123870849609375" lon="166.4586560614407062530517578125">
        <ele>1090.5999755859375</ele>
        <time>2016-08-12T20:35:31.000Z</time>
        <extensions>
          <ns3:TrackPointExtension>
            <ns3:atemp>14.0</ns3:atemp>
            <ns3:hr>137</ns3:hr>
          </ns3:TrackPointExtension>
        </extensions>
      </trkpt>
      <trkpt lat="-22.00897092930972576141357421875" lon="166.45866955630481243133544921875">
        <ele>1090.800048828125</ele>
        <time>2016-08-12T20:35:32.000Z</time>
        <extensions>
          <ns3:TrackPointExtension>
            <ns3:atemp>14.0</ns3:atemp>
            <ns3:hr>138</ns3:hr>
          </ns3:TrackPointExtension>
        </extensions>
      </trkpt>
      <trkpt lat="-22.00896908529102802276611328125" lon="166.4586808718740940093994140625">
        <ele>1091</ele>
        <time>2016-08-12T20:35:33.000Z</time>
        <extensions>
          <ns3:TrackPointExtension>
            <ns3:atemp>14.0</ns3:atemp>
            <ns3:hr>138</ns3:hr>
          </ns3:TrackPointExtension>
        </extensions>
      </trkpt>
      <trkpt lat="-22.00896807946264743804931640625" lon="166.4586936123669147491455078125">
        <ele>1091</ele>
        <time>2016-08-12T20:35:34.000Z</time>
        <extensions>
          <ns3:TrackPointExtension>
            <ns3:atemp>14.0</ns3:atemp>
            <ns3:hr>138</ns3:hr>
          </ns3:TrackPointExtension>
        </extensions>
      </trkpt>
      <trkpt lat="-22.00896522961556911468505859375" lon="166.45870593376457691192626953125">
        <ele>1091.4000244140625</ele>
        <time>2016-08-12T20:35:35.000Z</time>
        <extensions>
          <ns3:TrackPointExtension>
            <ns3:atemp>14.0</ns3:atemp>
            <ns3:hr>138</ns3:hr>
          </ns3:TrackPointExtension>
        </extensions>
      </trkpt>
      <trkpt lat="-22.0089624635875225067138671875" lon="166.4587177522480487823486328125">
        <ele>1091.5999755859375</ele>
        <time>2016-08-12T20:35:36.000Z</time>
        <extensions>
          <ns3:TrackPointExtension>
            <ns3:atemp>14.0</ns3:atemp>
            <ns3:hr>139</ns3:hr>
          </ns3:TrackPointExtension>
        </extensions>
      </trkpt>
      <trkpt lat="-22.008959613740444183349609375" lon="166.45872940309345722198486328125">
        <ele>1091.5999755859375</ele>
        <time>2016-08-12T20:35:37.000Z</time>
        <extensions>
          <ns3:TrackPointExtension>
            <ns3:atemp>14.0</ns3:atemp>
            <ns3:hr>139</ns3:hr>
          </ns3:TrackPointExtension>
        </extensions>
      </trkpt>
      <trkpt lat="-22.00895952992141246795654296875" lon="166.4587506093084812164306640625">
        <ele>1091.800048828125</ele>
        <time>2016-08-12T20:35:38.000Z</time>
        <extensions>
          <ns3:TrackPointExtension>
            <ns3:atemp>14.0</ns3:atemp>
            <ns3:hr>139</ns3:hr>
          </ns3:TrackPointExtension>
        </extensions>
      </trkpt>
      <trkpt lat="-22.00895785354077816009521484375" lon="166.45876762457191944122314453125">
        <ele>1092</ele>
        <time>2016-08-12T20:35:39.000Z</time>
        <extensions>
          <ns3:TrackPointExtension>
            <ns3:atemp>14.0</ns3:atemp>
            <ns3:hr>139</ns3:hr>
          </ns3:TrackPointExtension>
        </extensions>
      </trkpt>
      <trkpt lat="-22.0089532434940338134765625" lon="166.4587827958166599273681640625">
        <ele>1092.199951171875</ele>
        <time>2016-08-12T20:35:40.000Z</time>
        <extensions>
          <ns3:TrackPointExtension>
            <ns3:atemp>14.0</ns3:atemp>
            <ns3:hr>139</ns3:hr>
          </ns3:TrackPointExtension>
        </extensions>
      </trkpt>
      <trkpt lat="-22.0089490525424480438232421875" lon="166.45880249328911304473876953125">
        <ele>1092.4000244140625</ele>
        <time>2016-08-12T20:35:41.000Z</time>
        <extensions>
          <ns3:TrackPointExtension>
            <ns3:atemp>14.0</ns3:atemp>
            <ns3:hr>140</ns3:hr>
          </ns3:TrackPointExtension>
        </extensions>
      </trkpt>
      <trkpt lat="-22.008943855762481689453125" lon="166.45882017910480499267578125">
        <ele>1092.5999755859375</ele>
        <time>2016-08-12T20:35:42.000Z</time>
        <extensions>
          <ns3:TrackPointExtension>
            <ns3:atemp>14.0</ns3:atemp>
            <ns3:hr>140</ns3:hr>
          </ns3:TrackPointExtension>
        </extensions>
      </trkpt>
      <trkpt lat="-22.0089386589825153350830078125" lon="166.45883853547275066375732421875">
        <ele>1092.800048828125</ele>
        <time>2016-08-12T20:35:43.000Z</time>
        <extensions>
          <ns3:TrackPointExtension>
            <ns3:atemp>14.0</ns3:atemp>
            <ns3:hr>140</ns3:hr>
          </ns3:TrackPointExtension>
        </extensions>
      </trkpt>
      <trkpt lat="-22.00893907807767391204833984375" lon="166.458859741687774658203125">
        <ele>1093</ele>
        <time>2016-08-12T20:35:44.000Z</time>
        <extensions>
          <ns3:TrackPointExtension>
            <ns3:atemp>14.0</ns3:atemp>
            <ns3:hr>140</ns3:hr>
          </ns3:TrackPointExtension>
        </extensions>
      </trkpt>
      <trkpt lat="-22.00893874280154705047607421875" lon="166.45887893624603748321533203125">
        <ele>1093</ele>
        <time>2016-08-12T20:35:45.000Z</time>
        <extensions>
          <ns3:TrackPointExtension>
            <ns3:atemp>14.0</ns3:atemp>
            <ns3:hr>140</ns3:hr>
          </ns3:TrackPointExtension>
        </extensions>
      </trkpt>
      <trkpt lat="-22.00893740169703960418701171875" lon="166.45889536477625370025634765625">
        <ele>1093.4000244140625</ele>
        <time>2016-08-12T20:35:46.000Z</time>
        <extensions>
          <ns3:TrackPointExtension>
            <ns3:atemp>14.0</ns3:atemp>
            <ns3:hr>141</ns3:hr>
          </ns3:TrackPointExtension>
        </extensions>
      </trkpt>
      <trkpt lat="-22.00893455184996128082275390625" lon="166.458916403353214263916015625">
        <ele>1093.5999755859375</ele>
        <time>2016-08-12T20:35:47.000Z</time>
        <extensions>
          <ns3:TrackPointExtension>
            <ns3:atemp>14.0</ns3:atemp>
            <ns3:hr>141</ns3:hr>
          </ns3:TrackPointExtension>
        </extensions>
      </trkpt>
      <trkpt lat="-22.00892935506999492645263671875" lon="166.4589373581111431121826171875">
        <ele>1094</ele>
        <time>2016-08-12T20:35:48.000Z</time>
        <extensions>
          <ns3:TrackPointExtension>
            <ns3:atemp>14.0</ns3:atemp>
            <ns3:hr>141</ns3:hr>
          </ns3:TrackPointExtension>
        </extensions>
      </trkpt>
      <trkpt lat="-22.008922733366489410400390625" lon="166.45895755849778652191162109375">
        <ele>1094.199951171875</ele>
        <time>2016-08-12T20:35:49.000Z</time>
        <extensions>
          <ns3:TrackPointExtension>
            <ns3:atemp>14.0</ns3:atemp>
            <ns3:hr>142</ns3:hr>
          </ns3:TrackPointExtension>
        </extensions>
      </trkpt>
      <trkpt lat="-22.00891594402492046356201171875" lon="166.4589782617986202239990234375">
        <ele>1094.199951171875</ele>
        <time>2016-08-12T20:35:50.000Z</time>
        <extensions>
          <ns3:TrackPointExtension>
            <ns3:atemp>14.0</ns3:atemp>
            <ns3:hr>142</ns3:hr>
          </ns3:TrackPointExtension>
        </extensions>
      </trkpt>
      <trkpt lat="-22.00891057960689067840576171875" lon="166.4590007252991199493408203125">
        <ele>1094.5999755859375</ele>
        <time>2016-08-12T20:35:51.000Z</time>
        <extensions>
          <ns3:TrackPointExtension>
            <ns3:atemp>14.0</ns3:atemp>
            <ns3:hr>142</ns3:hr>
          </ns3:TrackPointExtension>
        </extensions>
      </trkpt>
      <trkpt lat="-22.00890420936048030853271484375" lon="166.4590228535234928131103515625">
        <ele>1094.800048828125</ele>
        <time>2016-08-12T20:35:52.000Z</time>
        <extensions>
          <ns3:TrackPointExtension>
            <ns3:atemp>14.0</ns3:atemp>
            <ns3:hr>142</ns3:hr>
          </ns3:TrackPointExtension>
        </extensions>
      </trkpt>
      <trkpt lat="-22.0088987611234188079833984375" lon="166.45904456265270709991455078125">
        <ele>1095</ele>
        <time>2016-08-12T20:35:53.000Z</time>
        <extensions>
          <ns3:TrackPointExtension>
            <ns3:atemp>14.0</ns3:atemp>
            <ns3:hr>143</ns3:hr>
          </ns3:TrackPointExtension>
        </extensions>
      </trkpt>
      <trkpt lat="-22.00889758765697479248046875" lon="166.45906635560095310211181640625">
        <ele>1095.199951171875</ele>
        <time>2016-08-12T20:35:54.000Z</time>
        <extensions>
          <ns3:TrackPointExtension>
            <ns3:atemp>14.0</ns3:atemp>
            <ns3:hr>142</ns3:hr>
          </ns3:TrackPointExtension>
        </extensions>
      </trkpt>
      <trkpt lat="-22.0088964141905307769775390625" lon="166.4590872265398502349853515625">
        <ele>1095</ele>
        <time>2016-08-12T20:35:55.000Z</time>
        <extensions>
          <ns3:TrackPointExtension>
            <ns3:atemp>14.0</ns3:atemp>
            <ns3:hr>143</ns3:hr>
          </ns3:TrackPointExtension>
        </extensions>
      </trkpt>
      <trkpt lat="-22.008891887962818145751953125" lon="166.459111869335174560546875">
        <ele>1095</ele>
        <time>2016-08-12T20:35:56.000Z</time>
        <extensions>
          <ns3:TrackPointExtension>
            <ns3:atemp>14.0</ns3:atemp>
            <ns3:hr>143</ns3:hr>
          </ns3:TrackPointExtension>
        </extensions>
      </trkpt>
      <trkpt lat="-22.00888727791607379913330078125" lon="166.4591345004737377166748046875">
        <ele>1095.199951171875</ele>
        <time>2016-08-12T20:35:57.000Z</time>
        <extensions>
          <ns3:TrackPointExtension>
            <ns3:atemp>14.0</ns3:atemp>
            <ns3:hr>143</ns3:hr>
          </ns3:TrackPointExtension>
        </extensions>
      </trkpt>
      <trkpt lat="-22.00888711027801036834716796875" lon="166.45915151573717594146728515625">
        <ele>1095.4000244140625</ele>
        <time>2016-08-12T20:35:58.000Z</time>
        <extensions>
          <ns3:TrackPointExtension>
            <ns3:atemp>14.0</ns3:atemp>
            <ns3:hr>143</ns3:hr>
          </ns3:TrackPointExtension>
        </extensions>
      </trkpt>
      <trkpt lat="-22.008886523544788360595703125" lon="166.4591743983328342437744140625">
        <ele>1095.4000244140625</ele>
        <time>2016-08-12T20:35:59.000Z</time>
        <extensions>
          <ns3:TrackPointExtension>
            <ns3:atemp>14.0</ns3:atemp>
            <ns3:hr>143</ns3:hr>
          </ns3:TrackPointExtension>
        </extensions>
      </trkpt>
      <trkpt lat="-22.0088866911828517913818359375" lon="166.45919627510011196136474609375">
        <ele>1095.800048828125</ele>
        <time>2016-08-12T20:36:00.000Z</time>
        <extensions>
          <ns3:TrackPointExtension>
            <ns3:atemp>14.0</ns3:atemp>
            <ns3:hr>143</ns3:hr>
          </ns3:TrackPointExtension>
        </extensions>
      </trkpt>
      <trkpt lat="-22.00888526625931262969970703125" lon="166.4592213369905948638916015625">
        <ele>1096</ele>
        <time>2016-08-12T20:36:01.000Z</time>
        <extensions>
          <ns3:TrackPointExtension>
            <ns3:atemp>14.0</ns3:atemp>
            <ns3:hr>143</ns3:hr>
          </ns3:TrackPointExtension>
        </extensions>
      </trkpt>
      <trkpt lat="-22.00888241641223430633544921875" lon="166.45924338139593601226806640625">
        <ele>1096</ele>
        <time>2016-08-12T20:36:02.000Z</time>
        <extensions>
          <ns3:TrackPointExtension>
            <ns3:atemp>14.0</ns3:atemp>
            <ns3:hr>143</ns3:hr>
          </ns3:TrackPointExtension>
        </extensions>
      </trkpt>
      <trkpt lat="-22.00888107530772686004638671875" lon="166.45926282741129398345947265625">
        <ele>1096.199951171875</ele>
        <time>2016-08-12T20:36:03.000Z</time>
        <extensions>
          <ns3:TrackPointExtension>
            <ns3:atemp>14.0</ns3:atemp>
            <ns3:hr>143</ns3:hr>
          </ns3:TrackPointExtension>
        </extensions>
      </trkpt>
      <trkpt lat="-22.00887956656515598297119140625" lon="166.4592927508056163787841796875">
        <ele>1096.4000244140625</ele>
        <time>2016-08-12T20:36:04.000Z</time>
        <extensions>
          <ns3:TrackPointExtension>
            <ns3:atemp>14.0</ns3:atemp>
            <ns3:hr>143</ns3:hr>
          </ns3:TrackPointExtension>
        </extensions>
      </trkpt>
      <trkpt lat="-22.0088806562125682830810546875" lon="166.4593225903809070587158203125">
        <ele>1096.199951171875</ele>
        <time>2016-08-12T20:36:05.000Z</time>
        <extensions>
          <ns3:TrackPointExtension>
            <ns3:atemp>14.0</ns3:atemp>
            <ns3:hr>144</ns3:hr>
          </ns3:TrackPointExtension>
        </extensions>
      </trkpt>
      <trkpt lat="-22.008883170783519744873046875" lon="166.45934547297656536102294921875">
        <ele>1096.4000244140625</ele>
        <time>2016-08-12T20:36:06.000Z</time>
        <extensions>
          <ns3:TrackPointExtension>
            <ns3:atemp>14.0</ns3:atemp>
            <ns3:hr>144</ns3:hr>
          </ns3:TrackPointExtension>
        </extensions>
      </trkpt>
      <trkpt lat="-22.00888627208769321441650390625" lon="166.45936693064868450164794921875">
        <ele>1096.5999755859375</ele>
        <time>2016-08-12T20:36:07.000Z</time>
        <extensions>
          <ns3:TrackPointExtension>
            <ns3:atemp>14.0</ns3:atemp>
            <ns3:hr>143</ns3:hr>
          </ns3:TrackPointExtension>
        </extensions>
      </trkpt>
      <trkpt lat="-22.0088915526866912841796875" lon="166.45939190872013568878173828125">
        <ele>1096.4000244140625</ele>
        <time>2016-08-12T20:36:08.000Z</time>
        <extensions>
          <ns3:TrackPointExtension>
            <ns3:atemp>14.0</ns3:atemp>
            <ns3:hr>143</ns3:hr>
          </ns3:TrackPointExtension>
        </extensions>
      </trkpt>
      <trkpt lat="-22.0088970847427845001220703125" lon="166.45941303111612796783447265625">
        <ele>1096.5999755859375</ele>
        <time>2016-08-12T20:36:09.000Z</time>
        <extensions>
          <ns3:TrackPointExtension>
            <ns3:atemp>14.0</ns3:atemp>
            <ns3:hr>143</ns3:hr>
          </ns3:TrackPointExtension>
        </extensions>
      </trkpt>
      <trkpt lat="-22.00890186242759227752685546875" lon="166.45943918265402317047119140625">
        <ele>1097</ele>
        <time>2016-08-12T20:36:10.000Z</time>
        <extensions>
          <ns3:TrackPointExtension>
            <ns3:atemp>14.0</ns3:atemp>
            <ns3:hr>143</ns3:hr>
          </ns3:TrackPointExtension>
        </extensions>
      </trkpt>
      <trkpt lat="-22.00890622101724147796630859375" lon="166.4594650827348232269287109375">
        <ele>1096.800048828125</ele>
        <time>2016-08-12T20:36:11.000Z</time>
        <extensions>
          <ns3:TrackPointExtension>
            <ns3:atemp>14.0</ns3:atemp>
            <ns3:hr>143</ns3:hr>
          </ns3:TrackPointExtension>
        </extensions>
      </trkpt>
      <trkpt lat="-22.00891141779720783233642578125" lon="166.459487378597259521484375">
        <ele>1096.5999755859375</ele>
        <time>2016-08-12T20:36:12.000Z</time>
        <extensions>
          <ns3:TrackPointExtension>
            <ns3:atemp>14.0</ns3:atemp>
            <ns3:hr>143</ns3:hr>
          </ns3:TrackPointExtension>
        </extensions>
      </trkpt>
      <trkpt lat="-22.00891636312007904052734375" lon="166.4595153741538524627685546875">
        <ele>1097</ele>
        <time>2016-08-12T20:36:13.000Z</time>
        <extensions>
          <ns3:TrackPointExtension>
            <ns3:atemp>14.0</ns3:atemp>
            <ns3:hr>143</ns3:hr>
          </ns3:TrackPointExtension>
        </extensions>
      </trkpt>
      <trkpt lat="-22.00892583467066287994384765625" lon="166.459533981978893280029296875">
        <ele>1097</ele>
        <time>2016-08-12T20:36:14.000Z</time>
        <extensions>
          <ns3:TrackPointExtension>
            <ns3:atemp>14.0</ns3:atemp>
            <ns3:hr>143</ns3:hr>
          </ns3:TrackPointExtension>
        </extensions>
      </trkpt>
      <trkpt lat="-22.00893036089837551116943359375" lon="166.45955150015652179718017578125">
        <ele>1097</ele>
        <time>2016-08-12T20:36:15.000Z</time>
        <extensions>
          <ns3:TrackPointExtension>
            <ns3:atemp>14.0</ns3:atemp>
            <ns3:hr>143</ns3:hr>
          </ns3:TrackPointExtension>
        </extensions>
      </trkpt>
      <trkpt lat="-22.008932791650295257568359375" lon="166.459568850696086883544921875">
        <ele>1097</ele>
        <time>2016-08-12T20:36:16.000Z</time>
        <extensions>
          <ns3:TrackPointExtension>
            <ns3:atemp>14.0</ns3:atemp>
            <ns3:hr>142</ns3:hr>
          </ns3:TrackPointExtension>
        </extensions>
      </trkpt>
      <trkpt lat="-22.0089366473257541656494140625" lon="166.4595837704837322235107421875">
        <ele>1096.800048828125</ele>
        <time>2016-08-12T20:36:17.000Z</time>
        <extensions>
          <ns3:TrackPointExtension>
            <ns3:atemp>14.0</ns3:atemp>
            <ns3:hr>142</ns3:hr>
          </ns3:TrackPointExtension>
        </extensions>
      </trkpt>
      <trkpt lat="-22.008942179381847381591796875" lon="166.45959961228072643280029296875">
        <ele>1096.5999755859375</ele>
        <time>2016-08-12T20:36:18.000Z</time>
        <extensions>
          <ns3:TrackPointExtension>
            <ns3:atemp>14.0</ns3:atemp>
            <ns3:hr>142</ns3:hr>
          </ns3:TrackPointExtension>
        </extensions>
      </trkpt>
      <trkpt lat="-22.00894896872341632843017578125" lon="166.45961637608706951141357421875">
        <ele>1096.5999755859375</ele>
        <time>2016-08-12T20:36:19.000Z</time>
        <extensions>
          <ns3:TrackPointExtension>
            <ns3:atemp>14.0</ns3:atemp>
            <ns3:hr>142</ns3:hr>
          </ns3:TrackPointExtension>
        </extensions>
      </trkpt>
      <trkpt lat="-22.008957602083683013916015625" lon="166.45963481627404689788818359375">
        <ele>1096.800048828125</ele>
        <time>2016-08-12T20:36:20.000Z</time>
        <extensions>
          <ns3:TrackPointExtension>
            <ns3:atemp>14.0</ns3:atemp>
            <ns3:hr>141</ns3:hr>
          </ns3:TrackPointExtension>
        </extensions>
      </trkpt>
      <trkpt lat="-22.00896271504461765289306640625" lon="166.45965627394616603851318359375">
        <ele>1097.199951171875</ele>
        <time>2016-08-12T20:36:21.000Z</time>
        <extensions>
          <ns3:TrackPointExtension>
            <ns3:atemp>14.0</ns3:atemp>
            <ns3:hr>141</ns3:hr>
          </ns3:TrackPointExtension>
        </extensions>
      </trkpt>
      <trkpt lat="-22.00896942056715488433837890625" lon="166.45967739634215831756591796875">
        <ele>1097.199951171875</ele>
        <time>2016-08-12T20:36:22.000Z</time>
        <extensions>
          <ns3:TrackPointExtension>
            <ns3:atemp>14.0</ns3:atemp>
            <ns3:hr>141</ns3:hr>
          </ns3:TrackPointExtension>
        </extensions>
      </trkpt>
      <trkpt lat="-22.00897495262324810028076171875" lon="166.459700949490070343017578125">
        <ele>1097</ele>
        <time>2016-08-12T20:36:23.000Z</time>
        <extensions>
          <ns3:TrackPointExtension>
            <ns3:atemp>14.0</ns3:atemp>
            <ns3:hr>140</ns3:hr>
          </ns3:TrackPointExtension>
        </extensions>
      </trkpt>
      <trkpt lat="-22.00897629372775554656982421875" lon="166.45972399972379207611083984375">
        <ele>1097.4000244140625</ele>
        <time>2016-08-12T20:36:24.000Z</time>
        <extensions>
          <ns3:TrackPointExtension>
            <ns3:atemp>14.0</ns3:atemp>
            <ns3:hr>141</ns3:hr>
          </ns3:TrackPointExtension>
        </extensions>
      </trkpt>
      <trkpt lat="-22.0089809037744998931884765625" lon="166.4597460441291332244873046875">
        <ele>1097.5999755859375</ele>
        <time>2016-08-12T20:36:25.000Z</time>
        <extensions>
          <ns3:TrackPointExtension>
            <ns3:atemp>14.0</ns3:atemp>
            <ns3:hr>141</ns3:hr>
          </ns3:TrackPointExtension>
        </extensions>
      </trkpt>
      <trkpt lat="-22.00898744165897369384765625" lon="166.45976993255317211151123046875">
        <ele>1097.5999755859375</ele>
        <time>2016-08-12T20:36:26.000Z</time>
        <extensions>
          <ns3:TrackPointExtension>
            <ns3:atemp>14.0</ns3:atemp>
            <ns3:hr>141</ns3:hr>
          </ns3:TrackPointExtension>
        </extensions>
      </trkpt>
      <trkpt lat="-22.0089959912002086639404296875" lon="166.45978837274014949798583984375">
        <ele>1097.4000244140625</ele>
        <time>2016-08-12T20:36:27.000Z</time>
        <extensions>
          <ns3:TrackPointExtension>
            <ns3:atemp>14.0</ns3:atemp>
            <ns3:hr>141</ns3:hr>
          </ns3:TrackPointExtension>
        </extensions>
      </trkpt>
      <trkpt lat="-22.009003199636936187744140625" lon="166.4598079025745391845703125">
        <ele>1097.5999755859375</ele>
        <time>2016-08-12T20:36:28.000Z</time>
        <extensions>
          <ns3:TrackPointExtension>
            <ns3:atemp>14.0</ns3:atemp>
            <ns3:hr>141</ns3:hr>
          </ns3:TrackPointExtension>
        </extensions>
      </trkpt>
      <trkpt lat="-22.00900780968368053436279296875" lon="166.45983279682695865631103515625">
        <ele>1097.5999755859375</ele>
        <time>2016-08-12T20:36:29.000Z</time>
        <extensions>
          <ns3:TrackPointExtension>
            <ns3:atemp>14.0</ns3:atemp>
            <ns3:hr>141</ns3:hr>
          </ns3:TrackPointExtension>
        </extensions>
      </trkpt>
      <trkpt lat="-22.009015269577503204345703125" lon="166.45985274575650691986083984375">
        <ele>1097.5999755859375</ele>
        <time>2016-08-12T20:36:30.000Z</time>
        <extensions>
          <ns3:TrackPointExtension>
            <ns3:atemp>14.0</ns3:atemp>
            <ns3:hr>141</ns3:hr>
          </ns3:TrackPointExtension>
        </extensions>
      </trkpt>
      <trkpt lat="-22.0090231485664844512939453125" lon="166.459875293076038360595703125">
        <ele>1097.5999755859375</ele>
        <time>2016-08-12T20:36:31.000Z</time>
        <extensions>
          <ns3:TrackPointExtension>
            <ns3:atemp>14.0</ns3:atemp>
            <ns3:hr>141</ns3:hr>
          </ns3:TrackPointExtension>
        </extensions>
      </trkpt>
      <trkpt lat="-22.00902993790805339813232421875" lon="166.4598990976810455322265625">
        <ele>1097.800048828125</ele>
        <time>2016-08-12T20:36:32.000Z</time>
        <extensions>
          <ns3:TrackPointExtension>
            <ns3:atemp>14.0</ns3:atemp>
            <ns3:hr>141</ns3:hr>
          </ns3:TrackPointExtension>
        </extensions>
      </trkpt>
      <trkpt lat="-22.009033374488353729248046875" lon="166.4599217288196086883544921875">
        <ele>1097.800048828125</ele>
        <time>2016-08-12T20:36:33.000Z</time>
        <extensions>
          <ns3:TrackPointExtension>
            <ns3:atemp>14.0</ns3:atemp>
            <ns3:hr>141</ns3:hr>
          </ns3:TrackPointExtension>
        </extensions>
      </trkpt>
      <trkpt lat="-22.0090355537831783294677734375" lon="166.45994846709072589874267578125">
        <ele>1097.5999755859375</ele>
        <time>2016-08-12T20:36:34.000Z</time>
        <extensions>
          <ns3:TrackPointExtension>
            <ns3:atemp>14.0</ns3:atemp>
            <ns3:hr>141</ns3:hr>
          </ns3:TrackPointExtension>
        </extensions>
      </trkpt>
      <trkpt lat="-22.00903999619185924530029296875" lon="166.45997126586735248565673828125">
        <ele>1097.800048828125</ele>
        <time>2016-08-12T20:36:35.000Z</time>
        <extensions>
          <ns3:TrackPointExtension>
            <ns3:atemp>14.0</ns3:atemp>
            <ns3:hr>141</ns3:hr>
          </ns3:TrackPointExtension>
        </extensions>
      </trkpt>
      <trkpt lat="-22.0090449415147304534912109375" lon="166.459993980824947357177734375">
        <ele>1098.199951171875</ele>
        <time>2016-08-12T20:36:36.000Z</time>
        <extensions>
          <ns3:TrackPointExtension>
            <ns3:atemp>14.0</ns3:atemp>
            <ns3:hr>141</ns3:hr>
          </ns3:TrackPointExtension>
        </extensions>
      </trkpt>
      <trkpt lat="-22.00905047357082366943359375" lon="166.460017450153827667236328125">
        <ele>1098</ele>
        <time>2016-08-12T20:36:37.000Z</time>
        <extensions>
          <ns3:TrackPointExtension>
            <ns3:atemp>14.0</ns3:atemp>
            <ns3:hr>141</ns3:hr>
          </ns3:TrackPointExtension>
        </extensions>
      </trkpt>
      <trkpt lat="-22.00906028039753437042236328125" lon="166.46003832109272480010986328125">
        <ele>1097.800048828125</ele>
        <time>2016-08-12T20:36:38.000Z</time>
        <extensions>
          <ns3:TrackPointExtension>
            <ns3:atemp>14.0</ns3:atemp>
            <ns3:hr>141</ns3:hr>
          </ns3:TrackPointExtension>
        </extensions>
      </trkpt>
      <trkpt lat="-22.009063549339771270751953125" lon="166.46006598137319087982177734375">
        <ele>1098</ele>
        <time>2016-08-12T20:36:39.000Z</time>
        <extensions>
          <ns3:TrackPointExtension>
            <ns3:atemp>14.0</ns3:atemp>
            <ns3:hr>141</ns3:hr>
          </ns3:TrackPointExtension>
        </extensions>
      </trkpt>
      <trkpt lat="-22.00906698592007160186767578125" lon="166.46009481512010097503662109375">
        <ele>1098.4000244140625</ele>
        <time>2016-08-12T20:36:40.000Z</time>
        <extensions>
          <ns3:TrackPointExtension>
            <ns3:atemp>14.0</ns3:atemp>
            <ns3:hr>141</ns3:hr>
          </ns3:TrackPointExtension>
        </extensions>
      </trkpt>
      <trkpt lat="-22.00907595455646514892578125" lon="166.46011962555348873138427734375">
        <ele>1098.199951171875</ele>
        <time>2016-08-12T20:36:41.000Z</time>
        <extensions>
          <ns3:TrackPointExtension>
            <ns3:atemp>14.0</ns3:atemp>
            <ns3:hr>141</ns3:hr>
          </ns3:TrackPointExtension>
        </extensions>
      </trkpt>
      <trkpt lat="-22.00908358208835124969482421875" lon="166.46014544181525707244873046875">
        <ele>1098.199951171875</ele>
        <time>2016-08-12T20:36:42.000Z</time>
        <extensions>
          <ns3:TrackPointExtension>
            <ns3:atemp>14.0</ns3:atemp>
            <ns3:hr>141</ns3:hr>
          </ns3:TrackPointExtension>
        </extensions>
      </trkpt>
      <trkpt lat="-22.00909246690571308135986328125" lon="166.4601688273251056671142578125">
        <ele>1098.5999755859375</ele>
        <time>2016-08-12T20:36:43.000Z</time>
        <extensions>
          <ns3:TrackPointExtension>
            <ns3:atemp>14.0</ns3:atemp>
            <ns3:hr>140</ns3:hr>
          </ns3:TrackPointExtension>
        </extensions>
      </trkpt>
      <trkpt lat="-22.00910068117082118988037109375" lon="166.46019640378654003143310546875">
        <ele>1098.4000244140625</ele>
        <time>2016-08-12T20:36:44.000Z</time>
        <extensions>
          <ns3:TrackPointExtension>
            <ns3:atemp>14.0</ns3:atemp>
            <ns3:hr>141</ns3:hr>
          </ns3:TrackPointExtension>
        </extensions>
      </trkpt>
      <trkpt lat="-22.00911325402557849884033203125" lon="166.46021970547735691070556640625">
        <ele>1098.199951171875</ele>
        <time>2016-08-12T20:36:45.000Z</time>
        <extensions>
          <ns3:TrackPointExtension>
            <ns3:atemp>14.0</ns3:atemp>
            <ns3:hr>141</ns3:hr>
          </ns3:TrackPointExtension>
        </extensions>
      </trkpt>
      <trkpt lat="-22.009123899042606353759765625" lon="166.4602445997297763824462890625">
        <ele>1098</ele>
        <time>2016-08-12T20:36:46.000Z</time>
        <extensions>
          <ns3:TrackPointExtension>
            <ns3:atemp>14.0</ns3:atemp>
            <ns3:hr>140</ns3:hr>
          </ns3:TrackPointExtension>
        </extensions>
      </trkpt>
      <trkpt lat="-22.00913689099252223968505859375" lon="166.4602690748870372772216796875">
        <ele>1098</ele>
        <time>2016-08-12T20:36:47.000Z</time>
        <extensions>
          <ns3:TrackPointExtension>
            <ns3:atemp>14.0</ns3:atemp>
            <ns3:hr>140</ns3:hr>
          </ns3:TrackPointExtension>
        </extensions>
      </trkpt>
      <trkpt lat="-22.00914569199085235595703125" lon="166.46029229275882244110107421875">
        <ele>1098</ele>
        <time>2016-08-12T20:36:48.000Z</time>
        <extensions>
          <ns3:TrackPointExtension>
            <ns3:atemp>14.0</ns3:atemp>
            <ns3:hr>140</ns3:hr>
          </ns3:TrackPointExtension>
        </extensions>
      </trkpt>
      <trkpt lat="-22.009154073894023895263671875" lon="166.46031416952610015869140625">
        <ele>1098.199951171875</ele>
        <time>2016-08-12T20:36:49.000Z</time>
        <extensions>
          <ns3:TrackPointExtension>
            <ns3:atemp>14.0</ns3:atemp>
            <ns3:hr>140</ns3:hr>
          </ns3:TrackPointExtension>
        </extensions>
      </trkpt>
      <trkpt lat="-22.00916186906397342681884765625" lon="166.46033805795013904571533203125">
        <ele>1098.4000244140625</ele>
        <time>2016-08-12T20:36:50.000Z</time>
        <extensions>
          <ns3:TrackPointExtension>
            <ns3:atemp>14.0</ns3:atemp>
            <ns3:hr>140</ns3:hr>
          </ns3:TrackPointExtension>
        </extensions>
      </trkpt>
      <trkpt lat="-22.00917276553809642791748046875" lon="166.4603585936129093170166015625">
        <ele>1098.800048828125</ele>
        <time>2016-08-12T20:36:51.000Z</time>
        <extensions>
          <ns3:TrackPointExtension>
            <ns3:atemp>14.0</ns3:atemp>
            <ns3:hr>140</ns3:hr>
          </ns3:TrackPointExtension>
        </extensions>
      </trkpt>
      <trkpt lat="-22.0091812312602996826171875" lon="166.4603777043521404266357421875">
        <ele>1098.800048828125</ele>
        <time>2016-08-12T20:36:52.000Z</time>
        <extensions>
          <ns3:TrackPointExtension>
            <ns3:atemp>14.0</ns3:atemp>
            <ns3:hr>140</ns3:hr>
          </ns3:TrackPointExtension>
        </extensions>
      </trkpt>
      <trkpt lat="-22.009190954267978668212890625" lon="166.4603948034346103668212890625">
        <ele>1098.5999755859375</ele>
        <time>2016-08-12T20:36:53.000Z</time>
        <extensions>
          <ns3:TrackPointExtension>
            <ns3:atemp>14.0</ns3:atemp>
            <ns3:hr>140</ns3:hr>
          </ns3:TrackPointExtension>
        </extensions>
      </trkpt>
      <trkpt lat="-22.0091971568763256072998046875" lon="166.46041450090706348419189453125">
        <ele>1098.800048828125</ele>
        <time>2016-08-12T20:36:54.000Z</time>
        <extensions>
          <ns3:TrackPointExtension>
            <ns3:atemp>14.0</ns3:atemp>
            <ns3:hr>139</ns3:hr>
          </ns3:TrackPointExtension>
        </extensions>
      </trkpt>
      <trkpt lat="-22.00920143164694309234619140625" lon="166.460439227521419525146484375">
        <ele>1099</ele>
        <time>2016-08-12T20:36:55.000Z</time>
        <extensions>
          <ns3:TrackPointExtension>
            <ns3:atemp>14.0</ns3:atemp>
            <ns3:hr>139</ns3:hr>
          </ns3:TrackPointExtension>
        </extensions>
      </trkpt>
      <trkpt lat="-22.00920545496046543121337890625" lon="166.46046127192676067352294921875">
        <ele>1098.800048828125</ele>
        <time>2016-08-12T20:36:56.000Z</time>
        <extensions>
          <ns3:TrackPointExtension>
            <ns3:atemp>14.0</ns3:atemp>
            <ns3:hr>139</ns3:hr>
          </ns3:TrackPointExtension>
        </extensions>
      </trkpt>
      <trkpt lat="-22.0092092268168926239013671875" lon="166.46048658527433872222900390625">
        <ele>1098.800048828125</ele>
        <time>2016-08-12T20:36:57.000Z</time>
        <extensions>
          <ns3:TrackPointExtension>
            <ns3:atemp>14.0</ns3:atemp>
            <ns3:hr>139</ns3:hr>
          </ns3:TrackPointExtension>
        </extensions>
      </trkpt>
      <trkpt lat="-22.00921517796814441680908203125" lon="166.460514329373836517333984375">
        <ele>1098.800048828125</ele>
        <time>2016-08-12T20:36:58.000Z</time>
        <extensions>
          <ns3:TrackPointExtension>
            <ns3:atemp>14.0</ns3:atemp>
            <ns3:hr>139</ns3:hr>
          </ns3:TrackPointExtension>
        </extensions>
      </trkpt>
      <trkpt lat="-22.00922079384326934814453125" lon="166.46053922362625598907470703125">
        <ele>1098.800048828125</ele>
        <time>2016-08-12T20:36:59.000Z</time>
        <extensions>
          <ns3:TrackPointExtension>
            <ns3:atemp>14.0</ns3:atemp>
            <ns3:hr>139</ns3:hr>
          </ns3:TrackPointExtension>
        </extensions>
      </trkpt>
      <trkpt lat="-22.00922456569969654083251953125" lon="166.46056286059319972991943359375">
        <ele>1098.800048828125</ele>
        <time>2016-08-12T20:37:00.000Z</time>
        <extensions>
          <ns3:TrackPointExtension>
            <ns3:atemp>14.0</ns3:atemp>
            <ns3:hr>139</ns3:hr>
          </ns3:TrackPointExtension>
        </extensions>
      </trkpt>
      <trkpt lat="-22.00922791846096515655517578125" lon="166.460586078464984893798828125">
        <ele>1098.800048828125</ele>
        <time>2016-08-12T20:37:01.000Z</time>
        <extensions>
          <ns3:TrackPointExtension>
            <ns3:atemp>14.0</ns3:atemp>
            <ns3:hr>139</ns3:hr>
          </ns3:TrackPointExtension>
        </extensions>
      </trkpt>
      <trkpt lat="-22.0092296786606311798095703125" lon="166.460608877241611480712890625">
        <ele>1098.5999755859375</ele>
        <time>2016-08-12T20:37:02.000Z</time>
        <extensions>
          <ns3:TrackPointExtension>
            <ns3:atemp>14.0</ns3:atemp>
            <ns3:hr>138</ns3:hr>
          </ns3:TrackPointExtension>
        </extensions>
      </trkpt>
      <trkpt lat="-22.0092306844890117645263671875" lon="166.4606315083801746368408203125">
        <ele>1098.5999755859375</ele>
        <time>2016-08-12T20:37:03.000Z</time>
        <extensions>
          <ns3:TrackPointExtension>
            <ns3:atemp>14.0</ns3:atemp>
            <ns3:hr>138</ns3:hr>
          </ns3:TrackPointExtension>
        </extensions>
      </trkpt>
      <trkpt lat="-22.0092286728322505950927734375" lon="166.460651457309722900390625">
        <ele>1098.5999755859375</ele>
        <time>2016-08-12T20:37:04.000Z</time>
        <extensions>
          <ns3:TrackPointExtension>
            <ns3:atemp>14.0</ns3:atemp>
            <ns3:hr>138</ns3:hr>
          </ns3:TrackPointExtension>
        </extensions>
      </trkpt>
      <trkpt lat="-22.00922925956547260284423828125" lon="166.46067165769636631011962890625">
        <ele>1098.800048828125</ele>
        <time>2016-08-12T20:37:05.000Z</time>
        <extensions>
          <ns3:TrackPointExtension>
            <ns3:atemp>14.0</ns3:atemp>
            <ns3:hr>138</ns3:hr>
          </ns3:TrackPointExtension>
        </extensions>
      </trkpt>
      <trkpt lat="-22.00922842137515544891357421875" lon="166.4606957137584686279296875">
        <ele>1099</ele>
        <time>2016-08-12T20:37:06.000Z</time>
        <extensions>
          <ns3:TrackPointExtension>
            <ns3:atemp>14.0</ns3:atemp>
            <ns3:hr>138</ns3:hr>
          </ns3:TrackPointExtension>
        </extensions>
      </trkpt>
      <trkpt lat="-22.00922439806163311004638671875" lon="166.46071675233542919158935546875">
        <ele>1098.800048828125</ele>
        <time>2016-08-12T20:37:07.000Z</time>
        <extensions>
          <ns3:TrackPointExtension>
            <ns3:atemp>14.0</ns3:atemp>
            <ns3:hr>137</ns3:hr>
          </ns3:TrackPointExtension>
        </extensions>
      </trkpt>
      <trkpt lat="-22.00921601615846157073974609375" lon="166.46074466407299041748046875">
        <ele>1098.800048828125</ele>
        <time>2016-08-12T20:37:08.000Z</time>
        <extensions>
          <ns3:TrackPointExtension>
            <ns3:atemp>14.0</ns3:atemp>
            <ns3:hr>137</ns3:hr>
          </ns3:TrackPointExtension>
        </extensions>
      </trkpt>
      <trkpt lat="-22.0092088915407657623291015625" lon="166.46077123470604419708251953125">
        <ele>1098.800048828125</ele>
        <time>2016-08-12T20:37:09.000Z</time>
        <extensions>
          <ns3:TrackPointExtension>
            <ns3:atemp>14.0</ns3:atemp>
            <ns3:hr>137</ns3:hr>
          </ns3:TrackPointExtension>
        </extensions>
      </trkpt>
      <trkpt lat="-22.00920662842690944671630859375" lon="166.4607927761971950531005859375">
        <ele>1098.5999755859375</ele>
        <time>2016-08-12T20:37:10.000Z</time>
        <extensions>
          <ns3:TrackPointExtension>
            <ns3:atemp>14.0</ns3:atemp>
            <ns3:hr>137</ns3:hr>
          </ns3:TrackPointExtension>
        </extensions>
      </trkpt>
      <trkpt lat="-22.009203024208545684814453125" lon="166.46081708371639251708984375">
        <ele>1098.4000244140625</ele>
        <time>2016-08-12T20:37:11.000Z</time>
        <extensions>
          <ns3:TrackPointExtension>
            <ns3:atemp>14.0</ns3:atemp>
            <ns3:hr>136</ns3:hr>
          </ns3:TrackPointExtension>
        </extensions>
      </trkpt>
      <trkpt lat="-22.00919975526630878448486328125" lon="166.46084382198750972747802734375">
        <ele>1098.4000244140625</ele>
        <time>2016-08-12T20:37:12.000Z</time>
        <extensions>
          <ns3:TrackPointExtension>
            <ns3:atemp>14.0</ns3:atemp>
            <ns3:hr>136</ns3:hr>
          </ns3:TrackPointExtension>
        </extensions>
      </trkpt>
      <trkpt lat="-22.009198665618896484375" lon="166.46086829714477062225341796875">
        <ele>1098.4000244140625</ele>
        <time>2016-08-12T20:37:13.000Z</time>
        <extensions>
          <ns3:TrackPointExtension>
            <ns3:atemp>14.0</ns3:atemp>
            <ns3:hr>136</ns3:hr>
          </ns3:TrackPointExtension>
        </extensions>
      </trkpt>
      <trkpt lat="-22.00919874943792819976806640625" lon="166.46089260466396808624267578125">
        <ele>1098.199951171875</ele>
        <time>2016-08-12T20:37:14.000Z</time>
        <extensions>
          <ns3:TrackPointExtension>
            <ns3:atemp>14.0</ns3:atemp>
            <ns3:hr>136</ns3:hr>
          </ns3:TrackPointExtension>
        </extensions>
      </trkpt>
      <trkpt lat="-22.0091984979808330535888671875" lon="166.4609168283641338348388671875">
        <ele>1098.199951171875</ele>
        <time>2016-08-12T20:37:15.000Z</time>
        <extensions>
          <ns3:TrackPointExtension>
            <ns3:atemp>14.0</ns3:atemp>
            <ns3:hr>136</ns3:hr>
          </ns3:TrackPointExtension>
        </extensions>
      </trkpt>
      <trkpt lat="-22.0092011801898479461669921875" lon="166.46093719638884067535400390625">
        <ele>1097.800048828125</ele>
        <time>2016-08-12T20:37:16.000Z</time>
        <extensions>
          <ns3:TrackPointExtension>
            <ns3:atemp>14.0</ns3:atemp>
            <ns3:hr>136</ns3:hr>
          </ns3:TrackPointExtension>
        </extensions>
      </trkpt>
      <trkpt lat="-22.00920126400887966156005859375" lon="166.46096351556479930877685546875">
        <ele>1097.800048828125</ele>
        <time>2016-08-12T20:37:17.000Z</time>
        <extensions>
          <ns3:TrackPointExtension>
            <ns3:atemp>14.0</ns3:atemp>
            <ns3:hr>136</ns3:hr>
          </ns3:TrackPointExtension>
        </extensions>
      </trkpt>
      <trkpt lat="-22.0092035271227359771728515625" lon="166.460987068712711334228515625">
        <ele>1097.5999755859375</ele>
        <time>2016-08-12T20:37:18.000Z</time>
        <extensions>
          <ns3:TrackPointExtension>
            <ns3:atemp>14.0</ns3:atemp>
            <ns3:hr>135</ns3:hr>
          </ns3:TrackPointExtension>
        </extensions>
      </trkpt>
      <trkpt lat="-22.00920763425529003143310546875" lon="166.46100374870002269744873046875">
        <ele>1097.4000244140625</ele>
        <time>2016-08-12T20:37:19.000Z</time>
        <extensions>
          <ns3:TrackPointExtension>
            <ns3:atemp>14.0</ns3:atemp>
            <ns3:hr>135</ns3:hr>
          </ns3:TrackPointExtension>
        </extensions>
      </trkpt>
      <trkpt lat="-22.00920847244560718536376953125" lon="166.4610254578292369842529296875">
        <ele>1097.199951171875</ele>
        <time>2016-08-12T20:37:20.000Z</time>
        <extensions>
          <ns3:TrackPointExtension>
            <ns3:atemp>14.0</ns3:atemp>
            <ns3:hr>135</ns3:hr>
          </ns3:TrackPointExtension>
        </extensions>
      </trkpt>
      <trkpt lat="-22.0092055387794971466064453125" lon="166.46104733459651470184326171875">
        <ele>1096.800048828125</ele>
        <time>2016-08-12T20:37:21.000Z</time>
        <extensions>
          <ns3:TrackPointExtension>
            <ns3:atemp>14.0</ns3:atemp>
            <ns3:hr>135</ns3:hr>
          </ns3:TrackPointExtension>
        </extensions>
      </trkpt>
      <trkpt lat="-22.0091964863240718841552734375" lon="166.46107080392539501190185546875">
        <ele>1096.5999755859375</ele>
        <time>2016-08-12T20:37:22.000Z</time>
        <extensions>
          <ns3:TrackPointExtension>
            <ns3:atemp>14.0</ns3:atemp>
            <ns3:hr>135</ns3:hr>
          </ns3:TrackPointExtension>
        </extensions>
      </trkpt>
      <trkpt lat="-22.0091934688389301300048828125" lon="166.4610951952636241912841796875">
        <ele>1096.800048828125</ele>
        <time>2016-08-12T20:37:23.000Z</time>
        <extensions>
          <ns3:TrackPointExtension>
            <ns3:atemp>14.0</ns3:atemp>
            <ns3:hr>135</ns3:hr>
          </ns3:TrackPointExtension>
        </extensions>
      </trkpt>
      <trkpt lat="-22.00919128954410552978515625" lon="166.461121849715709686279296875">
        <ele>1096.4000244140625</ele>
        <time>2016-08-12T20:37:24.000Z</time>
        <extensions>
          <ns3:TrackPointExtension>
            <ns3:atemp>14.0</ns3:atemp>
            <ns3:hr>135</ns3:hr>
          </ns3:TrackPointExtension>
        </extensions>
      </trkpt>
      <trkpt lat="-22.00919120572507381439208984375" lon="166.46114657633006572723388671875">
        <ele>1096</ele>
        <time>2016-08-12T20:37:25.000Z</time>
        <extensions>
          <ns3:TrackPointExtension>
            <ns3:atemp>14.0</ns3:atemp>
            <ns3:hr>135</ns3:hr>
          </ns3:TrackPointExtension>
        </extensions>
      </trkpt>
      <trkpt lat="-22.0091934688389301300048828125" lon="166.46117105148732662200927734375">
        <ele>1096</ele>
        <time>2016-08-12T20:37:26.000Z</time>
        <extensions>
          <ns3:TrackPointExtension>
            <ns3:atemp>14.0</ns3:atemp>
            <ns3:hr>135</ns3:hr>
          </ns3:TrackPointExtension>
        </extensions>
      </trkpt>
      <trkpt lat="-22.0091974921524524688720703125" lon="166.46119200624525547027587890625">
        <ele>1095.5999755859375</ele>
        <time>2016-08-12T20:37:27.000Z</time>
        <extensions>
          <ns3:TrackPointExtension>
            <ns3:atemp>14.0</ns3:atemp>
            <ns3:hr>135</ns3:hr>
          </ns3:TrackPointExtension>
        </extensions>
      </trkpt>
      <trkpt lat="-22.0091968216001987457275390625" lon="166.46121363155543804168701171875">
        <ele>1095.4000244140625</ele>
        <time>2016-08-12T20:37:28.000Z</time>
        <extensions>
          <ns3:TrackPointExtension>
            <ns3:atemp>14.0</ns3:atemp>
            <ns3:hr>135</ns3:hr>
          </ns3:TrackPointExtension>
        </extensions>
      </trkpt>
      <trkpt lat="-22.00920067727565765380859375" lon="166.4612376876175403594970703125">
        <ele>1095.199951171875</ele>
        <time>2016-08-12T20:37:29.000Z</time>
        <extensions>
          <ns3:TrackPointExtension>
            <ns3:atemp>14.0</ns3:atemp>
            <ns3:hr>135</ns3:hr>
          </ns3:TrackPointExtension>
        </extensions>
      </trkpt>
      <trkpt lat="-22.00920176692306995391845703125" lon="166.46126342006027698516845703125">
        <ele>1095</ele>
        <time>2016-08-12T20:37:30.000Z</time>
        <extensions>
          <ns3:TrackPointExtension>
            <ns3:atemp>14.0</ns3:atemp>
            <ns3:hr>134</ns3:hr>
          </ns3:TrackPointExtension>
        </extensions>
      </trkpt>
      <trkpt lat="-22.0092038623988628387451171875" lon="166.46128538064658641815185546875">
        <ele>1094.800048828125</ele>
        <time>2016-08-12T20:37:31.000Z</time>
        <extensions>
          <ns3:TrackPointExtension>
            <ns3:atemp>14.0</ns3:atemp>
            <ns3:hr>134</ns3:hr>
          </ns3:TrackPointExtension>
        </extensions>
      </trkpt>
      <trkpt lat="-22.00920679606497287750244140625" lon="166.46130926907062530517578125">
        <ele>1094.4000244140625</ele>
        <time>2016-08-12T20:37:32.000Z</time>
        <extensions>
          <ns3:TrackPointExtension>
            <ns3:atemp>14.0</ns3:atemp>
            <ns3:hr>133</ns3:hr>
          </ns3:TrackPointExtension>
        </extensions>
      </trkpt>
      <trkpt lat="-22.009207718074321746826171875" lon="166.46133500151336193084716796875">
        <ele>1094.4000244140625</ele>
        <time>2016-08-12T20:37:33.000Z</time>
        <extensions>
          <ns3:TrackPointExtension>
            <ns3:atemp>14.0</ns3:atemp>
            <ns3:hr>133</ns3:hr>
          </ns3:TrackPointExtension>
        </extensions>
      </trkpt>
      <trkpt lat="-22.00920738279819488525390625" lon="166.46135796792805194854736328125">
        <ele>1094.199951171875</ele>
        <time>2016-08-12T20:37:34.000Z</time>
        <extensions>
          <ns3:TrackPointExtension>
            <ns3:atemp>14.0</ns3:atemp>
            <ns3:hr>133</ns3:hr>
          </ns3:TrackPointExtension>
        </extensions>
      </trkpt>
      <trkpt lat="-22.00919941999018192291259765625" lon="166.46138571202754974365234375">
        <ele>1094</ele>
        <time>2016-08-12T20:37:35.000Z</time>
        <extensions>
          <ns3:TrackPointExtension>
            <ns3:atemp>14.0</ns3:atemp>
            <ns3:hr>133</ns3:hr>
          </ns3:TrackPointExtension>
        </extensions>
      </trkpt>
      <trkpt lat="-22.00919891707599163055419921875" lon="166.4614106900990009307861328125">
        <ele>1093.800048828125</ele>
        <time>2016-08-12T20:37:36.000Z</time>
        <extensions>
          <ns3:TrackPointExtension>
            <ns3:atemp>14.0</ns3:atemp>
            <ns3:hr>132</ns3:hr>
          </ns3:TrackPointExtension>
        </extensions>
      </trkpt>
      <trkpt lat="-22.0092011801898479461669921875" lon="166.461434662342071533203125">
        <ele>1093.800048828125</ele>
        <time>2016-08-12T20:37:37.000Z</time>
        <extensions>
          <ns3:TrackPointExtension>
            <ns3:atemp>14.0</ns3:atemp>
            <ns3:hr>133</ns3:hr>
          </ns3:TrackPointExtension>
        </extensions>
      </trkpt>
      <trkpt lat="-22.0092038623988628387451171875" lon="166.461459137499332427978515625">
        <ele>1093.5999755859375</ele>
        <time>2016-08-12T20:37:38.000Z</time>
        <extensions>
          <ns3:TrackPointExtension>
            <ns3:atemp>14.0</ns3:atemp>
            <ns3:hr>132</ns3:hr>
          </ns3:TrackPointExtension>
        </extensions>
      </trkpt>
      <trkpt lat="-22.00920478440821170806884765625" lon="166.46148235537111759185791015625">
        <ele>1093.4000244140625</ele>
        <time>2016-08-12T20:37:39.000Z</time>
        <extensions>
          <ns3:TrackPointExtension>
            <ns3:atemp>14.0</ns3:atemp>
            <ns3:hr>132</ns3:hr>
          </ns3:TrackPointExtension>
        </extensions>
      </trkpt>
      <trkpt lat="-22.0092105679214000701904296875" lon="166.4615075848996639251708984375">
        <ele>1093.5999755859375</ele>
        <time>2016-08-12T20:37:40.000Z</time>
        <extensions>
          <ns3:TrackPointExtension>
            <ns3:atemp>14.0</ns3:atemp>
            <ns3:hr>132</ns3:hr>
          </ns3:TrackPointExtension>
        </extensions>
      </trkpt>
      <trkpt lat="-22.009217776358127593994140625" lon="166.46153331734240055084228515625">
        <ele>1093.5999755859375</ele>
        <time>2016-08-12T20:37:41.000Z</time>
        <extensions>
          <ns3:TrackPointExtension>
            <ns3:atemp>14.0</ns3:atemp>
            <ns3:hr>132</ns3:hr>
          </ns3:TrackPointExtension>
        </extensions>
      </trkpt>
      <trkpt lat="-22.009223140776157379150390625" lon="166.4615572057664394378662109375">
        <ele>1093.4000244140625</ele>
        <time>2016-08-12T20:37:42.000Z</time>
        <extensions>
          <ns3:TrackPointExtension>
            <ns3:atemp>14.0</ns3:atemp>
            <ns3:hr>132</ns3:hr>
          </ns3:TrackPointExtension>
        </extensions>
      </trkpt>
      <trkpt lat="-22.00922892428934574127197265625" lon="166.46158377639949321746826171875">
        <ele>1093.4000244140625</ele>
        <time>2016-08-12T20:37:43.000Z</time>
        <extensions>
          <ns3:TrackPointExtension>
            <ns3:atemp>14.0</ns3:atemp>
            <ns3:hr>132</ns3:hr>
          </ns3:TrackPointExtension>
        </extensions>
      </trkpt>
      <trkpt lat="-22.00923613272607326507568359375" lon="166.4616074971854686737060546875">
        <ele>1093.4000244140625</ele>
        <time>2016-08-12T20:37:44.000Z</time>
        <extensions>
          <ns3:TrackPointExtension>
            <ns3:atemp>14.0</ns3:atemp>
            <ns3:hr>132</ns3:hr>
          </ns3:TrackPointExtension>
        </extensions>
      </trkpt>
      <trkpt lat="-22.00924669392406940460205078125" lon="166.4616264402866363525390625">
        <ele>1093.199951171875</ele>
        <time>2016-08-12T20:37:45.000Z</time>
        <extensions>
          <ns3:TrackPointExtension>
            <ns3:atemp>14.0</ns3:atemp>
            <ns3:hr>131</ns3:hr>
          </ns3:TrackPointExtension>
        </extensions>
      </trkpt>
      <trkpt lat="-22.00925172306597232818603515625" lon="166.46165200509130954742431640625">
        <ele>1093.199951171875</ele>
        <time>2016-08-12T20:37:46.000Z</time>
        <extensions>
          <ns3:TrackPointExtension>
            <ns3:atemp>14.0</ns3:atemp>
            <ns3:hr>131</ns3:hr>
          </ns3:TrackPointExtension>
        </extensions>
      </trkpt>
      <trkpt lat="-22.0092608593404293060302734375" lon="166.46167379803955554962158203125">
        <ele>1093.4000244140625</ele>
        <time>2016-08-12T20:37:47.000Z</time>
        <extensions>
          <ns3:TrackPointExtension>
            <ns3:atemp>14.0</ns3:atemp>
            <ns3:hr>131</ns3:hr>
          </ns3:TrackPointExtension>
        </extensions>
      </trkpt>
      <trkpt lat="-22.00927066616714000701904296875" lon="166.46169424988329410552978515625">
        <ele>1093.4000244140625</ele>
        <time>2016-08-12T20:37:48.000Z</time>
        <extensions>
          <ns3:TrackPointExtension>
            <ns3:atemp>14.0</ns3:atemp>
            <ns3:hr>131</ns3:hr>
          </ns3:TrackPointExtension>
        </extensions>
      </trkpt>
      <trkpt lat="-22.00927536003291606903076171875" lon="166.46172040142118930816650390625">
        <ele>1093.199951171875</ele>
        <time>2016-08-12T20:37:49.000Z</time>
        <extensions>
          <ns3:TrackPointExtension>
            <ns3:atemp>14.0</ns3:atemp>
            <ns3:hr>131</ns3:hr>
          </ns3:TrackPointExtension>
        </extensions>
      </trkpt>
      <trkpt lat="-22.0092829875648021697998046875" lon="166.4617412723600864410400390625">
        <ele>1093.199951171875</ele>
        <time>2016-08-12T20:37:50.000Z</time>
        <extensions>
          <ns3:TrackPointExtension>
            <ns3:atemp>14.0</ns3:atemp>
            <ns3:hr>131</ns3:hr>
          </ns3:TrackPointExtension>
        </extensions>
      </trkpt>
      <trkpt lat="-22.00928592123091220855712890625" lon="166.46176516078412532806396484375">
        <ele>1093.199951171875</ele>
        <time>2016-08-12T20:37:51.000Z</time>
        <extensions>
          <ns3:TrackPointExtension>
            <ns3:atemp>14.0</ns3:atemp>
            <ns3:hr>131</ns3:hr>
          </ns3:TrackPointExtension>
        </extensions>
      </trkpt>
      <trkpt lat="-22.00928575359284877777099609375" lon="166.46179114468395709991455078125">
        <ele>1093</ele>
        <time>2016-08-12T20:37:52.000Z</time>
        <extensions>
          <ns3:TrackPointExtension>
            <ns3:atemp>14.0</ns3:atemp>
            <ns3:hr>131</ns3:hr>
          </ns3:TrackPointExtension>
        </extensions>
      </trkpt>
      <trkpt lat="-22.0092860050499439239501953125" lon="166.4618143625557422637939453125">
        <ele>1093</ele>
        <time>2016-08-12T20:37:53.000Z</time>
        <extensions>
          <ns3:TrackPointExtension>
            <ns3:atemp>14.0</ns3:atemp>
            <ns3:hr>131</ns3:hr>
          </ns3:TrackPointExtension>
        </extensions>
      </trkpt>
      <trkpt lat="-22.00929053127765655517578125" lon="166.46183791570365428924560546875">
        <ele>1093</ele>
        <time>2016-08-12T20:37:54.000Z</time>
        <extensions>
          <ns3:TrackPointExtension>
            <ns3:atemp>14.0</ns3:atemp>
            <ns3:hr>131</ns3:hr>
          </ns3:TrackPointExtension>
        </extensions>
      </trkpt>
      <trkpt lat="-22.0092913694679737091064453125" lon="166.46186507306993007659912109375">
        <ele>1092.800048828125</ele>
        <time>2016-08-12T20:37:55.000Z</time>
        <extensions>
          <ns3:TrackPointExtension>
            <ns3:atemp>14.0</ns3:atemp>
            <ns3:hr>131</ns3:hr>
          </ns3:TrackPointExtension>
        </extensions>
      </trkpt>
      <trkpt lat="-22.00929732061922550201416015625" lon="166.461888961493968963623046875">
        <ele>1092.5999755859375</ele>
        <time>2016-08-12T20:37:56.000Z</time>
        <extensions>
          <ns3:TrackPointExtension>
            <ns3:atemp>14.0</ns3:atemp>
            <ns3:hr>131</ns3:hr>
          </ns3:TrackPointExtension>
        </extensions>
      </trkpt>
      <trkpt lat="-22.00930033810436725616455078125" lon="166.4619149453938007354736328125">
        <ele>1092.5999755859375</ele>
        <time>2016-08-12T20:37:57.000Z</time>
        <extensions>
          <ns3:TrackPointExtension>
            <ns3:atemp>14.0</ns3:atemp>
            <ns3:hr>131</ns3:hr>
          </ns3:TrackPointExtension>
        </extensions>
      </trkpt>
      <trkpt lat="-22.00930268503725528717041015625" lon="166.4619400911033153533935546875">
        <ele>1092.4000244140625</ele>
        <time>2016-08-12T20:37:58.000Z</time>
        <extensions>
          <ns3:TrackPointExtension>
            <ns3:atemp>14.0</ns3:atemp>
            <ns3:hr>131</ns3:hr>
          </ns3:TrackPointExtension>
        </extensions>
      </trkpt>
      <trkpt lat="-22.00930436141788959503173828125" lon="166.46196305751800537109375">
        <ele>1092.199951171875</ele>
        <time>2016-08-12T20:37:59.000Z</time>
        <extensions>
          <ns3:TrackPointExtension>
            <ns3:atemp>14.0</ns3:atemp>
            <ns3:hr>130</ns3:hr>
          </ns3:TrackPointExtension>
        </extensions>
      </trkpt>
      <trkpt lat="-22.00930796563625335693359375" lon="166.46198828704655170440673828125">
        <ele>1092</ele>
        <time>2016-08-12T20:38:00.000Z</time>
        <extensions>
          <ns3:TrackPointExtension>
            <ns3:atemp>14.0</ns3:atemp>
            <ns3:hr>130</ns3:hr>
          </ns3:TrackPointExtension>
        </extensions>
      </trkpt>
      <trkpt lat="-22.009310983121395111083984375" lon="166.462014354765415191650390625">
        <ele>1092</ele>
        <time>2016-08-12T20:38:01.000Z</time>
        <extensions>
          <ns3:TrackPointExtension>
            <ns3:atemp>14.0</ns3:atemp>
            <ns3:hr>130</ns3:hr>
          </ns3:TrackPointExtension>
        </extensions>
      </trkpt>
      <trkpt lat="-22.0093114860355854034423828125" lon="166.462040506303310394287109375">
        <ele>1092</ele>
        <time>2016-08-12T20:38:02.000Z</time>
        <extensions>
          <ns3:TrackPointExtension>
            <ns3:atemp>14.0</ns3:atemp>
            <ns3:hr>130</ns3:hr>
          </ns3:TrackPointExtension>
        </extensions>
      </trkpt>
      <trkpt lat="-22.0093084685504436492919921875" lon="166.462070681154727935791015625">
        <ele>1091.800048828125</ele>
        <time>2016-08-12T20:38:03.000Z</time>
        <extensions>
          <ns3:TrackPointExtension>
            <ns3:atemp>14.0</ns3:atemp>
            <ns3:hr>130</ns3:hr>
          </ns3:TrackPointExtension>
        </extensions>
      </trkpt>
      <trkpt lat="-22.00930394232273101806640625" lon="166.46209725178778171539306640625">
        <ele>1091.5999755859375</ele>
        <time>2016-08-12T20:38:04.000Z</time>
        <extensions>
          <ns3:TrackPointExtension>
            <ns3:atemp>14.0</ns3:atemp>
            <ns3:hr>130</ns3:hr>
          </ns3:TrackPointExtension>
        </extensions>
      </trkpt>
      <trkpt lat="-22.0093019306659698486328125" lon="166.462122313678264617919921875">
        <ele>1091.5999755859375</ele>
        <time>2016-08-12T20:38:05.000Z</time>
        <extensions>
          <ns3:TrackPointExtension>
            <ns3:atemp>14.0</ns3:atemp>
            <ns3:hr>130</ns3:hr>
          </ns3:TrackPointExtension>
        </extensions>
      </trkpt>
      <trkpt lat="-22.0093014277517795562744140625" lon="166.46214989013969898223876953125">
        <ele>1091.5999755859375</ele>
        <time>2016-08-12T20:38:06.000Z</time>
        <extensions>
          <ns3:TrackPointExtension>
            <ns3:atemp>14.0</ns3:atemp>
            <ns3:hr>130</ns3:hr>
          </ns3:TrackPointExtension>
        </extensions>
      </trkpt>
      <trkpt lat="-22.00930519960820674896240234375" lon="166.46217654459178447723388671875">
        <ele>1091.5999755859375</ele>
        <time>2016-08-12T20:38:07.000Z</time>
        <extensions>
          <ns3:TrackPointExtension>
            <ns3:atemp>14.0</ns3:atemp>
            <ns3:hr>130</ns3:hr>
          </ns3:TrackPointExtension>
        </extensions>
      </trkpt>
      <trkpt lat="-22.00930536724627017974853515625" lon="166.46220487542450428009033203125">
        <ele>1091.4000244140625</ele>
        <time>2016-08-12T20:38:08.000Z</time>
        <extensions>
          <ns3:TrackPointExtension>
            <ns3:atemp>14.0</ns3:atemp>
            <ns3:hr>130</ns3:hr>
          </ns3:TrackPointExtension>
        </extensions>
      </trkpt>
      <trkpt lat="-22.00930402614176273345947265625" lon="166.46223387680947780609130859375">
        <ele>1091.4000244140625</ele>
        <time>2016-08-12T20:38:09.000Z</time>
        <extensions>
          <ns3:TrackPointExtension>
            <ns3:atemp>14.0</ns3:atemp>
            <ns3:hr>130</ns3:hr>
          </ns3:TrackPointExtension>
        </extensions>
      </trkpt>
      <trkpt lat="-22.00930419377982616424560546875" lon="166.46225868724286556243896484375">
        <ele>1091.199951171875</ele>
        <time>2016-08-12T20:38:10.000Z</time>
        <extensions>
          <ns3:TrackPointExtension>
            <ns3:atemp>14.0</ns3:atemp>
            <ns3:hr>131</ns3:hr>
          </ns3:TrackPointExtension>
        </extensions>
      </trkpt>
      <trkpt lat="-22.0093046128749847412109375" lon="166.462281234562397003173828125">
        <ele>1091</ele>
        <time>2016-08-12T20:38:11.000Z</time>
        <extensions>
          <ns3:TrackPointExtension>
            <ns3:atemp>14.0</ns3:atemp>
            <ns3:hr>131</ns3:hr>
          </ns3:TrackPointExtension>
        </extensions>
      </trkpt>
      <trkpt lat="-22.00930687598884105682373046875" lon="166.4623052068054676055908203125">
        <ele>1091</ele>
        <time>2016-08-12T20:38:12.000Z</time>
        <extensions>
          <ns3:TrackPointExtension>
            <ns3:atemp>14.0</ns3:atemp>
            <ns3:hr>131</ns3:hr>
          </ns3:TrackPointExtension>
        </extensions>
      </trkpt>
      <trkpt lat="-22.009307630360126495361328125" lon="166.462326161563396453857421875">
        <ele>1091</ele>
        <time>2016-08-12T20:38:13.000Z</time>
        <extensions>
          <ns3:TrackPointExtension>
            <ns3:atemp>14.0</ns3:atemp>
            <ns3:hr>130</ns3:hr>
          </ns3:TrackPointExtension>
        </extensions>
      </trkpt>
      <trkpt lat="-22.00930570252239704132080078125" lon="166.4623501338064670562744140625">
        <ele>1090.800048828125</ele>
        <time>2016-08-12T20:38:14.000Z</time>
        <extensions>
          <ns3:TrackPointExtension>
            <ns3:atemp>14.0</ns3:atemp>
            <ns3:hr>131</ns3:hr>
          </ns3:TrackPointExtension>
        </extensions>
      </trkpt>
      <trkpt lat="-22.0093004219233989715576171875" lon="166.4623752795159816741943359375">
        <ele>1090.5999755859375</ele>
        <time>2016-08-12T20:38:15.000Z</time>
        <extensions>
          <ns3:TrackPointExtension>
            <ns3:atemp>14.0</ns3:atemp>
            <ns3:hr>131</ns3:hr>
          </ns3:TrackPointExtension>
        </extensions>
      </trkpt>
      <trkpt lat="-22.009292542934417724609375" lon="166.46240000613033771514892578125">
        <ele>1090.4000244140625</ele>
        <time>2016-08-12T20:38:16.000Z</time>
        <extensions>
          <ns3:TrackPointExtension>
            <ns3:atemp>14.0</ns3:atemp>
            <ns3:hr>131</ns3:hr>
          </ns3:TrackPointExtension>
        </extensions>
      </trkpt>
      <trkpt lat="-22.0092803053557872772216796875" lon="166.46242548711597919464111328125">
        <ele>1090.4000244140625</ele>
        <time>2016-08-12T20:38:17.000Z</time>
        <extensions>
          <ns3:TrackPointExtension>
            <ns3:atemp>14.0</ns3:atemp>
            <ns3:hr>131</ns3:hr>
          </ns3:TrackPointExtension>
        </extensions>
      </trkpt>
      <trkpt lat="-22.00926831923425197601318359375" lon="166.4624525606632232666015625">
        <ele>1090.4000244140625</ele>
        <time>2016-08-12T20:38:18.000Z</time>
        <extensions>
          <ns3:TrackPointExtension>
            <ns3:atemp>14.0</ns3:atemp>
            <ns3:hr>131</ns3:hr>
          </ns3:TrackPointExtension>
        </extensions>
      </trkpt>
      <trkpt lat="-22.0092523097991943359375" lon="166.4624818973243236541748046875">
        <ele>1090.4000244140625</ele>
        <time>2016-08-12T20:38:19.000Z</time>
        <extensions>
          <ns3:TrackPointExtension>
            <ns3:atemp>14.0</ns3:atemp>
            <ns3:hr>131</ns3:hr>
          </ns3:TrackPointExtension>
        </extensions>
      </trkpt>
      <trkpt lat="-22.009235210716724395751953125" lon="166.46251383237540721893310546875">
        <ele>1090.199951171875</ele>
        <time>2016-08-12T20:38:20.000Z</time>
        <extensions>
          <ns3:TrackPointExtension>
            <ns3:atemp>14.0</ns3:atemp>
            <ns3:hr>131</ns3:hr>
          </ns3:TrackPointExtension>
        </extensions>
      </trkpt>
      <trkpt lat="-22.00922071002423763275146484375" lon="166.462541408836841583251953125">
        <ele>1090.199951171875</ele>
        <time>2016-08-12T20:38:21.000Z</time>
        <extensions>
          <ns3:TrackPointExtension>
            <ns3:atemp>14.0</ns3:atemp>
            <ns3:hr>130</ns3:hr>
          </ns3:TrackPointExtension>
        </extensions>
      </trkpt>
      <trkpt lat="-22.009201683104038238525390625" lon="166.46256764419376850128173828125">
        <ele>1090</ele>
        <time>2016-08-12T20:38:22.000Z</time>
        <extensions>
          <ns3:TrackPointExtension>
            <ns3:atemp>14.0</ns3:atemp>
            <ns3:hr>130</ns3:hr>
          </ns3:TrackPointExtension>
        </extensions>
      </trkpt>
      <trkpt lat="-22.00918726623058319091796875" lon="166.46259228698909282684326171875">
        <ele>1089.800048828125</ele>
        <time>2016-08-12T20:38:23.000Z</time>
        <extensions>
          <ns3:TrackPointExtension>
            <ns3:atemp>14.0</ns3:atemp>
            <ns3:hr>131</ns3:hr>
          </ns3:TrackPointExtension>
        </extensions>
      </trkpt>
      <trkpt lat="-22.00917561538517475128173828125" lon="166.462614499032497406005859375">
        <ele>1089.800048828125</ele>
        <time>2016-08-12T20:38:24.000Z</time>
        <extensions>
          <ns3:TrackPointExtension>
            <ns3:atemp>14.0</ns3:atemp>
            <ns3:hr>130</ns3:hr>
          </ns3:TrackPointExtension>
        </extensions>
      </trkpt>
      <trkpt lat="-22.0091642998158931732177734375" lon="166.46263704635202884674072265625">
        <ele>1090</ele>
        <time>2016-08-12T20:38:25.000Z</time>
        <extensions>
          <ns3:TrackPointExtension>
            <ns3:atemp>14.0</ns3:atemp>
            <ns3:hr>131</ns3:hr>
          </ns3:TrackPointExtension>
        </extensions>
      </trkpt>
      <trkpt lat="-22.00916220434010028839111328125" lon="166.46266202442348003387451171875">
        <ele>1089.800048828125</ele>
        <time>2016-08-12T20:38:26.000Z</time>
        <extensions>
          <ns3:TrackPointExtension>
            <ns3:atemp>14.0</ns3:atemp>
            <ns3:hr>130</ns3:hr>
          </ns3:TrackPointExtension>
        </extensions>
      </trkpt>
      <trkpt lat="-22.00916253961622714996337890625" lon="166.4626877568662166595458984375">
        <ele>1089.4000244140625</ele>
        <time>2016-08-12T20:38:27.000Z</time>
        <extensions>
          <ns3:TrackPointExtension>
            <ns3:atemp>14.0</ns3:atemp>
            <ns3:hr>130</ns3:hr>
          </ns3:TrackPointExtension>
        </extensions>
      </trkpt>
      <trkpt lat="-22.0091689936816692352294921875" lon="166.46271583624184131622314453125">
        <ele>1089.4000244140625</ele>
        <time>2016-08-12T20:38:28.000Z</time>
        <extensions>
          <ns3:TrackPointExtension>
            <ns3:atemp>14.0</ns3:atemp>
            <ns3:hr>130</ns3:hr>
          </ns3:TrackPointExtension>
        </extensions>
      </trkpt>
      <trkpt lat="-22.00917779467999935150146484375" lon="166.46274265833199024200439453125">
        <ele>1089.4000244140625</ele>
        <time>2016-08-12T20:38:29.000Z</time>
        <extensions>
          <ns3:TrackPointExtension>
            <ns3:atemp>14.0</ns3:atemp>
            <ns3:hr>130</ns3:hr>
          </ns3:TrackPointExtension>
        </extensions>
      </trkpt>
      <trkpt lat="-22.00918366201221942901611328125" lon="166.4627705700695514678955078125">
        <ele>1089.4000244140625</ele>
        <time>2016-08-12T20:38:30.000Z</time>
        <extensions>
          <ns3:TrackPointExtension>
            <ns3:atemp>14.0</ns3:atemp>
            <ns3:hr>131</ns3:hr>
          </ns3:TrackPointExtension>
        </extensions>
      </trkpt>
      <trkpt lat="-22.00919070281088352203369140625" lon="166.46280183456838130950927734375">
        <ele>1089.800048828125</ele>
        <time>2016-08-12T20:38:31.000Z</time>
        <extensions>
          <ns3:TrackPointExtension>
            <ns3:atemp>14.0</ns3:atemp>
            <ns3:hr>131</ns3:hr>
          </ns3:TrackPointExtension>
        </extensions>
      </trkpt>
      <trkpt lat="-22.009200341999530792236328125" lon="166.4628268964588642120361328125">
        <ele>1090</ele>
        <time>2016-08-12T20:38:32.000Z</time>
        <extensions>
          <ns3:TrackPointExtension>
            <ns3:atemp>14.0</ns3:atemp>
            <ns3:hr>131</ns3:hr>
          </ns3:TrackPointExtension>
        </extensions>
      </trkpt>
      <trkpt lat="-22.00920813716948032379150390625" lon="166.46285279653966426849365234375">
        <ele>1090</ele>
        <time>2016-08-12T20:38:33.000Z</time>
        <extensions>
          <ns3:TrackPointExtension>
            <ns3:atemp>14.0</ns3:atemp>
            <ns3:hr>131</ns3:hr>
          </ns3:TrackPointExtension>
        </extensions>
      </trkpt>
      <trkpt lat="-22.009216435253620147705078125" lon="166.46287827752530574798583984375">
        <ele>1089.5999755859375</ele>
        <time>2016-08-12T20:38:34.000Z</time>
        <extensions>
          <ns3:TrackPointExtension>
            <ns3:atemp>14.0</ns3:atemp>
            <ns3:hr>131</ns3:hr>
          </ns3:TrackPointExtension>
        </extensions>
      </trkpt>
      <trkpt lat="-22.00922892428934574127197265625" lon="166.46290208213031291961669921875">
        <ele>1090</ele>
        <time>2016-08-12T20:38:35.000Z</time>
        <extensions>
          <ns3:TrackPointExtension>
            <ns3:atemp>14.0</ns3:atemp>
            <ns3:hr>131</ns3:hr>
          </ns3:TrackPointExtension>
        </extensions>
      </trkpt>
      <trkpt lat="-22.00924417935311794281005859375" lon="166.46293259225785732269287109375">
        <ele>1090</ele>
        <time>2016-08-12T20:38:36.000Z</time>
        <extensions>
          <ns3:TrackPointExtension>
            <ns3:atemp>14.0</ns3:atemp>
            <ns3:hr>131</ns3:hr>
          </ns3:TrackPointExtension>
        </extensions>
      </trkpt>
      <trkpt lat="-22.00925557874143123626708984375" lon="166.46295907907187938690185546875">
        <ele>1089.800048828125</ele>
        <time>2016-08-12T20:38:37.000Z</time>
        <extensions>
          <ns3:TrackPointExtension>
            <ns3:atemp>13.0</ns3:atemp>
            <ns3:hr>131</ns3:hr>
          </ns3:TrackPointExtension>
        </extensions>
      </trkpt>
      <trkpt lat="-22.009269408881664276123046875" lon="166.46298137493431568145751953125">
        <ele>1089.800048828125</ele>
        <time>2016-08-12T20:38:38.000Z</time>
        <extensions>
          <ns3:TrackPointExtension>
            <ns3:atemp>13.0</ns3:atemp>
            <ns3:hr>130</ns3:hr>
          </ns3:TrackPointExtension>
        </extensions>
      </trkpt>
      <trkpt lat="-22.0092816464602947235107421875" lon="166.46300652064383029937744140625">
        <ele>1089.800048828125</ele>
        <time>2016-08-12T20:38:39.000Z</time>
        <extensions>
          <ns3:TrackPointExtension>
            <ns3:atemp>13.0</ns3:atemp>
            <ns3:hr>131</ns3:hr>
          </ns3:TrackPointExtension>
        </extensions>
      </trkpt>
      <trkpt lat="-22.009292878210544586181640625" lon="166.4630267210304737091064453125">
        <ele>1090</ele>
        <time>2016-08-12T20:38:40.000Z</time>
        <extensions>
          <ns3:TrackPointExtension>
            <ns3:atemp>13.0</ns3:atemp>
            <ns3:hr>131</ns3:hr>
          </ns3:TrackPointExtension>
        </extensions>
      </trkpt>
      <trkpt lat="-22.0092984102666378021240234375" lon="166.463052369654178619384765625">
        <ele>1090</ele>
        <time>2016-08-12T20:38:41.000Z</time>
        <extensions>
          <ns3:TrackPointExtension>
            <ns3:atemp>13.0</ns3:atemp>
            <ns3:hr>131</ns3:hr>
          </ns3:TrackPointExtension>
        </extensions>
      </trkpt>
      <trkpt lat="-22.00930167920887470245361328125" lon="166.46308086812496185302734375">
        <ele>1090</ele>
        <time>2016-08-12T20:38:42.000Z</time>
        <extensions>
          <ns3:TrackPointExtension>
            <ns3:atemp>13.0</ns3:atemp>
            <ns3:hr>131</ns3:hr>
          </ns3:TrackPointExtension>
        </extensions>
      </trkpt>
      <trkpt lat="-22.00930821709334850311279296875" lon="166.4631065167486667633056640625">
        <ele>1090.4000244140625</ele>
        <time>2016-08-12T20:38:43.000Z</time>
        <extensions>
          <ns3:TrackPointExtension>
            <ns3:atemp>13.0</ns3:atemp>
            <ns3:hr>131</ns3:hr>
          </ns3:TrackPointExtension>
        </extensions>
      </trkpt>
      <trkpt lat="-22.0093161799013614654541015625" lon="166.46313191391527652740478515625">
        <ele>1090.4000244140625</ele>
        <time>2016-08-12T20:38:44.000Z</time>
        <extensions>
          <ns3:TrackPointExtension>
            <ns3:atemp>13.0</ns3:atemp>
            <ns3:hr>132</ns3:hr>
          </ns3:TrackPointExtension>
        </extensions>
      </trkpt>
      <trkpt lat="-22.00932665728032588958740234375" lon="166.46315387450158596038818359375">
        <ele>1090.199951171875</ele>
        <time>2016-08-12T20:38:45.000Z</time>
        <extensions>
          <ns3:TrackPointExtension>
            <ns3:atemp>13.0</ns3:atemp>
            <ns3:hr>132</ns3:hr>
          </ns3:TrackPointExtension>
        </extensions>
      </trkpt>
      <trkpt lat="-22.0093342848122119903564453125" lon="166.46317751146852970123291015625">
        <ele>1090.199951171875</ele>
        <time>2016-08-12T20:38:46.000Z</time>
        <extensions>
          <ns3:TrackPointExtension>
            <ns3:atemp>13.0</ns3:atemp>
            <ns3:hr>132</ns3:hr>
          </ns3:TrackPointExtension>
        </extensions>
      </trkpt>
      <trkpt lat="-22.00934191234409809112548828125" lon="166.46319888532161712646484375">
        <ele>1090.5999755859375</ele>
        <time>2016-08-12T20:38:47.000Z</time>
        <extensions>
          <ns3:TrackPointExtension>
            <ns3:atemp>13.0</ns3:atemp>
            <ns3:hr>132</ns3:hr>
          </ns3:TrackPointExtension>
        </extensions>
      </trkpt>
      <trkpt lat="-22.00934710912406444549560546875" lon="166.46321925334632396697998046875">
        <ele>1090.800048828125</ele>
        <time>2016-08-12T20:38:48.000Z</time>
        <extensions>
          <ns3:TrackPointExtension>
            <ns3:atemp>13.0</ns3:atemp>
            <ns3:hr>133</ns3:hr>
          </ns3:TrackPointExtension>
        </extensions>
      </trkpt>
      <trkpt lat="-22.00935347937047481536865234375" lon="166.4632406271994113922119140625">
        <ele>1090.800048828125</ele>
        <time>2016-08-12T20:38:49.000Z</time>
        <extensions>
          <ns3:TrackPointExtension>
            <ns3:atemp>13.0</ns3:atemp>
            <ns3:hr>133</ns3:hr>
          </ns3:TrackPointExtension>
        </extensions>
      </trkpt>
      <trkpt lat="-22.00936018489301204681396484375" lon="166.46325923502445220947265625">
        <ele>1091</ele>
        <time>2016-08-12T20:38:50.000Z</time>
        <extensions>
          <ns3:TrackPointExtension>
            <ns3:atemp>13.0</ns3:atemp>
            <ns3:hr>133</ns3:hr>
          </ns3:TrackPointExtension>
        </extensions>
      </trkpt>
      <trkpt lat="-22.00936756096780300140380859375" lon="166.46327725611627101898193359375">
        <ele>1091.4000244140625</ele>
        <time>2016-08-12T20:38:51.000Z</time>
        <extensions>
          <ns3:TrackPointExtension>
            <ns3:atemp>13.0</ns3:atemp>
            <ns3:hr>133</ns3:hr>
          </ns3:TrackPointExtension>
        </extensions>
      </trkpt>
      <trkpt lat="-22.0093743503093719482421875" lon="166.463295109570026397705078125">
        <ele>1091.5999755859375</ele>
        <time>2016-08-12T20:38:52.000Z</time>
        <extensions>
          <ns3:TrackPointExtension>
            <ns3:atemp>13.0</ns3:atemp>
            <ns3:hr>134</ns3:hr>
          </ns3:TrackPointExtension>
        </extensions>
      </trkpt>
      <trkpt lat="-22.00938164256513118743896484375" lon="166.46330994553864002227783203125">
        <ele>1091.5999755859375</ele>
        <time>2016-08-12T20:38:53.000Z</time>
        <extensions>
          <ns3:TrackPointExtension>
            <ns3:atemp>13.0</ns3:atemp>
            <ns3:hr>134</ns3:hr>
          </ns3:TrackPointExtension>
        </extensions>
      </trkpt>
      <trkpt lat="-22.00938885100185871124267578125" lon="166.46332763135433197021484375">
        <ele>1091.5999755859375</ele>
        <time>2016-08-12T20:38:54.000Z</time>
        <extensions>
          <ns3:TrackPointExtension>
            <ns3:atemp>13.0</ns3:atemp>
            <ns3:hr>134</ns3:hr>
          </ns3:TrackPointExtension>
        </extensions>
      </trkpt>
      <trkpt lat="-22.00939840637147426605224609375" lon="166.46334707736968994140625">
        <ele>1092</ele>
        <time>2016-08-12T20:38:55.000Z</time>
        <extensions>
          <ns3:TrackPointExtension>
            <ns3:atemp>13.0</ns3:atemp>
            <ns3:hr>134</ns3:hr>
          </ns3:TrackPointExtension>
        </extensions>
      </trkpt>
      <trkpt lat="-22.009405195713043212890625" lon="166.46336518228054046630859375">
        <ele>1092.4000244140625</ele>
        <time>2016-08-12T20:38:56.000Z</time>
        <extensions>
          <ns3:TrackPointExtension>
            <ns3:atemp>13.0</ns3:atemp>
            <ns3:hr>135</ns3:hr>
          </ns3:TrackPointExtension>
        </extensions>
      </trkpt>
      <trkpt lat="-22.009410895407199859619140625" lon="166.46338135935366153717041015625">
        <ele>1092.800048828125</ele>
        <time>2016-08-12T20:38:57.000Z</time>
        <extensions>
          <ns3:TrackPointExtension>
            <ns3:atemp>13.0</ns3:atemp>
            <ns3:hr>135</ns3:hr>
          </ns3:TrackPointExtension>
        </extensions>
      </trkpt>
      <trkpt lat="-22.0094157569110393524169921875" lon="166.46339912898838520050048828125">
        <ele>1093</ele>
        <time>2016-08-12T20:38:58.000Z</time>
        <extensions>
          <ns3:TrackPointExtension>
            <ns3:atemp>13.0</ns3:atemp>
            <ns3:hr>135</ns3:hr>
          </ns3:TrackPointExtension>
        </extensions>
      </trkpt>
      <trkpt lat="-22.0094197802245616912841796875" lon="166.46341773681342601776123046875">
        <ele>1093.199951171875</ele>
        <time>2016-08-12T20:38:59.000Z</time>
        <extensions>
          <ns3:TrackPointExtension>
            <ns3:atemp>13.0</ns3:atemp>
            <ns3:hr>135</ns3:hr>
          </ns3:TrackPointExtension>
        </extensions>
      </trkpt>
      <trkpt lat="-22.0094268210232257843017578125" lon="166.4634330756962299346923828125">
        <ele>1093.4000244140625</ele>
        <time>2016-08-12T20:39:00.000Z</time>
        <extensions>
          <ns3:TrackPointExtension>
            <ns3:atemp>13.0</ns3:atemp>
            <ns3:hr>136</ns3:hr>
          </ns3:TrackPointExtension>
        </extensions>
      </trkpt>
      <trkpt lat="-22.0094358734786510467529296875" lon="166.4634464867413043975830078125">
        <ele>1093.5999755859375</ele>
        <time>2016-08-12T20:39:01.000Z</time>
        <extensions>
          <ns3:TrackPointExtension>
            <ns3:atemp>13.0</ns3:atemp>
            <ns3:hr>136</ns3:hr>
          </ns3:TrackPointExtension>
        </extensions>
      </trkpt>
      <trkpt lat="-22.00944316573441028594970703125" lon="166.463459394872188568115234375">
        <ele>1093.800048828125</ele>
        <time>2016-08-12T20:39:02.000Z</time>
        <extensions>
          <ns3:TrackPointExtension>
            <ns3:atemp>13.0</ns3:atemp>
            <ns3:hr>136</ns3:hr>
          </ns3:TrackPointExtension>
        </extensions>
      </trkpt>
      <trkpt lat="-22.00944878160953521728515625" lon="166.463471464812755584716796875">
        <ele>1094</ele>
        <time>2016-08-12T20:39:03.000Z</time>
        <extensions>
          <ns3:TrackPointExtension>
            <ns3:atemp>13.0</ns3:atemp>
            <ns3:hr>136</ns3:hr>
          </ns3:TrackPointExtension>
        </extensions>
      </trkpt>
      <trkpt lat="-22.00945523567497730255126953125" lon="166.46348328329622745513916015625">
        <ele>1094</ele>
        <time>2016-08-12T20:39:04.000Z</time>
        <extensions>
          <ns3:TrackPointExtension>
            <ns3:atemp>13.0</ns3:atemp>
            <ns3:hr>136</ns3:hr>
          </ns3:TrackPointExtension>
        </extensions>
      </trkpt>
      <trkpt lat="-22.00946143828332424163818359375" lon="166.463493593037128448486328125">
        <ele>1094.199951171875</ele>
        <time>2016-08-12T20:39:05.000Z</time>
        <extensions>
          <ns3:TrackPointExtension>
            <ns3:atemp>13.0</ns3:atemp>
            <ns3:hr>137</ns3:hr>
          </ns3:TrackPointExtension>
        </extensions>
      </trkpt>
      <trkpt lat="-22.00946881435811519622802734375" lon="166.46350407041609287261962890625">
        <ele>1094.199951171875</ele>
        <time>2016-08-12T20:39:06.000Z</time>
        <extensions>
          <ns3:TrackPointExtension>
            <ns3:atemp>13.0</ns3:atemp>
            <ns3:hr>136</ns3:hr>
          </ns3:TrackPointExtension>
        </extensions>
      </trkpt>
      <trkpt lat="-22.00947451405227184295654296875" lon="166.46351647563278675079345703125">
        <ele>1094.5999755859375</ele>
        <time>2016-08-12T20:39:07.000Z</time>
        <extensions>
          <ns3:TrackPointExtension>
            <ns3:atemp>13.0</ns3:atemp>
            <ns3:hr>137</ns3:hr>
          </ns3:TrackPointExtension>
        </extensions>
      </trkpt>
      <trkpt lat="-22.00948767364025115966796875" lon="166.463528461754322052001953125">
        <ele>1094.800048828125</ele>
        <time>2016-08-12T20:39:08.000Z</time>
        <extensions>
          <ns3:TrackPointExtension>
            <ns3:atemp>13.0</ns3:atemp>
            <ns3:hr>137</ns3:hr>
          </ns3:TrackPointExtension>
        </extensions>
      </trkpt>
      <trkpt lat="-22.00949261896312236785888671875" lon="166.46354195661842823028564453125">
        <ele>1094.800048828125</ele>
        <time>2016-08-12T20:39:09.000Z</time>
        <extensions>
          <ns3:TrackPointExtension>
            <ns3:atemp>13.0</ns3:atemp>
            <ns3:hr>137</ns3:hr>
          </ns3:TrackPointExtension>
        </extensions>
      </trkpt>
      <trkpt lat="-22.00950217433273792266845703125" lon="166.46355436183512210845947265625">
        <ele>1095</ele>
        <time>2016-08-12T20:39:10.000Z</time>
        <extensions>
          <ns3:TrackPointExtension>
            <ns3:atemp>13.0</ns3:atemp>
            <ns3:hr>137</ns3:hr>
          </ns3:TrackPointExtension>
        </extensions>
      </trkpt>
      <trkpt lat="-22.0095082931220531463623046875" lon="166.46356492303311824798583984375">
        <ele>1095.199951171875</ele>
        <time>2016-08-12T20:39:11.000Z</time>
        <extensions>
          <ns3:TrackPointExtension>
            <ns3:atemp>13.0</ns3:atemp>
            <ns3:hr>138</ns3:hr>
          </ns3:TrackPointExtension>
        </extensions>
      </trkpt>
      <trkpt lat="-22.00951315462589263916015625" lon="166.46357632242143154144287109375">
        <ele>1095.4000244140625</ele>
        <time>2016-08-12T20:39:12.000Z</time>
        <extensions>
          <ns3:TrackPointExtension>
            <ns3:atemp>13.0</ns3:atemp>
            <ns3:hr>138</ns3:hr>
          </ns3:TrackPointExtension>
        </extensions>
      </trkpt>
      <trkpt lat="-22.00951809994876384735107421875" lon="166.46358939819037914276123046875">
        <ele>1095.5999755859375</ele>
        <time>2016-08-12T20:39:13.000Z</time>
        <extensions>
          <ns3:TrackPointExtension>
            <ns3:atemp>13.0</ns3:atemp>
            <ns3:hr>138</ns3:hr>
          </ns3:TrackPointExtension>
        </extensions>
      </trkpt>
      <trkpt lat="-22.00952396728098392486572265625" lon="166.46360096521675586700439453125">
        <ele>1095.800048828125</ele>
        <time>2016-08-12T20:39:14.000Z</time>
        <extensions>
          <ns3:TrackPointExtension>
            <ns3:atemp>13.0</ns3:atemp>
            <ns3:hr>138</ns3:hr>
          </ns3:TrackPointExtension>
        </extensions>
      </trkpt>
      <trkpt lat="-22.00952790677547454833984375" lon="166.463613621890544891357421875">
        <ele>1096</ele>
        <time>2016-08-12T20:39:15.000Z</time>
        <extensions>
          <ns3:TrackPointExtension>
            <ns3:atemp>13.0</ns3:atemp>
            <ns3:hr>138</ns3:hr>
          </ns3:TrackPointExtension>
        </extensions>
      </trkpt>
      <trkpt lat="-22.00953151099383831024169921875" lon="166.46362694911658763885498046875">
        <ele>1096.199951171875</ele>
        <time>2016-08-12T20:39:16.000Z</time>
        <extensions>
          <ns3:TrackPointExtension>
            <ns3:atemp>13.0</ns3:atemp>
            <ns3:hr>138</ns3:hr>
          </ns3:TrackPointExtension>
        </extensions>
      </trkpt>
      <trkpt lat="-22.0095351152122020721435546875" lon="166.463639773428440093994140625">
        <ele>1096.4000244140625</ele>
        <time>2016-08-12T20:39:17.000Z</time>
        <extensions>
          <ns3:TrackPointExtension>
            <ns3:atemp>13.0</ns3:atemp>
            <ns3:hr>137</ns3:hr>
          </ns3:TrackPointExtension>
        </extensions>
      </trkpt>
      <trkpt lat="-22.0095379650592803955078125" lon="166.46365083754062652587890625">
        <ele>1096.5999755859375</ele>
        <time>2016-08-12T20:39:18.000Z</time>
        <extensions>
          <ns3:TrackPointExtension>
            <ns3:atemp>13.0</ns3:atemp>
            <ns3:hr>137</ns3:hr>
          </ns3:TrackPointExtension>
        </extensions>
      </trkpt>
      <trkpt lat="-22.0095414854586124420166015625" lon="166.46366265602409839630126953125">
        <ele>1096.800048828125</ele>
        <time>2016-08-12T20:39:19.000Z</time>
        <extensions>
          <ns3:TrackPointExtension>
            <ns3:atemp>13.0</ns3:atemp>
            <ns3:hr>137</ns3:hr>
          </ns3:TrackPointExtension>
        </extensions>
      </trkpt>
      <trkpt lat="-22.00954400002956390380859375" lon="166.46367455832660198211669921875">
        <ele>1097</ele>
        <time>2016-08-12T20:39:20.000Z</time>
        <extensions>
          <ns3:TrackPointExtension>
            <ns3:atemp>13.0</ns3:atemp>
            <ns3:hr>136</ns3:hr>
          </ns3:TrackPointExtension>
        </extensions>
      </trkpt>
      <trkpt lat="-22.0095433294773101806640625" lon="166.46368704736232757568359375">
        <ele>1097.199951171875</ele>
        <time>2016-08-12T20:39:21.000Z</time>
        <extensions>
          <ns3:TrackPointExtension>
            <ns3:atemp>13.0</ns3:atemp>
            <ns3:hr>136</ns3:hr>
          </ns3:TrackPointExtension>
        </extensions>
      </trkpt>
      <trkpt lat="-22.0095391385257244110107421875" lon="166.46370238624513149261474609375">
        <ele>1097.4000244140625</ele>
        <time>2016-08-12T20:39:22.000Z</time>
        <extensions>
          <ns3:TrackPointExtension>
            <ns3:atemp>13.0</ns3:atemp>
            <ns3:hr>136</ns3:hr>
          </ns3:TrackPointExtension>
        </extensions>
      </trkpt>
      <trkpt lat="-22.0095374621450901031494140625" lon="166.4637170545756816864013671875">
        <ele>1097.5999755859375</ele>
        <time>2016-08-12T20:39:23.000Z</time>
        <extensions>
          <ns3:TrackPointExtension>
            <ns3:atemp>13.0</ns3:atemp>
            <ns3:hr>136</ns3:hr>
          </ns3:TrackPointExtension>
        </extensions>
      </trkpt>
      <trkpt lat="-22.0095364563167095184326171875" lon="166.463731639087200164794921875">
        <ele>1097.800048828125</ele>
        <time>2016-08-12T20:39:24.000Z</time>
        <extensions>
          <ns3:TrackPointExtension>
            <ns3:atemp>13.0</ns3:atemp>
            <ns3:hr>136</ns3:hr>
          </ns3:TrackPointExtension>
        </extensions>
      </trkpt>
      <trkpt lat="-22.00953419320285320281982421875" lon="166.463746726512908935546875">
        <ele>1098</ele>
        <time>2016-08-12T20:39:25.000Z</time>
        <extensions>
          <ns3:TrackPointExtension>
            <ns3:atemp>13.0</ns3:atemp>
            <ns3:hr>137</ns3:hr>
          </ns3:TrackPointExtension>
        </extensions>
      </trkpt>
      <trkpt lat="-22.0095324330031871795654296875" lon="166.4637613110244274139404296875">
        <ele>1098</ele>
        <time>2016-08-12T20:39:26.000Z</time>
        <extensions>
          <ns3:TrackPointExtension>
            <ns3:atemp>13.0</ns3:atemp>
            <ns3:hr>137</ns3:hr>
          </ns3:TrackPointExtension>
        </extensions>
      </trkpt>
      <trkpt lat="-22.009531594812870025634765625" lon="166.46377556025981903076171875">
        <ele>1098.199951171875</ele>
        <time>2016-08-12T20:39:27.000Z</time>
        <extensions>
          <ns3:TrackPointExtension>
            <ns3:atemp>13.0</ns3:atemp>
            <ns3:hr>137</ns3:hr>
          </ns3:TrackPointExtension>
        </extensions>
      </trkpt>
      <trkpt lat="-22.00952882878482341766357421875" lon="166.463791988790035247802734375">
        <ele>1098.4000244140625</ele>
        <time>2016-08-12T20:39:28.000Z</time>
        <extensions>
          <ns3:TrackPointExtension>
            <ns3:atemp>13.0</ns3:atemp>
            <ns3:hr>138</ns3:hr>
          </ns3:TrackPointExtension>
        </extensions>
      </trkpt>
      <trkpt lat="-22.00952245853841304779052734375" lon="166.463808752596378326416015625">
        <ele>1098.4000244140625</ele>
        <time>2016-08-12T20:39:29.000Z</time>
        <extensions>
          <ns3:TrackPointExtension>
            <ns3:atemp>13.0</ns3:atemp>
            <ns3:hr>138</ns3:hr>
          </ns3:TrackPointExtension>
        </extensions>
      </trkpt>
      <trkpt lat="-22.009510137140750885009765625" lon="166.46382845006883144378662109375">
        <ele>1098.5999755859375</ele>
        <time>2016-08-12T20:39:30.000Z</time>
        <extensions>
          <ns3:TrackPointExtension>
            <ns3:atemp>13.0</ns3:atemp>
            <ns3:hr>138</ns3:hr>
          </ns3:TrackPointExtension>
        </extensions>
      </trkpt>
      <trkpt lat="-22.0094992406666278839111328125" lon="166.4638494886457920074462890625">
        <ele>1098.800048828125</ele>
        <time>2016-08-12T20:39:31.000Z</time>
        <extensions>
          <ns3:TrackPointExtension>
            <ns3:atemp>13.0</ns3:atemp>
            <ns3:hr>138</ns3:hr>
          </ns3:TrackPointExtension>
        </extensions>
      </trkpt>
      <trkpt lat="-22.00948976911604404449462890625" lon="166.463868431746959686279296875">
        <ele>1098.800048828125</ele>
        <time>2016-08-12T20:39:32.000Z</time>
        <extensions>
          <ns3:TrackPointExtension>
            <ns3:atemp>14.0</ns3:atemp>
            <ns3:hr>139</ns3:hr>
          </ns3:TrackPointExtension>
        </extensions>
      </trkpt>
      <trkpt lat="-22.009477950632572174072265625" lon="166.46388963796198368072509765625">
        <ele>1099</ele>
        <time>2016-08-12T20:39:33.000Z</time>
        <extensions>
          <ns3:TrackPointExtension>
            <ns3:atemp>14.0</ns3:atemp>
            <ns3:hr>139</ns3:hr>
          </ns3:TrackPointExtension>
        </extensions>
      </trkpt>
      <trkpt lat="-22.0094677247107028961181640625" lon="166.46390992216765880584716796875">
        <ele>1099.199951171875</ele>
        <time>2016-08-12T20:39:34.000Z</time>
        <extensions>
          <ns3:TrackPointExtension>
            <ns3:atemp>14.0</ns3:atemp>
            <ns3:hr>140</ns3:hr>
          </ns3:TrackPointExtension>
        </extensions>
      </trkpt>
      <trkpt lat="-22.009457163512706756591796875" lon="166.46392978727817535400390625">
        <ele>1099</ele>
        <time>2016-08-12T20:39:35.000Z</time>
        <extensions>
          <ns3:TrackPointExtension>
            <ns3:atemp>14.0</ns3:atemp>
            <ns3:hr>140</ns3:hr>
          </ns3:TrackPointExtension>
        </extensions>
      </trkpt>
      <trkpt lat="-22.0094486139714717864990234375" lon="166.46394856274127960205078125">
        <ele>1099.199951171875</ele>
        <time>2016-08-12T20:39:36.000Z</time>
        <extensions>
          <ns3:TrackPointExtension>
            <ns3:atemp>14.0</ns3:atemp>
            <ns3:hr>140</ns3:hr>
          </ns3:TrackPointExtension>
        </extensions>
      </trkpt>
      <trkpt lat="-22.00944450683891773223876953125" lon="166.46396541036665439605712890625">
        <ele>1099.199951171875</ele>
        <time>2016-08-12T20:39:37.000Z</time>
        <extensions>
          <ns3:TrackPointExtension>
            <ns3:atemp>14.0</ns3:atemp>
            <ns3:hr>140</ns3:hr>
          </ns3:TrackPointExtension>
        </extensions>
      </trkpt>
      <trkpt lat="-22.0094388909637928009033203125" lon="166.46398787386715412139892578125">
        <ele>1099.199951171875</ele>
        <time>2016-08-12T20:39:38.000Z</time>
        <extensions>
          <ns3:TrackPointExtension>
            <ns3:atemp>14.0</ns3:atemp>
            <ns3:hr>141</ns3:hr>
          </ns3:TrackPointExtension>
        </extensions>
      </trkpt>
      <trkpt lat="-22.00943511910736560821533203125" lon="166.4640144445002079010009765625">
        <ele>1099.199951171875</ele>
        <time>2016-08-12T20:39:39.000Z</time>
        <extensions>
          <ns3:TrackPointExtension>
            <ns3:atemp>14.0</ns3:atemp>
            <ns3:hr>141</ns3:hr>
          </ns3:TrackPointExtension>
        </extensions>
      </trkpt>
      <trkpt lat="-22.00943914242088794708251953125" lon="166.46404202096164226531982421875">
        <ele>1099.4000244140625</ele>
        <time>2016-08-12T20:39:40.000Z</time>
        <extensions>
          <ns3:TrackPointExtension>
            <ns3:atemp>14.0</ns3:atemp>
            <ns3:hr>141</ns3:hr>
          </ns3:TrackPointExtension>
        </extensions>
      </trkpt>
      <trkpt lat="-22.0094398967921733856201171875" lon="166.4640660770237445831298828125">
        <ele>1099.4000244140625</ele>
        <time>2016-08-12T20:39:41.000Z</time>
        <extensions>
          <ns3:TrackPointExtension>
            <ns3:atemp>14.0</ns3:atemp>
            <ns3:hr>141</ns3:hr>
          </ns3:TrackPointExtension>
        </extensions>
      </trkpt>
      <trkpt lat="-22.009441070258617401123046875" lon="166.464089713990688323974609375">
        <ele>1099.4000244140625</ele>
        <time>2016-08-12T20:39:42.000Z</time>
        <extensions>
          <ns3:TrackPointExtension>
            <ns3:atemp>14.0</ns3:atemp>
            <ns3:hr>142</ns3:hr>
          </ns3:TrackPointExtension>
        </extensions>
      </trkpt>
      <trkpt lat="-22.00944333337247371673583984375" lon="166.464109830558300018310546875">
        <ele>1099.5999755859375</ele>
        <time>2016-08-12T20:39:43.000Z</time>
        <extensions>
          <ns3:TrackPointExtension>
            <ns3:atemp>14.0</ns3:atemp>
            <ns3:hr>141</ns3:hr>
          </ns3:TrackPointExtension>
        </extensions>
      </trkpt>
      <trkpt lat="-22.00944081880152225494384765625" lon="166.4641361497342586517333984375">
        <ele>1099.800048828125</ele>
        <time>2016-08-12T20:39:44.000Z</time>
        <extensions>
          <ns3:TrackPointExtension>
            <ns3:atemp>14.0</ns3:atemp>
            <ns3:hr>142</ns3:hr>
          </ns3:TrackPointExtension>
        </extensions>
      </trkpt>
      <trkpt lat="-22.00943696312606334686279296875" lon="166.46415953524410724639892578125">
        <ele>1099.800048828125</ele>
        <time>2016-08-12T20:39:45.000Z</time>
        <extensions>
          <ns3:TrackPointExtension>
            <ns3:atemp>14.0</ns3:atemp>
            <ns3:hr>141</ns3:hr>
          </ns3:TrackPointExtension>
        </extensions>
      </trkpt>
      <trkpt lat="-22.009431682527065277099609375" lon="166.4641827531158924102783203125">
        <ele>1099.800048828125</ele>
        <time>2016-08-12T20:39:46.000Z</time>
        <extensions>
          <ns3:TrackPointExtension>
            <ns3:atemp>14.0</ns3:atemp>
            <ns3:hr>141</ns3:hr>
          </ns3:TrackPointExtension>
        </extensions>
      </trkpt>
      <trkpt lat="-22.0094254799187183380126953125" lon="166.46420815028250217437744140625">
        <ele>1100</ele>
        <time>2016-08-12T20:39:47.000Z</time>
        <extensions>
          <ns3:TrackPointExtension>
            <ns3:atemp>14.0</ns3:atemp>
            <ns3:hr>141</ns3:hr>
          </ns3:TrackPointExtension>
        </extensions>
      </trkpt>
      <trkpt lat="-22.009419612586498260498046875" lon="166.464231200516223907470703125">
        <ele>1100</ele>
        <time>2016-08-12T20:39:48.000Z</time>
        <extensions>
          <ns3:TrackPointExtension>
            <ns3:atemp>14.0</ns3:atemp>
            <ns3:hr>141</ns3:hr>
          </ns3:TrackPointExtension>
        </extensions>
      </trkpt>
      <trkpt lat="-22.00941433198750019073486328125" lon="166.4642588607966899871826171875">
        <ele>1099.800048828125</ele>
        <time>2016-08-12T20:39:49.000Z</time>
        <extensions>
          <ns3:TrackPointExtension>
            <ns3:atemp>14.0</ns3:atemp>
            <ns3:hr>141</ns3:hr>
          </ns3:TrackPointExtension>
        </extensions>
      </trkpt>
      <trkpt lat="-22.00940963812172412872314453125" lon="166.4642870239913463592529296875">
        <ele>1100</ele>
        <time>2016-08-12T20:39:50.000Z</time>
        <extensions>
          <ns3:TrackPointExtension>
            <ns3:atemp>14.0</ns3:atemp>
            <ns3:hr>141</ns3:hr>
          </ns3:TrackPointExtension>
        </extensions>
      </trkpt>
      <trkpt lat="-22.00940452516078948974609375" lon="166.46431091241538524627685546875">
        <ele>1100.199951171875</ele>
        <time>2016-08-12T20:39:51.000Z</time>
        <extensions>
          <ns3:TrackPointExtension>
            <ns3:atemp>14.0</ns3:atemp>
            <ns3:hr>141</ns3:hr>
          </ns3:TrackPointExtension>
        </extensions>
      </trkpt>
      <trkpt lat="-22.00939773581922054290771484375" lon="166.4643393270671367645263671875">
        <ele>1100.199951171875</ele>
        <time>2016-08-12T20:39:52.000Z</time>
        <extensions>
          <ns3:TrackPointExtension>
            <ns3:atemp>14.0</ns3:atemp>
            <ns3:hr>141</ns3:hr>
          </ns3:TrackPointExtension>
        </extensions>
      </trkpt>
      <trkpt lat="-22.00939069502055644989013671875" lon="166.46436371840536594390869140625">
        <ele>1100.199951171875</ele>
        <time>2016-08-12T20:39:53.000Z</time>
        <extensions>
          <ns3:TrackPointExtension>
            <ns3:atemp>14.0</ns3:atemp>
            <ns3:hr>141</ns3:hr>
          </ns3:TrackPointExtension>
        </extensions>
      </trkpt>
      <trkpt lat="-22.00938415713608264923095703125" lon="166.4643824100494384765625">
        <ele>1100.199951171875</ele>
        <time>2016-08-12T20:39:54.000Z</time>
        <extensions>
          <ns3:TrackPointExtension>
            <ns3:atemp>14.0</ns3:atemp>
            <ns3:hr>141</ns3:hr>
          </ns3:TrackPointExtension>
        </extensions>
      </trkpt>
      <trkpt lat="-22.00937627814710140228271484375" lon="166.4644025266170501708984375">
        <ele>1100.199951171875</ele>
        <time>2016-08-12T20:39:55.000Z</time>
        <extensions>
          <ns3:TrackPointExtension>
            <ns3:atemp>14.0</ns3:atemp>
            <ns3:hr>141</ns3:hr>
          </ns3:TrackPointExtension>
        </extensions>
      </trkpt>
      <trkpt lat="-22.0093711651861667633056640625" lon="166.46442239172756671905517578125">
        <ele>1100</ele>
        <time>2016-08-12T20:39:56.000Z</time>
        <extensions>
          <ns3:TrackPointExtension>
            <ns3:atemp>14.0</ns3:atemp>
            <ns3:hr>140</ns3:hr>
          </ns3:TrackPointExtension>
        </extensions>
      </trkpt>
      <trkpt lat="-22.0093694888055324554443359375" lon="166.46443982608616352081298828125">
        <ele>1100</ele>
        <time>2016-08-12T20:39:57.000Z</time>
        <extensions>
          <ns3:TrackPointExtension>
            <ns3:atemp>14.0</ns3:atemp>
            <ns3:hr>140</ns3:hr>
          </ns3:TrackPointExtension>
        </extensions>
      </trkpt>
      <trkpt lat="-22.009370662271976470947265625" lon="166.4644553326070308685302734375">
        <ele>1100</ele>
        <time>2016-08-12T20:39:58.000Z</time>
        <extensions>
          <ns3:TrackPointExtension>
            <ns3:atemp>14.0</ns3:atemp>
            <ns3:hr>140</ns3:hr>
          </ns3:TrackPointExtension>
        </extensions>
      </trkpt>
      <trkpt lat="-22.009373344480991363525390625" lon="166.4644694142043590545654296875">
        <ele>1100</ele>
        <time>2016-08-12T20:39:59.000Z</time>
        <extensions>
          <ns3:TrackPointExtension>
            <ns3:atemp>14.0</ns3:atemp>
            <ns3:hr>140</ns3:hr>
          </ns3:TrackPointExtension>
        </extensions>
      </trkpt>
      <trkpt lat="-22.00937644578516483306884765625" lon="166.464483998715877532958984375">
        <ele>1099.800048828125</ele>
        <time>2016-08-12T20:40:00.000Z</time>
        <extensions>
          <ns3:TrackPointExtension>
            <ns3:atemp>14.0</ns3:atemp>
            <ns3:hr>139</ns3:hr>
          </ns3:TrackPointExtension>
        </extensions>
      </trkpt>
      <trkpt lat="-22.00937761925160884857177734375" lon="166.4644962362945079803466796875">
        <ele>1099.800048828125</ele>
        <time>2016-08-12T20:40:01.000Z</time>
        <extensions>
          <ns3:TrackPointExtension>
            <ns3:atemp>14.0</ns3:atemp>
            <ns3:hr>139</ns3:hr>
          </ns3:TrackPointExtension>
        </extensions>
      </trkpt>
      <trkpt lat="-22.0093778707087039947509765625" lon="166.46450604312121868133544921875">
        <ele>1099.800048828125</ele>
        <time>2016-08-12T20:40:02.000Z</time>
        <extensions>
          <ns3:TrackPointExtension>
            <ns3:atemp>14.0</ns3:atemp>
            <ns3:hr>138</ns3:hr>
          </ns3:TrackPointExtension>
        </extensions>
      </trkpt>
      <trkpt lat="-22.00937996618449687957763671875" lon="166.46451258100569248199462890625">
        <ele>1099.800048828125</ele>
        <time>2016-08-12T20:40:03.000Z</time>
        <extensions>
          <ns3:TrackPointExtension>
            <ns3:atemp>14.0</ns3:atemp>
            <ns3:hr>138</ns3:hr>
          </ns3:TrackPointExtension>
        </extensions>
      </trkpt>
      <trkpt lat="-22.0093849115073680877685546875" lon="166.464524567127227783203125">
        <ele>1099.800048828125</ele>
        <time>2016-08-12T20:40:04.000Z</time>
        <extensions>
          <ns3:TrackPointExtension>
            <ns3:atemp>14.0</ns3:atemp>
            <ns3:hr>137</ns3:hr>
          </ns3:TrackPointExtension>
        </extensions>
      </trkpt>
      <trkpt lat="-22.00939019210636615753173828125" lon="166.4645351283252239227294921875">
        <ele>1099.800048828125</ele>
        <time>2016-08-12T20:40:05.000Z</time>
        <extensions>
          <ns3:TrackPointExtension>
            <ns3:atemp>14.0</ns3:atemp>
            <ns3:hr>136</ns3:hr>
          </ns3:TrackPointExtension>
        </extensions>
      </trkpt>
      <trkpt lat="-22.00939086265861988067626953125" lon="166.4645357988774776458740234375">
        <ele>1100</ele>
        <time>2016-08-12T20:40:06.000Z</time>
        <extensions>
          <ns3:TrackPointExtension>
            <ns3:atemp>14.0</ns3:atemp>
            <ns3:hr>136</ns3:hr>
          </ns3:TrackPointExtension>
        </extensions>
      </trkpt>
      <trkpt lat="-22.00939186848700046539306640625" lon="166.46453118883073329925537109375">
        <ele>1100</ele>
        <time>2016-08-12T20:40:07.000Z</time>
        <extensions>
          <ns3:TrackPointExtension>
            <ns3:atemp>14.0</ns3:atemp>
            <ns3:hr>135</ns3:hr>
          </ns3:TrackPointExtension>
        </extensions>
      </trkpt>
      <trkpt lat="-22.0093929581344127655029296875" lon="166.46452783606946468353271484375">
        <ele>1100</ele>
        <time>2016-08-12T20:40:08.000Z</time>
        <extensions>
          <ns3:TrackPointExtension>
            <ns3:atemp>14.0</ns3:atemp>
            <ns3:hr>135</ns3:hr>
          </ns3:TrackPointExtension>
        </extensions>
      </trkpt>
      <trkpt lat="-22.0093946345150470733642578125" lon="166.46452364511787891387939453125">
        <ele>1100</ele>
        <time>2016-08-12T20:40:09.000Z</time>
        <extensions>
          <ns3:TrackPointExtension>
            <ns3:atemp>14.0</ns3:atemp>
            <ns3:hr>135</ns3:hr>
          </ns3:TrackPointExtension>
        </extensions>
      </trkpt>
      <trkpt lat="-22.00939714908599853515625" lon="166.4645200408995151519775390625">
        <ele>1100</ele>
        <time>2016-08-12T20:40:10.000Z</time>
        <extensions>
          <ns3:TrackPointExtension>
            <ns3:atemp>14.0</ns3:atemp>
            <ns3:hr>134</ns3:hr>
          </ns3:TrackPointExtension>
        </extensions>
      </trkpt>
      <trkpt lat="-22.00940259732306003570556640625" lon="166.46451191045343875885009765625">
        <ele>1099.800048828125</ele>
        <time>2016-08-12T20:40:12.000Z</time>
        <extensions>
          <ns3:TrackPointExtension>
            <ns3:atemp>14.0</ns3:atemp>
            <ns3:hr>133</ns3:hr>
          </ns3:TrackPointExtension>
        </extensions>
      </trkpt>
      <trkpt lat="-22.009410224854946136474609375" lon="166.46450436674058437347412109375">
        <ele>1099.800048828125</ele>
        <time>2016-08-12T20:40:13.000Z</time>
        <extensions>
          <ns3:TrackPointExtension>
            <ns3:atemp>14.0</ns3:atemp>
            <ns3:hr>133</ns3:hr>
          </ns3:TrackPointExtension>
        </extensions>
      </trkpt>
      <trkpt lat="-22.0094150863587856292724609375" lon="166.46449950523674488067626953125">
        <ele>1099.5999755859375</ele>
        <time>2016-08-12T20:40:14.000Z</time>
        <extensions>
          <ns3:TrackPointExtension>
            <ns3:atemp>14.0</ns3:atemp>
            <ns3:hr>132</ns3:hr>
          </ns3:TrackPointExtension>
        </extensions>
      </trkpt>
      <trkpt lat="-22.0094204507768154144287109375" lon="166.46449514664709568023681640625">
        <ele>1099.5999755859375</ele>
        <time>2016-08-12T20:40:15.000Z</time>
        <extensions>
          <ns3:TrackPointExtension>
            <ns3:atemp>14.0</ns3:atemp>
            <ns3:hr>132</ns3:hr>
          </ns3:TrackPointExtension>
        </extensions>
      </trkpt>
      <trkpt lat="-22.0094239711761474609375" lon="166.46449196152389049530029296875">
        <ele>1099.5999755859375</ele>
        <time>2016-08-12T20:40:16.000Z</time>
        <extensions>
          <ns3:TrackPointExtension>
            <ns3:atemp>14.0</ns3:atemp>
            <ns3:hr>132</ns3:hr>
          </ns3:TrackPointExtension>
        </extensions>
      </trkpt>
      <trkpt lat="-22.0094268210232257843017578125" lon="166.46448894403874874114990234375">
        <ele>1099.5999755859375</ele>
        <time>2016-08-12T20:40:17.000Z</time>
        <extensions>
          <ns3:TrackPointExtension>
            <ns3:atemp>14.0</ns3:atemp>
            <ns3:hr>132</ns3:hr>
          </ns3:TrackPointExtension>
        </extensions>
      </trkpt>
      <trkpt lat="-22.00942891649901866912841796875" lon="166.4644915424287319183349609375">
        <ele>1099.5999755859375</ele>
        <time>2016-08-12T20:40:18.000Z</time>
        <extensions>
          <ns3:TrackPointExtension>
            <ns3:atemp>14.0</ns3:atemp>
            <ns3:hr>131</ns3:hr>
          </ns3:TrackPointExtension>
        </extensions>
      </trkpt>
      <trkpt lat="-22.00942908413708209991455078125" lon="166.464493386447429656982421875">
        <ele>1099.5999755859375</ele>
        <time>2016-08-12T20:40:20.000Z</time>
        <extensions>
          <ns3:TrackPointExtension>
            <ns3:atemp>14.0</ns3:atemp>
            <ns3:hr>131</ns3:hr>
          </ns3:TrackPointExtension>
        </extensions>
      </trkpt>
      <trkpt lat="-22.009431011974811553955078125" lon="166.464494727551937103271484375">
        <ele>1099.5999755859375</ele>
        <time>2016-08-12T20:40:21.000Z</time>
        <extensions>
          <ns3:TrackPointExtension>
            <ns3:atemp>14.0</ns3:atemp>
            <ns3:hr>131</ns3:hr>
          </ns3:TrackPointExtension>
        </extensions>
      </trkpt>
      <trkpt lat="-22.0094306766986846923828125" lon="166.4644979126751422882080078125">
        <ele>1099.5999755859375</ele>
        <time>2016-08-12T20:40:23.000Z</time>
        <extensions>
          <ns3:TrackPointExtension>
            <ns3:atemp>15.0</ns3:atemp>
            <ns3:hr>131</ns3:hr>
          </ns3:TrackPointExtension>
        </extensions>
      </trkpt>
      <trkpt lat="-22.00942908413708209991455078125" lon="166.4644992537796497344970703125">
        <ele>1099.5999755859375</ele>
        <time>2016-08-12T20:40:24.000Z</time>
        <extensions>
          <ns3:TrackPointExtension>
            <ns3:atemp>15.0</ns3:atemp>
            <ns3:hr>130</ns3:hr>
          </ns3:TrackPointExtension>
        </extensions>
      </trkpt>
      <trkpt lat="-22.0094264857470989227294921875" lon="166.46450101397931575775146484375">
        <ele>1100</ele>
        <time>2016-08-12T20:40:26.000Z</time>
        <extensions>
          <ns3:TrackPointExtension>
            <ns3:atemp>15.0</ns3:atemp>
            <ns3:hr>131</ns3:hr>
          </ns3:TrackPointExtension>
        </extensions>
      </trkpt>
      <trkpt lat="-22.00943143106997013092041015625" lon="166.46450051106512546539306640625">
        <ele>1100</ele>
        <time>2016-08-12T20:40:27.000Z</time>
        <extensions>
          <ns3:TrackPointExtension>
            <ns3:atemp>15.0</ns3:atemp>
            <ns3:hr>130</ns3:hr>
          </ns3:TrackPointExtension>
        </extensions>
      </trkpt>
      <trkpt lat="-22.00944014824926853179931640625" lon="166.46449531428515911102294921875">
        <ele>1100</ele>
        <time>2016-08-12T20:40:28.000Z</time>
        <extensions>
          <ns3:TrackPointExtension>
            <ns3:atemp>15.0</ns3:atemp>
            <ns3:hr>130</ns3:hr>
          </ns3:TrackPointExtension>
        </extensions>
      </trkpt>
      <trkpt lat="-22.009441070258617401123046875" lon="166.4644928835332393646240234375">
        <ele>1100</ele>
        <time>2016-08-12T20:40:29.000Z</time>
        <extensions>
          <ns3:TrackPointExtension>
            <ns3:atemp>15.0</ns3:atemp>
            <ns3:hr>129</ns3:hr>
          </ns3:TrackPointExtension>
        </extensions>
      </trkpt>
      <trkpt lat="-22.00943914242088794708251953125" lon="166.4644935540854930877685546875">
        <ele>1100</ele>
        <time>2016-08-12T20:40:30.000Z</time>
        <extensions>
          <ns3:TrackPointExtension>
            <ns3:atemp>15.0</ns3:atemp>
            <ns3:hr>129</ns3:hr>
          </ns3:TrackPointExtension>
        </extensions>
      </trkpt>
      <trkpt lat="-22.009439058601856231689453125" lon="166.4644918777048587799072265625">
        <ele>1100</ele>
        <time>2016-08-12T20:40:32.000Z</time>
        <extensions>
          <ns3:TrackPointExtension>
            <ns3:atemp>15.0</ns3:atemp>
            <ns3:hr>128</ns3:hr>
          </ns3:TrackPointExtension>
        </extensions>
      </trkpt>
      <trkpt lat="-22.0094372145831584930419921875" lon="166.46449129097163677215576171875">
        <ele>1100</ele>
        <time>2016-08-12T20:40:33.000Z</time>
        <extensions>
          <ns3:TrackPointExtension>
            <ns3:atemp>15.0</ns3:atemp>
            <ns3:hr>127</ns3:hr>
          </ns3:TrackPointExtension>
        </extensions>
      </trkpt>
      <trkpt lat="-22.009438388049602508544921875" lon="166.46449078805744647979736328125">
        <ele>1099.800048828125</ele>
        <time>2016-08-12T20:40:34.000Z</time>
        <extensions>
          <ns3:TrackPointExtension>
            <ns3:atemp>15.0</ns3:atemp>
            <ns3:hr>127</ns3:hr>
          </ns3:TrackPointExtension>
        </extensions>
      </trkpt>
      <trkpt lat="-22.0094415731728076934814453125" lon="166.464489363133907318115234375">
        <ele>1099.800048828125</ele>
        <time>2016-08-12T20:40:35.000Z</time>
        <extensions>
          <ns3:TrackPointExtension>
            <ns3:atemp>15.0</ns3:atemp>
            <ns3:hr>126</ns3:hr>
          </ns3:TrackPointExtension>
        </extensions>
      </trkpt>
      <trkpt lat="-22.00944333337247371673583984375" lon="166.4644878543913364410400390625">
        <ele>1099.800048828125</ele>
        <time>2016-08-12T20:40:36.000Z</time>
        <extensions>
          <ns3:TrackPointExtension>
            <ns3:atemp>15.0</ns3:atemp>
            <ns3:hr>126</ns3:hr>
          </ns3:TrackPointExtension>
        </extensions>
      </trkpt>
      <trkpt lat="-22.00944534502923488616943359375" lon="166.46448944695293903350830078125">
        <ele>1099.800048828125</ele>
        <time>2016-08-12T20:40:37.000Z</time>
        <extensions>
          <ns3:TrackPointExtension>
            <ns3:atemp>15.0</ns3:atemp>
            <ns3:hr>125</ns3:hr>
          </ns3:TrackPointExtension>
        </extensions>
      </trkpt>
      <trkpt lat="-22.00944735668599605560302734375" lon="166.4644888602197170257568359375">
        <ele>1099.800048828125</ele>
        <time>2016-08-12T20:40:39.000Z</time>
        <extensions>
          <ns3:TrackPointExtension>
            <ns3:atemp>15.0</ns3:atemp>
            <ns3:hr>124</ns3:hr>
          </ns3:TrackPointExtension>
        </extensions>
      </trkpt>
      <trkpt lat="-22.009446434676647186279296875" lon="166.46448911167681217193603515625">
        <ele>1100</ele>
        <time>2016-08-12T20:40:40.000Z</time>
        <extensions>
          <ns3:TrackPointExtension>
            <ns3:atemp>15.0</ns3:atemp>
            <ns3:hr>123</ns3:hr>
          </ns3:TrackPointExtension>
        </extensions>
      </trkpt>
      <trkpt lat="-22.00944802723824977874755859375" lon="166.464490033686161041259765625">
        <ele>1100</ele>
        <time>2016-08-12T20:40:41.000Z</time>
        <extensions>
          <ns3:TrackPointExtension>
            <ns3:atemp>15.0</ns3:atemp>
            <ns3:hr>122</ns3:hr>
          </ns3:TrackPointExtension>
        </extensions>
      </trkpt>
      <trkpt lat="-22.00944836251437664031982421875" lon="166.4644891954958438873291015625">
        <ele>1100</ele>
        <time>2016-08-12T20:40:42.000Z</time>
        <extensions>
          <ns3:TrackPointExtension>
            <ns3:atemp>15.0</ns3:atemp>
            <ns3:hr>121</ns3:hr>
          </ns3:TrackPointExtension>
        </extensions>
      </trkpt>
      <trkpt lat="-22.009448446333408355712890625" lon="166.4644896984100341796875">
        <ele>1100</ele>
        <time>2016-08-12T20:40:43.000Z</time>
        <extensions>
          <ns3:TrackPointExtension>
            <ns3:atemp>15.0</ns3:atemp>
            <ns3:hr>121</ns3:hr>
          </ns3:TrackPointExtension>
        </extensions>
      </trkpt>
      <trkpt lat="-22.00944836251437664031982421875" lon="166.4644891954958438873291015625">
        <ele>1100</ele>
        <time>2016-08-12T20:40:44.000Z</time>
        <extensions>
          <ns3:TrackPointExtension>
            <ns3:atemp>15.0</ns3:atemp>
            <ns3:hr>120</ns3:hr>
          </ns3:TrackPointExtension>
        </extensions>
      </trkpt>
      <trkpt lat="-22.009449116885662078857421875" lon="166.46448911167681217193603515625">
        <ele>1100</ele>
        <time>2016-08-12T20:40:45.000Z</time>
        <extensions>
          <ns3:TrackPointExtension>
            <ns3:atemp>15.0</ns3:atemp>
            <ns3:hr>119</ns3:hr>
          </ns3:TrackPointExtension>
        </extensions>
      </trkpt>
      <trkpt lat="-22.0094486139714717864990234375" lon="166.46448944695293903350830078125">
        <ele>1100</ele>
        <time>2016-08-12T20:40:46.000Z</time>
        <extensions>
          <ns3:TrackPointExtension>
            <ns3:atemp>15.0</ns3:atemp>
            <ns3:hr>119</ns3:hr>
          </ns3:TrackPointExtension>
        </extensions>
      </trkpt>
      <trkpt lat="-22.009448446333408355712890625" lon="166.46448944695293903350830078125">
        <ele>1100</ele>
        <time>2016-08-12T20:40:47.000Z</time>
        <extensions>
          <ns3:TrackPointExtension>
            <ns3:atemp>15.0</ns3:atemp>
            <ns3:hr>119</ns3:hr>
          </ns3:TrackPointExtension>
        </extensions>
      </trkpt>
      <trkpt lat="-22.0094479434192180633544921875" lon="166.464490033686161041259765625">
        <ele>1100</ele>
        <time>2016-08-12T20:40:48.000Z</time>
        <extensions>
          <ns3:TrackPointExtension>
            <ns3:atemp>15.0</ns3:atemp>
            <ns3:hr>119</ns3:hr>
          </ns3:TrackPointExtension>
        </extensions>
      </trkpt>
      <trkpt lat="-22.00944718904793262481689453125" lon="166.4644908718764781951904296875">
        <ele>1100</ele>
        <time>2016-08-12T20:40:49.000Z</time>
        <extensions>
          <ns3:TrackPointExtension>
            <ns3:atemp>15.0</ns3:atemp>
            <ns3:hr>118</ns3:hr>
          </ns3:TrackPointExtension>
        </extensions>
      </trkpt>
      <trkpt lat="-22.0094382204115390777587890625" lon="166.46449296735227108001708984375">
        <ele>1100</ele>
        <time>2016-08-12T20:40:50.000Z</time>
        <extensions>
          <ns3:TrackPointExtension>
            <ns3:atemp>15.0</ns3:atemp>
            <ns3:hr>118</ns3:hr>
          </ns3:TrackPointExtension>
        </extensions>
      </trkpt>
      <trkpt lat="-22.0094311796128749847412109375" lon="166.464495398104190826416015625">
        <ele>1100</ele>
        <time>2016-08-12T20:40:51.000Z</time>
        <extensions>
          <ns3:TrackPointExtension>
            <ns3:atemp>15.0</ns3:atemp>
            <ns3:hr>118</ns3:hr>
          </ns3:TrackPointExtension>
        </extensions>
      </trkpt>
      <trkpt lat="-22.00942472554743289947509765625" lon="166.4644990861415863037109375">
        <ele>1100</ele>
        <time>2016-08-12T20:40:52.000Z</time>
        <extensions>
          <ns3:TrackPointExtension>
            <ns3:atemp>15.0</ns3:atemp>
            <ns3:hr>118</ns3:hr>
          </ns3:TrackPointExtension>
        </extensions>
      </trkpt>
      <trkpt lat="-22.00941617600619792938232421875" lon="166.464507468044757843017578125">
        <ele>1099.800048828125</ele>
        <time>2016-08-12T20:40:53.000Z</time>
        <extensions>
          <ns3:TrackPointExtension>
            <ns3:atemp>15.0</ns3:atemp>
            <ns3:hr>119</ns3:hr>
          </ns3:TrackPointExtension>
        </extensions>
      </trkpt>
      <trkpt lat="-22.0094107277691364288330078125" lon="166.46452012471854686737060546875">
        <ele>1099.800048828125</ele>
        <time>2016-08-12T20:40:54.000Z</time>
        <extensions>
          <ns3:TrackPointExtension>
            <ns3:atemp>15.0</ns3:atemp>
            <ns3:hr>119</ns3:hr>
          </ns3:TrackPointExtension>
        </extensions>
      </trkpt>
      <trkpt lat="-22.0094080455601215362548828125" lon="166.464528255164623260498046875">
        <ele>1100</ele>
        <time>2016-08-12T20:40:55.000Z</time>
        <extensions>
          <ns3:TrackPointExtension>
            <ns3:atemp>15.0</ns3:atemp>
            <ns3:hr>120</ns3:hr>
          </ns3:TrackPointExtension>
        </extensions>
      </trkpt>
      <trkpt lat="-22.009407542645931243896484375" lon="166.46453521214425563812255859375">
        <ele>1100.199951171875</ele>
        <time>2016-08-12T20:40:56.000Z</time>
        <extensions>
          <ns3:TrackPointExtension>
            <ns3:atemp>15.0</ns3:atemp>
            <ns3:hr>120</ns3:hr>
          </ns3:TrackPointExtension>
        </extensions>
      </trkpt>
      <trkpt lat="-22.0094065368175506591796875" lon="166.4645404927432537078857421875">
        <ele>1100.199951171875</ele>
        <time>2016-08-12T20:40:57.000Z</time>
        <extensions>
          <ns3:TrackPointExtension>
            <ns3:atemp>15.0</ns3:atemp>
            <ns3:hr>119</ns3:hr>
          </ns3:TrackPointExtension>
        </extensions>
      </trkpt>
      <trkpt lat="-22.00940343551337718963623046875" lon="166.4645448513329029083251953125">
        <ele>1100.199951171875</ele>
        <time>2016-08-12T20:40:58.000Z</time>
        <extensions>
          <ns3:TrackPointExtension>
            <ns3:atemp>15.0</ns3:atemp>
            <ns3:hr>119</ns3:hr>
          </ns3:TrackPointExtension>
        </extensions>
      </trkpt>
      <trkpt lat="-22.00940586626529693603515625" lon="166.46455164067447185516357421875">
        <ele>1100</ele>
        <time>2016-08-12T20:40:59.000Z</time>
        <extensions>
          <ns3:TrackPointExtension>
            <ns3:atemp>15.0</ns3:atemp>
            <ns3:hr>119</ns3:hr>
          </ns3:TrackPointExtension>
        </extensions>
      </trkpt>
      <trkpt lat="-22.00940762646496295928955078125" lon="166.46455549634993076324462890625">
        <ele>1099.800048828125</ele>
        <time>2016-08-12T20:41:00.000Z</time>
        <extensions>
          <ns3:TrackPointExtension>
            <ns3:atemp>15.0</ns3:atemp>
            <ns3:hr>118</ns3:hr>
          </ns3:TrackPointExtension>
        </extensions>
      </trkpt>
      <trkpt lat="-22.00940947048366069793701171875" lon="166.464556753635406494140625">
        <ele>1099.800048828125</ele>
        <time>2016-08-12T20:41:01.000Z</time>
        <extensions>
          <ns3:TrackPointExtension>
            <ns3:atemp>15.0</ns3:atemp>
            <ns3:hr>118</ns3:hr>
          </ns3:TrackPointExtension>
        </extensions>
      </trkpt>
      <trkpt lat="-22.00940829701721668243408203125" lon="166.4645626209676265716552734375">
        <ele>1099.800048828125</ele>
        <time>2016-08-12T20:41:02.000Z</time>
        <extensions>
          <ns3:TrackPointExtension>
            <ns3:atemp>15.0</ns3:atemp>
            <ns3:hr>118</ns3:hr>
          </ns3:TrackPointExtension>
        </extensions>
      </trkpt>
      <trkpt lat="-22.0094063691794872283935546875" lon="166.46456840448081493377685546875">
        <ele>1099.800048828125</ele>
        <time>2016-08-12T20:41:03.000Z</time>
        <extensions>
          <ns3:TrackPointExtension>
            <ns3:atemp>15.0</ns3:atemp>
            <ns3:hr>117</ns3:hr>
          </ns3:TrackPointExtension>
        </extensions>
      </trkpt>
      <trkpt lat="-22.0094033516943454742431640625" lon="166.4645733498036861419677734375">
        <ele>1099.800048828125</ele>
        <time>2016-08-12T20:41:04.000Z</time>
        <extensions>
          <ns3:TrackPointExtension>
            <ns3:atemp>15.0</ns3:atemp>
            <ns3:hr>117</ns3:hr>
          </ns3:TrackPointExtension>
        </extensions>
      </trkpt>
      <trkpt lat="-22.0094043575227260589599609375" lon="166.4645746909081935882568359375">
        <ele>1099.800048828125</ele>
        <time>2016-08-12T20:41:06.000Z</time>
        <extensions>
          <ns3:TrackPointExtension>
            <ns3:atemp>15.0</ns3:atemp>
            <ns3:hr>116</ns3:hr>
          </ns3:TrackPointExtension>
        </extensions>
      </trkpt>
      <trkpt lat="-22.00940293259918689727783203125" lon="166.4645743556320667266845703125">
        <ele>1099.800048828125</ele>
        <time>2016-08-12T20:41:07.000Z</time>
        <extensions>
          <ns3:TrackPointExtension>
            <ns3:atemp>15.0</ns3:atemp>
            <ns3:hr>115</ns3:hr>
          </ns3:TrackPointExtension>
        </extensions>
      </trkpt>
      <trkpt lat="-22.00940159149467945098876953125" lon="166.46457494236528873443603515625">
        <ele>1099.800048828125</ele>
        <time>2016-08-12T20:41:08.000Z</time>
        <extensions>
          <ns3:TrackPointExtension>
            <ns3:atemp>15.0</ns3:atemp>
            <ns3:hr>115</ns3:hr>
          </ns3:TrackPointExtension>
        </extensions>
      </trkpt>
      <trkpt lat="-22.00940159149467945098876953125" lon="166.46457485854625701904296875">
        <ele>1100</ele>
        <time>2016-08-12T20:41:09.000Z</time>
        <extensions>
          <ns3:TrackPointExtension>
            <ns3:atemp>15.0</ns3:atemp>
            <ns3:hr>114</ns3:hr>
          </ns3:TrackPointExtension>
        </extensions>
      </trkpt>
      <trkpt lat="-22.00940075330436229705810546875" lon="166.464573852717876434326171875">
        <ele>1100</ele>
        <time>2016-08-12T20:41:10.000Z</time>
        <extensions>
          <ns3:TrackPointExtension>
            <ns3:atemp>15.0</ns3:atemp>
            <ns3:hr>114</ns3:hr>
          </ns3:TrackPointExtension>
        </extensions>
      </trkpt>
      <trkpt lat="-22.00940108858048915863037109375" lon="166.46457259543240070343017578125">
        <ele>1100</ele>
        <time>2016-08-12T20:41:11.000Z</time>
        <extensions>
          <ns3:TrackPointExtension>
            <ns3:atemp>15.0</ns3:atemp>
            <ns3:hr>113</ns3:hr>
          </ns3:TrackPointExtension>
        </extensions>
      </trkpt>
      <trkpt lat="-22.00940184295177459716796875" lon="166.4645706675946712493896484375">
        <ele>1100</ele>
        <time>2016-08-12T20:41:12.000Z</time>
        <extensions>
          <ns3:TrackPointExtension>
            <ns3:atemp>15.0</ns3:atemp>
            <ns3:hr>113</ns3:hr>
          </ns3:TrackPointExtension>
        </extensions>
      </trkpt>
      <trkpt lat="-22.0094006694853305816650390625" lon="166.46456949412822723388671875">
        <ele>1100</ele>
        <time>2016-08-12T20:41:13.000Z</time>
        <extensions>
          <ns3:TrackPointExtension>
            <ns3:atemp>15.0</ns3:atemp>
            <ns3:hr>112</ns3:hr>
          </ns3:TrackPointExtension>
        </extensions>
      </trkpt>
      <trkpt lat="-22.0093996636569499969482421875" lon="166.46456924267113208770751953125">
        <ele>1100</ele>
        <time>2016-08-12T20:41:14.000Z</time>
        <extensions>
          <ns3:TrackPointExtension>
            <ns3:atemp>15.0</ns3:atemp>
            <ns3:hr>112</ns3:hr>
          </ns3:TrackPointExtension>
        </extensions>
      </trkpt>
      <trkpt lat="-22.00939857400953769683837890625" lon="166.46456815302371978759765625">
        <ele>1100</ele>
        <time>2016-08-12T20:41:15.000Z</time>
        <extensions>
          <ns3:TrackPointExtension>
            <ns3:atemp>15.0</ns3:atemp>
            <ns3:hr>112</ns3:hr>
          </ns3:TrackPointExtension>
        </extensions>
      </trkpt>
      <trkpt lat="-22.0093986578285694122314453125" lon="166.46456723101437091827392578125">
        <ele>1100</ele>
        <time>2016-08-12T20:41:16.000Z</time>
        <extensions>
          <ns3:TrackPointExtension>
            <ns3:atemp>15.0</ns3:atemp>
            <ns3:hr>111</ns3:hr>
          </ns3:TrackPointExtension>
        </extensions>
      </trkpt>
      <trkpt lat="-22.00939916074275970458984375" lon="166.46456605754792690277099609375">
        <ele>1100</ele>
        <time>2016-08-12T20:41:17.000Z</time>
        <extensions>
          <ns3:TrackPointExtension>
            <ns3:atemp>15.0</ns3:atemp>
            <ns3:hr>111</ns3:hr>
          </ns3:TrackPointExtension>
        </extensions>
      </trkpt>
      <trkpt lat="-22.009397484362125396728515625" lon="166.46456555463373661041259765625">
        <ele>1100</ele>
        <time>2016-08-12T20:41:18.000Z</time>
        <extensions>
          <ns3:TrackPointExtension>
            <ns3:atemp>15.0</ns3:atemp>
            <ns3:hr>111</ns3:hr>
          </ns3:TrackPointExtension>
        </extensions>
      </trkpt>
      <trkpt lat="-22.0093976520001888275146484375" lon="166.46456538699567317962646484375">
        <ele>1100</ele>
        <time>2016-08-12T20:41:19.000Z</time>
        <extensions>
          <ns3:TrackPointExtension>
            <ns3:atemp>15.0</ns3:atemp>
            <ns3:hr>111</ns3:hr>
          </ns3:TrackPointExtension>
        </extensions>
      </trkpt>
      <trkpt lat="-22.00939589180052280426025390625" lon="166.464566476643085479736328125">
        <ele>1100.199951171875</ele>
        <time>2016-08-12T20:41:20.000Z</time>
        <extensions>
          <ns3:TrackPointExtension>
            <ns3:atemp>15.0</ns3:atemp>
            <ns3:hr>111</ns3:hr>
          </ns3:TrackPointExtension>
        </extensions>
      </trkpt>
      <trkpt lat="-22.00939522124826908111572265625" lon="166.46456890739500522613525390625">
        <ele>1100.199951171875</ele>
        <time>2016-08-12T20:41:21.000Z</time>
        <extensions>
          <ns3:TrackPointExtension>
            <ns3:atemp>15.0</ns3:atemp>
            <ns3:hr>111</ns3:hr>
          </ns3:TrackPointExtension>
        </extensions>
      </trkpt>
      <trkpt lat="-22.0093953050673007965087890625" lon="166.46456815302371978759765625">
        <ele>1100</ele>
        <time>2016-08-12T20:41:23.000Z</time>
        <extensions>
          <ns3:TrackPointExtension>
            <ns3:atemp>15.0</ns3:atemp>
            <ns3:hr>112</ns3:hr>
          </ns3:TrackPointExtension>
        </extensions>
      </trkpt>
      <trkpt lat="-22.00939505361020565032958984375" lon="166.46456840448081493377685546875">
        <ele>1100</ele>
        <time>2016-08-12T20:41:24.000Z</time>
        <extensions>
          <ns3:TrackPointExtension>
            <ns3:atemp>15.0</ns3:atemp>
            <ns3:hr>113</ns3:hr>
          </ns3:TrackPointExtension>
        </extensions>
      </trkpt>
      <trkpt lat="-22.00939471833407878875732421875" lon="166.46456890739500522613525390625">
        <ele>1100</ele>
        <time>2016-08-12T20:41:25.000Z</time>
        <extensions>
          <ns3:TrackPointExtension>
            <ns3:atemp>15.0</ns3:atemp>
            <ns3:hr>113</ns3:hr>
          </ns3:TrackPointExtension>
        </extensions>
      </trkpt>
      <trkpt lat="-22.009395472705364227294921875" lon="166.46456907503306865692138671875">
        <ele>1100</ele>
        <time>2016-08-12T20:41:26.000Z</time>
        <extensions>
          <ns3:TrackPointExtension>
            <ns3:atemp>15.0</ns3:atemp>
            <ns3:hr>113</ns3:hr>
          </ns3:TrackPointExtension>
        </extensions>
      </trkpt>
      <trkpt lat="-22.00939421541988849639892578125" lon="166.4645693264901638031005859375">
        <ele>1100</ele>
        <time>2016-08-12T20:41:27.000Z</time>
        <extensions>
          <ns3:TrackPointExtension>
            <ns3:atemp>15.0</ns3:atemp>
            <ns3:hr>112</ns3:hr>
          </ns3:TrackPointExtension>
        </extensions>
      </trkpt>
      <trkpt lat="-22.00939379632472991943359375" lon="166.464568488299846649169921875">
        <ele>1100</ele>
        <time>2016-08-12T20:41:28.000Z</time>
        <extensions>
          <ns3:TrackPointExtension>
            <ns3:atemp>15.0</ns3:atemp>
            <ns3:hr>112</ns3:hr>
          </ns3:TrackPointExtension>
        </extensions>
      </trkpt>
      <trkpt lat="-22.00939505361020565032958984375" lon="166.46456706337630748748779296875">
        <ele>1100</ele>
        <time>2016-08-12T20:41:29.000Z</time>
        <extensions>
          <ns3:TrackPointExtension>
            <ns3:atemp>15.0</ns3:atemp>
            <ns3:hr>113</ns3:hr>
          </ns3:TrackPointExtension>
        </extensions>
      </trkpt>
      <trkpt lat="-22.00939555652439594268798828125" lon="166.464567482471466064453125">
        <ele>1100</ele>
        <time>2016-08-12T20:41:30.000Z</time>
        <extensions>
          <ns3:TrackPointExtension>
            <ns3:atemp>15.0</ns3:atemp>
            <ns3:hr>113</ns3:hr>
          </ns3:TrackPointExtension>
        </extensions>
      </trkpt>
      <trkpt lat="-22.00939622707664966583251953125" lon="166.46456547081470489501953125">
        <ele>1100</ele>
        <time>2016-08-12T20:41:31.000Z</time>
        <extensions>
          <ns3:TrackPointExtension>
            <ns3:atemp>15.0</ns3:atemp>
            <ns3:hr>114</ns3:hr>
          </ns3:TrackPointExtension>
        </extensions>
      </trkpt>
      <trkpt lat="-22.00939555652439594268798828125" lon="166.46455700509250164031982421875">
        <ele>1099.800048828125</ele>
        <time>2016-08-12T20:41:32.000Z</time>
        <extensions>
          <ns3:TrackPointExtension>
            <ns3:atemp>15.0</ns3:atemp>
            <ns3:hr>114</ns3:hr>
          </ns3:TrackPointExtension>
        </extensions>
      </trkpt>
      <trkpt lat="-22.00939438305795192718505859375" lon="166.4645475335419178009033203125">
        <ele>1099.800048828125</ele>
        <time>2016-08-12T20:41:33.000Z</time>
        <extensions>
          <ns3:TrackPointExtension>
            <ns3:atemp>15.0</ns3:atemp>
            <ns3:hr>115</ns3:hr>
          </ns3:TrackPointExtension>
        </extensions>
      </trkpt>
      <trkpt lat="-22.009393461048603057861328125" lon="166.46453973837196826934814453125">
        <ele>1099.800048828125</ele>
        <time>2016-08-12T20:41:34.000Z</time>
        <extensions>
          <ns3:TrackPointExtension>
            <ns3:atemp>15.0</ns3:atemp>
            <ns3:hr>116</ns3:hr>
          </ns3:TrackPointExtension>
        </extensions>
      </trkpt>
      <trkpt lat="-22.00939379632472991943359375" lon="166.46453320048749446868896484375">
        <ele>1099.800048828125</ele>
        <time>2016-08-12T20:41:35.000Z</time>
        <extensions>
          <ns3:TrackPointExtension>
            <ns3:atemp>15.0</ns3:atemp>
            <ns3:hr>116</ns3:hr>
          </ns3:TrackPointExtension>
        </extensions>
      </trkpt>
      <trkpt lat="-22.00939170084893703460693359375" lon="166.4645314402878284454345703125">
        <ele>1099.800048828125</ele>
        <time>2016-08-12T20:41:36.000Z</time>
        <extensions>
          <ns3:TrackPointExtension>
            <ns3:atemp>15.0</ns3:atemp>
            <ns3:hr>116</ns3:hr>
          </ns3:TrackPointExtension>
        </extensions>
      </trkpt>
      <trkpt lat="-22.00939438305795192718505859375" lon="166.464527584612369537353515625">
        <ele>1099.800048828125</ele>
        <time>2016-08-12T20:41:37.000Z</time>
        <extensions>
          <ns3:TrackPointExtension>
            <ns3:atemp>15.0</ns3:atemp>
            <ns3:hr>116</ns3:hr>
          </ns3:TrackPointExtension>
        </extensions>
      </trkpt>
      <trkpt lat="-22.00939572416245937347412109375" lon="166.46452029235661029815673828125">
        <ele>1100</ele>
        <time>2016-08-12T20:41:38.000Z</time>
        <extensions>
          <ns3:TrackPointExtension>
            <ns3:atemp>15.0</ns3:atemp>
            <ns3:hr>116</ns3:hr>
          </ns3:TrackPointExtension>
        </extensions>
      </trkpt>
      <trkpt lat="-22.00939907692372798919677734375" lon="166.4645099826157093048095703125">
        <ele>1100</ele>
        <time>2016-08-12T20:41:39.000Z</time>
        <extensions>
          <ns3:TrackPointExtension>
            <ns3:atemp>15.0</ns3:atemp>
            <ns3:hr>116</ns3:hr>
          </ns3:TrackPointExtension>
        </extensions>
      </trkpt>
      <trkpt lat="-22.00939974747598171234130859375" lon="166.4645046181976795196533203125">
        <ele>1100</ele>
        <time>2016-08-12T20:41:40.000Z</time>
        <extensions>
          <ns3:TrackPointExtension>
            <ns3:atemp>15.0</ns3:atemp>
            <ns3:hr>116</ns3:hr>
          </ns3:TrackPointExtension>
        </extensions>
      </trkpt>
      <trkpt lat="-22.00939639471471309661865234375" lon="166.46450218744575977325439453125">
        <ele>1100</ele>
        <time>2016-08-12T20:41:41.000Z</time>
        <extensions>
          <ns3:TrackPointExtension>
            <ns3:atemp>15.0</ns3:atemp>
            <ns3:hr>116</ns3:hr>
          </ns3:TrackPointExtension>
        </extensions>
      </trkpt>
      <trkpt lat="-22.00939723290503025054931640625" lon="166.46449933759868144989013671875">
        <ele>1100</ele>
        <time>2016-08-12T20:41:43.000Z</time>
        <extensions>
          <ns3:TrackPointExtension>
            <ns3:atemp>15.0</ns3:atemp>
            <ns3:hr>116</ns3:hr>
          </ns3:TrackPointExtension>
        </extensions>
      </trkpt>
      <trkpt lat="-22.00939924456179141998291015625" lon="166.4644990861415863037109375">
        <ele>1100.199951171875</ele>
        <time>2016-08-12T20:41:44.000Z</time>
        <extensions>
          <ns3:TrackPointExtension>
            <ns3:atemp>15.0</ns3:atemp>
            <ns3:hr>116</ns3:hr>
          </ns3:TrackPointExtension>
        </extensions>
      </trkpt>
      <trkpt lat="-22.009400837123394012451171875" lon="166.46450000815093517303466796875">
        <ele>1100.199951171875</ele>
        <time>2016-08-12T20:41:46.000Z</time>
        <extensions>
          <ns3:TrackPointExtension>
            <ns3:atemp>15.0</ns3:atemp>
            <ns3:hr>114</ns3:hr>
          </ns3:TrackPointExtension>
        </extensions>
      </trkpt>
      <trkpt lat="-22.00940276496112346649169921875" lon="166.4644999243319034576416015625">
        <ele>1100.199951171875</ele>
        <time>2016-08-12T20:41:47.000Z</time>
        <extensions>
          <ns3:TrackPointExtension>
            <ns3:atemp>15.0</ns3:atemp>
            <ns3:hr>112</ns3:hr>
          </ns3:TrackPointExtension>
        </extensions>
      </trkpt>
      <trkpt lat="-22.00940578244626522064208984375" lon="166.46450109779834747314453125">
        <ele>1100.199951171875</ele>
        <time>2016-08-12T20:41:48.000Z</time>
        <extensions>
          <ns3:TrackPointExtension>
            <ns3:atemp>15.0</ns3:atemp>
            <ns3:hr>111</ns3:hr>
          </ns3:TrackPointExtension>
        </extensions>
      </trkpt>
      <trkpt lat="-22.00940645299851894378662109375" lon="166.464503109455108642578125">
        <ele>1100.199951171875</ele>
        <time>2016-08-12T20:41:50.000Z</time>
        <extensions>
          <ns3:TrackPointExtension>
            <ns3:atemp>15.0</ns3:atemp>
            <ns3:hr>110</ns3:hr>
          </ns3:TrackPointExtension>
        </extensions>
      </trkpt>
      <trkpt lat="-22.00940729118883609771728515625" lon="166.464503444731235504150390625">
        <ele>1100.199951171875</ele>
        <time>2016-08-12T20:41:51.000Z</time>
        <extensions>
          <ns3:TrackPointExtension>
            <ns3:atemp>15.0</ns3:atemp>
            <ns3:hr>111</ns3:hr>
          </ns3:TrackPointExtension>
        </extensions>
      </trkpt>
      <trkpt lat="-22.0094083808362483978271484375" lon="166.4645042829215526580810546875">
        <ele>1100</ele>
        <time>2016-08-12T20:41:52.000Z</time>
        <extensions>
          <ns3:TrackPointExtension>
            <ns3:atemp>15.0</ns3:atemp>
            <ns3:hr>111</ns3:hr>
          </ns3:TrackPointExtension>
        </extensions>
      </trkpt>
      <trkpt lat="-22.00940863229334354400634765625" lon="166.46450386382639408111572265625">
        <ele>1100</ele>
        <time>2016-08-12T20:41:53.000Z</time>
        <extensions>
          <ns3:TrackPointExtension>
            <ns3:atemp>15.0</ns3:atemp>
            <ns3:hr>110</ns3:hr>
          </ns3:TrackPointExtension>
        </extensions>
      </trkpt>
      <trkpt lat="-22.0094092190265655517578125" lon="166.46450352855026721954345703125">
        <ele>1100.199951171875</ele>
        <time>2016-08-12T20:41:54.000Z</time>
        <extensions>
          <ns3:TrackPointExtension>
            <ns3:atemp>15.0</ns3:atemp>
            <ns3:hr>110</ns3:hr>
          </ns3:TrackPointExtension>
        </extensions>
      </trkpt>
      <trkpt lat="-22.00940980575978755950927734375" lon="166.4645022712647914886474609375">
        <ele>1100.199951171875</ele>
        <time>2016-08-12T20:41:55.000Z</time>
        <extensions>
          <ns3:TrackPointExtension>
            <ns3:atemp>15.0</ns3:atemp>
            <ns3:hr>110</ns3:hr>
          </ns3:TrackPointExtension>
        </extensions>
      </trkpt>
      <trkpt lat="-22.009410560131072998046875" lon="166.46450285799801349639892578125">
        <ele>1100</ele>
        <time>2016-08-12T20:41:56.000Z</time>
        <extensions>
          <ns3:TrackPointExtension>
            <ns3:atemp>15.0</ns3:atemp>
            <ns3:hr>110</ns3:hr>
          </ns3:TrackPointExtension>
        </extensions>
      </trkpt>
      <trkpt lat="-22.00941131450235843658447265625" lon="166.4645026065409183502197265625">
        <ele>1100</ele>
        <time>2016-08-12T20:41:57.000Z</time>
        <extensions>
          <ns3:TrackPointExtension>
            <ns3:atemp>15.0</ns3:atemp>
            <ns3:hr>110</ns3:hr>
          </ns3:TrackPointExtension>
        </extensions>
      </trkpt>
      <trkpt lat="-22.0094117335975170135498046875" lon="166.464502103626728057861328125">
        <ele>1100</ele>
        <time>2016-08-12T20:41:58.000Z</time>
        <extensions>
          <ns3:TrackPointExtension>
            <ns3:atemp>15.0</ns3:atemp>
            <ns3:hr>111</ns3:hr>
          </ns3:TrackPointExtension>
        </extensions>
      </trkpt>
      <trkpt lat="-22.0094113983213901519775390625" lon="166.46450218744575977325439453125">
        <ele>1100</ele>
        <time>2016-08-12T20:41:59.000Z</time>
        <extensions>
          <ns3:TrackPointExtension>
            <ns3:atemp>15.0</ns3:atemp>
            <ns3:hr>111</ns3:hr>
          </ns3:TrackPointExtension>
        </extensions>
      </trkpt>
      <trkpt lat="-22.0094087161123752593994140625" lon="166.4645026065409183502197265625">
        <ele>1100</ele>
        <time>2016-08-12T20:42:00.000Z</time>
        <extensions>
          <ns3:TrackPointExtension>
            <ns3:atemp>15.0</ns3:atemp>
            <ns3:hr>111</ns3:hr>
          </ns3:TrackPointExtension>
        </extensions>
      </trkpt>
      <trkpt lat="-22.00940988957881927490234375" lon="166.46450419910252094268798828125">
        <ele>1100</ele>
        <time>2016-08-12T20:42:02.000Z</time>
        <extensions>
          <ns3:TrackPointExtension>
            <ns3:atemp>15.0</ns3:atemp>
            <ns3:hr>111</ns3:hr>
          </ns3:TrackPointExtension>
        </extensions>
      </trkpt>
      <trkpt lat="-22.009410560131072998046875" lon="166.4645052887499332427978515625">
        <ele>1100</ele>
        <time>2016-08-12T20:42:03.000Z</time>
        <extensions>
          <ns3:TrackPointExtension>
            <ns3:atemp>15.0</ns3:atemp>
            <ns3:hr>111</ns3:hr>
          </ns3:TrackPointExtension>
        </extensions>
      </trkpt>
      <trkpt lat="-22.00941265560686588287353515625" lon="166.4645109884440898895263671875">
        <ele>1100</ele>
        <time>2016-08-12T20:42:04.000Z</time>
        <extensions>
          <ns3:TrackPointExtension>
            <ns3:atemp>15.0</ns3:atemp>
            <ns3:hr>111</ns3:hr>
          </ns3:TrackPointExtension>
        </extensions>
      </trkpt>
      <trkpt lat="-22.00941097922623157501220703125" lon="166.46451341919600963592529296875">
        <ele>1100</ele>
        <time>2016-08-12T20:42:05.000Z</time>
        <extensions>
          <ns3:TrackPointExtension>
            <ns3:atemp>15.0</ns3:atemp>
            <ns3:hr>111</ns3:hr>
          </ns3:TrackPointExtension>
        </extensions>
      </trkpt>
      <trkpt lat="-22.00941265560686588287353515625" lon="166.4645106531679630279541015625">
        <ele>1100</ele>
        <time>2016-08-12T20:42:07.000Z</time>
        <extensions>
          <ns3:TrackPointExtension>
            <ns3:atemp>15.0</ns3:atemp>
            <ns3:hr>113</ns3:hr>
          </ns3:TrackPointExtension>
        </extensions>
      </trkpt>
      <trkpt lat="-22.009414248168468475341796875" lon="166.4645103178918361663818359375">
        <ele>1100.199951171875</ele>
        <time>2016-08-12T20:42:09.000Z</time>
        <extensions>
          <ns3:TrackPointExtension>
            <ns3:atemp>15.0</ns3:atemp>
            <ns3:hr>115</ns3:hr>
          </ns3:TrackPointExtension>
        </extensions>
      </trkpt>
      <trkpt lat="-22.009414918720722198486328125" lon="166.46450973115861415863037109375">
        <ele>1100.199951171875</ele>
        <time>2016-08-12T20:42:10.000Z</time>
        <extensions>
          <ns3:TrackPointExtension>
            <ns3:atemp>15.0</ns3:atemp>
            <ns3:hr>114</ns3:hr>
          </ns3:TrackPointExtension>
        </extensions>
      </trkpt>
      <trkpt lat="-22.00941550545394420623779296875" lon="166.46450872533023357391357421875">
        <ele>1100.199951171875</ele>
        <time>2016-08-12T20:42:11.000Z</time>
        <extensions>
          <ns3:TrackPointExtension>
            <ns3:atemp>15.0</ns3:atemp>
            <ns3:hr>113</ns3:hr>
          </ns3:TrackPointExtension>
        </extensions>
      </trkpt>
      <trkpt lat="-22.009416259825229644775390625" lon="166.4645071327686309814453125">
        <ele>1100.199951171875</ele>
        <time>2016-08-12T20:42:12.000Z</time>
        <extensions>
          <ns3:TrackPointExtension>
            <ns3:atemp>15.0</ns3:atemp>
            <ns3:hr>111</ns3:hr>
          </ns3:TrackPointExtension>
        </extensions>
      </trkpt>
      <trkpt lat="-22.00941617600619792938232421875" lon="166.46450654603540897369384765625">
        <ele>1100.199951171875</ele>
        <time>2016-08-12T20:42:13.000Z</time>
        <extensions>
          <ns3:TrackPointExtension>
            <ns3:atemp>15.0</ns3:atemp>
            <ns3:hr>108</ns3:hr>
          </ns3:TrackPointExtension>
        </extensions>
      </trkpt>
      <trkpt lat="-22.00941600836813449859619140625" lon="166.4645052887499332427978515625">
        <ele>1100.199951171875</ele>
        <time>2016-08-12T20:42:14.000Z</time>
        <extensions>
          <ns3:TrackPointExtension>
            <ns3:atemp>15.0</ns3:atemp>
            <ns3:hr>107</ns3:hr>
          </ns3:TrackPointExtension>
        </extensions>
      </trkpt>
      <trkpt lat="-22.00941416434943675994873046875" lon="166.46450000815093517303466796875">
        <ele>1100.199951171875</ele>
        <time>2016-08-12T20:42:15.000Z</time>
        <extensions>
          <ns3:TrackPointExtension>
            <ns3:atemp>16.0</ns3:atemp>
            <ns3:hr>107</ns3:hr>
          </ns3:TrackPointExtension>
        </extensions>
      </trkpt>
      <trkpt lat="-22.00941517017781734466552734375" lon="166.46449347026646137237548828125">
        <ele>1100.199951171875</ele>
        <time>2016-08-12T20:42:16.000Z</time>
        <extensions>
          <ns3:TrackPointExtension>
            <ns3:atemp>16.0</ns3:atemp>
            <ns3:hr>107</ns3:hr>
          </ns3:TrackPointExtension>
        </extensions>
      </trkpt>
      <trkpt lat="-22.00941584073007106781005859375" lon="166.464490033686161041259765625">
        <ele>1100</ele>
        <time>2016-08-12T20:42:17.000Z</time>
        <extensions>
          <ns3:TrackPointExtension>
            <ns3:atemp>16.0</ns3:atemp>
            <ns3:hr>108</ns3:hr>
          </ns3:TrackPointExtension>
        </extensions>
      </trkpt>
      <trkpt lat="-22.00941885821521282196044921875" lon="166.4644885249435901641845703125">
        <ele>1100</ele>
        <time>2016-08-12T20:42:19.000Z</time>
        <extensions>
          <ns3:TrackPointExtension>
            <ns3:atemp>16.0</ns3:atemp>
            <ns3:hr>109</ns3:hr>
          </ns3:TrackPointExtension>
        </extensions>
      </trkpt>
      <trkpt lat="-22.00941986404359340667724609375" lon="166.4644878543913364410400390625">
        <ele>1100</ele>
        <time>2016-08-12T20:42:20.000Z</time>
        <extensions>
          <ns3:TrackPointExtension>
            <ns3:atemp>16.0</ns3:atemp>
            <ns3:hr>108</ns3:hr>
          </ns3:TrackPointExtension>
        </extensions>
      </trkpt>
      <trkpt lat="-22.00942061841487884521484375" lon="166.46448693238198757171630859375">
        <ele>1100</ele>
        <time>2016-08-12T20:42:21.000Z</time>
        <extensions>
          <ns3:TrackPointExtension>
            <ns3:atemp>16.0</ns3:atemp>
            <ns3:hr>106</ns3:hr>
          </ns3:TrackPointExtension>
        </extensions>
      </trkpt>
      <trkpt lat="-22.00942195951938629150390625" lon="166.4644856750965118408203125">
        <ele>1100.199951171875</ele>
        <time>2016-08-12T20:42:22.000Z</time>
        <extensions>
          <ns3:TrackPointExtension>
            <ns3:atemp>16.0</ns3:atemp>
            <ns3:hr>105</ns3:hr>
          </ns3:TrackPointExtension>
        </extensions>
      </trkpt>
      <trkpt lat="-22.00942254625260829925537109375" lon="166.4644855074584484100341796875">
        <ele>1100.199951171875</ele>
        <time>2016-08-12T20:42:23.000Z</time>
        <extensions>
          <ns3:TrackPointExtension>
            <ns3:atemp>16.0</ns3:atemp>
            <ns3:hr>103</ns3:hr>
          </ns3:TrackPointExtension>
        </extensions>
      </trkpt>
      <trkpt lat="-22.00942422263324260711669921875" lon="166.464485339820384979248046875">
        <ele>1100.199951171875</ele>
        <time>2016-08-12T20:42:24.000Z</time>
        <extensions>
          <ns3:TrackPointExtension>
            <ns3:atemp>16.0</ns3:atemp>
            <ns3:hr>103</ns3:hr>
          </ns3:TrackPointExtension>
        </extensions>
      </trkpt>
      <trkpt lat="-22.0094239711761474609375" lon="166.4644861780107021331787109375">
        <ele>1100.199951171875</ele>
        <time>2016-08-12T20:42:25.000Z</time>
        <extensions>
          <ns3:TrackPointExtension>
            <ns3:atemp>16.0</ns3:atemp>
            <ns3:hr>103</ns3:hr>
          </ns3:TrackPointExtension>
        </extensions>
      </trkpt>
      <trkpt lat="-22.00942422263324260711669921875" lon="166.46448726765811443328857421875">
        <ele>1100.199951171875</ele>
        <time>2016-08-12T20:42:26.000Z</time>
        <extensions>
          <ns3:TrackPointExtension>
            <ns3:atemp>16.0</ns3:atemp>
            <ns3:hr>104</ns3:hr>
          </ns3:TrackPointExtension>
        </extensions>
      </trkpt>
      <trkpt lat="-22.00942338444292545318603515625" lon="166.4644868485629558563232421875">
        <ele>1100.199951171875</ele>
        <time>2016-08-12T20:42:27.000Z</time>
        <extensions>
          <ns3:TrackPointExtension>
            <ns3:atemp>16.0</ns3:atemp>
            <ns3:hr>104</ns3:hr>
          </ns3:TrackPointExtension>
        </extensions>
      </trkpt>
      <trkpt lat="-22.00942195951938629150390625" lon="166.464486680924892425537109375">
        <ele>1100.199951171875</ele>
        <time>2016-08-12T20:42:28.000Z</time>
        <extensions>
          <ns3:TrackPointExtension>
            <ns3:atemp>16.0</ns3:atemp>
            <ns3:hr>105</ns3:hr>
          </ns3:TrackPointExtension>
        </extensions>
      </trkpt>
      <trkpt lat="-22.009420953691005706787109375" lon="166.464487351477146148681640625">
        <ele>1100.199951171875</ele>
        <time>2016-08-12T20:42:29.000Z</time>
        <extensions>
          <ns3:TrackPointExtension>
            <ns3:atemp>16.0</ns3:atemp>
            <ns3:hr>106</ns3:hr>
          </ns3:TrackPointExtension>
        </extensions>
      </trkpt>
      <trkpt lat="-22.0094199478626251220703125" lon="166.4644883573055267333984375">
        <ele>1100.199951171875</ele>
        <time>2016-08-12T20:42:30.000Z</time>
        <extensions>
          <ns3:TrackPointExtension>
            <ns3:atemp>16.0</ns3:atemp>
            <ns3:hr>107</ns3:hr>
          </ns3:TrackPointExtension>
        </extensions>
      </trkpt>
      <trkpt lat="-22.0094194449484348297119140625" lon="166.46448894403874874114990234375">
        <ele>1100.199951171875</ele>
        <time>2016-08-12T20:42:31.000Z</time>
        <extensions>
          <ns3:TrackPointExtension>
            <ns3:atemp>16.0</ns3:atemp>
            <ns3:hr>108</ns3:hr>
          </ns3:TrackPointExtension>
        </extensions>
      </trkpt>
      <trkpt lat="-22.0094231329858303070068359375" lon="166.464488692581653594970703125">
        <ele>1100.199951171875</ele>
        <time>2016-08-12T20:42:32.000Z</time>
        <extensions>
          <ns3:TrackPointExtension>
            <ns3:atemp>16.0</ns3:atemp>
            <ns3:hr>108</ns3:hr>
          </ns3:TrackPointExtension>
        </extensions>
      </trkpt>
      <trkpt lat="-22.0094238035380840301513671875" lon="166.46448810584843158721923828125">
        <ele>1100.199951171875</ele>
        <time>2016-08-12T20:42:34.000Z</time>
        <extensions>
          <ns3:TrackPointExtension>
            <ns3:atemp>16.0</ns3:atemp>
            <ns3:hr>109</ns3:hr>
          </ns3:TrackPointExtension>
        </extensions>
      </trkpt>
      <trkpt lat="-22.00942472554743289947509765625" lon="166.4644885249435901641845703125">
        <ele>1100.199951171875</ele>
        <time>2016-08-12T20:42:35.000Z</time>
        <extensions>
          <ns3:TrackPointExtension>
            <ns3:atemp>16.0</ns3:atemp>
            <ns3:hr>109</ns3:hr>
          </ns3:TrackPointExtension>
        </extensions>
      </trkpt>
      <trkpt lat="-22.00942573137581348419189453125" lon="166.46448810584843158721923828125">
        <ele>1100.199951171875</ele>
        <time>2016-08-12T20:42:36.000Z</time>
        <extensions>
          <ns3:TrackPointExtension>
            <ns3:atemp>16.0</ns3:atemp>
            <ns3:hr>110</ns3:hr>
          </ns3:TrackPointExtension>
        </extensions>
      </trkpt>
      <trkpt lat="-22.0094251446425914764404296875" lon="166.46448860876262187957763671875">
        <ele>1100.199951171875</ele>
        <time>2016-08-12T20:42:37.000Z</time>
        <extensions>
          <ns3:TrackPointExtension>
            <ns3:atemp>16.0</ns3:atemp>
            <ns3:hr>110</ns3:hr>
          </ns3:TrackPointExtension>
        </extensions>
      </trkpt>
      <trkpt lat="-22.00942640192806720733642578125" lon="166.46448911167681217193603515625">
        <ele>1100.199951171875</ele>
        <time>2016-08-12T20:42:38.000Z</time>
        <extensions>
          <ns3:TrackPointExtension>
            <ns3:atemp>16.0</ns3:atemp>
            <ns3:hr>110</ns3:hr>
          </ns3:TrackPointExtension>
        </extensions>
      </trkpt>
      <trkpt lat="-22.0094238035380840301513671875" lon="166.46449581719934940338134765625">
        <ele>1100.199951171875</ele>
        <time>2016-08-12T20:42:39.000Z</time>
        <extensions>
          <ns3:TrackPointExtension>
            <ns3:atemp>16.0</ns3:atemp>
            <ns3:hr>110</ns3:hr>
          </ns3:TrackPointExtension>
        </extensions>
      </trkpt>
      <trkpt lat="-22.0094288326799869537353515625" lon="166.464492380619049072265625">
        <ele>1100.199951171875</ele>
        <time>2016-08-12T20:42:40.000Z</time>
        <extensions>
          <ns3:TrackPointExtension>
            <ns3:atemp>16.0</ns3:atemp>
            <ns3:hr>112</ns3:hr>
          </ns3:TrackPointExtension>
        </extensions>
      </trkpt>
      <trkpt lat="-22.00943092815577983856201171875" lon="166.4644898660480976104736328125">
        <ele>1100.199951171875</ele>
        <time>2016-08-12T20:42:41.000Z</time>
        <extensions>
          <ns3:TrackPointExtension>
            <ns3:atemp>16.0</ns3:atemp>
            <ns3:hr>113</ns3:hr>
          </ns3:TrackPointExtension>
        </extensions>
      </trkpt>
      <trkpt lat="-22.009432017803192138671875" lon="166.46448911167681217193603515625">
        <ele>1100.4000244140625</ele>
        <time>2016-08-12T20:42:43.000Z</time>
        <extensions>
          <ns3:TrackPointExtension>
            <ns3:atemp>16.0</ns3:atemp>
            <ns3:hr>115</ns3:hr>
          </ns3:TrackPointExtension>
        </extensions>
      </trkpt>
      <trkpt lat="-22.00943293981254100799560546875" lon="166.46448860876262187957763671875">
        <ele>1100.4000244140625</ele>
        <time>2016-08-12T20:42:44.000Z</time>
        <extensions>
          <ns3:TrackPointExtension>
            <ns3:atemp>16.0</ns3:atemp>
            <ns3:hr>115</ns3:hr>
          </ns3:TrackPointExtension>
        </extensions>
      </trkpt>
      <trkpt lat="-22.009433023631572723388671875" lon="166.4644891954958438873291015625">
        <ele>1100.4000244140625</ele>
        <time>2016-08-12T20:42:45.000Z</time>
        <extensions>
          <ns3:TrackPointExtension>
            <ns3:atemp>16.0</ns3:atemp>
            <ns3:hr>113</ns3:hr>
          </ns3:TrackPointExtension>
        </extensions>
      </trkpt>
      <trkpt lat="-22.00943361036479473114013671875" lon="166.46449045278131961822509765625">
        <ele>1100.4000244140625</ele>
        <time>2016-08-12T20:42:46.000Z</time>
        <extensions>
          <ns3:TrackPointExtension>
            <ns3:atemp>16.0</ns3:atemp>
            <ns3:hr>110</ns3:hr>
          </ns3:TrackPointExtension>
        </extensions>
      </trkpt>
      <trkpt lat="-22.00942724011838436126708984375" lon="166.4644895307719707489013671875">
        <ele>1100.4000244140625</ele>
        <time>2016-08-12T20:42:47.000Z</time>
        <extensions>
          <ns3:TrackPointExtension>
            <ns3:atemp>16.0</ns3:atemp>
            <ns3:hr>109</ns3:hr>
          </ns3:TrackPointExtension>
        </extensions>
      </trkpt>
      <trkpt lat="-22.0094217918813228607177734375" lon="166.4644896984100341796875">
        <ele>1100.4000244140625</ele>
        <time>2016-08-12T20:42:48.000Z</time>
        <extensions>
          <ns3:TrackPointExtension>
            <ns3:atemp>16.0</ns3:atemp>
            <ns3:hr>106</ns3:hr>
          </ns3:TrackPointExtension>
        </extensions>
      </trkpt>
      <trkpt lat="-22.009420283138751983642578125" lon="166.46448626182973384857177734375">
        <ele>1100.5999755859375</ele>
        <time>2016-08-12T20:42:49.000Z</time>
        <extensions>
          <ns3:TrackPointExtension>
            <ns3:atemp>16.0</ns3:atemp>
            <ns3:hr>106</ns3:hr>
          </ns3:TrackPointExtension>
        </extensions>
      </trkpt>
      <trkpt lat="-22.00942061841487884521484375" lon="166.4644834958016872406005859375">
        <ele>1100.5999755859375</ele>
        <time>2016-08-12T20:42:51.000Z</time>
        <extensions>
          <ns3:TrackPointExtension>
            <ns3:atemp>16.0</ns3:atemp>
            <ns3:hr>107</ns3:hr>
          </ns3:TrackPointExtension>
        </extensions>
      </trkpt>
      <trkpt lat="-22.00942103751003742218017578125" lon="166.4644829928874969482421875">
        <ele>1100.5999755859375</ele>
        <time>2016-08-12T20:42:52.000Z</time>
        <extensions>
          <ns3:TrackPointExtension>
            <ns3:atemp>16.0</ns3:atemp>
            <ns3:hr>108</ns3:hr>
          </ns3:TrackPointExtension>
        </extensions>
      </trkpt>
      <trkpt lat="-22.00942086987197399139404296875" lon="166.46448341198265552520751953125">
        <ele>1100.5999755859375</ele>
        <time>2016-08-12T20:42:53.000Z</time>
        <extensions>
          <ns3:TrackPointExtension>
            <ns3:atemp>16.0</ns3:atemp>
            <ns3:hr>109</ns3:hr>
          </ns3:TrackPointExtension>
        </extensions>
      </trkpt>
      <trkpt lat="-22.00942204333841800689697265625" lon="166.46448433399200439453125">
        <ele>1100.5999755859375</ele>
        <time>2016-08-12T20:42:54.000Z</time>
        <extensions>
          <ns3:TrackPointExtension>
            <ns3:atemp>16.0</ns3:atemp>
            <ns3:hr>109</ns3:hr>
          </ns3:TrackPointExtension>
        </extensions>
      </trkpt>
      <trkpt lat="-22.0094224624335765838623046875" lon="166.4644841663539409637451171875">
        <ele>1100.5999755859375</ele>
        <time>2016-08-12T20:42:55.000Z</time>
        <extensions>
          <ns3:TrackPointExtension>
            <ns3:atemp>16.0</ns3:atemp>
            <ns3:hr>109</ns3:hr>
          </ns3:TrackPointExtension>
        </extensions>
      </trkpt>
      <trkpt lat="-22.00942338444292545318603515625" lon="166.464483998715877532958984375">
        <ele>1100.5999755859375</ele>
        <time>2016-08-12T20:42:56.000Z</time>
        <extensions>
          <ns3:TrackPointExtension>
            <ns3:atemp>16.0</ns3:atemp>
            <ns3:hr>108</ns3:hr>
          </ns3:TrackPointExtension>
        </extensions>
      </trkpt>
      <trkpt lat="-22.00942120514810085296630859375" lon="166.4644831605255603790283203125">
        <ele>1100.5999755859375</ele>
        <time>2016-08-12T20:42:57.000Z</time>
        <extensions>
          <ns3:TrackPointExtension>
            <ns3:atemp>16.0</ns3:atemp>
            <ns3:hr>108</ns3:hr>
          </ns3:TrackPointExtension>
        </extensions>
      </trkpt>
      <trkpt lat="-22.009419612586498260498046875" lon="166.464485339820384979248046875">
        <ele>1100.5999755859375</ele>
        <time>2016-08-12T20:42:59.000Z</time>
        <extensions>
          <ns3:TrackPointExtension>
            <ns3:atemp>16.0</ns3:atemp>
            <ns3:hr>109</ns3:hr>
          </ns3:TrackPointExtension>
        </extensions>
      </trkpt>
      <trkpt lat="-22.0094184391200542449951171875" lon="166.46448626182973384857177734375">
        <ele>1100.5999755859375</ele>
        <time>2016-08-12T20:43:00.000Z</time>
        <extensions>
          <ns3:TrackPointExtension>
            <ns3:atemp>16.0</ns3:atemp>
            <ns3:hr>110</ns3:hr>
          </ns3:TrackPointExtension>
        </extensions>
      </trkpt>
      <trkpt lat="-22.00941802002489566802978515625" lon="166.46448777057230472564697265625">
        <ele>1100.4000244140625</ele>
        <time>2016-08-12T20:43:01.000Z</time>
        <extensions>
          <ns3:TrackPointExtension>
            <ns3:atemp>16.0</ns3:atemp>
            <ns3:hr>110</ns3:hr>
          </ns3:TrackPointExtension>
        </extensions>
      </trkpt>
      <trkpt lat="-22.00941718183457851409912109375" lon="166.46449095569550991058349609375">
        <ele>1100.4000244140625</ele>
        <time>2016-08-12T20:43:02.000Z</time>
        <extensions>
          <ns3:TrackPointExtension>
            <ns3:atemp>16.0</ns3:atemp>
            <ns3:hr>109</ns3:hr>
          </ns3:TrackPointExtension>
        </extensions>
      </trkpt>
      <trkpt lat="-22.00941667892038822174072265625" lon="166.464494056999683380126953125">
        <ele>1100.4000244140625</ele>
        <time>2016-08-12T20:43:04.000Z</time>
        <extensions>
          <ns3:TrackPointExtension>
            <ns3:atemp>16.0</ns3:atemp>
            <ns3:hr>106</ns3:hr>
          </ns3:TrackPointExtension>
        </extensions>
      </trkpt>
      <trkpt lat="-22.00941802002489566802978515625" lon="166.46449564956128597259521484375">
        <ele>1100.4000244140625</ele>
        <time>2016-08-12T20:43:05.000Z</time>
        <extensions>
          <ns3:TrackPointExtension>
            <ns3:atemp>16.0</ns3:atemp>
            <ns3:hr>103</ns3:hr>
          </ns3:TrackPointExtension>
        </extensions>
      </trkpt>
      <trkpt lat="-22.0094197802245616912841796875" lon="166.46449799649417400360107421875">
        <ele>1100.4000244140625</ele>
        <time>2016-08-12T20:43:07.000Z</time>
        <extensions>
          <ns3:TrackPointExtension>
            <ns3:atemp>16.0</ns3:atemp>
            <ns3:hr>102</ns3:hr>
          </ns3:TrackPointExtension>
        </extensions>
      </trkpt>
      <trkpt lat="-22.00942154042422771453857421875" lon="166.46449849940836429595947265625">
        <ele>1100.4000244140625</ele>
        <time>2016-08-12T20:43:08.000Z</time>
        <extensions>
          <ns3:TrackPointExtension>
            <ns3:atemp>16.0</ns3:atemp>
            <ns3:hr>102</ns3:hr>
          </ns3:TrackPointExtension>
        </extensions>
      </trkpt>
      <trkpt lat="-22.0094226300716400146484375" lon="166.4644975773990154266357421875">
        <ele>1100.4000244140625</ele>
        <time>2016-08-12T20:43:09.000Z</time>
        <extensions>
          <ns3:TrackPointExtension>
            <ns3:atemp>16.0</ns3:atemp>
            <ns3:hr>103</ns3:hr>
          </ns3:TrackPointExtension>
        </extensions>
      </trkpt>
      <trkpt lat="-22.00942405499517917633056640625" lon="166.46449648775160312652587890625">
        <ele>1100.5999755859375</ele>
        <time>2016-08-12T20:43:10.000Z</time>
        <extensions>
          <ns3:TrackPointExtension>
            <ns3:atemp>16.0</ns3:atemp>
            <ns3:hr>104</ns3:hr>
          </ns3:TrackPointExtension>
        </extensions>
      </trkpt>
      <trkpt lat="-22.00942455790936946868896484375" lon="166.46449548192322254180908203125">
        <ele>1100.4000244140625</ele>
        <time>2016-08-12T20:43:11.000Z</time>
        <extensions>
          <ns3:TrackPointExtension>
            <ns3:atemp>16.0</ns3:atemp>
            <ns3:hr>105</ns3:hr>
          </ns3:TrackPointExtension>
        </extensions>
      </trkpt>
      <trkpt lat="-22.00942606665194034576416015625" lon="166.46449464373290538787841796875">
        <ele>1100.4000244140625</ele>
        <time>2016-08-12T20:43:12.000Z</time>
        <extensions>
          <ns3:TrackPointExtension>
            <ns3:atemp>16.0</ns3:atemp>
            <ns3:hr>106</ns3:hr>
          </ns3:TrackPointExtension>
        </extensions>
      </trkpt>
      <trkpt lat="-22.0094251446425914764404296875" lon="166.46449363790452480316162109375">
        <ele>1100.4000244140625</ele>
        <time>2016-08-12T20:43:13.000Z</time>
        <extensions>
          <ns3:TrackPointExtension>
            <ns3:atemp>16.0</ns3:atemp>
            <ns3:hr>106</ns3:hr>
          </ns3:TrackPointExtension>
        </extensions>
      </trkpt>
      <trkpt lat="-22.00942464172840118408203125" lon="166.4644938893616199493408203125">
        <ele>1100.4000244140625</ele>
        <time>2016-08-12T20:43:14.000Z</time>
        <extensions>
          <ns3:TrackPointExtension>
            <ns3:atemp>16.0</ns3:atemp>
            <ns3:hr>107</ns3:hr>
          </ns3:TrackPointExtension>
        </extensions>
      </trkpt>
      <trkpt lat="-22.00942489318549633026123046875" lon="166.464494056999683380126953125">
        <ele>1100.4000244140625</ele>
        <time>2016-08-12T20:43:15.000Z</time>
        <extensions>
          <ns3:TrackPointExtension>
            <ns3:atemp>16.0</ns3:atemp>
            <ns3:hr>107</ns3:hr>
          </ns3:TrackPointExtension>
        </extensions>
      </trkpt>
      <trkpt lat="-22.00942330062389373779296875" lon="166.46449573338031768798828125">
        <ele>1100.4000244140625</ele>
        <time>2016-08-12T20:43:16.000Z</time>
        <extensions>
          <ns3:TrackPointExtension>
            <ns3:atemp>16.0</ns3:atemp>
            <ns3:hr>107</ns3:hr>
          </ns3:TrackPointExtension>
        </extensions>
      </trkpt>
      <trkpt lat="-22.0094204507768154144287109375" lon="166.46449732594192028045654296875">
        <ele>1100.4000244140625</ele>
        <time>2016-08-12T20:43:17.000Z</time>
        <extensions>
          <ns3:TrackPointExtension>
            <ns3:atemp>16.0</ns3:atemp>
            <ns3:hr>107</ns3:hr>
          </ns3:TrackPointExtension>
        </extensions>
      </trkpt>
      <trkpt lat="-22.00941802002489566802978515625" lon="166.46450034342706203460693359375">
        <ele>1100.4000244140625</ele>
        <time>2016-08-12T20:43:19.000Z</time>
        <extensions>
          <ns3:TrackPointExtension>
            <ns3:atemp>16.0</ns3:atemp>
            <ns3:hr>107</ns3:hr>
          </ns3:TrackPointExtension>
        </extensions>
      </trkpt>
      <trkpt lat="-22.00941584073007106781005859375" lon="166.4645026065409183502197265625">
        <ele>1100.4000244140625</ele>
        <time>2016-08-12T20:43:20.000Z</time>
        <extensions>
          <ns3:TrackPointExtension>
            <ns3:atemp>16.0</ns3:atemp>
            <ns3:hr>108</ns3:hr>
          </ns3:TrackPointExtension>
        </extensions>
      </trkpt>
      <trkpt lat="-22.00941584073007106781005859375" lon="166.46450512111186981201171875">
        <ele>1100.4000244140625</ele>
        <time>2016-08-12T20:43:22.000Z</time>
        <extensions>
          <ns3:TrackPointExtension>
            <ns3:atemp>16.0</ns3:atemp>
            <ns3:hr>108</ns3:hr>
          </ns3:TrackPointExtension>
        </extensions>
      </trkpt>
      <trkpt lat="-22.0094154216349124908447265625" lon="166.46451392211019992828369140625">
        <ele>1100.4000244140625</ele>
        <time>2016-08-12T20:43:23.000Z</time>
        <extensions>
          <ns3:TrackPointExtension>
            <ns3:atemp>16.0</ns3:atemp>
            <ns3:hr>108</ns3:hr>
          </ns3:TrackPointExtension>
        </extensions>
      </trkpt>
      <trkpt lat="-22.0094184391200542449951171875" lon="166.464514173567295074462890625">
        <ele>1100.4000244140625</ele>
        <time>2016-08-12T20:43:24.000Z</time>
        <extensions>
          <ns3:TrackPointExtension>
            <ns3:atemp>16.0</ns3:atemp>
            <ns3:hr>108</ns3:hr>
          </ns3:TrackPointExtension>
        </extensions>
      </trkpt>
      <trkpt lat="-22.00942858122289180755615234375" lon="166.4645071327686309814453125">
        <ele>1100.199951171875</ele>
        <time>2016-08-12T20:43:25.000Z</time>
        <extensions>
          <ns3:TrackPointExtension>
            <ns3:atemp>16.0</ns3:atemp>
            <ns3:hr>109</ns3:hr>
          </ns3:TrackPointExtension>
        </extensions>
      </trkpt>
      <trkpt lat="-22.00943000614643096923828125" lon="166.46450621075928211212158203125">
        <ele>1100.199951171875</ele>
        <time>2016-08-12T20:43:27.000Z</time>
        <extensions>
          <ns3:TrackPointExtension>
            <ns3:atemp>16.0</ns3:atemp>
            <ns3:hr>111</ns3:hr>
          </ns3:TrackPointExtension>
        </extensions>
      </trkpt>
      <trkpt lat="-22.009431011974811553955078125" lon="166.46450512111186981201171875">
        <ele>1100.199951171875</ele>
        <time>2016-08-12T20:43:28.000Z</time>
        <extensions>
          <ns3:TrackPointExtension>
            <ns3:atemp>16.0</ns3:atemp>
            <ns3:hr>112</ns3:hr>
          </ns3:TrackPointExtension>
        </extensions>
      </trkpt>
      <trkpt lat="-22.0094328559935092926025390625" lon="166.46450403146445751190185546875">
        <ele>1100.199951171875</ele>
        <time>2016-08-12T20:43:29.000Z</time>
        <extensions>
          <ns3:TrackPointExtension>
            <ns3:atemp>16.0</ns3:atemp>
            <ns3:hr>113</ns3:hr>
          </ns3:TrackPointExtension>
        </extensions>
      </trkpt>
      <trkpt lat="-22.009435705840587615966796875" lon="166.46450369618833065032958984375">
        <ele>1100.199951171875</ele>
        <time>2016-08-12T20:43:30.000Z</time>
        <extensions>
          <ns3:TrackPointExtension>
            <ns3:atemp>16.0</ns3:atemp>
            <ns3:hr>112</ns3:hr>
          </ns3:TrackPointExtension>
        </extensions>
      </trkpt>
      <trkpt lat="-22.0094382204115390777587890625" lon="166.464503444731235504150390625">
        <ele>1100.199951171875</ele>
        <time>2016-08-12T20:43:32.000Z</time>
        <extensions>
          <ns3:TrackPointExtension>
            <ns3:atemp>16.0</ns3:atemp>
            <ns3:hr>111</ns3:hr>
          </ns3:TrackPointExtension>
        </extensions>
      </trkpt>
      <trkpt lat="-22.00944031588733196258544921875" lon="166.46450243890285491943359375">
        <ele>1100.199951171875</ele>
        <time>2016-08-12T20:43:33.000Z</time>
        <extensions>
          <ns3:TrackPointExtension>
            <ns3:atemp>16.0</ns3:atemp>
            <ns3:hr>111</ns3:hr>
          </ns3:TrackPointExtension>
        </extensions>
      </trkpt>
      <trkpt lat="-22.0094419084489345550537109375" lon="166.46450067870318889617919921875">
        <ele>1100.199951171875</ele>
        <time>2016-08-12T20:43:34.000Z</time>
        <extensions>
          <ns3:TrackPointExtension>
            <ns3:atemp>16.0</ns3:atemp>
            <ns3:hr>111</ns3:hr>
          </ns3:TrackPointExtension>
        </extensions>
      </trkpt>
      <trkpt lat="-22.0094435848295688629150390625" lon="166.46449841558933258056640625">
        <ele>1100.199951171875</ele>
        <time>2016-08-12T20:43:36.000Z</time>
        <extensions>
          <ns3:TrackPointExtension>
            <ns3:atemp>16.0</ns3:atemp>
            <ns3:hr>111</ns3:hr>
          </ns3:TrackPointExtension>
        </extensions>
      </trkpt>
      <trkpt lat="-22.00944601558148860931396484375" lon="166.46449900232255458831787109375">
        <ele>1100.199951171875</ele>
        <time>2016-08-12T20:43:37.000Z</time>
        <extensions>
          <ns3:TrackPointExtension>
            <ns3:atemp>16.0</ns3:atemp>
            <ns3:hr>111</ns3:hr>
          </ns3:TrackPointExtension>
        </extensions>
      </trkpt>
      <trkpt lat="-22.0094467699527740478515625" lon="166.4645002596080303192138671875">
        <ele>1100.199951171875</ele>
        <time>2016-08-12T20:43:39.000Z</time>
        <extensions>
          <ns3:TrackPointExtension>
            <ns3:atemp>16.0</ns3:atemp>
            <ns3:hr>110</ns3:hr>
          </ns3:TrackPointExtension>
        </extensions>
      </trkpt>
      <trkpt lat="-22.00944718904793262481689453125" lon="166.46450051106512546539306640625">
        <ele>1100.199951171875</ele>
        <time>2016-08-12T20:43:40.000Z</time>
        <extensions>
          <ns3:TrackPointExtension>
            <ns3:atemp>16.0</ns3:atemp>
            <ns3:hr>108</ns3:hr>
          </ns3:TrackPointExtension>
        </extensions>
      </trkpt>
      <trkpt lat="-22.00944752432405948638916015625" lon="166.4644999243319034576416015625">
        <ele>1100.199951171875</ele>
        <time>2016-08-12T20:43:41.000Z</time>
        <extensions>
          <ns3:TrackPointExtension>
            <ns3:atemp>16.0</ns3:atemp>
            <ns3:hr>107</ns3:hr>
          </ns3:TrackPointExtension>
        </extensions>
      </trkpt>
      <trkpt lat="-22.00944920070469379425048828125" lon="166.46449950523674488067626953125">
        <ele>1100.199951171875</ele>
        <time>2016-08-12T20:43:42.000Z</time>
        <extensions>
          <ns3:TrackPointExtension>
            <ns3:atemp>16.0</ns3:atemp>
            <ns3:hr>104</ns3:hr>
          </ns3:TrackPointExtension>
        </extensions>
      </trkpt>
      <trkpt lat="-22.00945037417113780975341796875" lon="166.46449950523674488067626953125">
        <ele>1100.199951171875</ele>
        <time>2016-08-12T20:43:43.000Z</time>
        <extensions>
          <ns3:TrackPointExtension>
            <ns3:atemp>16.0</ns3:atemp>
            <ns3:hr>104</ns3:hr>
          </ns3:TrackPointExtension>
        </extensions>
      </trkpt>
      <trkpt lat="-22.00945288874208927154541015625" lon="166.46450017578899860382080078125">
        <ele>1100.199951171875</ele>
        <time>2016-08-12T20:43:44.000Z</time>
        <extensions>
          <ns3:TrackPointExtension>
            <ns3:atemp>16.0</ns3:atemp>
            <ns3:hr>104</ns3:hr>
          </ns3:TrackPointExtension>
        </extensions>
      </trkpt>
      <trkpt lat="-22.00945741496980190277099609375" lon="166.46450051106512546539306640625">
        <ele>1100.199951171875</ele>
        <time>2016-08-12T20:43:46.000Z</time>
        <extensions>
          <ns3:TrackPointExtension>
            <ns3:atemp>16.0</ns3:atemp>
            <ns3:hr>104</ns3:hr>
          </ns3:TrackPointExtension>
        </extensions>
      </trkpt>
      <trkpt lat="-22.00945842079818248748779296875" lon="166.4645019359886646270751953125">
        <ele>1100.199951171875</ele>
        <time>2016-08-12T20:43:48.000Z</time>
        <extensions>
          <ns3:TrackPointExtension>
            <ns3:atemp>16.0</ns3:atemp>
            <ns3:hr>106</ns3:hr>
          </ns3:TrackPointExtension>
        </extensions>
      </trkpt>
      <trkpt lat="-22.009458839893341064453125" lon="166.46450185216963291168212890625">
        <ele>1100.199951171875</ele>
        <time>2016-08-12T20:43:49.000Z</time>
        <extensions>
          <ns3:TrackPointExtension>
            <ns3:atemp>16.0</ns3:atemp>
            <ns3:hr>106</ns3:hr>
          </ns3:TrackPointExtension>
        </extensions>
      </trkpt>
      <trkpt lat="-22.0094590075314044952392578125" lon="166.4645005948841571807861328125">
        <ele>1100.199951171875</ele>
        <time>2016-08-12T20:43:50.000Z</time>
        <extensions>
          <ns3:TrackPointExtension>
            <ns3:atemp>16.0</ns3:atemp>
            <ns3:hr>107</ns3:hr>
          </ns3:TrackPointExtension>
        </extensions>
      </trkpt>
      <trkpt lat="-22.00945741496980190277099609375" lon="166.46450051106512546539306640625">
        <ele>1100.199951171875</ele>
        <time>2016-08-12T20:43:51.000Z</time>
        <extensions>
          <ns3:TrackPointExtension>
            <ns3:atemp>16.0</ns3:atemp>
            <ns3:hr>107</ns3:hr>
          </ns3:TrackPointExtension>
        </extensions>
      </trkpt>
      <trkpt lat="-22.0094576664268970489501953125" lon="166.4645002596080303192138671875">
        <ele>1100.199951171875</ele>
        <time>2016-08-12T20:43:52.000Z</time>
        <extensions>
          <ns3:TrackPointExtension>
            <ns3:atemp>16.0</ns3:atemp>
            <ns3:hr>107</ns3:hr>
          </ns3:TrackPointExtension>
        </extensions>
      </trkpt>
      <trkpt lat="-22.0094574987888336181640625" lon="166.4645016007125377655029296875">
        <ele>1100.199951171875</ele>
        <time>2016-08-12T20:43:53.000Z</time>
        <extensions>
          <ns3:TrackPointExtension>
            <ns3:atemp>16.0</ns3:atemp>
            <ns3:hr>107</ns3:hr>
          </ns3:TrackPointExtension>
        </extensions>
      </trkpt>
      <trkpt lat="-22.0094580017030239105224609375" lon="166.46450084634125232696533203125">
        <ele>1100.4000244140625</ele>
        <time>2016-08-12T20:43:54.000Z</time>
        <extensions>
          <ns3:TrackPointExtension>
            <ns3:atemp>16.0</ns3:atemp>
            <ns3:hr>107</ns3:hr>
          </ns3:TrackPointExtension>
        </extensions>
      </trkpt>
      <trkpt lat="-22.00945959426462650299072265625" lon="166.4645012654364109039306640625">
        <ele>1100.4000244140625</ele>
        <time>2016-08-12T20:43:55.000Z</time>
        <extensions>
          <ns3:TrackPointExtension>
            <ns3:atemp>16.0</ns3:atemp>
            <ns3:hr>107</ns3:hr>
          </ns3:TrackPointExtension>
        </extensions>
      </trkpt>
      <trkpt lat="-22.0094593428075313568115234375" lon="166.4645002596080303192138671875">
        <ele>1100.4000244140625</ele>
        <time>2016-08-12T20:43:56.000Z</time>
        <extensions>
          <ns3:TrackPointExtension>
            <ns3:atemp>16.0</ns3:atemp>
            <ns3:hr>108</ns3:hr>
          </ns3:TrackPointExtension>
        </extensions>
      </trkpt>
      <trkpt lat="-22.009459175169467926025390625" lon="166.46450151689350605010986328125">
        <ele>1100.4000244140625</ele>
        <time>2016-08-12T20:43:57.000Z</time>
        <extensions>
          <ns3:TrackPointExtension>
            <ns3:atemp>16.0</ns3:atemp>
            <ns3:hr>108</ns3:hr>
          </ns3:TrackPointExtension>
        </extensions>
      </trkpt>
      <trkpt lat="-22.0094590075314044952392578125" lon="166.4645005948841571807861328125">
        <ele>1100.4000244140625</ele>
        <time>2016-08-12T20:43:58.000Z</time>
        <extensions>
          <ns3:TrackPointExtension>
            <ns3:atemp>16.0</ns3:atemp>
            <ns3:hr>108</ns3:hr>
          </ns3:TrackPointExtension>
        </extensions>
      </trkpt>
      <trkpt lat="-22.00945942662656307220458984375" lon="166.4645017683506011962890625">
        <ele>1100.4000244140625</ele>
        <time>2016-08-12T20:43:59.000Z</time>
        <extensions>
          <ns3:TrackPointExtension>
            <ns3:atemp>16.0</ns3:atemp>
            <ns3:hr>108</ns3:hr>
          </ns3:TrackPointExtension>
        </extensions>
      </trkpt>
      <trkpt lat="-22.00946026481688022613525390625" lon="166.4645026065409183502197265625">
        <ele>1100.4000244140625</ele>
        <time>2016-08-12T20:44:00.000Z</time>
        <extensions>
          <ns3:TrackPointExtension>
            <ns3:atemp>16.0</ns3:atemp>
            <ns3:hr>109</ns3:hr>
          </ns3:TrackPointExtension>
        </extensions>
      </trkpt>
      <trkpt lat="-22.0094613544642925262451171875" lon="166.46450336091220378875732421875">
        <ele>1100.4000244140625</ele>
        <time>2016-08-12T20:44:01.000Z</time>
        <extensions>
          <ns3:TrackPointExtension>
            <ns3:atemp>16.0</ns3:atemp>
            <ns3:hr>109</ns3:hr>
          </ns3:TrackPointExtension>
        </extensions>
      </trkpt>
      <trkpt lat="-22.009461186826229095458984375" lon="166.4645029418170452117919921875">
        <ele>1100.4000244140625</ele>
        <time>2016-08-12T20:44:02.000Z</time>
        <extensions>
          <ns3:TrackPointExtension>
            <ns3:atemp>16.0</ns3:atemp>
            <ns3:hr>109</ns3:hr>
          </ns3:TrackPointExtension>
        </extensions>
      </trkpt>
      <trkpt lat="-22.009465210139751434326171875" lon="166.4644999243319034576416015625">
        <ele>1100.4000244140625</ele>
        <time>2016-08-12T20:44:03.000Z</time>
        <extensions>
          <ns3:TrackPointExtension>
            <ns3:atemp>16.0</ns3:atemp>
            <ns3:hr>110</ns3:hr>
          </ns3:TrackPointExtension>
        </extensions>
      </trkpt>
      <trkpt lat="-22.009462527930736541748046875" lon="166.4644995890557765960693359375">
        <ele>1100.199951171875</ele>
        <time>2016-08-12T20:44:05.000Z</time>
        <extensions>
          <ns3:TrackPointExtension>
            <ns3:atemp>16.0</ns3:atemp>
            <ns3:hr>111</ns3:hr>
          </ns3:TrackPointExtension>
        </extensions>
      </trkpt>
      <trkpt lat="-22.0094626955687999725341796875" lon="166.4644990861415863037109375">
        <ele>1100.199951171875</ele>
        <time>2016-08-12T20:44:06.000Z</time>
        <extensions>
          <ns3:TrackPointExtension>
            <ns3:atemp>16.0</ns3:atemp>
            <ns3:hr>111</ns3:hr>
          </ns3:TrackPointExtension>
        </extensions>
      </trkpt>
      <trkpt lat="-22.00946085155010223388671875" lon="166.46449883468449115753173828125">
        <ele>1100</ele>
        <time>2016-08-12T20:44:07.000Z</time>
        <extensions>
          <ns3:TrackPointExtension>
            <ns3:atemp>16.0</ns3:atemp>
            <ns3:hr>110</ns3:hr>
          </ns3:TrackPointExtension>
        </extensions>
      </trkpt>
      <trkpt lat="-22.00946026481688022613525390625" lon="166.4644972421228885650634765625">
        <ele>1100.199951171875</ele>
        <time>2016-08-12T20:44:08.000Z</time>
        <extensions>
          <ns3:TrackPointExtension>
            <ns3:atemp>16.0</ns3:atemp>
            <ns3:hr>110</ns3:hr>
          </ns3:TrackPointExtension>
        </extensions>
      </trkpt>
      <trkpt lat="-22.0094590075314044952392578125" lon="166.46449699066579341888427734375">
        <ele>1100.199951171875</ele>
        <time>2016-08-12T20:44:09.000Z</time>
        <extensions>
          <ns3:TrackPointExtension>
            <ns3:atemp>16.0</ns3:atemp>
            <ns3:hr>108</ns3:hr>
          </ns3:TrackPointExtension>
        </extensions>
      </trkpt>
      <trkpt lat="-22.009459175169467926025390625" lon="166.464495398104190826416015625">
        <ele>1100.4000244140625</ele>
        <time>2016-08-12T20:44:10.000Z</time>
        <extensions>
          <ns3:TrackPointExtension>
            <ns3:atemp>16.0</ns3:atemp>
            <ns3:hr>107</ns3:hr>
          </ns3:TrackPointExtension>
        </extensions>
      </trkpt>
      <trkpt lat="-22.0094593428075313568115234375" lon="166.46449481137096881866455078125">
        <ele>1100.4000244140625</ele>
        <time>2016-08-12T20:44:11.000Z</time>
        <extensions>
          <ns3:TrackPointExtension>
            <ns3:atemp>16.0</ns3:atemp>
            <ns3:hr>107</ns3:hr>
          </ns3:TrackPointExtension>
        </extensions>
      </trkpt>
      <trkpt lat="-22.00946009717881679534912109375" lon="166.46449363790452480316162109375">
        <ele>1100.4000244140625</ele>
        <time>2016-08-12T20:44:12.000Z</time>
        <extensions>
          <ns3:TrackPointExtension>
            <ns3:atemp>16.0</ns3:atemp>
            <ns3:hr>107</ns3:hr>
          </ns3:TrackPointExtension>
        </extensions>
      </trkpt>
      <trkpt lat="-22.00945925898849964141845703125" lon="166.46449313499033451080322265625">
        <ele>1100.4000244140625</ele>
        <time>2016-08-12T20:44:13.000Z</time>
        <extensions>
          <ns3:TrackPointExtension>
            <ns3:atemp>16.0</ns3:atemp>
            <ns3:hr>108</ns3:hr>
          </ns3:TrackPointExtension>
        </extensions>
      </trkpt>
      <trkpt lat="-22.009459845721721649169921875" lon="166.4644922129809856414794921875">
        <ele>1100.4000244140625</ele>
        <time>2016-08-12T20:44:14.000Z</time>
        <extensions>
          <ns3:TrackPointExtension>
            <ns3:atemp>16.0</ns3:atemp>
            <ns3:hr>108</ns3:hr>
          </ns3:TrackPointExtension>
        </extensions>
      </trkpt>
      <trkpt lat="-22.00945925898849964141845703125" lon="166.46449129097163677215576171875">
        <ele>1100.4000244140625</ele>
        <time>2016-08-12T20:44:15.000Z</time>
        <extensions>
          <ns3:TrackPointExtension>
            <ns3:atemp>16.0</ns3:atemp>
            <ns3:hr>108</ns3:hr>
          </ns3:TrackPointExtension>
        </extensions>
      </trkpt>
      <trkpt lat="-22.00945816934108734130859375" lon="166.4644908718764781951904296875">
        <ele>1100.4000244140625</ele>
        <time>2016-08-12T20:44:16.000Z</time>
        <extensions>
          <ns3:TrackPointExtension>
            <ns3:atemp>16.0</ns3:atemp>
            <ns3:hr>107</ns3:hr>
          </ns3:TrackPointExtension>
        </extensions>
      </trkpt>
      <trkpt lat="-22.009457163512706756591796875" lon="166.4644908718764781951904296875">
        <ele>1100.4000244140625</ele>
        <time>2016-08-12T20:44:17.000Z</time>
        <extensions>
          <ns3:TrackPointExtension>
            <ns3:atemp>16.0</ns3:atemp>
            <ns3:hr>107</ns3:hr>
          </ns3:TrackPointExtension>
        </extensions>
      </trkpt>
      <trkpt lat="-22.0094576664268970489501953125" lon="166.46449036896228790283203125">
        <ele>1100.4000244140625</ele>
        <time>2016-08-12T20:44:18.000Z</time>
        <extensions>
          <ns3:TrackPointExtension>
            <ns3:atemp>16.0</ns3:atemp>
            <ns3:hr>107</ns3:hr>
          </ns3:TrackPointExtension>
        </extensions>
      </trkpt>
      <trkpt lat="-22.00945775024592876434326171875" lon="166.46449095569550991058349609375">
        <ele>1100.4000244140625</ele>
        <time>2016-08-12T20:44:19.000Z</time>
        <extensions>
          <ns3:TrackPointExtension>
            <ns3:atemp>16.0</ns3:atemp>
            <ns3:hr>107</ns3:hr>
          </ns3:TrackPointExtension>
        </extensions>
      </trkpt>
      <trkpt lat="-22.00945816934108734130859375" lon="166.46449229680001735687255859375">
        <ele>1100.4000244140625</ele>
        <time>2016-08-12T20:44:20.000Z</time>
        <extensions>
          <ns3:TrackPointExtension>
            <ns3:atemp>16.0</ns3:atemp>
            <ns3:hr>107</ns3:hr>
          </ns3:TrackPointExtension>
        </extensions>
      </trkpt>
      <trkpt lat="-22.00945858843624591827392578125" lon="166.4644938893616199493408203125">
        <ele>1100.5999755859375</ele>
        <time>2016-08-12T20:44:21.000Z</time>
        <extensions>
          <ns3:TrackPointExtension>
            <ns3:atemp>16.0</ns3:atemp>
            <ns3:hr>108</ns3:hr>
          </ns3:TrackPointExtension>
        </extensions>
      </trkpt>
      <trkpt lat="-22.0094590075314044952392578125" lon="166.46449564956128597259521484375">
        <ele>1100.5999755859375</ele>
        <time>2016-08-12T20:44:22.000Z</time>
        <extensions>
          <ns3:TrackPointExtension>
            <ns3:atemp>16.0</ns3:atemp>
            <ns3:hr>109</ns3:hr>
          </ns3:TrackPointExtension>
        </extensions>
      </trkpt>
      <trkpt lat="-22.0094593428075313568115234375" lon="166.46449707448482513427734375">
        <ele>1100.5999755859375</ele>
        <time>2016-08-12T20:44:23.000Z</time>
        <extensions>
          <ns3:TrackPointExtension>
            <ns3:atemp>16.0</ns3:atemp>
            <ns3:hr>110</ns3:hr>
          </ns3:TrackPointExtension>
        </extensions>
      </trkpt>
      <trkpt lat="-22.00945976190268993377685546875" lon="166.46449866704642772674560546875">
        <ele>1100.5999755859375</ele>
        <time>2016-08-12T20:44:24.000Z</time>
        <extensions>
          <ns3:TrackPointExtension>
            <ns3:atemp>16.0</ns3:atemp>
            <ns3:hr>110</ns3:hr>
          </ns3:TrackPointExtension>
        </extensions>
      </trkpt>
      <trkpt lat="-22.00946479104459285736083984375" lon="166.46449849940836429595947265625">
        <ele>1100.5999755859375</ele>
        <time>2016-08-12T20:44:25.000Z</time>
        <extensions>
          <ns3:TrackPointExtension>
            <ns3:atemp>16.0</ns3:atemp>
            <ns3:hr>110</ns3:hr>
          </ns3:TrackPointExtension>
        </extensions>
      </trkpt>
      <trkpt lat="-22.0094680599868297576904296875" lon="166.4644959010183811187744140625">
        <ele>1100.5999755859375</ele>
        <time>2016-08-12T20:44:26.000Z</time>
        <extensions>
          <ns3:TrackPointExtension>
            <ns3:atemp>16.0</ns3:atemp>
            <ns3:hr>110</ns3:hr>
          </ns3:TrackPointExtension>
        </extensions>
      </trkpt>
      <trkpt lat="-22.00946898199617862701416015625" lon="166.4644962362945079803466796875">
        <ele>1100.5999755859375</ele>
        <time>2016-08-12T20:44:28.000Z</time>
        <extensions>
          <ns3:TrackPointExtension>
            <ns3:atemp>16.0</ns3:atemp>
            <ns3:hr>109</ns3:hr>
          </ns3:TrackPointExtension>
        </extensions>
      </trkpt>
      <trkpt lat="-22.009467221796512603759765625" lon="166.464498080313205718994140625">
        <ele>1100.5999755859375</ele>
        <time>2016-08-12T20:44:29.000Z</time>
        <extensions>
          <ns3:TrackPointExtension>
            <ns3:atemp>16.0</ns3:atemp>
            <ns3:hr>109</ns3:hr>
          </ns3:TrackPointExtension>
        </extensions>
      </trkpt>
      <trkpt lat="-22.0094663836061954498291015625" lon="166.46449581719934940338134765625">
        <ele>1100.4000244140625</ele>
        <time>2016-08-12T20:44:30.000Z</time>
        <extensions>
          <ns3:TrackPointExtension>
            <ns3:atemp>16.0</ns3:atemp>
            <ns3:hr>110</ns3:hr>
          </ns3:TrackPointExtension>
        </extensions>
      </trkpt>
      <trkpt lat="-22.0094680599868297576904296875" lon="166.46449984051287174224853515625">
        <ele>1100.4000244140625</ele>
        <time>2016-08-12T20:44:31.000Z</time>
        <extensions>
          <ns3:TrackPointExtension>
            <ns3:atemp>16.0</ns3:atemp>
            <ns3:hr>111</ns3:hr>
          </ns3:TrackPointExtension>
        </extensions>
      </trkpt>
      <trkpt lat="-22.00947032310068607330322265625" lon="166.46449816413223743438720703125">
        <ele>1100.4000244140625</ele>
        <time>2016-08-12T20:44:33.000Z</time>
        <extensions>
          <ns3:TrackPointExtension>
            <ns3:atemp>16.0</ns3:atemp>
            <ns3:hr>112</ns3:hr>
          </ns3:TrackPointExtension>
        </extensions>
      </trkpt>
      <trkpt lat="-22.009469568729400634765625" lon="166.46449883468449115753173828125">
        <ele>1100.4000244140625</ele>
        <time>2016-08-12T20:44:35.000Z</time>
        <extensions>
          <ns3:TrackPointExtension>
            <ns3:atemp>16.0</ns3:atemp>
            <ns3:hr>112</ns3:hr>
          </ns3:TrackPointExtension>
        </extensions>
      </trkpt>
      <trkpt lat="-22.00946965254843235015869140625" lon="166.464498750865459442138671875">
        <ele>1100.4000244140625</ele>
        <time>2016-08-12T20:44:36.000Z</time>
        <extensions>
          <ns3:TrackPointExtension>
            <ns3:atemp>16.0</ns3:atemp>
            <ns3:hr>111</ns3:hr>
          </ns3:TrackPointExtension>
        </extensions>
      </trkpt>
      <trkpt lat="-22.00946764089167118072509765625" lon="166.4645005948841571807861328125">
        <ele>1100.4000244140625</ele>
        <time>2016-08-12T20:44:37.000Z</time>
        <extensions>
          <ns3:TrackPointExtension>
            <ns3:atemp>16.0</ns3:atemp>
            <ns3:hr>109</ns3:hr>
          </ns3:TrackPointExtension>
        </extensions>
      </trkpt>
      <trkpt lat="-22.009465880692005157470703125" lon="166.4645009301602840423583984375">
        <ele>1100.4000244140625</ele>
        <time>2016-08-12T20:44:39.000Z</time>
        <extensions>
          <ns3:TrackPointExtension>
            <ns3:atemp>16.0</ns3:atemp>
            <ns3:hr>103</ns3:hr>
          </ns3:TrackPointExtension>
        </extensions>
      </trkpt>
      <trkpt lat="-22.00946546159684658050537109375" lon="166.46450285799801349639892578125">
        <ele>1100.4000244140625</ele>
        <time>2016-08-12T20:44:40.000Z</time>
        <extensions>
          <ns3:TrackPointExtension>
            <ns3:atemp>16.0</ns3:atemp>
            <ns3:hr>102</ns3:hr>
          </ns3:TrackPointExtension>
        </extensions>
      </trkpt>
      <trkpt lat="-22.00946344994008541107177734375" lon="166.4645049534738063812255859375">
        <ele>1100.4000244140625</ele>
        <time>2016-08-12T20:44:41.000Z</time>
        <extensions>
          <ns3:TrackPointExtension>
            <ns3:atemp>16.0</ns3:atemp>
            <ns3:hr>101</ns3:hr>
          </ns3:TrackPointExtension>
        </extensions>
      </trkpt>
      <trkpt lat="-22.00946219265460968017578125" lon="166.464505456387996673583984375">
        <ele>1100.4000244140625</ele>
        <time>2016-08-12T20:44:43.000Z</time>
        <extensions>
          <ns3:TrackPointExtension>
            <ns3:atemp>16.0</ns3:atemp>
            <ns3:hr>101</ns3:hr>
          </ns3:TrackPointExtension>
        </extensions>
      </trkpt>
      <trkpt lat="-22.00946026481688022613525390625" lon="166.4645059593021869659423828125">
        <ele>1100.4000244140625</ele>
        <time>2016-08-12T20:44:44.000Z</time>
        <extensions>
          <ns3:TrackPointExtension>
            <ns3:atemp>16.0</ns3:atemp>
            <ns3:hr>102</ns3:hr>
          </ns3:TrackPointExtension>
        </extensions>
      </trkpt>
      <trkpt lat="-22.00945816934108734130859375" lon="166.46450587548315525054931640625">
        <ele>1100.5999755859375</ele>
        <time>2016-08-12T20:44:46.000Z</time>
        <extensions>
          <ns3:TrackPointExtension>
            <ns3:atemp>16.0</ns3:atemp>
            <ns3:hr>104</ns3:hr>
          </ns3:TrackPointExtension>
        </extensions>
      </trkpt>
      <trkpt lat="-22.00945674441754817962646484375" lon="166.4645052887499332427978515625">
        <ele>1100.4000244140625</ele>
        <time>2016-08-12T20:44:47.000Z</time>
        <extensions>
          <ns3:TrackPointExtension>
            <ns3:atemp>16.0</ns3:atemp>
            <ns3:hr>104</ns3:hr>
          </ns3:TrackPointExtension>
        </extensions>
      </trkpt>
      <trkpt lat="-22.00945674441754817962646484375" lon="166.4645044505596160888671875">
        <ele>1100.4000244140625</ele>
        <time>2016-08-12T20:44:48.000Z</time>
        <extensions>
          <ns3:TrackPointExtension>
            <ns3:atemp>16.0</ns3:atemp>
            <ns3:hr>104</ns3:hr>
          </ns3:TrackPointExtension>
        </extensions>
      </trkpt>
      <trkpt lat="-22.00945490039885044097900390625" lon="166.46450378000736236572265625">
        <ele>1100.4000244140625</ele>
        <time>2016-08-12T20:44:49.000Z</time>
        <extensions>
          <ns3:TrackPointExtension>
            <ns3:atemp>16.0</ns3:atemp>
            <ns3:hr>105</ns3:hr>
          </ns3:TrackPointExtension>
        </extensions>
      </trkpt>
      <trkpt lat="-22.00945221818983554840087890625" lon="166.46450252272188663482666015625">
        <ele>1100.4000244140625</ele>
        <time>2016-08-12T20:44:50.000Z</time>
        <extensions>
          <ns3:TrackPointExtension>
            <ns3:atemp>16.0</ns3:atemp>
            <ns3:hr>105</ns3:hr>
          </ns3:TrackPointExtension>
        </extensions>
      </trkpt>
      <trkpt lat="-22.0094492845237255096435546875" lon="166.46450378000736236572265625">
        <ele>1100.5999755859375</ele>
        <time>2016-08-12T20:44:52.000Z</time>
        <extensions>
          <ns3:TrackPointExtension>
            <ns3:atemp>16.0</ns3:atemp>
            <ns3:hr>106</ns3:hr>
          </ns3:TrackPointExtension>
        </extensions>
      </trkpt>
      <trkpt lat="-22.0094479434192180633544921875" lon="166.46450352855026721954345703125">
        <ele>1100.5999755859375</ele>
        <time>2016-08-12T20:44:53.000Z</time>
        <extensions>
          <ns3:TrackPointExtension>
            <ns3:atemp>16.0</ns3:atemp>
            <ns3:hr>107</ns3:hr>
          </ns3:TrackPointExtension>
        </extensions>
      </trkpt>
      <trkpt lat="-22.0094454288482666015625" lon="166.4645026065409183502197265625">
        <ele>1100.5999755859375</ele>
        <time>2016-08-12T20:44:54.000Z</time>
        <extensions>
          <ns3:TrackPointExtension>
            <ns3:atemp>16.0</ns3:atemp>
            <ns3:hr>107</ns3:hr>
          </ns3:TrackPointExtension>
        </extensions>
      </trkpt>
      <trkpt lat="-22.0094440877437591552734375" lon="166.46450486965477466583251953125">
        <ele>1100.5999755859375</ele>
        <time>2016-08-12T20:44:56.000Z</time>
        <extensions>
          <ns3:TrackPointExtension>
            <ns3:atemp>16.0</ns3:atemp>
            <ns3:hr>108</ns3:hr>
          </ns3:TrackPointExtension>
        </extensions>
      </trkpt>
      <trkpt lat="-22.009443081915378570556640625" lon="166.46450252272188663482666015625">
        <ele>1100.5999755859375</ele>
        <time>2016-08-12T20:44:57.000Z</time>
        <extensions>
          <ns3:TrackPointExtension>
            <ns3:atemp>16.0</ns3:atemp>
            <ns3:hr>108</ns3:hr>
          </ns3:TrackPointExtension>
        </extensions>
      </trkpt>
      <trkpt lat="-22.00944417156279087066650390625" lon="166.4645019359886646270751953125">
        <ele>1100.5999755859375</ele>
        <time>2016-08-12T20:44:59.000Z</time>
        <extensions>
          <ns3:TrackPointExtension>
            <ns3:atemp>16.0</ns3:atemp>
            <ns3:hr>108</ns3:hr>
          </ns3:TrackPointExtension>
        </extensions>
      </trkpt>
      <trkpt lat="-22.00944744050502777099609375" lon="166.46450000815093517303466796875">
        <ele>1100.5999755859375</ele>
        <time>2016-08-12T20:45:00.000Z</time>
        <extensions>
          <ns3:TrackPointExtension>
            <ns3:atemp>16.0</ns3:atemp>
            <ns3:hr>109</ns3:hr>
          </ns3:TrackPointExtension>
        </extensions>
      </trkpt>
      <trkpt lat="-22.00944618321955204010009765625" lon="166.4644979126751422882080078125">
        <ele>1100.5999755859375</ele>
        <time>2016-08-12T20:45:02.000Z</time>
        <extensions>
          <ns3:TrackPointExtension>
            <ns3:atemp>16.0</ns3:atemp>
            <ns3:hr>110</ns3:hr>
          </ns3:TrackPointExtension>
        </extensions>
      </trkpt>
      <trkpt lat="-22.00944744050502777099609375" lon="166.46449682302772998809814453125">
        <ele>1100.5999755859375</ele>
        <time>2016-08-12T20:45:04.000Z</time>
        <extensions>
          <ns3:TrackPointExtension>
            <ns3:atemp>16.0</ns3:atemp>
            <ns3:hr>111</ns3:hr>
          </ns3:TrackPointExtension>
        </extensions>
      </trkpt>
      <trkpt lat="-22.009444423019886016845703125" lon="166.46449950523674488067626953125">
        <ele>1100.800048828125</ele>
        <time>2016-08-12T20:45:07.000Z</time>
        <extensions>
          <ns3:TrackPointExtension>
            <ns3:atemp>16.0</ns3:atemp>
            <ns3:hr>112</ns3:hr>
          </ns3:TrackPointExtension>
        </extensions>
      </trkpt>
      <trkpt lat="-22.00944006443023681640625" lon="166.46450503729283809661865234375">
        <ele>1101</ele>
        <time>2016-08-12T20:45:09.000Z</time>
        <extensions>
          <ns3:TrackPointExtension>
            <ns3:atemp>16.0</ns3:atemp>
            <ns3:hr>112</ns3:hr>
          </ns3:TrackPointExtension>
        </extensions>
      </trkpt>
      <trkpt lat="-22.0094387233257293701171875" lon="166.464497409760951995849609375">
        <ele>1100.800048828125</ele>
        <time>2016-08-12T20:45:10.000Z</time>
        <extensions>
          <ns3:TrackPointExtension>
            <ns3:atemp>16.0</ns3:atemp>
            <ns3:hr>112</ns3:hr>
          </ns3:TrackPointExtension>
        </extensions>
      </trkpt>
      <trkpt lat="-22.009440399706363677978515625" lon="166.46449866704642772674560546875">
        <ele>1101</ele>
        <time>2016-08-12T20:45:11.000Z</time>
        <extensions>
          <ns3:TrackPointExtension>
            <ns3:atemp>16.0</ns3:atemp>
            <ns3:hr>112</ns3:hr>
          </ns3:TrackPointExtension>
        </extensions>
      </trkpt>
      <trkpt lat="-22.00944266282021999359130859375" lon="166.4644992537796497344970703125">
        <ele>1101.199951171875</ele>
        <time>2016-08-12T20:45:12.000Z</time>
        <extensions>
          <ns3:TrackPointExtension>
            <ns3:atemp>16.0</ns3:atemp>
            <ns3:hr>112</ns3:hr>
          </ns3:TrackPointExtension>
        </extensions>
      </trkpt>
      <trkpt lat="-22.0094395615160465240478515625" lon="166.46449916996061801910400390625">
        <ele>1101.199951171875</ele>
        <time>2016-08-12T20:45:14.000Z</time>
        <extensions>
          <ns3:TrackPointExtension>
            <ns3:atemp>16.0</ns3:atemp>
            <ns3:hr>113</ns3:hr>
          </ns3:TrackPointExtension>
        </extensions>
      </trkpt>
      <trkpt lat="-22.00943947769701480865478515625" lon="166.464498080313205718994140625">
        <ele>1101.199951171875</ele>
        <time>2016-08-12T20:45:16.000Z</time>
        <extensions>
          <ns3:TrackPointExtension>
            <ns3:atemp>16.0</ns3:atemp>
            <ns3:hr>114</ns3:hr>
          </ns3:TrackPointExtension>
        </extensions>
      </trkpt>
      <trkpt lat="-22.0094405673444271087646484375" lon="166.464497745037078857421875">
        <ele>1101</ele>
        <time>2016-08-12T20:45:17.000Z</time>
        <extensions>
          <ns3:TrackPointExtension>
            <ns3:atemp>16.0</ns3:atemp>
            <ns3:hr>115</ns3:hr>
          </ns3:TrackPointExtension>
        </extensions>
      </trkpt>
      <trkpt lat="-22.009440399706363677978515625" lon="166.46449933759868144989013671875">
        <ele>1101</ele>
        <time>2016-08-12T20:45:18.000Z</time>
        <extensions>
          <ns3:TrackPointExtension>
            <ns3:atemp>16.0</ns3:atemp>
            <ns3:hr>116</ns3:hr>
          </ns3:TrackPointExtension>
        </extensions>
      </trkpt>
      <trkpt lat="-22.00944098643958568572998046875" lon="166.46449950523674488067626953125">
        <ele>1101</ele>
        <time>2016-08-12T20:45:19.000Z</time>
        <extensions>
          <ns3:TrackPointExtension>
            <ns3:atemp>16.0</ns3:atemp>
            <ns3:hr>116</ns3:hr>
          </ns3:TrackPointExtension>
        </extensions>
      </trkpt>
      <trkpt lat="-22.009441740810871124267578125" lon="166.46449699066579341888427734375">
        <ele>1100.800048828125</ele>
        <time>2016-08-12T20:45:20.000Z</time>
        <extensions>
          <ns3:TrackPointExtension>
            <ns3:atemp>16.0</ns3:atemp>
            <ns3:hr>117</ns3:hr>
          </ns3:TrackPointExtension>
        </extensions>
      </trkpt>
      <trkpt lat="-22.00944249518215656280517578125" lon="166.464492715895175933837890625">
        <ele>1100.5999755859375</ele>
        <time>2016-08-12T20:45:21.000Z</time>
        <extensions>
          <ns3:TrackPointExtension>
            <ns3:atemp>16.0</ns3:atemp>
            <ns3:hr>118</ns3:hr>
          </ns3:TrackPointExtension>
        </extensions>
      </trkpt>
      <trkpt lat="-22.0094432495534420013427734375" lon="166.46449447609484195709228515625">
        <ele>1100.800048828125</ele>
        <time>2016-08-12T20:45:23.000Z</time>
        <extensions>
          <ns3:TrackPointExtension>
            <ns3:atemp>16.0</ns3:atemp>
            <ns3:hr>118</ns3:hr>
          </ns3:TrackPointExtension>
        </extensions>
      </trkpt>
      <trkpt lat="-22.0094414055347442626953125" lon="166.4644932188093662261962890625">
        <ele>1100.800048828125</ele>
        <time>2016-08-12T20:45:25.000Z</time>
        <extensions>
          <ns3:TrackPointExtension>
            <ns3:atemp>16.0</ns3:atemp>
            <ns3:hr>118</ns3:hr>
          </ns3:TrackPointExtension>
        </extensions>
      </trkpt>
      <trkpt lat="-22.00944215990602970123291015625" lon="166.46449078805744647979736328125">
        <ele>1100.5999755859375</ele>
        <time>2016-08-12T20:45:27.000Z</time>
        <extensions>
          <ns3:TrackPointExtension>
            <ns3:atemp>16.0</ns3:atemp>
            <ns3:hr>118</ns3:hr>
          </ns3:TrackPointExtension>
        </extensions>
      </trkpt>
      <trkpt lat="-22.0094415731728076934814453125" lon="166.46449045278131961822509765625">
        <ele>1100.5999755859375</ele>
        <time>2016-08-12T20:45:28.000Z</time>
        <extensions>
          <ns3:TrackPointExtension>
            <ns3:atemp>16.0</ns3:atemp>
            <ns3:hr>117</ns3:hr>
          </ns3:TrackPointExtension>
        </extensions>
      </trkpt>
      <trkpt lat="-22.009441070258617401123046875" lon="166.46449246443808078765869140625">
        <ele>1100.5999755859375</ele>
        <time>2016-08-12T20:45:29.000Z</time>
        <extensions>
          <ns3:TrackPointExtension>
            <ns3:atemp>16.0</ns3:atemp>
            <ns3:hr>118</ns3:hr>
          </ns3:TrackPointExtension>
        </extensions>
      </trkpt>
      <trkpt lat="-22.00944668613374233245849609375" lon="166.4644928835332393646240234375">
        <ele>1101</ele>
        <time>2016-08-12T20:45:33.000Z</time>
        <extensions>
          <ns3:TrackPointExtension>
            <ns3:atemp>16.0</ns3:atemp>
            <ns3:hr>116</ns3:hr>
          </ns3:TrackPointExtension>
        </extensions>
      </trkpt>
      <trkpt lat="-22.00944651849567890167236328125" lon="166.4644918777048587799072265625">
        <ele>1100.800048828125</ele>
        <time>2016-08-12T20:45:34.000Z</time>
        <extensions>
          <ns3:TrackPointExtension>
            <ns3:atemp>16.0</ns3:atemp>
            <ns3:hr>116</ns3:hr>
          </ns3:TrackPointExtension>
        </extensions>
      </trkpt>
      <trkpt lat="-22.00944744050502777099609375" lon="166.46449229680001735687255859375">
        <ele>1100.5999755859375</ele>
        <time>2016-08-12T20:45:35.000Z</time>
        <extensions>
          <ns3:TrackPointExtension>
            <ns3:atemp>16.0</ns3:atemp>
            <ns3:hr>116</ns3:hr>
          </ns3:TrackPointExtension>
        </extensions>
      </trkpt>
      <trkpt lat="-22.0094479434192180633544921875" lon="166.4644922129809856414794921875">
        <ele>1100.4000244140625</ele>
        <time>2016-08-12T20:45:36.000Z</time>
        <extensions>
          <ns3:TrackPointExtension>
            <ns3:atemp>16.0</ns3:atemp>
            <ns3:hr>117</ns3:hr>
          </ns3:TrackPointExtension>
        </extensions>
      </trkpt>
      <trkpt lat="-22.00944735668599605560302734375" lon="166.4644932188093662261962890625">
        <ele>1100.4000244140625</ele>
        <time>2016-08-12T20:45:37.000Z</time>
        <extensions>
          <ns3:TrackPointExtension>
            <ns3:atemp>16.0</ns3:atemp>
            <ns3:hr>117</ns3:hr>
          </ns3:TrackPointExtension>
        </extensions>
      </trkpt>
      <trkpt lat="-22.00944651849567890167236328125" lon="166.464492715895175933837890625">
        <ele>1100.4000244140625</ele>
        <time>2016-08-12T20:45:38.000Z</time>
        <extensions>
          <ns3:TrackPointExtension>
            <ns3:atemp>16.0</ns3:atemp>
            <ns3:hr>117</ns3:hr>
          </ns3:TrackPointExtension>
        </extensions>
      </trkpt>
      <trkpt lat="-22.0094462670385837554931640625" lon="166.46449246443808078765869140625">
        <ele>1100.4000244140625</ele>
        <time>2016-08-12T20:45:39.000Z</time>
        <extensions>
          <ns3:TrackPointExtension>
            <ns3:atemp>16.0</ns3:atemp>
            <ns3:hr>118</ns3:hr>
          </ns3:TrackPointExtension>
        </extensions>
      </trkpt>
      <trkpt lat="-22.009447105228900909423828125" lon="166.46449305117130279541015625">
        <ele>1100.4000244140625</ele>
        <time>2016-08-12T20:45:40.000Z</time>
        <extensions>
          <ns3:TrackPointExtension>
            <ns3:atemp>16.0</ns3:atemp>
            <ns3:hr>117</ns3:hr>
          </ns3:TrackPointExtension>
        </extensions>
      </trkpt>
      <trkpt lat="-22.0094482786953449249267578125" lon="166.464492715895175933837890625">
        <ele>1100.5999755859375</ele>
        <time>2016-08-12T20:45:41.000Z</time>
        <extensions>
          <ns3:TrackPointExtension>
            <ns3:atemp>16.0</ns3:atemp>
            <ns3:hr>117</ns3:hr>
          </ns3:TrackPointExtension>
        </extensions>
      </trkpt>
      <trkpt lat="-22.009450457990169525146484375" lon="166.46449229680001735687255859375">
        <ele>1100.5999755859375</ele>
        <time>2016-08-12T20:45:42.000Z</time>
        <extensions>
          <ns3:TrackPointExtension>
            <ns3:atemp>16.0</ns3:atemp>
            <ns3:hr>117</ns3:hr>
          </ns3:TrackPointExtension>
        </extensions>
      </trkpt>
      <trkpt lat="-22.00945104472339153289794921875" lon="166.46449397318065166473388671875">
        <ele>1100.5999755859375</ele>
        <time>2016-08-12T20:45:44.000Z</time>
        <extensions>
          <ns3:TrackPointExtension>
            <ns3:atemp>16.0</ns3:atemp>
            <ns3:hr>116</ns3:hr>
          </ns3:TrackPointExtension>
        </extensions>
      </trkpt>
      <trkpt lat="-22.00945037417113780975341796875" lon="166.46449573338031768798828125">
        <ele>1100.5999755859375</ele>
        <time>2016-08-12T20:45:45.000Z</time>
        <extensions>
          <ns3:TrackPointExtension>
            <ns3:atemp>16.0</ns3:atemp>
            <ns3:hr>116</ns3:hr>
          </ns3:TrackPointExtension>
        </extensions>
      </trkpt>
      <trkpt lat="-22.00944936834275722503662109375" lon="166.46449682302772998809814453125">
        <ele>1100.5999755859375</ele>
        <time>2016-08-12T20:45:46.000Z</time>
        <extensions>
          <ns3:TrackPointExtension>
            <ns3:atemp>16.0</ns3:atemp>
            <ns3:hr>116</ns3:hr>
          </ns3:TrackPointExtension>
        </extensions>
      </trkpt>
      <trkpt lat="-22.009448111057281494140625" lon="166.46449766121804714202880859375">
        <ele>1100.5999755859375</ele>
        <time>2016-08-12T20:45:47.000Z</time>
        <extensions>
          <ns3:TrackPointExtension>
            <ns3:atemp>16.0</ns3:atemp>
            <ns3:hr>116</ns3:hr>
          </ns3:TrackPointExtension>
        </extensions>
      </trkpt>
      <trkpt lat="-22.00944735668599605560302734375" lon="166.46449816413223743438720703125">
        <ele>1100.800048828125</ele>
        <time>2016-08-12T20:45:48.000Z</time>
        <extensions>
          <ns3:TrackPointExtension>
            <ns3:atemp>16.0</ns3:atemp>
            <ns3:hr>116</ns3:hr>
          </ns3:TrackPointExtension>
        </extensions>
      </trkpt>
      <trkpt lat="-22.00944685377180576324462890625" lon="166.464498750865459442138671875">
        <ele>1101</ele>
        <time>2016-08-12T20:45:49.000Z</time>
        <extensions>
          <ns3:TrackPointExtension>
            <ns3:atemp>16.0</ns3:atemp>
            <ns3:hr>116</ns3:hr>
          </ns3:TrackPointExtension>
        </extensions>
      </trkpt>
      <trkpt lat="-22.009447105228900909423828125" lon="166.46449841558933258056640625">
        <ele>1100.800048828125</ele>
        <time>2016-08-12T20:45:50.000Z</time>
        <extensions>
          <ns3:TrackPointExtension>
            <ns3:atemp>16.0</ns3:atemp>
            <ns3:hr>116</ns3:hr>
          </ns3:TrackPointExtension>
        </extensions>
      </trkpt>
      <trkpt lat="-22.00944668613374233245849609375" lon="166.46449866704642772674560546875">
        <ele>1100.5999755859375</ele>
        <time>2016-08-12T20:45:51.000Z</time>
        <extensions>
          <ns3:TrackPointExtension>
            <ns3:atemp>16.0</ns3:atemp>
            <ns3:hr>116</ns3:hr>
          </ns3:TrackPointExtension>
        </extensions>
      </trkpt>
      <trkpt lat="-22.00944735668599605560302734375" lon="166.46449967287480831146240234375">
        <ele>1100.5999755859375</ele>
        <time>2016-08-12T20:45:52.000Z</time>
        <extensions>
          <ns3:TrackPointExtension>
            <ns3:atemp>16.0</ns3:atemp>
            <ns3:hr>116</ns3:hr>
          </ns3:TrackPointExtension>
        </extensions>
      </trkpt>
      <trkpt lat="-22.0094469375908374786376953125" lon="166.46449975669384002685546875">
        <ele>1100.5999755859375</ele>
        <time>2016-08-12T20:45:53.000Z</time>
        <extensions>
          <ns3:TrackPointExtension>
            <ns3:atemp>16.0</ns3:atemp>
            <ns3:hr>116</ns3:hr>
          </ns3:TrackPointExtension>
        </extensions>
      </trkpt>
      <trkpt lat="-22.0094462670385837554931640625" lon="166.46449984051287174224853515625">
        <ele>1100.5999755859375</ele>
        <time>2016-08-12T20:45:54.000Z</time>
        <extensions>
          <ns3:TrackPointExtension>
            <ns3:atemp>16.0</ns3:atemp>
            <ns3:hr>116</ns3:hr>
          </ns3:TrackPointExtension>
        </extensions>
      </trkpt>
      <trkpt lat="-22.00944568030536174774169921875" lon="166.46449984051287174224853515625">
        <ele>1100.5999755859375</ele>
        <time>2016-08-12T20:45:55.000Z</time>
        <extensions>
          <ns3:TrackPointExtension>
            <ns3:atemp>16.0</ns3:atemp>
            <ns3:hr>115</ns3:hr>
          </ns3:TrackPointExtension>
        </extensions>
      </trkpt>
      <trkpt lat="-22.00944551266729831695556640625" lon="166.464500762522220611572265625">
        <ele>1100.5999755859375</ele>
        <time>2016-08-12T20:45:56.000Z</time>
        <extensions>
          <ns3:TrackPointExtension>
            <ns3:atemp>16.0</ns3:atemp>
            <ns3:hr>114</ns3:hr>
          </ns3:TrackPointExtension>
        </extensions>
      </trkpt>
      <trkpt lat="-22.009445764124393463134765625" lon="166.46450185216963291168212890625">
        <ele>1100.5999755859375</ele>
        <time>2016-08-12T20:45:57.000Z</time>
        <extensions>
          <ns3:TrackPointExtension>
            <ns3:atemp>16.0</ns3:atemp>
            <ns3:hr>114</ns3:hr>
          </ns3:TrackPointExtension>
        </extensions>
      </trkpt>
      <trkpt lat="-22.0094455964863300323486328125" lon="166.46450369618833065032958984375">
        <ele>1100.5999755859375</ele>
        <time>2016-08-12T20:45:58.000Z</time>
        <extensions>
          <ns3:TrackPointExtension>
            <ns3:atemp>16.0</ns3:atemp>
            <ns3:hr>113</ns3:hr>
          </ns3:TrackPointExtension>
        </extensions>
      </trkpt>
      <trkpt lat="-22.00944551266729831695556640625" lon="166.464504785835742950439453125">
        <ele>1100.5999755859375</ele>
        <time>2016-08-12T20:45:59.000Z</time>
        <extensions>
          <ns3:TrackPointExtension>
            <ns3:atemp>16.0</ns3:atemp>
            <ns3:hr>113</ns3:hr>
          </ns3:TrackPointExtension>
        </extensions>
      </trkpt>
      <trkpt lat="-22.009445093572139739990234375" lon="166.46450621075928211212158203125">
        <ele>1100.5999755859375</ele>
        <time>2016-08-12T20:46:00.000Z</time>
        <extensions>
          <ns3:TrackPointExtension>
            <ns3:atemp>16.0</ns3:atemp>
            <ns3:hr>113</ns3:hr>
          </ns3:TrackPointExtension>
        </extensions>
      </trkpt>
      <trkpt lat="-22.00944475829601287841796875" lon="166.46450704894959926605224609375">
        <ele>1100.5999755859375</ele>
        <time>2016-08-12T20:46:01.000Z</time>
        <extensions>
          <ns3:TrackPointExtension>
            <ns3:atemp>16.0</ns3:atemp>
            <ns3:hr>113</ns3:hr>
          </ns3:TrackPointExtension>
        </extensions>
      </trkpt>
      <trkpt lat="-22.00944785960018634796142578125" lon="166.46450570784509181976318359375">
        <ele>1100.800048828125</ele>
        <time>2016-08-12T20:46:02.000Z</time>
        <extensions>
          <ns3:TrackPointExtension>
            <ns3:atemp>16.0</ns3:atemp>
            <ns3:hr>113</ns3:hr>
          </ns3:TrackPointExtension>
        </extensions>
      </trkpt>
      <trkpt lat="-22.00944878160953521728515625" lon="166.46450771950185298919677734375">
        <ele>1100.800048828125</ele>
        <time>2016-08-12T20:46:03.000Z</time>
        <extensions>
          <ns3:TrackPointExtension>
            <ns3:atemp>16.0</ns3:atemp>
            <ns3:hr>113</ns3:hr>
          </ns3:TrackPointExtension>
        </extensions>
      </trkpt>
      <trkpt lat="-22.00944878160953521728515625" lon="166.46451040171086788177490234375">
        <ele>1100.800048828125</ele>
        <time>2016-08-12T20:46:05.000Z</time>
        <extensions>
          <ns3:TrackPointExtension>
            <ns3:atemp>16.0</ns3:atemp>
            <ns3:hr>112</ns3:hr>
          </ns3:TrackPointExtension>
        </extensions>
      </trkpt>
      <trkpt lat="-22.0094454288482666015625" lon="166.4645089767873287200927734375">
        <ele>1101</ele>
        <time>2016-08-12T20:46:06.000Z</time>
        <extensions>
          <ns3:TrackPointExtension>
            <ns3:atemp>16.0</ns3:atemp>
            <ns3:hr>113</ns3:hr>
          </ns3:TrackPointExtension>
        </extensions>
      </trkpt>
      <trkpt lat="-22.00944450683891773223876953125" lon="166.46450570784509181976318359375">
        <ele>1101</ele>
        <time>2016-08-12T20:46:07.000Z</time>
        <extensions>
          <ns3:TrackPointExtension>
            <ns3:atemp>16.0</ns3:atemp>
            <ns3:hr>113</ns3:hr>
          </ns3:TrackPointExtension>
        </extensions>
      </trkpt>
      <trkpt lat="-22.00944853015244007110595703125" lon="166.46450067870318889617919921875">
        <ele>1100.800048828125</ele>
        <time>2016-08-12T20:46:08.000Z</time>
        <extensions>
          <ns3:TrackPointExtension>
            <ns3:atemp>16.0</ns3:atemp>
            <ns3:hr>114</ns3:hr>
          </ns3:TrackPointExtension>
        </extensions>
      </trkpt>
      <trkpt lat="-22.00944920070469379425048828125" lon="166.46449967287480831146240234375">
        <ele>1100.800048828125</ele>
        <time>2016-08-12T20:46:10.000Z</time>
        <extensions>
          <ns3:TrackPointExtension>
            <ns3:atemp>16.0</ns3:atemp>
            <ns3:hr>115</ns3:hr>
          </ns3:TrackPointExtension>
        </extensions>
      </trkpt>
      <trkpt lat="-22.00944769196212291717529296875" lon="166.46449682302772998809814453125">
        <ele>1100.800048828125</ele>
        <time>2016-08-12T20:46:11.000Z</time>
        <extensions>
          <ns3:TrackPointExtension>
            <ns3:atemp>16.0</ns3:atemp>
            <ns3:hr>116</ns3:hr>
          </ns3:TrackPointExtension>
        </extensions>
      </trkpt>
      <trkpt lat="-22.00944785960018634796142578125" lon="166.46449707448482513427734375">
        <ele>1100.800048828125</ele>
        <time>2016-08-12T20:46:13.000Z</time>
        <extensions>
          <ns3:TrackPointExtension>
            <ns3:atemp>16.0</ns3:atemp>
            <ns3:hr>116</ns3:hr>
          </ns3:TrackPointExtension>
        </extensions>
      </trkpt>
      <trkpt lat="-22.0094482786953449249267578125" lon="166.46449715830385684967041015625">
        <ele>1100.800048828125</ele>
        <time>2016-08-12T20:46:14.000Z</time>
        <extensions>
          <ns3:TrackPointExtension>
            <ns3:atemp>16.0</ns3:atemp>
            <ns3:hr>116</ns3:hr>
          </ns3:TrackPointExtension>
        </extensions>
      </trkpt>
      <trkpt lat="-22.0094479434192180633544921875" lon="166.46449782885611057281494140625">
        <ele>1100.800048828125</ele>
        <time>2016-08-12T20:46:15.000Z</time>
        <extensions>
          <ns3:TrackPointExtension>
            <ns3:atemp>16.0</ns3:atemp>
            <ns3:hr>116</ns3:hr>
          </ns3:TrackPointExtension>
        </extensions>
      </trkpt>
      <trkpt lat="-22.0094486139714717864990234375" lon="166.46449841558933258056640625">
        <ele>1100.800048828125</ele>
        <time>2016-08-12T20:46:16.000Z</time>
        <extensions>
          <ns3:TrackPointExtension>
            <ns3:atemp>16.0</ns3:atemp>
            <ns3:hr>115</ns3:hr>
          </ns3:TrackPointExtension>
        </extensions>
      </trkpt>
      <trkpt lat="-22.00945003889501094818115234375" lon="166.4644972421228885650634765625">
        <ele>1100.5999755859375</ele>
        <time>2016-08-12T20:46:17.000Z</time>
        <extensions>
          <ns3:TrackPointExtension>
            <ns3:atemp>16.0</ns3:atemp>
            <ns3:hr>114</ns3:hr>
          </ns3:TrackPointExtension>
        </extensions>
      </trkpt>
      <trkpt lat="-22.0094494521617889404296875" lon="166.46449699066579341888427734375">
        <ele>1100.800048828125</ele>
        <time>2016-08-12T20:46:18.000Z</time>
        <extensions>
          <ns3:TrackPointExtension>
            <ns3:atemp>16.0</ns3:atemp>
            <ns3:hr>114</ns3:hr>
          </ns3:TrackPointExtension>
        </extensions>
      </trkpt>
      <trkpt lat="-22.009448446333408355712890625" lon="166.464496068656444549560546875">
        <ele>1100.800048828125</ele>
        <time>2016-08-12T20:46:19.000Z</time>
        <extensions>
          <ns3:TrackPointExtension>
            <ns3:atemp>16.0</ns3:atemp>
            <ns3:hr>112</ns3:hr>
          </ns3:TrackPointExtension>
        </extensions>
      </trkpt>
      <trkpt lat="-22.00944568030536174774169921875" lon="166.46449581719934940338134765625">
        <ele>1100.800048828125</ele>
        <time>2016-08-12T20:46:20.000Z</time>
        <extensions>
          <ns3:TrackPointExtension>
            <ns3:atemp>16.0</ns3:atemp>
            <ns3:hr>112</ns3:hr>
          </ns3:TrackPointExtension>
        </extensions>
      </trkpt>
      <trkpt lat="-22.00944601558148860931396484375" lon="166.46449883468449115753173828125">
        <ele>1100.5999755859375</ele>
        <time>2016-08-12T20:46:21.000Z</time>
        <extensions>
          <ns3:TrackPointExtension>
            <ns3:atemp>16.0</ns3:atemp>
            <ns3:hr>111</ns3:hr>
          </ns3:TrackPointExtension>
        </extensions>
      </trkpt>
      <trkpt lat="-22.00944584794342517852783203125" lon="166.4644962362945079803466796875">
        <ele>1100.5999755859375</ele>
        <time>2016-08-12T20:46:22.000Z</time>
        <extensions>
          <ns3:TrackPointExtension>
            <ns3:atemp>16.0</ns3:atemp>
            <ns3:hr>112</ns3:hr>
          </ns3:TrackPointExtension>
        </extensions>
      </trkpt>
      <trkpt lat="-22.00944668613374233245849609375" lon="166.4644972421228885650634765625">
        <ele>1100.4000244140625</ele>
        <time>2016-08-12T20:46:24.000Z</time>
        <extensions>
          <ns3:TrackPointExtension>
            <ns3:atemp>16.0</ns3:atemp>
            <ns3:hr>111</ns3:hr>
          </ns3:TrackPointExtension>
        </extensions>
      </trkpt>
      <trkpt lat="-22.0094466023147106170654296875" lon="166.4644969068467617034912109375">
        <ele>1100.4000244140625</ele>
        <time>2016-08-12T20:46:25.000Z</time>
        <extensions>
          <ns3:TrackPointExtension>
            <ns3:atemp>16.0</ns3:atemp>
            <ns3:hr>111</ns3:hr>
          </ns3:TrackPointExtension>
        </extensions>
      </trkpt>
      <trkpt lat="-22.0094466023147106170654296875" lon="166.464497409760951995849609375">
        <ele>1100.4000244140625</ele>
        <time>2016-08-12T20:46:26.000Z</time>
        <extensions>
          <ns3:TrackPointExtension>
            <ns3:atemp>16.0</ns3:atemp>
            <ns3:hr>110</ns3:hr>
          </ns3:TrackPointExtension>
        </extensions>
      </trkpt>
      <trkpt lat="-22.0094462670385837554931640625" lon="166.46449665538966655731201171875">
        <ele>1100.4000244140625</ele>
        <time>2016-08-12T20:46:27.000Z</time>
        <extensions>
          <ns3:TrackPointExtension>
            <ns3:atemp>16.0</ns3:atemp>
            <ns3:hr>110</ns3:hr>
          </ns3:TrackPointExtension>
        </extensions>
      </trkpt>
      <trkpt lat="-22.00944601558148860931396484375" lon="166.46449699066579341888427734375">
        <ele>1100.4000244140625</ele>
        <time>2016-08-12T20:46:28.000Z</time>
        <extensions>
          <ns3:TrackPointExtension>
            <ns3:atemp>16.0</ns3:atemp>
            <ns3:hr>110</ns3:hr>
          </ns3:TrackPointExtension>
        </extensions>
      </trkpt>
      <trkpt lat="-22.0094462670385837554931640625" lon="166.464497409760951995849609375">
        <ele>1100.4000244140625</ele>
        <time>2016-08-12T20:46:29.000Z</time>
        <extensions>
          <ns3:TrackPointExtension>
            <ns3:atemp>16.0</ns3:atemp>
            <ns3:hr>109</ns3:hr>
          </ns3:TrackPointExtension>
        </extensions>
      </trkpt>
      <trkpt lat="-22.00944609940052032470703125" lon="166.46449799649417400360107421875">
        <ele>1100.4000244140625</ele>
        <time>2016-08-12T20:46:30.000Z</time>
        <extensions>
          <ns3:TrackPointExtension>
            <ns3:atemp>16.0</ns3:atemp>
            <ns3:hr>107</ns3:hr>
          </ns3:TrackPointExtension>
        </extensions>
      </trkpt>
      <trkpt lat="-22.00944609940052032470703125" lon="166.46449799649417400360107421875">
        <ele>1100.4000244140625</ele>
        <time>2016-08-12T20:46:31.000Z</time>
        <extensions>
          <ns3:TrackPointExtension>
            <ns3:atemp>16.0</ns3:atemp>
            <ns3:hr>106</ns3:hr>
          </ns3:TrackPointExtension>
        </extensions>
      </trkpt>
      <trkpt lat="-22.00944618321955204010009765625" lon="166.464497745037078857421875">
        <ele>1100.4000244140625</ele>
        <time>2016-08-12T20:46:32.000Z</time>
        <extensions>
          <ns3:TrackPointExtension>
            <ns3:atemp>16.0</ns3:atemp>
            <ns3:hr>105</ns3:hr>
          </ns3:TrackPointExtension>
        </extensions>
      </trkpt>
      <trkpt lat="-22.0094462670385837554931640625" lon="166.46449866704642772674560546875">
        <ele>1100.4000244140625</ele>
        <time>2016-08-12T20:46:33.000Z</time>
        <extensions>
          <ns3:TrackPointExtension>
            <ns3:atemp>16.0</ns3:atemp>
            <ns3:hr>105</ns3:hr>
          </ns3:TrackPointExtension>
        </extensions>
      </trkpt>
      <trkpt lat="-22.00944601558148860931396484375" lon="166.46450000815093517303466796875">
        <ele>1100.4000244140625</ele>
        <time>2016-08-12T20:46:34.000Z</time>
        <extensions>
          <ns3:TrackPointExtension>
            <ns3:atemp>16.0</ns3:atemp>
            <ns3:hr>105</ns3:hr>
          </ns3:TrackPointExtension>
        </extensions>
      </trkpt>
      <trkpt lat="-22.0094454288482666015625" lon="166.4644979126751422882080078125">
        <ele>1100.199951171875</ele>
        <time>2016-08-12T20:46:35.000Z</time>
        <extensions>
          <ns3:TrackPointExtension>
            <ns3:atemp>16.0</ns3:atemp>
            <ns3:hr>106</ns3:hr>
          </ns3:TrackPointExtension>
        </extensions>
      </trkpt>
      <trkpt lat="-22.00944618321955204010009765625" lon="166.46449573338031768798828125">
        <ele>1100</ele>
        <time>2016-08-12T20:46:36.000Z</time>
        <extensions>
          <ns3:TrackPointExtension>
            <ns3:atemp>16.0</ns3:atemp>
            <ns3:hr>106</ns3:hr>
          </ns3:TrackPointExtension>
        </extensions>
      </trkpt>
      <trkpt lat="-22.009445093572139739990234375" lon="166.46449430845677852630615234375">
        <ele>1099.800048828125</ele>
        <time>2016-08-12T20:46:38.000Z</time>
        <extensions>
          <ns3:TrackPointExtension>
            <ns3:atemp>16.0</ns3:atemp>
            <ns3:hr>108</ns3:hr>
          </ns3:TrackPointExtension>
        </extensions>
      </trkpt>
      <trkpt lat="-22.00944366864860057830810546875" lon="166.4644945599138736724853515625">
        <ele>1099.800048828125</ele>
        <time>2016-08-12T20:46:39.000Z</time>
        <extensions>
          <ns3:TrackPointExtension>
            <ns3:atemp>16.0</ns3:atemp>
            <ns3:hr>109</ns3:hr>
          </ns3:TrackPointExtension>
        </extensions>
      </trkpt>
      <trkpt lat="-22.0094439201056957244873046875" lon="166.4644942246377468109130859375">
        <ele>1099.800048828125</ele>
        <time>2016-08-12T20:46:40.000Z</time>
        <extensions>
          <ns3:TrackPointExtension>
            <ns3:atemp>16.0</ns3:atemp>
            <ns3:hr>110</ns3:hr>
          </ns3:TrackPointExtension>
        </extensions>
      </trkpt>
      <trkpt lat="-22.0094432495534420013427734375" lon="166.4644942246377468109130859375">
        <ele>1099.800048828125</ele>
        <time>2016-08-12T20:46:41.000Z</time>
        <extensions>
          <ns3:TrackPointExtension>
            <ns3:atemp>16.0</ns3:atemp>
            <ns3:hr>110</ns3:hr>
          </ns3:TrackPointExtension>
        </extensions>
      </trkpt>
      <trkpt lat="-22.0094440877437591552734375" lon="166.464495398104190826416015625">
        <ele>1099.800048828125</ele>
        <time>2016-08-12T20:46:42.000Z</time>
        <extensions>
          <ns3:TrackPointExtension>
            <ns3:atemp>16.0</ns3:atemp>
            <ns3:hr>111</ns3:hr>
          </ns3:TrackPointExtension>
        </extensions>
      </trkpt>
      <trkpt lat="-22.00944475829601287841796875" lon="166.4644962362945079803466796875">
        <ele>1099.800048828125</ele>
        <time>2016-08-12T20:46:43.000Z</time>
        <extensions>
          <ns3:TrackPointExtension>
            <ns3:atemp>16.0</ns3:atemp>
            <ns3:hr>111</ns3:hr>
          </ns3:TrackPointExtension>
        </extensions>
      </trkpt>
      <trkpt lat="-22.0094449259340763092041015625" lon="166.4644965715706348419189453125">
        <ele>1099.800048828125</ele>
        <time>2016-08-12T20:46:44.000Z</time>
        <extensions>
          <ns3:TrackPointExtension>
            <ns3:atemp>16.0</ns3:atemp>
            <ns3:hr>110</ns3:hr>
          </ns3:TrackPointExtension>
        </extensions>
      </trkpt>
      <trkpt lat="-22.00944886542856693267822265625" lon="166.46449573338031768798828125">
        <ele>1099.800048828125</ele>
        <time>2016-08-12T20:46:45.000Z</time>
        <extensions>
          <ns3:TrackPointExtension>
            <ns3:atemp>16.0</ns3:atemp>
            <ns3:hr>111</ns3:hr>
          </ns3:TrackPointExtension>
        </extensions>
      </trkpt>
      <trkpt lat="-22.009448446333408355712890625" lon="166.4644918777048587799072265625">
        <ele>1100</ele>
        <time>2016-08-12T20:46:46.000Z</time>
        <extensions>
          <ns3:TrackPointExtension>
            <ns3:atemp>16.0</ns3:atemp>
            <ns3:hr>112</ns3:hr>
          </ns3:TrackPointExtension>
        </extensions>
      </trkpt>
      <trkpt lat="-22.00945012271404266357421875" lon="166.464489363133907318115234375">
        <ele>1100.199951171875</ele>
        <time>2016-08-12T20:46:48.000Z</time>
        <extensions>
          <ns3:TrackPointExtension>
            <ns3:atemp>16.0</ns3:atemp>
            <ns3:hr>112</ns3:hr>
          </ns3:TrackPointExtension>
        </extensions>
      </trkpt>
      <trkpt lat="-22.00945104472339153289794921875" lon="166.46448768675327301025390625">
        <ele>1100.199951171875</ele>
        <time>2016-08-12T20:46:49.000Z</time>
        <extensions>
          <ns3:TrackPointExtension>
            <ns3:atemp>16.0</ns3:atemp>
            <ns3:hr>112</ns3:hr>
          </ns3:TrackPointExtension>
        </extensions>
      </trkpt>
      <trkpt lat="-22.00945087708532810211181640625" lon="166.46448693238198757171630859375">
        <ele>1100.199951171875</ele>
        <time>2016-08-12T20:46:50.000Z</time>
        <extensions>
          <ns3:TrackPointExtension>
            <ns3:atemp>16.0</ns3:atemp>
            <ns3:hr>112</ns3:hr>
          </ns3:TrackPointExtension>
        </extensions>
      </trkpt>
      <trkpt lat="-22.0094502903521060943603515625" lon="166.4644855074584484100341796875">
        <ele>1100.199951171875</ele>
        <time>2016-08-12T20:46:51.000Z</time>
        <extensions>
          <ns3:TrackPointExtension>
            <ns3:atemp>16.0</ns3:atemp>
            <ns3:hr>112</ns3:hr>
          </ns3:TrackPointExtension>
        </extensions>
      </trkpt>
      <trkpt lat="-22.00944920070469379425048828125" lon="166.4644841663539409637451171875">
        <ele>1100.199951171875</ele>
        <time>2016-08-12T20:46:52.000Z</time>
        <extensions>
          <ns3:TrackPointExtension>
            <ns3:atemp>16.0</ns3:atemp>
            <ns3:hr>112</ns3:hr>
          </ns3:TrackPointExtension>
        </extensions>
      </trkpt>
      <trkpt lat="-22.0094499550759792327880859375" lon="166.46448525600135326385498046875">
        <ele>1100.199951171875</ele>
        <time>2016-08-12T20:46:53.000Z</time>
        <extensions>
          <ns3:TrackPointExtension>
            <ns3:atemp>16.0</ns3:atemp>
            <ns3:hr>112</ns3:hr>
          </ns3:TrackPointExtension>
        </extensions>
      </trkpt>
      <trkpt lat="-22.009449787437915802001953125" lon="166.4644838310778141021728515625">
        <ele>1100.199951171875</ele>
        <time>2016-08-12T20:46:54.000Z</time>
        <extensions>
          <ns3:TrackPointExtension>
            <ns3:atemp>16.0</ns3:atemp>
            <ns3:hr>112</ns3:hr>
          </ns3:TrackPointExtension>
        </extensions>
      </trkpt>
      <trkpt lat="-22.0094499550759792327880859375" lon="166.46448357962071895599365234375">
        <ele>1100.199951171875</ele>
        <time>2016-08-12T20:46:55.000Z</time>
        <extensions>
          <ns3:TrackPointExtension>
            <ns3:atemp>16.0</ns3:atemp>
            <ns3:hr>112</ns3:hr>
          </ns3:TrackPointExtension>
        </extensions>
      </trkpt>
      <trkpt lat="-22.0094502903521060943603515625" lon="166.46448433399200439453125">
        <ele>1100.199951171875</ele>
        <time>2016-08-12T20:46:56.000Z</time>
        <extensions>
          <ns3:TrackPointExtension>
            <ns3:atemp>16.0</ns3:atemp>
            <ns3:hr>112</ns3:hr>
          </ns3:TrackPointExtension>
        </extensions>
      </trkpt>
      <trkpt lat="-22.00945146381855010986328125" lon="166.464484669268131256103515625">
        <ele>1100.199951171875</ele>
        <time>2016-08-12T20:46:57.000Z</time>
        <extensions>
          <ns3:TrackPointExtension>
            <ns3:atemp>16.0</ns3:atemp>
            <ns3:hr>112</ns3:hr>
          </ns3:TrackPointExtension>
        </extensions>
      </trkpt>
      <trkpt lat="-22.00945137999951839447021484375" lon="166.46448508836328983306884765625">
        <ele>1100.199951171875</ele>
        <time>2016-08-12T20:46:58.000Z</time>
        <extensions>
          <ns3:TrackPointExtension>
            <ns3:atemp>16.0</ns3:atemp>
            <ns3:hr>111</ns3:hr>
          </ns3:TrackPointExtension>
        </extensions>
      </trkpt>
      <trkpt lat="-22.00945121236145496368408203125" lon="166.4644851721823215484619140625">
        <ele>1100.199951171875</ele>
        <time>2016-08-12T20:46:59.000Z</time>
        <extensions>
          <ns3:TrackPointExtension>
            <ns3:atemp>16.0</ns3:atemp>
            <ns3:hr>111</ns3:hr>
          </ns3:TrackPointExtension>
        </extensions>
      </trkpt>
      <trkpt lat="-22.0094506256282329559326171875" lon="166.46448659710586071014404296875">
        <ele>1100.199951171875</ele>
        <time>2016-08-12T20:47:00.000Z</time>
        <extensions>
          <ns3:TrackPointExtension>
            <ns3:atemp>16.0</ns3:atemp>
            <ns3:hr>111</ns3:hr>
          </ns3:TrackPointExtension>
        </extensions>
      </trkpt>
      <trkpt lat="-22.0094502903521060943603515625" lon="166.46448777057230472564697265625">
        <ele>1100.199951171875</ele>
        <time>2016-08-12T20:47:01.000Z</time>
        <extensions>
          <ns3:TrackPointExtension>
            <ns3:atemp>16.0</ns3:atemp>
            <ns3:hr>111</ns3:hr>
          </ns3:TrackPointExtension>
        </extensions>
      </trkpt>
      <trkpt lat="-22.0094502903521060943603515625" lon="166.46448827348649501800537109375">
        <ele>1100.199951171875</ele>
        <time>2016-08-12T20:47:02.000Z</time>
        <extensions>
          <ns3:TrackPointExtension>
            <ns3:atemp>16.0</ns3:atemp>
            <ns3:hr>112</ns3:hr>
          </ns3:TrackPointExtension>
        </extensions>
      </trkpt>
      <trkpt lat="-22.00944987125694751739501953125" lon="166.4644888602197170257568359375">
        <ele>1100.199951171875</ele>
        <time>2016-08-12T20:47:03.000Z</time>
        <extensions>
          <ns3:TrackPointExtension>
            <ns3:atemp>16.0</ns3:atemp>
            <ns3:hr>112</ns3:hr>
          </ns3:TrackPointExtension>
        </extensions>
      </trkpt>
      <trkpt lat="-22.0094502903521060943603515625" lon="166.4644895307719707489013671875">
        <ele>1100.199951171875</ele>
        <time>2016-08-12T20:47:04.000Z</time>
        <extensions>
          <ns3:TrackPointExtension>
            <ns3:atemp>16.0</ns3:atemp>
            <ns3:hr>112</ns3:hr>
          </ns3:TrackPointExtension>
        </extensions>
      </trkpt>
      <trkpt lat="-22.0094506256282329559326171875" lon="166.46448860876262187957763671875">
        <ele>1100.199951171875</ele>
        <time>2016-08-12T20:47:05.000Z</time>
        <extensions>
          <ns3:TrackPointExtension>
            <ns3:atemp>16.0</ns3:atemp>
            <ns3:hr>112</ns3:hr>
          </ns3:TrackPointExtension>
        </extensions>
      </trkpt>
      <trkpt lat="-22.009449787437915802001953125" lon="166.4644883573055267333984375">
        <ele>1100.199951171875</ele>
        <time>2016-08-12T20:47:06.000Z</time>
        <extensions>
          <ns3:TrackPointExtension>
            <ns3:atemp>16.0</ns3:atemp>
            <ns3:hr>112</ns3:hr>
          </ns3:TrackPointExtension>
        </extensions>
      </trkpt>
      <trkpt lat="-22.0094499550759792327880859375" lon="166.46448760293424129486083984375">
        <ele>1100.199951171875</ele>
        <time>2016-08-12T20:47:07.000Z</time>
        <extensions>
          <ns3:TrackPointExtension>
            <ns3:atemp>16.0</ns3:atemp>
            <ns3:hr>112</ns3:hr>
          </ns3:TrackPointExtension>
        </extensions>
      </trkpt>
      <trkpt lat="-22.0094489492475986480712890625" lon="166.46448542363941669464111328125">
        <ele>1100.199951171875</ele>
        <time>2016-08-12T20:47:08.000Z</time>
        <extensions>
          <ns3:TrackPointExtension>
            <ns3:atemp>16.0</ns3:atemp>
            <ns3:hr>112</ns3:hr>
          </ns3:TrackPointExtension>
        </extensions>
      </trkpt>
      <trkpt lat="-22.00944601558148860931396484375" lon="166.46448374725878238677978515625">
        <ele>1100.4000244140625</ele>
        <time>2016-08-12T20:47:09.000Z</time>
        <extensions>
          <ns3:TrackPointExtension>
            <ns3:atemp>16.0</ns3:atemp>
            <ns3:hr>112</ns3:hr>
          </ns3:TrackPointExtension>
        </extensions>
      </trkpt>
      <trkpt lat="-22.00944400392472743988037109375" lon="166.46448324434459209442138671875">
        <ele>1100.5999755859375</ele>
        <time>2016-08-12T20:47:11.000Z</time>
        <extensions>
          <ns3:TrackPointExtension>
            <ns3:atemp>16.0</ns3:atemp>
            <ns3:hr>112</ns3:hr>
          </ns3:TrackPointExtension>
        </extensions>
      </trkpt>
      <trkpt lat="-22.00944484211504459381103515625" lon="166.46448425017297267913818359375">
        <ele>1100.800048828125</ele>
        <time>2016-08-12T20:47:12.000Z</time>
        <extensions>
          <ns3:TrackPointExtension>
            <ns3:atemp>16.0</ns3:atemp>
            <ns3:hr>112</ns3:hr>
          </ns3:TrackPointExtension>
        </extensions>
      </trkpt>
      <trkpt lat="-22.00944484211504459381103515625" lon="166.46448475308716297149658203125">
        <ele>1101</ele>
        <time>2016-08-12T20:47:13.000Z</time>
        <extensions>
          <ns3:TrackPointExtension>
            <ns3:atemp>16.0</ns3:atemp>
            <ns3:hr>112</ns3:hr>
          </ns3:TrackPointExtension>
        </extensions>
      </trkpt>
      <trkpt lat="-22.0094449259340763092041015625" lon="166.4644851721823215484619140625">
        <ele>1101</ele>
        <time>2016-08-12T20:47:14.000Z</time>
        <extensions>
          <ns3:TrackPointExtension>
            <ns3:atemp>16.0</ns3:atemp>
            <ns3:hr>111</ns3:hr>
          </ns3:TrackPointExtension>
        </extensions>
      </trkpt>
      <trkpt lat="-22.0094449259340763092041015625" lon="166.4644856750965118408203125">
        <ele>1101</ele>
        <time>2016-08-12T20:47:15.000Z</time>
        <extensions>
          <ns3:TrackPointExtension>
            <ns3:atemp>16.0</ns3:atemp>
            <ns3:hr>111</ns3:hr>
          </ns3:TrackPointExtension>
        </extensions>
      </trkpt>
      <trkpt lat="-22.0094445906579494476318359375" lon="166.464486010372638702392578125">
        <ele>1101</ele>
        <time>2016-08-12T20:47:16.000Z</time>
        <extensions>
          <ns3:TrackPointExtension>
            <ns3:atemp>16.0</ns3:atemp>
            <ns3:hr>111</ns3:hr>
          </ns3:TrackPointExtension>
        </extensions>
      </trkpt>
      <trkpt lat="-22.00944467447698116302490234375" lon="166.464486010372638702392578125">
        <ele>1101</ele>
        <time>2016-08-12T20:47:17.000Z</time>
        <extensions>
          <ns3:TrackPointExtension>
            <ns3:atemp>16.0</ns3:atemp>
            <ns3:hr>111</ns3:hr>
          </ns3:TrackPointExtension>
        </extensions>
      </trkpt>
      <trkpt lat="-22.00944802723824977874755859375" lon="166.46448433399200439453125">
        <ele>1101</ele>
        <time>2016-08-12T20:47:18.000Z</time>
        <extensions>
          <ns3:TrackPointExtension>
            <ns3:atemp>16.0</ns3:atemp>
            <ns3:hr>111</ns3:hr>
          </ns3:TrackPointExtension>
        </extensions>
      </trkpt>
      <trkpt lat="-22.00944752432405948638916015625" lon="166.4644808135926723480224609375">
        <ele>1101</ele>
        <time>2016-08-12T20:47:19.000Z</time>
        <extensions>
          <ns3:TrackPointExtension>
            <ns3:atemp>16.0</ns3:atemp>
            <ns3:hr>111</ns3:hr>
          </ns3:TrackPointExtension>
        </extensions>
      </trkpt>
      <trkpt lat="-22.00944878160953521728515625" lon="166.464479975402355194091796875">
        <ele>1101</ele>
        <time>2016-08-12T20:47:21.000Z</time>
        <extensions>
          <ns3:TrackPointExtension>
            <ns3:atemp>16.0</ns3:atemp>
            <ns3:hr>110</ns3:hr>
          </ns3:TrackPointExtension>
        </extensions>
      </trkpt>
      <trkpt lat="-22.00945205055177211761474609375" lon="166.46448232233524322509765625">
        <ele>1101</ele>
        <time>2016-08-12T20:47:23.000Z</time>
        <extensions>
          <ns3:TrackPointExtension>
            <ns3:atemp>16.0</ns3:atemp>
            <ns3:hr>110</ns3:hr>
          </ns3:TrackPointExtension>
        </extensions>
      </trkpt>
      <trkpt lat="-22.009453140199184417724609375" lon="166.46448274143040180206298828125">
        <ele>1101</ele>
        <time>2016-08-12T20:47:25.000Z</time>
        <extensions>
          <ns3:TrackPointExtension>
            <ns3:atemp>16.0</ns3:atemp>
            <ns3:hr>111</ns3:hr>
          </ns3:TrackPointExtension>
        </extensions>
      </trkpt>
      <trkpt lat="-22.0094543136656284332275390625" lon="166.46448257379233837127685546875">
        <ele>1101</ele>
        <time>2016-08-12T20:47:26.000Z</time>
        <extensions>
          <ns3:TrackPointExtension>
            <ns3:atemp>16.0</ns3:atemp>
            <ns3:hr>111</ns3:hr>
          </ns3:TrackPointExtension>
        </extensions>
      </trkpt>
      <trkpt lat="-22.00945548713207244873046875" lon="166.4644818194210529327392578125">
        <ele>1100.800048828125</ele>
        <time>2016-08-12T20:47:27.000Z</time>
        <extensions>
          <ns3:TrackPointExtension>
            <ns3:atemp>16.0</ns3:atemp>
            <ns3:hr>110</ns3:hr>
          </ns3:TrackPointExtension>
        </extensions>
      </trkpt>
      <trkpt lat="-22.00945607386529445648193359375" lon="166.46448240615427494049072265625">
        <ele>1100.800048828125</ele>
        <time>2016-08-12T20:47:28.000Z</time>
        <extensions>
          <ns3:TrackPointExtension>
            <ns3:atemp>16.0</ns3:atemp>
            <ns3:hr>110</ns3:hr>
          </ns3:TrackPointExtension>
        </extensions>
      </trkpt>
      <trkpt lat="-22.0094539783895015716552734375" lon="166.46448408253490924835205078125">
        <ele>1101</ele>
        <time>2016-08-12T20:47:29.000Z</time>
        <extensions>
          <ns3:TrackPointExtension>
            <ns3:atemp>16.0</ns3:atemp>
            <ns3:hr>110</ns3:hr>
          </ns3:TrackPointExtension>
        </extensions>
      </trkpt>
      <trkpt lat="-22.0094529725611209869384765625" lon="166.4644861780107021331787109375">
        <ele>1101.199951171875</ele>
        <time>2016-08-12T20:47:30.000Z</time>
        <extensions>
          <ns3:TrackPointExtension>
            <ns3:atemp>16.0</ns3:atemp>
            <ns3:hr>109</ns3:hr>
          </ns3:TrackPointExtension>
        </extensions>
      </trkpt>
      <trkpt lat="-22.0094519667327404022216796875" lon="166.46448911167681217193603515625">
        <ele>1101.5999755859375</ele>
        <time>2016-08-12T20:47:31.000Z</time>
        <extensions>
          <ns3:TrackPointExtension>
            <ns3:atemp>16.0</ns3:atemp>
            <ns3:hr>110</ns3:hr>
          </ns3:TrackPointExtension>
        </extensions>
      </trkpt>
      <trkpt lat="-22.00944936834275722503662109375" lon="166.46449095569550991058349609375">
        <ele>1101.5999755859375</ele>
        <time>2016-08-12T20:47:32.000Z</time>
        <extensions>
          <ns3:TrackPointExtension>
            <ns3:atemp>16.0</ns3:atemp>
            <ns3:hr>110</ns3:hr>
          </ns3:TrackPointExtension>
        </extensions>
      </trkpt>
      <trkpt lat="-22.0094479434192180633544921875" lon="166.46449263207614421844482421875">
        <ele>1101.5999755859375</ele>
        <time>2016-08-12T20:47:33.000Z</time>
        <extensions>
          <ns3:TrackPointExtension>
            <ns3:atemp>16.0</ns3:atemp>
            <ns3:hr>110</ns3:hr>
          </ns3:TrackPointExtension>
        </extensions>
      </trkpt>
      <trkpt lat="-22.0094462670385837554931640625" lon="166.46449464373290538787841796875">
        <ele>1101.5999755859375</ele>
        <time>2016-08-12T20:47:34.000Z</time>
        <extensions>
          <ns3:TrackPointExtension>
            <ns3:atemp>16.0</ns3:atemp>
            <ns3:hr>110</ns3:hr>
          </ns3:TrackPointExtension>
        </extensions>
      </trkpt>
      <trkpt lat="-22.00944718904793262481689453125" lon="166.46449598483741283416748046875">
        <ele>1101.5999755859375</ele>
        <time>2016-08-12T20:47:36.000Z</time>
        <extensions>
          <ns3:TrackPointExtension>
            <ns3:atemp>16.0</ns3:atemp>
            <ns3:hr>110</ns3:hr>
          </ns3:TrackPointExtension>
        </extensions>
      </trkpt>
      <trkpt lat="-22.00944920070469379425048828125" lon="166.46449497900903224945068359375">
        <ele>1101.5999755859375</ele>
        <time>2016-08-12T20:47:37.000Z</time>
        <extensions>
          <ns3:TrackPointExtension>
            <ns3:atemp>16.0</ns3:atemp>
            <ns3:hr>109</ns3:hr>
          </ns3:TrackPointExtension>
        </extensions>
      </trkpt>
      <trkpt lat="-22.00945121236145496368408203125" lon="166.4644948951900005340576171875">
        <ele>1101.4000244140625</ele>
        <time>2016-08-12T20:47:38.000Z</time>
        <extensions>
          <ns3:TrackPointExtension>
            <ns3:atemp>16.0</ns3:atemp>
            <ns3:hr>109</ns3:hr>
          </ns3:TrackPointExtension>
        </extensions>
      </trkpt>
      <trkpt lat="-22.009453140199184417724609375" lon="166.4644955657422542572021484375">
        <ele>1101</ele>
        <time>2016-08-12T20:47:40.000Z</time>
        <extensions>
          <ns3:TrackPointExtension>
            <ns3:atemp>16.0</ns3:atemp>
            <ns3:hr>109</ns3:hr>
          </ns3:TrackPointExtension>
        </extensions>
      </trkpt>
      <trkpt lat="-22.009452469646930694580078125" lon="166.4644948951900005340576171875">
        <ele>1101</ele>
        <time>2016-08-12T20:47:41.000Z</time>
        <extensions>
          <ns3:TrackPointExtension>
            <ns3:atemp>16.0</ns3:atemp>
            <ns3:hr>109</ns3:hr>
          </ns3:TrackPointExtension>
        </extensions>
      </trkpt>
      <trkpt lat="-22.00944920070469379425048828125" lon="166.464503109455108642578125">
        <ele>1101</ele>
        <time>2016-08-12T20:47:42.000Z</time>
        <extensions>
          <ns3:TrackPointExtension>
            <ns3:atemp>16.0</ns3:atemp>
            <ns3:hr>108</ns3:hr>
          </ns3:TrackPointExtension>
        </extensions>
      </trkpt>
      <trkpt lat="-22.00944987125694751739501953125" lon="166.464506126940250396728515625">
        <ele>1101.199951171875</ele>
        <time>2016-08-12T20:47:44.000Z</time>
        <extensions>
          <ns3:TrackPointExtension>
            <ns3:atemp>16.0</ns3:atemp>
            <ns3:hr>108</ns3:hr>
          </ns3:TrackPointExtension>
        </extensions>
      </trkpt>
      <trkpt lat="-22.009447775781154632568359375" lon="166.4645059593021869659423828125">
        <ele>1101.199951171875</ele>
        <time>2016-08-12T20:47:45.000Z</time>
        <extensions>
          <ns3:TrackPointExtension>
            <ns3:atemp>16.0</ns3:atemp>
            <ns3:hr>107</ns3:hr>
          </ns3:TrackPointExtension>
        </extensions>
      </trkpt>
      <trkpt lat="-22.0094476081430912017822265625" lon="166.46450646221637725830078125">
        <ele>1101.199951171875</ele>
        <time>2016-08-12T20:47:47.000Z</time>
        <extensions>
          <ns3:TrackPointExtension>
            <ns3:atemp>16.0</ns3:atemp>
            <ns3:hr>107</ns3:hr>
          </ns3:TrackPointExtension>
        </extensions>
      </trkpt>
      <trkpt lat="-22.009446434676647186279296875" lon="166.4645073004066944122314453125">
        <ele>1101.199951171875</ele>
        <time>2016-08-12T20:47:48.000Z</time>
        <extensions>
          <ns3:TrackPointExtension>
            <ns3:atemp>16.0</ns3:atemp>
            <ns3:hr>108</ns3:hr>
          </ns3:TrackPointExtension>
        </extensions>
      </trkpt>
      <trkpt lat="-22.0094455964863300323486328125" lon="166.46450805477797985076904296875">
        <ele>1101.199951171875</ele>
        <time>2016-08-12T20:47:49.000Z</time>
        <extensions>
          <ns3:TrackPointExtension>
            <ns3:atemp>16.0</ns3:atemp>
            <ns3:hr>108</ns3:hr>
          </ns3:TrackPointExtension>
        </extensions>
      </trkpt>
      <trkpt lat="-22.009446434676647186279296875" lon="166.464508473873138427734375">
        <ele>1101.199951171875</ele>
        <time>2016-08-12T20:47:50.000Z</time>
        <extensions>
          <ns3:TrackPointExtension>
            <ns3:atemp>16.0</ns3:atemp>
            <ns3:hr>108</ns3:hr>
          </ns3:TrackPointExtension>
        </extensions>
      </trkpt>
      <trkpt lat="-22.0094469375908374786376953125" lon="166.46450780332088470458984375">
        <ele>1101.4000244140625</ele>
        <time>2016-08-12T20:47:51.000Z</time>
        <extensions>
          <ns3:TrackPointExtension>
            <ns3:atemp>16.0</ns3:atemp>
            <ns3:hr>108</ns3:hr>
          </ns3:TrackPointExtension>
        </extensions>
      </trkpt>
      <trkpt lat="-22.0094482786953449249267578125" lon="166.46450721658766269683837890625">
        <ele>1101.4000244140625</ele>
        <time>2016-08-12T20:47:52.000Z</time>
        <extensions>
          <ns3:TrackPointExtension>
            <ns3:atemp>16.0</ns3:atemp>
            <ns3:hr>108</ns3:hr>
          </ns3:TrackPointExtension>
        </extensions>
      </trkpt>
      <trkpt lat="-22.00944869779050350189208984375" lon="166.46450671367347240447998046875">
        <ele>1101.4000244140625</ele>
        <time>2016-08-12T20:47:53.000Z</time>
        <extensions>
          <ns3:TrackPointExtension>
            <ns3:atemp>16.0</ns3:atemp>
            <ns3:hr>108</ns3:hr>
          </ns3:TrackPointExtension>
        </extensions>
      </trkpt>
      <trkpt lat="-22.0094489492475986480712890625" lon="166.4645062945783138275146484375">
        <ele>1101.199951171875</ele>
        <time>2016-08-12T20:47:54.000Z</time>
        <extensions>
          <ns3:TrackPointExtension>
            <ns3:atemp>16.0</ns3:atemp>
            <ns3:hr>108</ns3:hr>
          </ns3:TrackPointExtension>
        </extensions>
      </trkpt>
      <trkpt lat="-22.009449116885662078857421875" lon="166.46450587548315525054931640625">
        <ele>1101</ele>
        <time>2016-08-12T20:47:55.000Z</time>
        <extensions>
          <ns3:TrackPointExtension>
            <ns3:atemp>16.0</ns3:atemp>
            <ns3:hr>108</ns3:hr>
          </ns3:TrackPointExtension>
        </extensions>
      </trkpt>
      <trkpt lat="-22.009448446333408355712890625" lon="166.464506126940250396728515625">
        <ele>1101</ele>
        <time>2016-08-12T20:47:56.000Z</time>
        <extensions>
          <ns3:TrackPointExtension>
            <ns3:atemp>16.0</ns3:atemp>
            <ns3:hr>108</ns3:hr>
          </ns3:TrackPointExtension>
        </extensions>
      </trkpt>
      <trkpt lat="-22.0094502903521060943603515625" lon="166.46450436674058437347412109375">
        <ele>1101</ele>
        <time>2016-08-12T20:47:57.000Z</time>
        <extensions>
          <ns3:TrackPointExtension>
            <ns3:atemp>16.0</ns3:atemp>
            <ns3:hr>108</ns3:hr>
          </ns3:TrackPointExtension>
        </extensions>
      </trkpt>
      <trkpt lat="-22.00945104472339153289794921875" lon="166.4645052887499332427978515625">
        <ele>1100.800048828125</ele>
        <time>2016-08-12T20:47:59.000Z</time>
        <extensions>
          <ns3:TrackPointExtension>
            <ns3:atemp>16.0</ns3:atemp>
            <ns3:hr>108</ns3:hr>
          </ns3:TrackPointExtension>
        </extensions>
      </trkpt>
      <trkpt lat="-22.00945121236145496368408203125" lon="166.46450671367347240447998046875">
        <ele>1100.800048828125</ele>
        <time>2016-08-12T20:48:00.000Z</time>
        <extensions>
          <ns3:TrackPointExtension>
            <ns3:atemp>16.0</ns3:atemp>
            <ns3:hr>108</ns3:hr>
          </ns3:TrackPointExtension>
        </extensions>
      </trkpt>
      <trkpt lat="-22.009452469646930694580078125" lon="166.46450788713991641998291015625">
        <ele>1100.800048828125</ele>
        <time>2016-08-12T20:48:01.000Z</time>
        <extensions>
          <ns3:TrackPointExtension>
            <ns3:atemp>16.0</ns3:atemp>
            <ns3:hr>109</ns3:hr>
          </ns3:TrackPointExtension>
        </extensions>
      </trkpt>
      <trkpt lat="-22.00945205055177211761474609375" lon="166.46450855769217014312744140625">
        <ele>1100.800048828125</ele>
        <time>2016-08-12T20:48:02.000Z</time>
        <extensions>
          <ns3:TrackPointExtension>
            <ns3:atemp>16.0</ns3:atemp>
            <ns3:hr>108</ns3:hr>
          </ns3:TrackPointExtension>
        </extensions>
      </trkpt>
      <trkpt lat="-22.00945272110402584075927734375" lon="166.464508473873138427734375">
        <ele>1100.800048828125</ele>
        <time>2016-08-12T20:48:03.000Z</time>
        <extensions>
          <ns3:TrackPointExtension>
            <ns3:atemp>16.0</ns3:atemp>
            <ns3:hr>108</ns3:hr>
          </ns3:TrackPointExtension>
        </extensions>
      </trkpt>
      <trkpt lat="-22.0094526372849941253662109375" lon="166.46450872533023357391357421875">
        <ele>1100.800048828125</ele>
        <time>2016-08-12T20:48:04.000Z</time>
        <extensions>
          <ns3:TrackPointExtension>
            <ns3:atemp>16.0</ns3:atemp>
            <ns3:hr>108</ns3:hr>
          </ns3:TrackPointExtension>
        </extensions>
      </trkpt>
      <trkpt lat="-22.00945372693240642547607421875" lon="166.46450989879667758941650390625">
        <ele>1100.800048828125</ele>
        <time>2016-08-12T20:48:05.000Z</time>
        <extensions>
          <ns3:TrackPointExtension>
            <ns3:atemp>17.0</ns3:atemp>
            <ns3:hr>108</ns3:hr>
          </ns3:TrackPointExtension>
        </extensions>
      </trkpt>
      <trkpt lat="-22.0094536431133747100830078125" lon="166.46451207809150218963623046875">
        <ele>1100.800048828125</ele>
        <time>2016-08-12T20:48:06.000Z</time>
        <extensions>
          <ns3:TrackPointExtension>
            <ns3:atemp>17.0</ns3:atemp>
            <ns3:hr>108</ns3:hr>
          </ns3:TrackPointExtension>
        </extensions>
      </trkpt>
      <trkpt lat="-22.00945573858916759490966796875" lon="166.4645096473395824432373046875">
        <ele>1101</ele>
        <time>2016-08-12T20:48:08.000Z</time>
        <extensions>
          <ns3:TrackPointExtension>
            <ns3:atemp>17.0</ns3:atemp>
            <ns3:hr>108</ns3:hr>
          </ns3:TrackPointExtension>
        </extensions>
      </trkpt>
      <trkpt lat="-22.00945339165627956390380859375" lon="166.46450855769217014312744140625">
        <ele>1101</ele>
        <time>2016-08-12T20:48:09.000Z</time>
        <extensions>
          <ns3:TrackPointExtension>
            <ns3:atemp>17.0</ns3:atemp>
            <ns3:hr>109</ns3:hr>
          </ns3:TrackPointExtension>
        </extensions>
      </trkpt>
      <trkpt lat="-22.00944953598082065582275390625" lon="166.46450378000736236572265625">
        <ele>1101</ele>
        <time>2016-08-12T20:48:10.000Z</time>
        <extensions>
          <ns3:TrackPointExtension>
            <ns3:atemp>17.0</ns3:atemp>
            <ns3:hr>109</ns3:hr>
          </ns3:TrackPointExtension>
        </extensions>
      </trkpt>
      <trkpt lat="-22.009442746639251708984375" lon="166.464496739208698272705078125">
        <ele>1101</ele>
        <time>2016-08-12T20:48:11.000Z</time>
        <extensions>
          <ns3:TrackPointExtension>
            <ns3:atemp>17.0</ns3:atemp>
            <ns3:hr>110</ns3:hr>
          </ns3:TrackPointExtension>
        </extensions>
      </trkpt>
      <trkpt lat="-22.00943805277347564697265625" lon="166.46449011750519275665283203125">
        <ele>1101</ele>
        <time>2016-08-12T20:48:12.000Z</time>
        <extensions>
          <ns3:TrackPointExtension>
            <ns3:atemp>17.0</ns3:atemp>
            <ns3:hr>111</ns3:hr>
          </ns3:TrackPointExtension>
        </extensions>
      </trkpt>
      <trkpt lat="-22.00943277217447757720947265625" lon="166.46448609419167041778564453125">
        <ele>1101</ele>
        <time>2016-08-12T20:48:13.000Z</time>
        <extensions>
          <ns3:TrackPointExtension>
            <ns3:atemp>17.0</ns3:atemp>
            <ns3:hr>112</ns3:hr>
          </ns3:TrackPointExtension>
        </extensions>
      </trkpt>
      <trkpt lat="-22.00943092815577983856201171875" lon="166.4644855074584484100341796875">
        <ele>1101</ele>
        <time>2016-08-12T20:48:14.000Z</time>
        <extensions>
          <ns3:TrackPointExtension>
            <ns3:atemp>17.0</ns3:atemp>
            <ns3:hr>113</ns3:hr>
          </ns3:TrackPointExtension>
        </extensions>
      </trkpt>
      <trkpt lat="-22.009433023631572723388671875" lon="166.464483998715877532958984375">
        <ele>1100.800048828125</ele>
        <time>2016-08-12T20:48:16.000Z</time>
        <extensions>
          <ns3:TrackPointExtension>
            <ns3:atemp>17.0</ns3:atemp>
            <ns3:hr>112</ns3:hr>
          </ns3:TrackPointExtension>
        </extensions>
      </trkpt>
      <trkpt lat="-22.0094341970980167388916015625" lon="166.4644834958016872406005859375">
        <ele>1100.800048828125</ele>
        <time>2016-08-12T20:48:17.000Z</time>
        <extensions>
          <ns3:TrackPointExtension>
            <ns3:atemp>17.0</ns3:atemp>
            <ns3:hr>111</ns3:hr>
          </ns3:TrackPointExtension>
        </extensions>
      </trkpt>
      <trkpt lat="-22.009433023631572723388671875" lon="166.464483328163623809814453125">
        <ele>1100.800048828125</ele>
        <time>2016-08-12T20:48:18.000Z</time>
        <extensions>
          <ns3:TrackPointExtension>
            <ns3:atemp>17.0</ns3:atemp>
            <ns3:hr>110</ns3:hr>
          </ns3:TrackPointExtension>
        </extensions>
      </trkpt>
      <trkpt lat="-22.00943109579384326934814453125" lon="166.46448391489684581756591796875">
        <ele>1100.800048828125</ele>
        <time>2016-08-12T20:48:19.000Z</time>
        <extensions>
          <ns3:TrackPointExtension>
            <ns3:atemp>17.0</ns3:atemp>
            <ns3:hr>109</ns3:hr>
          </ns3:TrackPointExtension>
        </extensions>
      </trkpt>
      <trkpt lat="-22.009429000318050384521484375" lon="166.46448408253490924835205078125">
        <ele>1100.5999755859375</ele>
        <time>2016-08-12T20:48:20.000Z</time>
        <extensions>
          <ns3:TrackPointExtension>
            <ns3:atemp>17.0</ns3:atemp>
            <ns3:hr>108</ns3:hr>
          </ns3:TrackPointExtension>
        </extensions>
      </trkpt>
      <trkpt lat="-22.00942673720419406890869140625" lon="166.4644841663539409637451171875">
        <ele>1100.5999755859375</ele>
        <time>2016-08-12T20:48:22.000Z</time>
        <extensions>
          <ns3:TrackPointExtension>
            <ns3:atemp>17.0</ns3:atemp>
            <ns3:hr>109</ns3:hr>
          </ns3:TrackPointExtension>
        </extensions>
      </trkpt>
      <trkpt lat="-22.00942623429000377655029296875" lon="166.46448500454425811767578125">
        <ele>1100.5999755859375</ele>
        <time>2016-08-12T20:48:23.000Z</time>
        <extensions>
          <ns3:TrackPointExtension>
            <ns3:atemp>17.0</ns3:atemp>
            <ns3:hr>109</ns3:hr>
          </ns3:TrackPointExtension>
        </extensions>
      </trkpt>
      <trkpt lat="-22.00942724011838436126708984375" lon="166.4644845016300678253173828125">
        <ele>1100.5999755859375</ele>
        <time>2016-08-12T20:48:24.000Z</time>
        <extensions>
          <ns3:TrackPointExtension>
            <ns3:atemp>17.0</ns3:atemp>
            <ns3:hr>109</ns3:hr>
          </ns3:TrackPointExtension>
        </extensions>
      </trkpt>
      <trkpt lat="-22.0094279944896697998046875" lon="166.46448508836328983306884765625">
        <ele>1100.5999755859375</ele>
        <time>2016-08-12T20:48:25.000Z</time>
        <extensions>
          <ns3:TrackPointExtension>
            <ns3:atemp>17.0</ns3:atemp>
            <ns3:hr>107</ns3:hr>
          </ns3:TrackPointExtension>
        </extensions>
      </trkpt>
      <trkpt lat="-22.00942774303257465362548828125" lon="166.46448609419167041778564453125">
        <ele>1100.5999755859375</ele>
        <time>2016-08-12T20:48:26.000Z</time>
        <extensions>
          <ns3:TrackPointExtension>
            <ns3:atemp>17.0</ns3:atemp>
            <ns3:hr>106</ns3:hr>
          </ns3:TrackPointExtension>
        </extensions>
      </trkpt>
      <trkpt lat="-22.0094288326799869537353515625" lon="166.4644834958016872406005859375">
        <ele>1100.5999755859375</ele>
        <time>2016-08-12T20:48:27.000Z</time>
        <extensions>
          <ns3:TrackPointExtension>
            <ns3:atemp>17.0</ns3:atemp>
            <ns3:hr>103</ns3:hr>
          </ns3:TrackPointExtension>
        </extensions>
      </trkpt>
      <trkpt lat="-22.00943109579384326934814453125" lon="166.4644834958016872406005859375">
        <ele>1100.4000244140625</ele>
        <time>2016-08-12T20:48:29.000Z</time>
        <extensions>
          <ns3:TrackPointExtension>
            <ns3:atemp>17.0</ns3:atemp>
            <ns3:hr>102</ns3:hr>
          </ns3:TrackPointExtension>
        </extensions>
      </trkpt>
      <trkpt lat="-22.009431682527065277099609375" lon="166.4644829928874969482421875">
        <ele>1100.4000244140625</ele>
        <time>2016-08-12T20:48:30.000Z</time>
        <extensions>
          <ns3:TrackPointExtension>
            <ns3:atemp>17.0</ns3:atemp>
            <ns3:hr>101</ns3:hr>
          </ns3:TrackPointExtension>
        </extensions>
      </trkpt>
      <trkpt lat="-22.0094325207173824310302734375" lon="166.4644829928874969482421875">
        <ele>1100.5999755859375</ele>
        <time>2016-08-12T20:48:31.000Z</time>
        <extensions>
          <ns3:TrackPointExtension>
            <ns3:atemp>17.0</ns3:atemp>
            <ns3:hr>102</ns3:hr>
          </ns3:TrackPointExtension>
        </extensions>
      </trkpt>
      <trkpt lat="-22.00943260453641414642333984375" lon="166.46448492072522640228271484375">
        <ele>1100.5999755859375</ele>
        <time>2016-08-12T20:48:32.000Z</time>
        <extensions>
          <ns3:TrackPointExtension>
            <ns3:atemp>17.0</ns3:atemp>
            <ns3:hr>102</ns3:hr>
          </ns3:TrackPointExtension>
        </extensions>
      </trkpt>
      <trkpt lat="-22.00943277217447757720947265625" lon="166.46448408253490924835205078125">
        <ele>1100.5999755859375</ele>
        <time>2016-08-12T20:48:33.000Z</time>
        <extensions>
          <ns3:TrackPointExtension>
            <ns3:atemp>17.0</ns3:atemp>
            <ns3:hr>103</ns3:hr>
          </ns3:TrackPointExtension>
        </extensions>
      </trkpt>
      <trkpt lat="-22.00943210162222385406494140625" lon="166.46448475308716297149658203125">
        <ele>1100.5999755859375</ele>
        <time>2016-08-12T20:48:34.000Z</time>
        <extensions>
          <ns3:TrackPointExtension>
            <ns3:atemp>17.0</ns3:atemp>
            <ns3:hr>104</ns3:hr>
          </ns3:TrackPointExtension>
        </extensions>
      </trkpt>
      <trkpt lat="-22.00943143106997013092041015625" lon="166.4644831605255603790283203125">
        <ele>1100.5999755859375</ele>
        <time>2016-08-12T20:48:35.000Z</time>
        <extensions>
          <ns3:TrackPointExtension>
            <ns3:atemp>17.0</ns3:atemp>
            <ns3:hr>105</ns3:hr>
          </ns3:TrackPointExtension>
        </extensions>
      </trkpt>
      <trkpt lat="-22.00942958705127239227294921875" lon="166.4644828252494335174560546875">
        <ele>1100.800048828125</ele>
        <time>2016-08-12T20:48:36.000Z</time>
        <extensions>
          <ns3:TrackPointExtension>
            <ns3:atemp>17.0</ns3:atemp>
            <ns3:hr>106</ns3:hr>
          </ns3:TrackPointExtension>
        </extensions>
      </trkpt>
      <trkpt lat="-22.00942858122289180755615234375" lon="166.46448232233524322509765625">
        <ele>1100.800048828125</ele>
        <time>2016-08-12T20:48:37.000Z</time>
        <extensions>
          <ns3:TrackPointExtension>
            <ns3:atemp>17.0</ns3:atemp>
            <ns3:hr>107</ns3:hr>
          </ns3:TrackPointExtension>
        </extensions>
      </trkpt>
      <trkpt lat="-22.00942732393741607666015625" lon="166.464481651782989501953125">
        <ele>1100.800048828125</ele>
        <time>2016-08-12T20:48:38.000Z</time>
        <extensions>
          <ns3:TrackPointExtension>
            <ns3:atemp>17.0</ns3:atemp>
            <ns3:hr>107</ns3:hr>
          </ns3:TrackPointExtension>
        </extensions>
      </trkpt>
      <trkpt lat="-22.00942757539451122283935546875" lon="166.46448123268783092498779296875">
        <ele>1100.800048828125</ele>
        <time>2016-08-12T20:48:39.000Z</time>
        <extensions>
          <ns3:TrackPointExtension>
            <ns3:atemp>17.0</ns3:atemp>
            <ns3:hr>107</ns3:hr>
          </ns3:TrackPointExtension>
        </extensions>
      </trkpt>
      <trkpt lat="-22.0094281621277332305908203125" lon="166.464481987059116363525390625">
        <ele>1100.800048828125</ele>
        <time>2016-08-12T20:48:40.000Z</time>
        <extensions>
          <ns3:TrackPointExtension>
            <ns3:atemp>17.0</ns3:atemp>
            <ns3:hr>106</ns3:hr>
          </ns3:TrackPointExtension>
        </extensions>
      </trkpt>
      <trkpt lat="-22.00943000614643096923828125" lon="166.46448324434459209442138671875">
        <ele>1100.800048828125</ele>
        <time>2016-08-12T20:48:41.000Z</time>
        <extensions>
          <ns3:TrackPointExtension>
            <ns3:atemp>17.0</ns3:atemp>
            <ns3:hr>105</ns3:hr>
          </ns3:TrackPointExtension>
        </extensions>
      </trkpt>
      <trkpt lat="-22.009429670870304107666015625" lon="166.464476287364959716796875">
        <ele>1100.800048828125</ele>
        <time>2016-08-12T20:48:42.000Z</time>
        <extensions>
          <ns3:TrackPointExtension>
            <ns3:atemp>17.0</ns3:atemp>
            <ns3:hr>104</ns3:hr>
          </ns3:TrackPointExtension>
        </extensions>
      </trkpt>
      <trkpt lat="-22.00943210162222385406494140625" lon="166.4644643850624561309814453125">
        <ele>1100.800048828125</ele>
        <time>2016-08-12T20:48:43.000Z</time>
        <extensions>
          <ns3:TrackPointExtension>
            <ns3:atemp>17.0</ns3:atemp>
            <ns3:hr>105</ns3:hr>
          </ns3:TrackPointExtension>
        </extensions>
      </trkpt>
      <trkpt lat="-22.0094321854412555694580078125" lon="166.46445357240736484527587890625">
        <ele>1100.800048828125</ele>
        <time>2016-08-12T20:48:44.000Z</time>
        <extensions>
          <ns3:TrackPointExtension>
            <ns3:atemp>17.0</ns3:atemp>
            <ns3:hr>105</ns3:hr>
          </ns3:TrackPointExtension>
        </extensions>
      </trkpt>
      <trkpt lat="-22.00943243689835071563720703125" lon="166.4644432626664638519287109375">
        <ele>1100.800048828125</ele>
        <time>2016-08-12T20:48:45.000Z</time>
        <extensions>
          <ns3:TrackPointExtension>
            <ns3:atemp>17.0</ns3:atemp>
            <ns3:hr>106</ns3:hr>
          </ns3:TrackPointExtension>
        </extensions>
      </trkpt>
      <trkpt lat="-22.0094335265457630157470703125" lon="166.4644320309162139892578125">
        <ele>1101</ele>
        <time>2016-08-12T20:48:46.000Z</time>
        <extensions>
          <ns3:TrackPointExtension>
            <ns3:atemp>17.0</ns3:atemp>
            <ns3:hr>107</ns3:hr>
          </ns3:TrackPointExtension>
        </extensions>
      </trkpt>
      <trkpt lat="-22.00943830423057079315185546875" lon="166.46441786549985408782958984375">
        <ele>1100.800048828125</ele>
        <time>2016-08-12T20:48:47.000Z</time>
        <extensions>
          <ns3:TrackPointExtension>
            <ns3:atemp>17.0</ns3:atemp>
            <ns3:hr>107</ns3:hr>
          </ns3:TrackPointExtension>
        </extensions>
      </trkpt>
      <trkpt lat="-22.00944350101053714752197265625" lon="166.4643998444080352783203125">
        <ele>1100.800048828125</ele>
        <time>2016-08-12T20:48:48.000Z</time>
        <extensions>
          <ns3:TrackPointExtension>
            <ns3:atemp>17.0</ns3:atemp>
            <ns3:hr>107</ns3:hr>
          </ns3:TrackPointExtension>
        </extensions>
      </trkpt>
      <trkpt lat="-22.00944936834275722503662109375" lon="166.46438132040202617645263671875">
        <ele>1100.800048828125</ele>
        <time>2016-08-12T20:48:49.000Z</time>
        <extensions>
          <ns3:TrackPointExtension>
            <ns3:atemp>17.0</ns3:atemp>
            <ns3:hr>107</ns3:hr>
          </ns3:TrackPointExtension>
        </extensions>
      </trkpt>
      <trkpt lat="-22.00945355929434299468994140625" lon="166.46436003036797046661376953125">
        <ele>1101.199951171875</ele>
        <time>2016-08-12T20:48:50.000Z</time>
        <extensions>
          <ns3:TrackPointExtension>
            <ns3:atemp>17.0</ns3:atemp>
            <ns3:hr>107</ns3:hr>
          </ns3:TrackPointExtension>
        </extensions>
      </trkpt>
      <trkpt lat="-22.0094583369791507720947265625" lon="166.464336812496185302734375">
        <ele>1101.4000244140625</ele>
        <time>2016-08-12T20:48:51.000Z</time>
        <extensions>
          <ns3:TrackPointExtension>
            <ns3:atemp>17.0</ns3:atemp>
            <ns3:hr>107</ns3:hr>
          </ns3:TrackPointExtension>
        </extensions>
      </trkpt>
      <trkpt lat="-22.0094630308449268341064453125" lon="166.4643131755292415618896484375">
        <ele>1101.4000244140625</ele>
        <time>2016-08-12T20:48:52.000Z</time>
        <extensions>
          <ns3:TrackPointExtension>
            <ns3:atemp>17.0</ns3:atemp>
            <ns3:hr>108</ns3:hr>
          </ns3:TrackPointExtension>
        </extensions>
      </trkpt>
      <trkpt lat="-22.00947065837681293487548828125" lon="166.46428694017231464385986328125">
        <ele>1101</ele>
        <time>2016-08-12T20:48:53.000Z</time>
        <extensions>
          <ns3:TrackPointExtension>
            <ns3:atemp>17.0</ns3:atemp>
            <ns3:hr>108</ns3:hr>
          </ns3:TrackPointExtension>
        </extensions>
      </trkpt>
      <trkpt lat="-22.00947568751871585845947265625" lon="166.46425860933959484100341796875">
        <ele>1100.800048828125</ele>
        <time>2016-08-12T20:48:54.000Z</time>
        <extensions>
          <ns3:TrackPointExtension>
            <ns3:atemp>17.0</ns3:atemp>
            <ns3:hr>110</ns3:hr>
          </ns3:TrackPointExtension>
        </extensions>
      </trkpt>
      <trkpt lat="-22.009479291737079620361328125" lon="166.464232541620731353759765625">
        <ele>1101</ele>
        <time>2016-08-12T20:48:55.000Z</time>
        <extensions>
          <ns3:TrackPointExtension>
            <ns3:atemp>17.0</ns3:atemp>
            <ns3:hr>111</ns3:hr>
          </ns3:TrackPointExtension>
        </extensions>
      </trkpt>
      <trkpt lat="-22.009480297565460205078125" lon="166.464203707873821258544921875">
        <ele>1101</ele>
        <time>2016-08-12T20:48:56.000Z</time>
        <extensions>
          <ns3:TrackPointExtension>
            <ns3:atemp>17.0</ns3:atemp>
            <ns3:hr>112</ns3:hr>
          </ns3:TrackPointExtension>
        </extensions>
      </trkpt>
      <trkpt lat="-22.009482644498348236083984375" lon="166.46417252719402313232421875">
        <ele>1100.800048828125</ele>
        <time>2016-08-12T20:48:57.000Z</time>
        <extensions>
          <ns3:TrackPointExtension>
            <ns3:atemp>17.0</ns3:atemp>
            <ns3:hr>113</ns3:hr>
          </ns3:TrackPointExtension>
        </extensions>
      </trkpt>
      <trkpt lat="-22.0094865001738071441650390625" lon="166.4641438610851764678955078125">
        <ele>1100.5999755859375</ele>
        <time>2016-08-12T20:48:58.000Z</time>
        <extensions>
          <ns3:TrackPointExtension>
            <ns3:atemp>17.0</ns3:atemp>
            <ns3:hr>114</ns3:hr>
          </ns3:TrackPointExtension>
        </extensions>
      </trkpt>
      <trkpt lat="-22.00949127785861492156982421875" lon="166.4641193859279155731201171875">
        <ele>1100.5999755859375</ele>
        <time>2016-08-12T20:48:59.000Z</time>
        <extensions>
          <ns3:TrackPointExtension>
            <ns3:atemp>17.0</ns3:atemp>
            <ns3:hr>115</ns3:hr>
          </ns3:TrackPointExtension>
        </extensions>
      </trkpt>
      <trkpt lat="-22.00949463061988353729248046875" lon="166.464095413684844970703125">
        <ele>1100.5999755859375</ele>
        <time>2016-08-12T20:49:00.000Z</time>
        <extensions>
          <ns3:TrackPointExtension>
            <ns3:atemp>17.0</ns3:atemp>
            <ns3:hr>116</ns3:hr>
          </ns3:TrackPointExtension>
        </extensions>
      </trkpt>
      <trkpt lat="-22.0094999112188816070556640625" lon="166.46406716667115688323974609375">
        <ele>1101</ele>
        <time>2016-08-12T20:49:01.000Z</time>
        <extensions>
          <ns3:TrackPointExtension>
            <ns3:atemp>17.0</ns3:atemp>
            <ns3:hr>117</ns3:hr>
          </ns3:TrackPointExtension>
        </extensions>
      </trkpt>
      <trkpt lat="-22.00950368307530879974365234375" lon="166.464041434228420257568359375">
        <ele>1101</ele>
        <time>2016-08-12T20:49:02.000Z</time>
        <extensions>
          <ns3:TrackPointExtension>
            <ns3:atemp>17.0</ns3:atemp>
            <ns3:hr>118</ns3:hr>
          </ns3:TrackPointExtension>
        </extensions>
      </trkpt>
      <trkpt lat="-22.00950535945594310760498046875" lon="166.46402324549853801727294921875">
        <ele>1100.5999755859375</ele>
        <time>2016-08-12T20:49:03.000Z</time>
        <extensions>
          <ns3:TrackPointExtension>
            <ns3:atemp>17.0</ns3:atemp>
            <ns3:hr>119</ns3:hr>
          </ns3:TrackPointExtension>
        </extensions>
      </trkpt>
      <trkpt lat="-22.00950779020786285400390625" lon="166.46400949917733669281005859375">
        <ele>1100.4000244140625</ele>
        <time>2016-08-12T20:49:04.000Z</time>
        <extensions>
          <ns3:TrackPointExtension>
            <ns3:atemp>17.0</ns3:atemp>
            <ns3:hr>119</ns3:hr>
          </ns3:TrackPointExtension>
        </extensions>
      </trkpt>
      <trkpt lat="-22.009509466588497161865234375" lon="166.463996507227420806884765625">
        <ele>1100.199951171875</ele>
        <time>2016-08-12T20:49:05.000Z</time>
        <extensions>
          <ns3:TrackPointExtension>
            <ns3:atemp>17.0</ns3:atemp>
            <ns3:hr>119</ns3:hr>
          </ns3:TrackPointExtension>
        </extensions>
      </trkpt>
      <trkpt lat="-22.00951172970235347747802734375" lon="166.46398401819169521331787109375">
        <ele>1100.199951171875</ele>
        <time>2016-08-12T20:49:06.000Z</time>
        <extensions>
          <ns3:TrackPointExtension>
            <ns3:atemp>17.0</ns3:atemp>
            <ns3:hr>119</ns3:hr>
          </ns3:TrackPointExtension>
        </extensions>
      </trkpt>
      <trkpt lat="-22.0095153339207172393798828125" lon="166.46397295407950878143310546875">
        <ele>1100.199951171875</ele>
        <time>2016-08-12T20:49:07.000Z</time>
        <extensions>
          <ns3:TrackPointExtension>
            <ns3:atemp>17.0</ns3:atemp>
            <ns3:hr>119</ns3:hr>
          </ns3:TrackPointExtension>
        </extensions>
      </trkpt>
      <trkpt lat="-22.00951994396746158599853515625" lon="166.46396071650087833404541015625">
        <ele>1100.199951171875</ele>
        <time>2016-08-12T20:49:08.000Z</time>
        <extensions>
          <ns3:TrackPointExtension>
            <ns3:atemp>17.0</ns3:atemp>
            <ns3:hr>119</ns3:hr>
          </ns3:TrackPointExtension>
        </extensions>
      </trkpt>
      <trkpt lat="-22.00952447019517421722412109375" lon="166.46394847892224788665771484375">
        <ele>1100.199951171875</ele>
        <time>2016-08-12T20:49:09.000Z</time>
        <extensions>
          <ns3:TrackPointExtension>
            <ns3:atemp>17.0</ns3:atemp>
            <ns3:hr>119</ns3:hr>
          </ns3:TrackPointExtension>
        </extensions>
      </trkpt>
      <trkpt lat="-22.009526900947093963623046875" lon="166.46393557079136371612548828125">
        <ele>1100.4000244140625</ele>
        <time>2016-08-12T20:49:10.000Z</time>
        <extensions>
          <ns3:TrackPointExtension>
            <ns3:atemp>17.0</ns3:atemp>
            <ns3:hr>119</ns3:hr>
          </ns3:TrackPointExtension>
        </extensions>
      </trkpt>
      <trkpt lat="-22.00952497310936450958251953125" lon="166.46392174065113067626953125">
        <ele>1100.199951171875</ele>
        <time>2016-08-12T20:49:11.000Z</time>
        <extensions>
          <ns3:TrackPointExtension>
            <ns3:atemp>17.0</ns3:atemp>
            <ns3:hr>119</ns3:hr>
          </ns3:TrackPointExtension>
        </extensions>
      </trkpt>
      <trkpt lat="-22.009523212909698486328125" lon="166.46390858106315135955810546875">
        <ele>1100</ele>
        <time>2016-08-12T20:49:12.000Z</time>
        <extensions>
          <ns3:TrackPointExtension>
            <ns3:atemp>17.0</ns3:atemp>
            <ns3:hr>118</ns3:hr>
          </ns3:TrackPointExtension>
        </extensions>
      </trkpt>
      <trkpt lat="-22.00952463783323764801025390625" lon="166.4638964273035526275634765625">
        <ele>1099.800048828125</ele>
        <time>2016-08-12T20:49:13.000Z</time>
        <extensions>
          <ns3:TrackPointExtension>
            <ns3:atemp>17.0</ns3:atemp>
            <ns3:hr>118</ns3:hr>
          </ns3:TrackPointExtension>
        </extensions>
      </trkpt>
      <trkpt lat="-22.009528912603855133056640625" lon="166.463883183896541595458984375">
        <ele>1099.5999755859375</ele>
        <time>2016-08-12T20:49:14.000Z</time>
        <extensions>
          <ns3:TrackPointExtension>
            <ns3:atemp>17.0</ns3:atemp>
            <ns3:hr>118</ns3:hr>
          </ns3:TrackPointExtension>
        </extensions>
      </trkpt>
      <trkpt lat="-22.009532935917377471923828125" lon="166.46387086249887943267822265625">
        <ele>1099.5999755859375</ele>
        <time>2016-08-12T20:49:15.000Z</time>
        <extensions>
          <ns3:TrackPointExtension>
            <ns3:atemp>17.0</ns3:atemp>
            <ns3:hr>117</ns3:hr>
          </ns3:TrackPointExtension>
        </extensions>
      </trkpt>
      <trkpt lat="-22.0095379650592803955078125" lon="166.46385778672993183135986328125">
        <ele>1099.5999755859375</ele>
        <time>2016-08-12T20:49:16.000Z</time>
        <extensions>
          <ns3:TrackPointExtension>
            <ns3:atemp>17.0</ns3:atemp>
            <ns3:hr>116</ns3:hr>
          </ns3:TrackPointExtension>
        </extensions>
      </trkpt>
      <trkpt lat="-22.009543664753437042236328125" lon="166.463845632970333099365234375">
        <ele>1099.5999755859375</ele>
        <time>2016-08-12T20:49:17.000Z</time>
        <extensions>
          <ns3:TrackPointExtension>
            <ns3:atemp>17.0</ns3:atemp>
            <ns3:hr>116</ns3:hr>
          </ns3:TrackPointExtension>
        </extensions>
      </trkpt>
      <trkpt lat="-22.00954911299049854278564453125" lon="166.46383247338235378265380859375">
        <ele>1099.4000244140625</ele>
        <time>2016-08-12T20:49:18.000Z</time>
        <extensions>
          <ns3:TrackPointExtension>
            <ns3:atemp>17.0</ns3:atemp>
            <ns3:hr>115</ns3:hr>
          </ns3:TrackPointExtension>
        </extensions>
      </trkpt>
      <trkpt lat="-22.00955162756145000457763671875" lon="166.46381990052759647369384765625">
        <ele>1099.4000244140625</ele>
        <time>2016-08-12T20:49:19.000Z</time>
        <extensions>
          <ns3:TrackPointExtension>
            <ns3:atemp>17.0</ns3:atemp>
            <ns3:hr>114</ns3:hr>
          </ns3:TrackPointExtension>
        </extensions>
      </trkpt>
      <trkpt lat="-22.009555064141750335693359375" lon="166.463806740939617156982421875">
        <ele>1099.4000244140625</ele>
        <time>2016-08-12T20:49:20.000Z</time>
        <extensions>
          <ns3:TrackPointExtension>
            <ns3:atemp>17.0</ns3:atemp>
            <ns3:hr>114</ns3:hr>
          </ns3:TrackPointExtension>
        </extensions>
      </trkpt>
      <trkpt lat="-22.0095585845410823822021484375" lon="166.46379425190389156341552734375">
        <ele>1099.4000244140625</ele>
        <time>2016-08-12T20:49:21.000Z</time>
        <extensions>
          <ns3:TrackPointExtension>
            <ns3:atemp>17.0</ns3:atemp>
            <ns3:hr>114</ns3:hr>
          </ns3:TrackPointExtension>
        </extensions>
      </trkpt>
      <trkpt lat="-22.00956436805427074432373046875" lon="166.4637807570397853851318359375">
        <ele>1099.4000244140625</ele>
        <time>2016-08-12T20:49:22.000Z</time>
        <extensions>
          <ns3:TrackPointExtension>
            <ns3:atemp>17.0</ns3:atemp>
            <ns3:hr>114</ns3:hr>
          </ns3:TrackPointExtension>
        </extensions>
      </trkpt>
      <trkpt lat="-22.0095713250339031219482421875" lon="166.46376357413828372955322265625">
        <ele>1099.199951171875</ele>
        <time>2016-08-12T20:49:23.000Z</time>
        <extensions>
          <ns3:TrackPointExtension>
            <ns3:atemp>17.0</ns3:atemp>
            <ns3:hr>114</ns3:hr>
          </ns3:TrackPointExtension>
        </extensions>
      </trkpt>
      <trkpt lat="-22.0095808804035186767578125" lon="166.46374278701841831207275390625">
        <ele>1099.4000244140625</ele>
        <time>2016-08-12T20:49:24.000Z</time>
        <extensions>
          <ns3:TrackPointExtension>
            <ns3:atemp>17.0</ns3:atemp>
            <ns3:hr>114</ns3:hr>
          </ns3:TrackPointExtension>
        </extensions>
      </trkpt>
      <trkpt lat="-22.00958683155477046966552734375" lon="166.46372015587985515594482421875">
        <ele>1099.4000244140625</ele>
        <time>2016-08-12T20:49:25.000Z</time>
        <extensions>
          <ns3:TrackPointExtension>
            <ns3:atemp>17.0</ns3:atemp>
            <ns3:hr>114</ns3:hr>
          </ns3:TrackPointExtension>
        </extensions>
      </trkpt>
      <trkpt lat="-22.0095916092395782470703125" lon="166.463698782026767730712890625">
        <ele>1099.199951171875</ele>
        <time>2016-08-12T20:49:26.000Z</time>
        <extensions>
          <ns3:TrackPointExtension>
            <ns3:atemp>17.0</ns3:atemp>
            <ns3:hr>114</ns3:hr>
          </ns3:TrackPointExtension>
        </extensions>
      </trkpt>
      <trkpt lat="-22.009595967829227447509765625" lon="166.46367707289755344390869140625">
        <ele>1099</ele>
        <time>2016-08-12T20:49:27.000Z</time>
        <extensions>
          <ns3:TrackPointExtension>
            <ns3:atemp>17.0</ns3:atemp>
            <ns3:hr>115</ns3:hr>
          </ns3:TrackPointExtension>
        </extensions>
      </trkpt>
      <trkpt lat="-22.00959839858114719390869140625" lon="166.46365159191191196441650390625">
        <ele>1098.800048828125</ele>
        <time>2016-08-12T20:49:28.000Z</time>
        <extensions>
          <ns3:TrackPointExtension>
            <ns3:atemp>17.0</ns3:atemp>
            <ns3:hr>115</ns3:hr>
          </ns3:TrackPointExtension>
        </extensions>
      </trkpt>
      <trkpt lat="-22.00959839858114719390869140625" lon="166.46362678147852420806884765625">
        <ele>1098.4000244140625</ele>
        <time>2016-08-12T20:49:29.000Z</time>
        <extensions>
          <ns3:TrackPointExtension>
            <ns3:atemp>17.0</ns3:atemp>
            <ns3:hr>116</ns3:hr>
          </ns3:TrackPointExtension>
        </extensions>
      </trkpt>
      <trkpt lat="-22.0095964707434177398681640625" lon="166.4636027254164218902587890625">
        <ele>1098.199951171875</ele>
        <time>2016-08-12T20:49:30.000Z</time>
        <extensions>
          <ns3:TrackPointExtension>
            <ns3:atemp>17.0</ns3:atemp>
            <ns3:hr>116</ns3:hr>
          </ns3:TrackPointExtension>
        </extensions>
      </trkpt>
      <trkpt lat="-22.0095921121537685394287109375" lon="166.4635772444307804107666015625">
        <ele>1097.800048828125</ele>
        <time>2016-08-12T20:49:31.000Z</time>
        <extensions>
          <ns3:TrackPointExtension>
            <ns3:atemp>17.0</ns3:atemp>
            <ns3:hr>116</ns3:hr>
          </ns3:TrackPointExtension>
        </extensions>
      </trkpt>
      <trkpt lat="-22.009589932858943939208984375" lon="166.46355293691158294677734375">
        <ele>1097.5999755859375</ele>
        <time>2016-08-12T20:49:32.000Z</time>
        <extensions>
          <ns3:TrackPointExtension>
            <ns3:atemp>17.0</ns3:atemp>
            <ns3:hr>117</ns3:hr>
          </ns3:TrackPointExtension>
        </extensions>
      </trkpt>
      <trkpt lat="-22.00958515517413616180419921875" lon="166.46352955140173435211181640625">
        <ele>1097.4000244140625</ele>
        <time>2016-08-12T20:49:33.000Z</time>
        <extensions>
          <ns3:TrackPointExtension>
            <ns3:atemp>17.0</ns3:atemp>
            <ns3:hr>117</ns3:hr>
          </ns3:TrackPointExtension>
        </extensions>
      </trkpt>
      <trkpt lat="-22.0095790363848209381103515625" lon="166.46350465714931488037109375">
        <ele>1097</ele>
        <time>2016-08-12T20:49:34.000Z</time>
        <extensions>
          <ns3:TrackPointExtension>
            <ns3:atemp>17.0</ns3:atemp>
            <ns3:hr>118</ns3:hr>
          </ns3:TrackPointExtension>
        </extensions>
      </trkpt>
      <trkpt lat="-22.00957241468131542205810546875" lon="166.46348009817302227020263671875">
        <ele>1096.5999755859375</ele>
        <time>2016-08-12T20:49:35.000Z</time>
        <extensions>
          <ns3:TrackPointExtension>
            <ns3:atemp>17.0</ns3:atemp>
            <ns3:hr>118</ns3:hr>
          </ns3:TrackPointExtension>
        </extensions>
      </trkpt>
      <trkpt lat="-22.009563110768795013427734375" lon="166.46345897577702999114990234375">
        <ele>1096.4000244140625</ele>
        <time>2016-08-12T20:49:36.000Z</time>
        <extensions>
          <ns3:TrackPointExtension>
            <ns3:atemp>17.0</ns3:atemp>
            <ns3:hr>118</ns3:hr>
          </ns3:TrackPointExtension>
        </extensions>
      </trkpt>
      <trkpt lat="-22.00955397449433803558349609375" lon="166.46343735046684741973876953125">
        <ele>1095.800048828125</ele>
        <time>2016-08-12T20:49:37.000Z</time>
        <extensions>
          <ns3:TrackPointExtension>
            <ns3:atemp>17.0</ns3:atemp>
            <ns3:hr>119</ns3:hr>
          </ns3:TrackPointExtension>
        </extensions>
      </trkpt>
      <trkpt lat="-22.0095445029437541961669921875" lon="166.46341522224247455596923828125">
        <ele>1095.5999755859375</ele>
        <time>2016-08-12T20:49:38.000Z</time>
        <extensions>
          <ns3:TrackPointExtension>
            <ns3:atemp>17.0</ns3:atemp>
            <ns3:hr>119</ns3:hr>
          </ns3:TrackPointExtension>
        </extensions>
      </trkpt>
      <trkpt lat="-22.00953586958348751068115234375" lon="166.46339477039873600006103515625">
        <ele>1095.4000244140625</ele>
        <time>2016-08-12T20:49:39.000Z</time>
        <extensions>
          <ns3:TrackPointExtension>
            <ns3:atemp>17.0</ns3:atemp>
            <ns3:hr>119</ns3:hr>
          </ns3:TrackPointExtension>
        </extensions>
      </trkpt>
      <trkpt lat="-22.00952262617647647857666015625" lon="166.46337599493563175201416015625">
        <ele>1095.199951171875</ele>
        <time>2016-08-12T20:49:40.000Z</time>
        <extensions>
          <ns3:TrackPointExtension>
            <ns3:atemp>17.0</ns3:atemp>
            <ns3:hr>120</ns3:hr>
          </ns3:TrackPointExtension>
        </extensions>
      </trkpt>
      <trkpt lat="-22.00951139442622661590576171875" lon="166.46335713565349578857421875">
        <ele>1094.800048828125</ele>
        <time>2016-08-12T20:49:41.000Z</time>
        <extensions>
          <ns3:TrackPointExtension>
            <ns3:atemp>17.0</ns3:atemp>
            <ns3:hr>120</ns3:hr>
          </ns3:TrackPointExtension>
        </extensions>
      </trkpt>
      <trkpt lat="-22.0095042698085308074951171875" lon="166.4633381925523281097412109375">
        <ele>1094.4000244140625</ele>
        <time>2016-08-12T20:49:42.000Z</time>
        <extensions>
          <ns3:TrackPointExtension>
            <ns3:atemp>17.0</ns3:atemp>
            <ns3:hr>120</ns3:hr>
          </ns3:TrackPointExtension>
        </extensions>
      </trkpt>
      <trkpt lat="-22.0094982348382472991943359375" lon="166.463317573070526123046875">
        <ele>1094.4000244140625</ele>
        <time>2016-08-12T20:49:43.000Z</time>
        <extensions>
          <ns3:TrackPointExtension>
            <ns3:atemp>17.0</ns3:atemp>
            <ns3:hr>120</ns3:hr>
          </ns3:TrackPointExtension>
        </extensions>
      </trkpt>
      <trkpt lat="-22.0094905234873294830322265625" lon="166.4632974565029144287109375">
        <ele>1094.5999755859375</ele>
        <time>2016-08-12T20:49:44.000Z</time>
        <extensions>
          <ns3:TrackPointExtension>
            <ns3:atemp>17.0</ns3:atemp>
            <ns3:hr>120</ns3:hr>
          </ns3:TrackPointExtension>
        </extensions>
      </trkpt>
      <trkpt lat="-22.00948230922222137451171875" lon="166.4632768370211124420166015625">
        <ele>1094</ele>
        <time>2016-08-12T20:49:45.000Z</time>
        <extensions>
          <ns3:TrackPointExtension>
            <ns3:atemp>17.0</ns3:atemp>
            <ns3:hr>120</ns3:hr>
          </ns3:TrackPointExtension>
        </extensions>
      </trkpt>
      <trkpt lat="-22.0094764418900012969970703125" lon="166.463253200054168701171875">
        <ele>1093.4000244140625</ele>
        <time>2016-08-12T20:49:46.000Z</time>
        <extensions>
          <ns3:TrackPointExtension>
            <ns3:atemp>17.0</ns3:atemp>
            <ns3:hr>120</ns3:hr>
          </ns3:TrackPointExtension>
        </extensions>
      </trkpt>
      <trkpt lat="-22.00946889817714691162109375" lon="166.46322973072528839111328125">
        <ele>1093.199951171875</ele>
        <time>2016-08-12T20:49:47.000Z</time>
        <extensions>
          <ns3:TrackPointExtension>
            <ns3:atemp>17.0</ns3:atemp>
            <ns3:hr>120</ns3:hr>
          </ns3:TrackPointExtension>
        </extensions>
      </trkpt>
      <trkpt lat="-22.00945557095110416412353515625" lon="166.46320500411093235015869140625">
        <ele>1092.800048828125</ele>
        <time>2016-08-12T20:49:48.000Z</time>
        <extensions>
          <ns3:TrackPointExtension>
            <ns3:atemp>17.0</ns3:atemp>
            <ns3:hr>120</ns3:hr>
          </ns3:TrackPointExtension>
        </extensions>
      </trkpt>
      <trkpt lat="-22.0094439201056957244873046875" lon="166.463177762925624847412109375">
        <ele>1092.4000244140625</ele>
        <time>2016-08-12T20:49:49.000Z</time>
        <extensions>
          <ns3:TrackPointExtension>
            <ns3:atemp>17.0</ns3:atemp>
            <ns3:hr>120</ns3:hr>
          </ns3:TrackPointExtension>
        </extensions>
      </trkpt>
      <trkpt lat="-22.00943327508866786956787109375" lon="166.4631514437496662139892578125">
        <ele>1092.199951171875</ele>
        <time>2016-08-12T20:49:50.000Z</time>
        <extensions>
          <ns3:TrackPointExtension>
            <ns3:atemp>17.0</ns3:atemp>
            <ns3:hr>121</ns3:hr>
          </ns3:TrackPointExtension>
        </extensions>
      </trkpt>
      <trkpt lat="-22.0094201155006885528564453125" lon="166.4631252922117710113525390625">
        <ele>1091.800048828125</ele>
        <time>2016-08-12T20:49:51.000Z</time>
        <extensions>
          <ns3:TrackPointExtension>
            <ns3:atemp>17.0</ns3:atemp>
            <ns3:hr>121</ns3:hr>
          </ns3:TrackPointExtension>
        </extensions>
      </trkpt>
      <trkpt lat="-22.00940779410302639007568359375" lon="166.46309872157871723175048828125">
        <ele>1091.4000244140625</ele>
        <time>2016-08-12T20:49:52.000Z</time>
        <extensions>
          <ns3:TrackPointExtension>
            <ns3:atemp>17.0</ns3:atemp>
            <ns3:hr>121</ns3:hr>
          </ns3:TrackPointExtension>
        </extensions>
      </trkpt>
      <trkpt lat="-22.00939823873341083526611328125" lon="166.46307290531694889068603515625">
        <ele>1091.4000244140625</ele>
        <time>2016-08-12T20:49:53.000Z</time>
        <extensions>
          <ns3:TrackPointExtension>
            <ns3:atemp>17.0</ns3:atemp>
            <ns3:hr>122</ns3:hr>
          </ns3:TrackPointExtension>
        </extensions>
      </trkpt>
      <trkpt lat="-22.00938566587865352630615234375" lon="166.46304977126419544219970703125">
        <ele>1091.5999755859375</ele>
        <time>2016-08-12T20:49:54.000Z</time>
        <extensions>
          <ns3:TrackPointExtension>
            <ns3:atemp>17.0</ns3:atemp>
            <ns3:hr>122</ns3:hr>
          </ns3:TrackPointExtension>
        </extensions>
      </trkpt>
      <trkpt lat="-22.0093711651861667633056640625" lon="166.46302680484950542449951171875">
        <ele>1091.800048828125</ele>
        <time>2016-08-12T20:49:55.000Z</time>
        <extensions>
          <ns3:TrackPointExtension>
            <ns3:atemp>17.0</ns3:atemp>
            <ns3:hr>122</ns3:hr>
          </ns3:TrackPointExtension>
        </extensions>
      </trkpt>
      <trkpt lat="-22.0093624480068683624267578125" lon="166.4630022458732128143310546875">
        <ele>1091.800048828125</ele>
        <time>2016-08-12T20:49:56.000Z</time>
        <extensions>
          <ns3:TrackPointExtension>
            <ns3:atemp>17.0</ns3:atemp>
            <ns3:hr>122</ns3:hr>
          </ns3:TrackPointExtension>
        </extensions>
      </trkpt>
      <trkpt lat="-22.0093544013798236846923828125" lon="166.4629794470965862274169921875">
        <ele>1091.800048828125</ele>
        <time>2016-08-12T20:49:57.000Z</time>
        <extensions>
          <ns3:TrackPointExtension>
            <ns3:atemp>17.0</ns3:atemp>
            <ns3:hr>122</ns3:hr>
          </ns3:TrackPointExtension>
        </extensions>
      </trkpt>
      <trkpt lat="-22.0093426667153835296630859375" lon="166.46295505575835704803466796875">
        <ele>1091.5999755859375</ele>
        <time>2016-08-12T20:49:58.000Z</time>
        <extensions>
          <ns3:TrackPointExtension>
            <ns3:atemp>17.0</ns3:atemp>
            <ns3:hr>123</ns3:hr>
          </ns3:TrackPointExtension>
        </extensions>
      </trkpt>
      <trkpt lat="-22.00933570973575115203857421875" lon="166.46292773075401782989501953125">
        <ele>1091.199951171875</ele>
        <time>2016-08-12T20:49:59.000Z</time>
        <extensions>
          <ns3:TrackPointExtension>
            <ns3:atemp>17.0</ns3:atemp>
            <ns3:hr>123</ns3:hr>
          </ns3:TrackPointExtension>
        </extensions>
      </trkpt>
      <trkpt lat="-22.00933017767965793609619140625" lon="166.462902165949344635009765625">
        <ele>1091</ele>
        <time>2016-08-12T20:50:00.000Z</time>
        <extensions>
          <ns3:TrackPointExtension>
            <ns3:atemp>17.0</ns3:atemp>
            <ns3:hr>123</ns3:hr>
          </ns3:TrackPointExtension>
        </extensions>
      </trkpt>
      <trkpt lat="-22.0093242265284061431884765625" lon="166.46287567913532257080078125">
        <ele>1091.199951171875</ele>
        <time>2016-08-12T20:50:01.000Z</time>
        <extensions>
          <ns3:TrackPointExtension>
            <ns3:atemp>17.0</ns3:atemp>
            <ns3:hr>123</ns3:hr>
          </ns3:TrackPointExtension>
        </extensions>
      </trkpt>
      <trkpt lat="-22.0093148387968540191650390625" lon="166.462848186492919921875">
        <ele>1091.199951171875</ele>
        <time>2016-08-12T20:50:02.000Z</time>
        <extensions>
          <ns3:TrackPointExtension>
            <ns3:atemp>17.0</ns3:atemp>
            <ns3:hr>124</ns3:hr>
          </ns3:TrackPointExtension>
        </extensions>
      </trkpt>
      <trkpt lat="-22.00930737890303134918212890625" lon="166.46282136440277099609375">
        <ele>1091</ele>
        <time>2016-08-12T20:50:03.000Z</time>
        <extensions>
          <ns3:TrackPointExtension>
            <ns3:atemp>16.0</ns3:atemp>
            <ns3:hr>124</ns3:hr>
          </ns3:TrackPointExtension>
        </extensions>
      </trkpt>
      <trkpt lat="-22.00929866172373294830322265625" lon="166.462795548141002655029296875">
        <ele>1091</ele>
        <time>2016-08-12T20:50:04.000Z</time>
        <extensions>
          <ns3:TrackPointExtension>
            <ns3:atemp>16.0</ns3:atemp>
            <ns3:hr>124</ns3:hr>
          </ns3:TrackPointExtension>
        </extensions>
      </trkpt>
      <trkpt lat="-22.00929053127765655517578125" lon="166.46276880986988544464111328125">
        <ele>1091.4000244140625</ele>
        <time>2016-08-12T20:50:05.000Z</time>
        <extensions>
          <ns3:TrackPointExtension>
            <ns3:atemp>16.0</ns3:atemp>
            <ns3:hr>124</ns3:hr>
          </ns3:TrackPointExtension>
        </extensions>
      </trkpt>
      <trkpt lat="-22.0092803053557872772216796875" lon="166.462743915617465972900390625">
        <ele>1091.199951171875</ele>
        <time>2016-08-12T20:50:06.000Z</time>
        <extensions>
          <ns3:TrackPointExtension>
            <ns3:atemp>16.0</ns3:atemp>
            <ns3:hr>124</ns3:hr>
          </ns3:TrackPointExtension>
        </extensions>
      </trkpt>
      <trkpt lat="-22.0092772878706455230712890625" lon="166.462719440460205078125">
        <ele>1090.800048828125</ele>
        <time>2016-08-12T20:50:07.000Z</time>
        <extensions>
          <ns3:TrackPointExtension>
            <ns3:atemp>16.0</ns3:atemp>
            <ns3:hr>124</ns3:hr>
          </ns3:TrackPointExtension>
        </extensions>
      </trkpt>
      <trkpt lat="-22.00927670113742351531982421875" lon="166.46269706077873706817626953125">
        <ele>1091</ele>
        <time>2016-08-12T20:50:08.000Z</time>
        <extensions>
          <ns3:TrackPointExtension>
            <ns3:atemp>16.0</ns3:atemp>
            <ns3:hr>124</ns3:hr>
          </ns3:TrackPointExtension>
        </extensions>
      </trkpt>
      <trkpt lat="-22.00927686877548694610595703125" lon="166.462676525115966796875">
        <ele>1091.199951171875</ele>
        <time>2016-08-12T20:50:09.000Z</time>
        <extensions>
          <ns3:TrackPointExtension>
            <ns3:atemp>16.0</ns3:atemp>
            <ns3:hr>125</ns3:hr>
          </ns3:TrackPointExtension>
        </extensions>
      </trkpt>
      <trkpt lat="-22.0092803053557872772216796875" lon="166.46265598945319652557373046875">
        <ele>1091</ele>
        <time>2016-08-12T20:50:10.000Z</time>
        <extensions>
          <ns3:TrackPointExtension>
            <ns3:atemp>16.0</ns3:atemp>
            <ns3:hr>125</ns3:hr>
          </ns3:TrackPointExtension>
        </extensions>
      </trkpt>
      <trkpt lat="-22.0092839933931827545166015625" lon="166.4626349508762359619140625">
        <ele>1090.800048828125</ele>
        <time>2016-08-12T20:50:11.000Z</time>
        <extensions>
          <ns3:TrackPointExtension>
            <ns3:atemp>16.0</ns3:atemp>
            <ns3:hr>125</ns3:hr>
          </ns3:TrackPointExtension>
        </extensions>
      </trkpt>
      <trkpt lat="-22.00928173027932643890380859375" lon="166.46261282265186309814453125">
        <ele>1091</ele>
        <time>2016-08-12T20:50:12.000Z</time>
        <extensions>
          <ns3:TrackPointExtension>
            <ns3:atemp>16.0</ns3:atemp>
            <ns3:hr>125</ns3:hr>
          </ns3:TrackPointExtension>
        </extensions>
      </trkpt>
      <trkpt lat="-22.0092829875648021697998046875" lon="166.462590694427490234375">
        <ele>1091.199951171875</ele>
        <time>2016-08-12T20:50:13.000Z</time>
        <extensions>
          <ns3:TrackPointExtension>
            <ns3:atemp>16.0</ns3:atemp>
            <ns3:hr>125</ns3:hr>
          </ns3:TrackPointExtension>
        </extensions>
      </trkpt>
      <trkpt lat="-22.0092912018299102783203125" lon="166.46256797946989536285400390625">
        <ele>1091</ele>
        <time>2016-08-12T20:50:14.000Z</time>
        <extensions>
          <ns3:TrackPointExtension>
            <ns3:atemp>16.0</ns3:atemp>
            <ns3:hr>125</ns3:hr>
          </ns3:TrackPointExtension>
        </extensions>
      </trkpt>
      <trkpt lat="-22.0092990808188915252685546875" lon="166.46254434250295162200927734375">
        <ele>1091</ele>
        <time>2016-08-12T20:50:15.000Z</time>
        <extensions>
          <ns3:TrackPointExtension>
            <ns3:atemp>16.0</ns3:atemp>
            <ns3:hr>125</ns3:hr>
          </ns3:TrackPointExtension>
        </extensions>
      </trkpt>
      <trkpt lat="-22.0093057863414287567138671875" lon="166.462522633373737335205078125">
        <ele>1091.199951171875</ele>
        <time>2016-08-12T20:50:16.000Z</time>
        <extensions>
          <ns3:TrackPointExtension>
            <ns3:atemp>16.0</ns3:atemp>
            <ns3:hr>125</ns3:hr>
          </ns3:TrackPointExtension>
        </extensions>
      </trkpt>
      <trkpt lat="-22.0093128271400928497314453125" lon="166.4625020138919353485107421875">
        <ele>1091.199951171875</ele>
        <time>2016-08-12T20:50:17.000Z</time>
        <extensions>
          <ns3:TrackPointExtension>
            <ns3:atemp>16.0</ns3:atemp>
            <ns3:hr>125</ns3:hr>
          </ns3:TrackPointExtension>
        </extensions>
      </trkpt>
      <trkpt lat="-22.0093198679387569427490234375" lon="166.46248005330562591552734375">
        <ele>1091.199951171875</ele>
        <time>2016-08-12T20:50:18.000Z</time>
        <extensions>
          <ns3:TrackPointExtension>
            <ns3:atemp>16.0</ns3:atemp>
            <ns3:hr>124</ns3:hr>
          </ns3:TrackPointExtension>
        </extensions>
      </trkpt>
      <trkpt lat="-22.0093309320509433746337890625" lon="166.4624584279954433441162109375">
        <ele>1091.199951171875</ele>
        <time>2016-08-12T20:50:19.000Z</time>
        <extensions>
          <ns3:TrackPointExtension>
            <ns3:atemp>16.0</ns3:atemp>
            <ns3:hr>124</ns3:hr>
          </ns3:TrackPointExtension>
        </extensions>
      </trkpt>
      <trkpt lat="-22.0093416608870029449462890625" lon="166.46243621595203876495361328125">
        <ele>1091.4000244140625</ele>
        <time>2016-08-12T20:50:20.000Z</time>
        <extensions>
          <ns3:TrackPointExtension>
            <ns3:atemp>16.0</ns3:atemp>
            <ns3:hr>124</ns3:hr>
          </ns3:TrackPointExtension>
        </extensions>
      </trkpt>
      <trkpt lat="-22.00934912078082561492919921875" lon="166.4624145068228244781494140625">
        <ele>1091.4000244140625</ele>
        <time>2016-08-12T20:50:21.000Z</time>
        <extensions>
          <ns3:TrackPointExtension>
            <ns3:atemp>16.0</ns3:atemp>
            <ns3:hr>123</ns3:hr>
          </ns3:TrackPointExtension>
        </extensions>
      </trkpt>
      <trkpt lat="-22.0093567483127117156982421875" lon="166.46239363588392734527587890625">
        <ele>1091.4000244140625</ele>
        <time>2016-08-12T20:50:22.000Z</time>
        <extensions>
          <ns3:TrackPointExtension>
            <ns3:atemp>16.0</ns3:atemp>
            <ns3:hr>122</ns3:hr>
          </ns3:TrackPointExtension>
        </extensions>
      </trkpt>
      <trkpt lat="-22.0093647949397563934326171875" lon="166.46237016655504703521728515625">
        <ele>1091.800048828125</ele>
        <time>2016-08-12T20:50:23.000Z</time>
        <extensions>
          <ns3:TrackPointExtension>
            <ns3:atemp>16.0</ns3:atemp>
            <ns3:hr>121</ns3:hr>
          </ns3:TrackPointExtension>
        </extensions>
      </trkpt>
      <trkpt lat="-22.0093684829771518707275390625" lon="166.4623481221497058868408203125">
        <ele>1092</ele>
        <time>2016-08-12T20:50:24.000Z</time>
        <extensions>
          <ns3:TrackPointExtension>
            <ns3:atemp>16.0</ns3:atemp>
            <ns3:hr>121</ns3:hr>
          </ns3:TrackPointExtension>
        </extensions>
      </trkpt>
      <trkpt lat="-22.0093674771487712860107421875" lon="166.462326832115650177001953125">
        <ele>1091.800048828125</ele>
        <time>2016-08-12T20:50:25.000Z</time>
        <extensions>
          <ns3:TrackPointExtension>
            <ns3:atemp>16.0</ns3:atemp>
            <ns3:hr>122</ns3:hr>
          </ns3:TrackPointExtension>
        </extensions>
      </trkpt>
      <trkpt lat="-22.0093661360442638397216796875" lon="166.4623021893203258514404296875">
        <ele>1092</ele>
        <time>2016-08-12T20:50:26.000Z</time>
        <extensions>
          <ns3:TrackPointExtension>
            <ns3:atemp>16.0</ns3:atemp>
            <ns3:hr>122</ns3:hr>
          </ns3:TrackPointExtension>
        </extensions>
      </trkpt>
      <trkpt lat="-22.00936295092105865478515625" lon="166.462278552353382110595703125">
        <ele>1092</ele>
        <time>2016-08-12T20:50:27.000Z</time>
        <extensions>
          <ns3:TrackPointExtension>
            <ns3:atemp>16.0</ns3:atemp>
            <ns3:hr>123</ns3:hr>
          </ns3:TrackPointExtension>
        </extensions>
      </trkpt>
      <trkpt lat="-22.0093634538352489471435546875" lon="166.46225399337708950042724609375">
        <ele>1092</ele>
        <time>2016-08-12T20:50:28.000Z</time>
        <extensions>
          <ns3:TrackPointExtension>
            <ns3:atemp>16.0</ns3:atemp>
            <ns3:hr>123</ns3:hr>
          </ns3:TrackPointExtension>
        </extensions>
      </trkpt>
      <trkpt lat="-22.00936152599751949310302734375" lon="166.462228931486606597900390625">
        <ele>1092</ele>
        <time>2016-08-12T20:50:29.000Z</time>
        <extensions>
          <ns3:TrackPointExtension>
            <ns3:atemp>16.0</ns3:atemp>
            <ns3:hr>124</ns3:hr>
          </ns3:TrackPointExtension>
        </extensions>
      </trkpt>
      <trkpt lat="-22.009356580674648284912109375" lon="166.462205462157726287841796875">
        <ele>1092.4000244140625</ele>
        <time>2016-08-12T20:50:30.000Z</time>
        <extensions>
          <ns3:TrackPointExtension>
            <ns3:atemp>16.0</ns3:atemp>
            <ns3:hr>124</ns3:hr>
          </ns3:TrackPointExtension>
        </extensions>
      </trkpt>
      <trkpt lat="-22.00935213826596736907958984375" lon="166.4621814899146556854248046875">
        <ele>1092.199951171875</ele>
        <time>2016-08-12T20:50:31.000Z</time>
        <extensions>
          <ns3:TrackPointExtension>
            <ns3:atemp>16.0</ns3:atemp>
            <ns3:hr>124</ns3:hr>
          </ns3:TrackPointExtension>
        </extensions>
      </trkpt>
      <trkpt lat="-22.00934811495244503021240234375" lon="166.46215952932834625244140625">
        <ele>1092.199951171875</ele>
        <time>2016-08-12T20:50:32.000Z</time>
        <extensions>
          <ns3:TrackPointExtension>
            <ns3:atemp>16.0</ns3:atemp>
            <ns3:hr>124</ns3:hr>
          </ns3:TrackPointExtension>
        </extensions>
      </trkpt>
      <trkpt lat="-22.009346522390842437744140625" lon="166.46213815547525882720947265625">
        <ele>1092.5999755859375</ele>
        <time>2016-08-12T20:50:33.000Z</time>
        <extensions>
          <ns3:TrackPointExtension>
            <ns3:atemp>16.0</ns3:atemp>
            <ns3:hr>124</ns3:hr>
          </ns3:TrackPointExtension>
        </extensions>
      </trkpt>
      <trkpt lat="-22.009353898465633392333984375" lon="166.4621184580028057098388671875">
        <ele>1092.800048828125</ele>
        <time>2016-08-12T20:50:34.000Z</time>
        <extensions>
          <ns3:TrackPointExtension>
            <ns3:atemp>16.0</ns3:atemp>
            <ns3:hr>123</ns3:hr>
          </ns3:TrackPointExtension>
        </extensions>
      </trkpt>
      <trkpt lat="-22.00935934670269489288330078125" lon="166.4620993472635746002197265625">
        <ele>1092.800048828125</ele>
        <time>2016-08-12T20:50:35.000Z</time>
        <extensions>
          <ns3:TrackPointExtension>
            <ns3:atemp>16.0</ns3:atemp>
            <ns3:hr>124</ns3:hr>
          </ns3:TrackPointExtension>
        </extensions>
      </trkpt>
      <trkpt lat="-22.009362615644931793212890625" lon="166.4620775543153285980224609375">
        <ele>1093</ele>
        <time>2016-08-12T20:50:36.000Z</time>
        <extensions>
          <ns3:TrackPointExtension>
            <ns3:atemp>16.0</ns3:atemp>
            <ns3:hr>124</ns3:hr>
          </ns3:TrackPointExtension>
        </extensions>
      </trkpt>
      <trkpt lat="-22.00936303474009037017822265625" lon="166.4620530791580677032470703125">
        <ele>1093.199951171875</ele>
        <time>2016-08-12T20:50:37.000Z</time>
        <extensions>
          <ns3:TrackPointExtension>
            <ns3:atemp>16.0</ns3:atemp>
            <ns3:hr>125</ns3:hr>
          </ns3:TrackPointExtension>
        </extensions>
      </trkpt>
      <trkpt lat="-22.009361274540424346923828125" lon="166.46202969364821910858154296875">
        <ele>1093</ele>
        <time>2016-08-12T20:50:38.000Z</time>
        <extensions>
          <ns3:TrackPointExtension>
            <ns3:atemp>16.0</ns3:atemp>
            <ns3:hr>126</ns3:hr>
          </ns3:TrackPointExtension>
        </extensions>
      </trkpt>
      <trkpt lat="-22.00936102308332920074462890625" lon="166.4620044641196727752685546875">
        <ele>1093</ele>
        <time>2016-08-12T20:50:39.000Z</time>
        <extensions>
          <ns3:TrackPointExtension>
            <ns3:atemp>16.0</ns3:atemp>
            <ns3:hr>126</ns3:hr>
          </ns3:TrackPointExtension>
        </extensions>
      </trkpt>
      <trkpt lat="-22.00936169363558292388916015625" lon="166.46197856403887271881103515625">
        <ele>1093.4000244140625</ele>
        <time>2016-08-12T20:50:40.000Z</time>
        <extensions>
          <ns3:TrackPointExtension>
            <ns3:atemp>16.0</ns3:atemp>
            <ns3:hr>127</ns3:hr>
          </ns3:TrackPointExtension>
        </extensions>
      </trkpt>
      <trkpt lat="-22.00936160981655120849609375" lon="166.46195341832935810089111328125">
        <ele>1093.4000244140625</ele>
        <time>2016-08-12T20:50:41.000Z</time>
        <extensions>
          <ns3:TrackPointExtension>
            <ns3:atemp>16.0</ns3:atemp>
            <ns3:hr>128</ns3:hr>
          </ns3:TrackPointExtension>
        </extensions>
      </trkpt>
      <trkpt lat="-22.0093590952455997467041015625" lon="166.46192860789597034454345703125">
        <ele>1093.4000244140625</ele>
        <time>2016-08-12T20:50:42.000Z</time>
        <extensions>
          <ns3:TrackPointExtension>
            <ns3:atemp>16.0</ns3:atemp>
            <ns3:hr>129</ns3:hr>
          </ns3:TrackPointExtension>
        </extensions>
      </trkpt>
      <trkpt lat="-22.0093577541410923004150390625" lon="166.46190530620515346527099609375">
        <ele>1093.4000244140625</ele>
        <time>2016-08-12T20:50:43.000Z</time>
        <extensions>
          <ns3:TrackPointExtension>
            <ns3:atemp>16.0</ns3:atemp>
            <ns3:hr>130</ns3:hr>
          </ns3:TrackPointExtension>
        </extensions>
      </trkpt>
      <trkpt lat="-22.00935356318950653076171875" lon="166.4618817530572414398193359375">
        <ele>1093.4000244140625</ele>
        <time>2016-08-12T20:50:44.000Z</time>
        <extensions>
          <ns3:TrackPointExtension>
            <ns3:atemp>16.0</ns3:atemp>
            <ns3:hr>130</ns3:hr>
          </ns3:TrackPointExtension>
        </extensions>
      </trkpt>
      <trkpt lat="-22.009345851838588714599609375" lon="166.46185484714806079864501953125">
        <ele>1093.4000244140625</ele>
        <time>2016-08-12T20:50:45.000Z</time>
        <extensions>
          <ns3:TrackPointExtension>
            <ns3:atemp>16.0</ns3:atemp>
            <ns3:hr>131</ns3:hr>
          </ns3:TrackPointExtension>
        </extensions>
      </trkpt>
      <trkpt lat="-22.00934157706797122955322265625" lon="166.46183020435273647308349609375">
        <ele>1093.5999755859375</ele>
        <time>2016-08-12T20:50:46.000Z</time>
        <extensions>
          <ns3:TrackPointExtension>
            <ns3:atemp>16.0</ns3:atemp>
            <ns3:hr>131</ns3:hr>
          </ns3:TrackPointExtension>
        </extensions>
      </trkpt>
      <trkpt lat="-22.00933705084025859832763671875" lon="166.4618079923093318939208984375">
        <ele>1093.800048828125</ele>
        <time>2016-08-12T20:50:47.000Z</time>
        <extensions>
          <ns3:TrackPointExtension>
            <ns3:atemp>16.0</ns3:atemp>
            <ns3:hr>132</ns3:hr>
          </ns3:TrackPointExtension>
        </extensions>
      </trkpt>
      <trkpt lat="-22.009331770241260528564453125" lon="166.4617848582565784454345703125">
        <ele>1094</ele>
        <time>2016-08-12T20:50:48.000Z</time>
        <extensions>
          <ns3:TrackPointExtension>
            <ns3:atemp>16.0</ns3:atemp>
            <ns3:hr>132</ns3:hr>
          </ns3:TrackPointExtension>
        </extensions>
      </trkpt>
      <trkpt lat="-22.00932397507131099700927734375" lon="166.4617610536515712738037109375">
        <ele>1094.199951171875</ele>
        <time>2016-08-12T20:50:49.000Z</time>
        <extensions>
          <ns3:TrackPointExtension>
            <ns3:atemp>16.0</ns3:atemp>
            <ns3:hr>132</ns3:hr>
          </ns3:TrackPointExtension>
        </extensions>
      </trkpt>
      <trkpt lat="-22.009317018091678619384765625" lon="166.46173682995140552520751953125">
        <ele>1094.4000244140625</ele>
        <time>2016-08-12T20:50:50.000Z</time>
        <extensions>
          <ns3:TrackPointExtension>
            <ns3:atemp>16.0</ns3:atemp>
            <ns3:hr>133</ns3:hr>
          </ns3:TrackPointExtension>
        </extensions>
      </trkpt>
      <trkpt lat="-22.00931123457849025726318359375" lon="166.46171621046960353851318359375">
        <ele>1094.199951171875</ele>
        <time>2016-08-12T20:50:51.000Z</time>
        <extensions>
          <ns3:TrackPointExtension>
            <ns3:atemp>16.0</ns3:atemp>
            <ns3:hr>133</ns3:hr>
          </ns3:TrackPointExtension>
        </extensions>
      </trkpt>
      <trkpt lat="-22.00930100865662097930908203125" lon="166.46169307641685009002685546875">
        <ele>1094.199951171875</ele>
        <time>2016-08-12T20:50:52.000Z</time>
        <extensions>
          <ns3:TrackPointExtension>
            <ns3:atemp>16.0</ns3:atemp>
            <ns3:hr>134</ns3:hr>
          </ns3:TrackPointExtension>
        </extensions>
      </trkpt>
      <trkpt lat="-22.009289525449275970458984375" lon="166.46166776306927204132080078125">
        <ele>1094.4000244140625</ele>
        <time>2016-08-12T20:50:53.000Z</time>
        <extensions>
          <ns3:TrackPointExtension>
            <ns3:atemp>16.0</ns3:atemp>
            <ns3:hr>134</ns3:hr>
          </ns3:TrackPointExtension>
        </extensions>
      </trkpt>
      <trkpt lat="-22.00928223319351673126220703125" lon="166.461642868816852569580078125">
        <ele>1094.4000244140625</ele>
        <time>2016-08-12T20:50:54.000Z</time>
        <extensions>
          <ns3:TrackPointExtension>
            <ns3:atemp>16.0</ns3:atemp>
            <ns3:hr>134</ns3:hr>
          </ns3:TrackPointExtension>
        </extensions>
      </trkpt>
      <trkpt lat="-22.00927536003291606903076171875" lon="166.4616192318499088287353515625">
        <ele>1094.199951171875</ele>
        <time>2016-08-12T20:50:55.000Z</time>
        <extensions>
          <ns3:TrackPointExtension>
            <ns3:atemp>16.0</ns3:atemp>
            <ns3:hr>135</ns3:hr>
          </ns3:TrackPointExtension>
        </extensions>
      </trkpt>
      <trkpt lat="-22.00926748104393482208251953125" lon="166.46159651689231395721435546875">
        <ele>1094.199951171875</ele>
        <time>2016-08-12T20:50:56.000Z</time>
        <extensions>
          <ns3:TrackPointExtension>
            <ns3:atemp>16.0</ns3:atemp>
            <ns3:hr>135</ns3:hr>
          </ns3:TrackPointExtension>
        </extensions>
      </trkpt>
      <trkpt lat="-22.009264715015888214111328125" lon="166.461571790277957916259765625">
        <ele>1094.5999755859375</ele>
        <time>2016-08-12T20:50:57.000Z</time>
        <extensions>
          <ns3:TrackPointExtension>
            <ns3:atemp>16.0</ns3:atemp>
            <ns3:hr>135</ns3:hr>
          </ns3:TrackPointExtension>
        </extensions>
      </trkpt>
      <trkpt lat="-22.00925775803625583648681640625" lon="166.4615448005497455596923828125">
        <ele>1094.4000244140625</ele>
        <time>2016-08-12T20:50:58.000Z</time>
        <extensions>
          <ns3:TrackPointExtension>
            <ns3:atemp>16.0</ns3:atemp>
            <ns3:hr>135</ns3:hr>
          </ns3:TrackPointExtension>
        </extensions>
      </trkpt>
      <trkpt lat="-22.0092474482953548431396484375" lon="166.461520157754421234130859375">
        <ele>1094.4000244140625</ele>
        <time>2016-08-12T20:50:59.000Z</time>
        <extensions>
          <ns3:TrackPointExtension>
            <ns3:atemp>16.0</ns3:atemp>
            <ns3:hr>136</ns3:hr>
          </ns3:TrackPointExtension>
        </extensions>
      </trkpt>
      <trkpt lat="-22.0092383958399295806884765625" lon="166.4614978618919849395751953125">
        <ele>1094.5999755859375</ele>
        <time>2016-08-12T20:51:00.000Z</time>
        <extensions>
          <ns3:TrackPointExtension>
            <ns3:atemp>16.0</ns3:atemp>
            <ns3:hr>136</ns3:hr>
          </ns3:TrackPointExtension>
        </extensions>
      </trkpt>
      <trkpt lat="-22.0092280022799968719482421875" lon="166.461474560201168060302734375">
        <ele>1094.800048828125</ele>
        <time>2016-08-12T20:51:01.000Z</time>
        <extensions>
          <ns3:TrackPointExtension>
            <ns3:atemp>16.0</ns3:atemp>
            <ns3:hr>136</ns3:hr>
          </ns3:TrackPointExtension>
        </extensions>
      </trkpt>
      <trkpt lat="-22.0092243142426013946533203125" lon="166.46144849248230457305908203125">
        <ele>1094.5999755859375</ele>
        <time>2016-08-12T20:51:02.000Z</time>
        <extensions>
          <ns3:TrackPointExtension>
            <ns3:atemp>16.0</ns3:atemp>
            <ns3:hr>136</ns3:hr>
          </ns3:TrackPointExtension>
        </extensions>
      </trkpt>
      <trkpt lat="-22.009221129119396209716796875" lon="166.46142418496310710906982421875">
        <ele>1094.5999755859375</ele>
        <time>2016-08-12T20:51:03.000Z</time>
        <extensions>
          <ns3:TrackPointExtension>
            <ns3:atemp>16.0</ns3:atemp>
            <ns3:hr>136</ns3:hr>
          </ns3:TrackPointExtension>
        </extensions>
      </trkpt>
      <trkpt lat="-22.00921903364360332489013671875" lon="166.461402475833892822265625">
        <ele>1094.800048828125</ele>
        <time>2016-08-12T20:51:04.000Z</time>
        <extensions>
          <ns3:TrackPointExtension>
            <ns3:atemp>16.0</ns3:atemp>
            <ns3:hr>136</ns3:hr>
          </ns3:TrackPointExtension>
        </extensions>
      </trkpt>
      <trkpt lat="-22.00921601615846157073974609375" lon="166.46138227544724941253662109375">
        <ele>1094.5999755859375</ele>
        <time>2016-08-12T20:51:05.000Z</time>
        <extensions>
          <ns3:TrackPointExtension>
            <ns3:atemp>16.0</ns3:atemp>
            <ns3:hr>137</ns3:hr>
          </ns3:TrackPointExtension>
        </extensions>
      </trkpt>
      <trkpt lat="-22.009217776358127593994140625" lon="166.46136014722287654876708984375">
        <ele>1094.800048828125</ele>
        <time>2016-08-12T20:51:06.000Z</time>
        <extensions>
          <ns3:TrackPointExtension>
            <ns3:atemp>16.0</ns3:atemp>
            <ns3:hr>137</ns3:hr>
          </ns3:TrackPointExtension>
        </extensions>
      </trkpt>
      <trkpt lat="-22.00921769253909587860107421875" lon="166.46133667789399623870849609375">
        <ele>1094.800048828125</ele>
        <time>2016-08-12T20:51:07.000Z</time>
        <extensions>
          <ns3:TrackPointExtension>
            <ns3:atemp>16.0</ns3:atemp>
            <ns3:hr>137</ns3:hr>
          </ns3:TrackPointExtension>
        </extensions>
      </trkpt>
      <trkpt lat="-22.0092160999774932861328125" lon="166.461314968764781951904296875">
        <ele>1094.800048828125</ele>
        <time>2016-08-12T20:51:08.000Z</time>
        <extensions>
          <ns3:TrackPointExtension>
            <ns3:atemp>16.0</ns3:atemp>
            <ns3:hr>138</ns3:hr>
          </ns3:TrackPointExtension>
        </extensions>
      </trkpt>
      <trkpt lat="-22.00921584852039813995361328125" lon="166.46129183471202850341796875">
        <ele>1095</ele>
        <time>2016-08-12T20:51:09.000Z</time>
        <extensions>
          <ns3:TrackPointExtension>
            <ns3:atemp>16.0</ns3:atemp>
            <ns3:hr>138</ns3:hr>
          </ns3:TrackPointExtension>
        </extensions>
      </trkpt>
      <trkpt lat="-22.009215764701366424560546875" lon="166.4612681977450847625732421875">
        <ele>1095.4000244140625</ele>
        <time>2016-08-12T20:51:10.000Z</time>
        <extensions>
          <ns3:TrackPointExtension>
            <ns3:atemp>16.0</ns3:atemp>
            <ns3:hr>138</ns3:hr>
          </ns3:TrackPointExtension>
        </extensions>
      </trkpt>
      <trkpt lat="-22.00921350158751010894775390625" lon="166.4612482488155364990234375">
        <ele>1095.4000244140625</ele>
        <time>2016-08-12T20:51:11.000Z</time>
        <extensions>
          <ns3:TrackPointExtension>
            <ns3:atemp>16.0</ns3:atemp>
            <ns3:hr>138</ns3:hr>
          </ns3:TrackPointExtension>
        </extensions>
      </trkpt>
      <trkpt lat="-22.0092129148542881011962890625" lon="166.46122838370501995086669921875">
        <ele>1095.5999755859375</ele>
        <time>2016-08-12T20:51:12.000Z</time>
        <extensions>
          <ns3:TrackPointExtension>
            <ns3:atemp>16.0</ns3:atemp>
            <ns3:hr>138</ns3:hr>
          </ns3:TrackPointExtension>
        </extensions>
      </trkpt>
      <trkpt lat="-22.0092132501304149627685546875" lon="166.46121002733707427978515625">
        <ele>1096</ele>
        <time>2016-08-12T20:51:13.000Z</time>
        <extensions>
          <ns3:TrackPointExtension>
            <ns3:atemp>16.0</ns3:atemp>
            <ns3:hr>138</ns3:hr>
          </ns3:TrackPointExtension>
        </extensions>
      </trkpt>
      <trkpt lat="-22.00921316631138324737548828125" lon="166.46119468845427036285400390625">
        <ele>1096</ele>
        <time>2016-08-12T20:51:14.000Z</time>
        <extensions>
          <ns3:TrackPointExtension>
            <ns3:atemp>16.0</ns3:atemp>
            <ns3:hr>138</ns3:hr>
          </ns3:TrackPointExtension>
        </extensions>
      </trkpt>
      <trkpt lat="-22.0092105679214000701904296875" lon="166.46117457188665866851806640625">
        <ele>1096</ele>
        <time>2016-08-12T20:51:15.000Z</time>
        <extensions>
          <ns3:TrackPointExtension>
            <ns3:atemp>16.0</ns3:atemp>
            <ns3:hr>138</ns3:hr>
          </ns3:TrackPointExtension>
        </extensions>
      </trkpt>
      <trkpt lat="-22.00920604169368743896484375" lon="166.4611558802425861358642578125">
        <ele>1096.4000244140625</ele>
        <time>2016-08-12T20:51:16.000Z</time>
        <extensions>
          <ns3:TrackPointExtension>
            <ns3:atemp>16.0</ns3:atemp>
            <ns3:hr>138</ns3:hr>
          </ns3:TrackPointExtension>
        </extensions>
      </trkpt>
      <trkpt lat="-22.00920411385595798492431640625" lon="166.4611381106078624725341796875">
        <ele>1096.5999755859375</ele>
        <time>2016-08-12T20:51:17.000Z</time>
        <extensions>
          <ns3:TrackPointExtension>
            <ns3:atemp>16.0</ns3:atemp>
            <ns3:hr>137</ns3:hr>
          </ns3:TrackPointExtension>
        </extensions>
      </trkpt>
      <trkpt lat="-22.009201347827911376953125" lon="166.46111941896378993988037109375">
        <ele>1096.5999755859375</ele>
        <time>2016-08-12T20:51:18.000Z</time>
        <extensions>
          <ns3:TrackPointExtension>
            <ns3:atemp>16.0</ns3:atemp>
            <ns3:hr>138</ns3:hr>
          </ns3:TrackPointExtension>
        </extensions>
      </trkpt>
      <trkpt lat="-22.00919874943792819976806640625" lon="166.46110030822455883026123046875">
        <ele>1096.800048828125</ele>
        <time>2016-08-12T20:51:19.000Z</time>
        <extensions>
          <ns3:TrackPointExtension>
            <ns3:atemp>16.0</ns3:atemp>
            <ns3:hr>138</ns3:hr>
          </ns3:TrackPointExtension>
        </extensions>
      </trkpt>
      <trkpt lat="-22.00919187627732753753662109375" lon="166.4610811136662960052490234375">
        <ele>1097</ele>
        <time>2016-08-12T20:51:20.000Z</time>
        <extensions>
          <ns3:TrackPointExtension>
            <ns3:atemp>16.0</ns3:atemp>
            <ns3:hr>137</ns3:hr>
          </ns3:TrackPointExtension>
        </extensions>
      </trkpt>
      <trkpt lat="-22.00918299145996570587158203125" lon="166.46105990745127201080322265625">
        <ele>1097.4000244140625</ele>
        <time>2016-08-12T20:51:21.000Z</time>
        <extensions>
          <ns3:TrackPointExtension>
            <ns3:atemp>16.0</ns3:atemp>
            <ns3:hr>138</ns3:hr>
          </ns3:TrackPointExtension>
        </extensions>
      </trkpt>
      <trkpt lat="-22.00918047688901424407958984375" lon="166.4610402099788188934326171875">
        <ele>1097.800048828125</ele>
        <time>2016-08-12T20:51:22.000Z</time>
        <extensions>
          <ns3:TrackPointExtension>
            <ns3:atemp>16.0</ns3:atemp>
            <ns3:hr>138</ns3:hr>
          </ns3:TrackPointExtension>
        </extensions>
      </trkpt>
      <trkpt lat="-22.00918056070804595947265625" lon="166.46102302707731723785400390625">
        <ele>1097.800048828125</ele>
        <time>2016-08-12T20:51:23.000Z</time>
        <extensions>
          <ns3:TrackPointExtension>
            <ns3:atemp>16.0</ns3:atemp>
            <ns3:hr>138</ns3:hr>
          </ns3:TrackPointExtension>
        </extensions>
      </trkpt>
      <trkpt lat="-22.009179554879665374755859375" lon="166.461005173623561859130859375">
        <ele>1098</ele>
        <time>2016-08-12T20:51:24.000Z</time>
        <extensions>
          <ns3:TrackPointExtension>
            <ns3:atemp>16.0</ns3:atemp>
            <ns3:hr>138</ns3:hr>
          </ns3:TrackPointExtension>
        </extensions>
      </trkpt>
      <trkpt lat="-22.00918165035545825958251953125" lon="166.4609862305223941802978515625">
        <ele>1098.199951171875</ele>
        <time>2016-08-12T20:51:25.000Z</time>
        <extensions>
          <ns3:TrackPointExtension>
            <ns3:atemp>16.0</ns3:atemp>
            <ns3:hr>138</ns3:hr>
          </ns3:TrackPointExtension>
        </extensions>
      </trkpt>
      <trkpt lat="-22.0091850869357585906982421875" lon="166.46096720360219478607177734375">
        <ele>1098.4000244140625</ele>
        <time>2016-08-12T20:51:26.000Z</time>
        <extensions>
          <ns3:TrackPointExtension>
            <ns3:atemp>16.0</ns3:atemp>
            <ns3:hr>138</ns3:hr>
          </ns3:TrackPointExtension>
        </extensions>
      </trkpt>
      <trkpt lat="-22.0091840811073780059814453125" lon="166.46094758994877338409423828125">
        <ele>1098.5999755859375</ele>
        <time>2016-08-12T20:51:27.000Z</time>
        <extensions>
          <ns3:TrackPointExtension>
            <ns3:atemp>16.0</ns3:atemp>
            <ns3:hr>139</ns3:hr>
          </ns3:TrackPointExtension>
        </extensions>
      </trkpt>
      <trkpt lat="-22.0091817341744899749755859375" lon="166.46092629991471767425537109375">
        <ele>1098.800048828125</ele>
        <time>2016-08-12T20:51:28.000Z</time>
        <extensions>
          <ns3:TrackPointExtension>
            <ns3:atemp>16.0</ns3:atemp>
            <ns3:hr>139</ns3:hr>
          </ns3:TrackPointExtension>
        </extensions>
      </trkpt>
      <trkpt lat="-22.00918148271739482879638671875" lon="166.4609040878713130950927734375">
        <ele>1099</ele>
        <time>2016-08-12T20:51:29.000Z</time>
        <extensions>
          <ns3:TrackPointExtension>
            <ns3:atemp>16.0</ns3:atemp>
            <ns3:hr>138</ns3:hr>
          </ns3:TrackPointExtension>
        </extensions>
      </trkpt>
      <trkpt lat="-22.009182907640933990478515625" lon="166.4608829654753208160400390625">
        <ele>1099.199951171875</ele>
        <time>2016-08-12T20:51:30.000Z</time>
        <extensions>
          <ns3:TrackPointExtension>
            <ns3:atemp>16.0</ns3:atemp>
            <ns3:hr>139</ns3:hr>
          </ns3:TrackPointExtension>
        </extensions>
      </trkpt>
      <trkpt lat="-22.0091854222118854522705078125" lon="166.46086360327899456024169921875">
        <ele>1099</ele>
        <time>2016-08-12T20:51:31.000Z</time>
        <extensions>
          <ns3:TrackPointExtension>
            <ns3:atemp>16.0</ns3:atemp>
            <ns3:hr>139</ns3:hr>
          </ns3:TrackPointExtension>
        </extensions>
      </trkpt>
      <trkpt lat="-22.00918483547866344451904296875" lon="166.46084466017782688140869140625">
        <ele>1099.199951171875</ele>
        <time>2016-08-12T20:51:32.000Z</time>
        <extensions>
          <ns3:TrackPointExtension>
            <ns3:atemp>16.0</ns3:atemp>
            <ns3:hr>139</ns3:hr>
          </ns3:TrackPointExtension>
        </extensions>
      </trkpt>
      <trkpt lat="-22.009183578193187713623046875" lon="166.46082236431539058685302734375">
        <ele>1099.5999755859375</ele>
        <time>2016-08-12T20:51:33.000Z</time>
        <extensions>
          <ns3:TrackPointExtension>
            <ns3:atemp>16.0</ns3:atemp>
            <ns3:hr>139</ns3:hr>
          </ns3:TrackPointExtension>
        </extensions>
      </trkpt>
      <trkpt lat="-22.0091854222118854522705078125" lon="166.46080023609101772308349609375">
        <ele>1099.5999755859375</ele>
        <time>2016-08-12T20:51:34.000Z</time>
        <extensions>
          <ns3:TrackPointExtension>
            <ns3:atemp>16.0</ns3:atemp>
            <ns3:hr>140</ns3:hr>
          </ns3:TrackPointExtension>
        </extensions>
      </trkpt>
      <trkpt lat="-22.00919036753475666046142578125" lon="166.460778526961803436279296875">
        <ele>1100</ele>
        <time>2016-08-12T20:51:35.000Z</time>
        <extensions>
          <ns3:TrackPointExtension>
            <ns3:atemp>16.0</ns3:atemp>
            <ns3:hr>140</ns3:hr>
          </ns3:TrackPointExtension>
        </extensions>
      </trkpt>
      <trkpt lat="-22.00919573195278644561767578125" lon="166.46075539290904998779296875">
        <ele>1100.199951171875</ele>
        <time>2016-08-12T20:51:36.000Z</time>
        <extensions>
          <ns3:TrackPointExtension>
            <ns3:atemp>16.0</ns3:atemp>
            <ns3:hr>140</ns3:hr>
          </ns3:TrackPointExtension>
        </extensions>
      </trkpt>
      <trkpt lat="-22.009196989238262176513671875" lon="166.46073083393275737762451171875">
        <ele>1100</ele>
        <time>2016-08-12T20:51:37.000Z</time>
        <extensions>
          <ns3:TrackPointExtension>
            <ns3:atemp>16.0</ns3:atemp>
            <ns3:hr>140</ns3:hr>
          </ns3:TrackPointExtension>
        </extensions>
      </trkpt>
      <trkpt lat="-22.0091998390853404998779296875" lon="166.4607079513370990753173828125">
        <ele>1100.199951171875</ele>
        <time>2016-08-12T20:51:38.000Z</time>
        <extensions>
          <ns3:TrackPointExtension>
            <ns3:atemp>16.0</ns3:atemp>
            <ns3:hr>141</ns3:hr>
          </ns3:TrackPointExtension>
        </extensions>
      </trkpt>
      <trkpt lat="-22.009205035865306854248046875" lon="166.46068439818918704986572265625">
        <ele>1100.5999755859375</ele>
        <time>2016-08-12T20:51:39.000Z</time>
        <extensions>
          <ns3:TrackPointExtension>
            <ns3:atemp>16.0</ns3:atemp>
            <ns3:hr>141</ns3:hr>
          </ns3:TrackPointExtension>
        </extensions>
      </trkpt>
      <trkpt lat="-22.00921065174043178558349609375" lon="166.4606633596122264862060546875">
        <ele>1100.4000244140625</ele>
        <time>2016-08-12T20:51:40.000Z</time>
        <extensions>
          <ns3:TrackPointExtension>
            <ns3:atemp>16.0</ns3:atemp>
            <ns3:hr>141</ns3:hr>
          </ns3:TrackPointExtension>
        </extensions>
      </trkpt>
      <trkpt lat="-22.009220458567142486572265625" lon="166.46064433269202709197998046875">
        <ele>1100.4000244140625</ele>
        <time>2016-08-12T20:51:41.000Z</time>
        <extensions>
          <ns3:TrackPointExtension>
            <ns3:atemp>16.0</ns3:atemp>
            <ns3:hr>141</ns3:hr>
          </ns3:TrackPointExtension>
        </extensions>
      </trkpt>
      <trkpt lat="-22.0092295110225677490234375" lon="166.46062455140054225921630859375">
        <ele>1100.5999755859375</ele>
        <time>2016-08-12T20:51:42.000Z</time>
        <extensions>
          <ns3:TrackPointExtension>
            <ns3:atemp>16.0</ns3:atemp>
            <ns3:hr>142</ns3:hr>
          </ns3:TrackPointExtension>
        </extensions>
      </trkpt>
      <trkpt lat="-22.00923596508800983428955078125" lon="166.46060275845229625701904296875">
        <ele>1100.5999755859375</ele>
        <time>2016-08-12T20:51:43.000Z</time>
        <extensions>
          <ns3:TrackPointExtension>
            <ns3:atemp>16.0</ns3:atemp>
            <ns3:hr>142</ns3:hr>
          </ns3:TrackPointExtension>
        </extensions>
      </trkpt>
      <trkpt lat="-22.0092400722205638885498046875" lon="166.4605778641998767852783203125">
        <ele>1100.5999755859375</ele>
        <time>2016-08-12T20:51:44.000Z</time>
        <extensions>
          <ns3:TrackPointExtension>
            <ns3:atemp>16.0</ns3:atemp>
            <ns3:hr>142</ns3:hr>
          </ns3:TrackPointExtension>
        </extensions>
      </trkpt>
      <trkpt lat="-22.00924225151538848876953125" lon="166.46055431105196475982666015625">
        <ele>1100.4000244140625</ele>
        <time>2016-08-12T20:51:45.000Z</time>
        <extensions>
          <ns3:TrackPointExtension>
            <ns3:atemp>16.0</ns3:atemp>
            <ns3:hr>142</ns3:hr>
          </ns3:TrackPointExtension>
        </extensions>
      </trkpt>
      <trkpt lat="-22.00923822820186614990234375" lon="166.460525728762149810791015625">
        <ele>1100.4000244140625</ele>
        <time>2016-08-12T20:51:46.000Z</time>
        <extensions>
          <ns3:TrackPointExtension>
            <ns3:atemp>16.0</ns3:atemp>
            <ns3:hr>141</ns3:hr>
          </ns3:TrackPointExtension>
        </extensions>
      </trkpt>
      <trkpt lat="-22.00923495925962924957275390625" lon="166.4604970626533031463623046875">
        <ele>1100.4000244140625</ele>
        <time>2016-08-12T20:51:47.000Z</time>
        <extensions>
          <ns3:TrackPointExtension>
            <ns3:atemp>16.0</ns3:atemp>
            <ns3:hr>141</ns3:hr>
          </ns3:TrackPointExtension>
        </extensions>
      </trkpt>
      <trkpt lat="-22.00923210941255092620849609375" lon="166.460469402372837066650390625">
        <ele>1100.199951171875</ele>
        <time>2016-08-12T20:51:48.000Z</time>
        <extensions>
          <ns3:TrackPointExtension>
            <ns3:atemp>16.0</ns3:atemp>
            <ns3:hr>141</ns3:hr>
          </ns3:TrackPointExtension>
        </extensions>
      </trkpt>
      <trkpt lat="-22.0092306844890117645263671875" lon="166.4604434184730052947998046875">
        <ele>1100.199951171875</ele>
        <time>2016-08-12T20:51:49.000Z</time>
        <extensions>
          <ns3:TrackPointExtension>
            <ns3:atemp>16.0</ns3:atemp>
            <ns3:hr>141</ns3:hr>
          </ns3:TrackPointExtension>
        </extensions>
      </trkpt>
      <trkpt lat="-22.00923244468867778778076171875" lon="166.46041852422058582305908203125">
        <ele>1100.4000244140625</ele>
        <time>2016-08-12T20:51:50.000Z</time>
        <extensions>
          <ns3:TrackPointExtension>
            <ns3:atemp>16.0</ns3:atemp>
            <ns3:hr>141</ns3:hr>
          </ns3:TrackPointExtension>
        </extensions>
      </trkpt>
      <trkpt lat="-22.0092360489070415496826171875" lon="166.46039438433945178985595703125">
        <ele>1100.4000244140625</ele>
        <time>2016-08-12T20:51:51.000Z</time>
        <extensions>
          <ns3:TrackPointExtension>
            <ns3:atemp>16.0</ns3:atemp>
            <ns3:hr>141</ns3:hr>
          </ns3:TrackPointExtension>
        </extensions>
      </trkpt>
      <trkpt lat="-22.00922925956547260284423828125" lon="166.46036756224930286407470703125">
        <ele>1100.199951171875</ele>
        <time>2016-08-12T20:51:52.000Z</time>
        <extensions>
          <ns3:TrackPointExtension>
            <ns3:atemp>16.0</ns3:atemp>
            <ns3:hr>141</ns3:hr>
          </ns3:TrackPointExtension>
        </extensions>
      </trkpt>
      <trkpt lat="-22.00922288931906223297119140625" lon="166.46034090779721736907958984375">
        <ele>1100.5999755859375</ele>
        <time>2016-08-12T20:51:53.000Z</time>
        <extensions>
          <ns3:TrackPointExtension>
            <ns3:atemp>16.0</ns3:atemp>
            <ns3:hr>141</ns3:hr>
          </ns3:TrackPointExtension>
        </extensions>
      </trkpt>
      <trkpt lat="-22.00921987183392047882080078125" lon="166.46031492389738559722900390625">
        <ele>1100.800048828125</ele>
        <time>2016-08-12T20:51:54.000Z</time>
        <extensions>
          <ns3:TrackPointExtension>
            <ns3:atemp>16.0</ns3:atemp>
            <ns3:hr>141</ns3:hr>
          </ns3:TrackPointExtension>
        </extensions>
      </trkpt>
      <trkpt lat="-22.00921517796814441680908203125" lon="166.46028893999755382537841796875">
        <ele>1100.4000244140625</ele>
        <time>2016-08-12T20:51:55.000Z</time>
        <extensions>
          <ns3:TrackPointExtension>
            <ns3:atemp>16.0</ns3:atemp>
            <ns3:hr>141</ns3:hr>
          </ns3:TrackPointExtension>
        </extensions>
      </trkpt>
      <trkpt lat="-22.00921048410236835479736328125" lon="166.4602638781070709228515625">
        <ele>1100.199951171875</ele>
        <time>2016-08-12T20:51:56.000Z</time>
        <extensions>
          <ns3:TrackPointExtension>
            <ns3:atemp>16.0</ns3:atemp>
            <ns3:hr>141</ns3:hr>
          </ns3:TrackPointExtension>
        </extensions>
      </trkpt>
      <trkpt lat="-22.00920394621789455413818359375" lon="166.4602362178266048431396484375">
        <ele>1100.4000244140625</ele>
        <time>2016-08-12T20:51:57.000Z</time>
        <extensions>
          <ns3:TrackPointExtension>
            <ns3:atemp>16.0</ns3:atemp>
            <ns3:hr>140</ns3:hr>
          </ns3:TrackPointExtension>
        </extensions>
      </trkpt>
      <trkpt lat="-22.0091981627047061920166015625" lon="166.460208892822265625">
        <ele>1100.199951171875</ele>
        <time>2016-08-12T20:51:58.000Z</time>
        <extensions>
          <ns3:TrackPointExtension>
            <ns3:atemp>16.0</ns3:atemp>
            <ns3:hr>140</ns3:hr>
          </ns3:TrackPointExtension>
        </extensions>
      </trkpt>
      <trkpt lat="-22.00918860733509063720703125" lon="166.46018140017986297607421875">
        <ele>1100.199951171875</ele>
        <time>2016-08-12T20:51:59.000Z</time>
        <extensions>
          <ns3:TrackPointExtension>
            <ns3:atemp>16.0</ns3:atemp>
            <ns3:hr>140</ns3:hr>
          </ns3:TrackPointExtension>
        </extensions>
      </trkpt>
      <trkpt lat="-22.00918190181255340576171875" lon="166.4601534046232700347900390625">
        <ele>1100.199951171875</ele>
        <time>2016-08-12T20:52:00.000Z</time>
        <extensions>
          <ns3:TrackPointExtension>
            <ns3:atemp>16.0</ns3:atemp>
            <ns3:hr>140</ns3:hr>
          </ns3:TrackPointExtension>
        </extensions>
      </trkpt>
      <trkpt lat="-22.0091746933758258819580078125" lon="166.4601269178092479705810546875">
        <ele>1100.199951171875</ele>
        <time>2016-08-12T20:52:01.000Z</time>
        <extensions>
          <ns3:TrackPointExtension>
            <ns3:atemp>16.0</ns3:atemp>
            <ns3:hr>140</ns3:hr>
          </ns3:TrackPointExtension>
        </extensions>
      </trkpt>
      <trkpt lat="-22.0091609470546245574951171875" lon="166.46009732969105243682861328125">
        <ele>1100</ele>
        <time>2016-08-12T20:52:02.000Z</time>
        <extensions>
          <ns3:TrackPointExtension>
            <ns3:atemp>16.0</ns3:atemp>
            <ns3:hr>140</ns3:hr>
          </ns3:TrackPointExtension>
        </extensions>
      </trkpt>
      <trkpt lat="-22.00915046967566013336181640625" lon="166.4600715972483158111572265625">
        <ele>1099.800048828125</ele>
        <time>2016-08-12T20:52:03.000Z</time>
        <extensions>
          <ns3:TrackPointExtension>
            <ns3:atemp>16.0</ns3:atemp>
            <ns3:hr>140</ns3:hr>
          </ns3:TrackPointExtension>
        </extensions>
      </trkpt>
      <trkpt lat="-22.00914158485829830169677734375" lon="166.4600493013858795166015625">
        <ele>1100</ele>
        <time>2016-08-12T20:52:04.000Z</time>
        <extensions>
          <ns3:TrackPointExtension>
            <ns3:atemp>16.0</ns3:atemp>
            <ns3:hr>139</ns3:hr>
          </ns3:TrackPointExtension>
        </extensions>
      </trkpt>
      <trkpt lat="-22.00913001783192157745361328125" lon="166.46002491004765033721923828125">
        <ele>1100.4000244140625</ele>
        <time>2016-08-12T20:52:05.000Z</time>
        <extensions>
          <ns3:TrackPointExtension>
            <ns3:atemp>16.0</ns3:atemp>
            <ns3:hr>139</ns3:hr>
          </ns3:TrackPointExtension>
        </extensions>
      </trkpt>
      <trkpt lat="-22.0091227255761623382568359375" lon="166.45999892614781856536865234375">
        <ele>1100.4000244140625</ele>
        <time>2016-08-12T20:52:06.000Z</time>
        <extensions>
          <ns3:TrackPointExtension>
            <ns3:atemp>16.0</ns3:atemp>
            <ns3:hr>139</ns3:hr>
          </ns3:TrackPointExtension>
        </extensions>
      </trkpt>
      <trkpt lat="-22.00911819934844970703125" lon="166.4599723555147647857666015625">
        <ele>1100</ele>
        <time>2016-08-12T20:52:07.000Z</time>
        <extensions>
          <ns3:TrackPointExtension>
            <ns3:atemp>16.0</ns3:atemp>
            <ns3:hr>139</ns3:hr>
          </ns3:TrackPointExtension>
        </extensions>
      </trkpt>
      <trkpt lat="-22.00911241583526134490966796875" lon="166.4599445275962352752685546875">
        <ele>1100</ele>
        <time>2016-08-12T20:52:08.000Z</time>
        <extensions>
          <ns3:TrackPointExtension>
            <ns3:atemp>16.0</ns3:atemp>
            <ns3:hr>139</ns3:hr>
          </ns3:TrackPointExtension>
        </extensions>
      </trkpt>
      <trkpt lat="-22.00910738669335842132568359375" lon="166.4599177055060863494873046875">
        <ele>1100</ele>
        <time>2016-08-12T20:52:09.000Z</time>
        <extensions>
          <ns3:TrackPointExtension>
            <ns3:atemp>16.0</ns3:atemp>
            <ns3:hr>139</ns3:hr>
          </ns3:TrackPointExtension>
        </extensions>
      </trkpt>
      <trkpt lat="-22.0091019384562969207763671875" lon="166.45989180542528629302978515625">
        <ele>1099.5999755859375</ele>
        <time>2016-08-12T20:52:10.000Z</time>
        <extensions>
          <ns3:TrackPointExtension>
            <ns3:atemp>16.0</ns3:atemp>
            <ns3:hr>139</ns3:hr>
          </ns3:TrackPointExtension>
        </extensions>
      </trkpt>
      <trkpt lat="-22.0090948976576328277587890625" lon="166.459864564239978790283203125">
        <ele>1099.5999755859375</ele>
        <time>2016-08-12T20:52:11.000Z</time>
        <extensions>
          <ns3:TrackPointExtension>
            <ns3:atemp>16.0</ns3:atemp>
            <ns3:hr>138</ns3:hr>
          </ns3:TrackPointExtension>
        </extensions>
      </trkpt>
      <trkpt lat="-22.00908978469669818878173828125" lon="166.4598399214446544647216796875">
        <ele>1099.800048828125</ele>
        <time>2016-08-12T20:52:12.000Z</time>
        <extensions>
          <ns3:TrackPointExtension>
            <ns3:atemp>16.0</ns3:atemp>
            <ns3:hr>138</ns3:hr>
          </ns3:TrackPointExtension>
        </extensions>
      </trkpt>
      <trkpt lat="-22.0090828277170658111572265625" lon="166.4598137699067592620849609375">
        <ele>1099.5999755859375</ele>
        <time>2016-08-12T20:52:13.000Z</time>
        <extensions>
          <ns3:TrackPointExtension>
            <ns3:atemp>16.0</ns3:atemp>
            <ns3:hr>138</ns3:hr>
          </ns3:TrackPointExtension>
        </extensions>
      </trkpt>
      <trkpt lat="-22.00907520018517971038818359375" lon="166.45978803746402263641357421875">
        <ele>1099.4000244140625</ele>
        <time>2016-08-12T20:52:14.000Z</time>
        <extensions>
          <ns3:TrackPointExtension>
            <ns3:atemp>16.0</ns3:atemp>
            <ns3:hr>137</ns3:hr>
          </ns3:TrackPointExtension>
        </extensions>
      </trkpt>
      <trkpt lat="-22.0090697519481182098388671875" lon="166.45976507104933261871337890625">
        <ele>1099.5999755859375</ele>
        <time>2016-08-12T20:52:15.000Z</time>
        <extensions>
          <ns3:TrackPointExtension>
            <ns3:atemp>16.0</ns3:atemp>
            <ns3:hr>137</ns3:hr>
          </ns3:TrackPointExtension>
        </extensions>
      </trkpt>
      <trkpt lat="-22.0090630464255809783935546875" lon="166.459740512073040008544921875">
        <ele>1099.5999755859375</ele>
        <time>2016-08-12T20:52:16.000Z</time>
        <extensions>
          <ns3:TrackPointExtension>
            <ns3:atemp>16.0</ns3:atemp>
            <ns3:hr>137</ns3:hr>
          </ns3:TrackPointExtension>
        </extensions>
      </trkpt>
      <trkpt lat="-22.0090586878359317779541015625" lon="166.45971746183931827545166015625">
        <ele>1099.4000244140625</ele>
        <time>2016-08-12T20:52:17.000Z</time>
        <extensions>
          <ns3:TrackPointExtension>
            <ns3:atemp>16.0</ns3:atemp>
            <ns3:hr>137</ns3:hr>
          </ns3:TrackPointExtension>
        </extensions>
      </trkpt>
      <trkpt lat="-22.00905391015112400054931640625" lon="166.4596957527101039886474609375">
        <ele>1099.4000244140625</ele>
        <time>2016-08-12T20:52:18.000Z</time>
        <extensions>
          <ns3:TrackPointExtension>
            <ns3:atemp>16.0</ns3:atemp>
            <ns3:hr>137</ns3:hr>
          </ns3:TrackPointExtension>
        </extensions>
      </trkpt>
      <trkpt lat="-22.00904552824795246124267578125" lon="166.4596712775528430938720703125">
        <ele>1099.4000244140625</ele>
        <time>2016-08-12T20:52:19.000Z</time>
        <extensions>
          <ns3:TrackPointExtension>
            <ns3:atemp>16.0</ns3:atemp>
            <ns3:hr>137</ns3:hr>
          </ns3:TrackPointExtension>
        </extensions>
      </trkpt>
      <trkpt lat="-22.009035386145114898681640625" lon="166.4596484787762165069580078125">
        <ele>1099.4000244140625</ele>
        <time>2016-08-12T20:52:20.000Z</time>
        <extensions>
          <ns3:TrackPointExtension>
            <ns3:atemp>15.0</ns3:atemp>
            <ns3:hr>136</ns3:hr>
          </ns3:TrackPointExtension>
        </extensions>
      </trkpt>
      <trkpt lat="-22.00902767479419708251953125" lon="166.4596240036189556121826171875">
        <ele>1099.199951171875</ele>
        <time>2016-08-12T20:52:21.000Z</time>
        <extensions>
          <ns3:TrackPointExtension>
            <ns3:atemp>15.0</ns3:atemp>
            <ns3:hr>136</ns3:hr>
          </ns3:TrackPointExtension>
        </extensions>
      </trkpt>
      <trkpt lat="-22.00901954434812068939208984375" lon="166.4595991931855678558349609375">
        <ele>1099.4000244140625</ele>
        <time>2016-08-12T20:52:22.000Z</time>
        <extensions>
          <ns3:TrackPointExtension>
            <ns3:atemp>15.0</ns3:atemp>
            <ns3:hr>136</ns3:hr>
          </ns3:TrackPointExtension>
        </extensions>
      </trkpt>
      <trkpt lat="-22.00901292264461517333984375" lon="166.459578573703765869140625">
        <ele>1099.199951171875</ele>
        <time>2016-08-12T20:52:23.000Z</time>
        <extensions>
          <ns3:TrackPointExtension>
            <ns3:atemp>15.0</ns3:atemp>
            <ns3:hr>136</ns3:hr>
          </ns3:TrackPointExtension>
        </extensions>
      </trkpt>
      <trkpt lat="-22.009002864360809326171875" lon="166.45956189371645450592041015625">
        <ele>1099.199951171875</ele>
        <time>2016-08-12T20:52:24.000Z</time>
        <extensions>
          <ns3:TrackPointExtension>
            <ns3:atemp>15.0</ns3:atemp>
            <ns3:hr>136</ns3:hr>
          </ns3:TrackPointExtension>
        </extensions>
      </trkpt>
      <trkpt lat="-22.00899473391473293304443359375" lon="166.45954714156687259674072265625">
        <ele>1099.199951171875</ele>
        <time>2016-08-12T20:52:25.000Z</time>
        <extensions>
          <ns3:TrackPointExtension>
            <ns3:atemp>15.0</ns3:atemp>
            <ns3:hr>135</ns3:hr>
          </ns3:TrackPointExtension>
        </extensions>
      </trkpt>
      <trkpt lat="-22.00899054296314716339111328125" lon="166.45953498780727386474609375">
        <ele>1099</ele>
        <time>2016-08-12T20:52:26.000Z</time>
        <extensions>
          <ns3:TrackPointExtension>
            <ns3:atemp>15.0</ns3:atemp>
            <ns3:hr>135</ns3:hr>
          </ns3:TrackPointExtension>
        </extensions>
      </trkpt>
      <trkpt lat="-22.0089886151254177093505859375" lon="166.45952451042830944061279296875">
        <ele>1099</ele>
        <time>2016-08-12T20:52:27.000Z</time>
        <extensions>
          <ns3:TrackPointExtension>
            <ns3:atemp>15.0</ns3:atemp>
            <ns3:hr>134</ns3:hr>
          </ns3:TrackPointExtension>
        </extensions>
      </trkpt>
      <trkpt lat="-22.00898769311606884002685546875" lon="166.459514200687408447265625">
        <ele>1099</ele>
        <time>2016-08-12T20:52:28.000Z</time>
        <extensions>
          <ns3:TrackPointExtension>
            <ns3:atemp>15.0</ns3:atemp>
            <ns3:hr>134</ns3:hr>
          </ns3:TrackPointExtension>
        </extensions>
      </trkpt>
      <trkpt lat="-22.00898752547800540924072265625" lon="166.4595021307468414306640625">
        <ele>1099</ele>
        <time>2016-08-12T20:52:29.000Z</time>
        <extensions>
          <ns3:TrackPointExtension>
            <ns3:atemp>15.0</ns3:atemp>
            <ns3:hr>133</ns3:hr>
          </ns3:TrackPointExtension>
        </extensions>
      </trkpt>
      <trkpt lat="-22.0089842565357685089111328125" lon="166.45948260091245174407958984375">
        <ele>1099</ele>
        <time>2016-08-12T20:52:30.000Z</time>
        <extensions>
          <ns3:TrackPointExtension>
            <ns3:atemp>15.0</ns3:atemp>
            <ns3:hr>132</ns3:hr>
          </ns3:TrackPointExtension>
        </extensions>
      </trkpt>
      <trkpt lat="-22.00897998176515102386474609375" lon="166.45945996977388858795166015625">
        <ele>1099</ele>
        <time>2016-08-12T20:52:31.000Z</time>
        <extensions>
          <ns3:TrackPointExtension>
            <ns3:atemp>15.0</ns3:atemp>
            <ns3:hr>132</ns3:hr>
          </ns3:TrackPointExtension>
        </extensions>
      </trkpt>
      <trkpt lat="-22.00897260569036006927490234375" lon="166.4594392664730548858642578125">
        <ele>1099.199951171875</ele>
        <time>2016-08-12T20:52:32.000Z</time>
        <extensions>
          <ns3:TrackPointExtension>
            <ns3:atemp>15.0</ns3:atemp>
            <ns3:hr>132</ns3:hr>
          </ns3:TrackPointExtension>
        </extensions>
      </trkpt>
      <trkpt lat="-22.00896522961556911468505859375" lon="166.4594147913157939910888671875">
        <ele>1099.4000244140625</ele>
        <time>2016-08-12T20:52:33.000Z</time>
        <extensions>
          <ns3:TrackPointExtension>
            <ns3:atemp>15.0</ns3:atemp>
            <ns3:hr>132</ns3:hr>
          </ns3:TrackPointExtension>
        </extensions>
      </trkpt>
      <trkpt lat="-22.0089597813785076141357421875" lon="166.4593906514346599578857421875">
        <ele>1099.4000244140625</ele>
        <time>2016-08-12T20:52:34.000Z</time>
        <extensions>
          <ns3:TrackPointExtension>
            <ns3:atemp>15.0</ns3:atemp>
            <ns3:hr>132</ns3:hr>
          </ns3:TrackPointExtension>
        </extensions>
      </trkpt>
      <trkpt lat="-22.00895315967500209808349609375" lon="166.45936558954417705535888671875">
        <ele>1099.4000244140625</ele>
        <time>2016-08-12T20:52:35.000Z</time>
        <extensions>
          <ns3:TrackPointExtension>
            <ns3:atemp>15.0</ns3:atemp>
            <ns3:hr>132</ns3:hr>
          </ns3:TrackPointExtension>
        </extensions>
      </trkpt>
      <trkpt lat="-22.0089453645050525665283203125" lon="166.45934128202497959136962890625">
        <ele>1099.199951171875</ele>
        <time>2016-08-12T20:52:36.000Z</time>
        <extensions>
          <ns3:TrackPointExtension>
            <ns3:atemp>15.0</ns3:atemp>
            <ns3:hr>132</ns3:hr>
          </ns3:TrackPointExtension>
        </extensions>
      </trkpt>
      <trkpt lat="-22.0089430175721645355224609375" lon="166.4593185670673847198486328125">
        <ele>1098.800048828125</ele>
        <time>2016-08-12T20:52:37.000Z</time>
        <extensions>
          <ns3:TrackPointExtension>
            <ns3:atemp>15.0</ns3:atemp>
            <ns3:hr>133</ns3:hr>
          </ns3:TrackPointExtension>
        </extensions>
      </trkpt>
      <trkpt lat="-22.00893488712608814239501953125" lon="166.45929568447172641754150390625">
        <ele>1098.800048828125</ele>
        <time>2016-08-12T20:52:38.000Z</time>
        <extensions>
          <ns3:TrackPointExtension>
            <ns3:atemp>15.0</ns3:atemp>
            <ns3:hr>133</ns3:hr>
          </ns3:TrackPointExtension>
        </extensions>
      </trkpt>
      <trkpt lat="-22.00892868451774120330810546875" lon="166.459271796047687530517578125">
        <ele>1098.800048828125</ele>
        <time>2016-08-12T20:52:39.000Z</time>
        <extensions>
          <ns3:TrackPointExtension>
            <ns3:atemp>15.0</ns3:atemp>
            <ns3:hr>132</ns3:hr>
          </ns3:TrackPointExtension>
        </extensions>
      </trkpt>
      <trkpt lat="-22.0089235715568065643310546875" lon="166.45924866199493408203125">
        <ele>1098.5999755859375</ele>
        <time>2016-08-12T20:52:40.000Z</time>
        <extensions>
          <ns3:TrackPointExtension>
            <ns3:atemp>15.0</ns3:atemp>
            <ns3:hr>132</ns3:hr>
          </ns3:TrackPointExtension>
        </extensions>
      </trkpt>
      <trkpt lat="-22.00891996733844280242919921875" lon="166.45922594703733921051025390625">
        <ele>1098.4000244140625</ele>
        <time>2016-08-12T20:52:41.000Z</time>
        <extensions>
          <ns3:TrackPointExtension>
            <ns3:atemp>15.0</ns3:atemp>
            <ns3:hr>132</ns3:hr>
          </ns3:TrackPointExtension>
        </extensions>
      </trkpt>
      <trkpt lat="-22.00891812331974506378173828125" lon="166.45920298062264919281005859375">
        <ele>1098.4000244140625</ele>
        <time>2016-08-12T20:52:42.000Z</time>
        <extensions>
          <ns3:TrackPointExtension>
            <ns3:atemp>15.0</ns3:atemp>
            <ns3:hr>131</ns3:hr>
          </ns3:TrackPointExtension>
        </extensions>
      </trkpt>
      <trkpt lat="-22.00892130844295024871826171875" lon="166.45918001420795917510986328125">
        <ele>1098.199951171875</ele>
        <time>2016-08-12T20:52:43.000Z</time>
        <extensions>
          <ns3:TrackPointExtension>
            <ns3:atemp>15.0</ns3:atemp>
            <ns3:hr>131</ns3:hr>
          </ns3:TrackPointExtension>
        </extensions>
      </trkpt>
      <trkpt lat="-22.00892516411840915679931640625" lon="166.4591549523174762725830078125">
        <ele>1098.199951171875</ele>
        <time>2016-08-12T20:52:44.000Z</time>
        <extensions>
          <ns3:TrackPointExtension>
            <ns3:atemp>15.0</ns3:atemp>
            <ns3:hr>131</ns3:hr>
          </ns3:TrackPointExtension>
        </extensions>
      </trkpt>
      <trkpt lat="-22.0089339651167392730712890625" lon="166.459132321178913116455078125">
        <ele>1098.199951171875</ele>
        <time>2016-08-12T20:52:45.000Z</time>
        <extensions>
          <ns3:TrackPointExtension>
            <ns3:atemp>15.0</ns3:atemp>
            <ns3:hr>131</ns3:hr>
          </ns3:TrackPointExtension>
        </extensions>
      </trkpt>
      <trkpt lat="-22.00893991626799106597900390625" lon="166.45911145024001598358154296875">
        <ele>1098</ele>
        <time>2016-08-12T20:52:46.000Z</time>
        <extensions>
          <ns3:TrackPointExtension>
            <ns3:atemp>15.0</ns3:atemp>
            <ns3:hr>131</ns3:hr>
          </ns3:TrackPointExtension>
        </extensions>
      </trkpt>
      <trkpt lat="-22.008944191038608551025390625" lon="166.45908814854919910430908203125">
        <ele>1098</ele>
        <time>2016-08-12T20:52:47.000Z</time>
        <extensions>
          <ns3:TrackPointExtension>
            <ns3:atemp>15.0</ns3:atemp>
            <ns3:hr>131</ns3:hr>
          </ns3:TrackPointExtension>
        </extensions>
      </trkpt>
      <trkpt lat="-22.00894729234278202056884765625" lon="166.4590654335916042327880859375">
        <ele>1097.800048828125</ele>
        <time>2016-08-12T20:52:48.000Z</time>
        <extensions>
          <ns3:TrackPointExtension>
            <ns3:atemp>15.0</ns3:atemp>
            <ns3:hr>131</ns3:hr>
          </ns3:TrackPointExtension>
        </extensions>
      </trkpt>
      <trkpt lat="-22.008950896561145782470703125" lon="166.45904439501464366912841796875">
        <ele>1097.5999755859375</ele>
        <time>2016-08-12T20:52:49.000Z</time>
        <extensions>
          <ns3:TrackPointExtension>
            <ns3:atemp>15.0</ns3:atemp>
            <ns3:hr>130</ns3:hr>
          </ns3:TrackPointExtension>
        </extensions>
      </trkpt>
      <trkpt lat="-22.00895517133176326751708984375" lon="166.45902209915220737457275390625">
        <ele>1097.4000244140625</ele>
        <time>2016-08-12T20:52:50.000Z</time>
        <extensions>
          <ns3:TrackPointExtension>
            <ns3:atemp>15.0</ns3:atemp>
            <ns3:hr>130</ns3:hr>
          </ns3:TrackPointExtension>
        </extensions>
      </trkpt>
      <trkpt lat="-22.00895835645496845245361328125" lon="166.459000892937183380126953125">
        <ele>1097.199951171875</ele>
        <time>2016-08-12T20:52:51.000Z</time>
        <extensions>
          <ns3:TrackPointExtension>
            <ns3:atemp>15.0</ns3:atemp>
            <ns3:hr>130</ns3:hr>
          </ns3:TrackPointExtension>
        </extensions>
      </trkpt>
      <trkpt lat="-22.00896237976849079132080078125" lon="166.45897935144603252410888671875">
        <ele>1097.199951171875</ele>
        <time>2016-08-12T20:52:52.000Z</time>
        <extensions>
          <ns3:TrackPointExtension>
            <ns3:atemp>15.0</ns3:atemp>
            <ns3:hr>130</ns3:hr>
          </ns3:TrackPointExtension>
        </extensions>
      </trkpt>
      <trkpt lat="-22.00896053574979305267333984375" lon="166.45895672030746936798095703125">
        <ele>1097</ele>
        <time>2016-08-12T20:52:53.000Z</time>
        <extensions>
          <ns3:TrackPointExtension>
            <ns3:atemp>15.0</ns3:atemp>
            <ns3:hr>129</ns3:hr>
          </ns3:TrackPointExtension>
        </extensions>
      </trkpt>
      <trkpt lat="-22.00895936228334903717041015625" lon="166.4589340053498744964599609375">
        <ele>1097</ele>
        <time>2016-08-12T20:52:54.000Z</time>
        <extensions>
          <ns3:TrackPointExtension>
            <ns3:atemp>15.0</ns3:atemp>
            <ns3:hr>129</ns3:hr>
          </ns3:TrackPointExtension>
        </extensions>
      </trkpt>
      <trkpt lat="-22.0089586079120635986328125" lon="166.458915062248706817626953125">
        <ele>1096.5999755859375</ele>
        <time>2016-08-12T20:52:55.000Z</time>
        <extensions>
          <ns3:TrackPointExtension>
            <ns3:atemp>15.0</ns3:atemp>
            <ns3:hr>129</ns3:hr>
          </ns3:TrackPointExtension>
        </extensions>
      </trkpt>
      <trkpt lat="-22.0089597813785076141357421875" lon="166.45889553241431713104248046875">
        <ele>1096.4000244140625</ele>
        <time>2016-08-12T20:52:56.000Z</time>
        <extensions>
          <ns3:TrackPointExtension>
            <ns3:atemp>15.0</ns3:atemp>
            <ns3:hr>129</ns3:hr>
          </ns3:TrackPointExtension>
        </extensions>
      </trkpt>
      <trkpt lat="-22.00896640308201313018798828125" lon="166.45887424238026142120361328125">
        <ele>1096.4000244140625</ele>
        <time>2016-08-12T20:52:57.000Z</time>
        <extensions>
          <ns3:TrackPointExtension>
            <ns3:atemp>15.0</ns3:atemp>
            <ns3:hr>129</ns3:hr>
          </ns3:TrackPointExtension>
        </extensions>
      </trkpt>
      <trkpt lat="-22.00896606780588626861572265625" lon="166.4588545449078083038330078125">
        <ele>1096</ele>
        <time>2016-08-12T20:52:58.000Z</time>
        <extensions>
          <ns3:TrackPointExtension>
            <ns3:atemp>15.0</ns3:atemp>
            <ns3:hr>129</ns3:hr>
          </ns3:TrackPointExtension>
        </extensions>
      </trkpt>
      <trkpt lat="-22.008968330919742584228515625" lon="166.45883317105472087860107421875">
        <ele>1095.800048828125</ele>
        <time>2016-08-12T20:52:59.000Z</time>
        <extensions>
          <ns3:TrackPointExtension>
            <ns3:atemp>15.0</ns3:atemp>
            <ns3:hr>129</ns3:hr>
          </ns3:TrackPointExtension>
        </extensions>
      </trkpt>
      <trkpt lat="-22.00896673835813999176025390625" lon="166.4588101208209991455078125">
        <ele>1095.5999755859375</ele>
        <time>2016-08-12T20:53:00.000Z</time>
        <extensions>
          <ns3:TrackPointExtension>
            <ns3:atemp>15.0</ns3:atemp>
            <ns3:hr>129</ns3:hr>
          </ns3:TrackPointExtension>
        </extensions>
      </trkpt>
      <trkpt lat="-22.00896204449236392974853515625" lon="166.45878975279629230499267578125">
        <ele>1095.199951171875</ele>
        <time>2016-08-12T20:53:01.000Z</time>
        <extensions>
          <ns3:TrackPointExtension>
            <ns3:atemp>15.0</ns3:atemp>
            <ns3:hr>129</ns3:hr>
          </ns3:TrackPointExtension>
        </extensions>
      </trkpt>
      <trkpt lat="-22.00896237976849079132080078125" lon="166.4587697200477123260498046875">
        <ele>1095</ele>
        <time>2016-08-12T20:53:02.000Z</time>
        <extensions>
          <ns3:TrackPointExtension>
            <ns3:atemp>15.0</ns3:atemp>
            <ns3:hr>129</ns3:hr>
          </ns3:TrackPointExtension>
        </extensions>
      </trkpt>
      <trkpt lat="-22.0089627988636493682861328125" lon="166.4587484300136566162109375">
        <ele>1095</ele>
        <time>2016-08-12T20:53:03.000Z</time>
        <extensions>
          <ns3:TrackPointExtension>
            <ns3:atemp>15.0</ns3:atemp>
            <ns3:hr>129</ns3:hr>
          </ns3:TrackPointExtension>
        </extensions>
      </trkpt>
      <trkpt lat="-22.0089661516249179840087890625" lon="166.45872822962701320648193359375">
        <ele>1094.5999755859375</ele>
        <time>2016-08-12T20:53:04.000Z</time>
        <extensions>
          <ns3:TrackPointExtension>
            <ns3:atemp>15.0</ns3:atemp>
            <ns3:hr>129</ns3:hr>
          </ns3:TrackPointExtension>
        </extensions>
      </trkpt>
      <trkpt lat="-22.00897143222391605377197265625" lon="166.4587097056210041046142578125">
        <ele>1094.4000244140625</ele>
        <time>2016-08-12T20:53:05.000Z</time>
        <extensions>
          <ns3:TrackPointExtension>
            <ns3:atemp>15.0</ns3:atemp>
            <ns3:hr>129</ns3:hr>
          </ns3:TrackPointExtension>
        </extensions>
      </trkpt>
      <trkpt lat="-22.0089795626699924468994140625" lon="166.45868849940598011016845703125">
        <ele>1094.199951171875</ele>
        <time>2016-08-12T20:53:06.000Z</time>
        <extensions>
          <ns3:TrackPointExtension>
            <ns3:atemp>15.0</ns3:atemp>
            <ns3:hr>128</ns3:hr>
          </ns3:TrackPointExtension>
        </extensions>
      </trkpt>
      <trkpt lat="-22.00898719020187854766845703125" lon="166.4586657844483852386474609375">
        <ele>1093.5999755859375</ele>
        <time>2016-08-12T20:53:07.000Z</time>
        <extensions>
          <ns3:TrackPointExtension>
            <ns3:atemp>15.0</ns3:atemp>
            <ns3:hr>128</ns3:hr>
          </ns3:TrackPointExtension>
        </extensions>
      </trkpt>
      <trkpt lat="-22.00899389572441577911376953125" lon="166.4586416445672512054443359375">
        <ele>1093.199951171875</ele>
        <time>2016-08-12T20:53:08.000Z</time>
        <extensions>
          <ns3:TrackPointExtension>
            <ns3:atemp>15.0</ns3:atemp>
            <ns3:hr>127</ns3:hr>
          </ns3:TrackPointExtension>
        </extensions>
      </trkpt>
      <trkpt lat="-22.00900361873209476470947265625" lon="166.4586215279996395111083984375">
        <ele>1093</ele>
        <time>2016-08-12T20:53:09.000Z</time>
        <extensions>
          <ns3:TrackPointExtension>
            <ns3:atemp>15.0</ns3:atemp>
            <ns3:hr>127</ns3:hr>
          </ns3:TrackPointExtension>
        </extensions>
      </trkpt>
      <trkpt lat="-22.00901292264461517333984375" lon="166.45860669203102588653564453125">
        <ele>1092.800048828125</ele>
        <time>2016-08-12T20:53:10.000Z</time>
        <extensions>
          <ns3:TrackPointExtension>
            <ns3:atemp>15.0</ns3:atemp>
            <ns3:hr>127</ns3:hr>
          </ns3:TrackPointExtension>
        </extensions>
      </trkpt>
      <trkpt lat="-22.00902507640421390533447265625" lon="166.45858942531049251556396484375">
        <ele>1092.4000244140625</ele>
        <time>2016-08-12T20:53:11.000Z</time>
        <extensions>
          <ns3:TrackPointExtension>
            <ns3:atemp>15.0</ns3:atemp>
            <ns3:hr>127</ns3:hr>
          </ns3:TrackPointExtension>
        </extensions>
      </trkpt>
      <trkpt lat="-22.0090358890593051910400390625" lon="166.45857299678027629852294921875">
        <ele>1092.199951171875</ele>
        <time>2016-08-12T20:53:12.000Z</time>
        <extensions>
          <ns3:TrackPointExtension>
            <ns3:atemp>15.0</ns3:atemp>
            <ns3:hr>127</ns3:hr>
          </ns3:TrackPointExtension>
        </extensions>
      </trkpt>
      <trkpt lat="-22.0090498030185699462890625" lon="166.4585611782968044281005859375">
        <ele>1092</ele>
        <time>2016-08-12T20:53:13.000Z</time>
        <extensions>
          <ns3:TrackPointExtension>
            <ns3:atemp>15.0</ns3:atemp>
            <ns3:hr>127</ns3:hr>
          </ns3:TrackPointExtension>
        </extensions>
      </trkpt>
      <trkpt lat="-22.009065560996532440185546875" lon="166.45854852162301540374755859375">
        <ele>1091.5999755859375</ele>
        <time>2016-08-12T20:53:14.000Z</time>
        <extensions>
          <ns3:TrackPointExtension>
            <ns3:atemp>15.0</ns3:atemp>
            <ns3:hr>127</ns3:hr>
          </ns3:TrackPointExtension>
        </extensions>
      </trkpt>
      <trkpt lat="-22.00908039696514606475830078125" lon="166.458532847464084625244140625">
        <ele>1091.4000244140625</ele>
        <time>2016-08-12T20:53:15.000Z</time>
        <extensions>
          <ns3:TrackPointExtension>
            <ns3:atemp>15.0</ns3:atemp>
            <ns3:hr>127</ns3:hr>
          </ns3:TrackPointExtension>
        </extensions>
      </trkpt>
      <trkpt lat="-22.00909296981990337371826171875" lon="166.45851633511483669281005859375">
        <ele>1091.199951171875</ele>
        <time>2016-08-12T20:53:16.000Z</time>
        <extensions>
          <ns3:TrackPointExtension>
            <ns3:atemp>15.0</ns3:atemp>
            <ns3:hr>127</ns3:hr>
          </ns3:TrackPointExtension>
        </extensions>
      </trkpt>
      <trkpt lat="-22.00910654850304126739501953125" lon="166.45850099623203277587890625">
        <ele>1090.800048828125</ele>
        <time>2016-08-12T20:53:17.000Z</time>
        <extensions>
          <ns3:TrackPointExtension>
            <ns3:atemp>15.0</ns3:atemp>
            <ns3:hr>127</ns3:hr>
          </ns3:TrackPointExtension>
        </extensions>
      </trkpt>
      <trkpt lat="-22.00911912135779857635498046875" lon="166.45848490297794342041015625">
        <ele>1090.5999755859375</ele>
        <time>2016-08-12T20:53:18.000Z</time>
        <extensions>
          <ns3:TrackPointExtension>
            <ns3:atemp>15.0</ns3:atemp>
            <ns3:hr>127</ns3:hr>
          </ns3:TrackPointExtension>
        </extensions>
      </trkpt>
      <trkpt lat="-22.00913253240287303924560546875" lon="166.45846805535256862640380859375">
        <ele>1090.199951171875</ele>
        <time>2016-08-12T20:53:19.000Z</time>
        <extensions>
          <ns3:TrackPointExtension>
            <ns3:atemp>15.0</ns3:atemp>
            <ns3:hr>127</ns3:hr>
          </ns3:TrackPointExtension>
        </extensions>
      </trkpt>
      <trkpt lat="-22.00914627872407436370849609375" lon="166.45844735205173492431640625">
        <ele>1090</ele>
        <time>2016-08-12T20:53:20.000Z</time>
        <extensions>
          <ns3:TrackPointExtension>
            <ns3:atemp>15.0</ns3:atemp>
            <ns3:hr>127</ns3:hr>
          </ns3:TrackPointExtension>
        </extensions>
      </trkpt>
      <trkpt lat="-22.00915851630270481109619140625" lon="166.45842589437961578369140625">
        <ele>1089.800048828125</ele>
        <time>2016-08-12T20:53:21.000Z</time>
        <extensions>
          <ns3:TrackPointExtension>
            <ns3:atemp>15.0</ns3:atemp>
            <ns3:hr>127</ns3:hr>
          </ns3:TrackPointExtension>
        </extensions>
      </trkpt>
      <trkpt lat="-22.00917041860520839691162109375" lon="166.45840485580265522003173828125">
        <ele>1089.4000244140625</ele>
        <time>2016-08-12T20:53:22.000Z</time>
        <extensions>
          <ns3:TrackPointExtension>
            <ns3:atemp>15.0</ns3:atemp>
            <ns3:hr>127</ns3:hr>
          </ns3:TrackPointExtension>
        </extensions>
      </trkpt>
      <trkpt lat="-22.00918181799352169036865234375" lon="166.45838188938796520233154296875">
        <ele>1089.4000244140625</ele>
        <time>2016-08-12T20:53:23.000Z</time>
        <extensions>
          <ns3:TrackPointExtension>
            <ns3:atemp>15.0</ns3:atemp>
            <ns3:hr>127</ns3:hr>
          </ns3:TrackPointExtension>
        </extensions>
      </trkpt>
      <trkpt lat="-22.00919439084827899932861328125" lon="166.45835883915424346923828125">
        <ele>1089.199951171875</ele>
        <time>2016-08-12T20:53:24.000Z</time>
        <extensions>
          <ns3:TrackPointExtension>
            <ns3:atemp>15.0</ns3:atemp>
            <ns3:hr>127</ns3:hr>
          </ns3:TrackPointExtension>
        </extensions>
      </trkpt>
      <trkpt lat="-22.0092052035033702850341796875" lon="166.458335034549236297607421875">
        <ele>1088.800048828125</ele>
        <time>2016-08-12T20:53:25.000Z</time>
        <extensions>
          <ns3:TrackPointExtension>
            <ns3:atemp>15.0</ns3:atemp>
            <ns3:hr>127</ns3:hr>
          </ns3:TrackPointExtension>
        </extensions>
      </trkpt>
      <trkpt lat="-22.00921635143458843231201171875" lon="166.45830863155424594879150390625">
        <ele>1088.800048828125</ele>
        <time>2016-08-12T20:53:26.000Z</time>
        <extensions>
          <ns3:TrackPointExtension>
            <ns3:atemp>15.0</ns3:atemp>
            <ns3:hr>127</ns3:hr>
          </ns3:TrackPointExtension>
        </extensions>
      </trkpt>
      <trkpt lat="-22.00922925956547260284423828125" lon="166.4582862518727779388427734375">
        <ele>1088.5999755859375</ele>
        <time>2016-08-12T20:53:27.000Z</time>
        <extensions>
          <ns3:TrackPointExtension>
            <ns3:atemp>15.0</ns3:atemp>
            <ns3:hr>127</ns3:hr>
          </ns3:TrackPointExtension>
        </extensions>
      </trkpt>
      <trkpt lat="-22.0092410780489444732666015625" lon="166.45826269872486591339111328125">
        <ele>1088.4000244140625</ele>
        <time>2016-08-12T20:53:28.000Z</time>
        <extensions>
          <ns3:TrackPointExtension>
            <ns3:atemp>15.0</ns3:atemp>
            <ns3:hr>127</ns3:hr>
          </ns3:TrackPointExtension>
        </extensions>
      </trkpt>
      <trkpt lat="-22.0092528127133846282958984375" lon="166.45823570899665355682373046875">
        <ele>1088.199951171875</ele>
        <time>2016-08-12T20:53:29.000Z</time>
        <extensions>
          <ns3:TrackPointExtension>
            <ns3:atemp>15.0</ns3:atemp>
            <ns3:hr>127</ns3:hr>
          </ns3:TrackPointExtension>
        </extensions>
      </trkpt>
      <trkpt lat="-22.0092628709971904754638671875" lon="166.4582101441919803619384765625">
        <ele>1088.199951171875</ele>
        <time>2016-08-12T20:53:30.000Z</time>
        <extensions>
          <ns3:TrackPointExtension>
            <ns3:atemp>15.0</ns3:atemp>
            <ns3:hr>127</ns3:hr>
          </ns3:TrackPointExtension>
        </extensions>
      </trkpt>
      <trkpt lat="-22.00926907360553741455078125" lon="166.45818424411118030548095703125">
        <ele>1088</ele>
        <time>2016-08-12T20:53:31.000Z</time>
        <extensions>
          <ns3:TrackPointExtension>
            <ns3:atemp>15.0</ns3:atemp>
            <ns3:hr>127</ns3:hr>
          </ns3:TrackPointExtension>
        </extensions>
      </trkpt>
      <trkpt lat="-22.00927452184259891510009765625" lon="166.45815909840166568756103515625">
        <ele>1088</ele>
        <time>2016-08-12T20:53:32.000Z</time>
        <extensions>
          <ns3:TrackPointExtension>
            <ns3:atemp>15.0</ns3:atemp>
            <ns3:hr>126</ns3:hr>
          </ns3:TrackPointExtension>
        </extensions>
      </trkpt>
      <trkpt lat="-22.0092816464602947235107421875" lon="166.45813487470149993896484375">
        <ele>1087.800048828125</ele>
        <time>2016-08-12T20:53:33.000Z</time>
        <extensions>
          <ns3:TrackPointExtension>
            <ns3:atemp>15.0</ns3:atemp>
            <ns3:hr>126</ns3:hr>
          </ns3:TrackPointExtension>
        </extensions>
      </trkpt>
      <trkpt lat="-22.00927846133708953857421875" lon="166.45810578949749469757080078125">
        <ele>1087.800048828125</ele>
        <time>2016-08-12T20:53:34.000Z</time>
        <extensions>
          <ns3:TrackPointExtension>
            <ns3:atemp>15.0</ns3:atemp>
            <ns3:hr>126</ns3:hr>
          </ns3:TrackPointExtension>
        </extensions>
      </trkpt>
      <trkpt lat="-22.00927921570837497711181640625" lon="166.458078883588314056396484375">
        <ele>1087.4000244140625</ele>
        <time>2016-08-12T20:53:35.000Z</time>
        <extensions>
          <ns3:TrackPointExtension>
            <ns3:atemp>15.0</ns3:atemp>
            <ns3:hr>126</ns3:hr>
          </ns3:TrackPointExtension>
        </extensions>
      </trkpt>
      <trkpt lat="-22.0092826522886753082275390625" lon="166.45805382169783115386962890625">
        <ele>1087.4000244140625</ele>
        <time>2016-08-12T20:53:36.000Z</time>
        <extensions>
          <ns3:TrackPointExtension>
            <ns3:atemp>15.0</ns3:atemp>
            <ns3:hr>126</ns3:hr>
          </ns3:TrackPointExtension>
        </extensions>
      </trkpt>
      <trkpt lat="-22.0092896930873394012451171875" lon="166.4580277539789676666259765625">
        <ele>1087.4000244140625</ele>
        <time>2016-08-12T20:53:37.000Z</time>
        <extensions>
          <ns3:TrackPointExtension>
            <ns3:atemp>15.0</ns3:atemp>
            <ns3:hr>126</ns3:hr>
          </ns3:TrackPointExtension>
        </extensions>
      </trkpt>
      <trkpt lat="-22.00929715298116207122802734375" lon="166.45800344645977020263671875">
        <ele>1087.199951171875</ele>
        <time>2016-08-12T20:53:38.000Z</time>
        <extensions>
          <ns3:TrackPointExtension>
            <ns3:atemp>15.0</ns3:atemp>
            <ns3:hr>126</ns3:hr>
          </ns3:TrackPointExtension>
        </extensions>
      </trkpt>
      <trkpt lat="-22.00930536724627017974853515625" lon="166.4579794742166996002197265625">
        <ele>1087</ele>
        <time>2016-08-12T20:53:39.000Z</time>
        <extensions>
          <ns3:TrackPointExtension>
            <ns3:atemp>15.0</ns3:atemp>
            <ns3:hr>126</ns3:hr>
          </ns3:TrackPointExtension>
        </extensions>
      </trkpt>
      <trkpt lat="-22.00931509025394916534423828125" lon="166.457953490316867828369140625">
        <ele>1087.199951171875</ele>
        <time>2016-08-12T20:53:40.000Z</time>
        <extensions>
          <ns3:TrackPointExtension>
            <ns3:atemp>15.0</ns3:atemp>
            <ns3:hr>125</ns3:hr>
          </ns3:TrackPointExtension>
        </extensions>
      </trkpt>
      <trkpt lat="-22.009322382509708404541015625" lon="166.45792742259800434112548828125">
        <ele>1087.4000244140625</ele>
        <time>2016-08-12T20:53:41.000Z</time>
        <extensions>
          <ns3:TrackPointExtension>
            <ns3:atemp>15.0</ns3:atemp>
            <ns3:hr>126</ns3:hr>
          </ns3:TrackPointExtension>
        </extensions>
      </trkpt>
      <trkpt lat="-22.00933453626930713653564453125" lon="166.457901857793331146240234375">
        <ele>1087</ele>
        <time>2016-08-12T20:53:42.000Z</time>
        <extensions>
          <ns3:TrackPointExtension>
            <ns3:atemp>15.0</ns3:atemp>
            <ns3:hr>125</ns3:hr>
          </ns3:TrackPointExtension>
        </extensions>
      </trkpt>
      <trkpt lat="-22.0093416608870029449462890625" lon="166.45787562243640422821044921875">
        <ele>1086.800048828125</ele>
        <time>2016-08-12T20:53:43.000Z</time>
        <extensions>
          <ns3:TrackPointExtension>
            <ns3:atemp>15.0</ns3:atemp>
            <ns3:hr>125</ns3:hr>
          </ns3:TrackPointExtension>
        </extensions>
      </trkpt>
      <trkpt lat="-22.00934241525828838348388671875" lon="166.457846872508525848388671875">
        <ele>1087</ele>
        <time>2016-08-12T20:53:44.000Z</time>
        <extensions>
          <ns3:TrackPointExtension>
            <ns3:atemp>15.0</ns3:atemp>
            <ns3:hr>126</ns3:hr>
          </ns3:TrackPointExtension>
        </extensions>
      </trkpt>
      <trkpt lat="-22.009339816868305206298828125" lon="166.4578168652951717376708984375">
        <ele>1087</ele>
        <time>2016-08-12T20:53:45.000Z</time>
        <extensions>
          <ns3:TrackPointExtension>
            <ns3:atemp>15.0</ns3:atemp>
            <ns3:hr>125</ns3:hr>
          </ns3:TrackPointExtension>
        </extensions>
      </trkpt>
      <trkpt lat="-22.00934174470603466033935546875" lon="166.45779197104275226593017578125">
        <ele>1086.800048828125</ele>
        <time>2016-08-12T20:53:46.000Z</time>
        <extensions>
          <ns3:TrackPointExtension>
            <ns3:atemp>15.0</ns3:atemp>
            <ns3:hr>126</ns3:hr>
          </ns3:TrackPointExtension>
        </extensions>
      </trkpt>
      <trkpt lat="-22.00934576801955699920654296875" lon="166.45776447840034961700439453125">
        <ele>1086.800048828125</ele>
        <time>2016-08-12T20:53:47.000Z</time>
        <extensions>
          <ns3:TrackPointExtension>
            <ns3:atemp>15.0</ns3:atemp>
            <ns3:hr>126</ns3:hr>
          </ns3:TrackPointExtension>
        </extensions>
      </trkpt>
      <trkpt lat="-22.00934886932373046875" lon="166.457736231386661529541015625">
        <ele>1086.800048828125</ele>
        <time>2016-08-12T20:53:48.000Z</time>
        <extensions>
          <ns3:TrackPointExtension>
            <ns3:atemp>15.0</ns3:atemp>
            <ns3:hr>126</ns3:hr>
          </ns3:TrackPointExtension>
        </extensions>
      </trkpt>
      <trkpt lat="-22.00935012660920619964599609375" lon="166.4577105827629566192626953125">
        <ele>1086.800048828125</ele>
        <time>2016-08-12T20:53:49.000Z</time>
        <extensions>
          <ns3:TrackPointExtension>
            <ns3:atemp>15.0</ns3:atemp>
            <ns3:hr>126</ns3:hr>
          </ns3:TrackPointExtension>
        </extensions>
      </trkpt>
      <trkpt lat="-22.009352557361125946044921875" lon="166.45768401212990283966064453125">
        <ele>1086.5999755859375</ele>
        <time>2016-08-12T20:53:50.000Z</time>
        <extensions>
          <ns3:TrackPointExtension>
            <ns3:atemp>15.0</ns3:atemp>
            <ns3:hr>126</ns3:hr>
          </ns3:TrackPointExtension>
        </extensions>
      </trkpt>
      <trkpt lat="-22.00935582630336284637451171875" lon="166.45765819586813449859619140625">
        <ele>1086.5999755859375</ele>
        <time>2016-08-12T20:53:51.000Z</time>
        <extensions>
          <ns3:TrackPointExtension>
            <ns3:atemp>15.0</ns3:atemp>
            <ns3:hr>127</ns3:hr>
          </ns3:TrackPointExtension>
        </extensions>
      </trkpt>
      <trkpt lat="-22.00935498811304569244384765625" lon="166.45762802101671695709228515625">
        <ele>1087</ele>
        <time>2016-08-12T20:53:52.000Z</time>
        <extensions>
          <ns3:TrackPointExtension>
            <ns3:atemp>15.0</ns3:atemp>
            <ns3:hr>127</ns3:hr>
          </ns3:TrackPointExtension>
        </extensions>
      </trkpt>
      <trkpt lat="-22.00935767032206058502197265625" lon="166.45759935490787029266357421875">
        <ele>1087.199951171875</ele>
        <time>2016-08-12T20:53:53.000Z</time>
        <extensions>
          <ns3:TrackPointExtension>
            <ns3:atemp>15.0</ns3:atemp>
            <ns3:hr>127</ns3:hr>
          </ns3:TrackPointExtension>
        </extensions>
      </trkpt>
      <trkpt lat="-22.00935699976980686187744140625" lon="166.45757253281772136688232421875">
        <ele>1086.800048828125</ele>
        <time>2016-08-12T20:53:54.000Z</time>
        <extensions>
          <ns3:TrackPointExtension>
            <ns3:atemp>15.0</ns3:atemp>
            <ns3:hr>127</ns3:hr>
          </ns3:TrackPointExtension>
        </extensions>
      </trkpt>
      <trkpt lat="-22.00935632921755313873291015625" lon="166.4575446210801601409912109375">
        <ele>1086.800048828125</ele>
        <time>2016-08-12T20:53:55.000Z</time>
        <extensions>
          <ns3:TrackPointExtension>
            <ns3:atemp>15.0</ns3:atemp>
            <ns3:hr>128</ns3:hr>
          </ns3:TrackPointExtension>
        </extensions>
      </trkpt>
      <trkpt lat="-22.0093567483127117156982421875" lon="166.4575214870274066925048828125">
        <ele>1087.199951171875</ele>
        <time>2016-08-12T20:53:56.000Z</time>
        <extensions>
          <ns3:TrackPointExtension>
            <ns3:atemp>15.0</ns3:atemp>
            <ns3:hr>128</ns3:hr>
          </ns3:TrackPointExtension>
        </extensions>
      </trkpt>
      <trkpt lat="-22.0093537308275699615478515625" lon="166.45749525167047977447509765625">
        <ele>1087.4000244140625</ele>
        <time>2016-08-12T20:53:57.000Z</time>
        <extensions>
          <ns3:TrackPointExtension>
            <ns3:atemp>15.0</ns3:atemp>
            <ns3:hr>128</ns3:hr>
          </ns3:TrackPointExtension>
        </extensions>
      </trkpt>
      <trkpt lat="-22.00935130007565021514892578125" lon="166.45746625028550624847412109375">
        <ele>1087.199951171875</ele>
        <time>2016-08-12T20:53:58.000Z</time>
        <extensions>
          <ns3:TrackPointExtension>
            <ns3:atemp>15.0</ns3:atemp>
            <ns3:hr>128</ns3:hr>
          </ns3:TrackPointExtension>
        </extensions>
      </trkpt>
      <trkpt lat="-22.00934895314276218414306640625" lon="166.45743959583342075347900390625">
        <ele>1087</ele>
        <time>2016-08-12T20:53:59.000Z</time>
        <extensions>
          <ns3:TrackPointExtension>
            <ns3:atemp>15.0</ns3:atemp>
            <ns3:hr>128</ns3:hr>
          </ns3:TrackPointExtension>
        </extensions>
      </trkpt>
      <trkpt lat="-22.00934124179184436798095703125" lon="166.45741227082908153533935546875">
        <ele>1087.199951171875</ele>
        <time>2016-08-12T20:54:00.000Z</time>
        <extensions>
          <ns3:TrackPointExtension>
            <ns3:atemp>15.0</ns3:atemp>
            <ns3:hr>129</ns3:hr>
          </ns3:TrackPointExtension>
        </extensions>
      </trkpt>
      <trkpt lat="-22.00933386571705341339111328125" lon="166.45738494582474231719970703125">
        <ele>1087.4000244140625</ele>
        <time>2016-08-12T20:54:01.000Z</time>
        <extensions>
          <ns3:TrackPointExtension>
            <ns3:atemp>15.0</ns3:atemp>
            <ns3:hr>129</ns3:hr>
          </ns3:TrackPointExtension>
        </extensions>
      </trkpt>
      <trkpt lat="-22.00932405889034271240234375" lon="166.45735946483910083770751953125">
        <ele>1087.199951171875</ele>
        <time>2016-08-12T20:54:02.000Z</time>
        <extensions>
          <ns3:TrackPointExtension>
            <ns3:atemp>15.0</ns3:atemp>
            <ns3:hr>129</ns3:hr>
          </ns3:TrackPointExtension>
        </extensions>
      </trkpt>
      <trkpt lat="-22.00931333005428314208984375" lon="166.457335241138935089111328125">
        <ele>1087</ele>
        <time>2016-08-12T20:54:03.000Z</time>
        <extensions>
          <ns3:TrackPointExtension>
            <ns3:atemp>15.0</ns3:atemp>
            <ns3:hr>129</ns3:hr>
          </ns3:TrackPointExtension>
        </extensions>
      </trkpt>
      <trkpt lat="-22.0093037746846675872802734375" lon="166.45731084980070590972900390625">
        <ele>1087.199951171875</ele>
        <time>2016-08-12T20:54:04.000Z</time>
        <extensions>
          <ns3:TrackPointExtension>
            <ns3:atemp>15.0</ns3:atemp>
            <ns3:hr>130</ns3:hr>
          </ns3:TrackPointExtension>
        </extensions>
      </trkpt>
      <trkpt lat="-22.00929195620119571685791015625" lon="166.45728729665279388427734375">
        <ele>1087.199951171875</ele>
        <time>2016-08-12T20:54:05.000Z</time>
        <extensions>
          <ns3:TrackPointExtension>
            <ns3:atemp>15.0</ns3:atemp>
            <ns3:hr>130</ns3:hr>
          </ns3:TrackPointExtension>
        </extensions>
      </trkpt>
      <trkpt lat="-22.00927904807031154632568359375" lon="166.4572650007903575897216796875">
        <ele>1087.199951171875</ele>
        <time>2016-08-12T20:54:06.000Z</time>
        <extensions>
          <ns3:TrackPointExtension>
            <ns3:atemp>15.0</ns3:atemp>
            <ns3:hr>130</ns3:hr>
          </ns3:TrackPointExtension>
        </extensions>
      </trkpt>
      <trkpt lat="-22.00926840305328369140625" lon="166.45724236965179443359375">
        <ele>1087.5999755859375</ele>
        <time>2016-08-12T20:54:07.000Z</time>
        <extensions>
          <ns3:TrackPointExtension>
            <ns3:atemp>15.0</ns3:atemp>
            <ns3:hr>130</ns3:hr>
          </ns3:TrackPointExtension>
        </extensions>
      </trkpt>
      <trkpt lat="-22.0092588476836681365966796875" lon="166.45721831358969211578369140625">
        <ele>1088</ele>
        <time>2016-08-12T20:54:08.000Z</time>
        <extensions>
          <ns3:TrackPointExtension>
            <ns3:atemp>15.0</ns3:atemp>
            <ns3:hr>131</ns3:hr>
          </ns3:TrackPointExtension>
        </extensions>
      </trkpt>
      <trkpt lat="-22.00925172306597232818603515625" lon="166.45719341933727264404296875">
        <ele>1087.5999755859375</ele>
        <time>2016-08-12T20:54:09.000Z</time>
        <extensions>
          <ns3:TrackPointExtension>
            <ns3:atemp>15.0</ns3:atemp>
            <ns3:hr>131</ns3:hr>
          </ns3:TrackPointExtension>
        </extensions>
      </trkpt>
      <trkpt lat="-22.00924803502857685089111328125" lon="166.45717053674161434173583984375">
        <ele>1087.5999755859375</ele>
        <time>2016-08-12T20:54:10.000Z</time>
        <extensions>
          <ns3:TrackPointExtension>
            <ns3:atemp>15.0</ns3:atemp>
            <ns3:hr>131</ns3:hr>
          </ns3:TrackPointExtension>
        </extensions>
      </trkpt>
      <trkpt lat="-22.00924501754343509674072265625" lon="166.4571476541459560394287109375">
        <ele>1087.800048828125</ele>
        <time>2016-08-12T20:54:11.000Z</time>
        <extensions>
          <ns3:TrackPointExtension>
            <ns3:atemp>15.0</ns3:atemp>
            <ns3:hr>131</ns3:hr>
          </ns3:TrackPointExtension>
        </extensions>
      </trkpt>
      <trkpt lat="-22.00924468226730823516845703125" lon="166.457127034664154052734375">
        <ele>1087.4000244140625</ele>
        <time>2016-08-12T20:54:12.000Z</time>
        <extensions>
          <ns3:TrackPointExtension>
            <ns3:atemp>15.0</ns3:atemp>
            <ns3:hr>131</ns3:hr>
          </ns3:TrackPointExtension>
        </extensions>
      </trkpt>
      <trkpt lat="-22.0092471130192279815673828125" lon="166.4571067504584789276123046875">
        <ele>1087.199951171875</ele>
        <time>2016-08-12T20:54:13.000Z</time>
        <extensions>
          <ns3:TrackPointExtension>
            <ns3:atemp>15.0</ns3:atemp>
            <ns3:hr>131</ns3:hr>
          </ns3:TrackPointExtension>
        </extensions>
      </trkpt>
      <trkpt lat="-22.00925205834209918975830078125" lon="166.4570842869579792022705078125">
        <ele>1087.199951171875</ele>
        <time>2016-08-12T20:54:14.000Z</time>
        <extensions>
          <ns3:TrackPointExtension>
            <ns3:atemp>15.0</ns3:atemp>
            <ns3:hr>132</ns3:hr>
          </ns3:TrackPointExtension>
        </extensions>
      </trkpt>
      <trkpt lat="-22.00925767421722412109375" lon="166.4570613205432891845703125">
        <ele>1087</ele>
        <time>2016-08-12T20:54:15.000Z</time>
        <extensions>
          <ns3:TrackPointExtension>
            <ns3:atemp>15.0</ns3:atemp>
            <ns3:hr>131</ns3:hr>
          </ns3:TrackPointExtension>
        </extensions>
      </trkpt>
      <trkpt lat="-22.0092638768255710601806640625" lon="166.45703810267150402069091796875">
        <ele>1086.800048828125</ele>
        <time>2016-08-12T20:54:16.000Z</time>
        <extensions>
          <ns3:TrackPointExtension>
            <ns3:atemp>15.0</ns3:atemp>
            <ns3:hr>132</ns3:hr>
          </ns3:TrackPointExtension>
        </extensions>
      </trkpt>
      <trkpt lat="-22.0092668943107128143310546875" lon="166.45701429806649684906005859375">
        <ele>1086.800048828125</ele>
        <time>2016-08-12T20:54:17.000Z</time>
        <extensions>
          <ns3:TrackPointExtension>
            <ns3:atemp>15.0</ns3:atemp>
            <ns3:hr>132</ns3:hr>
          </ns3:TrackPointExtension>
        </extensions>
      </trkpt>
      <trkpt lat="-22.00927217490971088409423828125" lon="166.4569915831089019775390625">
        <ele>1086.5999755859375</ele>
        <time>2016-08-12T20:54:18.000Z</time>
        <extensions>
          <ns3:TrackPointExtension>
            <ns3:atemp>15.0</ns3:atemp>
            <ns3:hr>131</ns3:hr>
          </ns3:TrackPointExtension>
        </extensions>
      </trkpt>
      <trkpt lat="-22.0092786289751529693603515625" lon="166.45697389729321002960205078125">
        <ele>1086.4000244140625</ele>
        <time>2016-08-12T20:54:19.000Z</time>
        <extensions>
          <ns3:TrackPointExtension>
            <ns3:atemp>15.0</ns3:atemp>
            <ns3:hr>132</ns3:hr>
          </ns3:TrackPointExtension>
        </extensions>
      </trkpt>
      <trkpt lat="-22.00928919017314910888671875" lon="166.456956379115581512451171875">
        <ele>1086.5999755859375</ele>
        <time>2016-08-12T20:54:20.000Z</time>
        <extensions>
          <ns3:TrackPointExtension>
            <ns3:atemp>15.0</ns3:atemp>
            <ns3:hr>132</ns3:hr>
          </ns3:TrackPointExtension>
        </extensions>
      </trkpt>
      <trkpt lat="-22.0093004219233989715576171875" lon="166.45693835802376270294189453125">
        <ele>1086.199951171875</ele>
        <time>2016-08-12T20:54:21.000Z</time>
        <extensions>
          <ns3:TrackPointExtension>
            <ns3:atemp>15.0</ns3:atemp>
            <ns3:hr>132</ns3:hr>
          </ns3:TrackPointExtension>
        </extensions>
      </trkpt>
      <trkpt lat="-22.00931022875010967254638671875" lon="166.45691983401775360107421875">
        <ele>1086</ele>
        <time>2016-08-12T20:54:22.000Z</time>
        <extensions>
          <ns3:TrackPointExtension>
            <ns3:atemp>15.0</ns3:atemp>
            <ns3:hr>132</ns3:hr>
          </ns3:TrackPointExtension>
        </extensions>
      </trkpt>
      <trkpt lat="-22.0093185268342494964599609375" lon="166.4568992145359516143798828125">
        <ele>1085.5999755859375</ele>
        <time>2016-08-12T20:54:23.000Z</time>
        <extensions>
          <ns3:TrackPointExtension>
            <ns3:atemp>15.0</ns3:atemp>
            <ns3:hr>132</ns3:hr>
          </ns3:TrackPointExtension>
        </extensions>
      </trkpt>
      <trkpt lat="-22.00932363979518413543701171875" lon="166.45687800832092761993408203125">
        <ele>1085.199951171875</ele>
        <time>2016-08-12T20:54:24.000Z</time>
        <extensions>
          <ns3:TrackPointExtension>
            <ns3:atemp>15.0</ns3:atemp>
            <ns3:hr>132</ns3:hr>
          </ns3:TrackPointExtension>
        </extensions>
      </trkpt>
      <trkpt lat="-22.00932984240353107452392578125" lon="166.4568576402962207794189453125">
        <ele>1085</ele>
        <time>2016-08-12T20:54:25.000Z</time>
        <extensions>
          <ns3:TrackPointExtension>
            <ns3:atemp>15.0</ns3:atemp>
            <ns3:hr>132</ns3:hr>
          </ns3:TrackPointExtension>
        </extensions>
      </trkpt>
      <trkpt lat="-22.00933822430670261383056640625" lon="166.45683609880506992340087890625">
        <ele>1084.800048828125</ele>
        <time>2016-08-12T20:54:26.000Z</time>
        <extensions>
          <ns3:TrackPointExtension>
            <ns3:atemp>15.0</ns3:atemp>
            <ns3:hr>132</ns3:hr>
          </ns3:TrackPointExtension>
        </extensions>
      </trkpt>
      <trkpt lat="-22.009346522390842437744140625" lon="166.45681581459939479827880859375">
        <ele>1084.199951171875</ele>
        <time>2016-08-12T20:54:27.000Z</time>
        <extensions>
          <ns3:TrackPointExtension>
            <ns3:atemp>15.0</ns3:atemp>
            <ns3:hr>132</ns3:hr>
          </ns3:TrackPointExtension>
        </extensions>
      </trkpt>
      <trkpt lat="-22.00935197062790393829345703125" lon="166.45679351873695850372314453125">
        <ele>1084</ele>
        <time>2016-08-12T20:54:28.000Z</time>
        <extensions>
          <ns3:TrackPointExtension>
            <ns3:atemp>15.0</ns3:atemp>
            <ns3:hr>132</ns3:hr>
          </ns3:TrackPointExtension>
        </extensions>
      </trkpt>
      <trkpt lat="-22.0093540661036968231201171875" lon="166.45676837302744388580322265625">
        <ele>1083.800048828125</ele>
        <time>2016-08-12T20:54:29.000Z</time>
        <extensions>
          <ns3:TrackPointExtension>
            <ns3:atemp>15.0</ns3:atemp>
            <ns3:hr>132</ns3:hr>
          </ns3:TrackPointExtension>
        </extensions>
      </trkpt>
      <trkpt lat="-22.00936253182590007781982421875" lon="166.45674741826951503753662109375">
        <ele>1083.5999755859375</ele>
        <time>2016-08-12T20:54:30.000Z</time>
        <extensions>
          <ns3:TrackPointExtension>
            <ns3:atemp>15.0</ns3:atemp>
            <ns3:hr>132</ns3:hr>
          </ns3:TrackPointExtension>
        </extensions>
      </trkpt>
      <trkpt lat="-22.0093751884996891021728515625" lon="166.4567285589873790740966796875">
        <ele>1083.4000244140625</ele>
        <time>2016-08-12T20:54:31.000Z</time>
        <extensions>
          <ns3:TrackPointExtension>
            <ns3:atemp>15.0</ns3:atemp>
            <ns3:hr>132</ns3:hr>
          </ns3:TrackPointExtension>
        </extensions>
      </trkpt>
      <trkpt lat="-22.009387426078319549560546875" lon="166.4567091129720211029052734375">
        <ele>1083</ele>
        <time>2016-08-12T20:54:32.000Z</time>
        <extensions>
          <ns3:TrackPointExtension>
            <ns3:atemp>15.0</ns3:atemp>
            <ns3:hr>131</ns3:hr>
          </ns3:TrackPointExtension>
        </extensions>
      </trkpt>
      <trkpt lat="-22.00939991511404514312744140625" lon="166.4566930197179317474365234375">
        <ele>1082.800048828125</ele>
        <time>2016-08-12T20:54:33.000Z</time>
        <extensions>
          <ns3:TrackPointExtension>
            <ns3:atemp>15.0</ns3:atemp>
            <ns3:hr>132</ns3:hr>
          </ns3:TrackPointExtension>
        </extensions>
      </trkpt>
      <trkpt lat="-22.009417600929737091064453125" lon="166.4566772617399692535400390625">
        <ele>1082.5999755859375</ele>
        <time>2016-08-12T20:54:34.000Z</time>
        <extensions>
          <ns3:TrackPointExtension>
            <ns3:atemp>15.0</ns3:atemp>
            <ns3:hr>131</ns3:hr>
          </ns3:TrackPointExtension>
        </extensions>
      </trkpt>
      <trkpt lat="-22.00943495146930217742919921875" lon="166.456659995019435882568359375">
        <ele>1082.4000244140625</ele>
        <time>2016-08-12T20:54:35.000Z</time>
        <extensions>
          <ns3:TrackPointExtension>
            <ns3:atemp>15.0</ns3:atemp>
            <ns3:hr>131</ns3:hr>
          </ns3:TrackPointExtension>
        </extensions>
      </trkpt>
      <trkpt lat="-22.00944869779050350189208984375" lon="166.45664222538471221923828125">
        <ele>1082</ele>
        <time>2016-08-12T20:54:36.000Z</time>
        <extensions>
          <ns3:TrackPointExtension>
            <ns3:atemp>15.0</ns3:atemp>
            <ns3:hr>131</ns3:hr>
          </ns3:TrackPointExtension>
        </extensions>
      </trkpt>
      <trkpt lat="-22.00946294702589511871337890625" lon="166.4566242881119251251220703125">
        <ele>1081.800048828125</ele>
        <time>2016-08-12T20:54:37.000Z</time>
        <extensions>
          <ns3:TrackPointExtension>
            <ns3:atemp>15.0</ns3:atemp>
            <ns3:hr>131</ns3:hr>
          </ns3:TrackPointExtension>
        </extensions>
      </trkpt>
      <trkpt lat="-22.009476609528064727783203125" lon="166.4566075243055820465087890625">
        <ele>1081.5999755859375</ele>
        <time>2016-08-12T20:54:38.000Z</time>
        <extensions>
          <ns3:TrackPointExtension>
            <ns3:atemp>15.0</ns3:atemp>
            <ns3:hr>131</ns3:hr>
          </ns3:TrackPointExtension>
        </extensions>
      </trkpt>
      <trkpt lat="-22.00948708690702915191650390625" lon="166.4565910957753658294677734375">
        <ele>1081.4000244140625</ele>
        <time>2016-08-12T20:54:39.000Z</time>
        <extensions>
          <ns3:TrackPointExtension>
            <ns3:atemp>15.0</ns3:atemp>
            <ns3:hr>130</ns3:hr>
          </ns3:TrackPointExtension>
        </extensions>
      </trkpt>
      <trkpt lat="-22.00949932448565959930419921875" lon="166.4565729908645153045654296875">
        <ele>1081.199951171875</ele>
        <time>2016-08-12T20:54:40.000Z</time>
        <extensions>
          <ns3:TrackPointExtension>
            <ns3:atemp>15.0</ns3:atemp>
            <ns3:hr>130</ns3:hr>
          </ns3:TrackPointExtension>
        </extensions>
      </trkpt>
      <trkpt lat="-22.00951340608298778533935546875" lon="166.45655513741075992584228515625">
        <ele>1080.800048828125</ele>
        <time>2016-08-12T20:54:41.000Z</time>
        <extensions>
          <ns3:TrackPointExtension>
            <ns3:atemp>15.0</ns3:atemp>
            <ns3:hr>130</ns3:hr>
          </ns3:TrackPointExtension>
        </extensions>
      </trkpt>
      <trkpt lat="-22.0095287449657917022705078125" lon="166.45653854124248027801513671875">
        <ele>1080.5999755859375</ele>
        <time>2016-08-12T20:54:42.000Z</time>
        <extensions>
          <ns3:TrackPointExtension>
            <ns3:atemp>15.0</ns3:atemp>
            <ns3:hr>130</ns3:hr>
          </ns3:TrackPointExtension>
        </extensions>
      </trkpt>
      <trkpt lat="-22.00954559259116649627685546875" lon="166.45652412436902523040771484375">
        <ele>1080.4000244140625</ele>
        <time>2016-08-12T20:54:43.000Z</time>
        <extensions>
          <ns3:TrackPointExtension>
            <ns3:atemp>15.0</ns3:atemp>
            <ns3:hr>130</ns3:hr>
          </ns3:TrackPointExtension>
        </extensions>
      </trkpt>
      <trkpt lat="-22.0095602609217166900634765625" lon="166.45651037804782390594482421875">
        <ele>1080</ele>
        <time>2016-08-12T20:54:44.000Z</time>
        <extensions>
          <ns3:TrackPointExtension>
            <ns3:atemp>15.0</ns3:atemp>
            <ns3:hr>130</ns3:hr>
          </ns3:TrackPointExtension>
        </extensions>
      </trkpt>
      <trkpt lat="-22.0095743425190448760986328125" lon="166.45649679936468601226806640625">
        <ele>1079.800048828125</ele>
        <time>2016-08-12T20:54:45.000Z</time>
        <extensions>
          <ns3:TrackPointExtension>
            <ns3:atemp>15.0</ns3:atemp>
            <ns3:hr>130</ns3:hr>
          </ns3:TrackPointExtension>
        </extensions>
      </trkpt>
      <trkpt lat="-22.00958649627864360809326171875" lon="166.45648255012929439544677734375">
        <ele>1079.4000244140625</ele>
        <time>2016-08-12T20:54:46.000Z</time>
        <extensions>
          <ns3:TrackPointExtension>
            <ns3:atemp>15.0</ns3:atemp>
            <ns3:hr>130</ns3:hr>
          </ns3:TrackPointExtension>
        </extensions>
      </trkpt>
      <trkpt lat="-22.0096035115420818328857421875" lon="166.45647333003580570220947265625">
        <ele>1079.199951171875</ele>
        <time>2016-08-12T20:54:47.000Z</time>
        <extensions>
          <ns3:TrackPointExtension>
            <ns3:atemp>15.0</ns3:atemp>
            <ns3:hr>129</ns3:hr>
          </ns3:TrackPointExtension>
        </extensions>
      </trkpt>
      <trkpt lat="-22.0096209459006786346435546875" lon="166.45646385848522186279296875">
        <ele>1079</ele>
        <time>2016-08-12T20:54:48.000Z</time>
        <extensions>
          <ns3:TrackPointExtension>
            <ns3:atemp>15.0</ns3:atemp>
            <ns3:hr>130</ns3:hr>
          </ns3:TrackPointExtension>
        </extensions>
      </trkpt>
      <trkpt lat="-22.009639553725719451904296875" lon="166.45645455457270145416259765625">
        <ele>1078.5999755859375</ele>
        <time>2016-08-12T20:54:49.000Z</time>
        <extensions>
          <ns3:TrackPointExtension>
            <ns3:atemp>15.0</ns3:atemp>
            <ns3:hr>129</ns3:hr>
          </ns3:TrackPointExtension>
        </extensions>
      </trkpt>
      <trkpt lat="-22.0096608437597751617431640625" lon="166.4564489386975765228271484375">
        <ele>1078.199951171875</ele>
        <time>2016-08-12T20:54:50.000Z</time>
        <extensions>
          <ns3:TrackPointExtension>
            <ns3:atemp>15.0</ns3:atemp>
            <ns3:hr>129</ns3:hr>
          </ns3:TrackPointExtension>
        </extensions>
      </trkpt>
      <trkpt lat="-22.009680457413196563720703125" lon="166.45644064061343669891357421875">
        <ele>1078.199951171875</ele>
        <time>2016-08-12T20:54:51.000Z</time>
        <extensions>
          <ns3:TrackPointExtension>
            <ns3:atemp>15.0</ns3:atemp>
            <ns3:hr>129</ns3:hr>
          </ns3:TrackPointExtension>
        </extensions>
      </trkpt>
      <trkpt lat="-22.00969646684825420379638671875" lon="166.45642823539674282073974609375">
        <ele>1078</ele>
        <time>2016-08-12T20:54:52.000Z</time>
        <extensions>
          <ns3:TrackPointExtension>
            <ns3:atemp>15.0</ns3:atemp>
            <ns3:hr>128</ns3:hr>
          </ns3:TrackPointExtension>
        </extensions>
      </trkpt>
      <trkpt lat="-22.0097131468355655670166015625" lon="166.4564147405326366424560546875">
        <ele>1077.800048828125</ele>
        <time>2016-08-12T20:54:53.000Z</time>
        <extensions>
          <ns3:TrackPointExtension>
            <ns3:atemp>15.0</ns3:atemp>
            <ns3:hr>128</ns3:hr>
          </ns3:TrackPointExtension>
        </extensions>
      </trkpt>
      <trkpt lat="-22.0097305811941623687744140625" lon="166.45640057511627674102783203125">
        <ele>1077.4000244140625</ele>
        <time>2016-08-12T20:54:54.000Z</time>
        <extensions>
          <ns3:TrackPointExtension>
            <ns3:atemp>15.0</ns3:atemp>
            <ns3:hr>128</ns3:hr>
          </ns3:TrackPointExtension>
        </extensions>
      </trkpt>
      <trkpt lat="-22.00975279323756694793701171875" lon="166.45638381130993366241455078125">
        <ele>1077.199951171875</ele>
        <time>2016-08-12T20:54:55.000Z</time>
        <extensions>
          <ns3:TrackPointExtension>
            <ns3:atemp>15.0</ns3:atemp>
            <ns3:hr>128</ns3:hr>
          </ns3:TrackPointExtension>
        </extensions>
      </trkpt>
      <trkpt lat="-22.009772993624210357666015625" lon="166.4563654549419879913330078125">
        <ele>1077</ele>
        <time>2016-08-12T20:54:56.000Z</time>
        <extensions>
          <ns3:TrackPointExtension>
            <ns3:atemp>15.0</ns3:atemp>
            <ns3:hr>128</ns3:hr>
          </ns3:TrackPointExtension>
        </extensions>
      </trkpt>
      <trkpt lat="-22.00978984124958515167236328125" lon="166.4563470147550106048583984375">
        <ele>1077</ele>
        <time>2016-08-12T20:54:57.000Z</time>
        <extensions>
          <ns3:TrackPointExtension>
            <ns3:atemp>15.0</ns3:atemp>
            <ns3:hr>128</ns3:hr>
          </ns3:TrackPointExtension>
        </extensions>
      </trkpt>
      <trkpt lat="-22.009809203445911407470703125" lon="166.45632731728255748748779296875">
        <ele>1076.5999755859375</ele>
        <time>2016-08-12T20:54:58.000Z</time>
        <extensions>
          <ns3:TrackPointExtension>
            <ns3:atemp>15.0</ns3:atemp>
            <ns3:hr>128</ns3:hr>
          </ns3:TrackPointExtension>
        </extensions>
      </trkpt>
      <trkpt lat="-22.0098264701664447784423828125" lon="166.45630619488656520843505859375">
        <ele>1076.4000244140625</ele>
        <time>2016-08-12T20:54:59.000Z</time>
        <extensions>
          <ns3:TrackPointExtension>
            <ns3:atemp>15.0</ns3:atemp>
            <ns3:hr>128</ns3:hr>
          </ns3:TrackPointExtension>
        </extensions>
      </trkpt>
      <trkpt lat="-22.0098425634205341339111328125" lon="166.4562861621379852294921875">
        <ele>1076.199951171875</ele>
        <time>2016-08-12T20:55:00.000Z</time>
        <extensions>
          <ns3:TrackPointExtension>
            <ns3:atemp>15.0</ns3:atemp>
            <ns3:hr>128</ns3:hr>
          </ns3:TrackPointExtension>
        </extensions>
      </trkpt>
      <trkpt lat="-22.0098586566746234893798828125" lon="166.45626478828489780426025390625">
        <ele>1076</ele>
        <time>2016-08-12T20:55:01.000Z</time>
        <extensions>
          <ns3:TrackPointExtension>
            <ns3:atemp>15.0</ns3:atemp>
            <ns3:hr>128</ns3:hr>
          </ns3:TrackPointExtension>
        </extensions>
      </trkpt>
      <trkpt lat="-22.00987198390066623687744140625" lon="166.45624098367989063262939453125">
        <ele>1076</ele>
        <time>2016-08-12T20:55:02.000Z</time>
        <extensions>
          <ns3:TrackPointExtension>
            <ns3:atemp>15.0</ns3:atemp>
            <ns3:hr>128</ns3:hr>
          </ns3:TrackPointExtension>
        </extensions>
      </trkpt>
      <trkpt lat="-22.00988422147929668426513671875" lon="166.456218101084232330322265625">
        <ele>1075.5999755859375</ele>
        <time>2016-08-12T20:55:03.000Z</time>
        <extensions>
          <ns3:TrackPointExtension>
            <ns3:atemp>15.0</ns3:atemp>
            <ns3:hr>128</ns3:hr>
          </ns3:TrackPointExtension>
        </extensions>
      </trkpt>
      <trkpt lat="-22.0098972134292125701904296875" lon="166.45619270391762256622314453125">
        <ele>1075.199951171875</ele>
        <time>2016-08-12T20:55:04.000Z</time>
        <extensions>
          <ns3:TrackPointExtension>
            <ns3:atemp>15.0</ns3:atemp>
            <ns3:hr>128</ns3:hr>
          </ns3:TrackPointExtension>
        </extensions>
      </trkpt>
      <trkpt lat="-22.009909115731716156005859375" lon="166.4561683125793933868408203125">
        <ele>1075</ele>
        <time>2016-08-12T20:55:05.000Z</time>
        <extensions>
          <ns3:TrackPointExtension>
            <ns3:atemp>15.0</ns3:atemp>
            <ns3:hr>128</ns3:hr>
          </ns3:TrackPointExtension>
        </extensions>
      </trkpt>
      <trkpt lat="-22.009917832911014556884765625" lon="166.456142328679561614990234375">
        <ele>1074.800048828125</ele>
        <time>2016-08-12T20:55:06.000Z</time>
        <extensions>
          <ns3:TrackPointExtension>
            <ns3:atemp>15.0</ns3:atemp>
            <ns3:hr>127</ns3:hr>
          </ns3:TrackPointExtension>
        </extensions>
      </trkpt>
      <trkpt lat="-22.0099213533103466033935546875" lon="166.456113159656524658203125">
        <ele>1074.5999755859375</ele>
        <time>2016-08-12T20:55:07.000Z</time>
        <extensions>
          <ns3:TrackPointExtension>
            <ns3:atemp>15.0</ns3:atemp>
            <ns3:hr>127</ns3:hr>
          </ns3:TrackPointExtension>
        </extensions>
      </trkpt>
      <trkpt lat="-22.00991506688296794891357421875" lon="166.456088013947010040283203125">
        <ele>1074.4000244140625</ele>
        <time>2016-08-12T20:55:08.000Z</time>
        <extensions>
          <ns3:TrackPointExtension>
            <ns3:atemp>15.0</ns3:atemp>
            <ns3:hr>127</ns3:hr>
          </ns3:TrackPointExtension>
        </extensions>
      </trkpt>
      <trkpt lat="-22.00990031473338603973388671875" lon="166.4560663886368274688720703125">
        <ele>1074</ele>
        <time>2016-08-12T20:55:09.000Z</time>
        <extensions>
          <ns3:TrackPointExtension>
            <ns3:atemp>15.0</ns3:atemp>
            <ns3:hr>127</ns3:hr>
          </ns3:TrackPointExtension>
        </extensions>
      </trkpt>
      <trkpt lat="-22.00988003052771091461181640625" lon="166.4560479484498500823974609375">
        <ele>1073.5999755859375</ele>
        <time>2016-08-12T20:55:10.000Z</time>
        <extensions>
          <ns3:TrackPointExtension>
            <ns3:atemp>15.0</ns3:atemp>
            <ns3:hr>127</ns3:hr>
          </ns3:TrackPointExtension>
        </extensions>
      </trkpt>
      <trkpt lat="-22.009855471551418304443359375" lon="166.45603713579475879669189453125">
        <ele>1073.4000244140625</ele>
        <time>2016-08-12T20:55:11.000Z</time>
        <extensions>
          <ns3:TrackPointExtension>
            <ns3:atemp>15.0</ns3:atemp>
            <ns3:hr>127</ns3:hr>
          </ns3:TrackPointExtension>
        </extensions>
      </trkpt>
      <trkpt lat="-22.00983040966093540191650390625" lon="166.45603579469025135040283203125">
        <ele>1073.199951171875</ele>
        <time>2016-08-12T20:55:12.000Z</time>
        <extensions>
          <ns3:TrackPointExtension>
            <ns3:atemp>15.0</ns3:atemp>
            <ns3:hr>126</ns3:hr>
          </ns3:TrackPointExtension>
        </extensions>
      </trkpt>
      <trkpt lat="-22.00980660505592823028564453125" lon="166.45604417659342288970947265625">
        <ele>1073</ele>
        <time>2016-08-12T20:55:13.000Z</time>
        <extensions>
          <ns3:TrackPointExtension>
            <ns3:atemp>15.0</ns3:atemp>
            <ns3:hr>126</ns3:hr>
          </ns3:TrackPointExtension>
        </extensions>
      </trkpt>
      <trkpt lat="-22.0097869075834751129150390625" lon="166.45605616271495819091796875">
        <ele>1073</ele>
        <time>2016-08-12T20:55:14.000Z</time>
        <extensions>
          <ns3:TrackPointExtension>
            <ns3:atemp>15.0</ns3:atemp>
            <ns3:hr>126</ns3:hr>
          </ns3:TrackPointExtension>
        </extensions>
      </trkpt>
      <trkpt lat="-22.00976670719683170318603515625" lon="166.45607133395969867706298828125">
        <ele>1072.800048828125</ele>
        <time>2016-08-12T20:55:15.000Z</time>
        <extensions>
          <ns3:TrackPointExtension>
            <ns3:atemp>16.0</ns3:atemp>
            <ns3:hr>126</ns3:hr>
          </ns3:TrackPointExtension>
        </extensions>
      </trkpt>
      <trkpt lat="-22.00974575243890285491943359375" lon="166.45608725957572460174560546875">
        <ele>1072.4000244140625</ele>
        <time>2016-08-12T20:55:16.000Z</time>
        <extensions>
          <ns3:TrackPointExtension>
            <ns3:atemp>16.0</ns3:atemp>
            <ns3:hr>126</ns3:hr>
          </ns3:TrackPointExtension>
        </extensions>
      </trkpt>
      <trkpt lat="-22.00972463004291057586669921875" lon="166.45610016770660877227783203125">
        <ele>1072.4000244140625</ele>
        <time>2016-08-12T20:55:17.000Z</time>
        <extensions>
          <ns3:TrackPointExtension>
            <ns3:atemp>16.0</ns3:atemp>
            <ns3:hr>126</ns3:hr>
          </ns3:TrackPointExtension>
        </extensions>
      </trkpt>
      <trkpt lat="-22.00970300473272800445556640625" lon="166.4561129920184612274169921875">
        <ele>1072.199951171875</ele>
        <time>2016-08-12T20:55:18.000Z</time>
        <extensions>
          <ns3:TrackPointExtension>
            <ns3:atemp>16.0</ns3:atemp>
            <ns3:hr>127</ns3:hr>
          </ns3:TrackPointExtension>
        </extensions>
      </trkpt>
      <trkpt lat="-22.00968037359416484832763671875" lon="166.4561280794441699981689453125">
        <ele>1071.800048828125</ele>
        <time>2016-08-12T20:55:19.000Z</time>
        <extensions>
          <ns3:TrackPointExtension>
            <ns3:atemp>16.0</ns3:atemp>
            <ns3:hr>126</ns3:hr>
          </ns3:TrackPointExtension>
        </extensions>
      </trkpt>
      <trkpt lat="-22.00966008938848972320556640625" lon="166.45614199340343475341796875">
        <ele>1071.800048828125</ele>
        <time>2016-08-12T20:55:20.000Z</time>
        <extensions>
          <ns3:TrackPointExtension>
            <ns3:atemp>16.0</ns3:atemp>
            <ns3:hr>127</ns3:hr>
          </ns3:TrackPointExtension>
        </extensions>
      </trkpt>
      <trkpt lat="-22.00963879935443401336669921875" lon="166.45615884102880954742431640625">
        <ele>1071.5999755859375</ele>
        <time>2016-08-12T20:55:21.000Z</time>
        <extensions>
          <ns3:TrackPointExtension>
            <ns3:atemp>16.0</ns3:atemp>
            <ns3:hr>127</ns3:hr>
          </ns3:TrackPointExtension>
        </extensions>
      </trkpt>
      <trkpt lat="-22.00961482711136341094970703125" lon="166.4561793766915798187255859375">
        <ele>1071.199951171875</ele>
        <time>2016-08-12T20:55:22.000Z</time>
        <extensions>
          <ns3:TrackPointExtension>
            <ns3:atemp>16.0</ns3:atemp>
            <ns3:hr>127</ns3:hr>
          </ns3:TrackPointExtension>
        </extensions>
      </trkpt>
      <trkpt lat="-22.0095931179821491241455078125" lon="166.45619488321244716644287109375">
        <ele>1070.800048828125</ele>
        <time>2016-08-12T20:55:23.000Z</time>
        <extensions>
          <ns3:TrackPointExtension>
            <ns3:atemp>16.0</ns3:atemp>
            <ns3:hr>127</ns3:hr>
          </ns3:TrackPointExtension>
        </extensions>
      </trkpt>
      <trkpt lat="-22.00957216322422027587890625" lon="166.456206701695919036865234375">
        <ele>1070.5999755859375</ele>
        <time>2016-08-12T20:55:24.000Z</time>
        <extensions>
          <ns3:TrackPointExtension>
            <ns3:atemp>16.0</ns3:atemp>
            <ns3:hr>126</ns3:hr>
          </ns3:TrackPointExtension>
        </extensions>
      </trkpt>
      <trkpt lat="-22.00955011881887912750244140625" lon="166.45621709525585174560546875">
        <ele>1070.4000244140625</ele>
        <time>2016-08-12T20:55:25.000Z</time>
        <extensions>
          <ns3:TrackPointExtension>
            <ns3:atemp>16.0</ns3:atemp>
            <ns3:hr>127</ns3:hr>
          </ns3:TrackPointExtension>
        </extensions>
      </trkpt>
      <trkpt lat="-22.0095270685851573944091796875" lon="166.45622656680643558502197265625">
        <ele>1070.4000244140625</ele>
        <time>2016-08-12T20:55:26.000Z</time>
        <extensions>
          <ns3:TrackPointExtension>
            <ns3:atemp>16.0</ns3:atemp>
            <ns3:hr>127</ns3:hr>
          </ns3:TrackPointExtension>
        </extensions>
      </trkpt>
      <trkpt lat="-22.0095015875995159149169921875" lon="166.45623427815735340118408203125">
        <ele>1070.4000244140625</ele>
        <time>2016-08-12T20:55:27.000Z</time>
        <extensions>
          <ns3:TrackPointExtension>
            <ns3:atemp>16.0</ns3:atemp>
            <ns3:hr>127</ns3:hr>
          </ns3:TrackPointExtension>
        </extensions>
      </trkpt>
      <trkpt lat="-22.00947753153741359710693359375" lon="166.4562405645847320556640625">
        <ele>1070</ele>
        <time>2016-08-12T20:55:28.000Z</time>
        <extensions>
          <ns3:TrackPointExtension>
            <ns3:atemp>16.0</ns3:atemp>
            <ns3:hr>127</ns3:hr>
          </ns3:TrackPointExtension>
        </extensions>
      </trkpt>
      <trkpt lat="-22.0094521343708038330078125" lon="166.45624383352696895599365234375">
        <ele>1069.800048828125</ele>
        <time>2016-08-12T20:55:29.000Z</time>
        <extensions>
          <ns3:TrackPointExtension>
            <ns3:atemp>16.0</ns3:atemp>
            <ns3:hr>127</ns3:hr>
          </ns3:TrackPointExtension>
        </extensions>
      </trkpt>
      <trkpt lat="-22.0094261504709720611572265625" lon="166.4562474377453327178955078125">
        <ele>1069.5999755859375</ele>
        <time>2016-08-12T20:55:30.000Z</time>
        <extensions>
          <ns3:TrackPointExtension>
            <ns3:atemp>16.0</ns3:atemp>
            <ns3:hr>127</ns3:hr>
          </ns3:TrackPointExtension>
        </extensions>
      </trkpt>
      <trkpt lat="-22.0094030164182186126708984375" lon="166.45624986849725246429443359375">
        <ele>1069.199951171875</ele>
        <time>2016-08-12T20:55:31.000Z</time>
        <extensions>
          <ns3:TrackPointExtension>
            <ns3:atemp>16.0</ns3:atemp>
            <ns3:hr>127</ns3:hr>
          </ns3:TrackPointExtension>
        </extensions>
      </trkpt>
      <trkpt lat="-22.0093770325183868408203125" lon="166.4562548138201236724853515625">
        <ele>1068.800048828125</ele>
        <time>2016-08-12T20:55:32.000Z</time>
        <extensions>
          <ns3:TrackPointExtension>
            <ns3:atemp>16.0</ns3:atemp>
            <ns3:hr>127</ns3:hr>
          </ns3:TrackPointExtension>
        </extensions>
      </trkpt>
      <trkpt lat="-22.0093537308275699615478515625" lon="166.45626093260943889617919921875">
        <ele>1068.800048828125</ele>
        <time>2016-08-12T20:55:33.000Z</time>
        <extensions>
          <ns3:TrackPointExtension>
            <ns3:atemp>16.0</ns3:atemp>
            <ns3:hr>127</ns3:hr>
          </ns3:TrackPointExtension>
        </extensions>
      </trkpt>
      <trkpt lat="-22.0093312673270702362060546875" lon="166.45626596175134181976318359375">
        <ele>1068.5999755859375</ele>
        <time>2016-08-12T20:55:34.000Z</time>
        <extensions>
          <ns3:TrackPointExtension>
            <ns3:atemp>16.0</ns3:atemp>
            <ns3:hr>127</ns3:hr>
          </ns3:TrackPointExtension>
        </extensions>
      </trkpt>
      <trkpt lat="-22.009300924837589263916015625" lon="166.45627534948289394378662109375">
        <ele>1068.199951171875</ele>
        <time>2016-08-12T20:55:35.000Z</time>
        <extensions>
          <ns3:TrackPointExtension>
            <ns3:atemp>16.0</ns3:atemp>
            <ns3:hr>128</ns3:hr>
          </ns3:TrackPointExtension>
        </extensions>
      </trkpt>
      <trkpt lat="-22.0092724263668060302734375" lon="166.45628012716770172119140625">
        <ele>1068</ele>
        <time>2016-08-12T20:55:36.000Z</time>
        <extensions>
          <ns3:TrackPointExtension>
            <ns3:atemp>16.0</ns3:atemp>
            <ns3:hr>128</ns3:hr>
          </ns3:TrackPointExtension>
        </extensions>
      </trkpt>
      <trkpt lat="-22.00924434699118137359619140625" lon="166.45628272555768489837646484375">
        <ele>1067.800048828125</ele>
        <time>2016-08-12T20:55:37.000Z</time>
        <extensions>
          <ns3:TrackPointExtension>
            <ns3:atemp>16.0</ns3:atemp>
            <ns3:hr>128</ns3:hr>
          </ns3:TrackPointExtension>
        </extensions>
      </trkpt>
      <trkpt lat="-22.00921651907265186309814453125" lon="166.45628943108022212982177734375">
        <ele>1067.5999755859375</ele>
        <time>2016-08-12T20:55:38.000Z</time>
        <extensions>
          <ns3:TrackPointExtension>
            <ns3:atemp>16.0</ns3:atemp>
            <ns3:hr>128</ns3:hr>
          </ns3:TrackPointExtension>
        </extensions>
      </trkpt>
      <trkpt lat="-22.0091924630105495452880859375" lon="166.45629663951694965362548828125">
        <ele>1067.4000244140625</ele>
        <time>2016-08-12T20:55:39.000Z</time>
        <extensions>
          <ns3:TrackPointExtension>
            <ns3:atemp>16.0</ns3:atemp>
            <ns3:hr>128</ns3:hr>
          </ns3:TrackPointExtension>
        </extensions>
      </trkpt>
      <trkpt lat="-22.0091676525771617889404296875" lon="166.45630720071494579315185546875">
        <ele>1067.4000244140625</ele>
        <time>2016-08-12T20:55:40.000Z</time>
        <extensions>
          <ns3:TrackPointExtension>
            <ns3:atemp>16.0</ns3:atemp>
            <ns3:hr>128</ns3:hr>
          </ns3:TrackPointExtension>
        </extensions>
      </trkpt>
      <trkpt lat="-22.0091451890766620635986328125" lon="166.45632027648389339447021484375">
        <ele>1067.199951171875</ele>
        <time>2016-08-12T20:55:41.000Z</time>
        <extensions>
          <ns3:TrackPointExtension>
            <ns3:atemp>16.0</ns3:atemp>
            <ns3:hr>128</ns3:hr>
          </ns3:TrackPointExtension>
        </extensions>
      </trkpt>
      <trkpt lat="-22.0091249048709869384765625" lon="166.45633251406252384185791015625">
        <ele>1066.800048828125</ele>
        <time>2016-08-12T20:55:42.000Z</time>
        <extensions>
          <ns3:TrackPointExtension>
            <ns3:atemp>16.0</ns3:atemp>
            <ns3:hr>128</ns3:hr>
          </ns3:TrackPointExtension>
        </extensions>
      </trkpt>
      <trkpt lat="-22.00910168699920177459716796875" lon="166.45634944550693035125732421875">
        <ele>1066.800048828125</ele>
        <time>2016-08-12T20:55:43.000Z</time>
        <extensions>
          <ns3:TrackPointExtension>
            <ns3:atemp>16.0</ns3:atemp>
            <ns3:hr>129</ns3:hr>
          </ns3:TrackPointExtension>
        </extensions>
      </trkpt>
      <trkpt lat="-22.0090791396796703338623046875" lon="166.4563651196658611297607421875">
        <ele>1066.800048828125</ele>
        <time>2016-08-12T20:55:44.000Z</time>
        <extensions>
          <ns3:TrackPointExtension>
            <ns3:atemp>16.0</ns3:atemp>
            <ns3:hr>128</ns3:hr>
          </ns3:TrackPointExtension>
        </extensions>
      </trkpt>
      <trkpt lat="-22.0090591907501220703125" lon="166.4563768543303012847900390625">
        <ele>1066.800048828125</ele>
        <time>2016-08-12T20:55:45.000Z</time>
        <extensions>
          <ns3:TrackPointExtension>
            <ns3:atemp>16.0</ns3:atemp>
            <ns3:hr>129</ns3:hr>
          </ns3:TrackPointExtension>
        </extensions>
      </trkpt>
      <trkpt lat="-22.00903798453509807586669921875" lon="166.4563902653753757476806640625">
        <ele>1066.4000244140625</ele>
        <time>2016-08-12T20:55:46.000Z</time>
        <extensions>
          <ns3:TrackPointExtension>
            <ns3:atemp>16.0</ns3:atemp>
            <ns3:hr>129</ns3:hr>
          </ns3:TrackPointExtension>
        </extensions>
      </trkpt>
      <trkpt lat="-22.00902038253843784332275390625" lon="166.456407867372035980224609375">
        <ele>1066.4000244140625</ele>
        <time>2016-08-12T20:55:47.000Z</time>
        <extensions>
          <ns3:TrackPointExtension>
            <ns3:atemp>16.0</ns3:atemp>
            <ns3:hr>128</ns3:hr>
          </ns3:TrackPointExtension>
        </extensions>
      </trkpt>
      <trkpt lat="-22.00900353491306304931640625" lon="166.45642588846385478973388671875">
        <ele>1066.4000244140625</ele>
        <time>2016-08-12T20:55:48.000Z</time>
        <extensions>
          <ns3:TrackPointExtension>
            <ns3:atemp>16.0</ns3:atemp>
            <ns3:hr>129</ns3:hr>
          </ns3:TrackPointExtension>
        </extensions>
      </trkpt>
      <trkpt lat="-22.00898517854511737823486328125" lon="166.45644768141210079193115234375">
        <ele>1066</ele>
        <time>2016-08-12T20:55:49.000Z</time>
        <extensions>
          <ns3:TrackPointExtension>
            <ns3:atemp>16.0</ns3:atemp>
            <ns3:hr>128</ns3:hr>
          </ns3:TrackPointExtension>
        </extensions>
      </trkpt>
      <trkpt lat="-22.00896925292909145355224609375" lon="166.45646385848522186279296875">
        <ele>1065.800048828125</ele>
        <time>2016-08-12T20:55:50.000Z</time>
        <extensions>
          <ns3:TrackPointExtension>
            <ns3:atemp>16.0</ns3:atemp>
            <ns3:hr>129</ns3:hr>
          </ns3:TrackPointExtension>
        </extensions>
      </trkpt>
      <trkpt lat="-22.0089490525424480438232421875" lon="166.45648238249123096466064453125">
        <ele>1065.800048828125</ele>
        <time>2016-08-12T20:55:51.000Z</time>
        <extensions>
          <ns3:TrackPointExtension>
            <ns3:atemp>16.0</ns3:atemp>
            <ns3:hr>129</ns3:hr>
          </ns3:TrackPointExtension>
        </extensions>
      </trkpt>
      <trkpt lat="-22.00893186964094638824462890625" lon="166.4564995653927326202392578125">
        <ele>1065.4000244140625</ele>
        <time>2016-08-12T20:55:52.000Z</time>
        <extensions>
          <ns3:TrackPointExtension>
            <ns3:atemp>16.0</ns3:atemp>
            <ns3:hr>129</ns3:hr>
          </ns3:TrackPointExtension>
        </extensions>
      </trkpt>
      <trkpt lat="-22.00891460292041301727294921875" lon="166.45651658065617084503173828125">
        <ele>1065.199951171875</ele>
        <time>2016-08-12T20:55:53.000Z</time>
        <extensions>
          <ns3:TrackPointExtension>
            <ns3:atemp>16.0</ns3:atemp>
            <ns3:hr>129</ns3:hr>
          </ns3:TrackPointExtension>
        </extensions>
      </trkpt>
      <trkpt lat="-22.00889616273343563079833984375" lon="166.4565367810428142547607421875">
        <ele>1065</ele>
        <time>2016-08-12T20:55:54.000Z</time>
        <extensions>
          <ns3:TrackPointExtension>
            <ns3:atemp>16.0</ns3:atemp>
            <ns3:hr>128</ns3:hr>
          </ns3:TrackPointExtension>
        </extensions>
      </trkpt>
      <trkpt lat="-22.0088749565184116363525390625" lon="166.45655329339206218719482421875">
        <ele>1064.5999755859375</ele>
        <time>2016-08-12T20:55:55.000Z</time>
        <extensions>
          <ns3:TrackPointExtension>
            <ns3:atemp>16.0</ns3:atemp>
            <ns3:hr>128</ns3:hr>
          </ns3:TrackPointExtension>
        </extensions>
      </trkpt>
      <trkpt lat="-22.00885592959821224212646484375" lon="166.4565676264464855194091796875">
        <ele>1064.4000244140625</ele>
        <time>2016-08-12T20:55:56.000Z</time>
        <extensions>
          <ns3:TrackPointExtension>
            <ns3:atemp>16.0</ns3:atemp>
            <ns3:hr>128</ns3:hr>
          </ns3:TrackPointExtension>
        </extensions>
      </trkpt>
      <trkpt lat="-22.00883648358285427093505859375" lon="166.45658531226217746734619140625">
        <ele>1064.5999755859375</ele>
        <time>2016-08-12T20:55:57.000Z</time>
        <extensions>
          <ns3:TrackPointExtension>
            <ns3:atemp>16.0</ns3:atemp>
            <ns3:hr>128</ns3:hr>
          </ns3:TrackPointExtension>
        </extensions>
      </trkpt>
      <trkpt lat="-22.00881846249103546142578125" lon="166.4566001482307910919189453125">
        <ele>1064.4000244140625</ele>
        <time>2016-08-12T20:55:58.000Z</time>
        <extensions>
          <ns3:TrackPointExtension>
            <ns3:atemp>16.0</ns3:atemp>
            <ns3:hr>128</ns3:hr>
          </ns3:TrackPointExtension>
        </extensions>
      </trkpt>
      <trkpt lat="-22.0087981782853603363037109375" lon="166.4566125534474849700927734375">
        <ele>1064</ele>
        <time>2016-08-12T20:55:59.000Z</time>
        <extensions>
          <ns3:TrackPointExtension>
            <ns3:atemp>16.0</ns3:atemp>
            <ns3:hr>128</ns3:hr>
          </ns3:TrackPointExtension>
        </extensions>
      </trkpt>
      <trkpt lat="-22.008775211870670318603515625" lon="166.4566185884177684783935546875">
        <ele>1064</ele>
        <time>2016-08-12T20:56:00.000Z</time>
        <extensions>
          <ns3:TrackPointExtension>
            <ns3:atemp>16.0</ns3:atemp>
            <ns3:hr>128</ns3:hr>
          </ns3:TrackPointExtension>
        </extensions>
      </trkpt>
      <trkpt lat="-22.00875299982726573944091796875" lon="166.4566195942461490631103515625">
        <ele>1063.5999755859375</ele>
        <time>2016-08-12T20:56:01.000Z</time>
        <extensions>
          <ns3:TrackPointExtension>
            <ns3:atemp>16.0</ns3:atemp>
            <ns3:hr>128</ns3:hr>
          </ns3:TrackPointExtension>
        </extensions>
      </trkpt>
      <trkpt lat="-22.0087334699928760528564453125" lon="166.45661213435232639312744140625">
        <ele>1063.4000244140625</ele>
        <time>2016-08-12T20:56:02.000Z</time>
        <extensions>
          <ns3:TrackPointExtension>
            <ns3:atemp>16.0</ns3:atemp>
            <ns3:hr>128</ns3:hr>
          </ns3:TrackPointExtension>
        </extensions>
      </trkpt>
      <trkpt lat="-22.00871896930038928985595703125" lon="166.4565941132605075836181640625">
        <ele>1063.4000244140625</ele>
        <time>2016-08-12T20:56:03.000Z</time>
        <extensions>
          <ns3:TrackPointExtension>
            <ns3:atemp>16.0</ns3:atemp>
            <ns3:hr>128</ns3:hr>
          </ns3:TrackPointExtension>
        </extensions>
      </trkpt>
      <trkpt lat="-22.008708827197551727294921875" lon="166.4565726555883884429931640625">
        <ele>1062.800048828125</ele>
        <time>2016-08-12T20:56:04.000Z</time>
        <extensions>
          <ns3:TrackPointExtension>
            <ns3:atemp>16.0</ns3:atemp>
            <ns3:hr>128</ns3:hr>
          </ns3:TrackPointExtension>
        </extensions>
      </trkpt>
      <trkpt lat="-22.008707486093044281005859375" lon="166.45654809661209583282470703125">
        <ele>1062.4000244140625</ele>
        <time>2016-08-12T20:56:05.000Z</time>
        <extensions>
          <ns3:TrackPointExtension>
            <ns3:atemp>16.0</ns3:atemp>
            <ns3:hr>128</ns3:hr>
          </ns3:TrackPointExtension>
        </extensions>
      </trkpt>
      <trkpt lat="-22.0087133534252643585205078125" lon="166.45652445964515209197998046875">
        <ele>1062.4000244140625</ele>
        <time>2016-08-12T20:56:06.000Z</time>
        <extensions>
          <ns3:TrackPointExtension>
            <ns3:atemp>16.0</ns3:atemp>
            <ns3:hr>128</ns3:hr>
          </ns3:TrackPointExtension>
        </extensions>
      </trkpt>
      <trkpt lat="-22.0087270997464656829833984375" lon="166.456505097448825836181640625">
        <ele>1062</ele>
        <time>2016-08-12T20:56:07.000Z</time>
        <extensions>
          <ns3:TrackPointExtension>
            <ns3:atemp>16.0</ns3:atemp>
            <ns3:hr>128</ns3:hr>
          </ns3:TrackPointExtension>
        </extensions>
      </trkpt>
      <trkpt lat="-22.0087431930005550384521484375" lon="166.456485651433467864990234375">
        <ele>1061.5999755859375</ele>
        <time>2016-08-12T20:56:08.000Z</time>
        <extensions>
          <ns3:TrackPointExtension>
            <ns3:atemp>16.0</ns3:atemp>
            <ns3:hr>128</ns3:hr>
          </ns3:TrackPointExtension>
        </extensions>
      </trkpt>
      <trkpt lat="-22.00876154936850070953369140625" lon="166.45646679215133190155029296875">
        <ele>1061.4000244140625</ele>
        <time>2016-08-12T20:56:09.000Z</time>
        <extensions>
          <ns3:TrackPointExtension>
            <ns3:atemp>16.0</ns3:atemp>
            <ns3:hr>128</ns3:hr>
          </ns3:TrackPointExtension>
        </extensions>
      </trkpt>
      <trkpt lat="-22.0087802410125732421875" lon="166.45644885487854480743408203125">
        <ele>1061.199951171875</ele>
        <time>2016-08-12T20:56:10.000Z</time>
        <extensions>
          <ns3:TrackPointExtension>
            <ns3:atemp>16.0</ns3:atemp>
            <ns3:hr>128</ns3:hr>
          </ns3:TrackPointExtension>
        </extensions>
      </trkpt>
      <trkpt lat="-22.008797340095043182373046875" lon="166.4564291574060916900634765625">
        <ele>1060.4000244140625</ele>
        <time>2016-08-12T20:56:11.000Z</time>
        <extensions>
          <ns3:TrackPointExtension>
            <ns3:atemp>16.0</ns3:atemp>
            <ns3:hr>128</ns3:hr>
          </ns3:TrackPointExtension>
        </extensions>
      </trkpt>
      <trkpt lat="-22.0088156126439571380615234375" lon="166.456410884857177734375">
        <ele>1060.199951171875</ele>
        <time>2016-08-12T20:56:12.000Z</time>
        <extensions>
          <ns3:TrackPointExtension>
            <ns3:atemp>16.0</ns3:atemp>
            <ns3:hr>128</ns3:hr>
          </ns3:TrackPointExtension>
        </extensions>
      </trkpt>
      <trkpt lat="-22.00883195735514163970947265625" lon="166.456393115222454071044921875">
        <ele>1059.800048828125</ele>
        <time>2016-08-12T20:56:13.000Z</time>
        <extensions>
          <ns3:TrackPointExtension>
            <ns3:atemp>16.0</ns3:atemp>
            <ns3:hr>128</ns3:hr>
          </ns3:TrackPointExtension>
        </extensions>
      </trkpt>
      <trkpt lat="-22.00884553603827953338623046875" lon="166.4563741721212863922119140625">
        <ele>1059.5999755859375</ele>
        <time>2016-08-12T20:56:14.000Z</time>
        <extensions>
          <ns3:TrackPointExtension>
            <ns3:atemp>16.0</ns3:atemp>
            <ns3:hr>128</ns3:hr>
          </ns3:TrackPointExtension>
        </extensions>
      </trkpt>
      <trkpt lat="-22.0088615454733371734619140625" lon="166.456354223191738128662109375">
        <ele>1059.4000244140625</ele>
        <time>2016-08-12T20:56:15.000Z</time>
        <extensions>
          <ns3:TrackPointExtension>
            <ns3:atemp>16.0</ns3:atemp>
            <ns3:hr>128</ns3:hr>
          </ns3:TrackPointExtension>
        </extensions>
      </trkpt>
      <trkpt lat="-22.00887654908001422882080078125" lon="166.45633536390960216522216796875">
        <ele>1059.199951171875</ele>
        <time>2016-08-12T20:56:16.000Z</time>
        <extensions>
          <ns3:TrackPointExtension>
            <ns3:atemp>16.0</ns3:atemp>
            <ns3:hr>128</ns3:hr>
          </ns3:TrackPointExtension>
        </extensions>
      </trkpt>
      <trkpt lat="-22.00889247469604015350341796875" lon="166.456317007541656494140625">
        <ele>1058.5999755859375</ele>
        <time>2016-08-12T20:56:17.000Z</time>
        <extensions>
          <ns3:TrackPointExtension>
            <ns3:atemp>16.0</ns3:atemp>
            <ns3:hr>128</ns3:hr>
          </ns3:TrackPointExtension>
        </extensions>
      </trkpt>
      <trkpt lat="-22.00890907086431980133056640625" lon="166.45630099810659885406494140625">
        <ele>1058.4000244140625</ele>
        <time>2016-08-12T20:56:18.000Z</time>
        <extensions>
          <ns3:TrackPointExtension>
            <ns3:atemp>16.0</ns3:atemp>
            <ns3:hr>128</ns3:hr>
          </ns3:TrackPointExtension>
        </extensions>
      </trkpt>
      <trkpt lat="-22.008925415575504302978515625" lon="166.45628146827220916748046875">
        <ele>1058.199951171875</ele>
        <time>2016-08-12T20:56:19.000Z</time>
        <extensions>
          <ns3:TrackPointExtension>
            <ns3:atemp>16.0</ns3:atemp>
            <ns3:hr>127</ns3:hr>
          </ns3:TrackPointExtension>
        </extensions>
      </trkpt>
      <trkpt lat="-22.00894653797149658203125" lon="166.4562647044658660888671875">
        <ele>1057.5999755859375</ele>
        <time>2016-08-12T20:56:20.000Z</time>
        <extensions>
          <ns3:TrackPointExtension>
            <ns3:atemp>16.0</ns3:atemp>
            <ns3:hr>127</ns3:hr>
          </ns3:TrackPointExtension>
        </extensions>
      </trkpt>
      <trkpt lat="-22.00896455906331539154052734375" lon="166.4562486112117767333984375">
        <ele>1057.4000244140625</ele>
        <time>2016-08-12T20:56:21.000Z</time>
        <extensions>
          <ns3:TrackPointExtension>
            <ns3:atemp>16.0</ns3:atemp>
            <ns3:hr>127</ns3:hr>
          </ns3:TrackPointExtension>
        </extensions>
      </trkpt>
      <trkpt lat="-22.00898199342191219329833984375" lon="166.4562310092151165008544921875">
        <ele>1057.199951171875</ele>
        <time>2016-08-12T20:56:22.000Z</time>
        <extensions>
          <ns3:TrackPointExtension>
            <ns3:atemp>16.0</ns3:atemp>
            <ns3:hr>127</ns3:hr>
          </ns3:TrackPointExtension>
        </extensions>
      </trkpt>
      <trkpt lat="-22.00900085270404815673828125" lon="166.45621131174266338348388671875">
        <ele>1056.800048828125</ele>
        <time>2016-08-12T20:56:23.000Z</time>
        <extensions>
          <ns3:TrackPointExtension>
            <ns3:atemp>16.0</ns3:atemp>
            <ns3:hr>127</ns3:hr>
          </ns3:TrackPointExtension>
        </extensions>
      </trkpt>
      <trkpt lat="-22.0090151019394397735595703125" lon="166.45619153045117855072021484375">
        <ele>1056.5999755859375</ele>
        <time>2016-08-12T20:56:24.000Z</time>
        <extensions>
          <ns3:TrackPointExtension>
            <ns3:atemp>16.0</ns3:atemp>
            <ns3:hr>127</ns3:hr>
          </ns3:TrackPointExtension>
        </extensions>
      </trkpt>
      <trkpt lat="-22.00902960263192653656005859375" lon="166.45617275498807430267333984375">
        <ele>1056.199951171875</ele>
        <time>2016-08-12T20:56:25.000Z</time>
        <extensions>
          <ns3:TrackPointExtension>
            <ns3:atemp>16.0</ns3:atemp>
            <ns3:hr>126</ns3:hr>
          </ns3:TrackPointExtension>
        </extensions>
      </trkpt>
      <trkpt lat="-22.00904309749603271484375" lon="166.456150375306606292724609375">
        <ele>1055.800048828125</ele>
        <time>2016-08-12T20:56:26.000Z</time>
        <extensions>
          <ns3:TrackPointExtension>
            <ns3:atemp>16.0</ns3:atemp>
            <ns3:hr>126</ns3:hr>
          </ns3:TrackPointExtension>
        </extensions>
      </trkpt>
      <trkpt lat="-22.00905743055045604705810546875" lon="166.45613034255802631378173828125">
        <ele>1055.5999755859375</ele>
        <time>2016-08-12T20:56:27.000Z</time>
        <extensions>
          <ns3:TrackPointExtension>
            <ns3:atemp>16.0</ns3:atemp>
            <ns3:hr>126</ns3:hr>
          </ns3:TrackPointExtension>
        </extensions>
      </trkpt>
      <trkpt lat="-22.0090764574706554412841796875" lon="166.4561118185520172119140625">
        <ele>1055.4000244140625</ele>
        <time>2016-08-12T20:56:28.000Z</time>
        <extensions>
          <ns3:TrackPointExtension>
            <ns3:atemp>16.0</ns3:atemp>
            <ns3:hr>126</ns3:hr>
          </ns3:TrackPointExtension>
        </extensions>
      </trkpt>
      <trkpt lat="-22.00909204781055450439453125" lon="166.45609228871762752532958984375">
        <ele>1055</ele>
        <time>2016-08-12T20:56:29.000Z</time>
        <extensions>
          <ns3:TrackPointExtension>
            <ns3:atemp>16.0</ns3:atemp>
            <ns3:hr>126</ns3:hr>
          </ns3:TrackPointExtension>
        </extensions>
      </trkpt>
      <trkpt lat="-22.009104788303375244140625" lon="166.456071250140666961669921875">
        <ele>1054.800048828125</ele>
        <time>2016-08-12T20:56:30.000Z</time>
        <extensions>
          <ns3:TrackPointExtension>
            <ns3:atemp>16.0</ns3:atemp>
            <ns3:hr>126</ns3:hr>
          </ns3:TrackPointExtension>
        </extensions>
      </trkpt>
      <trkpt lat="-22.00911618769168853759765625" lon="166.45604954101145267486572265625">
        <ele>1054.4000244140625</ele>
        <time>2016-08-12T20:56:31.000Z</time>
        <extensions>
          <ns3:TrackPointExtension>
            <ns3:atemp>16.0</ns3:atemp>
            <ns3:hr>126</ns3:hr>
          </ns3:TrackPointExtension>
        </extensions>
      </trkpt>
      <trkpt lat="-22.00912700034677982330322265625" lon="166.45602825097739696502685546875">
        <ele>1053.800048828125</ele>
        <time>2016-08-12T20:56:32.000Z</time>
        <extensions>
          <ns3:TrackPointExtension>
            <ns3:atemp>16.0</ns3:atemp>
            <ns3:hr>126</ns3:hr>
          </ns3:TrackPointExtension>
        </extensions>
      </trkpt>
      <trkpt lat="-22.00913940556347370147705078125" lon="166.4560087211430072784423828125">
        <ele>1053.5999755859375</ele>
        <time>2016-08-12T20:56:33.000Z</time>
        <extensions>
          <ns3:TrackPointExtension>
            <ns3:atemp>16.0</ns3:atemp>
            <ns3:hr>126</ns3:hr>
          </ns3:TrackPointExtension>
        </extensions>
      </trkpt>
      <trkpt lat="-22.00915348716080188751220703125" lon="166.4559889398515224456787109375">
        <ele>1053.4000244140625</ele>
        <time>2016-08-12T20:56:34.000Z</time>
        <extensions>
          <ns3:TrackPointExtension>
            <ns3:atemp>16.0</ns3:atemp>
            <ns3:hr>126</ns3:hr>
          </ns3:TrackPointExtension>
        </extensions>
      </trkpt>
      <trkpt lat="-22.009166143834590911865234375" lon="166.455966643989086151123046875">
        <ele>1052.800048828125</ele>
        <time>2016-08-12T20:56:35.000Z</time>
        <extensions>
          <ns3:TrackPointExtension>
            <ns3:atemp>16.0</ns3:atemp>
            <ns3:hr>126</ns3:hr>
          </ns3:TrackPointExtension>
        </extensions>
      </trkpt>
      <trkpt lat="-22.009179890155792236328125" lon="166.4559460245072841644287109375">
        <ele>1052.5999755859375</ele>
        <time>2016-08-12T20:56:36.000Z</time>
        <extensions>
          <ns3:TrackPointExtension>
            <ns3:atemp>16.0</ns3:atemp>
            <ns3:hr>126</ns3:hr>
          </ns3:TrackPointExtension>
        </extensions>
      </trkpt>
      <trkpt lat="-22.0091948099434375762939453125" lon="166.455927081406116485595703125">
        <ele>1052.4000244140625</ele>
        <time>2016-08-12T20:56:37.000Z</time>
        <extensions>
          <ns3:TrackPointExtension>
            <ns3:atemp>16.0</ns3:atemp>
            <ns3:hr>125</ns3:hr>
          </ns3:TrackPointExtension>
        </extensions>
      </trkpt>
      <trkpt lat="-22.00920897535979747772216796875" lon="166.4559064619243144989013671875">
        <ele>1052.199951171875</ele>
        <time>2016-08-12T20:56:38.000Z</time>
        <extensions>
          <ns3:TrackPointExtension>
            <ns3:atemp>16.0</ns3:atemp>
            <ns3:hr>125</ns3:hr>
          </ns3:TrackPointExtension>
        </extensions>
      </trkpt>
      <trkpt lat="-22.00922439806163311004638671875" lon="166.4558833278715610504150390625">
        <ele>1052.199951171875</ele>
        <time>2016-08-12T20:56:39.000Z</time>
        <extensions>
          <ns3:TrackPointExtension>
            <ns3:atemp>16.0</ns3:atemp>
            <ns3:hr>126</ns3:hr>
          </ns3:TrackPointExtension>
        </extensions>
      </trkpt>
      <trkpt lat="-22.00923797674477100372314453125" lon="166.45585860125720500946044921875">
        <ele>1052.199951171875</ele>
        <time>2016-08-12T20:56:40.000Z</time>
        <extensions>
          <ns3:TrackPointExtension>
            <ns3:atemp>16.0</ns3:atemp>
            <ns3:hr>126</ns3:hr>
          </ns3:TrackPointExtension>
        </extensions>
      </trkpt>
      <trkpt lat="-22.00925105251371860504150390625" lon="166.45583462901413440704345703125">
        <ele>1051.5999755859375</ele>
        <time>2016-08-12T20:56:41.000Z</time>
        <extensions>
          <ns3:TrackPointExtension>
            <ns3:atemp>16.0</ns3:atemp>
            <ns3:hr>126</ns3:hr>
          </ns3:TrackPointExtension>
        </extensions>
      </trkpt>
      <trkpt lat="-22.00926613993942737579345703125" lon="166.45580948330461978912353515625">
        <ele>1051.4000244140625</ele>
        <time>2016-08-12T20:56:42.000Z</time>
        <extensions>
          <ns3:TrackPointExtension>
            <ns3:atemp>16.0</ns3:atemp>
            <ns3:hr>126</ns3:hr>
          </ns3:TrackPointExtension>
        </extensions>
      </trkpt>
      <trkpt lat="-22.00928005389869213104248046875" lon="166.4557837508618831634521484375">
        <ele>1051.199951171875</ele>
        <time>2016-08-12T20:56:43.000Z</time>
        <extensions>
          <ns3:TrackPointExtension>
            <ns3:atemp>16.0</ns3:atemp>
            <ns3:hr>126</ns3:hr>
          </ns3:TrackPointExtension>
        </extensions>
      </trkpt>
      <trkpt lat="-22.00929229147732257843017578125" lon="166.455757431685924530029296875">
        <ele>1050.800048828125</ele>
        <time>2016-08-12T20:56:44.000Z</time>
        <extensions>
          <ns3:TrackPointExtension>
            <ns3:atemp>16.0</ns3:atemp>
            <ns3:hr>126</ns3:hr>
          </ns3:TrackPointExtension>
        </extensions>
      </trkpt>
      <trkpt lat="-22.0093014277517795562744140625" lon="166.4557264186441898345947265625">
        <ele>1050.4000244140625</ele>
        <time>2016-08-12T20:56:45.000Z</time>
        <extensions>
          <ns3:TrackPointExtension>
            <ns3:atemp>16.0</ns3:atemp>
            <ns3:hr>127</ns3:hr>
          </ns3:TrackPointExtension>
        </extensions>
      </trkpt>
      <trkpt lat="-22.009308300912380218505859375" lon="166.4556989260017871856689453125">
        <ele>1050.4000244140625</ele>
        <time>2016-08-12T20:56:46.000Z</time>
        <extensions>
          <ns3:TrackPointExtension>
            <ns3:atemp>16.0</ns3:atemp>
            <ns3:hr>127</ns3:hr>
          </ns3:TrackPointExtension>
        </extensions>
      </trkpt>
      <trkpt lat="-22.0093166828155517578125" lon="166.45567302592098712921142578125">
        <ele>1050</ele>
        <time>2016-08-12T20:56:47.000Z</time>
        <extensions>
          <ns3:TrackPointExtension>
            <ns3:atemp>16.0</ns3:atemp>
            <ns3:hr>127</ns3:hr>
          </ns3:TrackPointExtension>
        </extensions>
      </trkpt>
      <trkpt lat="-22.00932112522423267364501953125" lon="166.4556446112692356109619140625">
        <ele>1049.5999755859375</ele>
        <time>2016-08-12T20:56:48.000Z</time>
        <extensions>
          <ns3:TrackPointExtension>
            <ns3:atemp>16.0</ns3:atemp>
            <ns3:hr>127</ns3:hr>
          </ns3:TrackPointExtension>
        </extensions>
      </trkpt>
      <trkpt lat="-22.0093248970806598663330078125" lon="166.45561871118843555450439453125">
        <ele>1049.5999755859375</ele>
        <time>2016-08-12T20:56:49.000Z</time>
        <extensions>
          <ns3:TrackPointExtension>
            <ns3:atemp>16.0</ns3:atemp>
            <ns3:hr>127</ns3:hr>
          </ns3:TrackPointExtension>
        </extensions>
      </trkpt>
      <trkpt lat="-22.0093287527561187744140625" lon="166.45559457130730152130126953125">
        <ele>1049.199951171875</ele>
        <time>2016-08-12T20:56:50.000Z</time>
        <extensions>
          <ns3:TrackPointExtension>
            <ns3:atemp>16.0</ns3:atemp>
            <ns3:hr>127</ns3:hr>
          </ns3:TrackPointExtension>
        </extensions>
      </trkpt>
      <trkpt lat="-22.0093312673270702362060546875" lon="166.45556909032166004180908203125">
        <ele>1049</ele>
        <time>2016-08-12T20:56:51.000Z</time>
        <extensions>
          <ns3:TrackPointExtension>
            <ns3:atemp>16.0</ns3:atemp>
            <ns3:hr>127</ns3:hr>
          </ns3:TrackPointExtension>
        </extensions>
      </trkpt>
      <trkpt lat="-22.0093336142599582672119140625" lon="166.4555423520505428314208984375">
        <ele>1048.800048828125</ele>
        <time>2016-08-12T20:56:52.000Z</time>
        <extensions>
          <ns3:TrackPointExtension>
            <ns3:atemp>16.0</ns3:atemp>
            <ns3:hr>127</ns3:hr>
          </ns3:TrackPointExtension>
        </extensions>
      </trkpt>
      <trkpt lat="-22.00934006832540035247802734375" lon="166.45551628433167934417724609375">
        <ele>1048.4000244140625</ele>
        <time>2016-08-12T20:56:53.000Z</time>
        <extensions>
          <ns3:TrackPointExtension>
            <ns3:atemp>16.0</ns3:atemp>
            <ns3:hr>127</ns3:hr>
          </ns3:TrackPointExtension>
        </extensions>
      </trkpt>
      <trkpt lat="-22.00935029424726963043212890625" lon="166.45549063570797443389892578125">
        <ele>1048</ele>
        <time>2016-08-12T20:56:54.000Z</time>
        <extensions>
          <ns3:TrackPointExtension>
            <ns3:atemp>16.0</ns3:atemp>
            <ns3:hr>127</ns3:hr>
          </ns3:TrackPointExtension>
        </extensions>
      </trkpt>
      <trkpt lat="-22.00936420820653438568115234375" lon="166.455468423664569854736328125">
        <ele>1047.800048828125</ele>
        <time>2016-08-12T20:56:55.000Z</time>
        <extensions>
          <ns3:TrackPointExtension>
            <ns3:atemp>16.0</ns3:atemp>
            <ns3:hr>127</ns3:hr>
          </ns3:TrackPointExtension>
        </extensions>
      </trkpt>
      <trkpt lat="-22.00937862507998943328857421875" lon="166.455447971820831298828125">
        <ele>1047.4000244140625</ele>
        <time>2016-08-12T20:56:56.000Z</time>
        <extensions>
          <ns3:TrackPointExtension>
            <ns3:atemp>16.0</ns3:atemp>
            <ns3:hr>127</ns3:hr>
          </ns3:TrackPointExtension>
        </extensions>
      </trkpt>
      <trkpt lat="-22.00939672999083995819091796875" lon="166.4554280228912830352783203125">
        <ele>1047</ele>
        <time>2016-08-12T20:56:57.000Z</time>
        <extensions>
          <ns3:TrackPointExtension>
            <ns3:atemp>16.0</ns3:atemp>
            <ns3:hr>127</ns3:hr>
          </ns3:TrackPointExtension>
        </extensions>
      </trkpt>
      <trkpt lat="-22.0094144158065319061279296875" lon="166.455408744513988494873046875">
        <ele>1046.800048828125</ele>
        <time>2016-08-12T20:56:58.000Z</time>
        <extensions>
          <ns3:TrackPointExtension>
            <ns3:atemp>16.0</ns3:atemp>
            <ns3:hr>128</ns3:hr>
          </ns3:TrackPointExtension>
        </extensions>
      </trkpt>
      <trkpt lat="-22.00943193398416042327880859375" lon="166.45539273507893085479736328125">
        <ele>1046.4000244140625</ele>
        <time>2016-08-12T20:56:59.000Z</time>
        <extensions>
          <ns3:TrackPointExtension>
            <ns3:atemp>16.0</ns3:atemp>
            <ns3:hr>128</ns3:hr>
          </ns3:TrackPointExtension>
        </extensions>
      </trkpt>
      <trkpt lat="-22.0094516314566135406494140625" lon="166.45537815056741237640380859375">
        <ele>1046</ele>
        <time>2016-08-12T20:57:00.000Z</time>
        <extensions>
          <ns3:TrackPointExtension>
            <ns3:atemp>16.0</ns3:atemp>
            <ns3:hr>128</ns3:hr>
          </ns3:TrackPointExtension>
        </extensions>
      </trkpt>
      <trkpt lat="-22.00946998782455921173095703125" lon="166.45536406897008419036865234375">
        <ele>1045.800048828125</ele>
        <time>2016-08-12T20:57:01.000Z</time>
        <extensions>
          <ns3:TrackPointExtension>
            <ns3:atemp>16.0</ns3:atemp>
            <ns3:hr>127</ns3:hr>
          </ns3:TrackPointExtension>
        </extensions>
      </trkpt>
      <trkpt lat="-22.00949161313474178314208984375" lon="166.45535250194370746612548828125">
        <ele>1045</ele>
        <time>2016-08-12T20:57:02.000Z</time>
        <extensions>
          <ns3:TrackPointExtension>
            <ns3:atemp>16.0</ns3:atemp>
            <ns3:hr>127</ns3:hr>
          </ns3:TrackPointExtension>
        </extensions>
      </trkpt>
      <trkpt lat="-22.00951315462589263916015625" lon="166.4553435333073139190673828125">
        <ele>1044.800048828125</ele>
        <time>2016-08-12T20:57:03.000Z</time>
        <extensions>
          <ns3:TrackPointExtension>
            <ns3:atemp>16.0</ns3:atemp>
            <ns3:hr>127</ns3:hr>
          </ns3:TrackPointExtension>
        </extensions>
      </trkpt>
      <trkpt lat="-22.00953268446028232574462890625" lon="166.4553354866802692413330078125">
        <ele>1044.4000244140625</ele>
        <time>2016-08-12T20:57:04.000Z</time>
        <extensions>
          <ns3:TrackPointExtension>
            <ns3:atemp>16.0</ns3:atemp>
            <ns3:hr>128</ns3:hr>
          </ns3:TrackPointExtension>
        </extensions>
      </trkpt>
      <trkpt lat="-22.0095542259514331817626953125" lon="166.455328278243541717529296875">
        <ele>1044.199951171875</ele>
        <time>2016-08-12T20:57:05.000Z</time>
        <extensions>
          <ns3:TrackPointExtension>
            <ns3:atemp>16.0</ns3:atemp>
            <ns3:hr>127</ns3:hr>
          </ns3:TrackPointExtension>
        </extensions>
      </trkpt>
      <trkpt lat="-22.0095713250339031219482421875" lon="166.45531930960714817047119140625">
        <ele>1043.800048828125</ele>
        <time>2016-08-12T20:57:06.000Z</time>
        <extensions>
          <ns3:TrackPointExtension>
            <ns3:atemp>16.0</ns3:atemp>
            <ns3:hr>128</ns3:hr>
          </ns3:TrackPointExtension>
        </extensions>
      </trkpt>
      <trkpt lat="-22.00958716683089733123779296875" lon="166.45531025715172290802001953125">
        <ele>1043.800048828125</ele>
        <time>2016-08-12T20:57:07.000Z</time>
        <extensions>
          <ns3:TrackPointExtension>
            <ns3:atemp>16.0</ns3:atemp>
            <ns3:hr>127</ns3:hr>
          </ns3:TrackPointExtension>
        </extensions>
      </trkpt>
      <trkpt lat="-22.00960627757012844085693359375" lon="166.45530170761048793792724609375">
        <ele>1043.5999755859375</ele>
        <time>2016-08-12T20:57:08.000Z</time>
        <extensions>
          <ns3:TrackPointExtension>
            <ns3:atemp>16.0</ns3:atemp>
            <ns3:hr>127</ns3:hr>
          </ns3:TrackPointExtension>
        </extensions>
      </trkpt>
      <trkpt lat="-22.00962555594742298126220703125" lon="166.45529768429696559906005859375">
        <ele>1043.4000244140625</ele>
        <time>2016-08-12T20:57:09.000Z</time>
        <extensions>
          <ns3:TrackPointExtension>
            <ns3:atemp>16.0</ns3:atemp>
            <ns3:hr>127</ns3:hr>
          </ns3:TrackPointExtension>
        </extensions>
      </trkpt>
      <trkpt lat="-22.0096410624682903289794921875" lon="166.45529131405055522918701171875">
        <ele>1043</ele>
        <time>2016-08-12T20:57:10.000Z</time>
        <extensions>
          <ns3:TrackPointExtension>
            <ns3:atemp>16.0</ns3:atemp>
            <ns3:hr>127</ns3:hr>
          </ns3:TrackPointExtension>
        </extensions>
      </trkpt>
      <trkpt lat="-22.0096564851701259613037109375" lon="166.45527857355773448944091796875">
        <ele>1042.5999755859375</ele>
        <time>2016-08-12T20:57:11.000Z</time>
        <extensions>
          <ns3:TrackPointExtension>
            <ns3:atemp>16.0</ns3:atemp>
            <ns3:hr>127</ns3:hr>
          </ns3:TrackPointExtension>
        </extensions>
      </trkpt>
      <trkpt lat="-22.009673416614532470703125" lon="166.45526382140815258026123046875">
        <ele>1042.4000244140625</ele>
        <time>2016-08-12T20:57:12.000Z</time>
        <extensions>
          <ns3:TrackPointExtension>
            <ns3:atemp>16.0</ns3:atemp>
            <ns3:hr>126</ns3:hr>
          </ns3:TrackPointExtension>
        </extensions>
      </trkpt>
      <trkpt lat="-22.0096900127828121185302734375" lon="166.45524621941149234771728515625">
        <ele>1042.4000244140625</ele>
        <time>2016-08-12T20:57:13.000Z</time>
        <extensions>
          <ns3:TrackPointExtension>
            <ns3:atemp>16.0</ns3:atemp>
            <ns3:hr>126</ns3:hr>
          </ns3:TrackPointExtension>
        </extensions>
      </trkpt>
      <trkpt lat="-22.00970359146595001220703125" lon="166.4552231691777706146240234375">
        <ele>1042.5999755859375</ele>
        <time>2016-08-12T20:57:14.000Z</time>
        <extensions>
          <ns3:TrackPointExtension>
            <ns3:atemp>16.0</ns3:atemp>
            <ns3:hr>126</ns3:hr>
          </ns3:TrackPointExtension>
        </extensions>
      </trkpt>
      <trkpt lat="-22.009718008339405059814453125" lon="166.4552040584385395050048828125">
        <ele>1042.4000244140625</ele>
        <time>2016-08-12T20:57:15.000Z</time>
        <extensions>
          <ns3:TrackPointExtension>
            <ns3:atemp>16.0</ns3:atemp>
            <ns3:hr>125</ns3:hr>
          </ns3:TrackPointExtension>
        </extensions>
      </trkpt>
      <trkpt lat="-22.00973217375576496124267578125" lon="166.45518335513770580291748046875">
        <ele>1042</ele>
        <time>2016-08-12T20:57:16.000Z</time>
        <extensions>
          <ns3:TrackPointExtension>
            <ns3:atemp>16.0</ns3:atemp>
            <ns3:hr>126</ns3:hr>
          </ns3:TrackPointExtension>
        </extensions>
      </trkpt>
      <trkpt lat="-22.00974650681018829345703125" lon="166.455164663493633270263671875">
        <ele>1042</ele>
        <time>2016-08-12T20:57:17.000Z</time>
        <extensions>
          <ns3:TrackPointExtension>
            <ns3:atemp>16.0</ns3:atemp>
            <ns3:hr>125</ns3:hr>
          </ns3:TrackPointExtension>
        </extensions>
      </trkpt>
      <trkpt lat="-22.0097607560455799102783203125" lon="166.45514345727860927581787109375">
        <ele>1041.5999755859375</ele>
        <time>2016-08-12T20:57:18.000Z</time>
        <extensions>
          <ns3:TrackPointExtension>
            <ns3:atemp>16.0</ns3:atemp>
            <ns3:hr>125</ns3:hr>
          </ns3:TrackPointExtension>
        </extensions>
      </trkpt>
      <trkpt lat="-22.0097718201577663421630859375" lon="166.45512007176876068115234375">
        <ele>1041.4000244140625</ele>
        <time>2016-08-12T20:57:19.000Z</time>
        <extensions>
          <ns3:TrackPointExtension>
            <ns3:atemp>16.0</ns3:atemp>
            <ns3:hr>124</ns3:hr>
          </ns3:TrackPointExtension>
        </extensions>
      </trkpt>
      <trkpt lat="-22.0097820460796356201171875" lon="166.45509995520114898681640625">
        <ele>1041.4000244140625</ele>
        <time>2016-08-12T20:57:20.000Z</time>
        <extensions>
          <ns3:TrackPointExtension>
            <ns3:atemp>16.0</ns3:atemp>
            <ns3:hr>124</ns3:hr>
          </ns3:TrackPointExtension>
        </extensions>
      </trkpt>
      <trkpt lat="-22.00979503802955150604248046875" lon="166.4550823532044887542724609375">
        <ele>1041.199951171875</ele>
        <time>2016-08-12T20:57:21.000Z</time>
        <extensions>
          <ns3:TrackPointExtension>
            <ns3:atemp>16.0</ns3:atemp>
            <ns3:hr>123</ns3:hr>
          </ns3:TrackPointExtension>
        </extensions>
      </trkpt>
      <trkpt lat="-22.00980677269399166107177734375" lon="166.45506332628428936004638671875">
        <ele>1040.800048828125</ele>
        <time>2016-08-12T20:57:22.000Z</time>
        <extensions>
          <ns3:TrackPointExtension>
            <ns3:atemp>16.0</ns3:atemp>
            <ns3:hr>123</ns3:hr>
          </ns3:TrackPointExtension>
        </extensions>
      </trkpt>
      <trkpt lat="-22.0098180882632732391357421875" lon="166.45504354499280452728271484375">
        <ele>1040.5999755859375</ele>
        <time>2016-08-12T20:57:23.000Z</time>
        <extensions>
          <ns3:TrackPointExtension>
            <ns3:atemp>16.0</ns3:atemp>
            <ns3:hr>122</ns3:hr>
          </ns3:TrackPointExtension>
        </extensions>
      </trkpt>
      <trkpt lat="-22.00983091257512569427490234375" lon="166.45502594299614429473876953125">
        <ele>1040</ele>
        <time>2016-08-12T20:57:24.000Z</time>
        <extensions>
          <ns3:TrackPointExtension>
            <ns3:atemp>16.0</ns3:atemp>
            <ns3:hr>122</ns3:hr>
          </ns3:TrackPointExtension>
        </extensions>
      </trkpt>
      <trkpt lat="-22.00984683819115161895751953125" lon="166.4550112746655941009521484375">
        <ele>1039.5999755859375</ele>
        <time>2016-08-12T20:57:25.000Z</time>
        <extensions>
          <ns3:TrackPointExtension>
            <ns3:atemp>16.0</ns3:atemp>
            <ns3:hr>122</ns3:hr>
          </ns3:TrackPointExtension>
        </extensions>
      </trkpt>
      <trkpt lat="-22.0098603330552577972412109375" lon="166.45499803125858306884765625">
        <ele>1039.199951171875</ele>
        <time>2016-08-12T20:57:26.000Z</time>
        <extensions>
          <ns3:TrackPointExtension>
            <ns3:atemp>16.0</ns3:atemp>
            <ns3:hr>122</ns3:hr>
          </ns3:TrackPointExtension>
        </extensions>
      </trkpt>
      <trkpt lat="-22.0098724029958248138427734375" lon="166.4549797587096691131591796875">
        <ele>1039.199951171875</ele>
        <time>2016-08-12T20:57:27.000Z</time>
        <extensions>
          <ns3:TrackPointExtension>
            <ns3:atemp>16.0</ns3:atemp>
            <ns3:hr>122</ns3:hr>
          </ns3:TrackPointExtension>
        </extensions>
      </trkpt>
      <trkpt lat="-22.00988455675542354583740234375" lon="166.4549589715898036956787109375">
        <ele>1039.199951171875</ele>
        <time>2016-08-12T20:57:28.000Z</time>
        <extensions>
          <ns3:TrackPointExtension>
            <ns3:atemp>16.0</ns3:atemp>
            <ns3:hr>124</ns3:hr>
          </ns3:TrackPointExtension>
        </extensions>
      </trkpt>
      <trkpt lat="-22.0098968781530857086181640625" lon="166.4549401961266994476318359375">
        <ele>1038.800048828125</ele>
        <time>2016-08-12T20:57:29.000Z</time>
        <extensions>
          <ns3:TrackPointExtension>
            <ns3:atemp>16.0</ns3:atemp>
            <ns3:hr>124</ns3:hr>
          </ns3:TrackPointExtension>
        </extensions>
      </trkpt>
      <trkpt lat="-22.0099126361310482025146484375" lon="166.454925946891307830810546875">
        <ele>1038.5999755859375</ele>
        <time>2016-08-12T20:57:30.000Z</time>
        <extensions>
          <ns3:TrackPointExtension>
            <ns3:atemp>16.0</ns3:atemp>
            <ns3:hr>125</ns3:hr>
          </ns3:TrackPointExtension>
        </extensions>
      </trkpt>
      <trkpt lat="-22.00993082486093044281005859375" lon="166.4549113623797893524169921875">
        <ele>1038.4000244140625</ele>
        <time>2016-08-12T20:57:31.000Z</time>
        <extensions>
          <ns3:TrackPointExtension>
            <ns3:atemp>16.0</ns3:atemp>
            <ns3:hr>126</ns3:hr>
          </ns3:TrackPointExtension>
        </extensions>
      </trkpt>
      <trkpt lat="-22.0099682919681072235107421875" lon="166.45488680340349674224853515625">
        <ele>1038.4000244140625</ele>
        <time>2016-08-12T20:57:33.000Z</time>
        <extensions>
          <ns3:TrackPointExtension>
            <ns3:atemp>16.0</ns3:atemp>
            <ns3:hr>126</ns3:hr>
          </ns3:TrackPointExtension>
        </extensions>
      </trkpt>
      <trkpt lat="-22.00998865999281406402587890625" lon="166.45487490110099315643310546875">
        <ele>1038.199951171875</ele>
        <time>2016-08-12T20:57:34.000Z</time>
        <extensions>
          <ns3:TrackPointExtension>
            <ns3:atemp>16.0</ns3:atemp>
            <ns3:hr>127</ns3:hr>
          </ns3:TrackPointExtension>
        </extensions>
      </trkpt>
      <trkpt lat="-22.010009028017520904541015625" lon="166.45486165769398212432861328125">
        <ele>1037.800048828125</ele>
        <time>2016-08-12T20:57:35.000Z</time>
        <extensions>
          <ns3:TrackPointExtension>
            <ns3:atemp>16.0</ns3:atemp>
            <ns3:hr>128</ns3:hr>
          </ns3:TrackPointExtension>
        </extensions>
      </trkpt>
      <trkpt lat="-22.01003015041351318359375" lon="166.4548456482589244842529296875">
        <ele>1037.4000244140625</ele>
        <time>2016-08-12T20:57:36.000Z</time>
        <extensions>
          <ns3:TrackPointExtension>
            <ns3:atemp>16.0</ns3:atemp>
            <ns3:hr>128</ns3:hr>
          </ns3:TrackPointExtension>
        </extensions>
      </trkpt>
      <trkpt lat="-22.01005035080015659332275390625" lon="166.45483366213738918304443359375">
        <ele>1037.199951171875</ele>
        <time>2016-08-12T20:57:37.000Z</time>
        <extensions>
          <ns3:TrackPointExtension>
            <ns3:atemp>16.0</ns3:atemp>
            <ns3:hr>128</ns3:hr>
          </ns3:TrackPointExtension>
        </extensions>
      </trkpt>
      <trkpt lat="-22.01006862334907054901123046875" lon="166.45482142455875873565673828125">
        <ele>1036.800048828125</ele>
        <time>2016-08-12T20:57:38.000Z</time>
        <extensions>
          <ns3:TrackPointExtension>
            <ns3:atemp>16.0</ns3:atemp>
            <ns3:hr>128</ns3:hr>
          </ns3:TrackPointExtension>
        </extensions>
      </trkpt>
      <trkpt lat="-22.010087482631206512451171875" lon="166.45480952225625514984130859375">
        <ele>1036.5999755859375</ele>
        <time>2016-08-12T20:57:39.000Z</time>
        <extensions>
          <ns3:TrackPointExtension>
            <ns3:atemp>16.0</ns3:atemp>
            <ns3:hr>128</ns3:hr>
          </ns3:TrackPointExtension>
        </extensions>
      </trkpt>
      <trkpt lat="-22.0101065933704376220703125" lon="166.45480080507695674896240234375">
        <ele>1036.4000244140625</ele>
        <time>2016-08-12T20:57:40.000Z</time>
        <extensions>
          <ns3:TrackPointExtension>
            <ns3:atemp>16.0</ns3:atemp>
            <ns3:hr>128</ns3:hr>
          </ns3:TrackPointExtension>
        </extensions>
      </trkpt>
      <trkpt lat="-22.010123692452907562255859375" lon="166.454793177545070648193359375">
        <ele>1036.199951171875</ele>
        <time>2016-08-12T20:57:41.000Z</time>
        <extensions>
          <ns3:TrackPointExtension>
            <ns3:atemp>16.0</ns3:atemp>
            <ns3:hr>129</ns3:hr>
          </ns3:TrackPointExtension>
        </extensions>
      </trkpt>
      <trkpt lat="-22.01014556922018527984619140625" lon="166.45478135906159877777099609375">
        <ele>1036</ele>
        <time>2016-08-12T20:57:42.000Z</time>
        <extensions>
          <ns3:TrackPointExtension>
            <ns3:atemp>16.0</ns3:atemp>
            <ns3:hr>129</ns3:hr>
          </ns3:TrackPointExtension>
        </extensions>
      </trkpt>
      <trkpt lat="-22.01020407490432262420654296875" lon="166.45473651587963104248046875">
        <ele>1036</ele>
        <time>2016-08-12T20:57:45.000Z</time>
        <extensions>
          <ns3:TrackPointExtension>
            <ns3:atemp>16.0</ns3:atemp>
            <ns3:hr>129</ns3:hr>
          </ns3:TrackPointExtension>
        </extensions>
      </trkpt>
      <trkpt lat="-22.01022117398679256439208984375" lon="166.454721428453922271728515625">
        <ele>1035.5999755859375</ele>
        <time>2016-08-12T20:57:46.000Z</time>
        <extensions>
          <ns3:TrackPointExtension>
            <ns3:atemp>16.0</ns3:atemp>
            <ns3:hr>129</ns3:hr>
          </ns3:TrackPointExtension>
        </extensions>
      </trkpt>
      <trkpt lat="-22.01023944653570652008056640625" lon="166.45470960997045040130615234375">
        <ele>1035.4000244140625</ele>
        <time>2016-08-12T20:57:47.000Z</time>
        <extensions>
          <ns3:TrackPointExtension>
            <ns3:atemp>16.0</ns3:atemp>
            <ns3:hr>128</ns3:hr>
          </ns3:TrackPointExtension>
        </extensions>
      </trkpt>
      <trkpt lat="-22.01025889255106449127197265625" lon="166.45469896495342254638671875">
        <ele>1034.800048828125</ele>
        <time>2016-08-12T20:57:48.000Z</time>
        <extensions>
          <ns3:TrackPointExtension>
            <ns3:atemp>16.0</ns3:atemp>
            <ns3:hr>129</ns3:hr>
          </ns3:TrackPointExtension>
        </extensions>
      </trkpt>
      <trkpt lat="-22.0103277079761028289794921875" lon="166.45467759110033512115478515625">
        <ele>1034.800048828125</ele>
        <time>2016-08-12T20:57:51.000Z</time>
        <extensions>
          <ns3:TrackPointExtension>
            <ns3:atemp>16.0</ns3:atemp>
            <ns3:hr>129</ns3:hr>
          </ns3:TrackPointExtension>
        </extensions>
      </trkpt>
      <trkpt lat="-22.0103501714766025543212890625" lon="166.45466401241719722747802734375">
        <ele>1034.4000244140625</ele>
        <time>2016-08-12T20:57:52.000Z</time>
        <extensions>
          <ns3:TrackPointExtension>
            <ns3:atemp>16.0</ns3:atemp>
            <ns3:hr>129</ns3:hr>
          </ns3:TrackPointExtension>
        </extensions>
      </trkpt>
      <trkpt lat="-22.01037288643419742584228515625" lon="166.45465068519115447998046875">
        <ele>1034</ele>
        <time>2016-08-12T20:57:53.000Z</time>
        <extensions>
          <ns3:TrackPointExtension>
            <ns3:atemp>16.0</ns3:atemp>
            <ns3:hr>129</ns3:hr>
          </ns3:TrackPointExtension>
        </extensions>
      </trkpt>
      <trkpt lat="-22.010392583906650543212890625" lon="166.4546371065080165863037109375">
        <ele>1033.800048828125</ele>
        <time>2016-08-12T20:57:54.000Z</time>
        <extensions>
          <ns3:TrackPointExtension>
            <ns3:atemp>16.0</ns3:atemp>
            <ns3:hr>129</ns3:hr>
          </ns3:TrackPointExtension>
        </extensions>
      </trkpt>
      <trkpt lat="-22.010438852012157440185546875" lon="166.4546109549701213836669921875">
        <ele>1033.800048828125</ele>
        <time>2016-08-12T20:57:56.000Z</time>
        <extensions>
          <ns3:TrackPointExtension>
            <ns3:atemp>16.0</ns3:atemp>
            <ns3:hr>129</ns3:hr>
          </ns3:TrackPointExtension>
        </extensions>
      </trkpt>
      <trkpt lat="-22.01046324335038661956787109375" lon="166.45459746010601520538330078125">
        <ele>1033.5999755859375</ele>
        <time>2016-08-12T20:57:57.000Z</time>
        <extensions>
          <ns3:TrackPointExtension>
            <ns3:atemp>16.0</ns3:atemp>
            <ns3:hr>129</ns3:hr>
          </ns3:TrackPointExtension>
        </extensions>
      </trkpt>
      <trkpt lat="-22.01048671267926692962646484375" lon="166.4545821212232112884521484375">
        <ele>1033</ele>
        <time>2016-08-12T20:57:58.000Z</time>
        <extensions>
          <ns3:TrackPointExtension>
            <ns3:atemp>16.0</ns3:atemp>
            <ns3:hr>129</ns3:hr>
          </ns3:TrackPointExtension>
        </extensions>
      </trkpt>
      <trkpt lat="-22.01050800271332263946533203125" lon="166.45456225611269474029541015625">
        <ele>1032.800048828125</ele>
        <time>2016-08-12T20:57:59.000Z</time>
        <extensions>
          <ns3:TrackPointExtension>
            <ns3:atemp>16.0</ns3:atemp>
            <ns3:hr>129</ns3:hr>
          </ns3:TrackPointExtension>
        </extensions>
      </trkpt>
      <trkpt lat="-22.01052744872868061065673828125" lon="166.454542391002178192138671875">
        <ele>1032.4000244140625</ele>
        <time>2016-08-12T20:58:00.000Z</time>
        <extensions>
          <ns3:TrackPointExtension>
            <ns3:atemp>16.0</ns3:atemp>
            <ns3:hr>130</ns3:hr>
          </ns3:TrackPointExtension>
        </extensions>
      </trkpt>
      <trkpt lat="-22.01054756529629230499267578125" lon="166.45452730357646942138671875">
        <ele>1032</ele>
        <time>2016-08-12T20:58:01.000Z</time>
        <extensions>
          <ns3:TrackPointExtension>
            <ns3:atemp>16.0</ns3:atemp>
            <ns3:hr>129</ns3:hr>
          </ns3:TrackPointExtension>
        </extensions>
      </trkpt>
      <trkpt lat="-22.01056751422584056854248046875" lon="166.4545118808746337890625">
        <ele>1031.800048828125</ele>
        <time>2016-08-12T20:58:02.000Z</time>
        <extensions>
          <ns3:TrackPointExtension>
            <ns3:atemp>16.0</ns3:atemp>
            <ns3:hr>129</ns3:hr>
          </ns3:TrackPointExtension>
        </extensions>
      </trkpt>
      <trkpt lat="-22.010587044060230255126953125" lon="166.4544942788779735565185546875">
        <ele>1031.5999755859375</ele>
        <time>2016-08-12T20:58:03.000Z</time>
        <extensions>
          <ns3:TrackPointExtension>
            <ns3:atemp>16.0</ns3:atemp>
            <ns3:hr>130</ns3:hr>
          </ns3:TrackPointExtension>
        </extensions>
      </trkpt>
      <trkpt lat="-22.0106026344001293182373046875" lon="166.45447508431971073150634765625">
        <ele>1031.4000244140625</ele>
        <time>2016-08-12T20:58:04.000Z</time>
        <extensions>
          <ns3:TrackPointExtension>
            <ns3:atemp>16.0</ns3:atemp>
            <ns3:hr>130</ns3:hr>
          </ns3:TrackPointExtension>
        </extensions>
      </trkpt>
      <trkpt lat="-22.01061964966356754302978515625" lon="166.45445865578949451446533203125">
        <ele>1031</ele>
        <time>2016-08-12T20:58:05.000Z</time>
        <extensions>
          <ns3:TrackPointExtension>
            <ns3:atemp>16.0</ns3:atemp>
            <ns3:hr>130</ns3:hr>
          </ns3:TrackPointExtension>
        </extensions>
      </trkpt>
      <trkpt lat="-22.01063808985054492950439453125" lon="166.45444407127797603607177734375">
        <ele>1030.5999755859375</ele>
        <time>2016-08-12T20:58:06.000Z</time>
        <extensions>
          <ns3:TrackPointExtension>
            <ns3:atemp>16.0</ns3:atemp>
            <ns3:hr>130</ns3:hr>
          </ns3:TrackPointExtension>
        </extensions>
      </trkpt>
      <trkpt lat="-22.01067195273935794830322265625" lon="166.45441037602722644805908203125">
        <ele>1030.5999755859375</ele>
        <time>2016-08-12T20:58:08.000Z</time>
        <extensions>
          <ns3:TrackPointExtension>
            <ns3:atemp>16.0</ns3:atemp>
            <ns3:hr>130</ns3:hr>
          </ns3:TrackPointExtension>
        </extensions>
      </trkpt>
      <trkpt lat="-22.01068821363151073455810546875" lon="166.45439185202121734619140625">
        <ele>1030.5999755859375</ele>
        <time>2016-08-12T20:58:09.000Z</time>
        <extensions>
          <ns3:TrackPointExtension>
            <ns3:atemp>16.0</ns3:atemp>
            <ns3:hr>130</ns3:hr>
          </ns3:TrackPointExtension>
        </extensions>
      </trkpt>
      <trkpt lat="-22.010700367391109466552734375" lon="166.45437416620552539825439453125">
        <ele>1030</ele>
        <time>2016-08-12T20:58:10.000Z</time>
        <extensions>
          <ns3:TrackPointExtension>
            <ns3:atemp>16.0</ns3:atemp>
            <ns3:hr>130</ns3:hr>
          </ns3:TrackPointExtension>
        </extensions>
      </trkpt>
      <trkpt lat="-22.0107100903987884521484375" lon="166.45435857586562633514404296875">
        <ele>1029.4000244140625</ele>
        <time>2016-08-12T20:58:11.000Z</time>
        <extensions>
          <ns3:TrackPointExtension>
            <ns3:atemp>16.0</ns3:atemp>
            <ns3:hr>129</ns3:hr>
          </ns3:TrackPointExtension>
        </extensions>
      </trkpt>
      <trkpt lat="-22.0107206515967845916748046875" lon="166.45434566773474216461181640625">
        <ele>1029</ele>
        <time>2016-08-12T20:58:12.000Z</time>
        <extensions>
          <ns3:TrackPointExtension>
            <ns3:atemp>16.0</ns3:atemp>
            <ns3:hr>129</ns3:hr>
          </ns3:TrackPointExtension>
        </extensions>
      </trkpt>
      <trkpt lat="-22.01073515228927135467529296875" lon="166.4543323405086994171142578125">
        <ele>1028.5999755859375</ele>
        <time>2016-08-12T20:58:13.000Z</time>
        <extensions>
          <ns3:TrackPointExtension>
            <ns3:atemp>16.0</ns3:atemp>
            <ns3:hr>129</ns3:hr>
          </ns3:TrackPointExtension>
        </extensions>
      </trkpt>
      <trkpt lat="-22.01075040735304355621337890625" lon="166.45431716926395893096923828125">
        <ele>1028.5999755859375</ele>
        <time>2016-08-12T20:58:14.000Z</time>
        <extensions>
          <ns3:TrackPointExtension>
            <ns3:atemp>16.0</ns3:atemp>
            <ns3:hr>129</ns3:hr>
          </ns3:TrackPointExtension>
        </extensions>
      </trkpt>
      <trkpt lat="-22.01076499186456203460693359375" lon="166.4543004892766475677490234375">
        <ele>1028.4000244140625</ele>
        <time>2016-08-12T20:58:15.000Z</time>
        <extensions>
          <ns3:TrackPointExtension>
            <ns3:atemp>16.0</ns3:atemp>
            <ns3:hr>128</ns3:hr>
          </ns3:TrackPointExtension>
        </extensions>
      </trkpt>
      <trkpt lat="-22.010782174766063690185546875" lon="166.4542827196419239044189453125">
        <ele>1028.199951171875</ele>
        <time>2016-08-12T20:58:16.000Z</time>
        <extensions>
          <ns3:TrackPointExtension>
            <ns3:atemp>16.0</ns3:atemp>
            <ns3:hr>128</ns3:hr>
          </ns3:TrackPointExtension>
        </extensions>
      </trkpt>
      <trkpt lat="-22.010817714035511016845703125" lon="166.45424441434442996978759765625">
        <ele>1028.199951171875</ele>
        <time>2016-08-12T20:58:18.000Z</time>
        <extensions>
          <ns3:TrackPointExtension>
            <ns3:atemp>16.0</ns3:atemp>
            <ns3:hr>128</ns3:hr>
          </ns3:TrackPointExtension>
        </extensions>
      </trkpt>
      <trkpt lat="-22.010836489498615264892578125" lon="166.4542235434055328369140625">
        <ele>1027.800048828125</ele>
        <time>2016-08-12T20:58:19.000Z</time>
        <extensions>
          <ns3:TrackPointExtension>
            <ns3:atemp>16.0</ns3:atemp>
            <ns3:hr>126</ns3:hr>
          </ns3:TrackPointExtension>
        </extensions>
      </trkpt>
      <trkpt lat="-22.01085216365754604339599609375" lon="166.45420334301888942718505859375">
        <ele>1027.4000244140625</ele>
        <time>2016-08-12T20:58:20.000Z</time>
        <extensions>
          <ns3:TrackPointExtension>
            <ns3:atemp>16.0</ns3:atemp>
            <ns3:hr>127</ns3:hr>
          </ns3:TrackPointExtension>
        </extensions>
      </trkpt>
      <trkpt lat="-22.01086775399744510650634765625" lon="166.4541861601173877716064453125">
        <ele>1026.4000244140625</ele>
        <time>2016-08-12T20:58:21.000Z</time>
        <extensions>
          <ns3:TrackPointExtension>
            <ns3:atemp>16.0</ns3:atemp>
            <ns3:hr>127</ns3:hr>
          </ns3:TrackPointExtension>
        </extensions>
      </trkpt>
      <trkpt lat="-22.01088585890829563140869140625" lon="166.45416595973074436187744140625">
        <ele>1026</ele>
        <time>2016-08-12T20:58:22.000Z</time>
        <extensions>
          <ns3:TrackPointExtension>
            <ns3:atemp>16.0</ns3:atemp>
            <ns3:hr>126</ns3:hr>
          </ns3:TrackPointExtension>
        </extensions>
      </trkpt>
      <trkpt lat="-22.0109020359814167022705078125" lon="166.45414366386830806732177734375">
        <ele>1025.800048828125</ele>
        <time>2016-08-12T20:58:23.000Z</time>
        <extensions>
          <ns3:TrackPointExtension>
            <ns3:atemp>16.0</ns3:atemp>
            <ns3:hr>126</ns3:hr>
          </ns3:TrackPointExtension>
        </extensions>
      </trkpt>
      <trkpt lat="-22.0109164528548717498779296875" lon="166.45412220619618892669677734375">
        <ele>1025.4000244140625</ele>
        <time>2016-08-12T20:58:24.000Z</time>
        <extensions>
          <ns3:TrackPointExtension>
            <ns3:atemp>16.0</ns3:atemp>
            <ns3:hr>126</ns3:hr>
          </ns3:TrackPointExtension>
        </extensions>
      </trkpt>
      <trkpt lat="-22.01092860661447048187255859375" lon="166.4540979824960231781005859375">
        <ele>1025</ele>
        <time>2016-08-12T20:58:25.000Z</time>
        <extensions>
          <ns3:TrackPointExtension>
            <ns3:atemp>16.0</ns3:atemp>
            <ns3:hr>126</ns3:hr>
          </ns3:TrackPointExtension>
        </extensions>
      </trkpt>
      <trkpt lat="-22.0109395869076251983642578125" lon="166.4540731720626354217529296875">
        <ele>1024.800048828125</ele>
        <time>2016-08-12T20:58:26.000Z</time>
        <extensions>
          <ns3:TrackPointExtension>
            <ns3:atemp>16.0</ns3:atemp>
            <ns3:hr>126</ns3:hr>
          </ns3:TrackPointExtension>
        </extensions>
      </trkpt>
      <trkpt lat="-22.0109476335346698760986328125" lon="166.45404878072440624237060546875">
        <ele>1024.4000244140625</ele>
        <time>2016-08-12T20:58:27.000Z</time>
        <extensions>
          <ns3:TrackPointExtension>
            <ns3:atemp>16.0</ns3:atemp>
            <ns3:hr>126</ns3:hr>
          </ns3:TrackPointExtension>
        </extensions>
      </trkpt>
      <trkpt lat="-22.01095023192465305328369140625" lon="166.4540205337107181549072265625">
        <ele>1024</ele>
        <time>2016-08-12T20:58:28.000Z</time>
        <extensions>
          <ns3:TrackPointExtension>
            <ns3:atemp>16.0</ns3:atemp>
            <ns3:hr>126</ns3:hr>
          </ns3:TrackPointExtension>
        </extensions>
      </trkpt>
      <trkpt lat="-22.0109486393630504608154296875" lon="166.45399094559252262115478515625">
        <ele>1024</ele>
        <time>2016-08-12T20:58:29.000Z</time>
        <extensions>
          <ns3:TrackPointExtension>
            <ns3:atemp>16.0</ns3:atemp>
            <ns3:hr>126</ns3:hr>
          </ns3:TrackPointExtension>
        </extensions>
      </trkpt>
      <trkpt lat="-22.01094570569694042205810546875" lon="166.45396328531205654144287109375">
        <ele>1023.5999755859375</ele>
        <time>2016-08-12T20:58:30.000Z</time>
        <extensions>
          <ns3:TrackPointExtension>
            <ns3:atemp>16.0</ns3:atemp>
            <ns3:hr>126</ns3:hr>
          </ns3:TrackPointExtension>
        </extensions>
      </trkpt>
      <trkpt lat="-22.01094101183116436004638671875" lon="166.4539360441267490386962890625">
        <ele>1023.20001220703125</ele>
        <time>2016-08-12T20:58:31.000Z</time>
        <extensions>
          <ns3:TrackPointExtension>
            <ns3:atemp>16.0</ns3:atemp>
            <ns3:hr>126</ns3:hr>
          </ns3:TrackPointExtension>
        </extensions>
      </trkpt>
      <trkpt lat="-22.01093363575637340545654296875" lon="166.45390830002725124359130859375">
        <ele>1023</ele>
        <time>2016-08-12T20:58:32.000Z</time>
        <extensions>
          <ns3:TrackPointExtension>
            <ns3:atemp>16.0</ns3:atemp>
            <ns3:hr>125</ns3:hr>
          </ns3:TrackPointExtension>
        </extensions>
      </trkpt>
      <trkpt lat="-22.01092399656772613525390625" lon="166.45388013683259487152099609375">
        <ele>1022.4000244140625</ele>
        <time>2016-08-12T20:58:33.000Z</time>
        <extensions>
          <ns3:TrackPointExtension>
            <ns3:atemp>16.0</ns3:atemp>
            <ns3:hr>125</ns3:hr>
          </ns3:TrackPointExtension>
        </extensions>
      </trkpt>
      <trkpt lat="-22.01091620139777660369873046875" lon="166.4538533985614776611328125">
        <ele>1022</ele>
        <time>2016-08-12T20:58:34.000Z</time>
        <extensions>
          <ns3:TrackPointExtension>
            <ns3:atemp>16.0</ns3:atemp>
            <ns3:hr>125</ns3:hr>
          </ns3:TrackPointExtension>
        </extensions>
      </trkpt>
      <trkpt lat="-22.0109085738658905029296875" lon="166.4538280852138996124267578125">
        <ele>1021.79998779296875</ele>
        <time>2016-08-12T20:58:35.000Z</time>
        <extensions>
          <ns3:TrackPointExtension>
            <ns3:atemp>16.0</ns3:atemp>
            <ns3:hr>125</ns3:hr>
          </ns3:TrackPointExtension>
        </extensions>
      </trkpt>
      <trkpt lat="-22.0108996890485286712646484375" lon="166.45380319096148014068603515625">
        <ele>1021.4000244140625</ele>
        <time>2016-08-12T20:58:36.000Z</time>
        <extensions>
          <ns3:TrackPointExtension>
            <ns3:atemp>16.0</ns3:atemp>
            <ns3:hr>124</ns3:hr>
          </ns3:TrackPointExtension>
        </extensions>
      </trkpt>
      <trkpt lat="-22.0108728669583797454833984375" lon="166.45369824953377246856689453125">
        <ele>1021.4000244140625</ele>
        <time>2016-08-12T20:58:40.000Z</time>
        <extensions>
          <ns3:TrackPointExtension>
            <ns3:atemp>16.0</ns3:atemp>
            <ns3:hr>125</ns3:hr>
          </ns3:TrackPointExtension>
        </extensions>
      </trkpt>
      <trkpt lat="-22.0108710229396820068359375" lon="166.45367276854813098907470703125">
        <ele>1021.4000244140625</ele>
        <time>2016-08-12T20:58:41.000Z</time>
        <extensions>
          <ns3:TrackPointExtension>
            <ns3:atemp>16.0</ns3:atemp>
            <ns3:hr>124</ns3:hr>
          </ns3:TrackPointExtension>
        </extensions>
      </trkpt>
      <trkpt lat="-22.01086976565420627593994140625" lon="166.45364829339087009429931640625">
        <ele>1021.20001220703125</ele>
        <time>2016-08-12T20:58:42.000Z</time>
        <extensions>
          <ns3:TrackPointExtension>
            <ns3:atemp>16.0</ns3:atemp>
            <ns3:hr>125</ns3:hr>
          </ns3:TrackPointExtension>
        </extensions>
      </trkpt>
      <trkpt lat="-22.01086674816906452178955078125" lon="166.45362214185297489166259765625">
        <ele>1020.5999755859375</ele>
        <time>2016-08-12T20:58:43.000Z</time>
        <extensions>
          <ns3:TrackPointExtension>
            <ns3:atemp>16.0</ns3:atemp>
            <ns3:hr>124</ns3:hr>
          </ns3:TrackPointExtension>
        </extensions>
      </trkpt>
      <trkpt lat="-22.01086456887423992156982421875" lon="166.45359565503895282745361328125">
        <ele>1020</ele>
        <time>2016-08-12T20:58:44.000Z</time>
        <extensions>
          <ns3:TrackPointExtension>
            <ns3:atemp>16.0</ns3:atemp>
            <ns3:hr>124</ns3:hr>
          </ns3:TrackPointExtension>
        </extensions>
      </trkpt>
      <trkpt lat="-22.01086088083684444427490234375" lon="166.453573442995548248291015625">
        <ele>1019.5999755859375</ele>
        <time>2016-08-12T20:58:45.000Z</time>
        <extensions>
          <ns3:TrackPointExtension>
            <ns3:atemp>16.0</ns3:atemp>
            <ns3:hr>125</ns3:hr>
          </ns3:TrackPointExtension>
        </extensions>
      </trkpt>
      <trkpt lat="-22.01085551641881465911865234375" lon="166.45354905165731906890869140625">
        <ele>1019</ele>
        <time>2016-08-12T20:58:46.000Z</time>
        <extensions>
          <ns3:TrackPointExtension>
            <ns3:atemp>16.0</ns3:atemp>
            <ns3:hr>124</ns3:hr>
          </ns3:TrackPointExtension>
        </extensions>
      </trkpt>
      <trkpt lat="-22.01085166074335575103759765625" lon="166.45352105610072612762451171875">
        <ele>1018.5999755859375</ele>
        <time>2016-08-12T20:58:47.000Z</time>
        <extensions>
          <ns3:TrackPointExtension>
            <ns3:atemp>16.0</ns3:atemp>
            <ns3:hr>125</ns3:hr>
          </ns3:TrackPointExtension>
        </extensions>
      </trkpt>
      <trkpt lat="-22.0108477212488651275634765625" lon="166.45349490456283092498779296875">
        <ele>1018.20001220703125</ele>
        <time>2016-08-12T20:58:48.000Z</time>
        <extensions>
          <ns3:TrackPointExtension>
            <ns3:atemp>16.0</ns3:atemp>
            <ns3:hr>125</ns3:hr>
          </ns3:TrackPointExtension>
        </extensions>
      </trkpt>
      <trkpt lat="-22.01084428466856479644775390625" lon="166.453468836843967437744140625">
        <ele>1017.79998779296875</ele>
        <time>2016-08-12T20:58:49.000Z</time>
        <extensions>
          <ns3:TrackPointExtension>
            <ns3:atemp>16.0</ns3:atemp>
            <ns3:hr>125</ns3:hr>
          </ns3:TrackPointExtension>
        </extensions>
      </trkpt>
      <trkpt lat="-22.01084193773567676544189453125" lon="166.4534415118396282196044921875">
        <ele>1017.4000244140625</ele>
        <time>2016-08-12T20:58:50.000Z</time>
        <extensions>
          <ns3:TrackPointExtension>
            <ns3:atemp>16.0</ns3:atemp>
            <ns3:hr>125</ns3:hr>
          </ns3:TrackPointExtension>
        </extensions>
      </trkpt>
      <trkpt lat="-22.010840512812137603759765625" lon="166.4534160308539867401123046875">
        <ele>1017.20001220703125</ele>
        <time>2016-08-12T20:58:51.000Z</time>
        <extensions>
          <ns3:TrackPointExtension>
            <ns3:atemp>16.0</ns3:atemp>
            <ns3:hr>125</ns3:hr>
          </ns3:TrackPointExtension>
        </extensions>
      </trkpt>
      <trkpt lat="-22.01083573512732982635498046875" lon="166.4533912204205989837646484375">
        <ele>1016.79998779296875</ele>
        <time>2016-08-12T20:58:52.000Z</time>
        <extensions>
          <ns3:TrackPointExtension>
            <ns3:atemp>16.0</ns3:atemp>
            <ns3:hr>125</ns3:hr>
          </ns3:TrackPointExtension>
        </extensions>
      </trkpt>
      <trkpt lat="-22.01082701794803142547607421875" lon="166.45336582325398921966552734375">
        <ele>1016.5999755859375</ele>
        <time>2016-08-12T20:58:53.000Z</time>
        <extensions>
          <ns3:TrackPointExtension>
            <ns3:atemp>16.0</ns3:atemp>
            <ns3:hr>126</ns3:hr>
          </ns3:TrackPointExtension>
        </extensions>
      </trkpt>
      <trkpt lat="-22.010818384587764739990234375" lon="166.453341431915760040283203125">
        <ele>1016.4000244140625</ele>
        <time>2016-08-12T20:58:54.000Z</time>
        <extensions>
          <ns3:TrackPointExtension>
            <ns3:atemp>16.0</ns3:atemp>
            <ns3:hr>125</ns3:hr>
          </ns3:TrackPointExtension>
        </extensions>
      </trkpt>
      <trkpt lat="-22.01080488972365856170654296875" lon="166.4533198066055774688720703125">
        <ele>1016.20001220703125</ele>
        <time>2016-08-12T20:58:55.000Z</time>
        <extensions>
          <ns3:TrackPointExtension>
            <ns3:atemp>16.0</ns3:atemp>
            <ns3:hr>125</ns3:hr>
          </ns3:TrackPointExtension>
        </extensions>
      </trkpt>
      <trkpt lat="-22.0107860304415225982666015625" lon="166.45330178551375865936279296875">
        <ele>1016</ele>
        <time>2016-08-12T20:58:56.000Z</time>
        <extensions>
          <ns3:TrackPointExtension>
            <ns3:atemp>16.0</ns3:atemp>
            <ns3:hr>125</ns3:hr>
          </ns3:TrackPointExtension>
        </extensions>
      </trkpt>
      <trkpt lat="-22.0107664167881011962890625" lon="166.45328720100224018096923828125">
        <ele>1015.79998779296875</ele>
        <time>2016-08-12T20:58:57.000Z</time>
        <extensions>
          <ns3:TrackPointExtension>
            <ns3:atemp>16.0</ns3:atemp>
            <ns3:hr>125</ns3:hr>
          </ns3:TrackPointExtension>
        </extensions>
      </trkpt>
      <trkpt lat="-22.01074336655437946319580078125" lon="166.453274376690387725830078125">
        <ele>1015.5999755859375</ele>
        <time>2016-08-12T20:58:58.000Z</time>
        <extensions>
          <ns3:TrackPointExtension>
            <ns3:atemp>16.0</ns3:atemp>
            <ns3:hr>125</ns3:hr>
          </ns3:TrackPointExtension>
        </extensions>
      </trkpt>
      <trkpt lat="-22.0107181370258331298828125" lon="166.45326666533946990966796875">
        <ele>1015.4000244140625</ele>
        <time>2016-08-12T20:58:59.000Z</time>
        <extensions>
          <ns3:TrackPointExtension>
            <ns3:atemp>16.0</ns3:atemp>
            <ns3:hr>125</ns3:hr>
          </ns3:TrackPointExtension>
        </extensions>
      </trkpt>
      <trkpt lat="-22.01069533824920654296875" lon="166.4532659947872161865234375">
        <ele>1015</ele>
        <time>2016-08-12T20:59:00.000Z</time>
        <extensions>
          <ns3:TrackPointExtension>
            <ns3:atemp>16.0</ns3:atemp>
            <ns3:hr>125</ns3:hr>
          </ns3:TrackPointExtension>
        </extensions>
      </trkpt>
      <trkpt lat="-22.01067186892032623291015625" lon="166.4532673358917236328125">
        <ele>1014.79998779296875</ele>
        <time>2016-08-12T20:59:01.000Z</time>
        <extensions>
          <ns3:TrackPointExtension>
            <ns3:atemp>16.0</ns3:atemp>
            <ns3:hr>125</ns3:hr>
          </ns3:TrackPointExtension>
        </extensions>
      </trkpt>
      <trkpt lat="-22.0106455497443675994873046875" lon="166.45327471196651458740234375">
        <ele>1014.79998779296875</ele>
        <time>2016-08-12T20:59:02.000Z</time>
        <extensions>
          <ns3:TrackPointExtension>
            <ns3:atemp>16.0</ns3:atemp>
            <ns3:hr>125</ns3:hr>
          </ns3:TrackPointExtension>
        </extensions>
      </trkpt>
      <trkpt lat="-22.01062300242483615875244140625" lon="166.4532849378883838653564453125">
        <ele>1014.5999755859375</ele>
        <time>2016-08-12T20:59:03.000Z</time>
        <extensions>
          <ns3:TrackPointExtension>
            <ns3:atemp>16.0</ns3:atemp>
            <ns3:hr>125</ns3:hr>
          </ns3:TrackPointExtension>
        </extensions>
      </trkpt>
      <trkpt lat="-22.01060204766690731048583984375" lon="166.45330396480858325958251953125">
        <ele>1014</ele>
        <time>2016-08-12T20:59:04.000Z</time>
        <extensions>
          <ns3:TrackPointExtension>
            <ns3:atemp>16.0</ns3:atemp>
            <ns3:hr>125</ns3:hr>
          </ns3:TrackPointExtension>
        </extensions>
      </trkpt>
      <trkpt lat="-22.0105825178325176239013671875" lon="166.45332240499556064605712890625">
        <ele>1013.20001220703125</ele>
        <time>2016-08-12T20:59:05.000Z</time>
        <extensions>
          <ns3:TrackPointExtension>
            <ns3:atemp>16.0</ns3:atemp>
            <ns3:hr>125</ns3:hr>
          </ns3:TrackPointExtension>
        </extensions>
      </trkpt>
      <trkpt lat="-22.01051135547459125518798828125" lon="166.453431285917758941650390625">
        <ele>1013</ele>
        <time>2016-08-12T20:59:10.000Z</time>
        <extensions>
          <ns3:TrackPointExtension>
            <ns3:atemp>16.0</ns3:atemp>
            <ns3:hr>125</ns3:hr>
          </ns3:TrackPointExtension>
        </extensions>
      </trkpt>
      <trkpt lat="-22.010501213371753692626953125" lon="166.45345668308436870574951171875">
        <ele>1012.20001220703125</ele>
        <time>2016-08-12T20:59:11.000Z</time>
        <extensions>
          <ns3:TrackPointExtension>
            <ns3:atemp>16.0</ns3:atemp>
            <ns3:hr>126</ns3:hr>
          </ns3:TrackPointExtension>
        </extensions>
      </trkpt>
      <trkpt lat="-22.01049056835472583770751953125" lon="166.45348132587969303131103515625">
        <ele>1011.20001220703125</ele>
        <time>2016-08-12T20:59:12.000Z</time>
        <extensions>
          <ns3:TrackPointExtension>
            <ns3:atemp>16.0</ns3:atemp>
            <ns3:hr>126</ns3:hr>
          </ns3:TrackPointExtension>
        </extensions>
      </trkpt>
      <trkpt lat="-22.01048268936574459075927734375" lon="166.453505717217922210693359375">
        <ele>1010.5999755859375</ele>
        <time>2016-08-12T20:59:13.000Z</time>
        <extensions>
          <ns3:TrackPointExtension>
            <ns3:atemp>16.0</ns3:atemp>
            <ns3:hr>126</ns3:hr>
          </ns3:TrackPointExtension>
        </extensions>
      </trkpt>
      <trkpt lat="-22.0104728825390338897705078125" lon="166.45352876745164394378662109375">
        <ele>1010.20001220703125</ele>
        <time>2016-08-12T20:59:14.000Z</time>
        <extensions>
          <ns3:TrackPointExtension>
            <ns3:atemp>16.0</ns3:atemp>
            <ns3:hr>126</ns3:hr>
          </ns3:TrackPointExtension>
        </extensions>
      </trkpt>
      <trkpt lat="-22.010462321341037750244140625" lon="166.453551314771175384521484375">
        <ele>1009.5999755859375</ele>
        <time>2016-08-12T20:59:15.000Z</time>
        <extensions>
          <ns3:TrackPointExtension>
            <ns3:atemp>16.0</ns3:atemp>
            <ns3:hr>126</ns3:hr>
          </ns3:TrackPointExtension>
        </extensions>
      </trkpt>
      <trkpt lat="-22.010452933609485626220703125" lon="166.45357570610940456390380859375">
        <ele>1009.4000244140625</ele>
        <time>2016-08-12T20:59:16.000Z</time>
        <extensions>
          <ns3:TrackPointExtension>
            <ns3:atemp>17.0</ns3:atemp>
            <ns3:hr>126</ns3:hr>
          </ns3:TrackPointExtension>
        </extensions>
      </trkpt>
      <trkpt lat="-22.01045117340981960296630859375" lon="166.45360034890472888946533203125">
        <ele>1009</ele>
        <time>2016-08-12T20:59:17.000Z</time>
        <extensions>
          <ns3:TrackPointExtension>
            <ns3:atemp>17.0</ns3:atemp>
            <ns3:hr>127</ns3:hr>
          </ns3:TrackPointExtension>
        </extensions>
      </trkpt>
      <trkpt lat="-22.01044790446758270263671875" lon="166.4536249078810214996337890625">
        <ele>1008.79998779296875</ele>
        <time>2016-08-12T20:59:18.000Z</time>
        <extensions>
          <ns3:TrackPointExtension>
            <ns3:atemp>17.0</ns3:atemp>
            <ns3:hr>126</ns3:hr>
          </ns3:TrackPointExtension>
        </extensions>
      </trkpt>
      <trkpt lat="-22.01043960638344287872314453125" lon="166.45364980213344097137451171875">
        <ele>1008.4000244140625</ele>
        <time>2016-08-12T20:59:19.000Z</time>
        <extensions>
          <ns3:TrackPointExtension>
            <ns3:atemp>17.0</ns3:atemp>
            <ns3:hr>126</ns3:hr>
          </ns3:TrackPointExtension>
        </extensions>
      </trkpt>
      <trkpt lat="-22.0104262791574001312255859375" lon="166.45367410965263843536376953125">
        <ele>1008.20001220703125</ele>
        <time>2016-08-12T20:59:20.000Z</time>
        <extensions>
          <ns3:TrackPointExtension>
            <ns3:atemp>17.0</ns3:atemp>
            <ns3:hr>127</ns3:hr>
          </ns3:TrackPointExtension>
        </extensions>
      </trkpt>
      <trkpt lat="-22.010414041578769683837890625" lon="166.4536964893341064453125">
        <ele>1008</ele>
        <time>2016-08-12T20:59:21.000Z</time>
        <extensions>
          <ns3:TrackPointExtension>
            <ns3:atemp>17.0</ns3:atemp>
            <ns3:hr>126</ns3:hr>
          </ns3:TrackPointExtension>
        </extensions>
      </trkpt>
      <trkpt lat="-22.01040239073336124420166015625" lon="166.4537201263010501861572265625">
        <ele>1008</ele>
        <time>2016-08-12T20:59:22.000Z</time>
        <extensions>
          <ns3:TrackPointExtension>
            <ns3:atemp>17.0</ns3:atemp>
            <ns3:hr>127</ns3:hr>
          </ns3:TrackPointExtension>
        </extensions>
      </trkpt>
      <trkpt lat="-22.01038948260247707366943359375" lon="166.453742422163486480712890625">
        <ele>1007.5999755859375</ele>
        <time>2016-08-12T20:59:23.000Z</time>
        <extensions>
          <ns3:TrackPointExtension>
            <ns3:atemp>17.0</ns3:atemp>
            <ns3:hr>126</ns3:hr>
          </ns3:TrackPointExtension>
        </extensions>
      </trkpt>
      <trkpt lat="-22.010375820100307464599609375" lon="166.45376748405396938323974609375">
        <ele>1007.4000244140625</ele>
        <time>2016-08-12T20:59:24.000Z</time>
        <extensions>
          <ns3:TrackPointExtension>
            <ns3:atemp>17.0</ns3:atemp>
            <ns3:hr>126</ns3:hr>
          </ns3:TrackPointExtension>
        </extensions>
      </trkpt>
      <trkpt lat="-22.0103605650365352630615234375" lon="166.4537932164967060089111328125">
        <ele>1007.20001220703125</ele>
        <time>2016-08-12T20:59:25.000Z</time>
        <extensions>
          <ns3:TrackPointExtension>
            <ns3:atemp>17.0</ns3:atemp>
            <ns3:hr>126</ns3:hr>
          </ns3:TrackPointExtension>
        </extensions>
      </trkpt>
      <trkpt lat="-22.010345645248889923095703125" lon="166.45381593145430088043212890625">
        <ele>1006.79998779296875</ele>
        <time>2016-08-12T20:59:26.000Z</time>
        <extensions>
          <ns3:TrackPointExtension>
            <ns3:atemp>17.0</ns3:atemp>
            <ns3:hr>126</ns3:hr>
          </ns3:TrackPointExtension>
        </extensions>
      </trkpt>
      <trkpt lat="-22.0103283785283565521240234375" lon="166.453835964202880859375">
        <ele>1006.5999755859375</ele>
        <time>2016-08-12T20:59:27.000Z</time>
        <extensions>
          <ns3:TrackPointExtension>
            <ns3:atemp>17.0</ns3:atemp>
            <ns3:hr>127</ns3:hr>
          </ns3:TrackPointExtension>
        </extensions>
      </trkpt>
      <trkpt lat="-22.0103102736175060272216796875" lon="166.45385281182825565338134765625">
        <ele>1006.20001220703125</ele>
        <time>2016-08-12T20:59:28.000Z</time>
        <extensions>
          <ns3:TrackPointExtension>
            <ns3:atemp>17.0</ns3:atemp>
            <ns3:hr>126</ns3:hr>
          </ns3:TrackPointExtension>
        </extensions>
      </trkpt>
      <trkpt lat="-22.0102921687066555023193359375" lon="166.45386856980621814727783203125">
        <ele>1005.79998779296875</ele>
        <time>2016-08-12T20:59:29.000Z</time>
        <extensions>
          <ns3:TrackPointExtension>
            <ns3:atemp>17.0</ns3:atemp>
            <ns3:hr>126</ns3:hr>
          </ns3:TrackPointExtension>
        </extensions>
      </trkpt>
      <trkpt lat="-22.0102713815867900848388671875" lon="166.453883238136768341064453125">
        <ele>1005.4000244140625</ele>
        <time>2016-08-12T20:59:30.000Z</time>
        <extensions>
          <ns3:TrackPointExtension>
            <ns3:atemp>17.0</ns3:atemp>
            <ns3:hr>126</ns3:hr>
          </ns3:TrackPointExtension>
        </extensions>
      </trkpt>
      <trkpt lat="-22.01025118120014667510986328125" lon="166.45389673300087451934814453125">
        <ele>1005.4000244140625</ele>
        <time>2016-08-12T20:59:31.000Z</time>
        <extensions>
          <ns3:TrackPointExtension>
            <ns3:atemp>17.0</ns3:atemp>
            <ns3:hr>126</ns3:hr>
          </ns3:TrackPointExtension>
        </extensions>
      </trkpt>
      <trkpt lat="-22.01023072935640811920166015625" lon="166.45390830002725124359130859375">
        <ele>1005.20001220703125</ele>
        <time>2016-08-12T20:59:32.000Z</time>
        <extensions>
          <ns3:TrackPointExtension>
            <ns3:atemp>17.0</ns3:atemp>
            <ns3:hr>125</ns3:hr>
          </ns3:TrackPointExtension>
        </extensions>
      </trkpt>
      <trkpt lat="-22.01020910404622554779052734375" lon="166.45391953177750110626220703125">
        <ele>1005.20001220703125</ele>
        <time>2016-08-12T20:59:33.000Z</time>
        <extensions>
          <ns3:TrackPointExtension>
            <ns3:atemp>17.0</ns3:atemp>
            <ns3:hr>125</ns3:hr>
          </ns3:TrackPointExtension>
        </extensions>
      </trkpt>
      <trkpt lat="-22.01018747873604297637939453125" lon="166.45392774604260921478271484375">
        <ele>1004.5999755859375</ele>
        <time>2016-08-12T20:59:34.000Z</time>
        <extensions>
          <ns3:TrackPointExtension>
            <ns3:atemp>17.0</ns3:atemp>
            <ns3:hr>126</ns3:hr>
          </ns3:TrackPointExtension>
        </extensions>
      </trkpt>
      <trkpt lat="-22.0101640932261943817138671875" lon="166.45393143408000469207763671875">
        <ele>1004.20001220703125</ele>
        <time>2016-08-12T20:59:35.000Z</time>
        <extensions>
          <ns3:TrackPointExtension>
            <ns3:atemp>17.0</ns3:atemp>
            <ns3:hr>125</ns3:hr>
          </ns3:TrackPointExtension>
        </extensions>
      </trkpt>
      <trkpt lat="-22.0101389475166797637939453125" lon="166.45393277518451213836669921875">
        <ele>1004.20001220703125</ele>
        <time>2016-08-12T20:59:36.000Z</time>
        <extensions>
          <ns3:TrackPointExtension>
            <ns3:atemp>17.0</ns3:atemp>
            <ns3:hr>126</ns3:hr>
          </ns3:TrackPointExtension>
        </extensions>
      </trkpt>
      <trkpt lat="-22.01011321507394313812255859375" lon="166.45393260754644870758056640625">
        <ele>1003.79998779296875</ele>
        <time>2016-08-12T20:59:37.000Z</time>
        <extensions>
          <ns3:TrackPointExtension>
            <ns3:atemp>17.0</ns3:atemp>
            <ns3:hr>125</ns3:hr>
          </ns3:TrackPointExtension>
        </extensions>
      </trkpt>
      <trkpt lat="-22.01008974574506282806396484375" lon="166.45393361337482929229736328125">
        <ele>1003.5999755859375</ele>
        <time>2016-08-12T20:59:38.000Z</time>
        <extensions>
          <ns3:TrackPointExtension>
            <ns3:atemp>17.0</ns3:atemp>
            <ns3:hr>126</ns3:hr>
          </ns3:TrackPointExtension>
        </extensions>
      </trkpt>
      <trkpt lat="-22.0100671984255313873291015625" lon="166.453933529555797576904296875">
        <ele>1003.4000244140625</ele>
        <time>2016-08-12T20:59:39.000Z</time>
        <extensions>
          <ns3:TrackPointExtension>
            <ns3:atemp>17.0</ns3:atemp>
            <ns3:hr>126</ns3:hr>
          </ns3:TrackPointExtension>
        </extensions>
      </trkpt>
      <trkpt lat="-22.01004297472536563873291015625" lon="166.453932188451290130615234375">
        <ele>1003.20001220703125</ele>
        <time>2016-08-12T20:59:40.000Z</time>
        <extensions>
          <ns3:TrackPointExtension>
            <ns3:atemp>17.0</ns3:atemp>
            <ns3:hr>126</ns3:hr>
          </ns3:TrackPointExtension>
        </extensions>
      </trkpt>
      <trkpt lat="-22.010019086301326751708984375" lon="166.4539311826229095458984375">
        <ele>1002.79998779296875</ele>
        <time>2016-08-12T20:59:41.000Z</time>
        <extensions>
          <ns3:TrackPointExtension>
            <ns3:atemp>17.0</ns3:atemp>
            <ns3:hr>126</ns3:hr>
          </ns3:TrackPointExtension>
        </extensions>
      </trkpt>
      <trkpt lat="-22.00999997556209564208984375" lon="166.45392942242324352264404296875">
        <ele>1002.4000244140625</ele>
        <time>2016-08-12T20:59:42.000Z</time>
        <extensions>
          <ns3:TrackPointExtension>
            <ns3:atemp>17.0</ns3:atemp>
            <ns3:hr>126</ns3:hr>
          </ns3:TrackPointExtension>
        </extensions>
      </trkpt>
      <trkpt lat="-22.0099790208041667938232421875" lon="166.4539266563951969146728515625">
        <ele>1001.79998779296875</ele>
        <time>2016-08-12T20:59:43.000Z</time>
        <extensions>
          <ns3:TrackPointExtension>
            <ns3:atemp>17.0</ns3:atemp>
            <ns3:hr>126</ns3:hr>
          </ns3:TrackPointExtension>
        </extensions>
      </trkpt>
      <trkpt lat="-22.009956724941730499267578125" lon="166.45392472855746746063232421875">
        <ele>1001.5999755859375</ele>
        <time>2016-08-12T20:59:44.000Z</time>
        <extensions>
          <ns3:TrackPointExtension>
            <ns3:atemp>17.0</ns3:atemp>
            <ns3:hr>126</ns3:hr>
          </ns3:TrackPointExtension>
        </extensions>
      </trkpt>
      <trkpt lat="-22.00993426144123077392578125" lon="166.4539199508726596832275390625">
        <ele>1001.20001220703125</ele>
        <time>2016-08-12T20:59:45.000Z</time>
        <extensions>
          <ns3:TrackPointExtension>
            <ns3:atemp>17.0</ns3:atemp>
            <ns3:hr>127</ns3:hr>
          </ns3:TrackPointExtension>
        </extensions>
      </trkpt>
      <trkpt lat="-22.009910456836223602294921875" lon="166.4539199508726596832275390625">
        <ele>1001</ele>
        <time>2016-08-12T20:59:46.000Z</time>
        <extensions>
          <ns3:TrackPointExtension>
            <ns3:atemp>17.0</ns3:atemp>
            <ns3:hr>126</ns3:hr>
          </ns3:TrackPointExtension>
        </extensions>
      </trkpt>
      <trkpt lat="-22.009887993335723876953125" lon="166.4539152570068836212158203125">
        <ele>1000.79998779296875</ele>
        <time>2016-08-12T20:59:47.000Z</time>
        <extensions>
          <ns3:TrackPointExtension>
            <ns3:atemp>17.0</ns3:atemp>
            <ns3:hr>126</ns3:hr>
          </ns3:TrackPointExtension>
        </extensions>
      </trkpt>
      <trkpt lat="-22.00986527837812900543212890625" lon="166.4539108984172344207763671875">
        <ele>1000.5999755859375</ele>
        <time>2016-08-12T20:59:48.000Z</time>
        <extensions>
          <ns3:TrackPointExtension>
            <ns3:atemp>17.0</ns3:atemp>
            <ns3:hr>126</ns3:hr>
          </ns3:TrackPointExtension>
        </extensions>
      </trkpt>
      <trkpt lat="-22.0098402164876461029052734375" lon="166.45390628837049007415771484375">
        <ele>1000.20001220703125</ele>
        <time>2016-08-12T20:59:49.000Z</time>
        <extensions>
          <ns3:TrackPointExtension>
            <ns3:atemp>17.0</ns3:atemp>
            <ns3:hr>127</ns3:hr>
          </ns3:TrackPointExtension>
        </extensions>
      </trkpt>
      <trkpt lat="-22.009815238416194915771484375" lon="166.4539045281708240509033203125">
        <ele>999.79998779296875</ele>
        <time>2016-08-12T20:59:50.000Z</time>
        <extensions>
          <ns3:TrackPointExtension>
            <ns3:atemp>17.0</ns3:atemp>
            <ns3:hr>127</ns3:hr>
          </ns3:TrackPointExtension>
        </extensions>
      </trkpt>
      <trkpt lat="-22.00979269109666347503662109375" lon="166.45390444435179233551025390625">
        <ele>999.4000244140625</ele>
        <time>2016-08-12T20:59:51.000Z</time>
        <extensions>
          <ns3:TrackPointExtension>
            <ns3:atemp>17.0</ns3:atemp>
            <ns3:hr>127</ns3:hr>
          </ns3:TrackPointExtension>
        </extensions>
      </trkpt>
      <trkpt lat="-22.009768299758434295654296875" lon="166.45390595309436321258544921875">
        <ele>999.20001220703125</ele>
        <time>2016-08-12T20:59:52.000Z</time>
        <extensions>
          <ns3:TrackPointExtension>
            <ns3:atemp>17.0</ns3:atemp>
            <ns3:hr>127</ns3:hr>
          </ns3:TrackPointExtension>
        </extensions>
      </trkpt>
      <trkpt lat="-22.00974340550601482391357421875" lon="166.45390930585563182830810546875">
        <ele>998.79998779296875</ele>
        <time>2016-08-12T20:59:53.000Z</time>
        <extensions>
          <ns3:TrackPointExtension>
            <ns3:atemp>17.0</ns3:atemp>
            <ns3:hr>127</ns3:hr>
          </ns3:TrackPointExtension>
        </extensions>
      </trkpt>
      <trkpt lat="-22.00972295366227626800537109375" lon="166.4539150893688201904296875">
        <ele>998.5999755859375</ele>
        <time>2016-08-12T20:59:54.000Z</time>
        <extensions>
          <ns3:TrackPointExtension>
            <ns3:atemp>17.0</ns3:atemp>
            <ns3:hr>127</ns3:hr>
          </ns3:TrackPointExtension>
        </extensions>
      </trkpt>
      <trkpt lat="-22.00970166362822055816650390625" lon="166.4539219625294208526611328125">
        <ele>998.20001220703125</ele>
        <time>2016-08-12T20:59:55.000Z</time>
        <extensions>
          <ns3:TrackPointExtension>
            <ns3:atemp>17.0</ns3:atemp>
            <ns3:hr>128</ns3:hr>
          </ns3:TrackPointExtension>
        </extensions>
      </trkpt>
      <trkpt lat="-22.00967903248965740203857421875" lon="166.45392422564327716827392578125">
        <ele>998</ele>
        <time>2016-08-12T20:59:56.000Z</time>
        <extensions>
          <ns3:TrackPointExtension>
            <ns3:atemp>17.0</ns3:atemp>
            <ns3:hr>128</ns3:hr>
          </ns3:TrackPointExtension>
        </extensions>
      </trkpt>
      <trkpt lat="-22.00965807773172855377197265625" lon="166.45392573438584804534912109375">
        <ele>997.79998779296875</ele>
        <time>2016-08-12T20:59:57.000Z</time>
        <extensions>
          <ns3:TrackPointExtension>
            <ns3:atemp>17.0</ns3:atemp>
            <ns3:hr>128</ns3:hr>
          </ns3:TrackPointExtension>
        </extensions>
      </trkpt>
      <trkpt lat="-22.00963477604091167449951171875" lon="166.4539269916713237762451171875">
        <ele>997.5999755859375</ele>
        <time>2016-08-12T20:59:58.000Z</time>
        <extensions>
          <ns3:TrackPointExtension>
            <ns3:atemp>17.0</ns3:atemp>
            <ns3:hr>128</ns3:hr>
          </ns3:TrackPointExtension>
        </extensions>
      </trkpt>
      <trkpt lat="-22.00960996560752391815185546875" lon="166.4539273269474506378173828125">
        <ele>997.4000244140625</ele>
        <time>2016-08-12T20:59:59.000Z</time>
        <extensions>
          <ns3:TrackPointExtension>
            <ns3:atemp>17.0</ns3:atemp>
            <ns3:hr>128</ns3:hr>
          </ns3:TrackPointExtension>
        </extensions>
      </trkpt>
      <trkpt lat="-22.00958549045026302337646484375" lon="166.45392707549035549163818359375">
        <ele>996.79998779296875</ele>
        <time>2016-08-12T21:00:00.000Z</time>
        <extensions>
          <ns3:TrackPointExtension>
            <ns3:atemp>17.0</ns3:atemp>
            <ns3:hr>128</ns3:hr>
          </ns3:TrackPointExtension>
        </extensions>
      </trkpt>
      <trkpt lat="-22.00956084765493869781494140625" lon="166.4539239741861820220947265625">
        <ele>996.5999755859375</ele>
        <time>2016-08-12T21:00:01.000Z</time>
        <extensions>
          <ns3:TrackPointExtension>
            <ns3:atemp>17.0</ns3:atemp>
            <ns3:hr>128</ns3:hr>
          </ns3:TrackPointExtension>
        </extensions>
      </trkpt>
      <trkpt lat="-22.0095374621450901031494140625" lon="166.45392087288200855255126953125">
        <ele>996.20001220703125</ele>
        <time>2016-08-12T21:00:02.000Z</time>
        <extensions>
          <ns3:TrackPointExtension>
            <ns3:atemp>17.0</ns3:atemp>
            <ns3:hr>128</ns3:hr>
          </ns3:TrackPointExtension>
        </extensions>
      </trkpt>
      <trkpt lat="-22.00951659120619297027587890625" lon="166.453923471271991729736328125">
        <ele>996</ele>
        <time>2016-08-12T21:00:03.000Z</time>
        <extensions>
          <ns3:TrackPointExtension>
            <ns3:atemp>17.0</ns3:atemp>
            <ns3:hr>128</ns3:hr>
          </ns3:TrackPointExtension>
        </extensions>
      </trkpt>
      <trkpt lat="-22.00949714519083499908447265625" lon="166.4539330266416072845458984375">
        <ele>996</ele>
        <time>2016-08-12T21:00:04.000Z</time>
        <extensions>
          <ns3:TrackPointExtension>
            <ns3:atemp>17.0</ns3:atemp>
            <ns3:hr>128</ns3:hr>
          </ns3:TrackPointExtension>
        </extensions>
      </trkpt>
      <trkpt lat="-22.00947753153741359710693359375" lon="166.4539467729628086090087890625">
        <ele>995.79998779296875</ele>
        <time>2016-08-12T21:00:05.000Z</time>
        <extensions>
          <ns3:TrackPointExtension>
            <ns3:atemp>17.0</ns3:atemp>
            <ns3:hr>128</ns3:hr>
          </ns3:TrackPointExtension>
        </extensions>
      </trkpt>
      <trkpt lat="-22.00945557095110416412353515625" lon="166.45395909436047077178955078125">
        <ele>995.5999755859375</ele>
        <time>2016-08-12T21:00:06.000Z</time>
        <extensions>
          <ns3:TrackPointExtension>
            <ns3:atemp>17.0</ns3:atemp>
            <ns3:hr>128</ns3:hr>
          </ns3:TrackPointExtension>
        </extensions>
      </trkpt>
      <trkpt lat="-22.00943176634609699249267578125" lon="166.453970409929752349853515625">
        <ele>995.4000244140625</ele>
        <time>2016-08-12T21:00:07.000Z</time>
        <extensions>
          <ns3:TrackPointExtension>
            <ns3:atemp>17.0</ns3:atemp>
            <ns3:hr>128</ns3:hr>
          </ns3:TrackPointExtension>
        </extensions>
      </trkpt>
      <trkpt lat="-22.00940628536045551300048828125" lon="166.45397753454744815826416015625">
        <ele>995</ele>
        <time>2016-08-12T21:00:08.000Z</time>
        <extensions>
          <ns3:TrackPointExtension>
            <ns3:atemp>17.0</ns3:atemp>
            <ns3:hr>128</ns3:hr>
          </ns3:TrackPointExtension>
        </extensions>
      </trkpt>
      <trkpt lat="-22.0093812234699726104736328125" lon="166.45398608408868312835693359375">
        <ele>995</ele>
        <time>2016-08-12T21:00:09.000Z</time>
        <extensions>
          <ns3:TrackPointExtension>
            <ns3:atemp>17.0</ns3:atemp>
            <ns3:hr>128</ns3:hr>
          </ns3:TrackPointExtension>
        </extensions>
      </trkpt>
      <trkpt lat="-22.0093570835888385772705078125" lon="166.45398692227900028228759765625">
        <ele>994.79998779296875</ele>
        <time>2016-08-12T21:00:10.000Z</time>
        <extensions>
          <ns3:TrackPointExtension>
            <ns3:atemp>17.0</ns3:atemp>
            <ns3:hr>128</ns3:hr>
          </ns3:TrackPointExtension>
        </extensions>
      </trkpt>
      <trkpt lat="-22.009330429136753082275390625" lon="166.4539890177547931671142578125">
        <ele>994.4000244140625</ele>
        <time>2016-08-12T21:00:11.000Z</time>
        <extensions>
          <ns3:TrackPointExtension>
            <ns3:atemp>17.0</ns3:atemp>
            <ns3:hr>128</ns3:hr>
          </ns3:TrackPointExtension>
        </extensions>
      </trkpt>
      <trkpt lat="-22.00930570252239704132080078125" lon="166.45399622619152069091796875">
        <ele>994.4000244140625</ele>
        <time>2016-08-12T21:00:12.000Z</time>
        <extensions>
          <ns3:TrackPointExtension>
            <ns3:atemp>17.0</ns3:atemp>
            <ns3:hr>128</ns3:hr>
          </ns3:TrackPointExtension>
        </extensions>
      </trkpt>
      <trkpt lat="-22.0092816464602947235107421875" lon="166.45400335080921649932861328125">
        <ele>994.20001220703125</ele>
        <time>2016-08-12T21:00:13.000Z</time>
        <extensions>
          <ns3:TrackPointExtension>
            <ns3:atemp>17.0</ns3:atemp>
            <ns3:hr>129</ns3:hr>
          </ns3:TrackPointExtension>
        </extensions>
      </trkpt>
      <trkpt lat="-22.00925960205495357513427734375" lon="166.45401240326464176177978515625">
        <ele>994</ele>
        <time>2016-08-12T21:00:14.000Z</time>
        <extensions>
          <ns3:TrackPointExtension>
            <ns3:atemp>17.0</ns3:atemp>
            <ns3:hr>128</ns3:hr>
          </ns3:TrackPointExtension>
        </extensions>
      </trkpt>
      <trkpt lat="-22.0092394016683101654052734375" lon="166.45401894114911556243896484375">
        <ele>993.5999755859375</ele>
        <time>2016-08-12T21:00:15.000Z</time>
        <extensions>
          <ns3:TrackPointExtension>
            <ns3:atemp>17.0</ns3:atemp>
            <ns3:hr>128</ns3:hr>
          </ns3:TrackPointExtension>
        </extensions>
      </trkpt>
      <trkpt lat="-22.009219117462635040283203125" lon="166.4540279097855091094970703125">
        <ele>993.20001220703125</ele>
        <time>2016-08-12T21:00:16.000Z</time>
        <extensions>
          <ns3:TrackPointExtension>
            <ns3:atemp>17.0</ns3:atemp>
            <ns3:hr>128</ns3:hr>
          </ns3:TrackPointExtension>
        </extensions>
      </trkpt>
      <trkpt lat="-22.00920009054243564605712890625" lon="166.4540438354015350341796875">
        <ele>992.79998779296875</ele>
        <time>2016-08-12T21:00:17.000Z</time>
        <extensions>
          <ns3:TrackPointExtension>
            <ns3:atemp>17.0</ns3:atemp>
            <ns3:hr>129</ns3:hr>
          </ns3:TrackPointExtension>
        </extensions>
      </trkpt>
      <trkpt lat="-22.0091844163835048675537109375" lon="166.4540587551891803741455078125">
        <ele>992.5999755859375</ele>
        <time>2016-08-12T21:00:18.000Z</time>
        <extensions>
          <ns3:TrackPointExtension>
            <ns3:atemp>17.0</ns3:atemp>
            <ns3:hr>129</ns3:hr>
          </ns3:TrackPointExtension>
        </extensions>
      </trkpt>
      <trkpt lat="-22.00916488654911518096923828125" lon="166.454066969454288482666015625">
        <ele>992.5999755859375</ele>
        <time>2016-08-12T21:00:19.000Z</time>
        <extensions>
          <ns3:TrackPointExtension>
            <ns3:atemp>17.0</ns3:atemp>
            <ns3:hr>128</ns3:hr>
          </ns3:TrackPointExtension>
        </extensions>
      </trkpt>
      <trkpt lat="-22.0091435126960277557373046875" lon="166.45407401025295257568359375">
        <ele>992.4000244140625</ele>
        <time>2016-08-12T21:00:20.000Z</time>
        <extensions>
          <ns3:TrackPointExtension>
            <ns3:atemp>17.0</ns3:atemp>
            <ns3:hr>129</ns3:hr>
          </ns3:TrackPointExtension>
        </extensions>
      </trkpt>
      <trkpt lat="-22.00912381522357463836669921875" lon="166.4540828950703144073486328125">
        <ele>992.20001220703125</ele>
        <time>2016-08-12T21:00:21.000Z</time>
        <extensions>
          <ns3:TrackPointExtension>
            <ns3:atemp>17.0</ns3:atemp>
            <ns3:hr>129</ns3:hr>
          </ns3:TrackPointExtension>
        </extensions>
      </trkpt>
      <trkpt lat="-22.0091046206653118133544921875" lon="166.4540922828018665313720703125">
        <ele>992</ele>
        <time>2016-08-12T21:00:22.000Z</time>
        <extensions>
          <ns3:TrackPointExtension>
            <ns3:atemp>17.0</ns3:atemp>
            <ns3:hr>128</ns3:hr>
          </ns3:TrackPointExtension>
        </extensions>
      </trkpt>
      <trkpt lat="-22.0090838335454463958740234375" lon="166.4541063643991947174072265625">
        <ele>991.5999755859375</ele>
        <time>2016-08-12T21:00:23.000Z</time>
        <extensions>
          <ns3:TrackPointExtension>
            <ns3:atemp>17.0</ns3:atemp>
            <ns3:hr>128</ns3:hr>
          </ns3:TrackPointExtension>
        </extensions>
      </trkpt>
      <trkpt lat="-22.009066231548786163330078125" lon="166.45412488840520381927490234375">
        <ele>991.4000244140625</ele>
        <time>2016-08-12T21:00:24.000Z</time>
        <extensions>
          <ns3:TrackPointExtension>
            <ns3:atemp>17.0</ns3:atemp>
            <ns3:hr>128</ns3:hr>
          </ns3:TrackPointExtension>
        </extensions>
      </trkpt>
      <trkpt lat="-22.0090549997985363006591796875" lon="166.45414014346897602081298828125">
        <ele>991</ele>
        <time>2016-08-12T21:00:25.000Z</time>
        <extensions>
          <ns3:TrackPointExtension>
            <ns3:atemp>17.0</ns3:atemp>
            <ns3:hr>128</ns3:hr>
          </ns3:TrackPointExtension>
        </extensions>
      </trkpt>
      <trkpt lat="-22.00904502533376216888427734375" lon="166.454155482351779937744140625">
        <ele>990.5999755859375</ele>
        <time>2016-08-12T21:00:26.000Z</time>
        <extensions>
          <ns3:TrackPointExtension>
            <ns3:atemp>17.0</ns3:atemp>
            <ns3:hr>128</ns3:hr>
          </ns3:TrackPointExtension>
        </extensions>
      </trkpt>
      <trkpt lat="-22.0090365596115589141845703125" lon="166.45417484454810619354248046875">
        <ele>990.4000244140625</ele>
        <time>2016-08-12T21:00:27.000Z</time>
        <extensions>
          <ns3:TrackPointExtension>
            <ns3:atemp>17.0</ns3:atemp>
            <ns3:hr>128</ns3:hr>
          </ns3:TrackPointExtension>
        </extensions>
      </trkpt>
      <trkpt lat="-22.0090325362980365753173828125" lon="166.454199738800525665283203125">
        <ele>990.20001220703125</ele>
        <time>2016-08-12T21:00:28.000Z</time>
        <extensions>
          <ns3:TrackPointExtension>
            <ns3:atemp>17.0</ns3:atemp>
            <ns3:hr>128</ns3:hr>
          </ns3:TrackPointExtension>
        </extensions>
      </trkpt>
      <trkpt lat="-22.00902490876615047454833984375" lon="166.45422580651938915252685546875">
        <ele>990.20001220703125</ele>
        <time>2016-08-12T21:00:29.000Z</time>
        <extensions>
          <ns3:TrackPointExtension>
            <ns3:atemp>17.0</ns3:atemp>
            <ns3:hr>128</ns3:hr>
          </ns3:TrackPointExtension>
        </extensions>
      </trkpt>
      <trkpt lat="-22.009013593196868896484375" lon="166.4542461745440959930419921875">
        <ele>990</ele>
        <time>2016-08-12T21:00:30.000Z</time>
        <extensions>
          <ns3:TrackPointExtension>
            <ns3:atemp>17.0</ns3:atemp>
            <ns3:hr>128</ns3:hr>
          </ns3:TrackPointExtension>
        </extensions>
      </trkpt>
      <trkpt lat="-22.0090000145137310028076171875" lon="166.45426520146429538726806640625">
        <ele>989.5999755859375</ele>
        <time>2016-08-12T21:00:31.000Z</time>
        <extensions>
          <ns3:TrackPointExtension>
            <ns3:atemp>17.0</ns3:atemp>
            <ns3:hr>127</ns3:hr>
          </ns3:TrackPointExtension>
        </extensions>
      </trkpt>
      <trkpt lat="-22.008988447487354278564453125" lon="166.45428121089935302734375">
        <ele>989.4000244140625</ele>
        <time>2016-08-12T21:00:32.000Z</time>
        <extensions>
          <ns3:TrackPointExtension>
            <ns3:atemp>17.0</ns3:atemp>
            <ns3:hr>127</ns3:hr>
          </ns3:TrackPointExtension>
        </extensions>
      </trkpt>
      <trkpt lat="-22.008970677852630615234375" lon="166.4542905986309051513671875">
        <ele>989.20001220703125</ele>
        <time>2016-08-12T21:00:33.000Z</time>
        <extensions>
          <ns3:TrackPointExtension>
            <ns3:atemp>17.0</ns3:atemp>
            <ns3:hr>127</ns3:hr>
          </ns3:TrackPointExtension>
        </extensions>
      </trkpt>
      <trkpt lat="-22.0089520700275897979736328125" lon="166.45429395139217376708984375">
        <ele>988.79998779296875</ele>
        <time>2016-08-12T21:00:34.000Z</time>
        <extensions>
          <ns3:TrackPointExtension>
            <ns3:atemp>17.0</ns3:atemp>
            <ns3:hr>127</ns3:hr>
          </ns3:TrackPointExtension>
        </extensions>
      </trkpt>
      <trkpt lat="-22.00893639586865901947021484375" lon="166.45429654978215694427490234375">
        <ele>988.5999755859375</ele>
        <time>2016-08-12T21:00:35.000Z</time>
        <extensions>
          <ns3:TrackPointExtension>
            <ns3:atemp>17.0</ns3:atemp>
            <ns3:hr>127</ns3:hr>
          </ns3:TrackPointExtension>
        </extensions>
      </trkpt>
      <trkpt lat="-22.00892214663326740264892578125" lon="166.454292945563793182373046875">
        <ele>988.4000244140625</ele>
        <time>2016-08-12T21:00:36.000Z</time>
        <extensions>
          <ns3:TrackPointExtension>
            <ns3:atemp>18.0</ns3:atemp>
            <ns3:hr>127</ns3:hr>
          </ns3:TrackPointExtension>
        </extensions>
      </trkpt>
      <trkpt lat="-22.00890487991273403167724609375" lon="166.454289592802524566650390625">
        <ele>988.20001220703125</ele>
        <time>2016-08-12T21:00:37.000Z</time>
        <extensions>
          <ns3:TrackPointExtension>
            <ns3:atemp>18.0</ns3:atemp>
            <ns3:hr>126</ns3:hr>
          </ns3:TrackPointExtension>
        </extensions>
      </trkpt>
      <trkpt lat="-22.00888660736382007598876953125" lon="166.45428615622222423553466796875">
        <ele>987.79998779296875</ele>
        <time>2016-08-12T21:00:38.000Z</time>
        <extensions>
          <ns3:TrackPointExtension>
            <ns3:atemp>18.0</ns3:atemp>
            <ns3:hr>126</ns3:hr>
          </ns3:TrackPointExtension>
        </extensions>
      </trkpt>
      <trkpt lat="-22.00886716134846210479736328125" lon="166.454284898936748504638671875">
        <ele>987.5999755859375</ele>
        <time>2016-08-12T21:00:39.000Z</time>
        <extensions>
          <ns3:TrackPointExtension>
            <ns3:atemp>18.0</ns3:atemp>
            <ns3:hr>126</ns3:hr>
          </ns3:TrackPointExtension>
        </extensions>
      </trkpt>
      <trkpt lat="-22.008848972618579864501953125" lon="166.4542847312986850738525390625">
        <ele>987.4000244140625</ele>
        <time>2016-08-12T21:00:40.000Z</time>
        <extensions>
          <ns3:TrackPointExtension>
            <ns3:atemp>18.0</ns3:atemp>
            <ns3:hr>126</ns3:hr>
          </ns3:TrackPointExtension>
        </extensions>
      </trkpt>
      <trkpt lat="-22.00883346609771251678466796875" lon="166.4542879164218902587890625">
        <ele>987</ele>
        <time>2016-08-12T21:00:41.000Z</time>
        <extensions>
          <ns3:TrackPointExtension>
            <ns3:atemp>18.0</ns3:atemp>
            <ns3:hr>127</ns3:hr>
          </ns3:TrackPointExtension>
        </extensions>
      </trkpt>
      <trkpt lat="-22.0088196359574794769287109375" lon="166.45428867079317569732666015625">
        <ele>986.79998779296875</ele>
        <time>2016-08-12T21:00:42.000Z</time>
        <extensions>
          <ns3:TrackPointExtension>
            <ns3:atemp>18.0</ns3:atemp>
            <ns3:hr>127</ns3:hr>
          </ns3:TrackPointExtension>
        </extensions>
      </trkpt>
      <trkpt lat="-22.00880245305597782135009765625" lon="166.4542905986309051513671875">
        <ele>986.4000244140625</ele>
        <time>2016-08-12T21:00:43.000Z</time>
        <extensions>
          <ns3:TrackPointExtension>
            <ns3:atemp>18.0</ns3:atemp>
            <ns3:hr>127</ns3:hr>
          </ns3:TrackPointExtension>
        </extensions>
      </trkpt>
      <trkpt lat="-22.00878535397350788116455078125" lon="166.4542954601347446441650390625">
        <ele>986.4000244140625</ele>
        <time>2016-08-12T21:00:44.000Z</time>
        <extensions>
          <ns3:TrackPointExtension>
            <ns3:atemp>18.0</ns3:atemp>
            <ns3:hr>127</ns3:hr>
          </ns3:TrackPointExtension>
        </extensions>
      </trkpt>
      <trkpt lat="-22.00876842252910137176513671875" lon="166.4543013274669647216796875">
        <ele>986.20001220703125</ele>
        <time>2016-08-12T21:00:45.000Z</time>
        <extensions>
          <ns3:TrackPointExtension>
            <ns3:atemp>18.0</ns3:atemp>
            <ns3:hr>127</ns3:hr>
          </ns3:TrackPointExtension>
        </extensions>
      </trkpt>
      <trkpt lat="-22.0087545923888683319091796875" lon="166.454305686056613922119140625">
        <ele>986</ele>
        <time>2016-08-12T21:00:46.000Z</time>
        <extensions>
          <ns3:TrackPointExtension>
            <ns3:atemp>18.0</ns3:atemp>
            <ns3:hr>126</ns3:hr>
          </ns3:TrackPointExtension>
        </extensions>
      </trkpt>
      <trkpt lat="-22.0087441988289356231689453125" lon="166.454315744340419769287109375">
        <ele>985.4000244140625</ele>
        <time>2016-08-12T21:00:47.000Z</time>
        <extensions>
          <ns3:TrackPointExtension>
            <ns3:atemp>18.0</ns3:atemp>
            <ns3:hr>126</ns3:hr>
          </ns3:TrackPointExtension>
        </extensions>
      </trkpt>
      <trkpt lat="-22.00873238034546375274658203125" lon="166.45432789810001850128173828125">
        <ele>985.20001220703125</ele>
        <time>2016-08-12T21:00:48.000Z</time>
        <extensions>
          <ns3:TrackPointExtension>
            <ns3:atemp>18.0</ns3:atemp>
            <ns3:hr>126</ns3:hr>
          </ns3:TrackPointExtension>
        </extensions>
      </trkpt>
      <trkpt lat="-22.00872517190873622894287109375" lon="166.45434415899217128753662109375">
        <ele>985.20001220703125</ele>
        <time>2016-08-12T21:00:49.000Z</time>
        <extensions>
          <ns3:TrackPointExtension>
            <ns3:atemp>18.0</ns3:atemp>
            <ns3:hr>127</ns3:hr>
          </ns3:TrackPointExtension>
        </extensions>
      </trkpt>
      <trkpt lat="-22.00871653854846954345703125" lon="166.45435891114175319671630859375">
        <ele>985</ele>
        <time>2016-08-12T21:00:50.000Z</time>
        <extensions>
          <ns3:TrackPointExtension>
            <ns3:atemp>18.0</ns3:atemp>
            <ns3:hr>127</ns3:hr>
          </ns3:TrackPointExtension>
        </extensions>
      </trkpt>
      <trkpt lat="-22.00870438478887081146240234375" lon="166.454370729625225067138671875">
        <ele>984.5999755859375</ele>
        <time>2016-08-12T21:00:51.000Z</time>
        <extensions>
          <ns3:TrackPointExtension>
            <ns3:atemp>18.0</ns3:atemp>
            <ns3:hr>127</ns3:hr>
          </ns3:TrackPointExtension>
        </extensions>
      </trkpt>
      <trkpt lat="-22.00869047082960605621337890625" lon="166.4543822966516017913818359375">
        <ele>984.4000244140625</ele>
        <time>2016-08-12T21:00:52.000Z</time>
        <extensions>
          <ns3:TrackPointExtension>
            <ns3:atemp>18.0</ns3:atemp>
            <ns3:hr>126</ns3:hr>
          </ns3:TrackPointExtension>
        </extensions>
      </trkpt>
      <trkpt lat="-22.00867940671741962432861328125" lon="166.4543963782489299774169921875">
        <ele>984.20001220703125</ele>
        <time>2016-08-12T21:00:53.000Z</time>
        <extensions>
          <ns3:TrackPointExtension>
            <ns3:atemp>18.0</ns3:atemp>
            <ns3:hr>126</ns3:hr>
          </ns3:TrackPointExtension>
        </extensions>
      </trkpt>
      <trkpt lat="-22.00866549275815486907958984375" lon="166.454408951103687286376953125">
        <ele>984</ele>
        <time>2016-08-12T21:00:54.000Z</time>
        <extensions>
          <ns3:TrackPointExtension>
            <ns3:atemp>18.0</ns3:atemp>
            <ns3:hr>126</ns3:hr>
          </ns3:TrackPointExtension>
        </extensions>
      </trkpt>
      <trkpt lat="-22.00865275226533412933349609375" lon="166.454419009387493133544921875">
        <ele>984</ele>
        <time>2016-08-12T21:00:55.000Z</time>
        <extensions>
          <ns3:TrackPointExtension>
            <ns3:atemp>18.0</ns3:atemp>
            <ns3:hr>126</ns3:hr>
          </ns3:TrackPointExtension>
        </extensions>
      </trkpt>
      <trkpt lat="-22.00863900594413280487060546875" lon="166.4544299058616161346435546875">
        <ele>983.79998779296875</ele>
        <time>2016-08-12T21:00:56.000Z</time>
        <extensions>
          <ns3:TrackPointExtension>
            <ns3:atemp>18.0</ns3:atemp>
            <ns3:hr>126</ns3:hr>
          </ns3:TrackPointExtension>
        </extensions>
      </trkpt>
      <trkpt lat="-22.0086251758038997650146484375" lon="166.4544419758021831512451171875">
        <ele>983.79998779296875</ele>
        <time>2016-08-12T21:00:57.000Z</time>
        <extensions>
          <ns3:TrackPointExtension>
            <ns3:atemp>18.0</ns3:atemp>
            <ns3:hr>126</ns3:hr>
          </ns3:TrackPointExtension>
        </extensions>
      </trkpt>
      <trkpt lat="-22.00861067511141300201416015625" lon="166.45445329137146472930908203125">
        <ele>983.5999755859375</ele>
        <time>2016-08-12T21:00:58.000Z</time>
        <extensions>
          <ns3:TrackPointExtension>
            <ns3:atemp>18.0</ns3:atemp>
            <ns3:hr>126</ns3:hr>
          </ns3:TrackPointExtension>
        </extensions>
      </trkpt>
      <trkpt lat="-22.0085946656763553619384765625" lon="166.45446167327463626861572265625">
        <ele>983.5999755859375</ele>
        <time>2016-08-12T21:00:59.000Z</time>
        <extensions>
          <ns3:TrackPointExtension>
            <ns3:atemp>18.0</ns3:atemp>
            <ns3:hr>126</ns3:hr>
          </ns3:TrackPointExtension>
        </extensions>
      </trkpt>
      <trkpt lat="-22.0085782371461391448974609375" lon="166.45447240211069583892822265625">
        <ele>983.4000244140625</ele>
        <time>2016-08-12T21:01:00.000Z</time>
        <extensions>
          <ns3:TrackPointExtension>
            <ns3:atemp>18.0</ns3:atemp>
            <ns3:hr>126</ns3:hr>
          </ns3:TrackPointExtension>
        </extensions>
      </trkpt>
      <trkpt lat="-22.0085628144443035125732421875" lon="166.45448816008865833282470703125">
        <ele>983.4000244140625</ele>
        <time>2016-08-12T21:01:01.000Z</time>
        <extensions>
          <ns3:TrackPointExtension>
            <ns3:atemp>18.0</ns3:atemp>
            <ns3:hr>126</ns3:hr>
          </ns3:TrackPointExtension>
        </extensions>
      </trkpt>
      <trkpt lat="-22.008547894656658172607421875" lon="166.45450852811336517333984375">
        <ele>982.79998779296875</ele>
        <time>2016-08-12T21:01:02.000Z</time>
        <extensions>
          <ns3:TrackPointExtension>
            <ns3:atemp>18.0</ns3:atemp>
            <ns3:hr>125</ns3:hr>
          </ns3:TrackPointExtension>
        </extensions>
      </trkpt>
      <trkpt lat="-22.00853289104998111724853515625" lon="166.45452654920518398284912109375">
        <ele>982.4000244140625</ele>
        <time>2016-08-12T21:01:03.000Z</time>
        <extensions>
          <ns3:TrackPointExtension>
            <ns3:atemp>18.0</ns3:atemp>
            <ns3:hr>126</ns3:hr>
          </ns3:TrackPointExtension>
        </extensions>
      </trkpt>
      <trkpt lat="-22.0085198991000652313232421875" lon="166.45454364828765392303466796875">
        <ele>982.20001220703125</ele>
        <time>2016-08-12T21:01:04.000Z</time>
        <extensions>
          <ns3:TrackPointExtension>
            <ns3:atemp>18.0</ns3:atemp>
            <ns3:hr>126</ns3:hr>
          </ns3:TrackPointExtension>
        </extensions>
      </trkpt>
      <trkpt lat="-22.00850464403629302978515625" lon="166.4545583166182041168212890625">
        <ele>982.20001220703125</ele>
        <time>2016-08-12T21:01:05.000Z</time>
        <extensions>
          <ns3:TrackPointExtension>
            <ns3:atemp>18.0</ns3:atemp>
            <ns3:hr>126</ns3:hr>
          </ns3:TrackPointExtension>
        </extensions>
      </trkpt>
      <trkpt lat="-22.00848997570574283599853515625" lon="166.454574577510356903076171875">
        <ele>982</ele>
        <time>2016-08-12T21:01:06.000Z</time>
        <extensions>
          <ns3:TrackPointExtension>
            <ns3:atemp>18.0</ns3:atemp>
            <ns3:hr>126</ns3:hr>
          </ns3:TrackPointExtension>
        </extensions>
      </trkpt>
      <trkpt lat="-22.0084746368229389190673828125" lon="166.4545874856412410736083984375">
        <ele>982</ele>
        <time>2016-08-12T21:01:07.000Z</time>
        <extensions>
          <ns3:TrackPointExtension>
            <ns3:atemp>18.0</ns3:atemp>
            <ns3:hr>126</ns3:hr>
          </ns3:TrackPointExtension>
        </extensions>
      </trkpt>
      <trkpt lat="-22.0084623992443084716796875" lon="166.454600058495998382568359375">
        <ele>982</ele>
        <time>2016-08-12T21:01:08.000Z</time>
        <extensions>
          <ns3:TrackPointExtension>
            <ns3:atemp>18.0</ns3:atemp>
            <ns3:hr>126</ns3:hr>
          </ns3:TrackPointExtension>
        </extensions>
      </trkpt>
      <trkpt lat="-22.00845091603696346282958984375" lon="166.4546039141714572906494140625">
        <ele>982</ele>
        <time>2016-08-12T21:01:09.000Z</time>
        <extensions>
          <ns3:TrackPointExtension>
            <ns3:atemp>18.0</ns3:atemp>
            <ns3:hr>126</ns3:hr>
          </ns3:TrackPointExtension>
        </extensions>
      </trkpt>
      <trkpt lat="-22.00843616388738155364990234375" lon="166.4546065963804721832275390625">
        <ele>981.79998779296875</ele>
        <time>2016-08-12T21:01:10.000Z</time>
        <extensions>
          <ns3:TrackPointExtension>
            <ns3:atemp>18.0</ns3:atemp>
            <ns3:hr>126</ns3:hr>
          </ns3:TrackPointExtension>
        </extensions>
      </trkpt>
      <trkpt lat="-22.0084209926426410675048828125" lon="166.45461321808397769927978515625">
        <ele>981.5999755859375</ele>
        <time>2016-08-12T21:01:11.000Z</time>
        <extensions>
          <ns3:TrackPointExtension>
            <ns3:atemp>18.0</ns3:atemp>
            <ns3:hr>126</ns3:hr>
          </ns3:TrackPointExtension>
        </extensions>
      </trkpt>
      <trkpt lat="-22.00840565375983715057373046875" lon="166.45462260581552982330322265625">
        <ele>981.4000244140625</ele>
        <time>2016-08-12T21:01:12.000Z</time>
        <extensions>
          <ns3:TrackPointExtension>
            <ns3:atemp>18.0</ns3:atemp>
            <ns3:hr>126</ns3:hr>
          </ns3:TrackPointExtension>
        </extensions>
      </trkpt>
      <trkpt lat="-22.0083921588957309722900390625" lon="166.45463450811803340911865234375">
        <ele>981.20001220703125</ele>
        <time>2016-08-12T21:01:13.000Z</time>
        <extensions>
          <ns3:TrackPointExtension>
            <ns3:atemp>18.0</ns3:atemp>
            <ns3:hr>126</ns3:hr>
          </ns3:TrackPointExtension>
        </extensions>
      </trkpt>
      <trkpt lat="-22.008377574384212493896484375" lon="166.45464573986828327178955078125">
        <ele>981</ele>
        <time>2016-08-12T21:01:14.000Z</time>
        <extensions>
          <ns3:TrackPointExtension>
            <ns3:atemp>18.0</ns3:atemp>
            <ns3:hr>125</ns3:hr>
          </ns3:TrackPointExtension>
        </extensions>
      </trkpt>
      <trkpt lat="-22.0083633251488208770751953125" lon="166.4546555466949939727783203125">
        <ele>980.79998779296875</ele>
        <time>2016-08-12T21:01:15.000Z</time>
        <extensions>
          <ns3:TrackPointExtension>
            <ns3:atemp>18.0</ns3:atemp>
            <ns3:hr>126</ns3:hr>
          </ns3:TrackPointExtension>
        </extensions>
      </trkpt>
      <trkpt lat="-22.00834781862795352935791015625" lon="166.45466451533138751983642578125">
        <ele>980.5999755859375</ele>
        <time>2016-08-12T21:01:16.000Z</time>
        <extensions>
          <ns3:TrackPointExtension>
            <ns3:atemp>18.0</ns3:atemp>
            <ns3:hr>126</ns3:hr>
          </ns3:TrackPointExtension>
        </extensions>
      </trkpt>
      <trkpt lat="-22.00833499431610107421875" lon="166.45467658527195453643798828125">
        <ele>980.4000244140625</ele>
        <time>2016-08-12T21:01:17.000Z</time>
        <extensions>
          <ns3:TrackPointExtension>
            <ns3:atemp>18.0</ns3:atemp>
            <ns3:hr>126</ns3:hr>
          </ns3:TrackPointExtension>
        </extensions>
      </trkpt>
      <trkpt lat="-22.00832317583262920379638671875" lon="166.45468982867896556854248046875">
        <ele>980.4000244140625</ele>
        <time>2016-08-12T21:01:18.000Z</time>
        <extensions>
          <ns3:TrackPointExtension>
            <ns3:atemp>18.0</ns3:atemp>
            <ns3:hr>126</ns3:hr>
          </ns3:TrackPointExtension>
        </extensions>
      </trkpt>
      <trkpt lat="-22.0083096809685230255126953125" lon="166.4547048322856426239013671875">
        <ele>980.4000244140625</ele>
        <time>2016-08-12T21:01:19.000Z</time>
        <extensions>
          <ns3:TrackPointExtension>
            <ns3:atemp>18.0</ns3:atemp>
            <ns3:hr>126</ns3:hr>
          </ns3:TrackPointExtension>
        </extensions>
      </trkpt>
      <trkpt lat="-22.0082945935428142547607421875" lon="166.454719416797161102294921875">
        <ele>980.4000244140625</ele>
        <time>2016-08-12T21:01:20.000Z</time>
        <extensions>
          <ns3:TrackPointExtension>
            <ns3:atemp>18.0</ns3:atemp>
            <ns3:hr>126</ns3:hr>
          </ns3:TrackPointExtension>
        </extensions>
      </trkpt>
      <trkpt lat="-22.0082805119454860687255859375" lon="166.454734839498996734619140625">
        <ele>979.79998779296875</ele>
        <time>2016-08-12T21:01:21.000Z</time>
        <extensions>
          <ns3:TrackPointExtension>
            <ns3:atemp>18.0</ns3:atemp>
            <ns3:hr>127</ns3:hr>
          </ns3:TrackPointExtension>
        </extensions>
      </trkpt>
      <trkpt lat="-22.0082677714526653289794921875" lon="166.45474950782954692840576171875">
        <ele>979.5999755859375</ele>
        <time>2016-08-12T21:01:22.000Z</time>
        <extensions>
          <ns3:TrackPointExtension>
            <ns3:atemp>18.0</ns3:atemp>
            <ns3:hr>127</ns3:hr>
          </ns3:TrackPointExtension>
        </extensions>
      </trkpt>
      <trkpt lat="-22.00825385749340057373046875" lon="166.45475931465625762939453125">
        <ele>979.4000244140625</ele>
        <time>2016-08-12T21:01:23.000Z</time>
        <extensions>
          <ns3:TrackPointExtension>
            <ns3:atemp>18.0</ns3:atemp>
            <ns3:hr>127</ns3:hr>
          </ns3:TrackPointExtension>
        </extensions>
      </trkpt>
      <trkpt lat="-22.00823868624866008758544921875" lon="166.4547680318355560302734375">
        <ele>979.20001220703125</ele>
        <time>2016-08-12T21:01:24.000Z</time>
        <extensions>
          <ns3:TrackPointExtension>
            <ns3:atemp>18.0</ns3:atemp>
            <ns3:hr>127</ns3:hr>
          </ns3:TrackPointExtension>
        </extensions>
      </trkpt>
      <trkpt lat="-22.00822301208972930908203125" lon="166.45478613674640655517578125">
        <ele>979</ele>
        <time>2016-08-12T21:01:25.000Z</time>
        <extensions>
          <ns3:TrackPointExtension>
            <ns3:atemp>18.0</ns3:atemp>
            <ns3:hr>128</ns3:hr>
          </ns3:TrackPointExtension>
        </extensions>
      </trkpt>
      <trkpt lat="-22.0082102715969085693359375" lon="166.4548050798475742340087890625">
        <ele>978.79998779296875</ele>
        <time>2016-08-12T21:01:26.000Z</time>
        <extensions>
          <ns3:TrackPointExtension>
            <ns3:atemp>18.0</ns3:atemp>
            <ns3:hr>128</ns3:hr>
          </ns3:TrackPointExtension>
        </extensions>
      </trkpt>
      <trkpt lat="-22.008200548589229583740234375" lon="166.45482192747294902801513671875">
        <ele>978.5999755859375</ele>
        <time>2016-08-12T21:01:27.000Z</time>
        <extensions>
          <ns3:TrackPointExtension>
            <ns3:atemp>18.0</ns3:atemp>
            <ns3:hr>128</ns3:hr>
          </ns3:TrackPointExtension>
        </extensions>
      </trkpt>
      <trkpt lat="-22.0081919990479946136474609375" lon="166.45484003238379955291748046875">
        <ele>978.4000244140625</ele>
        <time>2016-08-12T21:01:28.000Z</time>
        <extensions>
          <ns3:TrackPointExtension>
            <ns3:atemp>18.0</ns3:atemp>
            <ns3:hr>128</ns3:hr>
          </ns3:TrackPointExtension>
        </extensions>
      </trkpt>
      <trkpt lat="-22.0081834495067596435546875" lon="166.4548552036285400390625">
        <ele>978.20001220703125</ele>
        <time>2016-08-12T21:01:29.000Z</time>
        <extensions>
          <ns3:TrackPointExtension>
            <ns3:atemp>18.0</ns3:atemp>
            <ns3:hr>128</ns3:hr>
          </ns3:TrackPointExtension>
        </extensions>
      </trkpt>
      <trkpt lat="-22.0081748999655246734619140625" lon="166.45486635155975818634033203125">
        <ele>977.5999755859375</ele>
        <time>2016-08-12T21:01:30.000Z</time>
        <extensions>
          <ns3:TrackPointExtension>
            <ns3:atemp>18.0</ns3:atemp>
            <ns3:hr>128</ns3:hr>
          </ns3:TrackPointExtension>
        </extensions>
      </trkpt>
      <trkpt lat="-22.00816090218722820281982421875" lon="166.45486987195909023284912109375">
        <ele>977.4000244140625</ele>
        <time>2016-08-12T21:01:31.000Z</time>
        <extensions>
          <ns3:TrackPointExtension>
            <ns3:atemp>18.0</ns3:atemp>
            <ns3:hr>128</ns3:hr>
          </ns3:TrackPointExtension>
        </extensions>
      </trkpt>
      <trkpt lat="-22.008148916065692901611328125" lon="166.45486786030232906341552734375">
        <ele>977.20001220703125</ele>
        <time>2016-08-12T21:01:32.000Z</time>
        <extensions>
          <ns3:TrackPointExtension>
            <ns3:atemp>18.0</ns3:atemp>
            <ns3:hr>128</ns3:hr>
          </ns3:TrackPointExtension>
        </extensions>
      </trkpt>
      <trkpt lat="-22.00813718140125274658203125" lon="166.45486869849264621734619140625">
        <ele>977.20001220703125</ele>
        <time>2016-08-12T21:01:33.000Z</time>
        <extensions>
          <ns3:TrackPointExtension>
            <ns3:atemp>18.0</ns3:atemp>
            <ns3:hr>128</ns3:hr>
          </ns3:TrackPointExtension>
        </extensions>
      </trkpt>
      <trkpt lat="-22.0081249438226222991943359375" lon="166.4548717997968196868896484375">
        <ele>977</ele>
        <time>2016-08-12T21:01:34.000Z</time>
        <extensions>
          <ns3:TrackPointExtension>
            <ns3:atemp>18.0</ns3:atemp>
            <ns3:hr>128</ns3:hr>
          </ns3:TrackPointExtension>
        </extensions>
      </trkpt>
      <trkpt lat="-22.00811563991010189056396484375" lon="166.45487557165324687957763671875">
        <ele>976.5999755859375</ele>
        <time>2016-08-12T21:01:35.000Z</time>
        <extensions>
          <ns3:TrackPointExtension>
            <ns3:atemp>18.0</ns3:atemp>
            <ns3:hr>128</ns3:hr>
          </ns3:TrackPointExtension>
        </extensions>
      </trkpt>
      <trkpt lat="-22.0081065036356449127197265625" lon="166.45488428883254528045654296875">
        <ele>976.20001220703125</ele>
        <time>2016-08-12T21:01:36.000Z</time>
        <extensions>
          <ns3:TrackPointExtension>
            <ns3:atemp>18.0</ns3:atemp>
            <ns3:hr>128</ns3:hr>
          </ns3:TrackPointExtension>
        </extensions>
      </trkpt>
      <trkpt lat="-22.00809895992279052734375" lon="166.454889066517353057861328125">
        <ele>976</ele>
        <time>2016-08-12T21:01:37.000Z</time>
        <extensions>
          <ns3:TrackPointExtension>
            <ns3:atemp>18.0</ns3:atemp>
            <ns3:hr>127</ns3:hr>
          </ns3:TrackPointExtension>
        </extensions>
      </trkpt>
      <trkpt lat="-22.00808244757354259490966796875" lon="166.45489769987761974334716796875">
        <ele>976</ele>
        <time>2016-08-12T21:01:38.000Z</time>
        <extensions>
          <ns3:TrackPointExtension>
            <ns3:atemp>18.0</ns3:atemp>
            <ns3:hr>128</ns3:hr>
          </ns3:TrackPointExtension>
        </extensions>
      </trkpt>
      <trkpt lat="-22.00806140899658203125" lon="166.45490356720983982086181640625">
        <ele>976</ele>
        <time>2016-08-12T21:01:39.000Z</time>
        <extensions>
          <ns3:TrackPointExtension>
            <ns3:atemp>18.0</ns3:atemp>
            <ns3:hr>127</ns3:hr>
          </ns3:TrackPointExtension>
        </extensions>
      </trkpt>
      <trkpt lat="-22.00804221443831920623779296875" lon="166.4549093507230281829833984375">
        <ele>976</ele>
        <time>2016-08-12T21:01:40.000Z</time>
        <extensions>
          <ns3:TrackPointExtension>
            <ns3:atemp>18.0</ns3:atemp>
            <ns3:hr>128</ns3:hr>
          </ns3:TrackPointExtension>
        </extensions>
      </trkpt>
      <trkpt lat="-22.00802410952746868133544921875" lon="166.45491798408329486846923828125">
        <ele>975.79998779296875</ele>
        <time>2016-08-12T21:01:41.000Z</time>
        <extensions>
          <ns3:TrackPointExtension>
            <ns3:atemp>18.0</ns3:atemp>
            <ns3:hr>128</ns3:hr>
          </ns3:TrackPointExtension>
        </extensions>
      </trkpt>
      <trkpt lat="-22.00800147838890552520751953125" lon="166.45492703653872013092041015625">
        <ele>975.5999755859375</ele>
        <time>2016-08-12T21:01:42.000Z</time>
        <extensions>
          <ns3:TrackPointExtension>
            <ns3:atemp>18.0</ns3:atemp>
            <ns3:hr>128</ns3:hr>
          </ns3:TrackPointExtension>
        </extensions>
      </trkpt>
      <trkpt lat="-22.0079804398119449615478515625" lon="166.4549355022609233856201171875">
        <ele>975.5999755859375</ele>
        <time>2016-08-12T21:01:43.000Z</time>
        <extensions>
          <ns3:TrackPointExtension>
            <ns3:atemp>18.0</ns3:atemp>
            <ns3:hr>128</ns3:hr>
          </ns3:TrackPointExtension>
        </extensions>
      </trkpt>
      <trkpt lat="-22.0079623349010944366455078125" lon="166.4549438841640949249267578125">
        <ele>975.4000244140625</ele>
        <time>2016-08-12T21:01:44.000Z</time>
        <extensions>
          <ns3:TrackPointExtension>
            <ns3:atemp>18.0</ns3:atemp>
            <ns3:hr>128</ns3:hr>
          </ns3:TrackPointExtension>
        </extensions>
      </trkpt>
      <trkpt lat="-22.0079469121992588043212890625" lon="166.454952768981456756591796875">
        <ele>975.20001220703125</ele>
        <time>2016-08-12T21:01:45.000Z</time>
        <extensions>
          <ns3:TrackPointExtension>
            <ns3:atemp>18.0</ns3:atemp>
            <ns3:hr>128</ns3:hr>
          </ns3:TrackPointExtension>
        </extensions>
      </trkpt>
      <trkpt lat="-22.0079321600496768951416015625" lon="166.45496291108429431915283203125">
        <ele>975</ele>
        <time>2016-08-12T21:01:46.000Z</time>
        <extensions>
          <ns3:TrackPointExtension>
            <ns3:atemp>18.0</ns3:atemp>
            <ns3:hr>128</ns3:hr>
          </ns3:TrackPointExtension>
        </extensions>
      </trkpt>
      <trkpt lat="-22.007918916642665863037109375" lon="166.45496978424489498138427734375">
        <ele>974.5999755859375</ele>
        <time>2016-08-12T21:01:47.000Z</time>
        <extensions>
          <ns3:TrackPointExtension>
            <ns3:atemp>18.0</ns3:atemp>
            <ns3:hr>128</ns3:hr>
          </ns3:TrackPointExtension>
        </extensions>
      </trkpt>
      <trkpt lat="-22.0079026557505130767822265625" lon="166.45497229881584644317626953125">
        <ele>974.20001220703125</ele>
        <time>2016-08-12T21:01:48.000Z</time>
        <extensions>
          <ns3:TrackPointExtension>
            <ns3:atemp>18.0</ns3:atemp>
            <ns3:hr>128</ns3:hr>
          </ns3:TrackPointExtension>
        </extensions>
      </trkpt>
      <trkpt lat="-22.00788446702063083648681640625" lon="166.4549700357019901275634765625">
        <ele>974.20001220703125</ele>
        <time>2016-08-12T21:01:49.000Z</time>
        <extensions>
          <ns3:TrackPointExtension>
            <ns3:atemp>18.0</ns3:atemp>
            <ns3:hr>128</ns3:hr>
          </ns3:TrackPointExtension>
        </extensions>
      </trkpt>
      <trkpt lat="-22.00786535628139972686767578125" lon="166.45496961660683155059814453125">
        <ele>973.79998779296875</ele>
        <time>2016-08-12T21:01:50.000Z</time>
        <extensions>
          <ns3:TrackPointExtension>
            <ns3:atemp>18.0</ns3:atemp>
            <ns3:hr>128</ns3:hr>
          </ns3:TrackPointExtension>
        </extensions>
      </trkpt>
      <trkpt lat="-22.0078456588089466094970703125" lon="166.45497028715908527374267578125">
        <ele>973.4000244140625</ele>
        <time>2016-08-12T21:01:51.000Z</time>
        <extensions>
          <ns3:TrackPointExtension>
            <ns3:atemp>18.0</ns3:atemp>
            <ns3:hr>128</ns3:hr>
          </ns3:TrackPointExtension>
        </extensions>
      </trkpt>
      <trkpt lat="-22.0078252069652080535888671875" lon="166.4549720473587512969970703125">
        <ele>973.20001220703125</ele>
        <time>2016-08-12T21:01:52.000Z</time>
        <extensions>
          <ns3:TrackPointExtension>
            <ns3:atemp>18.0</ns3:atemp>
            <ns3:hr>127</ns3:hr>
          </ns3:TrackPointExtension>
        </extensions>
      </trkpt>
      <trkpt lat="-22.00780852697789669036865234375" lon="166.45497523248195648193359375">
        <ele>973</ele>
        <time>2016-08-12T21:01:53.000Z</time>
        <extensions>
          <ns3:TrackPointExtension>
            <ns3:atemp>18.0</ns3:atemp>
            <ns3:hr>127</ns3:hr>
          </ns3:TrackPointExtension>
        </extensions>
      </trkpt>
      <trkpt lat="-22.0077933557331562042236328125" lon="166.454981267452239990234375">
        <ele>972.79998779296875</ele>
        <time>2016-08-12T21:01:54.000Z</time>
        <extensions>
          <ns3:TrackPointExtension>
            <ns3:atemp>18.0</ns3:atemp>
            <ns3:hr>126</ns3:hr>
          </ns3:TrackPointExtension>
        </extensions>
      </trkpt>
      <trkpt lat="-22.0077784359455108642578125" lon="166.4549894817173480987548828125">
        <ele>972.5999755859375</ele>
        <time>2016-08-12T21:01:55.000Z</time>
        <extensions>
          <ns3:TrackPointExtension>
            <ns3:atemp>18.0</ns3:atemp>
            <ns3:hr>126</ns3:hr>
          </ns3:TrackPointExtension>
        </extensions>
      </trkpt>
      <trkpt lat="-22.007764019072055816650390625" lon="166.454994343221187591552734375">
        <ele>972.20001220703125</ele>
        <time>2016-08-12T21:01:56.000Z</time>
        <extensions>
          <ns3:TrackPointExtension>
            <ns3:atemp>18.0</ns3:atemp>
            <ns3:hr>125</ns3:hr>
          </ns3:TrackPointExtension>
        </extensions>
      </trkpt>
      <trkpt lat="-22.00774800963699817657470703125" lon="166.4549992047250270843505859375">
        <ele>972</ele>
        <time>2016-08-12T21:01:57.000Z</time>
        <extensions>
          <ns3:TrackPointExtension>
            <ns3:atemp>18.0</ns3:atemp>
            <ns3:hr>125</ns3:hr>
          </ns3:TrackPointExtension>
        </extensions>
      </trkpt>
      <trkpt lat="-22.00773342512547969818115234375" lon="166.4550038985908031463623046875">
        <ele>971.79998779296875</ele>
        <time>2016-08-12T21:01:58.000Z</time>
        <extensions>
          <ns3:TrackPointExtension>
            <ns3:atemp>18.0</ns3:atemp>
            <ns3:hr>125</ns3:hr>
          </ns3:TrackPointExtension>
        </extensions>
      </trkpt>
      <trkpt lat="-22.007720768451690673828125" lon="166.455004401504993438720703125">
        <ele>971.5999755859375</ele>
        <time>2016-08-12T21:01:59.000Z</time>
        <extensions>
          <ns3:TrackPointExtension>
            <ns3:atemp>18.0</ns3:atemp>
            <ns3:hr>125</ns3:hr>
          </ns3:TrackPointExtension>
        </extensions>
      </trkpt>
      <trkpt lat="-22.00770962052047252655029296875" lon="166.45500297658145427703857421875">
        <ele>971.4000244140625</ele>
        <time>2016-08-12T21:02:00.000Z</time>
        <extensions>
          <ns3:TrackPointExtension>
            <ns3:atemp>18.0</ns3:atemp>
            <ns3:hr>125</ns3:hr>
          </ns3:TrackPointExtension>
        </extensions>
      </trkpt>
      <trkpt lat="-22.007695622742176055908203125" lon="166.45499744452536106109619140625">
        <ele>971.20001220703125</ele>
        <time>2016-08-12T21:02:01.000Z</time>
        <extensions>
          <ns3:TrackPointExtension>
            <ns3:atemp>18.0</ns3:atemp>
            <ns3:hr>125</ns3:hr>
          </ns3:TrackPointExtension>
        </extensions>
      </trkpt>
      <trkpt lat="-22.007677517831325531005859375" lon="166.45499291829764842987060546875">
        <ele>970.79998779296875</ele>
        <time>2016-08-12T21:02:02.000Z</time>
        <extensions>
          <ns3:TrackPointExtension>
            <ns3:atemp>18.0</ns3:atemp>
            <ns3:hr>125</ns3:hr>
          </ns3:TrackPointExtension>
        </extensions>
      </trkpt>
      <trkpt lat="-22.00765748508274555206298828125" lon="166.45499325357377529144287109375">
        <ele>970.79998779296875</ele>
        <time>2016-08-12T21:02:03.000Z</time>
        <extensions>
          <ns3:TrackPointExtension>
            <ns3:atemp>18.0</ns3:atemp>
            <ns3:hr>125</ns3:hr>
          </ns3:TrackPointExtension>
        </extensions>
      </trkpt>
      <trkpt lat="-22.00763653032481670379638671875" lon="166.454994343221187591552734375">
        <ele>970.4000244140625</ele>
        <time>2016-08-12T21:02:04.000Z</time>
        <extensions>
          <ns3:TrackPointExtension>
            <ns3:atemp>18.0</ns3:atemp>
            <ns3:hr>125</ns3:hr>
          </ns3:TrackPointExtension>
        </extensions>
      </trkpt>
      <trkpt lat="-22.00761524029076099395751953125" lon="166.45499375648796558380126953125">
        <ele>970</ele>
        <time>2016-08-12T21:02:05.000Z</time>
        <extensions>
          <ns3:TrackPointExtension>
            <ns3:atemp>18.0</ns3:atemp>
            <ns3:hr>125</ns3:hr>
          </ns3:TrackPointExtension>
        </extensions>
      </trkpt>
      <trkpt lat="-22.007593028247356414794921875" lon="166.45499727688729763031005859375">
        <ele>969.79998779296875</ele>
        <time>2016-08-12T21:02:06.000Z</time>
        <extensions>
          <ns3:TrackPointExtension>
            <ns3:atemp>18.0</ns3:atemp>
            <ns3:hr>125</ns3:hr>
          </ns3:TrackPointExtension>
        </extensions>
      </trkpt>
      <trkpt lat="-22.00757391750812530517578125" lon="166.45500415004789829254150390625">
        <ele>969.5999755859375</ele>
        <time>2016-08-12T21:02:07.000Z</time>
        <extensions>
          <ns3:TrackPointExtension>
            <ns3:atemp>18.0</ns3:atemp>
            <ns3:hr>126</ns3:hr>
          </ns3:TrackPointExtension>
        </extensions>
      </trkpt>
      <trkpt lat="-22.0075556449592113494873046875" lon="166.45501001738011837005615234375">
        <ele>969.20001220703125</ele>
        <time>2016-08-12T21:02:08.000Z</time>
        <extensions>
          <ns3:TrackPointExtension>
            <ns3:atemp>18.0</ns3:atemp>
            <ns3:hr>126</ns3:hr>
          </ns3:TrackPointExtension>
        </extensions>
      </trkpt>
      <trkpt lat="-22.00753645040094852447509765625" lon="166.45501672290265560150146484375">
        <ele>969</ele>
        <time>2016-08-12T21:02:09.000Z</time>
        <extensions>
          <ns3:TrackPointExtension>
            <ns3:atemp>18.0</ns3:atemp>
            <ns3:hr>126</ns3:hr>
          </ns3:TrackPointExtension>
        </extensions>
      </trkpt>
      <trkpt lat="-22.00751851312816143035888671875" lon="166.45502661354839801788330078125">
        <ele>968.5999755859375</ele>
        <time>2016-08-12T21:02:10.000Z</time>
        <extensions>
          <ns3:TrackPointExtension>
            <ns3:atemp>18.0</ns3:atemp>
            <ns3:hr>126</ns3:hr>
          </ns3:TrackPointExtension>
        </extensions>
      </trkpt>
      <trkpt lat="-22.0075060240924358367919921875" lon="166.45503424108028411865234375">
        <ele>968.20001220703125</ele>
        <time>2016-08-12T21:02:11.000Z</time>
        <extensions>
          <ns3:TrackPointExtension>
            <ns3:atemp>18.0</ns3:atemp>
            <ns3:hr>126</ns3:hr>
          </ns3:TrackPointExtension>
        </extensions>
      </trkpt>
      <trkpt lat="-22.0074983127415180206298828125" lon="166.45503868348896503448486328125">
        <ele>968</ele>
        <time>2016-08-12T21:02:12.000Z</time>
        <extensions>
          <ns3:TrackPointExtension>
            <ns3:atemp>18.0</ns3:atemp>
            <ns3:hr>126</ns3:hr>
          </ns3:TrackPointExtension>
        </extensions>
      </trkpt>
      <trkpt lat="-22.00749621726572513580322265625" lon="166.45504220388829708099365234375">
        <ele>967.79998779296875</ele>
        <time>2016-08-12T21:02:13.000Z</time>
        <extensions>
          <ns3:TrackPointExtension>
            <ns3:atemp>18.0</ns3:atemp>
            <ns3:hr>126</ns3:hr>
          </ns3:TrackPointExtension>
        </extensions>
      </trkpt>
      <trkpt lat="-22.00749822892248630523681640625" lon="166.45503918640315532684326171875">
        <ele>967.5999755859375</ele>
        <time>2016-08-12T21:02:15.000Z</time>
        <extensions>
          <ns3:TrackPointExtension>
            <ns3:atemp>18.0</ns3:atemp>
            <ns3:hr>126</ns3:hr>
          </ns3:TrackPointExtension>
        </extensions>
      </trkpt>
      <trkpt lat="-22.00749990530312061309814453125" lon="166.45503650419414043426513671875">
        <ele>967.5999755859375</ele>
        <time>2016-08-12T21:02:17.000Z</time>
        <extensions>
          <ns3:TrackPointExtension>
            <ns3:atemp>18.0</ns3:atemp>
            <ns3:hr>125</ns3:hr>
          </ns3:TrackPointExtension>
        </extensions>
      </trkpt>
      <trkpt lat="-22.00750158168375492095947265625" lon="166.45503734238445758819580078125">
        <ele>967.5999755859375</ele>
        <time>2016-08-12T21:02:18.000Z</time>
        <extensions>
          <ns3:TrackPointExtension>
            <ns3:atemp>18.0</ns3:atemp>
            <ns3:hr>123</ns3:hr>
          </ns3:TrackPointExtension>
        </extensions>
      </trkpt>
      <trkpt lat="-22.00750275515019893646240234375" lon="166.45503692328929901123046875">
        <ele>967.5999755859375</ele>
        <time>2016-08-12T21:02:19.000Z</time>
        <extensions>
          <ns3:TrackPointExtension>
            <ns3:atemp>18.0</ns3:atemp>
            <ns3:hr>123</ns3:hr>
          </ns3:TrackPointExtension>
        </extensions>
      </trkpt>
      <trkpt lat="-22.00750376097857952117919921875" lon="166.45503633655607700347900390625">
        <ele>967.5999755859375</ele>
        <time>2016-08-12T21:02:20.000Z</time>
        <extensions>
          <ns3:TrackPointExtension>
            <ns3:atemp>18.0</ns3:atemp>
            <ns3:hr>122</ns3:hr>
          </ns3:TrackPointExtension>
        </extensions>
      </trkpt>
      <trkpt lat="-22.0075021684169769287109375" lon="166.455036588013172149658203125">
        <ele>967.5999755859375</ele>
        <time>2016-08-12T21:02:21.000Z</time>
        <extensions>
          <ns3:TrackPointExtension>
            <ns3:atemp>18.0</ns3:atemp>
            <ns3:hr>121</ns3:hr>
          </ns3:TrackPointExtension>
        </extensions>
      </trkpt>
      <trkpt lat="-22.0075020007789134979248046875" lon="166.4550370909273624420166015625">
        <ele>967.5999755859375</ele>
        <time>2016-08-12T21:02:22.000Z</time>
        <extensions>
          <ns3:TrackPointExtension>
            <ns3:atemp>18.0</ns3:atemp>
            <ns3:hr>120</ns3:hr>
          </ns3:TrackPointExtension>
        </extensions>
      </trkpt>
      <trkpt lat="-22.00749856419861316680908203125" lon="166.4550387673079967498779296875">
        <ele>967.5999755859375</ele>
        <time>2016-08-12T21:02:23.000Z</time>
        <extensions>
          <ns3:TrackPointExtension>
            <ns3:atemp>18.0</ns3:atemp>
            <ns3:hr>119</ns3:hr>
          </ns3:TrackPointExtension>
        </extensions>
      </trkpt>
      <trkpt lat="-22.00749588198959827423095703125" lon="166.4550394378602504730224609375">
        <ele>967.5999755859375</ele>
        <time>2016-08-12T21:02:24.000Z</time>
        <extensions>
          <ns3:TrackPointExtension>
            <ns3:atemp>18.0</ns3:atemp>
            <ns3:hr>120</ns3:hr>
          </ns3:TrackPointExtension>
        </extensions>
      </trkpt>
      <trkpt lat="-22.00749211013317108154296875" lon="166.4550407789647579193115234375">
        <ele>967.5999755859375</ele>
        <time>2016-08-12T21:02:25.000Z</time>
        <extensions>
          <ns3:TrackPointExtension>
            <ns3:atemp>18.0</ns3:atemp>
            <ns3:hr>120</ns3:hr>
          </ns3:TrackPointExtension>
        </extensions>
      </trkpt>
      <trkpt lat="-22.0074862428009510040283203125" lon="166.45504136569797992706298828125">
        <ele>967.4000244140625</ele>
        <time>2016-08-12T21:02:26.000Z</time>
        <extensions>
          <ns3:TrackPointExtension>
            <ns3:atemp>18.0</ns3:atemp>
            <ns3:hr>120</ns3:hr>
          </ns3:TrackPointExtension>
        </extensions>
      </trkpt>
      <trkpt lat="-22.0074832253158092498779296875" lon="166.4550416171550750732421875">
        <ele>967.4000244140625</ele>
        <time>2016-08-12T21:02:27.000Z</time>
        <extensions>
          <ns3:TrackPointExtension>
            <ns3:atemp>18.0</ns3:atemp>
            <ns3:hr>121</ns3:hr>
          </ns3:TrackPointExtension>
        </extensions>
      </trkpt>
      <trkpt lat="-22.00747827999293804168701171875" lon="166.4550414495170116424560546875">
        <ele>967.4000244140625</ele>
        <time>2016-08-12T21:02:28.000Z</time>
        <extensions>
          <ns3:TrackPointExtension>
            <ns3:atemp>18.0</ns3:atemp>
            <ns3:hr>123</ns3:hr>
          </ns3:TrackPointExtension>
        </extensions>
      </trkpt>
      <trkpt lat="-22.0074741728603839874267578125" lon="166.4550442993640899658203125">
        <ele>967.20001220703125</ele>
        <time>2016-08-12T21:02:29.000Z</time>
        <extensions>
          <ns3:TrackPointExtension>
            <ns3:atemp>18.0</ns3:atemp>
            <ns3:hr>123</ns3:hr>
          </ns3:TrackPointExtension>
        </extensions>
      </trkpt>
      <trkpt lat="-22.0074646174907684326171875" lon="166.45504153333604335784912109375">
        <ele>967.20001220703125</ele>
        <time>2016-08-12T21:02:30.000Z</time>
        <extensions>
          <ns3:TrackPointExtension>
            <ns3:atemp>18.0</ns3:atemp>
            <ns3:hr>123</ns3:hr>
          </ns3:TrackPointExtension>
        </extensions>
      </trkpt>
      <trkpt lat="-22.00745053589344024658203125" lon="166.4550387673079967498779296875">
        <ele>967.20001220703125</ele>
        <time>2016-08-12T21:02:31.000Z</time>
        <extensions>
          <ns3:TrackPointExtension>
            <ns3:atemp>18.0</ns3:atemp>
            <ns3:hr>123</ns3:hr>
          </ns3:TrackPointExtension>
        </extensions>
      </trkpt>
      <trkpt lat="-22.0074352808296680450439453125" lon="166.45504019223153591156005859375">
        <ele>967.20001220703125</ele>
        <time>2016-08-12T21:02:32.000Z</time>
        <extensions>
          <ns3:TrackPointExtension>
            <ns3:atemp>18.0</ns3:atemp>
            <ns3:hr>123</ns3:hr>
          </ns3:TrackPointExtension>
        </extensions>
      </trkpt>
      <trkpt lat="-22.00741776265203952789306640625" lon="166.4550421200692653656005859375">
        <ele>967.20001220703125</ele>
        <time>2016-08-12T21:02:33.000Z</time>
        <extensions>
          <ns3:TrackPointExtension>
            <ns3:atemp>18.0</ns3:atemp>
            <ns3:hr>122</ns3:hr>
          </ns3:TrackPointExtension>
        </extensions>
      </trkpt>
      <trkpt lat="-22.0074044354259967803955078125" lon="166.455045975744724273681640625">
        <ele>966.79998779296875</ele>
        <time>2016-08-12T21:02:34.000Z</time>
        <extensions>
          <ns3:TrackPointExtension>
            <ns3:atemp>18.0</ns3:atemp>
            <ns3:hr>123</ns3:hr>
          </ns3:TrackPointExtension>
        </extensions>
      </trkpt>
      <trkpt lat="-22.0073896832764148712158203125" lon="166.45504304207861423492431640625">
        <ele>966.5999755859375</ele>
        <time>2016-08-12T21:02:35.000Z</time>
        <extensions>
          <ns3:TrackPointExtension>
            <ns3:atemp>18.0</ns3:atemp>
            <ns3:hr>123</ns3:hr>
          </ns3:TrackPointExtension>
        </extensions>
      </trkpt>
      <trkpt lat="-22.00737317092716693878173828125" lon="166.455044634640216827392578125">
        <ele>966.5999755859375</ele>
        <time>2016-08-12T21:02:36.000Z</time>
        <extensions>
          <ns3:TrackPointExtension>
            <ns3:atemp>18.0</ns3:atemp>
            <ns3:hr>123</ns3:hr>
          </ns3:TrackPointExtension>
        </extensions>
      </trkpt>
      <trkpt lat="-22.00735707767307758331298828125" lon="166.455045975744724273681640625">
        <ele>966.4000244140625</ele>
        <time>2016-08-12T21:02:37.000Z</time>
        <extensions>
          <ns3:TrackPointExtension>
            <ns3:atemp>18.0</ns3:atemp>
            <ns3:hr>123</ns3:hr>
          </ns3:TrackPointExtension>
        </extensions>
      </trkpt>
      <trkpt lat="-22.0073400624096393585205078125" lon="166.45504765212535858154296875">
        <ele>966.20001220703125</ele>
        <time>2016-08-12T21:02:38.000Z</time>
        <extensions>
          <ns3:TrackPointExtension>
            <ns3:atemp>18.0</ns3:atemp>
            <ns3:hr>123</ns3:hr>
          </ns3:TrackPointExtension>
        </extensions>
      </trkpt>
      <trkpt lat="-22.00732204131782054901123046875" lon="166.455048657953739166259765625">
        <ele>965.79998779296875</ele>
        <time>2016-08-12T21:02:39.000Z</time>
        <extensions>
          <ns3:TrackPointExtension>
            <ns3:atemp>18.0</ns3:atemp>
            <ns3:hr>122</ns3:hr>
          </ns3:TrackPointExtension>
        </extensions>
      </trkpt>
      <trkpt lat="-22.00730326585471630096435546875" lon="166.455052681267261505126953125">
        <ele>965.4000244140625</ele>
        <time>2016-08-12T21:02:40.000Z</time>
        <extensions>
          <ns3:TrackPointExtension>
            <ns3:atemp>18.0</ns3:atemp>
            <ns3:hr>122</ns3:hr>
          </ns3:TrackPointExtension>
        </extensions>
      </trkpt>
      <trkpt lat="-22.00728734023869037628173828125" lon="166.45505595020949840545654296875">
        <ele>965</ele>
        <time>2016-08-12T21:02:41.000Z</time>
        <extensions>
          <ns3:TrackPointExtension>
            <ns3:atemp>18.0</ns3:atemp>
            <ns3:hr>122</ns3:hr>
          </ns3:TrackPointExtension>
        </extensions>
      </trkpt>
      <trkpt lat="-22.00727292336523532867431640625" lon="166.4550582133233547210693359375">
        <ele>964.79998779296875</ele>
        <time>2016-08-12T21:02:42.000Z</time>
        <extensions>
          <ns3:TrackPointExtension>
            <ns3:atemp>18.0</ns3:atemp>
            <ns3:hr>122</ns3:hr>
          </ns3:TrackPointExtension>
        </extensions>
      </trkpt>
      <trkpt lat="-22.00725783593952655792236328125" lon="166.45505712367594242095947265625">
        <ele>964.5999755859375</ele>
        <time>2016-08-12T21:02:43.000Z</time>
        <extensions>
          <ns3:TrackPointExtension>
            <ns3:atemp>18.0</ns3:atemp>
            <ns3:hr>122</ns3:hr>
          </ns3:TrackPointExtension>
        </extensions>
      </trkpt>
      <trkpt lat="-22.0072414912283420562744140625" lon="166.45505762659013271331787109375">
        <ele>964.4000244140625</ele>
        <time>2016-08-12T21:02:44.000Z</time>
        <extensions>
          <ns3:TrackPointExtension>
            <ns3:atemp>18.0</ns3:atemp>
            <ns3:hr>122</ns3:hr>
          </ns3:TrackPointExtension>
        </extensions>
      </trkpt>
      <trkpt lat="-22.00722330249845981597900390625" lon="166.4550558663904666900634765625">
        <ele>964</ele>
        <time>2016-08-12T21:02:45.000Z</time>
        <extensions>
          <ns3:TrackPointExtension>
            <ns3:atemp>18.0</ns3:atemp>
            <ns3:hr>122</ns3:hr>
          </ns3:TrackPointExtension>
        </extensions>
      </trkpt>
      <trkpt lat="-22.00720570050179958343505859375" lon="166.45505343563854694366455078125">
        <ele>964</ele>
        <time>2016-08-12T21:02:46.000Z</time>
        <extensions>
          <ns3:TrackPointExtension>
            <ns3:atemp>18.0</ns3:atemp>
            <ns3:hr>122</ns3:hr>
          </ns3:TrackPointExtension>
        </extensions>
      </trkpt>
      <trkpt lat="-22.00718927197158336639404296875" lon="166.45505125634372234344482421875">
        <ele>963.79998779296875</ele>
        <time>2016-08-12T21:02:47.000Z</time>
        <extensions>
          <ns3:TrackPointExtension>
            <ns3:atemp>18.0</ns3:atemp>
            <ns3:hr>122</ns3:hr>
          </ns3:TrackPointExtension>
        </extensions>
      </trkpt>
      <trkpt lat="-22.00717217288911342620849609375" lon="166.45504823885858058929443359375">
        <ele>963.5999755859375</ele>
        <time>2016-08-12T21:02:48.000Z</time>
        <extensions>
          <ns3:TrackPointExtension>
            <ns3:atemp>18.0</ns3:atemp>
            <ns3:hr>122</ns3:hr>
          </ns3:TrackPointExtension>
        </extensions>
      </trkpt>
      <trkpt lat="-22.00715255923569202423095703125" lon="166.455043964087963104248046875">
        <ele>963.20001220703125</ele>
        <time>2016-08-12T21:02:49.000Z</time>
        <extensions>
          <ns3:TrackPointExtension>
            <ns3:atemp>18.0</ns3:atemp>
            <ns3:hr>122</ns3:hr>
          </ns3:TrackPointExtension>
        </extensions>
      </trkpt>
      <trkpt lat="-22.00713495723903179168701171875" lon="166.45503717474639415740966796875">
        <ele>962.79998779296875</ele>
        <time>2016-08-12T21:02:50.000Z</time>
        <extensions>
          <ns3:TrackPointExtension>
            <ns3:atemp>18.0</ns3:atemp>
            <ns3:hr>122</ns3:hr>
          </ns3:TrackPointExtension>
        </extensions>
      </trkpt>
      <trkpt lat="-22.00712271966040134429931640625" lon="166.45502527244389057159423828125">
        <ele>962.5999755859375</ele>
        <time>2016-08-12T21:02:51.000Z</time>
        <extensions>
          <ns3:TrackPointExtension>
            <ns3:atemp>18.0</ns3:atemp>
            <ns3:hr>122</ns3:hr>
          </ns3:TrackPointExtension>
        </extensions>
      </trkpt>
      <trkpt lat="-22.00711651705205440521240234375" lon="166.45500968210399150848388671875">
        <ele>962.20001220703125</ele>
        <time>2016-08-12T21:02:52.000Z</time>
        <extensions>
          <ns3:TrackPointExtension>
            <ns3:atemp>18.0</ns3:atemp>
            <ns3:hr>122</ns3:hr>
          </ns3:TrackPointExtension>
        </extensions>
      </trkpt>
      <trkpt lat="-22.00711618177592754364013671875" lon="166.45498855970799922943115234375">
        <ele>962</ele>
        <time>2016-08-12T21:02:53.000Z</time>
        <extensions>
          <ns3:TrackPointExtension>
            <ns3:atemp>18.0</ns3:atemp>
            <ns3:hr>122</ns3:hr>
          </ns3:TrackPointExtension>
        </extensions>
      </trkpt>
      <trkpt lat="-22.00712054036557674407958984375" lon="166.4549663476645946502685546875">
        <ele>961.79998779296875</ele>
        <time>2016-08-12T21:02:54.000Z</time>
        <extensions>
          <ns3:TrackPointExtension>
            <ns3:atemp>18.0</ns3:atemp>
            <ns3:hr>122</ns3:hr>
          </ns3:TrackPointExtension>
        </extensions>
      </trkpt>
      <trkpt lat="-22.00713043101131916046142578125" lon="166.45494447089731693267822265625">
        <ele>961.4000244140625</ele>
        <time>2016-08-12T21:02:55.000Z</time>
        <extensions>
          <ns3:TrackPointExtension>
            <ns3:atemp>18.0</ns3:atemp>
            <ns3:hr>122</ns3:hr>
          </ns3:TrackPointExtension>
        </extensions>
      </trkpt>
      <trkpt lat="-22.007141411304473876953125" lon="166.45492536015808582305908203125">
        <ele>961</ele>
        <time>2016-08-12T21:02:56.000Z</time>
        <extensions>
          <ns3:TrackPointExtension>
            <ns3:atemp>18.0</ns3:atemp>
            <ns3:hr>122</ns3:hr>
          </ns3:TrackPointExtension>
        </extensions>
      </trkpt>
      <trkpt lat="-22.00715457089245319366455078125" lon="166.45491178147494792938232421875">
        <ele>960.79998779296875</ele>
        <time>2016-08-12T21:02:57.000Z</time>
        <extensions>
          <ns3:TrackPointExtension>
            <ns3:atemp>18.0</ns3:atemp>
            <ns3:hr>122</ns3:hr>
          </ns3:TrackPointExtension>
        </extensions>
      </trkpt>
      <trkpt lat="-22.00717024505138397216796875" lon="166.45490457303822040557861328125">
        <ele>960.5999755859375</ele>
        <time>2016-08-12T21:02:58.000Z</time>
        <extensions>
          <ns3:TrackPointExtension>
            <ns3:atemp>18.0</ns3:atemp>
            <ns3:hr>122</ns3:hr>
          </ns3:TrackPointExtension>
        </extensions>
      </trkpt>
      <trkpt lat="-22.0071855001151561737060546875" lon="166.4549033157527446746826171875">
        <ele>960.4000244140625</ele>
        <time>2016-08-12T21:02:59.000Z</time>
        <extensions>
          <ns3:TrackPointExtension>
            <ns3:atemp>18.0</ns3:atemp>
            <ns3:hr>122</ns3:hr>
          </ns3:TrackPointExtension>
        </extensions>
      </trkpt>
      <trkpt lat="-22.0072046108543872833251953125" lon="166.454909853637218475341796875">
        <ele>960.20001220703125</ele>
        <time>2016-08-12T21:03:00.000Z</time>
        <extensions>
          <ns3:TrackPointExtension>
            <ns3:atemp>18.0</ns3:atemp>
            <ns3:hr>122</ns3:hr>
          </ns3:TrackPointExtension>
        </extensions>
      </trkpt>
      <trkpt lat="-22.0072267390787601470947265625" lon="166.454917229712009429931640625">
        <ele>960</ele>
        <time>2016-08-12T21:03:01.000Z</time>
        <extensions>
          <ns3:TrackPointExtension>
            <ns3:atemp>18.0</ns3:atemp>
            <ns3:hr>121</ns3:hr>
          </ns3:TrackPointExtension>
        </extensions>
      </trkpt>
      <trkpt lat="-22.00724744237959384918212890625" lon="166.45491932518780231475830078125">
        <ele>960</ele>
        <time>2016-08-12T21:03:02.000Z</time>
        <extensions>
          <ns3:TrackPointExtension>
            <ns3:atemp>18.0</ns3:atemp>
            <ns3:hr>122</ns3:hr>
          </ns3:TrackPointExtension>
        </extensions>
      </trkpt>
      <trkpt lat="-22.0072709955275058746337890625" lon="166.4549170620739459991455078125">
        <ele>959.79998779296875</ele>
        <time>2016-08-12T21:03:03.000Z</time>
        <extensions>
          <ns3:TrackPointExtension>
            <ns3:atemp>18.0</ns3:atemp>
            <ns3:hr>122</ns3:hr>
          </ns3:TrackPointExtension>
        </extensions>
      </trkpt>
      <trkpt lat="-22.00729496777057647705078125" lon="166.4549123682081699371337890625">
        <ele>959.79998779296875</ele>
        <time>2016-08-12T21:03:04.000Z</time>
        <extensions>
          <ns3:TrackPointExtension>
            <ns3:atemp>18.0</ns3:atemp>
            <ns3:hr>122</ns3:hr>
          </ns3:TrackPointExtension>
        </extensions>
      </trkpt>
      <trkpt lat="-22.00731600634753704071044921875" lon="166.454905159771442413330078125">
        <ele>959.4000244140625</ele>
        <time>2016-08-12T21:03:05.000Z</time>
        <extensions>
          <ns3:TrackPointExtension>
            <ns3:atemp>18.0</ns3:atemp>
            <ns3:hr>122</ns3:hr>
          </ns3:TrackPointExtension>
        </extensions>
      </trkpt>
      <trkpt lat="-22.00733645819127559661865234375" lon="166.45489485003054141998291015625">
        <ele>959.20001220703125</ele>
        <time>2016-08-12T21:03:06.000Z</time>
        <extensions>
          <ns3:TrackPointExtension>
            <ns3:atemp>18.0</ns3:atemp>
            <ns3:hr>122</ns3:hr>
          </ns3:TrackPointExtension>
        </extensions>
      </trkpt>
      <trkpt lat="-22.0073573291301727294921875" lon="166.45488177426159381866455078125">
        <ele>959</ele>
        <time>2016-08-12T21:03:07.000Z</time>
        <extensions>
          <ns3:TrackPointExtension>
            <ns3:atemp>18.0</ns3:atemp>
            <ns3:hr>123</ns3:hr>
          </ns3:TrackPointExtension>
        </extensions>
      </trkpt>
      <trkpt lat="-22.00737275183200836181640625" lon="166.45486802794039249420166015625">
        <ele>958.79998779296875</ele>
        <time>2016-08-12T21:03:08.000Z</time>
        <extensions>
          <ns3:TrackPointExtension>
            <ns3:atemp>18.0</ns3:atemp>
            <ns3:hr>123</ns3:hr>
          </ns3:TrackPointExtension>
        </extensions>
      </trkpt>
      <trkpt lat="-22.0073849894106388092041015625" lon="166.45485126413404941558837890625">
        <ele>958.4000244140625</ele>
        <time>2016-08-12T21:03:09.000Z</time>
        <extensions>
          <ns3:TrackPointExtension>
            <ns3:atemp>17.0</ns3:atemp>
            <ns3:hr>123</ns3:hr>
          </ns3:TrackPointExtension>
        </extensions>
      </trkpt>
      <trkpt lat="-22.0073980651795864105224609375" lon="166.4548297226428985595703125">
        <ele>958.20001220703125</ele>
        <time>2016-08-12T21:03:10.000Z</time>
        <extensions>
          <ns3:TrackPointExtension>
            <ns3:atemp>17.0</ns3:atemp>
            <ns3:hr>123</ns3:hr>
          </ns3:TrackPointExtension>
        </extensions>
      </trkpt>
      <trkpt lat="-22.00741030275821685791015625" lon="166.45480935461819171905517578125">
        <ele>958</ele>
        <time>2016-08-12T21:03:11.000Z</time>
        <extensions>
          <ns3:TrackPointExtension>
            <ns3:atemp>17.0</ns3:atemp>
            <ns3:hr>123</ns3:hr>
          </ns3:TrackPointExtension>
        </extensions>
      </trkpt>
      <trkpt lat="-22.00742346234619617462158203125" lon="166.45478739403188228607177734375">
        <ele>957.79998779296875</ele>
        <time>2016-08-12T21:03:12.000Z</time>
        <extensions>
          <ns3:TrackPointExtension>
            <ns3:atemp>17.0</ns3:atemp>
            <ns3:hr>123</ns3:hr>
          </ns3:TrackPointExtension>
        </extensions>
      </trkpt>
      <trkpt lat="-22.00743846595287322998046875" lon="166.45476560108363628387451171875">
        <ele>957.79998779296875</ele>
        <time>2016-08-12T21:03:13.000Z</time>
        <extensions>
          <ns3:TrackPointExtension>
            <ns3:atemp>17.0</ns3:atemp>
            <ns3:hr>123</ns3:hr>
          </ns3:TrackPointExtension>
        </extensions>
      </trkpt>
      <trkpt lat="-22.00745313428342342376708984375" lon="166.454750597476959228515625">
        <ele>957.5999755859375</ele>
        <time>2016-08-12T21:03:14.000Z</time>
        <extensions>
          <ns3:TrackPointExtension>
            <ns3:atemp>17.0</ns3:atemp>
            <ns3:hr>124</ns3:hr>
          </ns3:TrackPointExtension>
        </extensions>
      </trkpt>
      <trkpt lat="-22.0074724964797496795654296875" lon="166.454740203917026519775390625">
        <ele>957.5999755859375</ele>
        <time>2016-08-12T21:03:15.000Z</time>
        <extensions>
          <ns3:TrackPointExtension>
            <ns3:atemp>17.0</ns3:atemp>
            <ns3:hr>124</ns3:hr>
          </ns3:TrackPointExtension>
        </extensions>
      </trkpt>
      <trkpt lat="-22.00749202631413936614990234375" lon="166.45473115146160125732421875">
        <ele>957.4000244140625</ele>
        <time>2016-08-12T21:03:16.000Z</time>
        <extensions>
          <ns3:TrackPointExtension>
            <ns3:atemp>17.0</ns3:atemp>
            <ns3:hr>125</ns3:hr>
          </ns3:TrackPointExtension>
        </extensions>
      </trkpt>
      <trkpt lat="-22.00751247815787792205810546875" lon="166.454723440110683441162109375">
        <ele>957.20001220703125</ele>
        <time>2016-08-12T21:03:17.000Z</time>
        <extensions>
          <ns3:TrackPointExtension>
            <ns3:atemp>17.0</ns3:atemp>
            <ns3:hr>125</ns3:hr>
          </ns3:TrackPointExtension>
        </extensions>
      </trkpt>
      <trkpt lat="-22.007534690201282501220703125" lon="166.45471581257879734039306640625">
        <ele>957</ele>
        <time>2016-08-12T21:03:18.000Z</time>
        <extensions>
          <ns3:TrackPointExtension>
            <ns3:atemp>17.0</ns3:atemp>
            <ns3:hr>125</ns3:hr>
          </ns3:TrackPointExtension>
        </extensions>
      </trkpt>
      <trkpt lat="-22.00755690224468708038330078125" lon="166.45470709539949893951416015625">
        <ele>956.79998779296875</ele>
        <time>2016-08-12T21:03:19.000Z</time>
        <extensions>
          <ns3:TrackPointExtension>
            <ns3:atemp>17.0</ns3:atemp>
            <ns3:hr>125</ns3:hr>
          </ns3:TrackPointExtension>
        </extensions>
      </trkpt>
      <trkpt lat="-22.00757768936455249786376953125" lon="166.454698629677295684814453125">
        <ele>956.5999755859375</ele>
        <time>2016-08-12T21:03:20.000Z</time>
        <extensions>
          <ns3:TrackPointExtension>
            <ns3:atemp>17.0</ns3:atemp>
            <ns3:hr>126</ns3:hr>
          </ns3:TrackPointExtension>
        </extensions>
      </trkpt>
      <trkpt lat="-22.00759805738925933837890625" lon="166.4546937681734561920166015625">
        <ele>956.4000244140625</ele>
        <time>2016-08-12T21:03:21.000Z</time>
        <extensions>
          <ns3:TrackPointExtension>
            <ns3:atemp>17.0</ns3:atemp>
            <ns3:hr>126</ns3:hr>
          </ns3:TrackPointExtension>
        </extensions>
      </trkpt>
      <trkpt lat="-22.00761976651847362518310546875" lon="166.45468614064157009124755859375">
        <ele>956.4000244140625</ele>
        <time>2016-08-12T21:03:22.000Z</time>
        <extensions>
          <ns3:TrackPointExtension>
            <ns3:atemp>17.0</ns3:atemp>
            <ns3:hr>126</ns3:hr>
          </ns3:TrackPointExtension>
        </extensions>
      </trkpt>
      <trkpt lat="-22.0076401345431804656982421875" lon="166.4546790160238742828369140625">
        <ele>956.4000244140625</ele>
        <time>2016-08-12T21:03:23.000Z</time>
        <extensions>
          <ns3:TrackPointExtension>
            <ns3:atemp>17.0</ns3:atemp>
            <ns3:hr>126</ns3:hr>
          </ns3:TrackPointExtension>
        </extensions>
      </trkpt>
      <trkpt lat="-22.0076622627675533294677734375" lon="166.45467306487262248992919921875">
        <ele>956.20001220703125</ele>
        <time>2016-08-12T21:03:24.000Z</time>
        <extensions>
          <ns3:TrackPointExtension>
            <ns3:atemp>17.0</ns3:atemp>
            <ns3:hr>126</ns3:hr>
          </ns3:TrackPointExtension>
        </extensions>
      </trkpt>
      <trkpt lat="-22.00768866576254367828369140625" lon="166.45466585643589496612548828125">
        <ele>955.79998779296875</ele>
        <time>2016-08-12T21:03:25.000Z</time>
        <extensions>
          <ns3:TrackPointExtension>
            <ns3:atemp>17.0</ns3:atemp>
            <ns3:hr>126</ns3:hr>
          </ns3:TrackPointExtension>
        </extensions>
      </trkpt>
      <trkpt lat="-22.00771163217723369598388671875" lon="166.4546582289040088653564453125">
        <ele>956</ele>
        <time>2016-08-12T21:03:26.000Z</time>
        <extensions>
          <ns3:TrackPointExtension>
            <ns3:atemp>17.0</ns3:atemp>
            <ns3:hr>126</ns3:hr>
          </ns3:TrackPointExtension>
        </extensions>
      </trkpt>
      <trkpt lat="-22.0077301561832427978515625" lon="166.45464490167796611785888671875">
        <ele>955.79998779296875</ele>
        <time>2016-08-12T21:03:27.000Z</time>
        <extensions>
          <ns3:TrackPointExtension>
            <ns3:atemp>17.0</ns3:atemp>
            <ns3:hr>126</ns3:hr>
          </ns3:TrackPointExtension>
        </extensions>
      </trkpt>
      <trkpt lat="-22.00774817727506160736083984375" lon="166.454628221690654754638671875">
        <ele>955.4000244140625</ele>
        <time>2016-08-12T21:03:28.000Z</time>
        <extensions>
          <ns3:TrackPointExtension>
            <ns3:atemp>17.0</ns3:atemp>
            <ns3:hr>127</ns3:hr>
          </ns3:TrackPointExtension>
        </extensions>
      </trkpt>
      <trkpt lat="-22.007762007415294647216796875" lon="166.45461154170334339141845703125">
        <ele>955.4000244140625</ele>
        <time>2016-08-12T21:03:29.000Z</time>
        <extensions>
          <ns3:TrackPointExtension>
            <ns3:atemp>17.0</ns3:atemp>
            <ns3:hr>127</ns3:hr>
          </ns3:TrackPointExtension>
        </extensions>
      </trkpt>
      <trkpt lat="-22.0077769272029399871826171875" lon="166.4545982144773006439208984375">
        <ele>955.20001220703125</ele>
        <time>2016-08-12T21:03:30.000Z</time>
        <extensions>
          <ns3:TrackPointExtension>
            <ns3:atemp>17.0</ns3:atemp>
            <ns3:hr>127</ns3:hr>
          </ns3:TrackPointExtension>
        </extensions>
      </trkpt>
      <trkpt lat="-22.0077943615615367889404296875" lon="166.454583965241909027099609375">
        <ele>955.20001220703125</ele>
        <time>2016-08-12T21:03:31.000Z</time>
        <extensions>
          <ns3:TrackPointExtension>
            <ns3:atemp>17.0</ns3:atemp>
            <ns3:hr>126</ns3:hr>
          </ns3:TrackPointExtension>
        </extensions>
      </trkpt>
      <trkpt lat="-22.00781020335853099822998046875" lon="166.4545677043497562408447265625">
        <ele>955</ele>
        <time>2016-08-12T21:03:32.000Z</time>
        <extensions>
          <ns3:TrackPointExtension>
            <ns3:atemp>17.0</ns3:atemp>
            <ns3:hr>127</ns3:hr>
          </ns3:TrackPointExtension>
        </extensions>
      </trkpt>
      <trkpt lat="-22.00782470405101776123046875" lon="166.45455186255276203155517578125">
        <ele>954.79998779296875</ele>
        <time>2016-08-12T21:03:33.000Z</time>
        <extensions>
          <ns3:TrackPointExtension>
            <ns3:atemp>17.0</ns3:atemp>
            <ns3:hr>126</ns3:hr>
          </ns3:TrackPointExtension>
        </extensions>
      </trkpt>
      <trkpt lat="-22.00783752836287021636962890625" lon="166.45453132688999176025390625">
        <ele>954.4000244140625</ele>
        <time>2016-08-12T21:03:34.000Z</time>
        <extensions>
          <ns3:TrackPointExtension>
            <ns3:atemp>17.0</ns3:atemp>
            <ns3:hr>126</ns3:hr>
          </ns3:TrackPointExtension>
        </extensions>
      </trkpt>
      <trkpt lat="-22.0078496821224689483642578125" lon="166.4545103721320629119873046875">
        <ele>954</ele>
        <time>2016-08-12T21:03:35.000Z</time>
        <extensions>
          <ns3:TrackPointExtension>
            <ns3:atemp>17.0</ns3:atemp>
            <ns3:hr>126</ns3:hr>
          </ns3:TrackPointExtension>
        </extensions>
      </trkpt>
      <trkpt lat="-22.007861919701099395751953125" lon="166.45449251867830753326416015625">
        <ele>953.79998779296875</ele>
        <time>2016-08-12T21:03:36.000Z</time>
        <extensions>
          <ns3:TrackPointExtension>
            <ns3:atemp>17.0</ns3:atemp>
            <ns3:hr>126</ns3:hr>
          </ns3:TrackPointExtension>
        </extensions>
      </trkpt>
      <trkpt lat="-22.00787340290844440460205078125" lon="166.45447156392037868499755859375">
        <ele>953.5999755859375</ele>
        <time>2016-08-12T21:03:37.000Z</time>
        <extensions>
          <ns3:TrackPointExtension>
            <ns3:atemp>17.0</ns3:atemp>
            <ns3:hr>126</ns3:hr>
          </ns3:TrackPointExtension>
        </extensions>
      </trkpt>
      <trkpt lat="-22.00787910260260105133056640625" lon="166.45445111207664012908935546875">
        <ele>953.20001220703125</ele>
        <time>2016-08-12T21:03:38.000Z</time>
        <extensions>
          <ns3:TrackPointExtension>
            <ns3:atemp>17.0</ns3:atemp>
            <ns3:hr>126</ns3:hr>
          </ns3:TrackPointExtension>
        </extensions>
      </trkpt>
      <trkpt lat="-22.00788396410644054412841796875" lon="166.4544319175183773040771484375">
        <ele>953</ele>
        <time>2016-08-12T21:03:39.000Z</time>
        <extensions>
          <ns3:TrackPointExtension>
            <ns3:atemp>17.0</ns3:atemp>
            <ns3:hr>126</ns3:hr>
          </ns3:TrackPointExtension>
        </extensions>
      </trkpt>
      <trkpt lat="-22.00789033435285091400146484375" lon="166.45440970547497272491455078125">
        <ele>952.5999755859375</ele>
        <time>2016-08-12T21:03:40.000Z</time>
        <extensions>
          <ns3:TrackPointExtension>
            <ns3:atemp>17.0</ns3:atemp>
            <ns3:hr>126</ns3:hr>
          </ns3:TrackPointExtension>
        </extensions>
      </trkpt>
      <trkpt lat="-22.007893435657024383544921875" lon="166.45438782870769500732421875">
        <ele>952.4000244140625</ele>
        <time>2016-08-12T21:03:41.000Z</time>
        <extensions>
          <ns3:TrackPointExtension>
            <ns3:atemp>17.0</ns3:atemp>
            <ns3:hr>126</ns3:hr>
          </ns3:TrackPointExtension>
        </extensions>
      </trkpt>
      <trkpt lat="-22.0078919269144535064697265625" lon="166.4543682150542736053466796875">
        <ele>952</ele>
        <time>2016-08-12T21:03:42.000Z</time>
        <extensions>
          <ns3:TrackPointExtension>
            <ns3:atemp>17.0</ns3:atemp>
            <ns3:hr>126</ns3:hr>
          </ns3:TrackPointExtension>
        </extensions>
      </trkpt>
      <trkpt lat="-22.00789419002830982208251953125" lon="166.45434717647731304168701171875">
        <ele>951.5999755859375</ele>
        <time>2016-08-12T21:03:43.000Z</time>
        <extensions>
          <ns3:TrackPointExtension>
            <ns3:atemp>17.0</ns3:atemp>
            <ns3:hr>126</ns3:hr>
          </ns3:TrackPointExtension>
        </extensions>
      </trkpt>
      <trkpt lat="-22.0078979618847370147705078125" lon="166.45432672463357448577880859375">
        <ele>951.4000244140625</ele>
        <time>2016-08-12T21:03:44.000Z</time>
        <extensions>
          <ns3:TrackPointExtension>
            <ns3:atemp>17.0</ns3:atemp>
            <ns3:hr>126</ns3:hr>
          </ns3:TrackPointExtension>
        </extensions>
      </trkpt>
      <trkpt lat="-22.0079036615788936614990234375" lon="166.45430962555110454559326171875">
        <ele>951.20001220703125</ele>
        <time>2016-08-12T21:03:45.000Z</time>
        <extensions>
          <ns3:TrackPointExtension>
            <ns3:atemp>17.0</ns3:atemp>
            <ns3:hr>126</ns3:hr>
          </ns3:TrackPointExtension>
        </extensions>
      </trkpt>
      <trkpt lat="-22.00791179202497005462646484375" lon="166.4542905986309051513671875">
        <ele>950.79998779296875</ele>
        <time>2016-08-12T21:03:46.000Z</time>
        <extensions>
          <ns3:TrackPointExtension>
            <ns3:atemp>17.0</ns3:atemp>
            <ns3:hr>125</ns3:hr>
          </ns3:TrackPointExtension>
        </extensions>
      </trkpt>
      <trkpt lat="-22.007915563881397247314453125" lon="166.45426821894943714141845703125">
        <ele>950.5999755859375</ele>
        <time>2016-08-12T21:03:47.000Z</time>
        <extensions>
          <ns3:TrackPointExtension>
            <ns3:atemp>17.0</ns3:atemp>
            <ns3:hr>125</ns3:hr>
          </ns3:TrackPointExtension>
        </extensions>
      </trkpt>
      <trkpt lat="-22.00791480951011180877685546875" lon="166.4542458392679691314697265625">
        <ele>950.4000244140625</ele>
        <time>2016-08-12T21:03:48.000Z</time>
        <extensions>
          <ns3:TrackPointExtension>
            <ns3:atemp>17.0</ns3:atemp>
            <ns3:hr>125</ns3:hr>
          </ns3:TrackPointExtension>
        </extensions>
      </trkpt>
      <trkpt lat="-22.00791615061461925506591796875" lon="166.454226560890674591064453125">
        <ele>950.20001220703125</ele>
        <time>2016-08-12T21:03:49.000Z</time>
        <extensions>
          <ns3:TrackPointExtension>
            <ns3:atemp>17.0</ns3:atemp>
            <ns3:hr>125</ns3:hr>
          </ns3:TrackPointExtension>
        </extensions>
      </trkpt>
      <trkpt lat="-22.0079207606613636016845703125" lon="166.45420543849468231201171875">
        <ele>950.20001220703125</ele>
        <time>2016-08-12T21:03:50.000Z</time>
        <extensions>
          <ns3:TrackPointExtension>
            <ns3:atemp>17.0</ns3:atemp>
            <ns3:hr>125</ns3:hr>
          </ns3:TrackPointExtension>
        </extensions>
      </trkpt>
      <trkpt lat="-22.00792704708874225616455078125" lon="166.45418423227965831756591796875">
        <ele>949.5999755859375</ele>
        <time>2016-08-12T21:03:51.000Z</time>
        <extensions>
          <ns3:TrackPointExtension>
            <ns3:atemp>17.0</ns3:atemp>
            <ns3:hr>126</ns3:hr>
          </ns3:TrackPointExtension>
        </extensions>
      </trkpt>
      <trkpt lat="-22.007926292717456817626953125" lon="166.45416319370269775390625">
        <ele>949.20001220703125</ele>
        <time>2016-08-12T21:03:52.000Z</time>
        <extensions>
          <ns3:TrackPointExtension>
            <ns3:atemp>17.0</ns3:atemp>
            <ns3:hr>126</ns3:hr>
          </ns3:TrackPointExtension>
        </extensions>
      </trkpt>
      <trkpt lat="-22.007924951612949371337890625" lon="166.45414282567799091339111328125">
        <ele>949.20001220703125</ele>
        <time>2016-08-12T21:03:53.000Z</time>
        <extensions>
          <ns3:TrackPointExtension>
            <ns3:atemp>17.0</ns3:atemp>
            <ns3:hr>126</ns3:hr>
          </ns3:TrackPointExtension>
        </extensions>
      </trkpt>
      <trkpt lat="-22.00792604126036167144775390625" lon="166.454121954739093780517578125">
        <ele>949</ele>
        <time>2016-08-12T21:03:54.000Z</time>
        <extensions>
          <ns3:TrackPointExtension>
            <ns3:atemp>17.0</ns3:atemp>
            <ns3:hr>126</ns3:hr>
          </ns3:TrackPointExtension>
        </extensions>
      </trkpt>
      <trkpt lat="-22.00792386196553707122802734375" lon="166.454097814857959747314453125">
        <ele>948.4000244140625</ele>
        <time>2016-08-12T21:03:55.000Z</time>
        <extensions>
          <ns3:TrackPointExtension>
            <ns3:atemp>17.0</ns3:atemp>
            <ns3:hr>126</ns3:hr>
          </ns3:TrackPointExtension>
        </extensions>
      </trkpt>
      <trkpt lat="-22.00792000629007816314697265625" lon="166.45407342351973056793212890625">
        <ele>948.20001220703125</ele>
        <time>2016-08-12T21:03:56.000Z</time>
        <extensions>
          <ns3:TrackPointExtension>
            <ns3:atemp>17.0</ns3:atemp>
            <ns3:hr>126</ns3:hr>
          </ns3:TrackPointExtension>
        </extensions>
      </trkpt>
      <trkpt lat="-22.00791346840560436248779296875" lon="166.45404878072440624237060546875">
        <ele>948</ele>
        <time>2016-08-12T21:03:57.000Z</time>
        <extensions>
          <ns3:TrackPointExtension>
            <ns3:atemp>17.0</ns3:atemp>
            <ns3:hr>126</ns3:hr>
          </ns3:TrackPointExtension>
        </extensions>
      </trkpt>
      <trkpt lat="-22.00790508650243282318115234375" lon="166.45402648486196994781494140625">
        <ele>947.79998779296875</ele>
        <time>2016-08-12T21:03:58.000Z</time>
        <extensions>
          <ns3:TrackPointExtension>
            <ns3:atemp>17.0</ns3:atemp>
            <ns3:hr>125</ns3:hr>
          </ns3:TrackPointExtension>
        </extensions>
      </trkpt>
      <trkpt lat="-22.00789519585669040679931640625" lon="166.4540089666843414306640625">
        <ele>947.5999755859375</ele>
        <time>2016-08-12T21:03:59.000Z</time>
        <extensions>
          <ns3:TrackPointExtension>
            <ns3:atemp>17.0</ns3:atemp>
            <ns3:hr>126</ns3:hr>
          </ns3:TrackPointExtension>
        </extensions>
      </trkpt>
      <trkpt lat="-22.00788195244967937469482421875" lon="166.45399278961122035980224609375">
        <ele>947.4000244140625</ele>
        <time>2016-08-12T21:04:00.000Z</time>
        <extensions>
          <ns3:TrackPointExtension>
            <ns3:atemp>17.0</ns3:atemp>
            <ns3:hr>126</ns3:hr>
          </ns3:TrackPointExtension>
        </extensions>
      </trkpt>
      <trkpt lat="-22.0078718103468418121337890625" lon="166.453971080482006072998046875">
        <ele>947.20001220703125</ele>
        <time>2016-08-12T21:04:01.000Z</time>
        <extensions>
          <ns3:TrackPointExtension>
            <ns3:atemp>17.0</ns3:atemp>
            <ns3:hr>126</ns3:hr>
          </ns3:TrackPointExtension>
        </extensions>
      </trkpt>
      <trkpt lat="-22.0078651048243045806884765625" lon="166.453951634466648101806640625">
        <ele>947</ele>
        <time>2016-08-12T21:04:02.000Z</time>
        <extensions>
          <ns3:TrackPointExtension>
            <ns3:atemp>17.0</ns3:atemp>
            <ns3:hr>126</ns3:hr>
          </ns3:TrackPointExtension>
        </extensions>
      </trkpt>
      <trkpt lat="-22.0078594051301479339599609375" lon="166.45393411628901958465576171875">
        <ele>946.79998779296875</ele>
        <time>2016-08-12T21:04:03.000Z</time>
        <extensions>
          <ns3:TrackPointExtension>
            <ns3:atemp>17.0</ns3:atemp>
            <ns3:hr>126</ns3:hr>
          </ns3:TrackPointExtension>
        </extensions>
      </trkpt>
      <trkpt lat="-22.00785144232213497161865234375" lon="166.45391483791172504425048828125">
        <ele>946.4000244140625</ele>
        <time>2016-08-12T21:04:04.000Z</time>
        <extensions>
          <ns3:TrackPointExtension>
            <ns3:atemp>17.0</ns3:atemp>
            <ns3:hr>126</ns3:hr>
          </ns3:TrackPointExtension>
        </extensions>
      </trkpt>
      <trkpt lat="-22.00784507207572460174560546875" lon="166.45389270968735218048095703125">
        <ele>946.20001220703125</ele>
        <time>2016-08-12T21:04:05.000Z</time>
        <extensions>
          <ns3:TrackPointExtension>
            <ns3:atemp>17.0</ns3:atemp>
            <ns3:hr>126</ns3:hr>
          </ns3:TrackPointExtension>
        </extensions>
      </trkpt>
      <trkpt lat="-22.0078372769057750701904296875" lon="166.45386873744428157806396484375">
        <ele>945.79998779296875</ele>
        <time>2016-08-12T21:04:06.000Z</time>
        <extensions>
          <ns3:TrackPointExtension>
            <ns3:atemp>17.0</ns3:atemp>
            <ns3:hr>126</ns3:hr>
          </ns3:TrackPointExtension>
        </extensions>
      </trkpt>
      <trkpt lat="-22.00783006846904754638671875" lon="166.45384593866765499114990234375">
        <ele>945.5999755859375</ele>
        <time>2016-08-12T21:04:07.000Z</time>
        <extensions>
          <ns3:TrackPointExtension>
            <ns3:atemp>17.0</ns3:atemp>
            <ns3:hr>126</ns3:hr>
          </ns3:TrackPointExtension>
        </extensions>
      </trkpt>
      <trkpt lat="-22.00783082284033298492431640625" lon="166.45382590591907501220703125">
        <ele>945.4000244140625</ele>
        <time>2016-08-12T21:04:08.000Z</time>
        <extensions>
          <ns3:TrackPointExtension>
            <ns3:atemp>17.0</ns3:atemp>
            <ns3:hr>126</ns3:hr>
          </ns3:TrackPointExtension>
        </extensions>
      </trkpt>
      <trkpt lat="-22.0078345946967601776123046875" lon="166.4538066275417804718017578125">
        <ele>945</ele>
        <time>2016-08-12T21:04:09.000Z</time>
        <extensions>
          <ns3:TrackPointExtension>
            <ns3:atemp>17.0</ns3:atemp>
            <ns3:hr>127</ns3:hr>
          </ns3:TrackPointExtension>
        </extensions>
      </trkpt>
      <trkpt lat="-22.007840462028980255126953125" lon="166.45378877408802509307861328125">
        <ele>944.79998779296875</ele>
        <time>2016-08-12T21:04:10.000Z</time>
        <extensions>
          <ns3:TrackPointExtension>
            <ns3:atemp>17.0</ns3:atemp>
            <ns3:hr>127</ns3:hr>
          </ns3:TrackPointExtension>
        </extensions>
      </trkpt>
      <trkpt lat="-22.00784616172313690185546875" lon="166.45376999862492084503173828125">
        <ele>944.5999755859375</ele>
        <time>2016-08-12T21:04:11.000Z</time>
        <extensions>
          <ns3:TrackPointExtension>
            <ns3:atemp>17.0</ns3:atemp>
            <ns3:hr>127</ns3:hr>
          </ns3:TrackPointExtension>
        </extensions>
      </trkpt>
      <trkpt lat="-22.00784507207572460174560546875" lon="166.453751809895038604736328125">
        <ele>944.4000244140625</ele>
        <time>2016-08-12T21:04:12.000Z</time>
        <extensions>
          <ns3:TrackPointExtension>
            <ns3:atemp>17.0</ns3:atemp>
            <ns3:hr>127</ns3:hr>
          </ns3:TrackPointExtension>
        </extensions>
      </trkpt>
      <trkpt lat="-22.007837779819965362548828125" lon="166.45373596809804439544677734375">
        <ele>944</ele>
        <time>2016-08-12T21:04:13.000Z</time>
        <extensions>
          <ns3:TrackPointExtension>
            <ns3:atemp>17.0</ns3:atemp>
            <ns3:hr>127</ns3:hr>
          </ns3:TrackPointExtension>
        </extensions>
      </trkpt>
      <trkpt lat="-22.0078295655548572540283203125" lon="166.45371937192976474761962890625">
        <ele>943.79998779296875</ele>
        <time>2016-08-12T21:04:14.000Z</time>
        <extensions>
          <ns3:TrackPointExtension>
            <ns3:atemp>17.0</ns3:atemp>
            <ns3:hr>127</ns3:hr>
          </ns3:TrackPointExtension>
        </extensions>
      </trkpt>
      <trkpt lat="-22.00782797299325466156005859375" lon="166.4537010155618190765380859375">
        <ele>943.5999755859375</ele>
        <time>2016-08-12T21:04:15.000Z</time>
        <extensions>
          <ns3:TrackPointExtension>
            <ns3:atemp>17.0</ns3:atemp>
            <ns3:hr>128</ns3:hr>
          </ns3:TrackPointExtension>
        </extensions>
      </trkpt>
      <trkpt lat="-22.00783283449709415435791015625" lon="166.453682743012905120849609375">
        <ele>943.4000244140625</ele>
        <time>2016-08-12T21:04:16.000Z</time>
        <extensions>
          <ns3:TrackPointExtension>
            <ns3:atemp>17.0</ns3:atemp>
            <ns3:hr>127</ns3:hr>
          </ns3:TrackPointExtension>
        </extensions>
      </trkpt>
      <trkpt lat="-22.0078396238386631011962890625" lon="166.45366220735013484954833984375">
        <ele>943.20001220703125</ele>
        <time>2016-08-12T21:04:17.000Z</time>
        <extensions>
          <ns3:TrackPointExtension>
            <ns3:atemp>17.0</ns3:atemp>
            <ns3:hr>128</ns3:hr>
          </ns3:TrackPointExtension>
        </extensions>
      </trkpt>
      <trkpt lat="-22.0078480057418346405029296875" lon="166.45364091731607913970947265625">
        <ele>943</ele>
        <time>2016-08-12T21:04:18.000Z</time>
        <extensions>
          <ns3:TrackPointExtension>
            <ns3:atemp>17.0</ns3:atemp>
            <ns3:hr>127</ns3:hr>
          </ns3:TrackPointExtension>
        </extensions>
      </trkpt>
      <trkpt lat="-22.00784892775118350982666015625" lon="166.45362197421491146087646484375">
        <ele>942.79998779296875</ele>
        <time>2016-08-12T21:04:19.000Z</time>
        <extensions>
          <ns3:TrackPointExtension>
            <ns3:atemp>17.0</ns3:atemp>
            <ns3:hr>128</ns3:hr>
          </ns3:TrackPointExtension>
        </extensions>
      </trkpt>
      <trkpt lat="-22.00784238986670970916748046875" lon="166.4536027796566486358642578125">
        <ele>942.79998779296875</ele>
        <time>2016-08-12T21:04:20.000Z</time>
        <extensions>
          <ns3:TrackPointExtension>
            <ns3:atemp>17.0</ns3:atemp>
            <ns3:hr>127</ns3:hr>
          </ns3:TrackPointExtension>
        </extensions>
      </trkpt>
      <trkpt lat="-22.00783283449709415435791015625" lon="166.4535843394696712493896484375">
        <ele>942.5999755859375</ele>
        <time>2016-08-12T21:04:21.000Z</time>
        <extensions>
          <ns3:TrackPointExtension>
            <ns3:atemp>17.0</ns3:atemp>
            <ns3:hr>127</ns3:hr>
          </ns3:TrackPointExtension>
        </extensions>
      </trkpt>
      <trkpt lat="-22.007831744849681854248046875" lon="166.45356581546366214752197265625">
        <ele>942.4000244140625</ele>
        <time>2016-08-12T21:04:22.000Z</time>
        <extensions>
          <ns3:TrackPointExtension>
            <ns3:atemp>17.0</ns3:atemp>
            <ns3:hr>127</ns3:hr>
          </ns3:TrackPointExtension>
        </extensions>
      </trkpt>
      <trkpt lat="-22.00783316977322101593017578125" lon="166.4535434357821941375732421875">
        <ele>942.20001220703125</ele>
        <time>2016-08-12T21:04:23.000Z</time>
        <extensions>
          <ns3:TrackPointExtension>
            <ns3:atemp>17.0</ns3:atemp>
            <ns3:hr>127</ns3:hr>
          </ns3:TrackPointExtension>
        </extensions>
      </trkpt>
      <trkpt lat="-22.00783233158290386199951171875" lon="166.453519128262996673583984375">
        <ele>942</ele>
        <time>2016-08-12T21:04:24.000Z</time>
        <extensions>
          <ns3:TrackPointExtension>
            <ns3:atemp>17.0</ns3:atemp>
            <ns3:hr>127</ns3:hr>
          </ns3:TrackPointExtension>
        </extensions>
      </trkpt>
      <trkpt lat="-22.00783451087772846221923828125" lon="166.45349775440990924835205078125">
        <ele>941.5999755859375</ele>
        <time>2016-08-12T21:04:25.000Z</time>
        <extensions>
          <ns3:TrackPointExtension>
            <ns3:atemp>17.0</ns3:atemp>
            <ns3:hr>127</ns3:hr>
          </ns3:TrackPointExtension>
        </extensions>
      </trkpt>
      <trkpt lat="-22.00783954001963138580322265625" lon="166.45347855985164642333984375">
        <ele>941.20001220703125</ele>
        <time>2016-08-12T21:04:26.000Z</time>
        <extensions>
          <ns3:TrackPointExtension>
            <ns3:atemp>17.0</ns3:atemp>
            <ns3:hr>127</ns3:hr>
          </ns3:TrackPointExtension>
        </extensions>
      </trkpt>
      <trkpt lat="-22.0078446529805660247802734375" lon="166.4534555934369564056396484375">
        <ele>940.79998779296875</ele>
        <time>2016-08-12T21:04:27.000Z</time>
        <extensions>
          <ns3:TrackPointExtension>
            <ns3:atemp>17.0</ns3:atemp>
            <ns3:hr>127</ns3:hr>
          </ns3:TrackPointExtension>
        </extensions>
      </trkpt>
      <trkpt lat="-22.00785219669342041015625" lon="166.45343589596450328826904296875">
        <ele>940.4000244140625</ele>
        <time>2016-08-12T21:04:28.000Z</time>
        <extensions>
          <ns3:TrackPointExtension>
            <ns3:atemp>17.0</ns3:atemp>
            <ns3:hr>127</ns3:hr>
          </ns3:TrackPointExtension>
        </extensions>
      </trkpt>
      <trkpt lat="-22.00785865075886249542236328125" lon="166.45341913215816020965576171875">
        <ele>940.20001220703125</ele>
        <time>2016-08-12T21:04:29.000Z</time>
        <extensions>
          <ns3:TrackPointExtension>
            <ns3:atemp>17.0</ns3:atemp>
            <ns3:hr>127</ns3:hr>
          </ns3:TrackPointExtension>
        </extensions>
      </trkpt>
      <trkpt lat="-22.0078642666339874267578125" lon="166.45339700393378734588623046875">
        <ele>940</ele>
        <time>2016-08-12T21:04:30.000Z</time>
        <extensions>
          <ns3:TrackPointExtension>
            <ns3:atemp>17.0</ns3:atemp>
            <ns3:hr>126</ns3:hr>
          </ns3:TrackPointExtension>
        </extensions>
      </trkpt>
      <trkpt lat="-22.007869295775890350341796875" lon="166.45337202586233615875244140625">
        <ele>939.79998779296875</ele>
        <time>2016-08-12T21:04:31.000Z</time>
        <extensions>
          <ns3:TrackPointExtension>
            <ns3:atemp>17.0</ns3:atemp>
            <ns3:hr>126</ns3:hr>
          </ns3:TrackPointExtension>
        </extensions>
      </trkpt>
      <trkpt lat="-22.00787692330777645111083984375" lon="166.4533496461808681488037109375">
        <ele>939.4000244140625</ele>
        <time>2016-08-12T21:04:32.000Z</time>
        <extensions>
          <ns3:TrackPointExtension>
            <ns3:atemp>17.0</ns3:atemp>
            <ns3:hr>126</ns3:hr>
          </ns3:TrackPointExtension>
        </extensions>
      </trkpt>
      <trkpt lat="-22.00788664631545543670654296875" lon="166.45332642830908298492431640625">
        <ele>939.20001220703125</ele>
        <time>2016-08-12T21:04:33.000Z</time>
        <extensions>
          <ns3:TrackPointExtension>
            <ns3:atemp>17.0</ns3:atemp>
            <ns3:hr>126</ns3:hr>
          </ns3:TrackPointExtension>
        </extensions>
      </trkpt>
      <trkpt lat="-22.00789519585669040679931640625" lon="166.4533040486276149749755859375">
        <ele>938.79998779296875</ele>
        <time>2016-08-12T21:04:34.000Z</time>
        <extensions>
          <ns3:TrackPointExtension>
            <ns3:atemp>17.0</ns3:atemp>
            <ns3:hr>127</ns3:hr>
          </ns3:TrackPointExtension>
        </extensions>
      </trkpt>
      <trkpt lat="-22.00790139846503734588623046875" lon="166.453285776078701019287109375">
        <ele>938.5999755859375</ele>
        <time>2016-08-12T21:04:35.000Z</time>
        <extensions>
          <ns3:TrackPointExtension>
            <ns3:atemp>17.0</ns3:atemp>
            <ns3:hr>127</ns3:hr>
          </ns3:TrackPointExtension>
        </extensions>
      </trkpt>
      <trkpt lat="-22.0079133845865726470947265625" lon="166.45326825790107250213623046875">
        <ele>938.20001220703125</ele>
        <time>2016-08-12T21:04:36.000Z</time>
        <extensions>
          <ns3:TrackPointExtension>
            <ns3:atemp>17.0</ns3:atemp>
            <ns3:hr>127</ns3:hr>
          </ns3:TrackPointExtension>
        </extensions>
      </trkpt>
      <trkpt lat="-22.00793073512613773345947265625" lon="166.453252248466014862060546875">
        <ele>938.20001220703125</ele>
        <time>2016-08-12T21:04:37.000Z</time>
        <extensions>
          <ns3:TrackPointExtension>
            <ns3:atemp>17.0</ns3:atemp>
            <ns3:hr>127</ns3:hr>
          </ns3:TrackPointExtension>
        </extensions>
      </trkpt>
      <trkpt lat="-22.0079482533037662506103515625" lon="166.45323858596384525299072265625">
        <ele>938</ele>
        <time>2016-08-12T21:04:38.000Z</time>
        <extensions>
          <ns3:TrackPointExtension>
            <ns3:atemp>17.0</ns3:atemp>
            <ns3:hr>127</ns3:hr>
          </ns3:TrackPointExtension>
        </extensions>
      </trkpt>
      <trkpt lat="-22.0079646818339824676513671875" lon="166.4532262645661830902099609375">
        <ele>937.79998779296875</ele>
        <time>2016-08-12T21:04:39.000Z</time>
        <extensions>
          <ns3:TrackPointExtension>
            <ns3:atemp>17.0</ns3:atemp>
            <ns3:hr>126</ns3:hr>
          </ns3:TrackPointExtension>
        </extensions>
      </trkpt>
      <trkpt lat="-22.00798102654516696929931640625" lon="166.45321293734014034271240234375">
        <ele>937.4000244140625</ele>
        <time>2016-08-12T21:04:40.000Z</time>
        <extensions>
          <ns3:TrackPointExtension>
            <ns3:atemp>17.0</ns3:atemp>
            <ns3:hr>126</ns3:hr>
          </ns3:TrackPointExtension>
        </extensions>
      </trkpt>
      <trkpt lat="-22.00799611397087574005126953125" lon="166.45319818519055843353271484375">
        <ele>937.20001220703125</ele>
        <time>2016-08-12T21:04:41.000Z</time>
        <extensions>
          <ns3:TrackPointExtension>
            <ns3:atemp>17.0</ns3:atemp>
            <ns3:hr>126</ns3:hr>
          </ns3:TrackPointExtension>
        </extensions>
      </trkpt>
      <trkpt lat="-22.00800885446369647979736328125" lon="166.4531855285167694091796875">
        <ele>937</ele>
        <time>2016-08-12T21:04:42.000Z</time>
        <extensions>
          <ns3:TrackPointExtension>
            <ns3:atemp>17.0</ns3:atemp>
            <ns3:hr>126</ns3:hr>
          </ns3:TrackPointExtension>
        </extensions>
      </trkpt>
      <trkpt lat="-22.00802184641361236572265625" lon="166.45317371003329753875732421875">
        <ele>936.5999755859375</ele>
        <time>2016-08-12T21:04:43.000Z</time>
        <extensions>
          <ns3:TrackPointExtension>
            <ns3:atemp>17.0</ns3:atemp>
            <ns3:hr>126</ns3:hr>
          </ns3:TrackPointExtension>
        </extensions>
      </trkpt>
      <trkpt lat="-22.008037604391574859619140625" lon="166.45315895788371562957763671875">
        <ele>936.20001220703125</ele>
        <time>2016-08-12T21:04:44.000Z</time>
        <extensions>
          <ns3:TrackPointExtension>
            <ns3:atemp>17.0</ns3:atemp>
            <ns3:hr>125</ns3:hr>
          </ns3:TrackPointExtension>
        </extensions>
      </trkpt>
      <trkpt lat="-22.008053027093410491943359375" lon="166.45314722321927547454833984375">
        <ele>936</ele>
        <time>2016-08-12T21:04:45.000Z</time>
        <extensions>
          <ns3:TrackPointExtension>
            <ns3:atemp>17.0</ns3:atemp>
            <ns3:hr>125</ns3:hr>
          </ns3:TrackPointExtension>
        </extensions>
      </trkpt>
      <trkpt lat="-22.00807255692780017852783203125" lon="166.45314060151576995849609375">
        <ele>935.5999755859375</ele>
        <time>2016-08-12T21:04:46.000Z</time>
        <extensions>
          <ns3:TrackPointExtension>
            <ns3:atemp>17.0</ns3:atemp>
            <ns3:hr>125</ns3:hr>
          </ns3:TrackPointExtension>
        </extensions>
      </trkpt>
      <trkpt lat="-22.00809066183865070343017578125" lon="166.4531350694596767425537109375">
        <ele>935.4000244140625</ele>
        <time>2016-08-12T21:04:47.000Z</time>
        <extensions>
          <ns3:TrackPointExtension>
            <ns3:atemp>17.0</ns3:atemp>
            <ns3:hr>125</ns3:hr>
          </ns3:TrackPointExtension>
        </extensions>
      </trkpt>
      <trkpt lat="-22.0081041567027568817138671875" lon="166.4531216584146022796630859375">
        <ele>935.4000244140625</ele>
        <time>2016-08-12T21:04:48.000Z</time>
        <extensions>
          <ns3:TrackPointExtension>
            <ns3:atemp>17.0</ns3:atemp>
            <ns3:hr>125</ns3:hr>
          </ns3:TrackPointExtension>
        </extensions>
      </trkpt>
      <trkpt lat="-22.00811379589140415191650390625" lon="166.45310246385633945465087890625">
        <ele>935</ele>
        <time>2016-08-12T21:04:49.000Z</time>
        <extensions>
          <ns3:TrackPointExtension>
            <ns3:atemp>17.0</ns3:atemp>
            <ns3:hr>125</ns3:hr>
          </ns3:TrackPointExtension>
        </extensions>
      </trkpt>
      <trkpt lat="-22.00812268070876598358154296875" lon="166.453081257641315460205078125">
        <ele>934.79998779296875</ele>
        <time>2016-08-12T21:04:50.000Z</time>
        <extensions>
          <ns3:TrackPointExtension>
            <ns3:atemp>17.0</ns3:atemp>
            <ns3:hr>125</ns3:hr>
          </ns3:TrackPointExtension>
        </extensions>
      </trkpt>
      <trkpt lat="-22.00812871567904949188232421875" lon="166.4530582912266254425048828125">
        <ele>934.4000244140625</ele>
        <time>2016-08-12T21:04:51.000Z</time>
        <extensions>
          <ns3:TrackPointExtension>
            <ns3:atemp>17.0</ns3:atemp>
            <ns3:hr>125</ns3:hr>
          </ns3:TrackPointExtension>
        </extensions>
      </trkpt>
      <trkpt lat="-22.00812720693647861480712890625" lon="166.45303557626903057098388671875">
        <ele>934.20001220703125</ele>
        <time>2016-08-12T21:04:52.000Z</time>
        <extensions>
          <ns3:TrackPointExtension>
            <ns3:atemp>17.0</ns3:atemp>
            <ns3:hr>125</ns3:hr>
          </ns3:TrackPointExtension>
        </extensions>
      </trkpt>
      <trkpt lat="-22.00812117196619510650634765625" lon="166.45301646552979946136474609375">
        <ele>934</ele>
        <time>2016-08-12T21:04:53.000Z</time>
        <extensions>
          <ns3:TrackPointExtension>
            <ns3:atemp>17.0</ns3:atemp>
            <ns3:hr>124</ns3:hr>
          </ns3:TrackPointExtension>
        </extensions>
      </trkpt>
      <trkpt lat="-22.00811480171978473663330078125" lon="166.453001797199249267578125">
        <ele>933.79998779296875</ele>
        <time>2016-08-12T21:04:54.000Z</time>
        <extensions>
          <ns3:TrackPointExtension>
            <ns3:atemp>17.0</ns3:atemp>
            <ns3:hr>125</ns3:hr>
          </ns3:TrackPointExtension>
        </extensions>
      </trkpt>
      <trkpt lat="-22.00810910202562808990478515625" lon="166.45298746414482593536376953125">
        <ele>933.79998779296875</ele>
        <time>2016-08-12T21:04:55.000Z</time>
        <extensions>
          <ns3:TrackPointExtension>
            <ns3:atemp>17.0</ns3:atemp>
            <ns3:hr>124</ns3:hr>
          </ns3:TrackPointExtension>
        </extensions>
      </trkpt>
      <trkpt lat="-22.00811245478689670562744140625" lon="166.45296885631978511810302734375">
        <ele>933.5999755859375</ele>
        <time>2016-08-12T21:04:56.000Z</time>
        <extensions>
          <ns3:TrackPointExtension>
            <ns3:atemp>17.0</ns3:atemp>
            <ns3:hr>124</ns3:hr>
          </ns3:TrackPointExtension>
        </extensions>
      </trkpt>
      <trkpt lat="-22.00811480171978473663330078125" lon="166.45294605754315853118896484375">
        <ele>933.5999755859375</ele>
        <time>2016-08-12T21:04:57.000Z</time>
        <extensions>
          <ns3:TrackPointExtension>
            <ns3:atemp>17.0</ns3:atemp>
            <ns3:hr>124</ns3:hr>
          </ns3:TrackPointExtension>
        </extensions>
      </trkpt>
      <trkpt lat="-22.00811748392879962921142578125" lon="166.45292392931878566741943359375">
        <ele>933.4000244140625</ele>
        <time>2016-08-12T21:04:58.000Z</time>
        <extensions>
          <ns3:TrackPointExtension>
            <ns3:atemp>17.0</ns3:atemp>
            <ns3:hr>124</ns3:hr>
          </ns3:TrackPointExtension>
        </extensions>
      </trkpt>
      <trkpt lat="-22.0081242732703685760498046875" lon="166.4528993703424930572509765625">
        <ele>933</ele>
        <time>2016-08-12T21:04:59.000Z</time>
        <extensions>
          <ns3:TrackPointExtension>
            <ns3:atemp>17.0</ns3:atemp>
            <ns3:hr>124</ns3:hr>
          </ns3:TrackPointExtension>
        </extensions>
      </trkpt>
      <trkpt lat="-22.00813047587871551513671875" lon="166.4528762362897396087646484375">
        <ele>932.79998779296875</ele>
        <time>2016-08-12T21:05:00.000Z</time>
        <extensions>
          <ns3:TrackPointExtension>
            <ns3:atemp>17.0</ns3:atemp>
            <ns3:hr>124</ns3:hr>
          </ns3:TrackPointExtension>
        </extensions>
      </trkpt>
      <trkpt lat="-22.00813625939190387725830078125" lon="166.452856957912445068359375">
        <ele>932.4000244140625</ele>
        <time>2016-08-12T21:05:01.000Z</time>
        <extensions>
          <ns3:TrackPointExtension>
            <ns3:atemp>17.0</ns3:atemp>
            <ns3:hr>124</ns3:hr>
          </ns3:TrackPointExtension>
        </extensions>
      </trkpt>
      <trkpt lat="-22.00814497657120227813720703125" lon="166.4528393559157848358154296875">
        <ele>932.20001220703125</ele>
        <time>2016-08-12T21:05:02.000Z</time>
        <extensions>
          <ns3:TrackPointExtension>
            <ns3:atemp>17.0</ns3:atemp>
            <ns3:hr>124</ns3:hr>
          </ns3:TrackPointExtension>
        </extensions>
      </trkpt>
      <trkpt lat="-22.0081541128456592559814453125" lon="166.4528242684900760650634765625">
        <ele>932</ele>
        <time>2016-08-12T21:05:03.000Z</time>
        <extensions>
          <ns3:TrackPointExtension>
            <ns3:atemp>17.0</ns3:atemp>
            <ns3:hr>124</ns3:hr>
          </ns3:TrackPointExtension>
        </extensions>
      </trkpt>
      <trkpt lat="-22.0081631653010845184326171875" lon="166.45280742086470127105712890625">
        <ele>931.5999755859375</ele>
        <time>2016-08-12T21:05:04.000Z</time>
        <extensions>
          <ns3:TrackPointExtension>
            <ns3:atemp>17.0</ns3:atemp>
            <ns3:hr>124</ns3:hr>
          </ns3:TrackPointExtension>
        </extensions>
      </trkpt>
      <trkpt lat="-22.00816760770976543426513671875" lon="166.45278613083064556121826171875">
        <ele>931.4000244140625</ele>
        <time>2016-08-12T21:05:05.000Z</time>
        <extensions>
          <ns3:TrackPointExtension>
            <ns3:atemp>17.0</ns3:atemp>
            <ns3:hr>124</ns3:hr>
          </ns3:TrackPointExtension>
        </extensions>
      </trkpt>
      <trkpt lat="-22.00817062519490718841552734375" lon="166.4527622424066066741943359375">
        <ele>931</ele>
        <time>2016-08-12T21:05:06.000Z</time>
        <extensions>
          <ns3:TrackPointExtension>
            <ns3:atemp>17.0</ns3:atemp>
            <ns3:hr>124</ns3:hr>
          </ns3:TrackPointExtension>
        </extensions>
      </trkpt>
      <trkpt lat="-22.0081754028797149658203125" lon="166.45274053327739238739013671875">
        <ele>930.79998779296875</ele>
        <time>2016-08-12T21:05:07.000Z</time>
        <extensions>
          <ns3:TrackPointExtension>
            <ns3:atemp>17.0</ns3:atemp>
            <ns3:hr>124</ns3:hr>
          </ns3:TrackPointExtension>
        </extensions>
      </trkpt>
      <trkpt lat="-22.008181773126125335693359375" lon="166.45272083580493927001953125">
        <ele>930.5999755859375</ele>
        <time>2016-08-12T21:05:08.000Z</time>
        <extensions>
          <ns3:TrackPointExtension>
            <ns3:atemp>17.0</ns3:atemp>
            <ns3:hr>125</ns3:hr>
          </ns3:TrackPointExtension>
        </extensions>
      </trkpt>
      <trkpt lat="-22.00818412005901336669921875" lon="166.4526978693902492523193359375">
        <ele>930.20001220703125</ele>
        <time>2016-08-12T21:05:09.000Z</time>
        <extensions>
          <ns3:TrackPointExtension>
            <ns3:atemp>17.0</ns3:atemp>
            <ns3:hr>125</ns3:hr>
          </ns3:TrackPointExtension>
        </extensions>
      </trkpt>
      <trkpt lat="-22.0081856288015842437744140625" lon="166.4526777528226375579833984375">
        <ele>930</ele>
        <time>2016-08-12T21:05:10.000Z</time>
        <extensions>
          <ns3:TrackPointExtension>
            <ns3:atemp>17.0</ns3:atemp>
            <ns3:hr>125</ns3:hr>
          </ns3:TrackPointExtension>
        </extensions>
      </trkpt>
      <trkpt lat="-22.00819057412445545196533203125" lon="166.45265839062631130218505859375">
        <ele>929.5999755859375</ele>
        <time>2016-08-12T21:05:11.000Z</time>
        <extensions>
          <ns3:TrackPointExtension>
            <ns3:atemp>17.0</ns3:atemp>
            <ns3:hr>125</ns3:hr>
          </ns3:TrackPointExtension>
        </extensions>
      </trkpt>
      <trkpt lat="-22.0081956870853900909423828125" lon="166.45263777114450931549072265625">
        <ele>929.4000244140625</ele>
        <time>2016-08-12T21:05:12.000Z</time>
        <extensions>
          <ns3:TrackPointExtension>
            <ns3:atemp>17.0</ns3:atemp>
            <ns3:hr>125</ns3:hr>
          </ns3:TrackPointExtension>
        </extensions>
      </trkpt>
      <trkpt lat="-22.00820247642695903778076171875" lon="166.45262025296688079833984375">
        <ele>929.20001220703125</ele>
        <time>2016-08-12T21:05:13.000Z</time>
        <extensions>
          <ns3:TrackPointExtension>
            <ns3:atemp>17.0</ns3:atemp>
            <ns3:hr>125</ns3:hr>
          </ns3:TrackPointExtension>
        </extensions>
      </trkpt>
      <trkpt lat="-22.00821119360625743865966796875" lon="166.4526060037314891815185546875">
        <ele>929</ele>
        <time>2016-08-12T21:05:14.000Z</time>
        <extensions>
          <ns3:TrackPointExtension>
            <ns3:atemp>17.0</ns3:atemp>
            <ns3:hr>125</ns3:hr>
          </ns3:TrackPointExtension>
        </extensions>
      </trkpt>
      <trkpt lat="-22.008227370679378509521484375" lon="166.4525939337909221649169921875">
        <ele>928.5999755859375</ele>
        <time>2016-08-12T21:05:15.000Z</time>
        <extensions>
          <ns3:TrackPointExtension>
            <ns3:atemp>17.0</ns3:atemp>
            <ns3:hr>125</ns3:hr>
          </ns3:TrackPointExtension>
        </extensions>
      </trkpt>
      <trkpt lat="-22.0082429610192775726318359375" lon="166.452580355107784271240234375">
        <ele>928.20001220703125</ele>
        <time>2016-08-12T21:05:16.000Z</time>
        <extensions>
          <ns3:TrackPointExtension>
            <ns3:atemp>17.0</ns3:atemp>
            <ns3:hr>125</ns3:hr>
          </ns3:TrackPointExtension>
        </extensions>
      </trkpt>
      <trkpt lat="-22.00825461186468601226806640625" lon="166.45256468094885349273681640625">
        <ele>927.79998779296875</ele>
        <time>2016-08-12T21:05:17.000Z</time>
        <extensions>
          <ns3:TrackPointExtension>
            <ns3:atemp>17.0</ns3:atemp>
            <ns3:hr>125</ns3:hr>
          </ns3:TrackPointExtension>
        </extensions>
      </trkpt>
      <trkpt lat="-22.0082637481391429901123046875" lon="166.452547498047351837158203125">
        <ele>927.4000244140625</ele>
        <time>2016-08-12T21:05:18.000Z</time>
        <extensions>
          <ns3:TrackPointExtension>
            <ns3:atemp>17.0</ns3:atemp>
            <ns3:hr>125</ns3:hr>
          </ns3:TrackPointExtension>
        </extensions>
      </trkpt>
      <trkpt lat="-22.00826953165233135223388671875" lon="166.45252713002264499664306640625">
        <ele>927.20001220703125</ele>
        <time>2016-08-12T21:05:19.000Z</time>
        <extensions>
          <ns3:TrackPointExtension>
            <ns3:atemp>17.0</ns3:atemp>
            <ns3:hr>126</ns3:hr>
          </ns3:TrackPointExtension>
        </extensions>
      </trkpt>
      <trkpt lat="-22.00827841646969318389892578125" lon="166.45250768400728702545166015625">
        <ele>926.79998779296875</ele>
        <time>2016-08-12T21:05:20.000Z</time>
        <extensions>
          <ns3:TrackPointExtension>
            <ns3:atemp>17.0</ns3:atemp>
            <ns3:hr>125</ns3:hr>
          </ns3:TrackPointExtension>
        </extensions>
      </trkpt>
      <trkpt lat="-22.00828914530575275421142578125" lon="166.452489160001277923583984375">
        <ele>926.5999755859375</ele>
        <time>2016-08-12T21:05:21.000Z</time>
        <extensions>
          <ns3:TrackPointExtension>
            <ns3:atemp>17.0</ns3:atemp>
            <ns3:hr>126</ns3:hr>
          </ns3:TrackPointExtension>
        </extensions>
      </trkpt>
      <trkpt lat="-22.00829853303730487823486328125" lon="166.4524688757956027984619140625">
        <ele>926.20001220703125</ele>
        <time>2016-08-12T21:05:22.000Z</time>
        <extensions>
          <ns3:TrackPointExtension>
            <ns3:atemp>17.0</ns3:atemp>
            <ns3:hr>125</ns3:hr>
          </ns3:TrackPointExtension>
        </extensions>
      </trkpt>
      <trkpt lat="-22.00830540619790554046630859375" lon="166.45245152525603771209716796875">
        <ele>925.79998779296875</ele>
        <time>2016-08-12T21:05:23.000Z</time>
        <extensions>
          <ns3:TrackPointExtension>
            <ns3:atemp>17.0</ns3:atemp>
            <ns3:hr>126</ns3:hr>
          </ns3:TrackPointExtension>
        </extensions>
      </trkpt>
      <trkpt lat="-22.008310519158840179443359375" lon="166.45243794657289981842041015625">
        <ele>925.4000244140625</ele>
        <time>2016-08-12T21:05:24.000Z</time>
        <extensions>
          <ns3:TrackPointExtension>
            <ns3:atemp>17.0</ns3:atemp>
            <ns3:hr>126</ns3:hr>
          </ns3:TrackPointExtension>
        </extensions>
      </trkpt>
      <trkpt lat="-22.00831965543329715728759765625" lon="166.45242554135620594024658203125">
        <ele>925</ele>
        <time>2016-08-12T21:05:25.000Z</time>
        <extensions>
          <ns3:TrackPointExtension>
            <ns3:atemp>17.0</ns3:atemp>
            <ns3:hr>126</ns3:hr>
          </ns3:TrackPointExtension>
        </extensions>
      </trkpt>
      <trkpt lat="-22.0083314739167690277099609375" lon="166.45241196267306804656982421875">
        <ele>924.5999755859375</ele>
        <time>2016-08-12T21:05:26.000Z</time>
        <extensions>
          <ns3:TrackPointExtension>
            <ns3:atemp>17.0</ns3:atemp>
            <ns3:hr>125</ns3:hr>
          </ns3:TrackPointExtension>
        </extensions>
      </trkpt>
      <trkpt lat="-22.00834295712411403656005859375" lon="166.45239804871380329132080078125">
        <ele>924.4000244140625</ele>
        <time>2016-08-12T21:05:27.000Z</time>
        <extensions>
          <ns3:TrackPointExtension>
            <ns3:atemp>17.0</ns3:atemp>
            <ns3:hr>126</ns3:hr>
          </ns3:TrackPointExtension>
        </extensions>
      </trkpt>
      <trkpt lat="-22.00835469178855419158935546875" lon="166.4523830451071262359619140625">
        <ele>924.20001220703125</ele>
        <time>2016-08-12T21:05:28.000Z</time>
        <extensions>
          <ns3:TrackPointExtension>
            <ns3:atemp>17.0</ns3:atemp>
            <ns3:hr>126</ns3:hr>
          </ns3:TrackPointExtension>
        </extensions>
      </trkpt>
      <trkpt lat="-22.0083680190145969390869140625" lon="166.45236670039594173431396484375">
        <ele>924.20001220703125</ele>
        <time>2016-08-12T21:05:29.000Z</time>
        <extensions>
          <ns3:TrackPointExtension>
            <ns3:atemp>17.0</ns3:atemp>
            <ns3:hr>126</ns3:hr>
          </ns3:TrackPointExtension>
        </extensions>
      </trkpt>
      <trkpt lat="-22.00838503427803516387939453125" lon="166.4523542113602161407470703125">
        <ele>924</ele>
        <time>2016-08-12T21:05:30.000Z</time>
        <extensions>
          <ns3:TrackPointExtension>
            <ns3:atemp>17.0</ns3:atemp>
            <ns3:hr>126</ns3:hr>
          </ns3:TrackPointExtension>
        </extensions>
      </trkpt>
      <trkpt lat="-22.0084022171795368194580078125" lon="166.45234574563801288604736328125">
        <ele>923.5999755859375</ele>
        <time>2016-08-12T21:05:31.000Z</time>
        <extensions>
          <ns3:TrackPointExtension>
            <ns3:atemp>17.0</ns3:atemp>
            <ns3:hr>126</ns3:hr>
          </ns3:TrackPointExtension>
        </extensions>
      </trkpt>
      <trkpt lat="-22.00842375867068767547607421875" lon="166.452337615191936492919921875">
        <ele>923.20001220703125</ele>
        <time>2016-08-12T21:05:32.000Z</time>
        <extensions>
          <ns3:TrackPointExtension>
            <ns3:atemp>17.0</ns3:atemp>
            <ns3:hr>125</ns3:hr>
          </ns3:TrackPointExtension>
        </extensions>
      </trkpt>
      <trkpt lat="-22.00844823382794857025146484375" lon="166.45233350805938243865966796875">
        <ele>923</ele>
        <time>2016-08-12T21:05:33.000Z</time>
        <extensions>
          <ns3:TrackPointExtension>
            <ns3:atemp>17.0</ns3:atemp>
            <ns3:hr>126</ns3:hr>
          </ns3:TrackPointExtension>
        </extensions>
      </trkpt>
      <trkpt lat="-22.00846902094781398773193359375" lon="166.45232713781297206878662109375">
        <ele>922.5999755859375</ele>
        <time>2016-08-12T21:05:34.000Z</time>
        <extensions>
          <ns3:TrackPointExtension>
            <ns3:atemp>17.0</ns3:atemp>
            <ns3:hr>126</ns3:hr>
          </ns3:TrackPointExtension>
        </extensions>
      </trkpt>
      <trkpt lat="-22.0084914006292819976806640625" lon="166.45231607370078563690185546875">
        <ele>922.4000244140625</ele>
        <time>2016-08-12T21:05:35.000Z</time>
        <extensions>
          <ns3:TrackPointExtension>
            <ns3:atemp>17.0</ns3:atemp>
            <ns3:hr>126</ns3:hr>
          </ns3:TrackPointExtension>
        </extensions>
      </trkpt>
      <trkpt lat="-22.0085148699581623077392578125" lon="166.452303417026996612548828125">
        <ele>922.4000244140625</ele>
        <time>2016-08-12T21:05:36.000Z</time>
        <extensions>
          <ns3:TrackPointExtension>
            <ns3:atemp>17.0</ns3:atemp>
            <ns3:hr>126</ns3:hr>
          </ns3:TrackPointExtension>
        </extensions>
      </trkpt>
      <trkpt lat="-22.0085349865257740020751953125" lon="166.45228975452482700347900390625">
        <ele>922.20001220703125</ele>
        <time>2016-08-12T21:05:37.000Z</time>
        <extensions>
          <ns3:TrackPointExtension>
            <ns3:atemp>17.0</ns3:atemp>
            <ns3:hr>126</ns3:hr>
          </ns3:TrackPointExtension>
        </extensions>
      </trkpt>
      <trkpt lat="-22.00855585746467113494873046875" lon="166.4522757567465305328369140625">
        <ele>922</ele>
        <time>2016-08-12T21:05:38.000Z</time>
        <extensions>
          <ns3:TrackPointExtension>
            <ns3:atemp>17.0</ns3:atemp>
            <ns3:hr>127</ns3:hr>
          </ns3:TrackPointExtension>
        </extensions>
      </trkpt>
      <trkpt lat="-22.00857572257518768310546875" lon="166.452261172235012054443359375">
        <ele>921.79998779296875</ele>
        <time>2016-08-12T21:05:39.000Z</time>
        <extensions>
          <ns3:TrackPointExtension>
            <ns3:atemp>17.0</ns3:atemp>
            <ns3:hr>127</ns3:hr>
          </ns3:TrackPointExtension>
        </extensions>
      </trkpt>
      <trkpt lat="-22.00859156437218189239501953125" lon="166.45224600099027156829833984375">
        <ele>921.5999755859375</ele>
        <time>2016-08-12T21:05:40.000Z</time>
        <extensions>
          <ns3:TrackPointExtension>
            <ns3:atemp>17.0</ns3:atemp>
            <ns3:hr>127</ns3:hr>
          </ns3:TrackPointExtension>
        </extensions>
      </trkpt>
      <trkpt lat="-22.00860866345465183258056640625" lon="166.45222655497491359710693359375">
        <ele>921.4000244140625</ele>
        <time>2016-08-12T21:05:41.000Z</time>
        <extensions>
          <ns3:TrackPointExtension>
            <ns3:atemp>17.0</ns3:atemp>
            <ns3:hr>127</ns3:hr>
          </ns3:TrackPointExtension>
        </extensions>
      </trkpt>
      <trkpt lat="-22.008625678718090057373046875" lon="166.4522087015211582183837890625">
        <ele>921.20001220703125</ele>
        <time>2016-08-12T21:05:42.000Z</time>
        <extensions>
          <ns3:TrackPointExtension>
            <ns3:atemp>17.0</ns3:atemp>
            <ns3:hr>127</ns3:hr>
          </ns3:TrackPointExtension>
        </extensions>
      </trkpt>
      <trkpt lat="-22.00864336453378200531005859375" lon="166.4521929435431957244873046875">
        <ele>921</ele>
        <time>2016-08-12T21:05:43.000Z</time>
        <extensions>
          <ns3:TrackPointExtension>
            <ns3:atemp>17.0</ns3:atemp>
            <ns3:hr>127</ns3:hr>
          </ns3:TrackPointExtension>
        </extensions>
      </trkpt>
      <trkpt lat="-22.00865979306399822235107421875" lon="166.45217525772750377655029296875">
        <ele>920.79998779296875</ele>
        <time>2016-08-12T21:05:44.000Z</time>
        <extensions>
          <ns3:TrackPointExtension>
            <ns3:atemp>17.0</ns3:atemp>
            <ns3:hr>127</ns3:hr>
          </ns3:TrackPointExtension>
        </extensions>
      </trkpt>
      <trkpt lat="-22.0086747966706752777099609375" lon="166.45215581171214580535888671875">
        <ele>920.79998779296875</ele>
        <time>2016-08-12T21:05:45.000Z</time>
        <extensions>
          <ns3:TrackPointExtension>
            <ns3:atemp>17.0</ns3:atemp>
            <ns3:hr>127</ns3:hr>
          </ns3:TrackPointExtension>
        </extensions>
      </trkpt>
      <trkpt lat="-22.00868879444897174835205078125" lon="166.45213770680129528045654296875">
        <ele>920.4000244140625</ele>
        <time>2016-08-12T21:05:46.000Z</time>
        <extensions>
          <ns3:TrackPointExtension>
            <ns3:atemp>17.0</ns3:atemp>
            <ns3:hr>127</ns3:hr>
          </ns3:TrackPointExtension>
        </extensions>
      </trkpt>
      <trkpt lat="-22.00870606116950511932373046875" lon="166.4521228708326816558837890625">
        <ele>920.20001220703125</ele>
        <time>2016-08-12T21:05:47.000Z</time>
        <extensions>
          <ns3:TrackPointExtension>
            <ns3:atemp>17.0</ns3:atemp>
            <ns3:hr>127</ns3:hr>
          </ns3:TrackPointExtension>
        </extensions>
      </trkpt>
      <trkpt lat="-22.00872416608035564422607421875" lon="166.45211197435855865478515625">
        <ele>920.20001220703125</ele>
        <time>2016-08-12T21:05:48.000Z</time>
        <extensions>
          <ns3:TrackPointExtension>
            <ns3:atemp>17.0</ns3:atemp>
            <ns3:hr>127</ns3:hr>
          </ns3:TrackPointExtension>
        </extensions>
      </trkpt>
      <trkpt lat="-22.00874243862926959991455078125" lon="166.452102251350879669189453125">
        <ele>920</ele>
        <time>2016-08-12T21:05:49.000Z</time>
        <extensions>
          <ns3:TrackPointExtension>
            <ns3:atemp>17.0</ns3:atemp>
            <ns3:hr>127</ns3:hr>
          </ns3:TrackPointExtension>
        </extensions>
      </trkpt>
      <trkpt lat="-22.00876439921557903289794921875" lon="166.45209127105772495269775390625">
        <ele>920</ele>
        <time>2016-08-12T21:05:50.000Z</time>
        <extensions>
          <ns3:TrackPointExtension>
            <ns3:atemp>17.0</ns3:atemp>
            <ns3:hr>127</ns3:hr>
          </ns3:TrackPointExtension>
        </extensions>
      </trkpt>
      <trkpt lat="-22.00878585688769817352294921875" lon="166.45208154805004596710205078125">
        <ele>919.5999755859375</ele>
        <time>2016-08-12T21:05:51.000Z</time>
        <extensions>
          <ns3:TrackPointExtension>
            <ns3:atemp>17.0</ns3:atemp>
            <ns3:hr>127</ns3:hr>
          </ns3:TrackPointExtension>
        </extensions>
      </trkpt>
      <trkpt lat="-22.00880773365497589111328125" lon="166.45207417197525501251220703125">
        <ele>919.20001220703125</ele>
        <time>2016-08-12T21:05:52.000Z</time>
        <extensions>
          <ns3:TrackPointExtension>
            <ns3:atemp>17.0</ns3:atemp>
            <ns3:hr>127</ns3:hr>
          </ns3:TrackPointExtension>
        </extensions>
      </trkpt>
      <trkpt lat="-22.008831538259983062744140625" lon="166.45206771790981292724609375">
        <ele>919</ele>
        <time>2016-08-12T21:05:53.000Z</time>
        <extensions>
          <ns3:TrackPointExtension>
            <ns3:atemp>17.0</ns3:atemp>
            <ns3:hr>127</ns3:hr>
          </ns3:TrackPointExtension>
        </extensions>
      </trkpt>
      <trkpt lat="-22.008855678141117095947265625" lon="166.452061347663402557373046875">
        <ele>918.79998779296875</ele>
        <time>2016-08-12T21:05:54.000Z</time>
        <extensions>
          <ns3:TrackPointExtension>
            <ns3:atemp>17.0</ns3:atemp>
            <ns3:hr>127</ns3:hr>
          </ns3:TrackPointExtension>
        </extensions>
      </trkpt>
      <trkpt lat="-22.00887671671807765960693359375" lon="166.452051959931850433349609375">
        <ele>918.4000244140625</ele>
        <time>2016-08-12T21:05:55.000Z</time>
        <extensions>
          <ns3:TrackPointExtension>
            <ns3:atemp>17.0</ns3:atemp>
            <ns3:hr>127</ns3:hr>
          </ns3:TrackPointExtension>
        </extensions>
      </trkpt>
      <trkpt lat="-22.00889884494245052337646484375" lon="166.45204030908644199371337890625">
        <ele>918.20001220703125</ele>
        <time>2016-08-12T21:05:56.000Z</time>
        <extensions>
          <ns3:TrackPointExtension>
            <ns3:atemp>17.0</ns3:atemp>
            <ns3:hr>127</ns3:hr>
          </ns3:TrackPointExtension>
        </extensions>
      </trkpt>
      <trkpt lat="-22.0089205540716648101806640625" lon="166.45202815532684326171875">
        <ele>918</ele>
        <time>2016-08-12T21:05:57.000Z</time>
        <extensions>
          <ns3:TrackPointExtension>
            <ns3:atemp>17.0</ns3:atemp>
            <ns3:hr>127</ns3:hr>
          </ns3:TrackPointExtension>
        </extensions>
      </trkpt>
      <trkpt lat="-22.00894125737249851226806640625" lon="166.4520152471959590911865234375">
        <ele>918</ele>
        <time>2016-08-12T21:05:58.000Z</time>
        <extensions>
          <ns3:TrackPointExtension>
            <ns3:atemp>17.0</ns3:atemp>
            <ns3:hr>127</ns3:hr>
          </ns3:TrackPointExtension>
        </extensions>
      </trkpt>
      <trkpt lat="-22.00896120630204677581787109375" lon="166.45199990831315517425537109375">
        <ele>917.5999755859375</ele>
        <time>2016-08-12T21:05:59.000Z</time>
        <extensions>
          <ns3:TrackPointExtension>
            <ns3:atemp>17.0</ns3:atemp>
            <ns3:hr>127</ns3:hr>
          </ns3:TrackPointExtension>
        </extensions>
      </trkpt>
      <trkpt lat="-22.008979730308055877685546875" lon="166.45198297686874866485595703125">
        <ele>917.4000244140625</ele>
        <time>2016-08-12T21:06:00.000Z</time>
        <extensions>
          <ns3:TrackPointExtension>
            <ns3:atemp>17.0</ns3:atemp>
            <ns3:hr>127</ns3:hr>
          </ns3:TrackPointExtension>
        </extensions>
      </trkpt>
      <trkpt lat="-22.00899682939052581787109375" lon="166.45196604542434215545654296875">
        <ele>917.20001220703125</ele>
        <time>2016-08-12T21:06:01.000Z</time>
        <extensions>
          <ns3:TrackPointExtension>
            <ns3:atemp>17.0</ns3:atemp>
            <ns3:hr>127</ns3:hr>
          </ns3:TrackPointExtension>
        </extensions>
      </trkpt>
      <trkpt lat="-22.00901552103459835052490234375" lon="166.45194760523736476898193359375">
        <ele>917</ele>
        <time>2016-08-12T21:06:02.000Z</time>
        <extensions>
          <ns3:TrackPointExtension>
            <ns3:atemp>17.0</ns3:atemp>
            <ns3:hr>127</ns3:hr>
          </ns3:TrackPointExtension>
        </extensions>
      </trkpt>
      <trkpt lat="-22.00903412885963916778564453125" lon="166.45193000324070453643798828125">
        <ele>916.79998779296875</ele>
        <time>2016-08-12T21:06:03.000Z</time>
        <extensions>
          <ns3:TrackPointExtension>
            <ns3:atemp>17.0</ns3:atemp>
            <ns3:hr>127</ns3:hr>
          </ns3:TrackPointExtension>
        </extensions>
      </trkpt>
      <trkpt lat="-22.009052820503711700439453125" lon="166.45191240124404430389404296875">
        <ele>916.4000244140625</ele>
        <time>2016-08-12T21:06:04.000Z</time>
        <extensions>
          <ns3:TrackPointExtension>
            <ns3:atemp>17.0</ns3:atemp>
            <ns3:hr>127</ns3:hr>
          </ns3:TrackPointExtension>
        </extensions>
      </trkpt>
      <trkpt lat="-22.00906933285295963287353515625" lon="166.45189429633319377899169921875">
        <ele>916.20001220703125</ele>
        <time>2016-08-12T21:06:05.000Z</time>
        <extensions>
          <ns3:TrackPointExtension>
            <ns3:atemp>17.0</ns3:atemp>
            <ns3:hr>127</ns3:hr>
          </ns3:TrackPointExtension>
        </extensions>
      </trkpt>
      <trkpt lat="-22.009082995355129241943359375" lon="166.45187518559396266937255859375">
        <ele>916</ele>
        <time>2016-08-12T21:06:06.000Z</time>
        <extensions>
          <ns3:TrackPointExtension>
            <ns3:atemp>17.0</ns3:atemp>
            <ns3:hr>127</ns3:hr>
          </ns3:TrackPointExtension>
        </extensions>
      </trkpt>
      <trkpt lat="-22.009094059467315673828125" lon="166.45185716450214385986328125">
        <ele>915.79998779296875</ele>
        <time>2016-08-12T21:06:07.000Z</time>
        <extensions>
          <ns3:TrackPointExtension>
            <ns3:atemp>17.0</ns3:atemp>
            <ns3:hr>127</ns3:hr>
          </ns3:TrackPointExtension>
        </extensions>
      </trkpt>
      <trkpt lat="-22.00910638086497783660888671875" lon="166.45184048451483249664306640625">
        <ele>915.5999755859375</ele>
        <time>2016-08-12T21:06:08.000Z</time>
        <extensions>
          <ns3:TrackPointExtension>
            <ns3:atemp>17.0</ns3:atemp>
            <ns3:hr>127</ns3:hr>
          </ns3:TrackPointExtension>
        </extensions>
      </trkpt>
      <trkpt lat="-22.0091235637664794921875" lon="166.45182355307042598724365234375">
        <ele>915.4000244140625</ele>
        <time>2016-08-12T21:06:09.000Z</time>
        <extensions>
          <ns3:TrackPointExtension>
            <ns3:atemp>17.0</ns3:atemp>
            <ns3:hr>127</ns3:hr>
          </ns3:TrackPointExtension>
        </extensions>
      </trkpt>
      <trkpt lat="-22.009140662848949432373046875" lon="166.45180888473987579345703125">
        <ele>915</ele>
        <time>2016-08-12T21:06:10.000Z</time>
        <extensions>
          <ns3:TrackPointExtension>
            <ns3:atemp>17.0</ns3:atemp>
            <ns3:hr>127</ns3:hr>
          </ns3:TrackPointExtension>
        </extensions>
      </trkpt>
      <trkpt lat="-22.00915918685495853424072265625" lon="166.4517946355044841766357421875">
        <ele>914.79998779296875</ele>
        <time>2016-08-12T21:06:11.000Z</time>
        <extensions>
          <ns3:TrackPointExtension>
            <ns3:atemp>17.0</ns3:atemp>
            <ns3:hr>126</ns3:hr>
          </ns3:TrackPointExtension>
        </extensions>
      </trkpt>
      <trkpt lat="-22.00917695648968219757080078125" lon="166.451778709888458251953125">
        <ele>914.5999755859375</ele>
        <time>2016-08-12T21:06:12.000Z</time>
        <extensions>
          <ns3:TrackPointExtension>
            <ns3:atemp>17.0</ns3:atemp>
            <ns3:hr>126</ns3:hr>
          </ns3:TrackPointExtension>
        </extensions>
      </trkpt>
      <trkpt lat="-22.0091944746673107147216796875" lon="166.4517617784440517425537109375">
        <ele>914.4000244140625</ele>
        <time>2016-08-12T21:06:13.000Z</time>
        <extensions>
          <ns3:TrackPointExtension>
            <ns3:atemp>17.0</ns3:atemp>
            <ns3:hr>125</ns3:hr>
          </ns3:TrackPointExtension>
        </extensions>
      </trkpt>
      <trkpt lat="-22.00921031646430492401123046875" lon="166.4517443440854549407958984375">
        <ele>914</ele>
        <time>2016-08-12T21:06:14.000Z</time>
        <extensions>
          <ns3:TrackPointExtension>
            <ns3:atemp>17.0</ns3:atemp>
            <ns3:hr>125</ns3:hr>
          </ns3:TrackPointExtension>
        </extensions>
      </trkpt>
      <trkpt lat="-22.00922607444226741790771484375" lon="166.45172732882201671600341796875">
        <ele>913.5999755859375</ele>
        <time>2016-08-12T21:06:15.000Z</time>
        <extensions>
          <ns3:TrackPointExtension>
            <ns3:atemp>17.0</ns3:atemp>
            <ns3:hr>124</ns3:hr>
          </ns3:TrackPointExtension>
        </extensions>
      </trkpt>
      <trkpt lat="-22.00924501754343509674072265625" lon="166.4517145045101642608642578125">
        <ele>913.4000244140625</ele>
        <time>2016-08-12T21:06:16.000Z</time>
        <extensions>
          <ns3:TrackPointExtension>
            <ns3:atemp>17.0</ns3:atemp>
            <ns3:hr>123</ns3:hr>
          </ns3:TrackPointExtension>
        </extensions>
      </trkpt>
      <trkpt lat="-22.00926446355879306793212890625" lon="166.45169983617961406707763671875">
        <ele>913</ele>
        <time>2016-08-12T21:06:17.000Z</time>
        <extensions>
          <ns3:TrackPointExtension>
            <ns3:atemp>17.0</ns3:atemp>
            <ns3:hr>123</ns3:hr>
          </ns3:TrackPointExtension>
        </extensions>
      </trkpt>
      <trkpt lat="-22.0092789642512798309326171875" lon="166.45167921669781208038330078125">
        <ele>912.79998779296875</ele>
        <time>2016-08-12T21:06:18.000Z</time>
        <extensions>
          <ns3:TrackPointExtension>
            <ns3:atemp>17.0</ns3:atemp>
            <ns3:hr>122</ns3:hr>
          </ns3:TrackPointExtension>
        </extensions>
      </trkpt>
      <trkpt lat="-22.0092930458486080169677734375" lon="166.45165868103504180908203125">
        <ele>912.5999755859375</ele>
        <time>2016-08-12T21:06:19.000Z</time>
        <extensions>
          <ns3:TrackPointExtension>
            <ns3:atemp>17.0</ns3:atemp>
            <ns3:hr>122</ns3:hr>
          </ns3:TrackPointExtension>
        </extensions>
      </trkpt>
      <trkpt lat="-22.00930687598884105682373046875" lon="166.45163680426776409149169921875">
        <ele>912.4000244140625</ele>
        <time>2016-08-12T21:06:20.000Z</time>
        <extensions>
          <ns3:TrackPointExtension>
            <ns3:atemp>17.0</ns3:atemp>
            <ns3:hr>121</ns3:hr>
          </ns3:TrackPointExtension>
        </extensions>
      </trkpt>
      <trkpt lat="-22.00931944884359836578369140625" lon="166.4516119100153446197509765625">
        <ele>912</ele>
        <time>2016-08-12T21:06:21.000Z</time>
        <extensions>
          <ns3:TrackPointExtension>
            <ns3:atemp>17.0</ns3:atemp>
            <ns3:hr>121</ns3:hr>
          </ns3:TrackPointExtension>
        </extensions>
      </trkpt>
      <trkpt lat="-22.0093329437077045440673828125" lon="166.45158885978162288665771484375">
        <ele>911.79998779296875</ele>
        <time>2016-08-12T21:06:22.000Z</time>
        <extensions>
          <ns3:TrackPointExtension>
            <ns3:atemp>17.0</ns3:atemp>
            <ns3:hr>121</ns3:hr>
          </ns3:TrackPointExtension>
        </extensions>
      </trkpt>
      <trkpt lat="-22.00934459455311298370361328125" lon="166.451566480100154876708984375">
        <ele>911.5999755859375</ele>
        <time>2016-08-12T21:06:23.000Z</time>
        <extensions>
          <ns3:TrackPointExtension>
            <ns3:atemp>17.0</ns3:atemp>
            <ns3:hr>120</ns3:hr>
          </ns3:TrackPointExtension>
        </extensions>
      </trkpt>
      <trkpt lat="-22.0093520544469356536865234375" lon="166.45153840072453022003173828125">
        <ele>911.20001220703125</ele>
        <time>2016-08-12T21:06:24.000Z</time>
        <extensions>
          <ns3:TrackPointExtension>
            <ns3:atemp>17.0</ns3:atemp>
            <ns3:hr>120</ns3:hr>
          </ns3:TrackPointExtension>
        </extensions>
      </trkpt>
      <trkpt lat="-22.00935984961688518524169921875" lon="166.451515853404998779296875">
        <ele>911</ele>
        <time>2016-08-12T21:06:25.000Z</time>
        <extensions>
          <ns3:TrackPointExtension>
            <ns3:atemp>17.0</ns3:atemp>
            <ns3:hr>120</ns3:hr>
          </ns3:TrackPointExtension>
        </extensions>
      </trkpt>
      <trkpt lat="-22.00936772860586643218994140625" lon="166.4514945633709430694580078125">
        <ele>910.4000244140625</ele>
        <time>2016-08-12T21:06:26.000Z</time>
        <extensions>
          <ns3:TrackPointExtension>
            <ns3:atemp>17.0</ns3:atemp>
            <ns3:hr>119</ns3:hr>
          </ns3:TrackPointExtension>
        </extensions>
      </trkpt>
      <trkpt lat="-22.00937225483357906341552734375" lon="166.45146556198596954345703125">
        <ele>910.20001220703125</ele>
        <time>2016-08-12T21:06:27.000Z</time>
        <extensions>
          <ns3:TrackPointExtension>
            <ns3:atemp>17.0</ns3:atemp>
            <ns3:hr>119</ns3:hr>
          </ns3:TrackPointExtension>
        </extensions>
      </trkpt>
      <trkpt lat="-22.009375356137752532958984375" lon="166.451440751552581787109375">
        <ele>910</ele>
        <time>2016-08-12T21:06:28.000Z</time>
        <extensions>
          <ns3:TrackPointExtension>
            <ns3:atemp>17.0</ns3:atemp>
            <ns3:hr>119</ns3:hr>
          </ns3:TrackPointExtension>
        </extensions>
      </trkpt>
      <trkpt lat="-22.009379379451274871826171875" lon="166.4514206349849700927734375">
        <ele>909.5999755859375</ele>
        <time>2016-08-12T21:06:29.000Z</time>
        <extensions>
          <ns3:TrackPointExtension>
            <ns3:atemp>17.0</ns3:atemp>
            <ns3:hr>120</ns3:hr>
          </ns3:TrackPointExtension>
        </extensions>
      </trkpt>
      <trkpt lat="-22.00938968919217586517333984375" lon="166.45139959640800952911376953125">
        <ele>909.4000244140625</ele>
        <time>2016-08-12T21:06:30.000Z</time>
        <extensions>
          <ns3:TrackPointExtension>
            <ns3:atemp>17.0</ns3:atemp>
            <ns3:hr>120</ns3:hr>
          </ns3:TrackPointExtension>
        </extensions>
      </trkpt>
      <trkpt lat="-22.00940494425594806671142578125" lon="166.45138417370617389678955078125">
        <ele>909</ele>
        <time>2016-08-12T21:06:31.000Z</time>
        <extensions>
          <ns3:TrackPointExtension>
            <ns3:atemp>17.0</ns3:atemp>
            <ns3:hr>121</ns3:hr>
          </ns3:TrackPointExtension>
        </extensions>
      </trkpt>
      <trkpt lat="-22.0094204507768154144287109375" lon="166.45136657170951366424560546875">
        <ele>908.5999755859375</ele>
        <time>2016-08-12T21:06:32.000Z</time>
        <extensions>
          <ns3:TrackPointExtension>
            <ns3:atemp>17.0</ns3:atemp>
            <ns3:hr>122</ns3:hr>
          </ns3:TrackPointExtension>
        </extensions>
      </trkpt>
      <trkpt lat="-22.00943537056446075439453125" lon="166.4513457007706165313720703125">
        <ele>908.4000244140625</ele>
        <time>2016-08-12T21:06:33.000Z</time>
        <extensions>
          <ns3:TrackPointExtension>
            <ns3:atemp>17.0</ns3:atemp>
            <ns3:hr>123</ns3:hr>
          </ns3:TrackPointExtension>
        </extensions>
      </trkpt>
      <trkpt lat="-22.0094496197998523712158203125" lon="166.4513267576694488525390625">
        <ele>908</ele>
        <time>2016-08-12T21:06:34.000Z</time>
        <extensions>
          <ns3:TrackPointExtension>
            <ns3:atemp>17.0</ns3:atemp>
            <ns3:hr>124</ns3:hr>
          </ns3:TrackPointExtension>
        </extensions>
      </trkpt>
      <trkpt lat="-22.00946495868265628814697265625" lon="166.451310329139232635498046875">
        <ele>907.5999755859375</ele>
        <time>2016-08-12T21:06:35.000Z</time>
        <extensions>
          <ns3:TrackPointExtension>
            <ns3:atemp>17.0</ns3:atemp>
            <ns3:hr>125</ns3:hr>
          </ns3:TrackPointExtension>
        </extensions>
      </trkpt>
      <trkpt lat="-22.0094841532409191131591796875" lon="166.4512947387993335723876953125">
        <ele>907.20001220703125</ele>
        <time>2016-08-12T21:06:36.000Z</time>
        <extensions>
          <ns3:TrackPointExtension>
            <ns3:atemp>17.0</ns3:atemp>
            <ns3:hr>126</ns3:hr>
          </ns3:TrackPointExtension>
        </extensions>
      </trkpt>
      <trkpt lat="-22.0095012523233890533447265625" lon="166.4512813277542591094970703125">
        <ele>906.5999755859375</ele>
        <time>2016-08-12T21:06:37.000Z</time>
        <extensions>
          <ns3:TrackPointExtension>
            <ns3:atemp>17.0</ns3:atemp>
            <ns3:hr>126</ns3:hr>
          </ns3:TrackPointExtension>
        </extensions>
      </trkpt>
      <trkpt lat="-22.00952044688165187835693359375" lon="166.451270096004009246826171875">
        <ele>906.4000244140625</ele>
        <time>2016-08-12T21:06:38.000Z</time>
        <extensions>
          <ns3:TrackPointExtension>
            <ns3:atemp>17.0</ns3:atemp>
            <ns3:hr>126</ns3:hr>
          </ns3:TrackPointExtension>
        </extensions>
      </trkpt>
      <trkpt lat="-22.00954056344926357269287109375" lon="166.451258026063442230224609375">
        <ele>906</ele>
        <time>2016-08-12T21:06:39.000Z</time>
        <extensions>
          <ns3:TrackPointExtension>
            <ns3:atemp>17.0</ns3:atemp>
            <ns3:hr>127</ns3:hr>
          </ns3:TrackPointExtension>
        </extensions>
      </trkpt>
      <trkpt lat="-22.009557746350765228271484375" lon="166.45124319009482860565185546875">
        <ele>905.79998779296875</ele>
        <time>2016-08-12T21:06:40.000Z</time>
        <extensions>
          <ns3:TrackPointExtension>
            <ns3:atemp>17.0</ns3:atemp>
            <ns3:hr>127</ns3:hr>
          </ns3:TrackPointExtension>
        </extensions>
      </trkpt>
      <trkpt lat="-22.0095723308622837066650390625" lon="166.45122676156461238861083984375">
        <ele>905.5999755859375</ele>
        <time>2016-08-12T21:06:41.000Z</time>
        <extensions>
          <ns3:TrackPointExtension>
            <ns3:atemp>17.0</ns3:atemp>
            <ns3:hr>128</ns3:hr>
          </ns3:TrackPointExtension>
        </extensions>
      </trkpt>
      <trkpt lat="-22.009586580097675323486328125" lon="166.45121016539633274078369140625">
        <ele>905.20001220703125</ele>
        <time>2016-08-12T21:06:42.000Z</time>
        <extensions>
          <ns3:TrackPointExtension>
            <ns3:atemp>17.0</ns3:atemp>
            <ns3:hr>128</ns3:hr>
          </ns3:TrackPointExtension>
        </extensions>
      </trkpt>
      <trkpt lat="-22.0096018351614475250244140625" lon="166.45119599997997283935546875">
        <ele>904.79998779296875</ele>
        <time>2016-08-12T21:06:43.000Z</time>
        <extensions>
          <ns3:TrackPointExtension>
            <ns3:atemp>17.0</ns3:atemp>
            <ns3:hr>127</ns3:hr>
          </ns3:TrackPointExtension>
        </extensions>
      </trkpt>
      <trkpt lat="-22.00961683876812458038330078125" lon="166.45118485204875469207763671875">
        <ele>904.5999755859375</ele>
        <time>2016-08-12T21:06:44.000Z</time>
        <extensions>
          <ns3:TrackPointExtension>
            <ns3:atemp>17.0</ns3:atemp>
            <ns3:hr>127</ns3:hr>
          </ns3:TrackPointExtension>
        </extensions>
      </trkpt>
      <trkpt lat="-22.00963779352605342864990234375" lon="166.45117177627980709075927734375">
        <ele>904.20001220703125</ele>
        <time>2016-08-12T21:06:45.000Z</time>
        <extensions>
          <ns3:TrackPointExtension>
            <ns3:atemp>17.0</ns3:atemp>
            <ns3:hr>126</ns3:hr>
          </ns3:TrackPointExtension>
        </extensions>
      </trkpt>
      <trkpt lat="-22.0096581615507602691650390625" lon="166.4511572755873203277587890625">
        <ele>904.20001220703125</ele>
        <time>2016-08-12T21:06:46.000Z</time>
        <extensions>
          <ns3:TrackPointExtension>
            <ns3:atemp>17.0</ns3:atemp>
            <ns3:hr>126</ns3:hr>
          </ns3:TrackPointExtension>
        </extensions>
      </trkpt>
      <trkpt lat="-22.0096722431480884552001953125" lon="166.4511425234377384185791015625">
        <ele>903.79998779296875</ele>
        <time>2016-08-12T21:06:47.000Z</time>
        <extensions>
          <ns3:TrackPointExtension>
            <ns3:atemp>17.0</ns3:atemp>
            <ns3:hr>126</ns3:hr>
          </ns3:TrackPointExtension>
        </extensions>
      </trkpt>
      <trkpt lat="-22.0096900127828121185302734375" lon="166.45112684927880764007568359375">
        <ele>903.5999755859375</ele>
        <time>2016-08-12T21:06:48.000Z</time>
        <extensions>
          <ns3:TrackPointExtension>
            <ns3:atemp>17.0</ns3:atemp>
            <ns3:hr>126</ns3:hr>
          </ns3:TrackPointExtension>
        </extensions>
      </trkpt>
      <trkpt lat="-22.0097091235220432281494140625" lon="166.451111845672130584716796875">
        <ele>903.4000244140625</ele>
        <time>2016-08-12T21:06:49.000Z</time>
        <extensions>
          <ns3:TrackPointExtension>
            <ns3:atemp>17.0</ns3:atemp>
            <ns3:hr>126</ns3:hr>
          </ns3:TrackPointExtension>
        </extensions>
      </trkpt>
      <trkpt lat="-22.00972747988998889923095703125" lon="166.4510986022651195526123046875">
        <ele>903</ele>
        <time>2016-08-12T21:06:50.000Z</time>
        <extensions>
          <ns3:TrackPointExtension>
            <ns3:atemp>17.0</ns3:atemp>
            <ns3:hr>127</ns3:hr>
          </ns3:TrackPointExtension>
        </extensions>
      </trkpt>
      <trkpt lat="-22.009747512638568878173828125" lon="166.4510835148394107818603515625">
        <ele>902.5999755859375</ele>
        <time>2016-08-12T21:06:51.000Z</time>
        <extensions>
          <ns3:TrackPointExtension>
            <ns3:atemp>17.0</ns3:atemp>
            <ns3:hr>126</ns3:hr>
          </ns3:TrackPointExtension>
        </extensions>
      </trkpt>
      <trkpt lat="-22.00976670719683170318603515625" lon="166.4510690979659557342529296875">
        <ele>902.4000244140625</ele>
        <time>2016-08-12T21:06:52.000Z</time>
        <extensions>
          <ns3:TrackPointExtension>
            <ns3:atemp>17.0</ns3:atemp>
            <ns3:hr>127</ns3:hr>
          </ns3:TrackPointExtension>
        </extensions>
      </trkpt>
      <trkpt lat="-22.00978145934641361236572265625" lon="166.45106188952922821044921875">
        <ele>902</ele>
        <time>2016-08-12T21:06:53.000Z</time>
        <extensions>
          <ns3:TrackPointExtension>
            <ns3:atemp>17.0</ns3:atemp>
            <ns3:hr>127</ns3:hr>
          </ns3:TrackPointExtension>
        </extensions>
      </trkpt>
      <trkpt lat="-22.00980015099048614501953125" lon="166.4510667510330677032470703125">
        <ele>901.79998779296875</ele>
        <time>2016-08-12T21:06:54.000Z</time>
        <extensions>
          <ns3:TrackPointExtension>
            <ns3:atemp>17.0</ns3:atemp>
            <ns3:hr>126</ns3:hr>
          </ns3:TrackPointExtension>
        </extensions>
      </trkpt>
      <trkpt lat="-22.009821273386478424072265625" lon="166.4510794915258884429931640625">
        <ele>901.4000244140625</ele>
        <time>2016-08-12T21:06:55.000Z</time>
        <extensions>
          <ns3:TrackPointExtension>
            <ns3:atemp>17.0</ns3:atemp>
            <ns3:hr>126</ns3:hr>
          </ns3:TrackPointExtension>
        </extensions>
      </trkpt>
      <trkpt lat="-22.009844072163105010986328125" lon="166.45109131000936031341552734375">
        <ele>901.4000244140625</ele>
        <time>2016-08-12T21:06:56.000Z</time>
        <extensions>
          <ns3:TrackPointExtension>
            <ns3:atemp>17.0</ns3:atemp>
            <ns3:hr>126</ns3:hr>
          </ns3:TrackPointExtension>
        </extensions>
      </trkpt>
      <trkpt lat="-22.0098710618913173675537109375" lon="166.45109633915126323699951171875">
        <ele>901.4000244140625</ele>
        <time>2016-08-12T21:06:57.000Z</time>
        <extensions>
          <ns3:TrackPointExtension>
            <ns3:atemp>17.0</ns3:atemp>
            <ns3:hr>126</ns3:hr>
          </ns3:TrackPointExtension>
        </extensions>
      </trkpt>
      <trkpt lat="-22.00989612378180027008056640625" lon="166.45109734497964382171630859375">
        <ele>901.4000244140625</ele>
        <time>2016-08-12T21:06:58.000Z</time>
        <extensions>
          <ns3:TrackPointExtension>
            <ns3:atemp>17.0</ns3:atemp>
            <ns3:hr>126</ns3:hr>
          </ns3:TrackPointExtension>
        </extensions>
      </trkpt>
      <trkpt lat="-22.009923197329044342041015625" lon="166.451097764074802398681640625">
        <ele>901</ele>
        <time>2016-08-12T21:06:59.000Z</time>
        <extensions>
          <ns3:TrackPointExtension>
            <ns3:atemp>17.0</ns3:atemp>
            <ns3:hr>126</ns3:hr>
          </ns3:TrackPointExtension>
        </extensions>
      </trkpt>
      <trkpt lat="-22.0099555514752864837646484375" lon="166.45109684206545352935791015625">
        <ele>901</ele>
        <time>2016-08-12T21:07:00.000Z</time>
        <extensions>
          <ns3:TrackPointExtension>
            <ns3:atemp>17.0</ns3:atemp>
            <ns3:hr>126</ns3:hr>
          </ns3:TrackPointExtension>
        </extensions>
      </trkpt>
      <trkpt lat="-22.00998446904122829437255859375" lon="166.45109550096094608306884765625">
        <ele>901</ele>
        <time>2016-08-12T21:07:01.000Z</time>
        <extensions>
          <ns3:TrackPointExtension>
            <ns3:atemp>17.0</ns3:atemp>
            <ns3:hr>126</ns3:hr>
          </ns3:TrackPointExtension>
        </extensions>
      </trkpt>
      <trkpt lat="-22.01001212932169437408447265625" lon="166.45109365694224834442138671875">
        <ele>900.79998779296875</ele>
        <time>2016-08-12T21:07:02.000Z</time>
        <extensions>
          <ns3:TrackPointExtension>
            <ns3:atemp>17.0</ns3:atemp>
            <ns3:hr>127</ns3:hr>
          </ns3:TrackPointExtension>
        </extensions>
      </trkpt>
      <trkpt lat="-22.01004146598279476165771484375" lon="166.45109097473323345184326171875">
        <ele>900.4000244140625</ele>
        <time>2016-08-12T21:07:03.000Z</time>
        <extensions>
          <ns3:TrackPointExtension>
            <ns3:atemp>17.0</ns3:atemp>
            <ns3:hr>126</ns3:hr>
          </ns3:TrackPointExtension>
        </extensions>
      </trkpt>
      <trkpt lat="-22.0100677013397216796875" lon="166.45108661614358425140380859375">
        <ele>900.4000244140625</ele>
        <time>2016-08-12T21:07:04.000Z</time>
        <extensions>
          <ns3:TrackPointExtension>
            <ns3:atemp>17.0</ns3:atemp>
            <ns3:hr>126</ns3:hr>
          </ns3:TrackPointExtension>
        </extensions>
      </trkpt>
      <trkpt lat="-22.01009360142052173614501953125" lon="166.45108141936361789703369140625">
        <ele>900.20001220703125</ele>
        <time>2016-08-12T21:07:05.000Z</time>
        <extensions>
          <ns3:TrackPointExtension>
            <ns3:atemp>17.0</ns3:atemp>
            <ns3:hr>126</ns3:hr>
          </ns3:TrackPointExtension>
        </extensions>
      </trkpt>
      <trkpt lat="-22.0101184956729412078857421875" lon="166.451072953641414642333984375">
        <ele>900</ele>
        <time>2016-08-12T21:07:06.000Z</time>
        <extensions>
          <ns3:TrackPointExtension>
            <ns3:atemp>17.0</ns3:atemp>
            <ns3:hr>126</ns3:hr>
          </ns3:TrackPointExtension>
        </extensions>
      </trkpt>
      <trkpt lat="-22.01013836078345775604248046875" lon="166.4510644041001796722412109375">
        <ele>899.79998779296875</ele>
        <time>2016-08-12T21:07:07.000Z</time>
        <extensions>
          <ns3:TrackPointExtension>
            <ns3:atemp>17.0</ns3:atemp>
            <ns3:hr>127</ns3:hr>
          </ns3:TrackPointExtension>
        </extensions>
      </trkpt>
      <trkpt lat="-22.01015931554138660430908203125" lon="166.45105325616896152496337890625">
        <ele>899.5999755859375</ele>
        <time>2016-08-12T21:07:08.000Z</time>
        <extensions>
          <ns3:TrackPointExtension>
            <ns3:atemp>17.0</ns3:atemp>
            <ns3:hr>127</ns3:hr>
          </ns3:TrackPointExtension>
        </extensions>
      </trkpt>
      <trkpt lat="-22.01018094085156917572021484375" lon="166.45103909075260162353515625">
        <ele>899.20001220703125</ele>
        <time>2016-08-12T21:07:09.000Z</time>
        <extensions>
          <ns3:TrackPointExtension>
            <ns3:atemp>17.0</ns3:atemp>
            <ns3:hr>126</ns3:hr>
          </ns3:TrackPointExtension>
        </extensions>
      </trkpt>
      <trkpt lat="-22.010200135409832000732421875" lon="166.45102526061236858367919921875">
        <ele>899</ele>
        <time>2016-08-12T21:07:10.000Z</time>
        <extensions>
          <ns3:TrackPointExtension>
            <ns3:atemp>17.0</ns3:atemp>
            <ns3:hr>126</ns3:hr>
          </ns3:TrackPointExtension>
        </extensions>
      </trkpt>
      <trkpt lat="-22.010218910872936248779296875" lon="166.451008580625057220458984375">
        <ele>898.79998779296875</ele>
        <time>2016-08-12T21:07:11.000Z</time>
        <extensions>
          <ns3:TrackPointExtension>
            <ns3:atemp>17.0</ns3:atemp>
            <ns3:hr>126</ns3:hr>
          </ns3:TrackPointExtension>
        </extensions>
      </trkpt>
      <trkpt lat="-22.0102368481457233428955078125" lon="166.45098988898098468780517578125">
        <ele>898.4000244140625</ele>
        <time>2016-08-12T21:07:12.000Z</time>
        <extensions>
          <ns3:TrackPointExtension>
            <ns3:atemp>17.0</ns3:atemp>
            <ns3:hr>126</ns3:hr>
          </ns3:TrackPointExtension>
        </extensions>
      </trkpt>
      <trkpt lat="-22.01025369577109813690185546875" lon="166.450974047183990478515625">
        <ele>898.20001220703125</ele>
        <time>2016-08-12T21:07:13.000Z</time>
        <extensions>
          <ns3:TrackPointExtension>
            <ns3:atemp>17.0</ns3:atemp>
            <ns3:hr>126</ns3:hr>
          </ns3:TrackPointExtension>
        </extensions>
      </trkpt>
      <trkpt lat="-22.0102693699300289154052734375" lon="166.450954936444759368896484375">
        <ele>897.79998779296875</ele>
        <time>2016-08-12T21:07:14.000Z</time>
        <extensions>
          <ns3:TrackPointExtension>
            <ns3:atemp>17.0</ns3:atemp>
            <ns3:hr>126</ns3:hr>
          </ns3:TrackPointExtension>
        </extensions>
      </trkpt>
      <trkpt lat="-22.010287307202816009521484375" lon="166.45093473605811595916748046875">
        <ele>897.4000244140625</ele>
        <time>2016-08-12T21:07:15.000Z</time>
        <extensions>
          <ns3:TrackPointExtension>
            <ns3:atemp>17.0</ns3:atemp>
            <ns3:hr>125</ns3:hr>
          </ns3:TrackPointExtension>
        </extensions>
      </trkpt>
      <trkpt lat="-22.0103015564382076263427734375" lon="166.4509165473282337188720703125">
        <ele>897.20001220703125</ele>
        <time>2016-08-12T21:07:16.000Z</time>
        <extensions>
          <ns3:TrackPointExtension>
            <ns3:atemp>17.0</ns3:atemp>
            <ns3:hr>125</ns3:hr>
          </ns3:TrackPointExtension>
        </extensions>
      </trkpt>
      <trkpt lat="-22.0103166438639163970947265625" lon="166.450897268950939178466796875">
        <ele>896.5999755859375</ele>
        <time>2016-08-12T21:07:17.000Z</time>
        <extensions>
          <ns3:TrackPointExtension>
            <ns3:atemp>17.0</ns3:atemp>
            <ns3:hr>125</ns3:hr>
          </ns3:TrackPointExtension>
        </extensions>
      </trkpt>
      <trkpt lat="-22.01033248566091060638427734375" lon="166.45087589509785175323486328125">
        <ele>896.4000244140625</ele>
        <time>2016-08-12T21:07:18.000Z</time>
        <extensions>
          <ns3:TrackPointExtension>
            <ns3:atemp>17.0</ns3:atemp>
            <ns3:hr>125</ns3:hr>
          </ns3:TrackPointExtension>
        </extensions>
      </trkpt>
      <trkpt lat="-22.0103488303720951080322265625" lon="166.450856029987335205078125">
        <ele>896</ele>
        <time>2016-08-12T21:07:19.000Z</time>
        <extensions>
          <ns3:TrackPointExtension>
            <ns3:atemp>17.0</ns3:atemp>
            <ns3:hr>125</ns3:hr>
          </ns3:TrackPointExtension>
        </extensions>
      </trkpt>
      <trkpt lat="-22.0103679411113262176513671875" lon="166.45083725452423095703125">
        <ele>895.79998779296875</ele>
        <time>2016-08-12T21:07:20.000Z</time>
        <extensions>
          <ns3:TrackPointExtension>
            <ns3:atemp>17.0</ns3:atemp>
            <ns3:hr>125</ns3:hr>
          </ns3:TrackPointExtension>
        </extensions>
      </trkpt>
      <trkpt lat="-22.01038797385990619659423828125" lon="166.45081738941371440887451171875">
        <ele>895.5999755859375</ele>
        <time>2016-08-12T21:07:21.000Z</time>
        <extensions>
          <ns3:TrackPointExtension>
            <ns3:atemp>17.0</ns3:atemp>
            <ns3:hr>125</ns3:hr>
          </ns3:TrackPointExtension>
        </extensions>
      </trkpt>
      <trkpt lat="-22.01040633022785186767578125" lon="166.45080096088349819183349609375">
        <ele>895.20001220703125</ele>
        <time>2016-08-12T21:07:22.000Z</time>
        <extensions>
          <ns3:TrackPointExtension>
            <ns3:atemp>17.0</ns3:atemp>
            <ns3:hr>125</ns3:hr>
          </ns3:TrackPointExtension>
        </extensions>
      </trkpt>
      <trkpt lat="-22.0104252733290195465087890625" lon="166.4507837779819965362548828125">
        <ele>894.79998779296875</ele>
        <time>2016-08-12T21:07:23.000Z</time>
        <extensions>
          <ns3:TrackPointExtension>
            <ns3:atemp>17.0</ns3:atemp>
            <ns3:hr>125</ns3:hr>
          </ns3:TrackPointExtension>
        </extensions>
      </trkpt>
      <trkpt lat="-22.010443545877933502197265625" lon="166.450767852365970611572265625">
        <ele>894.20001220703125</ele>
        <time>2016-08-12T21:07:24.000Z</time>
        <extensions>
          <ns3:TrackPointExtension>
            <ns3:atemp>18.0</ns3:atemp>
            <ns3:hr>125</ns3:hr>
          </ns3:TrackPointExtension>
        </extensions>
      </trkpt>
      <trkpt lat="-22.01046056114137172698974609375" lon="166.45075343549251556396484375">
        <ele>894</ele>
        <time>2016-08-12T21:07:25.000Z</time>
        <extensions>
          <ns3:TrackPointExtension>
            <ns3:atemp>18.0</ns3:atemp>
            <ns3:hr>125</ns3:hr>
          </ns3:TrackPointExtension>
        </extensions>
      </trkpt>
      <trkpt lat="-22.01047874987125396728515625" lon="166.45073725841939449310302734375">
        <ele>893.5999755859375</ele>
        <time>2016-08-12T21:07:26.000Z</time>
        <extensions>
          <ns3:TrackPointExtension>
            <ns3:atemp>18.0</ns3:atemp>
            <ns3:hr>125</ns3:hr>
          </ns3:TrackPointExtension>
        </extensions>
      </trkpt>
      <trkpt lat="-22.01049844734370708465576171875" lon="166.45072351209819316864013671875">
        <ele>893.4000244140625</ele>
        <time>2016-08-12T21:07:27.000Z</time>
        <extensions>
          <ns3:TrackPointExtension>
            <ns3:atemp>18.0</ns3:atemp>
            <ns3:hr>125</ns3:hr>
          </ns3:TrackPointExtension>
        </extensions>
      </trkpt>
      <trkpt lat="-22.01051537878811359405517578125" lon="166.45071278326213359832763671875">
        <ele>893</ele>
        <time>2016-08-12T21:07:28.000Z</time>
        <extensions>
          <ns3:TrackPointExtension>
            <ns3:atemp>18.0</ns3:atemp>
            <ns3:hr>125</ns3:hr>
          </ns3:TrackPointExtension>
        </extensions>
      </trkpt>
      <trkpt lat="-22.0105305500328540802001953125" lon="166.4507023058831691741943359375">
        <ele>892.5999755859375</ele>
        <time>2016-08-12T21:07:29.000Z</time>
        <extensions>
          <ns3:TrackPointExtension>
            <ns3:atemp>18.0</ns3:atemp>
            <ns3:hr>125</ns3:hr>
          </ns3:TrackPointExtension>
        </extensions>
      </trkpt>
      <trkpt lat="-22.0105469785630702972412109375" lon="166.45069534890353679656982421875">
        <ele>892.4000244140625</ele>
        <time>2016-08-12T21:07:30.000Z</time>
        <extensions>
          <ns3:TrackPointExtension>
            <ns3:atemp>18.0</ns3:atemp>
            <ns3:hr>125</ns3:hr>
          </ns3:TrackPointExtension>
        </extensions>
      </trkpt>
      <trkpt lat="-22.01056382618844509124755859375" lon="166.45069400779902935028076171875">
        <ele>892.20001220703125</ele>
        <time>2016-08-12T21:07:31.000Z</time>
        <extensions>
          <ns3:TrackPointExtension>
            <ns3:atemp>18.0</ns3:atemp>
            <ns3:hr>124</ns3:hr>
          </ns3:TrackPointExtension>
        </extensions>
      </trkpt>
      <trkpt lat="-22.0105813443660736083984375" lon="166.45069920457899570465087890625">
        <ele>892.20001220703125</ele>
        <time>2016-08-12T21:07:32.000Z</time>
        <extensions>
          <ns3:TrackPointExtension>
            <ns3:atemp>18.0</ns3:atemp>
            <ns3:hr>125</ns3:hr>
          </ns3:TrackPointExtension>
        </extensions>
      </trkpt>
      <trkpt lat="-22.01060338877141475677490234375" lon="166.4507039822638034820556640625">
        <ele>892.20001220703125</ele>
        <time>2016-08-12T21:07:33.000Z</time>
        <extensions>
          <ns3:TrackPointExtension>
            <ns3:atemp>18.0</ns3:atemp>
            <ns3:hr>124</ns3:hr>
          </ns3:TrackPointExtension>
        </extensions>
      </trkpt>
      <trkpt lat="-22.010624594986438751220703125" lon="166.450702808797359466552734375">
        <ele>892</ele>
        <time>2016-08-12T21:07:34.000Z</time>
        <extensions>
          <ns3:TrackPointExtension>
            <ns3:atemp>18.0</ns3:atemp>
            <ns3:hr>124</ns3:hr>
          </ns3:TrackPointExtension>
        </extensions>
      </trkpt>
      <trkpt lat="-22.01064429245889186859130859375" lon="166.450696773827075958251953125">
        <ele>891.79998779296875</ele>
        <time>2016-08-12T21:07:35.000Z</time>
        <extensions>
          <ns3:TrackPointExtension>
            <ns3:atemp>18.0</ns3:atemp>
            <ns3:hr>124</ns3:hr>
          </ns3:TrackPointExtension>
        </extensions>
      </trkpt>
      <trkpt lat="-22.01066642068326473236083984375" lon="166.45068705081939697265625">
        <ele>891.4000244140625</ele>
        <time>2016-08-12T21:07:36.000Z</time>
        <extensions>
          <ns3:TrackPointExtension>
            <ns3:atemp>18.0</ns3:atemp>
            <ns3:hr>124</ns3:hr>
          </ns3:TrackPointExtension>
        </extensions>
      </trkpt>
      <trkpt lat="-22.010687291622161865234375" lon="166.45067565143108367919921875">
        <ele>891.20001220703125</ele>
        <time>2016-08-12T21:07:37.000Z</time>
        <extensions>
          <ns3:TrackPointExtension>
            <ns3:atemp>18.0</ns3:atemp>
            <ns3:hr>124</ns3:hr>
          </ns3:TrackPointExtension>
        </extensions>
      </trkpt>
      <trkpt lat="-22.01070296578109264373779296875" lon="166.45066400058567523956298828125">
        <ele>891</ele>
        <time>2016-08-12T21:07:38.000Z</time>
        <extensions>
          <ns3:TrackPointExtension>
            <ns3:atemp>18.0</ns3:atemp>
            <ns3:hr>124</ns3:hr>
          </ns3:TrackPointExtension>
        </extensions>
      </trkpt>
      <trkpt lat="-22.01072006486356258392333984375" lon="166.45064841024577617645263671875">
        <ele>890.79998779296875</ele>
        <time>2016-08-12T21:07:39.000Z</time>
        <extensions>
          <ns3:TrackPointExtension>
            <ns3:atemp>18.0</ns3:atemp>
            <ns3:hr>124</ns3:hr>
          </ns3:TrackPointExtension>
        </extensions>
      </trkpt>
      <trkpt lat="-22.01073632575571537017822265625" lon="166.45062829367816448211669921875">
        <ele>890.4000244140625</ele>
        <time>2016-08-12T21:07:40.000Z</time>
        <extensions>
          <ns3:TrackPointExtension>
            <ns3:atemp>18.0</ns3:atemp>
            <ns3:hr>124</ns3:hr>
          </ns3:TrackPointExtension>
        </extensions>
      </trkpt>
      <trkpt lat="-22.01075007207691669464111328125" lon="166.4506111107766628265380859375">
        <ele>890</ele>
        <time>2016-08-12T21:07:41.000Z</time>
        <extensions>
          <ns3:TrackPointExtension>
            <ns3:atemp>18.0</ns3:atemp>
            <ns3:hr>124</ns3:hr>
          </ns3:TrackPointExtension>
        </extensions>
      </trkpt>
      <trkpt lat="-22.0107578672468662261962890625" lon="166.45058873109519481658935546875">
        <ele>889.79998779296875</ele>
        <time>2016-08-12T21:07:42.000Z</time>
        <extensions>
          <ns3:TrackPointExtension>
            <ns3:atemp>18.0</ns3:atemp>
            <ns3:hr>123</ns3:hr>
          </ns3:TrackPointExtension>
        </extensions>
      </trkpt>
      <trkpt lat="-22.0107637345790863037109375" lon="166.4505661837756633758544921875">
        <ele>889.4000244140625</ele>
        <time>2016-08-12T21:07:43.000Z</time>
        <extensions>
          <ns3:TrackPointExtension>
            <ns3:atemp>18.0</ns3:atemp>
            <ns3:hr>123</ns3:hr>
          </ns3:TrackPointExtension>
        </extensions>
      </trkpt>
      <trkpt lat="-22.010767757892608642578125" lon="166.45054765976965427398681640625">
        <ele>889</ele>
        <time>2016-08-12T21:07:44.000Z</time>
        <extensions>
          <ns3:TrackPointExtension>
            <ns3:atemp>18.0</ns3:atemp>
            <ns3:hr>123</ns3:hr>
          </ns3:TrackPointExtension>
        </extensions>
      </trkpt>
      <trkpt lat="-22.0107779838144779205322265625" lon="166.45053324289619922637939453125">
        <ele>888.79998779296875</ele>
        <time>2016-08-12T21:07:45.000Z</time>
        <extensions>
          <ns3:TrackPointExtension>
            <ns3:atemp>18.0</ns3:atemp>
            <ns3:hr>124</ns3:hr>
          </ns3:TrackPointExtension>
        </extensions>
      </trkpt>
      <trkpt lat="-22.01078829355537891387939453125" lon="166.45051295869052410125732421875">
        <ele>888.5999755859375</ele>
        <time>2016-08-12T21:07:46.000Z</time>
        <extensions>
          <ns3:TrackPointExtension>
            <ns3:atemp>18.0</ns3:atemp>
            <ns3:hr>123</ns3:hr>
          </ns3:TrackPointExtension>
        </extensions>
      </trkpt>
      <trkpt lat="-22.01079382561147212982177734375" lon="166.45048781298100948333740234375">
        <ele>888.20001220703125</ele>
        <time>2016-08-12T21:07:47.000Z</time>
        <extensions>
          <ns3:TrackPointExtension>
            <ns3:atemp>18.0</ns3:atemp>
            <ns3:hr>123</ns3:hr>
          </ns3:TrackPointExtension>
        </extensions>
      </trkpt>
      <trkpt lat="-22.01079667545855045318603515625" lon="166.4504657685756683349609375">
        <ele>888</ele>
        <time>2016-08-12T21:07:48.000Z</time>
        <extensions>
          <ns3:TrackPointExtension>
            <ns3:atemp>18.0</ns3:atemp>
            <ns3:hr>123</ns3:hr>
          </ns3:TrackPointExtension>
        </extensions>
      </trkpt>
      <trkpt lat="-22.01079969294369220733642578125" lon="166.45044137723743915557861328125">
        <ele>887.5999755859375</ele>
        <time>2016-08-12T21:07:49.000Z</time>
        <extensions>
          <ns3:TrackPointExtension>
            <ns3:atemp>18.0</ns3:atemp>
            <ns3:hr>123</ns3:hr>
          </ns3:TrackPointExtension>
        </extensions>
      </trkpt>
      <trkpt lat="-22.01080220751464366912841796875" lon="166.45041639916598796844482421875">
        <ele>887.20001220703125</ele>
        <time>2016-08-12T21:07:50.000Z</time>
        <extensions>
          <ns3:TrackPointExtension>
            <ns3:atemp>18.0</ns3:atemp>
            <ns3:hr>124</ns3:hr>
          </ns3:TrackPointExtension>
        </extensions>
      </trkpt>
      <trkpt lat="-22.01080597937107086181640625" lon="166.45039292983710765838623046875">
        <ele>887</ele>
        <time>2016-08-12T21:07:51.000Z</time>
        <extensions>
          <ns3:TrackPointExtension>
            <ns3:atemp>18.0</ns3:atemp>
            <ns3:hr>124</ns3:hr>
          </ns3:TrackPointExtension>
        </extensions>
      </trkpt>
      <trkpt lat="-22.010805308818817138671875" lon="166.4503700472414493560791015625">
        <ele>886.4000244140625</ele>
        <time>2016-08-12T21:07:52.000Z</time>
        <extensions>
          <ns3:TrackPointExtension>
            <ns3:atemp>18.0</ns3:atemp>
            <ns3:hr>124</ns3:hr>
          </ns3:TrackPointExtension>
        </extensions>
      </trkpt>
      <trkpt lat="-22.01080463826656341552734375" lon="166.4503469131886959075927734375">
        <ele>886.20001220703125</ele>
        <time>2016-08-12T21:07:53.000Z</time>
        <extensions>
          <ns3:TrackPointExtension>
            <ns3:atemp>18.0</ns3:atemp>
            <ns3:hr>124</ns3:hr>
          </ns3:TrackPointExtension>
        </extensions>
      </trkpt>
      <trkpt lat="-22.0108039677143096923828125" lon="166.45032503642141819000244140625">
        <ele>886</ele>
        <time>2016-08-12T21:07:54.000Z</time>
        <extensions>
          <ns3:TrackPointExtension>
            <ns3:atemp>18.0</ns3:atemp>
            <ns3:hr>124</ns3:hr>
          </ns3:TrackPointExtension>
        </extensions>
      </trkpt>
      <trkpt lat="-22.01080103404819965362548828125" lon="166.45030173473060131072998046875">
        <ele>885.79998779296875</ele>
        <time>2016-08-12T21:07:55.000Z</time>
        <extensions>
          <ns3:TrackPointExtension>
            <ns3:atemp>18.0</ns3:atemp>
            <ns3:hr>124</ns3:hr>
          </ns3:TrackPointExtension>
        </extensions>
      </trkpt>
      <trkpt lat="-22.0107957534492015838623046875" lon="166.4502761699259281158447265625">
        <ele>885.5999755859375</ele>
        <time>2016-08-12T21:07:56.000Z</time>
        <extensions>
          <ns3:TrackPointExtension>
            <ns3:atemp>18.0</ns3:atemp>
            <ns3:hr>123</ns3:hr>
          </ns3:TrackPointExtension>
        </extensions>
      </trkpt>
      <trkpt lat="-22.01079281978309154510498046875" lon="166.4502530358731746673583984375">
        <ele>885.4000244140625</ele>
        <time>2016-08-12T21:07:57.000Z</time>
        <extensions>
          <ns3:TrackPointExtension>
            <ns3:atemp>18.0</ns3:atemp>
            <ns3:hr>124</ns3:hr>
          </ns3:TrackPointExtension>
        </extensions>
      </trkpt>
      <trkpt lat="-22.0107937417924404144287109375" lon="166.4502302370965480804443359375">
        <ele>885</ele>
        <time>2016-08-12T21:07:58.000Z</time>
        <extensions>
          <ns3:TrackPointExtension>
            <ns3:atemp>18.0</ns3:atemp>
            <ns3:hr>124</ns3:hr>
          </ns3:TrackPointExtension>
        </extensions>
      </trkpt>
      <trkpt lat="-22.01079969294369220733642578125" lon="166.4502054266631603240966796875">
        <ele>884.79998779296875</ele>
        <time>2016-08-12T21:07:59.000Z</time>
        <extensions>
          <ns3:TrackPointExtension>
            <ns3:atemp>18.0</ns3:atemp>
            <ns3:hr>124</ns3:hr>
          </ns3:TrackPointExtension>
        </extensions>
      </trkpt>
      <trkpt lat="-22.01080924831330776214599609375" lon="166.450183130800724029541015625">
        <ele>884.4000244140625</ele>
        <time>2016-08-12T21:08:00.000Z</time>
        <extensions>
          <ns3:TrackPointExtension>
            <ns3:atemp>18.0</ns3:atemp>
            <ns3:hr>124</ns3:hr>
          </ns3:TrackPointExtension>
        </extensions>
      </trkpt>
      <trkpt lat="-22.01082416810095310211181640625" lon="166.45016578026115894317626953125">
        <ele>884.20001220703125</ele>
        <time>2016-08-12T21:08:01.000Z</time>
        <extensions>
          <ns3:TrackPointExtension>
            <ns3:atemp>18.0</ns3:atemp>
            <ns3:hr>124</ns3:hr>
          </ns3:TrackPointExtension>
        </extensions>
      </trkpt>
      <trkpt lat="-22.01084227301180362701416015625" lon="166.450153626501560211181640625">
        <ele>883.79998779296875</ele>
        <time>2016-08-12T21:08:02.000Z</time>
        <extensions>
          <ns3:TrackPointExtension>
            <ns3:atemp>18.0</ns3:atemp>
            <ns3:hr>124</ns3:hr>
          </ns3:TrackPointExtension>
        </extensions>
      </trkpt>
      <trkpt lat="-22.01085752807557582855224609375" lon="166.45014499314129352569580078125">
        <ele>883.4000244140625</ele>
        <time>2016-08-12T21:08:03.000Z</time>
        <extensions>
          <ns3:TrackPointExtension>
            <ns3:atemp>18.0</ns3:atemp>
            <ns3:hr>124</ns3:hr>
          </ns3:TrackPointExtension>
        </extensions>
      </trkpt>
      <trkpt lat="-22.010872028768062591552734375" lon="166.4501393772661685943603515625">
        <ele>883.20001220703125</ele>
        <time>2016-08-12T21:08:04.000Z</time>
        <extensions>
          <ns3:TrackPointExtension>
            <ns3:atemp>18.0</ns3:atemp>
            <ns3:hr>124</ns3:hr>
          </ns3:TrackPointExtension>
        </extensions>
      </trkpt>
      <trkpt lat="-22.01089105568826198577880859375" lon="166.45013920962810516357421875">
        <ele>882.79998779296875</ele>
        <time>2016-08-12T21:08:05.000Z</time>
        <extensions>
          <ns3:TrackPointExtension>
            <ns3:atemp>18.0</ns3:atemp>
            <ns3:hr>124</ns3:hr>
          </ns3:TrackPointExtension>
        </extensions>
      </trkpt>
      <trkpt lat="-22.01090916059911251068115234375" lon="166.450141556560993194580078125">
        <ele>882.5999755859375</ele>
        <time>2016-08-12T21:08:06.000Z</time>
        <extensions>
          <ns3:TrackPointExtension>
            <ns3:atemp>18.0</ns3:atemp>
            <ns3:hr>124</ns3:hr>
          </ns3:TrackPointExtension>
        </extensions>
      </trkpt>
      <trkpt lat="-22.010928355157375335693359375" lon="166.45013862289488315582275390625">
        <ele>882.4000244140625</ele>
        <time>2016-08-12T21:08:07.000Z</time>
        <extensions>
          <ns3:TrackPointExtension>
            <ns3:atemp>18.0</ns3:atemp>
            <ns3:hr>124</ns3:hr>
          </ns3:TrackPointExtension>
        </extensions>
      </trkpt>
      <trkpt lat="-22.01094805262982845306396484375" lon="166.4501345157623291015625">
        <ele>882.20001220703125</ele>
        <time>2016-08-12T21:08:08.000Z</time>
        <extensions>
          <ns3:TrackPointExtension>
            <ns3:atemp>18.0</ns3:atemp>
            <ns3:hr>124</ns3:hr>
          </ns3:TrackPointExtension>
        </extensions>
      </trkpt>
      <trkpt lat="-22.010963223874568939208984375" lon="166.4501304924488067626953125">
        <ele>881.5999755859375</ele>
        <time>2016-08-12T21:08:09.000Z</time>
        <extensions>
          <ns3:TrackPointExtension>
            <ns3:atemp>18.0</ns3:atemp>
            <ns3:hr>124</ns3:hr>
          </ns3:TrackPointExtension>
        </extensions>
      </trkpt>
      <trkpt lat="-22.010976634919643402099609375" lon="166.45012722350656986236572265625">
        <ele>881.4000244140625</ele>
        <time>2016-08-12T21:08:10.000Z</time>
        <extensions>
          <ns3:TrackPointExtension>
            <ns3:atemp>18.0</ns3:atemp>
            <ns3:hr>124</ns3:hr>
          </ns3:TrackPointExtension>
        </extensions>
      </trkpt>
      <trkpt lat="-22.01099532656371593475341796875" lon="166.4501251280307769775390625">
        <ele>881</ele>
        <time>2016-08-12T21:08:11.000Z</time>
        <extensions>
          <ns3:TrackPointExtension>
            <ns3:atemp>18.0</ns3:atemp>
            <ns3:hr>124</ns3:hr>
          </ns3:TrackPointExtension>
        </extensions>
      </trkpt>
      <trkpt lat="-22.01101292856037616729736328125" lon="166.45012135617434978485107421875">
        <ele>881</ele>
        <time>2016-08-12T21:08:12.000Z</time>
        <extensions>
          <ns3:TrackPointExtension>
            <ns3:atemp>18.0</ns3:atemp>
            <ns3:hr>124</ns3:hr>
          </ns3:TrackPointExtension>
        </extensions>
      </trkpt>
      <trkpt lat="-22.011028937995433807373046875" lon="166.4501142315566539764404296875">
        <ele>880.5999755859375</ele>
        <time>2016-08-12T21:08:13.000Z</time>
        <extensions>
          <ns3:TrackPointExtension>
            <ns3:atemp>18.0</ns3:atemp>
            <ns3:hr>124</ns3:hr>
          </ns3:TrackPointExtension>
        </extensions>
      </trkpt>
      <trkpt lat="-22.0110495574772357940673828125" lon="166.450108699500560760498046875">
        <ele>880.20001220703125</ele>
        <time>2016-08-12T21:08:14.000Z</time>
        <extensions>
          <ns3:TrackPointExtension>
            <ns3:atemp>18.0</ns3:atemp>
            <ns3:hr>124</ns3:hr>
          </ns3:TrackPointExtension>
        </extensions>
      </trkpt>
      <trkpt lat="-22.0110695064067840576171875" lon="166.450107358396053314208984375">
        <ele>879.79998779296875</ele>
        <time>2016-08-12T21:08:15.000Z</time>
        <extensions>
          <ns3:TrackPointExtension>
            <ns3:atemp>18.0</ns3:atemp>
            <ns3:hr>124</ns3:hr>
          </ns3:TrackPointExtension>
        </extensions>
      </trkpt>
      <trkpt lat="-22.01108316890895366668701171875" lon="166.4501071907579898834228515625">
        <ele>879.5999755859375</ele>
        <time>2016-08-12T21:08:16.000Z</time>
        <extensions>
          <ns3:TrackPointExtension>
            <ns3:atemp>18.0</ns3:atemp>
            <ns3:hr>124</ns3:hr>
          </ns3:TrackPointExtension>
        </extensions>
      </trkpt>
      <trkpt lat="-22.0111016929149627685546875" lon="166.4501108787953853607177734375">
        <ele>879.20001220703125</ele>
        <time>2016-08-12T21:08:17.000Z</time>
        <extensions>
          <ns3:TrackPointExtension>
            <ns3:atemp>18.0</ns3:atemp>
            <ns3:hr>124</ns3:hr>
          </ns3:TrackPointExtension>
        </extensions>
      </trkpt>
      <trkpt lat="-22.011122144758701324462890625" lon="166.450117416679859161376953125">
        <ele>879</ele>
        <time>2016-08-12T21:08:18.000Z</time>
        <extensions>
          <ns3:TrackPointExtension>
            <ns3:atemp>18.0</ns3:atemp>
            <ns3:hr>124</ns3:hr>
          </ns3:TrackPointExtension>
        </extensions>
      </trkpt>
      <trkpt lat="-22.01113647781312465667724609375" lon="166.45012638531625270843505859375">
        <ele>878.79998779296875</ele>
        <time>2016-08-12T21:08:19.000Z</time>
        <extensions>
          <ns3:TrackPointExtension>
            <ns3:atemp>18.0</ns3:atemp>
            <ns3:hr>124</ns3:hr>
          </ns3:TrackPointExtension>
        </extensions>
      </trkpt>
      <trkpt lat="-22.011151649057865142822265625" lon="166.450138874351978302001953125">
        <ele>878.79998779296875</ele>
        <time>2016-08-12T21:08:20.000Z</time>
        <extensions>
          <ns3:TrackPointExtension>
            <ns3:atemp>18.0</ns3:atemp>
            <ns3:hr>124</ns3:hr>
          </ns3:TrackPointExtension>
        </extensions>
      </trkpt>
      <trkpt lat="-22.01116832904517650604248046875" lon="166.4501477591693401336669921875">
        <ele>878.79998779296875</ele>
        <time>2016-08-12T21:08:21.000Z</time>
        <extensions>
          <ns3:TrackPointExtension>
            <ns3:atemp>18.0</ns3:atemp>
            <ns3:hr>124</ns3:hr>
          </ns3:TrackPointExtension>
        </extensions>
      </trkpt>
      <trkpt lat="-22.0111907087266445159912109375" lon="166.45015538670122623443603515625">
        <ele>878.5999755859375</ele>
        <time>2016-08-12T21:08:22.000Z</time>
        <extensions>
          <ns3:TrackPointExtension>
            <ns3:atemp>18.0</ns3:atemp>
            <ns3:hr>125</ns3:hr>
          </ns3:TrackPointExtension>
        </extensions>
      </trkpt>
      <trkpt lat="-22.01121501624584197998046875" lon="166.450164355337619781494140625">
        <ele>878.4000244140625</ele>
        <time>2016-08-12T21:08:23.000Z</time>
        <extensions>
          <ns3:TrackPointExtension>
            <ns3:atemp>18.0</ns3:atemp>
            <ns3:hr>125</ns3:hr>
          </ns3:TrackPointExtension>
        </extensions>
      </trkpt>
      <trkpt lat="-22.01123739592730998992919921875" lon="166.45017215050756931304931640625">
        <ele>878.20001220703125</ele>
        <time>2016-08-12T21:08:24.000Z</time>
        <extensions>
          <ns3:TrackPointExtension>
            <ns3:atemp>18.0</ns3:atemp>
            <ns3:hr>125</ns3:hr>
          </ns3:TrackPointExtension>
        </extensions>
      </trkpt>
      <trkpt lat="-22.0112627930939197540283203125" lon="166.450177766382694244384765625">
        <ele>878</ele>
        <time>2016-08-12T21:08:25.000Z</time>
        <extensions>
          <ns3:TrackPointExtension>
            <ns3:atemp>18.0</ns3:atemp>
            <ns3:hr>125</ns3:hr>
          </ns3:TrackPointExtension>
        </extensions>
      </trkpt>
      <trkpt lat="-22.01129145920276641845703125" lon="166.45018388517200946807861328125">
        <ele>878</ele>
        <time>2016-08-12T21:08:26.000Z</time>
        <extensions>
          <ns3:TrackPointExtension>
            <ns3:atemp>18.0</ns3:atemp>
            <ns3:hr>125</ns3:hr>
          </ns3:TrackPointExtension>
        </extensions>
      </trkpt>
      <trkpt lat="-22.0113127492368221282958984375" lon="166.45019226707518100738525390625">
        <ele>878</ele>
        <time>2016-08-12T21:08:27.000Z</time>
        <extensions>
          <ns3:TrackPointExtension>
            <ns3:atemp>18.0</ns3:atemp>
            <ns3:hr>125</ns3:hr>
          </ns3:TrackPointExtension>
        </extensions>
      </trkpt>
      <trkpt lat="-22.01133462600409984588623046875" lon="166.45019444637000560760498046875">
        <ele>877.79998779296875</ele>
        <time>2016-08-12T21:08:28.000Z</time>
        <extensions>
          <ns3:TrackPointExtension>
            <ns3:atemp>18.0</ns3:atemp>
            <ns3:hr>126</ns3:hr>
          </ns3:TrackPointExtension>
        </extensions>
      </trkpt>
      <trkpt lat="-22.0113583467900753021240234375" lon="166.4501923508942127227783203125">
        <ele>878</ele>
        <time>2016-08-12T21:08:29.000Z</time>
        <extensions>
          <ns3:TrackPointExtension>
            <ns3:atemp>18.0</ns3:atemp>
            <ns3:hr>126</ns3:hr>
          </ns3:TrackPointExtension>
        </extensions>
      </trkpt>
      <trkpt lat="-22.01138022355735301971435546875" lon="166.4501876570284366607666015625">
        <ele>877.79998779296875</ele>
        <time>2016-08-12T21:08:30.000Z</time>
        <extensions>
          <ns3:TrackPointExtension>
            <ns3:atemp>18.0</ns3:atemp>
            <ns3:hr>127</ns3:hr>
          </ns3:TrackPointExtension>
        </extensions>
      </trkpt>
      <trkpt lat="-22.01140151359140872955322265625" lon="166.4501789398491382598876953125">
        <ele>877.5999755859375</ele>
        <time>2016-08-12T21:08:31.000Z</time>
        <extensions>
          <ns3:TrackPointExtension>
            <ns3:atemp>18.0</ns3:atemp>
            <ns3:hr>127</ns3:hr>
          </ns3:TrackPointExtension>
        </extensions>
      </trkpt>
      <trkpt lat="-22.01142330653965473175048828125" lon="166.450165696442127227783203125">
        <ele>877.5999755859375</ele>
        <time>2016-08-12T21:08:32.000Z</time>
        <extensions>
          <ns3:TrackPointExtension>
            <ns3:atemp>18.0</ns3:atemp>
            <ns3:hr>127</ns3:hr>
          </ns3:TrackPointExtension>
        </extensions>
      </trkpt>
      <trkpt lat="-22.0114421658217906951904296875" lon="166.45015136338770389556884765625">
        <ele>877.5999755859375</ele>
        <time>2016-08-12T21:08:33.000Z</time>
        <extensions>
          <ns3:TrackPointExtension>
            <ns3:atemp>18.0</ns3:atemp>
            <ns3:hr>127</ns3:hr>
          </ns3:TrackPointExtension>
        </extensions>
      </trkpt>
      <trkpt lat="-22.011462785303592681884765625" lon="166.45013795234262943267822265625">
        <ele>877.4000244140625</ele>
        <time>2016-08-12T21:08:34.000Z</time>
        <extensions>
          <ns3:TrackPointExtension>
            <ns3:atemp>18.0</ns3:atemp>
            <ns3:hr>127</ns3:hr>
          </ns3:TrackPointExtension>
        </extensions>
      </trkpt>
      <trkpt lat="-22.0114825665950775146484375" lon="166.45012403838336467742919921875">
        <ele>877.20001220703125</ele>
        <time>2016-08-12T21:08:35.000Z</time>
        <extensions>
          <ns3:TrackPointExtension>
            <ns3:atemp>18.0</ns3:atemp>
            <ns3:hr>127</ns3:hr>
          </ns3:TrackPointExtension>
        </extensions>
      </trkpt>
      <trkpt lat="-22.01150226406753063201904296875" lon="166.45010962150990962982177734375">
        <ele>877</ele>
        <time>2016-08-12T21:08:36.000Z</time>
        <extensions>
          <ns3:TrackPointExtension>
            <ns3:atemp>18.0</ns3:atemp>
            <ns3:hr>127</ns3:hr>
          </ns3:TrackPointExtension>
        </extensions>
      </trkpt>
      <trkpt lat="-22.01152372173964977264404296875" lon="166.450096629559993743896484375">
        <ele>876.79998779296875</ele>
        <time>2016-08-12T21:08:37.000Z</time>
        <extensions>
          <ns3:TrackPointExtension>
            <ns3:atemp>18.0</ns3:atemp>
            <ns3:hr>127</ns3:hr>
          </ns3:TrackPointExtension>
        </extensions>
      </trkpt>
      <trkpt lat="-22.0115442574024200439453125" lon="166.45007927902042865753173828125">
        <ele>876.5999755859375</ele>
        <time>2016-08-12T21:08:38.000Z</time>
        <extensions>
          <ns3:TrackPointExtension>
            <ns3:atemp>18.0</ns3:atemp>
            <ns3:hr>128</ns3:hr>
          </ns3:TrackPointExtension>
        </extensions>
      </trkpt>
      <trkpt lat="-22.0115630328655242919921875" lon="166.45006033591926097869873046875">
        <ele>876.4000244140625</ele>
        <time>2016-08-12T21:08:39.000Z</time>
        <extensions>
          <ns3:TrackPointExtension>
            <ns3:atemp>18.0</ns3:atemp>
            <ns3:hr>128</ns3:hr>
          </ns3:TrackPointExtension>
        </extensions>
      </trkpt>
      <trkpt lat="-22.0115756057202816009521484375" lon="166.45004072226583957672119140625">
        <ele>876.4000244140625</ele>
        <time>2016-08-12T21:08:40.000Z</time>
        <extensions>
          <ns3:TrackPointExtension>
            <ns3:atemp>18.0</ns3:atemp>
            <ns3:hr>127</ns3:hr>
          </ns3:TrackPointExtension>
        </extensions>
      </trkpt>
      <trkpt lat="-22.01158516108989715576171875" lon="166.4500123076140880584716796875">
        <ele>876</ele>
        <time>2016-08-12T21:08:41.000Z</time>
        <extensions>
          <ns3:TrackPointExtension>
            <ns3:atemp>18.0</ns3:atemp>
            <ns3:hr>128</ns3:hr>
          </ns3:TrackPointExtension>
        </extensions>
      </trkpt>
      <trkpt lat="-22.0115916989743709564208984375" lon="166.44998707808554172515869140625">
        <ele>875.79998779296875</ele>
        <time>2016-08-12T21:08:42.000Z</time>
        <extensions>
          <ns3:TrackPointExtension>
            <ns3:atemp>18.0</ns3:atemp>
            <ns3:hr>128</ns3:hr>
          </ns3:TrackPointExtension>
        </extensions>
      </trkpt>
      <trkpt lat="-22.011606283485889434814453125" lon="166.4499668776988983154296875">
        <ele>875.5999755859375</ele>
        <time>2016-08-12T21:08:43.000Z</time>
        <extensions>
          <ns3:TrackPointExtension>
            <ns3:atemp>18.0</ns3:atemp>
            <ns3:hr>128</ns3:hr>
          </ns3:TrackPointExtension>
        </extensions>
      </trkpt>
      <trkpt lat="-22.01162849552929401397705078125" lon="166.449951119720935821533203125">
        <ele>875.4000244140625</ele>
        <time>2016-08-12T21:08:44.000Z</time>
        <extensions>
          <ns3:TrackPointExtension>
            <ns3:atemp>18.0</ns3:atemp>
            <ns3:hr>128</ns3:hr>
          </ns3:TrackPointExtension>
        </extensions>
      </trkpt>
      <trkpt lat="-22.0116486959159374237060546875" lon="166.449938379228115081787109375">
        <ele>875.20001220703125</ele>
        <time>2016-08-12T21:08:45.000Z</time>
        <extensions>
          <ns3:TrackPointExtension>
            <ns3:atemp>18.0</ns3:atemp>
            <ns3:hr>128</ns3:hr>
          </ns3:TrackPointExtension>
        </extensions>
      </trkpt>
      <trkpt lat="-22.01167233288288116455078125" lon="166.44992605783045291900634765625">
        <ele>874.79998779296875</ele>
        <time>2016-08-12T21:08:46.000Z</time>
        <extensions>
          <ns3:TrackPointExtension>
            <ns3:atemp>18.0</ns3:atemp>
            <ns3:hr>128</ns3:hr>
          </ns3:TrackPointExtension>
        </extensions>
      </trkpt>
      <trkpt lat="-22.01169672422111034393310546875" lon="166.44991314969956874847412109375">
        <ele>874.5999755859375</ele>
        <time>2016-08-12T21:08:47.000Z</time>
        <extensions>
          <ns3:TrackPointExtension>
            <ns3:atemp>18.0</ns3:atemp>
            <ns3:hr>128</ns3:hr>
          </ns3:TrackPointExtension>
        </extensions>
      </trkpt>
      <trkpt lat="-22.01171969063580036163330078125" lon="166.4499030075967311859130859375">
        <ele>874.20001220703125</ele>
        <time>2016-08-12T21:08:48.000Z</time>
        <extensions>
          <ns3:TrackPointExtension>
            <ns3:atemp>18.0</ns3:atemp>
            <ns3:hr>128</ns3:hr>
          </ns3:TrackPointExtension>
        </extensions>
      </trkpt>
      <trkpt lat="-22.011741735041141510009765625" lon="166.44989403896033763885498046875">
        <ele>873.79998779296875</ele>
        <time>2016-08-12T21:08:49.000Z</time>
        <extensions>
          <ns3:TrackPointExtension>
            <ns3:atemp>18.0</ns3:atemp>
            <ns3:hr>129</ns3:hr>
          </ns3:TrackPointExtension>
        </extensions>
      </trkpt>
      <trkpt lat="-22.01176679693162441253662109375" lon="166.44988448359072208404541015625">
        <ele>873.5999755859375</ele>
        <time>2016-08-12T21:08:50.000Z</time>
        <extensions>
          <ns3:TrackPointExtension>
            <ns3:atemp>18.0</ns3:atemp>
            <ns3:hr>129</ns3:hr>
          </ns3:TrackPointExtension>
        </extensions>
      </trkpt>
      <trkpt lat="-22.01178926043212413787841796875" lon="166.4498748444020748138427734375">
        <ele>873.20001220703125</ele>
        <time>2016-08-12T21:08:51.000Z</time>
        <extensions>
          <ns3:TrackPointExtension>
            <ns3:atemp>18.0</ns3:atemp>
            <ns3:hr>129</ns3:hr>
          </ns3:TrackPointExtension>
        </extensions>
      </trkpt>
      <trkpt lat="-22.01180786825716495513916015625" lon="166.44986520521342754364013671875">
        <ele>872.79998779296875</ele>
        <time>2016-08-12T21:08:52.000Z</time>
        <extensions>
          <ns3:TrackPointExtension>
            <ns3:atemp>18.0</ns3:atemp>
            <ns3:hr>129</ns3:hr>
          </ns3:TrackPointExtension>
        </extensions>
      </trkpt>
      <trkpt lat="-22.011825554072856903076171875" lon="166.449852883815765380859375">
        <ele>872.5999755859375</ele>
        <time>2016-08-12T21:08:53.000Z</time>
        <extensions>
          <ns3:TrackPointExtension>
            <ns3:atemp>18.0</ns3:atemp>
            <ns3:hr>129</ns3:hr>
          </ns3:TrackPointExtension>
        </extensions>
      </trkpt>
      <trkpt lat="-22.0118438266217708587646484375" lon="166.44984207116067409515380859375">
        <ele>872.20001220703125</ele>
        <time>2016-08-12T21:08:54.000Z</time>
        <extensions>
          <ns3:TrackPointExtension>
            <ns3:atemp>18.0</ns3:atemp>
            <ns3:hr>129</ns3:hr>
          </ns3:TrackPointExtension>
        </extensions>
      </trkpt>
      <trkpt lat="-22.01186067424714565277099609375" lon="166.4498325996100902557373046875">
        <ele>871.79998779296875</ele>
        <time>2016-08-12T21:08:55.000Z</time>
        <extensions>
          <ns3:TrackPointExtension>
            <ns3:atemp>18.0</ns3:atemp>
            <ns3:hr>129</ns3:hr>
          </ns3:TrackPointExtension>
        </extensions>
      </trkpt>
      <trkpt lat="-22.011878527700901031494140625" lon="166.4498275704681873321533203125">
        <ele>871.5999755859375</ele>
        <time>2016-08-12T21:08:56.000Z</time>
        <extensions>
          <ns3:TrackPointExtension>
            <ns3:atemp>18.0</ns3:atemp>
            <ns3:hr>128</ns3:hr>
          </ns3:TrackPointExtension>
        </extensions>
      </trkpt>
      <trkpt lat="-22.0119014941155910491943359375" lon="166.4498222060501575469970703125">
        <ele>871.4000244140625</ele>
        <time>2016-08-12T21:08:57.000Z</time>
        <extensions>
          <ns3:TrackPointExtension>
            <ns3:atemp>18.0</ns3:atemp>
            <ns3:hr>128</ns3:hr>
          </ns3:TrackPointExtension>
        </extensions>
      </trkpt>
      <trkpt lat="-22.01192152686417102813720703125" lon="166.4498138241469860076904296875">
        <ele>871.20001220703125</ele>
        <time>2016-08-12T21:08:58.000Z</time>
        <extensions>
          <ns3:TrackPointExtension>
            <ns3:atemp>18.0</ns3:atemp>
            <ns3:hr>128</ns3:hr>
          </ns3:TrackPointExtension>
        </extensions>
      </trkpt>
      <trkpt lat="-22.01194181106984615325927734375" lon="166.44979865290224552154541015625">
        <ele>870.79998779296875</ele>
        <time>2016-08-12T21:08:59.000Z</time>
        <extensions>
          <ns3:TrackPointExtension>
            <ns3:atemp>18.0</ns3:atemp>
            <ns3:hr>129</ns3:hr>
          </ns3:TrackPointExtension>
        </extensions>
      </trkpt>
      <trkpt lat="-22.01195958070456981658935546875" lon="166.44977903924882411956787109375">
        <ele>870.4000244140625</ele>
        <time>2016-08-12T21:09:00.000Z</time>
        <extensions>
          <ns3:TrackPointExtension>
            <ns3:atemp>18.0</ns3:atemp>
            <ns3:hr>129</ns3:hr>
          </ns3:TrackPointExtension>
        </extensions>
      </trkpt>
      <trkpt lat="-22.01197676360607147216796875" lon="166.4497608505189418792724609375">
        <ele>870</ele>
        <time>2016-08-12T21:09:01.000Z</time>
        <extensions>
          <ns3:TrackPointExtension>
            <ns3:atemp>18.0</ns3:atemp>
            <ns3:hr>129</ns3:hr>
          </ns3:TrackPointExtension>
        </extensions>
      </trkpt>
      <trkpt lat="-22.01199361123144626617431640625" lon="166.4497427456080913543701171875">
        <ele>869.5999755859375</ele>
        <time>2016-08-12T21:09:02.000Z</time>
        <extensions>
          <ns3:TrackPointExtension>
            <ns3:atemp>18.0</ns3:atemp>
            <ns3:hr>128</ns3:hr>
          </ns3:TrackPointExtension>
        </extensions>
      </trkpt>
      <trkpt lat="-22.0120101235806941986083984375" lon="166.44972078502178192138671875">
        <ele>869.4000244140625</ele>
        <time>2016-08-12T21:09:03.000Z</time>
        <extensions>
          <ns3:TrackPointExtension>
            <ns3:atemp>18.0</ns3:atemp>
            <ns3:hr>128</ns3:hr>
          </ns3:TrackPointExtension>
        </extensions>
      </trkpt>
      <trkpt lat="-22.01202898286283016204833984375" lon="166.44969739951193332672119140625">
        <ele>868.79998779296875</ele>
        <time>2016-08-12T21:09:04.000Z</time>
        <extensions>
          <ns3:TrackPointExtension>
            <ns3:atemp>18.0</ns3:atemp>
            <ns3:hr>129</ns3:hr>
          </ns3:TrackPointExtension>
        </extensions>
      </trkpt>
      <trkpt lat="-22.0120436511933803558349609375" lon="166.44967250525951385498046875">
        <ele>868.4000244140625</ele>
        <time>2016-08-12T21:09:05.000Z</time>
        <extensions>
          <ns3:TrackPointExtension>
            <ns3:atemp>18.0</ns3:atemp>
            <ns3:hr>129</ns3:hr>
          </ns3:TrackPointExtension>
        </extensions>
      </trkpt>
      <trkpt lat="-22.01205312274396419525146484375" lon="166.4496435038745403289794921875">
        <ele>868</ele>
        <time>2016-08-12T21:09:06.000Z</time>
        <extensions>
          <ns3:TrackPointExtension>
            <ns3:atemp>18.0</ns3:atemp>
            <ns3:hr>128</ns3:hr>
          </ns3:TrackPointExtension>
        </extensions>
      </trkpt>
      <trkpt lat="-22.01206150464713573455810546875" lon="166.44961751997470855712890625">
        <ele>867.5999755859375</ele>
        <time>2016-08-12T21:09:07.000Z</time>
        <extensions>
          <ns3:TrackPointExtension>
            <ns3:atemp>18.0</ns3:atemp>
            <ns3:hr>128</ns3:hr>
          </ns3:TrackPointExtension>
        </extensions>
      </trkpt>
      <trkpt lat="-22.01207206584513187408447265625" lon="166.4495905302464962005615234375">
        <ele>867.4000244140625</ele>
        <time>2016-08-12T21:09:08.000Z</time>
        <extensions>
          <ns3:TrackPointExtension>
            <ns3:atemp>18.0</ns3:atemp>
            <ns3:hr>128</ns3:hr>
          </ns3:TrackPointExtension>
        </extensions>
      </trkpt>
      <trkpt lat="-22.01208597980439662933349609375" lon="166.44956312142312526702880859375">
        <ele>867</ele>
        <time>2016-08-12T21:09:09.000Z</time>
        <extensions>
          <ns3:TrackPointExtension>
            <ns3:atemp>18.0</ns3:atemp>
            <ns3:hr>128</ns3:hr>
          </ns3:TrackPointExtension>
        </extensions>
      </trkpt>
      <trkpt lat="-22.01209788210690021514892578125" lon="166.44953747279942035675048828125">
        <ele>866.79998779296875</ele>
        <time>2016-08-12T21:09:10.000Z</time>
        <extensions>
          <ns3:TrackPointExtension>
            <ns3:atemp>18.0</ns3:atemp>
            <ns3:hr>128</ns3:hr>
          </ns3:TrackPointExtension>
        </extensions>
      </trkpt>
      <trkpt lat="-22.012109197676181793212890625" lon="166.44951283000409603118896484375">
        <ele>866.79998779296875</ele>
        <time>2016-08-12T21:09:11.000Z</time>
        <extensions>
          <ns3:TrackPointExtension>
            <ns3:atemp>18.0</ns3:atemp>
            <ns3:hr>128</ns3:hr>
          </ns3:TrackPointExtension>
        </extensions>
      </trkpt>
      <trkpt lat="-22.0121167413890361785888671875" lon="166.4494869299232959747314453125">
        <ele>866.4000244140625</ele>
        <time>2016-08-12T21:09:12.000Z</time>
        <extensions>
          <ns3:TrackPointExtension>
            <ns3:atemp>18.0</ns3:atemp>
            <ns3:hr>128</ns3:hr>
          </ns3:TrackPointExtension>
        </extensions>
      </trkpt>
      <trkpt lat="-22.012121938169002532958984375" lon="166.44946002401411533355712890625">
        <ele>865.79998779296875</ele>
        <time>2016-08-12T21:09:13.000Z</time>
        <extensions>
          <ns3:TrackPointExtension>
            <ns3:atemp>18.0</ns3:atemp>
            <ns3:hr>128</ns3:hr>
          </ns3:TrackPointExtension>
        </extensions>
      </trkpt>
      <trkpt lat="-22.01212839223444461822509765625" lon="166.4494349621236324310302734375">
        <ele>865.79998779296875</ele>
        <time>2016-08-12T21:09:14.000Z</time>
        <extensions>
          <ns3:TrackPointExtension>
            <ns3:atemp>18.0</ns3:atemp>
            <ns3:hr>128</ns3:hr>
          </ns3:TrackPointExtension>
        </extensions>
      </trkpt>
      <trkpt lat="-22.01214146800339221954345703125" lon="166.449411995708942413330078125">
        <ele>865.5999755859375</ele>
        <time>2016-08-12T21:09:15.000Z</time>
        <extensions>
          <ns3:TrackPointExtension>
            <ns3:atemp>18.0</ns3:atemp>
            <ns3:hr>128</ns3:hr>
          </ns3:TrackPointExtension>
        </extensions>
      </trkpt>
      <trkpt lat="-22.012156136333942413330078125" lon="166.4493896998465061187744140625">
        <ele>865.4000244140625</ele>
        <time>2016-08-12T21:09:16.000Z</time>
        <extensions>
          <ns3:TrackPointExtension>
            <ns3:atemp>18.0</ns3:atemp>
            <ns3:hr>128</ns3:hr>
          </ns3:TrackPointExtension>
        </extensions>
      </trkpt>
      <trkpt lat="-22.01216979883611202239990234375" lon="166.44936715252697467803955078125">
        <ele>864.79998779296875</ele>
        <time>2016-08-12T21:09:17.000Z</time>
        <extensions>
          <ns3:TrackPointExtension>
            <ns3:atemp>18.0</ns3:atemp>
            <ns3:hr>128</ns3:hr>
          </ns3:TrackPointExtension>
        </extensions>
      </trkpt>
      <trkpt lat="-22.01218589209020137786865234375" lon="166.449346281588077545166015625">
        <ele>864.4000244140625</ele>
        <time>2016-08-12T21:09:18.000Z</time>
        <extensions>
          <ns3:TrackPointExtension>
            <ns3:atemp>18.0</ns3:atemp>
            <ns3:hr>127</ns3:hr>
          </ns3:TrackPointExtension>
        </extensions>
      </trkpt>
      <trkpt lat="-22.0122052542865276336669921875" lon="166.44932876341044902801513671875">
        <ele>864.20001220703125</ele>
        <time>2016-08-12T21:09:19.000Z</time>
        <extensions>
          <ns3:TrackPointExtension>
            <ns3:atemp>18.0</ns3:atemp>
            <ns3:hr>127</ns3:hr>
          </ns3:TrackPointExtension>
        </extensions>
      </trkpt>
      <trkpt lat="-22.01222889125347137451171875" lon="166.4493125863373279571533203125">
        <ele>864.20001220703125</ele>
        <time>2016-08-12T21:09:20.000Z</time>
        <extensions>
          <ns3:TrackPointExtension>
            <ns3:atemp>18.0</ns3:atemp>
            <ns3:hr>127</ns3:hr>
          </ns3:TrackPointExtension>
        </extensions>
      </trkpt>
      <trkpt lat="-22.01224909164011478424072265625" lon="166.44929825328290462493896484375">
        <ele>864.20001220703125</ele>
        <time>2016-08-12T21:09:21.000Z</time>
        <extensions>
          <ns3:TrackPointExtension>
            <ns3:atemp>18.0</ns3:atemp>
            <ns3:hr>127</ns3:hr>
          </ns3:TrackPointExtension>
        </extensions>
      </trkpt>
      <trkpt lat="-22.0122679509222507476806640625" lon="166.4492904581129550933837890625">
        <ele>864</ele>
        <time>2016-08-12T21:09:22.000Z</time>
        <extensions>
          <ns3:TrackPointExtension>
            <ns3:atemp>18.0</ns3:atemp>
            <ns3:hr>127</ns3:hr>
          </ns3:TrackPointExtension>
        </extensions>
      </trkpt>
      <trkpt lat="-22.012288905680179595947265625" lon="166.44928232766687870025634765625">
        <ele>863.79998779296875</ele>
        <time>2016-08-12T21:09:23.000Z</time>
        <extensions>
          <ns3:TrackPointExtension>
            <ns3:atemp>18.0</ns3:atemp>
            <ns3:hr>126</ns3:hr>
          </ns3:TrackPointExtension>
        </extensions>
      </trkpt>
      <trkpt lat="-22.01231069862842559814453125" lon="166.44927327521145343780517578125">
        <ele>863.5999755859375</ele>
        <time>2016-08-12T21:09:24.000Z</time>
        <extensions>
          <ns3:TrackPointExtension>
            <ns3:atemp>18.0</ns3:atemp>
            <ns3:hr>126</ns3:hr>
          </ns3:TrackPointExtension>
        </extensions>
      </trkpt>
      <trkpt lat="-22.0123296417295932769775390625" lon="166.44926615059375762939453125">
        <ele>863.20001220703125</ele>
        <time>2016-08-12T21:09:25.000Z</time>
        <extensions>
          <ns3:TrackPointExtension>
            <ns3:atemp>18.0</ns3:atemp>
            <ns3:hr>126</ns3:hr>
          </ns3:TrackPointExtension>
        </extensions>
      </trkpt>
      <trkpt lat="-22.01235151849687099456787109375" lon="166.44925969652831554412841796875">
        <ele>863.20001220703125</ele>
        <time>2016-08-12T21:09:26.000Z</time>
        <extensions>
          <ns3:TrackPointExtension>
            <ns3:atemp>18.0</ns3:atemp>
            <ns3:hr>126</ns3:hr>
          </ns3:TrackPointExtension>
        </extensions>
      </trkpt>
      <trkpt lat="-22.01237247325479984283447265625" lon="166.44925215281546115875244140625">
        <ele>862.79998779296875</ele>
        <time>2016-08-12T21:09:27.000Z</time>
        <extensions>
          <ns3:TrackPointExtension>
            <ns3:atemp>18.0</ns3:atemp>
            <ns3:hr>126</ns3:hr>
          </ns3:TrackPointExtension>
        </extensions>
      </trkpt>
      <trkpt lat="-22.01239560730755329132080078125" lon="166.44924603402614593505859375">
        <ele>862.4000244140625</ele>
        <time>2016-08-12T21:09:28.000Z</time>
        <extensions>
          <ns3:TrackPointExtension>
            <ns3:atemp>18.0</ns3:atemp>
            <ns3:hr>126</ns3:hr>
          </ns3:TrackPointExtension>
        </extensions>
      </trkpt>
      <trkpt lat="-22.01241957955062389373779296875" lon="166.449234969913959503173828125">
        <ele>862</ele>
        <time>2016-08-12T21:09:29.000Z</time>
        <extensions>
          <ns3:TrackPointExtension>
            <ns3:atemp>18.0</ns3:atemp>
            <ns3:hr>126</ns3:hr>
          </ns3:TrackPointExtension>
        </extensions>
      </trkpt>
      <trkpt lat="-22.012441121041774749755859375" lon="166.449222564697265625">
        <ele>861.79998779296875</ele>
        <time>2016-08-12T21:09:30.000Z</time>
        <extensions>
          <ns3:TrackPointExtension>
            <ns3:atemp>18.0</ns3:atemp>
            <ns3:hr>125</ns3:hr>
          </ns3:TrackPointExtension>
        </extensions>
      </trkpt>
      <trkpt lat="-22.01246098615229129791259765625" lon="166.449208818376064300537109375">
        <ele>861.20001220703125</ele>
        <time>2016-08-12T21:09:31.000Z</time>
        <extensions>
          <ns3:TrackPointExtension>
            <ns3:atemp>18.0</ns3:atemp>
            <ns3:hr>125</ns3:hr>
          </ns3:TrackPointExtension>
        </extensions>
      </trkpt>
      <trkpt lat="-22.01247875578701496124267578125" lon="166.44918836653232574462890625">
        <ele>860.79998779296875</ele>
        <time>2016-08-12T21:09:32.000Z</time>
        <extensions>
          <ns3:TrackPointExtension>
            <ns3:atemp>18.0</ns3:atemp>
            <ns3:hr>125</ns3:hr>
          </ns3:TrackPointExtension>
        </extensions>
      </trkpt>
      <trkpt lat="-22.012498117983341217041015625" lon="166.44916950725018978118896484375">
        <ele>860.4000244140625</ele>
        <time>2016-08-12T21:09:33.000Z</time>
        <extensions>
          <ns3:TrackPointExtension>
            <ns3:atemp>18.0</ns3:atemp>
            <ns3:hr>126</ns3:hr>
          </ns3:TrackPointExtension>
        </extensions>
      </trkpt>
      <trkpt lat="-22.01251714490354061126708984375" lon="166.44915492273867130279541015625">
        <ele>860.20001220703125</ele>
        <time>2016-08-12T21:09:34.000Z</time>
        <extensions>
          <ns3:TrackPointExtension>
            <ns3:atemp>18.0</ns3:atemp>
            <ns3:hr>125</ns3:hr>
          </ns3:TrackPointExtension>
        </extensions>
      </trkpt>
      <trkpt lat="-22.0125381834805011749267578125" lon="166.44914201460778713226318359375">
        <ele>860</ele>
        <time>2016-08-12T21:09:35.000Z</time>
        <extensions>
          <ns3:TrackPointExtension>
            <ns3:atemp>18.0</ns3:atemp>
            <ns3:hr>126</ns3:hr>
          </ns3:TrackPointExtension>
        </extensions>
      </trkpt>
      <trkpt lat="-22.0125576294958591461181640625" lon="166.449131034314632415771484375">
        <ele>859.79998779296875</ele>
        <time>2016-08-12T21:09:36.000Z</time>
        <extensions>
          <ns3:TrackPointExtension>
            <ns3:atemp>18.0</ns3:atemp>
            <ns3:hr>125</ns3:hr>
          </ns3:TrackPointExtension>
        </extensions>
      </trkpt>
      <trkpt lat="-22.01257917098701000213623046875" lon="166.4491214789450168609619140625">
        <ele>859.5999755859375</ele>
        <time>2016-08-12T21:09:37.000Z</time>
        <extensions>
          <ns3:TrackPointExtension>
            <ns3:atemp>18.0</ns3:atemp>
            <ns3:hr>125</ns3:hr>
          </ns3:TrackPointExtension>
        </extensions>
      </trkpt>
      <trkpt lat="-22.01260280795395374298095703125" lon="166.44911619834601879119873046875">
        <ele>859.4000244140625</ele>
        <time>2016-08-12T21:09:38.000Z</time>
        <extensions>
          <ns3:TrackPointExtension>
            <ns3:atemp>18.0</ns3:atemp>
            <ns3:hr>125</ns3:hr>
          </ns3:TrackPointExtension>
        </extensions>
      </trkpt>
      <trkpt lat="-22.01262141577899456024169921875" lon="166.44911385141313076019287109375">
        <ele>859.20001220703125</ele>
        <time>2016-08-12T21:09:39.000Z</time>
        <extensions>
          <ns3:TrackPointExtension>
            <ns3:atemp>18.0</ns3:atemp>
            <ns3:hr>125</ns3:hr>
          </ns3:TrackPointExtension>
        </extensions>
      </trkpt>
      <trkpt lat="-22.01264304108917713165283203125" lon="166.44911904819309711456298828125">
        <ele>859</ele>
        <time>2016-08-12T21:09:40.000Z</time>
        <extensions>
          <ns3:TrackPointExtension>
            <ns3:atemp>18.0</ns3:atemp>
            <ns3:hr>126</ns3:hr>
          </ns3:TrackPointExtension>
        </extensions>
      </trkpt>
      <trkpt lat="-22.01266483403742313385009765625" lon="166.44912860356271266937255859375">
        <ele>858.5999755859375</ele>
        <time>2016-08-12T21:09:41.000Z</time>
        <extensions>
          <ns3:TrackPointExtension>
            <ns3:atemp>18.0</ns3:atemp>
            <ns3:hr>125</ns3:hr>
          </ns3:TrackPointExtension>
        </extensions>
      </trkpt>
      <trkpt lat="-22.01268277131021022796630859375" lon="166.44913765601813793182373046875">
        <ele>858.4000244140625</ele>
        <time>2016-08-12T21:09:42.000Z</time>
        <extensions>
          <ns3:TrackPointExtension>
            <ns3:atemp>18.0</ns3:atemp>
            <ns3:hr>126</ns3:hr>
          </ns3:TrackPointExtension>
        </extensions>
      </trkpt>
      <trkpt lat="-22.01270171441137790679931640625" lon="166.449152491986751556396484375">
        <ele>858.4000244140625</ele>
        <time>2016-08-12T21:09:43.000Z</time>
        <extensions>
          <ns3:TrackPointExtension>
            <ns3:atemp>18.0</ns3:atemp>
            <ns3:hr>126</ns3:hr>
          </ns3:TrackPointExtension>
        </extensions>
      </trkpt>
      <trkpt lat="-22.0127105154097080230712890625" lon="166.44917084835469722747802734375">
        <ele>858</ele>
        <time>2016-08-12T21:09:44.000Z</time>
        <extensions>
          <ns3:TrackPointExtension>
            <ns3:atemp>18.0</ns3:atemp>
            <ns3:hr>126</ns3:hr>
          </ns3:TrackPointExtension>
        </extensions>
      </trkpt>
      <trkpt lat="-22.01271277852356433868408203125" lon="166.449189372360706329345703125">
        <ele>858</ele>
        <time>2016-08-12T21:09:45.000Z</time>
        <extensions>
          <ns3:TrackPointExtension>
            <ns3:atemp>18.0</ns3:atemp>
            <ns3:hr>126</ns3:hr>
          </ns3:TrackPointExtension>
        </extensions>
      </trkpt>
      <trkpt lat="-22.012706659734249114990234375" lon="166.44921024329960346221923828125">
        <ele>857.5999755859375</ele>
        <time>2016-08-12T21:09:46.000Z</time>
        <extensions>
          <ns3:TrackPointExtension>
            <ns3:atemp>18.0</ns3:atemp>
            <ns3:hr>125</ns3:hr>
          </ns3:TrackPointExtension>
        </extensions>
      </trkpt>
      <trkpt lat="-22.01269350014626979827880859375" lon="166.449231617152690887451171875">
        <ele>857.20001220703125</ele>
        <time>2016-08-12T21:09:47.000Z</time>
        <extensions>
          <ns3:TrackPointExtension>
            <ns3:atemp>18.0</ns3:atemp>
            <ns3:hr>125</ns3:hr>
          </ns3:TrackPointExtension>
        </extensions>
      </trkpt>
      <trkpt lat="-22.0126779936254024505615234375" lon="166.4492535777390003204345703125">
        <ele>857.5999755859375</ele>
        <time>2016-08-12T21:09:48.000Z</time>
        <extensions>
          <ns3:TrackPointExtension>
            <ns3:atemp>18.0</ns3:atemp>
            <ns3:hr>126</ns3:hr>
          </ns3:TrackPointExtension>
        </extensions>
      </trkpt>
      <trkpt lat="-22.0126652531325817108154296875" lon="166.449277214705944061279296875">
        <ele>857.5999755859375</ele>
        <time>2016-08-12T21:09:49.000Z</time>
        <extensions>
          <ns3:TrackPointExtension>
            <ns3:atemp>18.0</ns3:atemp>
            <ns3:hr>126</ns3:hr>
          </ns3:TrackPointExtension>
        </extensions>
      </trkpt>
      <trkpt lat="-22.01265058480203151702880859375" lon="166.44929674454033374786376953125">
        <ele>857.5999755859375</ele>
        <time>2016-08-12T21:09:50.000Z</time>
        <extensions>
          <ns3:TrackPointExtension>
            <ns3:atemp>18.0</ns3:atemp>
            <ns3:hr>126</ns3:hr>
          </ns3:TrackPointExtension>
        </extensions>
      </trkpt>
      <trkpt lat="-22.01263767667114734649658203125" lon="166.449314765632152557373046875">
        <ele>857.4000244140625</ele>
        <time>2016-08-12T21:09:51.000Z</time>
        <extensions>
          <ns3:TrackPointExtension>
            <ns3:atemp>18.0</ns3:atemp>
            <ns3:hr>126</ns3:hr>
          </ns3:TrackPointExtension>
        </extensions>
      </trkpt>
      <trkpt lat="-22.012622840702533721923828125" lon="166.44933588802814483642578125">
        <ele>857.4000244140625</ele>
        <time>2016-08-12T21:09:52.000Z</time>
        <extensions>
          <ns3:TrackPointExtension>
            <ns3:atemp>18.0</ns3:atemp>
            <ns3:hr>126</ns3:hr>
          </ns3:TrackPointExtension>
        </extensions>
      </trkpt>
      <trkpt lat="-22.01260976493358612060546875" lon="166.4493561722338199615478515625">
        <ele>857.4000244140625</ele>
        <time>2016-08-12T21:09:53.000Z</time>
        <extensions>
          <ns3:TrackPointExtension>
            <ns3:atemp>18.0</ns3:atemp>
            <ns3:hr>126</ns3:hr>
          </ns3:TrackPointExtension>
        </extensions>
      </trkpt>
      <trkpt lat="-22.01259593479335308074951171875" lon="166.44937871955335140228271484375">
        <ele>857.4000244140625</ele>
        <time>2016-08-12T21:09:54.000Z</time>
        <extensions>
          <ns3:TrackPointExtension>
            <ns3:atemp>18.0</ns3:atemp>
            <ns3:hr>126</ns3:hr>
          </ns3:TrackPointExtension>
        </extensions>
      </trkpt>
      <trkpt lat="-22.01258604414761066436767578125" lon="166.44940436817705631256103515625">
        <ele>857.20001220703125</ele>
        <time>2016-08-12T21:09:55.000Z</time>
        <extensions>
          <ns3:TrackPointExtension>
            <ns3:atemp>18.0</ns3:atemp>
            <ns3:hr>126</ns3:hr>
          </ns3:TrackPointExtension>
        </extensions>
      </trkpt>
      <trkpt lat="-22.01257682405412197113037109375" lon="166.4494309388101100921630859375">
        <ele>857</ele>
        <time>2016-08-12T21:09:56.000Z</time>
        <extensions>
          <ns3:TrackPointExtension>
            <ns3:atemp>18.0</ns3:atemp>
            <ns3:hr>126</ns3:hr>
          </ns3:TrackPointExtension>
        </extensions>
      </trkpt>
      <trkpt lat="-22.012569196522235870361328125" lon="166.44945658743381500244140625">
        <ele>856.79998779296875</ele>
        <time>2016-08-12T21:09:57.000Z</time>
        <extensions>
          <ns3:TrackPointExtension>
            <ns3:atemp>18.0</ns3:atemp>
            <ns3:hr>126</ns3:hr>
          </ns3:TrackPointExtension>
        </extensions>
      </trkpt>
      <trkpt lat="-22.01256215572357177734375" lon="166.44948315806686878204345703125">
        <ele>856.5999755859375</ele>
        <time>2016-08-12T21:09:58.000Z</time>
        <extensions>
          <ns3:TrackPointExtension>
            <ns3:atemp>18.0</ns3:atemp>
            <ns3:hr>126</ns3:hr>
          </ns3:TrackPointExtension>
        </extensions>
      </trkpt>
      <trkpt lat="-22.0125527679920196533203125" lon="166.4495103992521762847900390625">
        <ele>856.4000244140625</ele>
        <time>2016-08-12T21:09:59.000Z</time>
        <extensions>
          <ns3:TrackPointExtension>
            <ns3:atemp>18.0</ns3:atemp>
            <ns3:hr>126</ns3:hr>
          </ns3:TrackPointExtension>
        </extensions>
      </trkpt>
      <trkpt lat="-22.01255251653492450714111328125" lon="166.4495388977229595184326171875">
        <ele>856.4000244140625</ele>
        <time>2016-08-12T21:10:00.000Z</time>
        <extensions>
          <ns3:TrackPointExtension>
            <ns3:atemp>18.0</ns3:atemp>
            <ns3:hr>127</ns3:hr>
          </ns3:TrackPointExtension>
        </extensions>
      </trkpt>
      <trkpt lat="-22.0125536061823368072509765625" lon="166.44956680946052074432373046875">
        <ele>856.4000244140625</ele>
        <time>2016-08-12T21:10:01.000Z</time>
        <extensions>
          <ns3:TrackPointExtension>
            <ns3:atemp>18.0</ns3:atemp>
            <ns3:hr>127</ns3:hr>
          </ns3:TrackPointExtension>
        </extensions>
      </trkpt>
      <trkpt lat="-22.01255612075328826904296875" lon="166.4495938830077648162841796875">
        <ele>856.20001220703125</ele>
        <time>2016-08-12T21:10:02.000Z</time>
        <extensions>
          <ns3:TrackPointExtension>
            <ns3:atemp>18.0</ns3:atemp>
            <ns3:hr>127</ns3:hr>
          </ns3:TrackPointExtension>
        </extensions>
      </trkpt>
      <trkpt lat="-22.01256374828517436981201171875" lon="166.44961995072662830352783203125">
        <ele>856.20001220703125</ele>
        <time>2016-08-12T21:10:03.000Z</time>
        <extensions>
          <ns3:TrackPointExtension>
            <ns3:atemp>18.0</ns3:atemp>
            <ns3:hr>127</ns3:hr>
          </ns3:TrackPointExtension>
        </extensions>
      </trkpt>
      <trkpt lat="-22.0125690288841724395751953125" lon="166.449646018445491790771484375">
        <ele>856.20001220703125</ele>
        <time>2016-08-12T21:10:04.000Z</time>
        <extensions>
          <ns3:TrackPointExtension>
            <ns3:atemp>18.0</ns3:atemp>
            <ns3:hr>128</ns3:hr>
          </ns3:TrackPointExtension>
        </extensions>
      </trkpt>
      <trkpt lat="-22.01257414184510707855224609375" lon="166.44967116415500640869140625">
        <ele>856</ele>
        <time>2016-08-12T21:10:05.000Z</time>
        <extensions>
          <ns3:TrackPointExtension>
            <ns3:atemp>18.0</ns3:atemp>
            <ns3:hr>128</ns3:hr>
          </ns3:TrackPointExtension>
        </extensions>
      </trkpt>
      <trkpt lat="-22.0125804282724857330322265625" lon="166.44969957880675792694091796875">
        <ele>855.79998779296875</ele>
        <time>2016-08-12T21:10:06.000Z</time>
        <extensions>
          <ns3:TrackPointExtension>
            <ns3:atemp>18.0</ns3:atemp>
            <ns3:hr>128</ns3:hr>
          </ns3:TrackPointExtension>
        </extensions>
      </trkpt>
      <trkpt lat="-22.01258420012891292572021484375" lon="166.44972841255366802215576171875">
        <ele>856</ele>
        <time>2016-08-12T21:10:07.000Z</time>
        <extensions>
          <ns3:TrackPointExtension>
            <ns3:atemp>18.0</ns3:atemp>
            <ns3:hr>128</ns3:hr>
          </ns3:TrackPointExtension>
        </extensions>
      </trkpt>
      <trkpt lat="-22.01259241439402103424072265625" lon="166.4497554861009120941162109375">
        <ele>855.79998779296875</ele>
        <time>2016-08-12T21:10:08.000Z</time>
        <extensions>
          <ns3:TrackPointExtension>
            <ns3:atemp>18.0</ns3:atemp>
            <ns3:hr>128</ns3:hr>
          </ns3:TrackPointExtension>
        </extensions>
      </trkpt>
      <trkpt lat="-22.01260129921138286590576171875" lon="166.44978004507720470428466796875">
        <ele>855.4000244140625</ele>
        <time>2016-08-12T21:10:09.000Z</time>
        <extensions>
          <ns3:TrackPointExtension>
            <ns3:atemp>18.0</ns3:atemp>
            <ns3:hr>128</ns3:hr>
          </ns3:TrackPointExtension>
        </extensions>
      </trkpt>
      <trkpt lat="-22.01260842382907867431640625" lon="166.44980217330157756805419921875">
        <ele>855.4000244140625</ele>
        <time>2016-08-12T21:10:10.000Z</time>
        <extensions>
          <ns3:TrackPointExtension>
            <ns3:atemp>18.0</ns3:atemp>
            <ns3:hr>129</ns3:hr>
          </ns3:TrackPointExtension>
        </extensions>
      </trkpt>
      <trkpt lat="-22.0126156322658061981201171875" lon="166.4498282410204410552978515625">
        <ele>855.5999755859375</ele>
        <time>2016-08-12T21:10:11.000Z</time>
        <extensions>
          <ns3:TrackPointExtension>
            <ns3:atemp>18.0</ns3:atemp>
            <ns3:hr>129</ns3:hr>
          </ns3:TrackPointExtension>
        </extensions>
      </trkpt>
      <trkpt lat="-22.01262108050286769866943359375" lon="166.4498542249202728271484375">
        <ele>855.5999755859375</ele>
        <time>2016-08-12T21:10:12.000Z</time>
        <extensions>
          <ns3:TrackPointExtension>
            <ns3:atemp>18.0</ns3:atemp>
            <ns3:hr>129</ns3:hr>
          </ns3:TrackPointExtension>
        </extensions>
      </trkpt>
      <trkpt lat="-22.01262644492089748382568359375" lon="166.44988096319139003753662109375">
        <ele>855.20001220703125</ele>
        <time>2016-08-12T21:10:13.000Z</time>
        <extensions>
          <ns3:TrackPointExtension>
            <ns3:atemp>18.0</ns3:atemp>
            <ns3:hr>130</ns3:hr>
          </ns3:TrackPointExtension>
        </extensions>
      </trkpt>
      <trkpt lat="-22.0126303844153881072998046875" lon="166.4499087072908878326416015625">
        <ele>855.20001220703125</ele>
        <time>2016-08-12T21:10:14.000Z</time>
        <extensions>
          <ns3:TrackPointExtension>
            <ns3:atemp>18.0</ns3:atemp>
            <ns3:hr>130</ns3:hr>
          </ns3:TrackPointExtension>
        </extensions>
      </trkpt>
      <trkpt lat="-22.01263256371021270751953125" lon="166.4499346911907196044921875">
        <ele>855.4000244140625</ele>
        <time>2016-08-12T21:10:15.000Z</time>
        <extensions>
          <ns3:TrackPointExtension>
            <ns3:atemp>18.0</ns3:atemp>
            <ns3:hr>131</ns3:hr>
          </ns3:TrackPointExtension>
        </extensions>
      </trkpt>
      <trkpt lat="-22.01263449154794216156005859375" lon="166.4499613456428050994873046875">
        <ele>855.20001220703125</ele>
        <time>2016-08-12T21:10:16.000Z</time>
        <extensions>
          <ns3:TrackPointExtension>
            <ns3:atemp>18.0</ns3:atemp>
            <ns3:hr>131</ns3:hr>
          </ns3:TrackPointExtension>
        </extensions>
      </trkpt>
      <trkpt lat="-22.01263415627181529998779296875" lon="166.44998774863779544830322265625">
        <ele>855</ele>
        <time>2016-08-12T21:10:17.000Z</time>
        <extensions>
          <ns3:TrackPointExtension>
            <ns3:atemp>18.0</ns3:atemp>
            <ns3:hr>131</ns3:hr>
          </ns3:TrackPointExtension>
        </extensions>
      </trkpt>
      <trkpt lat="-22.01262812130153179168701171875" lon="166.45001574419438838958740234375">
        <ele>855</ele>
        <time>2016-08-12T21:10:18.000Z</time>
        <extensions>
          <ns3:TrackPointExtension>
            <ns3:atemp>18.0</ns3:atemp>
            <ns3:hr>131</ns3:hr>
          </ns3:TrackPointExtension>
        </extensions>
      </trkpt>
      <trkpt lat="-22.0126179791986942291259765625" lon="166.45004038698971271514892578125">
        <ele>855.4000244140625</ele>
        <time>2016-08-12T21:10:19.000Z</time>
        <extensions>
          <ns3:TrackPointExtension>
            <ns3:atemp>18.0</ns3:atemp>
            <ns3:hr>131</ns3:hr>
          </ns3:TrackPointExtension>
        </extensions>
      </trkpt>
      <trkpt lat="-22.0126090943813323974609375" lon="166.450061090290546417236328125">
        <ele>855.5999755859375</ele>
        <time>2016-08-12T21:10:20.000Z</time>
        <extensions>
          <ns3:TrackPointExtension>
            <ns3:atemp>18.0</ns3:atemp>
            <ns3:hr>131</ns3:hr>
          </ns3:TrackPointExtension>
        </extensions>
      </trkpt>
      <trkpt lat="-22.01259710825979709625244140625" lon="166.45007978193461894989013671875">
        <ele>855.4000244140625</ele>
        <time>2016-08-12T21:10:21.000Z</time>
        <extensions>
          <ns3:TrackPointExtension>
            <ns3:atemp>18.0</ns3:atemp>
            <ns3:hr>131</ns3:hr>
          </ns3:TrackPointExtension>
        </extensions>
      </trkpt>
      <trkpt lat="-22.01258520595729351043701171875" lon="166.450098641216754913330078125">
        <ele>855.20001220703125</ele>
        <time>2016-08-12T21:10:22.000Z</time>
        <extensions>
          <ns3:TrackPointExtension>
            <ns3:atemp>18.0</ns3:atemp>
            <ns3:hr>132</ns3:hr>
          </ns3:TrackPointExtension>
        </extensions>
      </trkpt>
      <trkpt lat="-22.01257129199802875518798828125" lon="166.450118757784366607666015625">
        <ele>855.4000244140625</ele>
        <time>2016-08-12T21:10:23.000Z</time>
        <extensions>
          <ns3:TrackPointExtension>
            <ns3:atemp>18.0</ns3:atemp>
            <ns3:hr>132</ns3:hr>
          </ns3:TrackPointExtension>
        </extensions>
      </trkpt>
      <trkpt lat="-22.0125546120107173919677734375" lon="166.45013996399939060211181640625">
        <ele>855.5999755859375</ele>
        <time>2016-08-12T21:10:24.000Z</time>
        <extensions>
          <ns3:TrackPointExtension>
            <ns3:atemp>18.0</ns3:atemp>
            <ns3:hr>132</ns3:hr>
          </ns3:TrackPointExtension>
        </extensions>
      </trkpt>
      <trkpt lat="-22.01253868639469146728515625" lon="166.45015991292893886566162109375">
        <ele>855.20001220703125</ele>
        <time>2016-08-12T21:10:25.000Z</time>
        <extensions>
          <ns3:TrackPointExtension>
            <ns3:atemp>18.0</ns3:atemp>
            <ns3:hr>132</ns3:hr>
          </ns3:TrackPointExtension>
        </extensions>
      </trkpt>
      <trkpt lat="-22.01252301223576068878173828125" lon="166.45017835311591625213623046875">
        <ele>854.79998779296875</ele>
        <time>2016-08-12T21:10:26.000Z</time>
        <extensions>
          <ns3:TrackPointExtension>
            <ns3:atemp>18.0</ns3:atemp>
            <ns3:hr>132</ns3:hr>
          </ns3:TrackPointExtension>
        </extensions>
      </trkpt>
      <trkpt lat="-22.01251043938100337982177734375" lon="166.45019821822643280029296875">
        <ele>855</ele>
        <time>2016-08-12T21:10:27.000Z</time>
        <extensions>
          <ns3:TrackPointExtension>
            <ns3:atemp>18.0</ns3:atemp>
            <ns3:hr>132</ns3:hr>
          </ns3:TrackPointExtension>
        </extensions>
      </trkpt>
      <trkpt lat="-22.0124959386885166168212890625" lon="166.45021573640406131744384765625">
        <ele>855</ele>
        <time>2016-08-12T21:10:28.000Z</time>
        <extensions>
          <ns3:TrackPointExtension>
            <ns3:atemp>18.0</ns3:atemp>
            <ns3:hr>133</ns3:hr>
          </ns3:TrackPointExtension>
        </extensions>
      </trkpt>
      <trkpt lat="-22.012476660311222076416015625" lon="166.45023082382977008819580078125">
        <ele>854.79998779296875</ele>
        <time>2016-08-12T21:10:29.000Z</time>
        <extensions>
          <ns3:TrackPointExtension>
            <ns3:atemp>18.0</ns3:atemp>
            <ns3:hr>133</ns3:hr>
          </ns3:TrackPointExtension>
        </extensions>
      </trkpt>
      <trkpt lat="-22.01246232725679874420166015625" lon="166.45024725235998630523681640625">
        <ele>854.5999755859375</ele>
        <time>2016-08-12T21:10:30.000Z</time>
        <extensions>
          <ns3:TrackPointExtension>
            <ns3:atemp>18.0</ns3:atemp>
            <ns3:hr>133</ns3:hr>
          </ns3:TrackPointExtension>
        </extensions>
      </trkpt>
      <trkpt lat="-22.01244774274528026580810546875" lon="166.45026317797601222991943359375">
        <ele>854.5999755859375</ele>
        <time>2016-08-12T21:10:31.000Z</time>
        <extensions>
          <ns3:TrackPointExtension>
            <ns3:atemp>18.0</ns3:atemp>
            <ns3:hr>133</ns3:hr>
          </ns3:TrackPointExtension>
        </extensions>
      </trkpt>
      <trkpt lat="-22.01243164949119091033935546875" lon="166.45028262399137020111083984375">
        <ele>854.4000244140625</ele>
        <time>2016-08-12T21:10:32.000Z</time>
        <extensions>
          <ns3:TrackPointExtension>
            <ns3:atemp>18.0</ns3:atemp>
            <ns3:hr>133</ns3:hr>
          </ns3:TrackPointExtension>
        </extensions>
      </trkpt>
      <trkpt lat="-22.01241773553192615509033203125" lon="166.45030173473060131072998046875">
        <ele>854.20001220703125</ele>
        <time>2016-08-12T21:10:33.000Z</time>
        <extensions>
          <ns3:TrackPointExtension>
            <ns3:atemp>18.0</ns3:atemp>
            <ns3:hr>133</ns3:hr>
          </ns3:TrackPointExtension>
        </extensions>
      </trkpt>
      <trkpt lat="-22.01240281574428081512451171875" lon="166.45032562315464019775390625">
        <ele>854.20001220703125</ele>
        <time>2016-08-12T21:10:34.000Z</time>
        <extensions>
          <ns3:TrackPointExtension>
            <ns3:atemp>18.0</ns3:atemp>
            <ns3:hr>133</ns3:hr>
          </ns3:TrackPointExtension>
        </extensions>
      </trkpt>
      <trkpt lat="-22.01238990761339664459228515625" lon="166.4503522776067256927490234375">
        <ele>854</ele>
        <time>2016-08-12T21:10:35.000Z</time>
        <extensions>
          <ns3:TrackPointExtension>
            <ns3:atemp>18.0</ns3:atemp>
            <ns3:hr>133</ns3:hr>
          </ns3:TrackPointExtension>
        </extensions>
      </trkpt>
      <trkpt lat="-22.01237649656832218170166015625" lon="166.4503750763833522796630859375">
        <ele>854</ele>
        <time>2016-08-12T21:10:36.000Z</time>
        <extensions>
          <ns3:TrackPointExtension>
            <ns3:atemp>18.0</ns3:atemp>
            <ns3:hr>133</ns3:hr>
          </ns3:TrackPointExtension>
        </extensions>
      </trkpt>
      <trkpt lat="-22.01236342079937458038330078125" lon="166.4503978751599788665771484375">
        <ele>854</ele>
        <time>2016-08-12T21:10:37.000Z</time>
        <extensions>
          <ns3:TrackPointExtension>
            <ns3:atemp>18.0</ns3:atemp>
            <ns3:hr>133</ns3:hr>
          </ns3:TrackPointExtension>
        </extensions>
      </trkpt>
      <trkpt lat="-22.01235654763877391815185546875" lon="166.45042796619236469268798828125">
        <ele>853.79998779296875</ele>
        <time>2016-08-12T21:10:38.000Z</time>
        <extensions>
          <ns3:TrackPointExtension>
            <ns3:atemp>19.0</ns3:atemp>
            <ns3:hr>133</ns3:hr>
          </ns3:TrackPointExtension>
        </extensions>
      </trkpt>
      <trkpt lat="-22.01235218904912471771240234375" lon="166.45045227371156215667724609375">
        <ele>853.4000244140625</ele>
        <time>2016-08-12T21:10:39.000Z</time>
        <extensions>
          <ns3:TrackPointExtension>
            <ns3:atemp>19.0</ns3:atemp>
            <ns3:hr>133</ns3:hr>
          </ns3:TrackPointExtension>
        </extensions>
      </trkpt>
      <trkpt lat="-22.0123470760881900787353515625" lon="166.450479514896869659423828125">
        <ele>853.5999755859375</ele>
        <time>2016-08-12T21:10:40.000Z</time>
        <extensions>
          <ns3:TrackPointExtension>
            <ns3:atemp>19.0</ns3:atemp>
            <ns3:hr>134</ns3:hr>
          </ns3:TrackPointExtension>
        </extensions>
      </trkpt>
      <trkpt lat="-22.01234422624111175537109375" lon="166.45050533115863800048828125">
        <ele>853.5999755859375</ele>
        <time>2016-08-12T21:10:41.000Z</time>
        <extensions>
          <ns3:TrackPointExtension>
            <ns3:atemp>19.0</ns3:atemp>
            <ns3:hr>134</ns3:hr>
          </ns3:TrackPointExtension>
        </extensions>
      </trkpt>
      <trkpt lat="-22.01234464533627033233642578125" lon="166.45053240470588207244873046875">
        <ele>853.20001220703125</ele>
        <time>2016-08-12T21:10:42.000Z</time>
        <extensions>
          <ns3:TrackPointExtension>
            <ns3:atemp>19.0</ns3:atemp>
            <ns3:hr>134</ns3:hr>
          </ns3:TrackPointExtension>
        </extensions>
      </trkpt>
      <trkpt lat="-22.01234615407884120941162109375" lon="166.45056459121406078338623046875">
        <ele>853.20001220703125</ele>
        <time>2016-08-12T21:10:43.000Z</time>
        <extensions>
          <ns3:TrackPointExtension>
            <ns3:atemp>19.0</ns3:atemp>
            <ns3:hr>134</ns3:hr>
          </ns3:TrackPointExtension>
        </extensions>
      </trkpt>
      <trkpt lat="-22.01234766282141208648681640625" lon="166.45059040747582912445068359375">
        <ele>853</ele>
        <time>2016-08-12T21:10:44.000Z</time>
        <extensions>
          <ns3:TrackPointExtension>
            <ns3:atemp>19.0</ns3:atemp>
            <ns3:hr>134</ns3:hr>
          </ns3:TrackPointExtension>
        </extensions>
      </trkpt>
      <trkpt lat="-22.012351267039775848388671875" lon="166.4506151340901851654052734375">
        <ele>852.79998779296875</ele>
        <time>2016-08-12T21:10:45.000Z</time>
        <extensions>
          <ns3:TrackPointExtension>
            <ns3:atemp>19.0</ns3:atemp>
            <ns3:hr>134</ns3:hr>
          </ns3:TrackPointExtension>
        </extensions>
      </trkpt>
      <trkpt lat="-22.0123507641255855560302734375" lon="166.45064254291355609893798828125">
        <ele>852.79998779296875</ele>
        <time>2016-08-12T21:10:46.000Z</time>
        <extensions>
          <ns3:TrackPointExtension>
            <ns3:atemp>19.0</ns3:atemp>
            <ns3:hr>136</ns3:hr>
          </ns3:TrackPointExtension>
        </extensions>
      </trkpt>
      <trkpt lat="-22.01234866864979267120361328125" lon="166.45066760480403900146484375">
        <ele>852.79998779296875</ele>
        <time>2016-08-12T21:10:47.000Z</time>
        <extensions>
          <ns3:TrackPointExtension>
            <ns3:atemp>19.0</ns3:atemp>
            <ns3:hr>135</ns3:hr>
          </ns3:TrackPointExtension>
        </extensions>
      </trkpt>
      <trkpt lat="-22.0123497582972049713134765625" lon="166.45069434307515621185302734375">
        <ele>852.5999755859375</ele>
        <time>2016-08-12T21:10:48.000Z</time>
        <extensions>
          <ns3:TrackPointExtension>
            <ns3:atemp>19.0</ns3:atemp>
            <ns3:hr>135</ns3:hr>
          </ns3:TrackPointExtension>
        </extensions>
      </trkpt>
      <trkpt lat="-22.01235336251556873321533203125" lon="166.4507224224507808685302734375">
        <ele>852.4000244140625</ele>
        <time>2016-08-12T21:10:49.000Z</time>
        <extensions>
          <ns3:TrackPointExtension>
            <ns3:atemp>19.0</ns3:atemp>
            <ns3:hr>135</ns3:hr>
          </ns3:TrackPointExtension>
        </extensions>
      </trkpt>
      <trkpt lat="-22.01235688291490077972412109375" lon="166.45074614323675632476806640625">
        <ele>852.4000244140625</ele>
        <time>2016-08-12T21:10:50.000Z</time>
        <extensions>
          <ns3:TrackPointExtension>
            <ns3:atemp>19.0</ns3:atemp>
            <ns3:hr>135</ns3:hr>
          </ns3:TrackPointExtension>
        </extensions>
      </trkpt>
      <trkpt lat="-22.0123624987900257110595703125" lon="166.45077355206012725830078125">
        <ele>852.20001220703125</ele>
        <time>2016-08-12T21:10:51.000Z</time>
        <extensions>
          <ns3:TrackPointExtension>
            <ns3:atemp>19.0</ns3:atemp>
            <ns3:hr>135</ns3:hr>
          </ns3:TrackPointExtension>
        </extensions>
      </trkpt>
      <trkpt lat="-22.01236811466515064239501953125" lon="166.45079676993191242218017578125">
        <ele>852.20001220703125</ele>
        <time>2016-08-12T21:10:52.000Z</time>
        <extensions>
          <ns3:TrackPointExtension>
            <ns3:atemp>19.0</ns3:atemp>
            <ns3:hr>135</ns3:hr>
          </ns3:TrackPointExtension>
        </extensions>
      </trkpt>
      <trkpt lat="-22.01237129978835582733154296875" lon="166.4508226700127124786376953125">
        <ele>852.20001220703125</ele>
        <time>2016-08-12T21:10:53.000Z</time>
        <extensions>
          <ns3:TrackPointExtension>
            <ns3:atemp>19.0</ns3:atemp>
            <ns3:hr>135</ns3:hr>
          </ns3:TrackPointExtension>
        </extensions>
      </trkpt>
      <trkpt lat="-22.0123725570738315582275390625" lon="166.45085158757865428924560546875">
        <ele>852.20001220703125</ele>
        <time>2016-08-12T21:10:54.000Z</time>
        <extensions>
          <ns3:TrackPointExtension>
            <ns3:atemp>19.0</ns3:atemp>
            <ns3:hr>135</ns3:hr>
          </ns3:TrackPointExtension>
        </extensions>
      </trkpt>
      <trkpt lat="-22.0123784244060516357421875" lon="166.45087338052690029144287109375">
        <ele>852</ele>
        <time>2016-08-12T21:10:55.000Z</time>
        <extensions>
          <ns3:TrackPointExtension>
            <ns3:atemp>19.0</ns3:atemp>
            <ns3:hr>135</ns3:hr>
          </ns3:TrackPointExtension>
        </extensions>
      </trkpt>
      <trkpt lat="-22.0123829506337642669677734375" lon="166.45089886151254177093505859375">
        <ele>851.79998779296875</ele>
        <time>2016-08-12T21:10:56.000Z</time>
        <extensions>
          <ns3:TrackPointExtension>
            <ns3:atemp>19.0</ns3:atemp>
            <ns3:hr>135</ns3:hr>
          </ns3:TrackPointExtension>
        </extensions>
      </trkpt>
      <trkpt lat="-22.01238571666181087493896484375" lon="166.4509219117462635040283203125">
        <ele>852</ele>
        <time>2016-08-12T21:10:57.000Z</time>
        <extensions>
          <ns3:TrackPointExtension>
            <ns3:atemp>19.0</ns3:atemp>
            <ns3:hr>135</ns3:hr>
          </ns3:TrackPointExtension>
        </extensions>
      </trkpt>
      <trkpt lat="-22.0123795978724956512451171875" lon="166.45094521343708038330078125">
        <ele>852.20001220703125</ele>
        <time>2016-08-12T21:10:58.000Z</time>
        <extensions>
          <ns3:TrackPointExtension>
            <ns3:atemp>19.0</ns3:atemp>
            <ns3:hr>135</ns3:hr>
          </ns3:TrackPointExtension>
        </extensions>
      </trkpt>
      <trkpt lat="-22.01237146742641925811767578125" lon="166.450969018042087554931640625">
        <ele>852</ele>
        <time>2016-08-12T21:10:59.000Z</time>
        <extensions>
          <ns3:TrackPointExtension>
            <ns3:atemp>19.0</ns3:atemp>
            <ns3:hr>135</ns3:hr>
          </ns3:TrackPointExtension>
        </extensions>
      </trkpt>
      <trkpt lat="-22.0123671926558017730712890625" lon="166.45099106244742870330810546875">
        <ele>851.79998779296875</ele>
        <time>2016-08-12T21:11:00.000Z</time>
        <extensions>
          <ns3:TrackPointExtension>
            <ns3:atemp>19.0</ns3:atemp>
            <ns3:hr>134</ns3:hr>
          </ns3:TrackPointExtension>
        </extensions>
      </trkpt>
      <trkpt lat="-22.0123641751706600189208984375" lon="166.4510194770991802215576171875">
        <ele>851.79998779296875</ele>
        <time>2016-08-12T21:11:01.000Z</time>
        <extensions>
          <ns3:TrackPointExtension>
            <ns3:atemp>18.0</ns3:atemp>
            <ns3:hr>134</ns3:hr>
          </ns3:TrackPointExtension>
        </extensions>
      </trkpt>
      <trkpt lat="-22.0123658515512943267822265625" lon="166.451050825417041778564453125">
        <ele>852</ele>
        <time>2016-08-12T21:11:02.000Z</time>
        <extensions>
          <ns3:TrackPointExtension>
            <ns3:atemp>18.0</ns3:atemp>
            <ns3:hr>134</ns3:hr>
          </ns3:TrackPointExtension>
        </extensions>
      </trkpt>
      <trkpt lat="-22.0123705454170703887939453125" lon="166.45107689313590526580810546875">
        <ele>851.79998779296875</ele>
        <time>2016-08-12T21:11:03.000Z</time>
        <extensions>
          <ns3:TrackPointExtension>
            <ns3:atemp>18.0</ns3:atemp>
            <ns3:hr>134</ns3:hr>
          </ns3:TrackPointExtension>
        </extensions>
      </trkpt>
      <trkpt lat="-22.012371718883514404296875" lon="166.4511053077876567840576171875">
        <ele>852</ele>
        <time>2016-08-12T21:11:04.000Z</time>
        <extensions>
          <ns3:TrackPointExtension>
            <ns3:atemp>18.0</ns3:atemp>
            <ns3:hr>134</ns3:hr>
          </ns3:TrackPointExtension>
        </extensions>
      </trkpt>
      <trkpt lat="-22.012370713055133819580078125" lon="166.451133973896503448486328125">
        <ele>852.20001220703125</ele>
        <time>2016-08-12T21:11:05.000Z</time>
        <extensions>
          <ns3:TrackPointExtension>
            <ns3:atemp>18.0</ns3:atemp>
            <ns3:hr>134</ns3:hr>
          </ns3:TrackPointExtension>
        </extensions>
      </trkpt>
      <trkpt lat="-22.0123678632080554962158203125" lon="166.45116087980568408966064453125">
        <ele>852</ele>
        <time>2016-08-12T21:11:06.000Z</time>
        <extensions>
          <ns3:TrackPointExtension>
            <ns3:atemp>18.0</ns3:atemp>
            <ns3:hr>134</ns3:hr>
          </ns3:TrackPointExtension>
        </extensions>
      </trkpt>
      <trkpt lat="-22.01237129978835582733154296875" lon="166.45119088701903820037841796875">
        <ele>851.79998779296875</ele>
        <time>2016-08-12T21:11:07.000Z</time>
        <extensions>
          <ns3:TrackPointExtension>
            <ns3:atemp>18.0</ns3:atemp>
            <ns3:hr>134</ns3:hr>
          </ns3:TrackPointExtension>
        </extensions>
      </trkpt>
      <trkpt lat="-22.0123712159693241119384765625" lon="166.4512203074991703033447265625">
        <ele>852</ele>
        <time>2016-08-12T21:11:08.000Z</time>
        <extensions>
          <ns3:TrackPointExtension>
            <ns3:atemp>18.0</ns3:atemp>
            <ns3:hr>134</ns3:hr>
          </ns3:TrackPointExtension>
        </extensions>
      </trkpt>
      <trkpt lat="-22.0123725570738315582275390625" lon="166.4512454532086849212646484375">
        <ele>852</ele>
        <time>2016-08-12T21:11:09.000Z</time>
        <extensions>
          <ns3:TrackPointExtension>
            <ns3:atemp>18.0</ns3:atemp>
            <ns3:hr>134</ns3:hr>
          </ns3:TrackPointExtension>
        </extensions>
      </trkpt>
      <trkpt lat="-22.01237783767282962799072265625" lon="166.45127286203205585479736328125">
        <ele>851.79998779296875</ele>
        <time>2016-08-12T21:11:10.000Z</time>
        <extensions>
          <ns3:TrackPointExtension>
            <ns3:atemp>18.0</ns3:atemp>
            <ns3:hr>134</ns3:hr>
          </ns3:TrackPointExtension>
        </extensions>
      </trkpt>
      <trkpt lat="-22.01237951405346393585205078125" lon="166.45129851065576076507568359375">
        <ele>852</ele>
        <time>2016-08-12T21:11:11.000Z</time>
        <extensions>
          <ns3:TrackPointExtension>
            <ns3:atemp>18.0</ns3:atemp>
            <ns3:hr>134</ns3:hr>
          </ns3:TrackPointExtension>
        </extensions>
      </trkpt>
      <trkpt lat="-22.01238638721406459808349609375" lon="166.45132499746978282928466796875">
        <ele>852.4000244140625</ele>
        <time>2016-08-12T21:11:12.000Z</time>
        <extensions>
          <ns3:TrackPointExtension>
            <ns3:atemp>18.0</ns3:atemp>
            <ns3:hr>134</ns3:hr>
          </ns3:TrackPointExtension>
        </extensions>
      </trkpt>
      <trkpt lat="-22.012396194040775299072265625" lon="166.4513503946363925933837890625">
        <ele>852.20001220703125</ele>
        <time>2016-08-12T21:11:13.000Z</time>
        <extensions>
          <ns3:TrackPointExtension>
            <ns3:atemp>18.0</ns3:atemp>
            <ns3:hr>135</ns3:hr>
          </ns3:TrackPointExtension>
        </extensions>
      </trkpt>
      <trkpt lat="-22.0124010555446147918701171875" lon="166.4513723552227020263671875">
        <ele>852.20001220703125</ele>
        <time>2016-08-12T21:11:14.000Z</time>
        <extensions>
          <ns3:TrackPointExtension>
            <ns3:atemp>18.0</ns3:atemp>
            <ns3:hr>135</ns3:hr>
          </ns3:TrackPointExtension>
        </extensions>
      </trkpt>
      <trkpt lat="-22.0124070905148983001708984375" lon="166.45139540545642375946044921875">
        <ele>852.5999755859375</ele>
        <time>2016-08-12T21:11:15.000Z</time>
        <extensions>
          <ns3:TrackPointExtension>
            <ns3:atemp>18.0</ns3:atemp>
            <ns3:hr>135</ns3:hr>
          </ns3:TrackPointExtension>
        </extensions>
      </trkpt>
      <trkpt lat="-22.01241035945713520050048828125" lon="166.45141837187111377716064453125">
        <ele>852.5999755859375</ele>
        <time>2016-08-12T21:11:16.000Z</time>
        <extensions>
          <ns3:TrackPointExtension>
            <ns3:atemp>18.0</ns3:atemp>
            <ns3:hr>135</ns3:hr>
          </ns3:TrackPointExtension>
        </extensions>
      </trkpt>
      <trkpt lat="-22.012413628399372100830078125" lon="166.45144569687545299530029296875">
        <ele>852.5999755859375</ele>
        <time>2016-08-12T21:11:17.000Z</time>
        <extensions>
          <ns3:TrackPointExtension>
            <ns3:atemp>18.0</ns3:atemp>
            <ns3:hr>135</ns3:hr>
          </ns3:TrackPointExtension>
        </extensions>
      </trkpt>
      <trkpt lat="-22.01241857372224330902099609375" lon="166.45147251896560192108154296875">
        <ele>852.79998779296875</ele>
        <time>2016-08-12T21:11:18.000Z</time>
        <extensions>
          <ns3:TrackPointExtension>
            <ns3:atemp>18.0</ns3:atemp>
            <ns3:hr>135</ns3:hr>
          </ns3:TrackPointExtension>
        </extensions>
      </trkpt>
      <trkpt lat="-22.01242511160671710968017578125" lon="166.45149213261902332305908203125">
        <ele>853.20001220703125</ele>
        <time>2016-08-12T21:11:19.000Z</time>
        <extensions>
          <ns3:TrackPointExtension>
            <ns3:atemp>18.0</ns3:atemp>
            <ns3:hr>135</ns3:hr>
          </ns3:TrackPointExtension>
        </extensions>
      </trkpt>
      <trkpt lat="-22.012433744966983795166015625" lon="166.45151191391050815582275390625">
        <ele>853.4000244140625</ele>
        <time>2016-08-12T21:11:20.000Z</time>
        <extensions>
          <ns3:TrackPointExtension>
            <ns3:atemp>18.0</ns3:atemp>
            <ns3:hr>135</ns3:hr>
          </ns3:TrackPointExtension>
        </extensions>
      </trkpt>
      <trkpt lat="-22.01244086958467960357666015625" lon="166.4515314437448978424072265625">
        <ele>853.4000244140625</ele>
        <time>2016-08-12T21:11:21.000Z</time>
        <extensions>
          <ns3:TrackPointExtension>
            <ns3:atemp>18.0</ns3:atemp>
            <ns3:hr>136</ns3:hr>
          </ns3:TrackPointExtension>
        </extensions>
      </trkpt>
      <trkpt lat="-22.01244883239269256591796875" lon="166.451545692980289459228515625">
        <ele>853.5999755859375</ele>
        <time>2016-08-12T21:11:22.000Z</time>
        <extensions>
          <ns3:TrackPointExtension>
            <ns3:atemp>18.0</ns3:atemp>
            <ns3:hr>136</ns3:hr>
          </ns3:TrackPointExtension>
        </extensions>
      </trkpt>
      <trkpt lat="-22.0124495029449462890625" lon="166.45155969075858592987060546875">
        <ele>854</ele>
        <time>2016-08-12T21:11:23.000Z</time>
        <extensions>
          <ns3:TrackPointExtension>
            <ns3:atemp>18.0</ns3:atemp>
            <ns3:hr>136</ns3:hr>
          </ns3:TrackPointExtension>
        </extensions>
      </trkpt>
      <trkpt lat="-22.0124401152133941650390625" lon="166.4515760354697704315185546875">
        <ele>854.20001220703125</ele>
        <time>2016-08-12T21:11:24.000Z</time>
        <extensions>
          <ns3:TrackPointExtension>
            <ns3:atemp>18.0</ns3:atemp>
            <ns3:hr>136</ns3:hr>
          </ns3:TrackPointExtension>
        </extensions>
      </trkpt>
      <trkpt lat="-22.01243181712925434112548828125" lon="166.45159162580966949462890625">
        <ele>854</ele>
        <time>2016-08-12T21:11:25.000Z</time>
        <extensions>
          <ns3:TrackPointExtension>
            <ns3:atemp>18.0</ns3:atemp>
            <ns3:hr>136</ns3:hr>
          </ns3:TrackPointExtension>
        </extensions>
      </trkpt>
      <trkpt lat="-22.012421004474163055419921875" lon="166.4516105689108371734619140625">
        <ele>854.20001220703125</ele>
        <time>2016-08-12T21:11:26.000Z</time>
        <extensions>
          <ns3:TrackPointExtension>
            <ns3:atemp>18.0</ns3:atemp>
            <ns3:hr>137</ns3:hr>
          </ns3:TrackPointExtension>
        </extensions>
      </trkpt>
      <trkpt lat="-22.01241287402808666229248046875" lon="166.45163395442068576812744140625">
        <ele>854.4000244140625</ele>
        <time>2016-08-12T21:11:27.000Z</time>
        <extensions>
          <ns3:TrackPointExtension>
            <ns3:atemp>18.0</ns3:atemp>
            <ns3:hr>137</ns3:hr>
          </ns3:TrackPointExtension>
        </extensions>
      </trkpt>
      <trkpt lat="-22.01240859925746917724609375" lon="166.45166077651083469390869140625">
        <ele>854.4000244140625</ele>
        <time>2016-08-12T21:11:28.000Z</time>
        <extensions>
          <ns3:TrackPointExtension>
            <ns3:atemp>18.0</ns3:atemp>
            <ns3:hr>137</ns3:hr>
          </ns3:TrackPointExtension>
        </extensions>
      </trkpt>
      <trkpt lat="-22.01241304166615009307861328125" lon="166.4516876824200153350830078125">
        <ele>854.20001220703125</ele>
        <time>2016-08-12T21:11:29.000Z</time>
        <extensions>
          <ns3:TrackPointExtension>
            <ns3:atemp>18.0</ns3:atemp>
            <ns3:hr>137</ns3:hr>
          </ns3:TrackPointExtension>
        </extensions>
      </trkpt>
      <trkpt lat="-22.01241572387516498565673828125" lon="166.45171006210148334503173828125">
        <ele>854.4000244140625</ele>
        <time>2016-08-12T21:11:30.000Z</time>
        <extensions>
          <ns3:TrackPointExtension>
            <ns3:atemp>18.0</ns3:atemp>
            <ns3:hr>138</ns3:hr>
          </ns3:TrackPointExtension>
        </extensions>
      </trkpt>
      <trkpt lat="-22.01242108829319477081298828125" lon="166.45173336379230022430419921875">
        <ele>854.5999755859375</ele>
        <time>2016-08-12T21:11:31.000Z</time>
        <extensions>
          <ns3:TrackPointExtension>
            <ns3:atemp>18.0</ns3:atemp>
            <ns3:hr>138</ns3:hr>
          </ns3:TrackPointExtension>
        </extensions>
      </trkpt>
      <trkpt lat="-22.01243299059569835662841796875" lon="166.45175993442535400390625">
        <ele>854.5999755859375</ele>
        <time>2016-08-12T21:11:32.000Z</time>
        <extensions>
          <ns3:TrackPointExtension>
            <ns3:atemp>18.0</ns3:atemp>
            <ns3:hr>138</ns3:hr>
          </ns3:TrackPointExtension>
        </extensions>
      </trkpt>
      <trkpt lat="-22.01245025731623172760009765625" lon="166.451781056821346282958984375">
        <ele>854.5999755859375</ele>
        <time>2016-08-12T21:11:33.000Z</time>
        <extensions>
          <ns3:TrackPointExtension>
            <ns3:atemp>18.0</ns3:atemp>
            <ns3:hr>138</ns3:hr>
          </ns3:TrackPointExtension>
        </extensions>
      </trkpt>
      <trkpt lat="-22.012471966445446014404296875" lon="166.45179891027510166168212890625">
        <ele>855</ele>
        <time>2016-08-12T21:11:34.000Z</time>
        <extensions>
          <ns3:TrackPointExtension>
            <ns3:atemp>18.0</ns3:atemp>
            <ns3:hr>139</ns3:hr>
          </ns3:TrackPointExtension>
        </extensions>
      </trkpt>
      <trkpt lat="-22.01248713769018650054931640625" lon="166.45182422362267971038818359375">
        <ele>855.20001220703125</ele>
        <time>2016-08-12T21:11:35.000Z</time>
        <extensions>
          <ns3:TrackPointExtension>
            <ns3:atemp>18.0</ns3:atemp>
            <ns3:hr>139</ns3:hr>
          </ns3:TrackPointExtension>
        </extensions>
      </trkpt>
      <trkpt lat="-22.0124962739646434783935546875" lon="166.4518497884273529052734375">
        <ele>854.79998779296875</ele>
        <time>2016-08-12T21:11:36.000Z</time>
        <extensions>
          <ns3:TrackPointExtension>
            <ns3:atemp>18.0</ns3:atemp>
            <ns3:hr>139</ns3:hr>
          </ns3:TrackPointExtension>
        </extensions>
      </trkpt>
      <trkpt lat="-22.01250675134360790252685546875" lon="166.45187451504170894622802734375">
        <ele>854.5999755859375</ele>
        <time>2016-08-12T21:11:37.000Z</time>
        <extensions>
          <ns3:TrackPointExtension>
            <ns3:atemp>18.0</ns3:atemp>
            <ns3:hr>139</ns3:hr>
          </ns3:TrackPointExtension>
        </extensions>
      </trkpt>
      <trkpt lat="-22.0125200785696506500244140625" lon="166.4519007503986358642578125">
        <ele>854.5999755859375</ele>
        <time>2016-08-12T21:11:38.000Z</time>
        <extensions>
          <ns3:TrackPointExtension>
            <ns3:atemp>18.0</ns3:atemp>
            <ns3:hr>139</ns3:hr>
          </ns3:TrackPointExtension>
        </extensions>
      </trkpt>
      <trkpt lat="-22.01253332197666168212890625" lon="166.451925225555896759033203125">
        <ele>854.4000244140625</ele>
        <time>2016-08-12T21:11:39.000Z</time>
        <extensions>
          <ns3:TrackPointExtension>
            <ns3:atemp>18.0</ns3:atemp>
            <ns3:hr>139</ns3:hr>
          </ns3:TrackPointExtension>
        </extensions>
      </trkpt>
      <trkpt lat="-22.01255033724009990692138671875" lon="166.451950706541538238525390625">
        <ele>854.4000244140625</ele>
        <time>2016-08-12T21:11:40.000Z</time>
        <extensions>
          <ns3:TrackPointExtension>
            <ns3:atemp>18.0</ns3:atemp>
            <ns3:hr>139</ns3:hr>
          </ns3:TrackPointExtension>
        </extensions>
      </trkpt>
      <trkpt lat="-22.0125666819512844085693359375" lon="166.4519723318517208099365234375">
        <ele>854.20001220703125</ele>
        <time>2016-08-12T21:11:41.000Z</time>
        <extensions>
          <ns3:TrackPointExtension>
            <ns3:atemp>18.0</ns3:atemp>
            <ns3:hr>139</ns3:hr>
          </ns3:TrackPointExtension>
        </extensions>
      </trkpt>
      <trkpt lat="-22.012586630880832672119140625" lon="166.451992951333522796630859375">
        <ele>854.4000244140625</ele>
        <time>2016-08-12T21:11:42.000Z</time>
        <extensions>
          <ns3:TrackPointExtension>
            <ns3:atemp>18.0</ns3:atemp>
            <ns3:hr>140</ns3:hr>
          </ns3:TrackPointExtension>
        </extensions>
      </trkpt>
      <trkpt lat="-22.01260699890553951263427734375" lon="166.4520145766437053680419921875">
        <ele>854.5999755859375</ele>
        <time>2016-08-12T21:11:43.000Z</time>
        <extensions>
          <ns3:TrackPointExtension>
            <ns3:atemp>18.0</ns3:atemp>
            <ns3:hr>140</ns3:hr>
          </ns3:TrackPointExtension>
        </extensions>
      </trkpt>
      <trkpt lat="-22.0126243494451045989990234375" lon="166.45203209482133388519287109375">
        <ele>854.4000244140625</ele>
        <time>2016-08-12T21:11:44.000Z</time>
        <extensions>
          <ns3:TrackPointExtension>
            <ns3:atemp>18.0</ns3:atemp>
            <ns3:hr>140</ns3:hr>
          </ns3:TrackPointExtension>
        </extensions>
      </trkpt>
      <trkpt lat="-22.0126397721469402313232421875" lon="166.4520527981221675872802734375">
        <ele>854.20001220703125</ele>
        <time>2016-08-12T21:11:45.000Z</time>
        <extensions>
          <ns3:TrackPointExtension>
            <ns3:atemp>18.0</ns3:atemp>
            <ns3:hr>140</ns3:hr>
          </ns3:TrackPointExtension>
        </extensions>
      </trkpt>
      <trkpt lat="-22.01265159063041210174560546875" lon="166.452077440917491912841796875">
        <ele>854.79998779296875</ele>
        <time>2016-08-12T21:11:46.000Z</time>
        <extensions>
          <ns3:TrackPointExtension>
            <ns3:atemp>18.0</ns3:atemp>
            <ns3:hr>140</ns3:hr>
          </ns3:TrackPointExtension>
        </extensions>
      </trkpt>
      <trkpt lat="-22.01265460811555385589599609375" lon="166.45210149697959423065185546875">
        <ele>855</ele>
        <time>2016-08-12T21:11:47.000Z</time>
        <extensions>
          <ns3:TrackPointExtension>
            <ns3:atemp>18.0</ns3:atemp>
            <ns3:hr>140</ns3:hr>
          </ns3:TrackPointExtension>
        </extensions>
      </trkpt>
      <trkpt lat="-22.01266231946647167205810546875" lon="166.4521245472133159637451171875">
        <ele>854.5999755859375</ele>
        <time>2016-08-12T21:11:48.000Z</time>
        <extensions>
          <ns3:TrackPointExtension>
            <ns3:atemp>18.0</ns3:atemp>
            <ns3:hr>140</ns3:hr>
          </ns3:TrackPointExtension>
        </extensions>
      </trkpt>
      <trkpt lat="-22.0126702822744846343994140625" lon="166.45214893855154514312744140625">
        <ele>854.5999755859375</ele>
        <time>2016-08-12T21:11:49.000Z</time>
        <extensions>
          <ns3:TrackPointExtension>
            <ns3:atemp>18.0</ns3:atemp>
            <ns3:hr>140</ns3:hr>
          </ns3:TrackPointExtension>
        </extensions>
      </trkpt>
      <trkpt lat="-22.0126749761402606964111328125" lon="166.4521729946136474609375">
        <ele>854.5999755859375</ele>
        <time>2016-08-12T21:11:50.000Z</time>
        <extensions>
          <ns3:TrackPointExtension>
            <ns3:atemp>18.0</ns3:atemp>
            <ns3:hr>140</ns3:hr>
          </ns3:TrackPointExtension>
        </extensions>
      </trkpt>
      <trkpt lat="-22.0126850344240665435791015625" lon="166.45220006816089153289794921875">
        <ele>854.79998779296875</ele>
        <time>2016-08-12T21:11:51.000Z</time>
        <extensions>
          <ns3:TrackPointExtension>
            <ns3:atemp>18.0</ns3:atemp>
            <ns3:hr>140</ns3:hr>
          </ns3:TrackPointExtension>
        </extensions>
      </trkpt>
      <trkpt lat="-22.012694589793682098388671875" lon="166.45222194492816925048828125">
        <ele>854.5999755859375</ele>
        <time>2016-08-12T21:11:52.000Z</time>
        <extensions>
          <ns3:TrackPointExtension>
            <ns3:atemp>18.0</ns3:atemp>
            <ns3:hr>140</ns3:hr>
          </ns3:TrackPointExtension>
        </extensions>
      </trkpt>
      <trkpt lat="-22.01270506717264652252197265625" lon="166.4522408880293369293212890625">
        <ele>854.4000244140625</ele>
        <time>2016-08-12T21:11:53.000Z</time>
        <extensions>
          <ns3:TrackPointExtension>
            <ns3:atemp>18.0</ns3:atemp>
            <ns3:hr>140</ns3:hr>
          </ns3:TrackPointExtension>
        </extensions>
      </trkpt>
      <trkpt lat="-22.01271168887615203857421875" lon="166.45226259715855121612548828125">
        <ele>854.5999755859375</ele>
        <time>2016-08-12T21:11:54.000Z</time>
        <extensions>
          <ns3:TrackPointExtension>
            <ns3:atemp>18.0</ns3:atemp>
            <ns3:hr>140</ns3:hr>
          </ns3:TrackPointExtension>
        </extensions>
      </trkpt>
      <trkpt lat="-22.01271663419902324676513671875" lon="166.4522838033735752105712890625">
        <ele>854.5999755859375</ele>
        <time>2016-08-12T21:11:55.000Z</time>
        <extensions>
          <ns3:TrackPointExtension>
            <ns3:atemp>18.0</ns3:atemp>
            <ns3:hr>140</ns3:hr>
          </ns3:TrackPointExtension>
        </extensions>
      </trkpt>
      <trkpt lat="-22.012720406055450439453125" lon="166.452304422855377197265625">
        <ele>854.5999755859375</ele>
        <time>2016-08-12T21:11:56.000Z</time>
        <extensions>
          <ns3:TrackPointExtension>
            <ns3:atemp>18.0</ns3:atemp>
            <ns3:hr>140</ns3:hr>
          </ns3:TrackPointExtension>
        </extensions>
      </trkpt>
      <trkpt lat="-22.01272300444543361663818359375" lon="166.4523243717849254608154296875">
        <ele>854.4000244140625</ele>
        <time>2016-08-12T21:11:57.000Z</time>
        <extensions>
          <ns3:TrackPointExtension>
            <ns3:atemp>18.0</ns3:atemp>
            <ns3:hr>140</ns3:hr>
          </ns3:TrackPointExtension>
        </extensions>
      </trkpt>
      <trkpt lat="-22.0127276144921779632568359375" lon="166.45234532654285430908203125">
        <ele>854.5999755859375</ele>
        <time>2016-08-12T21:11:58.000Z</time>
        <extensions>
          <ns3:TrackPointExtension>
            <ns3:atemp>18.0</ns3:atemp>
            <ns3:hr>140</ns3:hr>
          </ns3:TrackPointExtension>
        </extensions>
      </trkpt>
      <trkpt lat="-22.01273624785244464874267578125" lon="166.45237206481397151947021484375">
        <ele>854.5999755859375</ele>
        <time>2016-08-12T21:11:59.000Z</time>
        <extensions>
          <ns3:TrackPointExtension>
            <ns3:atemp>18.0</ns3:atemp>
            <ns3:hr>140</ns3:hr>
          </ns3:TrackPointExtension>
        </extensions>
      </trkpt>
      <trkpt lat="-22.01274747960269451141357421875" lon="166.45239620469510555267333984375">
        <ele>854.5999755859375</ele>
        <time>2016-08-12T21:12:00.000Z</time>
        <extensions>
          <ns3:TrackPointExtension>
            <ns3:atemp>18.0</ns3:atemp>
            <ns3:hr>140</ns3:hr>
          </ns3:TrackPointExtension>
        </extensions>
      </trkpt>
      <trkpt lat="-22.012760303914546966552734375" lon="166.45242042839527130126953125">
        <ele>854.5999755859375</ele>
        <time>2016-08-12T21:12:01.000Z</time>
        <extensions>
          <ns3:TrackPointExtension>
            <ns3:atemp>18.0</ns3:atemp>
            <ns3:hr>140</ns3:hr>
          </ns3:TrackPointExtension>
        </extensions>
      </trkpt>
      <trkpt lat="-22.0127762295305728912353515625" lon="166.4524427242577075958251953125">
        <ele>854.5999755859375</ele>
        <time>2016-08-12T21:12:02.000Z</time>
        <extensions>
          <ns3:TrackPointExtension>
            <ns3:atemp>18.0</ns3:atemp>
            <ns3:hr>140</ns3:hr>
          </ns3:TrackPointExtension>
        </extensions>
      </trkpt>
      <trkpt lat="-22.01278838329017162322998046875" lon="166.45246334373950958251953125">
        <ele>854.5999755859375</ele>
        <time>2016-08-12T21:12:03.000Z</time>
        <extensions>
          <ns3:TrackPointExtension>
            <ns3:atemp>18.0</ns3:atemp>
            <ns3:hr>140</ns3:hr>
          </ns3:TrackPointExtension>
        </extensions>
      </trkpt>
      <trkpt lat="-22.01279944740235805511474609375" lon="166.452483125030994415283203125">
        <ele>854.4000244140625</ele>
        <time>2016-08-12T21:12:04.000Z</time>
        <extensions>
          <ns3:TrackPointExtension>
            <ns3:atemp>18.0</ns3:atemp>
            <ns3:hr>139</ns3:hr>
          </ns3:TrackPointExtension>
        </extensions>
      </trkpt>
      <trkpt lat="-22.012806572020053863525390625" lon="166.45250600762665271759033203125">
        <ele>854.5999755859375</ele>
        <time>2016-08-12T21:12:05.000Z</time>
        <extensions>
          <ns3:TrackPointExtension>
            <ns3:atemp>18.0</ns3:atemp>
            <ns3:hr>140</ns3:hr>
          </ns3:TrackPointExtension>
        </extensions>
      </trkpt>
      <trkpt lat="-22.01281227171421051025390625" lon="166.45253299735486507415771484375">
        <ele>854.79998779296875</ele>
        <time>2016-08-12T21:12:06.000Z</time>
        <extensions>
          <ns3:TrackPointExtension>
            <ns3:atemp>18.0</ns3:atemp>
            <ns3:hr>140</ns3:hr>
          </ns3:TrackPointExtension>
        </extensions>
      </trkpt>
      <trkpt lat="-22.0128194801509380340576171875" lon="166.45256199873983860015869140625">
        <ele>854.79998779296875</ele>
        <time>2016-08-12T21:12:07.000Z</time>
        <extensions>
          <ns3:TrackPointExtension>
            <ns3:atemp>18.0</ns3:atemp>
            <ns3:hr>139</ns3:hr>
          </ns3:TrackPointExtension>
        </extensions>
      </trkpt>
      <trkpt lat="-22.01282677240669727325439453125" lon="166.45258580334484577178955078125">
        <ele>854.79998779296875</ele>
        <time>2016-08-12T21:12:08.000Z</time>
        <extensions>
          <ns3:TrackPointExtension>
            <ns3:atemp>18.0</ns3:atemp>
            <ns3:hr>140</ns3:hr>
          </ns3:TrackPointExtension>
        </extensions>
      </trkpt>
      <trkpt lat="-22.01283909380435943603515625" lon="166.45260524936020374298095703125">
        <ele>855</ele>
        <time>2016-08-12T21:12:09.000Z</time>
        <extensions>
          <ns3:TrackPointExtension>
            <ns3:atemp>18.0</ns3:atemp>
            <ns3:hr>140</ns3:hr>
          </ns3:TrackPointExtension>
        </extensions>
      </trkpt>
      <trkpt lat="-22.0128504931926727294921875" lon="166.45262964069843292236328125">
        <ele>855.20001220703125</ele>
        <time>2016-08-12T21:12:10.000Z</time>
        <extensions>
          <ns3:TrackPointExtension>
            <ns3:atemp>18.0</ns3:atemp>
            <ns3:hr>140</ns3:hr>
          </ns3:TrackPointExtension>
        </extensions>
      </trkpt>
      <trkpt lat="-22.0128654129803180694580078125" lon="166.45264866761863231658935546875">
        <ele>855</ele>
        <time>2016-08-12T21:12:11.000Z</time>
        <extensions>
          <ns3:TrackPointExtension>
            <ns3:atemp>18.0</ns3:atemp>
            <ns3:hr>140</ns3:hr>
          </ns3:TrackPointExtension>
        </extensions>
      </trkpt>
      <trkpt lat="-22.01288008131086826324462890625" lon="166.4526673592627048492431640625">
        <ele>855</ele>
        <time>2016-08-12T21:12:12.000Z</time>
        <extensions>
          <ns3:TrackPointExtension>
            <ns3:atemp>18.0</ns3:atemp>
            <ns3:hr>140</ns3:hr>
          </ns3:TrackPointExtension>
        </extensions>
      </trkpt>
      <trkpt lat="-22.01290170662105083465576171875" lon="166.45268269814550876617431640625">
        <ele>855.20001220703125</ele>
        <time>2016-08-12T21:12:13.000Z</time>
        <extensions>
          <ns3:TrackPointExtension>
            <ns3:atemp>18.0</ns3:atemp>
            <ns3:hr>140</ns3:hr>
          </ns3:TrackPointExtension>
        </extensions>
      </trkpt>
      <trkpt lat="-22.01292165555059909820556640625" lon="166.45269677974283695220947265625">
        <ele>855</ele>
        <time>2016-08-12T21:12:14.000Z</time>
        <extensions>
          <ns3:TrackPointExtension>
            <ns3:atemp>18.0</ns3:atemp>
            <ns3:hr>140</ns3:hr>
          </ns3:TrackPointExtension>
        </extensions>
      </trkpt>
      <trkpt lat="-22.012940011918544769287109375" lon="166.4527156390249729156494140625">
        <ele>855</ele>
        <time>2016-08-12T21:12:15.000Z</time>
        <extensions>
          <ns3:TrackPointExtension>
            <ns3:atemp>18.0</ns3:atemp>
            <ns3:hr>141</ns3:hr>
          </ns3:TrackPointExtension>
        </extensions>
      </trkpt>
      <trkpt lat="-22.0129559375345706939697265625" lon="166.4527344144880771636962890625">
        <ele>855.20001220703125</ele>
        <time>2016-08-12T21:12:16.000Z</time>
        <extensions>
          <ns3:TrackPointExtension>
            <ns3:atemp>18.0</ns3:atemp>
            <ns3:hr>141</ns3:hr>
          </ns3:TrackPointExtension>
        </extensions>
      </trkpt>
      <trkpt lat="-22.0129727013409137725830078125" lon="166.452753357589244842529296875">
        <ele>855.5999755859375</ele>
        <time>2016-08-12T21:12:17.000Z</time>
        <extensions>
          <ns3:TrackPointExtension>
            <ns3:atemp>18.0</ns3:atemp>
            <ns3:hr>140</ns3:hr>
          </ns3:TrackPointExtension>
        </extensions>
      </trkpt>
      <trkpt lat="-22.01299063861370086669921875" lon="166.45277439616620540618896484375">
        <ele>855.4000244140625</ele>
        <time>2016-08-12T21:12:18.000Z</time>
        <extensions>
          <ns3:TrackPointExtension>
            <ns3:atemp>18.0</ns3:atemp>
            <ns3:hr>141</ns3:hr>
          </ns3:TrackPointExtension>
        </extensions>
      </trkpt>
      <trkpt lat="-22.0130075700581073760986328125" lon="166.45279417745769023895263671875">
        <ele>855.4000244140625</ele>
        <time>2016-08-12T21:12:19.000Z</time>
        <extensions>
          <ns3:TrackPointExtension>
            <ns3:atemp>18.0</ns3:atemp>
            <ns3:hr>141</ns3:hr>
          </ns3:TrackPointExtension>
        </extensions>
      </trkpt>
      <trkpt lat="-22.01302290894091129302978515625" lon="166.45281664095818996429443359375">
        <ele>855.4000244140625</ele>
        <time>2016-08-12T21:12:20.000Z</time>
        <extensions>
          <ns3:TrackPointExtension>
            <ns3:atemp>18.0</ns3:atemp>
            <ns3:hr>141</ns3:hr>
          </ns3:TrackPointExtension>
        </extensions>
      </trkpt>
      <trkpt lat="-22.01303414069116115570068359375" lon="166.4528423734009265899658203125">
        <ele>855.5999755859375</ele>
        <time>2016-08-12T21:12:21.000Z</time>
        <extensions>
          <ns3:TrackPointExtension>
            <ns3:atemp>18.0</ns3:atemp>
            <ns3:hr>141</ns3:hr>
          </ns3:TrackPointExtension>
        </extensions>
      </trkpt>
      <trkpt lat="-22.01304604299366474151611328125" lon="166.45286341197788715362548828125">
        <ele>855.4000244140625</ele>
        <time>2016-08-12T21:12:22.000Z</time>
        <extensions>
          <ns3:TrackPointExtension>
            <ns3:atemp>18.0</ns3:atemp>
            <ns3:hr>140</ns3:hr>
          </ns3:TrackPointExtension>
        </extensions>
      </trkpt>
      <trkpt lat="-22.013056688010692596435546875" lon="166.452886797487735748291015625">
        <ele>855.20001220703125</ele>
        <time>2016-08-12T21:12:23.000Z</time>
        <extensions>
          <ns3:TrackPointExtension>
            <ns3:atemp>18.0</ns3:atemp>
            <ns3:hr>141</ns3:hr>
          </ns3:TrackPointExtension>
        </extensions>
      </trkpt>
      <trkpt lat="-22.01306817121803760528564453125" lon="166.4529124461114406585693359375">
        <ele>855.4000244140625</ele>
        <time>2016-08-12T21:12:24.000Z</time>
        <extensions>
          <ns3:TrackPointExtension>
            <ns3:atemp>18.0</ns3:atemp>
            <ns3:hr>141</ns3:hr>
          </ns3:TrackPointExtension>
        </extensions>
      </trkpt>
      <trkpt lat="-22.01308225281536579132080078125" lon="166.45293348468840122222900390625">
        <ele>855.20001220703125</ele>
        <time>2016-08-12T21:12:25.000Z</time>
        <extensions>
          <ns3:TrackPointExtension>
            <ns3:atemp>18.0</ns3:atemp>
            <ns3:hr>140</ns3:hr>
          </ns3:TrackPointExtension>
        </extensions>
      </trkpt>
      <trkpt lat="-22.01309281401336193084716796875" lon="166.4529563672840595245361328125">
        <ele>855</ele>
        <time>2016-08-12T21:12:26.000Z</time>
        <extensions>
          <ns3:TrackPointExtension>
            <ns3:atemp>18.0</ns3:atemp>
            <ns3:hr>140</ns3:hr>
          </ns3:TrackPointExtension>
        </extensions>
      </trkpt>
      <trkpt lat="-22.01310488395392894744873046875" lon="166.45297807641327381134033203125">
        <ele>855</ele>
        <time>2016-08-12T21:12:27.000Z</time>
        <extensions>
          <ns3:TrackPointExtension>
            <ns3:atemp>18.0</ns3:atemp>
            <ns3:hr>140</ns3:hr>
          </ns3:TrackPointExtension>
        </extensions>
      </trkpt>
      <trkpt lat="-22.01311695389449596405029296875" lon="166.45299886353313922882080078125">
        <ele>855.20001220703125</ele>
        <time>2016-08-12T21:12:28.000Z</time>
        <extensions>
          <ns3:TrackPointExtension>
            <ns3:atemp>18.0</ns3:atemp>
            <ns3:hr>140</ns3:hr>
          </ns3:TrackPointExtension>
        </extensions>
      </trkpt>
      <trkpt lat="-22.01313103549182415008544921875" lon="166.45301763899624347686767578125">
        <ele>855.20001220703125</ele>
        <time>2016-08-12T21:12:29.000Z</time>
        <extensions>
          <ns3:TrackPointExtension>
            <ns3:atemp>18.0</ns3:atemp>
            <ns3:hr>140</ns3:hr>
          </ns3:TrackPointExtension>
        </extensions>
      </trkpt>
      <trkpt lat="-22.01314444653689861297607421875" lon="166.453033983707427978515625">
        <ele>855</ele>
        <time>2016-08-12T21:12:30.000Z</time>
        <extensions>
          <ns3:TrackPointExtension>
            <ns3:atemp>18.0</ns3:atemp>
            <ns3:hr>140</ns3:hr>
          </ns3:TrackPointExtension>
        </extensions>
      </trkpt>
      <trkpt lat="-22.013155929744243621826171875" lon="166.45305217243731021881103515625">
        <ele>855</ele>
        <time>2016-08-12T21:12:31.000Z</time>
        <extensions>
          <ns3:TrackPointExtension>
            <ns3:atemp>18.0</ns3:atemp>
            <ns3:hr>140</ns3:hr>
          </ns3:TrackPointExtension>
        </extensions>
      </trkpt>
      <trkpt lat="-22.01315903104841709136962890625" lon="166.4530728757381439208984375">
        <ele>855.20001220703125</ele>
        <time>2016-08-12T21:12:32.000Z</time>
        <extensions>
          <ns3:TrackPointExtension>
            <ns3:atemp>18.0</ns3:atemp>
            <ns3:hr>140</ns3:hr>
          </ns3:TrackPointExtension>
        </extensions>
      </trkpt>
      <trkpt lat="-22.0131547562777996063232421875" lon="166.45309391431510448455810546875">
        <ele>855</ele>
        <time>2016-08-12T21:12:33.000Z</time>
        <extensions>
          <ns3:TrackPointExtension>
            <ns3:atemp>18.0</ns3:atemp>
            <ns3:hr>139</ns3:hr>
          </ns3:TrackPointExtension>
        </extensions>
      </trkpt>
      <trkpt lat="-22.013145871460437774658203125" lon="166.453116126358509063720703125">
        <ele>855</ele>
        <time>2016-08-12T21:12:34.000Z</time>
        <extensions>
          <ns3:TrackPointExtension>
            <ns3:atemp>18.0</ns3:atemp>
            <ns3:hr>139</ns3:hr>
          </ns3:TrackPointExtension>
        </extensions>
      </trkpt>
      <trkpt lat="-22.0131369866430759429931640625" lon="166.45313850603997707366943359375">
        <ele>855.20001220703125</ele>
        <time>2016-08-12T21:12:35.000Z</time>
        <extensions>
          <ns3:TrackPointExtension>
            <ns3:atemp>18.0</ns3:atemp>
            <ns3:hr>139</ns3:hr>
          </ns3:TrackPointExtension>
        </extensions>
      </trkpt>
      <trkpt lat="-22.013131789863109588623046875" lon="166.453157700598239898681640625">
        <ele>855.20001220703125</ele>
        <time>2016-08-12T21:12:36.000Z</time>
        <extensions>
          <ns3:TrackPointExtension>
            <ns3:atemp>18.0</ns3:atemp>
            <ns3:hr>139</ns3:hr>
          </ns3:TrackPointExtension>
        </extensions>
      </trkpt>
      <trkpt lat="-22.01312743127346038818359375" lon="166.45318024791777133941650390625">
        <ele>855</ele>
        <time>2016-08-12T21:12:37.000Z</time>
        <extensions>
          <ns3:TrackPointExtension>
            <ns3:atemp>18.0</ns3:atemp>
            <ns3:hr>139</ns3:hr>
          </ns3:TrackPointExtension>
        </extensions>
      </trkpt>
      <trkpt lat="-22.01312181539833545684814453125" lon="166.45320103503763675689697265625">
        <ele>855</ele>
        <time>2016-08-12T21:12:38.000Z</time>
        <extensions>
          <ns3:TrackPointExtension>
            <ns3:atemp>18.0</ns3:atemp>
            <ns3:hr>139</ns3:hr>
          </ns3:TrackPointExtension>
        </extensions>
      </trkpt>
      <trkpt lat="-22.01311678625643253326416015625" lon="166.4532212354242801666259765625">
        <ele>855.4000244140625</ele>
        <time>2016-08-12T21:12:39.000Z</time>
        <extensions>
          <ns3:TrackPointExtension>
            <ns3:atemp>18.0</ns3:atemp>
            <ns3:hr>139</ns3:hr>
          </ns3:TrackPointExtension>
        </extensions>
      </trkpt>
      <trkpt lat="-22.0131111703813076019287109375" lon="166.45324428565800189971923828125">
        <ele>855</ele>
        <time>2016-08-12T21:12:40.000Z</time>
        <extensions>
          <ns3:TrackPointExtension>
            <ns3:atemp>18.0</ns3:atemp>
            <ns3:hr>139</ns3:hr>
          </ns3:TrackPointExtension>
        </extensions>
      </trkpt>
      <trkpt lat="-22.01310723088681697845458984375" lon="166.4532633125782012939453125">
        <ele>855</ele>
        <time>2016-08-12T21:12:41.000Z</time>
        <extensions>
          <ns3:TrackPointExtension>
            <ns3:atemp>18.0</ns3:atemp>
            <ns3:hr>139</ns3:hr>
          </ns3:TrackPointExtension>
        </extensions>
      </trkpt>
      <trkpt lat="-22.01309935189783573150634765625" lon="166.45328401587903499603271484375">
        <ele>855.4000244140625</ele>
        <time>2016-08-12T21:12:42.000Z</time>
        <extensions>
          <ns3:TrackPointExtension>
            <ns3:atemp>18.0</ns3:atemp>
            <ns3:hr>139</ns3:hr>
          </ns3:TrackPointExtension>
        </extensions>
      </trkpt>
      <trkpt lat="-22.01309147290885448455810546875" lon="166.45330748520791530609130859375">
        <ele>855.5999755859375</ele>
        <time>2016-08-12T21:12:43.000Z</time>
        <extensions>
          <ns3:TrackPointExtension>
            <ns3:atemp>18.0</ns3:atemp>
            <ns3:hr>138</ns3:hr>
          </ns3:TrackPointExtension>
        </extensions>
      </trkpt>
      <trkpt lat="-22.0130850188434123992919921875" lon="166.45332911051809787750244140625">
        <ele>855.4000244140625</ele>
        <time>2016-08-12T21:12:44.000Z</time>
        <extensions>
          <ns3:TrackPointExtension>
            <ns3:atemp>18.0</ns3:atemp>
            <ns3:hr>139</ns3:hr>
          </ns3:TrackPointExtension>
        </extensions>
      </trkpt>
      <trkpt lat="-22.013074122369289398193359375" lon="166.45335425622761249542236328125">
        <ele>855.4000244140625</ele>
        <time>2016-08-12T21:12:45.000Z</time>
        <extensions>
          <ns3:TrackPointExtension>
            <ns3:atemp>18.0</ns3:atemp>
            <ns3:hr>138</ns3:hr>
          </ns3:TrackPointExtension>
        </extensions>
      </trkpt>
      <trkpt lat="-22.01306850649416446685791015625" lon="166.45337554626166820526123046875">
        <ele>855.5999755859375</ele>
        <time>2016-08-12T21:12:46.000Z</time>
        <extensions>
          <ns3:TrackPointExtension>
            <ns3:atemp>18.0</ns3:atemp>
            <ns3:hr>139</ns3:hr>
          </ns3:TrackPointExtension>
        </extensions>
      </trkpt>
      <trkpt lat="-22.01306247152388095855712890625" lon="166.45339465700089931488037109375">
        <ele>855.4000244140625</ele>
        <time>2016-08-12T21:12:47.000Z</time>
        <extensions>
          <ns3:TrackPointExtension>
            <ns3:atemp>18.0</ns3:atemp>
            <ns3:hr>138</ns3:hr>
          </ns3:TrackPointExtension>
        </extensions>
      </trkpt>
      <trkpt lat="-22.01305291615426540374755859375" lon="166.4534210599958896636962890625">
        <ele>855.4000244140625</ele>
        <time>2016-08-12T21:12:48.000Z</time>
        <extensions>
          <ns3:TrackPointExtension>
            <ns3:atemp>18.0</ns3:atemp>
            <ns3:hr>138</ns3:hr>
          </ns3:TrackPointExtension>
        </extensions>
      </trkpt>
      <trkpt lat="-22.0130494795739650726318359375" lon="166.4534448646008968353271484375">
        <ele>855.5999755859375</ele>
        <time>2016-08-12T21:12:49.000Z</time>
        <extensions>
          <ns3:TrackPointExtension>
            <ns3:atemp>18.0</ns3:atemp>
            <ns3:hr>138</ns3:hr>
          </ns3:TrackPointExtension>
        </extensions>
      </trkpt>
      <trkpt lat="-22.01304554007947444915771484375" lon="166.4534669928252696990966796875">
        <ele>855.5999755859375</ele>
        <time>2016-08-12T21:12:50.000Z</time>
        <extensions>
          <ns3:TrackPointExtension>
            <ns3:atemp>18.0</ns3:atemp>
            <ns3:hr>138</ns3:hr>
          </ns3:TrackPointExtension>
        </extensions>
      </trkpt>
      <trkpt lat="-22.0130374096333980560302734375" lon="166.45348970778286457061767578125">
        <ele>855.5999755859375</ele>
        <time>2016-08-12T21:12:51.000Z</time>
        <extensions>
          <ns3:TrackPointExtension>
            <ns3:atemp>17.0</ns3:atemp>
            <ns3:hr>138</ns3:hr>
          </ns3:TrackPointExtension>
        </extensions>
      </trkpt>
      <trkpt lat="-22.01303162612020969390869140625" lon="166.45350814796984195709228515625">
        <ele>855.79998779296875</ele>
        <time>2016-08-12T21:12:52.000Z</time>
        <extensions>
          <ns3:TrackPointExtension>
            <ns3:atemp>17.0</ns3:atemp>
            <ns3:hr>138</ns3:hr>
          </ns3:TrackPointExtension>
        </extensions>
      </trkpt>
      <trkpt lat="-22.0130248367786407470703125" lon="166.4535276778042316436767578125">
        <ele>856</ele>
        <time>2016-08-12T21:12:53.000Z</time>
        <extensions>
          <ns3:TrackPointExtension>
            <ns3:atemp>17.0</ns3:atemp>
            <ns3:hr>138</ns3:hr>
          </ns3:TrackPointExtension>
        </extensions>
      </trkpt>
      <trkpt lat="-22.013014443218708038330078125" lon="166.453545950353145599365234375">
        <ele>855.79998779296875</ele>
        <time>2016-08-12T21:12:54.000Z</time>
        <extensions>
          <ns3:TrackPointExtension>
            <ns3:atemp>17.0</ns3:atemp>
            <ns3:hr>138</ns3:hr>
          </ns3:TrackPointExtension>
        </extensions>
      </trkpt>
      <trkpt lat="-22.01300899498164653778076171875" lon="166.45356179215013980865478515625">
        <ele>855.79998779296875</ele>
        <time>2016-08-12T21:12:55.000Z</time>
        <extensions>
          <ns3:TrackPointExtension>
            <ns3:atemp>17.0</ns3:atemp>
            <ns3:hr>138</ns3:hr>
          </ns3:TrackPointExtension>
        </extensions>
      </trkpt>
      <trkpt lat="-22.0130008645355701446533203125" lon="166.4535799808800220489501953125">
        <ele>855.79998779296875</ele>
        <time>2016-08-12T21:12:56.000Z</time>
        <extensions>
          <ns3:TrackPointExtension>
            <ns3:atemp>17.0</ns3:atemp>
            <ns3:hr>137</ns3:hr>
          </ns3:TrackPointExtension>
        </extensions>
      </trkpt>
      <trkpt lat="-22.01299340464174747467041015625" lon="166.45359850488603115081787109375">
        <ele>855.79998779296875</ele>
        <time>2016-08-12T21:12:57.000Z</time>
        <extensions>
          <ns3:TrackPointExtension>
            <ns3:atemp>17.0</ns3:atemp>
            <ns3:hr>137</ns3:hr>
          </ns3:TrackPointExtension>
        </extensions>
      </trkpt>
      <trkpt lat="-22.01298485510051250457763671875" lon="166.45361778326332569122314453125">
        <ele>855.79998779296875</ele>
        <time>2016-08-12T21:12:58.000Z</time>
        <extensions>
          <ns3:TrackPointExtension>
            <ns3:atemp>17.0</ns3:atemp>
            <ns3:hr>137</ns3:hr>
          </ns3:TrackPointExtension>
        </extensions>
      </trkpt>
      <trkpt lat="-22.01297580264508724212646484375" lon="166.45364041440188884735107421875">
        <ele>856</ele>
        <time>2016-08-12T21:12:59.000Z</time>
        <extensions>
          <ns3:TrackPointExtension>
            <ns3:atemp>17.0</ns3:atemp>
            <ns3:hr>137</ns3:hr>
          </ns3:TrackPointExtension>
        </extensions>
      </trkpt>
      <trkpt lat="-22.0129730366170406341552734375" lon="166.453659273684024810791015625">
        <ele>856.20001220703125</ele>
        <time>2016-08-12T21:13:00.000Z</time>
        <extensions>
          <ns3:TrackPointExtension>
            <ns3:atemp>17.0</ns3:atemp>
            <ns3:hr>137</ns3:hr>
          </ns3:TrackPointExtension>
        </extensions>
      </trkpt>
      <trkpt lat="-22.01296515762805938720703125" lon="166.45367712713778018951416015625">
        <ele>856.20001220703125</ele>
        <time>2016-08-12T21:13:01.000Z</time>
        <extensions>
          <ns3:TrackPointExtension>
            <ns3:atemp>17.0</ns3:atemp>
            <ns3:hr>137</ns3:hr>
          </ns3:TrackPointExtension>
        </extensions>
      </trkpt>
      <trkpt lat="-22.01296037994325160980224609375" lon="166.45369841717183589935302734375">
        <ele>856.5999755859375</ele>
        <time>2016-08-12T21:13:02.000Z</time>
        <extensions>
          <ns3:TrackPointExtension>
            <ns3:atemp>17.0</ns3:atemp>
            <ns3:hr>136</ns3:hr>
          </ns3:TrackPointExtension>
        </extensions>
      </trkpt>
      <trkpt lat="-22.0129576139152050018310546875" lon="166.4537164382636547088623046875">
        <ele>856.5999755859375</ele>
        <time>2016-08-12T21:13:03.000Z</time>
        <extensions>
          <ns3:TrackPointExtension>
            <ns3:atemp>17.0</ns3:atemp>
            <ns3:hr>136</ns3:hr>
          </ns3:TrackPointExtension>
        </extensions>
      </trkpt>
      <trkpt lat="-22.0129505731165409088134765625" lon="166.45373563282191753387451171875">
        <ele>856.5999755859375</ele>
        <time>2016-08-12T21:13:04.000Z</time>
        <extensions>
          <ns3:TrackPointExtension>
            <ns3:atemp>17.0</ns3:atemp>
            <ns3:hr>136</ns3:hr>
          </ns3:TrackPointExtension>
        </extensions>
      </trkpt>
      <trkpt lat="-22.01294227503240108489990234375" lon="166.453754492104053497314453125">
        <ele>857</ele>
        <time>2016-08-12T21:13:05.000Z</time>
        <extensions>
          <ns3:TrackPointExtension>
            <ns3:atemp>17.0</ns3:atemp>
            <ns3:hr>136</ns3:hr>
          </ns3:TrackPointExtension>
        </extensions>
      </trkpt>
      <trkpt lat="-22.0129381678998470306396484375" lon="166.4537724293768405914306640625">
        <ele>857.20001220703125</ele>
        <time>2016-08-12T21:13:06.000Z</time>
        <extensions>
          <ns3:TrackPointExtension>
            <ns3:atemp>17.0</ns3:atemp>
            <ns3:hr>136</ns3:hr>
          </ns3:TrackPointExtension>
        </extensions>
      </trkpt>
      <trkpt lat="-22.01293523423373699188232421875" lon="166.45379330031573772430419921875">
        <ele>857</ele>
        <time>2016-08-12T21:13:07.000Z</time>
        <extensions>
          <ns3:TrackPointExtension>
            <ns3:atemp>17.0</ns3:atemp>
            <ns3:hr>136</ns3:hr>
          </ns3:TrackPointExtension>
        </extensions>
      </trkpt>
      <trkpt lat="-22.0129287801682949066162109375" lon="166.45381383597850799560546875">
        <ele>857</ele>
        <time>2016-08-12T21:13:08.000Z</time>
        <extensions>
          <ns3:TrackPointExtension>
            <ns3:atemp>17.0</ns3:atemp>
            <ns3:hr>137</ns3:hr>
          </ns3:TrackPointExtension>
        </extensions>
      </trkpt>
      <trkpt lat="-22.012924253940582275390625" lon="166.4538347907364368438720703125">
        <ele>857.4000244140625</ele>
        <time>2016-08-12T21:13:09.000Z</time>
        <extensions>
          <ns3:TrackPointExtension>
            <ns3:atemp>17.0</ns3:atemp>
            <ns3:hr>137</ns3:hr>
          </ns3:TrackPointExtension>
        </extensions>
      </trkpt>
      <trkpt lat="-22.01292735524475574493408203125" lon="166.45385884679853916168212890625">
        <ele>857.4000244140625</ele>
        <time>2016-08-12T21:13:10.000Z</time>
        <extensions>
          <ns3:TrackPointExtension>
            <ns3:atemp>17.0</ns3:atemp>
            <ns3:hr>136</ns3:hr>
          </ns3:TrackPointExtension>
        </extensions>
      </trkpt>
      <trkpt lat="-22.012929618358612060546875" lon="166.4538780413568019866943359375">
        <ele>857.4000244140625</ele>
        <time>2016-08-12T21:13:11.000Z</time>
        <extensions>
          <ns3:TrackPointExtension>
            <ns3:atemp>17.0</ns3:atemp>
            <ns3:hr>137</ns3:hr>
          </ns3:TrackPointExtension>
        </extensions>
      </trkpt>
      <trkpt lat="-22.0129282772541046142578125" lon="166.45389773882925510406494140625">
        <ele>857.5999755859375</ele>
        <time>2016-08-12T21:13:12.000Z</time>
        <extensions>
          <ns3:TrackPointExtension>
            <ns3:atemp>17.0</ns3:atemp>
            <ns3:hr>136</ns3:hr>
          </ns3:TrackPointExtension>
        </extensions>
      </trkpt>
      <trkpt lat="-22.01292358338832855224609375" lon="166.45392171107232570648193359375">
        <ele>857.5999755859375</ele>
        <time>2016-08-12T21:13:13.000Z</time>
        <extensions>
          <ns3:TrackPointExtension>
            <ns3:atemp>17.0</ns3:atemp>
            <ns3:hr>137</ns3:hr>
          </ns3:TrackPointExtension>
        </extensions>
      </trkpt>
      <trkpt lat="-22.01291964389383792877197265625" lon="166.45394350402057170867919921875">
        <ele>857.79998779296875</ele>
        <time>2016-08-12T21:13:14.000Z</time>
        <extensions>
          <ns3:TrackPointExtension>
            <ns3:atemp>17.0</ns3:atemp>
            <ns3:hr>137</ns3:hr>
          </ns3:TrackPointExtension>
        </extensions>
      </trkpt>
      <trkpt lat="-22.01291344128549098968505859375" lon="166.45396412350237369537353515625">
        <ele>857.79998779296875</ele>
        <time>2016-08-12T21:13:15.000Z</time>
        <extensions>
          <ns3:TrackPointExtension>
            <ns3:atemp>17.0</ns3:atemp>
            <ns3:hr>137</ns3:hr>
          </ns3:TrackPointExtension>
        </extensions>
      </trkpt>
      <trkpt lat="-22.0129108428955078125" lon="166.45398859865963459014892578125">
        <ele>858</ele>
        <time>2016-08-12T21:13:16.000Z</time>
        <extensions>
          <ns3:TrackPointExtension>
            <ns3:atemp>17.0</ns3:atemp>
            <ns3:hr>137</ns3:hr>
          </ns3:TrackPointExtension>
        </extensions>
      </trkpt>
      <trkpt lat="-22.0129086636006832122802734375" lon="166.454010307788848876953125">
        <ele>858.20001220703125</ele>
        <time>2016-08-12T21:13:17.000Z</time>
        <extensions>
          <ns3:TrackPointExtension>
            <ns3:atemp>17.0</ns3:atemp>
            <ns3:hr>137</ns3:hr>
          </ns3:TrackPointExtension>
        </extensions>
      </trkpt>
      <trkpt lat="-22.0129136927425861358642578125" lon="166.45403453148901462554931640625">
        <ele>858.4000244140625</ele>
        <time>2016-08-12T21:13:18.000Z</time>
        <extensions>
          <ns3:TrackPointExtension>
            <ns3:atemp>17.0</ns3:atemp>
            <ns3:hr>137</ns3:hr>
          </ns3:TrackPointExtension>
        </extensions>
      </trkpt>
      <trkpt lat="-22.01291696168482303619384765625" lon="166.45406051538884639739990234375">
        <ele>858.4000244140625</ele>
        <time>2016-08-12T21:13:19.000Z</time>
        <extensions>
          <ns3:TrackPointExtension>
            <ns3:atemp>17.0</ns3:atemp>
            <ns3:hr>137</ns3:hr>
          </ns3:TrackPointExtension>
        </extensions>
      </trkpt>
      <trkpt lat="-22.01291620731353759765625" lon="166.45408465526998043060302734375">
        <ele>858.5999755859375</ele>
        <time>2016-08-12T21:13:20.000Z</time>
        <extensions>
          <ns3:TrackPointExtension>
            <ns3:atemp>17.0</ns3:atemp>
            <ns3:hr>137</ns3:hr>
          </ns3:TrackPointExtension>
        </extensions>
      </trkpt>
      <trkpt lat="-22.01291897334158420562744140625" lon="166.45410946570336818695068359375">
        <ele>858.79998779296875</ele>
        <time>2016-08-12T21:13:21.000Z</time>
        <extensions>
          <ns3:TrackPointExtension>
            <ns3:atemp>17.0</ns3:atemp>
            <ns3:hr>138</ns3:hr>
          </ns3:TrackPointExtension>
        </extensions>
      </trkpt>
      <trkpt lat="-22.012926600873470306396484375" lon="166.454136036336421966552734375">
        <ele>858.79998779296875</ele>
        <time>2016-08-12T21:13:22.000Z</time>
        <extensions>
          <ns3:TrackPointExtension>
            <ns3:atemp>17.0</ns3:atemp>
            <ns3:hr>138</ns3:hr>
          </ns3:TrackPointExtension>
        </extensions>
      </trkpt>
      <trkpt lat="-22.0129354856908321380615234375" lon="166.454156152904033660888671875">
        <ele>859.20001220703125</ele>
        <time>2016-08-12T21:13:23.000Z</time>
        <extensions>
          <ns3:TrackPointExtension>
            <ns3:atemp>17.0</ns3:atemp>
            <ns3:hr>138</ns3:hr>
          </ns3:TrackPointExtension>
        </extensions>
      </trkpt>
      <trkpt lat="-22.0129374973475933074951171875" lon="166.45417618565261363983154296875">
        <ele>859.4000244140625</ele>
        <time>2016-08-12T21:13:24.000Z</time>
        <extensions>
          <ns3:TrackPointExtension>
            <ns3:atemp>17.0</ns3:atemp>
            <ns3:hr>139</ns3:hr>
          </ns3:TrackPointExtension>
        </extensions>
      </trkpt>
      <trkpt lat="-22.0129371620714664459228515625" lon="166.45420049317181110382080078125">
        <ele>859.20001220703125</ele>
        <time>2016-08-12T21:13:25.000Z</time>
        <extensions>
          <ns3:TrackPointExtension>
            <ns3:atemp>17.0</ns3:atemp>
            <ns3:hr>139</ns3:hr>
          </ns3:TrackPointExtension>
        </extensions>
      </trkpt>
      <trkpt lat="-22.01293573714792728424072265625" lon="166.45422178320586681365966796875">
        <ele>859.20001220703125</ele>
        <time>2016-08-12T21:13:26.000Z</time>
        <extensions>
          <ns3:TrackPointExtension>
            <ns3:atemp>17.0</ns3:atemp>
            <ns3:hr>139</ns3:hr>
          </ns3:TrackPointExtension>
        </extensions>
      </trkpt>
      <trkpt lat="-22.01294126920402050018310546875" lon="166.45424491725862026214599609375">
        <ele>859.5999755859375</ele>
        <time>2016-08-12T21:13:27.000Z</time>
        <extensions>
          <ns3:TrackPointExtension>
            <ns3:atemp>17.0</ns3:atemp>
            <ns3:hr>139</ns3:hr>
          </ns3:TrackPointExtension>
        </extensions>
      </trkpt>
      <trkpt lat="-22.012946046888828277587890625" lon="166.45426805131137371063232421875">
        <ele>860</ele>
        <time>2016-08-12T21:13:28.000Z</time>
        <extensions>
          <ns3:TrackPointExtension>
            <ns3:atemp>17.0</ns3:atemp>
            <ns3:hr>140</ns3:hr>
          </ns3:TrackPointExtension>
        </extensions>
      </trkpt>
      <trkpt lat="-22.0129532553255558013916015625" lon="166.454287581145763397216796875">
        <ele>860.20001220703125</ele>
        <time>2016-08-12T21:13:29.000Z</time>
        <extensions>
          <ns3:TrackPointExtension>
            <ns3:atemp>17.0</ns3:atemp>
            <ns3:hr>140</ns3:hr>
          </ns3:TrackPointExtension>
        </extensions>
      </trkpt>
      <trkpt lat="-22.01297177933156490325927734375" lon="166.4543058536946773529052734375">
        <ele>860.5999755859375</ele>
        <time>2016-08-12T21:13:30.000Z</time>
        <extensions>
          <ns3:TrackPointExtension>
            <ns3:atemp>17.0</ns3:atemp>
            <ns3:hr>140</ns3:hr>
          </ns3:TrackPointExtension>
        </extensions>
      </trkpt>
      <trkpt lat="-22.01298234052956104278564453125" lon="166.4543239586055278778076171875">
        <ele>860.5999755859375</ele>
        <time>2016-08-12T21:13:31.000Z</time>
        <extensions>
          <ns3:TrackPointExtension>
            <ns3:atemp>17.0</ns3:atemp>
            <ns3:hr>140</ns3:hr>
          </ns3:TrackPointExtension>
        </extensions>
      </trkpt>
      <trkpt lat="-22.01299826614558696746826171875" lon="166.4543402194976806640625">
        <ele>860.4000244140625</ele>
        <time>2016-08-12T21:13:32.000Z</time>
        <extensions>
          <ns3:TrackPointExtension>
            <ns3:atemp>17.0</ns3:atemp>
            <ns3:hr>141</ns3:hr>
          </ns3:TrackPointExtension>
        </extensions>
      </trkpt>
      <trkpt lat="-22.0130129344761371612548828125" lon="166.45435966551303863525390625">
        <ele>860.5999755859375</ele>
        <time>2016-08-12T21:13:33.000Z</time>
        <extensions>
          <ns3:TrackPointExtension>
            <ns3:atemp>17.0</ns3:atemp>
            <ns3:hr>141</ns3:hr>
          </ns3:TrackPointExtension>
        </extensions>
      </trkpt>
      <trkpt lat="-22.013026513159275054931640625" lon="166.45437709987163543701171875">
        <ele>860.79998779296875</ele>
        <time>2016-08-12T21:13:34.000Z</time>
        <extensions>
          <ns3:TrackPointExtension>
            <ns3:atemp>17.0</ns3:atemp>
            <ns3:hr>141</ns3:hr>
          </ns3:TrackPointExtension>
        </extensions>
      </trkpt>
      <trkpt lat="-22.01304319314658641815185546875" lon="166.45439059473574161529541015625">
        <ele>860.5999755859375</ele>
        <time>2016-08-12T21:13:35.000Z</time>
        <extensions>
          <ns3:TrackPointExtension>
            <ns3:atemp>17.0</ns3:atemp>
            <ns3:hr>141</ns3:hr>
          </ns3:TrackPointExtension>
        </extensions>
      </trkpt>
      <trkpt lat="-22.0130602084100246429443359375" lon="166.4544057659804821014404296875">
        <ele>860.79998779296875</ele>
        <time>2016-08-12T21:13:36.000Z</time>
        <extensions>
          <ns3:TrackPointExtension>
            <ns3:atemp>17.0</ns3:atemp>
            <ns3:hr>141</ns3:hr>
          </ns3:TrackPointExtension>
        </extensions>
      </trkpt>
      <trkpt lat="-22.0130763016641139984130859375" lon="166.454421021044254302978515625">
        <ele>861.4000244140625</ele>
        <time>2016-08-12T21:13:37.000Z</time>
        <extensions>
          <ns3:TrackPointExtension>
            <ns3:atemp>17.0</ns3:atemp>
            <ns3:hr>142</ns3:hr>
          </ns3:TrackPointExtension>
        </extensions>
      </trkpt>
      <trkpt lat="-22.013103961944580078125" lon="166.454435773193836212158203125">
        <ele>861.5999755859375</ele>
        <time>2016-08-12T21:13:38.000Z</time>
        <extensions>
          <ns3:TrackPointExtension>
            <ns3:atemp>17.0</ns3:atemp>
            <ns3:hr>142</ns3:hr>
          </ns3:TrackPointExtension>
        </extensions>
      </trkpt>
      <trkpt lat="-22.01312986202538013458251953125" lon="166.45444692112505435943603515625">
        <ele>861.4000244140625</ele>
        <time>2016-08-12T21:13:39.000Z</time>
        <extensions>
          <ns3:TrackPointExtension>
            <ns3:atemp>17.0</ns3:atemp>
            <ns3:hr>142</ns3:hr>
          </ns3:TrackPointExtension>
        </extensions>
      </trkpt>
      <trkpt lat="-22.013154923915863037109375" lon="166.45445195026695728302001953125">
        <ele>861.20001220703125</ele>
        <time>2016-08-12T21:13:40.000Z</time>
        <extensions>
          <ns3:TrackPointExtension>
            <ns3:atemp>17.0</ns3:atemp>
            <ns3:hr>142</ns3:hr>
          </ns3:TrackPointExtension>
        </extensions>
      </trkpt>
      <trkpt lat="-22.0131815783679485321044921875" lon="166.4544503577053546905517578125">
        <ele>861</ele>
        <time>2016-08-12T21:13:41.000Z</time>
        <extensions>
          <ns3:TrackPointExtension>
            <ns3:atemp>17.0</ns3:atemp>
            <ns3:hr>142</ns3:hr>
          </ns3:TrackPointExtension>
        </extensions>
      </trkpt>
      <trkpt lat="-22.0132063888013362884521484375" lon="166.45444842986762523651123046875">
        <ele>860.79998779296875</ele>
        <time>2016-08-12T21:13:42.000Z</time>
        <extensions>
          <ns3:TrackPointExtension>
            <ns3:atemp>17.0</ns3:atemp>
            <ns3:hr>142</ns3:hr>
          </ns3:TrackPointExtension>
        </extensions>
      </trkpt>
      <trkpt lat="-22.0132271759212017059326171875" lon="166.45444943569600582122802734375">
        <ele>860.5999755859375</ele>
        <time>2016-08-12T21:13:43.000Z</time>
        <extensions>
          <ns3:TrackPointExtension>
            <ns3:atemp>17.0</ns3:atemp>
            <ns3:hr>143</ns3:hr>
          </ns3:TrackPointExtension>
        </extensions>
      </trkpt>
      <trkpt lat="-22.013248465955257415771484375" lon="166.454451866447925567626953125">
        <ele>860.5999755859375</ele>
        <time>2016-08-12T21:13:44.000Z</time>
        <extensions>
          <ns3:TrackPointExtension>
            <ns3:atemp>17.0</ns3:atemp>
            <ns3:hr>143</ns3:hr>
          </ns3:TrackPointExtension>
        </extensions>
      </trkpt>
      <trkpt lat="-22.01326967217028141021728515625" lon="166.454455219209194183349609375">
        <ele>860.5999755859375</ele>
        <time>2016-08-12T21:13:45.000Z</time>
        <extensions>
          <ns3:TrackPointExtension>
            <ns3:atemp>17.0</ns3:atemp>
            <ns3:hr>142</ns3:hr>
          </ns3:TrackPointExtension>
        </extensions>
      </trkpt>
      <trkpt lat="-22.01329213567078113555908203125" lon="166.454457901418209075927734375">
        <ele>860.5999755859375</ele>
        <time>2016-08-12T21:13:46.000Z</time>
        <extensions>
          <ns3:TrackPointExtension>
            <ns3:atemp>17.0</ns3:atemp>
            <ns3:hr>142</ns3:hr>
          </ns3:TrackPointExtension>
        </extensions>
      </trkpt>
      <trkpt lat="-22.01331107877194881439208984375" lon="166.4544568955898284912109375">
        <ele>860.4000244140625</ele>
        <time>2016-08-12T21:13:47.000Z</time>
        <extensions>
          <ns3:TrackPointExtension>
            <ns3:atemp>17.0</ns3:atemp>
            <ns3:hr>142</ns3:hr>
          </ns3:TrackPointExtension>
        </extensions>
      </trkpt>
      <trkpt lat="-22.0133317820727825164794921875" lon="166.45446100272238254547119140625">
        <ele>860.4000244140625</ele>
        <time>2016-08-12T21:13:48.000Z</time>
        <extensions>
          <ns3:TrackPointExtension>
            <ns3:atemp>17.0</ns3:atemp>
            <ns3:hr>143</ns3:hr>
          </ns3:TrackPointExtension>
        </extensions>
      </trkpt>
      <trkpt lat="-22.01335701160132884979248046875" lon="166.45446301437914371490478515625">
        <ele>860</ele>
        <time>2016-08-12T21:13:49.000Z</time>
        <extensions>
          <ns3:TrackPointExtension>
            <ns3:atemp>17.0</ns3:atemp>
            <ns3:hr>142</ns3:hr>
          </ns3:TrackPointExtension>
        </extensions>
      </trkpt>
      <trkpt lat="-22.01338090002536773681640625" lon="166.45446427166461944580078125">
        <ele>859.79998779296875</ele>
        <time>2016-08-12T21:13:50.000Z</time>
        <extensions>
          <ns3:TrackPointExtension>
            <ns3:atemp>17.0</ns3:atemp>
            <ns3:hr>142</ns3:hr>
          </ns3:TrackPointExtension>
        </extensions>
      </trkpt>
      <trkpt lat="-22.01340948231518268585205078125" lon="166.45446368493139743804931640625">
        <ele>859.5999755859375</ele>
        <time>2016-08-12T21:13:51.000Z</time>
        <extensions>
          <ns3:TrackPointExtension>
            <ns3:atemp>17.0</ns3:atemp>
            <ns3:hr>142</ns3:hr>
          </ns3:TrackPointExtension>
        </extensions>
      </trkpt>
      <trkpt lat="-22.01343362219631671905517578125" lon="166.45446150563657283782958984375">
        <ele>859.4000244140625</ele>
        <time>2016-08-12T21:13:52.000Z</time>
        <extensions>
          <ns3:TrackPointExtension>
            <ns3:atemp>17.0</ns3:atemp>
            <ns3:hr>142</ns3:hr>
          </ns3:TrackPointExtension>
        </extensions>
      </trkpt>
      <trkpt lat="-22.01345608569681644439697265625" lon="166.45446024835109710693359375">
        <ele>859.20001220703125</ele>
        <time>2016-08-12T21:13:53.000Z</time>
        <extensions>
          <ns3:TrackPointExtension>
            <ns3:atemp>17.0</ns3:atemp>
            <ns3:hr>142</ns3:hr>
          </ns3:TrackPointExtension>
        </extensions>
      </trkpt>
      <trkpt lat="-22.013477794826030731201171875" lon="166.45445932634174823760986328125">
        <ele>859.20001220703125</ele>
        <time>2016-08-12T21:13:54.000Z</time>
        <extensions>
          <ns3:TrackPointExtension>
            <ns3:atemp>17.0</ns3:atemp>
            <ns3:hr>142</ns3:hr>
          </ns3:TrackPointExtension>
        </extensions>
      </trkpt>
      <trkpt lat="-22.01350369490683078765869140625" lon="166.45446100272238254547119140625">
        <ele>858.79998779296875</ele>
        <time>2016-08-12T21:13:55.000Z</time>
        <extensions>
          <ns3:TrackPointExtension>
            <ns3:atemp>17.0</ns3:atemp>
            <ns3:hr>142</ns3:hr>
          </ns3:TrackPointExtension>
        </extensions>
      </trkpt>
      <trkpt lat="-22.01352817006409168243408203125" lon="166.4544624276459217071533203125">
        <ele>858.5999755859375</ele>
        <time>2016-08-12T21:13:56.000Z</time>
        <extensions>
          <ns3:TrackPointExtension>
            <ns3:atemp>17.0</ns3:atemp>
            <ns3:hr>142</ns3:hr>
          </ns3:TrackPointExtension>
        </extensions>
      </trkpt>
      <trkpt lat="-22.01355457305908203125" lon="166.4544654451310634613037109375">
        <ele>858.4000244140625</ele>
        <time>2016-08-12T21:13:57.000Z</time>
        <extensions>
          <ns3:TrackPointExtension>
            <ns3:atemp>17.0</ns3:atemp>
            <ns3:hr>142</ns3:hr>
          </ns3:TrackPointExtension>
        </extensions>
      </trkpt>
      <trkpt lat="-22.0135798864066600799560546875" lon="166.45447994582355022430419921875">
        <ele>858.4000244140625</ele>
        <time>2016-08-12T21:13:58.000Z</time>
        <extensions>
          <ns3:TrackPointExtension>
            <ns3:atemp>17.0</ns3:atemp>
            <ns3:hr>142</ns3:hr>
          </ns3:TrackPointExtension>
        </extensions>
      </trkpt>
      <trkpt lat="-22.01360008679330348968505859375" lon="166.454494111239910125732421875">
        <ele>858.20001220703125</ele>
        <time>2016-08-12T21:13:59.000Z</time>
        <extensions>
          <ns3:TrackPointExtension>
            <ns3:atemp>17.0</ns3:atemp>
            <ns3:hr>141</ns3:hr>
          </ns3:TrackPointExtension>
        </extensions>
      </trkpt>
      <trkpt lat="-22.01362020336091518402099609375" lon="166.4545123837888240814208984375">
        <ele>858</ele>
        <time>2016-08-12T21:14:00.000Z</time>
        <extensions>
          <ns3:TrackPointExtension>
            <ns3:atemp>17.0</ns3:atemp>
            <ns3:hr>141</ns3:hr>
          </ns3:TrackPointExtension>
        </extensions>
      </trkpt>
      <trkpt lat="-22.01363948173820972442626953125" lon="166.45453057251870632171630859375">
        <ele>857.79998779296875</ele>
        <time>2016-08-12T21:14:01.000Z</time>
        <extensions>
          <ns3:TrackPointExtension>
            <ns3:atemp>17.0</ns3:atemp>
            <ns3:hr>141</ns3:hr>
          </ns3:TrackPointExtension>
        </extensions>
      </trkpt>
      <trkpt lat="-22.0136573351919651031494140625" lon="166.4545454084873199462890625">
        <ele>857.5999755859375</ele>
        <time>2016-08-12T21:14:02.000Z</time>
        <extensions>
          <ns3:TrackPointExtension>
            <ns3:atemp>17.0</ns3:atemp>
            <ns3:hr>141</ns3:hr>
          </ns3:TrackPointExtension>
        </extensions>
      </trkpt>
      <trkpt lat="-22.0136764459311962127685546875" lon="166.4545653574168682098388671875">
        <ele>857.79998779296875</ele>
        <time>2016-08-12T21:14:03.000Z</time>
        <extensions>
          <ns3:TrackPointExtension>
            <ns3:atemp>17.0</ns3:atemp>
            <ns3:hr>140</ns3:hr>
          </ns3:TrackPointExtension>
        </extensions>
      </trkpt>
      <trkpt lat="-22.01369312591850757598876953125" lon="166.45458337850868701934814453125">
        <ele>857.5999755859375</ele>
        <time>2016-08-12T21:14:04.000Z</time>
        <extensions>
          <ns3:TrackPointExtension>
            <ns3:atemp>17.0</ns3:atemp>
            <ns3:hr>140</ns3:hr>
          </ns3:TrackPointExtension>
        </extensions>
      </trkpt>
      <trkpt lat="-22.013705112040042877197265625" lon="166.4545995555818080902099609375">
        <ele>857.4000244140625</ele>
        <time>2016-08-12T21:14:05.000Z</time>
        <extensions>
          <ns3:TrackPointExtension>
            <ns3:atemp>17.0</ns3:atemp>
            <ns3:hr>140</ns3:hr>
          </ns3:TrackPointExtension>
        </extensions>
      </trkpt>
      <trkpt lat="-22.0137227140367031097412109375" lon="166.4546186663210391998291015625">
        <ele>857.4000244140625</ele>
        <time>2016-08-12T21:14:06.000Z</time>
        <extensions>
          <ns3:TrackPointExtension>
            <ns3:atemp>17.0</ns3:atemp>
            <ns3:hr>139</ns3:hr>
          </ns3:TrackPointExtension>
        </extensions>
      </trkpt>
      <trkpt lat="-22.013740651309490203857421875" lon="166.45463836379349231719970703125">
        <ele>857</ele>
        <time>2016-08-12T21:14:07.000Z</time>
        <extensions>
          <ns3:TrackPointExtension>
            <ns3:atemp>17.0</ns3:atemp>
            <ns3:hr>139</ns3:hr>
          </ns3:TrackPointExtension>
        </extensions>
      </trkpt>
      <trkpt lat="-22.0137592591345310211181640625" lon="166.45466049201786518096923828125">
        <ele>856.79998779296875</ele>
        <time>2016-08-12T21:14:08.000Z</time>
        <extensions>
          <ns3:TrackPointExtension>
            <ns3:atemp>17.0</ns3:atemp>
            <ns3:hr>139</ns3:hr>
          </ns3:TrackPointExtension>
        </extensions>
      </trkpt>
      <trkpt lat="-22.0137780345976352691650390625" lon="166.454680860042572021484375">
        <ele>856.79998779296875</ele>
        <time>2016-08-12T21:14:09.000Z</time>
        <extensions>
          <ns3:TrackPointExtension>
            <ns3:atemp>17.0</ns3:atemp>
            <ns3:hr>139</ns3:hr>
          </ns3:TrackPointExtension>
        </extensions>
      </trkpt>
      <trkpt lat="-22.01379203237593173980712890625" lon="166.45469888113439083099365234375">
        <ele>856.5999755859375</ele>
        <time>2016-08-12T21:14:10.000Z</time>
        <extensions>
          <ns3:TrackPointExtension>
            <ns3:atemp>17.0</ns3:atemp>
            <ns3:hr>138</ns3:hr>
          </ns3:TrackPointExtension>
        </extensions>
      </trkpt>
      <trkpt lat="-22.01381114311516284942626953125" lon="166.4547158963978290557861328125">
        <ele>856.5999755859375</ele>
        <time>2016-08-12T21:14:11.000Z</time>
        <extensions>
          <ns3:TrackPointExtension>
            <ns3:atemp>17.0</ns3:atemp>
            <ns3:hr>138</ns3:hr>
          </ns3:TrackPointExtension>
        </extensions>
      </trkpt>
      <trkpt lat="-22.01384047977626323699951171875" lon="166.454722099006175994873046875">
        <ele>856.4000244140625</ele>
        <time>2016-08-12T21:14:12.000Z</time>
        <extensions>
          <ns3:TrackPointExtension>
            <ns3:atemp>17.0</ns3:atemp>
            <ns3:hr>137</ns3:hr>
          </ns3:TrackPointExtension>
        </extensions>
      </trkpt>
      <trkpt lat="-22.01385657303035259246826171875" lon="166.4547276310622692108154296875">
        <ele>856.20001220703125</ele>
        <time>2016-08-12T21:14:13.000Z</time>
        <extensions>
          <ns3:TrackPointExtension>
            <ns3:atemp>17.0</ns3:atemp>
            <ns3:hr>137</ns3:hr>
          </ns3:TrackPointExtension>
        </extensions>
      </trkpt>
      <trkpt lat="-22.01388180255889892578125" lon="166.45473559387028217315673828125">
        <ele>856</ele>
        <time>2016-08-12T21:14:14.000Z</time>
        <extensions>
          <ns3:TrackPointExtension>
            <ns3:atemp>17.0</ns3:atemp>
            <ns3:hr>136</ns3:hr>
          </ns3:TrackPointExtension>
        </extensions>
      </trkpt>
      <trkpt lat="-22.013905607163906097412109375" lon="166.45474649034440517425537109375">
        <ele>856</ele>
        <time>2016-08-12T21:14:15.000Z</time>
        <extensions>
          <ns3:TrackPointExtension>
            <ns3:atemp>17.0</ns3:atemp>
            <ns3:hr>136</ns3:hr>
          </ns3:TrackPointExtension>
        </extensions>
      </trkpt>
      <trkpt lat="-22.013921700417995452880859375" lon="166.45475872792303562164306640625">
        <ele>856</ele>
        <time>2016-08-12T21:14:16.000Z</time>
        <extensions>
          <ns3:TrackPointExtension>
            <ns3:atemp>17.0</ns3:atemp>
            <ns3:hr>136</ns3:hr>
          </ns3:TrackPointExtension>
        </extensions>
      </trkpt>
      <trkpt lat="-22.01394123025238513946533203125" lon="166.4547745697200298309326171875">
        <ele>855.5999755859375</ele>
        <time>2016-08-12T21:14:17.000Z</time>
        <extensions>
          <ns3:TrackPointExtension>
            <ns3:atemp>17.0</ns3:atemp>
            <ns3:hr>135</ns3:hr>
          </ns3:TrackPointExtension>
        </extensions>
      </trkpt>
      <trkpt lat="-22.01395598240196704864501953125" lon="166.45479686558246612548828125">
        <ele>855.4000244140625</ele>
        <time>2016-08-12T21:14:18.000Z</time>
        <extensions>
          <ns3:TrackPointExtension>
            <ns3:atemp>17.0</ns3:atemp>
            <ns3:hr>135</ns3:hr>
          </ns3:TrackPointExtension>
        </extensions>
      </trkpt>
      <trkpt lat="-22.01397123746573925018310546875" lon="166.454814970493316650390625">
        <ele>855.20001220703125</ele>
        <time>2016-08-12T21:14:19.000Z</time>
        <extensions>
          <ns3:TrackPointExtension>
            <ns3:atemp>17.0</ns3:atemp>
            <ns3:hr>135</ns3:hr>
          </ns3:TrackPointExtension>
        </extensions>
      </trkpt>
      <trkpt lat="-22.013985402882099151611328125" lon="166.4548324048519134521484375">
        <ele>855</ele>
        <time>2016-08-12T21:14:20.000Z</time>
        <extensions>
          <ns3:TrackPointExtension>
            <ns3:atemp>17.0</ns3:atemp>
            <ns3:hr>135</ns3:hr>
          </ns3:TrackPointExtension>
        </extensions>
      </trkpt>
      <trkpt lat="-22.0139949582517147064208984375" lon="166.45485294051468372344970703125">
        <ele>854.5999755859375</ele>
        <time>2016-08-12T21:14:21.000Z</time>
        <extensions>
          <ns3:TrackPointExtension>
            <ns3:atemp>17.0</ns3:atemp>
            <ns3:hr>134</ns3:hr>
          </ns3:TrackPointExtension>
        </extensions>
      </trkpt>
      <trkpt lat="-22.01399638317525386810302734375" lon="166.4548741467297077178955078125">
        <ele>854.20001220703125</ele>
        <time>2016-08-12T21:14:22.000Z</time>
        <extensions>
          <ns3:TrackPointExtension>
            <ns3:atemp>17.0</ns3:atemp>
            <ns3:hr>134</ns3:hr>
          </ns3:TrackPointExtension>
        </extensions>
      </trkpt>
      <trkpt lat="-22.01400593854486942291259765625" lon="166.45489417947828769683837890625">
        <ele>854.20001220703125</ele>
        <time>2016-08-12T21:14:23.000Z</time>
        <extensions>
          <ns3:TrackPointExtension>
            <ns3:atemp>17.0</ns3:atemp>
            <ns3:hr>133</ns3:hr>
          </ns3:TrackPointExtension>
        </extensions>
      </trkpt>
      <trkpt lat="-22.01401733793318271636962890625" lon="166.45491597242653369903564453125">
        <ele>854.20001220703125</ele>
        <time>2016-08-12T21:14:24.000Z</time>
        <extensions>
          <ns3:TrackPointExtension>
            <ns3:atemp>17.0</ns3:atemp>
            <ns3:hr>133</ns3:hr>
          </ns3:TrackPointExtension>
        </extensions>
      </trkpt>
      <trkpt lat="-22.0140301622450351715087890625" lon="166.4549341611564159393310546875">
        <ele>854</ele>
        <time>2016-08-12T21:14:25.000Z</time>
        <extensions>
          <ns3:TrackPointExtension>
            <ns3:atemp>17.0</ns3:atemp>
            <ns3:hr>134</ns3:hr>
          </ns3:TrackPointExtension>
        </extensions>
      </trkpt>
      <trkpt lat="-22.01404667459428310394287109375" lon="166.4549531042575836181640625">
        <ele>854</ele>
        <time>2016-08-12T21:14:26.000Z</time>
        <extensions>
          <ns3:TrackPointExtension>
            <ns3:atemp>17.0</ns3:atemp>
            <ns3:hr>133</ns3:hr>
          </ns3:TrackPointExtension>
        </extensions>
      </trkpt>
      <trkpt lat="-22.01406712643802165985107421875" lon="166.4549723826348781585693359375">
        <ele>853.79998779296875</ele>
        <time>2016-08-12T21:14:27.000Z</time>
        <extensions>
          <ns3:TrackPointExtension>
            <ns3:atemp>17.0</ns3:atemp>
            <ns3:hr>133</ns3:hr>
          </ns3:TrackPointExtension>
        </extensions>
      </trkpt>
      <trkpt lat="-22.0140851475298404693603515625" lon="166.45498822443187236785888671875">
        <ele>853.79998779296875</ele>
        <time>2016-08-12T21:14:28.000Z</time>
        <extensions>
          <ns3:TrackPointExtension>
            <ns3:atemp>17.0</ns3:atemp>
            <ns3:hr>133</ns3:hr>
          </ns3:TrackPointExtension>
        </extensions>
      </trkpt>
      <trkpt lat="-22.0141002349555492401123046875" lon="166.45500381477177143096923828125">
        <ele>853.79998779296875</ele>
        <time>2016-08-12T21:14:29.000Z</time>
        <extensions>
          <ns3:TrackPointExtension>
            <ns3:atemp>17.0</ns3:atemp>
            <ns3:hr>133</ns3:hr>
          </ns3:TrackPointExtension>
        </extensions>
      </trkpt>
      <trkpt lat="-22.0141149871051311492919921875" lon="166.4550193212926387786865234375">
        <ele>853.4000244140625</ele>
        <time>2016-08-12T21:14:30.000Z</time>
        <extensions>
          <ns3:TrackPointExtension>
            <ns3:atemp>17.0</ns3:atemp>
            <ns3:hr>133</ns3:hr>
          </ns3:TrackPointExtension>
        </extensions>
      </trkpt>
      <trkpt lat="-22.0141233690083026885986328125" lon="166.45502996630966663360595703125">
        <ele>853</ele>
        <time>2016-08-12T21:14:31.000Z</time>
        <extensions>
          <ns3:TrackPointExtension>
            <ns3:atemp>17.0</ns3:atemp>
            <ns3:hr>132</ns3:hr>
          </ns3:TrackPointExtension>
        </extensions>
      </trkpt>
      <trkpt lat="-22.0141352713108062744140625" lon="166.45504170097410678863525390625">
        <ele>853</ele>
        <time>2016-08-12T21:14:32.000Z</time>
        <extensions>
          <ns3:TrackPointExtension>
            <ns3:atemp>17.0</ns3:atemp>
            <ns3:hr>131</ns3:hr>
          </ns3:TrackPointExtension>
        </extensions>
      </trkpt>
      <trkpt lat="-22.01414977200329303741455078125" lon="166.4550535194575786590576171875">
        <ele>852.79998779296875</ele>
        <time>2016-08-12T21:14:33.000Z</time>
        <extensions>
          <ns3:TrackPointExtension>
            <ns3:atemp>17.0</ns3:atemp>
            <ns3:hr>131</ns3:hr>
          </ns3:TrackPointExtension>
        </extensions>
      </trkpt>
      <trkpt lat="-22.0141642726957798004150390625" lon="166.455064080655574798583984375">
        <ele>852.5999755859375</ele>
        <time>2016-08-12T21:14:34.000Z</time>
        <extensions>
          <ns3:TrackPointExtension>
            <ns3:atemp>17.0</ns3:atemp>
            <ns3:hr>130</ns3:hr>
          </ns3:TrackPointExtension>
        </extensions>
      </trkpt>
      <trkpt lat="-22.01418363489210605621337890625" lon="166.4550773240625858306884765625">
        <ele>852.5999755859375</ele>
        <time>2016-08-12T21:14:35.000Z</time>
        <extensions>
          <ns3:TrackPointExtension>
            <ns3:atemp>17.0</ns3:atemp>
            <ns3:hr>130</ns3:hr>
          </ns3:TrackPointExtension>
        </extensions>
      </trkpt>
      <trkpt lat="-22.014210708439350128173828125" lon="166.45507941953837871551513671875">
        <ele>852.4000244140625</ele>
        <time>2016-08-12T21:14:36.000Z</time>
        <extensions>
          <ns3:TrackPointExtension>
            <ns3:atemp>17.0</ns3:atemp>
            <ns3:hr>130</ns3:hr>
          </ns3:TrackPointExtension>
        </extensions>
      </trkpt>
      <trkpt lat="-22.0142330043017864227294921875" lon="166.4550833590328693389892578125">
        <ele>852.20001220703125</ele>
        <time>2016-08-12T21:14:37.000Z</time>
        <extensions>
          <ns3:TrackPointExtension>
            <ns3:atemp>17.0</ns3:atemp>
            <ns3:hr>130</ns3:hr>
          </ns3:TrackPointExtension>
        </extensions>
      </trkpt>
      <trkpt lat="-22.01425395905971527099609375" lon="166.455091573297977447509765625">
        <ele>852</ele>
        <time>2016-08-12T21:14:38.000Z</time>
        <extensions>
          <ns3:TrackPointExtension>
            <ns3:atemp>17.0</ns3:atemp>
            <ns3:hr>129</ns3:hr>
          </ns3:TrackPointExtension>
        </extensions>
      </trkpt>
      <trkpt lat="-22.01427751220762729644775390625" lon="166.45509718917310237884521484375">
        <ele>851.79998779296875</ele>
        <time>2016-08-12T21:14:39.000Z</time>
        <extensions>
          <ns3:TrackPointExtension>
            <ns3:atemp>17.0</ns3:atemp>
            <ns3:hr>130</ns3:hr>
          </ns3:TrackPointExtension>
        </extensions>
      </trkpt>
      <trkpt lat="-22.0142906717956066131591796875" lon="166.4551054872572422027587890625">
        <ele>851.5999755859375</ele>
        <time>2016-08-12T21:14:40.000Z</time>
        <extensions>
          <ns3:TrackPointExtension>
            <ns3:atemp>17.0</ns3:atemp>
            <ns3:hr>129</ns3:hr>
          </ns3:TrackPointExtension>
        </extensions>
      </trkpt>
      <trkpt lat="-22.01430357992649078369140625" lon="166.45512233488261699676513671875">
        <ele>851.79998779296875</ele>
        <time>2016-08-12T21:14:41.000Z</time>
        <extensions>
          <ns3:TrackPointExtension>
            <ns3:atemp>17.0</ns3:atemp>
            <ns3:hr>129</ns3:hr>
          </ns3:TrackPointExtension>
        </extensions>
      </trkpt>
      <trkpt lat="-22.01431296765804290771484375" lon="166.45514597184956073760986328125">
        <ele>851.5999755859375</ele>
        <time>2016-08-12T21:14:42.000Z</time>
        <extensions>
          <ns3:TrackPointExtension>
            <ns3:atemp>17.0</ns3:atemp>
            <ns3:hr>129</ns3:hr>
          </ns3:TrackPointExtension>
        </extensions>
      </trkpt>
      <trkpt lat="-22.01432176865637302398681640625" lon="166.455163992941379547119140625">
        <ele>851.4000244140625</ele>
        <time>2016-08-12T21:14:43.000Z</time>
        <extensions>
          <ns3:TrackPointExtension>
            <ns3:atemp>17.0</ns3:atemp>
            <ns3:hr>129</ns3:hr>
          </ns3:TrackPointExtension>
        </extensions>
      </trkpt>
      <trkpt lat="-22.01432210393249988555908203125" lon="166.45518771372735500335693359375">
        <ele>851</ele>
        <time>2016-08-12T21:14:44.000Z</time>
        <extensions>
          <ns3:TrackPointExtension>
            <ns3:atemp>17.0</ns3:atemp>
            <ns3:hr>130</ns3:hr>
          </ns3:TrackPointExtension>
        </extensions>
      </trkpt>
      <trkpt lat="-22.01432210393249988555908203125" lon="166.455212272703647613525390625">
        <ele>851</ele>
        <time>2016-08-12T21:14:45.000Z</time>
        <extensions>
          <ns3:TrackPointExtension>
            <ns3:atemp>17.0</ns3:atemp>
            <ns3:hr>130</ns3:hr>
          </ns3:TrackPointExtension>
        </extensions>
      </trkpt>
      <trkpt lat="-22.014320679008960723876953125" lon="166.4552335627377033233642578125">
        <ele>851.20001220703125</ele>
        <time>2016-08-12T21:14:46.000Z</time>
        <extensions>
          <ns3:TrackPointExtension>
            <ns3:atemp>17.0</ns3:atemp>
            <ns3:hr>130</ns3:hr>
          </ns3:TrackPointExtension>
        </extensions>
      </trkpt>
      <trkpt lat="-22.01431087218225002288818359375" lon="166.4552615582942962646484375">
        <ele>850.79998779296875</ele>
        <time>2016-08-12T21:14:47.000Z</time>
        <extensions>
          <ns3:TrackPointExtension>
            <ns3:atemp>17.0</ns3:atemp>
            <ns3:hr>130</ns3:hr>
          </ns3:TrackPointExtension>
        </extensions>
      </trkpt>
      <trkpt lat="-22.0143017359077930450439453125" lon="166.455287039279937744140625">
        <ele>850.79998779296875</ele>
        <time>2016-08-12T21:14:48.000Z</time>
        <extensions>
          <ns3:TrackPointExtension>
            <ns3:atemp>17.0</ns3:atemp>
            <ns3:hr>130</ns3:hr>
          </ns3:TrackPointExtension>
        </extensions>
      </trkpt>
      <trkpt lat="-22.014297209680080413818359375" lon="166.4553089998662471771240234375">
        <ele>851</ele>
        <time>2016-08-12T21:14:49.000Z</time>
        <extensions>
          <ns3:TrackPointExtension>
            <ns3:atemp>17.0</ns3:atemp>
            <ns3:hr>130</ns3:hr>
          </ns3:TrackPointExtension>
        </extensions>
      </trkpt>
      <trkpt lat="-22.01428572647273540496826171875" lon="166.45533305592834949493408203125">
        <ele>851.20001220703125</ele>
        <time>2016-08-12T21:14:50.000Z</time>
        <extensions>
          <ns3:TrackPointExtension>
            <ns3:atemp>17.0</ns3:atemp>
            <ns3:hr>130</ns3:hr>
          </ns3:TrackPointExtension>
        </extensions>
      </trkpt>
      <trkpt lat="-22.01427801512181758880615234375" lon="166.4553554356098175048828125">
        <ele>851</ele>
        <time>2016-08-12T21:14:51.000Z</time>
        <extensions>
          <ns3:TrackPointExtension>
            <ns3:atemp>17.0</ns3:atemp>
            <ns3:hr>130</ns3:hr>
          </ns3:TrackPointExtension>
        </extensions>
      </trkpt>
      <trkpt lat="-22.0142708905041217803955078125" lon="166.455379910767078399658203125">
        <ele>851</ele>
        <time>2016-08-12T21:14:52.000Z</time>
        <extensions>
          <ns3:TrackPointExtension>
            <ns3:atemp>17.0</ns3:atemp>
            <ns3:hr>130</ns3:hr>
          </ns3:TrackPointExtension>
        </extensions>
      </trkpt>
      <trkpt lat="-22.014260329306125640869140625" lon="166.4554075710475444793701171875">
        <ele>851.20001220703125</ele>
        <time>2016-08-12T21:14:53.000Z</time>
        <extensions>
          <ns3:TrackPointExtension>
            <ns3:atemp>17.0</ns3:atemp>
            <ns3:hr>130</ns3:hr>
          </ns3:TrackPointExtension>
        </extensions>
      </trkpt>
      <trkpt lat="-22.01425387524068355560302734375" lon="166.45543296821415424346923828125">
        <ele>851.20001220703125</ele>
        <time>2016-08-12T21:14:54.000Z</time>
        <extensions>
          <ns3:TrackPointExtension>
            <ns3:atemp>17.0</ns3:atemp>
            <ns3:hr>130</ns3:hr>
          </ns3:TrackPointExtension>
        </extensions>
      </trkpt>
      <trkpt lat="-22.01424666680395603179931640625" lon="166.45545744337141513824462890625">
        <ele>851</ele>
        <time>2016-08-12T21:14:55.000Z</time>
        <extensions>
          <ns3:TrackPointExtension>
            <ns3:atemp>17.0</ns3:atemp>
            <ns3:hr>130</ns3:hr>
          </ns3:TrackPointExtension>
        </extensions>
      </trkpt>
      <trkpt lat="-22.01423677615821361541748046875" lon="166.45548040978610515594482421875">
        <ele>851.20001220703125</ele>
        <time>2016-08-12T21:14:56.000Z</time>
        <extensions>
          <ns3:TrackPointExtension>
            <ns3:atemp>17.0</ns3:atemp>
            <ns3:hr>131</ns3:hr>
          </ns3:TrackPointExtension>
        </extensions>
      </trkpt>
      <trkpt lat="-22.014223448932170867919921875" lon="166.455499939620494842529296875">
        <ele>851.20001220703125</ele>
        <time>2016-08-12T21:14:57.000Z</time>
        <extensions>
          <ns3:TrackPointExtension>
            <ns3:atemp>17.0</ns3:atemp>
            <ns3:hr>131</ns3:hr>
          </ns3:TrackPointExtension>
        </extensions>
      </trkpt>
      <trkpt lat="-22.01421372592449188232421875" lon="166.4555185474455356597900390625">
        <ele>851.20001220703125</ele>
        <time>2016-08-12T21:14:58.000Z</time>
        <extensions>
          <ns3:TrackPointExtension>
            <ns3:atemp>17.0</ns3:atemp>
            <ns3:hr>131</ns3:hr>
          </ns3:TrackPointExtension>
        </extensions>
      </trkpt>
      <trkpt lat="-22.01420391909778118133544921875" lon="166.45553556270897388458251953125">
        <ele>851.20001220703125</ele>
        <time>2016-08-12T21:14:59.000Z</time>
        <extensions>
          <ns3:TrackPointExtension>
            <ns3:atemp>17.0</ns3:atemp>
            <ns3:hr>131</ns3:hr>
          </ns3:TrackPointExtension>
        </extensions>
      </trkpt>
      <trkpt lat="-22.0141921006143093109130859375" lon="166.4555547572672367095947265625">
        <ele>851.4000244140625</ele>
        <time>2016-08-12T21:15:00.000Z</time>
        <extensions>
          <ns3:TrackPointExtension>
            <ns3:atemp>17.0</ns3:atemp>
            <ns3:hr>131</ns3:hr>
          </ns3:TrackPointExtension>
        </extensions>
      </trkpt>
      <trkpt lat="-22.01418229378759860992431640625" lon="166.45557680167257785797119140625">
        <ele>851.4000244140625</ele>
        <time>2016-08-12T21:15:01.000Z</time>
        <extensions>
          <ns3:TrackPointExtension>
            <ns3:atemp>17.0</ns3:atemp>
            <ns3:hr>132</ns3:hr>
          </ns3:TrackPointExtension>
        </extensions>
      </trkpt>
      <trkpt lat="-22.014176510274410247802734375" lon="166.455596499145030975341796875">
        <ele>851.4000244140625</ele>
        <time>2016-08-12T21:15:02.000Z</time>
        <extensions>
          <ns3:TrackPointExtension>
            <ns3:atemp>17.0</ns3:atemp>
            <ns3:hr>132</ns3:hr>
          </ns3:TrackPointExtension>
        </extensions>
      </trkpt>
      <trkpt lat="-22.01417148113250732421875" lon="166.45561787299811840057373046875">
        <ele>851.5999755859375</ele>
        <time>2016-08-12T21:15:03.000Z</time>
        <extensions>
          <ns3:TrackPointExtension>
            <ns3:atemp>17.0</ns3:atemp>
            <ns3:hr>132</ns3:hr>
          </ns3:TrackPointExtension>
        </extensions>
      </trkpt>
      <trkpt lat="-22.01416603289544582366943359375" lon="166.4556424319744110107421875">
        <ele>851.5999755859375</ele>
        <time>2016-08-12T21:15:04.000Z</time>
        <extensions>
          <ns3:TrackPointExtension>
            <ns3:atemp>17.0</ns3:atemp>
            <ns3:hr>132</ns3:hr>
          </ns3:TrackPointExtension>
        </extensions>
      </trkpt>
      <trkpt lat="-22.01415748335421085357666015625" lon="166.45566648803651332855224609375">
        <ele>851.5999755859375</ele>
        <time>2016-08-12T21:15:05.000Z</time>
        <extensions>
          <ns3:TrackPointExtension>
            <ns3:atemp>17.0</ns3:atemp>
            <ns3:hr>133</ns3:hr>
          </ns3:TrackPointExtension>
        </extensions>
      </trkpt>
      <trkpt lat="-22.01415228657424449920654296875" lon="166.4556905440986156463623046875">
        <ele>852</ele>
        <time>2016-08-12T21:15:06.000Z</time>
        <extensions>
          <ns3:TrackPointExtension>
            <ns3:atemp>17.0</ns3:atemp>
            <ns3:hr>133</ns3:hr>
          </ns3:TrackPointExtension>
        </extensions>
      </trkpt>
      <trkpt lat="-22.0141428150236606597900390625" lon="166.4557121694087982177734375">
        <ele>852.20001220703125</ele>
        <time>2016-08-12T21:15:07.000Z</time>
        <extensions>
          <ns3:TrackPointExtension>
            <ns3:atemp>17.0</ns3:atemp>
            <ns3:hr>132</ns3:hr>
          </ns3:TrackPointExtension>
        </extensions>
      </trkpt>
      <trkpt lat="-22.01413049362599849700927734375" lon="166.455731950700283050537109375">
        <ele>852</ele>
        <time>2016-08-12T21:15:08.000Z</time>
        <extensions>
          <ns3:TrackPointExtension>
            <ns3:atemp>17.0</ns3:atemp>
            <ns3:hr>133</ns3:hr>
          </ns3:TrackPointExtension>
        </extensions>
      </trkpt>
      <trkpt lat="-22.014122866094112396240234375" lon="166.455752737820148468017578125">
        <ele>852.4000244140625</ele>
        <time>2016-08-12T21:15:09.000Z</time>
        <extensions>
          <ns3:TrackPointExtension>
            <ns3:atemp>17.0</ns3:atemp>
            <ns3:hr>133</ns3:hr>
          </ns3:TrackPointExtension>
        </extensions>
      </trkpt>
      <trkpt lat="-22.0141191780567169189453125" lon="166.45577251911163330078125">
        <ele>852.5999755859375</ele>
        <time>2016-08-12T21:15:10.000Z</time>
        <extensions>
          <ns3:TrackPointExtension>
            <ns3:atemp>17.0</ns3:atemp>
            <ns3:hr>133</ns3:hr>
          </ns3:TrackPointExtension>
        </extensions>
      </trkpt>
      <trkpt lat="-22.01411523856222629547119140625" lon="166.45579406060278415679931640625">
        <ele>852.79998779296875</ele>
        <time>2016-08-12T21:15:11.000Z</time>
        <extensions>
          <ns3:TrackPointExtension>
            <ns3:atemp>17.0</ns3:atemp>
            <ns3:hr>133</ns3:hr>
          </ns3:TrackPointExtension>
        </extensions>
      </trkpt>
      <trkpt lat="-22.0141210220754146575927734375" lon="166.45581652410328388214111328125">
        <ele>853.20001220703125</ele>
        <time>2016-08-12T21:15:12.000Z</time>
        <extensions>
          <ns3:TrackPointExtension>
            <ns3:atemp>17.0</ns3:atemp>
            <ns3:hr>134</ns3:hr>
          </ns3:TrackPointExtension>
        </extensions>
      </trkpt>
      <trkpt lat="-22.01412546448409557342529296875" lon="166.45583613775670528411865234375">
        <ele>853.4000244140625</ele>
        <time>2016-08-12T21:15:13.000Z</time>
        <extensions>
          <ns3:TrackPointExtension>
            <ns3:atemp>17.0</ns3:atemp>
            <ns3:hr>134</ns3:hr>
          </ns3:TrackPointExtension>
        </extensions>
      </trkpt>
      <trkpt lat="-22.01413585804402828216552734375" lon="166.45585508085787296295166015625">
        <ele>853.5999755859375</ele>
        <time>2016-08-12T21:15:14.000Z</time>
        <extensions>
          <ns3:TrackPointExtension>
            <ns3:atemp>17.0</ns3:atemp>
            <ns3:hr>135</ns3:hr>
          </ns3:TrackPointExtension>
        </extensions>
      </trkpt>
      <trkpt lat="-22.01414206065237522125244140625" lon="166.45588089711964130401611328125">
        <ele>854</ele>
        <time>2016-08-12T21:15:15.000Z</time>
        <extensions>
          <ns3:TrackPointExtension>
            <ns3:atemp>17.0</ns3:atemp>
            <ns3:hr>135</ns3:hr>
          </ns3:TrackPointExtension>
        </extensions>
      </trkpt>
      <trkpt lat="-22.014145664870738983154296875" lon="166.45590084604918956756591796875">
        <ele>854.20001220703125</ele>
        <time>2016-08-12T21:15:16.000Z</time>
        <extensions>
          <ns3:TrackPointExtension>
            <ns3:atemp>17.0</ns3:atemp>
            <ns3:hr>135</ns3:hr>
          </ns3:TrackPointExtension>
        </extensions>
      </trkpt>
      <trkpt lat="-22.01414440758526325225830078125" lon="166.45592582412064075469970703125">
        <ele>854.20001220703125</ele>
        <time>2016-08-12T21:15:17.000Z</time>
        <extensions>
          <ns3:TrackPointExtension>
            <ns3:atemp>17.0</ns3:atemp>
            <ns3:hr>136</ns3:hr>
          </ns3:TrackPointExtension>
        </extensions>
      </trkpt>
      <trkpt lat="-22.01415480114519596099853515625" lon="166.45594376139342784881591796875">
        <ele>854.4000244140625</ele>
        <time>2016-08-12T21:15:18.000Z</time>
        <extensions>
          <ns3:TrackPointExtension>
            <ns3:atemp>17.0</ns3:atemp>
            <ns3:hr>136</ns3:hr>
          </ns3:TrackPointExtension>
        </extensions>
      </trkpt>
      <trkpt lat="-22.01417257077991962432861328125" lon="166.455957256257534027099609375">
        <ele>854.5999755859375</ele>
        <time>2016-08-12T21:15:19.000Z</time>
        <extensions>
          <ns3:TrackPointExtension>
            <ns3:atemp>17.0</ns3:atemp>
            <ns3:hr>137</ns3:hr>
          </ns3:TrackPointExtension>
        </extensions>
      </trkpt>
      <trkpt lat="-22.01418682001531124114990234375" lon="166.45597611553966999053955078125">
        <ele>855</ele>
        <time>2016-08-12T21:15:20.000Z</time>
        <extensions>
          <ns3:TrackPointExtension>
            <ns3:atemp>17.0</ns3:atemp>
            <ns3:hr>137</ns3:hr>
          </ns3:TrackPointExtension>
        </extensions>
      </trkpt>
      <trkpt lat="-22.0141991414129734039306640625" lon="166.45599891431629657745361328125">
        <ele>855.20001220703125</ele>
        <time>2016-08-12T21:15:21.000Z</time>
        <extensions>
          <ns3:TrackPointExtension>
            <ns3:atemp>17.0</ns3:atemp>
            <ns3:hr>138</ns3:hr>
          </ns3:TrackPointExtension>
        </extensions>
      </trkpt>
      <trkpt lat="-22.0142085291445255279541015625" lon="166.45601986907422542572021484375">
        <ele>855.20001220703125</ele>
        <time>2016-08-12T21:15:22.000Z</time>
        <extensions>
          <ns3:TrackPointExtension>
            <ns3:atemp>17.0</ns3:atemp>
            <ns3:hr>139</ns3:hr>
          </ns3:TrackPointExtension>
        </extensions>
      </trkpt>
      <trkpt lat="-22.01421984471380710601806640625" lon="166.45604333840310573577880859375">
        <ele>855</ele>
        <time>2016-08-12T21:15:23.000Z</time>
        <extensions>
          <ns3:TrackPointExtension>
            <ns3:atemp>17.0</ns3:atemp>
            <ns3:hr>139</ns3:hr>
          </ns3:TrackPointExtension>
        </extensions>
      </trkpt>
      <trkpt lat="-22.01422940008342266082763671875" lon="166.456065885722637176513671875">
        <ele>855.20001220703125</ele>
        <time>2016-08-12T21:15:24.000Z</time>
        <extensions>
          <ns3:TrackPointExtension>
            <ns3:atemp>17.0</ns3:atemp>
            <ns3:hr>139</ns3:hr>
          </ns3:TrackPointExtension>
        </extensions>
      </trkpt>
      <trkpt lat="-22.01423342339694499969482421875" lon="166.4560908637940883636474609375">
        <ele>855.4000244140625</ele>
        <time>2016-08-12T21:15:25.000Z</time>
        <extensions>
          <ns3:TrackPointExtension>
            <ns3:atemp>17.0</ns3:atemp>
            <ns3:hr>140</ns3:hr>
          </ns3:TrackPointExtension>
        </extensions>
      </trkpt>
      <trkpt lat="-22.0142316631972789764404296875" lon="166.45611584186553955078125">
        <ele>855.4000244140625</ele>
        <time>2016-08-12T21:15:26.000Z</time>
        <extensions>
          <ns3:TrackPointExtension>
            <ns3:atemp>17.0</ns3:atemp>
            <ns3:hr>140</ns3:hr>
          </ns3:TrackPointExtension>
        </extensions>
      </trkpt>
      <trkpt lat="-22.01423107646405696868896484375" lon="166.45614408887922763824462890625">
        <ele>855.4000244140625</ele>
        <time>2016-08-12T21:15:27.000Z</time>
        <extensions>
          <ns3:TrackPointExtension>
            <ns3:atemp>17.0</ns3:atemp>
            <ns3:hr>141</ns3:hr>
          </ns3:TrackPointExtension>
        </extensions>
      </trkpt>
      <trkpt lat="-22.01423275284469127655029296875" lon="166.4561683125793933868408203125">
        <ele>855.20001220703125</ele>
        <time>2016-08-12T21:15:28.000Z</time>
        <extensions>
          <ns3:TrackPointExtension>
            <ns3:atemp>17.0</ns3:atemp>
            <ns3:hr>141</ns3:hr>
          </ns3:TrackPointExtension>
        </extensions>
      </trkpt>
      <trkpt lat="-22.0142303220927715301513671875" lon="166.45619404502213001251220703125">
        <ele>855.20001220703125</ele>
        <time>2016-08-12T21:15:29.000Z</time>
        <extensions>
          <ns3:TrackPointExtension>
            <ns3:atemp>17.0</ns3:atemp>
            <ns3:hr>141</ns3:hr>
          </ns3:TrackPointExtension>
        </extensions>
      </trkpt>
      <trkpt lat="-22.01422579586505889892578125" lon="166.45621868781745433807373046875">
        <ele>855.20001220703125</ele>
        <time>2016-08-12T21:15:30.000Z</time>
        <extensions>
          <ns3:TrackPointExtension>
            <ns3:atemp>17.0</ns3:atemp>
            <ns3:hr>142</ns3:hr>
          </ns3:TrackPointExtension>
        </extensions>
      </trkpt>
      <trkpt lat="-22.0142192579805850982666015625" lon="166.45624081604182720184326171875">
        <ele>855.20001220703125</ele>
        <time>2016-08-12T21:15:31.000Z</time>
        <extensions>
          <ns3:TrackPointExtension>
            <ns3:atemp>17.0</ns3:atemp>
            <ns3:hr>142</ns3:hr>
          </ns3:TrackPointExtension>
        </extensions>
      </trkpt>
      <trkpt lat="-22.014212049543857574462890625" lon="166.45626344718039035797119140625">
        <ele>855.4000244140625</ele>
        <time>2016-08-12T21:15:32.000Z</time>
        <extensions>
          <ns3:TrackPointExtension>
            <ns3:atemp>17.0</ns3:atemp>
            <ns3:hr>142</ns3:hr>
          </ns3:TrackPointExtension>
        </extensions>
      </trkpt>
      <trkpt lat="-22.01420173980295658111572265625" lon="166.45628415048122406005859375">
        <ele>855.5999755859375</ele>
        <time>2016-08-12T21:15:33.000Z</time>
        <extensions>
          <ns3:TrackPointExtension>
            <ns3:atemp>17.0</ns3:atemp>
            <ns3:hr>143</ns3:hr>
          </ns3:TrackPointExtension>
        </extensions>
      </trkpt>
      <trkpt lat="-22.0141889154911041259765625" lon="166.45630653016269207000732421875">
        <ele>855.4000244140625</ele>
        <time>2016-08-12T21:15:34.000Z</time>
        <extensions>
          <ns3:TrackPointExtension>
            <ns3:atemp>17.0</ns3:atemp>
            <ns3:hr>143</ns3:hr>
          </ns3:TrackPointExtension>
        </extensions>
      </trkpt>
      <trkpt lat="-22.01417458243668079376220703125" lon="166.45632580853998661041259765625">
        <ele>855.4000244140625</ele>
        <time>2016-08-12T21:15:35.000Z</time>
        <extensions>
          <ns3:TrackPointExtension>
            <ns3:atemp>17.0</ns3:atemp>
            <ns3:hr>143</ns3:hr>
          </ns3:TrackPointExtension>
        </extensions>
      </trkpt>
      <trkpt lat="-22.014157064259052276611328125" lon="166.45634408108890056610107421875">
        <ele>855.5999755859375</ele>
        <time>2016-08-12T21:15:36.000Z</time>
        <extensions>
          <ns3:TrackPointExtension>
            <ns3:atemp>17.0</ns3:atemp>
            <ns3:hr>143</ns3:hr>
          </ns3:TrackPointExtension>
        </extensions>
      </trkpt>
      <trkpt lat="-22.01413921080529689788818359375" lon="166.4563617669045925140380859375">
        <ele>855.79998779296875</ele>
        <time>2016-08-12T21:15:37.000Z</time>
        <extensions>
          <ns3:TrackPointExtension>
            <ns3:atemp>17.0</ns3:atemp>
            <ns3:hr>143</ns3:hr>
          </ns3:TrackPointExtension>
        </extensions>
      </trkpt>
      <trkpt lat="-22.0141299068927764892578125" lon="166.4563781954348087310791015625">
        <ele>855.79998779296875</ele>
        <time>2016-08-12T21:15:38.000Z</time>
        <extensions>
          <ns3:TrackPointExtension>
            <ns3:atemp>17.0</ns3:atemp>
            <ns3:hr>144</ns3:hr>
          </ns3:TrackPointExtension>
        </extensions>
      </trkpt>
      <trkpt lat="-22.01411456800997257232666015625" lon="166.45639655180275440216064453125">
        <ele>855.5999755859375</ele>
        <time>2016-08-12T21:15:39.000Z</time>
        <extensions>
          <ns3:TrackPointExtension>
            <ns3:atemp>17.0</ns3:atemp>
            <ns3:hr>143</ns3:hr>
          </ns3:TrackPointExtension>
        </extensions>
      </trkpt>
      <trkpt lat="-22.01409436762332916259765625" lon="166.45641113631427288055419921875">
        <ele>855.79998779296875</ele>
        <time>2016-08-12T21:15:40.000Z</time>
        <extensions>
          <ns3:TrackPointExtension>
            <ns3:atemp>17.0</ns3:atemp>
            <ns3:hr>144</ns3:hr>
          </ns3:TrackPointExtension>
        </extensions>
      </trkpt>
      <trkpt lat="-22.01407467015087604522705078125" lon="166.45642496645450592041015625">
        <ele>856</ele>
        <time>2016-08-12T21:15:41.000Z</time>
        <extensions>
          <ns3:TrackPointExtension>
            <ns3:atemp>17.0</ns3:atemp>
            <ns3:hr>144</ns3:hr>
          </ns3:TrackPointExtension>
        </extensions>
      </trkpt>
      <trkpt lat="-22.01405673287808895111083984375" lon="166.45644013769924640655517578125">
        <ele>856</ele>
        <time>2016-08-12T21:15:42.000Z</time>
        <extensions>
          <ns3:TrackPointExtension>
            <ns3:atemp>17.0</ns3:atemp>
            <ns3:hr>144</ns3:hr>
          </ns3:TrackPointExtension>
        </extensions>
      </trkpt>
      <trkpt lat="-22.01404030434787273406982421875" lon="166.45645321346819400787353515625">
        <ele>856</ele>
        <time>2016-08-12T21:15:43.000Z</time>
        <extensions>
          <ns3:TrackPointExtension>
            <ns3:atemp>17.0</ns3:atemp>
            <ns3:hr>144</ns3:hr>
          </ns3:TrackPointExtension>
        </extensions>
      </trkpt>
      <trkpt lat="-22.01402052305638790130615234375" lon="166.45646578632295131683349609375">
        <ele>856.20001220703125</ele>
        <time>2016-08-12T21:15:44.000Z</time>
        <extensions>
          <ns3:TrackPointExtension>
            <ns3:atemp>17.0</ns3:atemp>
            <ns3:hr>144</ns3:hr>
          </ns3:TrackPointExtension>
        </extensions>
      </trkpt>
      <trkpt lat="-22.013998813927173614501953125" lon="166.45647634752094745635986328125">
        <ele>856.20001220703125</ele>
        <time>2016-08-12T21:15:45.000Z</time>
        <extensions>
          <ns3:TrackPointExtension>
            <ns3:atemp>17.0</ns3:atemp>
            <ns3:hr>144</ns3:hr>
          </ns3:TrackPointExtension>
        </extensions>
      </trkpt>
      <trkpt lat="-22.01398171484470367431640625" lon="166.45648657344281673431396484375">
        <ele>856.20001220703125</ele>
        <time>2016-08-12T21:15:46.000Z</time>
        <extensions>
          <ns3:TrackPointExtension>
            <ns3:atemp>17.0</ns3:atemp>
            <ns3:hr>144</ns3:hr>
          </ns3:TrackPointExtension>
        </extensions>
      </trkpt>
      <trkpt lat="-22.013958580791950225830078125" lon="166.4564968831837177276611328125">
        <ele>856.20001220703125</ele>
        <time>2016-08-12T21:15:47.000Z</time>
        <extensions>
          <ns3:TrackPointExtension>
            <ns3:atemp>17.0</ns3:atemp>
            <ns3:hr>143</ns3:hr>
          </ns3:TrackPointExtension>
        </extensions>
      </trkpt>
      <trkpt lat="-22.01394206844270229339599609375" lon="166.4565113000571727752685546875">
        <ele>856.4000244140625</ele>
        <time>2016-08-12T21:15:48.000Z</time>
        <extensions>
          <ns3:TrackPointExtension>
            <ns3:atemp>17.0</ns3:atemp>
            <ns3:hr>143</ns3:hr>
          </ns3:TrackPointExtension>
        </extensions>
      </trkpt>
      <trkpt lat="-22.0139289088547229766845703125" lon="166.45653066225349903106689453125">
        <ele>856.4000244140625</ele>
        <time>2016-08-12T21:15:49.000Z</time>
        <extensions>
          <ns3:TrackPointExtension>
            <ns3:atemp>17.0</ns3:atemp>
            <ns3:hr>144</ns3:hr>
          </ns3:TrackPointExtension>
        </extensions>
      </trkpt>
      <trkpt lat="-22.01391440816223621368408203125" lon="166.4565535448491573333740234375">
        <ele>856.20001220703125</ele>
        <time>2016-08-12T21:15:50.000Z</time>
        <extensions>
          <ns3:TrackPointExtension>
            <ns3:atemp>17.0</ns3:atemp>
            <ns3:hr>143</ns3:hr>
          </ns3:TrackPointExtension>
        </extensions>
      </trkpt>
      <trkpt lat="-22.013897560536861419677734375" lon="166.45657248795032501220703125">
        <ele>856.4000244140625</ele>
        <time>2016-08-12T21:15:51.000Z</time>
        <extensions>
          <ns3:TrackPointExtension>
            <ns3:atemp>17.0</ns3:atemp>
            <ns3:hr>144</ns3:hr>
          </ns3:TrackPointExtension>
        </extensions>
      </trkpt>
      <trkpt lat="-22.0138806290924549102783203125" lon="166.456596963107585906982421875">
        <ele>856.5999755859375</ele>
        <time>2016-08-12T21:15:52.000Z</time>
        <extensions>
          <ns3:TrackPointExtension>
            <ns3:atemp>17.0</ns3:atemp>
            <ns3:hr>144</ns3:hr>
          </ns3:TrackPointExtension>
        </extensions>
      </trkpt>
      <trkpt lat="-22.01387031935155391693115234375" lon="166.456621773540973663330078125">
        <ele>856.5999755859375</ele>
        <time>2016-08-12T21:15:53.000Z</time>
        <extensions>
          <ns3:TrackPointExtension>
            <ns3:atemp>17.0</ns3:atemp>
            <ns3:hr>143</ns3:hr>
          </ns3:TrackPointExtension>
        </extensions>
      </trkpt>
      <trkpt lat="-22.01385908760130405426025390625" lon="166.4566400460898876190185546875">
        <ele>856.4000244140625</ele>
        <time>2016-08-12T21:15:54.000Z</time>
        <extensions>
          <ns3:TrackPointExtension>
            <ns3:atemp>17.0</ns3:atemp>
            <ns3:hr>144</ns3:hr>
          </ns3:TrackPointExtension>
        </extensions>
      </trkpt>
      <trkpt lat="-22.01384567655622959136962890625" lon="166.4566601626574993133544921875">
        <ele>856.79998779296875</ele>
        <time>2016-08-12T21:15:55.000Z</time>
        <extensions>
          <ns3:TrackPointExtension>
            <ns3:atemp>17.0</ns3:atemp>
            <ns3:hr>144</ns3:hr>
          </ns3:TrackPointExtension>
        </extensions>
      </trkpt>
      <trkpt lat="-22.01383327133953571319580078125" lon="166.45668002776801586151123046875">
        <ele>856.79998779296875</ele>
        <time>2016-08-12T21:15:56.000Z</time>
        <extensions>
          <ns3:TrackPointExtension>
            <ns3:atemp>17.0</ns3:atemp>
            <ns3:hr>143</ns3:hr>
          </ns3:TrackPointExtension>
        </extensions>
      </trkpt>
      <trkpt lat="-22.0138199441134929656982421875" lon="166.45670115016400814056396484375">
        <ele>856.4000244140625</ele>
        <time>2016-08-12T21:15:57.000Z</time>
        <extensions>
          <ns3:TrackPointExtension>
            <ns3:atemp>17.0</ns3:atemp>
            <ns3:hr>144</ns3:hr>
          </ns3:TrackPointExtension>
        </extensions>
      </trkpt>
      <trkpt lat="-22.013809718191623687744140625" lon="166.45672948099672794342041015625">
        <ele>856.4000244140625</ele>
        <time>2016-08-12T21:15:58.000Z</time>
        <extensions>
          <ns3:TrackPointExtension>
            <ns3:atemp>17.0</ns3:atemp>
            <ns3:hr>144</ns3:hr>
          </ns3:TrackPointExtension>
        </extensions>
      </trkpt>
      <trkpt lat="-22.013798654079437255859375" lon="166.4567540399730205535888671875">
        <ele>856.4000244140625</ele>
        <time>2016-08-12T21:15:59.000Z</time>
        <extensions>
          <ns3:TrackPointExtension>
            <ns3:atemp>17.0</ns3:atemp>
            <ns3:hr>143</ns3:hr>
          </ns3:TrackPointExtension>
        </extensions>
      </trkpt>
      <trkpt lat="-22.013788260519504547119140625" lon="166.45677776075899600982666015625">
        <ele>856.20001220703125</ele>
        <time>2016-08-12T21:16:00.000Z</time>
        <extensions>
          <ns3:TrackPointExtension>
            <ns3:atemp>17.0</ns3:atemp>
            <ns3:hr>144</ns3:hr>
          </ns3:TrackPointExtension>
        </extensions>
      </trkpt>
      <trkpt lat="-22.01377593912184238433837890625" lon="166.45680089481174945831298828125">
        <ele>855.79998779296875</ele>
        <time>2016-08-12T21:16:01.000Z</time>
        <extensions>
          <ns3:TrackPointExtension>
            <ns3:atemp>17.0</ns3:atemp>
            <ns3:hr>144</ns3:hr>
          </ns3:TrackPointExtension>
        </extensions>
      </trkpt>
      <trkpt lat="-22.0137686468660831451416015625" lon="166.456822268664836883544921875">
        <ele>856</ele>
        <time>2016-08-12T21:16:02.000Z</time>
        <extensions>
          <ns3:TrackPointExtension>
            <ns3:atemp>17.0</ns3:atemp>
            <ns3:hr>143</ns3:hr>
          </ns3:TrackPointExtension>
        </extensions>
      </trkpt>
      <trkpt lat="-22.01375850476324558258056640625" lon="166.456847079098224639892578125">
        <ele>856</ele>
        <time>2016-08-12T21:16:03.000Z</time>
        <extensions>
          <ns3:TrackPointExtension>
            <ns3:atemp>17.0</ns3:atemp>
            <ns3:hr>143</ns3:hr>
          </ns3:TrackPointExtension>
        </extensions>
      </trkpt>
      <trkpt lat="-22.01374827884137630462646484375" lon="166.45687130279839038848876953125">
        <ele>855.79998779296875</ele>
        <time>2016-08-12T21:16:04.000Z</time>
        <extensions>
          <ns3:TrackPointExtension>
            <ns3:atemp>17.0</ns3:atemp>
            <ns3:hr>143</ns3:hr>
          </ns3:TrackPointExtension>
        </extensions>
      </trkpt>
      <trkpt lat="-22.013734616339206695556640625" lon="166.456893347203731536865234375">
        <ele>855.5999755859375</ele>
        <time>2016-08-12T21:16:05.000Z</time>
        <extensions>
          <ns3:TrackPointExtension>
            <ns3:atemp>17.0</ns3:atemp>
            <ns3:hr>143</ns3:hr>
          </ns3:TrackPointExtension>
        </extensions>
      </trkpt>
      <trkpt lat="-22.01371894218027591705322265625" lon="166.4569159783422946929931640625">
        <ele>855.79998779296875</ele>
        <time>2016-08-12T21:16:06.000Z</time>
        <extensions>
          <ns3:TrackPointExtension>
            <ns3:atemp>17.0</ns3:atemp>
            <ns3:hr>143</ns3:hr>
          </ns3:TrackPointExtension>
        </extensions>
      </trkpt>
      <trkpt lat="-22.0137032680213451385498046875" lon="166.4569365978240966796875">
        <ele>855.79998779296875</ele>
        <time>2016-08-12T21:16:07.000Z</time>
        <extensions>
          <ns3:TrackPointExtension>
            <ns3:atemp>17.0</ns3:atemp>
            <ns3:hr>143</ns3:hr>
          </ns3:TrackPointExtension>
        </extensions>
      </trkpt>
      <trkpt lat="-22.01369203627109527587890625" lon="166.456962414085865020751953125">
        <ele>855.5999755859375</ele>
        <time>2016-08-12T21:16:08.000Z</time>
        <extensions>
          <ns3:TrackPointExtension>
            <ns3:atemp>17.0</ns3:atemp>
            <ns3:hr>143</ns3:hr>
          </ns3:TrackPointExtension>
        </extensions>
      </trkpt>
      <trkpt lat="-22.01368222944438457489013671875" lon="166.4569883979856967926025390625">
        <ele>855.5999755859375</ele>
        <time>2016-08-12T21:16:09.000Z</time>
        <extensions>
          <ns3:TrackPointExtension>
            <ns3:atemp>17.0</ns3:atemp>
            <ns3:hr>143</ns3:hr>
          </ns3:TrackPointExtension>
        </extensions>
      </trkpt>
      <trkpt lat="-22.01366764493286609649658203125" lon="166.457014381885528564453125">
        <ele>855.79998779296875</ele>
        <time>2016-08-12T21:16:10.000Z</time>
        <extensions>
          <ns3:TrackPointExtension>
            <ns3:atemp>17.0</ns3:atemp>
            <ns3:hr>143</ns3:hr>
          </ns3:TrackPointExtension>
        </extensions>
      </trkpt>
      <trkpt lat="-22.01364819891750812530517578125" lon="166.45703709684312343597412109375">
        <ele>855.79998779296875</ele>
        <time>2016-08-12T21:16:11.000Z</time>
        <extensions>
          <ns3:TrackPointExtension>
            <ns3:atemp>17.0</ns3:atemp>
            <ns3:hr>143</ns3:hr>
          </ns3:TrackPointExtension>
        </extensions>
      </trkpt>
      <trkpt lat="-22.013630680739879608154296875" lon="166.4570547826588153839111328125">
        <ele>855.5999755859375</ele>
        <time>2016-08-12T21:16:12.000Z</time>
        <extensions>
          <ns3:TrackPointExtension>
            <ns3:atemp>17.0</ns3:atemp>
            <ns3:hr>142</ns3:hr>
          </ns3:TrackPointExtension>
        </extensions>
      </trkpt>
      <trkpt lat="-22.01360980980098247528076171875" lon="166.4570722170174121856689453125">
        <ele>855.5999755859375</ele>
        <time>2016-08-12T21:16:13.000Z</time>
        <extensions>
          <ns3:TrackPointExtension>
            <ns3:atemp>17.0</ns3:atemp>
            <ns3:hr>142</ns3:hr>
          </ns3:TrackPointExtension>
        </extensions>
      </trkpt>
      <trkpt lat="-22.0135916210711002349853515625" lon="166.457089148461818695068359375">
        <ele>856</ele>
        <time>2016-08-12T21:16:14.000Z</time>
        <extensions>
          <ns3:TrackPointExtension>
            <ns3:atemp>17.0</ns3:atemp>
            <ns3:hr>142</ns3:hr>
          </ns3:TrackPointExtension>
        </extensions>
      </trkpt>
      <trkpt lat="-22.01357536017894744873046875" lon="166.45710515789687633514404296875">
        <ele>856.20001220703125</ele>
        <time>2016-08-12T21:16:15.000Z</time>
        <extensions>
          <ns3:TrackPointExtension>
            <ns3:atemp>17.0</ns3:atemp>
            <ns3:hr>142</ns3:hr>
          </ns3:TrackPointExtension>
        </extensions>
      </trkpt>
      <trkpt lat="-22.013554908335208892822265625" lon="166.45712125115096569061279296875">
        <ele>856</ele>
        <time>2016-08-12T21:16:16.000Z</time>
        <extensions>
          <ns3:TrackPointExtension>
            <ns3:atemp>17.0</ns3:atemp>
            <ns3:hr>142</ns3:hr>
          </ns3:TrackPointExtension>
        </extensions>
      </trkpt>
      <trkpt lat="-22.01353319920599460601806640625" lon="166.4571342431008815765380859375">
        <ele>855.79998779296875</ele>
        <time>2016-08-12T21:16:17.000Z</time>
        <extensions>
          <ns3:TrackPointExtension>
            <ns3:atemp>17.0</ns3:atemp>
            <ns3:hr>142</ns3:hr>
          </ns3:TrackPointExtension>
        </extensions>
      </trkpt>
      <trkpt lat="-22.0135101489722728729248046875" lon="166.45714622922241687774658203125">
        <ele>856</ele>
        <time>2016-08-12T21:16:18.000Z</time>
        <extensions>
          <ns3:TrackPointExtension>
            <ns3:atemp>17.0</ns3:atemp>
            <ns3:hr>142</ns3:hr>
          </ns3:TrackPointExtension>
        </extensions>
      </trkpt>
      <trkpt lat="-22.0134834945201873779296875" lon="166.45715578459203243255615234375">
        <ele>856.20001220703125</ele>
        <time>2016-08-12T21:16:19.000Z</time>
        <extensions>
          <ns3:TrackPointExtension>
            <ns3:atemp>17.0</ns3:atemp>
            <ns3:hr>141</ns3:hr>
          </ns3:TrackPointExtension>
        </extensions>
      </trkpt>
      <trkpt lat="-22.013459689915180206298828125" lon="166.45716483704745769500732421875">
        <ele>856.20001220703125</ele>
        <time>2016-08-12T21:16:20.000Z</time>
        <extensions>
          <ns3:TrackPointExtension>
            <ns3:atemp>17.0</ns3:atemp>
            <ns3:hr>141</ns3:hr>
          </ns3:TrackPointExtension>
        </extensions>
      </trkpt>
      <trkpt lat="-22.013441585004329681396484375" lon="166.4571798406541347503662109375">
        <ele>856</ele>
        <time>2016-08-12T21:16:21.000Z</time>
        <extensions>
          <ns3:TrackPointExtension>
            <ns3:atemp>17.0</ns3:atemp>
            <ns3:hr>141</ns3:hr>
          </ns3:TrackPointExtension>
        </extensions>
      </trkpt>
      <trkpt lat="-22.01342708431184291839599609375" lon="166.45719467662274837493896484375">
        <ele>856</ele>
        <time>2016-08-12T21:16:22.000Z</time>
        <extensions>
          <ns3:TrackPointExtension>
            <ns3:atemp>17.0</ns3:atemp>
            <ns3:hr>141</ns3:hr>
          </ns3:TrackPointExtension>
        </extensions>
      </trkpt>
      <trkpt lat="-22.01340931467711925506591796875" lon="166.4572116918861865997314453125">
        <ele>856.20001220703125</ele>
        <time>2016-08-12T21:16:23.000Z</time>
        <extensions>
          <ns3:TrackPointExtension>
            <ns3:atemp>17.0</ns3:atemp>
            <ns3:hr>141</ns3:hr>
          </ns3:TrackPointExtension>
        </extensions>
      </trkpt>
      <trkpt lat="-22.01338936574757099151611328125" lon="166.45722786895930767059326171875">
        <ele>856.20001220703125</ele>
        <time>2016-08-12T21:16:24.000Z</time>
        <extensions>
          <ns3:TrackPointExtension>
            <ns3:atemp>17.0</ns3:atemp>
            <ns3:hr>141</ns3:hr>
          </ns3:TrackPointExtension>
        </extensions>
      </trkpt>
      <trkpt lat="-22.0133763737976551055908203125" lon="166.4572438783943653106689453125">
        <ele>856.20001220703125</ele>
        <time>2016-08-12T21:16:25.000Z</time>
        <extensions>
          <ns3:TrackPointExtension>
            <ns3:atemp>17.0</ns3:atemp>
            <ns3:hr>141</ns3:hr>
          </ns3:TrackPointExtension>
        </extensions>
      </trkpt>
      <trkpt lat="-22.0133569277822971343994140625" lon="166.457260139286518096923828125">
        <ele>856.5999755859375</ele>
        <time>2016-08-12T21:16:26.000Z</time>
        <extensions>
          <ns3:TrackPointExtension>
            <ns3:atemp>17.0</ns3:atemp>
            <ns3:hr>141</ns3:hr>
          </ns3:TrackPointExtension>
        </extensions>
      </trkpt>
      <trkpt lat="-22.013339996337890625" lon="166.4572780765593051910400390625">
        <ele>856.5999755859375</ele>
        <time>2016-08-12T21:16:27.000Z</time>
        <extensions>
          <ns3:TrackPointExtension>
            <ns3:atemp>17.0</ns3:atemp>
            <ns3:hr>140</ns3:hr>
          </ns3:TrackPointExtension>
        </extensions>
      </trkpt>
      <trkpt lat="-22.0133267529308795928955078125" lon="166.457297690212726593017578125">
        <ele>856.4000244140625</ele>
        <time>2016-08-12T21:16:28.000Z</time>
        <extensions>
          <ns3:TrackPointExtension>
            <ns3:atemp>17.0</ns3:atemp>
            <ns3:hr>140</ns3:hr>
          </ns3:TrackPointExtension>
        </extensions>
      </trkpt>
      <trkpt lat="-22.01331191696226596832275390625" lon="166.45731738768517971038818359375">
        <ele>856.4000244140625</ele>
        <time>2016-08-12T21:16:29.000Z</time>
        <extensions>
          <ns3:TrackPointExtension>
            <ns3:atemp>17.0</ns3:atemp>
            <ns3:hr>140</ns3:hr>
          </ns3:TrackPointExtension>
        </extensions>
      </trkpt>
      <trkpt lat="-22.0132972486317157745361328125" lon="166.45733767189085483551025390625">
        <ele>856.79998779296875</ele>
        <time>2016-08-12T21:16:30.000Z</time>
        <extensions>
          <ns3:TrackPointExtension>
            <ns3:atemp>17.0</ns3:atemp>
            <ns3:hr>140</ns3:hr>
          </ns3:TrackPointExtension>
        </extensions>
      </trkpt>
      <trkpt lat="-22.01328425668179988861083984375" lon="166.4573588781058788299560546875">
        <ele>856.79998779296875</ele>
        <time>2016-08-12T21:16:31.000Z</time>
        <extensions>
          <ns3:TrackPointExtension>
            <ns3:atemp>17.0</ns3:atemp>
            <ns3:hr>140</ns3:hr>
          </ns3:TrackPointExtension>
        </extensions>
      </trkpt>
      <trkpt lat="-22.01327537186443805694580078125" lon="166.45738461054861545562744140625">
        <ele>856.4000244140625</ele>
        <time>2016-08-12T21:16:32.000Z</time>
        <extensions>
          <ns3:TrackPointExtension>
            <ns3:atemp>17.0</ns3:atemp>
            <ns3:hr>140</ns3:hr>
          </ns3:TrackPointExtension>
        </extensions>
      </trkpt>
      <trkpt lat="-22.01325894333422183990478515625" lon="166.45740338601171970367431640625">
        <ele>856.20001220703125</ele>
        <time>2016-08-12T21:16:33.000Z</time>
        <extensions>
          <ns3:TrackPointExtension>
            <ns3:atemp>17.0</ns3:atemp>
            <ns3:hr>140</ns3:hr>
          </ns3:TrackPointExtension>
        </extensions>
      </trkpt>
      <trkpt lat="-22.01324117369949817657470703125" lon="166.45741780288517475128173828125">
        <ele>856.4000244140625</ele>
        <time>2016-08-12T21:16:34.000Z</time>
        <extensions>
          <ns3:TrackPointExtension>
            <ns3:atemp>17.0</ns3:atemp>
            <ns3:hr>140</ns3:hr>
          </ns3:TrackPointExtension>
        </extensions>
      </trkpt>
      <trkpt lat="-22.01322541572153568267822265625" lon="166.45743372850120067596435546875">
        <ele>856.4000244140625</ele>
        <time>2016-08-12T21:16:35.000Z</time>
        <extensions>
          <ns3:TrackPointExtension>
            <ns3:atemp>17.0</ns3:atemp>
            <ns3:hr>140</ns3:hr>
          </ns3:TrackPointExtension>
        </extensions>
      </trkpt>
      <trkpt lat="-22.01321125030517578125" lon="166.457449235022068023681640625">
        <ele>856.4000244140625</ele>
        <time>2016-08-12T21:16:36.000Z</time>
        <extensions>
          <ns3:TrackPointExtension>
            <ns3:atemp>17.0</ns3:atemp>
            <ns3:hr>139</ns3:hr>
          </ns3:TrackPointExtension>
        </extensions>
      </trkpt>
      <trkpt lat="-22.01319674961268901824951171875" lon="166.45746356807649135589599609375">
        <ele>856.4000244140625</ele>
        <time>2016-08-12T21:16:37.000Z</time>
        <extensions>
          <ns3:TrackPointExtension>
            <ns3:atemp>17.0</ns3:atemp>
            <ns3:hr>139</ns3:hr>
          </ns3:TrackPointExtension>
        </extensions>
      </trkpt>
      <trkpt lat="-22.0131872780621051788330078125" lon="166.4574846066534519195556640625">
        <ele>856.4000244140625</ele>
        <time>2016-08-12T21:16:38.000Z</time>
        <extensions>
          <ns3:TrackPointExtension>
            <ns3:atemp>17.0</ns3:atemp>
            <ns3:hr>139</ns3:hr>
          </ns3:TrackPointExtension>
        </extensions>
      </trkpt>
      <trkpt lat="-22.01318132691085338592529296875" lon="166.457509584724903106689453125">
        <ele>856.4000244140625</ele>
        <time>2016-08-12T21:16:39.000Z</time>
        <extensions>
          <ns3:TrackPointExtension>
            <ns3:atemp>17.0</ns3:atemp>
            <ns3:hr>139</ns3:hr>
          </ns3:TrackPointExtension>
        </extensions>
      </trkpt>
      <trkpt lat="-22.01317244209349155426025390625" lon="166.4575318805873394012451171875">
        <ele>856.20001220703125</ele>
        <time>2016-08-12T21:16:40.000Z</time>
        <extensions>
          <ns3:TrackPointExtension>
            <ns3:atemp>17.0</ns3:atemp>
            <ns3:hr>139</ns3:hr>
          </ns3:TrackPointExtension>
        </extensions>
      </trkpt>
      <trkpt lat="-22.013161964714527130126953125" lon="166.4575523324310779571533203125">
        <ele>856.4000244140625</ele>
        <time>2016-08-12T21:16:41.000Z</time>
        <extensions>
          <ns3:TrackPointExtension>
            <ns3:atemp>17.0</ns3:atemp>
            <ns3:hr>139</ns3:hr>
          </ns3:TrackPointExtension>
        </extensions>
      </trkpt>
      <trkpt lat="-22.01314754784107208251953125" lon="166.45757487975060939788818359375">
        <ele>856.4000244140625</ele>
        <time>2016-08-12T21:16:42.000Z</time>
        <extensions>
          <ns3:TrackPointExtension>
            <ns3:atemp>17.0</ns3:atemp>
            <ns3:hr>139</ns3:hr>
          </ns3:TrackPointExtension>
        </extensions>
      </trkpt>
      <trkpt lat="-22.01313690282404422760009765625" lon="166.4575975947082042694091796875">
        <ele>856.20001220703125</ele>
        <time>2016-08-12T21:16:43.000Z</time>
        <extensions>
          <ns3:TrackPointExtension>
            <ns3:atemp>17.0</ns3:atemp>
            <ns3:hr>139</ns3:hr>
          </ns3:TrackPointExtension>
        </extensions>
      </trkpt>
      <trkpt lat="-22.01312567107379436492919921875" lon="166.457620561122894287109375">
        <ele>856.20001220703125</ele>
        <time>2016-08-12T21:16:44.000Z</time>
        <extensions>
          <ns3:TrackPointExtension>
            <ns3:atemp>17.0</ns3:atemp>
            <ns3:hr>139</ns3:hr>
          </ns3:TrackPointExtension>
        </extensions>
      </trkpt>
      <trkpt lat="-22.0131175406277179718017578125" lon="166.45764461718499660491943359375">
        <ele>856.4000244140625</ele>
        <time>2016-08-12T21:16:45.000Z</time>
        <extensions>
          <ns3:TrackPointExtension>
            <ns3:atemp>17.0</ns3:atemp>
            <ns3:hr>139</ns3:hr>
          </ns3:TrackPointExtension>
        </extensions>
      </trkpt>
      <trkpt lat="-22.01310371048748493194580078125" lon="166.4576648175716400146484375">
        <ele>856.4000244140625</ele>
        <time>2016-08-12T21:16:46.000Z</time>
        <extensions>
          <ns3:TrackPointExtension>
            <ns3:atemp>17.0</ns3:atemp>
            <ns3:hr>138</ns3:hr>
          </ns3:TrackPointExtension>
        </extensions>
      </trkpt>
      <trkpt lat="-22.01308912597596645355224609375" lon="166.45768501795828342437744140625">
        <ele>856.20001220703125</ele>
        <time>2016-08-12T21:16:47.000Z</time>
        <extensions>
          <ns3:TrackPointExtension>
            <ns3:atemp>17.0</ns3:atemp>
            <ns3:hr>138</ns3:hr>
          </ns3:TrackPointExtension>
        </extensions>
      </trkpt>
      <trkpt lat="-22.01307822950184345245361328125" lon="166.457708068192005157470703125">
        <ele>856.20001220703125</ele>
        <time>2016-08-12T21:16:48.000Z</time>
        <extensions>
          <ns3:TrackPointExtension>
            <ns3:atemp>17.0</ns3:atemp>
            <ns3:hr>138</ns3:hr>
          </ns3:TrackPointExtension>
        </extensions>
      </trkpt>
      <trkpt lat="-22.01306599192321300506591796875" lon="166.4577291905879974365234375">
        <ele>856.4000244140625</ele>
        <time>2016-08-12T21:16:49.000Z</time>
        <extensions>
          <ns3:TrackPointExtension>
            <ns3:atemp>17.0</ns3:atemp>
            <ns3:hr>138</ns3:hr>
          </ns3:TrackPointExtension>
        </extensions>
      </trkpt>
      <trkpt lat="-22.01305358670651912689208984375" lon="166.45774905569851398468017578125">
        <ele>856.20001220703125</ele>
        <time>2016-08-12T21:16:50.000Z</time>
        <extensions>
          <ns3:TrackPointExtension>
            <ns3:atemp>17.0</ns3:atemp>
            <ns3:hr>138</ns3:hr>
          </ns3:TrackPointExtension>
        </extensions>
      </trkpt>
      <trkpt lat="-22.01304134912788867950439453125" lon="166.4577699266374111175537109375">
        <ele>856.20001220703125</ele>
        <time>2016-08-12T21:16:51.000Z</time>
        <extensions>
          <ns3:TrackPointExtension>
            <ns3:atemp>17.0</ns3:atemp>
            <ns3:hr>138</ns3:hr>
          </ns3:TrackPointExtension>
        </extensions>
      </trkpt>
      <trkpt lat="-22.01302550733089447021484375" lon="166.45779096521437168121337890625">
        <ele>856.4000244140625</ele>
        <time>2016-08-12T21:16:52.000Z</time>
        <extensions>
          <ns3:TrackPointExtension>
            <ns3:atemp>17.0</ns3:atemp>
            <ns3:hr>138</ns3:hr>
          </ns3:TrackPointExtension>
        </extensions>
      </trkpt>
      <trkpt lat="-22.013007737696170806884765625" lon="166.4578135125339031219482421875">
        <ele>856.4000244140625</ele>
        <time>2016-08-12T21:16:53.000Z</time>
        <extensions>
          <ns3:TrackPointExtension>
            <ns3:atemp>17.0</ns3:atemp>
            <ns3:hr>138</ns3:hr>
          </ns3:TrackPointExtension>
        </extensions>
      </trkpt>
      <trkpt lat="-22.01299608685076236724853515625" lon="166.4578369818627834320068359375">
        <ele>856.20001220703125</ele>
        <time>2016-08-12T21:16:54.000Z</time>
        <extensions>
          <ns3:TrackPointExtension>
            <ns3:atemp>18.0</ns3:atemp>
            <ns3:hr>138</ns3:hr>
          </ns3:TrackPointExtension>
        </extensions>
      </trkpt>
      <trkpt lat="-22.0129914768040180206298828125" lon="166.45786640234291553497314453125">
        <ele>856.4000244140625</ele>
        <time>2016-08-12T21:16:55.000Z</time>
        <extensions>
          <ns3:TrackPointExtension>
            <ns3:atemp>18.0</ns3:atemp>
            <ns3:hr>138</ns3:hr>
          </ns3:TrackPointExtension>
        </extensions>
      </trkpt>
      <trkpt lat="-22.01298535801470279693603515625" lon="166.45789406262338161468505859375">
        <ele>856.79998779296875</ele>
        <time>2016-08-12T21:16:56.000Z</time>
        <extensions>
          <ns3:TrackPointExtension>
            <ns3:atemp>18.0</ns3:atemp>
            <ns3:hr>138</ns3:hr>
          </ns3:TrackPointExtension>
        </extensions>
      </trkpt>
      <trkpt lat="-22.01297848485410213470458984375" lon="166.45791987888514995574951171875">
        <ele>856.79998779296875</ele>
        <time>2016-08-12T21:16:57.000Z</time>
        <extensions>
          <ns3:TrackPointExtension>
            <ns3:atemp>18.0</ns3:atemp>
            <ns3:hr>138</ns3:hr>
          </ns3:TrackPointExtension>
        </extensions>
      </trkpt>
      <trkpt lat="-22.01296909712255001068115234375" lon="166.457946114242076873779296875">
        <ele>856.5999755859375</ele>
        <time>2016-08-12T21:16:58.000Z</time>
        <extensions>
          <ns3:TrackPointExtension>
            <ns3:atemp>18.0</ns3:atemp>
            <ns3:hr>138</ns3:hr>
          </ns3:TrackPointExtension>
        </extensions>
      </trkpt>
      <trkpt lat="-22.01295853592455387115478515625" lon="166.457970924675464630126953125">
        <ele>856.5999755859375</ele>
        <time>2016-08-12T21:16:59.000Z</time>
        <extensions>
          <ns3:TrackPointExtension>
            <ns3:atemp>18.0</ns3:atemp>
            <ns3:hr>138</ns3:hr>
          </ns3:TrackPointExtension>
        </extensions>
      </trkpt>
      <trkpt lat="-22.01294881291687488555908203125" lon="166.457998417317867279052734375">
        <ele>857.20001220703125</ele>
        <time>2016-08-12T21:17:00.000Z</time>
        <extensions>
          <ns3:TrackPointExtension>
            <ns3:atemp>18.0</ns3:atemp>
            <ns3:hr>138</ns3:hr>
          </ns3:TrackPointExtension>
        </extensions>
      </trkpt>
      <trkpt lat="-22.0129455439746379852294921875" lon="166.4580287598073482513427734375">
        <ele>857.20001220703125</ele>
        <time>2016-08-12T21:17:01.000Z</time>
        <extensions>
          <ns3:TrackPointExtension>
            <ns3:atemp>18.0</ns3:atemp>
            <ns3:hr>138</ns3:hr>
          </ns3:TrackPointExtension>
        </extensions>
      </trkpt>
      <trkpt lat="-22.0129470527172088623046875" lon="166.458056755363941192626953125">
        <ele>857</ele>
        <time>2016-08-12T21:17:02.000Z</time>
        <extensions>
          <ns3:TrackPointExtension>
            <ns3:atemp>18.0</ns3:atemp>
            <ns3:hr>139</ns3:hr>
          </ns3:TrackPointExtension>
        </extensions>
      </trkpt>
      <trkpt lat="-22.01295065693557262420654296875" lon="166.4580834098160266876220703125">
        <ele>857.4000244140625</ele>
        <time>2016-08-12T21:17:03.000Z</time>
        <extensions>
          <ns3:TrackPointExtension>
            <ns3:atemp>18.0</ns3:atemp>
            <ns3:hr>139</ns3:hr>
          </ns3:TrackPointExtension>
        </extensions>
      </trkpt>
      <trkpt lat="-22.01294579543173313140869140625" lon="166.45810805261135101318359375">
        <ele>857.5999755859375</ele>
        <time>2016-08-12T21:17:04.000Z</time>
        <extensions>
          <ns3:TrackPointExtension>
            <ns3:atemp>18.0</ns3:atemp>
            <ns3:hr>139</ns3:hr>
          </ns3:TrackPointExtension>
        </extensions>
      </trkpt>
      <trkpt lat="-22.01294059865176677703857421875" lon="166.458135880529880523681640625">
        <ele>857.5999755859375</ele>
        <time>2016-08-12T21:17:05.000Z</time>
        <extensions>
          <ns3:TrackPointExtension>
            <ns3:atemp>18.0</ns3:atemp>
            <ns3:hr>139</ns3:hr>
          </ns3:TrackPointExtension>
        </extensions>
      </trkpt>
      <trkpt lat="-22.012931294739246368408203125" lon="166.4581625349819660186767578125">
        <ele>857.5999755859375</ele>
        <time>2016-08-12T21:17:06.000Z</time>
        <extensions>
          <ns3:TrackPointExtension>
            <ns3:atemp>18.0</ns3:atemp>
            <ns3:hr>139</ns3:hr>
          </ns3:TrackPointExtension>
        </extensions>
      </trkpt>
      <trkpt lat="-22.012924589216709136962890625" lon="166.45818642340600490570068359375">
        <ele>857.79998779296875</ele>
        <time>2016-08-12T21:17:07.000Z</time>
        <extensions>
          <ns3:TrackPointExtension>
            <ns3:atemp>18.0</ns3:atemp>
            <ns3:hr>139</ns3:hr>
          </ns3:TrackPointExtension>
        </extensions>
      </trkpt>
      <trkpt lat="-22.01291528530418872833251953125" lon="166.45820821635425090789794921875">
        <ele>858</ele>
        <time>2016-08-12T21:17:08.000Z</time>
        <extensions>
          <ns3:TrackPointExtension>
            <ns3:atemp>18.0</ns3:atemp>
            <ns3:hr>139</ns3:hr>
          </ns3:TrackPointExtension>
        </extensions>
      </trkpt>
      <trkpt lat="-22.01290539465844631195068359375" lon="166.45823009312152862548828125">
        <ele>857.79998779296875</ele>
        <time>2016-08-12T21:17:09.000Z</time>
        <extensions>
          <ns3:TrackPointExtension>
            <ns3:atemp>18.0</ns3:atemp>
            <ns3:hr>140</ns3:hr>
          </ns3:TrackPointExtension>
        </extensions>
      </trkpt>
      <trkpt lat="-22.01289919205009937286376953125" lon="166.45825280807912349700927734375">
        <ele>858</ele>
        <time>2016-08-12T21:17:10.000Z</time>
        <extensions>
          <ns3:TrackPointExtension>
            <ns3:atemp>18.0</ns3:atemp>
            <ns3:hr>140</ns3:hr>
          </ns3:TrackPointExtension>
        </extensions>
      </trkpt>
      <trkpt lat="-22.01288980431854724884033203125" lon="166.458275355398654937744140625">
        <ele>858.20001220703125</ele>
        <time>2016-08-12T21:17:11.000Z</time>
        <extensions>
          <ns3:TrackPointExtension>
            <ns3:atemp>18.0</ns3:atemp>
            <ns3:hr>140</ns3:hr>
          </ns3:TrackPointExtension>
        </extensions>
      </trkpt>
      <trkpt lat="-22.01287932693958282470703125" lon="166.45829790271818637847900390625">
        <ele>858.20001220703125</ele>
        <time>2016-08-12T21:17:12.000Z</time>
        <extensions>
          <ns3:TrackPointExtension>
            <ns3:atemp>18.0</ns3:atemp>
            <ns3:hr>140</ns3:hr>
          </ns3:TrackPointExtension>
        </extensions>
      </trkpt>
      <trkpt lat="-22.0128717832267284393310546875" lon="166.45831785164773464202880859375">
        <ele>858.20001220703125</ele>
        <time>2016-08-12T21:17:13.000Z</time>
        <extensions>
          <ns3:TrackPointExtension>
            <ns3:atemp>18.0</ns3:atemp>
            <ns3:hr>140</ns3:hr>
          </ns3:TrackPointExtension>
        </extensions>
      </trkpt>
      <trkpt lat="-22.01286599971354007720947265625" lon="166.45834081806242465972900390625">
        <ele>858.4000244140625</ele>
        <time>2016-08-12T21:17:14.000Z</time>
        <extensions>
          <ns3:TrackPointExtension>
            <ns3:atemp>18.0</ns3:atemp>
            <ns3:hr>140</ns3:hr>
          </ns3:TrackPointExtension>
        </extensions>
      </trkpt>
      <trkpt lat="-22.01285962946712970733642578125" lon="166.4583623595535755157470703125">
        <ele>858.5999755859375</ele>
        <time>2016-08-12T21:17:15.000Z</time>
        <extensions>
          <ns3:TrackPointExtension>
            <ns3:atemp>18.0</ns3:atemp>
            <ns3:hr>141</ns3:hr>
          </ns3:TrackPointExtension>
        </extensions>
      </trkpt>
      <trkpt lat="-22.01284672133624553680419921875" lon="166.458387672901153564453125">
        <ele>858.4000244140625</ele>
        <time>2016-08-12T21:17:16.000Z</time>
        <extensions>
          <ns3:TrackPointExtension>
            <ns3:atemp>18.0</ns3:atemp>
            <ns3:hr>141</ns3:hr>
          </ns3:TrackPointExtension>
        </extensions>
      </trkpt>
      <trkpt lat="-22.01283079572021961212158203125" lon="166.45841441117227077484130859375">
        <ele>858.5999755859375</ele>
        <time>2016-08-12T21:17:17.000Z</time>
        <extensions>
          <ns3:TrackPointExtension>
            <ns3:atemp>18.0</ns3:atemp>
            <ns3:hr>141</ns3:hr>
          </ns3:TrackPointExtension>
        </extensions>
      </trkpt>
      <trkpt lat="-22.01282836496829986572265625" lon="166.45844198763370513916015625">
        <ele>858.5999755859375</ele>
        <time>2016-08-12T21:17:18.000Z</time>
        <extensions>
          <ns3:TrackPointExtension>
            <ns3:atemp>17.0</ns3:atemp>
            <ns3:hr>141</ns3:hr>
          </ns3:TrackPointExtension>
        </extensions>
      </trkpt>
      <trkpt lat="-22.01282300055027008056640625" lon="166.4584667980670928955078125">
        <ele>858.4000244140625</ele>
        <time>2016-08-12T21:17:19.000Z</time>
        <extensions>
          <ns3:TrackPointExtension>
            <ns3:atemp>17.0</ns3:atemp>
            <ns3:hr>141</ns3:hr>
          </ns3:TrackPointExtension>
        </extensions>
      </trkpt>
      <trkpt lat="-22.0128154568374156951904296875" lon="166.45849118940532207489013671875">
        <ele>858.20001220703125</ele>
        <time>2016-08-12T21:17:20.000Z</time>
        <extensions>
          <ns3:TrackPointExtension>
            <ns3:atemp>17.0</ns3:atemp>
            <ns3:hr>141</ns3:hr>
          </ns3:TrackPointExtension>
        </extensions>
      </trkpt>
      <trkpt lat="-22.0128121040761470794677734375" lon="166.4585135690867900848388671875">
        <ele>858</ele>
        <time>2016-08-12T21:17:21.000Z</time>
        <extensions>
          <ns3:TrackPointExtension>
            <ns3:atemp>17.0</ns3:atemp>
            <ns3:hr>141</ns3:hr>
          </ns3:TrackPointExtension>
        </extensions>
      </trkpt>
      <trkpt lat="-22.01280632056295871734619140625" lon="166.45853695459663867950439453125">
        <ele>858</ele>
        <time>2016-08-12T21:17:22.000Z</time>
        <extensions>
          <ns3:TrackPointExtension>
            <ns3:atemp>17.0</ns3:atemp>
            <ns3:hr>141</ns3:hr>
          </ns3:TrackPointExtension>
        </extensions>
      </trkpt>
      <trkpt lat="-22.0127960108220577239990234375" lon="166.45856008864939212799072265625">
        <ele>858</ele>
        <time>2016-08-12T21:17:23.000Z</time>
        <extensions>
          <ns3:TrackPointExtension>
            <ns3:atemp>17.0</ns3:atemp>
            <ns3:hr>141</ns3:hr>
          </ns3:TrackPointExtension>
        </extensions>
      </trkpt>
      <trkpt lat="-22.0127941668033599853515625" lon="166.4585809595882892608642578125">
        <ele>858</ele>
        <time>2016-08-12T21:17:24.000Z</time>
        <extensions>
          <ns3:TrackPointExtension>
            <ns3:atemp>17.0</ns3:atemp>
            <ns3:hr>141</ns3:hr>
          </ns3:TrackPointExtension>
        </extensions>
      </trkpt>
      <trkpt lat="-22.0127926580607891082763671875" lon="166.458605937659740447998046875">
        <ele>857.79998779296875</ele>
        <time>2016-08-12T21:17:25.000Z</time>
        <extensions>
          <ns3:TrackPointExtension>
            <ns3:atemp>17.0</ns3:atemp>
            <ns3:hr>141</ns3:hr>
          </ns3:TrackPointExtension>
        </extensions>
      </trkpt>
      <trkpt lat="-22.01278620399534702301025390625" lon="166.4586295746266841888427734375">
        <ele>857.79998779296875</ele>
        <time>2016-08-12T21:17:26.000Z</time>
        <extensions>
          <ns3:TrackPointExtension>
            <ns3:atemp>17.0</ns3:atemp>
            <ns3:hr>141</ns3:hr>
          </ns3:TrackPointExtension>
        </extensions>
      </trkpt>
      <trkpt lat="-22.01278687454760074615478515625" lon="166.45865078084170818328857421875">
        <ele>857.79998779296875</ele>
        <time>2016-08-12T21:17:27.000Z</time>
        <extensions>
          <ns3:TrackPointExtension>
            <ns3:atemp>17.0</ns3:atemp>
            <ns3:hr>141</ns3:hr>
          </ns3:TrackPointExtension>
        </extensions>
      </trkpt>
      <trkpt lat="-22.01278855092823505401611328125" lon="166.45867265760898590087890625">
        <ele>857.79998779296875</ele>
        <time>2016-08-12T21:17:28.000Z</time>
        <extensions>
          <ns3:TrackPointExtension>
            <ns3:atemp>17.0</ns3:atemp>
            <ns3:hr>141</ns3:hr>
          </ns3:TrackPointExtension>
        </extensions>
      </trkpt>
      <trkpt lat="-22.01278603635728359222412109375" lon="166.45869168452918529510498046875">
        <ele>857.5999755859375</ele>
        <time>2016-08-12T21:17:29.000Z</time>
        <extensions>
          <ns3:TrackPointExtension>
            <ns3:atemp>17.0</ns3:atemp>
            <ns3:hr>141</ns3:hr>
          </ns3:TrackPointExtension>
        </extensions>
      </trkpt>
      <trkpt lat="-22.01278603635728359222412109375" lon="166.45871020853519439697265625">
        <ele>857.5999755859375</ele>
        <time>2016-08-12T21:17:30.000Z</time>
        <extensions>
          <ns3:TrackPointExtension>
            <ns3:atemp>17.0</ns3:atemp>
            <ns3:hr>140</ns3:hr>
          </ns3:TrackPointExtension>
        </extensions>
      </trkpt>
      <trkpt lat="-22.01278452761471271514892578125" lon="166.4587321691215038299560546875">
        <ele>857.5999755859375</ele>
        <time>2016-08-12T21:17:31.000Z</time>
        <extensions>
          <ns3:TrackPointExtension>
            <ns3:atemp>17.0</ns3:atemp>
            <ns3:hr>140</ns3:hr>
          </ns3:TrackPointExtension>
        </extensions>
      </trkpt>
      <trkpt lat="-22.012773714959621429443359375" lon="166.45875178277492523193359375">
        <ele>857.5999755859375</ele>
        <time>2016-08-12T21:17:32.000Z</time>
        <extensions>
          <ns3:TrackPointExtension>
            <ns3:atemp>17.0</ns3:atemp>
            <ns3:hr>140</ns3:hr>
          </ns3:TrackPointExtension>
        </extensions>
      </trkpt>
      <trkpt lat="-22.01277337968349456787109375" lon="166.45877080969512462615966796875">
        <ele>857.4000244140625</ele>
        <time>2016-08-12T21:17:33.000Z</time>
        <extensions>
          <ns3:TrackPointExtension>
            <ns3:atemp>17.0</ns3:atemp>
            <ns3:hr>140</ns3:hr>
          </ns3:TrackPointExtension>
        </extensions>
      </trkpt>
      <trkpt lat="-22.0127748884260654449462890625" lon="166.45878824405372142791748046875">
        <ele>857.4000244140625</ele>
        <time>2016-08-12T21:17:34.000Z</time>
        <extensions>
          <ns3:TrackPointExtension>
            <ns3:atemp>17.0</ns3:atemp>
            <ns3:hr>140</ns3:hr>
          </ns3:TrackPointExtension>
        </extensions>
      </trkpt>
      <trkpt lat="-22.0127738825976848602294921875" lon="166.4588034152984619140625">
        <ele>857.4000244140625</ele>
        <time>2016-08-12T21:17:35.000Z</time>
        <extensions>
          <ns3:TrackPointExtension>
            <ns3:atemp>17.0</ns3:atemp>
            <ns3:hr>139</ns3:hr>
          </ns3:TrackPointExtension>
        </extensions>
      </trkpt>
      <trkpt lat="-22.012771032750606536865234375" lon="166.45881607197225093841552734375">
        <ele>857.20001220703125</ele>
        <time>2016-08-12T21:17:36.000Z</time>
        <extensions>
          <ns3:TrackPointExtension>
            <ns3:atemp>17.0</ns3:atemp>
            <ns3:hr>139</ns3:hr>
          </ns3:TrackPointExtension>
        </extensions>
      </trkpt>
      <trkpt lat="-22.01276826672255992889404296875" lon="166.45883518271148204803466796875">
        <ele>857.20001220703125</ele>
        <time>2016-08-12T21:17:37.000Z</time>
        <extensions>
          <ns3:TrackPointExtension>
            <ns3:atemp>17.0</ns3:atemp>
            <ns3:hr>138</ns3:hr>
          </ns3:TrackPointExtension>
        </extensions>
      </trkpt>
      <trkpt lat="-22.0127641595900058746337890625" lon="166.45885362289845943450927734375">
        <ele>857.20001220703125</ele>
        <time>2016-08-12T21:17:38.000Z</time>
        <extensions>
          <ns3:TrackPointExtension>
            <ns3:atemp>17.0</ns3:atemp>
            <ns3:hr>138</ns3:hr>
          </ns3:TrackPointExtension>
        </extensions>
      </trkpt>
      <trkpt lat="-22.01276474632322788238525390625" lon="166.45887139253318309783935546875">
        <ele>857</ele>
        <time>2016-08-12T21:17:39.000Z</time>
        <extensions>
          <ns3:TrackPointExtension>
            <ns3:atemp>17.0</ns3:atemp>
            <ns3:hr>136</ns3:hr>
          </ns3:TrackPointExtension>
        </extensions>
      </trkpt>
      <trkpt lat="-22.01276424340903759002685546875" lon="166.458887569606304168701171875">
        <ele>857</ele>
        <time>2016-08-12T21:17:40.000Z</time>
        <extensions>
          <ns3:TrackPointExtension>
            <ns3:atemp>17.0</ns3:atemp>
            <ns3:hr>136</ns3:hr>
          </ns3:TrackPointExtension>
        </extensions>
      </trkpt>
      <trkpt lat="-22.01276608742773532867431640625" lon="166.45890156738460063934326171875">
        <ele>857.20001220703125</ele>
        <time>2016-08-12T21:17:41.000Z</time>
        <extensions>
          <ns3:TrackPointExtension>
            <ns3:atemp>17.0</ns3:atemp>
            <ns3:hr>135</ns3:hr>
          </ns3:TrackPointExtension>
        </extensions>
      </trkpt>
      <trkpt lat="-22.012768685817718505859375" lon="166.45891313441097736358642578125">
        <ele>857.20001220703125</ele>
        <time>2016-08-12T21:17:42.000Z</time>
        <extensions>
          <ns3:TrackPointExtension>
            <ns3:atemp>17.0</ns3:atemp>
            <ns3:hr>135</ns3:hr>
          </ns3:TrackPointExtension>
        </extensions>
      </trkpt>
      <trkpt lat="-22.0127700269222259521484375" lon="166.4589236117899417877197265625">
        <ele>857.4000244140625</ele>
        <time>2016-08-12T21:17:43.000Z</time>
        <extensions>
          <ns3:TrackPointExtension>
            <ns3:atemp>17.0</ns3:atemp>
            <ns3:hr>134</ns3:hr>
          </ns3:TrackPointExtension>
        </extensions>
      </trkpt>
      <trkpt lat="-22.01276826672255992889404296875" lon="166.45893442444503307342529296875">
        <ele>857.4000244140625</ele>
        <time>2016-08-12T21:17:44.000Z</time>
        <extensions>
          <ns3:TrackPointExtension>
            <ns3:atemp>17.0</ns3:atemp>
            <ns3:hr>134</ns3:hr>
          </ns3:TrackPointExtension>
        </extensions>
      </trkpt>
      <trkpt lat="-22.0127651654183864593505859375" lon="166.45894490182399749755859375">
        <ele>857.4000244140625</ele>
        <time>2016-08-12T21:17:45.000Z</time>
        <extensions>
          <ns3:TrackPointExtension>
            <ns3:atemp>17.0</ns3:atemp>
            <ns3:hr>134</ns3:hr>
          </ns3:TrackPointExtension>
        </extensions>
      </trkpt>
      <trkpt lat="-22.0127608068287372589111328125" lon="166.45895353518426418304443359375">
        <ele>857.5999755859375</ele>
        <time>2016-08-12T21:17:46.000Z</time>
        <extensions>
          <ns3:TrackPointExtension>
            <ns3:atemp>17.0</ns3:atemp>
            <ns3:hr>135</ns3:hr>
          </ns3:TrackPointExtension>
        </extensions>
      </trkpt>
      <trkpt lat="-22.0127544365823268890380859375" lon="166.45896392874419689178466796875">
        <ele>857.5999755859375</ele>
        <time>2016-08-12T21:17:47.000Z</time>
        <extensions>
          <ns3:TrackPointExtension>
            <ns3:atemp>17.0</ns3:atemp>
            <ns3:hr>134</ns3:hr>
          </ns3:TrackPointExtension>
        </extensions>
      </trkpt>
      <trkpt lat="-22.0127490721642971038818359375" lon="166.458972729742527008056640625">
        <ele>857.5999755859375</ele>
        <time>2016-08-12T21:17:48.000Z</time>
        <extensions>
          <ns3:TrackPointExtension>
            <ns3:atemp>17.0</ns3:atemp>
            <ns3:hr>134</ns3:hr>
          </ns3:TrackPointExtension>
        </extensions>
      </trkpt>
      <trkpt lat="-22.01274387538433074951171875" lon="166.45898186601698398590087890625">
        <ele>857.5999755859375</ele>
        <time>2016-08-12T21:17:49.000Z</time>
        <extensions>
          <ns3:TrackPointExtension>
            <ns3:atemp>17.0</ns3:atemp>
            <ns3:hr>134</ns3:hr>
          </ns3:TrackPointExtension>
        </extensions>
      </trkpt>
      <trkpt lat="-22.0127356611192226409912109375" lon="166.45899024792015552520751953125">
        <ele>857.5999755859375</ele>
        <time>2016-08-12T21:17:50.000Z</time>
        <extensions>
          <ns3:TrackPointExtension>
            <ns3:atemp>17.0</ns3:atemp>
            <ns3:hr>133</ns3:hr>
          </ns3:TrackPointExtension>
        </extensions>
      </trkpt>
      <trkpt lat="-22.01272778213024139404296875" lon="166.45899695344269275665283203125">
        <ele>857.5999755859375</ele>
        <time>2016-08-12T21:17:51.000Z</time>
        <extensions>
          <ns3:TrackPointExtension>
            <ns3:atemp>17.0</ns3:atemp>
            <ns3:hr>133</ns3:hr>
          </ns3:TrackPointExtension>
        </extensions>
      </trkpt>
      <trkpt lat="-22.01272015459835529327392578125" lon="166.45900583826005458831787109375">
        <ele>857.5999755859375</ele>
        <time>2016-08-12T21:17:52.000Z</time>
        <extensions>
          <ns3:TrackPointExtension>
            <ns3:atemp>17.0</ns3:atemp>
            <ns3:hr>133</ns3:hr>
          </ns3:TrackPointExtension>
        </extensions>
      </trkpt>
      <trkpt lat="-22.012714035809040069580078125" lon="166.45901422016322612762451171875">
        <ele>857.5999755859375</ele>
        <time>2016-08-12T21:17:53.000Z</time>
        <extensions>
          <ns3:TrackPointExtension>
            <ns3:atemp>17.0</ns3:atemp>
            <ns3:hr>132</ns3:hr>
          </ns3:TrackPointExtension>
        </extensions>
      </trkpt>
      <trkpt lat="-22.012708000838756561279296875" lon="166.45902042277157306671142578125">
        <ele>857.5999755859375</ele>
        <time>2016-08-12T21:17:54.000Z</time>
        <extensions>
          <ns3:TrackPointExtension>
            <ns3:atemp>17.0</ns3:atemp>
            <ns3:hr>132</ns3:hr>
          </ns3:TrackPointExtension>
        </extensions>
      </trkpt>
      <trkpt lat="-22.01270096004009246826171875" lon="166.45902670919895172119140625">
        <ele>857.5999755859375</ele>
        <time>2016-08-12T21:17:55.000Z</time>
        <extensions>
          <ns3:TrackPointExtension>
            <ns3:atemp>17.0</ns3:atemp>
            <ns3:hr>132</ns3:hr>
          </ns3:TrackPointExtension>
        </extensions>
      </trkpt>
      <trkpt lat="-22.0126960985362529754638671875" lon="166.4590335823595523834228515625">
        <ele>857.5999755859375</ele>
        <time>2016-08-12T21:17:56.000Z</time>
        <extensions>
          <ns3:TrackPointExtension>
            <ns3:atemp>17.0</ns3:atemp>
            <ns3:hr>131</ns3:hr>
          </ns3:TrackPointExtension>
        </extensions>
      </trkpt>
      <trkpt lat="-22.012687884271144866943359375" lon="166.4590433053672313690185546875">
        <ele>857.5999755859375</ele>
        <time>2016-08-12T21:17:57.000Z</time>
        <extensions>
          <ns3:TrackPointExtension>
            <ns3:atemp>17.0</ns3:atemp>
            <ns3:hr>131</ns3:hr>
          </ns3:TrackPointExtension>
        </extensions>
      </trkpt>
      <trkpt lat="-22.01267975382506847381591796875" lon="166.4590577222406864166259765625">
        <ele>857.4000244140625</ele>
        <time>2016-08-12T21:17:58.000Z</time>
        <extensions>
          <ns3:TrackPointExtension>
            <ns3:atemp>17.0</ns3:atemp>
            <ns3:hr>131</ns3:hr>
          </ns3:TrackPointExtension>
        </extensions>
      </trkpt>
      <trkpt lat="-22.01266902498900890350341796875" lon="166.45907507278025150299072265625">
        <ele>857.5999755859375</ele>
        <time>2016-08-12T21:17:59.000Z</time>
        <extensions>
          <ns3:TrackPointExtension>
            <ns3:atemp>17.0</ns3:atemp>
            <ns3:hr>130</ns3:hr>
          </ns3:TrackPointExtension>
        </extensions>
      </trkpt>
      <trkpt lat="-22.012655697762966156005859375" lon="166.45909468643367290496826171875">
        <ele>857.79998779296875</ele>
        <time>2016-08-12T21:18:00.000Z</time>
        <extensions>
          <ns3:TrackPointExtension>
            <ns3:atemp>17.0</ns3:atemp>
            <ns3:hr>130</ns3:hr>
          </ns3:TrackPointExtension>
        </extensions>
      </trkpt>
      <trkpt lat="-22.01264463365077972412109375" lon="166.45911782048642635345458984375">
        <ele>857.79998779296875</ele>
        <time>2016-08-12T21:18:01.000Z</time>
        <extensions>
          <ns3:TrackPointExtension>
            <ns3:atemp>17.0</ns3:atemp>
            <ns3:hr>130</ns3:hr>
          </ns3:TrackPointExtension>
        </extensions>
      </trkpt>
      <trkpt lat="-22.0126344077289104461669921875" lon="166.4591425471007823944091796875">
        <ele>857.79998779296875</ele>
        <time>2016-08-12T21:18:02.000Z</time>
        <extensions>
          <ns3:TrackPointExtension>
            <ns3:atemp>17.0</ns3:atemp>
            <ns3:hr>131</ns3:hr>
          </ns3:TrackPointExtension>
        </extensions>
      </trkpt>
      <trkpt lat="-22.01262678019702434539794921875" lon="166.459166519343852996826171875">
        <ele>857.79998779296875</ele>
        <time>2016-08-12T21:18:03.000Z</time>
        <extensions>
          <ns3:TrackPointExtension>
            <ns3:atemp>17.0</ns3:atemp>
            <ns3:hr>131</ns3:hr>
          </ns3:TrackPointExtension>
        </extensions>
      </trkpt>
      <trkpt lat="-22.01262208633124828338623046875" lon="166.45918873138725757598876953125">
        <ele>857.79998779296875</ele>
        <time>2016-08-12T21:18:04.000Z</time>
        <extensions>
          <ns3:TrackPointExtension>
            <ns3:atemp>17.0</ns3:atemp>
            <ns3:hr>131</ns3:hr>
          </ns3:TrackPointExtension>
        </extensions>
      </trkpt>
      <trkpt lat="-22.012622840702533721923828125" lon="166.4592109434306621551513671875">
        <ele>857.79998779296875</ele>
        <time>2016-08-12T21:18:05.000Z</time>
        <extensions>
          <ns3:TrackPointExtension>
            <ns3:atemp>17.0</ns3:atemp>
            <ns3:hr>131</ns3:hr>
          </ns3:TrackPointExtension>
        </extensions>
      </trkpt>
      <trkpt lat="-22.01263063587248325347900390625" lon="166.45923466421663761138916015625">
        <ele>858</ele>
        <time>2016-08-12T21:18:06.000Z</time>
        <extensions>
          <ns3:TrackPointExtension>
            <ns3:atemp>17.0</ns3:atemp>
            <ns3:hr>131</ns3:hr>
          </ns3:TrackPointExtension>
        </extensions>
      </trkpt>
      <trkpt lat="-22.012646980583667755126953125" lon="166.45925763063132762908935546875">
        <ele>858</ele>
        <time>2016-08-12T21:18:07.000Z</time>
        <extensions>
          <ns3:TrackPointExtension>
            <ns3:atemp>17.0</ns3:atemp>
            <ns3:hr>132</ns3:hr>
          </ns3:TrackPointExtension>
        </extensions>
      </trkpt>
      <trkpt lat="-22.012659050524234771728515625" lon="166.4592840336263179779052734375">
        <ele>857.79998779296875</ele>
        <time>2016-08-12T21:18:08.000Z</time>
        <extensions>
          <ns3:TrackPointExtension>
            <ns3:atemp>17.0</ns3:atemp>
            <ns3:hr>132</ns3:hr>
          </ns3:TrackPointExtension>
        </extensions>
      </trkpt>
      <trkpt lat="-22.012673132121562957763671875" lon="166.4593041501939296722412109375">
        <ele>858</ele>
        <time>2016-08-12T21:18:09.000Z</time>
        <extensions>
          <ns3:TrackPointExtension>
            <ns3:atemp>17.0</ns3:atemp>
            <ns3:hr>132</ns3:hr>
          </ns3:TrackPointExtension>
        </extensions>
      </trkpt>
      <trkpt lat="-22.0126940868794918060302734375" lon="166.45932686515152454376220703125">
        <ele>858.20001220703125</ele>
        <time>2016-08-12T21:18:10.000Z</time>
        <extensions>
          <ns3:TrackPointExtension>
            <ns3:atemp>17.0</ns3:atemp>
            <ns3:hr>132</ns3:hr>
          </ns3:TrackPointExtension>
        </extensions>
      </trkpt>
      <trkpt lat="-22.01271294616162776947021484375" lon="166.4593447186052799224853515625">
        <ele>858</ele>
        <time>2016-08-12T21:18:11.000Z</time>
        <extensions>
          <ns3:TrackPointExtension>
            <ns3:atemp>17.0</ns3:atemp>
            <ns3:hr>132</ns3:hr>
          </ns3:TrackPointExtension>
        </extensions>
      </trkpt>
      <trkpt lat="-22.012728787958621978759765625" lon="166.4593631587922573089599609375">
        <ele>858</ele>
        <time>2016-08-12T21:18:12.000Z</time>
        <extensions>
          <ns3:TrackPointExtension>
            <ns3:atemp>17.0</ns3:atemp>
            <ns3:hr>132</ns3:hr>
          </ns3:TrackPointExtension>
        </extensions>
      </trkpt>
      <trkpt lat="-22.012748904526233673095703125" lon="166.45938067696988582611083984375">
        <ele>858</ele>
        <time>2016-08-12T21:18:13.000Z</time>
        <extensions>
          <ns3:TrackPointExtension>
            <ns3:atemp>17.0</ns3:atemp>
            <ns3:hr>132</ns3:hr>
          </ns3:TrackPointExtension>
        </extensions>
      </trkpt>
      <trkpt lat="-22.01277296058833599090576171875" lon="166.45939341746270656585693359375">
        <ele>857.5999755859375</ele>
        <time>2016-08-12T21:18:14.000Z</time>
        <extensions>
          <ns3:TrackPointExtension>
            <ns3:atemp>17.0</ns3:atemp>
            <ns3:hr>132</ns3:hr>
          </ns3:TrackPointExtension>
        </extensions>
      </trkpt>
      <trkpt lat="-22.0127990283071994781494140625" lon="166.45940515212714672088623046875">
        <ele>857.4000244140625</ele>
        <time>2016-08-12T21:18:15.000Z</time>
        <extensions>
          <ns3:TrackPointExtension>
            <ns3:atemp>17.0</ns3:atemp>
            <ns3:hr>132</ns3:hr>
          </ns3:TrackPointExtension>
        </extensions>
      </trkpt>
      <trkpt lat="-22.0128209888935089111328125" lon="166.45941772498190402984619140625">
        <ele>857.5999755859375</ele>
        <time>2016-08-12T21:18:16.000Z</time>
        <extensions>
          <ns3:TrackPointExtension>
            <ns3:atemp>17.0</ns3:atemp>
            <ns3:hr>132</ns3:hr>
          </ns3:TrackPointExtension>
        </extensions>
      </trkpt>
      <trkpt lat="-22.01284320093691349029541015625" lon="166.459433734416961669921875">
        <ele>857.79998779296875</ele>
        <time>2016-08-12T21:18:17.000Z</time>
        <extensions>
          <ns3:TrackPointExtension>
            <ns3:atemp>17.0</ns3:atemp>
            <ns3:hr>133</ns3:hr>
          </ns3:TrackPointExtension>
        </extensions>
      </trkpt>
      <trkpt lat="-22.01286700554192066192626953125" lon="166.4594560302793979644775390625">
        <ele>857.79998779296875</ele>
        <time>2016-08-12T21:18:18.000Z</time>
        <extensions>
          <ns3:TrackPointExtension>
            <ns3:atemp>17.0</ns3:atemp>
            <ns3:hr>132</ns3:hr>
          </ns3:TrackPointExtension>
        </extensions>
      </trkpt>
      <trkpt lat="-22.01288946904242038726806640625" lon="166.4594806730747222900390625">
        <ele>857.4000244140625</ele>
        <time>2016-08-12T21:18:19.000Z</time>
        <extensions>
          <ns3:TrackPointExtension>
            <ns3:atemp>17.0</ns3:atemp>
            <ns3:hr>133</ns3:hr>
          </ns3:TrackPointExtension>
        </extensions>
      </trkpt>
      <trkpt lat="-22.01290824450552463531494140625" lon="166.45950221456587314605712890625">
        <ele>857.4000244140625</ele>
        <time>2016-08-12T21:18:20.000Z</time>
        <extensions>
          <ns3:TrackPointExtension>
            <ns3:atemp>17.0</ns3:atemp>
            <ns3:hr>133</ns3:hr>
          </ns3:TrackPointExtension>
        </extensions>
      </trkpt>
      <trkpt lat="-22.01292894780635833740234375" lon="166.4595250971615314483642578125">
        <ele>857.5999755859375</ele>
        <time>2016-08-12T21:18:21.000Z</time>
        <extensions>
          <ns3:TrackPointExtension>
            <ns3:atemp>17.0</ns3:atemp>
            <ns3:hr>133</ns3:hr>
          </ns3:TrackPointExtension>
        </extensions>
      </trkpt>
      <trkpt lat="-22.01295174658298492431640625" lon="166.459544040262699127197265625">
        <ele>857.5999755859375</ele>
        <time>2016-08-12T21:18:22.000Z</time>
        <extensions>
          <ns3:TrackPointExtension>
            <ns3:atemp>17.0</ns3:atemp>
            <ns3:hr>133</ns3:hr>
          </ns3:TrackPointExtension>
        </extensions>
      </trkpt>
      <trkpt lat="-22.01297630555927753448486328125" lon="166.4595638215541839599609375">
        <ele>857.20001220703125</ele>
        <time>2016-08-12T21:18:23.000Z</time>
        <extensions>
          <ns3:TrackPointExtension>
            <ns3:atemp>17.0</ns3:atemp>
            <ns3:hr>133</ns3:hr>
          </ns3:TrackPointExtension>
        </extensions>
      </trkpt>
      <trkpt lat="-22.01299742795526981353759765625" lon="166.45958921872079372406005859375">
        <ele>857.4000244140625</ele>
        <time>2016-08-12T21:18:24.000Z</time>
        <extensions>
          <ns3:TrackPointExtension>
            <ns3:atemp>17.0</ns3:atemp>
            <ns3:hr>133</ns3:hr>
          </ns3:TrackPointExtension>
        </extensions>
      </trkpt>
      <trkpt lat="-22.0130243338644504547119140625" lon="166.45960849709808826446533203125">
        <ele>857.5999755859375</ele>
        <time>2016-08-12T21:18:25.000Z</time>
        <extensions>
          <ns3:TrackPointExtension>
            <ns3:atemp>17.0</ns3:atemp>
            <ns3:hr>133</ns3:hr>
          </ns3:TrackPointExtension>
        </extensions>
      </trkpt>
      <trkpt lat="-22.01304436661303043365478515625" lon="166.45963079296052455902099609375">
        <ele>857.4000244140625</ele>
        <time>2016-08-12T21:18:26.000Z</time>
        <extensions>
          <ns3:TrackPointExtension>
            <ns3:atemp>17.0</ns3:atemp>
            <ns3:hr>133</ns3:hr>
          </ns3:TrackPointExtension>
        </extensions>
      </trkpt>
      <trkpt lat="-22.01306574046611785888671875" lon="166.4596514962613582611083984375">
        <ele>857.4000244140625</ele>
        <time>2016-08-12T21:18:27.000Z</time>
        <extensions>
          <ns3:TrackPointExtension>
            <ns3:atemp>17.0</ns3:atemp>
            <ns3:hr>133</ns3:hr>
          </ns3:TrackPointExtension>
        </extensions>
      </trkpt>
      <trkpt lat="-22.01307940296828746795654296875" lon="166.45967303775250911712646484375">
        <ele>857.4000244140625</ele>
        <time>2016-08-12T21:18:28.000Z</time>
        <extensions>
          <ns3:TrackPointExtension>
            <ns3:atemp>17.0</ns3:atemp>
            <ns3:hr>133</ns3:hr>
          </ns3:TrackPointExtension>
        </extensions>
      </trkpt>
      <trkpt lat="-22.0130930654704570770263671875" lon="166.4596954174339771270751953125">
        <ele>857.5999755859375</ele>
        <time>2016-08-12T21:18:29.000Z</time>
        <extensions>
          <ns3:TrackPointExtension>
            <ns3:atemp>17.0</ns3:atemp>
            <ns3:hr>133</ns3:hr>
          </ns3:TrackPointExtension>
        </extensions>
      </trkpt>
      <trkpt lat="-22.0131051354110240936279296875" lon="166.45971595309674739837646484375">
        <ele>857.4000244140625</ele>
        <time>2016-08-12T21:18:30.000Z</time>
        <extensions>
          <ns3:TrackPointExtension>
            <ns3:atemp>17.0</ns3:atemp>
            <ns3:hr>133</ns3:hr>
          </ns3:TrackPointExtension>
        </extensions>
      </trkpt>
      <trkpt lat="-22.01311192475259304046630859375" lon="166.45973749458789825439453125">
        <ele>857.20001220703125</ele>
        <time>2016-08-12T21:18:31.000Z</time>
        <extensions>
          <ns3:TrackPointExtension>
            <ns3:atemp>17.0</ns3:atemp>
            <ns3:hr>133</ns3:hr>
          </ns3:TrackPointExtension>
        </extensions>
      </trkpt>
      <trkpt lat="-22.01311795972287654876708984375" lon="166.45975903607904911041259765625">
        <ele>857.20001220703125</ele>
        <time>2016-08-12T21:18:32.000Z</time>
        <extensions>
          <ns3:TrackPointExtension>
            <ns3:atemp>17.0</ns3:atemp>
            <ns3:hr>133</ns3:hr>
          </ns3:TrackPointExtension>
        </extensions>
      </trkpt>
      <trkpt lat="-22.0131225697696208953857421875" lon="166.45978183485567569732666015625">
        <ele>857.20001220703125</ele>
        <time>2016-08-12T21:18:33.000Z</time>
        <extensions>
          <ns3:TrackPointExtension>
            <ns3:atemp>17.0</ns3:atemp>
            <ns3:hr>133</ns3:hr>
          </ns3:TrackPointExtension>
        </extensions>
      </trkpt>
      <trkpt lat="-22.01312877237796783447265625" lon="166.4598073996603488922119140625">
        <ele>857</ele>
        <time>2016-08-12T21:18:34.000Z</time>
        <extensions>
          <ns3:TrackPointExtension>
            <ns3:atemp>17.0</ns3:atemp>
            <ns3:hr>133</ns3:hr>
          </ns3:TrackPointExtension>
        </extensions>
      </trkpt>
      <trkpt lat="-22.01312835328280925750732421875" lon="166.45983346737921237945556640625">
        <ele>856.79998779296875</ele>
        <time>2016-08-12T21:18:35.000Z</time>
        <extensions>
          <ns3:TrackPointExtension>
            <ns3:atemp>17.0</ns3:atemp>
            <ns3:hr>133</ns3:hr>
          </ns3:TrackPointExtension>
        </extensions>
      </trkpt>
      <trkpt lat="-22.0131306163966655731201171875" lon="166.45986045710742473602294921875">
        <ele>856.79998779296875</ele>
        <time>2016-08-12T21:18:36.000Z</time>
        <extensions>
          <ns3:TrackPointExtension>
            <ns3:atemp>17.0</ns3:atemp>
            <ns3:hr>133</ns3:hr>
          </ns3:TrackPointExtension>
        </extensions>
      </trkpt>
      <trkpt lat="-22.0131396688520908355712890625" lon="166.4598888717591762542724609375">
        <ele>857</ele>
        <time>2016-08-12T21:18:37.000Z</time>
        <extensions>
          <ns3:TrackPointExtension>
            <ns3:atemp>17.0</ns3:atemp>
            <ns3:hr>133</ns3:hr>
          </ns3:TrackPointExtension>
        </extensions>
      </trkpt>
      <trkpt lat="-22.01314754784107208251953125" lon="166.45991477183997631072998046875">
        <ele>857</ele>
        <time>2016-08-12T21:18:38.000Z</time>
        <extensions>
          <ns3:TrackPointExtension>
            <ns3:atemp>17.0</ns3:atemp>
            <ns3:hr>133</ns3:hr>
          </ns3:TrackPointExtension>
        </extensions>
      </trkpt>
      <trkpt lat="-22.0131560973823070526123046875" lon="166.45994243212044239044189453125">
        <ele>856.79998779296875</ele>
        <time>2016-08-12T21:18:39.000Z</time>
        <extensions>
          <ns3:TrackPointExtension>
            <ns3:atemp>17.0</ns3:atemp>
            <ns3:hr>133</ns3:hr>
          </ns3:TrackPointExtension>
        </extensions>
      </trkpt>
      <trkpt lat="-22.01316364109516143798828125" lon="166.45997243933379650115966796875">
        <ele>857</ele>
        <time>2016-08-12T21:18:40.000Z</time>
        <extensions>
          <ns3:TrackPointExtension>
            <ns3:atemp>17.0</ns3:atemp>
            <ns3:hr>133</ns3:hr>
          </ns3:TrackPointExtension>
        </extensions>
      </trkpt>
      <trkpt lat="-22.0131674967706203460693359375" lon="166.45999574102461338043212890625">
        <ele>857.20001220703125</ele>
        <time>2016-08-12T21:18:41.000Z</time>
        <extensions>
          <ns3:TrackPointExtension>
            <ns3:atemp>17.0</ns3:atemp>
            <ns3:hr>134</ns3:hr>
          </ns3:TrackPointExtension>
        </extensions>
      </trkpt>
      <trkpt lat="-22.01317168772220611572265625" lon="166.46002004854381084442138671875">
        <ele>857</ele>
        <time>2016-08-12T21:18:42.000Z</time>
        <extensions>
          <ns3:TrackPointExtension>
            <ns3:atemp>17.0</ns3:atemp>
            <ns3:hr>134</ns3:hr>
          </ns3:TrackPointExtension>
        </extensions>
      </trkpt>
      <trkpt lat="-22.0131731964647769927978515625" lon="166.4600451104342937469482421875">
        <ele>856.79998779296875</ele>
        <time>2016-08-12T21:18:43.000Z</time>
        <extensions>
          <ns3:TrackPointExtension>
            <ns3:atemp>17.0</ns3:atemp>
            <ns3:hr>134</ns3:hr>
          </ns3:TrackPointExtension>
        </extensions>
      </trkpt>
      <trkpt lat="-22.01317436993122100830078125" lon="166.46007033996284008026123046875">
        <ele>857</ele>
        <time>2016-08-12T21:18:44.000Z</time>
        <extensions>
          <ns3:TrackPointExtension>
            <ns3:atemp>17.0</ns3:atemp>
            <ns3:hr>134</ns3:hr>
          </ns3:TrackPointExtension>
        </extensions>
      </trkpt>
      <trkpt lat="-22.01317981816828250885009765625" lon="166.46009682677686214447021484375">
        <ele>857.20001220703125</ele>
        <time>2016-08-12T21:18:45.000Z</time>
        <extensions>
          <ns3:TrackPointExtension>
            <ns3:atemp>17.0</ns3:atemp>
            <ns3:hr>135</ns3:hr>
          </ns3:TrackPointExtension>
        </extensions>
      </trkpt>
      <trkpt lat="-22.01318643987178802490234375" lon="166.4601202122867107391357421875">
        <ele>857</ele>
        <time>2016-08-12T21:18:46.000Z</time>
        <extensions>
          <ns3:TrackPointExtension>
            <ns3:atemp>17.0</ns3:atemp>
            <ns3:hr>135</ns3:hr>
          </ns3:TrackPointExtension>
        </extensions>
      </trkpt>
      <trkpt lat="-22.01319272629916667938232421875" lon="166.460147537291049957275390625">
        <ele>857</ele>
        <time>2016-08-12T21:18:47.000Z</time>
        <extensions>
          <ns3:TrackPointExtension>
            <ns3:atemp>17.0</ns3:atemp>
            <ns3:hr>135</ns3:hr>
          </ns3:TrackPointExtension>
        </extensions>
      </trkpt>
      <trkpt lat="-22.0132057182490825653076171875" lon="166.46017469465732574462890625">
        <ele>857</ele>
        <time>2016-08-12T21:18:48.000Z</time>
        <extensions>
          <ns3:TrackPointExtension>
            <ns3:atemp>17.0</ns3:atemp>
            <ns3:hr>135</ns3:hr>
          </ns3:TrackPointExtension>
        </extensions>
      </trkpt>
      <trkpt lat="-22.01322055421769618988037109375" lon="166.460196487605571746826171875">
        <ele>857.20001220703125</ele>
        <time>2016-08-12T21:18:49.000Z</time>
        <extensions>
          <ns3:TrackPointExtension>
            <ns3:atemp>17.0</ns3:atemp>
            <ns3:hr>135</ns3:hr>
          </ns3:TrackPointExtension>
        </extensions>
      </trkpt>
      <trkpt lat="-22.01324016787111759185791015625" lon="166.4602181129157543182373046875">
        <ele>857</ele>
        <time>2016-08-12T21:18:50.000Z</time>
        <extensions>
          <ns3:TrackPointExtension>
            <ns3:atemp>17.0</ns3:atemp>
            <ns3:hr>135</ns3:hr>
          </ns3:TrackPointExtension>
        </extensions>
      </trkpt>
      <trkpt lat="-22.01326045207679271697998046875" lon="166.46023596636950969696044921875">
        <ele>856.79998779296875</ele>
        <time>2016-08-12T21:18:51.000Z</time>
        <extensions>
          <ns3:TrackPointExtension>
            <ns3:atemp>17.0</ns3:atemp>
            <ns3:hr>135</ns3:hr>
          </ns3:TrackPointExtension>
        </extensions>
      </trkpt>
      <trkpt lat="-22.01328878290951251983642578125" lon="166.46024367772042751312255859375">
        <ele>857</ele>
        <time>2016-08-12T21:18:52.000Z</time>
        <extensions>
          <ns3:TrackPointExtension>
            <ns3:atemp>17.0</ns3:atemp>
            <ns3:hr>135</ns3:hr>
          </ns3:TrackPointExtension>
        </extensions>
      </trkpt>
      <trkpt lat="-22.01331996358931064605712890625" lon="166.46024602465331554412841796875">
        <ele>857</ele>
        <time>2016-08-12T21:18:53.000Z</time>
        <extensions>
          <ns3:TrackPointExtension>
            <ns3:atemp>17.0</ns3:atemp>
            <ns3:hr>135</ns3:hr>
          </ns3:TrackPointExtension>
        </extensions>
      </trkpt>
      <trkpt lat="-22.0133502222597599029541015625" lon="166.46024518646299839019775390625">
        <ele>857</ele>
        <time>2016-08-12T21:18:54.000Z</time>
        <extensions>
          <ns3:TrackPointExtension>
            <ns3:atemp>17.0</ns3:atemp>
            <ns3:hr>135</ns3:hr>
          </ns3:TrackPointExtension>
        </extensions>
      </trkpt>
      <trkpt lat="-22.01338182203471660614013671875" lon="166.46024166606366634368896484375">
        <ele>857</ele>
        <time>2016-08-12T21:18:55.000Z</time>
        <extensions>
          <ns3:TrackPointExtension>
            <ns3:atemp>17.0</ns3:atemp>
            <ns3:hr>136</ns3:hr>
          </ns3:TrackPointExtension>
        </extensions>
      </trkpt>
      <trkpt lat="-22.01340763829648494720458984375" lon="166.4602415822446346282958984375">
        <ele>857.4000244140625</ele>
        <time>2016-08-12T21:18:56.000Z</time>
        <extensions>
          <ns3:TrackPointExtension>
            <ns3:atemp>17.0</ns3:atemp>
            <ns3:hr>136</ns3:hr>
          </ns3:TrackPointExtension>
        </extensions>
      </trkpt>
      <trkpt lat="-22.0134323649108409881591796875" lon="166.4602415822446346282958984375">
        <ele>857.20001220703125</ele>
        <time>2016-08-12T21:18:57.000Z</time>
        <extensions>
          <ns3:TrackPointExtension>
            <ns3:atemp>17.0</ns3:atemp>
            <ns3:hr>136</ns3:hr>
          </ns3:TrackPointExtension>
        </extensions>
      </trkpt>
      <trkpt lat="-22.0134622044861316680908203125" lon="166.4602410793304443359375">
        <ele>857</ele>
        <time>2016-08-12T21:18:58.000Z</time>
        <extensions>
          <ns3:TrackPointExtension>
            <ns3:atemp>17.0</ns3:atemp>
            <ns3:hr>136</ns3:hr>
          </ns3:TrackPointExtension>
        </extensions>
      </trkpt>
      <trkpt lat="-22.013489194214344024658203125" lon="166.46024568937718868255615234375">
        <ele>857</ele>
        <time>2016-08-12T21:18:59.000Z</time>
        <extensions>
          <ns3:TrackPointExtension>
            <ns3:atemp>17.0</ns3:atemp>
            <ns3:hr>136</ns3:hr>
          </ns3:TrackPointExtension>
        </extensions>
      </trkpt>
      <trkpt lat="-22.013514339923858642578125" lon="166.46025172434747219085693359375">
        <ele>857</ele>
        <time>2016-08-12T21:19:00.000Z</time>
        <extensions>
          <ns3:TrackPointExtension>
            <ns3:atemp>17.0</ns3:atemp>
            <ns3:hr>136</ns3:hr>
          </ns3:TrackPointExtension>
        </extensions>
      </trkpt>
      <trkpt lat="-22.01354124583303928375244140625" lon="166.4602606929838657379150390625">
        <ele>857</ele>
        <time>2016-08-12T21:19:01.000Z</time>
        <extensions>
          <ns3:TrackPointExtension>
            <ns3:atemp>17.0</ns3:atemp>
            <ns3:hr>136</ns3:hr>
          </ns3:TrackPointExtension>
        </extensions>
      </trkpt>
      <trkpt lat="-22.01356220059096813201904296875" lon="166.4602730982005596160888671875">
        <ele>856.79998779296875</ele>
        <time>2016-08-12T21:19:02.000Z</time>
        <extensions>
          <ns3:TrackPointExtension>
            <ns3:atemp>17.0</ns3:atemp>
            <ns3:hr>136</ns3:hr>
          </ns3:TrackPointExtension>
        </extensions>
      </trkpt>
      <trkpt lat="-22.01358231715857982635498046875" lon="166.46029011346399784088134765625">
        <ele>857</ele>
        <time>2016-08-12T21:19:03.000Z</time>
        <extensions>
          <ns3:TrackPointExtension>
            <ns3:atemp>17.0</ns3:atemp>
            <ns3:hr>136</ns3:hr>
          </ns3:TrackPointExtension>
        </extensions>
      </trkpt>
      <trkpt lat="-22.0135949738323688507080078125" lon="166.46030821837484836578369140625">
        <ele>857</ele>
        <time>2016-08-12T21:19:04.000Z</time>
        <extensions>
          <ns3:TrackPointExtension>
            <ns3:atemp>17.0</ns3:atemp>
            <ns3:hr>136</ns3:hr>
          </ns3:TrackPointExtension>
        </extensions>
      </trkpt>
      <trkpt lat="-22.01361157000064849853515625" lon="166.46032615564763545989990234375">
        <ele>856.79998779296875</ele>
        <time>2016-08-12T21:19:05.000Z</time>
        <extensions>
          <ns3:TrackPointExtension>
            <ns3:atemp>17.0</ns3:atemp>
            <ns3:hr>136</ns3:hr>
          </ns3:TrackPointExtension>
        </extensions>
      </trkpt>
      <trkpt lat="-22.0136308483779430389404296875" lon="166.4603483676910400390625">
        <ele>857</ele>
        <time>2016-08-12T21:19:06.000Z</time>
        <extensions>
          <ns3:TrackPointExtension>
            <ns3:atemp>17.0</ns3:atemp>
            <ns3:hr>137</ns3:hr>
          </ns3:TrackPointExtension>
        </extensions>
      </trkpt>
      <trkpt lat="-22.0136452652513980865478515625" lon="166.4603669755160808563232421875">
        <ele>857.20001220703125</ele>
        <time>2016-08-12T21:19:07.000Z</time>
        <extensions>
          <ns3:TrackPointExtension>
            <ns3:atemp>17.0</ns3:atemp>
            <ns3:hr>136</ns3:hr>
          </ns3:TrackPointExtension>
        </extensions>
      </trkpt>
      <trkpt lat="-22.01366412453353404998779296875" lon="166.460387594997882843017578125">
        <ele>857</ele>
        <time>2016-08-12T21:19:08.000Z</time>
        <extensions>
          <ns3:TrackPointExtension>
            <ns3:atemp>17.0</ns3:atemp>
            <ns3:hr>137</ns3:hr>
          </ns3:TrackPointExtension>
        </extensions>
      </trkpt>
      <trkpt lat="-22.01368122361600399017333984375" lon="166.46040938794612884521484375">
        <ele>856.79998779296875</ele>
        <time>2016-08-12T21:19:09.000Z</time>
        <extensions>
          <ns3:TrackPointExtension>
            <ns3:atemp>17.0</ns3:atemp>
            <ns3:hr>136</ns3:hr>
          </ns3:TrackPointExtension>
        </extensions>
      </trkpt>
      <trkpt lat="-22.01369580812752246856689453125" lon="166.46042757667601108551025390625">
        <ele>857</ele>
        <time>2016-08-12T21:19:10.000Z</time>
        <extensions>
          <ns3:TrackPointExtension>
            <ns3:atemp>17.0</ns3:atemp>
            <ns3:hr>137</ns3:hr>
          </ns3:TrackPointExtension>
        </extensions>
      </trkpt>
      <trkpt lat="-22.01370720751583576202392578125" lon="166.46045104600489139556884765625">
        <ele>857.20001220703125</ele>
        <time>2016-08-12T21:19:11.000Z</time>
        <extensions>
          <ns3:TrackPointExtension>
            <ns3:atemp>17.0</ns3:atemp>
            <ns3:hr>137</ns3:hr>
          </ns3:TrackPointExtension>
        </extensions>
      </trkpt>
      <trkpt lat="-22.01371927745640277862548828125" lon="166.4604722522199153900146484375">
        <ele>857</ele>
        <time>2016-08-12T21:19:12.000Z</time>
        <extensions>
          <ns3:TrackPointExtension>
            <ns3:atemp>17.0</ns3:atemp>
            <ns3:hr>137</ns3:hr>
          </ns3:TrackPointExtension>
        </extensions>
      </trkpt>
      <trkpt lat="-22.01373226940631866455078125" lon="166.4604943804442882537841796875">
        <ele>856.79998779296875</ele>
        <time>2016-08-12T21:19:13.000Z</time>
        <extensions>
          <ns3:TrackPointExtension>
            <ns3:atemp>17.0</ns3:atemp>
            <ns3:hr>137</ns3:hr>
          </ns3:TrackPointExtension>
        </extensions>
      </trkpt>
      <trkpt lat="-22.01374165713787078857421875" lon="166.4605175144970417022705078125">
        <ele>856.79998779296875</ele>
        <time>2016-08-12T21:19:14.000Z</time>
        <extensions>
          <ns3:TrackPointExtension>
            <ns3:atemp>17.0</ns3:atemp>
            <ns3:hr>137</ns3:hr>
          </ns3:TrackPointExtension>
        </extensions>
      </trkpt>
      <trkpt lat="-22.0137471891939640045166015625" lon="166.46053721196949481964111328125">
        <ele>856.79998779296875</ele>
        <time>2016-08-12T21:19:15.000Z</time>
        <extensions>
          <ns3:TrackPointExtension>
            <ns3:atemp>17.0</ns3:atemp>
            <ns3:hr>137</ns3:hr>
          </ns3:TrackPointExtension>
        </extensions>
      </trkpt>
      <trkpt lat="-22.01375506818294525146484375" lon="166.46055984310805797576904296875">
        <ele>856.79998779296875</ele>
        <time>2016-08-12T21:19:16.000Z</time>
        <extensions>
          <ns3:TrackPointExtension>
            <ns3:atemp>16.0</ns3:atemp>
            <ns3:hr>137</ns3:hr>
          </ns3:TrackPointExtension>
        </extensions>
      </trkpt>
      <trkpt lat="-22.0137651264667510986328125" lon="166.46058213897049427032470703125">
        <ele>856.79998779296875</ele>
        <time>2016-08-12T21:19:17.000Z</time>
        <extensions>
          <ns3:TrackPointExtension>
            <ns3:atemp>16.0</ns3:atemp>
            <ns3:hr>137</ns3:hr>
          </ns3:TrackPointExtension>
        </extensions>
      </trkpt>
      <trkpt lat="-22.01378180645406246185302734375" lon="166.46060158498585224151611328125">
        <ele>857.20001220703125</ele>
        <time>2016-08-12T21:19:18.000Z</time>
        <extensions>
          <ns3:TrackPointExtension>
            <ns3:atemp>16.0</ns3:atemp>
            <ns3:hr>137</ns3:hr>
          </ns3:TrackPointExtension>
        </extensions>
      </trkpt>
      <trkpt lat="-22.01379773207008838653564453125" lon="166.460624970495700836181640625">
        <ele>857.20001220703125</ele>
        <time>2016-08-12T21:19:19.000Z</time>
        <extensions>
          <ns3:TrackPointExtension>
            <ns3:atemp>16.0</ns3:atemp>
            <ns3:hr>137</ns3:hr>
          </ns3:TrackPointExtension>
        </extensions>
      </trkpt>
      <trkpt lat="-22.01381206512451171875" lon="166.46064550615847110748291015625">
        <ele>857</ele>
        <time>2016-08-12T21:19:20.000Z</time>
        <extensions>
          <ns3:TrackPointExtension>
            <ns3:atemp>16.0</ns3:atemp>
            <ns3:hr>137</ns3:hr>
          </ns3:TrackPointExtension>
        </extensions>
      </trkpt>
      <trkpt lat="-22.01382438652217388153076171875" lon="166.4606683887541294097900390625">
        <ele>857</ele>
        <time>2016-08-12T21:19:21.000Z</time>
        <extensions>
          <ns3:TrackPointExtension>
            <ns3:atemp>16.0</ns3:atemp>
            <ns3:hr>137</ns3:hr>
          </ns3:TrackPointExtension>
        </extensions>
      </trkpt>
      <trkpt lat="-22.013839222490787506103515625" lon="166.4606928639113903045654296875">
        <ele>857</ele>
        <time>2016-08-12T21:19:22.000Z</time>
        <extensions>
          <ns3:TrackPointExtension>
            <ns3:atemp>16.0</ns3:atemp>
            <ns3:hr>137</ns3:hr>
          </ns3:TrackPointExtension>
        </extensions>
      </trkpt>
      <trkpt lat="-22.013853304088115692138671875" lon="166.46071591414511203765869140625">
        <ele>856.5999755859375</ele>
        <time>2016-08-12T21:19:23.000Z</time>
        <extensions>
          <ns3:TrackPointExtension>
            <ns3:atemp>16.0</ns3:atemp>
            <ns3:hr>138</ns3:hr>
          </ns3:TrackPointExtension>
        </extensions>
      </trkpt>
      <trkpt lat="-22.01386998407542705535888671875" lon="166.460736952722072601318359375">
        <ele>856.20001220703125</ele>
        <time>2016-08-12T21:19:24.000Z</time>
        <extensions>
          <ns3:TrackPointExtension>
            <ns3:atemp>16.0</ns3:atemp>
            <ns3:hr>138</ns3:hr>
          </ns3:TrackPointExtension>
        </extensions>
      </trkpt>
      <trkpt lat="-22.0138823054730892181396484375" lon="166.460759751498699188232421875">
        <ele>856</ele>
        <time>2016-08-12T21:19:25.000Z</time>
        <extensions>
          <ns3:TrackPointExtension>
            <ns3:atemp>16.0</ns3:atemp>
            <ns3:hr>138</ns3:hr>
          </ns3:TrackPointExtension>
        </extensions>
      </trkpt>
      <trkpt lat="-22.01389144174754619598388671875" lon="166.4607840590178966522216796875">
        <ele>856</ele>
        <time>2016-08-12T21:19:26.000Z</time>
        <extensions>
          <ns3:TrackPointExtension>
            <ns3:atemp>16.0</ns3:atemp>
            <ns3:hr>137</ns3:hr>
          </ns3:TrackPointExtension>
        </extensions>
      </trkpt>
      <trkpt lat="-22.01390124857425689697265625" lon="166.4608092047274112701416015625">
        <ele>855.79998779296875</ele>
        <time>2016-08-12T21:19:27.000Z</time>
        <extensions>
          <ns3:TrackPointExtension>
            <ns3:atemp>16.0</ns3:atemp>
            <ns3:hr>138</ns3:hr>
          </ns3:TrackPointExtension>
        </extensions>
      </trkpt>
      <trkpt lat="-22.01390937902033329010009765625" lon="166.46083292551338672637939453125">
        <ele>856</ele>
        <time>2016-08-12T21:19:28.000Z</time>
        <extensions>
          <ns3:TrackPointExtension>
            <ns3:atemp>16.0</ns3:atemp>
            <ns3:hr>137</ns3:hr>
          </ns3:TrackPointExtension>
        </extensions>
      </trkpt>
      <trkpt lat="-22.0139222033321857452392578125" lon="166.4608581550419330596923828125">
        <ele>856.20001220703125</ele>
        <time>2016-08-12T21:19:29.000Z</time>
        <extensions>
          <ns3:TrackPointExtension>
            <ns3:atemp>16.0</ns3:atemp>
            <ns3:hr>137</ns3:hr>
          </ns3:TrackPointExtension>
        </extensions>
      </trkpt>
      <trkpt lat="-22.013931088149547576904296875" lon="166.460884474217891693115234375">
        <ele>856.20001220703125</ele>
        <time>2016-08-12T21:19:30.000Z</time>
        <extensions>
          <ns3:TrackPointExtension>
            <ns3:atemp>16.0</ns3:atemp>
            <ns3:hr>137</ns3:hr>
          </ns3:TrackPointExtension>
        </extensions>
      </trkpt>
      <trkpt lat="-22.01394014060497283935546875" lon="166.4609064348042011260986328125">
        <ele>856.20001220703125</ele>
        <time>2016-08-12T21:19:31.000Z</time>
        <extensions>
          <ns3:TrackPointExtension>
            <ns3:atemp>16.0</ns3:atemp>
            <ns3:hr>137</ns3:hr>
          </ns3:TrackPointExtension>
        </extensions>
      </trkpt>
      <trkpt lat="-22.0139493606984615325927734375" lon="166.46093317307531833648681640625">
        <ele>856.20001220703125</ele>
        <time>2016-08-12T21:19:32.000Z</time>
        <extensions>
          <ns3:TrackPointExtension>
            <ns3:atemp>16.0</ns3:atemp>
            <ns3:hr>137</ns3:hr>
          </ns3:TrackPointExtension>
        </extensions>
      </trkpt>
      <trkpt lat="-22.01395581476390361785888671875" lon="166.46095815114676952362060546875">
        <ele>856.20001220703125</ele>
        <time>2016-08-12T21:19:33.000Z</time>
        <extensions>
          <ns3:TrackPointExtension>
            <ns3:atemp>16.0</ns3:atemp>
            <ns3:hr>136</ns3:hr>
          </ns3:TrackPointExtension>
        </extensions>
      </trkpt>
      <trkpt lat="-22.013957910239696502685546875" lon="166.4609835483133792877197265625">
        <ele>856.4000244140625</ele>
        <time>2016-08-12T21:19:34.000Z</time>
        <extensions>
          <ns3:TrackPointExtension>
            <ns3:atemp>16.0</ns3:atemp>
            <ns3:hr>136</ns3:hr>
          </ns3:TrackPointExtension>
        </extensions>
      </trkpt>
      <trkpt lat="-22.01395866461098194122314453125" lon="166.46100710146129131317138671875">
        <ele>856.20001220703125</ele>
        <time>2016-08-12T21:19:35.000Z</time>
        <extensions>
          <ns3:TrackPointExtension>
            <ns3:atemp>16.0</ns3:atemp>
            <ns3:hr>136</ns3:hr>
          </ns3:TrackPointExtension>
        </extensions>
      </trkpt>
      <trkpt lat="-22.01395799405872821807861328125" lon="166.46103006787598133087158203125">
        <ele>856</ele>
        <time>2016-08-12T21:19:36.000Z</time>
        <extensions>
          <ns3:TrackPointExtension>
            <ns3:atemp>16.0</ns3:atemp>
            <ns3:hr>136</ns3:hr>
          </ns3:TrackPointExtension>
        </extensions>
      </trkpt>
      <trkpt lat="-22.01395028270781040191650390625" lon="166.46105638705193996429443359375">
        <ele>856.20001220703125</ele>
        <time>2016-08-12T21:19:37.000Z</time>
        <extensions>
          <ns3:TrackPointExtension>
            <ns3:atemp>16.0</ns3:atemp>
            <ns3:hr>136</ns3:hr>
          </ns3:TrackPointExtension>
        </extensions>
      </trkpt>
      <trkpt lat="-22.01394014060497283935546875" lon="166.4610811136662960052490234375">
        <ele>856.4000244140625</ele>
        <time>2016-08-12T21:19:38.000Z</time>
        <extensions>
          <ns3:TrackPointExtension>
            <ns3:atemp>16.0</ns3:atemp>
            <ns3:hr>136</ns3:hr>
          </ns3:TrackPointExtension>
        </extensions>
      </trkpt>
      <trkpt lat="-22.01392949558794498443603515625" lon="166.46110349334776401519775390625">
        <ele>856.4000244140625</ele>
        <time>2016-08-12T21:19:39.000Z</time>
        <extensions>
          <ns3:TrackPointExtension>
            <ns3:atemp>16.0</ns3:atemp>
            <ns3:hr>136</ns3:hr>
          </ns3:TrackPointExtension>
        </extensions>
      </trkpt>
      <trkpt lat="-22.0139161683619022369384765625" lon="166.461124531924724578857421875">
        <ele>856.20001220703125</ele>
        <time>2016-08-12T21:19:40.000Z</time>
        <extensions>
          <ns3:TrackPointExtension>
            <ns3:atemp>16.0</ns3:atemp>
            <ns3:hr>136</ns3:hr>
          </ns3:TrackPointExtension>
        </extensions>
      </trkpt>
      <trkpt lat="-22.01390569098293781280517578125" lon="166.461143307387828826904296875">
        <ele>856.20001220703125</ele>
        <time>2016-08-12T21:19:41.000Z</time>
        <extensions>
          <ns3:TrackPointExtension>
            <ns3:atemp>16.0</ns3:atemp>
            <ns3:hr>136</ns3:hr>
          </ns3:TrackPointExtension>
        </extensions>
      </trkpt>
      <trkpt lat="-22.01389144174754619598388671875" lon="166.46116535179316997528076171875">
        <ele>856.5999755859375</ele>
        <time>2016-08-12T21:19:42.000Z</time>
        <extensions>
          <ns3:TrackPointExtension>
            <ns3:atemp>16.0</ns3:atemp>
            <ns3:hr>136</ns3:hr>
          </ns3:TrackPointExtension>
        </extensions>
      </trkpt>
      <trkpt lat="-22.01387844979763031005859375" lon="166.46118764765560626983642578125">
        <ele>856.5999755859375</ele>
        <time>2016-08-12T21:19:43.000Z</time>
        <extensions>
          <ns3:TrackPointExtension>
            <ns3:atemp>16.0</ns3:atemp>
            <ns3:hr>137</ns3:hr>
          </ns3:TrackPointExtension>
        </extensions>
      </trkpt>
      <trkpt lat="-22.01386394910514354705810546875" lon="166.461208350956439971923828125">
        <ele>856.4000244140625</ele>
        <time>2016-08-12T21:19:44.000Z</time>
        <extensions>
          <ns3:TrackPointExtension>
            <ns3:atemp>16.0</ns3:atemp>
            <ns3:hr>136</ns3:hr>
          </ns3:TrackPointExtension>
        </extensions>
      </trkpt>
      <trkpt lat="-22.01385028660297393798828125" lon="166.46122821606695652008056640625">
        <ele>856.4000244140625</ele>
        <time>2016-08-12T21:19:45.000Z</time>
        <extensions>
          <ns3:TrackPointExtension>
            <ns3:atemp>16.0</ns3:atemp>
            <ns3:hr>136</ns3:hr>
          </ns3:TrackPointExtension>
        </extensions>
      </trkpt>
      <trkpt lat="-22.01383779756724834442138671875" lon="166.46124497987329959869384765625">
        <ele>856.5999755859375</ele>
        <time>2016-08-12T21:19:46.000Z</time>
        <extensions>
          <ns3:TrackPointExtension>
            <ns3:atemp>16.0</ns3:atemp>
            <ns3:hr>136</ns3:hr>
          </ns3:TrackPointExtension>
        </extensions>
      </trkpt>
      <trkpt lat="-22.01382220722734928131103515625" lon="166.46126543171703815460205078125">
        <ele>857</ele>
        <time>2016-08-12T21:19:47.000Z</time>
        <extensions>
          <ns3:TrackPointExtension>
            <ns3:atemp>16.0</ns3:atemp>
            <ns3:hr>136</ns3:hr>
          </ns3:TrackPointExtension>
        </extensions>
      </trkpt>
      <trkpt lat="-22.01381273567676544189453125" lon="166.46128722466528415679931640625">
        <ele>856.79998779296875</ele>
        <time>2016-08-12T21:19:48.000Z</time>
        <extensions>
          <ns3:TrackPointExtension>
            <ns3:atemp>16.0</ns3:atemp>
            <ns3:hr>136</ns3:hr>
          </ns3:TrackPointExtension>
        </extensions>
      </trkpt>
      <trkpt lat="-22.01380460523068904876708984375" lon="166.46131069399416446685791015625">
        <ele>856.4000244140625</ele>
        <time>2016-08-12T21:19:49.000Z</time>
        <extensions>
          <ns3:TrackPointExtension>
            <ns3:atemp>16.0</ns3:atemp>
            <ns3:hr>136</ns3:hr>
          </ns3:TrackPointExtension>
        </extensions>
      </trkpt>
      <trkpt lat="-22.01379261910915374755859375" lon="166.4613335765898227691650390625">
        <ele>856.79998779296875</ele>
        <time>2016-08-12T21:19:50.000Z</time>
        <extensions>
          <ns3:TrackPointExtension>
            <ns3:atemp>16.0</ns3:atemp>
            <ns3:hr>135</ns3:hr>
          </ns3:TrackPointExtension>
        </extensions>
      </trkpt>
      <trkpt lat="-22.0137776993215084075927734375" lon="166.4613530226051807403564453125">
        <ele>857.20001220703125</ele>
        <time>2016-08-12T21:19:51.000Z</time>
        <extensions>
          <ns3:TrackPointExtension>
            <ns3:atemp>16.0</ns3:atemp>
            <ns3:hr>136</ns3:hr>
          </ns3:TrackPointExtension>
        </extensions>
      </trkpt>
      <trkpt lat="-22.0137624442577362060546875" lon="166.46137707866728305816650390625">
        <ele>856.79998779296875</ele>
        <time>2016-08-12T21:19:52.000Z</time>
        <extensions>
          <ns3:TrackPointExtension>
            <ns3:atemp>16.0</ns3:atemp>
            <ns3:hr>136</ns3:hr>
          </ns3:TrackPointExtension>
        </extensions>
      </trkpt>
      <trkpt lat="-22.0137528888881206512451171875" lon="166.46140255965292453765869140625">
        <ele>856.5999755859375</ele>
        <time>2016-08-12T21:19:53.000Z</time>
        <extensions>
          <ns3:TrackPointExtension>
            <ns3:atemp>16.0</ns3:atemp>
            <ns3:hr>135</ns3:hr>
          </ns3:TrackPointExtension>
        </extensions>
      </trkpt>
      <trkpt lat="-22.01373654417693614959716796875" lon="166.46142753772437572479248046875">
        <ele>856.5999755859375</ele>
        <time>2016-08-12T21:19:54.000Z</time>
        <extensions>
          <ns3:TrackPointExtension>
            <ns3:atemp>16.0</ns3:atemp>
            <ns3:hr>136</ns3:hr>
          </ns3:TrackPointExtension>
        </extensions>
      </trkpt>
      <trkpt lat="-22.01372246257960796356201171875" lon="166.46145251579582691192626953125">
        <ele>857</ele>
        <time>2016-08-12T21:19:55.000Z</time>
        <extensions>
          <ns3:TrackPointExtension>
            <ns3:atemp>16.0</ns3:atemp>
            <ns3:hr>135</ns3:hr>
          </ns3:TrackPointExtension>
        </extensions>
      </trkpt>
      <trkpt lat="-22.013707794249057769775390625" lon="166.461471877992153167724609375">
        <ele>857</ele>
        <time>2016-08-12T21:19:56.000Z</time>
        <extensions>
          <ns3:TrackPointExtension>
            <ns3:atemp>16.0</ns3:atemp>
            <ns3:hr>135</ns3:hr>
          </ns3:TrackPointExtension>
        </extensions>
      </trkpt>
      <trkpt lat="-22.01369262300431728363037109375" lon="166.46149568259716033935546875">
        <ele>856.79998779296875</ele>
        <time>2016-08-12T21:19:57.000Z</time>
        <extensions>
          <ns3:TrackPointExtension>
            <ns3:atemp>16.0</ns3:atemp>
            <ns3:hr>135</ns3:hr>
          </ns3:TrackPointExtension>
        </extensions>
      </trkpt>
      <trkpt lat="-22.01367937959730625152587890625" lon="166.46151739172637462615966796875">
        <ele>856.5999755859375</ele>
        <time>2016-08-12T21:19:58.000Z</time>
        <extensions>
          <ns3:TrackPointExtension>
            <ns3:atemp>16.0</ns3:atemp>
            <ns3:hr>136</ns3:hr>
          </ns3:TrackPointExtension>
        </extensions>
      </trkpt>
      <trkpt lat="-22.0136697404086589813232421875" lon="166.46154086105525493621826171875">
        <ele>856.79998779296875</ele>
        <time>2016-08-12T21:19:59.000Z</time>
        <extensions>
          <ns3:TrackPointExtension>
            <ns3:atemp>16.0</ns3:atemp>
            <ns3:hr>135</ns3:hr>
          </ns3:TrackPointExtension>
        </extensions>
      </trkpt>
      <trkpt lat="-22.01365926302969455718994140625" lon="166.46156215108931064605712890625">
        <ele>856.79998779296875</ele>
        <time>2016-08-12T21:20:00.000Z</time>
        <extensions>
          <ns3:TrackPointExtension>
            <ns3:atemp>16.0</ns3:atemp>
            <ns3:hr>136</ns3:hr>
          </ns3:TrackPointExtension>
        </extensions>
      </trkpt>
      <trkpt lat="-22.013650126755237579345703125" lon="166.4615796692669391632080078125">
        <ele>856.79998779296875</ele>
        <time>2016-08-12T21:20:01.000Z</time>
        <extensions>
          <ns3:TrackPointExtension>
            <ns3:atemp>16.0</ns3:atemp>
            <ns3:hr>135</ns3:hr>
          </ns3:TrackPointExtension>
        </extensions>
      </trkpt>
      <trkpt lat="-22.01363570988178253173828125" lon="166.46160070784389972686767578125">
        <ele>856.79998779296875</ele>
        <time>2016-08-12T21:20:02.000Z</time>
        <extensions>
          <ns3:TrackPointExtension>
            <ns3:atemp>16.0</ns3:atemp>
            <ns3:hr>136</ns3:hr>
          </ns3:TrackPointExtension>
        </extensions>
      </trkpt>
      <trkpt lat="-22.01362104155123233795166015625" lon="166.46162300370633602142333984375">
        <ele>857.20001220703125</ele>
        <time>2016-08-12T21:20:03.000Z</time>
        <extensions>
          <ns3:TrackPointExtension>
            <ns3:atemp>16.0</ns3:atemp>
            <ns3:hr>136</ns3:hr>
          </ns3:TrackPointExtension>
        </extensions>
      </trkpt>
      <trkpt lat="-22.01360997743904590606689453125" lon="166.461646221578121185302734375">
        <ele>857.4000244140625</ele>
        <time>2016-08-12T21:20:04.000Z</time>
        <extensions>
          <ns3:TrackPointExtension>
            <ns3:atemp>16.0</ns3:atemp>
            <ns3:hr>136</ns3:hr>
          </ns3:TrackPointExtension>
        </extensions>
      </trkpt>
      <trkpt lat="-22.01361022889614105224609375" lon="166.46167346276342868804931640625">
        <ele>857.20001220703125</ele>
        <time>2016-08-12T21:20:05.000Z</time>
        <extensions>
          <ns3:TrackPointExtension>
            <ns3:atemp>16.0</ns3:atemp>
            <ns3:hr>136</ns3:hr>
          </ns3:TrackPointExtension>
        </extensions>
      </trkpt>
      <trkpt lat="-22.01360830105841159820556640625" lon="166.4617002010345458984375">
        <ele>857.20001220703125</ele>
        <time>2016-08-12T21:20:06.000Z</time>
        <extensions>
          <ns3:TrackPointExtension>
            <ns3:atemp>16.0</ns3:atemp>
            <ns3:hr>136</ns3:hr>
          </ns3:TrackPointExtension>
        </extensions>
      </trkpt>
      <trkpt lat="-22.01360411010682582855224609375" lon="166.4617261849343776702880859375">
        <ele>857.4000244140625</ele>
        <time>2016-08-12T21:20:07.000Z</time>
        <extensions>
          <ns3:TrackPointExtension>
            <ns3:atemp>16.0</ns3:atemp>
            <ns3:hr>137</ns3:hr>
          </ns3:TrackPointExtension>
        </extensions>
      </trkpt>
      <trkpt lat="-22.01360327191650867462158203125" lon="166.46175317466259002685546875">
        <ele>857.4000244140625</ele>
        <time>2016-08-12T21:20:08.000Z</time>
        <extensions>
          <ns3:TrackPointExtension>
            <ns3:atemp>16.0</ns3:atemp>
            <ns3:hr>137</ns3:hr>
          </ns3:TrackPointExtension>
        </extensions>
      </trkpt>
      <trkpt lat="-22.01359681785106658935546875" lon="166.4617820084095001220703125">
        <ele>857.20001220703125</ele>
        <time>2016-08-12T21:20:09.000Z</time>
        <extensions>
          <ns3:TrackPointExtension>
            <ns3:atemp>16.0</ns3:atemp>
            <ns3:hr>137</ns3:hr>
          </ns3:TrackPointExtension>
        </extensions>
      </trkpt>
      <trkpt lat="-22.01359287835657596588134765625" lon="166.46180681884288787841796875">
        <ele>857.20001220703125</ele>
        <time>2016-08-12T21:20:10.000Z</time>
        <extensions>
          <ns3:TrackPointExtension>
            <ns3:atemp>16.0</ns3:atemp>
            <ns3:hr>137</ns3:hr>
          </ns3:TrackPointExtension>
        </extensions>
      </trkpt>
      <trkpt lat="-22.013598494231700897216796875" lon="166.46182500757277011871337890625">
        <ele>857.20001220703125</ele>
        <time>2016-08-12T21:20:11.000Z</time>
        <extensions>
          <ns3:TrackPointExtension>
            <ns3:atemp>16.0</ns3:atemp>
            <ns3:hr>137</ns3:hr>
          </ns3:TrackPointExtension>
        </extensions>
      </trkpt>
      <trkpt lat="-22.01360712759196758270263671875" lon="166.46183439530432224273681640625">
        <ele>857.20001220703125</ele>
        <time>2016-08-12T21:20:12.000Z</time>
        <extensions>
          <ns3:TrackPointExtension>
            <ns3:atemp>16.0</ns3:atemp>
            <ns3:hr>137</ns3:hr>
          </ns3:TrackPointExtension>
        </extensions>
      </trkpt>
      <trkpt lat="-22.01361031271517276763916015625" lon="166.461840681731700897216796875">
        <ele>857.20001220703125</ele>
        <time>2016-08-12T21:20:13.000Z</time>
        <extensions>
          <ns3:TrackPointExtension>
            <ns3:atemp>16.0</ns3:atemp>
            <ns3:hr>137</ns3:hr>
          </ns3:TrackPointExtension>
        </extensions>
      </trkpt>
      <trkpt lat="-22.013609893620014190673828125" lon="166.46184847690165042877197265625">
        <ele>857.20001220703125</ele>
        <time>2016-08-12T21:20:14.000Z</time>
        <extensions>
          <ns3:TrackPointExtension>
            <ns3:atemp>16.0</ns3:atemp>
            <ns3:hr>137</ns3:hr>
          </ns3:TrackPointExtension>
        </extensions>
      </trkpt>
      <trkpt lat="-22.013609893620014190673828125" lon="166.4618576131761074066162109375">
        <ele>857.20001220703125</ele>
        <time>2016-08-12T21:20:15.000Z</time>
        <extensions>
          <ns3:TrackPointExtension>
            <ns3:atemp>16.0</ns3:atemp>
            <ns3:hr>136</ns3:hr>
          </ns3:TrackPointExtension>
        </extensions>
      </trkpt>
      <trkpt lat="-22.013610899448394775390625" lon="166.46186641417443752288818359375">
        <ele>857.20001220703125</ele>
        <time>2016-08-12T21:20:16.000Z</time>
        <extensions>
          <ns3:TrackPointExtension>
            <ns3:atemp>16.0</ns3:atemp>
            <ns3:hr>136</ns3:hr>
          </ns3:TrackPointExtension>
        </extensions>
      </trkpt>
      <trkpt lat="-22.01361835934221744537353515625" lon="166.46187596954405307769775390625">
        <ele>857.20001220703125</ele>
        <time>2016-08-12T21:20:17.000Z</time>
        <extensions>
          <ns3:TrackPointExtension>
            <ns3:atemp>16.0</ns3:atemp>
            <ns3:hr>135</ns3:hr>
          </ns3:TrackPointExtension>
        </extensions>
      </trkpt>
      <trkpt lat="-22.0136261545121669769287109375" lon="166.46188770420849323272705078125">
        <ele>857.20001220703125</ele>
        <time>2016-08-12T21:20:18.000Z</time>
        <extensions>
          <ns3:TrackPointExtension>
            <ns3:atemp>16.0</ns3:atemp>
            <ns3:hr>135</ns3:hr>
          </ns3:TrackPointExtension>
        </extensions>
      </trkpt>
      <trkpt lat="-22.013633362948894500732421875" lon="166.461897008121013641357421875">
        <ele>857.20001220703125</ele>
        <time>2016-08-12T21:20:19.000Z</time>
        <extensions>
          <ns3:TrackPointExtension>
            <ns3:atemp>16.0</ns3:atemp>
            <ns3:hr>135</ns3:hr>
          </ns3:TrackPointExtension>
        </extensions>
      </trkpt>
      <trkpt lat="-22.013636045157909393310546875" lon="166.46190513856709003448486328125">
        <ele>857.20001220703125</ele>
        <time>2016-08-12T21:20:20.000Z</time>
        <extensions>
          <ns3:TrackPointExtension>
            <ns3:atemp>16.0</ns3:atemp>
            <ns3:hr>134</ns3:hr>
          </ns3:TrackPointExtension>
        </extensions>
      </trkpt>
      <trkpt lat="-22.01363763771951198577880859375" lon="166.461912430822849273681640625">
        <ele>857.20001220703125</ele>
        <time>2016-08-12T21:20:21.000Z</time>
        <extensions>
          <ns3:TrackPointExtension>
            <ns3:atemp>16.0</ns3:atemp>
            <ns3:hr>134</ns3:hr>
          </ns3:TrackPointExtension>
        </extensions>
      </trkpt>
      <trkpt lat="-22.0136365480720996856689453125" lon="166.46192173473536968231201171875">
        <ele>857.20001220703125</ele>
        <time>2016-08-12T21:20:22.000Z</time>
        <extensions>
          <ns3:TrackPointExtension>
            <ns3:atemp>16.0</ns3:atemp>
            <ns3:hr>134</ns3:hr>
          </ns3:TrackPointExtension>
        </extensions>
      </trkpt>
      <trkpt lat="-22.01363193802535533905029296875" lon="166.46193766035139560699462890625">
        <ele>857.20001220703125</ele>
        <time>2016-08-12T21:20:23.000Z</time>
        <extensions>
          <ns3:TrackPointExtension>
            <ns3:atemp>16.0</ns3:atemp>
            <ns3:hr>134</ns3:hr>
          </ns3:TrackPointExtension>
        </extensions>
      </trkpt>
      <trkpt lat="-22.01362422667443752288818359375" lon="166.46196045912802219390869140625">
        <ele>857.20001220703125</ele>
        <time>2016-08-12T21:20:24.000Z</time>
        <extensions>
          <ns3:TrackPointExtension>
            <ns3:atemp>16.0</ns3:atemp>
            <ns3:hr>134</ns3:hr>
          </ns3:TrackPointExtension>
        </extensions>
      </trkpt>
      <trkpt lat="-22.013615928590297698974609375" lon="166.461983509361743927001953125">
        <ele>857.20001220703125</ele>
        <time>2016-08-12T21:20:25.000Z</time>
        <extensions>
          <ns3:TrackPointExtension>
            <ns3:atemp>16.0</ns3:atemp>
            <ns3:hr>135</ns3:hr>
          </ns3:TrackPointExtension>
        </extensions>
      </trkpt>
      <trkpt lat="-22.01360578648746013641357421875" lon="166.46201041527092456817626953125">
        <ele>857.20001220703125</ele>
        <time>2016-08-12T21:20:26.000Z</time>
        <extensions>
          <ns3:TrackPointExtension>
            <ns3:atemp>16.0</ns3:atemp>
            <ns3:hr>134</ns3:hr>
          </ns3:TrackPointExtension>
        </extensions>
      </trkpt>
      <trkpt lat="-22.013595141470432281494140625" lon="166.46203824318945407867431640625">
        <ele>857</ele>
        <time>2016-08-12T21:20:27.000Z</time>
        <extensions>
          <ns3:TrackPointExtension>
            <ns3:atemp>16.0</ns3:atemp>
            <ns3:hr>135</ns3:hr>
          </ns3:TrackPointExtension>
        </extensions>
      </trkpt>
      <trkpt lat="-22.0135867595672607421875" lon="166.4620597846806049346923828125">
        <ele>857.20001220703125</ele>
        <time>2016-08-12T21:20:28.000Z</time>
        <extensions>
          <ns3:TrackPointExtension>
            <ns3:atemp>16.0</ns3:atemp>
            <ns3:hr>135</ns3:hr>
          </ns3:TrackPointExtension>
        </extensions>
      </trkpt>
      <trkpt lat="-22.01357712037861347198486328125" lon="166.46208166144788265228271484375">
        <ele>857.5999755859375</ele>
        <time>2016-08-12T21:20:29.000Z</time>
        <extensions>
          <ns3:TrackPointExtension>
            <ns3:atemp>16.0</ns3:atemp>
            <ns3:hr>135</ns3:hr>
          </ns3:TrackPointExtension>
        </extensions>
      </trkpt>
      <trkpt lat="-22.01356572099030017852783203125" lon="166.4621047116816043853759765625">
        <ele>857.4000244140625</ele>
        <time>2016-08-12T21:20:30.000Z</time>
        <extensions>
          <ns3:TrackPointExtension>
            <ns3:atemp>16.0</ns3:atemp>
            <ns3:hr>136</ns3:hr>
          </ns3:TrackPointExtension>
        </extensions>
      </trkpt>
      <trkpt lat="-22.013557255268096923828125" lon="166.462128348648548126220703125">
        <ele>857.20001220703125</ele>
        <time>2016-08-12T21:20:31.000Z</time>
        <extensions>
          <ns3:TrackPointExtension>
            <ns3:atemp>16.0</ns3:atemp>
            <ns3:hr>136</ns3:hr>
          </ns3:TrackPointExtension>
        </extensions>
      </trkpt>
      <trkpt lat="-22.013557255268096923828125" lon="166.46215508691966533660888671875">
        <ele>857.4000244140625</ele>
        <time>2016-08-12T21:20:32.000Z</time>
        <extensions>
          <ns3:TrackPointExtension>
            <ns3:atemp>16.0</ns3:atemp>
            <ns3:hr>135</ns3:hr>
          </ns3:TrackPointExtension>
        </extensions>
      </trkpt>
      <trkpt lat="-22.013554908335208892822265625" lon="166.46217989735305309295654296875">
        <ele>857.5999755859375</ele>
        <time>2016-08-12T21:20:33.000Z</time>
        <extensions>
          <ns3:TrackPointExtension>
            <ns3:atemp>16.0</ns3:atemp>
            <ns3:hr>135</ns3:hr>
          </ns3:TrackPointExtension>
        </extensions>
      </trkpt>
      <trkpt lat="-22.013543508946895599365234375" lon="166.4622022770345211029052734375">
        <ele>857.4000244140625</ele>
        <time>2016-08-12T21:20:34.000Z</time>
        <extensions>
          <ns3:TrackPointExtension>
            <ns3:atemp>16.0</ns3:atemp>
            <ns3:hr>135</ns3:hr>
          </ns3:TrackPointExtension>
        </extensions>
      </trkpt>
      <trkpt lat="-22.01353646814823150634765625" lon="166.46222532726824283599853515625">
        <ele>857.4000244140625</ele>
        <time>2016-08-12T21:20:35.000Z</time>
        <extensions>
          <ns3:TrackPointExtension>
            <ns3:atemp>16.0</ns3:atemp>
            <ns3:hr>135</ns3:hr>
          </ns3:TrackPointExtension>
        </extensions>
      </trkpt>
      <trkpt lat="-22.0135285891592502593994140625" lon="166.4622539095580577850341796875">
        <ele>857.5999755859375</ele>
        <time>2016-08-12T21:20:36.000Z</time>
        <extensions>
          <ns3:TrackPointExtension>
            <ns3:atemp>16.0</ns3:atemp>
            <ns3:hr>135</ns3:hr>
          </ns3:TrackPointExtension>
        </extensions>
      </trkpt>
      <trkpt lat="-22.0135210454463958740234375" lon="166.46228316240012645721435546875">
        <ele>857.4000244140625</ele>
        <time>2016-08-12T21:20:37.000Z</time>
        <extensions>
          <ns3:TrackPointExtension>
            <ns3:atemp>16.0</ns3:atemp>
            <ns3:hr>134</ns3:hr>
          </ns3:TrackPointExtension>
        </extensions>
      </trkpt>
      <trkpt lat="-22.0135165192186832427978515625" lon="166.4623112417757511138916015625">
        <ele>857.4000244140625</ele>
        <time>2016-08-12T21:20:38.000Z</time>
        <extensions>
          <ns3:TrackPointExtension>
            <ns3:atemp>16.0</ns3:atemp>
            <ns3:hr>135</ns3:hr>
          </ns3:TrackPointExtension>
        </extensions>
      </trkpt>
      <trkpt lat="-22.0135071314871311187744140625" lon="166.46233278326690196990966796875">
        <ele>857.4000244140625</ele>
        <time>2016-08-12T21:20:39.000Z</time>
        <extensions>
          <ns3:TrackPointExtension>
            <ns3:atemp>16.0</ns3:atemp>
            <ns3:hr>135</ns3:hr>
          </ns3:TrackPointExtension>
        </extensions>
      </trkpt>
      <trkpt lat="-22.013508975505828857421875" lon="166.46235591731965541839599609375">
        <ele>857.20001220703125</ele>
        <time>2016-08-12T21:20:40.000Z</time>
        <extensions>
          <ns3:TrackPointExtension>
            <ns3:atemp>16.0</ns3:atemp>
            <ns3:hr>134</ns3:hr>
          </ns3:TrackPointExtension>
        </extensions>
      </trkpt>
      <trkpt lat="-22.01351257972419261932373046875" lon="166.46238022483885288238525390625">
        <ele>857.20001220703125</ele>
        <time>2016-08-12T21:20:41.000Z</time>
        <extensions>
          <ns3:TrackPointExtension>
            <ns3:atemp>16.0</ns3:atemp>
            <ns3:hr>134</ns3:hr>
          </ns3:TrackPointExtension>
        </extensions>
      </trkpt>
      <trkpt lat="-22.0135192014276981353759765625" lon="166.46240495145320892333984375">
        <ele>857.20001220703125</ele>
        <time>2016-08-12T21:20:42.000Z</time>
        <extensions>
          <ns3:TrackPointExtension>
            <ns3:atemp>16.0</ns3:atemp>
            <ns3:hr>134</ns3:hr>
          </ns3:TrackPointExtension>
        </extensions>
      </trkpt>
      <trkpt lat="-22.01353118754923343658447265625" lon="166.4624337852001190185546875">
        <ele>857.20001220703125</ele>
        <time>2016-08-12T21:20:43.000Z</time>
        <extensions>
          <ns3:TrackPointExtension>
            <ns3:atemp>16.0</ns3:atemp>
            <ns3:hr>134</ns3:hr>
          </ns3:TrackPointExtension>
        </extensions>
      </trkpt>
      <trkpt lat="-22.013533115386962890625" lon="166.46245867945253849029541015625">
        <ele>857</ele>
        <time>2016-08-12T21:20:44.000Z</time>
        <extensions>
          <ns3:TrackPointExtension>
            <ns3:atemp>16.0</ns3:atemp>
            <ns3:hr>133</ns3:hr>
          </ns3:TrackPointExtension>
        </extensions>
      </trkpt>
      <trkpt lat="-22.013538815081119537353515625" lon="166.4624825678765773773193359375">
        <ele>857</ele>
        <time>2016-08-12T21:20:45.000Z</time>
        <extensions>
          <ns3:TrackPointExtension>
            <ns3:atemp>16.0</ns3:atemp>
            <ns3:hr>133</ns3:hr>
          </ns3:TrackPointExtension>
        </extensions>
      </trkpt>
      <trkpt lat="-22.0135453529655933380126953125" lon="166.46250913850963115692138671875">
        <ele>856.79998779296875</ele>
        <time>2016-08-12T21:20:46.000Z</time>
        <extensions>
          <ns3:TrackPointExtension>
            <ns3:atemp>16.0</ns3:atemp>
            <ns3:hr>133</ns3:hr>
          </ns3:TrackPointExtension>
        </extensions>
      </trkpt>
      <trkpt lat="-22.01354795135557651519775390625" lon="166.46253646351397037506103515625">
        <ele>856.5999755859375</ele>
        <time>2016-08-12T21:20:47.000Z</time>
        <extensions>
          <ns3:TrackPointExtension>
            <ns3:atemp>16.0</ns3:atemp>
            <ns3:hr>133</ns3:hr>
          </ns3:TrackPointExtension>
        </extensions>
      </trkpt>
      <trkpt lat="-22.01354946009814739227294921875" lon="166.462561525404453277587890625">
        <ele>856.5999755859375</ele>
        <time>2016-08-12T21:20:48.000Z</time>
        <extensions>
          <ns3:TrackPointExtension>
            <ns3:atemp>16.0</ns3:atemp>
            <ns3:hr>133</ns3:hr>
          </ns3:TrackPointExtension>
        </extensions>
      </trkpt>
      <trkpt lat="-22.01355197466909885406494140625" lon="166.46258541382849216461181640625">
        <ele>856.4000244140625</ele>
        <time>2016-08-12T21:20:49.000Z</time>
        <extensions>
          <ns3:TrackPointExtension>
            <ns3:atemp>16.0</ns3:atemp>
            <ns3:hr>133</ns3:hr>
          </ns3:TrackPointExtension>
        </extensions>
      </trkpt>
      <trkpt lat="-22.0135564170777797698974609375" lon="166.462605111300945281982421875">
        <ele>856.20001220703125</ele>
        <time>2016-08-12T21:20:50.000Z</time>
        <extensions>
          <ns3:TrackPointExtension>
            <ns3:atemp>16.0</ns3:atemp>
            <ns3:hr>133</ns3:hr>
          </ns3:TrackPointExtension>
        </extensions>
      </trkpt>
      <trkpt lat="-22.01355868019163608551025390625" lon="166.46261726506054401397705078125">
        <ele>856.20001220703125</ele>
        <time>2016-08-12T21:20:51.000Z</time>
        <extensions>
          <ns3:TrackPointExtension>
            <ns3:atemp>16.0</ns3:atemp>
            <ns3:hr>133</ns3:hr>
          </ns3:TrackPointExtension>
        </extensions>
      </trkpt>
      <trkpt lat="-22.01356320641934871673583984375" lon="166.4626269042491912841796875">
        <ele>856.20001220703125</ele>
        <time>2016-08-12T21:20:52.000Z</time>
        <extensions>
          <ns3:TrackPointExtension>
            <ns3:atemp>16.0</ns3:atemp>
            <ns3:hr>133</ns3:hr>
          </ns3:TrackPointExtension>
        </extensions>
      </trkpt>
      <trkpt lat="-22.01356572099030017852783203125" lon="166.462635286152362823486328125">
        <ele>856.20001220703125</ele>
        <time>2016-08-12T21:20:53.000Z</time>
        <extensions>
          <ns3:TrackPointExtension>
            <ns3:atemp>16.0</ns3:atemp>
            <ns3:hr>132</ns3:hr>
          </ns3:TrackPointExtension>
        </extensions>
      </trkpt>
      <trkpt lat="-22.01357133686542510986328125" lon="166.46264006383717060089111328125">
        <ele>856.20001220703125</ele>
        <time>2016-08-12T21:20:54.000Z</time>
        <extensions>
          <ns3:TrackPointExtension>
            <ns3:atemp>16.0</ns3:atemp>
            <ns3:hr>132</ns3:hr>
          </ns3:TrackPointExtension>
        </extensions>
      </trkpt>
      <trkpt lat="-22.01357041485607624053955078125" lon="166.4626471884548664093017578125">
        <ele>856.20001220703125</ele>
        <time>2016-08-12T21:20:55.000Z</time>
        <extensions>
          <ns3:TrackPointExtension>
            <ns3:atemp>16.0</ns3:atemp>
            <ns3:hr>131</ns3:hr>
          </ns3:TrackPointExtension>
        </extensions>
      </trkpt>
      <trkpt lat="-22.013571001589298248291015625" lon="166.46265649236738681793212890625">
        <ele>856.20001220703125</ele>
        <time>2016-08-12T21:20:56.000Z</time>
        <extensions>
          <ns3:TrackPointExtension>
            <ns3:atemp>16.0</ns3:atemp>
            <ns3:hr>131</ns3:hr>
          </ns3:TrackPointExtension>
        </extensions>
      </trkpt>
      <trkpt lat="-22.013572342693805694580078125" lon="166.4626646228134632110595703125">
        <ele>856.4000244140625</ele>
        <time>2016-08-12T21:20:57.000Z</time>
        <extensions>
          <ns3:TrackPointExtension>
            <ns3:atemp>16.0</ns3:atemp>
            <ns3:hr>130</ns3:hr>
          </ns3:TrackPointExtension>
        </extensions>
      </trkpt>
      <trkpt lat="-22.013571001589298248291015625" lon="166.4626743458211421966552734375">
        <ele>856.4000244140625</ele>
        <time>2016-08-12T21:20:58.000Z</time>
        <extensions>
          <ns3:TrackPointExtension>
            <ns3:atemp>16.0</ns3:atemp>
            <ns3:hr>130</ns3:hr>
          </ns3:TrackPointExtension>
        </extensions>
      </trkpt>
      <trkpt lat="-22.013569660484790802001953125" lon="166.462686918675899505615234375">
        <ele>856.4000244140625</ele>
        <time>2016-08-12T21:20:59.000Z</time>
        <extensions>
          <ns3:TrackPointExtension>
            <ns3:atemp>16.0</ns3:atemp>
            <ns3:hr>130</ns3:hr>
          </ns3:TrackPointExtension>
        </extensions>
      </trkpt>
      <trkpt lat="-22.0135698281228542327880859375" lon="166.462699659168720245361328125">
        <ele>856.4000244140625</ele>
        <time>2016-08-12T21:21:00.000Z</time>
        <extensions>
          <ns3:TrackPointExtension>
            <ns3:atemp>16.0</ns3:atemp>
            <ns3:hr>129</ns3:hr>
          </ns3:TrackPointExtension>
        </extensions>
      </trkpt>
      <trkpt lat="-22.01356605626642704010009765625" lon="166.46271298639476299285888671875">
        <ele>856.4000244140625</ele>
        <time>2016-08-12T21:21:01.000Z</time>
        <extensions>
          <ns3:TrackPointExtension>
            <ns3:atemp>16.0</ns3:atemp>
            <ns3:hr>129</ns3:hr>
          </ns3:TrackPointExtension>
        </extensions>
      </trkpt>
      <trkpt lat="-22.013568319380283355712890625" lon="166.462723128497600555419921875">
        <ele>856.20001220703125</ele>
        <time>2016-08-12T21:21:02.000Z</time>
        <extensions>
          <ns3:TrackPointExtension>
            <ns3:atemp>16.0</ns3:atemp>
            <ns3:hr>130</ns3:hr>
          </ns3:TrackPointExtension>
        </extensions>
      </trkpt>
      <trkpt lat="-22.0135715045034885406494140625" lon="166.46272991783916950225830078125">
        <ele>856.20001220703125</ele>
        <time>2016-08-12T21:21:03.000Z</time>
        <extensions>
          <ns3:TrackPointExtension>
            <ns3:atemp>16.0</ns3:atemp>
            <ns3:hr>129</ns3:hr>
          </ns3:TrackPointExtension>
        </extensions>
      </trkpt>
      <trkpt lat="-22.013575695455074310302734375" lon="166.46273444406688213348388671875">
        <ele>856.20001220703125</ele>
        <time>2016-08-12T21:21:04.000Z</time>
        <extensions>
          <ns3:TrackPointExtension>
            <ns3:atemp>16.0</ns3:atemp>
            <ns3:hr>130</ns3:hr>
          </ns3:TrackPointExtension>
        </extensions>
      </trkpt>
      <trkpt lat="-22.01357628218829631805419921875" lon="166.4627368748188018798828125">
        <ele>856</ele>
        <time>2016-08-12T21:21:05.000Z</time>
        <extensions>
          <ns3:TrackPointExtension>
            <ns3:atemp>16.0</ns3:atemp>
            <ns3:hr>128</ns3:hr>
          </ns3:TrackPointExtension>
        </extensions>
      </trkpt>
      <trkpt lat="-22.0135802216827869415283203125" lon="166.4627393893897533416748046875">
        <ele>856</ele>
        <time>2016-08-12T21:21:06.000Z</time>
        <extensions>
          <ns3:TrackPointExtension>
            <ns3:atemp>16.0</ns3:atemp>
            <ns3:hr>128</ns3:hr>
          </ns3:TrackPointExtension>
        </extensions>
      </trkpt>
      <trkpt lat="-22.01357536017894744873046875" lon="166.46275036968290805816650390625">
        <ele>856.20001220703125</ele>
        <time>2016-08-12T21:21:07.000Z</time>
        <extensions>
          <ns3:TrackPointExtension>
            <ns3:atemp>16.0</ns3:atemp>
            <ns3:hr>127</ns3:hr>
          </ns3:TrackPointExtension>
        </extensions>
      </trkpt>
      <trkpt lat="-22.01357158832252025604248046875" lon="166.46276570856571197509765625">
        <ele>856.20001220703125</ele>
        <time>2016-08-12T21:21:08.000Z</time>
        <extensions>
          <ns3:TrackPointExtension>
            <ns3:atemp>16.0</ns3:atemp>
            <ns3:hr>127</ns3:hr>
          </ns3:TrackPointExtension>
        </extensions>
      </trkpt>
      <trkpt lat="-22.01356597244739532470703125" lon="166.46278456784784793853759765625">
        <ele>856.4000244140625</ele>
        <time>2016-08-12T21:21:09.000Z</time>
        <extensions>
          <ns3:TrackPointExtension>
            <ns3:atemp>16.0</ns3:atemp>
            <ns3:hr>126</ns3:hr>
          </ns3:TrackPointExtension>
        </extensions>
      </trkpt>
      <trkpt lat="-22.01356270350515842437744140625" lon="166.46280669607222080230712890625">
        <ele>856.4000244140625</ele>
        <time>2016-08-12T21:21:10.000Z</time>
        <extensions>
          <ns3:TrackPointExtension>
            <ns3:atemp>16.0</ns3:atemp>
            <ns3:hr>126</ns3:hr>
          </ns3:TrackPointExtension>
        </extensions>
      </trkpt>
      <trkpt lat="-22.01355767436325550079345703125" lon="166.46283100359141826629638671875">
        <ele>856.4000244140625</ele>
        <time>2016-08-12T21:21:11.000Z</time>
        <extensions>
          <ns3:TrackPointExtension>
            <ns3:atemp>16.0</ns3:atemp>
            <ns3:hr>127</ns3:hr>
          </ns3:TrackPointExtension>
        </extensions>
      </trkpt>
      <trkpt lat="-22.013554237782955169677734375" lon="166.46285422146320343017578125">
        <ele>856.20001220703125</ele>
        <time>2016-08-12T21:21:12.000Z</time>
        <extensions>
          <ns3:TrackPointExtension>
            <ns3:atemp>16.0</ns3:atemp>
            <ns3:hr>127</ns3:hr>
          </ns3:TrackPointExtension>
        </extensions>
      </trkpt>
      <trkpt lat="-22.01355800963938236236572265625" lon="166.4628790318965911865234375">
        <ele>856.4000244140625</ele>
        <time>2016-08-12T21:21:13.000Z</time>
        <extensions>
          <ns3:TrackPointExtension>
            <ns3:atemp>16.0</ns3:atemp>
            <ns3:hr>128</ns3:hr>
          </ns3:TrackPointExtension>
        </extensions>
      </trkpt>
      <trkpt lat="-22.01356320641934871673583984375" lon="166.46290241740643978118896484375">
        <ele>856.4000244140625</ele>
        <time>2016-08-12T21:21:14.000Z</time>
        <extensions>
          <ns3:TrackPointExtension>
            <ns3:atemp>16.0</ns3:atemp>
            <ns3:hr>129</ns3:hr>
          </ns3:TrackPointExtension>
        </extensions>
      </trkpt>
      <trkpt lat="-22.01356924138963222503662109375" lon="166.46292555145919322967529296875">
        <ele>856.20001220703125</ele>
        <time>2016-08-12T21:21:15.000Z</time>
        <extensions>
          <ns3:TrackPointExtension>
            <ns3:atemp>16.0</ns3:atemp>
            <ns3:hr>129</ns3:hr>
          </ns3:TrackPointExtension>
        </extensions>
      </trkpt>
      <trkpt lat="-22.01357108540832996368408203125" lon="166.462945751845836639404296875">
        <ele>856.20001220703125</ele>
        <time>2016-08-12T21:21:16.000Z</time>
        <extensions>
          <ns3:TrackPointExtension>
            <ns3:atemp>16.0</ns3:atemp>
            <ns3:hr>130</ns3:hr>
          </ns3:TrackPointExtension>
        </extensions>
      </trkpt>
      <trkpt lat="-22.013575695455074310302734375" lon="166.46296679042279720306396484375">
        <ele>856.20001220703125</ele>
        <time>2016-08-12T21:21:17.000Z</time>
        <extensions>
          <ns3:TrackPointExtension>
            <ns3:atemp>16.0</ns3:atemp>
            <ns3:hr>130</ns3:hr>
          </ns3:TrackPointExtension>
        </extensions>
      </trkpt>
      <trkpt lat="-22.013573348522186279296875" lon="166.46299160085618495941162109375">
        <ele>856</ele>
        <time>2016-08-12T21:21:18.000Z</time>
        <extensions>
          <ns3:TrackPointExtension>
            <ns3:atemp>16.0</ns3:atemp>
            <ns3:hr>130</ns3:hr>
          </ns3:TrackPointExtension>
        </extensions>
      </trkpt>
      <trkpt lat="-22.0135775394737720489501953125" lon="166.463015489280223846435546875">
        <ele>856.20001220703125</ele>
        <time>2016-08-12T21:21:19.000Z</time>
        <extensions>
          <ns3:TrackPointExtension>
            <ns3:atemp>16.0</ns3:atemp>
            <ns3:hr>131</ns3:hr>
          </ns3:TrackPointExtension>
        </extensions>
      </trkpt>
      <trkpt lat="-22.013581730425357818603515625" lon="166.4630413055419921875">
        <ele>856.20001220703125</ele>
        <time>2016-08-12T21:21:20.000Z</time>
        <extensions>
          <ns3:TrackPointExtension>
            <ns3:atemp>16.0</ns3:atemp>
            <ns3:hr>131</ns3:hr>
          </ns3:TrackPointExtension>
        </extensions>
      </trkpt>
      <trkpt lat="-22.0135718397796154022216796875" lon="166.46307458169758319854736328125">
        <ele>856.20001220703125</ele>
        <time>2016-08-12T21:21:21.000Z</time>
        <extensions>
          <ns3:TrackPointExtension>
            <ns3:atemp>16.0</ns3:atemp>
            <ns3:hr>131</ns3:hr>
          </ns3:TrackPointExtension>
        </extensions>
      </trkpt>
      <trkpt lat="-22.0135678164660930633544921875" lon="166.46310257725417613983154296875">
        <ele>856</ele>
        <time>2016-08-12T21:21:22.000Z</time>
        <extensions>
          <ns3:TrackPointExtension>
            <ns3:atemp>16.0</ns3:atemp>
            <ns3:hr>131</ns3:hr>
          </ns3:TrackPointExtension>
        </extensions>
      </trkpt>
      <trkpt lat="-22.01357075013220310211181640625" lon="166.46313090808689594268798828125">
        <ele>856</ele>
        <time>2016-08-12T21:21:23.000Z</time>
        <extensions>
          <ns3:TrackPointExtension>
            <ns3:atemp>16.0</ns3:atemp>
            <ns3:hr>131</ns3:hr>
          </ns3:TrackPointExtension>
        </extensions>
      </trkpt>
      <trkpt lat="-22.01357267796993255615234375" lon="166.46315471269190311431884765625">
        <ele>856</ele>
        <time>2016-08-12T21:21:24.000Z</time>
        <extensions>
          <ns3:TrackPointExtension>
            <ns3:atemp>16.0</ns3:atemp>
            <ns3:hr>131</ns3:hr>
          </ns3:TrackPointExtension>
        </extensions>
      </trkpt>
      <trkpt lat="-22.013575695455074310302734375" lon="166.46318203769624233245849609375">
        <ele>855.79998779296875</ele>
        <time>2016-08-12T21:21:25.000Z</time>
        <extensions>
          <ns3:TrackPointExtension>
            <ns3:atemp>16.0</ns3:atemp>
            <ns3:hr>131</ns3:hr>
          </ns3:TrackPointExtension>
        </extensions>
      </trkpt>
      <trkpt lat="-22.0135738514363765716552734375" lon="166.46320383064448833465576171875">
        <ele>855.5999755859375</ele>
        <time>2016-08-12T21:21:26.000Z</time>
        <extensions>
          <ns3:TrackPointExtension>
            <ns3:atemp>16.0</ns3:atemp>
            <ns3:hr>132</ns3:hr>
          </ns3:TrackPointExtension>
        </extensions>
      </trkpt>
      <trkpt lat="-22.01357041485607624053955078125" lon="166.463227383792400360107421875">
        <ele>856</ele>
        <time>2016-08-12T21:21:27.000Z</time>
        <extensions>
          <ns3:TrackPointExtension>
            <ns3:atemp>16.0</ns3:atemp>
            <ns3:hr>132</ns3:hr>
          </ns3:TrackPointExtension>
        </extensions>
      </trkpt>
      <trkpt lat="-22.013567648828029632568359375" lon="166.4632530324161052703857421875">
        <ele>856.4000244140625</ele>
        <time>2016-08-12T21:21:28.000Z</time>
        <extensions>
          <ns3:TrackPointExtension>
            <ns3:atemp>16.0</ns3:atemp>
            <ns3:hr>132</ns3:hr>
          </ns3:TrackPointExtension>
        </extensions>
      </trkpt>
      <trkpt lat="-22.01356521807610988616943359375" lon="166.4632815308868885040283203125">
        <ele>856.4000244140625</ele>
        <time>2016-08-12T21:21:29.000Z</time>
        <extensions>
          <ns3:TrackPointExtension>
            <ns3:atemp>16.0</ns3:atemp>
            <ns3:hr>132</ns3:hr>
          </ns3:TrackPointExtension>
        </extensions>
      </trkpt>
      <trkpt lat="-22.01355926692485809326171875" lon="166.46330910734832286834716796875">
        <ele>856.20001220703125</ele>
        <time>2016-08-12T21:21:30.000Z</time>
        <extensions>
          <ns3:TrackPointExtension>
            <ns3:atemp>16.0</ns3:atemp>
            <ns3:hr>132</ns3:hr>
          </ns3:TrackPointExtension>
        </extensions>
      </trkpt>
      <trkpt lat="-22.01355532743036746978759765625" lon="166.46333492361009120941162109375">
        <ele>856</ele>
        <time>2016-08-12T21:21:31.000Z</time>
        <extensions>
          <ns3:TrackPointExtension>
            <ns3:atemp>16.0</ns3:atemp>
            <ns3:hr>132</ns3:hr>
          </ns3:TrackPointExtension>
        </extensions>
      </trkpt>
      <trkpt lat="-22.01355515979230403900146484375" lon="166.4633623324334621429443359375">
        <ele>856.4000244140625</ele>
        <time>2016-08-12T21:21:32.000Z</time>
        <extensions>
          <ns3:TrackPointExtension>
            <ns3:atemp>16.0</ns3:atemp>
            <ns3:hr>132</ns3:hr>
          </ns3:TrackPointExtension>
        </extensions>
      </trkpt>
      <trkpt lat="-22.0135507173836231231689453125" lon="166.4633921720087528228759765625">
        <ele>856.5999755859375</ele>
        <time>2016-08-12T21:21:33.000Z</time>
        <extensions>
          <ns3:TrackPointExtension>
            <ns3:atemp>16.0</ns3:atemp>
            <ns3:hr>133</ns3:hr>
          </ns3:TrackPointExtension>
        </extensions>
      </trkpt>
      <trkpt lat="-22.013552896678447723388671875" lon="166.46341388113796710968017578125">
        <ele>856.4000244140625</ele>
        <time>2016-08-12T21:21:34.000Z</time>
        <extensions>
          <ns3:TrackPointExtension>
            <ns3:atemp>16.0</ns3:atemp>
            <ns3:hr>133</ns3:hr>
          </ns3:TrackPointExtension>
        </extensions>
      </trkpt>
      <trkpt lat="-22.01354853808879852294921875" lon="166.46343600936233997344970703125">
        <ele>856.4000244140625</ele>
        <time>2016-08-12T21:21:35.000Z</time>
        <extensions>
          <ns3:TrackPointExtension>
            <ns3:atemp>16.0</ns3:atemp>
            <ns3:hr>133</ns3:hr>
          </ns3:TrackPointExtension>
        </extensions>
      </trkpt>
      <trkpt lat="-22.013552896678447723388671875" lon="166.46345444954931735992431640625">
        <ele>856.79998779296875</ele>
        <time>2016-08-12T21:21:36.000Z</time>
        <extensions>
          <ns3:TrackPointExtension>
            <ns3:atemp>16.0</ns3:atemp>
            <ns3:hr>133</ns3:hr>
          </ns3:TrackPointExtension>
        </extensions>
      </trkpt>
      <trkpt lat="-22.013551555573940277099609375" lon="166.46347657777369022369384765625">
        <ele>856.79998779296875</ele>
        <time>2016-08-12T21:21:37.000Z</time>
        <extensions>
          <ns3:TrackPointExtension>
            <ns3:atemp>16.0</ns3:atemp>
            <ns3:hr>133</ns3:hr>
          </ns3:TrackPointExtension>
        </extensions>
      </trkpt>
      <trkpt lat="-22.0135570876300334930419921875" lon="166.46349686197936534881591796875">
        <ele>856.79998779296875</ele>
        <time>2016-08-12T21:21:38.000Z</time>
        <extensions>
          <ns3:TrackPointExtension>
            <ns3:atemp>16.0</ns3:atemp>
            <ns3:hr>133</ns3:hr>
          </ns3:TrackPointExtension>
        </extensions>
      </trkpt>
      <trkpt lat="-22.013558931648731231689453125" lon="166.46351379342377185821533203125">
        <ele>856.79998779296875</ele>
        <time>2016-08-12T21:21:39.000Z</time>
        <extensions>
          <ns3:TrackPointExtension>
            <ns3:atemp>16.0</ns3:atemp>
            <ns3:hr>134</ns3:hr>
          </ns3:TrackPointExtension>
        </extensions>
      </trkpt>
      <trkpt lat="-22.013560943305492401123046875" lon="166.4635272882878780364990234375">
        <ele>857</ele>
        <time>2016-08-12T21:21:40.000Z</time>
        <extensions>
          <ns3:TrackPointExtension>
            <ns3:atemp>16.0</ns3:atemp>
            <ns3:hr>134</ns3:hr>
          </ns3:TrackPointExtension>
        </extensions>
      </trkpt>
      <trkpt lat="-22.01355884782969951629638671875" lon="166.463543213903903961181640625">
        <ele>857</ele>
        <time>2016-08-12T21:21:41.000Z</time>
        <extensions>
          <ns3:TrackPointExtension>
            <ns3:atemp>16.0</ns3:atemp>
            <ns3:hr>134</ns3:hr>
          </ns3:TrackPointExtension>
        </extensions>
      </trkpt>
      <trkpt lat="-22.01355197466909885406494140625" lon="166.46356140263378620147705078125">
        <ele>857</ele>
        <time>2016-08-12T21:21:42.000Z</time>
        <extensions>
          <ns3:TrackPointExtension>
            <ns3:atemp>16.0</ns3:atemp>
            <ns3:hr>134</ns3:hr>
          </ns3:TrackPointExtension>
        </extensions>
      </trkpt>
      <trkpt lat="-22.013542167842388153076171875" lon="166.4635879732668399810791015625">
        <ele>857.4000244140625</ele>
        <time>2016-08-12T21:21:43.000Z</time>
        <extensions>
          <ns3:TrackPointExtension>
            <ns3:atemp>16.0</ns3:atemp>
            <ns3:hr>134</ns3:hr>
          </ns3:TrackPointExtension>
        </extensions>
      </trkpt>
      <trkpt lat="-22.0135396532714366912841796875" lon="166.46361353807151317596435546875">
        <ele>857.5999755859375</ele>
        <time>2016-08-12T21:21:44.000Z</time>
        <extensions>
          <ns3:TrackPointExtension>
            <ns3:atemp>16.0</ns3:atemp>
            <ns3:hr>134</ns3:hr>
          </ns3:TrackPointExtension>
        </extensions>
      </trkpt>
      <trkpt lat="-22.0135356299579143524169921875" lon="166.463637091219425201416015625">
        <ele>857.5999755859375</ele>
        <time>2016-08-12T21:21:45.000Z</time>
        <extensions>
          <ns3:TrackPointExtension>
            <ns3:atemp>16.0</ns3:atemp>
            <ns3:hr>135</ns3:hr>
          </ns3:TrackPointExtension>
        </extensions>
      </trkpt>
      <trkpt lat="-22.01353051699697971343994140625" lon="166.4636603929102420806884765625">
        <ele>857.4000244140625</ele>
        <time>2016-08-12T21:21:46.000Z</time>
        <extensions>
          <ns3:TrackPointExtension>
            <ns3:atemp>16.0</ns3:atemp>
            <ns3:hr>135</ns3:hr>
          </ns3:TrackPointExtension>
        </extensions>
      </trkpt>
      <trkpt lat="-22.01352775096893310546875" lon="166.46368646062910556793212890625">
        <ele>856.79998779296875</ele>
        <time>2016-08-12T21:21:47.000Z</time>
        <extensions>
          <ns3:TrackPointExtension>
            <ns3:atemp>16.0</ns3:atemp>
            <ns3:hr>135</ns3:hr>
          </ns3:TrackPointExtension>
        </extensions>
      </trkpt>
      <trkpt lat="-22.01352699659764766693115234375" lon="166.46371462382376194000244140625">
        <ele>856.4000244140625</ele>
        <time>2016-08-12T21:21:48.000Z</time>
        <extensions>
          <ns3:TrackPointExtension>
            <ns3:atemp>16.0</ns3:atemp>
            <ns3:hr>135</ns3:hr>
          </ns3:TrackPointExtension>
        </extensions>
      </trkpt>
      <trkpt lat="-22.01353202573955059051513671875" lon="166.4637462235987186431884765625">
        <ele>856.5999755859375</ele>
        <time>2016-08-12T21:21:49.000Z</time>
        <extensions>
          <ns3:TrackPointExtension>
            <ns3:atemp>16.0</ns3:atemp>
            <ns3:hr>136</ns3:hr>
          </ns3:TrackPointExtension>
        </extensions>
      </trkpt>
      <trkpt lat="-22.0135383121669292449951171875" lon="166.463772542774677276611328125">
        <ele>856.79998779296875</ele>
        <time>2016-08-12T21:21:50.000Z</time>
        <extensions>
          <ns3:TrackPointExtension>
            <ns3:atemp>16.0</ns3:atemp>
            <ns3:hr>136</ns3:hr>
          </ns3:TrackPointExtension>
        </extensions>
      </trkpt>
      <trkpt lat="-22.01354728080332279205322265625" lon="166.463799364864826202392578125">
        <ele>856.79998779296875</ele>
        <time>2016-08-12T21:21:51.000Z</time>
        <extensions>
          <ns3:TrackPointExtension>
            <ns3:atemp>16.0</ns3:atemp>
            <ns3:hr>136</ns3:hr>
          </ns3:TrackPointExtension>
        </extensions>
      </trkpt>
      <trkpt lat="-22.0135567523539066314697265625" lon="166.46382057107985019683837890625">
        <ele>856.79998779296875</ele>
        <time>2016-08-12T21:21:52.000Z</time>
        <extensions>
          <ns3:TrackPointExtension>
            <ns3:atemp>16.0</ns3:atemp>
            <ns3:hr>137</ns3:hr>
          </ns3:TrackPointExtension>
        </extensions>
      </trkpt>
      <trkpt lat="-22.0135711692273616790771484375" lon="166.46384152583777904510498046875">
        <ele>856.79998779296875</ele>
        <time>2016-08-12T21:21:53.000Z</time>
        <extensions>
          <ns3:TrackPointExtension>
            <ns3:atemp>16.0</ns3:atemp>
            <ns3:hr>137</ns3:hr>
          </ns3:TrackPointExtension>
        </extensions>
      </trkpt>
      <trkpt lat="-22.01358332298696041107177734375" lon="166.4638608880341053009033203125">
        <ele>856.79998779296875</ele>
        <time>2016-08-12T21:21:54.000Z</time>
        <extensions>
          <ns3:TrackPointExtension>
            <ns3:atemp>16.0</ns3:atemp>
            <ns3:hr>137</ns3:hr>
          </ns3:TrackPointExtension>
        </extensions>
      </trkpt>
      <trkpt lat="-22.013602517545223236083984375" lon="166.463875137269496917724609375">
        <ele>857</ele>
        <time>2016-08-12T21:21:55.000Z</time>
        <extensions>
          <ns3:TrackPointExtension>
            <ns3:atemp>16.0</ns3:atemp>
            <ns3:hr>137</ns3:hr>
          </ns3:TrackPointExtension>
        </extensions>
      </trkpt>
      <trkpt lat="-22.0136194489896297454833984375" lon="166.4638893865048885345458984375">
        <ele>857.20001220703125</ele>
        <time>2016-08-12T21:21:56.000Z</time>
        <extensions>
          <ns3:TrackPointExtension>
            <ns3:atemp>16.0</ns3:atemp>
            <ns3:hr>137</ns3:hr>
          </ns3:TrackPointExtension>
        </extensions>
      </trkpt>
      <trkpt lat="-22.01363646425306797027587890625" lon="166.46390489302575588226318359375">
        <ele>857.4000244140625</ele>
        <time>2016-08-12T21:21:57.000Z</time>
        <extensions>
          <ns3:TrackPointExtension>
            <ns3:atemp>16.0</ns3:atemp>
            <ns3:hr>137</ns3:hr>
          </ns3:TrackPointExtension>
        </extensions>
      </trkpt>
      <trkpt lat="-22.0136524736881256103515625" lon="166.4639192260801792144775390625">
        <ele>857.5999755859375</ele>
        <time>2016-08-12T21:21:58.000Z</time>
        <extensions>
          <ns3:TrackPointExtension>
            <ns3:atemp>16.0</ns3:atemp>
            <ns3:hr>137</ns3:hr>
          </ns3:TrackPointExtension>
        </extensions>
      </trkpt>
      <trkpt lat="-22.01366781257092952728271484375" lon="166.463929116725921630859375">
        <ele>857.4000244140625</ele>
        <time>2016-08-12T21:21:59.000Z</time>
        <extensions>
          <ns3:TrackPointExtension>
            <ns3:atemp>16.0</ns3:atemp>
            <ns3:hr>138</ns3:hr>
          </ns3:TrackPointExtension>
        </extensions>
      </trkpt>
      <trkpt lat="-22.013689689338207244873046875" lon="166.46394797600805759429931640625">
        <ele>857.4000244140625</ele>
        <time>2016-08-12T21:22:00.000Z</time>
        <extensions>
          <ns3:TrackPointExtension>
            <ns3:atemp>16.0</ns3:atemp>
            <ns3:hr>137</ns3:hr>
          </ns3:TrackPointExtension>
        </extensions>
      </trkpt>
      <trkpt lat="-22.0137069560587406158447265625" lon="166.46396004594862461090087890625">
        <ele>857.79998779296875</ele>
        <time>2016-08-12T21:22:01.000Z</time>
        <extensions>
          <ns3:TrackPointExtension>
            <ns3:atemp>16.0</ns3:atemp>
            <ns3:hr>138</ns3:hr>
          </ns3:TrackPointExtension>
        </extensions>
      </trkpt>
      <trkpt lat="-22.01372480951249599456787109375" lon="166.46396792493760585784912109375">
        <ele>858</ele>
        <time>2016-08-12T21:22:02.000Z</time>
        <extensions>
          <ns3:TrackPointExtension>
            <ns3:atemp>16.0</ns3:atemp>
            <ns3:hr>137</ns3:hr>
          </ns3:TrackPointExtension>
        </extensions>
      </trkpt>
      <trkpt lat="-22.0137418247759342193603515625" lon="166.4639680087566375732421875">
        <ele>857.79998779296875</ele>
        <time>2016-08-12T21:22:03.000Z</time>
        <extensions>
          <ns3:TrackPointExtension>
            <ns3:atemp>16.0</ns3:atemp>
            <ns3:hr>138</ns3:hr>
          </ns3:TrackPointExtension>
        </extensions>
      </trkpt>
      <trkpt lat="-22.01375884003937244415283203125" lon="166.4639668352901935577392578125">
        <ele>857.79998779296875</ele>
        <time>2016-08-12T21:22:04.000Z</time>
        <extensions>
          <ns3:TrackPointExtension>
            <ns3:atemp>16.0</ns3:atemp>
            <ns3:hr>138</ns3:hr>
          </ns3:TrackPointExtension>
        </extensions>
      </trkpt>
      <trkpt lat="-22.01378080062568187713623046875" lon="166.46396038122475147247314453125">
        <ele>858</ele>
        <time>2016-08-12T21:22:05.000Z</time>
        <extensions>
          <ns3:TrackPointExtension>
            <ns3:atemp>16.0</ns3:atemp>
            <ns3:hr>137</ns3:hr>
          </ns3:TrackPointExtension>
        </extensions>
      </trkpt>
      <trkpt lat="-22.01380661688745021820068359375" lon="166.46396197378635406494140625">
        <ele>858</ele>
        <time>2016-08-12T21:22:06.000Z</time>
        <extensions>
          <ns3:TrackPointExtension>
            <ns3:atemp>16.0</ns3:atemp>
            <ns3:hr>138</ns3:hr>
          </ns3:TrackPointExtension>
        </extensions>
      </trkpt>
      <trkpt lat="-22.0138279907405376434326171875" lon="166.4639634825289249420166015625">
        <ele>858</ele>
        <time>2016-08-12T21:22:07.000Z</time>
        <extensions>
          <ns3:TrackPointExtension>
            <ns3:atemp>16.0</ns3:atemp>
            <ns3:hr>138</ns3:hr>
          </ns3:TrackPointExtension>
        </extensions>
      </trkpt>
      <trkpt lat="-22.01384936459362506866455078125" lon="166.4639665000140666961669921875">
        <ele>857.79998779296875</ele>
        <time>2016-08-12T21:22:08.000Z</time>
        <extensions>
          <ns3:TrackPointExtension>
            <ns3:atemp>16.0</ns3:atemp>
            <ns3:hr>137</ns3:hr>
          </ns3:TrackPointExtension>
        </extensions>
      </trkpt>
      <trkpt lat="-22.01387048698961734771728515625" lon="166.4639644883573055267333984375">
        <ele>857.79998779296875</ele>
        <time>2016-08-12T21:22:09.000Z</time>
        <extensions>
          <ns3:TrackPointExtension>
            <ns3:atemp>16.0</ns3:atemp>
            <ns3:hr>137</ns3:hr>
          </ns3:TrackPointExtension>
        </extensions>
      </trkpt>
      <trkpt lat="-22.0138911902904510498046875" lon="166.46396373398602008819580078125">
        <ele>858.20001220703125</ele>
        <time>2016-08-12T21:22:10.000Z</time>
        <extensions>
          <ns3:TrackPointExtension>
            <ns3:atemp>16.0</ns3:atemp>
            <ns3:hr>137</ns3:hr>
          </ns3:TrackPointExtension>
        </extensions>
      </trkpt>
      <trkpt lat="-22.01390854083001613616943359375" lon="166.4639599621295928955078125">
        <ele>858.20001220703125</ele>
        <time>2016-08-12T21:22:11.000Z</time>
        <extensions>
          <ns3:TrackPointExtension>
            <ns3:atemp>16.0</ns3:atemp>
            <ns3:hr>137</ns3:hr>
          </ns3:TrackPointExtension>
        </extensions>
      </trkpt>
      <trkpt lat="-22.013919353485107421875" lon="166.46395853720605373382568359375">
        <ele>858.20001220703125</ele>
        <time>2016-08-12T21:22:12.000Z</time>
        <extensions>
          <ns3:TrackPointExtension>
            <ns3:atemp>16.0</ns3:atemp>
            <ns3:hr>137</ns3:hr>
          </ns3:TrackPointExtension>
        </extensions>
      </trkpt>
      <trkpt lat="-22.01393636874854564666748046875" lon="166.4639599621295928955078125">
        <ele>858.20001220703125</ele>
        <time>2016-08-12T21:22:13.000Z</time>
        <extensions>
          <ns3:TrackPointExtension>
            <ns3:atemp>16.0</ns3:atemp>
            <ns3:hr>137</ns3:hr>
          </ns3:TrackPointExtension>
        </extensions>
      </trkpt>
      <trkpt lat="-22.01395564712584018707275390625" lon="166.46396239288151264190673828125">
        <ele>858</ele>
        <time>2016-08-12T21:22:14.000Z</time>
        <extensions>
          <ns3:TrackPointExtension>
            <ns3:atemp>16.0</ns3:atemp>
            <ns3:hr>136</ns3:hr>
          </ns3:TrackPointExtension>
        </extensions>
      </trkpt>
      <trkpt lat="-22.0139741711318492889404296875" lon="166.4639638178050518035888671875">
        <ele>858</ele>
        <time>2016-08-12T21:22:15.000Z</time>
        <extensions>
          <ns3:TrackPointExtension>
            <ns3:atemp>16.0</ns3:atemp>
            <ns3:hr>137</ns3:hr>
          </ns3:TrackPointExtension>
        </extensions>
      </trkpt>
      <trkpt lat="-22.01398934237658977508544921875" lon="166.46396121941506862640380859375">
        <ele>858.20001220703125</ele>
        <time>2016-08-12T21:22:16.000Z</time>
        <extensions>
          <ns3:TrackPointExtension>
            <ns3:atemp>16.0</ns3:atemp>
            <ns3:hr>136</ns3:hr>
          </ns3:TrackPointExtension>
        </extensions>
      </trkpt>
      <trkpt lat="-22.014008201658725738525390625" lon="166.46396457217633724212646484375">
        <ele>858.20001220703125</ele>
        <time>2016-08-12T21:22:17.000Z</time>
        <extensions>
          <ns3:TrackPointExtension>
            <ns3:atemp>16.0</ns3:atemp>
            <ns3:hr>137</ns3:hr>
          </ns3:TrackPointExtension>
        </extensions>
      </trkpt>
      <trkpt lat="-22.01403133571147918701171875" lon="166.46397270262241363525390625">
        <ele>858.20001220703125</ele>
        <time>2016-08-12T21:22:18.000Z</time>
        <extensions>
          <ns3:TrackPointExtension>
            <ns3:atemp>16.0</ns3:atemp>
            <ns3:hr>136</ns3:hr>
          </ns3:TrackPointExtension>
        </extensions>
      </trkpt>
      <trkpt lat="-22.01405287720263004302978515625" lon="166.46397295407950878143310546875">
        <ele>858.20001220703125</ele>
        <time>2016-08-12T21:22:19.000Z</time>
        <extensions>
          <ns3:TrackPointExtension>
            <ns3:atemp>16.0</ns3:atemp>
            <ns3:hr>137</ns3:hr>
          </ns3:TrackPointExtension>
        </extensions>
      </trkpt>
      <trkpt lat="-22.01407567597925662994384765625" lon="166.4639822579920291900634765625">
        <ele>858.20001220703125</ele>
        <time>2016-08-12T21:22:20.000Z</time>
        <extensions>
          <ns3:TrackPointExtension>
            <ns3:atemp>16.0</ns3:atemp>
            <ns3:hr>137</ns3:hr>
          </ns3:TrackPointExtension>
        </extensions>
      </trkpt>
      <trkpt lat="-22.0140935294330120086669921875" lon="166.463988460600376129150390625">
        <ele>858.4000244140625</ele>
        <time>2016-08-12T21:22:21.000Z</time>
        <extensions>
          <ns3:TrackPointExtension>
            <ns3:atemp>16.0</ns3:atemp>
            <ns3:hr>137</ns3:hr>
          </ns3:TrackPointExtension>
        </extensions>
      </trkpt>
      <trkpt lat="-22.01411523856222629547119140625" lon="166.4639980159699916839599609375">
        <ele>858.4000244140625</ele>
        <time>2016-08-12T21:22:22.000Z</time>
        <extensions>
          <ns3:TrackPointExtension>
            <ns3:atemp>16.0</ns3:atemp>
            <ns3:hr>137</ns3:hr>
          </ns3:TrackPointExtension>
        </extensions>
      </trkpt>
      <trkpt lat="-22.01413904316723346710205078125" lon="166.46400882862508296966552734375">
        <ele>858.5999755859375</ele>
        <time>2016-08-12T21:22:23.000Z</time>
        <extensions>
          <ns3:TrackPointExtension>
            <ns3:atemp>16.0</ns3:atemp>
            <ns3:hr>137</ns3:hr>
          </ns3:TrackPointExtension>
        </extensions>
      </trkpt>
      <trkpt lat="-22.01416335068643093109130859375" lon="166.464014947414398193359375">
        <ele>858.5999755859375</ele>
        <time>2016-08-12T21:22:24.000Z</time>
        <extensions>
          <ns3:TrackPointExtension>
            <ns3:atemp>16.0</ns3:atemp>
            <ns3:hr>137</ns3:hr>
          </ns3:TrackPointExtension>
        </extensions>
      </trkpt>
      <trkpt lat="-22.01418279670178890228271484375" lon="166.46402223967015743255615234375">
        <ele>858.5999755859375</ele>
        <time>2016-08-12T21:22:25.000Z</time>
        <extensions>
          <ns3:TrackPointExtension>
            <ns3:atemp>16.0</ns3:atemp>
            <ns3:hr>138</ns3:hr>
          </ns3:TrackPointExtension>
        </extensions>
      </trkpt>
      <trkpt lat="-22.01419972814619541168212890625" lon="166.464021317660808563232421875">
        <ele>858.5999755859375</ele>
        <time>2016-08-12T21:22:26.000Z</time>
        <extensions>
          <ns3:TrackPointExtension>
            <ns3:atemp>16.0</ns3:atemp>
            <ns3:hr>138</ns3:hr>
          </ns3:TrackPointExtension>
        </extensions>
      </trkpt>
      <trkpt lat="-22.01421448029577732086181640625" lon="166.464013941586017608642578125">
        <ele>858.79998779296875</ele>
        <time>2016-08-12T21:22:27.000Z</time>
        <extensions>
          <ns3:TrackPointExtension>
            <ns3:atemp>16.0</ns3:atemp>
            <ns3:hr>138</ns3:hr>
          </ns3:TrackPointExtension>
        </extensions>
      </trkpt>
      <trkpt lat="-22.01422319747507572174072265625" lon="166.46401167847216129302978515625">
        <ele>858.79998779296875</ele>
        <time>2016-08-12T21:22:28.000Z</time>
        <extensions>
          <ns3:TrackPointExtension>
            <ns3:atemp>16.0</ns3:atemp>
            <ns3:hr>137</ns3:hr>
          </ns3:TrackPointExtension>
        </extensions>
      </trkpt>
      <trkpt lat="-22.0142345130443572998046875" lon="166.46400916390120983123779296875">
        <ele>858.4000244140625</ele>
        <time>2016-08-12T21:22:29.000Z</time>
        <extensions>
          <ns3:TrackPointExtension>
            <ns3:atemp>16.0</ns3:atemp>
            <ns3:hr>137</ns3:hr>
          </ns3:TrackPointExtension>
        </extensions>
      </trkpt>
      <trkpt lat="-22.01424582861363887786865234375" lon="166.46400312893092632293701171875">
        <ele>858.20001220703125</ele>
        <time>2016-08-12T21:22:30.000Z</time>
        <extensions>
          <ns3:TrackPointExtension>
            <ns3:atemp>16.0</ns3:atemp>
            <ns3:hr>137</ns3:hr>
          </ns3:TrackPointExtension>
        </extensions>
      </trkpt>
      <trkpt lat="-22.01425638981163501739501953125" lon="166.46400011144578456878662109375">
        <ele>858.20001220703125</ele>
        <time>2016-08-12T21:22:31.000Z</time>
        <extensions>
          <ns3:TrackPointExtension>
            <ns3:atemp>16.0</ns3:atemp>
            <ns3:hr>136</ns3:hr>
          </ns3:TrackPointExtension>
        </extensions>
      </trkpt>
      <trkpt lat="-22.014270722866058349609375" lon="166.4640010334551334381103515625">
        <ele>858.4000244140625</ele>
        <time>2016-08-12T21:22:32.000Z</time>
        <extensions>
          <ns3:TrackPointExtension>
            <ns3:atemp>16.0</ns3:atemp>
            <ns3:hr>135</ns3:hr>
          </ns3:TrackPointExtension>
        </extensions>
      </trkpt>
      <trkpt lat="-22.01428622938692569732666015625" lon="166.463992483913898468017578125">
        <ele>858.5999755859375</ele>
        <time>2016-08-12T21:22:33.000Z</time>
        <extensions>
          <ns3:TrackPointExtension>
            <ns3:atemp>16.0</ns3:atemp>
            <ns3:hr>135</ns3:hr>
          </ns3:TrackPointExtension>
        </extensions>
      </trkpt>
      <trkpt lat="-22.01430089771747589111328125" lon="166.46398636512458324432373046875">
        <ele>858.5999755859375</ele>
        <time>2016-08-12T21:22:34.000Z</time>
        <extensions>
          <ns3:TrackPointExtension>
            <ns3:atemp>16.0</ns3:atemp>
            <ns3:hr>135</ns3:hr>
          </ns3:TrackPointExtension>
        </extensions>
      </trkpt>
      <trkpt lat="-22.014314644038677215576171875" lon="166.46397781558334827423095703125">
        <ele>858.79998779296875</ele>
        <time>2016-08-12T21:22:35.000Z</time>
        <extensions>
          <ns3:TrackPointExtension>
            <ns3:atemp>16.0</ns3:atemp>
            <ns3:hr>134</ns3:hr>
          </ns3:TrackPointExtension>
        </extensions>
      </trkpt>
      <trkpt lat="-22.01433417387306690216064453125" lon="166.4639698527753353118896484375">
        <ele>858.79998779296875</ele>
        <time>2016-08-12T21:22:36.000Z</time>
        <extensions>
          <ns3:TrackPointExtension>
            <ns3:atemp>16.0</ns3:atemp>
            <ns3:hr>134</ns3:hr>
          </ns3:TrackPointExtension>
        </extensions>
      </trkpt>
      <trkpt lat="-22.01435194350779056549072265625" lon="166.46396926604211330413818359375">
        <ele>858.5999755859375</ele>
        <time>2016-08-12T21:22:37.000Z</time>
        <extensions>
          <ns3:TrackPointExtension>
            <ns3:atemp>16.0</ns3:atemp>
            <ns3:hr>133</ns3:hr>
          </ns3:TrackPointExtension>
        </extensions>
      </trkpt>
      <trkpt lat="-22.0143758319318294525146484375" lon="166.4639618061482906341552734375">
        <ele>858.5999755859375</ele>
        <time>2016-08-12T21:22:38.000Z</time>
        <extensions>
          <ns3:TrackPointExtension>
            <ns3:atemp>16.0</ns3:atemp>
            <ns3:hr>133</ns3:hr>
          </ns3:TrackPointExtension>
        </extensions>
      </trkpt>
      <trkpt lat="-22.01440072618424892425537109375" lon="166.463965661823749542236328125">
        <ele>858.20001220703125</ele>
        <time>2016-08-12T21:22:39.000Z</time>
        <extensions>
          <ns3:TrackPointExtension>
            <ns3:atemp>16.0</ns3:atemp>
            <ns3:hr>133</ns3:hr>
          </ns3:TrackPointExtension>
        </extensions>
      </trkpt>
      <trkpt lat="-22.01442620716989040374755859375" lon="166.463969685137271881103515625">
        <ele>858.4000244140625</ele>
        <time>2016-08-12T21:22:40.000Z</time>
        <extensions>
          <ns3:TrackPointExtension>
            <ns3:atemp>16.0</ns3:atemp>
            <ns3:hr>133</ns3:hr>
          </ns3:TrackPointExtension>
        </extensions>
      </trkpt>
      <trkpt lat="-22.01445437036454677581787109375" lon="166.4639735408127307891845703125">
        <ele>858.5999755859375</ele>
        <time>2016-08-12T21:22:41.000Z</time>
        <extensions>
          <ns3:TrackPointExtension>
            <ns3:atemp>16.0</ns3:atemp>
            <ns3:hr>133</ns3:hr>
          </ns3:TrackPointExtension>
        </extensions>
      </trkpt>
      <trkpt lat="-22.01448119245469570159912109375" lon="166.46397295407950878143310546875">
        <ele>858.79998779296875</ele>
        <time>2016-08-12T21:22:42.000Z</time>
        <extensions>
          <ns3:TrackPointExtension>
            <ns3:atemp>16.0</ns3:atemp>
            <ns3:hr>133</ns3:hr>
          </ns3:TrackPointExtension>
        </extensions>
      </trkpt>
      <trkpt lat="-22.01450415886938571929931640625" lon="166.46397312171757221221923828125">
        <ele>858.79998779296875</ele>
        <time>2016-08-12T21:22:43.000Z</time>
        <extensions>
          <ns3:TrackPointExtension>
            <ns3:atemp>16.0</ns3:atemp>
            <ns3:hr>134</ns3:hr>
          </ns3:TrackPointExtension>
        </extensions>
      </trkpt>
      <trkpt lat="-22.014531902968883514404296875" lon="166.46397915668785572052001953125">
        <ele>859</ele>
        <time>2016-08-12T21:22:44.000Z</time>
        <extensions>
          <ns3:TrackPointExtension>
            <ns3:atemp>16.0</ns3:atemp>
            <ns3:hr>134</ns3:hr>
          </ns3:TrackPointExtension>
        </extensions>
      </trkpt>
      <trkpt lat="-22.0145555399358272552490234375" lon="166.46397982724010944366455078125">
        <ele>859.20001220703125</ele>
        <time>2016-08-12T21:22:45.000Z</time>
        <extensions>
          <ns3:TrackPointExtension>
            <ns3:atemp>16.0</ns3:atemp>
            <ns3:hr>134</ns3:hr>
          </ns3:TrackPointExtension>
        </extensions>
      </trkpt>
      <trkpt lat="-22.01457984745502471923828125" lon="166.4639829285442829132080078125">
        <ele>859</ele>
        <time>2016-08-12T21:22:46.000Z</time>
        <extensions>
          <ns3:TrackPointExtension>
            <ns3:atemp>16.0</ns3:atemp>
            <ns3:hr>134</ns3:hr>
          </ns3:TrackPointExtension>
        </extensions>
      </trkpt>
      <trkpt lat="-22.01461479999125003814697265625" lon="166.46398477256298065185546875">
        <ele>859.20001220703125</ele>
        <time>2016-08-12T21:22:47.000Z</time>
        <extensions>
          <ns3:TrackPointExtension>
            <ns3:atemp>16.0</ns3:atemp>
            <ns3:hr>135</ns3:hr>
          </ns3:TrackPointExtension>
        </extensions>
      </trkpt>
      <trkpt lat="-22.0146381855010986328125" lon="166.46398787386715412139892578125">
        <ele>859.4000244140625</ele>
        <time>2016-08-12T21:22:48.000Z</time>
        <extensions>
          <ns3:TrackPointExtension>
            <ns3:atemp>16.0</ns3:atemp>
            <ns3:hr>134</ns3:hr>
          </ns3:TrackPointExtension>
        </extensions>
      </trkpt>
      <trkpt lat="-22.0146609842777252197265625" lon="166.46399156190454959869384765625">
        <ele>859.20001220703125</ele>
        <time>2016-08-12T21:22:49.000Z</time>
        <extensions>
          <ns3:TrackPointExtension>
            <ns3:atemp>16.0</ns3:atemp>
            <ns3:hr>134</ns3:hr>
          </ns3:TrackPointExtension>
        </extensions>
      </trkpt>
      <trkpt lat="-22.01468286104500293731689453125" lon="166.46399558521807193756103515625">
        <ele>859</ele>
        <time>2016-08-12T21:22:50.000Z</time>
        <extensions>
          <ns3:TrackPointExtension>
            <ns3:atemp>16.0</ns3:atemp>
            <ns3:hr>134</ns3:hr>
          </ns3:TrackPointExtension>
        </extensions>
      </trkpt>
      <trkpt lat="-22.0147060789167881011962890625" lon="166.4639960043132305145263671875">
        <ele>859</ele>
        <time>2016-08-12T21:22:51.000Z</time>
        <extensions>
          <ns3:TrackPointExtension>
            <ns3:atemp>16.0</ns3:atemp>
            <ns3:hr>134</ns3:hr>
          </ns3:TrackPointExtension>
        </extensions>
      </trkpt>
      <trkpt lat="-22.01475343666970729827880859375" lon="166.46397027187049388885498046875">
        <ele>859</ele>
        <time>2016-08-12T21:22:52.000Z</time>
        <extensions>
          <ns3:TrackPointExtension>
            <ns3:atemp>16.0</ns3:atemp>
            <ns3:hr>134</ns3:hr>
          </ns3:TrackPointExtension>
        </extensions>
      </trkpt>
      <trkpt lat="-22.0147781632840633392333984375" lon="166.463972032070159912109375">
        <ele>858.79998779296875</ele>
        <time>2016-08-12T21:22:53.000Z</time>
        <extensions>
          <ns3:TrackPointExtension>
            <ns3:atemp>16.0</ns3:atemp>
            <ns3:hr>134</ns3:hr>
          </ns3:TrackPointExtension>
        </extensions>
      </trkpt>
      <trkpt lat="-22.01480087824165821075439453125" lon="166.463969014585018157958984375">
        <ele>858.79998779296875</ele>
        <time>2016-08-12T21:22:54.000Z</time>
        <extensions>
          <ns3:TrackPointExtension>
            <ns3:atemp>16.0</ns3:atemp>
            <ns3:hr>134</ns3:hr>
          </ns3:TrackPointExtension>
        </extensions>
      </trkpt>
      <trkpt lat="-22.01482652686536312103271484375" lon="166.46397002041339874267578125">
        <ele>858.79998779296875</ele>
        <time>2016-08-12T21:22:55.000Z</time>
        <extensions>
          <ns3:TrackPointExtension>
            <ns3:atemp>16.0</ns3:atemp>
            <ns3:hr>133</ns3:hr>
          </ns3:TrackPointExtension>
        </extensions>
      </trkpt>
      <trkpt lat="-22.01485083438456058502197265625" lon="166.46397043950855731964111328125">
        <ele>858.4000244140625</ele>
        <time>2016-08-12T21:22:56.000Z</time>
        <extensions>
          <ns3:TrackPointExtension>
            <ns3:atemp>16.0</ns3:atemp>
            <ns3:hr>133</ns3:hr>
          </ns3:TrackPointExtension>
        </extensions>
      </trkpt>
      <trkpt lat="-22.014869861304759979248046875" lon="166.46396691910922527313232421875">
        <ele>858.5999755859375</ele>
        <time>2016-08-12T21:22:57.000Z</time>
        <extensions>
          <ns3:TrackPointExtension>
            <ns3:atemp>16.0</ns3:atemp>
            <ns3:hr>133</ns3:hr>
          </ns3:TrackPointExtension>
        </extensions>
      </trkpt>
      <trkpt lat="-22.0148921571671962738037109375" lon="166.46396239288151264190673828125">
        <ele>858.79998779296875</ele>
        <time>2016-08-12T21:22:58.000Z</time>
        <extensions>
          <ns3:TrackPointExtension>
            <ns3:atemp>16.0</ns3:atemp>
            <ns3:hr>133</ns3:hr>
          </ns3:TrackPointExtension>
        </extensions>
      </trkpt>
      <trkpt lat="-22.014920152723789215087890625" lon="166.46395434625446796417236328125">
        <ele>858.79998779296875</ele>
        <time>2016-08-12T21:22:59.000Z</time>
        <extensions>
          <ns3:TrackPointExtension>
            <ns3:atemp>16.0</ns3:atemp>
            <ns3:hr>133</ns3:hr>
          </ns3:TrackPointExtension>
        </extensions>
      </trkpt>
      <trkpt lat="-22.014937587082386016845703125" lon="166.46395216695964336395263671875">
        <ele>858.79998779296875</ele>
        <time>2016-08-12T21:23:00.000Z</time>
        <extensions>
          <ns3:TrackPointExtension>
            <ns3:atemp>16.0</ns3:atemp>
            <ns3:hr>133</ns3:hr>
          </ns3:TrackPointExtension>
        </extensions>
      </trkpt>
      <trkpt lat="-22.01495493762195110321044921875" lon="166.4639551006257534027099609375">
        <ele>858.5999755859375</ele>
        <time>2016-08-12T21:23:01.000Z</time>
        <extensions>
          <ns3:TrackPointExtension>
            <ns3:atemp>16.0</ns3:atemp>
            <ns3:hr>132</ns3:hr>
          </ns3:TrackPointExtension>
        </extensions>
      </trkpt>
      <trkpt lat="-22.0149722881615161895751953125" lon="166.46395451389253139495849609375">
        <ele>858.4000244140625</ele>
        <time>2016-08-12T21:23:02.000Z</time>
        <extensions>
          <ns3:TrackPointExtension>
            <ns3:atemp>16.0</ns3:atemp>
            <ns3:hr>131</ns3:hr>
          </ns3:TrackPointExtension>
        </extensions>
      </trkpt>
      <trkpt lat="-22.0149887166917324066162109375" lon="166.46395853720605373382568359375">
        <ele>858.4000244140625</ele>
        <time>2016-08-12T21:23:03.000Z</time>
        <extensions>
          <ns3:TrackPointExtension>
            <ns3:atemp>16.0</ns3:atemp>
            <ns3:hr>131</ns3:hr>
          </ns3:TrackPointExtension>
        </extensions>
      </trkpt>
      <trkpt lat="-22.01501176692545413970947265625" lon="166.4639621414244174957275390625">
        <ele>858.5999755859375</ele>
        <time>2016-08-12T21:23:04.000Z</time>
        <extensions>
          <ns3:TrackPointExtension>
            <ns3:atemp>16.0</ns3:atemp>
            <ns3:hr>130</ns3:hr>
          </ns3:TrackPointExtension>
        </extensions>
      </trkpt>
      <trkpt lat="-22.01503607444465160369873046875" lon="166.46398066543042659759521484375">
        <ele>858.79998779296875</ele>
        <time>2016-08-12T21:23:05.000Z</time>
        <extensions>
          <ns3:TrackPointExtension>
            <ns3:atemp>16.0</ns3:atemp>
            <ns3:hr>131</ns3:hr>
          </ns3:TrackPointExtension>
        </extensions>
      </trkpt>
      <trkpt lat="-22.01506591401994228363037109375" lon="166.4639892987906932830810546875">
        <ele>858.79998779296875</ele>
        <time>2016-08-12T21:23:06.000Z</time>
        <extensions>
          <ns3:TrackPointExtension>
            <ns3:atemp>16.0</ns3:atemp>
            <ns3:hr>130</ns3:hr>
          </ns3:TrackPointExtension>
        </extensions>
      </trkpt>
      <trkpt lat="-22.0150896348059177398681640625" lon="166.464000530540943145751953125">
        <ele>858.5999755859375</ele>
        <time>2016-08-12T21:23:07.000Z</time>
        <extensions>
          <ns3:TrackPointExtension>
            <ns3:atemp>16.0</ns3:atemp>
            <ns3:hr>130</ns3:hr>
          </ns3:TrackPointExtension>
        </extensions>
      </trkpt>
      <trkpt lat="-22.01511234976351261138916015625" lon="166.46400623023509979248046875">
        <ele>859</ele>
        <time>2016-08-12T21:23:08.000Z</time>
        <extensions>
          <ns3:TrackPointExtension>
            <ns3:atemp>16.0</ns3:atemp>
            <ns3:hr>131</ns3:hr>
          </ns3:TrackPointExtension>
        </extensions>
      </trkpt>
      <trkpt lat="-22.0151375792920589447021484375" lon="166.46402223967015743255615234375">
        <ele>859</ele>
        <time>2016-08-12T21:23:09.000Z</time>
        <extensions>
          <ns3:TrackPointExtension>
            <ns3:atemp>16.0</ns3:atemp>
            <ns3:hr>131</ns3:hr>
          </ns3:TrackPointExtension>
        </extensions>
      </trkpt>
      <trkpt lat="-22.01515275053679943084716796875" lon="166.46403565071523189544677734375">
        <ele>858.5999755859375</ele>
        <time>2016-08-12T21:23:10.000Z</time>
        <extensions>
          <ns3:TrackPointExtension>
            <ns3:atemp>16.0</ns3:atemp>
            <ns3:hr>131</ns3:hr>
          </ns3:TrackPointExtension>
        </extensions>
      </trkpt>
      <trkpt lat="-22.0151791535317897796630859375" lon="166.4640446193516254425048828125">
        <ele>858.79998779296875</ele>
        <time>2016-08-12T21:23:11.000Z</time>
        <extensions>
          <ns3:TrackPointExtension>
            <ns3:atemp>16.0</ns3:atemp>
            <ns3:hr>131</ns3:hr>
          </ns3:TrackPointExtension>
        </extensions>
      </trkpt>
      <trkpt lat="-22.01519549824297428131103515625" lon="166.4640566892921924591064453125">
        <ele>858.79998779296875</ele>
        <time>2016-08-12T21:23:12.000Z</time>
        <extensions>
          <ns3:TrackPointExtension>
            <ns3:atemp>16.0</ns3:atemp>
            <ns3:hr>132</ns3:hr>
          </ns3:TrackPointExtension>
        </extensions>
      </trkpt>
      <trkpt lat="-22.015223912894725799560546875" lon="166.46407051943242549896240234375">
        <ele>858.5999755859375</ele>
        <time>2016-08-12T21:23:13.000Z</time>
        <extensions>
          <ns3:TrackPointExtension>
            <ns3:atemp>16.0</ns3:atemp>
            <ns3:hr>131</ns3:hr>
          </ns3:TrackPointExtension>
        </extensions>
      </trkpt>
      <trkpt lat="-22.0152510702610015869140625" lon="166.4640754647552967071533203125">
        <ele>858.5999755859375</ele>
        <time>2016-08-12T21:23:14.000Z</time>
        <extensions>
          <ns3:TrackPointExtension>
            <ns3:atemp>16.0</ns3:atemp>
            <ns3:hr>132</ns3:hr>
          </ns3:TrackPointExtension>
        </extensions>
      </trkpt>
      <trkpt lat="-22.01527797617018222808837890625" lon="166.46407169289886951446533203125">
        <ele>859</ele>
        <time>2016-08-12T21:23:15.000Z</time>
        <extensions>
          <ns3:TrackPointExtension>
            <ns3:atemp>16.0</ns3:atemp>
            <ns3:hr>131</ns3:hr>
          </ns3:TrackPointExtension>
        </extensions>
      </trkpt>
      <trkpt lat="-22.01530664227902889251708984375" lon="166.464066915214061737060546875">
        <ele>858.79998779296875</ele>
        <time>2016-08-12T21:23:16.000Z</time>
        <extensions>
          <ns3:TrackPointExtension>
            <ns3:atemp>16.0</ns3:atemp>
            <ns3:hr>131</ns3:hr>
          </ns3:TrackPointExtension>
        </extensions>
      </trkpt>
      <trkpt lat="-22.0153310336172580718994140625" lon="166.46405509673058986663818359375">
        <ele>858.5999755859375</ele>
        <time>2016-08-12T21:23:17.000Z</time>
        <extensions>
          <ns3:TrackPointExtension>
            <ns3:atemp>16.0</ns3:atemp>
            <ns3:hr>132</ns3:hr>
          </ns3:TrackPointExtension>
        </extensions>
      </trkpt>
      <trkpt lat="-22.015352658927440643310546875" lon="166.46404269151389598846435546875">
        <ele>859</ele>
        <time>2016-08-12T21:23:18.000Z</time>
        <extensions>
          <ns3:TrackPointExtension>
            <ns3:atemp>16.0</ns3:atemp>
            <ns3:hr>132</ns3:hr>
          </ns3:TrackPointExtension>
        </extensions>
      </trkpt>
      <trkpt lat="-22.01536975800991058349609375" lon="166.4640328846871852874755859375">
        <ele>859.20001220703125</ele>
        <time>2016-08-12T21:23:19.000Z</time>
        <extensions>
          <ns3:TrackPointExtension>
            <ns3:atemp>16.0</ns3:atemp>
            <ns3:hr>131</ns3:hr>
          </ns3:TrackPointExtension>
        </extensions>
      </trkpt>
      <trkpt lat="-22.01540219597518444061279296875" lon="166.46399944089353084564208984375">
        <ele>859.20001220703125</ele>
        <time>2016-08-12T21:23:20.000Z</time>
        <extensions>
          <ns3:TrackPointExtension>
            <ns3:atemp>16.0</ns3:atemp>
            <ns3:hr>132</ns3:hr>
          </ns3:TrackPointExtension>
        </extensions>
      </trkpt>
      <trkpt lat="-22.0154279284179210662841796875" lon="166.46396708674728870391845703125">
        <ele>858.79998779296875</ele>
        <time>2016-08-12T21:23:21.000Z</time>
        <extensions>
          <ns3:TrackPointExtension>
            <ns3:atemp>16.0</ns3:atemp>
            <ns3:hr>131</ns3:hr>
          </ns3:TrackPointExtension>
        </extensions>
      </trkpt>
      <trkpt lat="-22.0154473744332790374755859375" lon="166.46395317278802394866943359375">
        <ele>858.4000244140625</ele>
        <time>2016-08-12T21:23:22.000Z</time>
        <extensions>
          <ns3:TrackPointExtension>
            <ns3:atemp>16.0</ns3:atemp>
            <ns3:hr>131</ns3:hr>
          </ns3:TrackPointExtension>
        </extensions>
      </trkpt>
      <trkpt lat="-22.01546388678252696990966796875" lon="166.46394914947450160980224609375">
        <ele>858</ele>
        <time>2016-08-12T21:23:23.000Z</time>
        <extensions>
          <ns3:TrackPointExtension>
            <ns3:atemp>16.0</ns3:atemp>
            <ns3:hr>130</ns3:hr>
          </ns3:TrackPointExtension>
        </extensions>
      </trkpt>
      <trkpt lat="-22.01547880657017230987548828125" lon="166.46394495852291584014892578125">
        <ele>858.20001220703125</ele>
        <time>2016-08-12T21:23:24.000Z</time>
        <extensions>
          <ns3:TrackPointExtension>
            <ns3:atemp>16.0</ns3:atemp>
            <ns3:hr>130</ns3:hr>
          </ns3:TrackPointExtension>
        </extensions>
      </trkpt>
      <trkpt lat="-22.01549272052943706512451171875" lon="166.46394059993326663970947265625">
        <ele>858.5999755859375</ele>
        <time>2016-08-12T21:23:25.000Z</time>
        <extensions>
          <ns3:TrackPointExtension>
            <ns3:atemp>16.0</ns3:atemp>
            <ns3:hr>129</ns3:hr>
          </ns3:TrackPointExtension>
        </extensions>
      </trkpt>
      <trkpt lat="-22.0155110768973827362060546875" lon="166.46393188275396823883056640625">
        <ele>858.79998779296875</ele>
        <time>2016-08-12T21:23:26.000Z</time>
        <extensions>
          <ns3:TrackPointExtension>
            <ns3:atemp>16.0</ns3:atemp>
            <ns3:hr>128</ns3:hr>
          </ns3:TrackPointExtension>
        </extensions>
      </trkpt>
      <trkpt lat="-22.01551954261958599090576171875" lon="166.4639561064541339874267578125">
        <ele>859</ele>
        <time>2016-08-12T21:23:27.000Z</time>
        <extensions>
          <ns3:TrackPointExtension>
            <ns3:atemp>16.0</ns3:atemp>
            <ns3:hr>127</ns3:hr>
          </ns3:TrackPointExtension>
        </extensions>
      </trkpt>
      <trkpt lat="-22.015525661408901214599609375" lon="166.463981084525585174560546875">
        <ele>859</ele>
        <time>2016-08-12T21:23:28.000Z</time>
        <extensions>
          <ns3:TrackPointExtension>
            <ns3:atemp>16.0</ns3:atemp>
            <ns3:hr>127</ns3:hr>
          </ns3:TrackPointExtension>
        </extensions>
      </trkpt>
      <trkpt lat="-22.0155399106442928314208984375" lon="166.4639829285442829132080078125">
        <ele>859.20001220703125</ele>
        <time>2016-08-12T21:23:29.000Z</time>
        <extensions>
          <ns3:TrackPointExtension>
            <ns3:atemp>16.0</ns3:atemp>
            <ns3:hr>126</ns3:hr>
          </ns3:TrackPointExtension>
        </extensions>
      </trkpt>
      <trkpt lat="-22.01555642299354076385498046875" lon="166.46399457938969135284423828125">
        <ele>859</ele>
        <time>2016-08-12T21:23:30.000Z</time>
        <extensions>
          <ns3:TrackPointExtension>
            <ns3:atemp>16.0</ns3:atemp>
            <ns3:hr>127</ns3:hr>
          </ns3:TrackPointExtension>
        </extensions>
      </trkpt>
      <trkpt lat="-22.01557570137083530426025390625" lon="166.4640097506344318389892578125">
        <ele>858.79998779296875</ele>
        <time>2016-08-12T21:23:31.000Z</time>
        <extensions>
          <ns3:TrackPointExtension>
            <ns3:atemp>16.0</ns3:atemp>
            <ns3:hr>127</ns3:hr>
          </ns3:TrackPointExtension>
        </extensions>
      </trkpt>
      <trkpt lat="-22.01559548266232013702392578125" lon="166.46402425132691860198974609375">
        <ele>858.5999755859375</ele>
        <time>2016-08-12T21:23:32.000Z</time>
        <extensions>
          <ns3:TrackPointExtension>
            <ns3:atemp>16.0</ns3:atemp>
            <ns3:hr>127</ns3:hr>
          </ns3:TrackPointExtension>
        </extensions>
      </trkpt>
      <trkpt lat="-22.015617191791534423828125" lon="166.4640419371426105499267578125">
        <ele>859</ele>
        <time>2016-08-12T21:23:33.000Z</time>
        <extensions>
          <ns3:TrackPointExtension>
            <ns3:atemp>16.0</ns3:atemp>
            <ns3:hr>127</ns3:hr>
          </ns3:TrackPointExtension>
        </extensions>
      </trkpt>
      <trkpt lat="-22.01563454233109951019287109375" lon="166.46406146697700023651123046875">
        <ele>859.20001220703125</ele>
        <time>2016-08-12T21:23:34.000Z</time>
        <extensions>
          <ns3:TrackPointExtension>
            <ns3:atemp>16.0</ns3:atemp>
            <ns3:hr>128</ns3:hr>
          </ns3:TrackPointExtension>
        </extensions>
      </trkpt>
      <trkpt lat="-22.0156492106616497039794921875" lon="166.46408376283943653106689453125">
        <ele>859.20001220703125</ele>
        <time>2016-08-12T21:23:35.000Z</time>
        <extensions>
          <ns3:TrackPointExtension>
            <ns3:atemp>16.0</ns3:atemp>
            <ns3:hr>128</ns3:hr>
          </ns3:TrackPointExtension>
        </extensions>
      </trkpt>
      <trkpt lat="-22.01566387899219989776611328125" lon="166.46410840563476085662841796875">
        <ele>859.4000244140625</ele>
        <time>2016-08-12T21:23:36.000Z</time>
        <extensions>
          <ns3:TrackPointExtension>
            <ns3:atemp>16.0</ns3:atemp>
            <ns3:hr>129</ns3:hr>
          </ns3:TrackPointExtension>
        </extensions>
      </trkpt>
      <trkpt lat="-22.0156716741621494293212890625" lon="166.46413053385913372039794921875">
        <ele>859.79998779296875</ele>
        <time>2016-08-12T21:23:37.000Z</time>
        <extensions>
          <ns3:TrackPointExtension>
            <ns3:atemp>16.0</ns3:atemp>
            <ns3:hr>130</ns3:hr>
          </ns3:TrackPointExtension>
        </extensions>
      </trkpt>
      <trkpt lat="-22.01568081043660640716552734375" lon="166.4641502313315868377685546875">
        <ele>860</ele>
        <time>2016-08-12T21:23:38.000Z</time>
        <extensions>
          <ns3:TrackPointExtension>
            <ns3:atemp>16.0</ns3:atemp>
            <ns3:hr>130</ns3:hr>
          </ns3:TrackPointExtension>
        </extensions>
      </trkpt>
      <trkpt lat="-22.01569003053009510040283203125" lon="166.464174203574657440185546875">
        <ele>859.5999755859375</ele>
        <time>2016-08-12T21:23:39.000Z</time>
        <extensions>
          <ns3:TrackPointExtension>
            <ns3:atemp>16.0</ns3:atemp>
            <ns3:hr>131</ns3:hr>
          </ns3:TrackPointExtension>
        </extensions>
      </trkpt>
      <trkpt lat="-22.01569640077650547027587890625" lon="166.46419934928417205810546875">
        <ele>859.79998779296875</ele>
        <time>2016-08-12T21:23:40.000Z</time>
        <extensions>
          <ns3:TrackPointExtension>
            <ns3:atemp>16.0</ns3:atemp>
            <ns3:hr>131</ns3:hr>
          </ns3:TrackPointExtension>
        </extensions>
      </trkpt>
      <trkpt lat="-22.01571039855480194091796875" lon="166.4642166160047054290771484375">
        <ele>860</ele>
        <time>2016-08-12T21:23:41.000Z</time>
        <extensions>
          <ns3:TrackPointExtension>
            <ns3:atemp>16.0</ns3:atemp>
            <ns3:hr>131</ns3:hr>
          </ns3:TrackPointExtension>
        </extensions>
      </trkpt>
      <trkpt lat="-22.01572439633309841156005859375" lon="166.46423497237265110015869140625">
        <ele>860.20001220703125</ele>
        <time>2016-08-12T21:23:42.000Z</time>
        <extensions>
          <ns3:TrackPointExtension>
            <ns3:atemp>16.0</ns3:atemp>
            <ns3:hr>131</ns3:hr>
          </ns3:TrackPointExtension>
        </extensions>
      </trkpt>
      <trkpt lat="-22.0157477818429470062255859375" lon="166.46424670703709125518798828125">
        <ele>859.79998779296875</ele>
        <time>2016-08-12T21:23:43.000Z</time>
        <extensions>
          <ns3:TrackPointExtension>
            <ns3:atemp>16.0</ns3:atemp>
            <ns3:hr>131</ns3:hr>
          </ns3:TrackPointExtension>
        </extensions>
      </trkpt>
      <trkpt lat="-22.01576882041990756988525390625" lon="166.4642536640167236328125">
        <ele>859.5999755859375</ele>
        <time>2016-08-12T21:23:44.000Z</time>
        <extensions>
          <ns3:TrackPointExtension>
            <ns3:atemp>16.0</ns3:atemp>
            <ns3:hr>131</ns3:hr>
          </ns3:TrackPointExtension>
        </extensions>
      </trkpt>
      <trkpt lat="-22.015798576176166534423828125" lon="166.46426313556730747222900390625">
        <ele>859.4000244140625</ele>
        <time>2016-08-12T21:23:45.000Z</time>
        <extensions>
          <ns3:TrackPointExtension>
            <ns3:atemp>16.0</ns3:atemp>
            <ns3:hr>131</ns3:hr>
          </ns3:TrackPointExtension>
        </extensions>
      </trkpt>
      <trkpt lat="-22.0158282481133937835693359375" lon="166.46426531486213207244873046875">
        <ele>860.20001220703125</ele>
        <time>2016-08-12T21:23:46.000Z</time>
        <extensions>
          <ns3:TrackPointExtension>
            <ns3:atemp>16.0</ns3:atemp>
            <ns3:hr>131</ns3:hr>
          </ns3:TrackPointExtension>
        </extensions>
      </trkpt>
      <trkpt lat="-22.0158486999571323394775390625" lon="166.46426372230052947998046875">
        <ele>860.4000244140625</ele>
        <time>2016-08-12T21:23:47.000Z</time>
        <extensions>
          <ns3:TrackPointExtension>
            <ns3:atemp>16.0</ns3:atemp>
            <ns3:hr>132</ns3:hr>
          </ns3:TrackPointExtension>
        </extensions>
      </trkpt>
      <trkpt lat="-22.01587728224694728851318359375" lon="166.4642568491399288177490234375">
        <ele>860.20001220703125</ele>
        <time>2016-08-12T21:23:48.000Z</time>
        <extensions>
          <ns3:TrackPointExtension>
            <ns3:atemp>16.0</ns3:atemp>
            <ns3:hr>132</ns3:hr>
          </ns3:TrackPointExtension>
        </extensions>
      </trkpt>
      <trkpt lat="-22.0159023441374301910400390625" lon="166.46425089798867702484130859375">
        <ele>860.20001220703125</ele>
        <time>2016-08-12T21:23:49.000Z</time>
        <extensions>
          <ns3:TrackPointExtension>
            <ns3:atemp>16.0</ns3:atemp>
            <ns3:hr>132</ns3:hr>
          </ns3:TrackPointExtension>
        </extensions>
      </trkpt>
      <trkpt lat="-22.01592690311372280120849609375" lon="166.46424888633191585540771484375">
        <ele>860.4000244140625</ele>
        <time>2016-08-12T21:23:50.000Z</time>
        <extensions>
          <ns3:TrackPointExtension>
            <ns3:atemp>16.0</ns3:atemp>
            <ns3:hr>133</ns3:hr>
          </ns3:TrackPointExtension>
        </extensions>
      </trkpt>
      <trkpt lat="-22.01594986952841281890869140625" lon="166.46425140090286731719970703125">
        <ele>860.4000244140625</ele>
        <time>2016-08-12T21:23:51.000Z</time>
        <extensions>
          <ns3:TrackPointExtension>
            <ns3:atemp>16.0</ns3:atemp>
            <ns3:hr>133</ns3:hr>
          </ns3:TrackPointExtension>
        </extensions>
      </trkpt>
      <trkpt lat="-22.01597065664827823638916015625" lon="166.46425844170153141021728515625">
        <ele>860.20001220703125</ele>
        <time>2016-08-12T21:23:52.000Z</time>
        <extensions>
          <ns3:TrackPointExtension>
            <ns3:atemp>16.0</ns3:atemp>
            <ns3:hr>133</ns3:hr>
          </ns3:TrackPointExtension>
        </extensions>
      </trkpt>
      <trkpt lat="-22.0159928686916828155517578125" lon="166.464266739785671234130859375">
        <ele>860.4000244140625</ele>
        <time>2016-08-12T21:23:53.000Z</time>
        <extensions>
          <ns3:TrackPointExtension>
            <ns3:atemp>16.0</ns3:atemp>
            <ns3:hr>133</ns3:hr>
          </ns3:TrackPointExtension>
        </extensions>
      </trkpt>
      <trkpt lat="-22.016011811792850494384765625" lon="166.46427839063107967376708984375">
        <ele>860.5999755859375</ele>
        <time>2016-08-12T21:23:54.000Z</time>
        <extensions>
          <ns3:TrackPointExtension>
            <ns3:atemp>16.0</ns3:atemp>
            <ns3:hr>133</ns3:hr>
          </ns3:TrackPointExtension>
        </extensions>
      </trkpt>
      <trkpt lat="-22.01603335328400135040283203125" lon="166.46428962238132953643798828125">
        <ele>860.5999755859375</ele>
        <time>2016-08-12T21:23:55.000Z</time>
        <extensions>
          <ns3:TrackPointExtension>
            <ns3:atemp>16.0</ns3:atemp>
            <ns3:hr>134</ns3:hr>
          </ns3:TrackPointExtension>
        </extensions>
      </trkpt>
      <trkpt lat="-22.01605447567999362945556640625" lon="166.46430051885545253753662109375">
        <ele>860.5999755859375</ele>
        <time>2016-08-12T21:23:56.000Z</time>
        <extensions>
          <ns3:TrackPointExtension>
            <ns3:atemp>16.0</ns3:atemp>
            <ns3:hr>134</ns3:hr>
          </ns3:TrackPointExtension>
        </extensions>
      </trkpt>
      <trkpt lat="-22.01606989838182926177978515625" lon="166.464313007891178131103515625">
        <ele>860.4000244140625</ele>
        <time>2016-08-12T21:23:57.000Z</time>
        <extensions>
          <ns3:TrackPointExtension>
            <ns3:atemp>16.0</ns3:atemp>
            <ns3:hr>134</ns3:hr>
          </ns3:TrackPointExtension>
        </extensions>
      </trkpt>
      <trkpt lat="-22.01608716510236263275146484375" lon="166.46432650275528430938720703125">
        <ele>860.20001220703125</ele>
        <time>2016-08-12T21:23:58.000Z</time>
        <extensions>
          <ns3:TrackPointExtension>
            <ns3:atemp>16.0</ns3:atemp>
            <ns3:hr>133</ns3:hr>
          </ns3:TrackPointExtension>
        </extensions>
      </trkpt>
      <trkpt lat="-22.01609990559518337249755859375" lon="166.4643493853509426116943359375">
        <ele>860.5999755859375</ele>
        <time>2016-08-12T21:23:59.000Z</time>
        <extensions>
          <ns3:TrackPointExtension>
            <ns3:atemp>16.0</ns3:atemp>
            <ns3:hr>133</ns3:hr>
          </ns3:TrackPointExtension>
        </extensions>
      </trkpt>
      <trkpt lat="-22.01612488366663455963134765625" lon="166.4643601141870021820068359375">
        <ele>860.5999755859375</ele>
        <time>2016-08-12T21:24:00.000Z</time>
        <extensions>
          <ns3:TrackPointExtension>
            <ns3:atemp>16.0</ns3:atemp>
            <ns3:hr>134</ns3:hr>
          </ns3:TrackPointExtension>
        </extensions>
      </trkpt>
      <trkpt lat="-22.01615170575678348541259765625" lon="166.4643711782991886138916015625">
        <ele>860.5999755859375</ele>
        <time>2016-08-12T21:24:01.000Z</time>
        <extensions>
          <ns3:TrackPointExtension>
            <ns3:atemp>16.0</ns3:atemp>
            <ns3:hr>133</ns3:hr>
          </ns3:TrackPointExtension>
        </extensions>
      </trkpt>
      <trkpt lat="-22.01617936603724956512451171875" lon="166.464384086430072784423828125">
        <ele>860.5999755859375</ele>
        <time>2016-08-12T21:24:02.000Z</time>
        <extensions>
          <ns3:TrackPointExtension>
            <ns3:atemp>16.0</ns3:atemp>
            <ns3:hr>134</ns3:hr>
          </ns3:TrackPointExtension>
        </extensions>
      </trkpt>
      <trkpt lat="-22.01619780622422695159912109375" lon="166.4643926359713077545166015625">
        <ele>860.5999755859375</ele>
        <time>2016-08-12T21:24:03.000Z</time>
        <extensions>
          <ns3:TrackPointExtension>
            <ns3:atemp>16.0</ns3:atemp>
            <ns3:hr>134</ns3:hr>
          </ns3:TrackPointExtension>
        </extensions>
      </trkpt>
      <trkpt lat="-22.01622731052339076995849609375" lon="166.46440051496028900146484375">
        <ele>860.4000244140625</ele>
        <time>2016-08-12T21:24:04.000Z</time>
        <extensions>
          <ns3:TrackPointExtension>
            <ns3:atemp>16.0</ns3:atemp>
            <ns3:hr>134</ns3:hr>
          </ns3:TrackPointExtension>
        </extensions>
      </trkpt>
      <trkpt lat="-22.01626167632639408111572265625" lon="166.464403532445430755615234375">
        <ele>860.4000244140625</ele>
        <time>2016-08-12T21:24:05.000Z</time>
        <extensions>
          <ns3:TrackPointExtension>
            <ns3:atemp>16.0</ns3:atemp>
            <ns3:hr>135</ns3:hr>
          </ns3:TrackPointExtension>
        </extensions>
      </trkpt>
      <trkpt lat="-22.0162838883697986602783203125" lon="166.464406885206699371337890625">
        <ele>860.20001220703125</ele>
        <time>2016-08-12T21:24:06.000Z</time>
        <extensions>
          <ns3:TrackPointExtension>
            <ns3:atemp>15.0</ns3:atemp>
            <ns3:hr>135</ns3:hr>
          </ns3:TrackPointExtension>
        </extensions>
      </trkpt>
      <trkpt lat="-22.01629905961453914642333984375" lon="166.46440948359668254852294921875">
        <ele>860</ele>
        <time>2016-08-12T21:24:07.000Z</time>
        <extensions>
          <ns3:TrackPointExtension>
            <ns3:atemp>15.0</ns3:atemp>
            <ns3:hr>135</ns3:hr>
          </ns3:TrackPointExtension>
        </extensions>
      </trkpt>
      <trkpt lat="-22.016308866441249847412109375" lon="166.46441199816763401031494140625">
        <ele>860.20001220703125</ele>
        <time>2016-08-12T21:24:08.000Z</time>
        <extensions>
          <ns3:TrackPointExtension>
            <ns3:atemp>15.0</ns3:atemp>
            <ns3:hr>135</ns3:hr>
          </ns3:TrackPointExtension>
        </extensions>
      </trkpt>
      <trkpt lat="-22.0163328386843204498291015625" lon="166.46439037285745143890380859375">
        <ele>860.5999755859375</ele>
        <time>2016-08-12T21:24:09.000Z</time>
        <extensions>
          <ns3:TrackPointExtension>
            <ns3:atemp>15.0</ns3:atemp>
            <ns3:hr>135</ns3:hr>
          </ns3:TrackPointExtension>
        </extensions>
      </trkpt>
      <trkpt lat="-22.016355134546756744384765625" lon="166.4643691666424274444580078125">
        <ele>860.4000244140625</ele>
        <time>2016-08-12T21:24:10.000Z</time>
        <extensions>
          <ns3:TrackPointExtension>
            <ns3:atemp>15.0</ns3:atemp>
            <ns3:hr>135</ns3:hr>
          </ns3:TrackPointExtension>
        </extensions>
      </trkpt>
      <trkpt lat="-22.0163667015731334686279296875" lon="166.4643488824367523193359375">
        <ele>860.20001220703125</ele>
        <time>2016-08-12T21:24:11.000Z</time>
        <extensions>
          <ns3:TrackPointExtension>
            <ns3:atemp>15.0</ns3:atemp>
            <ns3:hr>135</ns3:hr>
          </ns3:TrackPointExtension>
        </extensions>
      </trkpt>
      <trkpt lat="-22.016381286084651947021484375" lon="166.46433287300169467926025390625">
        <ele>860.5999755859375</ele>
        <time>2016-08-12T21:24:12.000Z</time>
        <extensions>
          <ns3:TrackPointExtension>
            <ns3:atemp>15.0</ns3:atemp>
            <ns3:hr>135</ns3:hr>
          </ns3:TrackPointExtension>
        </extensions>
      </trkpt>
      <trkpt lat="-22.01640785671770572662353515625" lon="166.4643192104995250701904296875">
        <ele>860.79998779296875</ele>
        <time>2016-08-12T21:24:13.000Z</time>
        <extensions>
          <ns3:TrackPointExtension>
            <ns3:atemp>15.0</ns3:atemp>
            <ns3:hr>136</ns3:hr>
          </ns3:TrackPointExtension>
        </extensions>
      </trkpt>
      <trkpt lat="-22.01642596162855625152587890625" lon="166.46430705673992633819580078125">
        <ele>861</ele>
        <time>2016-08-12T21:24:14.000Z</time>
        <extensions>
          <ns3:TrackPointExtension>
            <ns3:atemp>15.0</ns3:atemp>
            <ns3:hr>136</ns3:hr>
          </ns3:TrackPointExtension>
        </extensions>
      </trkpt>
      <trkpt lat="-22.0164485089480876922607421875" lon="166.46429724991321563720703125">
        <ele>861</ele>
        <time>2016-08-12T21:24:15.000Z</time>
        <extensions>
          <ns3:TrackPointExtension>
            <ns3:atemp>15.0</ns3:atemp>
            <ns3:hr>136</ns3:hr>
          </ns3:TrackPointExtension>
        </extensions>
      </trkpt>
      <trkpt lat="-22.0164703018963336944580078125" lon="166.4642898738384246826171875">
        <ele>861.20001220703125</ele>
        <time>2016-08-12T21:24:16.000Z</time>
        <extensions>
          <ns3:TrackPointExtension>
            <ns3:atemp>15.0</ns3:atemp>
            <ns3:hr>136</ns3:hr>
          </ns3:TrackPointExtension>
        </extensions>
      </trkpt>
      <trkpt lat="-22.0164907537400722503662109375" lon="166.46428442560136318206787109375">
        <ele>861</ele>
        <time>2016-08-12T21:24:17.000Z</time>
        <extensions>
          <ns3:TrackPointExtension>
            <ns3:atemp>15.0</ns3:atemp>
            <ns3:hr>136</ns3:hr>
          </ns3:TrackPointExtension>
        </extensions>
      </trkpt>
      <trkpt lat="-22.01651061885058879852294921875" lon="166.464280821382999420166015625">
        <ele>861</ele>
        <time>2016-08-12T21:24:18.000Z</time>
        <extensions>
          <ns3:TrackPointExtension>
            <ns3:atemp>15.0</ns3:atemp>
            <ns3:hr>136</ns3:hr>
          </ns3:TrackPointExtension>
        </extensions>
      </trkpt>
      <trkpt lat="-22.016531489789485931396484375" lon="166.46427906118333339691162109375">
        <ele>861.20001220703125</ele>
        <time>2016-08-12T21:24:19.000Z</time>
        <extensions>
          <ns3:TrackPointExtension>
            <ns3:atemp>15.0</ns3:atemp>
            <ns3:hr>136</ns3:hr>
          </ns3:TrackPointExtension>
        </extensions>
      </trkpt>
      <trkpt lat="-22.0165492594242095947265625" lon="166.464277803897857666015625">
        <ele>861.20001220703125</ele>
        <time>2016-08-12T21:24:20.000Z</time>
        <extensions>
          <ns3:TrackPointExtension>
            <ns3:atemp>15.0</ns3:atemp>
            <ns3:hr>137</ns3:hr>
          </ns3:TrackPointExtension>
        </extensions>
      </trkpt>
      <trkpt lat="-22.01657130382955074310302734375" lon="166.46428476087749004364013671875">
        <ele>861.20001220703125</ele>
        <time>2016-08-12T21:24:21.000Z</time>
        <extensions>
          <ns3:TrackPointExtension>
            <ns3:atemp>15.0</ns3:atemp>
            <ns3:hr>136</ns3:hr>
          </ns3:TrackPointExtension>
        </extensions>
      </trkpt>
      <trkpt lat="-22.0165923424065113067626953125" lon="166.4642873592674732208251953125">
        <ele>861.4000244140625</ele>
        <time>2016-08-12T21:24:22.000Z</time>
        <extensions>
          <ns3:TrackPointExtension>
            <ns3:atemp>15.0</ns3:atemp>
            <ns3:hr>137</ns3:hr>
          </ns3:TrackPointExtension>
        </extensions>
      </trkpt>
      <trkpt lat="-22.01661069877445697784423828125" lon="166.46428593434393405914306640625">
        <ele>861.20001220703125</ele>
        <time>2016-08-12T21:24:23.000Z</time>
        <extensions>
          <ns3:TrackPointExtension>
            <ns3:atemp>15.0</ns3:atemp>
            <ns3:hr>137</ns3:hr>
          </ns3:TrackPointExtension>
        </extensions>
      </trkpt>
      <trkpt lat="-22.016629390418529510498046875" lon="166.46429163403809070587158203125">
        <ele>861</ele>
        <time>2016-08-12T21:24:24.000Z</time>
        <extensions>
          <ns3:TrackPointExtension>
            <ns3:atemp>15.0</ns3:atemp>
            <ns3:hr>137</ns3:hr>
          </ns3:TrackPointExtension>
        </extensions>
      </trkpt>
      <trkpt lat="-22.01665126718580722808837890625" lon="166.46428995765745639801025390625">
        <ele>861.20001220703125</ele>
        <time>2016-08-12T21:24:25.000Z</time>
        <extensions>
          <ns3:TrackPointExtension>
            <ns3:atemp>15.0</ns3:atemp>
            <ns3:hr>136</ns3:hr>
          </ns3:TrackPointExtension>
        </extensions>
      </trkpt>
      <trkpt lat="-22.01667356304824352264404296875" lon="166.46428392268717288970947265625">
        <ele>861.4000244140625</ele>
        <time>2016-08-12T21:24:26.000Z</time>
        <extensions>
          <ns3:TrackPointExtension>
            <ns3:atemp>15.0</ns3:atemp>
            <ns3:hr>137</ns3:hr>
          </ns3:TrackPointExtension>
        </extensions>
      </trkpt>
      <trkpt lat="-22.0166956074535846710205078125" lon="166.4642898738384246826171875">
        <ele>861.4000244140625</ele>
        <time>2016-08-12T21:24:27.000Z</time>
        <extensions>
          <ns3:TrackPointExtension>
            <ns3:atemp>15.0</ns3:atemp>
            <ns3:hr>136</ns3:hr>
          </ns3:TrackPointExtension>
        </extensions>
      </trkpt>
      <trkpt lat="-22.01671622693538665771484375" lon="166.4642873592674732208251953125">
        <ele>861.20001220703125</ele>
        <time>2016-08-12T21:24:28.000Z</time>
        <extensions>
          <ns3:TrackPointExtension>
            <ns3:atemp>15.0</ns3:atemp>
            <ns3:hr>137</ns3:hr>
          </ns3:TrackPointExtension>
        </extensions>
      </trkpt>
      <trkpt lat="-22.0167442224919795989990234375" lon="166.464273445308208465576171875">
        <ele>861.4000244140625</ele>
        <time>2016-08-12T21:24:29.000Z</time>
        <extensions>
          <ns3:TrackPointExtension>
            <ns3:atemp>15.0</ns3:atemp>
            <ns3:hr>136</ns3:hr>
          </ns3:TrackPointExtension>
        </extensions>
      </trkpt>
      <trkpt lat="-22.0167693682014942169189453125" lon="166.46425969898700714111328125">
        <ele>861.5999755859375</ele>
        <time>2016-08-12T21:24:30.000Z</time>
        <extensions>
          <ns3:TrackPointExtension>
            <ns3:atemp>15.0</ns3:atemp>
            <ns3:hr>136</ns3:hr>
          </ns3:TrackPointExtension>
        </extensions>
      </trkpt>
      <trkpt lat="-22.01679359190165996551513671875" lon="166.4642461203038692474365234375">
        <ele>861.79998779296875</ele>
        <time>2016-08-12T21:24:31.000Z</time>
        <extensions>
          <ns3:TrackPointExtension>
            <ns3:atemp>15.0</ns3:atemp>
            <ns3:hr>136</ns3:hr>
          </ns3:TrackPointExtension>
        </extensions>
      </trkpt>
      <trkpt lat="-22.01681572012603282928466796875" lon="166.4642420969903469085693359375">
        <ele>861.79998779296875</ele>
        <time>2016-08-12T21:24:32.000Z</time>
        <extensions>
          <ns3:TrackPointExtension>
            <ns3:atemp>15.0</ns3:atemp>
            <ns3:hr>136</ns3:hr>
          </ns3:TrackPointExtension>
        </extensions>
      </trkpt>
      <trkpt lat="-22.01684036292135715484619140625" lon="166.4642303623259067535400390625">
        <ele>861.79998779296875</ele>
        <time>2016-08-12T21:24:33.000Z</time>
        <extensions>
          <ns3:TrackPointExtension>
            <ns3:atemp>15.0</ns3:atemp>
            <ns3:hr>136</ns3:hr>
          </ns3:TrackPointExtension>
        </extensions>
      </trkpt>
      <trkpt lat="-22.01686115004122257232666015625" lon="166.4642226509749889373779296875">
        <ele>861.5999755859375</ele>
        <time>2016-08-12T21:24:34.000Z</time>
        <extensions>
          <ns3:TrackPointExtension>
            <ns3:atemp>15.0</ns3:atemp>
            <ns3:hr>136</ns3:hr>
          </ns3:TrackPointExtension>
        </extensions>
      </trkpt>
      <trkpt lat="-22.016878835856914520263671875" lon="166.4642142690718173980712890625">
        <ele>861.5999755859375</ele>
        <time>2016-08-12T21:24:35.000Z</time>
        <extensions>
          <ns3:TrackPointExtension>
            <ns3:atemp>15.0</ns3:atemp>
            <ns3:hr>136</ns3:hr>
          </ns3:TrackPointExtension>
        </extensions>
      </trkpt>
      <trkpt lat="-22.0169098488986492156982421875" lon="166.46417428739368915557861328125">
        <ele>861.5999755859375</ele>
        <time>2016-08-12T21:24:36.000Z</time>
        <extensions>
          <ns3:TrackPointExtension>
            <ns3:atemp>15.0</ns3:atemp>
            <ns3:hr>136</ns3:hr>
          </ns3:TrackPointExtension>
        </extensions>
      </trkpt>
      <trkpt lat="-22.01692485250532627105712890625" lon="166.46418065764009952545166015625">
        <ele>861.79998779296875</ele>
        <time>2016-08-12T21:24:37.000Z</time>
        <extensions>
          <ns3:TrackPointExtension>
            <ns3:atemp>15.0</ns3:atemp>
            <ns3:hr>136</ns3:hr>
          </ns3:TrackPointExtension>
        </extensions>
      </trkpt>
      <trkpt lat="-22.01693859882652759552001953125" lon="166.4641760475933551788330078125">
        <ele>861.79998779296875</ele>
        <time>2016-08-12T21:24:38.000Z</time>
        <extensions>
          <ns3:TrackPointExtension>
            <ns3:atemp>15.0</ns3:atemp>
            <ns3:hr>136</ns3:hr>
          </ns3:TrackPointExtension>
        </extensions>
      </trkpt>
      <trkpt lat="-22.01694983057677745819091796875" lon="166.464178897440433502197265625">
        <ele>862</ele>
        <time>2016-08-12T21:24:39.000Z</time>
        <extensions>
          <ns3:TrackPointExtension>
            <ns3:atemp>15.0</ns3:atemp>
            <ns3:hr>135</ns3:hr>
          </ns3:TrackPointExtension>
        </extensions>
      </trkpt>
      <trkpt lat="-22.01695703901350498199462890625" lon="166.4641854353249073028564453125">
        <ele>862</ele>
        <time>2016-08-12T21:24:40.000Z</time>
        <extensions>
          <ns3:TrackPointExtension>
            <ns3:atemp>15.0</ns3:atemp>
            <ns3:hr>134</ns3:hr>
          </ns3:TrackPointExtension>
        </extensions>
      </trkpt>
      <trkpt lat="-22.0169651694595813751220703125" lon="166.4641867764294147491455078125">
        <ele>862</ele>
        <time>2016-08-12T21:24:41.000Z</time>
        <extensions>
          <ns3:TrackPointExtension>
            <ns3:atemp>15.0</ns3:atemp>
            <ns3:hr>134</ns3:hr>
          </ns3:TrackPointExtension>
        </extensions>
      </trkpt>
      <trkpt lat="-22.01697363518178462982177734375" lon="166.46418753080070018768310546875">
        <ele>861.5999755859375</ele>
        <time>2016-08-12T21:24:42.000Z</time>
        <extensions>
          <ns3:TrackPointExtension>
            <ns3:atemp>15.0</ns3:atemp>
            <ns3:hr>133</ns3:hr>
          </ns3:TrackPointExtension>
        </extensions>
      </trkpt>
      <trkpt lat="-22.01698620803654193878173828125" lon="166.46418769843876361846923828125">
        <ele>861.79998779296875</ele>
        <time>2016-08-12T21:24:43.000Z</time>
        <extensions>
          <ns3:TrackPointExtension>
            <ns3:atemp>15.0</ns3:atemp>
            <ns3:hr>133</ns3:hr>
          </ns3:TrackPointExtension>
        </extensions>
      </trkpt>
      <trkpt lat="-22.01700045727193355560302734375" lon="166.46418250165879726409912109375">
        <ele>861.79998779296875</ele>
        <time>2016-08-12T21:24:44.000Z</time>
        <extensions>
          <ns3:TrackPointExtension>
            <ns3:atemp>15.0</ns3:atemp>
            <ns3:hr>132</ns3:hr>
          </ns3:TrackPointExtension>
        </extensions>
      </trkpt>
      <trkpt lat="-22.0170097611844539642333984375" lon="166.46417881362140178680419921875">
        <ele>861.79998779296875</ele>
        <time>2016-08-12T21:24:45.000Z</time>
        <extensions>
          <ns3:TrackPointExtension>
            <ns3:atemp>15.0</ns3:atemp>
            <ns3:hr>132</ns3:hr>
          </ns3:TrackPointExtension>
        </extensions>
      </trkpt>
      <trkpt lat="-22.0170285366475582122802734375" lon="166.4641678333282470703125">
        <ele>861.5999755859375</ele>
        <time>2016-08-12T21:24:46.000Z</time>
        <extensions>
          <ns3:TrackPointExtension>
            <ns3:atemp>15.0</ns3:atemp>
            <ns3:hr>132</ns3:hr>
          </ns3:TrackPointExtension>
        </extensions>
      </trkpt>
      <trkpt lat="-22.01705292798578739166259765625" lon="166.46415081806480884552001953125">
        <ele>861.5999755859375</ele>
        <time>2016-08-12T21:24:47.000Z</time>
        <extensions>
          <ns3:TrackPointExtension>
            <ns3:atemp>15.0</ns3:atemp>
            <ns3:hr>132</ns3:hr>
          </ns3:TrackPointExtension>
        </extensions>
      </trkpt>
      <trkpt lat="-22.0170776546001434326171875" lon="166.4641396701335906982421875">
        <ele>861.4000244140625</ele>
        <time>2016-08-12T21:24:48.000Z</time>
        <extensions>
          <ns3:TrackPointExtension>
            <ns3:atemp>15.0</ns3:atemp>
            <ns3:hr>133</ns3:hr>
          </ns3:TrackPointExtension>
        </extensions>
      </trkpt>
      <trkpt lat="-22.01709802262485027313232421875" lon="166.46413036622107028961181640625">
        <ele>861.4000244140625</ele>
        <time>2016-08-12T21:24:49.000Z</time>
        <extensions>
          <ns3:TrackPointExtension>
            <ns3:atemp>15.0</ns3:atemp>
            <ns3:hr>133</ns3:hr>
          </ns3:TrackPointExtension>
        </extensions>
      </trkpt>
      <trkpt lat="-22.01711780391633510589599609375" lon="166.4641180448234081268310546875">
        <ele>861.4000244140625</ele>
        <time>2016-08-12T21:24:50.000Z</time>
        <extensions>
          <ns3:TrackPointExtension>
            <ns3:atemp>15.0</ns3:atemp>
            <ns3:hr>133</ns3:hr>
          </ns3:TrackPointExtension>
        </extensions>
      </trkpt>
      <trkpt lat="-22.01713691465556621551513671875" lon="166.4641116745769977569580078125">
        <ele>861.20001220703125</ele>
        <time>2016-08-12T21:24:51.000Z</time>
        <extensions>
          <ns3:TrackPointExtension>
            <ns3:atemp>15.0</ns3:atemp>
            <ns3:hr>134</ns3:hr>
          </ns3:TrackPointExtension>
        </extensions>
      </trkpt>
      <trkpt lat="-22.01716356910765171051025390625" lon="166.46410438232123851776123046875">
        <ele>861.20001220703125</ele>
        <time>2016-08-12T21:24:52.000Z</time>
        <extensions>
          <ns3:TrackPointExtension>
            <ns3:atemp>15.0</ns3:atemp>
            <ns3:hr>134</ns3:hr>
          </ns3:TrackPointExtension>
        </extensions>
      </trkpt>
      <trkpt lat="-22.0171854458749294281005859375" lon="166.46409499458968639373779296875">
        <ele>861.5999755859375</ele>
        <time>2016-08-12T21:24:53.000Z</time>
        <extensions>
          <ns3:TrackPointExtension>
            <ns3:atemp>15.0</ns3:atemp>
            <ns3:hr>135</ns3:hr>
          </ns3:TrackPointExtension>
        </extensions>
      </trkpt>
      <trkpt lat="-22.0172072388231754302978515625" lon="166.46408979780972003936767578125">
        <ele>861.79998779296875</ele>
        <time>2016-08-12T21:24:54.000Z</time>
        <extensions>
          <ns3:TrackPointExtension>
            <ns3:atemp>15.0</ns3:atemp>
            <ns3:hr>135</ns3:hr>
          </ns3:TrackPointExtension>
        </extensions>
      </trkpt>
      <trkpt lat="-22.01723280362784862518310546875" lon="166.46407688967883586883544921875">
        <ele>861.79998779296875</ele>
        <time>2016-08-12T21:24:55.000Z</time>
        <extensions>
          <ns3:TrackPointExtension>
            <ns3:atemp>15.0</ns3:atemp>
            <ns3:hr>135</ns3:hr>
          </ns3:TrackPointExtension>
        </extensions>
      </trkpt>
      <trkpt lat="-22.01725761406123638153076171875" lon="166.46406699903309345245361328125">
        <ele>862</ele>
        <time>2016-08-12T21:24:56.000Z</time>
        <extensions>
          <ns3:TrackPointExtension>
            <ns3:atemp>15.0</ns3:atemp>
            <ns3:hr>134</ns3:hr>
          </ns3:TrackPointExtension>
        </extensions>
      </trkpt>
      <trkpt lat="-22.0172793231904506683349609375" lon="166.46405241452157497406005859375">
        <ele>862.20001220703125</ele>
        <time>2016-08-12T21:24:57.000Z</time>
        <extensions>
          <ns3:TrackPointExtension>
            <ns3:atemp>15.0</ns3:atemp>
            <ns3:hr>135</ns3:hr>
          </ns3:TrackPointExtension>
        </extensions>
      </trkpt>
      <trkpt lat="-22.0173024572432041168212890625" lon="166.4640355668962001800537109375">
        <ele>861.79998779296875</ele>
        <time>2016-08-12T21:24:58.000Z</time>
        <extensions>
          <ns3:TrackPointExtension>
            <ns3:atemp>15.0</ns3:atemp>
            <ns3:hr>134</ns3:hr>
          </ns3:TrackPointExtension>
        </extensions>
      </trkpt>
      <trkpt lat="-22.017320729792118072509765625" lon="166.464014612138271331787109375">
        <ele>862</ele>
        <time>2016-08-12T21:24:59.000Z</time>
        <extensions>
          <ns3:TrackPointExtension>
            <ns3:atemp>15.0</ns3:atemp>
            <ns3:hr>135</ns3:hr>
          </ns3:TrackPointExtension>
        </extensions>
      </trkpt>
      <trkpt lat="-22.01734227128326892852783203125" lon="166.4639919809997081756591796875">
        <ele>862</ele>
        <time>2016-08-12T21:25:00.000Z</time>
        <extensions>
          <ns3:TrackPointExtension>
            <ns3:atemp>15.0</ns3:atemp>
            <ns3:hr>135</ns3:hr>
          </ns3:TrackPointExtension>
        </extensions>
      </trkpt>
      <trkpt lat="-22.01736532151699066162109375" lon="166.4639671705663204193115234375">
        <ele>861.79998779296875</ele>
        <time>2016-08-12T21:25:01.000Z</time>
        <extensions>
          <ns3:TrackPointExtension>
            <ns3:atemp>15.0</ns3:atemp>
            <ns3:hr>135</ns3:hr>
          </ns3:TrackPointExtension>
        </extensions>
      </trkpt>
      <trkpt lat="-22.0173829235136508941650390625" lon="166.46394931711256504058837890625">
        <ele>861.79998779296875</ele>
        <time>2016-08-12T21:25:02.000Z</time>
        <extensions>
          <ns3:TrackPointExtension>
            <ns3:atemp>15.0</ns3:atemp>
            <ns3:hr>135</ns3:hr>
          </ns3:TrackPointExtension>
        </extensions>
      </trkpt>
      <trkpt lat="-22.01741217635571956634521484375" lon="166.46394009701907634735107421875">
        <ele>862</ele>
        <time>2016-08-12T21:25:03.000Z</time>
        <extensions>
          <ns3:TrackPointExtension>
            <ns3:atemp>15.0</ns3:atemp>
            <ns3:hr>135</ns3:hr>
          </ns3:TrackPointExtension>
        </extensions>
      </trkpt>
      <trkpt lat="-22.01743505895137786865234375" lon="166.463928110897541046142578125">
        <ele>862</ele>
        <time>2016-08-12T21:25:04.000Z</time>
        <extensions>
          <ns3:TrackPointExtension>
            <ns3:atemp>15.0</ns3:atemp>
            <ns3:hr>134</ns3:hr>
          </ns3:TrackPointExtension>
        </extensions>
      </trkpt>
      <trkpt lat="-22.0174566842615604400634765625" lon="166.46391914226114749908447265625">
        <ele>861.79998779296875</ele>
        <time>2016-08-12T21:25:05.000Z</time>
        <extensions>
          <ns3:TrackPointExtension>
            <ns3:atemp>15.0</ns3:atemp>
            <ns3:hr>135</ns3:hr>
          </ns3:TrackPointExtension>
        </extensions>
      </trkpt>
      <trkpt lat="-22.01748375780880451202392578125" lon="166.46390723995864391326904296875">
        <ele>861.79998779296875</ele>
        <time>2016-08-12T21:25:06.000Z</time>
        <extensions>
          <ns3:TrackPointExtension>
            <ns3:atemp>15.0</ns3:atemp>
            <ns3:hr>134</ns3:hr>
          </ns3:TrackPointExtension>
        </extensions>
      </trkpt>
      <trkpt lat="-22.01750940643250942230224609375" lon="166.463897265493869781494140625">
        <ele>861.79998779296875</ele>
        <time>2016-08-12T21:25:07.000Z</time>
        <extensions>
          <ns3:TrackPointExtension>
            <ns3:atemp>15.0</ns3:atemp>
            <ns3:hr>134</ns3:hr>
          </ns3:TrackPointExtension>
        </extensions>
      </trkpt>
      <trkpt lat="-22.0175301097333431243896484375" lon="166.46388846449553966522216796875">
        <ele>861.79998779296875</ele>
        <time>2016-08-12T21:25:08.000Z</time>
        <extensions>
          <ns3:TrackPointExtension>
            <ns3:atemp>15.0</ns3:atemp>
            <ns3:hr>135</ns3:hr>
          </ns3:TrackPointExtension>
        </extensions>
      </trkpt>
      <trkpt lat="-22.01755466870963573455810546875" lon="166.46387790329754352569580078125">
        <ele>862</ele>
        <time>2016-08-12T21:25:09.000Z</time>
        <extensions>
          <ns3:TrackPointExtension>
            <ns3:atemp>15.0</ns3:atemp>
            <ns3:hr>134</ns3:hr>
          </ns3:TrackPointExtension>
        </extensions>
      </trkpt>
      <trkpt lat="-22.017575539648532867431640625" lon="166.463869772851467132568359375">
        <ele>861.5999755859375</ele>
        <time>2016-08-12T21:25:10.000Z</time>
        <extensions>
          <ns3:TrackPointExtension>
            <ns3:atemp>15.0</ns3:atemp>
            <ns3:hr>135</ns3:hr>
          </ns3:TrackPointExtension>
        </extensions>
      </trkpt>
      <trkpt lat="-22.01759406365454196929931640625" lon="166.463865749537944793701171875">
        <ele>861.4000244140625</ele>
        <time>2016-08-12T21:25:11.000Z</time>
        <extensions>
          <ns3:TrackPointExtension>
            <ns3:atemp>15.0</ns3:atemp>
            <ns3:hr>134</ns3:hr>
          </ns3:TrackPointExtension>
        </extensions>
      </trkpt>
      <trkpt lat="-22.01761535368859767913818359375" lon="166.46386298350989818572998046875">
        <ele>861.4000244140625</ele>
        <time>2016-08-12T21:25:12.000Z</time>
        <extensions>
          <ns3:TrackPointExtension>
            <ns3:atemp>15.0</ns3:atemp>
            <ns3:hr>134</ns3:hr>
          </ns3:TrackPointExtension>
        </extensions>
      </trkpt>
      <trkpt lat="-22.0176380686461925506591796875" lon="166.46385443396866321563720703125">
        <ele>861.20001220703125</ele>
        <time>2016-08-12T21:25:13.000Z</time>
        <extensions>
          <ns3:TrackPointExtension>
            <ns3:atemp>15.0</ns3:atemp>
            <ns3:hr>134</ns3:hr>
          </ns3:TrackPointExtension>
        </extensions>
      </trkpt>
      <trkpt lat="-22.01766078360378742218017578125" lon="166.4638491533696651458740234375">
        <ele>860.79998779296875</ele>
        <time>2016-08-12T21:25:14.000Z</time>
        <extensions>
          <ns3:TrackPointExtension>
            <ns3:atemp>15.0</ns3:atemp>
            <ns3:hr>134</ns3:hr>
          </ns3:TrackPointExtension>
        </extensions>
      </trkpt>
      <trkpt lat="-22.01768525876104831695556640625" lon="166.46384990774095058441162109375">
        <ele>860.5999755859375</ele>
        <time>2016-08-12T21:25:15.000Z</time>
        <extensions>
          <ns3:TrackPointExtension>
            <ns3:atemp>15.0</ns3:atemp>
            <ns3:hr>134</ns3:hr>
          </ns3:TrackPointExtension>
        </extensions>
      </trkpt>
      <trkpt lat="-22.01770638115704059600830078125" lon="166.46385225467383861541748046875">
        <ele>860.4000244140625</ele>
        <time>2016-08-12T21:25:16.000Z</time>
        <extensions>
          <ns3:TrackPointExtension>
            <ns3:atemp>15.0</ns3:atemp>
            <ns3:hr>134</ns3:hr>
          </ns3:TrackPointExtension>
        </extensions>
      </trkpt>
      <trkpt lat="-22.0177267491817474365234375" lon="166.4638696052134037017822265625">
        <ele>860.5999755859375</ele>
        <time>2016-08-12T21:25:17.000Z</time>
        <extensions>
          <ns3:TrackPointExtension>
            <ns3:atemp>15.0</ns3:atemp>
            <ns3:hr>133</ns3:hr>
          </ns3:TrackPointExtension>
        </extensions>
      </trkpt>
      <trkpt lat="-22.017750553786754608154296875" lon="166.46387354470789432525634765625">
        <ele>861.20001220703125</ele>
        <time>2016-08-12T21:25:18.000Z</time>
        <extensions>
          <ns3:TrackPointExtension>
            <ns3:atemp>15.0</ns3:atemp>
            <ns3:hr>134</ns3:hr>
          </ns3:TrackPointExtension>
        </extensions>
      </trkpt>
      <trkpt lat="-22.01776840724050998687744140625" lon="166.46388511173427104949951171875">
        <ele>861.20001220703125</ele>
        <time>2016-08-12T21:25:19.000Z</time>
        <extensions>
          <ns3:TrackPointExtension>
            <ns3:atemp>15.0</ns3:atemp>
            <ns3:hr>134</ns3:hr>
          </ns3:TrackPointExtension>
        </extensions>
      </trkpt>
      <trkpt lat="-22.01778969727456569671630859375" lon="166.463898606598377227783203125">
        <ele>861</ele>
        <time>2016-08-12T21:25:20.000Z</time>
        <extensions>
          <ns3:TrackPointExtension>
            <ns3:atemp>15.0</ns3:atemp>
            <ns3:hr>134</ns3:hr>
          </ns3:TrackPointExtension>
        </extensions>
      </trkpt>
      <trkpt lat="-22.01781115494668483734130859375" lon="166.4639081619679927825927734375">
        <ele>861</ele>
        <time>2016-08-12T21:25:21.000Z</time>
        <extensions>
          <ns3:TrackPointExtension>
            <ns3:atemp>15.0</ns3:atemp>
            <ns3:hr>134</ns3:hr>
          </ns3:TrackPointExtension>
        </extensions>
      </trkpt>
      <trkpt lat="-22.01783093623816967010498046875" lon="166.4639198966324329376220703125">
        <ele>861.20001220703125</ele>
        <time>2016-08-12T21:25:22.000Z</time>
        <extensions>
          <ns3:TrackPointExtension>
            <ns3:atemp>15.0</ns3:atemp>
            <ns3:hr>134</ns3:hr>
          </ns3:TrackPointExtension>
        </extensions>
      </trkpt>
      <trkpt lat="-22.01785205863416194915771484375" lon="166.4639292843639850616455078125">
        <ele>861</ele>
        <time>2016-08-12T21:25:23.000Z</time>
        <extensions>
          <ns3:TrackPointExtension>
            <ns3:atemp>15.0</ns3:atemp>
            <ns3:hr>135</ns3:hr>
          </ns3:TrackPointExtension>
        </extensions>
      </trkpt>
      <trkpt lat="-22.01786563731729984283447265625" lon="166.4639346487820148468017578125">
        <ele>861</ele>
        <time>2016-08-12T21:25:24.000Z</time>
        <extensions>
          <ns3:TrackPointExtension>
            <ns3:atemp>15.0</ns3:atemp>
            <ns3:hr>135</ns3:hr>
          </ns3:TrackPointExtension>
        </extensions>
      </trkpt>
      <trkpt lat="-22.017879970371723175048828125" lon="166.46394051611423492431640625">
        <ele>861.20001220703125</ele>
        <time>2016-08-12T21:25:25.000Z</time>
        <extensions>
          <ns3:TrackPointExtension>
            <ns3:atemp>15.0</ns3:atemp>
            <ns3:hr>135</ns3:hr>
          </ns3:TrackPointExtension>
        </extensions>
      </trkpt>
      <trkpt lat="-22.0178982429206371307373046875" lon="166.463946215808391571044921875">
        <ele>861.4000244140625</ele>
        <time>2016-08-12T21:25:26.000Z</time>
        <extensions>
          <ns3:TrackPointExtension>
            <ns3:atemp>15.0</ns3:atemp>
            <ns3:hr>135</ns3:hr>
          </ns3:TrackPointExtension>
        </extensions>
      </trkpt>
      <trkpt lat="-22.01791291125118732452392578125" lon="166.463958285748958587646484375">
        <ele>861.4000244140625</ele>
        <time>2016-08-12T21:25:27.000Z</time>
        <extensions>
          <ns3:TrackPointExtension>
            <ns3:atemp>15.0</ns3:atemp>
            <ns3:hr>135</ns3:hr>
          </ns3:TrackPointExtension>
        </extensions>
      </trkpt>
      <trkpt lat="-22.0179388113319873809814453125" lon="166.4639678411185741424560546875">
        <ele>861.5999755859375</ele>
        <time>2016-08-12T21:25:28.000Z</time>
        <extensions>
          <ns3:TrackPointExtension>
            <ns3:atemp>15.0</ns3:atemp>
            <ns3:hr>135</ns3:hr>
          </ns3:TrackPointExtension>
        </extensions>
      </trkpt>
      <trkpt lat="-22.0179599337279796600341796875" lon="166.46398100070655345916748046875">
        <ele>861.79998779296875</ele>
        <time>2016-08-12T21:25:29.000Z</time>
        <extensions>
          <ns3:TrackPointExtension>
            <ns3:atemp>15.0</ns3:atemp>
            <ns3:hr>135</ns3:hr>
          </ns3:TrackPointExtension>
        </extensions>
      </trkpt>
      <trkpt lat="-22.01797879301011562347412109375" lon="166.463995836675167083740234375">
        <ele>861.5999755859375</ele>
        <time>2016-08-12T21:25:30.000Z</time>
        <extensions>
          <ns3:TrackPointExtension>
            <ns3:atemp>15.0</ns3:atemp>
            <ns3:hr>134</ns3:hr>
          </ns3:TrackPointExtension>
        </extensions>
      </trkpt>
      <trkpt lat="-22.01799656264483928680419921875" lon="166.464009247720241546630859375">
        <ele>861.4000244140625</ele>
        <time>2016-08-12T21:25:31.000Z</time>
        <extensions>
          <ns3:TrackPointExtension>
            <ns3:atemp>15.0</ns3:atemp>
            <ns3:hr>135</ns3:hr>
          </ns3:TrackPointExtension>
        </extensions>
      </trkpt>
      <trkpt lat="-22.01801533810794353485107421875" lon="166.46402961574494838714599609375">
        <ele>861.4000244140625</ele>
        <time>2016-08-12T21:25:32.000Z</time>
        <extensions>
          <ns3:TrackPointExtension>
            <ns3:atemp>15.0</ns3:atemp>
            <ns3:hr>135</ns3:hr>
          </ns3:TrackPointExtension>
        </extensions>
      </trkpt>
      <trkpt lat="-22.0180367119610309600830078125" lon="166.46404822356998920440673828125">
        <ele>861.79998779296875</ele>
        <time>2016-08-12T21:25:33.000Z</time>
        <extensions>
          <ns3:TrackPointExtension>
            <ns3:atemp>15.0</ns3:atemp>
            <ns3:hr>135</ns3:hr>
          </ns3:TrackPointExtension>
        </extensions>
      </trkpt>
      <trkpt lat="-22.018062360584735870361328125" lon="166.4640644006431102752685546875">
        <ele>861.79998779296875</ele>
        <time>2016-08-12T21:25:34.000Z</time>
        <extensions>
          <ns3:TrackPointExtension>
            <ns3:atemp>15.0</ns3:atemp>
            <ns3:hr>135</ns3:hr>
          </ns3:TrackPointExtension>
        </extensions>
      </trkpt>
      <trkpt lat="-22.0180799625813961029052734375" lon="166.4640855230391025543212890625">
        <ele>861.5999755859375</ele>
        <time>2016-08-12T21:25:35.000Z</time>
        <extensions>
          <ns3:TrackPointExtension>
            <ns3:atemp>15.0</ns3:atemp>
            <ns3:hr>135</ns3:hr>
          </ns3:TrackPointExtension>
        </extensions>
      </trkpt>
      <trkpt lat="-22.01810024678707122802734375" lon="166.4641012810170650482177734375">
        <ele>861.5999755859375</ele>
        <time>2016-08-12T21:25:36.000Z</time>
        <extensions>
          <ns3:TrackPointExtension>
            <ns3:atemp>15.0</ns3:atemp>
            <ns3:hr>135</ns3:hr>
          </ns3:TrackPointExtension>
        </extensions>
      </trkpt>
      <trkpt lat="-22.01812975108623504638671875" lon="166.46411159075796604156494140625">
        <ele>861.79998779296875</ele>
        <time>2016-08-12T21:25:37.000Z</time>
        <extensions>
          <ns3:TrackPointExtension>
            <ns3:atemp>15.0</ns3:atemp>
            <ns3:hr>135</ns3:hr>
          </ns3:TrackPointExtension>
        </extensions>
      </trkpt>
      <trkpt lat="-22.01815715990960597991943359375" lon="166.4641234092414379119873046875">
        <ele>861.79998779296875</ele>
        <time>2016-08-12T21:25:38.000Z</time>
        <extensions>
          <ns3:TrackPointExtension>
            <ns3:atemp>15.0</ns3:atemp>
            <ns3:hr>135</ns3:hr>
          </ns3:TrackPointExtension>
        </extensions>
      </trkpt>
      <trkpt lat="-22.0181802101433277130126953125" lon="166.46413707174360752105712890625">
        <ele>861.4000244140625</ele>
        <time>2016-08-12T21:25:39.000Z</time>
        <extensions>
          <ns3:TrackPointExtension>
            <ns3:atemp>15.0</ns3:atemp>
            <ns3:hr>135</ns3:hr>
          </ns3:TrackPointExtension>
        </extensions>
      </trkpt>
      <trkpt lat="-22.01820778660476207733154296875" lon="166.4641522429883480072021484375">
        <ele>861.4000244140625</ele>
        <time>2016-08-12T21:25:40.000Z</time>
        <extensions>
          <ns3:TrackPointExtension>
            <ns3:atemp>15.0</ns3:atemp>
            <ns3:hr>136</ns3:hr>
          </ns3:TrackPointExtension>
        </extensions>
      </trkpt>
      <trkpt lat="-22.01822957955300807952880859375" lon="166.46416582167148590087890625">
        <ele>861.79998779296875</ele>
        <time>2016-08-12T21:25:41.000Z</time>
        <extensions>
          <ns3:TrackPointExtension>
            <ns3:atemp>15.0</ns3:atemp>
            <ns3:hr>136</ns3:hr>
          </ns3:TrackPointExtension>
        </extensions>
      </trkpt>
      <trkpt lat="-22.01825388707220554351806640625" lon="166.46417579613626003265380859375">
        <ele>861.5999755859375</ele>
        <time>2016-08-12T21:25:42.000Z</time>
        <extensions>
          <ns3:TrackPointExtension>
            <ns3:atemp>15.0</ns3:atemp>
            <ns3:hr>136</ns3:hr>
          </ns3:TrackPointExtension>
        </extensions>
      </trkpt>
      <trkpt lat="-22.01827115379273891448974609375" lon="166.4641891233623027801513671875">
        <ele>861.4000244140625</ele>
        <time>2016-08-12T21:25:43.000Z</time>
        <extensions>
          <ns3:TrackPointExtension>
            <ns3:atemp>15.0</ns3:atemp>
            <ns3:hr>136</ns3:hr>
          </ns3:TrackPointExtension>
        </extensions>
      </trkpt>
      <trkpt lat="-22.0182874985039234161376953125" lon="166.46420060656964778900146484375">
        <ele>861.20001220703125</ele>
        <time>2016-08-12T21:25:44.000Z</time>
        <extensions>
          <ns3:TrackPointExtension>
            <ns3:atemp>15.0</ns3:atemp>
            <ns3:hr>137</ns3:hr>
          </ns3:TrackPointExtension>
        </extensions>
      </trkpt>
      <trkpt lat="-22.01830384321510791778564453125" lon="166.46421988494694232940673828125">
        <ele>861.5999755859375</ele>
        <time>2016-08-12T21:25:45.000Z</time>
        <extensions>
          <ns3:TrackPointExtension>
            <ns3:atemp>15.0</ns3:atemp>
            <ns3:hr>137</ns3:hr>
          </ns3:TrackPointExtension>
        </extensions>
      </trkpt>
      <trkpt lat="-22.01832798309624195098876953125" lon="166.4642350561916828155517578125">
        <ele>861.79998779296875</ele>
        <time>2016-08-12T21:25:46.000Z</time>
        <extensions>
          <ns3:TrackPointExtension>
            <ns3:atemp>15.0</ns3:atemp>
            <ns3:hr>137</ns3:hr>
          </ns3:TrackPointExtension>
        </extensions>
      </trkpt>
      <trkpt lat="-22.0183501951396465301513671875" lon="166.46425475366413593292236328125">
        <ele>861.5999755859375</ele>
        <time>2016-08-12T21:25:47.000Z</time>
        <extensions>
          <ns3:TrackPointExtension>
            <ns3:atemp>15.0</ns3:atemp>
            <ns3:hr>137</ns3:hr>
          </ns3:TrackPointExtension>
        </extensions>
      </trkpt>
      <trkpt lat="-22.01836888678371906280517578125" lon="166.464275456964969635009765625">
        <ele>861.4000244140625</ele>
        <time>2016-08-12T21:25:48.000Z</time>
        <extensions>
          <ns3:TrackPointExtension>
            <ns3:atemp>15.0</ns3:atemp>
            <ns3:hr>137</ns3:hr>
          </ns3:TrackPointExtension>
        </extensions>
      </trkpt>
      <trkpt lat="-22.01838053762912750244140625" lon="166.46429565735161304473876953125">
        <ele>861.79998779296875</ele>
        <time>2016-08-12T21:25:49.000Z</time>
        <extensions>
          <ns3:TrackPointExtension>
            <ns3:atemp>15.0</ns3:atemp>
            <ns3:hr>138</ns3:hr>
          </ns3:TrackPointExtension>
        </extensions>
      </trkpt>
      <trkpt lat="-22.0183957926928997039794921875" lon="166.46431510336697101593017578125">
        <ele>861.5999755859375</ele>
        <time>2016-08-12T21:25:50.000Z</time>
        <extensions>
          <ns3:TrackPointExtension>
            <ns3:atemp>15.0</ns3:atemp>
            <ns3:hr>138</ns3:hr>
          </ns3:TrackPointExtension>
        </extensions>
      </trkpt>
      <trkpt lat="-22.01841272413730621337890625" lon="166.4643336273729801177978515625">
        <ele>861.5999755859375</ele>
        <time>2016-08-12T21:25:51.000Z</time>
        <extensions>
          <ns3:TrackPointExtension>
            <ns3:atemp>15.0</ns3:atemp>
            <ns3:hr>138</ns3:hr>
          </ns3:TrackPointExtension>
        </extensions>
      </trkpt>
      <trkpt lat="-22.01843149960041046142578125" lon="166.46434661932289600372314453125">
        <ele>861.5999755859375</ele>
        <time>2016-08-12T21:25:52.000Z</time>
        <extensions>
          <ns3:TrackPointExtension>
            <ns3:atemp>15.0</ns3:atemp>
            <ns3:hr>139</ns3:hr>
          </ns3:TrackPointExtension>
        </extensions>
      </trkpt>
      <trkpt lat="-22.01846008189022541046142578125" lon="166.4643503911793231964111328125">
        <ele>861.5999755859375</ele>
        <time>2016-08-12T21:25:53.000Z</time>
        <extensions>
          <ns3:TrackPointExtension>
            <ns3:atemp>15.0</ns3:atemp>
            <ns3:hr>139</ns3:hr>
          </ns3:TrackPointExtension>
        </extensions>
      </trkpt>
      <trkpt lat="-22.01848153956234455108642578125" lon="166.46435868926346302032470703125">
        <ele>861.4000244140625</ele>
        <time>2016-08-12T21:25:54.000Z</time>
        <extensions>
          <ns3:TrackPointExtension>
            <ns3:atemp>15.0</ns3:atemp>
            <ns3:hr>139</ns3:hr>
          </ns3:TrackPointExtension>
        </extensions>
      </trkpt>
      <trkpt lat="-22.01850199140608310699462890625" lon="166.464366652071475982666015625">
        <ele>861.20001220703125</ele>
        <time>2016-08-12T21:25:55.000Z</time>
        <extensions>
          <ns3:TrackPointExtension>
            <ns3:atemp>15.0</ns3:atemp>
            <ns3:hr>139</ns3:hr>
          </ns3:TrackPointExtension>
        </extensions>
      </trkpt>
      <trkpt lat="-22.018517665565013885498046875" lon="166.4643778838217258453369140625">
        <ele>861.4000244140625</ele>
        <time>2016-08-12T21:25:56.000Z</time>
        <extensions>
          <ns3:TrackPointExtension>
            <ns3:atemp>15.0</ns3:atemp>
            <ns3:hr>139</ns3:hr>
          </ns3:TrackPointExtension>
        </extensions>
      </trkpt>
      <trkpt lat="-22.018540464341640472412109375" lon="166.46438718773424625396728515625">
        <ele>861.5999755859375</ele>
        <time>2016-08-12T21:25:57.000Z</time>
        <extensions>
          <ns3:TrackPointExtension>
            <ns3:atemp>15.0</ns3:atemp>
            <ns3:hr>139</ns3:hr>
          </ns3:TrackPointExtension>
        </extensions>
      </trkpt>
      <trkpt lat="-22.01856200583279132843017578125" lon="166.4643980003893375396728515625">
        <ele>861.20001220703125</ele>
        <time>2016-08-12T21:25:58.000Z</time>
        <extensions>
          <ns3:TrackPointExtension>
            <ns3:atemp>15.0</ns3:atemp>
            <ns3:hr>139</ns3:hr>
          </ns3:TrackPointExtension>
        </extensions>
      </trkpt>
      <trkpt lat="-22.01858363114297389984130859375" lon="166.46440596319735050201416015625">
        <ele>860.5999755859375</ele>
        <time>2016-08-12T21:25:59.000Z</time>
        <extensions>
          <ns3:TrackPointExtension>
            <ns3:atemp>15.0</ns3:atemp>
            <ns3:hr>138</ns3:hr>
          </ns3:TrackPointExtension>
        </extensions>
      </trkpt>
      <trkpt lat="-22.01861112378537654876708984375" lon="166.46441518329083919525146484375">
        <ele>860.5999755859375</ele>
        <time>2016-08-12T21:26:00.000Z</time>
        <extensions>
          <ns3:TrackPointExtension>
            <ns3:atemp>15.0</ns3:atemp>
            <ns3:hr>139</ns3:hr>
          </ns3:TrackPointExtension>
        </extensions>
      </trkpt>
      <trkpt lat="-22.0186301507055759429931640625" lon="166.4644321985542774200439453125">
        <ele>861.20001220703125</ele>
        <time>2016-08-12T21:26:01.000Z</time>
        <extensions>
          <ns3:TrackPointExtension>
            <ns3:atemp>15.0</ns3:atemp>
            <ns3:hr>138</ns3:hr>
          </ns3:TrackPointExtension>
        </extensions>
      </trkpt>
      <trkpt lat="-22.01865286566317081451416015625" lon="166.464444100856781005859375">
        <ele>861</ele>
        <time>2016-08-12T21:26:02.000Z</time>
        <extensions>
          <ns3:TrackPointExtension>
            <ns3:atemp>15.0</ns3:atemp>
            <ns3:hr>139</ns3:hr>
          </ns3:TrackPointExtension>
        </extensions>
      </trkpt>
      <trkpt lat="-22.018681950867176055908203125" lon="166.4644543267786502838134765625">
        <ele>860.79998779296875</ele>
        <time>2016-08-12T21:26:03.000Z</time>
        <extensions>
          <ns3:TrackPointExtension>
            <ns3:atemp>15.0</ns3:atemp>
            <ns3:hr>139</ns3:hr>
          </ns3:TrackPointExtension>
        </extensions>
      </trkpt>
      <trkpt lat="-22.01869762502610683441162109375" lon="166.4644680730998516082763671875">
        <ele>861</ele>
        <time>2016-08-12T21:26:04.000Z</time>
        <extensions>
          <ns3:TrackPointExtension>
            <ns3:atemp>15.0</ns3:atemp>
            <ns3:hr>139</ns3:hr>
          </ns3:TrackPointExtension>
        </extensions>
      </trkpt>
      <trkpt lat="-22.0187166519463062286376953125" lon="166.464486010372638702392578125">
        <ele>861.4000244140625</ele>
        <time>2016-08-12T21:26:05.000Z</time>
        <extensions>
          <ns3:TrackPointExtension>
            <ns3:atemp>15.0</ns3:atemp>
            <ns3:hr>138</ns3:hr>
          </ns3:TrackPointExtension>
        </extensions>
      </trkpt>
      <trkpt lat="-22.0187314040958881378173828125" lon="166.4645086415112018585205078125">
        <ele>861.4000244140625</ele>
        <time>2016-08-12T21:26:06.000Z</time>
        <extensions>
          <ns3:TrackPointExtension>
            <ns3:atemp>15.0</ns3:atemp>
            <ns3:hr>139</ns3:hr>
          </ns3:TrackPointExtension>
        </extensions>
      </trkpt>
      <trkpt lat="-22.0187542028725147247314453125" lon="166.4645267464220523834228515625">
        <ele>861.4000244140625</ele>
        <time>2016-08-12T21:26:07.000Z</time>
        <extensions>
          <ns3:TrackPointExtension>
            <ns3:atemp>15.0</ns3:atemp>
            <ns3:hr>139</ns3:hr>
          </ns3:TrackPointExtension>
        </extensions>
      </trkpt>
      <trkpt lat="-22.01877339743077754974365234375" lon="166.46454803645610809326171875">
        <ele>861.5999755859375</ele>
        <time>2016-08-12T21:26:08.000Z</time>
        <extensions>
          <ns3:TrackPointExtension>
            <ns3:atemp>15.0</ns3:atemp>
            <ns3:hr>139</ns3:hr>
          </ns3:TrackPointExtension>
        </extensions>
      </trkpt>
      <trkpt lat="-22.01878982596099376678466796875" lon="166.46456639282405376434326171875">
        <ele>861.79998779296875</ele>
        <time>2016-08-12T21:26:09.000Z</time>
        <extensions>
          <ns3:TrackPointExtension>
            <ns3:atemp>15.0</ns3:atemp>
            <ns3:hr>139</ns3:hr>
          </ns3:TrackPointExtension>
        </extensions>
      </trkpt>
      <trkpt lat="-22.01880910433828830718994140625" lon="166.464583240449428558349609375">
        <ele>862</ele>
        <time>2016-08-12T21:26:10.000Z</time>
        <extensions>
          <ns3:TrackPointExtension>
            <ns3:atemp>15.0</ns3:atemp>
            <ns3:hr>139</ns3:hr>
          </ns3:TrackPointExtension>
        </extensions>
      </trkpt>
      <trkpt lat="-22.01882846653461456298828125" lon="166.46460427902638912200927734375">
        <ele>861.4000244140625</ele>
        <time>2016-08-12T21:26:11.000Z</time>
        <extensions>
          <ns3:TrackPointExtension>
            <ns3:atemp>15.0</ns3:atemp>
            <ns3:hr>139</ns3:hr>
          </ns3:TrackPointExtension>
        </extensions>
      </trkpt>
      <trkpt lat="-22.01885403133928775787353515625" lon="166.46461986936628818511962890625">
        <ele>861.4000244140625</ele>
        <time>2016-08-12T21:26:12.000Z</time>
        <extensions>
          <ns3:TrackPointExtension>
            <ns3:atemp>15.0</ns3:atemp>
            <ns3:hr>139</ns3:hr>
          </ns3:TrackPointExtension>
        </extensions>
      </trkpt>
      <trkpt lat="-22.01887280680239200592041015625" lon="166.46463780663907527923583984375">
        <ele>861.79998779296875</ele>
        <time>2016-08-12T21:26:13.000Z</time>
        <extensions>
          <ns3:TrackPointExtension>
            <ns3:atemp>15.0</ns3:atemp>
            <ns3:hr>139</ns3:hr>
          </ns3:TrackPointExtension>
        </extensions>
      </trkpt>
      <trkpt lat="-22.01889107935130596160888671875" lon="166.4646598510444164276123046875">
        <ele>862</ele>
        <time>2016-08-12T21:26:14.000Z</time>
        <extensions>
          <ns3:TrackPointExtension>
            <ns3:atemp>15.0</ns3:atemp>
            <ns3:hr>139</ns3:hr>
          </ns3:TrackPointExtension>
        </extensions>
      </trkpt>
      <trkpt lat="-22.01891303993761539459228515625" lon="166.4646729268133640289306640625">
        <ele>861.79998779296875</ele>
        <time>2016-08-12T21:26:15.000Z</time>
        <extensions>
          <ns3:TrackPointExtension>
            <ns3:atemp>15.0</ns3:atemp>
            <ns3:hr>139</ns3:hr>
          </ns3:TrackPointExtension>
        </extensions>
      </trkpt>
      <trkpt lat="-22.01893215067684650421142578125" lon="166.46468591876327991485595703125">
        <ele>861.79998779296875</ele>
        <time>2016-08-12T21:26:16.000Z</time>
        <extensions>
          <ns3:TrackPointExtension>
            <ns3:atemp>15.0</ns3:atemp>
            <ns3:hr>139</ns3:hr>
          </ns3:TrackPointExtension>
        </extensions>
      </trkpt>
      <trkpt lat="-22.01895528472959995269775390625" lon="166.464698575437068939208984375">
        <ele>861.79998779296875</ele>
        <time>2016-08-12T21:26:17.000Z</time>
        <extensions>
          <ns3:TrackPointExtension>
            <ns3:atemp>15.0</ns3:atemp>
            <ns3:hr>139</ns3:hr>
          </ns3:TrackPointExtension>
        </extensions>
      </trkpt>
      <trkpt lat="-22.0189771614968776702880859375" lon="166.46470653824508190155029296875">
        <ele>861.5999755859375</ele>
        <time>2016-08-12T21:26:18.000Z</time>
        <extensions>
          <ns3:TrackPointExtension>
            <ns3:atemp>15.0</ns3:atemp>
            <ns3:hr>139</ns3:hr>
          </ns3:TrackPointExtension>
        </extensions>
      </trkpt>
      <trkpt lat="-22.0189996249973773956298828125" lon="166.464713327586650848388671875">
        <ele>861.20001220703125</ele>
        <time>2016-08-12T21:26:19.000Z</time>
        <extensions>
          <ns3:TrackPointExtension>
            <ns3:atemp>15.0</ns3:atemp>
            <ns3:hr>139</ns3:hr>
          </ns3:TrackPointExtension>
        </extensions>
      </trkpt>
      <trkpt lat="-22.0190254412591457366943359375" lon="166.46471408195793628692626953125">
        <ele>861</ele>
        <time>2016-08-12T21:26:20.000Z</time>
        <extensions>
          <ns3:TrackPointExtension>
            <ns3:atemp>15.0</ns3:atemp>
            <ns3:hr>139</ns3:hr>
          </ns3:TrackPointExtension>
        </extensions>
      </trkpt>
      <trkpt lat="-22.019049413502216339111328125" lon="166.46470494568347930908203125">
        <ele>861.4000244140625</ele>
        <time>2016-08-12T21:26:21.000Z</time>
        <extensions>
          <ns3:TrackPointExtension>
            <ns3:atemp>15.0</ns3:atemp>
            <ns3:hr>139</ns3:hr>
          </ns3:TrackPointExtension>
        </extensions>
      </trkpt>
      <trkpt lat="-22.01907028444111347198486328125" lon="166.46469765342772006988525390625">
        <ele>861.4000244140625</ele>
        <time>2016-08-12T21:26:22.000Z</time>
        <extensions>
          <ns3:TrackPointExtension>
            <ns3:atemp>15.0</ns3:atemp>
            <ns3:hr>139</ns3:hr>
          </ns3:TrackPointExtension>
        </extensions>
      </trkpt>
      <trkpt lat="-22.01909610070288181304931640625" lon="166.46469178609549999237060546875">
        <ele>861.20001220703125</ele>
        <time>2016-08-12T21:26:23.000Z</time>
        <extensions>
          <ns3:TrackPointExtension>
            <ns3:atemp>15.0</ns3:atemp>
            <ns3:hr>138</ns3:hr>
          </ns3:TrackPointExtension>
        </extensions>
      </trkpt>
      <trkpt lat="-22.01912426389753818511962890625" lon="166.46468625403940677642822265625">
        <ele>861.4000244140625</ele>
        <time>2016-08-12T21:26:24.000Z</time>
        <extensions>
          <ns3:TrackPointExtension>
            <ns3:atemp>15.0</ns3:atemp>
            <ns3:hr>139</ns3:hr>
          </ns3:TrackPointExtension>
        </extensions>
      </trkpt>
      <trkpt lat="-22.01914538629353046417236328125" lon="166.4646841585636138916015625">
        <ele>861.5999755859375</ele>
        <time>2016-08-12T21:26:25.000Z</time>
        <extensions>
          <ns3:TrackPointExtension>
            <ns3:atemp>15.0</ns3:atemp>
            <ns3:hr>138</ns3:hr>
          </ns3:TrackPointExtension>
        </extensions>
      </trkpt>
      <trkpt lat="-22.0191726274788379669189453125" lon="166.46468441002070903778076171875">
        <ele>861.4000244140625</ele>
        <time>2016-08-12T21:26:26.000Z</time>
        <extensions>
          <ns3:TrackPointExtension>
            <ns3:atemp>15.0</ns3:atemp>
            <ns3:hr>138</ns3:hr>
          </ns3:TrackPointExtension>
        </extensions>
      </trkpt>
      <trkpt lat="-22.0192014612257480621337890625" lon="166.464683823287487030029296875">
        <ele>861.20001220703125</ele>
        <time>2016-08-12T21:26:27.000Z</time>
        <extensions>
          <ns3:TrackPointExtension>
            <ns3:atemp>15.0</ns3:atemp>
            <ns3:hr>138</ns3:hr>
          </ns3:TrackPointExtension>
        </extensions>
      </trkpt>
      <trkpt lat="-22.0192292891442775726318359375" lon="166.46468223072588443756103515625">
        <ele>861.20001220703125</ele>
        <time>2016-08-12T21:26:28.000Z</time>
        <extensions>
          <ns3:TrackPointExtension>
            <ns3:atemp>15.0</ns3:atemp>
            <ns3:hr>138</ns3:hr>
          </ns3:TrackPointExtension>
        </extensions>
      </trkpt>
      <trkpt lat="-22.0192547701299190521240234375" lon="166.46468105725944042205810546875">
        <ele>860.79998779296875</ele>
        <time>2016-08-12T21:26:29.000Z</time>
        <extensions>
          <ns3:TrackPointExtension>
            <ns3:atemp>15.0</ns3:atemp>
            <ns3:hr>138</ns3:hr>
          </ns3:TrackPointExtension>
        </extensions>
      </trkpt>
      <trkpt lat="-22.01927597634494304656982421875" lon="166.46468223072588443756103515625">
        <ele>860.5999755859375</ele>
        <time>2016-08-12T21:26:30.000Z</time>
        <extensions>
          <ns3:TrackPointExtension>
            <ns3:atemp>15.0</ns3:atemp>
            <ns3:hr>138</ns3:hr>
          </ns3:TrackPointExtension>
        </extensions>
      </trkpt>
      <trkpt lat="-22.0192963443696498870849609375" lon="166.46468625403940677642822265625">
        <ele>860.79998779296875</ele>
        <time>2016-08-12T21:26:31.000Z</time>
        <extensions>
          <ns3:TrackPointExtension>
            <ns3:atemp>15.0</ns3:atemp>
            <ns3:hr>138</ns3:hr>
          </ns3:TrackPointExtension>
        </extensions>
      </trkpt>
      <trkpt lat="-22.0193171314895153045654296875" lon="166.46469547413289546966552734375">
        <ele>861.20001220703125</ele>
        <time>2016-08-12T21:26:32.000Z</time>
        <extensions>
          <ns3:TrackPointExtension>
            <ns3:atemp>15.0</ns3:atemp>
            <ns3:hr>137</ns3:hr>
          </ns3:TrackPointExtension>
        </extensions>
      </trkpt>
      <trkpt lat="-22.019334733486175537109375" lon="166.46470871753990650177001953125">
        <ele>861.4000244140625</ele>
        <time>2016-08-12T21:26:33.000Z</time>
        <extensions>
          <ns3:TrackPointExtension>
            <ns3:atemp>15.0</ns3:atemp>
            <ns3:hr>137</ns3:hr>
          </ns3:TrackPointExtension>
        </extensions>
      </trkpt>
      <trkpt lat="-22.01936063356697559356689453125" lon="166.46471793763339519500732421875">
        <ele>861.20001220703125</ele>
        <time>2016-08-12T21:26:34.000Z</time>
        <extensions>
          <ns3:TrackPointExtension>
            <ns3:atemp>15.0</ns3:atemp>
            <ns3:hr>137</ns3:hr>
          </ns3:TrackPointExtension>
        </extensions>
      </trkpt>
      <trkpt lat="-22.01938326470553874969482421875" lon="166.464722715318202972412109375">
        <ele>860.79998779296875</ele>
        <time>2016-08-12T21:26:35.000Z</time>
        <extensions>
          <ns3:TrackPointExtension>
            <ns3:atemp>15.0</ns3:atemp>
            <ns3:hr>136</ns3:hr>
          </ns3:TrackPointExtension>
        </extensions>
      </trkpt>
      <trkpt lat="-22.0194036327302455902099609375" lon="166.4647269062697887420654296875">
        <ele>861</ele>
        <time>2016-08-12T21:26:36.000Z</time>
        <extensions>
          <ns3:TrackPointExtension>
            <ns3:atemp>15.0</ns3:atemp>
            <ns3:hr>136</ns3:hr>
          </ns3:TrackPointExtension>
        </extensions>
      </trkpt>
      <trkpt lat="-22.01942852698266506195068359375" lon="166.46472900174558162689208984375">
        <ele>861</ele>
        <time>2016-08-12T21:26:37.000Z</time>
        <extensions>
          <ns3:TrackPointExtension>
            <ns3:atemp>15.0</ns3:atemp>
            <ns3:hr>136</ns3:hr>
          </ns3:TrackPointExtension>
        </extensions>
      </trkpt>
      <trkpt lat="-22.01945400796830654144287109375" lon="166.4647292532026767730712890625">
        <ele>861</ele>
        <time>2016-08-12T21:26:38.000Z</time>
        <extensions>
          <ns3:TrackPointExtension>
            <ns3:atemp>15.0</ns3:atemp>
            <ns3:hr>136</ns3:hr>
          </ns3:TrackPointExtension>
        </extensions>
      </trkpt>
      <trkpt lat="-22.01947680674493312835693359375" lon="166.46472531370818614959716796875">
        <ele>860.5999755859375</ele>
        <time>2016-08-12T21:26:39.000Z</time>
        <extensions>
          <ns3:TrackPointExtension>
            <ns3:atemp>15.0</ns3:atemp>
            <ns3:hr>135</ns3:hr>
          </ns3:TrackPointExtension>
        </extensions>
      </trkpt>
      <trkpt lat="-22.01950295828282833099365234375" lon="166.46472112275660037994384765625">
        <ele>860.79998779296875</ele>
        <time>2016-08-12T21:26:40.000Z</time>
        <extensions>
          <ns3:TrackPointExtension>
            <ns3:atemp>15.0</ns3:atemp>
            <ns3:hr>135</ns3:hr>
          </ns3:TrackPointExtension>
        </extensions>
      </trkpt>
      <trkpt lat="-22.0195283554494380950927734375" lon="166.46471274085342884063720703125">
        <ele>861.20001220703125</ele>
        <time>2016-08-12T21:26:41.000Z</time>
        <extensions>
          <ns3:TrackPointExtension>
            <ns3:atemp>15.0</ns3:atemp>
            <ns3:hr>135</ns3:hr>
          </ns3:TrackPointExtension>
        </extensions>
      </trkpt>
      <trkpt lat="-22.01955643482506275177001953125" lon="166.4647002518177032470703125">
        <ele>861.4000244140625</ele>
        <time>2016-08-12T21:26:42.000Z</time>
        <extensions>
          <ns3:TrackPointExtension>
            <ns3:atemp>15.0</ns3:atemp>
            <ns3:hr>135</ns3:hr>
          </ns3:TrackPointExtension>
        </extensions>
      </trkpt>
      <trkpt lat="-22.01958426274359226226806640625" lon="166.46469413302838802337646484375">
        <ele>861.20001220703125</ele>
        <time>2016-08-12T21:26:43.000Z</time>
        <extensions>
          <ns3:TrackPointExtension>
            <ns3:atemp>15.0</ns3:atemp>
            <ns3:hr>135</ns3:hr>
          </ns3:TrackPointExtension>
        </extensions>
      </trkpt>
      <trkpt lat="-22.01960907317698001861572265625" lon="166.46468977443873882293701171875">
        <ele>860.79998779296875</ele>
        <time>2016-08-12T21:26:44.000Z</time>
        <extensions>
          <ns3:TrackPointExtension>
            <ns3:atemp>15.0</ns3:atemp>
            <ns3:hr>135</ns3:hr>
          </ns3:TrackPointExtension>
        </extensions>
      </trkpt>
      <trkpt lat="-22.01963589526712894439697265625" lon="166.46468457765877246856689453125">
        <ele>861</ele>
        <time>2016-08-12T21:26:45.000Z</time>
        <extensions>
          <ns3:TrackPointExtension>
            <ns3:atemp>15.0</ns3:atemp>
            <ns3:hr>134</ns3:hr>
          </ns3:TrackPointExtension>
        </extensions>
      </trkpt>
      <trkpt lat="-22.01966288499534130096435546875" lon="166.4646823145449161529541015625">
        <ele>861</ele>
        <time>2016-08-12T21:26:46.000Z</time>
        <extensions>
          <ns3:TrackPointExtension>
            <ns3:atemp>15.0</ns3:atemp>
            <ns3:hr>134</ns3:hr>
          </ns3:TrackPointExtension>
        </extensions>
      </trkpt>
      <trkpt lat="-22.01968719251453876495361328125" lon="166.4646816439926624298095703125">
        <ele>860.79998779296875</ele>
        <time>2016-08-12T21:26:47.000Z</time>
        <extensions>
          <ns3:TrackPointExtension>
            <ns3:atemp>15.0</ns3:atemp>
            <ns3:hr>134</ns3:hr>
          </ns3:TrackPointExtension>
        </extensions>
      </trkpt>
      <trkpt lat="-22.01970999129116535186767578125" lon="166.46468524821102619171142578125">
        <ele>861.20001220703125</ele>
        <time>2016-08-12T21:26:48.000Z</time>
        <extensions>
          <ns3:TrackPointExtension>
            <ns3:atemp>15.0</ns3:atemp>
            <ns3:hr>134</ns3:hr>
          </ns3:TrackPointExtension>
        </extensions>
      </trkpt>
      <trkpt lat="-22.01973346062004566192626953125" lon="166.464685499668121337890625">
        <ele>861</ele>
        <time>2016-08-12T21:26:49.000Z</time>
        <extensions>
          <ns3:TrackPointExtension>
            <ns3:atemp>15.0</ns3:atemp>
            <ns3:hr>134</ns3:hr>
          </ns3:TrackPointExtension>
        </extensions>
      </trkpt>
      <trkpt lat="-22.01975760050117969512939453125" lon="166.46468424238264560699462890625">
        <ele>861</ele>
        <time>2016-08-12T21:26:50.000Z</time>
        <extensions>
          <ns3:TrackPointExtension>
            <ns3:atemp>15.0</ns3:atemp>
            <ns3:hr>134</ns3:hr>
          </ns3:TrackPointExtension>
        </extensions>
      </trkpt>
      <trkpt lat="-22.01978391967713832855224609375" lon="166.46468139253556728363037109375">
        <ele>860.79998779296875</ele>
        <time>2016-08-12T21:26:51.000Z</time>
        <extensions>
          <ns3:TrackPointExtension>
            <ns3:atemp>15.0</ns3:atemp>
            <ns3:hr>134</ns3:hr>
          </ns3:TrackPointExtension>
        </extensions>
      </trkpt>
      <trkpt lat="-22.0198096521198749542236328125" lon="166.46467938087880611419677734375">
        <ele>860.79998779296875</ele>
        <time>2016-08-12T21:26:52.000Z</time>
        <extensions>
          <ns3:TrackPointExtension>
            <ns3:atemp>15.0</ns3:atemp>
            <ns3:hr>134</ns3:hr>
          </ns3:TrackPointExtension>
        </extensions>
      </trkpt>
      <trkpt lat="-22.01983706094324588775634765625" lon="166.4646779559552669525146484375">
        <ele>860.5999755859375</ele>
        <time>2016-08-12T21:26:53.000Z</time>
        <extensions>
          <ns3:TrackPointExtension>
            <ns3:atemp>15.0</ns3:atemp>
            <ns3:hr>134</ns3:hr>
          </ns3:TrackPointExtension>
        </extensions>
      </trkpt>
      <trkpt lat="-22.01986455358564853668212890625" lon="166.4646746031939983367919921875">
        <ele>860.4000244140625</ele>
        <time>2016-08-12T21:26:54.000Z</time>
        <extensions>
          <ns3:TrackPointExtension>
            <ns3:atemp>15.0</ns3:atemp>
            <ns3:hr>134</ns3:hr>
          </ns3:TrackPointExtension>
        </extensions>
      </trkpt>
      <trkpt lat="-22.0198884420096874237060546875" lon="166.46467133425176143646240234375">
        <ele>860</ele>
        <time>2016-08-12T21:26:55.000Z</time>
        <extensions>
          <ns3:TrackPointExtension>
            <ns3:atemp>15.0</ns3:atemp>
            <ns3:hr>134</ns3:hr>
          </ns3:TrackPointExtension>
        </extensions>
      </trkpt>
      <trkpt lat="-22.01991207897663116455078125" lon="166.46466898731887340545654296875">
        <ele>860.20001220703125</ele>
        <time>2016-08-12T21:26:56.000Z</time>
        <extensions>
          <ns3:TrackPointExtension>
            <ns3:atemp>15.0</ns3:atemp>
            <ns3:hr>134</ns3:hr>
          </ns3:TrackPointExtension>
        </extensions>
      </trkpt>
      <trkpt lat="-22.0199368894100189208984375" lon="166.4646662212908267974853515625">
        <ele>860.20001220703125</ele>
        <time>2016-08-12T21:26:57.000Z</time>
        <extensions>
          <ns3:TrackPointExtension>
            <ns3:atemp>15.0</ns3:atemp>
            <ns3:hr>134</ns3:hr>
          </ns3:TrackPointExtension>
        </extensions>
      </trkpt>
      <trkpt lat="-22.01996027491986751556396484375" lon="166.4646632038056850433349609375">
        <ele>860</ele>
        <time>2016-08-12T21:26:58.000Z</time>
        <extensions>
          <ns3:TrackPointExtension>
            <ns3:atemp>15.0</ns3:atemp>
            <ns3:hr>133</ns3:hr>
          </ns3:TrackPointExtension>
        </extensions>
      </trkpt>
      <trkpt lat="-22.01998625881969928741455078125" lon="166.46466429345309734344482421875">
        <ele>860</ele>
        <time>2016-08-12T21:26:59.000Z</time>
        <extensions>
          <ns3:TrackPointExtension>
            <ns3:atemp>15.0</ns3:atemp>
            <ns3:hr>134</ns3:hr>
          </ns3:TrackPointExtension>
        </extensions>
      </trkpt>
      <trkpt lat="-22.0200104825198650360107421875" lon="166.46466672420501708984375">
        <ele>860.4000244140625</ele>
        <time>2016-08-12T21:27:00.000Z</time>
        <extensions>
          <ns3:TrackPointExtension>
            <ns3:atemp>15.0</ns3:atemp>
            <ns3:hr>133</ns3:hr>
          </ns3:TrackPointExtension>
        </extensions>
      </trkpt>
      <trkpt lat="-22.020032107830047607421875" lon="166.4646678976714611053466796875">
        <ele>860.20001220703125</ele>
        <time>2016-08-12T21:27:01.000Z</time>
        <extensions>
          <ns3:TrackPointExtension>
            <ns3:atemp>15.0</ns3:atemp>
            <ns3:hr>133</ns3:hr>
          </ns3:TrackPointExtension>
        </extensions>
      </trkpt>
      <trkpt lat="-22.02005214057862758636474609375" lon="166.46467267535626888275146484375">
        <ele>860.20001220703125</ele>
        <time>2016-08-12T21:27:02.000Z</time>
        <extensions>
          <ns3:TrackPointExtension>
            <ns3:atemp>15.0</ns3:atemp>
            <ns3:hr>133</ns3:hr>
          </ns3:TrackPointExtension>
        </extensions>
      </trkpt>
      <trkpt lat="-22.02007292769849300384521484375" lon="166.464681811630725860595703125">
        <ele>860.20001220703125</ele>
        <time>2016-08-12T21:27:03.000Z</time>
        <extensions>
          <ns3:TrackPointExtension>
            <ns3:atemp>15.0</ns3:atemp>
            <ns3:hr>133</ns3:hr>
          </ns3:TrackPointExtension>
        </extensions>
      </trkpt>
      <trkpt lat="-22.02009581029415130615234375" lon="166.46469731815159320831298828125">
        <ele>860.4000244140625</ele>
        <time>2016-08-12T21:27:04.000Z</time>
        <extensions>
          <ns3:TrackPointExtension>
            <ns3:atemp>15.0</ns3:atemp>
            <ns3:hr>133</ns3:hr>
          </ns3:TrackPointExtension>
        </extensions>
      </trkpt>
      <trkpt lat="-22.02011835761368274688720703125" lon="166.46471106447279453277587890625">
        <ele>860.20001220703125</ele>
        <time>2016-08-12T21:27:05.000Z</time>
        <extensions>
          <ns3:TrackPointExtension>
            <ns3:atemp>15.0</ns3:atemp>
            <ns3:hr>134</ns3:hr>
          </ns3:TrackPointExtension>
        </extensions>
      </trkpt>
      <trkpt lat="-22.0201301760971546173095703125" lon="166.464732773602008819580078125">
        <ele>859.79998779296875</ele>
        <time>2016-08-12T21:27:06.000Z</time>
        <extensions>
          <ns3:TrackPointExtension>
            <ns3:atemp>15.0</ns3:atemp>
            <ns3:hr>134</ns3:hr>
          </ns3:TrackPointExtension>
        </extensions>
      </trkpt>
      <trkpt lat="-22.020142413675785064697265625" lon="166.46475481800734996795654296875">
        <ele>860</ele>
        <time>2016-08-12T21:27:07.000Z</time>
        <extensions>
          <ns3:TrackPointExtension>
            <ns3:atemp>15.0</ns3:atemp>
            <ns3:hr>134</ns3:hr>
          </ns3:TrackPointExtension>
        </extensions>
      </trkpt>
      <trkpt lat="-22.020151130855083465576171875" lon="166.4647788740694522857666015625">
        <ele>860.5999755859375</ele>
        <time>2016-08-12T21:27:08.000Z</time>
        <extensions>
          <ns3:TrackPointExtension>
            <ns3:atemp>15.0</ns3:atemp>
            <ns3:hr>134</ns3:hr>
          </ns3:TrackPointExtension>
        </extensions>
      </trkpt>
      <trkpt lat="-22.02015817165374755859375" lon="166.464802511036396026611328125">
        <ele>860.79998779296875</ele>
        <time>2016-08-12T21:27:09.000Z</time>
        <extensions>
          <ns3:TrackPointExtension>
            <ns3:atemp>15.0</ns3:atemp>
            <ns3:hr>134</ns3:hr>
          </ns3:TrackPointExtension>
        </extensions>
      </trkpt>
      <trkpt lat="-22.020165212452411651611328125" lon="166.464822627604007720947265625">
        <ele>860.5999755859375</ele>
        <time>2016-08-12T21:27:10.000Z</time>
        <extensions>
          <ns3:TrackPointExtension>
            <ns3:atemp>15.0</ns3:atemp>
            <ns3:hr>134</ns3:hr>
          </ns3:TrackPointExtension>
        </extensions>
      </trkpt>
      <trkpt lat="-22.0201757736504077911376953125" lon="166.464845426380634307861328125">
        <ele>860.4000244140625</ele>
        <time>2016-08-12T21:27:11.000Z</time>
        <extensions>
          <ns3:TrackPointExtension>
            <ns3:atemp>15.0</ns3:atemp>
            <ns3:hr>134</ns3:hr>
          </ns3:TrackPointExtension>
        </extensions>
      </trkpt>
      <trkpt lat="-22.0201878435909748077392578125" lon="166.46486856043338775634765625">
        <ele>860.5999755859375</ele>
        <time>2016-08-12T21:27:12.000Z</time>
        <extensions>
          <ns3:TrackPointExtension>
            <ns3:atemp>15.0</ns3:atemp>
            <ns3:hr>134</ns3:hr>
          </ns3:TrackPointExtension>
        </extensions>
      </trkpt>
      <trkpt lat="-22.02019949443638324737548828125" lon="166.4648906886577606201171875">
        <ele>860.5999755859375</ele>
        <time>2016-08-12T21:27:13.000Z</time>
        <extensions>
          <ns3:TrackPointExtension>
            <ns3:atemp>15.0</ns3:atemp>
            <ns3:hr>134</ns3:hr>
          </ns3:TrackPointExtension>
        </extensions>
      </trkpt>
      <trkpt lat="-22.02021324075758457183837890625" lon="166.46491290070116519927978515625">
        <ele>860.5999755859375</ele>
        <time>2016-08-12T21:27:14.000Z</time>
        <extensions>
          <ns3:TrackPointExtension>
            <ns3:atemp>15.0</ns3:atemp>
            <ns3:hr>135</ns3:hr>
          </ns3:TrackPointExtension>
        </extensions>
      </trkpt>
      <trkpt lat="-22.02022346667945384979248046875" lon="166.46493427455425262451171875">
        <ele>860.4000244140625</ele>
        <time>2016-08-12T21:27:15.000Z</time>
        <extensions>
          <ns3:TrackPointExtension>
            <ns3:atemp>15.0</ns3:atemp>
            <ns3:hr>135</ns3:hr>
          </ns3:TrackPointExtension>
        </extensions>
      </trkpt>
      <trkpt lat="-22.02023335732519626617431640625" lon="166.46496034227311611175537109375">
        <ele>860.4000244140625</ele>
        <time>2016-08-12T21:27:16.000Z</time>
        <extensions>
          <ns3:TrackPointExtension>
            <ns3:atemp>15.0</ns3:atemp>
            <ns3:hr>135</ns3:hr>
          </ns3:TrackPointExtension>
        </extensions>
      </trkpt>
      <trkpt lat="-22.0202495343983173370361328125" lon="166.4649837277829647064208984375">
        <ele>860.79998779296875</ele>
        <time>2016-08-12T21:27:17.000Z</time>
        <extensions>
          <ns3:TrackPointExtension>
            <ns3:atemp>15.0</ns3:atemp>
            <ns3:hr>135</ns3:hr>
          </ns3:TrackPointExtension>
        </extensions>
      </trkpt>
      <trkpt lat="-22.02026638202369213104248046875" lon="166.46500225178897380828857421875">
        <ele>860.5999755859375</ele>
        <time>2016-08-12T21:27:18.000Z</time>
        <extensions>
          <ns3:TrackPointExtension>
            <ns3:atemp>15.0</ns3:atemp>
            <ns3:hr>135</ns3:hr>
          </ns3:TrackPointExtension>
        </extensions>
      </trkpt>
      <trkpt lat="-22.0202803798019886016845703125" lon="166.46502354182302951812744140625">
        <ele>860</ele>
        <time>2016-08-12T21:27:19.000Z</time>
        <extensions>
          <ns3:TrackPointExtension>
            <ns3:atemp>15.0</ns3:atemp>
            <ns3:hr>135</ns3:hr>
          </ns3:TrackPointExtension>
        </extensions>
      </trkpt>
      <trkpt lat="-22.0202937908470630645751953125" lon="166.465042568743228912353515625">
        <ele>860.20001220703125</ele>
        <time>2016-08-12T21:27:20.000Z</time>
        <extensions>
          <ns3:TrackPointExtension>
            <ns3:atemp>15.0</ns3:atemp>
            <ns3:hr>135</ns3:hr>
          </ns3:TrackPointExtension>
        </extensions>
      </trkpt>
      <trkpt lat="-22.02030636370182037353515625" lon="166.46506436169147491455078125">
        <ele>860.79998779296875</ele>
        <time>2016-08-12T21:27:21.000Z</time>
        <extensions>
          <ns3:TrackPointExtension>
            <ns3:atemp>15.0</ns3:atemp>
            <ns3:hr>135</ns3:hr>
          </ns3:TrackPointExtension>
        </extensions>
      </trkpt>
      <trkpt lat="-22.02032673172652721405029296875" lon="166.465081460773944854736328125">
        <ele>860.4000244140625</ele>
        <time>2016-08-12T21:27:22.000Z</time>
        <extensions>
          <ns3:TrackPointExtension>
            <ns3:atemp>15.0</ns3:atemp>
            <ns3:hr>135</ns3:hr>
          </ns3:TrackPointExtension>
        </extensions>
      </trkpt>
      <trkpt lat="-22.0203494466841220855712890625" lon="166.4650983922183513641357421875">
        <ele>859.79998779296875</ele>
        <time>2016-08-12T21:27:23.000Z</time>
        <extensions>
          <ns3:TrackPointExtension>
            <ns3:atemp>15.0</ns3:atemp>
            <ns3:hr>135</ns3:hr>
          </ns3:TrackPointExtension>
        </extensions>
      </trkpt>
      <trkpt lat="-22.02037417329847812652587890625" lon="166.46511859260499477386474609375">
        <ele>859.79998779296875</ele>
        <time>2016-08-12T21:27:24.000Z</time>
        <extensions>
          <ns3:TrackPointExtension>
            <ns3:atemp>15.0</ns3:atemp>
            <ns3:hr>135</ns3:hr>
          </ns3:TrackPointExtension>
        </extensions>
      </trkpt>
      <trkpt lat="-22.0203943736851215362548828125" lon="166.46513904444873332977294921875">
        <ele>860.4000244140625</ele>
        <time>2016-08-12T21:27:25.000Z</time>
        <extensions>
          <ns3:TrackPointExtension>
            <ns3:atemp>15.0</ns3:atemp>
            <ns3:hr>136</ns3:hr>
          </ns3:TrackPointExtension>
        </extensions>
      </trkpt>
      <trkpt lat="-22.0204148255288600921630859375" lon="166.46515781991183757781982421875">
        <ele>860.5999755859375</ele>
        <time>2016-08-12T21:27:26.000Z</time>
        <extensions>
          <ns3:TrackPointExtension>
            <ns3:atemp>15.0</ns3:atemp>
            <ns3:hr>135</ns3:hr>
          </ns3:TrackPointExtension>
        </extensions>
      </trkpt>
      <trkpt lat="-22.0204357802867889404296875" lon="166.4651744998991489410400390625">
        <ele>860.4000244140625</ele>
        <time>2016-08-12T21:27:27.000Z</time>
        <extensions>
          <ns3:TrackPointExtension>
            <ns3:atemp>15.0</ns3:atemp>
            <ns3:hr>136</ns3:hr>
          </ns3:TrackPointExtension>
        </extensions>
      </trkpt>
      <trkpt lat="-22.0204570703208446502685546875" lon="166.4651909284293651580810546875">
        <ele>860.20001220703125</ele>
        <time>2016-08-12T21:27:28.000Z</time>
        <extensions>
          <ns3:TrackPointExtension>
            <ns3:atemp>15.0</ns3:atemp>
            <ns3:hr>136</ns3:hr>
          </ns3:TrackPointExtension>
        </extensions>
      </trkpt>
      <trkpt lat="-22.02047576196491718292236328125" lon="166.4652107097208499908447265625">
        <ele>860.79998779296875</ele>
        <time>2016-08-12T21:27:29.000Z</time>
        <extensions>
          <ns3:TrackPointExtension>
            <ns3:atemp>15.0</ns3:atemp>
            <ns3:hr>136</ns3:hr>
          </ns3:TrackPointExtension>
        </extensions>
      </trkpt>
      <trkpt lat="-22.02048632316291332244873046875" lon="166.4652313292026519775390625">
        <ele>861.20001220703125</ele>
        <time>2016-08-12T21:27:30.000Z</time>
        <extensions>
          <ns3:TrackPointExtension>
            <ns3:atemp>15.0</ns3:atemp>
            <ns3:hr>136</ns3:hr>
          </ns3:TrackPointExtension>
        </extensions>
      </trkpt>
      <trkpt lat="-22.02050082385540008544921875" lon="166.4652539603412151336669921875">
        <ele>861</ele>
        <time>2016-08-12T21:27:31.000Z</time>
        <extensions>
          <ns3:TrackPointExtension>
            <ns3:atemp>15.0</ns3:atemp>
            <ns3:hr>136</ns3:hr>
          </ns3:TrackPointExtension>
        </extensions>
      </trkpt>
      <trkpt lat="-22.020515240728855133056640625" lon="166.46527667529881000518798828125">
        <ele>861</ele>
        <time>2016-08-12T21:27:32.000Z</time>
        <extensions>
          <ns3:TrackPointExtension>
            <ns3:atemp>15.0</ns3:atemp>
            <ns3:hr>136</ns3:hr>
          </ns3:TrackPointExtension>
        </extensions>
      </trkpt>
      <trkpt lat="-22.02052219770848751068115234375" lon="166.46529897116124629974365234375">
        <ele>860.79998779296875</ele>
        <time>2016-08-12T21:27:33.000Z</time>
        <extensions>
          <ns3:TrackPointExtension>
            <ns3:atemp>15.0</ns3:atemp>
            <ns3:hr>136</ns3:hr>
          </ns3:TrackPointExtension>
        </extensions>
      </trkpt>
      <trkpt lat="-22.0205284841358661651611328125" lon="166.46532227285206317901611328125">
        <ele>861.4000244140625</ele>
        <time>2016-08-12T21:27:34.000Z</time>
        <extensions>
          <ns3:TrackPointExtension>
            <ns3:atemp>15.0</ns3:atemp>
            <ns3:hr>137</ns3:hr>
          </ns3:TrackPointExtension>
        </extensions>
      </trkpt>
      <trkpt lat="-22.02053569257259368896484375" lon="166.465345658361911773681640625">
        <ele>861</ele>
        <time>2016-08-12T21:27:35.000Z</time>
        <extensions>
          <ns3:TrackPointExtension>
            <ns3:atemp>15.0</ns3:atemp>
            <ns3:hr>137</ns3:hr>
          </ns3:TrackPointExtension>
        </extensions>
      </trkpt>
      <trkpt lat="-22.02054440975189208984375" lon="166.46537004970014095306396484375">
        <ele>860.4000244140625</ele>
        <time>2016-08-12T21:27:36.000Z</time>
        <extensions>
          <ns3:TrackPointExtension>
            <ns3:atemp>15.0</ns3:atemp>
            <ns3:hr>137</ns3:hr>
          </ns3:TrackPointExtension>
        </extensions>
      </trkpt>
      <trkpt lat="-22.020548768341541290283203125" lon="166.46539502777159214019775390625">
        <ele>860.20001220703125</ele>
        <time>2016-08-12T21:27:37.000Z</time>
        <extensions>
          <ns3:TrackPointExtension>
            <ns3:atemp>15.0</ns3:atemp>
            <ns3:hr>137</ns3:hr>
          </ns3:TrackPointExtension>
        </extensions>
      </trkpt>
      <trkpt lat="-22.02055513858795166015625" lon="166.46541648544371128082275390625">
        <ele>860.5999755859375</ele>
        <time>2016-08-12T21:27:38.000Z</time>
        <extensions>
          <ns3:TrackPointExtension>
            <ns3:atemp>15.0</ns3:atemp>
            <ns3:hr>137</ns3:hr>
          </ns3:TrackPointExtension>
        </extensions>
      </trkpt>
      <trkpt lat="-22.02055991627275943756103515625" lon="166.46544163115322589874267578125">
        <ele>860.79998779296875</ele>
        <time>2016-08-12T21:27:39.000Z</time>
        <extensions>
          <ns3:TrackPointExtension>
            <ns3:atemp>15.0</ns3:atemp>
            <ns3:hr>137</ns3:hr>
          </ns3:TrackPointExtension>
        </extensions>
      </trkpt>
      <trkpt lat="-22.0205569826066493988037109375" lon="166.46546459756791591644287109375">
        <ele>860.4000244140625</ele>
        <time>2016-08-12T21:27:40.000Z</time>
        <extensions>
          <ns3:TrackPointExtension>
            <ns3:atemp>15.0</ns3:atemp>
            <ns3:hr>137</ns3:hr>
          </ns3:TrackPointExtension>
        </extensions>
      </trkpt>
      <trkpt lat="-22.02055186964571475982666015625" lon="166.465490497648715972900390625">
        <ele>860.20001220703125</ele>
        <time>2016-08-12T21:27:41.000Z</time>
        <extensions>
          <ns3:TrackPointExtension>
            <ns3:atemp>15.0</ns3:atemp>
            <ns3:hr>137</ns3:hr>
          </ns3:TrackPointExtension>
        </extensions>
      </trkpt>
      <trkpt lat="-22.02054952271282672882080078125" lon="166.46551522426307201385498046875">
        <ele>860.5999755859375</ele>
        <time>2016-08-12T21:27:42.000Z</time>
        <extensions>
          <ns3:TrackPointExtension>
            <ns3:atemp>15.0</ns3:atemp>
            <ns3:hr>137</ns3:hr>
          </ns3:TrackPointExtension>
        </extensions>
      </trkpt>
      <trkpt lat="-22.020547091960906982421875" lon="166.465538442134857177734375">
        <ele>861</ele>
        <time>2016-08-12T21:27:43.000Z</time>
        <extensions>
          <ns3:TrackPointExtension>
            <ns3:atemp>15.0</ns3:atemp>
            <ns3:hr>137</ns3:hr>
          </ns3:TrackPointExtension>
        </extensions>
      </trkpt>
      <trkpt lat="-22.02054164372384548187255859375" lon="166.46556727588176727294921875">
        <ele>861</ele>
        <time>2016-08-12T21:27:44.000Z</time>
        <extensions>
          <ns3:TrackPointExtension>
            <ns3:atemp>15.0</ns3:atemp>
            <ns3:hr>137</ns3:hr>
          </ns3:TrackPointExtension>
        </extensions>
      </trkpt>
      <trkpt lat="-22.020540051162242889404296875" lon="166.46559149958193302154541015625">
        <ele>860.79998779296875</ele>
        <time>2016-08-12T21:27:45.000Z</time>
        <extensions>
          <ns3:TrackPointExtension>
            <ns3:atemp>15.0</ns3:atemp>
            <ns3:hr>137</ns3:hr>
          </ns3:TrackPointExtension>
        </extensions>
      </trkpt>
      <trkpt lat="-22.0205398835241794586181640625" lon="166.4656167291104793548583984375">
        <ele>860.79998779296875</ele>
        <time>2016-08-12T21:27:46.000Z</time>
        <extensions>
          <ns3:TrackPointExtension>
            <ns3:atemp>15.0</ns3:atemp>
            <ns3:hr>137</ns3:hr>
          </ns3:TrackPointExtension>
        </extensions>
      </trkpt>
      <trkpt lat="-22.02053862623870372772216796875" lon="166.46564095281064510345458984375">
        <ele>861.4000244140625</ele>
        <time>2016-08-12T21:27:47.000Z</time>
        <extensions>
          <ns3:TrackPointExtension>
            <ns3:atemp>15.0</ns3:atemp>
            <ns3:hr>138</ns3:hr>
          </ns3:TrackPointExtension>
        </extensions>
      </trkpt>
      <trkpt lat="-22.02053527347743511199951171875" lon="166.46566039882600307464599609375">
        <ele>861.20001220703125</ele>
        <time>2016-08-12T21:27:48.000Z</time>
        <extensions>
          <ns3:TrackPointExtension>
            <ns3:atemp>15.0</ns3:atemp>
            <ns3:hr>138</ns3:hr>
          </ns3:TrackPointExtension>
        </extensions>
      </trkpt>
      <trkpt lat="-22.02053208835422992706298828125" lon="166.46568453870713710784912109375">
        <ele>860.5999755859375</ele>
        <time>2016-08-12T21:27:49.000Z</time>
        <extensions>
          <ns3:TrackPointExtension>
            <ns3:atemp>15.0</ns3:atemp>
            <ns3:hr>138</ns3:hr>
          </ns3:TrackPointExtension>
        </extensions>
      </trkpt>
      <trkpt lat="-22.02052605338394641876220703125" lon="166.46570784039795398712158203125">
        <ele>860.4000244140625</ele>
        <time>2016-08-12T21:27:50.000Z</time>
        <extensions>
          <ns3:TrackPointExtension>
            <ns3:atemp>15.0</ns3:atemp>
            <ns3:hr>138</ns3:hr>
          </ns3:TrackPointExtension>
        </extensions>
      </trkpt>
      <trkpt lat="-22.02051716856658458709716796875" lon="166.46573466248810291290283203125">
        <ele>860.79998779296875</ele>
        <time>2016-08-12T21:27:51.000Z</time>
        <extensions>
          <ns3:TrackPointExtension>
            <ns3:atemp>15.0</ns3:atemp>
            <ns3:hr>137</ns3:hr>
          </ns3:TrackPointExtension>
        </extensions>
      </trkpt>
      <trkpt lat="-22.02050861902534961700439453125" lon="166.4657615683972835540771484375">
        <ele>861</ele>
        <time>2016-08-12T21:27:52.000Z</time>
        <extensions>
          <ns3:TrackPointExtension>
            <ns3:atemp>15.0</ns3:atemp>
            <ns3:hr>138</ns3:hr>
          </ns3:TrackPointExtension>
        </extensions>
      </trkpt>
      <trkpt lat="-22.020501829683780670166015625" lon="166.465784870088100433349609375">
        <ele>860.4000244140625</ele>
        <time>2016-08-12T21:27:53.000Z</time>
        <extensions>
          <ns3:TrackPointExtension>
            <ns3:atemp>15.0</ns3:atemp>
            <ns3:hr>138</ns3:hr>
          </ns3:TrackPointExtension>
        </extensions>
      </trkpt>
      <trkpt lat="-22.02049721963703632354736328125" lon="166.46581211127340793609619140625">
        <ele>859.79998779296875</ele>
        <time>2016-08-12T21:27:54.000Z</time>
        <extensions>
          <ns3:TrackPointExtension>
            <ns3:atemp>15.0</ns3:atemp>
            <ns3:hr>138</ns3:hr>
          </ns3:TrackPointExtension>
        </extensions>
      </trkpt>
      <trkpt lat="-22.020491100847721099853515625" lon="166.4658356644213199615478515625">
        <ele>859.79998779296875</ele>
        <time>2016-08-12T21:27:55.000Z</time>
        <extensions>
          <ns3:TrackPointExtension>
            <ns3:atemp>15.0</ns3:atemp>
            <ns3:hr>138</ns3:hr>
          </ns3:TrackPointExtension>
        </extensions>
      </trkpt>
      <trkpt lat="-22.02048498205840587615966796875" lon="166.4658587984740734100341796875">
        <ele>860.4000244140625</ele>
        <time>2016-08-12T21:27:56.000Z</time>
        <extensions>
          <ns3:TrackPointExtension>
            <ns3:atemp>15.0</ns3:atemp>
            <ns3:hr>138</ns3:hr>
          </ns3:TrackPointExtension>
        </extensions>
      </trkpt>
      <trkpt lat="-22.02047693543136119842529296875" lon="166.46588268689811229705810546875">
        <ele>860.4000244140625</ele>
        <time>2016-08-12T21:27:57.000Z</time>
        <extensions>
          <ns3:TrackPointExtension>
            <ns3:atemp>15.0</ns3:atemp>
            <ns3:hr>138</ns3:hr>
          </ns3:TrackPointExtension>
        </extensions>
      </trkpt>
      <trkpt lat="-22.02046930789947509765625" lon="166.4659077487885951995849609375">
        <ele>860.20001220703125</ele>
        <time>2016-08-12T21:27:58.000Z</time>
        <extensions>
          <ns3:TrackPointExtension>
            <ns3:atemp>15.0</ns3:atemp>
            <ns3:hr>138</ns3:hr>
          </ns3:TrackPointExtension>
        </extensions>
      </trkpt>
      <trkpt lat="-22.02046134509146213531494140625" lon="166.46593364886939525604248046875">
        <ele>860.4000244140625</ele>
        <time>2016-08-12T21:27:59.000Z</time>
        <extensions>
          <ns3:TrackPointExtension>
            <ns3:atemp>15.0</ns3:atemp>
            <ns3:hr>138</ns3:hr>
          </ns3:TrackPointExtension>
        </extensions>
      </trkpt>
      <trkpt lat="-22.02045396901667118072509765625" lon="166.465959213674068450927734375">
        <ele>860.5999755859375</ele>
        <time>2016-08-12T21:28:00.000Z</time>
        <extensions>
          <ns3:TrackPointExtension>
            <ns3:atemp>15.0</ns3:atemp>
            <ns3:hr>138</ns3:hr>
          </ns3:TrackPointExtension>
        </extensions>
      </trkpt>
      <trkpt lat="-22.0204507000744342803955078125" lon="166.465984694659709930419921875">
        <ele>860.4000244140625</ele>
        <time>2016-08-12T21:28:01.000Z</time>
        <extensions>
          <ns3:TrackPointExtension>
            <ns3:atemp>15.0</ns3:atemp>
            <ns3:hr>138</ns3:hr>
          </ns3:TrackPointExtension>
        </extensions>
      </trkpt>
      <trkpt lat="-22.020448185503482818603515625" lon="166.4660113491117954254150390625">
        <ele>860</ele>
        <time>2016-08-12T21:28:02.000Z</time>
        <extensions>
          <ns3:TrackPointExtension>
            <ns3:atemp>15.0</ns3:atemp>
            <ns3:hr>137</ns3:hr>
          </ns3:TrackPointExtension>
        </extensions>
      </trkpt>
      <trkpt lat="-22.0204446651041507720947265625" lon="166.46603456698358058929443359375">
        <ele>860.4000244140625</ele>
        <time>2016-08-12T21:28:03.000Z</time>
        <extensions>
          <ns3:TrackPointExtension>
            <ns3:atemp>15.0</ns3:atemp>
            <ns3:hr>138</ns3:hr>
          </ns3:TrackPointExtension>
        </extensions>
      </trkpt>
      <trkpt lat="-22.02044315636157989501953125" lon="166.46606080234050750732421875">
        <ele>861</ele>
        <time>2016-08-12T21:28:04.000Z</time>
        <extensions>
          <ns3:TrackPointExtension>
            <ns3:atemp>15.0</ns3:atemp>
            <ns3:hr>138</ns3:hr>
          </ns3:TrackPointExtension>
        </extensions>
      </trkpt>
      <trkpt lat="-22.0204396359622478485107421875" lon="166.46608418785035610198974609375">
        <ele>860.5999755859375</ele>
        <time>2016-08-12T21:28:05.000Z</time>
        <extensions>
          <ns3:TrackPointExtension>
            <ns3:atemp>15.0</ns3:atemp>
            <ns3:hr>138</ns3:hr>
          </ns3:TrackPointExtension>
        </extensions>
      </trkpt>
      <trkpt lat="-22.02043913304805755615234375" lon="166.46610681898891925811767578125">
        <ele>860.4000244140625</ele>
        <time>2016-08-12T21:28:06.000Z</time>
        <extensions>
          <ns3:TrackPointExtension>
            <ns3:atemp>15.0</ns3:atemp>
            <ns3:hr>138</ns3:hr>
          </ns3:TrackPointExtension>
        </extensions>
      </trkpt>
      <trkpt lat="-22.02043284662067890167236328125" lon="166.466128863394260406494140625">
        <ele>860.5999755859375</ele>
        <time>2016-08-12T21:28:07.000Z</time>
        <extensions>
          <ns3:TrackPointExtension>
            <ns3:atemp>15.0</ns3:atemp>
            <ns3:hr>138</ns3:hr>
          </ns3:TrackPointExtension>
        </extensions>
      </trkpt>
      <trkpt lat="-22.02042379416525363922119140625" lon="166.46614923141896724700927734375">
        <ele>861</ele>
        <time>2016-08-12T21:28:08.000Z</time>
        <extensions>
          <ns3:TrackPointExtension>
            <ns3:atemp>15.0</ns3:atemp>
            <ns3:hr>138</ns3:hr>
          </ns3:TrackPointExtension>
        </extensions>
      </trkpt>
      <trkpt lat="-22.0204097963869571685791015625" lon="166.46616817452013492584228515625">
        <ele>860.79998779296875</ele>
        <time>2016-08-12T21:28:09.000Z</time>
        <extensions>
          <ns3:TrackPointExtension>
            <ns3:atemp>15.0</ns3:atemp>
            <ns3:hr>138</ns3:hr>
          </ns3:TrackPointExtension>
        </extensions>
      </trkpt>
      <trkpt lat="-22.02039755880832672119140625" lon="166.46619030274450778961181640625">
        <ele>860.5999755859375</ele>
        <time>2016-08-12T21:28:10.000Z</time>
        <extensions>
          <ns3:TrackPointExtension>
            <ns3:atemp>15.0</ns3:atemp>
            <ns3:hr>138</ns3:hr>
          </ns3:TrackPointExtension>
        </extensions>
      </trkpt>
      <trkpt lat="-22.02038347721099853515625" lon="166.46620958112180233001708984375">
        <ele>860.5999755859375</ele>
        <time>2016-08-12T21:28:11.000Z</time>
        <extensions>
          <ns3:TrackPointExtension>
            <ns3:atemp>15.0</ns3:atemp>
            <ns3:hr>139</ns3:hr>
          </ns3:TrackPointExtension>
        </extensions>
      </trkpt>
      <trkpt lat="-22.0203688926994800567626953125" lon="166.46622835658490657806396484375">
        <ele>861</ele>
        <time>2016-08-12T21:28:12.000Z</time>
        <extensions>
          <ns3:TrackPointExtension>
            <ns3:atemp>15.0</ns3:atemp>
            <ns3:hr>138</ns3:hr>
          </ns3:TrackPointExtension>
        </extensions>
      </trkpt>
      <trkpt lat="-22.02035623602569103240966796875" lon="166.4662463776767253875732421875">
        <ele>860.5999755859375</ele>
        <time>2016-08-12T21:28:13.000Z</time>
        <extensions>
          <ns3:TrackPointExtension>
            <ns3:atemp>15.0</ns3:atemp>
            <ns3:hr>138</ns3:hr>
          </ns3:TrackPointExtension>
        </extensions>
      </trkpt>
      <trkpt lat="-22.020340897142887115478515625" lon="166.46626356057822704315185546875">
        <ele>860.4000244140625</ele>
        <time>2016-08-12T21:28:14.000Z</time>
        <extensions>
          <ns3:TrackPointExtension>
            <ns3:atemp>15.0</ns3:atemp>
            <ns3:hr>138</ns3:hr>
          </ns3:TrackPointExtension>
        </extensions>
      </trkpt>
      <trkpt lat="-22.02033075504004955291748046875" lon="166.466287113726139068603515625">
        <ele>860.20001220703125</ele>
        <time>2016-08-12T21:28:15.000Z</time>
        <extensions>
          <ns3:TrackPointExtension>
            <ns3:atemp>15.0</ns3:atemp>
            <ns3:hr>138</ns3:hr>
          </ns3:TrackPointExtension>
        </extensions>
      </trkpt>
      <trkpt lat="-22.02032505534589290618896484375" lon="166.46631351672112941741943359375">
        <ele>860.5999755859375</ele>
        <time>2016-08-12T21:28:16.000Z</time>
        <extensions>
          <ns3:TrackPointExtension>
            <ns3:atemp>15.0</ns3:atemp>
            <ns3:hr>139</ns3:hr>
          </ns3:TrackPointExtension>
        </extensions>
      </trkpt>
      <trkpt lat="-22.02032254077494144439697265625" lon="166.46634419448673725128173828125">
        <ele>860.5999755859375</ele>
        <time>2016-08-12T21:28:17.000Z</time>
        <extensions>
          <ns3:TrackPointExtension>
            <ns3:atemp>15.0</ns3:atemp>
            <ns3:hr>138</ns3:hr>
          </ns3:TrackPointExtension>
        </extensions>
      </trkpt>
      <trkpt lat="-22.02032639645040035247802734375" lon="166.46637051366269588470458984375">
        <ele>860.79998779296875</ele>
        <time>2016-08-12T21:28:18.000Z</time>
        <extensions>
          <ns3:TrackPointExtension>
            <ns3:atemp>15.0</ns3:atemp>
            <ns3:hr>139</ns3:hr>
          </ns3:TrackPointExtension>
        </extensions>
      </trkpt>
      <trkpt lat="-22.02033276669681072235107421875" lon="166.46639406681060791015625">
        <ele>861</ele>
        <time>2016-08-12T21:28:19.000Z</time>
        <extensions>
          <ns3:TrackPointExtension>
            <ns3:atemp>15.0</ns3:atemp>
            <ns3:hr>138</ns3:hr>
          </ns3:TrackPointExtension>
        </extensions>
      </trkpt>
      <trkpt lat="-22.0203472673892974853515625" lon="166.4664177037775516510009765625">
        <ele>860.79998779296875</ele>
        <time>2016-08-12T21:28:20.000Z</time>
        <extensions>
          <ns3:TrackPointExtension>
            <ns3:atemp>15.0</ns3:atemp>
            <ns3:hr>138</ns3:hr>
          </ns3:TrackPointExtension>
        </extensions>
      </trkpt>
      <trkpt lat="-22.02036009170114994049072265625" lon="166.46643907763063907623291015625">
        <ele>861</ele>
        <time>2016-08-12T21:28:21.000Z</time>
        <extensions>
          <ns3:TrackPointExtension>
            <ns3:atemp>15.0</ns3:atemp>
            <ns3:hr>139</ns3:hr>
          </ns3:TrackPointExtension>
        </extensions>
      </trkpt>
      <trkpt lat="-22.020375095307826995849609375" lon="166.46646338514983654022216796875">
        <ele>861.79998779296875</ele>
        <time>2016-08-12T21:28:22.000Z</time>
        <extensions>
          <ns3:TrackPointExtension>
            <ns3:atemp>15.0</ns3:atemp>
            <ns3:hr>138</ns3:hr>
          </ns3:TrackPointExtension>
        </extensions>
      </trkpt>
      <trkpt lat="-22.02038414776325225830078125" lon="166.46649423055350780487060546875">
        <ele>861.5999755859375</ele>
        <time>2016-08-12T21:28:23.000Z</time>
        <extensions>
          <ns3:TrackPointExtension>
            <ns3:atemp>15.0</ns3:atemp>
            <ns3:hr>139</ns3:hr>
          </ns3:TrackPointExtension>
        </extensions>
      </trkpt>
      <trkpt lat="-22.020395211875438690185546875" lon="166.46652021445333957672119140625">
        <ele>860.79998779296875</ele>
        <time>2016-08-12T21:28:24.000Z</time>
        <extensions>
          <ns3:TrackPointExtension>
            <ns3:atemp>15.0</ns3:atemp>
            <ns3:hr>138</ns3:hr>
          </ns3:TrackPointExtension>
        </extensions>
      </trkpt>
      <trkpt lat="-22.02040401287376880645751953125" lon="166.466550640761852264404296875">
        <ele>860.5999755859375</ele>
        <time>2016-08-12T21:28:25.000Z</time>
        <extensions>
          <ns3:TrackPointExtension>
            <ns3:atemp>15.0</ns3:atemp>
            <ns3:hr>138</ns3:hr>
          </ns3:TrackPointExtension>
        </extensions>
      </trkpt>
      <trkpt lat="-22.02040686272084712982177734375" lon="166.46657980978488922119140625">
        <ele>861.20001220703125</ele>
        <time>2016-08-12T21:28:26.000Z</time>
        <extensions>
          <ns3:TrackPointExtension>
            <ns3:atemp>15.0</ns3:atemp>
            <ns3:hr>138</ns3:hr>
          </ns3:TrackPointExtension>
        </extensions>
      </trkpt>
      <trkpt lat="-22.0204144902527332305908203125" lon="166.4666027761995792388916015625">
        <ele>861.4000244140625</ele>
        <time>2016-08-12T21:28:27.000Z</time>
        <extensions>
          <ns3:TrackPointExtension>
            <ns3:atemp>15.0</ns3:atemp>
            <ns3:hr>138</ns3:hr>
          </ns3:TrackPointExtension>
        </extensions>
      </trkpt>
      <trkpt lat="-22.020419351756572723388671875" lon="166.466629095375537872314453125">
        <ele>861</ele>
        <time>2016-08-12T21:28:28.000Z</time>
        <extensions>
          <ns3:TrackPointExtension>
            <ns3:atemp>15.0</ns3:atemp>
            <ns3:hr>138</ns3:hr>
          </ns3:TrackPointExtension>
        </extensions>
      </trkpt>
      <trkpt lat="-22.02042295597493648529052734375" lon="166.46665466018021106719970703125">
        <ele>861</ele>
        <time>2016-08-12T21:28:29.000Z</time>
        <extensions>
          <ns3:TrackPointExtension>
            <ns3:atemp>15.0</ns3:atemp>
            <ns3:hr>138</ns3:hr>
          </ns3:TrackPointExtension>
        </extensions>
      </trkpt>
      <trkpt lat="-22.0204268954694271087646484375" lon="166.46668039262294769287109375">
        <ele>862</ele>
        <time>2016-08-12T21:28:30.000Z</time>
        <extensions>
          <ns3:TrackPointExtension>
            <ns3:atemp>15.0</ns3:atemp>
            <ns3:hr>138</ns3:hr>
          </ns3:TrackPointExtension>
        </extensions>
      </trkpt>
      <trkpt lat="-22.0204319246113300323486328125" lon="166.46670377813279628753662109375">
        <ele>861.5999755859375</ele>
        <time>2016-08-12T21:28:31.000Z</time>
        <extensions>
          <ns3:TrackPointExtension>
            <ns3:atemp>15.0</ns3:atemp>
            <ns3:hr>138</ns3:hr>
          </ns3:TrackPointExtension>
        </extensions>
      </trkpt>
      <trkpt lat="-22.02043117024004459381103515625" lon="166.4667306840419769287109375">
        <ele>861.20001220703125</ele>
        <time>2016-08-12T21:28:32.000Z</time>
        <extensions>
          <ns3:TrackPointExtension>
            <ns3:atemp>15.0</ns3:atemp>
            <ns3:hr>138</ns3:hr>
          </ns3:TrackPointExtension>
        </extensions>
      </trkpt>
      <trkpt lat="-22.020424716174602508544921875" lon="166.46675390191376209259033203125">
        <ele>861.4000244140625</ele>
        <time>2016-08-12T21:28:33.000Z</time>
        <extensions>
          <ns3:TrackPointExtension>
            <ns3:atemp>15.0</ns3:atemp>
            <ns3:hr>139</ns3:hr>
          </ns3:TrackPointExtension>
        </extensions>
      </trkpt>
      <trkpt lat="-22.02042479999363422393798828125" lon="166.46677603013813495635986328125">
        <ele>862.20001220703125</ele>
        <time>2016-08-12T21:28:34.000Z</time>
        <extensions>
          <ns3:TrackPointExtension>
            <ns3:atemp>15.0</ns3:atemp>
            <ns3:hr>139</ns3:hr>
          </ns3:TrackPointExtension>
        </extensions>
      </trkpt>
      <trkpt lat="-22.02042597346007823944091796875" lon="166.466799080371856689453125">
        <ele>862</ele>
        <time>2016-08-12T21:28:35.000Z</time>
        <extensions>
          <ns3:TrackPointExtension>
            <ns3:atemp>15.0</ns3:atemp>
            <ns3:hr>139</ns3:hr>
          </ns3:TrackPointExtension>
        </extensions>
      </trkpt>
      <trkpt lat="-22.02042639255523681640625" lon="166.46682129241526126861572265625">
        <ele>861.79998779296875</ele>
        <time>2016-08-12T21:28:36.000Z</time>
        <extensions>
          <ns3:TrackPointExtension>
            <ns3:atemp>15.0</ns3:atemp>
            <ns3:hr>139</ns3:hr>
          </ns3:TrackPointExtension>
        </extensions>
      </trkpt>
      <trkpt lat="-22.0204312540590763092041015625" lon="166.46684057079255580902099609375">
        <ele>862</ele>
        <time>2016-08-12T21:28:37.000Z</time>
        <extensions>
          <ns3:TrackPointExtension>
            <ns3:atemp>15.0</ns3:atemp>
            <ns3:hr>139</ns3:hr>
          </ns3:TrackPointExtension>
        </extensions>
      </trkpt>
      <trkpt lat="-22.02043955214321613311767578125" lon="166.46686051972210407257080078125">
        <ele>862.5999755859375</ele>
        <time>2016-08-12T21:28:38.000Z</time>
        <extensions>
          <ns3:TrackPointExtension>
            <ns3:atemp>15.0</ns3:atemp>
            <ns3:hr>139</ns3:hr>
          </ns3:TrackPointExtension>
        </extensions>
      </trkpt>
      <trkpt lat="-22.0204453356564044952392578125" lon="166.4668834023177623748779296875">
        <ele>862.4000244140625</ele>
        <time>2016-08-12T21:28:39.000Z</time>
        <extensions>
          <ns3:TrackPointExtension>
            <ns3:atemp>15.0</ns3:atemp>
            <ns3:hr>138</ns3:hr>
          </ns3:TrackPointExtension>
        </extensions>
      </trkpt>
      <trkpt lat="-22.02045514248311519622802734375" lon="166.46689890883862972259521484375">
        <ele>862.20001220703125</ele>
        <time>2016-08-12T21:28:40.000Z</time>
        <extensions>
          <ns3:TrackPointExtension>
            <ns3:atemp>15.0</ns3:atemp>
            <ns3:hr>139</ns3:hr>
          </ns3:TrackPointExtension>
        </extensions>
      </trkpt>
      <trkpt lat="-22.02046888880431652069091796875" lon="166.4669122360646724700927734375">
        <ele>862.5999755859375</ele>
        <time>2016-08-12T21:28:41.000Z</time>
        <extensions>
          <ns3:TrackPointExtension>
            <ns3:atemp>15.0</ns3:atemp>
            <ns3:hr>138</ns3:hr>
          </ns3:TrackPointExtension>
        </extensions>
      </trkpt>
      <trkpt lat="-22.02048598788678646087646484375" lon="166.4669269882142543792724609375">
        <ele>862.5999755859375</ele>
        <time>2016-08-12T21:28:42.000Z</time>
        <extensions>
          <ns3:TrackPointExtension>
            <ns3:atemp>15.0</ns3:atemp>
            <ns3:hr>138</ns3:hr>
          </ns3:TrackPointExtension>
        </extensions>
      </trkpt>
      <trkpt lat="-22.0205016620457172393798828125" lon="166.46694333292543888092041015625">
        <ele>862.4000244140625</ele>
        <time>2016-08-12T21:28:43.000Z</time>
        <extensions>
          <ns3:TrackPointExtension>
            <ns3:atemp>15.0</ns3:atemp>
            <ns3:hr>138</ns3:hr>
          </ns3:TrackPointExtension>
        </extensions>
      </trkpt>
      <trkpt lat="-22.0205133967101573944091796875" lon="166.466948948800563812255859375">
        <ele>862.4000244140625</ele>
        <time>2016-08-12T21:28:44.000Z</time>
        <extensions>
          <ns3:TrackPointExtension>
            <ns3:atemp>15.0</ns3:atemp>
            <ns3:hr>138</ns3:hr>
          </ns3:TrackPointExtension>
        </extensions>
      </trkpt>
      <trkpt lat="-22.0205358602106571197509765625" lon="166.46695666015148162841796875">
        <ele>863.4000244140625</ele>
        <time>2016-08-12T21:28:45.000Z</time>
        <extensions>
          <ns3:TrackPointExtension>
            <ns3:atemp>15.0</ns3:atemp>
            <ns3:hr>139</ns3:hr>
          </ns3:TrackPointExtension>
        </extensions>
      </trkpt>
      <trkpt lat="-22.02055555768311023712158203125" lon="166.4669631980359554290771484375">
        <ele>863.5999755859375</ele>
        <time>2016-08-12T21:28:46.000Z</time>
        <extensions>
          <ns3:TrackPointExtension>
            <ns3:atemp>15.0</ns3:atemp>
            <ns3:hr>138</ns3:hr>
          </ns3:TrackPointExtension>
        </extensions>
      </trkpt>
      <trkpt lat="-22.02056008391082286834716796875" lon="166.46695540286600589752197265625">
        <ele>863.5999755859375</ele>
        <time>2016-08-12T21:28:47.000Z</time>
        <extensions>
          <ns3:TrackPointExtension>
            <ns3:atemp>15.0</ns3:atemp>
            <ns3:hr>139</ns3:hr>
          </ns3:TrackPointExtension>
        </extensions>
      </trkpt>
      <trkpt lat="-22.02058405615389347076416015625" lon="166.46696068346500396728515625">
        <ele>863.5999755859375</ele>
        <time>2016-08-12T21:28:48.000Z</time>
        <extensions>
          <ns3:TrackPointExtension>
            <ns3:atemp>15.0</ns3:atemp>
            <ns3:hr>139</ns3:hr>
          </ns3:TrackPointExtension>
        </extensions>
      </trkpt>
      <trkpt lat="-22.0206116326153278350830078125" lon="166.4669628627598285675048828125">
        <ele>863.79998779296875</ele>
        <time>2016-08-12T21:28:49.000Z</time>
        <extensions>
          <ns3:TrackPointExtension>
            <ns3:atemp>15.0</ns3:atemp>
            <ns3:hr>138</ns3:hr>
          </ns3:TrackPointExtension>
        </extensions>
      </trkpt>
      <trkpt lat="-22.02063082717359066009521484375" lon="166.46695372648537158966064453125">
        <ele>863.79998779296875</ele>
        <time>2016-08-12T21:28:50.000Z</time>
        <extensions>
          <ns3:TrackPointExtension>
            <ns3:atemp>15.0</ns3:atemp>
            <ns3:hr>139</ns3:hr>
          </ns3:TrackPointExtension>
        </extensions>
      </trkpt>
      <trkpt lat="-22.02064993791282176971435546875" lon="166.46694819442927837371826171875">
        <ele>863.5999755859375</ele>
        <time>2016-08-12T21:28:51.000Z</time>
        <extensions>
          <ns3:TrackPointExtension>
            <ns3:atemp>15.0</ns3:atemp>
            <ns3:hr>138</ns3:hr>
          </ns3:TrackPointExtension>
        </extensions>
      </trkpt>
      <trkpt lat="-22.0206662826240062713623046875" lon="166.46693713031709194183349609375">
        <ele>864.20001220703125</ele>
        <time>2016-08-12T21:28:52.000Z</time>
        <extensions>
          <ns3:TrackPointExtension>
            <ns3:atemp>15.0</ns3:atemp>
            <ns3:hr>139</ns3:hr>
          </ns3:TrackPointExtension>
        </extensions>
      </trkpt>
      <trkpt lat="-22.020680867135524749755859375" lon="166.46693059243261814117431640625">
        <ele>863.79998779296875</ele>
        <time>2016-08-12T21:28:53.000Z</time>
        <extensions>
          <ns3:TrackPointExtension>
            <ns3:atemp>15.0</ns3:atemp>
            <ns3:hr>139</ns3:hr>
          </ns3:TrackPointExtension>
        </extensions>
      </trkpt>
      <trkpt lat="-22.02069654129445552825927734375" lon="166.4669256471097469329833984375">
        <ele>863.79998779296875</ele>
        <time>2016-08-12T21:28:54.000Z</time>
        <extensions>
          <ns3:TrackPointExtension>
            <ns3:atemp>15.0</ns3:atemp>
            <ns3:hr>139</ns3:hr>
          </ns3:TrackPointExtension>
        </extensions>
      </trkpt>
      <trkpt lat="-22.0207145623862743377685546875" lon="166.46692422218620777130126953125">
        <ele>864.79998779296875</ele>
        <time>2016-08-12T21:28:55.000Z</time>
        <extensions>
          <ns3:TrackPointExtension>
            <ns3:atemp>15.0</ns3:atemp>
            <ns3:hr>139</ns3:hr>
          </ns3:TrackPointExtension>
        </extensions>
      </trkpt>
      <trkpt lat="-22.02073727734386920928955078125" lon="166.46692388691008090972900390625">
        <ele>864.79998779296875</ele>
        <time>2016-08-12T21:28:56.000Z</time>
        <extensions>
          <ns3:TrackPointExtension>
            <ns3:atemp>15.0</ns3:atemp>
            <ns3:hr>138</ns3:hr>
          </ns3:TrackPointExtension>
        </extensions>
      </trkpt>
      <trkpt lat="-22.02076074667274951934814453125" lon="166.4669370464980602264404296875">
        <ele>864.5999755859375</ele>
        <time>2016-08-12T21:28:57.000Z</time>
        <extensions>
          <ns3:TrackPointExtension>
            <ns3:atemp>15.0</ns3:atemp>
            <ns3:hr>138</ns3:hr>
          </ns3:TrackPointExtension>
        </extensions>
      </trkpt>
      <trkpt lat="-22.02078790403902530670166015625" lon="166.466934196650981903076171875">
        <ele>864.5999755859375</ele>
        <time>2016-08-12T21:28:58.000Z</time>
        <extensions>
          <ns3:TrackPointExtension>
            <ns3:atemp>15.0</ns3:atemp>
            <ns3:hr>138</ns3:hr>
          </ns3:TrackPointExtension>
        </extensions>
      </trkpt>
      <trkpt lat="-22.02081087045371532440185546875" lon="166.466934867203235626220703125">
        <ele>864.79998779296875</ele>
        <time>2016-08-12T21:28:59.000Z</time>
        <extensions>
          <ns3:TrackPointExtension>
            <ns3:atemp>15.0</ns3:atemp>
            <ns3:hr>137</ns3:hr>
          </ns3:TrackPointExtension>
        </extensions>
      </trkpt>
      <trkpt lat="-22.02083207666873931884765625" lon="166.46694735623896121978759765625">
        <ele>864.79998779296875</ele>
        <time>2016-08-12T21:29:00.000Z</time>
        <extensions>
          <ns3:TrackPointExtension>
            <ns3:atemp>15.0</ns3:atemp>
            <ns3:hr>137</ns3:hr>
          </ns3:TrackPointExtension>
        </extensions>
      </trkpt>
      <trkpt lat="-22.02085613273084163665771484375" lon="166.46695707924664020538330078125">
        <ele>865</ele>
        <time>2016-08-12T21:29:01.000Z</time>
        <extensions>
          <ns3:TrackPointExtension>
            <ns3:atemp>15.0</ns3:atemp>
            <ns3:hr>136</ns3:hr>
          </ns3:TrackPointExtension>
        </extensions>
      </trkpt>
      <trkpt lat="-22.02087960205972194671630859375" lon="166.46696931682527065277099609375">
        <ele>865.4000244140625</ele>
        <time>2016-08-12T21:29:02.000Z</time>
        <extensions>
          <ns3:TrackPointExtension>
            <ns3:atemp>15.0</ns3:atemp>
            <ns3:hr>135</ns3:hr>
          </ns3:TrackPointExtension>
        </extensions>
      </trkpt>
      <trkpt lat="-22.02090256847441196441650390625" lon="166.46698490716516971588134765625">
        <ele>865.4000244140625</ele>
        <time>2016-08-12T21:29:03.000Z</time>
        <extensions>
          <ns3:TrackPointExtension>
            <ns3:atemp>15.0</ns3:atemp>
            <ns3:hr>135</ns3:hr>
          </ns3:TrackPointExtension>
        </extensions>
      </trkpt>
      <trkpt lat="-22.02092788182199001312255859375" lon="166.466997899115085601806640625">
        <ele>865.4000244140625</ele>
        <time>2016-08-12T21:29:04.000Z</time>
        <extensions>
          <ns3:TrackPointExtension>
            <ns3:atemp>15.0</ns3:atemp>
            <ns3:hr>134</ns3:hr>
          </ns3:TrackPointExtension>
        </extensions>
      </trkpt>
      <trkpt lat="-22.02094481326639652252197265625" lon="166.4670149981975555419921875">
        <ele>865.79998779296875</ele>
        <time>2016-08-12T21:29:05.000Z</time>
        <extensions>
          <ns3:TrackPointExtension>
            <ns3:atemp>15.0</ns3:atemp>
            <ns3:hr>134</ns3:hr>
          </ns3:TrackPointExtension>
        </extensions>
      </trkpt>
      <trkpt lat="-22.02095688320696353912353515625" lon="166.46703385747969150543212890625">
        <ele>865.5999755859375</ele>
        <time>2016-08-12T21:29:06.000Z</time>
        <extensions>
          <ns3:TrackPointExtension>
            <ns3:atemp>15.0</ns3:atemp>
            <ns3:hr>134</ns3:hr>
          </ns3:TrackPointExtension>
        </extensions>
      </trkpt>
      <trkpt lat="-22.02096618711948394775390625" lon="166.46704995073378086090087890625">
        <ele>865.4000244140625</ele>
        <time>2016-08-12T21:29:07.000Z</time>
        <extensions>
          <ns3:TrackPointExtension>
            <ns3:atemp>15.0</ns3:atemp>
            <ns3:hr>135</ns3:hr>
          </ns3:TrackPointExtension>
        </extensions>
      </trkpt>
      <trkpt lat="-22.0209749042987823486328125" lon="166.467068977653980255126953125">
        <ele>866</ele>
        <time>2016-08-12T21:29:08.000Z</time>
        <extensions>
          <ns3:TrackPointExtension>
            <ns3:atemp>15.0</ns3:atemp>
            <ns3:hr>136</ns3:hr>
          </ns3:TrackPointExtension>
        </extensions>
      </trkpt>
      <trkpt lat="-22.02098705805838108062744140625" lon="166.46709118969738483428955078125">
        <ele>865.5999755859375</ele>
        <time>2016-08-12T21:29:09.000Z</time>
        <extensions>
          <ns3:TrackPointExtension>
            <ns3:atemp>15.0</ns3:atemp>
            <ns3:hr>136</ns3:hr>
          </ns3:TrackPointExtension>
        </extensions>
      </trkpt>
      <trkpt lat="-22.0210018940269947052001953125" lon="166.46710812114179134368896484375">
        <ele>865.4000244140625</ele>
        <time>2016-08-12T21:29:10.000Z</time>
        <extensions>
          <ns3:TrackPointExtension>
            <ns3:atemp>15.0</ns3:atemp>
            <ns3:hr>137</ns3:hr>
          </ns3:TrackPointExtension>
        </extensions>
      </trkpt>
      <trkpt lat="-22.02102427370846271514892578125" lon="166.4671261422336101531982421875">
        <ele>865.4000244140625</ele>
        <time>2016-08-12T21:29:11.000Z</time>
        <extensions>
          <ns3:TrackPointExtension>
            <ns3:atemp>15.0</ns3:atemp>
            <ns3:hr>138</ns3:hr>
          </ns3:TrackPointExtension>
        </extensions>
      </trkpt>
      <trkpt lat="-22.02104757539927959442138671875" lon="166.467138044536113739013671875">
        <ele>865.5999755859375</ele>
        <time>2016-08-12T21:29:12.000Z</time>
        <extensions>
          <ns3:TrackPointExtension>
            <ns3:atemp>15.0</ns3:atemp>
            <ns3:hr>138</ns3:hr>
          </ns3:TrackPointExtension>
        </extensions>
      </trkpt>
      <trkpt lat="-22.0210733078420162200927734375" lon="166.46714634262025356292724609375">
        <ele>865.5999755859375</ele>
        <time>2016-08-12T21:29:13.000Z</time>
        <extensions>
          <ns3:TrackPointExtension>
            <ns3:atemp>15.0</ns3:atemp>
            <ns3:hr>139</ns3:hr>
          </ns3:TrackPointExtension>
        </extensions>
      </trkpt>
      <trkpt lat="-22.02109769918024539947509765625" lon="166.46715673618018627166748046875">
        <ele>865.4000244140625</ele>
        <time>2016-08-12T21:29:14.000Z</time>
        <extensions>
          <ns3:TrackPointExtension>
            <ns3:atemp>15.0</ns3:atemp>
            <ns3:hr>139</ns3:hr>
          </ns3:TrackPointExtension>
        </extensions>
      </trkpt>
      <trkpt lat="-22.0211222581565380096435546875" lon="166.46716645918786525726318359375">
        <ele>865.5999755859375</ele>
        <time>2016-08-12T21:29:15.000Z</time>
        <extensions>
          <ns3:TrackPointExtension>
            <ns3:atemp>15.0</ns3:atemp>
            <ns3:hr>140</ns3:hr>
          </ns3:TrackPointExtension>
        </extensions>
      </trkpt>
      <trkpt lat="-22.02113927341997623443603515625" lon="166.467171572148799896240234375">
        <ele>865.4000244140625</ele>
        <time>2016-08-12T21:29:16.000Z</time>
        <extensions>
          <ns3:TrackPointExtension>
            <ns3:atemp>15.0</ns3:atemp>
            <ns3:hr>140</ns3:hr>
          </ns3:TrackPointExtension>
        </extensions>
      </trkpt>
      <trkpt lat="-22.02115938998758792877197265625" lon="166.46717601455748081207275390625">
        <ele>865.5999755859375</ele>
        <time>2016-08-12T21:29:17.000Z</time>
        <extensions>
          <ns3:TrackPointExtension>
            <ns3:atemp>15.0</ns3:atemp>
            <ns3:hr>140</ns3:hr>
          </ns3:TrackPointExtension>
        </extensions>
      </trkpt>
      <trkpt lat="-22.02117866836488246917724609375" lon="166.4671727456152439117431640625">
        <ele>866.4000244140625</ele>
        <time>2016-08-12T21:29:18.000Z</time>
        <extensions>
          <ns3:TrackPointExtension>
            <ns3:atemp>15.0</ns3:atemp>
            <ns3:hr>141</ns3:hr>
          </ns3:TrackPointExtension>
        </extensions>
      </trkpt>
      <trkpt lat="-22.02119157649576663970947265625" lon="166.46716897375881671905517578125">
        <ele>866.4000244140625</ele>
        <time>2016-08-12T21:29:19.000Z</time>
        <extensions>
          <ns3:TrackPointExtension>
            <ns3:atemp>15.0</ns3:atemp>
            <ns3:hr>141</ns3:hr>
          </ns3:TrackPointExtension>
        </extensions>
      </trkpt>
      <trkpt lat="-22.02120532281696796417236328125" lon="166.4671683870255947113037109375">
        <ele>866.20001220703125</ele>
        <time>2016-08-12T21:29:20.000Z</time>
        <extensions>
          <ns3:TrackPointExtension>
            <ns3:atemp>15.0</ns3:atemp>
            <ns3:hr>141</ns3:hr>
          </ns3:TrackPointExtension>
        </extensions>
      </trkpt>
      <trkpt lat="-22.02121890150010585784912109375" lon="166.46717182360589504241943359375">
        <ele>866.4000244140625</ele>
        <time>2016-08-12T21:29:21.000Z</time>
        <extensions>
          <ns3:TrackPointExtension>
            <ns3:atemp>15.0</ns3:atemp>
            <ns3:hr>142</ns3:hr>
          </ns3:TrackPointExtension>
        </extensions>
      </trkpt>
      <trkpt lat="-22.02123449184000492095947265625" lon="166.46717182360589504241943359375">
        <ele>866.4000244140625</ele>
        <time>2016-08-12T21:29:22.000Z</time>
        <extensions>
          <ns3:TrackPointExtension>
            <ns3:atemp>15.0</ns3:atemp>
            <ns3:hr>142</ns3:hr>
          </ns3:TrackPointExtension>
        </extensions>
      </trkpt>
      <trkpt lat="-22.02125427313148975372314453125" lon="166.46717651747167110443115234375">
        <ele>866.20001220703125</ele>
        <time>2016-08-12T21:29:23.000Z</time>
        <extensions>
          <ns3:TrackPointExtension>
            <ns3:atemp>15.0</ns3:atemp>
            <ns3:hr>142</ns3:hr>
          </ns3:TrackPointExtension>
        </extensions>
      </trkpt>
      <trkpt lat="-22.02127053402364253997802734375" lon="166.46718774922192096710205078125">
        <ele>866.79998779296875</ele>
        <time>2016-08-12T21:29:24.000Z</time>
        <extensions>
          <ns3:TrackPointExtension>
            <ns3:atemp>15.0</ns3:atemp>
            <ns3:hr>142</ns3:hr>
          </ns3:TrackPointExtension>
        </extensions>
      </trkpt>
      <trkpt lat="-22.02129500918090343475341796875" lon="166.467191018164157867431640625">
        <ele>867</ele>
        <time>2016-08-12T21:29:25.000Z</time>
        <extensions>
          <ns3:TrackPointExtension>
            <ns3:atemp>15.0</ns3:atemp>
            <ns3:hr>142</ns3:hr>
          </ns3:TrackPointExtension>
        </extensions>
      </trkpt>
      <trkpt lat="-22.0213187299668788909912109375" lon="166.46719009615480899810791015625">
        <ele>866.4000244140625</ele>
        <time>2016-08-12T21:29:26.000Z</time>
        <extensions>
          <ns3:TrackPointExtension>
            <ns3:atemp>15.0</ns3:atemp>
            <ns3:hr>142</ns3:hr>
          </ns3:TrackPointExtension>
        </extensions>
      </trkpt>
      <trkpt lat="-22.0213450491428375244140625" lon="166.46718892268836498260498046875">
        <ele>865.79998779296875</ele>
        <time>2016-08-12T21:29:27.000Z</time>
        <extensions>
          <ns3:TrackPointExtension>
            <ns3:atemp>15.0</ns3:atemp>
            <ns3:hr>142</ns3:hr>
          </ns3:TrackPointExtension>
        </extensions>
      </trkpt>
      <trkpt lat="-22.0213718712329864501953125" lon="166.467182971537113189697265625">
        <ele>866.20001220703125</ele>
        <time>2016-08-12T21:29:28.000Z</time>
        <extensions>
          <ns3:TrackPointExtension>
            <ns3:atemp>15.0</ns3:atemp>
            <ns3:hr>142</ns3:hr>
          </ns3:TrackPointExtension>
        </extensions>
      </trkpt>
      <trkpt lat="-22.02139374800026416778564453125" lon="166.46717752330005168914794921875">
        <ele>866.5999755859375</ele>
        <time>2016-08-12T21:29:29.000Z</time>
        <extensions>
          <ns3:TrackPointExtension>
            <ns3:atemp>15.0</ns3:atemp>
            <ns3:hr>142</ns3:hr>
          </ns3:TrackPointExtension>
        </extensions>
      </trkpt>
      <trkpt lat="-22.02141805551946163177490234375" lon="166.46717048250138759613037109375">
        <ele>866.4000244140625</ele>
        <time>2016-08-12T21:29:30.000Z</time>
        <extensions>
          <ns3:TrackPointExtension>
            <ns3:atemp>15.0</ns3:atemp>
            <ns3:hr>142</ns3:hr>
          </ns3:TrackPointExtension>
        </extensions>
      </trkpt>
      <trkpt lat="-22.0214434526860713958740234375" lon="166.46717098541557788848876953125">
        <ele>866.20001220703125</ele>
        <time>2016-08-12T21:29:31.000Z</time>
        <extensions>
          <ns3:TrackPointExtension>
            <ns3:atemp>15.0</ns3:atemp>
            <ns3:hr>142</ns3:hr>
          </ns3:TrackPointExtension>
        </extensions>
      </trkpt>
      <trkpt lat="-22.02146315015852451324462890625" lon="166.46717869676649570465087890625">
        <ele>867</ele>
        <time>2016-08-12T21:29:32.000Z</time>
        <extensions>
          <ns3:TrackPointExtension>
            <ns3:atemp>15.0</ns3:atemp>
            <ns3:hr>142</ns3:hr>
          </ns3:TrackPointExtension>
        </extensions>
      </trkpt>
      <trkpt lat="-22.02148678712546825408935546875" lon="166.46718624047935009002685546875">
        <ele>866.79998779296875</ele>
        <time>2016-08-12T21:29:33.000Z</time>
        <extensions>
          <ns3:TrackPointExtension>
            <ns3:atemp>15.0</ns3:atemp>
            <ns3:hr>141</ns3:hr>
          </ns3:TrackPointExtension>
        </extensions>
      </trkpt>
      <trkpt lat="-22.0215034671127796173095703125" lon="166.46720317192375659942626953125">
        <ele>866.4000244140625</ele>
        <time>2016-08-12T21:29:34.000Z</time>
        <extensions>
          <ns3:TrackPointExtension>
            <ns3:atemp>15.0</ns3:atemp>
            <ns3:hr>141</ns3:hr>
          </ns3:TrackPointExtension>
        </extensions>
      </trkpt>
      <trkpt lat="-22.0215152017772197723388671875" lon="166.467220522463321685791015625">
        <ele>866.5999755859375</ele>
        <time>2016-08-12T21:29:35.000Z</time>
        <extensions>
          <ns3:TrackPointExtension>
            <ns3:atemp>15.0</ns3:atemp>
            <ns3:hr>141</ns3:hr>
          </ns3:TrackPointExtension>
        </extensions>
      </trkpt>
      <trkpt lat="-22.021527104079723358154296875" lon="166.4672429859638214111328125">
        <ele>867</ele>
        <time>2016-08-12T21:29:36.000Z</time>
        <extensions>
          <ns3:TrackPointExtension>
            <ns3:atemp>15.0</ns3:atemp>
            <ns3:hr>141</ns3:hr>
          </ns3:TrackPointExtension>
        </extensions>
      </trkpt>
      <trkpt lat="-22.02153523452579975128173828125" lon="166.46726218052208423614501953125">
        <ele>866.79998779296875</ele>
        <time>2016-08-12T21:29:37.000Z</time>
        <extensions>
          <ns3:TrackPointExtension>
            <ns3:atemp>15.0</ns3:atemp>
            <ns3:hr>141</ns3:hr>
          </ns3:TrackPointExtension>
        </extensions>
      </trkpt>
      <trkpt lat="-22.02155292034149169921875" lon="166.46728388965129852294921875">
        <ele>866.4000244140625</ele>
        <time>2016-08-12T21:29:38.000Z</time>
        <extensions>
          <ns3:TrackPointExtension>
            <ns3:atemp>15.0</ns3:atemp>
            <ns3:hr>141</ns3:hr>
          </ns3:TrackPointExtension>
        </extensions>
      </trkpt>
      <trkpt lat="-22.0215681754052639007568359375" lon="166.4673024974763393402099609375">
        <ele>866.5999755859375</ele>
        <time>2016-08-12T21:29:39.000Z</time>
        <extensions>
          <ns3:TrackPointExtension>
            <ns3:atemp>15.0</ns3:atemp>
            <ns3:hr>141</ns3:hr>
          </ns3:TrackPointExtension>
        </extensions>
      </trkpt>
      <trkpt lat="-22.02158200554549694061279296875" lon="166.467322446405887603759765625">
        <ele>866.79998779296875</ele>
        <time>2016-08-12T21:29:40.000Z</time>
        <extensions>
          <ns3:TrackPointExtension>
            <ns3:atemp>15.0</ns3:atemp>
            <ns3:hr>141</ns3:hr>
          </ns3:TrackPointExtension>
        </extensions>
      </trkpt>
      <trkpt lat="-22.02160262502729892730712890625" lon="166.46733795292675495147705078125">
        <ele>866.79998779296875</ele>
        <time>2016-08-12T21:29:41.000Z</time>
        <extensions>
          <ns3:TrackPointExtension>
            <ns3:atemp>15.0</ns3:atemp>
            <ns3:hr>141</ns3:hr>
          </ns3:TrackPointExtension>
        </extensions>
      </trkpt>
      <trkpt lat="-22.02161662280559539794921875" lon="166.46735220216214656829833984375">
        <ele>866.4000244140625</ele>
        <time>2016-08-12T21:29:42.000Z</time>
        <extensions>
          <ns3:TrackPointExtension>
            <ns3:atemp>15.0</ns3:atemp>
            <ns3:hr>141</ns3:hr>
          </ns3:TrackPointExtension>
        </extensions>
      </trkpt>
      <trkpt lat="-22.02162123285233974456787109375" lon="166.46737064234912395477294921875">
        <ele>866.5999755859375</ele>
        <time>2016-08-12T21:29:43.000Z</time>
        <extensions>
          <ns3:TrackPointExtension>
            <ns3:atemp>15.0</ns3:atemp>
            <ns3:hr>140</ns3:hr>
          </ns3:TrackPointExtension>
        </extensions>
      </trkpt>
      <trkpt lat="-22.021625339984893798828125" lon="166.46739327348768711090087890625">
        <ele>866.5999755859375</ele>
        <time>2016-08-12T21:29:44.000Z</time>
        <extensions>
          <ns3:TrackPointExtension>
            <ns3:atemp>15.0</ns3:atemp>
            <ns3:hr>140</ns3:hr>
          </ns3:TrackPointExtension>
        </extensions>
      </trkpt>
      <trkpt lat="-22.02163179405033588409423828125" lon="166.46741506643593311309814453125">
        <ele>866.4000244140625</ele>
        <time>2016-08-12T21:29:45.000Z</time>
        <extensions>
          <ns3:TrackPointExtension>
            <ns3:atemp>15.0</ns3:atemp>
            <ns3:hr>140</ns3:hr>
          </ns3:TrackPointExtension>
        </extensions>
      </trkpt>
      <trkpt lat="-22.02163380570709705352783203125" lon="166.4674342609941959381103515625">
        <ele>866.4000244140625</ele>
        <time>2016-08-12T21:29:46.000Z</time>
        <extensions>
          <ns3:TrackPointExtension>
            <ns3:atemp>15.0</ns3:atemp>
            <ns3:hr>140</ns3:hr>
          </ns3:TrackPointExtension>
        </extensions>
      </trkpt>
      <trkpt lat="-22.02163673937320709228515625" lon="166.46744926460087299346923828125">
        <ele>866.4000244140625</ele>
        <time>2016-08-12T21:29:47.000Z</time>
        <extensions>
          <ns3:TrackPointExtension>
            <ns3:atemp>15.0</ns3:atemp>
            <ns3:hr>140</ns3:hr>
          </ns3:TrackPointExtension>
        </extensions>
      </trkpt>
      <trkpt lat="-22.021644115447998046875" lon="166.46746116690337657928466796875">
        <ele>866.4000244140625</ele>
        <time>2016-08-12T21:29:48.000Z</time>
        <extensions>
          <ns3:TrackPointExtension>
            <ns3:atemp>15.0</ns3:atemp>
            <ns3:hr>139</ns3:hr>
          </ns3:TrackPointExtension>
        </extensions>
      </trkpt>
      <trkpt lat="-22.0216439478099346160888671875" lon="166.46747860126197338104248046875">
        <ele>866.4000244140625</ele>
        <time>2016-08-12T21:29:49.000Z</time>
        <extensions>
          <ns3:TrackPointExtension>
            <ns3:atemp>15.0</ns3:atemp>
            <ns3:hr>139</ns3:hr>
          </ns3:TrackPointExtension>
        </extensions>
      </trkpt>
      <trkpt lat="-22.02164688147604465484619140625" lon="166.46749737672507762908935546875">
        <ele>866.5999755859375</ele>
        <time>2016-08-12T21:29:50.000Z</time>
        <extensions>
          <ns3:TrackPointExtension>
            <ns3:atemp>15.0</ns3:atemp>
            <ns3:hr>139</ns3:hr>
          </ns3:TrackPointExtension>
        </extensions>
      </trkpt>
      <trkpt lat="-22.02164788730442523956298828125" lon="166.46752604283392429351806640625">
        <ele>868</ele>
        <time>2016-08-12T21:29:51.000Z</time>
        <extensions>
          <ns3:TrackPointExtension>
            <ns3:atemp>15.0</ns3:atemp>
            <ns3:hr>140</ns3:hr>
          </ns3:TrackPointExtension>
        </extensions>
      </trkpt>
      <trkpt lat="-22.0216519944369792938232421875" lon="166.4675516076385974884033203125">
        <ele>868.20001220703125</ele>
        <time>2016-08-12T21:29:52.000Z</time>
        <extensions>
          <ns3:TrackPointExtension>
            <ns3:atemp>15.0</ns3:atemp>
            <ns3:hr>139</ns3:hr>
          </ns3:TrackPointExtension>
        </extensions>
      </trkpt>
      <trkpt lat="-22.02165526337921619415283203125" lon="166.4675767533481121063232421875">
        <ele>868</ele>
        <time>2016-08-12T21:29:53.000Z</time>
        <extensions>
          <ns3:TrackPointExtension>
            <ns3:atemp>15.0</ns3:atemp>
            <ns3:hr>140</ns3:hr>
          </ns3:TrackPointExtension>
        </extensions>
      </trkpt>
      <trkpt lat="-22.02166247181594371795654296875" lon="166.467603407800197601318359375">
        <ele>868</ele>
        <time>2016-08-12T21:29:54.000Z</time>
        <extensions>
          <ns3:TrackPointExtension>
            <ns3:atemp>15.0</ns3:atemp>
            <ns3:hr>140</ns3:hr>
          </ns3:TrackPointExtension>
        </extensions>
      </trkpt>
      <trkpt lat="-22.021671943366527557373046875" lon="166.46762612275779247283935546875">
        <ele>868.5999755859375</ele>
        <time>2016-08-12T21:29:55.000Z</time>
        <extensions>
          <ns3:TrackPointExtension>
            <ns3:atemp>15.0</ns3:atemp>
            <ns3:hr>140</ns3:hr>
          </ns3:TrackPointExtension>
        </extensions>
      </trkpt>
      <trkpt lat="-22.0216831751167774200439453125" lon="166.46764808334410190582275390625">
        <ele>868.4000244140625</ele>
        <time>2016-08-12T21:29:56.000Z</time>
        <extensions>
          <ns3:TrackPointExtension>
            <ns3:atemp>15.0</ns3:atemp>
            <ns3:hr>140</ns3:hr>
          </ns3:TrackPointExtension>
        </extensions>
      </trkpt>
      <trkpt lat="-22.0216932334005832672119140625" lon="166.467669121921062469482421875">
        <ele>868</ele>
        <time>2016-08-12T21:29:57.000Z</time>
        <extensions>
          <ns3:TrackPointExtension>
            <ns3:atemp>15.0</ns3:atemp>
            <ns3:hr>140</ns3:hr>
          </ns3:TrackPointExtension>
        </extensions>
      </trkpt>
      <trkpt lat="-22.0216982625424861907958984375" lon="166.4676904119551181793212890625">
        <ele>868.4000244140625</ele>
        <time>2016-08-12T21:29:58.000Z</time>
        <extensions>
          <ns3:TrackPointExtension>
            <ns3:atemp>15.0</ns3:atemp>
            <ns3:hr>140</ns3:hr>
          </ns3:TrackPointExtension>
        </extensions>
      </trkpt>
      <trkpt lat="-22.02170957811176776885986328125" lon="166.46770960651338100433349609375">
        <ele>868.79998779296875</ele>
        <time>2016-08-12T21:29:59.000Z</time>
        <extensions>
          <ns3:TrackPointExtension>
            <ns3:atemp>15.0</ns3:atemp>
            <ns3:hr>140</ns3:hr>
          </ns3:TrackPointExtension>
        </extensions>
      </trkpt>
      <trkpt lat="-22.02172231860458850860595703125" lon="166.46772637031972408294677734375">
        <ele>868.79998779296875</ele>
        <time>2016-08-12T21:30:00.000Z</time>
        <extensions>
          <ns3:TrackPointExtension>
            <ns3:atemp>15.0</ns3:atemp>
            <ns3:hr>140</ns3:hr>
          </ns3:TrackPointExtension>
        </extensions>
      </trkpt>
      <trkpt lat="-22.021740339696407318115234375" lon="166.46773760206997394561767578125">
        <ele>868.79998779296875</ele>
        <time>2016-08-12T21:30:01.000Z</time>
        <extensions>
          <ns3:TrackPointExtension>
            <ns3:atemp>15.0</ns3:atemp>
            <ns3:hr>140</ns3:hr>
          </ns3:TrackPointExtension>
        </extensions>
      </trkpt>
      <trkpt lat="-22.02175802551209926605224609375" lon="166.4677453972399234771728515625">
        <ele>869.79998779296875</ele>
        <time>2016-08-12T21:30:02.000Z</time>
        <extensions>
          <ns3:TrackPointExtension>
            <ns3:atemp>15.0</ns3:atemp>
            <ns3:hr>140</ns3:hr>
          </ns3:TrackPointExtension>
        </extensions>
      </trkpt>
      <trkpt lat="-22.02177596278488636016845703125" lon="166.46775051020085811614990234375">
        <ele>869.4000244140625</ele>
        <time>2016-08-12T21:30:03.000Z</time>
        <extensions>
          <ns3:TrackPointExtension>
            <ns3:atemp>15.0</ns3:atemp>
            <ns3:hr>140</ns3:hr>
          </ns3:TrackPointExtension>
        </extensions>
      </trkpt>
      <trkpt lat="-22.0218011923134326934814453125" lon="166.46775403060019016265869140625">
        <ele>869</ele>
        <time>2016-08-12T21:30:04.000Z</time>
        <extensions>
          <ns3:TrackPointExtension>
            <ns3:atemp>15.0</ns3:atemp>
            <ns3:hr>140</ns3:hr>
          </ns3:TrackPointExtension>
        </extensions>
      </trkpt>
      <trkpt lat="-22.02182072214782238006591796875" lon="166.467754952609539031982421875">
        <ele>869.20001220703125</ele>
        <time>2016-08-12T21:30:05.000Z</time>
        <extensions>
          <ns3:TrackPointExtension>
            <ns3:atemp>15.0</ns3:atemp>
            <ns3:hr>140</ns3:hr>
          </ns3:TrackPointExtension>
        </extensions>
      </trkpt>
      <trkpt lat="-22.02183748595416545867919921875" lon="166.46775805391371250152587890625">
        <ele>869.79998779296875</ele>
        <time>2016-08-12T21:30:06.000Z</time>
        <extensions>
          <ns3:TrackPointExtension>
            <ns3:atemp>15.0</ns3:atemp>
            <ns3:hr>140</ns3:hr>
          </ns3:TrackPointExtension>
        </extensions>
      </trkpt>
      <trkpt lat="-22.02185223810374736785888671875" lon="166.4677588082849979400634765625">
        <ele>869.4000244140625</ele>
        <time>2016-08-12T21:30:07.000Z</time>
        <extensions>
          <ns3:TrackPointExtension>
            <ns3:atemp>15.0</ns3:atemp>
            <ns3:hr>140</ns3:hr>
          </ns3:TrackPointExtension>
        </extensions>
      </trkpt>
      <trkpt lat="-22.0218675769865512847900390625" lon="166.4677557907998561859130859375">
        <ele>869.4000244140625</ele>
        <time>2016-08-12T21:30:08.000Z</time>
        <extensions>
          <ns3:TrackPointExtension>
            <ns3:atemp>15.0</ns3:atemp>
            <ns3:hr>140</ns3:hr>
          </ns3:TrackPointExtension>
        </extensions>
      </trkpt>
      <trkpt lat="-22.02188543044030666351318359375" lon="166.467759646475315093994140625">
        <ele>870</ele>
        <time>2016-08-12T21:30:09.000Z</time>
        <extensions>
          <ns3:TrackPointExtension>
            <ns3:atemp>15.0</ns3:atemp>
            <ns3:hr>140</ns3:hr>
          </ns3:TrackPointExtension>
        </extensions>
      </trkpt>
      <trkpt lat="-22.02190630137920379638671875" lon="166.46776258014142513275146484375">
        <ele>870.5999755859375</ele>
        <time>2016-08-12T21:30:10.000Z</time>
        <extensions>
          <ns3:TrackPointExtension>
            <ns3:atemp>15.0</ns3:atemp>
            <ns3:hr>141</ns3:hr>
          </ns3:TrackPointExtension>
        </extensions>
      </trkpt>
      <trkpt lat="-22.02192767523229122161865234375" lon="166.4677671901881694793701171875">
        <ele>869.79998779296875</ele>
        <time>2016-08-12T21:30:11.000Z</time>
        <extensions>
          <ns3:TrackPointExtension>
            <ns3:atemp>15.0</ns3:atemp>
            <ns3:hr>141</ns3:hr>
          </ns3:TrackPointExtension>
        </extensions>
      </trkpt>
      <trkpt lat="-22.02194494195282459259033203125" lon="166.4677769131958484649658203125">
        <ele>869.20001220703125</ele>
        <time>2016-08-12T21:30:12.000Z</time>
        <extensions>
          <ns3:TrackPointExtension>
            <ns3:atemp>15.0</ns3:atemp>
            <ns3:hr>141</ns3:hr>
          </ns3:TrackPointExtension>
        </extensions>
      </trkpt>
      <trkpt lat="-22.02196271158754825592041015625" lon="166.46778638474643230438232421875">
        <ele>869.20001220703125</ele>
        <time>2016-08-12T21:30:13.000Z</time>
        <extensions>
          <ns3:TrackPointExtension>
            <ns3:atemp>15.0</ns3:atemp>
            <ns3:hr>140</ns3:hr>
          </ns3:TrackPointExtension>
        </extensions>
      </trkpt>
      <trkpt lat="-22.0219815708696842193603515625" lon="166.46779828704893589019775390625">
        <ele>869.4000244140625</ele>
        <time>2016-08-12T21:30:14.000Z</time>
        <extensions>
          <ns3:TrackPointExtension>
            <ns3:atemp>15.0</ns3:atemp>
            <ns3:hr>140</ns3:hr>
          </ns3:TrackPointExtension>
        </extensions>
      </trkpt>
      <trkpt lat="-22.0220050401985645294189453125" lon="166.46780868060886859893798828125">
        <ele>869.4000244140625</ele>
        <time>2016-08-12T21:30:15.000Z</time>
        <extensions>
          <ns3:TrackPointExtension>
            <ns3:atemp>15.0</ns3:atemp>
            <ns3:hr>141</ns3:hr>
          </ns3:TrackPointExtension>
        </extensions>
      </trkpt>
      <trkpt lat="-22.022027671337127685546875" lon="166.46781505085527896881103515625">
        <ele>869</ele>
        <time>2016-08-12T21:30:16.000Z</time>
        <extensions>
          <ns3:TrackPointExtension>
            <ns3:atemp>15.0</ns3:atemp>
            <ns3:hr>140</ns3:hr>
          </ns3:TrackPointExtension>
        </extensions>
      </trkpt>
      <trkpt lat="-22.02205189503729343414306640625" lon="166.46782276220619678497314453125">
        <ele>869.5999755859375</ele>
        <time>2016-08-12T21:30:17.000Z</time>
        <extensions>
          <ns3:TrackPointExtension>
            <ns3:atemp>15.0</ns3:atemp>
            <ns3:hr>141</ns3:hr>
          </ns3:TrackPointExtension>
        </extensions>
      </trkpt>
      <trkpt lat="-22.02207469381392002105712890625" lon="166.4678305573761463165283203125">
        <ele>869.5999755859375</ele>
        <time>2016-08-12T21:30:18.000Z</time>
        <extensions>
          <ns3:TrackPointExtension>
            <ns3:atemp>15.0</ns3:atemp>
            <ns3:hr>141</ns3:hr>
          </ns3:TrackPointExtension>
        </extensions>
      </trkpt>
      <trkpt lat="-22.02209011651575565338134765625" lon="166.46783617325127124786376953125">
        <ele>869.20001220703125</ele>
        <time>2016-08-12T21:30:19.000Z</time>
        <extensions>
          <ns3:TrackPointExtension>
            <ns3:atemp>15.0</ns3:atemp>
            <ns3:hr>141</ns3:hr>
          </ns3:TrackPointExtension>
        </extensions>
      </trkpt>
      <trkpt lat="-22.0221148431301116943359375" lon="166.4678399451076984405517578125">
        <ele>869.20001220703125</ele>
        <time>2016-08-12T21:30:20.000Z</time>
        <extensions>
          <ns3:TrackPointExtension>
            <ns3:atemp>15.0</ns3:atemp>
            <ns3:hr>141</ns3:hr>
          </ns3:TrackPointExtension>
        </extensions>
      </trkpt>
      <trkpt lat="-22.0221336185932159423828125" lon="166.467838771641254425048828125">
        <ele>869.79998779296875</ele>
        <time>2016-08-12T21:30:21.000Z</time>
        <extensions>
          <ns3:TrackPointExtension>
            <ns3:atemp>15.0</ns3:atemp>
            <ns3:hr>141</ns3:hr>
          </ns3:TrackPointExtension>
        </extensions>
      </trkpt>
      <trkpt lat="-22.02216102741658687591552734375" lon="166.4678174816071987152099609375">
        <ele>870</ele>
        <time>2016-08-12T21:30:22.000Z</time>
        <extensions>
          <ns3:TrackPointExtension>
            <ns3:atemp>15.0</ns3:atemp>
            <ns3:hr>141</ns3:hr>
          </ns3:TrackPointExtension>
        </extensions>
      </trkpt>
      <trkpt lat="-22.0221840776503086090087890625" lon="166.46781496703624725341796875">
        <ele>870.79998779296875</ele>
        <time>2016-08-12T21:30:23.000Z</time>
        <extensions>
          <ns3:TrackPointExtension>
            <ns3:atemp>15.0</ns3:atemp>
            <ns3:hr>141</ns3:hr>
          </ns3:TrackPointExtension>
        </extensions>
      </trkpt>
      <trkpt lat="-22.0222038589417934417724609375" lon="166.4678171463310718536376953125">
        <ele>871.20001220703125</ele>
        <time>2016-08-12T21:30:24.000Z</time>
        <extensions>
          <ns3:TrackPointExtension>
            <ns3:atemp>15.0</ns3:atemp>
            <ns3:hr>141</ns3:hr>
          </ns3:TrackPointExtension>
        </extensions>
      </trkpt>
      <trkpt lat="-22.0222219638526439666748046875" lon="166.4678277075290679931640625">
        <ele>871</ele>
        <time>2016-08-12T21:30:25.000Z</time>
        <extensions>
          <ns3:TrackPointExtension>
            <ns3:atemp>15.0</ns3:atemp>
            <ns3:hr>141</ns3:hr>
          </ns3:TrackPointExtension>
        </extensions>
      </trkpt>
      <trkpt lat="-22.02223948203027248382568359375" lon="166.46784287877380847930908203125">
        <ele>870.20001220703125</ele>
        <time>2016-08-12T21:30:26.000Z</time>
        <extensions>
          <ns3:TrackPointExtension>
            <ns3:atemp>15.0</ns3:atemp>
            <ns3:hr>141</ns3:hr>
          </ns3:TrackPointExtension>
        </extensions>
      </trkpt>
      <trkpt lat="-22.022262029349803924560546875" lon="166.4678597263991832733154296875">
        <ele>869.79998779296875</ele>
        <time>2016-08-12T21:30:27.000Z</time>
        <extensions>
          <ns3:TrackPointExtension>
            <ns3:atemp>15.0</ns3:atemp>
            <ns3:hr>141</ns3:hr>
          </ns3:TrackPointExtension>
        </extensions>
      </trkpt>
      <trkpt lat="-22.0222843252122402191162109375" lon="166.4678813517093658447265625">
        <ele>870.5999755859375</ele>
        <time>2016-08-12T21:30:28.000Z</time>
        <extensions>
          <ns3:TrackPointExtension>
            <ns3:atemp>15.0</ns3:atemp>
            <ns3:hr>142</ns3:hr>
          </ns3:TrackPointExtension>
        </extensions>
      </trkpt>
      <trkpt lat="-22.02230972237884998321533203125" lon="166.467899791896343231201171875">
        <ele>870.20001220703125</ele>
        <time>2016-08-12T21:30:29.000Z</time>
        <extensions>
          <ns3:TrackPointExtension>
            <ns3:atemp>15.0</ns3:atemp>
            <ns3:hr>141</ns3:hr>
          </ns3:TrackPointExtension>
        </extensions>
      </trkpt>
      <trkpt lat="-22.0223299227654933929443359375" lon="166.467923931777477264404296875">
        <ele>869.5999755859375</ele>
        <time>2016-08-12T21:30:30.000Z</time>
        <extensions>
          <ns3:TrackPointExtension>
            <ns3:atemp>15.0</ns3:atemp>
            <ns3:hr>141</ns3:hr>
          </ns3:TrackPointExtension>
        </extensions>
      </trkpt>
      <trkpt lat="-22.02234643511474132537841796875" lon="166.4679510891437530517578125">
        <ele>870</ele>
        <time>2016-08-12T21:30:31.000Z</time>
        <extensions>
          <ns3:TrackPointExtension>
            <ns3:atemp>15.0</ns3:atemp>
            <ns3:hr>141</ns3:hr>
          </ns3:TrackPointExtension>
        </extensions>
      </trkpt>
      <trkpt lat="-22.02235917560756206512451171875" lon="166.4679713733494281768798828125">
        <ele>870.5999755859375</ele>
        <time>2016-08-12T21:30:32.000Z</time>
        <extensions>
          <ns3:TrackPointExtension>
            <ns3:atemp>15.0</ns3:atemp>
            <ns3:hr>141</ns3:hr>
          </ns3:TrackPointExtension>
        </extensions>
      </trkpt>
      <trkpt lat="-22.02237459830939769744873046875" lon="166.4679911546409130096435546875">
        <ele>870.4000244140625</ele>
        <time>2016-08-12T21:30:33.000Z</time>
        <extensions>
          <ns3:TrackPointExtension>
            <ns3:atemp>15.0</ns3:atemp>
            <ns3:hr>141</ns3:hr>
          </ns3:TrackPointExtension>
        </extensions>
      </trkpt>
      <trkpt lat="-22.02238373458385467529296875" lon="166.46801219321787357330322265625">
        <ele>870.20001220703125</ele>
        <time>2016-08-12T21:30:34.000Z</time>
        <extensions>
          <ns3:TrackPointExtension>
            <ns3:atemp>15.0</ns3:atemp>
            <ns3:hr>141</ns3:hr>
          </ns3:TrackPointExtension>
        </extensions>
      </trkpt>
      <trkpt lat="-22.02239454723894596099853515625" lon="166.4680302143096923828125">
        <ele>870.4000244140625</ele>
        <time>2016-08-12T21:30:35.000Z</time>
        <extensions>
          <ns3:TrackPointExtension>
            <ns3:atemp>15.0</ns3:atemp>
            <ns3:hr>141</ns3:hr>
          </ns3:TrackPointExtension>
        </extensions>
      </trkpt>
      <trkpt lat="-22.02240644954144954681396484375" lon="166.468054354190826416015625">
        <ele>870.4000244140625</ele>
        <time>2016-08-12T21:30:36.000Z</time>
        <extensions>
          <ns3:TrackPointExtension>
            <ns3:atemp>15.0</ns3:atemp>
            <ns3:hr>141</ns3:hr>
          </ns3:TrackPointExtension>
        </extensions>
      </trkpt>
      <trkpt lat="-22.02242556028068065643310546875" lon="166.4680709503591060638427734375">
        <ele>870.4000244140625</ele>
        <time>2016-08-12T21:30:37.000Z</time>
        <extensions>
          <ns3:TrackPointExtension>
            <ns3:atemp>15.0</ns3:atemp>
            <ns3:hr>140</ns3:hr>
          </ns3:TrackPointExtension>
        </extensions>
      </trkpt>
      <trkpt lat="-22.0224313437938690185546875" lon="166.46808930672705173492431640625">
        <ele>871.20001220703125</ele>
        <time>2016-08-12T21:30:38.000Z</time>
        <extensions>
          <ns3:TrackPointExtension>
            <ns3:atemp>15.0</ns3:atemp>
            <ns3:hr>141</ns3:hr>
          </ns3:TrackPointExtension>
        </extensions>
      </trkpt>
      <trkpt lat="-22.022447101771831512451171875" lon="166.46810791455209255218505859375">
        <ele>871.4000244140625</ele>
        <time>2016-08-12T21:30:39.000Z</time>
        <extensions>
          <ns3:TrackPointExtension>
            <ns3:atemp>15.0</ns3:atemp>
            <ns3:hr>140</ns3:hr>
          </ns3:TrackPointExtension>
        </extensions>
      </trkpt>
      <trkpt lat="-22.02245187945663928985595703125" lon="166.4681296236813068389892578125">
        <ele>871.4000244140625</ele>
        <time>2016-08-12T21:30:40.000Z</time>
        <extensions>
          <ns3:TrackPointExtension>
            <ns3:atemp>15.0</ns3:atemp>
            <ns3:hr>140</ns3:hr>
          </ns3:TrackPointExtension>
        </extensions>
      </trkpt>
      <trkpt lat="-22.02246151864528656005859375" lon="166.46814823150634765625">
        <ele>871.5999755859375</ele>
        <time>2016-08-12T21:30:41.000Z</time>
        <extensions>
          <ns3:TrackPointExtension>
            <ns3:atemp>15.0</ns3:atemp>
            <ns3:hr>141</ns3:hr>
          </ns3:TrackPointExtension>
        </extensions>
      </trkpt>
      <trkpt lat="-22.02247216366231441497802734375" lon="166.4681691862642765045166015625">
        <ele>872.20001220703125</ele>
        <time>2016-08-12T21:30:42.000Z</time>
        <extensions>
          <ns3:TrackPointExtension>
            <ns3:atemp>15.0</ns3:atemp>
            <ns3:hr>140</ns3:hr>
          </ns3:TrackPointExtension>
        </extensions>
      </trkpt>
      <trkpt lat="-22.02247752808034420013427734375" lon="166.46819056011736392974853515625">
        <ele>872.20001220703125</ele>
        <time>2016-08-12T21:30:43.000Z</time>
        <extensions>
          <ns3:TrackPointExtension>
            <ns3:atemp>15.0</ns3:atemp>
            <ns3:hr>141</ns3:hr>
          </ns3:TrackPointExtension>
        </extensions>
      </trkpt>
      <trkpt lat="-22.02249781228601932525634765625" lon="166.468204557895660400390625">
        <ele>872</ele>
        <time>2016-08-12T21:30:44.000Z</time>
        <extensions>
          <ns3:TrackPointExtension>
            <ns3:atemp>15.0</ns3:atemp>
            <ns3:hr>141</ns3:hr>
          </ns3:TrackPointExtension>
        </extensions>
      </trkpt>
      <trkpt lat="-22.0225143246352672576904296875" lon="166.46822425536811351776123046875">
        <ele>872.4000244140625</ele>
        <time>2016-08-12T21:30:45.000Z</time>
        <extensions>
          <ns3:TrackPointExtension>
            <ns3:atemp>15.0</ns3:atemp>
            <ns3:hr>141</ns3:hr>
          </ns3:TrackPointExtension>
        </extensions>
      </trkpt>
      <trkpt lat="-22.0225344412028789520263671875" lon="166.4682345651090145111083984375">
        <ele>872</ele>
        <time>2016-08-12T21:30:46.000Z</time>
        <extensions>
          <ns3:TrackPointExtension>
            <ns3:atemp>15.0</ns3:atemp>
            <ns3:hr>141</ns3:hr>
          </ns3:TrackPointExtension>
        </extensions>
      </trkpt>
      <trkpt lat="-22.0225495286285877227783203125" lon="166.468251831829547882080078125">
        <ele>871.79998779296875</ele>
        <time>2016-08-12T21:30:47.000Z</time>
        <extensions>
          <ns3:TrackPointExtension>
            <ns3:atemp>15.0</ns3:atemp>
            <ns3:hr>142</ns3:hr>
          </ns3:TrackPointExtension>
        </extensions>
      </trkpt>
      <trkpt lat="-22.02255095355212688446044921875" lon="166.4682724513113498687744140625">
        <ele>872.5999755859375</ele>
        <time>2016-08-12T21:30:48.000Z</time>
        <extensions>
          <ns3:TrackPointExtension>
            <ns3:atemp>15.0</ns3:atemp>
            <ns3:hr>142</ns3:hr>
          </ns3:TrackPointExtension>
        </extensions>
      </trkpt>
      <trkpt lat="-22.02256838791072368621826171875" lon="166.4682863652706146240234375">
        <ele>872.5999755859375</ele>
        <time>2016-08-12T21:30:49.000Z</time>
        <extensions>
          <ns3:TrackPointExtension>
            <ns3:atemp>15.0</ns3:atemp>
            <ns3:hr>142</ns3:hr>
          </ns3:TrackPointExtension>
        </extensions>
      </trkpt>
      <trkpt lat="-22.0225820504128932952880859375" lon="166.46830354817211627960205078125">
        <ele>872.20001220703125</ele>
        <time>2016-08-12T21:30:50.000Z</time>
        <extensions>
          <ns3:TrackPointExtension>
            <ns3:atemp>15.0</ns3:atemp>
            <ns3:hr>142</ns3:hr>
          </ns3:TrackPointExtension>
        </extensions>
      </trkpt>
      <trkpt lat="-22.0225931145250797271728515625" lon="166.46831695921719074249267578125">
        <ele>872.4000244140625</ele>
        <time>2016-08-12T21:30:51.000Z</time>
        <extensions>
          <ns3:TrackPointExtension>
            <ns3:atemp>15.0</ns3:atemp>
            <ns3:hr>142</ns3:hr>
          </ns3:TrackPointExtension>
        </extensions>
      </trkpt>
      <trkpt lat="-22.02260526828467845916748046875" lon="166.46833204664289951324462890625">
        <ele>873.20001220703125</ele>
        <time>2016-08-12T21:30:52.000Z</time>
        <extensions>
          <ns3:TrackPointExtension>
            <ns3:atemp>15.0</ns3:atemp>
            <ns3:hr>142</ns3:hr>
          </ns3:TrackPointExtension>
        </extensions>
      </trkpt>
      <trkpt lat="-22.02262504957616329193115234375" lon="166.4683465473353862762451171875">
        <ele>873.79998779296875</ele>
        <time>2016-08-12T21:30:53.000Z</time>
        <extensions>
          <ns3:TrackPointExtension>
            <ns3:atemp>15.0</ns3:atemp>
            <ns3:hr>143</ns3:hr>
          </ns3:TrackPointExtension>
        </extensions>
      </trkpt>
      <trkpt lat="-22.02263586223125457763671875" lon="166.46836088038980960845947265625">
        <ele>873.4000244140625</ele>
        <time>2016-08-12T21:30:54.000Z</time>
        <extensions>
          <ns3:TrackPointExtension>
            <ns3:atemp>15.0</ns3:atemp>
            <ns3:hr>143</ns3:hr>
          </ns3:TrackPointExtension>
        </extensions>
      </trkpt>
      <trkpt lat="-22.0226491056382656097412109375" lon="166.4683753810822963714599609375">
        <ele>873.79998779296875</ele>
        <time>2016-08-12T21:30:55.000Z</time>
        <extensions>
          <ns3:TrackPointExtension>
            <ns3:atemp>15.0</ns3:atemp>
            <ns3:hr>143</ns3:hr>
          </ns3:TrackPointExtension>
        </extensions>
      </trkpt>
      <trkpt lat="-22.022659666836261749267578125" lon="166.4683877862989902496337890625">
        <ele>873.5999755859375</ele>
        <time>2016-08-12T21:30:56.000Z</time>
        <extensions>
          <ns3:TrackPointExtension>
            <ns3:atemp>15.0</ns3:atemp>
            <ns3:hr>144</ns3:hr>
          </ns3:TrackPointExtension>
        </extensions>
      </trkpt>
      <trkpt lat="-22.0226765982806682586669921875" lon="166.4683991856873035430908203125">
        <ele>873.4000244140625</ele>
        <time>2016-08-12T21:30:57.000Z</time>
        <extensions>
          <ns3:TrackPointExtension>
            <ns3:atemp>15.0</ns3:atemp>
            <ns3:hr>144</ns3:hr>
          </ns3:TrackPointExtension>
        </extensions>
      </trkpt>
      <trkpt lat="-22.02269042842090129852294921875" lon="166.468417458236217498779296875">
        <ele>873.5999755859375</ele>
        <time>2016-08-12T21:30:58.000Z</time>
        <extensions>
          <ns3:TrackPointExtension>
            <ns3:atemp>15.0</ns3:atemp>
            <ns3:hr>144</ns3:hr>
          </ns3:TrackPointExtension>
        </extensions>
      </trkpt>
      <trkpt lat="-22.0226953737437725067138671875" lon="166.46843631751835346221923828125">
        <ele>874</ele>
        <time>2016-08-12T21:30:59.000Z</time>
        <extensions>
          <ns3:TrackPointExtension>
            <ns3:atemp>15.0</ns3:atemp>
            <ns3:hr>145</ns3:hr>
          </ns3:TrackPointExtension>
        </extensions>
      </trkpt>
      <trkpt lat="-22.02269830740988254547119140625" lon="166.4684602059423923492431640625">
        <ele>874</ele>
        <time>2016-08-12T21:31:00.000Z</time>
        <extensions>
          <ns3:TrackPointExtension>
            <ns3:atemp>15.0</ns3:atemp>
            <ns3:hr>144</ns3:hr>
          </ns3:TrackPointExtension>
        </extensions>
      </trkpt>
      <trkpt lat="-22.02271289192140102386474609375" lon="166.4684803225100040435791015625">
        <ele>874.4000244140625</ele>
        <time>2016-08-12T21:31:01.000Z</time>
        <extensions>
          <ns3:TrackPointExtension>
            <ns3:atemp>15.0</ns3:atemp>
            <ns3:hr>145</ns3:hr>
          </ns3:TrackPointExtension>
        </extensions>
      </trkpt>
      <trkpt lat="-22.0227238722145557403564453125" lon="166.46849817596375942230224609375">
        <ele>875</ele>
        <time>2016-08-12T21:31:02.000Z</time>
        <extensions>
          <ns3:TrackPointExtension>
            <ns3:atemp>15.0</ns3:atemp>
            <ns3:hr>145</ns3:hr>
          </ns3:TrackPointExtension>
        </extensions>
      </trkpt>
      <trkpt lat="-22.02273552305996417999267578125" lon="166.46851812489330768585205078125">
        <ele>874.5999755859375</ele>
        <time>2016-08-12T21:31:03.000Z</time>
        <extensions>
          <ns3:TrackPointExtension>
            <ns3:atemp>15.0</ns3:atemp>
            <ns3:hr>145</ns3:hr>
          </ns3:TrackPointExtension>
        </extensions>
      </trkpt>
      <trkpt lat="-22.022751867771148681640625" lon="166.468535475432872772216796875">
        <ele>874.4000244140625</ele>
        <time>2016-08-12T21:31:04.000Z</time>
        <extensions>
          <ns3:TrackPointExtension>
            <ns3:atemp>15.0</ns3:atemp>
            <ns3:hr>145</ns3:hr>
          </ns3:TrackPointExtension>
        </extensions>
      </trkpt>
      <trkpt lat="-22.0227624289691448211669921875" lon="166.46855391561985015869140625">
        <ele>874.5999755859375</ele>
        <time>2016-08-12T21:31:05.000Z</time>
        <extensions>
          <ns3:TrackPointExtension>
            <ns3:atemp>15.0</ns3:atemp>
            <ns3:hr>146</ns3:hr>
          </ns3:TrackPointExtension>
        </extensions>
      </trkpt>
      <trkpt lat="-22.02277139760553836822509765625" lon="166.468577049672603607177734375">
        <ele>874.4000244140625</ele>
        <time>2016-08-12T21:31:06.000Z</time>
        <extensions>
          <ns3:TrackPointExtension>
            <ns3:atemp>15.0</ns3:atemp>
            <ns3:hr>145</ns3:hr>
          </ns3:TrackPointExtension>
        </extensions>
      </trkpt>
      <trkpt lat="-22.0227865688502788543701171875" lon="166.4685963280498981475830078125">
        <ele>874.4000244140625</ele>
        <time>2016-08-12T21:31:07.000Z</time>
        <extensions>
          <ns3:TrackPointExtension>
            <ns3:atemp>15.0</ns3:atemp>
            <ns3:hr>145</ns3:hr>
          </ns3:TrackPointExtension>
        </extensions>
      </trkpt>
      <trkpt lat="-22.02280341647565364837646484375" lon="166.46860781125724315643310546875">
        <ele>874.5999755859375</ele>
        <time>2016-08-12T21:31:08.000Z</time>
        <extensions>
          <ns3:TrackPointExtension>
            <ns3:atemp>15.0</ns3:atemp>
            <ns3:hr>146</ns3:hr>
          </ns3:TrackPointExtension>
        </extensions>
      </trkpt>
      <trkpt lat="-22.022814564406871795654296875" lon="166.46862608380615711212158203125">
        <ele>875</ele>
        <time>2016-08-12T21:31:09.000Z</time>
        <extensions>
          <ns3:TrackPointExtension>
            <ns3:atemp>15.0</ns3:atemp>
            <ns3:hr>146</ns3:hr>
          </ns3:TrackPointExtension>
        </extensions>
      </trkpt>
      <trkpt lat="-22.02282168902456760406494140625" lon="166.46864133886992931365966796875">
        <ele>875</ele>
        <time>2016-08-12T21:31:10.000Z</time>
        <extensions>
          <ns3:TrackPointExtension>
            <ns3:atemp>15.0</ns3:atemp>
            <ns3:hr>146</ns3:hr>
          </ns3:TrackPointExtension>
        </extensions>
      </trkpt>
      <trkpt lat="-22.02283157967031002044677734375" lon="166.4686603657901287078857421875">
        <ele>875</ele>
        <time>2016-08-12T21:31:11.000Z</time>
        <extensions>
          <ns3:TrackPointExtension>
            <ns3:atemp>15.0</ns3:atemp>
            <ns3:hr>146</ns3:hr>
          </ns3:TrackPointExtension>
        </extensions>
      </trkpt>
      <trkpt lat="-22.0228452421724796295166015625" lon="166.4686804823577404022216796875">
        <ele>875.79998779296875</ele>
        <time>2016-08-12T21:31:12.000Z</time>
        <extensions>
          <ns3:TrackPointExtension>
            <ns3:atemp>15.0</ns3:atemp>
            <ns3:hr>146</ns3:hr>
          </ns3:TrackPointExtension>
        </extensions>
      </trkpt>
      <trkpt lat="-22.02285421080887317657470703125" lon="166.46869632415473461151123046875">
        <ele>875.5999755859375</ele>
        <time>2016-08-12T21:31:13.000Z</time>
        <extensions>
          <ns3:TrackPointExtension>
            <ns3:atemp>15.0</ns3:atemp>
            <ns3:hr>145</ns3:hr>
          </ns3:TrackPointExtension>
        </extensions>
      </trkpt>
      <trkpt lat="-22.02286812476813793182373046875" lon="166.46871342323720455169677734375">
        <ele>875.4000244140625</ele>
        <time>2016-08-12T21:31:14.000Z</time>
        <extensions>
          <ns3:TrackPointExtension>
            <ns3:atemp>15.0</ns3:atemp>
            <ns3:hr>146</ns3:hr>
          </ns3:TrackPointExtension>
        </extensions>
      </trkpt>
      <trkpt lat="-22.0228791050612926483154296875" lon="166.46873353980481624603271484375">
        <ele>875.4000244140625</ele>
        <time>2016-08-12T21:31:15.000Z</time>
        <extensions>
          <ns3:TrackPointExtension>
            <ns3:atemp>15.0</ns3:atemp>
            <ns3:hr>146</ns3:hr>
          </ns3:TrackPointExtension>
        </extensions>
      </trkpt>
      <trkpt lat="-22.02289125882089138031005859375" lon="166.46874996833503246307373046875">
        <ele>875.5999755859375</ele>
        <time>2016-08-12T21:31:16.000Z</time>
        <extensions>
          <ns3:TrackPointExtension>
            <ns3:atemp>15.0</ns3:atemp>
            <ns3:hr>146</ns3:hr>
          </ns3:TrackPointExtension>
        </extensions>
      </trkpt>
      <trkpt lat="-22.022905759513378143310546875" lon="166.46876807324588298797607421875">
        <ele>875.5999755859375</ele>
        <time>2016-08-12T21:31:17.000Z</time>
        <extensions>
          <ns3:TrackPointExtension>
            <ns3:atemp>15.0</ns3:atemp>
            <ns3:hr>146</ns3:hr>
          </ns3:TrackPointExtension>
        </extensions>
      </trkpt>
      <trkpt lat="-22.02292495407164096832275390625" lon="166.468786261975765228271484375">
        <ele>875.79998779296875</ele>
        <time>2016-08-12T21:31:18.000Z</time>
        <extensions>
          <ns3:TrackPointExtension>
            <ns3:atemp>15.0</ns3:atemp>
            <ns3:hr>146</ns3:hr>
          </ns3:TrackPointExtension>
        </extensions>
      </trkpt>
      <trkpt lat="-22.02293350361287593841552734375" lon="166.468809731304645538330078125">
        <ele>876</ele>
        <time>2016-08-12T21:31:19.000Z</time>
        <extensions>
          <ns3:TrackPointExtension>
            <ns3:atemp>15.0</ns3:atemp>
            <ns3:hr>146</ns3:hr>
          </ns3:TrackPointExtension>
        </extensions>
      </trkpt>
      <trkpt lat="-22.02294389717280864715576171875" lon="166.4688330329954624176025390625">
        <ele>876</ele>
        <time>2016-08-12T21:31:20.000Z</time>
        <extensions>
          <ns3:TrackPointExtension>
            <ns3:atemp>15.0</ns3:atemp>
            <ns3:hr>147</ns3:hr>
          </ns3:TrackPointExtension>
        </extensions>
      </trkpt>
      <trkpt lat="-22.02295227907598018646240234375" lon="166.46885189227759838104248046875">
        <ele>876</ele>
        <time>2016-08-12T21:31:21.000Z</time>
        <extensions>
          <ns3:TrackPointExtension>
            <ns3:atemp>15.0</ns3:atemp>
            <ns3:hr>146</ns3:hr>
          </ns3:TrackPointExtension>
        </extensions>
      </trkpt>
      <trkpt lat="-22.02296971343457698822021484375" lon="166.46886664442718029022216796875">
        <ele>876.20001220703125</ele>
        <time>2016-08-12T21:31:22.000Z</time>
        <extensions>
          <ns3:TrackPointExtension>
            <ns3:atemp>15.0</ns3:atemp>
            <ns3:hr>147</ns3:hr>
          </ns3:TrackPointExtension>
        </extensions>
      </trkpt>
      <trkpt lat="-22.02299368567764759063720703125" lon="166.46887904964387416839599609375">
        <ele>876.20001220703125</ele>
        <time>2016-08-12T21:31:23.000Z</time>
        <extensions>
          <ns3:TrackPointExtension>
            <ns3:atemp>15.0</ns3:atemp>
            <ns3:hr>147</ns3:hr>
          </ns3:TrackPointExtension>
        </extensions>
      </trkpt>
      <trkpt lat="-22.02300860546529293060302734375" lon="166.46889111958444118499755859375">
        <ele>876</ele>
        <time>2016-08-12T21:31:24.000Z</time>
        <extensions>
          <ns3:TrackPointExtension>
            <ns3:atemp>15.0</ns3:atemp>
            <ns3:hr>147</ns3:hr>
          </ns3:TrackPointExtension>
        </extensions>
      </trkpt>
      <trkpt lat="-22.02302210032939910888671875" lon="166.46890369243919849395751953125">
        <ele>876</ele>
        <time>2016-08-12T21:31:25.000Z</time>
        <extensions>
          <ns3:TrackPointExtension>
            <ns3:atemp>15.0</ns3:atemp>
            <ns3:hr>147</ns3:hr>
          </ns3:TrackPointExtension>
        </extensions>
      </trkpt>
      <trkpt lat="-22.0230402052402496337890625" lon="166.46892003715038299560546875">
        <ele>876.20001220703125</ele>
        <time>2016-08-12T21:31:26.000Z</time>
        <extensions>
          <ns3:TrackPointExtension>
            <ns3:atemp>15.0</ns3:atemp>
            <ns3:hr>147</ns3:hr>
          </ns3:TrackPointExtension>
        </extensions>
      </trkpt>
      <trkpt lat="-22.023053281009197235107421875" lon="166.4689332805573940277099609375">
        <ele>876.20001220703125</ele>
        <time>2016-08-12T21:31:27.000Z</time>
        <extensions>
          <ns3:TrackPointExtension>
            <ns3:atemp>15.0</ns3:atemp>
            <ns3:hr>147</ns3:hr>
          </ns3:TrackPointExtension>
        </extensions>
      </trkpt>
      <trkpt lat="-22.02306828461587429046630859375" lon="166.46894778124988079071044921875">
        <ele>876.20001220703125</ele>
        <time>2016-08-12T21:31:28.000Z</time>
        <extensions>
          <ns3:TrackPointExtension>
            <ns3:atemp>15.0</ns3:atemp>
            <ns3:hr>147</ns3:hr>
          </ns3:TrackPointExtension>
        </extensions>
      </trkpt>
      <trkpt lat="-22.0230987109243869781494140625" lon="166.46895683370530605316162109375">
        <ele>876.5999755859375</ele>
        <time>2016-08-12T21:31:29.000Z</time>
        <extensions>
          <ns3:TrackPointExtension>
            <ns3:atemp>15.0</ns3:atemp>
            <ns3:hr>147</ns3:hr>
          </ns3:TrackPointExtension>
        </extensions>
      </trkpt>
      <trkpt lat="-22.0231084339320659637451171875" lon="166.4689738489687442779541015625">
        <ele>876.5999755859375</ele>
        <time>2016-08-12T21:31:30.000Z</time>
        <extensions>
          <ns3:TrackPointExtension>
            <ns3:atemp>15.0</ns3:atemp>
            <ns3:hr>147</ns3:hr>
          </ns3:TrackPointExtension>
        </extensions>
      </trkpt>
      <trkpt lat="-22.02313433401286602020263671875" lon="166.468988098204135894775390625">
        <ele>876.5999755859375</ele>
        <time>2016-08-12T21:31:31.000Z</time>
        <extensions>
          <ns3:TrackPointExtension>
            <ns3:atemp>15.0</ns3:atemp>
            <ns3:hr>147</ns3:hr>
          </ns3:TrackPointExtension>
        </extensions>
      </trkpt>
      <trkpt lat="-22.02314673922955989837646484375" lon="166.46900318562984466552734375">
        <ele>876.5999755859375</ele>
        <time>2016-08-12T21:31:32.000Z</time>
        <extensions>
          <ns3:TrackPointExtension>
            <ns3:atemp>15.0</ns3:atemp>
            <ns3:hr>147</ns3:hr>
          </ns3:TrackPointExtension>
        </extensions>
      </trkpt>
      <trkpt lat="-22.0231640897691249847412109375" lon="166.46901802159845829010009765625">
        <ele>876.4000244140625</ele>
        <time>2016-08-12T21:31:33.000Z</time>
        <extensions>
          <ns3:TrackPointExtension>
            <ns3:atemp>15.0</ns3:atemp>
            <ns3:hr>147</ns3:hr>
          </ns3:TrackPointExtension>
        </extensions>
      </trkpt>
      <trkpt lat="-22.02317875809967517852783203125" lon="166.46903495304286479949951171875">
        <ele>876.20001220703125</ele>
        <time>2016-08-12T21:31:34.000Z</time>
        <extensions>
          <ns3:TrackPointExtension>
            <ns3:atemp>15.0</ns3:atemp>
            <ns3:hr>147</ns3:hr>
          </ns3:TrackPointExtension>
        </extensions>
      </trkpt>
      <trkpt lat="-22.023177333176136016845703125" lon="166.4690566621720790863037109375">
        <ele>876.4000244140625</ele>
        <time>2016-08-12T21:31:35.000Z</time>
        <extensions>
          <ns3:TrackPointExtension>
            <ns3:atemp>15.0</ns3:atemp>
            <ns3:hr>147</ns3:hr>
          </ns3:TrackPointExtension>
        </extensions>
      </trkpt>
      <trkpt lat="-22.023184709250926971435546875" lon="166.46907669492065906524658203125">
        <ele>876.5999755859375</ele>
        <time>2016-08-12T21:31:36.000Z</time>
        <extensions>
          <ns3:TrackPointExtension>
            <ns3:atemp>15.0</ns3:atemp>
            <ns3:hr>146</ns3:hr>
          </ns3:TrackPointExtension>
        </extensions>
      </trkpt>
      <trkpt lat="-22.0232023112475872039794921875" lon="166.4690928719937801361083984375">
        <ele>876.79998779296875</ele>
        <time>2016-08-12T21:31:37.000Z</time>
        <extensions>
          <ns3:TrackPointExtension>
            <ns3:atemp>15.0</ns3:atemp>
            <ns3:hr>146</ns3:hr>
          </ns3:TrackPointExtension>
        </extensions>
      </trkpt>
      <trkpt lat="-22.0232227630913257598876953125" lon="166.46910779178142547607421875">
        <ele>877.20001220703125</ele>
        <time>2016-08-12T21:31:38.000Z</time>
        <extensions>
          <ns3:TrackPointExtension>
            <ns3:atemp>15.0</ns3:atemp>
            <ns3:hr>146</ns3:hr>
          </ns3:TrackPointExtension>
        </extensions>
      </trkpt>
      <trkpt lat="-22.0232418738305568695068359375" lon="166.46912463940680027008056640625">
        <ele>877.4000244140625</ele>
        <time>2016-08-12T21:31:39.000Z</time>
        <extensions>
          <ns3:TrackPointExtension>
            <ns3:atemp>15.0</ns3:atemp>
            <ns3:hr>146</ns3:hr>
          </ns3:TrackPointExtension>
        </extensions>
      </trkpt>
      <trkpt lat="-22.0232603140175342559814453125" lon="166.46914190612733364105224609375">
        <ele>877.4000244140625</ele>
        <time>2016-08-12T21:31:40.000Z</time>
        <extensions>
          <ns3:TrackPointExtension>
            <ns3:atemp>15.0</ns3:atemp>
            <ns3:hr>146</ns3:hr>
          </ns3:TrackPointExtension>
        </extensions>
      </trkpt>
      <trkpt lat="-22.0232760719954967498779296875" lon="166.46915783174335956573486328125">
        <ele>877</ele>
        <time>2016-08-12T21:31:41.000Z</time>
        <extensions>
          <ns3:TrackPointExtension>
            <ns3:atemp>15.0</ns3:atemp>
            <ns3:hr>146</ns3:hr>
          </ns3:TrackPointExtension>
        </extensions>
      </trkpt>
      <trkpt lat="-22.0232904888689517974853515625" lon="166.4691763557493686676025390625">
        <ele>877.79998779296875</ele>
        <time>2016-08-12T21:31:42.000Z</time>
        <extensions>
          <ns3:TrackPointExtension>
            <ns3:atemp>15.0</ns3:atemp>
            <ns3:hr>146</ns3:hr>
          </ns3:TrackPointExtension>
        </extensions>
      </trkpt>
      <trkpt lat="-22.0233022235333919525146484375" lon="166.46919353865087032318115234375">
        <ele>877.4000244140625</ele>
        <time>2016-08-12T21:31:43.000Z</time>
        <extensions>
          <ns3:TrackPointExtension>
            <ns3:atemp>15.0</ns3:atemp>
            <ns3:hr>146</ns3:hr>
          </ns3:TrackPointExtension>
        </extensions>
      </trkpt>
      <trkpt lat="-22.0233169756829738616943359375" lon="166.469208709895610809326171875">
        <ele>877.20001220703125</ele>
        <time>2016-08-12T21:31:44.000Z</time>
        <extensions>
          <ns3:TrackPointExtension>
            <ns3:atemp>15.0</ns3:atemp>
            <ns3:hr>146</ns3:hr>
          </ns3:TrackPointExtension>
        </extensions>
      </trkpt>
      <trkpt lat="-22.02332477085292339324951171875" lon="166.46923041902482509613037109375">
        <ele>877.5999755859375</ele>
        <time>2016-08-12T21:31:45.000Z</time>
        <extensions>
          <ns3:TrackPointExtension>
            <ns3:atemp>15.0</ns3:atemp>
            <ns3:hr>146</ns3:hr>
          </ns3:TrackPointExtension>
        </extensions>
      </trkpt>
      <trkpt lat="-22.0233213342726230621337890625" lon="166.4692558161914348602294921875">
        <ele>877.5999755859375</ele>
        <time>2016-08-12T21:31:46.000Z</time>
        <extensions>
          <ns3:TrackPointExtension>
            <ns3:atemp>15.0</ns3:atemp>
            <ns3:hr>145</ns3:hr>
          </ns3:TrackPointExtension>
        </extensions>
      </trkpt>
      <trkpt lat="-22.023328207433223724365234375" lon="166.4692772738635540008544921875">
        <ele>877.4000244140625</ele>
        <time>2016-08-12T21:31:47.000Z</time>
        <extensions>
          <ns3:TrackPointExtension>
            <ns3:atemp>15.0</ns3:atemp>
            <ns3:hr>145</ns3:hr>
          </ns3:TrackPointExtension>
        </extensions>
      </trkpt>
      <trkpt lat="-22.0233374275267124176025390625" lon="166.46929864771664142608642578125">
        <ele>877.5999755859375</ele>
        <time>2016-08-12T21:31:48.000Z</time>
        <extensions>
          <ns3:TrackPointExtension>
            <ns3:atemp>15.0</ns3:atemp>
            <ns3:hr>145</ns3:hr>
          </ns3:TrackPointExtension>
        </extensions>
      </trkpt>
      <trkpt lat="-22.02335159294307231903076171875" lon="166.4693163335323333740234375">
        <ele>878</ele>
        <time>2016-08-12T21:31:49.000Z</time>
        <extensions>
          <ns3:TrackPointExtension>
            <ns3:atemp>15.0</ns3:atemp>
            <ns3:hr>145</ns3:hr>
          </ns3:TrackPointExtension>
        </extensions>
      </trkpt>
      <trkpt lat="-22.0233632437884807586669921875" lon="166.46933603100478649139404296875">
        <ele>877.79998779296875</ele>
        <time>2016-08-12T21:31:50.000Z</time>
        <extensions>
          <ns3:TrackPointExtension>
            <ns3:atemp>15.0</ns3:atemp>
            <ns3:hr>145</ns3:hr>
          </ns3:TrackPointExtension>
        </extensions>
      </trkpt>
      <trkpt lat="-22.0233719609677791595458984375" lon="166.469357572495937347412109375">
        <ele>877.79998779296875</ele>
        <time>2016-08-12T21:31:51.000Z</time>
        <extensions>
          <ns3:TrackPointExtension>
            <ns3:atemp>15.0</ns3:atemp>
            <ns3:hr>145</ns3:hr>
          </ns3:TrackPointExtension>
        </extensions>
      </trkpt>
      <trkpt lat="-22.02337858267128467559814453125" lon="166.46937995217740535736083984375">
        <ele>877.79998779296875</ele>
        <time>2016-08-12T21:31:52.000Z</time>
        <extensions>
          <ns3:TrackPointExtension>
            <ns3:atemp>15.0</ns3:atemp>
            <ns3:hr>145</ns3:hr>
          </ns3:TrackPointExtension>
        </extensions>
      </trkpt>
      <trkpt lat="-22.023382522165775299072265625" lon="166.46940409205853939056396484375">
        <ele>877.79998779296875</ele>
        <time>2016-08-12T21:31:53.000Z</time>
        <extensions>
          <ns3:TrackPointExtension>
            <ns3:atemp>15.0</ns3:atemp>
            <ns3:hr>145</ns3:hr>
          </ns3:TrackPointExtension>
        </extensions>
      </trkpt>
      <trkpt lat="-22.02338151633739471435546875" lon="166.4694271422922611236572265625">
        <ele>878</ele>
        <time>2016-08-12T21:31:54.000Z</time>
        <extensions>
          <ns3:TrackPointExtension>
            <ns3:atemp>15.0</ns3:atemp>
            <ns3:hr>144</ns3:hr>
          </ns3:TrackPointExtension>
        </extensions>
      </trkpt>
      <trkpt lat="-22.0233857072889804840087890625" lon="166.4694506116211414337158203125">
        <ele>878.20001220703125</ele>
        <time>2016-08-12T21:31:55.000Z</time>
        <extensions>
          <ns3:TrackPointExtension>
            <ns3:atemp>15.0</ns3:atemp>
            <ns3:hr>145</ns3:hr>
          </ns3:TrackPointExtension>
        </extensions>
      </trkpt>
      <trkpt lat="-22.02339283190667629241943359375" lon="166.46947064436972141265869140625">
        <ele>878.20001220703125</ele>
        <time>2016-08-12T21:31:56.000Z</time>
        <extensions>
          <ns3:TrackPointExtension>
            <ns3:atemp>15.0</ns3:atemp>
            <ns3:hr>144</ns3:hr>
          </ns3:TrackPointExtension>
        </extensions>
      </trkpt>
      <trkpt lat="-22.023389898240566253662109375" lon="166.4694895036518573760986328125">
        <ele>878.4000244140625</ele>
        <time>2016-08-12T21:31:57.000Z</time>
        <extensions>
          <ns3:TrackPointExtension>
            <ns3:atemp>15.0</ns3:atemp>
            <ns3:hr>144</ns3:hr>
          </ns3:TrackPointExtension>
        </extensions>
      </trkpt>
      <trkpt lat="-22.02339735813438892364501953125" lon="166.4695059321820735931396484375">
        <ele>878.5999755859375</ele>
        <time>2016-08-12T21:31:58.000Z</time>
        <extensions>
          <ns3:TrackPointExtension>
            <ns3:atemp>15.0</ns3:atemp>
            <ns3:hr>144</ns3:hr>
          </ns3:TrackPointExtension>
        </extensions>
      </trkpt>
      <trkpt lat="-22.023403644561767578125" lon="166.4695304073393344879150390625">
        <ele>878.79998779296875</ele>
        <time>2016-08-12T21:31:59.000Z</time>
        <extensions>
          <ns3:TrackPointExtension>
            <ns3:atemp>15.0</ns3:atemp>
            <ns3:hr>144</ns3:hr>
          </ns3:TrackPointExtension>
        </extensions>
      </trkpt>
      <trkpt lat="-22.023412697017192840576171875" lon="166.4695535413920879364013671875">
        <ele>878.79998779296875</ele>
        <time>2016-08-12T21:32:00.000Z</time>
        <extensions>
          <ns3:TrackPointExtension>
            <ns3:atemp>15.0</ns3:atemp>
            <ns3:hr>144</ns3:hr>
          </ns3:TrackPointExtension>
        </extensions>
      </trkpt>
      <trkpt lat="-22.023423425853252410888671875" lon="166.46957323886454105377197265625">
        <ele>878.79998779296875</ele>
        <time>2016-08-12T21:32:01.000Z</time>
        <extensions>
          <ns3:TrackPointExtension>
            <ns3:atemp>15.0</ns3:atemp>
            <ns3:hr>144</ns3:hr>
          </ns3:TrackPointExtension>
        </extensions>
      </trkpt>
      <trkpt lat="-22.02343842945992946624755859375" lon="166.4695926010608673095703125">
        <ele>879</ele>
        <time>2016-08-12T21:32:02.000Z</time>
        <extensions>
          <ns3:TrackPointExtension>
            <ns3:atemp>15.0</ns3:atemp>
            <ns3:hr>144</ns3:hr>
          </ns3:TrackPointExtension>
        </extensions>
      </trkpt>
      <trkpt lat="-22.023446895182132720947265625" lon="166.46961045451462268829345703125">
        <ele>879</ele>
        <time>2016-08-12T21:32:03.000Z</time>
        <extensions>
          <ns3:TrackPointExtension>
            <ns3:atemp>15.0</ns3:atemp>
            <ns3:hr>144</ns3:hr>
          </ns3:TrackPointExtension>
        </extensions>
      </trkpt>
      <trkpt lat="-22.02345854602754116058349609375" lon="166.4696289785206317901611328125">
        <ele>879.20001220703125</ele>
        <time>2016-08-12T21:32:04.000Z</time>
        <extensions>
          <ns3:TrackPointExtension>
            <ns3:atemp>15.0</ns3:atemp>
            <ns3:hr>144</ns3:hr>
          </ns3:TrackPointExtension>
        </extensions>
      </trkpt>
      <trkpt lat="-22.0234691910445690155029296875" lon="166.4696497656404972076416015625">
        <ele>879.5999755859375</ele>
        <time>2016-08-12T21:32:05.000Z</time>
        <extensions>
          <ns3:TrackPointExtension>
            <ns3:atemp>15.0</ns3:atemp>
            <ns3:hr>144</ns3:hr>
          </ns3:TrackPointExtension>
        </extensions>
      </trkpt>
      <trkpt lat="-22.02348503284156322479248046875" lon="166.4696685411036014556884765625">
        <ele>879.4000244140625</ele>
        <time>2016-08-12T21:32:06.000Z</time>
        <extensions>
          <ns3:TrackPointExtension>
            <ns3:atemp>15.0</ns3:atemp>
            <ns3:hr>144</ns3:hr>
          </ns3:TrackPointExtension>
        </extensions>
      </trkpt>
      <trkpt lat="-22.02349861152470111846923828125" lon="166.46968857385218143463134765625">
        <ele>879.5999755859375</ele>
        <time>2016-08-12T21:32:07.000Z</time>
        <extensions>
          <ns3:TrackPointExtension>
            <ns3:atemp>15.0</ns3:atemp>
            <ns3:hr>144</ns3:hr>
          </ns3:TrackPointExtension>
        </extensions>
      </trkpt>
      <trkpt lat="-22.02350892126560211181640625" lon="166.46970768459141254425048828125">
        <ele>879.79998779296875</ele>
        <time>2016-08-12T21:32:08.000Z</time>
        <extensions>
          <ns3:TrackPointExtension>
            <ns3:atemp>15.0</ns3:atemp>
            <ns3:hr>144</ns3:hr>
          </ns3:TrackPointExtension>
        </extensions>
      </trkpt>
      <trkpt lat="-22.023517973721027374267578125" lon="166.4697235263884067535400390625">
        <ele>879.5999755859375</ele>
        <time>2016-08-12T21:32:09.000Z</time>
        <extensions>
          <ns3:TrackPointExtension>
            <ns3:atemp>15.0</ns3:atemp>
            <ns3:hr>144</ns3:hr>
          </ns3:TrackPointExtension>
        </extensions>
      </trkpt>
      <trkpt lat="-22.0235251821577548980712890625" lon="166.46974272094666957855224609375">
        <ele>879.4000244140625</ele>
        <time>2016-08-12T21:32:10.000Z</time>
        <extensions>
          <ns3:TrackPointExtension>
            <ns3:atemp>15.0</ns3:atemp>
            <ns3:hr>144</ns3:hr>
          </ns3:TrackPointExtension>
        </extensions>
      </trkpt>
      <trkpt lat="-22.02353180386126041412353515625" lon="166.46976015530526638031005859375">
        <ele>880.20001220703125</ele>
        <time>2016-08-12T21:32:11.000Z</time>
        <extensions>
          <ns3:TrackPointExtension>
            <ns3:atemp>15.0</ns3:atemp>
            <ns3:hr>145</ns3:hr>
          </ns3:TrackPointExtension>
        </extensions>
      </trkpt>
      <trkpt lat="-22.023542113602161407470703125" lon="166.46978043951094150543212890625">
        <ele>880.4000244140625</ele>
        <time>2016-08-12T21:32:12.000Z</time>
        <extensions>
          <ns3:TrackPointExtension>
            <ns3:atemp>15.0</ns3:atemp>
            <ns3:hr>145</ns3:hr>
          </ns3:TrackPointExtension>
        </extensions>
      </trkpt>
      <trkpt lat="-22.02355183660984039306640625" lon="166.46980089135468006134033203125">
        <ele>880.20001220703125</ele>
        <time>2016-08-12T21:32:13.000Z</time>
        <extensions>
          <ns3:TrackPointExtension>
            <ns3:atemp>15.0</ns3:atemp>
            <ns3:hr>145</ns3:hr>
          </ns3:TrackPointExtension>
        </extensions>
      </trkpt>
      <trkpt lat="-22.0235634036362171173095703125" lon="166.46981631405651569366455078125">
        <ele>880.20001220703125</ele>
        <time>2016-08-12T21:32:14.000Z</time>
        <extensions>
          <ns3:TrackPointExtension>
            <ns3:atemp>15.0</ns3:atemp>
            <ns3:hr>145</ns3:hr>
          </ns3:TrackPointExtension>
        </extensions>
      </trkpt>
      <trkpt lat="-22.023574300110340118408203125" lon="166.46983869373798370361328125">
        <ele>881</ele>
        <time>2016-08-12T21:32:15.000Z</time>
        <extensions>
          <ns3:TrackPointExtension>
            <ns3:atemp>15.0</ns3:atemp>
            <ns3:hr>145</ns3:hr>
          </ns3:TrackPointExtension>
        </extensions>
      </trkpt>
      <trkpt lat="-22.0235858671367168426513671875" lon="166.46985453553497791290283203125">
        <ele>881</ele>
        <time>2016-08-12T21:32:16.000Z</time>
        <extensions>
          <ns3:TrackPointExtension>
            <ns3:atemp>15.0</ns3:atemp>
            <ns3:hr>145</ns3:hr>
          </ns3:TrackPointExtension>
        </extensions>
      </trkpt>
      <trkpt lat="-22.0236056484282016754150390625" lon="166.4698661863803863525390625">
        <ele>881.20001220703125</ele>
        <time>2016-08-12T21:32:17.000Z</time>
        <extensions>
          <ns3:TrackPointExtension>
            <ns3:atemp>15.0</ns3:atemp>
            <ns3:hr>146</ns3:hr>
          </ns3:TrackPointExtension>
        </extensions>
      </trkpt>
      <trkpt lat="-22.02362425625324249267578125" lon="166.4698769152164459228515625">
        <ele>881.79998779296875</ele>
        <time>2016-08-12T21:32:18.000Z</time>
        <extensions>
          <ns3:TrackPointExtension>
            <ns3:atemp>15.0</ns3:atemp>
            <ns3:hr>146</ns3:hr>
          </ns3:TrackPointExtension>
        </extensions>
      </trkpt>
      <trkpt lat="-22.02363054268062114715576171875" lon="166.4698921702802181243896484375">
        <ele>881.79998779296875</ele>
        <time>2016-08-12T21:32:19.000Z</time>
        <extensions>
          <ns3:TrackPointExtension>
            <ns3:atemp>15.0</ns3:atemp>
            <ns3:hr>146</ns3:hr>
          </ns3:TrackPointExtension>
        </extensions>
      </trkpt>
      <trkpt lat="-22.02364169061183929443359375" lon="166.46990365348756313323974609375">
        <ele>881.5999755859375</ele>
        <time>2016-08-12T21:32:20.000Z</time>
        <extensions>
          <ns3:TrackPointExtension>
            <ns3:atemp>15.0</ns3:atemp>
            <ns3:hr>146</ns3:hr>
          </ns3:TrackPointExtension>
        </extensions>
      </trkpt>
      <trkpt lat="-22.02364998869597911834716796875" lon="166.4699139632284641265869140625">
        <ele>882</ele>
        <time>2016-08-12T21:32:21.000Z</time>
        <extensions>
          <ns3:TrackPointExtension>
            <ns3:atemp>15.0</ns3:atemp>
            <ns3:hr>147</ns3:hr>
          </ns3:TrackPointExtension>
        </extensions>
      </trkpt>
      <trkpt lat="-22.02365770004689693450927734375" lon="166.46992159076035022735595703125">
        <ele>882</ele>
        <time>2016-08-12T21:32:22.000Z</time>
        <extensions>
          <ns3:TrackPointExtension>
            <ns3:atemp>15.0</ns3:atemp>
            <ns3:hr>147</ns3:hr>
          </ns3:TrackPointExtension>
        </extensions>
      </trkpt>
      <trkpt lat="-22.0236596278846263885498046875" lon="166.4699354209005832672119140625">
        <ele>881.79998779296875</ele>
        <time>2016-08-12T21:32:23.000Z</time>
        <extensions>
          <ns3:TrackPointExtension>
            <ns3:atemp>15.0</ns3:atemp>
            <ns3:hr>147</ns3:hr>
          </ns3:TrackPointExtension>
        </extensions>
      </trkpt>
      <trkpt lat="-22.02367278747260570526123046875" lon="166.46994489245116710662841796875">
        <ele>881.79998779296875</ele>
        <time>2016-08-12T21:32:24.000Z</time>
        <extensions>
          <ns3:TrackPointExtension>
            <ns3:atemp>15.0</ns3:atemp>
            <ns3:hr>146</ns3:hr>
          </ns3:TrackPointExtension>
        </extensions>
      </trkpt>
      <trkpt lat="-22.02368058264255523681640625" lon="166.4699525199830532073974609375">
        <ele>882</ele>
        <time>2016-08-12T21:32:25.000Z</time>
        <extensions>
          <ns3:TrackPointExtension>
            <ns3:atemp>15.0</ns3:atemp>
            <ns3:hr>147</ns3:hr>
          </ns3:TrackPointExtension>
        </extensions>
      </trkpt>
      <trkpt lat="-22.02368753962218761444091796875" lon="166.46996450610458850860595703125">
        <ele>881.79998779296875</ele>
        <time>2016-08-12T21:32:26.000Z</time>
        <extensions>
          <ns3:TrackPointExtension>
            <ns3:atemp>15.0</ns3:atemp>
            <ns3:hr>147</ns3:hr>
          </ns3:TrackPointExtension>
        </extensions>
      </trkpt>
      <trkpt lat="-22.02370606362819671630859375" lon="166.46997540257871150970458984375">
        <ele>881.79998779296875</ele>
        <time>2016-08-12T21:32:27.000Z</time>
        <extensions>
          <ns3:TrackPointExtension>
            <ns3:atemp>15.0</ns3:atemp>
            <ns3:hr>147</ns3:hr>
          </ns3:TrackPointExtension>
        </extensions>
      </trkpt>
      <trkpt lat="-22.023729197680950164794921875" lon="166.4699850417673587799072265625">
        <ele>882</ele>
        <time>2016-08-12T21:32:28.000Z</time>
        <extensions>
          <ns3:TrackPointExtension>
            <ns3:atemp>15.0</ns3:atemp>
            <ns3:hr>147</ns3:hr>
          </ns3:TrackPointExtension>
        </extensions>
      </trkpt>
      <trkpt lat="-22.02374855987727642059326171875" lon="166.4699984528124332427978515625">
        <ele>881.79998779296875</ele>
        <time>2016-08-12T21:32:29.000Z</time>
        <extensions>
          <ns3:TrackPointExtension>
            <ns3:atemp>15.0</ns3:atemp>
            <ns3:hr>147</ns3:hr>
          </ns3:TrackPointExtension>
        </extensions>
      </trkpt>
      <trkpt lat="-22.02376850880682468414306640625" lon="166.47001446224749088287353515625">
        <ele>881.79998779296875</ele>
        <time>2016-08-12T21:32:30.000Z</time>
        <extensions>
          <ns3:TrackPointExtension>
            <ns3:atemp>15.0</ns3:atemp>
            <ns3:hr>147</ns3:hr>
          </ns3:TrackPointExtension>
        </extensions>
      </trkpt>
      <trkpt lat="-22.02378518879413604736328125" lon="166.47003114223480224609375">
        <ele>882.20001220703125</ele>
        <time>2016-08-12T21:32:31.000Z</time>
        <extensions>
          <ns3:TrackPointExtension>
            <ns3:atemp>15.0</ns3:atemp>
            <ns3:hr>147</ns3:hr>
          </ns3:TrackPointExtension>
        </extensions>
      </trkpt>
      <trkpt lat="-22.02380773611366748809814453125" lon="166.47004765458405017852783203125">
        <ele>882.20001220703125</ele>
        <time>2016-08-12T21:32:32.000Z</time>
        <extensions>
          <ns3:TrackPointExtension>
            <ns3:atemp>15.0</ns3:atemp>
            <ns3:hr>147</ns3:hr>
          </ns3:TrackPointExtension>
        </extensions>
      </trkpt>
      <trkpt lat="-22.02382902614772319793701171875" lon="166.470065675675868988037109375">
        <ele>882.20001220703125</ele>
        <time>2016-08-12T21:32:33.000Z</time>
        <extensions>
          <ns3:TrackPointExtension>
            <ns3:atemp>15.0</ns3:atemp>
            <ns3:hr>147</ns3:hr>
          </ns3:TrackPointExtension>
        </extensions>
      </trkpt>
      <trkpt lat="-22.02384914271533489227294921875" lon="166.470083110034465789794921875">
        <ele>882.5999755859375</ele>
        <time>2016-08-12T21:32:34.000Z</time>
        <extensions>
          <ns3:TrackPointExtension>
            <ns3:atemp>15.0</ns3:atemp>
            <ns3:hr>147</ns3:hr>
          </ns3:TrackPointExtension>
        </extensions>
      </trkpt>
      <trkpt lat="-22.0238661579787731170654296875" lon="166.47010230459272861480712890625">
        <ele>882.5999755859375</ele>
        <time>2016-08-12T21:32:35.000Z</time>
        <extensions>
          <ns3:TrackPointExtension>
            <ns3:atemp>15.0</ns3:atemp>
            <ns3:hr>147</ns3:hr>
          </ns3:TrackPointExtension>
        </extensions>
      </trkpt>
      <trkpt lat="-22.02388183213770389556884765625" lon="166.470119990408420562744140625">
        <ele>882.5999755859375</ele>
        <time>2016-08-12T21:32:36.000Z</time>
        <extensions>
          <ns3:TrackPointExtension>
            <ns3:atemp>15.0</ns3:atemp>
            <ns3:hr>147</ns3:hr>
          </ns3:TrackPointExtension>
        </extensions>
      </trkpt>
      <trkpt lat="-22.02389784157276153564453125" lon="166.47013247944414615631103515625">
        <ele>883</ele>
        <time>2016-08-12T21:32:37.000Z</time>
        <extensions>
          <ns3:TrackPointExtension>
            <ns3:atemp>15.0</ns3:atemp>
            <ns3:hr>147</ns3:hr>
          </ns3:TrackPointExtension>
        </extensions>
      </trkpt>
      <trkpt lat="-22.02390697784721851348876953125" lon="166.470151506364345550537109375">
        <ele>883.20001220703125</ele>
        <time>2016-08-12T21:32:38.000Z</time>
        <extensions>
          <ns3:TrackPointExtension>
            <ns3:atemp>15.0</ns3:atemp>
            <ns3:hr>147</ns3:hr>
          </ns3:TrackPointExtension>
        </extensions>
      </trkpt>
      <trkpt lat="-22.0239187963306903839111328125" lon="166.470170281827449798583984375">
        <ele>883.20001220703125</ele>
        <time>2016-08-12T21:32:39.000Z</time>
        <extensions>
          <ns3:TrackPointExtension>
            <ns3:atemp>15.0</ns3:atemp>
            <ns3:hr>146</ns3:hr>
          </ns3:TrackPointExtension>
        </extensions>
      </trkpt>
      <trkpt lat="-22.02393279410898685455322265625" lon="166.4701852016150951385498046875">
        <ele>883.4000244140625</ele>
        <time>2016-08-12T21:32:40.000Z</time>
        <extensions>
          <ns3:TrackPointExtension>
            <ns3:atemp>15.0</ns3:atemp>
            <ns3:hr>146</ns3:hr>
          </ns3:TrackPointExtension>
        </extensions>
      </trkpt>
      <trkpt lat="-22.023937739431858062744140625" lon="166.47020640783011913299560546875">
        <ele>883.4000244140625</ele>
        <time>2016-08-12T21:32:41.000Z</time>
        <extensions>
          <ns3:TrackPointExtension>
            <ns3:atemp>15.0</ns3:atemp>
            <ns3:hr>146</ns3:hr>
          </ns3:TrackPointExtension>
        </extensions>
      </trkpt>
      <trkpt lat="-22.0239509828388690948486328125" lon="166.47022317163646221160888671875">
        <ele>883.4000244140625</ele>
        <time>2016-08-12T21:32:42.000Z</time>
        <extensions>
          <ns3:TrackPointExtension>
            <ns3:atemp>15.0</ns3:atemp>
            <ns3:hr>146</ns3:hr>
          </ns3:TrackPointExtension>
        </extensions>
      </trkpt>
      <trkpt lat="-22.0239704288542270660400390625" lon="166.47023909725248813629150390625">
        <ele>883.20001220703125</ele>
        <time>2016-08-12T21:32:43.000Z</time>
        <extensions>
          <ns3:TrackPointExtension>
            <ns3:atemp>15.0</ns3:atemp>
            <ns3:hr>146</ns3:hr>
          </ns3:TrackPointExtension>
        </extensions>
      </trkpt>
      <trkpt lat="-22.02398040331900119781494140625" lon="166.47025368176400661468505859375">
        <ele>883.79998779296875</ele>
        <time>2016-08-12T21:32:44.000Z</time>
        <extensions>
          <ns3:TrackPointExtension>
            <ns3:atemp>15.0</ns3:atemp>
            <ns3:hr>146</ns3:hr>
          </ns3:TrackPointExtension>
        </extensions>
      </trkpt>
      <trkpt lat="-22.02397688291966915130615234375" lon="166.4702693559229373931884765625">
        <ele>884</ele>
        <time>2016-08-12T21:32:45.000Z</time>
        <extensions>
          <ns3:TrackPointExtension>
            <ns3:atemp>15.0</ns3:atemp>
            <ns3:hr>146</ns3:hr>
          </ns3:TrackPointExtension>
        </extensions>
      </trkpt>
      <trkpt lat="-22.023988701403141021728515625" lon="166.47028787992894649505615234375">
        <ele>884.20001220703125</ele>
        <time>2016-08-12T21:32:46.000Z</time>
        <extensions>
          <ns3:TrackPointExtension>
            <ns3:atemp>15.0</ns3:atemp>
            <ns3:hr>146</ns3:hr>
          </ns3:TrackPointExtension>
        </extensions>
      </trkpt>
      <trkpt lat="-22.0239932276308536529541015625" lon="166.47030833177268505096435546875">
        <ele>883.79998779296875</ele>
        <time>2016-08-12T21:32:47.000Z</time>
        <extensions>
          <ns3:TrackPointExtension>
            <ns3:atemp>15.0</ns3:atemp>
            <ns3:hr>146</ns3:hr>
          </ns3:TrackPointExtension>
        </extensions>
      </trkpt>
      <trkpt lat="-22.02399984933435916900634765625" lon="166.470325849950313568115234375">
        <ele>883.5999755859375</ele>
        <time>2016-08-12T21:32:48.000Z</time>
        <extensions>
          <ns3:TrackPointExtension>
            <ns3:atemp>15.0</ns3:atemp>
            <ns3:hr>146</ns3:hr>
          </ns3:TrackPointExtension>
        </extensions>
      </trkpt>
      <trkpt lat="-22.02401124872267246246337890625" lon="166.4703417755663394927978515625">
        <ele>884</ele>
        <time>2016-08-12T21:32:49.000Z</time>
        <extensions>
          <ns3:TrackPointExtension>
            <ns3:atemp>15.0</ns3:atemp>
            <ns3:hr>146</ns3:hr>
          </ns3:TrackPointExtension>
        </extensions>
      </trkpt>
      <trkpt lat="-22.024019546806812286376953125" lon="166.4703571982681751251220703125">
        <ele>884</ele>
        <time>2016-08-12T21:32:50.000Z</time>
        <extensions>
          <ns3:TrackPointExtension>
            <ns3:atemp>15.0</ns3:atemp>
            <ns3:hr>145</ns3:hr>
          </ns3:TrackPointExtension>
        </extensions>
      </trkpt>
      <trkpt lat="-22.02402985654771327972412109375" lon="166.470368094742298126220703125">
        <ele>884</ele>
        <time>2016-08-12T21:32:51.000Z</time>
        <extensions>
          <ns3:TrackPointExtension>
            <ns3:atemp>15.0</ns3:atemp>
            <ns3:hr>145</ns3:hr>
          </ns3:TrackPointExtension>
        </extensions>
      </trkpt>
      <trkpt lat="-22.02404662035405635833740234375" lon="166.47037823684513568878173828125">
        <ele>884.5999755859375</ele>
        <time>2016-08-12T21:32:52.000Z</time>
        <extensions>
          <ns3:TrackPointExtension>
            <ns3:atemp>15.0</ns3:atemp>
            <ns3:hr>145</ns3:hr>
          </ns3:TrackPointExtension>
        </extensions>
      </trkpt>
      <trkpt lat="-22.02405198477208614349365234375" lon="166.4703945815563201904296875">
        <ele>884.5999755859375</ele>
        <time>2016-08-12T21:32:53.000Z</time>
        <extensions>
          <ns3:TrackPointExtension>
            <ns3:atemp>15.0</ns3:atemp>
            <ns3:hr>145</ns3:hr>
          </ns3:TrackPointExtension>
        </extensions>
      </trkpt>
      <trkpt lat="-22.02406271360814571380615234375" lon="166.47040824405848979949951171875">
        <ele>884.4000244140625</ele>
        <time>2016-08-12T21:32:54.000Z</time>
        <extensions>
          <ns3:TrackPointExtension>
            <ns3:atemp>15.0</ns3:atemp>
            <ns3:hr>146</ns3:hr>
          </ns3:TrackPointExtension>
        </extensions>
      </trkpt>
      <trkpt lat="-22.02408249489963054656982421875" lon="166.47041662596166133880615234375">
        <ele>884.4000244140625</ele>
        <time>2016-08-12T21:32:55.000Z</time>
        <extensions>
          <ns3:TrackPointExtension>
            <ns3:atemp>15.0</ns3:atemp>
            <ns3:hr>145</ns3:hr>
          </ns3:TrackPointExtension>
        </extensions>
      </trkpt>
      <trkpt lat="-22.02409439720213413238525390625" lon="166.4704302884638309478759765625">
        <ele>884.79998779296875</ele>
        <time>2016-08-12T21:32:56.000Z</time>
        <extensions>
          <ns3:TrackPointExtension>
            <ns3:atemp>15.0</ns3:atemp>
            <ns3:hr>145</ns3:hr>
          </ns3:TrackPointExtension>
        </extensions>
      </trkpt>
      <trkpt lat="-22.0241102389991283416748046875" lon="166.470436491072177886962890625">
        <ele>884.79998779296875</ele>
        <time>2016-08-12T21:32:57.000Z</time>
        <extensions>
          <ns3:TrackPointExtension>
            <ns3:atemp>15.0</ns3:atemp>
            <ns3:hr>145</ns3:hr>
          </ns3:TrackPointExtension>
        </extensions>
      </trkpt>
      <trkpt lat="-22.02412582933902740478515625" lon="166.470444537699222564697265625">
        <ele>884.79998779296875</ele>
        <time>2016-08-12T21:32:58.000Z</time>
        <extensions>
          <ns3:TrackPointExtension>
            <ns3:atemp>15.0</ns3:atemp>
            <ns3:hr>145</ns3:hr>
          </ns3:TrackPointExtension>
        </extensions>
      </trkpt>
      <trkpt lat="-22.0241296850144863128662109375" lon="166.470457278192043304443359375">
        <ele>884.79998779296875</ele>
        <time>2016-08-12T21:32:59.000Z</time>
        <extensions>
          <ns3:TrackPointExtension>
            <ns3:atemp>15.0</ns3:atemp>
            <ns3:hr>144</ns3:hr>
          </ns3:TrackPointExtension>
        </extensions>
      </trkpt>
      <trkpt lat="-22.0241521485149860382080078125" lon="166.470459960401058197021484375">
        <ele>885</ele>
        <time>2016-08-12T21:33:00.000Z</time>
        <extensions>
          <ns3:TrackPointExtension>
            <ns3:atemp>15.0</ns3:atemp>
            <ns3:hr>144</ns3:hr>
          </ns3:TrackPointExtension>
        </extensions>
      </trkpt>
      <trkpt lat="-22.0241645537316799163818359375" lon="166.4704675041139125823974609375">
        <ele>885.4000244140625</ele>
        <time>2016-08-12T21:33:01.000Z</time>
        <extensions>
          <ns3:TrackPointExtension>
            <ns3:atemp>15.0</ns3:atemp>
            <ns3:hr>144</ns3:hr>
          </ns3:TrackPointExtension>
        </extensions>
      </trkpt>
      <trkpt lat="-22.02417117543518543243408203125" lon="166.4704812504351139068603515625">
        <ele>885.5999755859375</ele>
        <time>2016-08-12T21:33:02.000Z</time>
        <extensions>
          <ns3:TrackPointExtension>
            <ns3:atemp>15.0</ns3:atemp>
            <ns3:hr>145</ns3:hr>
          </ns3:TrackPointExtension>
        </extensions>
      </trkpt>
      <trkpt lat="-22.02417905442416667938232421875" lon="166.47049290128052234649658203125">
        <ele>885.79998779296875</ele>
        <time>2016-08-12T21:33:03.000Z</time>
        <extensions>
          <ns3:TrackPointExtension>
            <ns3:atemp>15.0</ns3:atemp>
            <ns3:hr>144</ns3:hr>
          </ns3:TrackPointExtension>
        </extensions>
      </trkpt>
      <trkpt lat="-22.0242027752101421356201171875" lon="166.4705000258982181549072265625">
        <ele>885.79998779296875</ele>
        <time>2016-08-12T21:33:04.000Z</time>
        <extensions>
          <ns3:TrackPointExtension>
            <ns3:atemp>15.0</ns3:atemp>
            <ns3:hr>145</ns3:hr>
          </ns3:TrackPointExtension>
        </extensions>
      </trkpt>
      <trkpt lat="-22.02423018403351306915283203125" lon="166.4705104194581508636474609375">
        <ele>885.5999755859375</ele>
        <time>2016-08-12T21:33:05.000Z</time>
        <extensions>
          <ns3:TrackPointExtension>
            <ns3:atemp>15.0</ns3:atemp>
            <ns3:hr>145</ns3:hr>
          </ns3:TrackPointExtension>
        </extensions>
      </trkpt>
      <trkpt lat="-22.02425499446690082550048828125" lon="166.470522321760654449462890625">
        <ele>885.79998779296875</ele>
        <time>2016-08-12T21:33:06.000Z</time>
        <extensions>
          <ns3:TrackPointExtension>
            <ns3:atemp>15.0</ns3:atemp>
            <ns3:hr>145</ns3:hr>
          </ns3:TrackPointExtension>
        </extensions>
      </trkpt>
      <trkpt lat="-22.0242822356522083282470703125" lon="166.47053263150155544281005859375">
        <ele>886.4000244140625</ele>
        <time>2016-08-12T21:33:07.000Z</time>
        <extensions>
          <ns3:TrackPointExtension>
            <ns3:atemp>15.0</ns3:atemp>
            <ns3:hr>145</ns3:hr>
          </ns3:TrackPointExtension>
        </extensions>
      </trkpt>
      <trkpt lat="-22.02430344186723232269287109375" lon="166.47054235450923442840576171875">
        <ele>886</ele>
        <time>2016-08-12T21:33:08.000Z</time>
        <extensions>
          <ns3:TrackPointExtension>
            <ns3:atemp>15.0</ns3:atemp>
            <ns3:hr>145</ns3:hr>
          </ns3:TrackPointExtension>
        </extensions>
      </trkpt>
      <trkpt lat="-22.0243211276829242706298828125" lon="166.47054411470890045166015625">
        <ele>885.79998779296875</ele>
        <time>2016-08-12T21:33:09.000Z</time>
        <extensions>
          <ns3:TrackPointExtension>
            <ns3:atemp>15.0</ns3:atemp>
            <ns3:hr>145</ns3:hr>
          </ns3:TrackPointExtension>
        </extensions>
      </trkpt>
      <trkpt lat="-22.02434333972632884979248046875" lon="166.47055040113627910614013671875">
        <ele>886.5999755859375</ele>
        <time>2016-08-12T21:33:10.000Z</time>
        <extensions>
          <ns3:TrackPointExtension>
            <ns3:atemp>15.0</ns3:atemp>
            <ns3:hr>145</ns3:hr>
          </ns3:TrackPointExtension>
        </extensions>
      </trkpt>
      <trkpt lat="-22.02435725368559360504150390625" lon="166.47055727429687976837158203125">
        <ele>886.4000244140625</ele>
        <time>2016-08-12T21:33:11.000Z</time>
        <extensions>
          <ns3:TrackPointExtension>
            <ns3:atemp>15.0</ns3:atemp>
            <ns3:hr>146</ns3:hr>
          </ns3:TrackPointExtension>
        </extensions>
      </trkpt>
      <trkpt lat="-22.02437636442482471466064453125" lon="166.4705742895603179931640625">
        <ele>886.20001220703125</ele>
        <time>2016-08-12T21:33:12.000Z</time>
        <extensions>
          <ns3:TrackPointExtension>
            <ns3:atemp>15.0</ns3:atemp>
            <ns3:hr>146</ns3:hr>
          </ns3:TrackPointExtension>
        </extensions>
      </trkpt>
      <trkpt lat="-22.02439463697373867034912109375" lon="166.47057588212192058563232421875">
        <ele>886</ele>
        <time>2016-08-12T21:33:13.000Z</time>
        <extensions>
          <ns3:TrackPointExtension>
            <ns3:atemp>15.0</ns3:atemp>
            <ns3:hr>146</ns3:hr>
          </ns3:TrackPointExtension>
        </extensions>
      </trkpt>
      <trkpt lat="-22.0244146697223186492919921875" lon="166.47058007307350635528564453125">
        <ele>886.4000244140625</ele>
        <time>2016-08-12T21:33:14.000Z</time>
        <extensions>
          <ns3:TrackPointExtension>
            <ns3:atemp>15.0</ns3:atemp>
            <ns3:hr>146</ns3:hr>
          </ns3:TrackPointExtension>
        </extensions>
      </trkpt>
      <trkpt lat="-22.02442816458642482757568359375" lon="166.47058694623410701751708984375">
        <ele>886.20001220703125</ele>
        <time>2016-08-12T21:33:15.000Z</time>
        <extensions>
          <ns3:TrackPointExtension>
            <ns3:atemp>15.0</ns3:atemp>
            <ns3:hr>146</ns3:hr>
          </ns3:TrackPointExtension>
        </extensions>
      </trkpt>
      <trkpt lat="-22.0244408212602138519287109375" lon="166.4705925621092319488525390625">
        <ele>886.4000244140625</ele>
        <time>2016-08-12T21:33:16.000Z</time>
        <extensions>
          <ns3:TrackPointExtension>
            <ns3:atemp>15.0</ns3:atemp>
            <ns3:hr>146</ns3:hr>
          </ns3:TrackPointExtension>
        </extensions>
      </trkpt>
      <trkpt lat="-22.024457417428493499755859375" lon="166.47060387767851352691650390625">
        <ele>886.5999755859375</ele>
        <time>2016-08-12T21:33:17.000Z</time>
        <extensions>
          <ns3:TrackPointExtension>
            <ns3:atemp>15.0</ns3:atemp>
            <ns3:hr>145</ns3:hr>
          </ns3:TrackPointExtension>
        </extensions>
      </trkpt>
      <trkpt lat="-22.02447677962481975555419921875" lon="166.47061661817133426666259765625">
        <ele>886.5999755859375</ele>
        <time>2016-08-12T21:33:18.000Z</time>
        <extensions>
          <ns3:TrackPointExtension>
            <ns3:atemp>15.0</ns3:atemp>
            <ns3:hr>146</ns3:hr>
          </ns3:TrackPointExtension>
        </extensions>
      </trkpt>
      <trkpt lat="-22.02448834665119647979736328125" lon="166.4706274308264255523681640625">
        <ele>886.5999755859375</ele>
        <time>2016-08-12T21:33:19.000Z</time>
        <extensions>
          <ns3:TrackPointExtension>
            <ns3:atemp>15.0</ns3:atemp>
            <ns3:hr>146</ns3:hr>
          </ns3:TrackPointExtension>
        </extensions>
      </trkpt>
      <trkpt lat="-22.0245045237243175506591796875" lon="166.47063103504478931427001953125">
        <ele>887</ele>
        <time>2016-08-12T21:33:20.000Z</time>
        <extensions>
          <ns3:TrackPointExtension>
            <ns3:atemp>15.0</ns3:atemp>
            <ns3:hr>145</ns3:hr>
          </ns3:TrackPointExtension>
        </extensions>
      </trkpt>
      <trkpt lat="-22.02451583929359912872314453125" lon="166.47063539363443851470947265625">
        <ele>887</ele>
        <time>2016-08-12T21:33:21.000Z</time>
        <extensions>
          <ns3:TrackPointExtension>
            <ns3:atemp>15.0</ns3:atemp>
            <ns3:hr>146</ns3:hr>
          </ns3:TrackPointExtension>
        </extensions>
      </trkpt>
      <trkpt lat="-22.0245303399860858917236328125" lon="166.47064394317567348480224609375">
        <ele>886.5999755859375</ele>
        <time>2016-08-12T21:33:22.000Z</time>
        <extensions>
          <ns3:TrackPointExtension>
            <ns3:atemp>15.0</ns3:atemp>
            <ns3:hr>146</ns3:hr>
          </ns3:TrackPointExtension>
        </extensions>
      </trkpt>
      <trkpt lat="-22.02455439604818820953369140625" lon="166.4706435240805149078369140625">
        <ele>886.4000244140625</ele>
        <time>2016-08-12T21:33:23.000Z</time>
        <extensions>
          <ns3:TrackPointExtension>
            <ns3:atemp>15.0</ns3:atemp>
            <ns3:hr>146</ns3:hr>
          </ns3:TrackPointExtension>
        </extensions>
      </trkpt>
      <trkpt lat="-22.024573422968387603759765625" lon="166.47064603865146636962890625">
        <ele>886.4000244140625</ele>
        <time>2016-08-12T21:33:24.000Z</time>
        <extensions>
          <ns3:TrackPointExtension>
            <ns3:atemp>15.0</ns3:atemp>
            <ns3:hr>146</ns3:hr>
          </ns3:TrackPointExtension>
        </extensions>
      </trkpt>
      <trkpt lat="-22.0245839841663837432861328125" lon="166.47066221572458744049072265625">
        <ele>886.4000244140625</ele>
        <time>2016-08-12T21:33:25.000Z</time>
        <extensions>
          <ns3:TrackPointExtension>
            <ns3:atemp>15.0</ns3:atemp>
            <ns3:hr>146</ns3:hr>
          </ns3:TrackPointExtension>
        </extensions>
      </trkpt>
      <trkpt lat="-22.02459161169826984405517578125" lon="166.47067965008318424224853515625">
        <ele>886.5999755859375</ele>
        <time>2016-08-12T21:33:26.000Z</time>
        <extensions>
          <ns3:TrackPointExtension>
            <ns3:atemp>15.0</ns3:atemp>
            <ns3:hr>146</ns3:hr>
          </ns3:TrackPointExtension>
        </extensions>
      </trkpt>
      <trkpt lat="-22.0246057771146297454833984375" lon="166.470689289271831512451171875">
        <ele>887</ele>
        <time>2016-08-12T21:33:27.000Z</time>
        <extensions>
          <ns3:TrackPointExtension>
            <ns3:atemp>15.0</ns3:atemp>
            <ns3:hr>146</ns3:hr>
          </ns3:TrackPointExtension>
        </extensions>
      </trkpt>
      <trkpt lat="-22.02462145127356052398681640625" lon="166.47070261649787425994873046875">
        <ele>887.4000244140625</ele>
        <time>2016-08-12T21:33:28.000Z</time>
        <extensions>
          <ns3:TrackPointExtension>
            <ns3:atemp>15.0</ns3:atemp>
            <ns3:hr>146</ns3:hr>
          </ns3:TrackPointExtension>
        </extensions>
      </trkpt>
      <trkpt lat="-22.02463301829993724822998046875" lon="166.47071309387683868408203125">
        <ele>887.4000244140625</ele>
        <time>2016-08-12T21:33:29.000Z</time>
        <extensions>
          <ns3:TrackPointExtension>
            <ns3:atemp>15.0</ns3:atemp>
            <ns3:hr>145</ns3:hr>
          </ns3:TrackPointExtension>
        </extensions>
      </trkpt>
      <trkpt lat="-22.024649865925312042236328125" lon="166.47072357125580310821533203125">
        <ele>887.4000244140625</ele>
        <time>2016-08-12T21:33:30.000Z</time>
        <extensions>
          <ns3:TrackPointExtension>
            <ns3:atemp>15.0</ns3:atemp>
            <ns3:hr>145</ns3:hr>
          </ns3:TrackPointExtension>
        </extensions>
      </trkpt>
      <trkpt lat="-22.02468565665185451507568359375" lon="166.4707169495522975921630859375">
        <ele>887.5999755859375</ele>
        <time>2016-08-12T21:33:31.000Z</time>
        <extensions>
          <ns3:TrackPointExtension>
            <ns3:atemp>15.0</ns3:atemp>
            <ns3:hr>145</ns3:hr>
          </ns3:TrackPointExtension>
        </extensions>
      </trkpt>
      <trkpt lat="-22.02470476739108562469482421875" lon="166.4707213081419467926025390625">
        <ele>887.5999755859375</ele>
        <time>2016-08-12T21:33:32.000Z</time>
        <extensions>
          <ns3:TrackPointExtension>
            <ns3:atemp>15.0</ns3:atemp>
            <ns3:hr>145</ns3:hr>
          </ns3:TrackPointExtension>
        </extensions>
      </trkpt>
      <trkpt lat="-22.02472991310060024261474609375" lon="166.47073279134929180145263671875">
        <ele>887.20001220703125</ele>
        <time>2016-08-12T21:33:33.000Z</time>
        <extensions>
          <ns3:TrackPointExtension>
            <ns3:atemp>15.0</ns3:atemp>
            <ns3:hr>145</ns3:hr>
          </ns3:TrackPointExtension>
        </extensions>
      </trkpt>
      <trkpt lat="-22.02475036494433879852294921875" lon="166.47074553184211254119873046875">
        <ele>886.5999755859375</ele>
        <time>2016-08-12T21:33:34.000Z</time>
        <extensions>
          <ns3:TrackPointExtension>
            <ns3:atemp>15.0</ns3:atemp>
            <ns3:hr>145</ns3:hr>
          </ns3:TrackPointExtension>
        </extensions>
      </trkpt>
      <trkpt lat="-22.02477090060710906982421875" lon="166.47076003253459930419921875">
        <ele>886.79998779296875</ele>
        <time>2016-08-12T21:33:35.000Z</time>
        <extensions>
          <ns3:TrackPointExtension>
            <ns3:atemp>15.0</ns3:atemp>
            <ns3:hr>145</ns3:hr>
          </ns3:TrackPointExtension>
        </extensions>
      </trkpt>
      <trkpt lat="-22.0247863233089447021484375" lon="166.4707712642848491668701171875">
        <ele>887.20001220703125</ele>
        <time>2016-08-12T21:33:36.000Z</time>
        <extensions>
          <ns3:TrackPointExtension>
            <ns3:atemp>15.0</ns3:atemp>
            <ns3:hr>144</ns3:hr>
          </ns3:TrackPointExtension>
        </extensions>
      </trkpt>
      <trkpt lat="-22.02481088228523731231689453125" lon="166.47078140638768672943115234375">
        <ele>887.20001220703125</ele>
        <time>2016-08-12T21:33:37.000Z</time>
        <extensions>
          <ns3:TrackPointExtension>
            <ns3:atemp>15.0</ns3:atemp>
            <ns3:hr>144</ns3:hr>
          </ns3:TrackPointExtension>
        </extensions>
      </trkpt>
      <trkpt lat="-22.02482798136770725250244140625" lon="166.47078727371990680694580078125">
        <ele>887</ele>
        <time>2016-08-12T21:33:38.000Z</time>
        <extensions>
          <ns3:TrackPointExtension>
            <ns3:atemp>15.0</ns3:atemp>
            <ns3:hr>144</ns3:hr>
          </ns3:TrackPointExtension>
        </extensions>
      </trkpt>
      <trkpt lat="-22.0248518697917461395263671875" lon="166.47079766727983951568603515625">
        <ele>887.5999755859375</ele>
        <time>2016-08-12T21:33:39.000Z</time>
        <extensions>
          <ns3:TrackPointExtension>
            <ns3:atemp>15.0</ns3:atemp>
            <ns3:hr>144</ns3:hr>
          </ns3:TrackPointExtension>
        </extensions>
      </trkpt>
      <trkpt lat="-22.0248734951019287109375" lon="166.47080361843109130859375">
        <ele>887.79998779296875</ele>
        <time>2016-08-12T21:33:40.000Z</time>
        <extensions>
          <ns3:TrackPointExtension>
            <ns3:atemp>15.0</ns3:atemp>
            <ns3:hr>145</ns3:hr>
          </ns3:TrackPointExtension>
        </extensions>
      </trkpt>
      <trkpt lat="-22.02488422393798828125" lon="166.47081610746681690216064453125">
        <ele>887.79998779296875</ele>
        <time>2016-08-12T21:33:41.000Z</time>
        <extensions>
          <ns3:TrackPointExtension>
            <ns3:atemp>15.0</ns3:atemp>
            <ns3:hr>144</ns3:hr>
          </ns3:TrackPointExtension>
        </extensions>
      </trkpt>
      <trkpt lat="-22.02489738352596759796142578125" lon="166.47083203308284282684326171875">
        <ele>888</ele>
        <time>2016-08-12T21:33:42.000Z</time>
        <extensions>
          <ns3:TrackPointExtension>
            <ns3:atemp>15.0</ns3:atemp>
            <ns3:hr>144</ns3:hr>
          </ns3:TrackPointExtension>
        </extensions>
      </trkpt>
      <trkpt lat="-22.02491649426519870758056640625" lon="166.4708403311669826507568359375">
        <ele>888.20001220703125</ele>
        <time>2016-08-12T21:33:43.000Z</time>
        <extensions>
          <ns3:TrackPointExtension>
            <ns3:atemp>15.0</ns3:atemp>
            <ns3:hr>145</ns3:hr>
          </ns3:TrackPointExtension>
        </extensions>
      </trkpt>
      <trkpt lat="-22.02493124641478061676025390625" lon="166.470846198499202728271484375">
        <ele>888</ele>
        <time>2016-08-12T21:33:44.000Z</time>
        <extensions>
          <ns3:TrackPointExtension>
            <ns3:atemp>15.0</ns3:atemp>
            <ns3:hr>145</ns3:hr>
          </ns3:TrackPointExtension>
        </extensions>
      </trkpt>
      <trkpt lat="-22.02494717203080654144287109375" lon="166.47085533477365970611572265625">
        <ele>887.79998779296875</ele>
        <time>2016-08-12T21:33:45.000Z</time>
        <extensions>
          <ns3:TrackPointExtension>
            <ns3:atemp>15.0</ns3:atemp>
            <ns3:hr>144</ns3:hr>
          </ns3:TrackPointExtension>
        </extensions>
      </trkpt>
      <trkpt lat="-22.02496242709457874298095703125" lon="166.47086539305746555328369140625">
        <ele>888.20001220703125</ele>
        <time>2016-08-12T21:33:46.000Z</time>
        <extensions>
          <ns3:TrackPointExtension>
            <ns3:atemp>15.0</ns3:atemp>
            <ns3:hr>144</ns3:hr>
          </ns3:TrackPointExtension>
        </extensions>
      </trkpt>
      <trkpt lat="-22.0249826274812221527099609375" lon="166.47087939083576202392578125">
        <ele>888.4000244140625</ele>
        <time>2016-08-12T21:33:47.000Z</time>
        <extensions>
          <ns3:TrackPointExtension>
            <ns3:atemp>15.0</ns3:atemp>
            <ns3:hr>144</ns3:hr>
          </ns3:TrackPointExtension>
        </extensions>
      </trkpt>
      <trkpt lat="-22.02499327249825000762939453125" lon="166.4708876051008701324462890625">
        <ele>888.79998779296875</ele>
        <time>2016-08-12T21:33:48.000Z</time>
        <extensions>
          <ns3:TrackPointExtension>
            <ns3:atemp>15.0</ns3:atemp>
            <ns3:hr>144</ns3:hr>
          </ns3:TrackPointExtension>
        </extensions>
      </trkpt>
      <trkpt lat="-22.02500249259173870086669921875" lon="166.4708899520337581634521484375">
        <ele>889.20001220703125</ele>
        <time>2016-08-12T21:33:49.000Z</time>
        <extensions>
          <ns3:TrackPointExtension>
            <ns3:atemp>15.0</ns3:atemp>
            <ns3:hr>144</ns3:hr>
          </ns3:TrackPointExtension>
        </extensions>
      </trkpt>
      <trkpt lat="-22.02500618062913417816162109375" lon="166.470891125500202178955078125">
        <ele>889.79998779296875</ele>
        <time>2016-08-12T21:33:50.000Z</time>
        <extensions>
          <ns3:TrackPointExtension>
            <ns3:atemp>15.0</ns3:atemp>
            <ns3:hr>144</ns3:hr>
          </ns3:TrackPointExtension>
        </extensions>
      </trkpt>
      <trkpt lat="-22.02501607127487659454345703125" lon="166.4708731882274150848388671875">
        <ele>890.4000244140625</ele>
        <time>2016-08-12T21:33:52.000Z</time>
        <extensions>
          <ns3:TrackPointExtension>
            <ns3:atemp>15.0</ns3:atemp>
            <ns3:hr>143</ns3:hr>
          </ns3:TrackPointExtension>
        </extensions>
      </trkpt>
      <trkpt lat="-22.02502663247287273406982421875" lon="166.4708641357719898223876953125">
        <ele>890.4000244140625</ele>
        <time>2016-08-12T21:33:53.000Z</time>
        <extensions>
          <ns3:TrackPointExtension>
            <ns3:atemp>15.0</ns3:atemp>
            <ns3:hr>143</ns3:hr>
          </ns3:TrackPointExtension>
        </extensions>
      </trkpt>
      <trkpt lat="-22.02503602020442485809326171875" lon="166.4708570949733257293701171875">
        <ele>890.4000244140625</ele>
        <time>2016-08-12T21:33:54.000Z</time>
        <extensions>
          <ns3:TrackPointExtension>
            <ns3:atemp>15.0</ns3:atemp>
            <ns3:hr>142</ns3:hr>
          </ns3:TrackPointExtension>
        </extensions>
      </trkpt>
      <trkpt lat="-22.0250573940575122833251953125" lon="166.47084745578467845916748046875">
        <ele>890.4000244140625</ele>
        <time>2016-08-12T21:33:56.000Z</time>
        <extensions>
          <ns3:TrackPointExtension>
            <ns3:atemp>15.0</ns3:atemp>
            <ns3:hr>140</ns3:hr>
          </ns3:TrackPointExtension>
        </extensions>
      </trkpt>
      <trkpt lat="-22.0250919274985790252685546875" lon="166.47081912495195865631103515625">
        <ele>890.4000244140625</ele>
        <time>2016-08-12T21:33:58.000Z</time>
        <extensions>
          <ns3:TrackPointExtension>
            <ns3:atemp>15.0</ns3:atemp>
            <ns3:hr>139</ns3:hr>
          </ns3:TrackPointExtension>
        </extensions>
      </trkpt>
      <trkpt lat="-22.02510039322078227996826171875" lon="166.4708156883716583251953125">
        <ele>890.20001220703125</ele>
        <time>2016-08-12T21:33:59.000Z</time>
        <extensions>
          <ns3:TrackPointExtension>
            <ns3:atemp>15.0</ns3:atemp>
            <ns3:hr>139</ns3:hr>
          </ns3:TrackPointExtension>
        </extensions>
      </trkpt>
      <trkpt lat="-22.02510324306786060333251953125" lon="166.47081560455262660980224609375">
        <ele>890.20001220703125</ele>
        <time>2016-08-12T21:34:00.000Z</time>
        <extensions>
          <ns3:TrackPointExtension>
            <ns3:atemp>15.0</ns3:atemp>
            <ns3:hr>139</ns3:hr>
          </ns3:TrackPointExtension>
        </extensions>
      </trkpt>
      <trkpt lat="-22.025122605264186859130859375" lon="166.470803953707218170166015625">
        <ele>890.20001220703125</ele>
        <time>2016-08-12T21:34:01.000Z</time>
        <extensions>
          <ns3:TrackPointExtension>
            <ns3:atemp>15.0</ns3:atemp>
            <ns3:hr>139</ns3:hr>
          </ns3:TrackPointExtension>
        </extensions>
      </trkpt>
      <trkpt lat="-22.02513459138572216033935546875" lon="166.47079414688050746917724609375">
        <ele>890</ele>
        <time>2016-08-12T21:34:02.000Z</time>
        <extensions>
          <ns3:TrackPointExtension>
            <ns3:atemp>15.0</ns3:atemp>
            <ns3:hr>139</ns3:hr>
          </ns3:TrackPointExtension>
        </extensions>
      </trkpt>
      <trkpt lat="-22.02514733187854290008544921875" lon="166.470791883766651153564453125">
        <ele>890</ele>
        <time>2016-08-12T21:34:03.000Z</time>
        <extensions>
          <ns3:TrackPointExtension>
            <ns3:atemp>15.0</ns3:atemp>
            <ns3:hr>139</ns3:hr>
          </ns3:TrackPointExtension>
        </extensions>
      </trkpt>
      <trkpt lat="-22.02516116201877593994140625" lon="166.47078878246247768402099609375">
        <ele>890</ele>
        <time>2016-08-12T21:34:04.000Z</time>
        <extensions>
          <ns3:TrackPointExtension>
            <ns3:atemp>15.0</ns3:atemp>
            <ns3:hr>139</ns3:hr>
          </ns3:TrackPointExtension>
        </extensions>
      </trkpt>
      <trkpt lat="-22.02518572099506855010986328125" lon="166.4707897044718265533447265625">
        <ele>889.79998779296875</ele>
        <time>2016-08-12T21:34:05.000Z</time>
        <extensions>
          <ns3:TrackPointExtension>
            <ns3:atemp>15.0</ns3:atemp>
            <ns3:hr>139</ns3:hr>
          </ns3:TrackPointExtension>
        </extensions>
      </trkpt>
      <trkpt lat="-22.0252074301242828369140625" lon="166.4707990922033786773681640625">
        <ele>889</ele>
        <time>2016-08-12T21:34:06.000Z</time>
        <extensions>
          <ns3:TrackPointExtension>
            <ns3:atemp>15.0</ns3:atemp>
            <ns3:hr>140</ns3:hr>
          </ns3:TrackPointExtension>
        </extensions>
      </trkpt>
      <trkpt lat="-22.025235928595066070556640625" lon="166.4708044566214084625244140625">
        <ele>888</ele>
        <time>2016-08-12T21:34:07.000Z</time>
        <extensions>
          <ns3:TrackPointExtension>
            <ns3:atemp>15.0</ns3:atemp>
            <ns3:hr>140</ns3:hr>
          </ns3:TrackPointExtension>
        </extensions>
      </trkpt>
      <trkpt lat="-22.02526451088488101959228515625" lon="166.47081258706748485565185546875">
        <ele>888</ele>
        <time>2016-08-12T21:34:08.000Z</time>
        <extensions>
          <ns3:TrackPointExtension>
            <ns3:atemp>15.0</ns3:atemp>
            <ns3:hr>140</ns3:hr>
          </ns3:TrackPointExtension>
        </extensions>
      </trkpt>
      <trkpt lat="-22.02528647147119045257568359375" lon="166.47082583047449588775634765625">
        <ele>887.79998779296875</ele>
        <time>2016-08-12T21:34:09.000Z</time>
        <extensions>
          <ns3:TrackPointExtension>
            <ns3:atemp>15.0</ns3:atemp>
            <ns3:hr>141</ns3:hr>
          </ns3:TrackPointExtension>
        </extensions>
      </trkpt>
      <trkpt lat="-22.0253028161823749542236328125" lon="166.4708389900624752044677734375">
        <ele>887.4000244140625</ele>
        <time>2016-08-12T21:34:10.000Z</time>
        <extensions>
          <ns3:TrackPointExtension>
            <ns3:atemp>15.0</ns3:atemp>
            <ns3:hr>142</ns3:hr>
          </ns3:TrackPointExtension>
        </extensions>
      </trkpt>
      <trkpt lat="-22.0253212563693523406982421875" lon="166.47085122764110565185546875">
        <ele>887.4000244140625</ele>
        <time>2016-08-12T21:34:11.000Z</time>
        <extensions>
          <ns3:TrackPointExtension>
            <ns3:atemp>15.0</ns3:atemp>
            <ns3:hr>142</ns3:hr>
          </ns3:TrackPointExtension>
        </extensions>
      </trkpt>
      <trkpt lat="-22.02534145675599575042724609375" lon="166.4708564244210720062255859375">
        <ele>887.5999755859375</ele>
        <time>2016-08-12T21:34:12.000Z</time>
        <extensions>
          <ns3:TrackPointExtension>
            <ns3:atemp>15.0</ns3:atemp>
            <ns3:hr>142</ns3:hr>
          </ns3:TrackPointExtension>
        </extensions>
      </trkpt>
      <trkpt lat="-22.02535922639071941375732421875" lon="166.4708581008017063140869140625">
        <ele>888</ele>
        <time>2016-08-12T21:34:13.000Z</time>
        <extensions>
          <ns3:TrackPointExtension>
            <ns3:atemp>15.0</ns3:atemp>
            <ns3:hr>141</ns3:hr>
          </ns3:TrackPointExtension>
        </extensions>
      </trkpt>
      <trkpt lat="-22.0253722183406352996826171875" lon="166.47086354903876781463623046875">
        <ele>887.79998779296875</ele>
        <time>2016-08-12T21:34:14.000Z</time>
        <extensions>
          <ns3:TrackPointExtension>
            <ns3:atemp>15.0</ns3:atemp>
            <ns3:hr>141</ns3:hr>
          </ns3:TrackPointExtension>
        </extensions>
      </trkpt>
      <trkpt lat="-22.02538738958537578582763671875" lon="166.47087109275162220001220703125">
        <ele>886.4000244140625</ele>
        <time>2016-08-12T21:34:15.000Z</time>
        <extensions>
          <ns3:TrackPointExtension>
            <ns3:atemp>15.0</ns3:atemp>
            <ns3:hr>141</ns3:hr>
          </ns3:TrackPointExtension>
        </extensions>
      </trkpt>
      <trkpt lat="-22.0254037342965602874755859375" lon="166.47087880410254001617431640625">
        <ele>884.79998779296875</ele>
        <time>2016-08-12T21:34:16.000Z</time>
        <extensions>
          <ns3:TrackPointExtension>
            <ns3:atemp>15.0</ns3:atemp>
            <ns3:hr>140</ns3:hr>
          </ns3:TrackPointExtension>
        </extensions>
      </trkpt>
      <trkpt lat="-22.02541974373161792755126953125" lon="166.47088835947215557098388671875">
        <ele>884.5999755859375</ele>
        <time>2016-08-12T21:34:17.000Z</time>
        <extensions>
          <ns3:TrackPointExtension>
            <ns3:atemp>15.0</ns3:atemp>
            <ns3:hr>140</ns3:hr>
          </ns3:TrackPointExtension>
        </extensions>
      </trkpt>
      <trkpt lat="-22.02543918974697589874267578125" lon="166.470894478261470794677734375">
        <ele>884.79998779296875</ele>
        <time>2016-08-12T21:34:18.000Z</time>
        <extensions>
          <ns3:TrackPointExtension>
            <ns3:atemp>15.0</ns3:atemp>
            <ns3:hr>139</ns3:hr>
          </ns3:TrackPointExtension>
        </extensions>
      </trkpt>
      <trkpt lat="-22.0254577137529850006103515625" lon="166.47089556790888309478759765625">
        <ele>884.79998779296875</ele>
        <time>2016-08-12T21:34:19.000Z</time>
        <extensions>
          <ns3:TrackPointExtension>
            <ns3:atemp>15.0</ns3:atemp>
            <ns3:hr>139</ns3:hr>
          </ns3:TrackPointExtension>
        </extensions>
      </trkpt>
      <trkpt lat="-22.0254754833877086639404296875" lon="166.47089825011789798736572265625">
        <ele>884.79998779296875</ele>
        <time>2016-08-12T21:34:20.000Z</time>
        <extensions>
          <ns3:TrackPointExtension>
            <ns3:atemp>15.0</ns3:atemp>
            <ns3:hr>139</ns3:hr>
          </ns3:TrackPointExtension>
        </extensions>
      </trkpt>
      <trkpt lat="-22.0254935882985591888427734375" lon="166.470905207097530364990234375">
        <ele>885.20001220703125</ele>
        <time>2016-08-12T21:34:21.000Z</time>
        <extensions>
          <ns3:TrackPointExtension>
            <ns3:atemp>15.0</ns3:atemp>
            <ns3:hr>139</ns3:hr>
          </ns3:TrackPointExtension>
        </extensions>
      </trkpt>
      <trkpt lat="-22.0255143754184246063232421875" lon="166.47089607082307338714599609375">
        <ele>885.79998779296875</ele>
        <time>2016-08-12T21:34:22.000Z</time>
        <extensions>
          <ns3:TrackPointExtension>
            <ns3:atemp>15.0</ns3:atemp>
            <ns3:hr>139</ns3:hr>
          </ns3:TrackPointExtension>
        </extensions>
      </trkpt>
      <trkpt lat="-22.0255308039486408233642578125" lon="166.47088433615863323211669921875">
        <ele>885.79998779296875</ele>
        <time>2016-08-12T21:34:23.000Z</time>
        <extensions>
          <ns3:TrackPointExtension>
            <ns3:atemp>15.0</ns3:atemp>
            <ns3:hr>138</ns3:hr>
          </ns3:TrackPointExtension>
        </extensions>
      </trkpt>
      <trkpt lat="-22.02555402182042598724365234375" lon="166.47087293677031993865966796875">
        <ele>885.79998779296875</ele>
        <time>2016-08-12T21:34:24.000Z</time>
        <extensions>
          <ns3:TrackPointExtension>
            <ns3:atemp>15.0</ns3:atemp>
            <ns3:hr>138</ns3:hr>
          </ns3:TrackPointExtension>
        </extensions>
      </trkpt>
      <trkpt lat="-22.02557665295898914337158203125" lon="166.47086271084845066070556640625">
        <ele>886</ele>
        <time>2016-08-12T21:34:25.000Z</time>
        <extensions>
          <ns3:TrackPointExtension>
            <ns3:atemp>15.0</ns3:atemp>
            <ns3:hr>138</ns3:hr>
          </ns3:TrackPointExtension>
        </extensions>
      </trkpt>
      <trkpt lat="-22.02559811063110828399658203125" lon="166.47084854543209075927734375">
        <ele>886.4000244140625</ele>
        <time>2016-08-12T21:34:26.000Z</time>
        <extensions>
          <ns3:TrackPointExtension>
            <ns3:atemp>15.0</ns3:atemp>
            <ns3:hr>138</ns3:hr>
          </ns3:TrackPointExtension>
        </extensions>
      </trkpt>
      <trkpt lat="-22.02561588026583194732666015625" lon="166.4708456955850124359130859375">
        <ele>886.4000244140625</ele>
        <time>2016-08-12T21:34:27.000Z</time>
        <extensions>
          <ns3:TrackPointExtension>
            <ns3:atemp>15.0</ns3:atemp>
            <ns3:hr>138</ns3:hr>
          </ns3:TrackPointExtension>
        </extensions>
      </trkpt>
      <trkpt lat="-22.0256365835666656494140625" lon="166.47084225900471210479736328125">
        <ele>886.4000244140625</ele>
        <time>2016-08-12T21:34:28.000Z</time>
        <extensions>
          <ns3:TrackPointExtension>
            <ns3:atemp>15.0</ns3:atemp>
            <ns3:hr>137</ns3:hr>
          </ns3:TrackPointExtension>
        </extensions>
      </trkpt>
      <trkpt lat="-22.02565611340105533599853515625" lon="166.47084041498601436614990234375">
        <ele>886.5999755859375</ele>
        <time>2016-08-12T21:34:29.000Z</time>
        <extensions>
          <ns3:TrackPointExtension>
            <ns3:atemp>15.0</ns3:atemp>
            <ns3:hr>137</ns3:hr>
          </ns3:TrackPointExtension>
        </extensions>
      </trkpt>
      <trkpt lat="-22.02568016946315765380859375" lon="166.47083538584411144256591796875">
        <ele>886.79998779296875</ele>
        <time>2016-08-12T21:34:30.000Z</time>
        <extensions>
          <ns3:TrackPointExtension>
            <ns3:atemp>15.0</ns3:atemp>
            <ns3:hr>138</ns3:hr>
          </ns3:TrackPointExtension>
        </extensions>
      </trkpt>
      <trkpt lat="-22.02570120804011821746826171875" lon="166.47082985378801822662353515625">
        <ele>886.79998779296875</ele>
        <time>2016-08-12T21:34:31.000Z</time>
        <extensions>
          <ns3:TrackPointExtension>
            <ns3:atemp>15.0</ns3:atemp>
            <ns3:hr>138</ns3:hr>
          </ns3:TrackPointExtension>
        </extensions>
      </trkpt>
      <trkpt lat="-22.02571998350322246551513671875" lon="166.47082851268351078033447265625">
        <ele>886.79998779296875</ele>
        <time>2016-08-12T21:34:32.000Z</time>
        <extensions>
          <ns3:TrackPointExtension>
            <ns3:atemp>15.0</ns3:atemp>
            <ns3:hr>138</ns3:hr>
          </ns3:TrackPointExtension>
        </extensions>
      </trkpt>
      <trkpt lat="-22.025740183889865875244140625" lon="166.470817029476165771484375">
        <ele>887.20001220703125</ele>
        <time>2016-08-12T21:34:33.000Z</time>
        <extensions>
          <ns3:TrackPointExtension>
            <ns3:atemp>15.0</ns3:atemp>
            <ns3:hr>138</ns3:hr>
          </ns3:TrackPointExtension>
        </extensions>
      </trkpt>
      <trkpt lat="-22.02575518749654293060302734375" lon="166.4708121679723262786865234375">
        <ele>887.20001220703125</ele>
        <time>2016-08-12T21:34:34.000Z</time>
        <extensions>
          <ns3:TrackPointExtension>
            <ns3:atemp>15.0</ns3:atemp>
            <ns3:hr>138</ns3:hr>
          </ns3:TrackPointExtension>
        </extensions>
      </trkpt>
      <trkpt lat="-22.0257705263793468475341796875" lon="166.47080722264945507049560546875">
        <ele>887.20001220703125</ele>
        <time>2016-08-12T21:34:35.000Z</time>
        <extensions>
          <ns3:TrackPointExtension>
            <ns3:atemp>15.0</ns3:atemp>
            <ns3:hr>138</ns3:hr>
          </ns3:TrackPointExtension>
        </extensions>
      </trkpt>
      <trkpt lat="-22.02578770928084850311279296875" lon="166.47080353461205959320068359375">
        <ele>887.20001220703125</ele>
        <time>2016-08-12T21:34:36.000Z</time>
        <extensions>
          <ns3:TrackPointExtension>
            <ns3:atemp>15.0</ns3:atemp>
            <ns3:hr>138</ns3:hr>
          </ns3:TrackPointExtension>
        </extensions>
      </trkpt>
      <trkpt lat="-22.025806903839111328125" lon="166.47079951129853725433349609375">
        <ele>887.5999755859375</ele>
        <time>2016-08-12T21:34:37.000Z</time>
        <extensions>
          <ns3:TrackPointExtension>
            <ns3:atemp>15.0</ns3:atemp>
            <ns3:hr>139</ns3:hr>
          </ns3:TrackPointExtension>
        </extensions>
      </trkpt>
      <trkpt lat="-22.0258305408060550689697265625" lon="166.470791883766651153564453125">
        <ele>888</ele>
        <time>2016-08-12T21:34:38.000Z</time>
        <extensions>
          <ns3:TrackPointExtension>
            <ns3:atemp>15.0</ns3:atemp>
            <ns3:hr>138</ns3:hr>
          </ns3:TrackPointExtension>
        </extensions>
      </trkpt>
      <trkpt lat="-22.0258530043065547943115234375" lon="166.4707866869866847991943359375">
        <ele>887.79998779296875</ele>
        <time>2016-08-12T21:34:39.000Z</time>
        <extensions>
          <ns3:TrackPointExtension>
            <ns3:atemp>15.0</ns3:atemp>
            <ns3:hr>139</ns3:hr>
          </ns3:TrackPointExtension>
        </extensions>
      </trkpt>
      <trkpt lat="-22.02587001956999301910400390625" lon="166.4707863517105579376220703125">
        <ele>888</ele>
        <time>2016-08-12T21:34:40.000Z</time>
        <extensions>
          <ns3:TrackPointExtension>
            <ns3:atemp>15.0</ns3:atemp>
            <ns3:hr>139</ns3:hr>
          </ns3:TrackPointExtension>
        </extensions>
      </trkpt>
      <trkpt lat="-22.02588393352925777435302734375" lon="166.4707900397479534149169921875">
        <ele>888</ele>
        <time>2016-08-12T21:34:41.000Z</time>
        <extensions>
          <ns3:TrackPointExtension>
            <ns3:atemp>15.0</ns3:atemp>
            <ns3:hr>139</ns3:hr>
          </ns3:TrackPointExtension>
        </extensions>
      </trkpt>
      <trkpt lat="-22.0258972607553005218505859375" lon="166.47077470086514949798583984375">
        <ele>888</ele>
        <time>2016-08-12T21:34:42.000Z</time>
        <extensions>
          <ns3:TrackPointExtension>
            <ns3:atemp>15.0</ns3:atemp>
            <ns3:hr>139</ns3:hr>
          </ns3:TrackPointExtension>
        </extensions>
      </trkpt>
      <trkpt lat="-22.02592735178768634796142578125" lon="166.4707612060010433197021484375">
        <ele>888.20001220703125</ele>
        <time>2016-08-12T21:34:43.000Z</time>
        <extensions>
          <ns3:TrackPointExtension>
            <ns3:atemp>15.0</ns3:atemp>
            <ns3:hr>139</ns3:hr>
          </ns3:TrackPointExtension>
        </extensions>
      </trkpt>
      <trkpt lat="-22.02594998292624950408935546875" lon="166.47075827233493328094482421875">
        <ele>888.20001220703125</ele>
        <time>2016-08-12T21:34:44.000Z</time>
        <extensions>
          <ns3:TrackPointExtension>
            <ns3:atemp>15.0</ns3:atemp>
            <ns3:hr>139</ns3:hr>
          </ns3:TrackPointExtension>
        </extensions>
      </trkpt>
      <trkpt lat="-22.02597814612090587615966796875" lon="166.47075173445045948028564453125">
        <ele>887.79998779296875</ele>
        <time>2016-08-12T21:34:45.000Z</time>
        <extensions>
          <ns3:TrackPointExtension>
            <ns3:atemp>15.0</ns3:atemp>
            <ns3:hr>139</ns3:hr>
          </ns3:TrackPointExtension>
        </extensions>
      </trkpt>
      <trkpt lat="-22.02599507756531238555908203125" lon="166.470742262899875640869140625">
        <ele>887.79998779296875</ele>
        <time>2016-08-12T21:34:46.000Z</time>
        <extensions>
          <ns3:TrackPointExtension>
            <ns3:atemp>15.0</ns3:atemp>
            <ns3:hr>138</ns3:hr>
          </ns3:TrackPointExtension>
        </extensions>
      </trkpt>
      <trkpt lat="-22.02601217664778232574462890625" lon="166.47073010914027690887451171875">
        <ele>887.79998779296875</ele>
        <time>2016-08-12T21:34:47.000Z</time>
        <extensions>
          <ns3:TrackPointExtension>
            <ns3:atemp>15.0</ns3:atemp>
            <ns3:hr>138</ns3:hr>
          </ns3:TrackPointExtension>
        </extensions>
      </trkpt>
      <trkpt lat="-22.02602977864444255828857421875" lon="166.47072256542742252349853515625">
        <ele>887.79998779296875</ele>
        <time>2016-08-12T21:34:48.000Z</time>
        <extensions>
          <ns3:TrackPointExtension>
            <ns3:atemp>15.0</ns3:atemp>
            <ns3:hr>138</ns3:hr>
          </ns3:TrackPointExtension>
        </extensions>
      </trkpt>
      <trkpt lat="-22.02604302205145359039306640625" lon="166.47071711719036102294921875">
        <ele>888</ele>
        <time>2016-08-12T21:34:49.000Z</time>
        <extensions>
          <ns3:TrackPointExtension>
            <ns3:atemp>15.0</ns3:atemp>
            <ns3:hr>137</ns3:hr>
          </ns3:TrackPointExtension>
        </extensions>
      </trkpt>
      <trkpt lat="-22.02604830265045166015625" lon="166.4707129262387752532958984375">
        <ele>887.79998779296875</ele>
        <time>2016-08-12T21:34:50.000Z</time>
        <extensions>
          <ns3:TrackPointExtension>
            <ns3:atemp>15.0</ns3:atemp>
            <ns3:hr>137</ns3:hr>
          </ns3:TrackPointExtension>
        </extensions>
      </trkpt>
      <trkpt lat="-22.02604235149919986724853515625" lon="166.47069607861340045928955078125">
        <ele>887.79998779296875</ele>
        <time>2016-08-12T21:34:51.000Z</time>
        <extensions>
          <ns3:TrackPointExtension>
            <ns3:atemp>15.0</ns3:atemp>
            <ns3:hr>137</ns3:hr>
          </ns3:TrackPointExtension>
        </extensions>
      </trkpt>
      <trkpt lat="-22.0260612107813358306884765625" lon="166.4706891216337680816650390625">
        <ele>887.5999755859375</ele>
        <time>2016-08-12T21:34:52.000Z</time>
        <extensions>
          <ns3:TrackPointExtension>
            <ns3:atemp>15.0</ns3:atemp>
            <ns3:hr>137</ns3:hr>
          </ns3:TrackPointExtension>
        </extensions>
      </trkpt>
      <trkpt lat="-22.026076801121234893798828125" lon="166.47067562676966190338134765625">
        <ele>887.79998779296875</ele>
        <time>2016-08-12T21:34:53.000Z</time>
        <extensions>
          <ns3:TrackPointExtension>
            <ns3:atemp>15.0</ns3:atemp>
            <ns3:hr>136</ns3:hr>
          </ns3:TrackPointExtension>
        </extensions>
      </trkpt>
      <trkpt lat="-22.026099264621734619140625" lon="166.4706639759242534637451171875">
        <ele>888.20001220703125</ele>
        <time>2016-08-12T21:34:54.000Z</time>
        <extensions>
          <ns3:TrackPointExtension>
            <ns3:atemp>15.0</ns3:atemp>
            <ns3:hr>137</ns3:hr>
          </ns3:TrackPointExtension>
        </extensions>
      </trkpt>
      <trkpt lat="-22.02611762098968029022216796875" lon="166.47064872086048126220703125">
        <ele>888.20001220703125</ele>
        <time>2016-08-12T21:34:55.000Z</time>
        <extensions>
          <ns3:TrackPointExtension>
            <ns3:atemp>15.0</ns3:atemp>
            <ns3:hr>137</ns3:hr>
          </ns3:TrackPointExtension>
        </extensions>
      </trkpt>
      <trkpt lat="-22.02613958157598972320556640625" lon="166.47063539363443851470947265625">
        <ele>888.20001220703125</ele>
        <time>2016-08-12T21:34:56.000Z</time>
        <extensions>
          <ns3:TrackPointExtension>
            <ns3:atemp>15.0</ns3:atemp>
            <ns3:hr>137</ns3:hr>
          </ns3:TrackPointExtension>
        </extensions>
      </trkpt>
      <trkpt lat="-22.02616439200937747955322265625" lon="166.4706203900277614593505859375">
        <ele>888.20001220703125</ele>
        <time>2016-08-12T21:34:57.000Z</time>
        <extensions>
          <ns3:TrackPointExtension>
            <ns3:atemp>15.0</ns3:atemp>
            <ns3:hr>138</ns3:hr>
          </ns3:TrackPointExtension>
        </extensions>
      </trkpt>
      <trkpt lat="-22.02619037590920925140380859375" lon="166.47060982882976531982421875">
        <ele>888.5999755859375</ele>
        <time>2016-08-12T21:34:58.000Z</time>
        <extensions>
          <ns3:TrackPointExtension>
            <ns3:atemp>15.0</ns3:atemp>
            <ns3:hr>138</ns3:hr>
          </ns3:TrackPointExtension>
        </extensions>
      </trkpt>
      <trkpt lat="-22.0262151025235652923583984375" lon="166.4706019498407840728759765625">
        <ele>889</ele>
        <time>2016-08-12T21:34:59.000Z</time>
        <extensions>
          <ns3:TrackPointExtension>
            <ns3:atemp>15.0</ns3:atemp>
            <ns3:hr>139</ns3:hr>
          </ns3:TrackPointExtension>
        </extensions>
      </trkpt>
      <trkpt lat="-22.02625592239201068878173828125" lon="166.4706083200871944427490234375">
        <ele>889</ele>
        <time>2016-08-12T21:35:00.000Z</time>
        <extensions>
          <ns3:TrackPointExtension>
            <ns3:atemp>15.0</ns3:atemp>
            <ns3:hr>139</ns3:hr>
          </ns3:TrackPointExtension>
        </extensions>
      </trkpt>
      <trkpt lat="-22.0262814871966838836669921875" lon="166.4706110022962093353271484375">
        <ele>888.79998779296875</ele>
        <time>2016-08-12T21:35:01.000Z</time>
        <extensions>
          <ns3:TrackPointExtension>
            <ns3:atemp>15.0</ns3:atemp>
            <ns3:hr>139</ns3:hr>
          </ns3:TrackPointExtension>
        </extensions>
      </trkpt>
      <trkpt lat="-22.0263002626597881317138671875" lon="166.47060940973460674285888671875">
        <ele>889.20001220703125</ele>
        <time>2016-08-12T21:35:02.000Z</time>
        <extensions>
          <ns3:TrackPointExtension>
            <ns3:atemp>15.0</ns3:atemp>
            <ns3:hr>139</ns3:hr>
          </ns3:TrackPointExtension>
        </extensions>
      </trkpt>
      <trkpt lat="-22.0263307727873325347900390625" lon="166.47062030620872974395751953125">
        <ele>889.5999755859375</ele>
        <time>2016-08-12T21:35:03.000Z</time>
        <extensions>
          <ns3:TrackPointExtension>
            <ns3:atemp>15.0</ns3:atemp>
            <ns3:hr>139</ns3:hr>
          </ns3:TrackPointExtension>
        </extensions>
      </trkpt>
      <trkpt lat="-22.02636036090552806854248046875" lon="166.47061494179069995880126953125">
        <ele>889.5999755859375</ele>
        <time>2016-08-12T21:35:04.000Z</time>
        <extensions>
          <ns3:TrackPointExtension>
            <ns3:atemp>15.0</ns3:atemp>
            <ns3:hr>139</ns3:hr>
          </ns3:TrackPointExtension>
        </extensions>
      </trkpt>
      <trkpt lat="-22.0263813994824886322021484375" lon="166.47061158902943134307861328125">
        <ele>889.5999755859375</ele>
        <time>2016-08-12T21:35:05.000Z</time>
        <extensions>
          <ns3:TrackPointExtension>
            <ns3:atemp>15.0</ns3:atemp>
            <ns3:hr>139</ns3:hr>
          </ns3:TrackPointExtension>
        </extensions>
      </trkpt>
      <trkpt lat="-22.026400677859783172607421875" lon="166.47060622461140155792236328125">
        <ele>890</ele>
        <time>2016-08-12T21:35:06.000Z</time>
        <extensions>
          <ns3:TrackPointExtension>
            <ns3:atemp>15.0</ns3:atemp>
            <ns3:hr>139</ns3:hr>
          </ns3:TrackPointExtension>
        </extensions>
      </trkpt>
      <trkpt lat="-22.02642205171287059783935546875" lon="166.47060421295464038848876953125">
        <ele>890.20001220703125</ele>
        <time>2016-08-12T21:35:07.000Z</time>
        <extensions>
          <ns3:TrackPointExtension>
            <ns3:atemp>15.0</ns3:atemp>
            <ns3:hr>140</ns3:hr>
          </ns3:TrackPointExtension>
        </extensions>
      </trkpt>
      <trkpt lat="-22.026451639831066131591796875" lon="166.4706022851169109344482421875">
        <ele>889.79998779296875</ele>
        <time>2016-08-12T21:35:08.000Z</time>
        <extensions>
          <ns3:TrackPointExtension>
            <ns3:atemp>15.0</ns3:atemp>
            <ns3:hr>140</ns3:hr>
          </ns3:TrackPointExtension>
        </extensions>
      </trkpt>
      <trkpt lat="-22.026470415294170379638671875" lon="166.47059834562242031097412109375">
        <ele>889.79998779296875</ele>
        <time>2016-08-12T21:35:09.000Z</time>
        <extensions>
          <ns3:TrackPointExtension>
            <ns3:atemp>15.0</ns3:atemp>
            <ns3:hr>140</ns3:hr>
          </ns3:TrackPointExtension>
        </extensions>
      </trkpt>
      <trkpt lat="-22.02649447135627269744873046875" lon="166.47059348411858081817626953125">
        <ele>890</ele>
        <time>2016-08-12T21:35:10.000Z</time>
        <extensions>
          <ns3:TrackPointExtension>
            <ns3:atemp>15.0</ns3:atemp>
            <ns3:hr>140</ns3:hr>
          </ns3:TrackPointExtension>
        </extensions>
      </trkpt>
      <trkpt lat="-22.02652062289416790008544921875" lon="166.47059348411858081817626953125">
        <ele>890</ele>
        <time>2016-08-12T21:35:11.000Z</time>
        <extensions>
          <ns3:TrackPointExtension>
            <ns3:atemp>15.0</ns3:atemp>
            <ns3:hr>140</ns3:hr>
          </ns3:TrackPointExtension>
        </extensions>
      </trkpt>
      <trkpt lat="-22.0265456847846508026123046875" lon="166.47059365175664424896240234375">
        <ele>889.79998779296875</ele>
        <time>2016-08-12T21:35:12.000Z</time>
        <extensions>
          <ns3:TrackPointExtension>
            <ns3:atemp>15.0</ns3:atemp>
            <ns3:hr>140</ns3:hr>
          </ns3:TrackPointExtension>
        </extensions>
      </trkpt>
      <trkpt lat="-22.02656957320868968963623046875" lon="166.4705932326614856719970703125">
        <ele>890.20001220703125</ele>
        <time>2016-08-12T21:35:13.000Z</time>
        <extensions>
          <ns3:TrackPointExtension>
            <ns3:atemp>15.0</ns3:atemp>
            <ns3:hr>140</ns3:hr>
          </ns3:TrackPointExtension>
        </extensions>
      </trkpt>
      <trkpt lat="-22.0265914499759674072265625" lon="166.4705935679376125335693359375">
        <ele>890.20001220703125</ele>
        <time>2016-08-12T21:35:14.000Z</time>
        <extensions>
          <ns3:TrackPointExtension>
            <ns3:atemp>15.0</ns3:atemp>
            <ns3:hr>140</ns3:hr>
          </ns3:TrackPointExtension>
        </extensions>
      </trkpt>
      <trkpt lat="-22.02660955488681793212890625" lon="166.47059448994696140289306640625">
        <ele>890.20001220703125</ele>
        <time>2016-08-12T21:35:15.000Z</time>
        <extensions>
          <ns3:TrackPointExtension>
            <ns3:atemp>15.0</ns3:atemp>
            <ns3:hr>140</ns3:hr>
          </ns3:TrackPointExtension>
        </extensions>
      </trkpt>
      <trkpt lat="-22.02662522904574871063232421875" lon="166.47060303948819637298583984375">
        <ele>890</ele>
        <time>2016-08-12T21:35:16.000Z</time>
        <extensions>
          <ns3:TrackPointExtension>
            <ns3:atemp>15.0</ns3:atemp>
            <ns3:hr>140</ns3:hr>
          </ns3:TrackPointExtension>
        </extensions>
      </trkpt>
      <trkpt lat="-22.02664081938564777374267578125" lon="166.4706037938594818115234375">
        <ele>890.4000244140625</ele>
        <time>2016-08-12T21:35:17.000Z</time>
        <extensions>
          <ns3:TrackPointExtension>
            <ns3:atemp>15.0</ns3:atemp>
            <ns3:hr>140</ns3:hr>
          </ns3:TrackPointExtension>
        </extensions>
      </trkpt>
      <trkpt lat="-22.02665590681135654449462890625" lon="166.4706036262214183807373046875">
        <ele>890.5999755859375</ele>
        <time>2016-08-12T21:35:18.000Z</time>
        <extensions>
          <ns3:TrackPointExtension>
            <ns3:atemp>15.0</ns3:atemp>
            <ns3:hr>140</ns3:hr>
          </ns3:TrackPointExtension>
        </extensions>
      </trkpt>
      <trkpt lat="-22.0266727544367313385009765625" lon="166.47060446441173553466796875">
        <ele>890.5999755859375</ele>
        <time>2016-08-12T21:35:19.000Z</time>
        <extensions>
          <ns3:TrackPointExtension>
            <ns3:atemp>15.0</ns3:atemp>
            <ns3:hr>140</ns3:hr>
          </ns3:TrackPointExtension>
        </extensions>
      </trkpt>
      <trkpt lat="-22.026683986186981201171875" lon="166.470602788031101226806640625">
        <ele>890.5999755859375</ele>
        <time>2016-08-12T21:35:20.000Z</time>
        <extensions>
          <ns3:TrackPointExtension>
            <ns3:atemp>15.0</ns3:atemp>
            <ns3:hr>139</ns3:hr>
          </ns3:TrackPointExtension>
        </extensions>
      </trkpt>
      <trkpt lat="-22.02669446356594562530517578125" lon="166.47060186602175235748291015625">
        <ele>890.5999755859375</ele>
        <time>2016-08-12T21:35:21.000Z</time>
        <extensions>
          <ns3:TrackPointExtension>
            <ns3:atemp>15.0</ns3:atemp>
            <ns3:hr>139</ns3:hr>
          </ns3:TrackPointExtension>
        </extensions>
      </trkpt>
      <trkpt lat="-22.02670636586844921112060546875" lon="166.4706032909452915191650390625">
        <ele>890.4000244140625</ele>
        <time>2016-08-12T21:35:22.000Z</time>
        <extensions>
          <ns3:TrackPointExtension>
            <ns3:atemp>15.0</ns3:atemp>
            <ns3:hr>139</ns3:hr>
          </ns3:TrackPointExtension>
        </extensions>
      </trkpt>
      <trkpt lat="-22.02672245912253856658935546875" lon="166.470602117478847503662109375">
        <ele>890.4000244140625</ele>
        <time>2016-08-12T21:35:23.000Z</time>
        <extensions>
          <ns3:TrackPointExtension>
            <ns3:atemp>15.0</ns3:atemp>
            <ns3:hr>140</ns3:hr>
          </ns3:TrackPointExtension>
        </extensions>
      </trkpt>
      <trkpt lat="-22.02674492262303829193115234375" lon="166.47060371004045009613037109375">
        <ele>890.79998779296875</ele>
        <time>2016-08-12T21:35:24.000Z</time>
        <extensions>
          <ns3:TrackPointExtension>
            <ns3:atemp>15.0</ns3:atemp>
            <ns3:hr>140</ns3:hr>
          </ns3:TrackPointExtension>
        </extensions>
      </trkpt>
      <trkpt lat="-22.02676403336226940155029296875" lon="166.47060303948819637298583984375">
        <ele>891</ele>
        <time>2016-08-12T21:35:25.000Z</time>
        <extensions>
          <ns3:TrackPointExtension>
            <ns3:atemp>15.0</ns3:atemp>
            <ns3:hr>139</ns3:hr>
          </ns3:TrackPointExtension>
        </extensions>
      </trkpt>
      <trkpt lat="-22.0267833955585956573486328125" lon="166.470598764717578887939453125">
        <ele>890.79998779296875</ele>
        <time>2016-08-12T21:35:26.000Z</time>
        <extensions>
          <ns3:TrackPointExtension>
            <ns3:atemp>15.0</ns3:atemp>
            <ns3:hr>140</ns3:hr>
          </ns3:TrackPointExtension>
        </extensions>
      </trkpt>
      <trkpt lat="-22.02680460177361965179443359375" lon="166.47059096954762935638427734375">
        <ele>891</ele>
        <time>2016-08-12T21:35:27.000Z</time>
        <extensions>
          <ns3:TrackPointExtension>
            <ns3:atemp>15.0</ns3:atemp>
            <ns3:hr>139</ns3:hr>
          </ns3:TrackPointExtension>
        </extensions>
      </trkpt>
      <trkpt lat="-22.0268226228654384613037109375" lon="166.4705855213105678558349609375">
        <ele>891.4000244140625</ele>
        <time>2016-08-12T21:35:28.000Z</time>
        <extensions>
          <ns3:TrackPointExtension>
            <ns3:atemp>15.0</ns3:atemp>
            <ns3:hr>139</ns3:hr>
          </ns3:TrackPointExtension>
        </extensions>
      </trkpt>
      <trkpt lat="-22.026846595108509063720703125" lon="166.470582671463489532470703125">
        <ele>891.4000244140625</ele>
        <time>2016-08-12T21:35:29.000Z</time>
        <extensions>
          <ns3:TrackPointExtension>
            <ns3:atemp>15.0</ns3:atemp>
            <ns3:hr>139</ns3:hr>
          </ns3:TrackPointExtension>
        </extensions>
      </trkpt>
      <trkpt lat="-22.0268729142844676971435546875" lon="166.47058074362576007843017578125">
        <ele>891.20001220703125</ele>
        <time>2016-08-12T21:35:30.000Z</time>
        <extensions>
          <ns3:TrackPointExtension>
            <ns3:atemp>15.0</ns3:atemp>
            <ns3:hr>140</ns3:hr>
          </ns3:TrackPointExtension>
        </extensions>
      </trkpt>
      <trkpt lat="-22.02689588069915771484375" lon="166.4705811627209186553955078125">
        <ele>891.20001220703125</ele>
        <time>2016-08-12T21:35:31.000Z</time>
        <extensions>
          <ns3:TrackPointExtension>
            <ns3:atemp>15.0</ns3:atemp>
            <ns3:hr>139</ns3:hr>
          </ns3:TrackPointExtension>
        </extensions>
      </trkpt>
      <trkpt lat="-22.02692446298897266387939453125" lon="166.4705657400190830230712890625">
        <ele>891.4000244140625</ele>
        <time>2016-08-12T21:35:32.000Z</time>
        <extensions>
          <ns3:TrackPointExtension>
            <ns3:atemp>15.0</ns3:atemp>
            <ns3:hr>139</ns3:hr>
          </ns3:TrackPointExtension>
        </extensions>
      </trkpt>
      <trkpt lat="-22.0269483514130115509033203125" lon="166.4705528318881988525390625">
        <ele>891.4000244140625</ele>
        <time>2016-08-12T21:35:33.000Z</time>
        <extensions>
          <ns3:TrackPointExtension>
            <ns3:atemp>15.0</ns3:atemp>
            <ns3:hr>140</ns3:hr>
          </ns3:TrackPointExtension>
        </extensions>
      </trkpt>
      <trkpt lat="-22.0269751735031604766845703125" lon="166.47054101340472698211669921875">
        <ele>891.79998779296875</ele>
        <time>2016-08-12T21:35:34.000Z</time>
        <extensions>
          <ns3:TrackPointExtension>
            <ns3:atemp>15.0</ns3:atemp>
            <ns3:hr>139</ns3:hr>
          </ns3:TrackPointExtension>
        </extensions>
      </trkpt>
      <trkpt lat="-22.02700316905975341796875" lon="166.47053296677768230438232421875">
        <ele>892</ele>
        <time>2016-08-12T21:35:35.000Z</time>
        <extensions>
          <ns3:TrackPointExtension>
            <ns3:atemp>15.0</ns3:atemp>
            <ns3:hr>140</ns3:hr>
          </ns3:TrackPointExtension>
        </extensions>
      </trkpt>
      <trkpt lat="-22.02702739275991916656494140625" lon="166.47052475251257419586181640625">
        <ele>891.79998779296875</ele>
        <time>2016-08-12T21:35:36.000Z</time>
        <extensions>
          <ns3:TrackPointExtension>
            <ns3:atemp>15.0</ns3:atemp>
            <ns3:hr>140</ns3:hr>
          </ns3:TrackPointExtension>
        </extensions>
      </trkpt>
      <trkpt lat="-22.027051784098148345947265625" lon="166.4705167897045612335205078125">
        <ele>891.5999755859375</ele>
        <time>2016-08-12T21:35:37.000Z</time>
        <extensions>
          <ns3:TrackPointExtension>
            <ns3:atemp>15.0</ns3:atemp>
            <ns3:hr>140</ns3:hr>
          </ns3:TrackPointExtension>
        </extensions>
      </trkpt>
      <trkpt lat="-22.0270777679979801177978515625" lon="166.47050924599170684814453125">
        <ele>892.20001220703125</ele>
        <time>2016-08-12T21:35:38.000Z</time>
        <extensions>
          <ns3:TrackPointExtension>
            <ns3:atemp>15.0</ns3:atemp>
            <ns3:hr>140</ns3:hr>
          </ns3:TrackPointExtension>
        </extensions>
      </trkpt>
      <trkpt lat="-22.02709930948913097381591796875" lon="166.47050279192626476287841796875">
        <ele>892.20001220703125</ele>
        <time>2016-08-12T21:35:39.000Z</time>
        <extensions>
          <ns3:TrackPointExtension>
            <ns3:atemp>15.0</ns3:atemp>
            <ns3:hr>140</ns3:hr>
          </ns3:TrackPointExtension>
        </extensions>
      </trkpt>
      <trkpt lat="-22.0271260477602481842041015625" lon="166.47048401646316051483154296875">
        <ele>892</ele>
        <time>2016-08-12T21:35:40.000Z</time>
        <extensions>
          <ns3:TrackPointExtension>
            <ns3:atemp>15.0</ns3:atemp>
            <ns3:hr>140</ns3:hr>
          </ns3:TrackPointExtension>
        </extensions>
      </trkpt>
      <trkpt lat="-22.02714524231851100921630859375" lon="166.47046742029488086700439453125">
        <ele>892.20001220703125</ele>
        <time>2016-08-12T21:35:41.000Z</time>
        <extensions>
          <ns3:TrackPointExtension>
            <ns3:atemp>15.0</ns3:atemp>
            <ns3:hr>141</ns3:hr>
          </ns3:TrackPointExtension>
        </extensions>
      </trkpt>
      <trkpt lat="-22.02716921456158161163330078125" lon="166.4704510755836963653564453125">
        <ele>892.20001220703125</ele>
        <time>2016-08-12T21:35:42.000Z</time>
        <extensions>
          <ns3:TrackPointExtension>
            <ns3:atemp>15.0</ns3:atemp>
            <ns3:hr>140</ns3:hr>
          </ns3:TrackPointExtension>
        </extensions>
      </trkpt>
      <trkpt lat="-22.02718891203403472900390625" lon="166.4704289473593235015869140625">
        <ele>892.20001220703125</ele>
        <time>2016-08-12T21:35:43.000Z</time>
        <extensions>
          <ns3:TrackPointExtension>
            <ns3:atemp>15.0</ns3:atemp>
            <ns3:hr>141</ns3:hr>
          </ns3:TrackPointExtension>
        </extensions>
      </trkpt>
      <trkpt lat="-22.02721045352518558502197265625" lon="166.4704165421426296234130859375">
        <ele>892.20001220703125</ele>
        <time>2016-08-12T21:35:44.000Z</time>
        <extensions>
          <ns3:TrackPointExtension>
            <ns3:atemp>15.0</ns3:atemp>
            <ns3:hr>141</ns3:hr>
          </ns3:TrackPointExtension>
        </extensions>
      </trkpt>
      <trkpt lat="-22.02722939662635326385498046875" lon="166.4704064838588237762451171875">
        <ele>892.20001220703125</ele>
        <time>2016-08-12T21:35:45.000Z</time>
        <extensions>
          <ns3:TrackPointExtension>
            <ns3:atemp>15.0</ns3:atemp>
            <ns3:hr>141</ns3:hr>
          </ns3:TrackPointExtension>
        </extensions>
      </trkpt>
      <trkpt lat="-22.02725219540297985076904296875" lon="166.4704038016498088836669921875">
        <ele>892</ele>
        <time>2016-08-12T21:35:46.000Z</time>
        <extensions>
          <ns3:TrackPointExtension>
            <ns3:atemp>15.0</ns3:atemp>
            <ns3:hr>141</ns3:hr>
          </ns3:TrackPointExtension>
        </extensions>
      </trkpt>
      <trkpt lat="-22.0272675342857837677001953125" lon="166.470385529100894927978515625">
        <ele>892</ele>
        <time>2016-08-12T21:35:47.000Z</time>
        <extensions>
          <ns3:TrackPointExtension>
            <ns3:atemp>15.0</ns3:atemp>
            <ns3:hr>141</ns3:hr>
          </ns3:TrackPointExtension>
        </extensions>
      </trkpt>
      <trkpt lat="-22.02728387899696826934814453125" lon="166.47037069313228130340576171875">
        <ele>892</ele>
        <time>2016-08-12T21:35:48.000Z</time>
        <extensions>
          <ns3:TrackPointExtension>
            <ns3:atemp>15.0</ns3:atemp>
            <ns3:hr>141</ns3:hr>
          </ns3:TrackPointExtension>
        </extensions>
      </trkpt>
      <trkpt lat="-22.02730868943035602569580078125" lon="166.47035979665815830230712890625">
        <ele>892</ele>
        <time>2016-08-12T21:35:49.000Z</time>
        <extensions>
          <ns3:TrackPointExtension>
            <ns3:atemp>15.0</ns3:atemp>
            <ns3:hr>140</ns3:hr>
          </ns3:TrackPointExtension>
        </extensions>
      </trkpt>
      <trkpt lat="-22.0273396186530590057373046875" lon="166.4703501574695110321044921875">
        <ele>892.20001220703125</ele>
        <time>2016-08-12T21:35:50.000Z</time>
        <extensions>
          <ns3:TrackPointExtension>
            <ns3:atemp>15.0</ns3:atemp>
            <ns3:hr>140</ns3:hr>
          </ns3:TrackPointExtension>
        </extensions>
      </trkpt>
      <trkpt lat="-22.0273607410490512847900390625" lon="166.47034202702343463897705078125">
        <ele>892</ele>
        <time>2016-08-12T21:35:51.000Z</time>
        <extensions>
          <ns3:TrackPointExtension>
            <ns3:atemp>15.0</ns3:atemp>
            <ns3:hr>140</ns3:hr>
          </ns3:TrackPointExtension>
        </extensions>
      </trkpt>
      <trkpt lat="-22.02738479711115360260009765625" lon="166.4703233353793621063232421875">
        <ele>891.79998779296875</ele>
        <time>2016-08-12T21:35:52.000Z</time>
        <extensions>
          <ns3:TrackPointExtension>
            <ns3:atemp>15.0</ns3:atemp>
            <ns3:hr>140</ns3:hr>
          </ns3:TrackPointExtension>
        </extensions>
      </trkpt>
      <trkpt lat="-22.0274073444306850433349609375" lon="166.470307745039463043212890625">
        <ele>891.5999755859375</ele>
        <time>2016-08-12T21:35:53.000Z</time>
        <extensions>
          <ns3:TrackPointExtension>
            <ns3:atemp>15.0</ns3:atemp>
            <ns3:hr>140</ns3:hr>
          </ns3:TrackPointExtension>
        </extensions>
      </trkpt>
      <trkpt lat="-22.0274298079311847686767578125" lon="166.47029290907084941864013671875">
        <ele>891.79998779296875</ele>
        <time>2016-08-12T21:35:54.000Z</time>
        <extensions>
          <ns3:TrackPointExtension>
            <ns3:atemp>15.0</ns3:atemp>
            <ns3:hr>140</ns3:hr>
          </ns3:TrackPointExtension>
        </extensions>
      </trkpt>
      <trkpt lat="-22.027448751032352447509765625" lon="166.47028134204447269439697265625">
        <ele>891.79998779296875</ele>
        <time>2016-08-12T21:35:55.000Z</time>
        <extensions>
          <ns3:TrackPointExtension>
            <ns3:atemp>15.0</ns3:atemp>
            <ns3:hr>140</ns3:hr>
          </ns3:TrackPointExtension>
        </extensions>
      </trkpt>
      <trkpt lat="-22.0274660177528858184814453125" lon="166.4702673442661762237548828125">
        <ele>891.5999755859375</ele>
        <time>2016-08-12T21:35:56.000Z</time>
        <extensions>
          <ns3:TrackPointExtension>
            <ns3:atemp>15.0</ns3:atemp>
            <ns3:hr>140</ns3:hr>
          </ns3:TrackPointExtension>
        </extensions>
      </trkpt>
      <trkpt lat="-22.02748102135956287384033203125" lon="166.47025577723979949951171875">
        <ele>891.5999755859375</ele>
        <time>2016-08-12T21:35:57.000Z</time>
        <extensions>
          <ns3:TrackPointExtension>
            <ns3:atemp>15.0</ns3:atemp>
            <ns3:hr>140</ns3:hr>
          </ns3:TrackPointExtension>
        </extensions>
      </trkpt>
      <trkpt lat="-22.027496360242366790771484375" lon="166.4702411927282810211181640625">
        <ele>891.4000244140625</ele>
        <time>2016-08-12T21:35:58.000Z</time>
        <extensions>
          <ns3:TrackPointExtension>
            <ns3:atemp>15.0</ns3:atemp>
            <ns3:hr>139</ns3:hr>
          </ns3:TrackPointExtension>
        </extensions>
      </trkpt>
      <trkpt lat="-22.027526199817657470703125" lon="166.4702163822948932647705078125">
        <ele>891</ele>
        <time>2016-08-12T21:35:59.000Z</time>
        <extensions>
          <ns3:TrackPointExtension>
            <ns3:atemp>15.0</ns3:atemp>
            <ns3:hr>139</ns3:hr>
          </ns3:TrackPointExtension>
        </extensions>
      </trkpt>
      <trkpt lat="-22.0275484956800937652587890625" lon="166.4701960980892181396484375">
        <ele>891</ele>
        <time>2016-08-12T21:36:00.000Z</time>
        <extensions>
          <ns3:TrackPointExtension>
            <ns3:atemp>15.0</ns3:atemp>
            <ns3:hr>139</ns3:hr>
          </ns3:TrackPointExtension>
        </extensions>
      </trkpt>
      <trkpt lat="-22.0275706239044666290283203125" lon="166.470178663730621337890625">
        <ele>891</ele>
        <time>2016-08-12T21:36:01.000Z</time>
        <extensions>
          <ns3:TrackPointExtension>
            <ns3:atemp>15.0</ns3:atemp>
            <ns3:hr>139</ns3:hr>
          </ns3:TrackPointExtension>
        </extensions>
      </trkpt>
      <trkpt lat="-22.02759526669979095458984375" lon="166.47016030736267566680908203125">
        <ele>890.79998779296875</ele>
        <time>2016-08-12T21:36:02.000Z</time>
        <extensions>
          <ns3:TrackPointExtension>
            <ns3:atemp>15.0</ns3:atemp>
            <ns3:hr>139</ns3:hr>
          </ns3:TrackPointExtension>
        </extensions>
      </trkpt>
      <trkpt lat="-22.027627788484096527099609375" lon="166.4701513387262821197509765625">
        <ele>890.5999755859375</ele>
        <time>2016-08-12T21:36:03.000Z</time>
        <extensions>
          <ns3:TrackPointExtension>
            <ns3:atemp>15.0</ns3:atemp>
            <ns3:hr>138</ns3:hr>
          </ns3:TrackPointExtension>
        </extensions>
      </trkpt>
      <trkpt lat="-22.0276490785181522369384765625" lon="166.47013239562511444091796875">
        <ele>890.5999755859375</ele>
        <time>2016-08-12T21:36:04.000Z</time>
        <extensions>
          <ns3:TrackPointExtension>
            <ns3:atemp>15.0</ns3:atemp>
            <ns3:hr>138</ns3:hr>
          </ns3:TrackPointExtension>
        </extensions>
      </trkpt>
      <trkpt lat="-22.02766777016222476959228515625" lon="166.47010624408721923828125">
        <ele>890.4000244140625</ele>
        <time>2016-08-12T21:36:05.000Z</time>
        <extensions>
          <ns3:TrackPointExtension>
            <ns3:atemp>15.0</ns3:atemp>
            <ns3:hr>138</ns3:hr>
          </ns3:TrackPointExtension>
        </extensions>
      </trkpt>
      <trkpt lat="-22.02768377959728240966796875" lon="166.4700834453105926513671875">
        <ele>890.4000244140625</ele>
        <time>2016-08-12T21:36:06.000Z</time>
        <extensions>
          <ns3:TrackPointExtension>
            <ns3:atemp>15.0</ns3:atemp>
            <ns3:hr>138</ns3:hr>
          </ns3:TrackPointExtension>
        </extensions>
      </trkpt>
      <trkpt lat="-22.02770632691681385040283203125" lon="166.47006341256201267242431640625">
        <ele>890.4000244140625</ele>
        <time>2016-08-12T21:36:07.000Z</time>
        <extensions>
          <ns3:TrackPointExtension>
            <ns3:atemp>15.0</ns3:atemp>
            <ns3:hr>138</ns3:hr>
          </ns3:TrackPointExtension>
        </extensions>
      </trkpt>
      <trkpt lat="-22.0277342386543750762939453125" lon="166.47004329599440097808837890625">
        <ele>890.4000244140625</ele>
        <time>2016-08-12T21:36:08.000Z</time>
        <extensions>
          <ns3:TrackPointExtension>
            <ns3:atemp>15.0</ns3:atemp>
            <ns3:hr>137</ns3:hr>
          </ns3:TrackPointExtension>
        </extensions>
      </trkpt>
      <trkpt lat="-22.02775661833584308624267578125" lon="166.47002267651259899139404296875">
        <ele>890.4000244140625</ele>
        <time>2016-08-12T21:36:09.000Z</time>
        <extensions>
          <ns3:TrackPointExtension>
            <ns3:atemp>15.0</ns3:atemp>
            <ns3:hr>137</ns3:hr>
          </ns3:TrackPointExtension>
        </extensions>
      </trkpt>
      <trkpt lat="-22.02777707017958164215087890625" lon="166.47000624798238277435302734375">
        <ele>890.20001220703125</ele>
        <time>2016-08-12T21:36:10.000Z</time>
        <extensions>
          <ns3:TrackPointExtension>
            <ns3:atemp>15.0</ns3:atemp>
            <ns3:hr>137</ns3:hr>
          </ns3:TrackPointExtension>
        </extensions>
      </trkpt>
      <trkpt lat="-22.0278029702603816986083984375" lon="166.46999694406986236572265625">
        <ele>890.4000244140625</ele>
        <time>2016-08-12T21:36:11.000Z</time>
        <extensions>
          <ns3:TrackPointExtension>
            <ns3:atemp>15.0</ns3:atemp>
            <ns3:hr>136</ns3:hr>
          </ns3:TrackPointExtension>
        </extensions>
      </trkpt>
      <trkpt lat="-22.02783121727406978607177734375" lon="166.469990909099578857421875">
        <ele>890.4000244140625</ele>
        <time>2016-08-12T21:36:12.000Z</time>
        <extensions>
          <ns3:TrackPointExtension>
            <ns3:atemp>15.0</ns3:atemp>
            <ns3:hr>136</ns3:hr>
          </ns3:TrackPointExtension>
        </extensions>
      </trkpt>
      <trkpt lat="-22.027863822877407073974609375" lon="166.46998814307153224945068359375">
        <ele>890.20001220703125</ele>
        <time>2016-08-12T21:36:13.000Z</time>
        <extensions>
          <ns3:TrackPointExtension>
            <ns3:atemp>15.0</ns3:atemp>
            <ns3:hr>135</ns3:hr>
          </ns3:TrackPointExtension>
        </extensions>
      </trkpt>
      <trkpt lat="-22.0278918184340000152587890625" lon="166.46998227573931217193603515625">
        <ele>890</ele>
        <time>2016-08-12T21:36:14.000Z</time>
        <extensions>
          <ns3:TrackPointExtension>
            <ns3:atemp>15.0</ns3:atemp>
            <ns3:hr>135</ns3:hr>
          </ns3:TrackPointExtension>
        </extensions>
      </trkpt>
      <trkpt lat="-22.0279193110764026641845703125" lon="166.46997414529323577880859375">
        <ele>890</ele>
        <time>2016-08-12T21:36:15.000Z</time>
        <extensions>
          <ns3:TrackPointExtension>
            <ns3:atemp>15.0</ns3:atemp>
            <ns3:hr>135</ns3:hr>
          </ns3:TrackPointExtension>
        </extensions>
      </trkpt>
      <trkpt lat="-22.02794671989977359771728515625" lon="166.4699672721326351165771484375">
        <ele>889.79998779296875</ele>
        <time>2016-08-12T21:36:16.000Z</time>
        <extensions>
          <ns3:TrackPointExtension>
            <ns3:atemp>15.0</ns3:atemp>
            <ns3:hr>135</ns3:hr>
          </ns3:TrackPointExtension>
        </extensions>
      </trkpt>
      <trkpt lat="-22.02797689475119113922119140625" lon="166.4699649251997470855712890625">
        <ele>889.5999755859375</ele>
        <time>2016-08-12T21:36:17.000Z</time>
        <extensions>
          <ns3:TrackPointExtension>
            <ns3:atemp>15.0</ns3:atemp>
            <ns3:hr>135</ns3:hr>
          </ns3:TrackPointExtension>
        </extensions>
      </trkpt>
      <trkpt lat="-22.02799935825169086456298828125" lon="166.46995645947754383087158203125">
        <ele>889.4000244140625</ele>
        <time>2016-08-12T21:36:18.000Z</time>
        <extensions>
          <ns3:TrackPointExtension>
            <ns3:atemp>15.0</ns3:atemp>
            <ns3:hr>135</ns3:hr>
          </ns3:TrackPointExtension>
        </extensions>
      </trkpt>
      <trkpt lat="-22.02802299521863460540771484375" lon="166.46995176561176776885986328125">
        <ele>889.4000244140625</ele>
        <time>2016-08-12T21:36:19.000Z</time>
        <extensions>
          <ns3:TrackPointExtension>
            <ns3:atemp>15.0</ns3:atemp>
            <ns3:hr>134</ns3:hr>
          </ns3:TrackPointExtension>
        </extensions>
      </trkpt>
      <trkpt lat="-22.0280453749001026153564453125" lon="166.46994673646986484527587890625">
        <ele>889.5999755859375</ele>
        <time>2016-08-12T21:36:20.000Z</time>
        <extensions>
          <ns3:TrackPointExtension>
            <ns3:atemp>15.0</ns3:atemp>
            <ns3:hr>134</ns3:hr>
          </ns3:TrackPointExtension>
        </extensions>
      </trkpt>
      <trkpt lat="-22.0280648209154605865478515625" lon="166.4699386060237884521484375">
        <ele>889.5999755859375</ele>
        <time>2016-08-12T21:36:21.000Z</time>
        <extensions>
          <ns3:TrackPointExtension>
            <ns3:atemp>15.0</ns3:atemp>
            <ns3:hr>134</ns3:hr>
          </ns3:TrackPointExtension>
        </extensions>
      </trkpt>
      <trkpt lat="-22.0280881226062774658203125" lon="166.46993315778672695159912109375">
        <ele>889.4000244140625</ele>
        <time>2016-08-12T21:36:22.000Z</time>
        <extensions>
          <ns3:TrackPointExtension>
            <ns3:atemp>15.0</ns3:atemp>
            <ns3:hr>134</ns3:hr>
          </ns3:TrackPointExtension>
        </extensions>
      </trkpt>
      <trkpt lat="-22.02811368741095066070556640625" lon="166.46992896683514118194580078125">
        <ele>889.4000244140625</ele>
        <time>2016-08-12T21:36:23.000Z</time>
        <extensions>
          <ns3:TrackPointExtension>
            <ns3:atemp>15.0</ns3:atemp>
            <ns3:hr>134</ns3:hr>
          </ns3:TrackPointExtension>
        </extensions>
      </trkpt>
      <trkpt lat="-22.02813799493014812469482421875" lon="166.46992209367454051971435546875">
        <ele>889</ele>
        <time>2016-08-12T21:36:24.000Z</time>
        <extensions>
          <ns3:TrackPointExtension>
            <ns3:atemp>15.0</ns3:atemp>
            <ns3:hr>134</ns3:hr>
          </ns3:TrackPointExtension>
        </extensions>
      </trkpt>
      <trkpt lat="-22.02816431410610675811767578125" lon="166.4699153043329715728759765625">
        <ele>889</ele>
        <time>2016-08-12T21:36:25.000Z</time>
        <extensions>
          <ns3:TrackPointExtension>
            <ns3:atemp>15.0</ns3:atemp>
            <ns3:hr>134</ns3:hr>
          </ns3:TrackPointExtension>
        </extensions>
      </trkpt>
      <trkpt lat="-22.02819130383431911468505859375" lon="166.46991086192429065704345703125">
        <ele>889.20001220703125</ele>
        <time>2016-08-12T21:36:26.000Z</time>
        <extensions>
          <ns3:TrackPointExtension>
            <ns3:atemp>15.0</ns3:atemp>
            <ns3:hr>134</ns3:hr>
          </ns3:TrackPointExtension>
        </extensions>
      </trkpt>
      <trkpt lat="-22.02821628190577030181884765625" lon="166.46990566514432430267333984375">
        <ele>889</ele>
        <time>2016-08-12T21:36:27.000Z</time>
        <extensions>
          <ns3:TrackPointExtension>
            <ns3:atemp>15.0</ns3:atemp>
            <ns3:hr>133</ns3:hr>
          </ns3:TrackPointExtension>
        </extensions>
      </trkpt>
      <trkpt lat="-22.02824109233915805816650390625" lon="166.46989795379340648651123046875">
        <ele>888.79998779296875</ele>
        <time>2016-08-12T21:36:28.000Z</time>
        <extensions>
          <ns3:TrackPointExtension>
            <ns3:atemp>15.0</ns3:atemp>
            <ns3:hr>133</ns3:hr>
          </ns3:TrackPointExtension>
        </extensions>
      </trkpt>
      <trkpt lat="-22.0282602868974208831787109375" lon="166.46988026797771453857421875">
        <ele>888.79998779296875</ele>
        <time>2016-08-12T21:36:29.000Z</time>
        <extensions>
          <ns3:TrackPointExtension>
            <ns3:atemp>15.0</ns3:atemp>
            <ns3:hr>133</ns3:hr>
          </ns3:TrackPointExtension>
        </extensions>
      </trkpt>
      <trkpt lat="-22.02827814035117626190185546875" lon="166.46987213753163814544677734375">
        <ele>888.79998779296875</ele>
        <time>2016-08-12T21:36:30.000Z</time>
        <extensions>
          <ns3:TrackPointExtension>
            <ns3:atemp>15.0</ns3:atemp>
            <ns3:hr>133</ns3:hr>
          </ns3:TrackPointExtension>
        </extensions>
      </trkpt>
      <trkpt lat="-22.02829104848206043243408203125" lon="166.4698646776378154754638671875">
        <ele>888.5999755859375</ele>
        <time>2016-08-12T21:36:31.000Z</time>
        <extensions>
          <ns3:TrackPointExtension>
            <ns3:atemp>15.0</ns3:atemp>
            <ns3:hr>132</ns3:hr>
          </ns3:TrackPointExtension>
        </extensions>
      </trkpt>
      <trkpt lat="-22.02830630354583263397216796875" lon="166.4698609896004199981689453125">
        <ele>888.5999755859375</ele>
        <time>2016-08-12T21:36:32.000Z</time>
        <extensions>
          <ns3:TrackPointExtension>
            <ns3:atemp>15.0</ns3:atemp>
            <ns3:hr>132</ns3:hr>
          </ns3:TrackPointExtension>
        </extensions>
      </trkpt>
      <trkpt lat="-22.02832608483731746673583984375" lon="166.46985637955367565155029296875">
        <ele>888.5999755859375</ele>
        <time>2016-08-12T21:36:33.000Z</time>
        <extensions>
          <ns3:TrackPointExtension>
            <ns3:atemp>15.0</ns3:atemp>
            <ns3:hr>131</ns3:hr>
          </ns3:TrackPointExtension>
        </extensions>
      </trkpt>
      <trkpt lat="-22.02835089527070522308349609375" lon="166.46985746920108795166015625">
        <ele>888.20001220703125</ele>
        <time>2016-08-12T21:36:34.000Z</time>
        <extensions>
          <ns3:TrackPointExtension>
            <ns3:atemp>15.0</ns3:atemp>
            <ns3:hr>131</ns3:hr>
          </ns3:TrackPointExtension>
        </extensions>
      </trkpt>
      <trkpt lat="-22.0283732749521732330322265625" lon="166.4698541164398193359375">
        <ele>887.79998779296875</ele>
        <time>2016-08-12T21:36:35.000Z</time>
        <extensions>
          <ns3:TrackPointExtension>
            <ns3:atemp>15.0</ns3:atemp>
            <ns3:hr>131</ns3:hr>
          </ns3:TrackPointExtension>
        </extensions>
      </trkpt>
      <trkpt lat="-22.02839733101427555084228515625" lon="166.469846405088901519775390625">
        <ele>888.5999755859375</ele>
        <time>2016-08-12T21:36:36.000Z</time>
        <extensions>
          <ns3:TrackPointExtension>
            <ns3:atemp>15.0</ns3:atemp>
            <ns3:hr>131</ns3:hr>
          </ns3:TrackPointExtension>
        </extensions>
      </trkpt>
      <trkpt lat="-22.02841208316385746002197265625" lon="166.46983928047120571136474609375">
        <ele>889</ele>
        <time>2016-08-12T21:36:37.000Z</time>
        <extensions>
          <ns3:TrackPointExtension>
            <ns3:atemp>15.0</ns3:atemp>
            <ns3:hr>132</ns3:hr>
          </ns3:TrackPointExtension>
        </extensions>
      </trkpt>
      <trkpt lat="-22.02842599712312221527099609375" lon="166.469823606312274932861328125">
        <ele>889</ele>
        <time>2016-08-12T21:36:38.000Z</time>
        <extensions>
          <ns3:TrackPointExtension>
            <ns3:atemp>15.0</ns3:atemp>
            <ns3:hr>132</ns3:hr>
          </ns3:TrackPointExtension>
        </extensions>
      </trkpt>
      <trkpt lat="-22.02844192273914813995361328125" lon="166.469814218580722808837890625">
        <ele>888.79998779296875</ele>
        <time>2016-08-12T21:36:39.000Z</time>
        <extensions>
          <ns3:TrackPointExtension>
            <ns3:atemp>15.0</ns3:atemp>
            <ns3:hr>132</ns3:hr>
          </ns3:TrackPointExtension>
        </extensions>
      </trkpt>
      <trkpt lat="-22.028459273278713226318359375" lon="166.46980860270559787750244140625">
        <ele>889</ele>
        <time>2016-08-12T21:36:40.000Z</time>
        <extensions>
          <ns3:TrackPointExtension>
            <ns3:atemp>15.0</ns3:atemp>
            <ns3:hr>132</ns3:hr>
          </ns3:TrackPointExtension>
        </extensions>
      </trkpt>
      <trkpt lat="-22.0284829102456569671630859375" lon="166.46980893798172473907470703125">
        <ele>889</ele>
        <time>2016-08-12T21:36:41.000Z</time>
        <extensions>
          <ns3:TrackPointExtension>
            <ns3:atemp>15.0</ns3:atemp>
            <ns3:hr>133</ns3:hr>
          </ns3:TrackPointExtension>
        </extensions>
      </trkpt>
      <trkpt lat="-22.0285047031939029693603515625" lon="166.469804160296916961669921875">
        <ele>888.79998779296875</ele>
        <time>2016-08-12T21:36:42.000Z</time>
        <extensions>
          <ns3:TrackPointExtension>
            <ns3:atemp>15.0</ns3:atemp>
            <ns3:hr>133</ns3:hr>
          </ns3:TrackPointExtension>
        </extensions>
      </trkpt>
      <trkpt lat="-22.0285154320299625396728515625" lon="166.46979418583214282989501953125">
        <ele>888.5999755859375</ele>
        <time>2016-08-12T21:36:43.000Z</time>
        <extensions>
          <ns3:TrackPointExtension>
            <ns3:atemp>15.0</ns3:atemp>
            <ns3:hr>133</ns3:hr>
          </ns3:TrackPointExtension>
        </extensions>
      </trkpt>
      <trkpt lat="-22.02853613533079624176025390625" lon="166.46979301236569881439208984375">
        <ele>888.79998779296875</ele>
        <time>2016-08-12T21:36:44.000Z</time>
        <extensions>
          <ns3:TrackPointExtension>
            <ns3:atemp>15.0</ns3:atemp>
            <ns3:hr>133</ns3:hr>
          </ns3:TrackPointExtension>
        </extensions>
      </trkpt>
      <trkpt lat="-22.0285521447658538818359375" lon="166.46978463046252727508544921875">
        <ele>889</ele>
        <time>2016-08-12T21:36:45.000Z</time>
        <extensions>
          <ns3:TrackPointExtension>
            <ns3:atemp>15.0</ns3:atemp>
            <ns3:hr>133</ns3:hr>
          </ns3:TrackPointExtension>
        </extensions>
      </trkpt>
      <trkpt lat="-22.02856848947703838348388671875" lon="166.4697811938822269439697265625">
        <ele>889</ele>
        <time>2016-08-12T21:36:46.000Z</time>
        <extensions>
          <ns3:TrackPointExtension>
            <ns3:atemp>15.0</ns3:atemp>
            <ns3:hr>133</ns3:hr>
          </ns3:TrackPointExtension>
        </extensions>
      </trkpt>
      <trkpt lat="-22.02858223579823970794677734375" lon="166.46978437900543212890625">
        <ele>889.4000244140625</ele>
        <time>2016-08-12T21:36:47.000Z</time>
        <extensions>
          <ns3:TrackPointExtension>
            <ns3:atemp>15.0</ns3:atemp>
            <ns3:hr>133</ns3:hr>
          </ns3:TrackPointExtension>
        </extensions>
      </trkpt>
      <trkpt lat="-22.0285948924720287322998046875" lon="166.4697875641286373138427734375">
        <ele>889.20001220703125</ele>
        <time>2016-08-12T21:36:48.000Z</time>
        <extensions>
          <ns3:TrackPointExtension>
            <ns3:atemp>15.0</ns3:atemp>
            <ns3:hr>134</ns3:hr>
          </ns3:TrackPointExtension>
        </extensions>
      </trkpt>
      <trkpt lat="-22.02861123718321323394775390625" lon="166.46979854442179203033447265625">
        <ele>889</ele>
        <time>2016-08-12T21:36:49.000Z</time>
        <extensions>
          <ns3:TrackPointExtension>
            <ns3:atemp>15.0</ns3:atemp>
            <ns3:hr>133</ns3:hr>
          </ns3:TrackPointExtension>
        </extensions>
      </trkpt>
      <trkpt lat="-22.028628252446651458740234375" lon="166.469808183610439300537109375">
        <ele>889</ele>
        <time>2016-08-12T21:36:50.000Z</time>
        <extensions>
          <ns3:TrackPointExtension>
            <ns3:atemp>15.0</ns3:atemp>
            <ns3:hr>133</ns3:hr>
          </ns3:TrackPointExtension>
        </extensions>
      </trkpt>
      <trkpt lat="-22.02864878810942173004150390625" lon="166.4698177389800548553466796875">
        <ele>889.79998779296875</ele>
        <time>2016-08-12T21:36:51.000Z</time>
        <extensions>
          <ns3:TrackPointExtension>
            <ns3:atemp>15.0</ns3:atemp>
            <ns3:hr>133</ns3:hr>
          </ns3:TrackPointExtension>
        </extensions>
      </trkpt>
      <trkpt lat="-22.02866219915449619293212890625" lon="166.4698277972638607025146484375">
        <ele>889.79998779296875</ele>
        <time>2016-08-12T21:36:52.000Z</time>
        <extensions>
          <ns3:TrackPointExtension>
            <ns3:atemp>15.0</ns3:atemp>
            <ns3:hr>134</ns3:hr>
          </ns3:TrackPointExtension>
        </extensions>
      </trkpt>
      <trkpt lat="-22.0286904461681842803955078125" lon="166.46982503123581409454345703125">
        <ele>889.5999755859375</ele>
        <time>2016-08-12T21:36:53.000Z</time>
        <extensions>
          <ns3:TrackPointExtension>
            <ns3:atemp>15.0</ns3:atemp>
            <ns3:hr>134</ns3:hr>
          </ns3:TrackPointExtension>
        </extensions>
      </trkpt>
      <trkpt lat="-22.02871919609606266021728515625" lon="166.4698205888271331787109375">
        <ele>889.5999755859375</ele>
        <time>2016-08-12T21:36:54.000Z</time>
        <extensions>
          <ns3:TrackPointExtension>
            <ns3:atemp>15.0</ns3:atemp>
            <ns3:hr>134</ns3:hr>
          </ns3:TrackPointExtension>
        </extensions>
      </trkpt>
      <trkpt lat="-22.02874266542494297027587890625" lon="166.4698152244091033935546875">
        <ele>887.79998779296875</ele>
        <time>2016-08-12T21:36:55.000Z</time>
        <extensions>
          <ns3:TrackPointExtension>
            <ns3:atemp>15.0</ns3:atemp>
            <ns3:hr>134</ns3:hr>
          </ns3:TrackPointExtension>
        </extensions>
      </trkpt>
      <trkpt lat="-22.02876395545899868011474609375" lon="166.4698125422000885009765625">
        <ele>885.4000244140625</ele>
        <time>2016-08-12T21:36:56.000Z</time>
        <extensions>
          <ns3:TrackPointExtension>
            <ns3:atemp>15.0</ns3:atemp>
            <ns3:hr>134</ns3:hr>
          </ns3:TrackPointExtension>
        </extensions>
      </trkpt>
      <trkpt lat="-22.0287886820733547210693359375" lon="166.46981187164783477783203125">
        <ele>884</ele>
        <time>2016-08-12T21:36:57.000Z</time>
        <extensions>
          <ns3:TrackPointExtension>
            <ns3:atemp>15.0</ns3:atemp>
            <ns3:hr>134</ns3:hr>
          </ns3:TrackPointExtension>
        </extensions>
      </trkpt>
      <trkpt lat="-22.0288101397454738616943359375" lon="166.46980726160109043121337890625">
        <ele>883</ele>
        <time>2016-08-12T21:36:58.000Z</time>
        <extensions>
          <ns3:TrackPointExtension>
            <ns3:atemp>15.0</ns3:atemp>
            <ns3:hr>134</ns3:hr>
          </ns3:TrackPointExtension>
        </extensions>
      </trkpt>
      <trkpt lat="-22.02882648445665836334228515625" lon="166.4697966165840625762939453125">
        <ele>883</ele>
        <time>2016-08-12T21:36:59.000Z</time>
        <extensions>
          <ns3:TrackPointExtension>
            <ns3:atemp>15.0</ns3:atemp>
            <ns3:hr>135</ns3:hr>
          </ns3:TrackPointExtension>
        </extensions>
      </trkpt>
      <trkpt lat="-22.02884609811007976531982421875" lon="166.46978680975735187530517578125">
        <ele>883.20001220703125</ele>
        <time>2016-08-12T21:37:00.000Z</time>
        <extensions>
          <ns3:TrackPointExtension>
            <ns3:atemp>15.0</ns3:atemp>
            <ns3:hr>135</ns3:hr>
          </ns3:TrackPointExtension>
        </extensions>
      </trkpt>
      <trkpt lat="-22.0288644544780254364013671875" lon="166.46978379227221012115478515625">
        <ele>883.20001220703125</ele>
        <time>2016-08-12T21:37:01.000Z</time>
        <extensions>
          <ns3:TrackPointExtension>
            <ns3:atemp>15.0</ns3:atemp>
            <ns3:hr>135</ns3:hr>
          </ns3:TrackPointExtension>
        </extensions>
      </trkpt>
      <trkpt lat="-22.0288832299411296844482421875" lon="166.46977591328322887420654296875">
        <ele>883</ele>
        <time>2016-08-12T21:37:02.000Z</time>
        <extensions>
          <ns3:TrackPointExtension>
            <ns3:atemp>15.0</ns3:atemp>
            <ns3:hr>135</ns3:hr>
          </ns3:TrackPointExtension>
        </extensions>
      </trkpt>
      <trkpt lat="-22.02890393324196338653564453125" lon="166.4697661064565181732177734375">
        <ele>883.20001220703125</ele>
        <time>2016-08-12T21:37:03.000Z</time>
        <extensions>
          <ns3:TrackPointExtension>
            <ns3:atemp>15.0</ns3:atemp>
            <ns3:hr>135</ns3:hr>
          </ns3:TrackPointExtension>
        </extensions>
      </trkpt>
      <trkpt lat="-22.028927318751811981201171875" lon="166.469757221639156341552734375">
        <ele>883.4000244140625</ele>
        <time>2016-08-12T21:37:04.000Z</time>
        <extensions>
          <ns3:TrackPointExtension>
            <ns3:atemp>15.0</ns3:atemp>
            <ns3:hr>136</ns3:hr>
          </ns3:TrackPointExtension>
        </extensions>
      </trkpt>
      <trkpt lat="-22.02895238064229488372802734375" lon="166.4697476662695407867431640625">
        <ele>883.4000244140625</ele>
        <time>2016-08-12T21:37:05.000Z</time>
        <extensions>
          <ns3:TrackPointExtension>
            <ns3:atemp>15.0</ns3:atemp>
            <ns3:hr>136</ns3:hr>
          </ns3:TrackPointExtension>
        </extensions>
      </trkpt>
      <trkpt lat="-22.0289700664579868316650390625" lon="166.4697379432618618011474609375">
        <ele>883.4000244140625</ele>
        <time>2016-08-12T21:37:06.000Z</time>
        <extensions>
          <ns3:TrackPointExtension>
            <ns3:atemp>15.0</ns3:atemp>
            <ns3:hr>136</ns3:hr>
          </ns3:TrackPointExtension>
        </extensions>
      </trkpt>
      <trkpt lat="-22.0289965532720088958740234375" lon="166.46973568014800548553466796875">
        <ele>883.5999755859375</ele>
        <time>2016-08-12T21:37:07.000Z</time>
        <extensions>
          <ns3:TrackPointExtension>
            <ns3:atemp>15.0</ns3:atemp>
            <ns3:hr>136</ns3:hr>
          </ns3:TrackPointExtension>
        </extensions>
      </trkpt>
      <trkpt lat="-22.02901742421090602874755859375" lon="166.469730399549007415771484375">
        <ele>884</ele>
        <time>2016-08-12T21:37:08.000Z</time>
        <extensions>
          <ns3:TrackPointExtension>
            <ns3:atemp>15.0</ns3:atemp>
            <ns3:hr>137</ns3:hr>
          </ns3:TrackPointExtension>
        </extensions>
      </trkpt>
      <trkpt lat="-22.02903653495013713836669921875" lon="166.46972310729324817657470703125">
        <ele>884</ele>
        <time>2016-08-12T21:37:09.000Z</time>
        <extensions>
          <ns3:TrackPointExtension>
            <ns3:atemp>15.0</ns3:atemp>
            <ns3:hr>137</ns3:hr>
          </ns3:TrackPointExtension>
        </extensions>
      </trkpt>
      <trkpt lat="-22.029232420027256011962890625" lon="166.4695786871016025543212890625">
        <ele>885</ele>
        <time>2016-08-12T21:37:22.000Z</time>
        <extensions>
          <ns3:TrackPointExtension>
            <ns3:atemp>15.0</ns3:atemp>
            <ns3:hr>139</ns3:hr>
          </ns3:TrackPointExtension>
        </extensions>
      </trkpt>
      <trkpt lat="-22.02926904894411563873291015625" lon="166.46952680312097072601318359375">
        <ele>885</ele>
        <time>2016-08-12T21:37:28.000Z</time>
        <extensions>
          <ns3:TrackPointExtension>
            <ns3:atemp>15.0</ns3:atemp>
            <ns3:hr>140</ns3:hr>
          </ns3:TrackPointExtension>
        </extensions>
      </trkpt>
      <trkpt lat="-22.02927759848535060882568359375" lon="166.4695203490555286407470703125">
        <ele>885</ele>
        <time>2016-08-12T21:37:29.000Z</time>
        <extensions>
          <ns3:TrackPointExtension>
            <ns3:atemp>15.0</ns3:atemp>
            <ns3:hr>140</ns3:hr>
          </ns3:TrackPointExtension>
        </extensions>
      </trkpt>
      <trkpt lat="-22.02928296290338039398193359375" lon="166.46951205097138881683349609375">
        <ele>884.5999755859375</ele>
        <time>2016-08-12T21:37:30.000Z</time>
        <extensions>
          <ns3:TrackPointExtension>
            <ns3:atemp>15.0</ns3:atemp>
            <ns3:hr>140</ns3:hr>
          </ns3:TrackPointExtension>
        </extensions>
      </trkpt>
      <trkpt lat="-22.0292919315397739410400390625" lon="166.4694972150027751922607421875">
        <ele>884.4000244140625</ele>
        <time>2016-08-12T21:37:31.000Z</time>
        <extensions>
          <ns3:TrackPointExtension>
            <ns3:atemp>15.0</ns3:atemp>
            <ns3:hr>140</ns3:hr>
          </ns3:TrackPointExtension>
        </extensions>
      </trkpt>
      <trkpt lat="-22.029300145804882049560546875" lon="166.4694811217486858367919921875">
        <ele>885.79998779296875</ele>
        <time>2016-08-12T21:37:32.000Z</time>
        <extensions>
          <ns3:TrackPointExtension>
            <ns3:atemp>15.0</ns3:atemp>
            <ns3:hr>141</ns3:hr>
          </ns3:TrackPointExtension>
        </extensions>
      </trkpt>
      <trkpt lat="-22.0293150655925273895263671875" lon="166.46946595050394535064697265625">
        <ele>887.20001220703125</ele>
        <time>2016-08-12T21:37:33.000Z</time>
        <extensions>
          <ns3:TrackPointExtension>
            <ns3:atemp>15.0</ns3:atemp>
            <ns3:hr>141</ns3:hr>
          </ns3:TrackPointExtension>
        </extensions>
      </trkpt>
      <trkpt lat="-22.02932126820087432861328125" lon="166.4694546349346637725830078125">
        <ele>887.79998779296875</ele>
        <time>2016-08-12T21:37:34.000Z</time>
        <extensions>
          <ns3:TrackPointExtension>
            <ns3:atemp>15.0</ns3:atemp>
            <ns3:hr>141</ns3:hr>
          </ns3:TrackPointExtension>
        </extensions>
      </trkpt>
      <trkpt lat="-22.0293273031711578369140625" lon="166.46944298408925533294677734375">
        <ele>888.20001220703125</ele>
        <time>2016-08-12T21:37:35.000Z</time>
        <extensions>
          <ns3:TrackPointExtension>
            <ns3:atemp>15.0</ns3:atemp>
            <ns3:hr>141</ns3:hr>
          </ns3:TrackPointExtension>
        </extensions>
      </trkpt>
      <trkpt lat="-22.0293355174362659454345703125" lon="166.46943443454802036285400390625">
        <ele>888.5999755859375</ele>
        <time>2016-08-12T21:37:36.000Z</time>
        <extensions>
          <ns3:TrackPointExtension>
            <ns3:atemp>15.0</ns3:atemp>
            <ns3:hr>142</ns3:hr>
          </ns3:TrackPointExtension>
        </extensions>
      </trkpt>
      <trkpt lat="-22.02934482134878635406494140625" lon="166.4694291539490222930908203125">
        <ele>889</ele>
        <time>2016-08-12T21:37:37.000Z</time>
        <extensions>
          <ns3:TrackPointExtension>
            <ns3:atemp>15.0</ns3:atemp>
            <ns3:hr>142</ns3:hr>
          </ns3:TrackPointExtension>
        </extensions>
      </trkpt>
      <trkpt lat="-22.02935303561389446258544921875" lon="166.46942672319710254669189453125">
        <ele>889</ele>
        <time>2016-08-12T21:37:38.000Z</time>
        <extensions>
          <ns3:TrackPointExtension>
            <ns3:atemp>15.0</ns3:atemp>
            <ns3:hr>142</ns3:hr>
          </ns3:TrackPointExtension>
        </extensions>
      </trkpt>
      <trkpt lat="-22.029364518821239471435546875" lon="166.4694227837026119232177734375">
        <ele>889.20001220703125</ele>
        <time>2016-08-12T21:37:39.000Z</time>
        <extensions>
          <ns3:TrackPointExtension>
            <ns3:atemp>15.0</ns3:atemp>
            <ns3:hr>142</ns3:hr>
          </ns3:TrackPointExtension>
        </extensions>
      </trkpt>
      <trkpt lat="-22.02938036061823368072509765625" lon="166.4694137312471866607666015625">
        <ele>889.4000244140625</ele>
        <time>2016-08-12T21:37:40.000Z</time>
        <extensions>
          <ns3:TrackPointExtension>
            <ns3:atemp>15.0</ns3:atemp>
            <ns3:hr>143</ns3:hr>
          </ns3:TrackPointExtension>
        </extensions>
      </trkpt>
      <trkpt lat="-22.029393352568149566650390625" lon="166.46939956583082675933837890625">
        <ele>889.5999755859375</ele>
        <time>2016-08-12T21:37:41.000Z</time>
        <extensions>
          <ns3:TrackPointExtension>
            <ns3:atemp>15.0</ns3:atemp>
            <ns3:hr>143</ns3:hr>
          </ns3:TrackPointExtension>
        </extensions>
      </trkpt>
      <trkpt lat="-22.029404751956462860107421875" lon="166.4693872444331645965576171875">
        <ele>889</ele>
        <time>2016-08-12T21:37:42.000Z</time>
        <extensions>
          <ns3:TrackPointExtension>
            <ns3:atemp>15.0</ns3:atemp>
            <ns3:hr>143</ns3:hr>
          </ns3:TrackPointExtension>
        </extensions>
      </trkpt>
      <trkpt lat="-22.02941112220287322998046875" lon="166.46937475539743900299072265625">
        <ele>887.4000244140625</ele>
        <time>2016-08-12T21:37:43.000Z</time>
        <extensions>
          <ns3:TrackPointExtension>
            <ns3:atemp>15.0</ns3:atemp>
            <ns3:hr>143</ns3:hr>
          </ns3:TrackPointExtension>
        </extensions>
      </trkpt>
      <trkpt lat="-22.02941539697349071502685546875" lon="166.46936670877039432525634765625">
        <ele>886.79998779296875</ele>
        <time>2016-08-12T21:37:44.000Z</time>
        <extensions>
          <ns3:TrackPointExtension>
            <ns3:atemp>15.0</ns3:atemp>
            <ns3:hr>143</ns3:hr>
          </ns3:TrackPointExtension>
        </extensions>
      </trkpt>
      <trkpt lat="-22.0294223539531230926513671875" lon="166.4693570695817470550537109375">
        <ele>887.20001220703125</ele>
        <time>2016-08-12T21:37:45.000Z</time>
        <extensions>
          <ns3:TrackPointExtension>
            <ns3:atemp>15.0</ns3:atemp>
            <ns3:hr>144</ns3:hr>
          </ns3:TrackPointExtension>
        </extensions>
      </trkpt>
      <trkpt lat="-22.0294307358562946319580078125" lon="166.4693480171263217926025390625">
        <ele>887.79998779296875</ele>
        <time>2016-08-12T21:37:46.000Z</time>
        <extensions>
          <ns3:TrackPointExtension>
            <ns3:atemp>15.0</ns3:atemp>
            <ns3:hr>144</ns3:hr>
          </ns3:TrackPointExtension>
        </extensions>
      </trkpt>
      <trkpt lat="-22.02943786047399044036865234375" lon="166.46933980286121368408203125">
        <ele>887.79998779296875</ele>
        <time>2016-08-12T21:37:47.000Z</time>
        <extensions>
          <ns3:TrackPointExtension>
            <ns3:atemp>15.0</ns3:atemp>
            <ns3:hr>143</ns3:hr>
          </ns3:TrackPointExtension>
        </extensions>
      </trkpt>
      <trkpt lat="-22.02944758348166942596435546875" lon="166.4693305827677249908447265625">
        <ele>887.4000244140625</ele>
        <time>2016-08-12T21:37:48.000Z</time>
        <extensions>
          <ns3:TrackPointExtension>
            <ns3:atemp>15.0</ns3:atemp>
            <ns3:hr>144</ns3:hr>
          </ns3:TrackPointExtension>
        </extensions>
      </trkpt>
      <trkpt lat="-22.02945613302290439605712890625" lon="166.46932295523583889007568359375">
        <ele>887.5999755859375</ele>
        <time>2016-08-12T21:37:49.000Z</time>
        <extensions>
          <ns3:TrackPointExtension>
            <ns3:atemp>15.0</ns3:atemp>
            <ns3:hr>143</ns3:hr>
          </ns3:TrackPointExtension>
        </extensions>
      </trkpt>
      <trkpt lat="-22.02946518547832965850830078125" lon="166.469314657151699066162109375">
        <ele>889</ele>
        <time>2016-08-12T21:37:50.000Z</time>
        <extensions>
          <ns3:TrackPointExtension>
            <ns3:atemp>15.0</ns3:atemp>
            <ns3:hr>144</ns3:hr>
          </ns3:TrackPointExtension>
        </extensions>
      </trkpt>
      <trkpt lat="-22.02947306446731090545654296875" lon="166.4693051017820835113525390625">
        <ele>889.79998779296875</ele>
        <time>2016-08-12T21:37:51.000Z</time>
        <extensions>
          <ns3:TrackPointExtension>
            <ns3:atemp>15.0</ns3:atemp>
            <ns3:hr>144</ns3:hr>
          </ns3:TrackPointExtension>
        </extensions>
      </trkpt>
      <trkpt lat="-22.029483206570148468017578125" lon="166.469296552240848541259765625">
        <ele>890.4000244140625</ele>
        <time>2016-08-12T21:37:52.000Z</time>
        <extensions>
          <ns3:TrackPointExtension>
            <ns3:atemp>15.0</ns3:atemp>
            <ns3:hr>144</ns3:hr>
          </ns3:TrackPointExtension>
        </extensions>
      </trkpt>
      <trkpt lat="-22.029491923749446868896484375" lon="166.4692869968712329864501953125">
        <ele>890.5999755859375</ele>
        <time>2016-08-12T21:37:53.000Z</time>
        <extensions>
          <ns3:TrackPointExtension>
            <ns3:atemp>15.0</ns3:atemp>
            <ns3:hr>143</ns3:hr>
          </ns3:TrackPointExtension>
        </extensions>
      </trkpt>
      <trkpt lat="-22.02949963510036468505859375" lon="166.469279117882251739501953125">
        <ele>890.79998779296875</ele>
        <time>2016-08-12T21:37:54.000Z</time>
        <extensions>
          <ns3:TrackPointExtension>
            <ns3:atemp>15.0</ns3:atemp>
            <ns3:hr>143</ns3:hr>
          </ns3:TrackPointExtension>
        </extensions>
      </trkpt>
      <trkpt lat="-22.02950927428901195526123046875" lon="166.46927333436906337738037109375">
        <ele>890.20001220703125</ele>
        <time>2016-08-12T21:37:55.000Z</time>
        <extensions>
          <ns3:TrackPointExtension>
            <ns3:atemp>15.0</ns3:atemp>
            <ns3:hr>144</ns3:hr>
          </ns3:TrackPointExtension>
        </extensions>
      </trkpt>
      <trkpt lat="-22.02952109277248382568359375" lon="166.46926327608525753021240234375">
        <ele>889.5999755859375</ele>
        <time>2016-08-12T21:37:56.000Z</time>
        <extensions>
          <ns3:TrackPointExtension>
            <ns3:atemp>15.0</ns3:atemp>
            <ns3:hr>143</ns3:hr>
          </ns3:TrackPointExtension>
        </extensions>
      </trkpt>
      <trkpt lat="-22.0295313186943531036376953125" lon="166.469254978001117706298828125">
        <ele>888.5999755859375</ele>
        <time>2016-08-12T21:37:57.000Z</time>
        <extensions>
          <ns3:TrackPointExtension>
            <ns3:atemp>15.0</ns3:atemp>
            <ns3:hr>143</ns3:hr>
          </ns3:TrackPointExtension>
        </extensions>
      </trkpt>
      <trkpt lat="-22.029542215168476104736328125" lon="166.4692457579076290130615234375">
        <ele>888.20001220703125</ele>
        <time>2016-08-12T21:37:58.000Z</time>
        <extensions>
          <ns3:TrackPointExtension>
            <ns3:atemp>15.0</ns3:atemp>
            <ns3:hr>143</ns3:hr>
          </ns3:TrackPointExtension>
        </extensions>
      </trkpt>
      <trkpt lat="-22.0295551232993602752685546875" lon="166.469236202538013458251953125">
        <ele>888.5999755859375</ele>
        <time>2016-08-12T21:37:59.000Z</time>
        <extensions>
          <ns3:TrackPointExtension>
            <ns3:atemp>15.0</ns3:atemp>
            <ns3:hr>143</ns3:hr>
          </ns3:TrackPointExtension>
        </extensions>
      </trkpt>
      <trkpt lat="-22.0295687019824981689453125" lon="166.469226144254207611083984375">
        <ele>889</ele>
        <time>2016-08-12T21:38:00.000Z</time>
        <extensions>
          <ns3:TrackPointExtension>
            <ns3:atemp>15.0</ns3:atemp>
            <ns3:hr>143</ns3:hr>
          </ns3:TrackPointExtension>
        </extensions>
      </trkpt>
      <trkpt lat="-22.02958186157047748565673828125" lon="166.46921667270362377166748046875">
        <ele>889.5999755859375</ele>
        <time>2016-08-12T21:38:01.000Z</time>
        <extensions>
          <ns3:TrackPointExtension>
            <ns3:atemp>15.0</ns3:atemp>
            <ns3:hr>143</ns3:hr>
          </ns3:TrackPointExtension>
        </extensions>
      </trkpt>
      <trkpt lat="-22.02959275804460048675537109375" lon="166.4692082069814205169677734375">
        <ele>889.79998779296875</ele>
        <time>2016-08-12T21:38:02.000Z</time>
        <extensions>
          <ns3:TrackPointExtension>
            <ns3:atemp>15.0</ns3:atemp>
            <ns3:hr>143</ns3:hr>
          </ns3:TrackPointExtension>
        </extensions>
      </trkpt>
      <trkpt lat="-22.02960549853742122650146484375" lon="166.46919923834502696990966796875">
        <ele>890</ele>
        <time>2016-08-12T21:38:03.000Z</time>
        <extensions>
          <ns3:TrackPointExtension>
            <ns3:atemp>15.0</ns3:atemp>
            <ns3:hr>143</ns3:hr>
          </ns3:TrackPointExtension>
        </extensions>
      </trkpt>
      <trkpt lat="-22.0296164788305759429931640625" lon="166.46919018588960170745849609375">
        <ele>890.20001220703125</ele>
        <time>2016-08-12T21:38:04.000Z</time>
        <extensions>
          <ns3:TrackPointExtension>
            <ns3:atemp>15.0</ns3:atemp>
            <ns3:hr>143</ns3:hr>
          </ns3:TrackPointExtension>
        </extensions>
      </trkpt>
      <trkpt lat="-22.02962729148566722869873046875" lon="166.4691810496151447296142578125">
        <ele>890.5999755859375</ele>
        <time>2016-08-12T21:38:05.000Z</time>
        <extensions>
          <ns3:TrackPointExtension>
            <ns3:atemp>15.0</ns3:atemp>
            <ns3:hr>143</ns3:hr>
          </ns3:TrackPointExtension>
        </extensions>
      </trkpt>
      <trkpt lat="-22.02964019961655139923095703125" lon="166.469172500073909759521484375">
        <ele>890.79998779296875</ele>
        <time>2016-08-12T21:38:06.000Z</time>
        <extensions>
          <ns3:TrackPointExtension>
            <ns3:atemp>15.0</ns3:atemp>
            <ns3:hr>143</ns3:hr>
          </ns3:TrackPointExtension>
        </extensions>
      </trkpt>
      <trkpt lat="-22.029650174081325531005859375" lon="166.4691652916371822357177734375">
        <ele>891</ele>
        <time>2016-08-12T21:38:07.000Z</time>
        <extensions>
          <ns3:TrackPointExtension>
            <ns3:atemp>15.0</ns3:atemp>
            <ns3:hr>142</ns3:hr>
          </ns3:TrackPointExtension>
        </extensions>
      </trkpt>
      <trkpt lat="-22.02966132201254367828369140625" lon="166.46915531717240810394287109375">
        <ele>891</ele>
        <time>2016-08-12T21:38:08.000Z</time>
        <extensions>
          <ns3:TrackPointExtension>
            <ns3:atemp>15.0</ns3:atemp>
            <ns3:hr>142</ns3:hr>
          </ns3:TrackPointExtension>
        </extensions>
      </trkpt>
      <trkpt lat="-22.02967129647731781005859375" lon="166.469143331050872802734375">
        <ele>891.20001220703125</ele>
        <time>2016-08-12T21:38:09.000Z</time>
        <extensions>
          <ns3:TrackPointExtension>
            <ns3:atemp>15.0</ns3:atemp>
            <ns3:hr>142</ns3:hr>
          </ns3:TrackPointExtension>
        </extensions>
      </trkpt>
      <trkpt lat="-22.029683031141757965087890625" lon="166.46913704462349414825439453125">
        <ele>891.20001220703125</ele>
        <time>2016-08-12T21:38:10.000Z</time>
        <extensions>
          <ns3:TrackPointExtension>
            <ns3:atemp>15.0</ns3:atemp>
            <ns3:hr>142</ns3:hr>
          </ns3:TrackPointExtension>
        </extensions>
      </trkpt>
      <trkpt lat="-22.02969736419618129730224609375" lon="166.46913017146289348602294921875">
        <ele>891.20001220703125</ele>
        <time>2016-08-12T21:38:11.000Z</time>
        <extensions>
          <ns3:TrackPointExtension>
            <ns3:atemp>15.0</ns3:atemp>
            <ns3:hr>142</ns3:hr>
          </ns3:TrackPointExtension>
        </extensions>
      </trkpt>
      <trkpt lat="-22.02971421182155609130859375" lon="166.46912162192165851593017578125">
        <ele>891.4000244140625</ele>
        <time>2016-08-12T21:38:12.000Z</time>
        <extensions>
          <ns3:TrackPointExtension>
            <ns3:atemp>15.0</ns3:atemp>
            <ns3:hr>141</ns3:hr>
          </ns3:TrackPointExtension>
        </extensions>
      </trkpt>
      <trkpt lat="-22.029729969799518585205078125" lon="166.4691156707704067230224609375">
        <ele>891.4000244140625</ele>
        <time>2016-08-12T21:38:13.000Z</time>
        <extensions>
          <ns3:TrackPointExtension>
            <ns3:atemp>15.0</ns3:atemp>
            <ns3:hr>141</ns3:hr>
          </ns3:TrackPointExtension>
        </extensions>
      </trkpt>
      <trkpt lat="-22.02974279411137104034423828125" lon="166.469110809266567230224609375">
        <ele>891.4000244140625</ele>
        <time>2016-08-12T21:38:14.000Z</time>
        <extensions>
          <ns3:TrackPointExtension>
            <ns3:atemp>15.0</ns3:atemp>
            <ns3:hr>141</ns3:hr>
          </ns3:TrackPointExtension>
        </extensions>
      </trkpt>
      <trkpt lat="-22.029753439128398895263671875" lon="166.46910385228693485260009765625">
        <ele>891.4000244140625</ele>
        <time>2016-08-12T21:38:15.000Z</time>
        <extensions>
          <ns3:TrackPointExtension>
            <ns3:atemp>15.0</ns3:atemp>
            <ns3:hr>141</ns3:hr>
          </ns3:TrackPointExtension>
        </extensions>
      </trkpt>
      <trkpt lat="-22.0297643356025218963623046875" lon="166.46910066716372966766357421875">
        <ele>891.20001220703125</ele>
        <time>2016-08-12T21:38:16.000Z</time>
        <extensions>
          <ns3:TrackPointExtension>
            <ns3:atemp>15.0</ns3:atemp>
            <ns3:hr>141</ns3:hr>
          </ns3:TrackPointExtension>
        </extensions>
      </trkpt>
      <trkpt lat="-22.02977431006729602813720703125" lon="166.46909664385020732879638671875">
        <ele>891.20001220703125</ele>
        <time>2016-08-12T21:38:17.000Z</time>
        <extensions>
          <ns3:TrackPointExtension>
            <ns3:atemp>15.0</ns3:atemp>
            <ns3:hr>140</ns3:hr>
          </ns3:TrackPointExtension>
        </extensions>
      </trkpt>
      <trkpt lat="-22.029782943427562713623046875" lon="166.46909027360379695892333984375">
        <ele>891.20001220703125</ele>
        <time>2016-08-12T21:38:18.000Z</time>
        <extensions>
          <ns3:TrackPointExtension>
            <ns3:atemp>15.0</ns3:atemp>
            <ns3:hr>140</ns3:hr>
          </ns3:TrackPointExtension>
        </extensions>
      </trkpt>
      <trkpt lat="-22.0297958515584468841552734375" lon="166.46907703019678592681884765625">
        <ele>891.4000244140625</ele>
        <time>2016-08-12T21:38:19.000Z</time>
        <extensions>
          <ns3:TrackPointExtension>
            <ns3:atemp>15.0</ns3:atemp>
            <ns3:hr>140</ns3:hr>
          </ns3:TrackPointExtension>
        </extensions>
      </trkpt>
      <trkpt lat="-22.02981186099350452423095703125" lon="166.46906630136072635650634765625">
        <ele>891.4000244140625</ele>
        <time>2016-08-12T21:38:20.000Z</time>
        <extensions>
          <ns3:TrackPointExtension>
            <ns3:atemp>15.0</ns3:atemp>
            <ns3:hr>140</ns3:hr>
          </ns3:TrackPointExtension>
        </extensions>
      </trkpt>
      <trkpt lat="-22.029831893742084503173828125" lon="166.46905255503952503204345703125">
        <ele>891</ele>
        <time>2016-08-12T21:38:21.000Z</time>
        <extensions>
          <ns3:TrackPointExtension>
            <ns3:atemp>15.0</ns3:atemp>
            <ns3:hr>140</ns3:hr>
          </ns3:TrackPointExtension>
        </extensions>
      </trkpt>
      <trkpt lat="-22.029848992824554443359375" lon="166.46903268992900848388671875">
        <ele>890.79998779296875</ele>
        <time>2016-08-12T21:38:22.000Z</time>
        <extensions>
          <ns3:TrackPointExtension>
            <ns3:atemp>15.0</ns3:atemp>
            <ns3:hr>140</ns3:hr>
          </ns3:TrackPointExtension>
        </extensions>
      </trkpt>
      <trkpt lat="-22.0298652537167072296142578125" lon="166.46901383064687252044677734375">
        <ele>891</ele>
        <time>2016-08-12T21:38:23.000Z</time>
        <extensions>
          <ns3:TrackPointExtension>
            <ns3:atemp>15.0</ns3:atemp>
            <ns3:hr>139</ns3:hr>
          </ns3:TrackPointExtension>
        </extensions>
      </trkpt>
      <trkpt lat="-22.0298826880753040313720703125" lon="166.46899354644119739532470703125">
        <ele>891</ele>
        <time>2016-08-12T21:38:24.000Z</time>
        <extensions>
          <ns3:TrackPointExtension>
            <ns3:atemp>15.0</ns3:atemp>
            <ns3:hr>140</ns3:hr>
          </ns3:TrackPointExtension>
        </extensions>
      </trkpt>
      <trkpt lat="-22.029901631176471710205078125" lon="166.46897208876907825469970703125">
        <ele>890.5999755859375</ele>
        <time>2016-08-12T21:38:25.000Z</time>
        <extensions>
          <ns3:TrackPointExtension>
            <ns3:atemp>15.0</ns3:atemp>
            <ns3:hr>140</ns3:hr>
          </ns3:TrackPointExtension>
        </extensions>
      </trkpt>
      <trkpt lat="-22.02992166392505168914794921875" lon="166.46894928999245166778564453125">
        <ele>890.4000244140625</ele>
        <time>2016-08-12T21:38:26.000Z</time>
        <extensions>
          <ns3:TrackPointExtension>
            <ns3:atemp>15.0</ns3:atemp>
            <ns3:hr>140</ns3:hr>
          </ns3:TrackPointExtension>
        </extensions>
      </trkpt>
      <trkpt lat="-22.02993608079850673675537109375" lon="166.46892598830163478851318359375">
        <ele>891</ele>
        <time>2016-08-12T21:38:27.000Z</time>
        <extensions>
          <ns3:TrackPointExtension>
            <ns3:atemp>15.0</ns3:atemp>
            <ns3:hr>141</ns3:hr>
          </ns3:TrackPointExtension>
        </extensions>
      </trkpt>
      <trkpt lat="-22.0299530960619449615478515625" lon="166.46890117786824703216552734375">
        <ele>891.20001220703125</ele>
        <time>2016-08-12T21:38:28.000Z</time>
        <extensions>
          <ns3:TrackPointExtension>
            <ns3:atemp>15.0</ns3:atemp>
            <ns3:hr>141</ns3:hr>
          </ns3:TrackPointExtension>
        </extensions>
      </trkpt>
      <trkpt lat="-22.0299683511257171630859375" lon="166.4688752777874469757080078125">
        <ele>891.20001220703125</ele>
        <time>2016-08-12T21:38:29.000Z</time>
        <extensions>
          <ns3:TrackPointExtension>
            <ns3:atemp>15.0</ns3:atemp>
            <ns3:hr>141</ns3:hr>
          </ns3:TrackPointExtension>
        </extensions>
      </trkpt>
      <trkpt lat="-22.02997975051403045654296875" lon="166.46885071881115436553955078125">
        <ele>890.79998779296875</ele>
        <time>2016-08-12T21:38:30.000Z</time>
        <extensions>
          <ns3:TrackPointExtension>
            <ns3:atemp>15.0</ns3:atemp>
            <ns3:hr>141</ns3:hr>
          </ns3:TrackPointExtension>
        </extensions>
      </trkpt>
      <trkpt lat="-22.0299919880926609039306640625" lon="166.46882473491132259368896484375">
        <ele>890</ele>
        <time>2016-08-12T21:38:31.000Z</time>
        <extensions>
          <ns3:TrackPointExtension>
            <ns3:atemp>15.0</ns3:atemp>
            <ns3:hr>141</ns3:hr>
          </ns3:TrackPointExtension>
        </extensions>
      </trkpt>
      <trkpt lat="-22.03000380657613277435302734375" lon="166.46879875101149082183837890625">
        <ele>890</ele>
        <time>2016-08-12T21:38:32.000Z</time>
        <extensions>
          <ns3:TrackPointExtension>
            <ns3:atemp>15.0</ns3:atemp>
            <ns3:hr>141</ns3:hr>
          </ns3:TrackPointExtension>
        </extensions>
      </trkpt>
      <trkpt lat="-22.03001436777412891387939453125" lon="166.46877494640648365020751953125">
        <ele>890</ele>
        <time>2016-08-12T21:38:33.000Z</time>
        <extensions>
          <ns3:TrackPointExtension>
            <ns3:atemp>15.0</ns3:atemp>
            <ns3:hr>141</ns3:hr>
          </ns3:TrackPointExtension>
        </extensions>
      </trkpt>
      <trkpt lat="-22.03002132475376129150390625" lon="166.4687508903443813323974609375">
        <ele>889.79998779296875</ele>
        <time>2016-08-12T21:38:34.000Z</time>
        <extensions>
          <ns3:TrackPointExtension>
            <ns3:atemp>15.0</ns3:atemp>
            <ns3:hr>141</ns3:hr>
          </ns3:TrackPointExtension>
        </extensions>
      </trkpt>
      <trkpt lat="-22.03002844937145709991455078125" lon="166.46872616373002529144287109375">
        <ele>889.4000244140625</ele>
        <time>2016-08-12T21:38:35.000Z</time>
        <extensions>
          <ns3:TrackPointExtension>
            <ns3:atemp>15.0</ns3:atemp>
            <ns3:hr>141</ns3:hr>
          </ns3:TrackPointExtension>
        </extensions>
      </trkpt>
      <trkpt lat="-22.03003565780818462371826171875" lon="166.46870168857276439666748046875">
        <ele>888.5999755859375</ele>
        <time>2016-08-12T21:38:36.000Z</time>
        <extensions>
          <ns3:TrackPointExtension>
            <ns3:atemp>15.0</ns3:atemp>
            <ns3:hr>141</ns3:hr>
          </ns3:TrackPointExtension>
        </extensions>
      </trkpt>
      <trkpt lat="-22.0300422795116901397705078125" lon="166.46867788396775722503662109375">
        <ele>888.79998779296875</ele>
        <time>2016-08-12T21:38:37.000Z</time>
        <extensions>
          <ns3:TrackPointExtension>
            <ns3:atemp>15.0</ns3:atemp>
            <ns3:hr>141</ns3:hr>
          </ns3:TrackPointExtension>
        </extensions>
      </trkpt>
      <trkpt lat="-22.030047141015529632568359375" lon="166.46865357644855976104736328125">
        <ele>889.20001220703125</ele>
        <time>2016-08-12T21:38:38.000Z</time>
        <extensions>
          <ns3:TrackPointExtension>
            <ns3:atemp>15.0</ns3:atemp>
            <ns3:hr>141</ns3:hr>
          </ns3:TrackPointExtension>
        </extensions>
      </trkpt>
      <trkpt lat="-22.03005476854741573333740234375" lon="166.4686265029013156890869140625">
        <ele>889.20001220703125</ele>
        <time>2016-08-12T21:38:39.000Z</time>
        <extensions>
          <ns3:TrackPointExtension>
            <ns3:atemp>15.0</ns3:atemp>
            <ns3:hr>141</ns3:hr>
          </ns3:TrackPointExtension>
        </extensions>
      </trkpt>
      <trkpt lat="-22.03005996532738208770751953125" lon="166.4686016924679279327392578125">
        <ele>888.79998779296875</ele>
        <time>2016-08-12T21:38:40.000Z</time>
        <extensions>
          <ns3:TrackPointExtension>
            <ns3:atemp>15.0</ns3:atemp>
            <ns3:hr>141</ns3:hr>
          </ns3:TrackPointExtension>
        </extensions>
      </trkpt>
      <trkpt lat="-22.0300647430121898651123046875" lon="166.468574367463588714599609375">
        <ele>888.5999755859375</ele>
        <time>2016-08-12T21:38:41.000Z</time>
        <extensions>
          <ns3:TrackPointExtension>
            <ns3:atemp>15.0</ns3:atemp>
            <ns3:hr>141</ns3:hr>
          </ns3:TrackPointExtension>
        </extensions>
      </trkpt>
      <trkpt lat="-22.03007639385759830474853515625" lon="166.46854855120182037353515625">
        <ele>888.5999755859375</ele>
        <time>2016-08-12T21:38:42.000Z</time>
        <extensions>
          <ns3:TrackPointExtension>
            <ns3:atemp>15.0</ns3:atemp>
            <ns3:hr>141</ns3:hr>
          </ns3:TrackPointExtension>
        </extensions>
      </trkpt>
      <trkpt lat="-22.0300878770649433135986328125" lon="166.46852600388228893280029296875">
        <ele>888.4000244140625</ele>
        <time>2016-08-12T21:38:43.000Z</time>
        <extensions>
          <ns3:TrackPointExtension>
            <ns3:atemp>15.0</ns3:atemp>
            <ns3:hr>141</ns3:hr>
          </ns3:TrackPointExtension>
        </extensions>
      </trkpt>
      <trkpt lat="-22.030100785195827484130859375" lon="166.46850555203855037689208984375">
        <ele>888</ele>
        <time>2016-08-12T21:38:44.000Z</time>
        <extensions>
          <ns3:TrackPointExtension>
            <ns3:atemp>15.0</ns3:atemp>
            <ns3:hr>142</ns3:hr>
          </ns3:TrackPointExtension>
        </extensions>
      </trkpt>
      <trkpt lat="-22.03011444769799709320068359375" lon="166.4684863574802875518798828125">
        <ele>887.4000244140625</ele>
        <time>2016-08-12T21:38:45.000Z</time>
        <extensions>
          <ns3:TrackPointExtension>
            <ns3:atemp>15.0</ns3:atemp>
            <ns3:hr>141</ns3:hr>
          </ns3:TrackPointExtension>
        </extensions>
      </trkpt>
      <trkpt lat="-22.03012467361986637115478515625" lon="166.468465067446231842041015625">
        <ele>887.20001220703125</ele>
        <time>2016-08-12T21:38:46.000Z</time>
        <extensions>
          <ns3:TrackPointExtension>
            <ns3:atemp>15.0</ns3:atemp>
            <ns3:hr>142</ns3:hr>
          </ns3:TrackPointExtension>
        </extensions>
      </trkpt>
      <trkpt lat="-22.03013959340751171112060546875" lon="166.46844402886927127838134765625">
        <ele>887.20001220703125</ele>
        <time>2016-08-12T21:38:47.000Z</time>
        <extensions>
          <ns3:TrackPointExtension>
            <ns3:atemp>15.0</ns3:atemp>
            <ns3:hr>141</ns3:hr>
          </ns3:TrackPointExtension>
        </extensions>
      </trkpt>
      <trkpt lat="-22.0301566086709499359130859375" lon="166.46842039190232753753662109375">
        <ele>887.20001220703125</ele>
        <time>2016-08-12T21:38:48.000Z</time>
        <extensions>
          <ns3:TrackPointExtension>
            <ns3:atemp>15.0</ns3:atemp>
            <ns3:hr>142</ns3:hr>
          </ns3:TrackPointExtension>
        </extensions>
      </trkpt>
      <trkpt lat="-22.03017580322921276092529296875" lon="166.46839776076376438140869140625">
        <ele>887</ele>
        <time>2016-08-12T21:38:49.000Z</time>
        <extensions>
          <ns3:TrackPointExtension>
            <ns3:atemp>15.0</ns3:atemp>
            <ns3:hr>141</ns3:hr>
          </ns3:TrackPointExtension>
        </extensions>
      </trkpt>
      <trkpt lat="-22.0301949977874755859375" lon="166.46837362088263034820556640625">
        <ele>886.4000244140625</ele>
        <time>2016-08-12T21:38:50.000Z</time>
        <extensions>
          <ns3:TrackPointExtension>
            <ns3:atemp>15.0</ns3:atemp>
            <ns3:hr>142</ns3:hr>
          </ns3:TrackPointExtension>
        </extensions>
      </trkpt>
      <trkpt lat="-22.0302102528512477874755859375" lon="166.46834746934473514556884765625">
        <ele>886.20001220703125</ele>
        <time>2016-08-12T21:38:51.000Z</time>
        <extensions>
          <ns3:TrackPointExtension>
            <ns3:atemp>15.0</ns3:atemp>
            <ns3:hr>142</ns3:hr>
          </ns3:TrackPointExtension>
        </extensions>
      </trkpt>
      <trkpt lat="-22.03022525645792484283447265625" lon="166.4683260954916477203369140625">
        <ele>886</ele>
        <time>2016-08-12T21:38:52.000Z</time>
        <extensions>
          <ns3:TrackPointExtension>
            <ns3:atemp>15.0</ns3:atemp>
            <ns3:hr>142</ns3:hr>
          </ns3:TrackPointExtension>
        </extensions>
      </trkpt>
      <trkpt lat="-22.030244953930377960205078125" lon="166.46831276826560497283935546875">
        <ele>885.79998779296875</ele>
        <time>2016-08-12T21:38:53.000Z</time>
        <extensions>
          <ns3:TrackPointExtension>
            <ns3:atemp>15.0</ns3:atemp>
            <ns3:hr>142</ns3:hr>
          </ns3:TrackPointExtension>
        </extensions>
      </trkpt>
      <trkpt lat="-22.03026046045124530792236328125" lon="166.4682942442595958709716796875">
        <ele>885.5999755859375</ele>
        <time>2016-08-12T21:38:54.000Z</time>
        <extensions>
          <ns3:TrackPointExtension>
            <ns3:atemp>15.0</ns3:atemp>
            <ns3:hr>142</ns3:hr>
          </ns3:TrackPointExtension>
        </extensions>
      </trkpt>
      <trkpt lat="-22.0302768051624298095703125" lon="166.46827437914907932281494140625">
        <ele>885.4000244140625</ele>
        <time>2016-08-12T21:38:55.000Z</time>
        <extensions>
          <ns3:TrackPointExtension>
            <ns3:atemp>15.0</ns3:atemp>
            <ns3:hr>142</ns3:hr>
          </ns3:TrackPointExtension>
        </extensions>
      </trkpt>
      <trkpt lat="-22.03029348514974117279052734375" lon="166.46825023926794528961181640625">
        <ele>885.79998779296875</ele>
        <time>2016-08-12T21:38:56.000Z</time>
        <extensions>
          <ns3:TrackPointExtension>
            <ns3:atemp>15.0</ns3:atemp>
            <ns3:hr>141</ns3:hr>
          </ns3:TrackPointExtension>
        </extensions>
      </trkpt>
      <trkpt lat="-22.03030706383287906646728515625" lon="166.46823196671903133392333984375">
        <ele>886</ele>
        <time>2016-08-12T21:38:57.000Z</time>
        <extensions>
          <ns3:TrackPointExtension>
            <ns3:atemp>15.0</ns3:atemp>
            <ns3:hr>142</ns3:hr>
          </ns3:TrackPointExtension>
        </extensions>
      </trkpt>
      <trkpt lat="-22.0303235761821269989013671875" lon="166.46820866502821445465087890625">
        <ele>885.5999755859375</ele>
        <time>2016-08-12T21:38:58.000Z</time>
        <extensions>
          <ns3:TrackPointExtension>
            <ns3:atemp>15.0</ns3:atemp>
            <ns3:hr>142</ns3:hr>
          </ns3:TrackPointExtension>
        </extensions>
      </trkpt>
      <trkpt lat="-22.0303332991898059844970703125" lon="166.46818586625158786773681640625">
        <ele>885.20001220703125</ele>
        <time>2016-08-12T21:38:59.000Z</time>
        <extensions>
          <ns3:TrackPointExtension>
            <ns3:atemp>15.0</ns3:atemp>
            <ns3:hr>142</ns3:hr>
          </ns3:TrackPointExtension>
        </extensions>
      </trkpt>
      <trkpt lat="-22.0303438603878021240234375" lon="166.468166001141071319580078125">
        <ele>885</ele>
        <time>2016-08-12T21:39:00.000Z</time>
        <extensions>
          <ns3:TrackPointExtension>
            <ns3:atemp>15.0</ns3:atemp>
            <ns3:hr>142</ns3:hr>
          </ns3:TrackPointExtension>
        </extensions>
      </trkpt>
      <trkpt lat="-22.030356936156749725341796875" lon="166.46814462728798389434814453125">
        <ele>885</ele>
        <time>2016-08-12T21:39:01.000Z</time>
        <extensions>
          <ns3:TrackPointExtension>
            <ns3:atemp>15.0</ns3:atemp>
            <ns3:hr>142</ns3:hr>
          </ns3:TrackPointExtension>
        </extensions>
      </trkpt>
      <trkpt lat="-22.03037043102085590362548828125" lon="166.4681262709200382232666015625">
        <ele>885.20001220703125</ele>
        <time>2016-08-12T21:39:02.000Z</time>
        <extensions>
          <ns3:TrackPointExtension>
            <ns3:atemp>15.0</ns3:atemp>
            <ns3:hr>142</ns3:hr>
          </ns3:TrackPointExtension>
        </extensions>
      </trkpt>
      <trkpt lat="-22.03038283623754978179931640625" lon="166.46810355596244335174560546875">
        <ele>884.5999755859375</ele>
        <time>2016-08-12T21:39:03.000Z</time>
        <extensions>
          <ns3:TrackPointExtension>
            <ns3:atemp>15.0</ns3:atemp>
            <ns3:hr>142</ns3:hr>
          </ns3:TrackPointExtension>
        </extensions>
      </trkpt>
      <trkpt lat="-22.03039809130132198333740234375" lon="166.46808494813740253448486328125">
        <ele>884.4000244140625</ele>
        <time>2016-08-12T21:39:04.000Z</time>
        <extensions>
          <ns3:TrackPointExtension>
            <ns3:atemp>15.0</ns3:atemp>
            <ns3:hr>142</ns3:hr>
          </ns3:TrackPointExtension>
        </extensions>
      </trkpt>
      <trkpt lat="-22.0304107479751110076904296875" lon="166.46806483156979084014892578125">
        <ele>884.4000244140625</ele>
        <time>2016-08-12T21:39:05.000Z</time>
        <extensions>
          <ns3:TrackPointExtension>
            <ns3:atemp>15.0</ns3:atemp>
            <ns3:hr>142</ns3:hr>
          </ns3:TrackPointExtension>
        </extensions>
      </trkpt>
      <trkpt lat="-22.03042239882051944732666015625" lon="166.46804253570735454559326171875">
        <ele>884.5999755859375</ele>
        <time>2016-08-12T21:39:06.000Z</time>
        <extensions>
          <ns3:TrackPointExtension>
            <ns3:atemp>15.0</ns3:atemp>
            <ns3:hr>142</ns3:hr>
          </ns3:TrackPointExtension>
        </extensions>
      </trkpt>
      <trkpt lat="-22.0304335467517375946044921875" lon="166.468021832406520843505859375">
        <ele>884.5999755859375</ele>
        <time>2016-08-12T21:39:07.000Z</time>
        <extensions>
          <ns3:TrackPointExtension>
            <ns3:atemp>15.0</ns3:atemp>
            <ns3:hr>142</ns3:hr>
          </ns3:TrackPointExtension>
        </extensions>
      </trkpt>
      <trkpt lat="-22.030445449054241180419921875" lon="166.46799962036311626434326171875">
        <ele>883.79998779296875</ele>
        <time>2016-08-12T21:39:08.000Z</time>
        <extensions>
          <ns3:TrackPointExtension>
            <ns3:atemp>15.0</ns3:atemp>
            <ns3:hr>142</ns3:hr>
          </ns3:TrackPointExtension>
        </extensions>
      </trkpt>
      <trkpt lat="-22.03045718371868133544921875" lon="166.46797749213874340057373046875">
        <ele>883.79998779296875</ele>
        <time>2016-08-12T21:39:09.000Z</time>
        <extensions>
          <ns3:TrackPointExtension>
            <ns3:atemp>15.0</ns3:atemp>
            <ns3:hr>142</ns3:hr>
          </ns3:TrackPointExtension>
        </extensions>
      </trkpt>
      <trkpt lat="-22.03046833164989948272705078125" lon="166.46795284934341907501220703125">
        <ele>884</ele>
        <time>2016-08-12T21:39:10.000Z</time>
        <extensions>
          <ns3:TrackPointExtension>
            <ns3:atemp>15.0</ns3:atemp>
            <ns3:hr>142</ns3:hr>
          </ns3:TrackPointExtension>
        </extensions>
      </trkpt>
      <trkpt lat="-22.0304767973721027374267578125" lon="166.4679281227290630340576171875">
        <ele>884.20001220703125</ele>
        <time>2016-08-12T21:39:11.000Z</time>
        <extensions>
          <ns3:TrackPointExtension>
            <ns3:atemp>15.0</ns3:atemp>
            <ns3:hr>142</ns3:hr>
          </ns3:TrackPointExtension>
        </extensions>
      </trkpt>
      <trkpt lat="-22.03048643656075000762939453125" lon="166.4679053239524364471435546875">
        <ele>883.79998779296875</ele>
        <time>2016-08-12T21:39:12.000Z</time>
        <extensions>
          <ns3:TrackPointExtension>
            <ns3:atemp>16.0</ns3:atemp>
            <ns3:hr>142</ns3:hr>
          </ns3:TrackPointExtension>
        </extensions>
      </trkpt>
      <trkpt lat="-22.0304935611784458160400390625" lon="166.467881016433238983154296875">
        <ele>883.4000244140625</ele>
        <time>2016-08-12T21:39:13.000Z</time>
        <extensions>
          <ns3:TrackPointExtension>
            <ns3:atemp>16.0</ns3:atemp>
            <ns3:hr>143</ns3:hr>
          </ns3:TrackPointExtension>
        </extensions>
      </trkpt>
      <trkpt lat="-22.03050135634839534759521484375" lon="166.46785880438983440399169921875">
        <ele>883.5999755859375</ele>
        <time>2016-08-12T21:39:14.000Z</time>
        <extensions>
          <ns3:TrackPointExtension>
            <ns3:atemp>16.0</ns3:atemp>
            <ns3:hr>143</ns3:hr>
          </ns3:TrackPointExtension>
        </extensions>
      </trkpt>
      <trkpt lat="-22.0305096544325351715087890625" lon="166.46783751435577869415283203125">
        <ele>884.20001220703125</ele>
        <time>2016-08-12T21:39:15.000Z</time>
        <extensions>
          <ns3:TrackPointExtension>
            <ns3:atemp>16.0</ns3:atemp>
            <ns3:hr>142</ns3:hr>
          </ns3:TrackPointExtension>
        </extensions>
      </trkpt>
      <trkpt lat="-22.0305182039737701416015625" lon="166.4678141288459300994873046875">
        <ele>884.4000244140625</ele>
        <time>2016-08-12T21:39:16.000Z</time>
        <extensions>
          <ns3:TrackPointExtension>
            <ns3:atemp>16.0</ns3:atemp>
            <ns3:hr>143</ns3:hr>
          </ns3:TrackPointExtension>
        </extensions>
      </trkpt>
      <trkpt lat="-22.03053228557109832763671875" lon="166.46778739057481288909912109375">
        <ele>884</ele>
        <time>2016-08-12T21:39:17.000Z</time>
        <extensions>
          <ns3:TrackPointExtension>
            <ns3:atemp>16.0</ns3:atemp>
            <ns3:hr>143</ns3:hr>
          </ns3:TrackPointExtension>
        </extensions>
      </trkpt>
      <trkpt lat="-22.030546367168426513671875" lon="166.467760317027568817138671875">
        <ele>883.5999755859375</ele>
        <time>2016-08-12T21:39:18.000Z</time>
        <extensions>
          <ns3:TrackPointExtension>
            <ns3:atemp>16.0</ns3:atemp>
            <ns3:hr>143</ns3:hr>
          </ns3:TrackPointExtension>
        </extensions>
      </trkpt>
      <trkpt lat="-22.03056053258478641510009765625" lon="166.46773944608867168426513671875">
        <ele>884.20001220703125</ele>
        <time>2016-08-12T21:39:19.000Z</time>
        <extensions>
          <ns3:TrackPointExtension>
            <ns3:atemp>16.0</ns3:atemp>
            <ns3:hr>143</ns3:hr>
          </ns3:TrackPointExtension>
        </extensions>
      </trkpt>
      <trkpt lat="-22.0305746980011463165283203125" lon="166.46771849133074283599853515625">
        <ele>884.20001220703125</ele>
        <time>2016-08-12T21:39:20.000Z</time>
        <extensions>
          <ns3:TrackPointExtension>
            <ns3:atemp>16.0</ns3:atemp>
            <ns3:hr>143</ns3:hr>
          </ns3:TrackPointExtension>
        </extensions>
      </trkpt>
      <trkpt lat="-22.03058701939880847930908203125" lon="166.46769602783024311065673828125">
        <ele>883.5999755859375</ele>
        <time>2016-08-12T21:39:21.000Z</time>
        <extensions>
          <ns3:TrackPointExtension>
            <ns3:atemp>16.0</ns3:atemp>
            <ns3:hr>143</ns3:hr>
          </ns3:TrackPointExtension>
        </extensions>
      </trkpt>
      <trkpt lat="-22.03060210682451725006103515625" lon="166.467677168548107147216796875">
        <ele>883.79998779296875</ele>
        <time>2016-08-12T21:39:22.000Z</time>
        <extensions>
          <ns3:TrackPointExtension>
            <ns3:atemp>16.0</ns3:atemp>
            <ns3:hr>143</ns3:hr>
          </ns3:TrackPointExtension>
        </extensions>
      </trkpt>
      <trkpt lat="-22.030618451535701751708984375" lon="166.46765294484794139862060546875">
        <ele>884.4000244140625</ele>
        <time>2016-08-12T21:39:23.000Z</time>
        <extensions>
          <ns3:TrackPointExtension>
            <ns3:atemp>16.0</ns3:atemp>
            <ns3:hr>143</ns3:hr>
          </ns3:TrackPointExtension>
        </extensions>
      </trkpt>
      <trkpt lat="-22.030632533133029937744140625" lon="166.46763366647064685821533203125">
        <ele>884.20001220703125</ele>
        <time>2016-08-12T21:39:24.000Z</time>
        <extensions>
          <ns3:TrackPointExtension>
            <ns3:atemp>16.0</ns3:atemp>
            <ns3:hr>143</ns3:hr>
          </ns3:TrackPointExtension>
        </extensions>
      </trkpt>
      <trkpt lat="-22.0306523144245147705078125" lon="166.46761958487331867218017578125">
        <ele>883.79998779296875</ele>
        <time>2016-08-12T21:39:25.000Z</time>
        <extensions>
          <ns3:TrackPointExtension>
            <ns3:atemp>16.0</ns3:atemp>
            <ns3:hr>143</ns3:hr>
          </ns3:TrackPointExtension>
        </extensions>
      </trkpt>
      <trkpt lat="-22.030669413506984710693359375" lon="166.46760164760053157806396484375">
        <ele>883.5999755859375</ele>
        <time>2016-08-12T21:39:26.000Z</time>
        <extensions>
          <ns3:TrackPointExtension>
            <ns3:atemp>16.0</ns3:atemp>
            <ns3:hr>143</ns3:hr>
          </ns3:TrackPointExtension>
        </extensions>
      </trkpt>
      <trkpt lat="-22.03067938797175884246826171875" lon="166.46758220158517360687255859375">
        <ele>883.79998779296875</ele>
        <time>2016-08-12T21:39:27.000Z</time>
        <extensions>
          <ns3:TrackPointExtension>
            <ns3:atemp>16.0</ns3:atemp>
            <ns3:hr>143</ns3:hr>
          </ns3:TrackPointExtension>
        </extensions>
      </trkpt>
      <trkpt lat="-22.03069682233035564422607421875" lon="166.4675666950643062591552734375">
        <ele>883.79998779296875</ele>
        <time>2016-08-12T21:39:28.000Z</time>
        <extensions>
          <ns3:TrackPointExtension>
            <ns3:atemp>16.0</ns3:atemp>
            <ns3:hr>143</ns3:hr>
          </ns3:TrackPointExtension>
        </extensions>
      </trkpt>
      <trkpt lat="-22.03071593306958675384521484375" lon="166.46755169145762920379638671875">
        <ele>883.79998779296875</ele>
        <time>2016-08-12T21:39:29.000Z</time>
        <extensions>
          <ns3:TrackPointExtension>
            <ns3:atemp>16.0</ns3:atemp>
            <ns3:hr>143</ns3:hr>
          </ns3:TrackPointExtension>
        </extensions>
      </trkpt>
      <trkpt lat="-22.03073588199913501739501953125" lon="166.4675407111644744873046875">
        <ele>884</ele>
        <time>2016-08-12T21:39:30.000Z</time>
        <extensions>
          <ns3:TrackPointExtension>
            <ns3:atemp>16.0</ns3:atemp>
            <ns3:hr>143</ns3:hr>
          </ns3:TrackPointExtension>
        </extensions>
      </trkpt>
      <trkpt lat="-22.03075432218611240386962890625" lon="166.467522941529750823974609375">
        <ele>884.5999755859375</ele>
        <time>2016-08-12T21:39:31.000Z</time>
        <extensions>
          <ns3:TrackPointExtension>
            <ns3:atemp>16.0</ns3:atemp>
            <ns3:hr>143</ns3:hr>
          </ns3:TrackPointExtension>
        </extensions>
      </trkpt>
      <trkpt lat="-22.03077510930597782135009765625" lon="166.467508859932422637939453125">
        <ele>884.5999755859375</ele>
        <time>2016-08-12T21:39:32.000Z</time>
        <extensions>
          <ns3:TrackPointExtension>
            <ns3:atemp>16.0</ns3:atemp>
            <ns3:hr>143</ns3:hr>
          </ns3:TrackPointExtension>
        </extensions>
      </trkpt>
      <trkpt lat="-22.0307946391403675079345703125" lon="166.4674962870776653289794921875">
        <ele>884</ele>
        <time>2016-08-12T21:39:33.000Z</time>
        <extensions>
          <ns3:TrackPointExtension>
            <ns3:atemp>16.0</ns3:atemp>
            <ns3:hr>142</ns3:hr>
          </ns3:TrackPointExtension>
        </extensions>
      </trkpt>
      <trkpt lat="-22.030815593898296356201171875" lon="166.4674882404506206512451171875">
        <ele>884</ele>
        <time>2016-08-12T21:39:34.000Z</time>
        <extensions>
          <ns3:TrackPointExtension>
            <ns3:atemp>16.0</ns3:atemp>
            <ns3:hr>143</ns3:hr>
          </ns3:TrackPointExtension>
        </extensions>
      </trkpt>
      <trkpt lat="-22.0308348722755908966064453125" lon="166.46748111583292484283447265625">
        <ele>884.5999755859375</ele>
        <time>2016-08-12T21:39:35.000Z</time>
        <extensions>
          <ns3:TrackPointExtension>
            <ns3:atemp>16.0</ns3:atemp>
            <ns3:hr>142</ns3:hr>
          </ns3:TrackPointExtension>
        </extensions>
      </trkpt>
      <trkpt lat="-22.03085507266223430633544921875" lon="166.4674734883010387420654296875">
        <ele>885</ele>
        <time>2016-08-12T21:39:36.000Z</time>
        <extensions>
          <ns3:TrackPointExtension>
            <ns3:atemp>16.0</ns3:atemp>
            <ns3:hr>142</ns3:hr>
          </ns3:TrackPointExtension>
        </extensions>
      </trkpt>
      <trkpt lat="-22.03086999244987964630126953125" lon="166.46746619604527950286865234375">
        <ele>885</ele>
        <time>2016-08-12T21:39:37.000Z</time>
        <extensions>
          <ns3:TrackPointExtension>
            <ns3:atemp>16.0</ns3:atemp>
            <ns3:hr>143</ns3:hr>
          </ns3:TrackPointExtension>
        </extensions>
      </trkpt>
      <trkpt lat="-22.0308858342468738555908203125" lon="166.46745580248534679412841796875">
        <ele>885</ele>
        <time>2016-08-12T21:39:38.000Z</time>
        <extensions>
          <ns3:TrackPointExtension>
            <ns3:atemp>16.0</ns3:atemp>
            <ns3:hr>142</ns3:hr>
          </ns3:TrackPointExtension>
        </extensions>
      </trkpt>
      <trkpt lat="-22.03090469352900981903076171875" lon="166.46745127625763416290283203125">
        <ele>885.20001220703125</ele>
        <time>2016-08-12T21:39:39.000Z</time>
        <extensions>
          <ns3:TrackPointExtension>
            <ns3:atemp>16.0</ns3:atemp>
            <ns3:hr>142</ns3:hr>
          </ns3:TrackPointExtension>
        </extensions>
      </trkpt>
      <trkpt lat="-22.0309203676879405975341796875" lon="166.46744306199252605438232421875">
        <ele>885</ele>
        <time>2016-08-12T21:39:40.000Z</time>
        <extensions>
          <ns3:TrackPointExtension>
            <ns3:atemp>16.0</ns3:atemp>
            <ns3:hr>142</ns3:hr>
          </ns3:TrackPointExtension>
        </extensions>
      </trkpt>
      <trkpt lat="-22.0309361256659030914306640625" lon="166.4674305729568004608154296875">
        <ele>884.20001220703125</ele>
        <time>2016-08-12T21:39:41.000Z</time>
        <extensions>
          <ns3:TrackPointExtension>
            <ns3:atemp>16.0</ns3:atemp>
            <ns3:hr>142</ns3:hr>
          </ns3:TrackPointExtension>
        </extensions>
      </trkpt>
      <trkpt lat="-22.0309518836438655853271484375" lon="166.46741556935012340545654296875">
        <ele>884.20001220703125</ele>
        <time>2016-08-12T21:39:42.000Z</time>
        <extensions>
          <ns3:TrackPointExtension>
            <ns3:atemp>16.0</ns3:atemp>
            <ns3:hr>142</ns3:hr>
          </ns3:TrackPointExtension>
        </extensions>
      </trkpt>
      <trkpt lat="-22.030966468155384063720703125" lon="166.4674007333815097808837890625">
        <ele>885</ele>
        <time>2016-08-12T21:39:43.000Z</time>
        <extensions>
          <ns3:TrackPointExtension>
            <ns3:atemp>16.0</ns3:atemp>
            <ns3:hr>142</ns3:hr>
          </ns3:TrackPointExtension>
        </extensions>
      </trkpt>
      <trkpt lat="-22.03098281286656856536865234375" lon="166.46738287992775440216064453125">
        <ele>885.5999755859375</ele>
        <time>2016-08-12T21:39:44.000Z</time>
        <extensions>
          <ns3:TrackPointExtension>
            <ns3:atemp>16.0</ns3:atemp>
            <ns3:hr>142</ns3:hr>
          </ns3:TrackPointExtension>
        </extensions>
      </trkpt>
      <trkpt lat="-22.031004019081592559814453125" lon="166.4673705585300922393798828125">
        <ele>885.20001220703125</ele>
        <time>2016-08-12T21:39:45.000Z</time>
        <extensions>
          <ns3:TrackPointExtension>
            <ns3:atemp>16.0</ns3:atemp>
            <ns3:hr>142</ns3:hr>
          </ns3:TrackPointExtension>
        </extensions>
      </trkpt>
      <trkpt lat="-22.0310253091156482696533203125" lon="166.46735471673309803009033203125">
        <ele>885.20001220703125</ele>
        <time>2016-08-12T21:39:46.000Z</time>
        <extensions>
          <ns3:TrackPointExtension>
            <ns3:atemp>16.0</ns3:atemp>
            <ns3:hr>142</ns3:hr>
          </ns3:TrackPointExtension>
        </extensions>
      </trkpt>
      <trkpt lat="-22.03104852698743343353271484375" lon="166.4673407189548015594482421875">
        <ele>885.5999755859375</ele>
        <time>2016-08-12T21:39:47.000Z</time>
        <extensions>
          <ns3:TrackPointExtension>
            <ns3:atemp>16.0</ns3:atemp>
            <ns3:hr>143</ns3:hr>
          </ns3:TrackPointExtension>
        </extensions>
      </trkpt>
      <trkpt lat="-22.03106696717441082000732421875" lon="166.4673279784619808197021484375">
        <ele>885.79998779296875</ele>
        <time>2016-08-12T21:39:48.000Z</time>
        <extensions>
          <ns3:TrackPointExtension>
            <ns3:atemp>16.0</ns3:atemp>
            <ns3:hr>142</ns3:hr>
          </ns3:TrackPointExtension>
        </extensions>
      </trkpt>
      <trkpt lat="-22.03108825720846652984619140625" lon="166.46731875836849212646484375">
        <ele>885.5999755859375</ele>
        <time>2016-08-12T21:39:49.000Z</time>
        <extensions>
          <ns3:TrackPointExtension>
            <ns3:atemp>16.0</ns3:atemp>
            <ns3:hr>142</ns3:hr>
          </ns3:TrackPointExtension>
        </extensions>
      </trkpt>
      <trkpt lat="-22.0311071164906024932861328125" lon="166.46731163375079631805419921875">
        <ele>885.79998779296875</ele>
        <time>2016-08-12T21:39:50.000Z</time>
        <extensions>
          <ns3:TrackPointExtension>
            <ns3:atemp>16.0</ns3:atemp>
            <ns3:hr>142</ns3:hr>
          </ns3:TrackPointExtension>
        </extensions>
      </trkpt>
      <trkpt lat="-22.0311252214014530181884765625" lon="166.4673004858195781707763671875">
        <ele>885.79998779296875</ele>
        <time>2016-08-12T21:39:51.000Z</time>
        <extensions>
          <ns3:TrackPointExtension>
            <ns3:atemp>16.0</ns3:atemp>
            <ns3:hr>142</ns3:hr>
          </ns3:TrackPointExtension>
        </extensions>
      </trkpt>
      <trkpt lat="-22.03114391304552555084228515625" lon="166.4672877453267574310302734375">
        <ele>885.5999755859375</ele>
        <time>2016-08-12T21:39:52.000Z</time>
        <extensions>
          <ns3:TrackPointExtension>
            <ns3:atemp>16.0</ns3:atemp>
            <ns3:hr>142</ns3:hr>
          </ns3:TrackPointExtension>
        </extensions>
      </trkpt>
      <trkpt lat="-22.0311631076037883758544921875" lon="166.46727525629103183746337890625">
        <ele>885</ele>
        <time>2016-08-12T21:39:53.000Z</time>
        <extensions>
          <ns3:TrackPointExtension>
            <ns3:atemp>16.0</ns3:atemp>
            <ns3:hr>142</ns3:hr>
          </ns3:TrackPointExtension>
        </extensions>
      </trkpt>
      <trkpt lat="-22.03118347562849521636962890625" lon="166.46726310253143310546875">
        <ele>885.20001220703125</ele>
        <time>2016-08-12T21:39:54.000Z</time>
        <extensions>
          <ns3:TrackPointExtension>
            <ns3:atemp>16.0</ns3:atemp>
            <ns3:hr>142</ns3:hr>
          </ns3:TrackPointExtension>
        </extensions>
      </trkpt>
      <trkpt lat="-22.0312023349106311798095703125" lon="166.46725597791373729705810546875">
        <ele>885.4000244140625</ele>
        <time>2016-08-12T21:39:55.000Z</time>
        <extensions>
          <ns3:TrackPointExtension>
            <ns3:atemp>16.0</ns3:atemp>
            <ns3:hr>142</ns3:hr>
          </ns3:TrackPointExtension>
        </extensions>
      </trkpt>
      <trkpt lat="-22.0312164165079593658447265625" lon="166.467250026762485504150390625">
        <ele>885</ele>
        <time>2016-08-12T21:39:56.000Z</time>
        <extensions>
          <ns3:TrackPointExtension>
            <ns3:atemp>16.0</ns3:atemp>
            <ns3:hr>142</ns3:hr>
          </ns3:TrackPointExtension>
        </extensions>
      </trkpt>
      <trkpt lat="-22.031234018504619598388671875" lon="166.46724726073443889617919921875">
        <ele>884.5999755859375</ele>
        <time>2016-08-12T21:39:57.000Z</time>
        <extensions>
          <ns3:TrackPointExtension>
            <ns3:atemp>16.0</ns3:atemp>
            <ns3:hr>142</ns3:hr>
          </ns3:TrackPointExtension>
        </extensions>
      </trkpt>
      <trkpt lat="-22.03125220723450183868408203125" lon="166.4672478474676609039306640625">
        <ele>885.20001220703125</ele>
        <time>2016-08-12T21:39:58.000Z</time>
        <extensions>
          <ns3:TrackPointExtension>
            <ns3:atemp>16.0</ns3:atemp>
            <ns3:hr>141</ns3:hr>
          </ns3:TrackPointExtension>
        </extensions>
      </trkpt>
      <trkpt lat="-22.03127165324985980987548828125" lon="166.467250697314739227294921875">
        <ele>885.4000244140625</ele>
        <time>2016-08-12T21:39:59.000Z</time>
        <extensions>
          <ns3:TrackPointExtension>
            <ns3:atemp>16.0</ns3:atemp>
            <ns3:hr>142</ns3:hr>
          </ns3:TrackPointExtension>
        </extensions>
      </trkpt>
      <trkpt lat="-22.03128908760845661163330078125" lon="166.46725614555180072784423828125">
        <ele>885.4000244140625</ele>
        <time>2016-08-12T21:40:00.000Z</time>
        <extensions>
          <ns3:TrackPointExtension>
            <ns3:atemp>16.0</ns3:atemp>
            <ns3:hr>142</ns3:hr>
          </ns3:TrackPointExtension>
        </extensions>
      </trkpt>
      <trkpt lat="-22.031303755939006805419921875" lon="166.46726536564528942108154296875">
        <ele>885.4000244140625</ele>
        <time>2016-08-12T21:40:01.000Z</time>
        <extensions>
          <ns3:TrackPointExtension>
            <ns3:atemp>16.0</ns3:atemp>
            <ns3:hr>141</ns3:hr>
          </ns3:TrackPointExtension>
        </extensions>
      </trkpt>
      <trkpt lat="-22.0313148200511932373046875" lon="166.4672776870429515838623046875">
        <ele>885.79998779296875</ele>
        <time>2016-08-12T21:40:02.000Z</time>
        <extensions>
          <ns3:TrackPointExtension>
            <ns3:atemp>16.0</ns3:atemp>
            <ns3:hr>142</ns3:hr>
          </ns3:TrackPointExtension>
        </extensions>
      </trkpt>
      <trkpt lat="-22.03133183531463146209716796875" lon="166.46728967316448688507080078125">
        <ele>885.79998779296875</ele>
        <time>2016-08-12T21:40:03.000Z</time>
        <extensions>
          <ns3:TrackPointExtension>
            <ns3:atemp>16.0</ns3:atemp>
            <ns3:hr>141</ns3:hr>
          </ns3:TrackPointExtension>
        </extensions>
      </trkpt>
      <trkpt lat="-22.0313475094735622406005859375" lon="166.46730241365730762481689453125">
        <ele>885.79998779296875</ele>
        <time>2016-08-12T21:40:04.000Z</time>
        <extensions>
          <ns3:TrackPointExtension>
            <ns3:atemp>16.0</ns3:atemp>
            <ns3:hr>141</ns3:hr>
          </ns3:TrackPointExtension>
        </extensions>
      </trkpt>
      <trkpt lat="-22.0313605852425098419189453125" lon="166.4673142321407794952392578125">
        <ele>886</ele>
        <time>2016-08-12T21:40:05.000Z</time>
        <extensions>
          <ns3:TrackPointExtension>
            <ns3:atemp>16.0</ns3:atemp>
            <ns3:hr>141</ns3:hr>
          </ns3:TrackPointExtension>
        </extensions>
      </trkpt>
      <trkpt lat="-22.03137852251529693603515625" lon="166.4673222787678241729736328125">
        <ele>886.5999755859375</ele>
        <time>2016-08-12T21:40:06.000Z</time>
        <extensions>
          <ns3:TrackPointExtension>
            <ns3:atemp>16.0</ns3:atemp>
            <ns3:hr>141</ns3:hr>
          </ns3:TrackPointExtension>
        </extensions>
      </trkpt>
      <trkpt lat="-22.0313994772732257843017578125" lon="166.4673286490142345428466796875">
        <ele>886</ele>
        <time>2016-08-12T21:40:07.000Z</time>
        <extensions>
          <ns3:TrackPointExtension>
            <ns3:atemp>16.0</ns3:atemp>
            <ns3:hr>142</ns3:hr>
          </ns3:TrackPointExtension>
        </extensions>
      </trkpt>
      <trkpt lat="-22.0314159058034420013427734375" lon="166.467335522174835205078125">
        <ele>885.5999755859375</ele>
        <time>2016-08-12T21:40:08.000Z</time>
        <extensions>
          <ns3:TrackPointExtension>
            <ns3:atemp>16.0</ns3:atemp>
            <ns3:hr>141</ns3:hr>
          </ns3:TrackPointExtension>
        </extensions>
      </trkpt>
      <trkpt lat="-22.03142856247723102569580078125" lon="166.46734080277383327484130859375">
        <ele>885.79998779296875</ele>
        <time>2016-08-12T21:40:09.000Z</time>
        <extensions>
          <ns3:TrackPointExtension>
            <ns3:atemp>16.0</ns3:atemp>
            <ns3:hr>141</ns3:hr>
          </ns3:TrackPointExtension>
        </extensions>
      </trkpt>
      <trkpt lat="-22.0314433984458446502685546875" lon="166.46734432317316532135009765625">
        <ele>886.20001220703125</ele>
        <time>2016-08-12T21:40:10.000Z</time>
        <extensions>
          <ns3:TrackPointExtension>
            <ns3:atemp>16.0</ns3:atemp>
            <ns3:hr>141</ns3:hr>
          </ns3:TrackPointExtension>
        </extensions>
      </trkpt>
      <trkpt lat="-22.03145563602447509765625" lon="166.467346251010894775390625">
        <ele>886.20001220703125</ele>
        <time>2016-08-12T21:40:11.000Z</time>
        <extensions>
          <ns3:TrackPointExtension>
            <ns3:atemp>16.0</ns3:atemp>
            <ns3:hr>141</ns3:hr>
          </ns3:TrackPointExtension>
        </extensions>
      </trkpt>
      <trkpt lat="-22.03146661631762981414794921875" lon="166.467353291809558868408203125">
        <ele>886.20001220703125</ele>
        <time>2016-08-12T21:40:12.000Z</time>
        <extensions>
          <ns3:TrackPointExtension>
            <ns3:atemp>16.0</ns3:atemp>
            <ns3:hr>141</ns3:hr>
          </ns3:TrackPointExtension>
        </extensions>
      </trkpt>
      <trkpt lat="-22.03148170374333858489990234375" lon="166.4673628471791744232177734375">
        <ele>886.4000244140625</ele>
        <time>2016-08-12T21:40:13.000Z</time>
        <extensions>
          <ns3:TrackPointExtension>
            <ns3:atemp>16.0</ns3:atemp>
            <ns3:hr>141</ns3:hr>
          </ns3:TrackPointExtension>
        </extensions>
      </trkpt>
      <trkpt lat="-22.0314987190067768096923828125" lon="166.46736837923526763916015625">
        <ele>886.20001220703125</ele>
        <time>2016-08-12T21:40:14.000Z</time>
        <extensions>
          <ns3:TrackPointExtension>
            <ns3:atemp>16.0</ns3:atemp>
            <ns3:hr>141</ns3:hr>
          </ns3:TrackPointExtension>
        </extensions>
      </trkpt>
      <trkpt lat="-22.0315141417086124420166015625" lon="166.46737483330070972442626953125">
        <ele>886</ele>
        <time>2016-08-12T21:40:15.000Z</time>
        <extensions>
          <ns3:TrackPointExtension>
            <ns3:atemp>16.0</ns3:atemp>
            <ns3:hr>141</ns3:hr>
          </ns3:TrackPointExtension>
        </extensions>
      </trkpt>
      <trkpt lat="-22.03153677284717559814453125" lon="166.467378102242946624755859375">
        <ele>886.20001220703125</ele>
        <time>2016-08-12T21:40:16.000Z</time>
        <extensions>
          <ns3:TrackPointExtension>
            <ns3:atemp>16.0</ns3:atemp>
            <ns3:hr>141</ns3:hr>
          </ns3:TrackPointExtension>
        </extensions>
      </trkpt>
      <trkpt lat="-22.0315563865005970001220703125" lon="166.46737952716648578643798828125">
        <ele>887</ele>
        <time>2016-08-12T21:40:17.000Z</time>
        <extensions>
          <ns3:TrackPointExtension>
            <ns3:atemp>16.0</ns3:atemp>
            <ns3:hr>141</ns3:hr>
          </ns3:TrackPointExtension>
        </extensions>
      </trkpt>
      <trkpt lat="-22.03157524578273296356201171875" lon="166.467384807765483856201171875">
        <ele>887</ele>
        <time>2016-08-12T21:40:18.000Z</time>
        <extensions>
          <ns3:TrackPointExtension>
            <ns3:atemp>16.0</ns3:atemp>
            <ns3:hr>140</ns3:hr>
          </ns3:TrackPointExtension>
        </extensions>
      </trkpt>
      <trkpt lat="-22.0315889082849025726318359375" lon="166.467390172183513641357421875">
        <ele>887</ele>
        <time>2016-08-12T21:40:19.000Z</time>
        <extensions>
          <ns3:TrackPointExtension>
            <ns3:atemp>16.0</ns3:atemp>
            <ns3:hr>140</ns3:hr>
          </ns3:TrackPointExtension>
        </extensions>
      </trkpt>
      <trkpt lat="-22.031605504453182220458984375" lon="166.467394195497035980224609375">
        <ele>887.4000244140625</ele>
        <time>2016-08-12T21:40:20.000Z</time>
        <extensions>
          <ns3:TrackPointExtension>
            <ns3:atemp>16.0</ns3:atemp>
            <ns3:hr>141</ns3:hr>
          </ns3:TrackPointExtension>
        </extensions>
      </trkpt>
      <trkpt lat="-22.03162218444049358367919921875" lon="166.46740215830504894256591796875">
        <ele>887.79998779296875</ele>
        <time>2016-08-12T21:40:21.000Z</time>
        <extensions>
          <ns3:TrackPointExtension>
            <ns3:atemp>16.0</ns3:atemp>
            <ns3:hr>140</ns3:hr>
          </ns3:TrackPointExtension>
        </extensions>
      </trkpt>
      <trkpt lat="-22.03164766542613506317138671875" lon="166.46741255186498165130615234375">
        <ele>888</ele>
        <time>2016-08-12T21:40:22.000Z</time>
        <extensions>
          <ns3:TrackPointExtension>
            <ns3:atemp>16.0</ns3:atemp>
            <ns3:hr>140</ns3:hr>
          </ns3:TrackPointExtension>
        </extensions>
      </trkpt>
      <trkpt lat="-22.03167079947888851165771484375" lon="166.467405259609222412109375">
        <ele>888</ele>
        <time>2016-08-12T21:40:23.000Z</time>
        <extensions>
          <ns3:TrackPointExtension>
            <ns3:atemp>16.0</ns3:atemp>
            <ns3:hr>140</ns3:hr>
          </ns3:TrackPointExtension>
        </extensions>
      </trkpt>
      <trkpt lat="-22.0316925086081027984619140625" lon="166.46739142946898937225341796875">
        <ele>888.79998779296875</ele>
        <time>2016-08-12T21:40:24.000Z</time>
        <extensions>
          <ns3:TrackPointExtension>
            <ns3:atemp>16.0</ns3:atemp>
            <ns3:hr>140</ns3:hr>
          </ns3:TrackPointExtension>
        </extensions>
      </trkpt>
      <trkpt lat="-22.03171438537538051605224609375" lon="166.4673772640526294708251953125">
        <ele>889.20001220703125</ele>
        <time>2016-08-12T21:40:25.000Z</time>
        <extensions>
          <ns3:TrackPointExtension>
            <ns3:atemp>16.0</ns3:atemp>
            <ns3:hr>140</ns3:hr>
          </ns3:TrackPointExtension>
        </extensions>
      </trkpt>
      <trkpt lat="-22.03173567540943622589111328125" lon="166.467362008988857269287109375">
        <ele>889.5999755859375</ele>
        <time>2016-08-12T21:40:26.000Z</time>
        <extensions>
          <ns3:TrackPointExtension>
            <ns3:atemp>16.0</ns3:atemp>
            <ns3:hr>141</ns3:hr>
          </ns3:TrackPointExtension>
        </extensions>
      </trkpt>
      <trkpt lat="-22.03175579197704792022705078125" lon="166.46734683774411678314208984375">
        <ele>889.79998779296875</ele>
        <time>2016-08-12T21:40:27.000Z</time>
        <extensions>
          <ns3:TrackPointExtension>
            <ns3:atemp>16.0</ns3:atemp>
            <ns3:hr>141</ns3:hr>
          </ns3:TrackPointExtension>
        </extensions>
      </trkpt>
      <trkpt lat="-22.03177590854465961456298828125" lon="166.46732957102358341217041015625">
        <ele>890.20001220703125</ele>
        <time>2016-08-12T21:40:28.000Z</time>
        <extensions>
          <ns3:TrackPointExtension>
            <ns3:atemp>16.0</ns3:atemp>
            <ns3:hr>141</ns3:hr>
          </ns3:TrackPointExtension>
        </extensions>
      </trkpt>
      <trkpt lat="-22.03179351054131984710693359375" lon="166.467309705913066864013671875">
        <ele>890.4000244140625</ele>
        <time>2016-08-12T21:40:29.000Z</time>
        <extensions>
          <ns3:TrackPointExtension>
            <ns3:atemp>16.0</ns3:atemp>
            <ns3:hr>141</ns3:hr>
          </ns3:TrackPointExtension>
        </extensions>
      </trkpt>
      <trkpt lat="-22.0318110287189483642578125" lon="166.4672890864312648773193359375">
        <ele>890.4000244140625</ele>
        <time>2016-08-12T21:40:30.000Z</time>
        <extensions>
          <ns3:TrackPointExtension>
            <ns3:atemp>16.0</ns3:atemp>
            <ns3:hr>141</ns3:hr>
          </ns3:TrackPointExtension>
        </extensions>
      </trkpt>
      <trkpt lat="-22.03182351775467395782470703125" lon="166.46726788021624088287353515625">
        <ele>890.4000244140625</ele>
        <time>2016-08-12T21:40:31.000Z</time>
        <extensions>
          <ns3:TrackPointExtension>
            <ns3:atemp>16.0</ns3:atemp>
            <ns3:hr>141</ns3:hr>
          </ns3:TrackPointExtension>
        </extensions>
      </trkpt>
      <trkpt lat="-22.03184061683714389801025390625" lon="166.4672483503818511962890625">
        <ele>891</ele>
        <time>2016-08-12T21:40:32.000Z</time>
        <extensions>
          <ns3:TrackPointExtension>
            <ns3:atemp>16.0</ns3:atemp>
            <ns3:hr>142</ns3:hr>
          </ns3:TrackPointExtension>
        </extensions>
      </trkpt>
      <trkpt lat="-22.0318544469773769378662109375" lon="166.46722680889070034027099609375">
        <ele>891.20001220703125</ele>
        <time>2016-08-12T21:40:33.000Z</time>
        <extensions>
          <ns3:TrackPointExtension>
            <ns3:atemp>16.0</ns3:atemp>
            <ns3:hr>142</ns3:hr>
          </ns3:TrackPointExtension>
        </extensions>
      </trkpt>
      <trkpt lat="-22.031871378421783447265625" lon="166.46720602177083492279052734375">
        <ele>891.20001220703125</ele>
        <time>2016-08-12T21:40:34.000Z</time>
        <extensions>
          <ns3:TrackPointExtension>
            <ns3:atemp>16.0</ns3:atemp>
            <ns3:hr>142</ns3:hr>
          </ns3:TrackPointExtension>
        </extensions>
      </trkpt>
      <trkpt lat="-22.03189174644649028778076171875" lon="166.46718196570873260498046875">
        <ele>891.5999755859375</ele>
        <time>2016-08-12T21:40:35.000Z</time>
        <extensions>
          <ns3:TrackPointExtension>
            <ns3:atemp>16.0</ns3:atemp>
            <ns3:hr>142</ns3:hr>
          </ns3:TrackPointExtension>
        </extensions>
      </trkpt>
      <trkpt lat="-22.03190783970057964324951171875" lon="166.4671657048165798187255859375">
        <ele>891.5999755859375</ele>
        <time>2016-08-12T21:40:36.000Z</time>
        <extensions>
          <ns3:TrackPointExtension>
            <ns3:atemp>16.0</ns3:atemp>
            <ns3:hr>142</ns3:hr>
          </ns3:TrackPointExtension>
        </extensions>
      </trkpt>
      <trkpt lat="-22.03192879445850849151611328125" lon="166.46715573035180568695068359375">
        <ele>891.20001220703125</ele>
        <time>2016-08-12T21:40:37.000Z</time>
        <extensions>
          <ns3:TrackPointExtension>
            <ns3:atemp>16.0</ns3:atemp>
            <ns3:hr>142</ns3:hr>
          </ns3:TrackPointExtension>
        </extensions>
      </trkpt>
      <trkpt lat="-22.031943798065185546875" lon="166.46713796071708202362060546875">
        <ele>891.4000244140625</ele>
        <time>2016-08-12T21:40:38.000Z</time>
        <extensions>
          <ns3:TrackPointExtension>
            <ns3:atemp>16.0</ns3:atemp>
            <ns3:hr>143</ns3:hr>
          </ns3:TrackPointExtension>
        </extensions>
      </trkpt>
      <trkpt lat="-22.0319652557373046875" lon="166.46711893379688262939453125">
        <ele>891.5999755859375</ele>
        <time>2016-08-12T21:40:39.000Z</time>
        <extensions>
          <ns3:TrackPointExtension>
            <ns3:atemp>16.0</ns3:atemp>
            <ns3:hr>143</ns3:hr>
          </ns3:TrackPointExtension>
        </extensions>
      </trkpt>
      <trkpt lat="-22.031985707581043243408203125" lon="166.46709906868636608123779296875">
        <ele>891.79998779296875</ele>
        <time>2016-08-12T21:40:40.000Z</time>
        <extensions>
          <ns3:TrackPointExtension>
            <ns3:atemp>16.0</ns3:atemp>
            <ns3:hr>143</ns3:hr>
          </ns3:TrackPointExtension>
        </extensions>
      </trkpt>
      <trkpt lat="-22.03199719078838825225830078125" lon="166.467083059251308441162109375">
        <ele>892.20001220703125</ele>
        <time>2016-08-12T21:40:41.000Z</time>
        <extensions>
          <ns3:TrackPointExtension>
            <ns3:atemp>16.0</ns3:atemp>
            <ns3:hr>143</ns3:hr>
          </ns3:TrackPointExtension>
        </extensions>
      </trkpt>
      <trkpt lat="-22.03201311640441417694091796875" lon="166.467068977653980255126953125">
        <ele>892.5999755859375</ele>
        <time>2016-08-12T21:40:42.000Z</time>
        <extensions>
          <ns3:TrackPointExtension>
            <ns3:atemp>16.0</ns3:atemp>
            <ns3:hr>143</ns3:hr>
          </ns3:TrackPointExtension>
        </extensions>
      </trkpt>
      <trkpt lat="-22.03202753327786922454833984375" lon="166.46705347113311290740966796875">
        <ele>893</ele>
        <time>2016-08-12T21:40:43.000Z</time>
        <extensions>
          <ns3:TrackPointExtension>
            <ns3:atemp>16.0</ns3:atemp>
            <ns3:hr>143</ns3:hr>
          </ns3:TrackPointExtension>
        </extensions>
      </trkpt>
      <trkpt lat="-22.032041363418102264404296875" lon="166.467034779489040374755859375">
        <ele>893.4000244140625</ele>
        <time>2016-08-12T21:40:44.000Z</time>
        <extensions>
          <ns3:TrackPointExtension>
            <ns3:atemp>16.0</ns3:atemp>
            <ns3:hr>143</ns3:hr>
          </ns3:TrackPointExtension>
        </extensions>
      </trkpt>
      <trkpt lat="-22.03205988742411136627197265625" lon="166.46701776422560214996337890625">
        <ele>893.5999755859375</ele>
        <time>2016-08-12T21:40:45.000Z</time>
        <extensions>
          <ns3:TrackPointExtension>
            <ns3:atemp>16.0</ns3:atemp>
            <ns3:hr>144</ns3:hr>
          </ns3:TrackPointExtension>
        </extensions>
      </trkpt>
      <trkpt lat="-22.03207966871559619903564453125" lon="166.46699764765799045562744140625">
        <ele>893.20001220703125</ele>
        <time>2016-08-12T21:40:46.000Z</time>
        <extensions>
          <ns3:TrackPointExtension>
            <ns3:atemp>16.0</ns3:atemp>
            <ns3:hr>144</ns3:hr>
          </ns3:TrackPointExtension>
        </extensions>
      </trkpt>
      <trkpt lat="-22.03209861181676387786865234375" lon="166.46697417832911014556884765625">
        <ele>893.4000244140625</ele>
        <time>2016-08-12T21:40:47.000Z</time>
        <extensions>
          <ns3:TrackPointExtension>
            <ns3:atemp>16.0</ns3:atemp>
            <ns3:hr>143</ns3:hr>
          </ns3:TrackPointExtension>
        </extensions>
      </trkpt>
      <trkpt lat="-22.03211554326117038726806640625" lon="166.46694953553378582000732421875">
        <ele>894</ele>
        <time>2016-08-12T21:40:48.000Z</time>
        <extensions>
          <ns3:TrackPointExtension>
            <ns3:atemp>16.0</ns3:atemp>
            <ns3:hr>143</ns3:hr>
          </ns3:TrackPointExtension>
        </extensions>
      </trkpt>
      <trkpt lat="-22.03213490545749664306640625" lon="166.46693310700356960296630859375">
        <ele>894</ele>
        <time>2016-08-12T21:40:49.000Z</time>
        <extensions>
          <ns3:TrackPointExtension>
            <ns3:atemp>16.0</ns3:atemp>
            <ns3:hr>144</ns3:hr>
          </ns3:TrackPointExtension>
        </extensions>
      </trkpt>
      <trkpt lat="-22.03215829096734523773193359375" lon="166.4669182710349559783935546875">
        <ele>894.20001220703125</ele>
        <time>2016-08-12T21:40:50.000Z</time>
        <extensions>
          <ns3:TrackPointExtension>
            <ns3:atemp>16.0</ns3:atemp>
            <ns3:hr>143</ns3:hr>
          </ns3:TrackPointExtension>
        </extensions>
      </trkpt>
      <trkpt lat="-22.0321811735630035400390625" lon="166.4669062010943889617919921875">
        <ele>894.5999755859375</ele>
        <time>2016-08-12T21:40:51.000Z</time>
        <extensions>
          <ns3:TrackPointExtension>
            <ns3:atemp>16.0</ns3:atemp>
            <ns3:hr>143</ns3:hr>
          </ns3:TrackPointExtension>
        </extensions>
      </trkpt>
      <trkpt lat="-22.03220606781542301177978515625" lon="166.46689899265766143798828125">
        <ele>894.79998779296875</ele>
        <time>2016-08-12T21:40:52.000Z</time>
        <extensions>
          <ns3:TrackPointExtension>
            <ns3:atemp>16.0</ns3:atemp>
            <ns3:hr>143</ns3:hr>
          </ns3:TrackPointExtension>
        </extensions>
      </trkpt>
      <trkpt lat="-22.0322215743362903594970703125" lon="166.46688549779355525970458984375">
        <ele>894.79998779296875</ele>
        <time>2016-08-12T21:40:53.000Z</time>
        <extensions>
          <ns3:TrackPointExtension>
            <ns3:atemp>16.0</ns3:atemp>
            <ns3:hr>143</ns3:hr>
          </ns3:TrackPointExtension>
        </extensions>
      </trkpt>
      <trkpt lat="-22.03222987242043018341064453125" lon="166.46686823107302188873291015625">
        <ele>894.79998779296875</ele>
        <time>2016-08-12T21:40:54.000Z</time>
        <extensions>
          <ns3:TrackPointExtension>
            <ns3:atemp>16.0</ns3:atemp>
            <ns3:hr>143</ns3:hr>
          </ns3:TrackPointExtension>
        </extensions>
      </trkpt>
      <trkpt lat="-22.032246887683868408203125" lon="166.46685213781893253326416015625">
        <ele>895.20001220703125</ele>
        <time>2016-08-12T21:40:55.000Z</time>
        <extensions>
          <ns3:TrackPointExtension>
            <ns3:atemp>16.0</ns3:atemp>
            <ns3:hr>143</ns3:hr>
          </ns3:TrackPointExtension>
        </extensions>
      </trkpt>
      <trkpt lat="-22.03225770033895969390869140625" lon="166.46683386527001857757568359375">
        <ele>895.4000244140625</ele>
        <time>2016-08-12T21:40:56.000Z</time>
        <extensions>
          <ns3:TrackPointExtension>
            <ns3:atemp>16.0</ns3:atemp>
            <ns3:hr>143</ns3:hr>
          </ns3:TrackPointExtension>
        </extensions>
      </trkpt>
      <trkpt lat="-22.03225501812994480133056640625" lon="166.46681223995983600616455078125">
        <ele>895.4000244140625</ele>
        <time>2016-08-12T21:40:57.000Z</time>
        <extensions>
          <ns3:TrackPointExtension>
            <ns3:atemp>16.0</ns3:atemp>
            <ns3:hr>143</ns3:hr>
          </ns3:TrackPointExtension>
        </extensions>
      </trkpt>
      <trkpt lat="-22.0322591252624988555908203125" lon="166.4667945541441440582275390625">
        <ele>896.20001220703125</ele>
        <time>2016-08-12T21:40:58.000Z</time>
        <extensions>
          <ns3:TrackPointExtension>
            <ns3:atemp>16.0</ns3:atemp>
            <ns3:hr>143</ns3:hr>
          </ns3:TrackPointExtension>
        </extensions>
      </trkpt>
      <trkpt lat="-22.0322611369192600250244140625" lon="166.466776616871356964111328125">
        <ele>896</ele>
        <time>2016-08-12T21:40:59.000Z</time>
        <extensions>
          <ns3:TrackPointExtension>
            <ns3:atemp>16.0</ns3:atemp>
            <ns3:hr>144</ns3:hr>
          </ns3:TrackPointExtension>
        </extensions>
      </trkpt>
      <trkpt lat="-22.0322587899863719940185546875" lon="166.46675105206668376922607421875">
        <ele>895.79998779296875</ele>
        <time>2016-08-12T21:41:00.000Z</time>
        <extensions>
          <ns3:TrackPointExtension>
            <ns3:atemp>16.0</ns3:atemp>
            <ns3:hr>144</ns3:hr>
          </ns3:TrackPointExtension>
        </extensions>
      </trkpt>
      <trkpt lat="-22.0322520844638347625732421875" lon="166.466723978519439697265625">
        <ele>896.20001220703125</ele>
        <time>2016-08-12T21:41:01.000Z</time>
        <extensions>
          <ns3:TrackPointExtension>
            <ns3:atemp>16.0</ns3:atemp>
            <ns3:hr>143</ns3:hr>
          </ns3:TrackPointExtension>
        </extensions>
      </trkpt>
      <trkpt lat="-22.0322336442768573760986328125" lon="166.46669782698154449462890625">
        <ele>896.5999755859375</ele>
        <time>2016-08-12T21:41:02.000Z</time>
        <extensions>
          <ns3:TrackPointExtension>
            <ns3:atemp>16.0</ns3:atemp>
            <ns3:hr>143</ns3:hr>
          </ns3:TrackPointExtension>
        </extensions>
      </trkpt>
      <trkpt lat="-22.03222719021141529083251953125" lon="166.46667393855750560760498046875">
        <ele>896.79998779296875</ele>
        <time>2016-08-12T21:41:03.000Z</time>
        <extensions>
          <ns3:TrackPointExtension>
            <ns3:atemp>16.0</ns3:atemp>
            <ns3:hr>144</ns3:hr>
          </ns3:TrackPointExtension>
        </extensions>
      </trkpt>
      <trkpt lat="-22.03222350217401981353759765625" lon="166.46665382198989391326904296875">
        <ele>897</ele>
        <time>2016-08-12T21:41:04.000Z</time>
        <extensions>
          <ns3:TrackPointExtension>
            <ns3:atemp>16.0</ns3:atemp>
            <ns3:hr>143</ns3:hr>
          </ns3:TrackPointExtension>
        </extensions>
      </trkpt>
      <trkpt lat="-22.0322125218808650970458984375" lon="166.46663772873580455780029296875">
        <ele>897.5999755859375</ele>
        <time>2016-08-12T21:41:05.000Z</time>
        <extensions>
          <ns3:TrackPointExtension>
            <ns3:atemp>16.0</ns3:atemp>
            <ns3:hr>143</ns3:hr>
          </ns3:TrackPointExtension>
        </extensions>
      </trkpt>
      <trkpt lat="-22.03220665454864501953125" lon="166.46661962382495403289794921875">
        <ele>897.79998779296875</ele>
        <time>2016-08-12T21:41:06.000Z</time>
        <extensions>
          <ns3:TrackPointExtension>
            <ns3:atemp>16.0</ns3:atemp>
            <ns3:hr>143</ns3:hr>
          </ns3:TrackPointExtension>
        </extensions>
      </trkpt>
      <trkpt lat="-22.0322162099182605743408203125" lon="166.46660923026502132415771484375">
        <ele>897.79998779296875</ele>
        <time>2016-08-12T21:41:07.000Z</time>
        <extensions>
          <ns3:TrackPointExtension>
            <ns3:atemp>16.0</ns3:atemp>
            <ns3:hr>143</ns3:hr>
          </ns3:TrackPointExtension>
        </extensions>
      </trkpt>
      <trkpt lat="-22.03222811222076416015625" lon="166.46659162826836109161376953125">
        <ele>897.5999755859375</ele>
        <time>2016-08-12T21:41:08.000Z</time>
        <extensions>
          <ns3:TrackPointExtension>
            <ns3:atemp>16.0</ns3:atemp>
            <ns3:hr>144</ns3:hr>
          </ns3:TrackPointExtension>
        </extensions>
      </trkpt>
      <trkpt lat="-22.03223548829555511474609375" lon="166.4665617048740386962890625">
        <ele>898.20001220703125</ele>
        <time>2016-08-12T21:41:09.000Z</time>
        <extensions>
          <ns3:TrackPointExtension>
            <ns3:atemp>16.0</ns3:atemp>
            <ns3:hr>143</ns3:hr>
          </ns3:TrackPointExtension>
        </extensions>
      </trkpt>
      <trkpt lat="-22.0322428643703460693359375" lon="166.4665394090116024017333984375">
        <ele>897.5999755859375</ele>
        <time>2016-08-12T21:41:10.000Z</time>
        <extensions>
          <ns3:TrackPointExtension>
            <ns3:atemp>16.0</ns3:atemp>
            <ns3:hr>143</ns3:hr>
          </ns3:TrackPointExtension>
        </extensions>
      </trkpt>
      <trkpt lat="-22.032254599034786224365234375" lon="166.466520130634307861328125">
        <ele>897.4000244140625</ele>
        <time>2016-08-12T21:41:11.000Z</time>
        <extensions>
          <ns3:TrackPointExtension>
            <ns3:atemp>16.0</ns3:atemp>
            <ns3:hr>144</ns3:hr>
          </ns3:TrackPointExtension>
        </extensions>
      </trkpt>
      <trkpt lat="-22.0322695188224315643310546875" lon="166.4665068872272968292236328125">
        <ele>897.5999755859375</ele>
        <time>2016-08-12T21:41:12.000Z</time>
        <extensions>
          <ns3:TrackPointExtension>
            <ns3:atemp>16.0</ns3:atemp>
            <ns3:hr>143</ns3:hr>
          </ns3:TrackPointExtension>
        </extensions>
      </trkpt>
      <trkpt lat="-22.03227932564914226531982421875" lon="166.46648668684065341949462890625">
        <ele>898</ele>
        <time>2016-08-12T21:41:13.000Z</time>
        <extensions>
          <ns3:TrackPointExtension>
            <ns3:atemp>16.0</ns3:atemp>
            <ns3:hr>144</ns3:hr>
          </ns3:TrackPointExtension>
        </extensions>
      </trkpt>
      <trkpt lat="-22.0322846062481403350830078125" lon="166.4664619602262973785400390625">
        <ele>898.20001220703125</ele>
        <time>2016-08-12T21:41:14.000Z</time>
        <extensions>
          <ns3:TrackPointExtension>
            <ns3:atemp>16.0</ns3:atemp>
            <ns3:hr>144</ns3:hr>
          </ns3:TrackPointExtension>
        </extensions>
      </trkpt>
      <trkpt lat="-22.0322938263416290283203125" lon="166.4664383232593536376953125">
        <ele>898</ele>
        <time>2016-08-12T21:41:15.000Z</time>
        <extensions>
          <ns3:TrackPointExtension>
            <ns3:atemp>16.0</ns3:atemp>
            <ns3:hr>144</ns3:hr>
          </ns3:TrackPointExtension>
        </extensions>
      </trkpt>
      <trkpt lat="-22.03230396844446659088134765625" lon="166.46641175262629985809326171875">
        <ele>898.20001220703125</ele>
        <time>2016-08-12T21:41:16.000Z</time>
        <extensions>
          <ns3:TrackPointExtension>
            <ns3:atemp>16.0</ns3:atemp>
            <ns3:hr>144</ns3:hr>
          </ns3:TrackPointExtension>
        </extensions>
      </trkpt>
      <trkpt lat="-22.03231729567050933837890625" lon="166.4663885347545146942138671875">
        <ele>898.4000244140625</ele>
        <time>2016-08-12T21:41:17.000Z</time>
        <extensions>
          <ns3:TrackPointExtension>
            <ns3:atemp>16.0</ns3:atemp>
            <ns3:hr>145</ns3:hr>
          </ns3:TrackPointExtension>
        </extensions>
      </trkpt>
      <trkpt lat="-22.0323295332491397857666015625" lon="166.46637235768139362335205078125">
        <ele>898.5999755859375</ele>
        <time>2016-08-12T21:41:18.000Z</time>
        <extensions>
          <ns3:TrackPointExtension>
            <ns3:atemp>16.0</ns3:atemp>
            <ns3:hr>145</ns3:hr>
          </ns3:TrackPointExtension>
        </extensions>
      </trkpt>
      <trkpt lat="-22.032350488007068634033203125" lon="166.46636062301695346832275390625">
        <ele>898.5999755859375</ele>
        <time>2016-08-12T21:41:19.000Z</time>
        <extensions>
          <ns3:TrackPointExtension>
            <ns3:atemp>16.0</ns3:atemp>
            <ns3:hr>145</ns3:hr>
          </ns3:TrackPointExtension>
        </extensions>
      </trkpt>
      <trkpt lat="-22.03236867673695087432861328125" lon="166.4663462899625301361083984375">
        <ele>899</ele>
        <time>2016-08-12T21:41:20.000Z</time>
        <extensions>
          <ns3:TrackPointExtension>
            <ns3:atemp>16.0</ns3:atemp>
            <ns3:hr>145</ns3:hr>
          </ns3:TrackPointExtension>
        </extensions>
      </trkpt>
      <trkpt lat="-22.03238493762910366058349609375" lon="166.46633061580359935760498046875">
        <ele>899.20001220703125</ele>
        <time>2016-08-12T21:41:21.000Z</time>
        <extensions>
          <ns3:TrackPointExtension>
            <ns3:atemp>16.0</ns3:atemp>
            <ns3:hr>145</ns3:hr>
          </ns3:TrackPointExtension>
        </extensions>
      </trkpt>
      <trkpt lat="-22.03239600174129009246826171875" lon="166.46631150506436824798583984375">
        <ele>899.20001220703125</ele>
        <time>2016-08-12T21:41:22.000Z</time>
        <extensions>
          <ns3:TrackPointExtension>
            <ns3:atemp>16.0</ns3:atemp>
            <ns3:hr>145</ns3:hr>
          </ns3:TrackPointExtension>
        </extensions>
      </trkpt>
      <trkpt lat="-22.03240505419671535491943359375" lon="166.4662966690957546234130859375">
        <ele>899.5999755859375</ele>
        <time>2016-08-12T21:41:23.000Z</time>
        <extensions>
          <ns3:TrackPointExtension>
            <ns3:atemp>16.0</ns3:atemp>
            <ns3:hr>146</ns3:hr>
          </ns3:TrackPointExtension>
        </extensions>
      </trkpt>
      <trkpt lat="-22.03242299146950244903564453125" lon="166.4662799052894115447998046875">
        <ele>899.79998779296875</ele>
        <time>2016-08-12T21:41:24.000Z</time>
        <extensions>
          <ns3:TrackPointExtension>
            <ns3:atemp>16.0</ns3:atemp>
            <ns3:hr>146</ns3:hr>
          </ns3:TrackPointExtension>
        </extensions>
      </trkpt>
      <trkpt lat="-22.03243841417133808135986328125" lon="166.4662705175578594207763671875">
        <ele>899.79998779296875</ele>
        <time>2016-08-12T21:41:25.000Z</time>
        <extensions>
          <ns3:TrackPointExtension>
            <ns3:atemp>16.0</ns3:atemp>
            <ns3:hr>146</ns3:hr>
          </ns3:TrackPointExtension>
        </extensions>
      </trkpt>
      <trkpt lat="-22.032454423606395721435546875" lon="166.46626624278724193572998046875">
        <ele>900</ele>
        <time>2016-08-12T21:41:26.000Z</time>
        <extensions>
          <ns3:TrackPointExtension>
            <ns3:atemp>16.0</ns3:atemp>
            <ns3:hr>146</ns3:hr>
          </ns3:TrackPointExtension>
        </extensions>
      </trkpt>
      <trkpt lat="-22.032477557659149169921875" lon="166.46627026610076427459716796875">
        <ele>900.5999755859375</ele>
        <time>2016-08-12T21:41:27.000Z</time>
        <extensions>
          <ns3:TrackPointExtension>
            <ns3:atemp>16.0</ns3:atemp>
            <ns3:hr>146</ns3:hr>
          </ns3:TrackPointExtension>
        </extensions>
      </trkpt>
      <trkpt lat="-22.032496668398380279541015625" lon="166.4662728644907474517822265625">
        <ele>900.5999755859375</ele>
        <time>2016-08-12T21:41:28.000Z</time>
        <extensions>
          <ns3:TrackPointExtension>
            <ns3:atemp>16.0</ns3:atemp>
            <ns3:hr>147</ns3:hr>
          </ns3:TrackPointExtension>
        </extensions>
      </trkpt>
      <trkpt lat="-22.0325132645666599273681640625" lon="166.46627630107104778289794921875">
        <ele>900.5999755859375</ele>
        <time>2016-08-12T21:41:29.000Z</time>
        <extensions>
          <ns3:TrackPointExtension>
            <ns3:atemp>16.0</ns3:atemp>
            <ns3:hr>147</ns3:hr>
          </ns3:TrackPointExtension>
        </extensions>
      </trkpt>
      <trkpt lat="-22.0325374044477939605712890625" lon="166.4662926457822322845458984375">
        <ele>900.79998779296875</ele>
        <time>2016-08-12T21:41:30.000Z</time>
        <extensions>
          <ns3:TrackPointExtension>
            <ns3:atemp>16.0</ns3:atemp>
            <ns3:hr>147</ns3:hr>
          </ns3:TrackPointExtension>
        </extensions>
      </trkpt>
      <trkpt lat="-22.03255307860672473907470703125" lon="166.466299183666706085205078125">
        <ele>901.20001220703125</ele>
        <time>2016-08-12T21:41:31.000Z</time>
        <extensions>
          <ns3:TrackPointExtension>
            <ns3:atemp>16.0</ns3:atemp>
            <ns3:hr>147</ns3:hr>
          </ns3:TrackPointExtension>
        </extensions>
      </trkpt>
      <trkpt lat="-22.03256967477500438690185546875" lon="166.466313265264034271240234375">
        <ele>901.20001220703125</ele>
        <time>2016-08-12T21:41:32.000Z</time>
        <extensions>
          <ns3:TrackPointExtension>
            <ns3:atemp>16.0</ns3:atemp>
            <ns3:hr>148</ns3:hr>
          </ns3:TrackPointExtension>
        </extensions>
      </trkpt>
      <trkpt lat="-22.03258275054395198822021484375" lon="166.466324664652347564697265625">
        <ele>901.5999755859375</ele>
        <time>2016-08-12T21:41:33.000Z</time>
        <extensions>
          <ns3:TrackPointExtension>
            <ns3:atemp>16.0</ns3:atemp>
            <ns3:hr>148</ns3:hr>
          </ns3:TrackPointExtension>
        </extensions>
      </trkpt>
      <trkpt lat="-22.0325942337512969970703125" lon="166.46633262746036052703857421875">
        <ele>902</ele>
        <time>2016-08-12T21:41:34.000Z</time>
        <extensions>
          <ns3:TrackPointExtension>
            <ns3:atemp>16.0</ns3:atemp>
            <ns3:hr>148</ns3:hr>
          </ns3:TrackPointExtension>
        </extensions>
      </trkpt>
      <trkpt lat="-22.03260320238769054412841796875" lon="166.46634645760059356689453125">
        <ele>902.20001220703125</ele>
        <time>2016-08-12T21:41:35.000Z</time>
        <extensions>
          <ns3:TrackPointExtension>
            <ns3:atemp>16.0</ns3:atemp>
            <ns3:hr>149</ns3:hr>
          </ns3:TrackPointExtension>
        </extensions>
      </trkpt>
      <trkpt lat="-22.0326141826808452606201171875" lon="166.46636330522596836090087890625">
        <ele>902.20001220703125</ele>
        <time>2016-08-12T21:41:36.000Z</time>
        <extensions>
          <ns3:TrackPointExtension>
            <ns3:atemp>16.0</ns3:atemp>
            <ns3:hr>149</ns3:hr>
          </ns3:TrackPointExtension>
        </extensions>
      </trkpt>
      <trkpt lat="-22.032628096640110015869140625" lon="166.46637721918523311614990234375">
        <ele>902.20001220703125</ele>
        <time>2016-08-12T21:41:37.000Z</time>
        <extensions>
          <ns3:TrackPointExtension>
            <ns3:atemp>16.0</ns3:atemp>
            <ns3:hr>149</ns3:hr>
          </ns3:TrackPointExtension>
        </extensions>
      </trkpt>
      <trkpt lat="-22.03263270668685436248779296875" lon="166.4663927257061004638671875">
        <ele>902.79998779296875</ele>
        <time>2016-08-12T21:41:38.000Z</time>
        <extensions>
          <ns3:TrackPointExtension>
            <ns3:atemp>16.0</ns3:atemp>
            <ns3:hr>149</ns3:hr>
          </ns3:TrackPointExtension>
        </extensions>
      </trkpt>
      <trkpt lat="-22.03264477662742137908935546875" lon="166.466404460370540618896484375">
        <ele>903</ele>
        <time>2016-08-12T21:41:39.000Z</time>
        <extensions>
          <ns3:TrackPointExtension>
            <ns3:atemp>16.0</ns3:atemp>
            <ns3:hr>150</ns3:hr>
          </ns3:TrackPointExtension>
        </extensions>
      </trkpt>
      <trkpt lat="-22.0326554216444492340087890625" lon="166.46641711704432964324951171875">
        <ele>903</ele>
        <time>2016-08-12T21:41:40.000Z</time>
        <extensions>
          <ns3:TrackPointExtension>
            <ns3:atemp>16.0</ns3:atemp>
            <ns3:hr>150</ns3:hr>
          </ns3:TrackPointExtension>
        </extensions>
      </trkpt>
      <trkpt lat="-22.03266799449920654296875" lon="166.46643103100359439849853515625">
        <ele>903.4000244140625</ele>
        <time>2016-08-12T21:41:41.000Z</time>
        <extensions>
          <ns3:TrackPointExtension>
            <ns3:atemp>16.0</ns3:atemp>
            <ns3:hr>150</ns3:hr>
          </ns3:TrackPointExtension>
        </extensions>
      </trkpt>
      <trkpt lat="-22.032685764133930206298828125" lon="166.466439999639987945556640625">
        <ele>903.5999755859375</ele>
        <time>2016-08-12T21:41:42.000Z</time>
        <extensions>
          <ns3:TrackPointExtension>
            <ns3:atemp>16.0</ns3:atemp>
            <ns3:hr>150</ns3:hr>
          </ns3:TrackPointExtension>
        </extensions>
      </trkpt>
      <trkpt lat="-22.03269355930387973785400390625" lon="166.466450728476047515869140625">
        <ele>903.5999755859375</ele>
        <time>2016-08-12T21:41:43.000Z</time>
        <extensions>
          <ns3:TrackPointExtension>
            <ns3:atemp>16.0</ns3:atemp>
            <ns3:hr>150</ns3:hr>
          </ns3:TrackPointExtension>
        </extensions>
      </trkpt>
      <trkpt lat="-22.032713592052459716796875" lon="166.46645768545567989349365234375">
        <ele>903.5999755859375</ele>
        <time>2016-08-12T21:41:44.000Z</time>
        <extensions>
          <ns3:TrackPointExtension>
            <ns3:atemp>16.0</ns3:atemp>
            <ns3:hr>150</ns3:hr>
          </ns3:TrackPointExtension>
        </extensions>
      </trkpt>
      <trkpt lat="-22.03274242579936981201171875" lon="166.46645751781761646270751953125">
        <ele>904</ele>
        <time>2016-08-12T21:41:45.000Z</time>
        <extensions>
          <ns3:TrackPointExtension>
            <ns3:atemp>16.0</ns3:atemp>
            <ns3:hr>150</ns3:hr>
          </ns3:TrackPointExtension>
        </extensions>
      </trkpt>
      <trkpt lat="-22.03276162035763263702392578125" lon="166.4664562605321407318115234375">
        <ele>903.79998779296875</ele>
        <time>2016-08-12T21:41:46.000Z</time>
        <extensions>
          <ns3:TrackPointExtension>
            <ns3:atemp>16.0</ns3:atemp>
            <ns3:hr>151</ns3:hr>
          </ns3:TrackPointExtension>
        </extensions>
      </trkpt>
      <trkpt lat="-22.0327794738113880157470703125" lon="166.46646103821694850921630859375">
        <ele>903.5999755859375</ele>
        <time>2016-08-12T21:41:47.000Z</time>
        <extensions>
          <ns3:TrackPointExtension>
            <ns3:atemp>16.0</ns3:atemp>
            <ns3:hr>151</ns3:hr>
          </ns3:TrackPointExtension>
        </extensions>
      </trkpt>
      <trkpt lat="-22.03280009329319000244140625" lon="166.46646313369274139404296875">
        <ele>903.5999755859375</ele>
        <time>2016-08-12T21:41:48.000Z</time>
        <extensions>
          <ns3:TrackPointExtension>
            <ns3:atemp>16.0</ns3:atemp>
            <ns3:hr>151</ns3:hr>
          </ns3:TrackPointExtension>
        </extensions>
      </trkpt>
      <trkpt lat="-22.032821215689182281494140625" lon="166.46647076122462749481201171875">
        <ele>903.79998779296875</ele>
        <time>2016-08-12T21:41:49.000Z</time>
        <extensions>
          <ns3:TrackPointExtension>
            <ns3:atemp>16.0</ns3:atemp>
            <ns3:hr>150</ns3:hr>
          </ns3:TrackPointExtension>
        </extensions>
      </trkpt>
      <trkpt lat="-22.0328408293426036834716796875" lon="166.46647428162395954132080078125">
        <ele>903.79998779296875</ele>
        <time>2016-08-12T21:41:50.000Z</time>
        <extensions>
          <ns3:TrackPointExtension>
            <ns3:atemp>16.0</ns3:atemp>
            <ns3:hr>150</ns3:hr>
          </ns3:TrackPointExtension>
        </extensions>
      </trkpt>
      <trkpt lat="-22.03286002390086650848388671875" lon="166.4664834178984165191650390625">
        <ele>903.79998779296875</ele>
        <time>2016-08-12T21:41:51.000Z</time>
        <extensions>
          <ns3:TrackPointExtension>
            <ns3:atemp>16.0</ns3:atemp>
            <ns3:hr>150</ns3:hr>
          </ns3:TrackPointExtension>
        </extensions>
      </trkpt>
      <trkpt lat="-22.03288231976330280303955078125" lon="166.46648936904966831207275390625">
        <ele>904</ele>
        <time>2016-08-12T21:41:52.000Z</time>
        <extensions>
          <ns3:TrackPointExtension>
            <ns3:atemp>16.0</ns3:atemp>
            <ns3:hr>150</ns3:hr>
          </ns3:TrackPointExtension>
        </extensions>
      </trkpt>
      <trkpt lat="-22.03289874829351902008056640625" lon="166.46649858914315700531005859375">
        <ele>904.20001220703125</ele>
        <time>2016-08-12T21:41:53.000Z</time>
        <extensions>
          <ns3:TrackPointExtension>
            <ns3:atemp>16.0</ns3:atemp>
            <ns3:hr>150</ns3:hr>
          </ns3:TrackPointExtension>
        </extensions>
      </trkpt>
      <trkpt lat="-22.032911069691181182861328125" lon="166.466510407626628875732421875">
        <ele>904.4000244140625</ele>
        <time>2016-08-12T21:41:54.000Z</time>
        <extensions>
          <ns3:TrackPointExtension>
            <ns3:atemp>16.0</ns3:atemp>
            <ns3:hr>150</ns3:hr>
          </ns3:TrackPointExtension>
        </extensions>
      </trkpt>
      <trkpt lat="-22.03292976133525371551513671875" lon="166.46652021445333957672119140625">
        <ele>905.20001220703125</ele>
        <time>2016-08-12T21:41:55.000Z</time>
        <extensions>
          <ns3:TrackPointExtension>
            <ns3:atemp>16.0</ns3:atemp>
            <ns3:hr>150</ns3:hr>
          </ns3:TrackPointExtension>
        </extensions>
      </trkpt>
      <trkpt lat="-22.0329447649419307708740234375" lon="166.46653345786035060882568359375">
        <ele>905.5999755859375</ele>
        <time>2016-08-12T21:41:56.000Z</time>
        <extensions>
          <ns3:TrackPointExtension>
            <ns3:atemp>16.0</ns3:atemp>
            <ns3:hr>150</ns3:hr>
          </ns3:TrackPointExtension>
        </extensions>
      </trkpt>
      <trkpt lat="-22.03294501639902591705322265625" lon="166.46655273623764514923095703125">
        <ele>905.4000244140625</ele>
        <time>2016-08-12T21:41:57.000Z</time>
        <extensions>
          <ns3:TrackPointExtension>
            <ns3:atemp>16.0</ns3:atemp>
            <ns3:hr>150</ns3:hr>
          </ns3:TrackPointExtension>
        </extensions>
      </trkpt>
      <trkpt lat="-22.03294954262673854827880859375" lon="166.46657151170074939727783203125">
        <ele>905</ele>
        <time>2016-08-12T21:41:58.000Z</time>
        <extensions>
          <ns3:TrackPointExtension>
            <ns3:atemp>16.0</ns3:atemp>
            <ns3:hr>149</ns3:hr>
          </ns3:TrackPointExtension>
        </extensions>
      </trkpt>
      <trkpt lat="-22.03294987790286540985107421875" lon="166.46660923026502132415771484375">
        <ele>905.20001220703125</ele>
        <time>2016-08-12T21:41:59.000Z</time>
        <extensions>
          <ns3:TrackPointExtension>
            <ns3:atemp>16.0</ns3:atemp>
            <ns3:hr>150</ns3:hr>
          </ns3:TrackPointExtension>
        </extensions>
      </trkpt>
      <trkpt lat="-22.03295121900737285614013671875" lon="166.46663890220224857330322265625">
        <ele>905.5999755859375</ele>
        <time>2016-08-12T21:42:00.000Z</time>
        <extensions>
          <ns3:TrackPointExtension>
            <ns3:atemp>16.0</ns3:atemp>
            <ns3:hr>149</ns3:hr>
          </ns3:TrackPointExtension>
        </extensions>
      </trkpt>
      <trkpt lat="-22.0329541526734828948974609375" lon="166.466659605503082275390625">
        <ele>905.5999755859375</ele>
        <time>2016-08-12T21:42:01.000Z</time>
        <extensions>
          <ns3:TrackPointExtension>
            <ns3:atemp>16.0</ns3:atemp>
            <ns3:hr>149</ns3:hr>
          </ns3:TrackPointExtension>
        </extensions>
      </trkpt>
      <trkpt lat="-22.03296982683241367340087890625" lon="166.4666783809661865234375">
        <ele>905.4000244140625</ele>
        <time>2016-08-12T21:42:02.000Z</time>
        <extensions>
          <ns3:TrackPointExtension>
            <ns3:atemp>16.0</ns3:atemp>
            <ns3:hr>149</ns3:hr>
          </ns3:TrackPointExtension>
        </extensions>
      </trkpt>
      <trkpt lat="-22.03299312852323055267333984375" lon="166.46668433211743831634521484375">
        <ele>905.4000244140625</ele>
        <time>2016-08-12T21:42:03.000Z</time>
        <extensions>
          <ns3:TrackPointExtension>
            <ns3:atemp>16.0</ns3:atemp>
            <ns3:hr>149</ns3:hr>
          </ns3:TrackPointExtension>
        </extensions>
      </trkpt>
      <trkpt lat="-22.0330071263015270233154296875" lon="166.4666998386383056640625">
        <ele>905.5999755859375</ele>
        <time>2016-08-12T21:42:04.000Z</time>
        <extensions>
          <ns3:TrackPointExtension>
            <ns3:atemp>16.0</ns3:atemp>
            <ns3:hr>149</ns3:hr>
          </ns3:TrackPointExtension>
        </extensions>
      </trkpt>
      <trkpt lat="-22.03302129171788692474365234375" lon="166.4667120762169361114501953125">
        <ele>905.5999755859375</ele>
        <time>2016-08-12T21:42:05.000Z</time>
        <extensions>
          <ns3:TrackPointExtension>
            <ns3:atemp>16.0</ns3:atemp>
            <ns3:hr>149</ns3:hr>
          </ns3:TrackPointExtension>
        </extensions>
      </trkpt>
      <trkpt lat="-22.0330305956304073333740234375" lon="166.4667226374149322509765625">
        <ele>905.20001220703125</ele>
        <time>2016-08-12T21:42:06.000Z</time>
        <extensions>
          <ns3:TrackPointExtension>
            <ns3:atemp>16.0</ns3:atemp>
            <ns3:hr>149</ns3:hr>
          </ns3:TrackPointExtension>
        </extensions>
      </trkpt>
      <trkpt lat="-22.033036462962627410888671875" lon="166.46674484945833683013916015625">
        <ele>905.5999755859375</ele>
        <time>2016-08-12T21:42:07.000Z</time>
        <extensions>
          <ns3:TrackPointExtension>
            <ns3:atemp>16.0</ns3:atemp>
            <ns3:hr>148</ns3:hr>
          </ns3:TrackPointExtension>
        </extensions>
      </trkpt>
      <trkpt lat="-22.0330450125038623809814453125" lon="166.4667647145688533782958984375">
        <ele>905.79998779296875</ele>
        <time>2016-08-12T21:42:08.000Z</time>
        <extensions>
          <ns3:TrackPointExtension>
            <ns3:atemp>16.0</ns3:atemp>
            <ns3:hr>148</ns3:hr>
          </ns3:TrackPointExtension>
        </extensions>
      </trkpt>
      <trkpt lat="-22.03307393006980419158935546875" lon="166.466773264110088348388671875">
        <ele>905.79998779296875</ele>
        <time>2016-08-12T21:42:09.000Z</time>
        <extensions>
          <ns3:TrackPointExtension>
            <ns3:atemp>16.0</ns3:atemp>
            <ns3:hr>148</ns3:hr>
          </ns3:TrackPointExtension>
        </extensions>
      </trkpt>
      <trkpt lat="-22.03309823758900165557861328125" lon="166.46678323857486248016357421875">
        <ele>905.79998779296875</ele>
        <time>2016-08-12T21:42:10.000Z</time>
        <extensions>
          <ns3:TrackPointExtension>
            <ns3:atemp>16.0</ns3:atemp>
            <ns3:hr>148</ns3:hr>
          </ns3:TrackPointExtension>
        </extensions>
      </trkpt>
      <trkpt lat="-22.03312036581337451934814453125" lon="166.46679111756384372711181640625">
        <ele>906.20001220703125</ele>
        <time>2016-08-12T21:42:11.000Z</time>
        <extensions>
          <ns3:TrackPointExtension>
            <ns3:atemp>16.0</ns3:atemp>
            <ns3:hr>147</ns3:hr>
          </ns3:TrackPointExtension>
        </extensions>
      </trkpt>
      <trkpt lat="-22.03314073383808135986328125" lon="166.46680167876183986663818359375">
        <ele>906.20001220703125</ele>
        <time>2016-08-12T21:42:12.000Z</time>
        <extensions>
          <ns3:TrackPointExtension>
            <ns3:atemp>16.0</ns3:atemp>
            <ns3:hr>147</ns3:hr>
          </ns3:TrackPointExtension>
        </extensions>
      </trkpt>
      <trkpt lat="-22.03315020538866519927978515625" lon="166.46681450307369232177734375">
        <ele>906</ele>
        <time>2016-08-12T21:42:13.000Z</time>
        <extensions>
          <ns3:TrackPointExtension>
            <ns3:atemp>16.0</ns3:atemp>
            <ns3:hr>147</ns3:hr>
          </ns3:TrackPointExtension>
        </extensions>
      </trkpt>
      <trkpt lat="-22.0331771112978458404541015625" lon="166.4668200351297855377197265625">
        <ele>906.20001220703125</ele>
        <time>2016-08-12T21:42:14.000Z</time>
        <extensions>
          <ns3:TrackPointExtension>
            <ns3:atemp>16.0</ns3:atemp>
            <ns3:hr>147</ns3:hr>
          </ns3:TrackPointExtension>
        </extensions>
      </trkpt>
      <trkpt lat="-22.03319328837096691131591796875" lon="166.46683269180357456207275390625">
        <ele>906.20001220703125</ele>
        <time>2016-08-12T21:42:15.000Z</time>
        <extensions>
          <ns3:TrackPointExtension>
            <ns3:atemp>16.0</ns3:atemp>
            <ns3:hr>146</ns3:hr>
          </ns3:TrackPointExtension>
        </extensions>
      </trkpt>
      <trkpt lat="-22.033211477100849151611328125" lon="166.4668438397347927093505859375">
        <ele>906.20001220703125</ele>
        <time>2016-08-12T21:42:16.000Z</time>
        <extensions>
          <ns3:TrackPointExtension>
            <ns3:atemp>16.0</ns3:atemp>
            <ns3:hr>146</ns3:hr>
          </ns3:TrackPointExtension>
        </extensions>
      </trkpt>
      <trkpt lat="-22.0332431606948375701904296875" lon="166.4668465219438076019287109375">
        <ele>906</ele>
        <time>2016-08-12T21:42:17.000Z</time>
        <extensions>
          <ns3:TrackPointExtension>
            <ns3:atemp>16.0</ns3:atemp>
            <ns3:hr>146</ns3:hr>
          </ns3:TrackPointExtension>
        </extensions>
      </trkpt>
      <trkpt lat="-22.03326813876628875732421875" lon="166.46684995852410793304443359375">
        <ele>906.5999755859375</ele>
        <time>2016-08-12T21:42:18.000Z</time>
        <extensions>
          <ns3:TrackPointExtension>
            <ns3:atemp>16.0</ns3:atemp>
            <ns3:hr>146</ns3:hr>
          </ns3:TrackPointExtension>
        </extensions>
      </trkpt>
      <trkpt lat="-22.03329906798899173736572265625" lon="166.4668498747050762176513671875">
        <ele>906.5999755859375</ele>
        <time>2016-08-12T21:42:19.000Z</time>
        <extensions>
          <ns3:TrackPointExtension>
            <ns3:atemp>16.0</ns3:atemp>
            <ns3:hr>145</ns3:hr>
          </ns3:TrackPointExtension>
        </extensions>
      </trkpt>
      <trkpt lat="-22.03332806937396526336669921875" lon="166.4668475277721881866455078125">
        <ele>906.4000244140625</ele>
        <time>2016-08-12T21:42:20.000Z</time>
        <extensions>
          <ns3:TrackPointExtension>
            <ns3:atemp>16.0</ns3:atemp>
            <ns3:hr>145</ns3:hr>
          </ns3:TrackPointExtension>
        </extensions>
      </trkpt>
      <trkpt lat="-22.033357657492160797119140625" lon="166.46683839149773120880126953125">
        <ele>905.79998779296875</ele>
        <time>2016-08-12T21:42:21.000Z</time>
        <extensions>
          <ns3:TrackPointExtension>
            <ns3:atemp>16.0</ns3:atemp>
            <ns3:hr>145</ns3:hr>
          </ns3:TrackPointExtension>
        </extensions>
      </trkpt>
      <trkpt lat="-22.033374421298503875732421875" lon="166.4668381400406360626220703125">
        <ele>906</ele>
        <time>2016-08-12T21:42:22.000Z</time>
        <extensions>
          <ns3:TrackPointExtension>
            <ns3:atemp>16.0</ns3:atemp>
            <ns3:hr>145</ns3:hr>
          </ns3:TrackPointExtension>
        </extensions>
      </trkpt>
      <trkpt lat="-22.03340250067412853240966796875" lon="166.46682380698621273040771484375">
        <ele>906</ele>
        <time>2016-08-12T21:42:23.000Z</time>
        <extensions>
          <ns3:TrackPointExtension>
            <ns3:atemp>16.0</ns3:atemp>
            <ns3:hr>145</ns3:hr>
          </ns3:TrackPointExtension>
        </extensions>
      </trkpt>
      <trkpt lat="-22.03342043794691562652587890625" lon="166.4668099768459796905517578125">
        <ele>906</ele>
        <time>2016-08-12T21:42:24.000Z</time>
        <extensions>
          <ns3:TrackPointExtension>
            <ns3:atemp>16.0</ns3:atemp>
            <ns3:hr>144</ns3:hr>
          </ns3:TrackPointExtension>
        </extensions>
      </trkpt>
      <trkpt lat="-22.0334257185459136962890625" lon="166.46680117584764957427978515625">
        <ele>906.20001220703125</ele>
        <time>2016-08-12T21:42:25.000Z</time>
        <extensions>
          <ns3:TrackPointExtension>
            <ns3:atemp>16.0</ns3:atemp>
            <ns3:hr>144</ns3:hr>
          </ns3:TrackPointExtension>
        </extensions>
      </trkpt>
      <trkpt lat="-22.0334483496844768524169921875" lon="166.46678365767002105712890625">
        <ele>906.20001220703125</ele>
        <time>2016-08-12T21:42:26.000Z</time>
        <extensions>
          <ns3:TrackPointExtension>
            <ns3:atemp>16.0</ns3:atemp>
            <ns3:hr>144</ns3:hr>
          </ns3:TrackPointExtension>
        </extensions>
      </trkpt>
      <trkpt lat="-22.03345857560634613037109375" lon="166.466761529445648193359375">
        <ele>906.20001220703125</ele>
        <time>2016-08-12T21:42:27.000Z</time>
        <extensions>
          <ns3:TrackPointExtension>
            <ns3:atemp>16.0</ns3:atemp>
            <ns3:hr>144</ns3:hr>
          </ns3:TrackPointExtension>
        </extensions>
      </trkpt>
      <trkpt lat="-22.033459246158599853515625" lon="166.46672976203262805938720703125">
        <ele>906.20001220703125</ele>
        <time>2016-08-12T21:42:28.000Z</time>
        <extensions>
          <ns3:TrackPointExtension>
            <ns3:atemp>16.0</ns3:atemp>
            <ns3:hr>143</ns3:hr>
          </ns3:TrackPointExtension>
        </extensions>
      </trkpt>
      <trkpt lat="-22.03345723450183868408203125" lon="166.46669992245733737945556640625">
        <ele>906.20001220703125</ele>
        <time>2016-08-12T21:42:29.000Z</time>
        <extensions>
          <ns3:TrackPointExtension>
            <ns3:atemp>16.0</ns3:atemp>
            <ns3:hr>143</ns3:hr>
          </ns3:TrackPointExtension>
        </extensions>
      </trkpt>
      <trkpt lat="-22.03345731832087039947509765625" lon="166.46667796187102794647216796875">
        <ele>906.20001220703125</ele>
        <time>2016-08-12T21:42:30.000Z</time>
        <extensions>
          <ns3:TrackPointExtension>
            <ns3:atemp>16.0</ns3:atemp>
            <ns3:hr>143</ns3:hr>
          </ns3:TrackPointExtension>
        </extensions>
      </trkpt>
      <trkpt lat="-22.03345363028347492218017578125" lon="166.46665499545633792877197265625">
        <ele>906</ele>
        <time>2016-08-12T21:42:31.000Z</time>
        <extensions>
          <ns3:TrackPointExtension>
            <ns3:atemp>16.0</ns3:atemp>
            <ns3:hr>143</ns3:hr>
          </ns3:TrackPointExtension>
        </extensions>
      </trkpt>
      <trkpt lat="-22.03345044516026973724365234375" lon="166.46663052029907703399658203125">
        <ele>906.20001220703125</ele>
        <time>2016-08-12T21:42:32.000Z</time>
        <extensions>
          <ns3:TrackPointExtension>
            <ns3:atemp>16.0</ns3:atemp>
            <ns3:hr>143</ns3:hr>
          </ns3:TrackPointExtension>
        </extensions>
      </trkpt>
      <trkpt lat="-22.03346050344407558441162109375" lon="166.46662029437720775604248046875">
        <ele>906.5999755859375</ele>
        <time>2016-08-12T21:42:33.000Z</time>
        <extensions>
          <ns3:TrackPointExtension>
            <ns3:atemp>16.0</ns3:atemp>
            <ns3:hr>142</ns3:hr>
          </ns3:TrackPointExtension>
        </extensions>
      </trkpt>
      <trkpt lat="-22.0334711484611034393310546875" lon="166.4666057936847209930419921875">
        <ele>907</ele>
        <time>2016-08-12T21:42:34.000Z</time>
        <extensions>
          <ns3:TrackPointExtension>
            <ns3:atemp>16.0</ns3:atemp>
            <ns3:hr>142</ns3:hr>
          </ns3:TrackPointExtension>
        </extensions>
      </trkpt>
      <trkpt lat="-22.03347207047045230865478515625" lon="166.4665850065648555755615234375">
        <ele>906.79998779296875</ele>
        <time>2016-08-12T21:42:35.000Z</time>
        <extensions>
          <ns3:TrackPointExtension>
            <ns3:atemp>16.0</ns3:atemp>
            <ns3:hr>142</ns3:hr>
          </ns3:TrackPointExtension>
        </extensions>
      </trkpt>
      <trkpt lat="-22.0334614254534244537353515625" lon="166.4665588550269603729248046875">
        <ele>907.79998779296875</ele>
        <time>2016-08-12T21:42:36.000Z</time>
        <extensions>
          <ns3:TrackPointExtension>
            <ns3:atemp>16.0</ns3:atemp>
            <ns3:hr>142</ns3:hr>
          </ns3:TrackPointExtension>
        </extensions>
      </trkpt>
      <trkpt lat="-22.0334708131849765777587890625" lon="166.46653597243130207061767578125">
        <ele>907.79998779296875</ele>
        <time>2016-08-12T21:42:37.000Z</time>
        <extensions>
          <ns3:TrackPointExtension>
            <ns3:atemp>16.0</ns3:atemp>
            <ns3:hr>142</ns3:hr>
          </ns3:TrackPointExtension>
        </extensions>
      </trkpt>
      <trkpt lat="-22.03346804715692996978759765625" lon="166.46651937626302242279052734375">
        <ele>907.79998779296875</ele>
        <time>2016-08-12T21:42:38.000Z</time>
        <extensions>
          <ns3:TrackPointExtension>
            <ns3:atemp>16.0</ns3:atemp>
            <ns3:hr>141</ns3:hr>
          </ns3:TrackPointExtension>
        </extensions>
      </trkpt>
      <trkpt lat="-22.03346637077629566192626953125" lon="166.46650873124599456787109375">
        <ele>908</ele>
        <time>2016-08-12T21:42:39.000Z</time>
        <extensions>
          <ns3:TrackPointExtension>
            <ns3:atemp>16.0</ns3:atemp>
            <ns3:hr>141</ns3:hr>
          </ns3:TrackPointExtension>
        </extensions>
      </trkpt>
      <trkpt lat="-22.0334610901772975921630859375" lon="166.466484256088733673095703125">
        <ele>908.5999755859375</ele>
        <time>2016-08-12T21:42:40.000Z</time>
        <extensions>
          <ns3:TrackPointExtension>
            <ns3:atemp>16.0</ns3:atemp>
            <ns3:hr>141</ns3:hr>
          </ns3:TrackPointExtension>
        </extensions>
      </trkpt>
      <trkpt lat="-22.0334597490727901458740234375" lon="166.4664847590029239654541015625">
        <ele>908</ele>
        <time>2016-08-12T21:42:41.000Z</time>
        <extensions>
          <ns3:TrackPointExtension>
            <ns3:atemp>16.0</ns3:atemp>
            <ns3:hr>141</ns3:hr>
          </ns3:TrackPointExtension>
        </extensions>
      </trkpt>
      <trkpt lat="-22.03346855007112026214599609375" lon="166.4664760418236255645751953125">
        <ele>907.4000244140625</ele>
        <time>2016-08-12T21:42:42.000Z</time>
        <extensions>
          <ns3:TrackPointExtension>
            <ns3:atemp>16.0</ns3:atemp>
            <ns3:hr>141</ns3:hr>
          </ns3:TrackPointExtension>
        </extensions>
      </trkpt>
      <trkpt lat="-22.0334788598120212554931640625" lon="166.4664609543979167938232421875">
        <ele>907.5999755859375</ele>
        <time>2016-08-12T21:42:43.000Z</time>
        <extensions>
          <ns3:TrackPointExtension>
            <ns3:atemp>16.0</ns3:atemp>
            <ns3:hr>141</ns3:hr>
          </ns3:TrackPointExtension>
        </extensions>
      </trkpt>
      <trkpt lat="-22.03349000774323940277099609375" lon="166.46643606014549732208251953125">
        <ele>907.5999755859375</ele>
        <time>2016-08-12T21:42:44.000Z</time>
        <extensions>
          <ns3:TrackPointExtension>
            <ns3:atemp>16.0</ns3:atemp>
            <ns3:hr>141</ns3:hr>
          </ns3:TrackPointExtension>
        </extensions>
      </trkpt>
      <trkpt lat="-22.0335003174841403961181640625" lon="166.46641778759658336639404296875">
        <ele>907.5999755859375</ele>
        <time>2016-08-12T21:42:45.000Z</time>
        <extensions>
          <ns3:TrackPointExtension>
            <ns3:atemp>16.0</ns3:atemp>
            <ns3:hr>140</ns3:hr>
          </ns3:TrackPointExtension>
        </extensions>
      </trkpt>
      <trkpt lat="-22.033511884510517120361328125" lon="166.46639096550643444061279296875">
        <ele>907</ele>
        <time>2016-08-12T21:42:46.000Z</time>
        <extensions>
          <ns3:TrackPointExtension>
            <ns3:atemp>16.0</ns3:atemp>
            <ns3:hr>140</ns3:hr>
          </ns3:TrackPointExtension>
        </extensions>
      </trkpt>
      <trkpt lat="-22.03352487646043300628662109375" lon="166.46636598743498325347900390625">
        <ele>906.79998779296875</ele>
        <time>2016-08-12T21:42:47.000Z</time>
        <extensions>
          <ns3:TrackPointExtension>
            <ns3:atemp>16.0</ns3:atemp>
            <ns3:hr>140</ns3:hr>
          </ns3:TrackPointExtension>
        </extensions>
      </trkpt>
      <trkpt lat="-22.0335341803729534149169921875" lon="166.46634134463965892791748046875">
        <ele>906.79998779296875</ele>
        <time>2016-08-12T21:42:48.000Z</time>
        <extensions>
          <ns3:TrackPointExtension>
            <ns3:atemp>16.0</ns3:atemp>
            <ns3:hr>140</ns3:hr>
          </ns3:TrackPointExtension>
        </extensions>
      </trkpt>
      <trkpt lat="-22.03354247845709323883056640625" lon="166.466310583055019378662109375">
        <ele>906.4000244140625</ele>
        <time>2016-08-12T21:42:49.000Z</time>
        <extensions>
          <ns3:TrackPointExtension>
            <ns3:atemp>16.0</ns3:atemp>
            <ns3:hr>140</ns3:hr>
          </ns3:TrackPointExtension>
        </extensions>
      </trkpt>
      <trkpt lat="-22.033551447093486785888671875" lon="166.466285102069377899169921875">
        <ele>906.20001220703125</ele>
        <time>2016-08-12T21:42:50.000Z</time>
        <extensions>
          <ns3:TrackPointExtension>
            <ns3:atemp>16.0</ns3:atemp>
            <ns3:hr>140</ns3:hr>
          </ns3:TrackPointExtension>
        </extensions>
      </trkpt>
      <trkpt lat="-22.0335532911121845245361328125" lon="166.46626037545502185821533203125">
        <ele>906.4000244140625</ele>
        <time>2016-08-12T21:42:51.000Z</time>
        <extensions>
          <ns3:TrackPointExtension>
            <ns3:atemp>16.0</ns3:atemp>
            <ns3:hr>140</ns3:hr>
          </ns3:TrackPointExtension>
        </extensions>
      </trkpt>
      <trkpt lat="-22.03356393612921237945556640625" lon="166.4662339724600315093994140625">
        <ele>906.79998779296875</ele>
        <time>2016-08-12T21:42:52.000Z</time>
        <extensions>
          <ns3:TrackPointExtension>
            <ns3:atemp>16.0</ns3:atemp>
            <ns3:hr>140</ns3:hr>
          </ns3:TrackPointExtension>
        </extensions>
      </trkpt>
      <trkpt lat="-22.03356980346143245697021484375" lon="166.46621234714984893798828125">
        <ele>906.5999755859375</ele>
        <time>2016-08-12T21:42:53.000Z</time>
        <extensions>
          <ns3:TrackPointExtension>
            <ns3:atemp>16.0</ns3:atemp>
            <ns3:hr>141</ns3:hr>
          </ns3:TrackPointExtension>
        </extensions>
      </trkpt>
      <trkpt lat="-22.03357315622270107269287109375" lon="166.466192565858364105224609375">
        <ele>906.20001220703125</ele>
        <time>2016-08-12T21:42:54.000Z</time>
        <extensions>
          <ns3:TrackPointExtension>
            <ns3:atemp>16.0</ns3:atemp>
            <ns3:hr>140</ns3:hr>
          </ns3:TrackPointExtension>
        </extensions>
      </trkpt>
      <trkpt lat="-22.03357986174523830413818359375" lon="166.46617085672914981842041015625">
        <ele>906.4000244140625</ele>
        <time>2016-08-12T21:42:55.000Z</time>
        <extensions>
          <ns3:TrackPointExtension>
            <ns3:atemp>16.0</ns3:atemp>
            <ns3:hr>140</ns3:hr>
          </ns3:TrackPointExtension>
        </extensions>
      </trkpt>
      <trkpt lat="-22.033575586974620819091796875" lon="166.46614319644868373870849609375">
        <ele>907</ele>
        <time>2016-08-12T21:42:56.000Z</time>
        <extensions>
          <ns3:TrackPointExtension>
            <ns3:atemp>16.0</ns3:atemp>
            <ns3:hr>140</ns3:hr>
          </ns3:TrackPointExtension>
        </extensions>
      </trkpt>
      <trkpt lat="-22.0335817895829677581787109375" lon="166.46612157113850116729736328125">
        <ele>906.5999755859375</ele>
        <time>2016-08-12T21:42:57.000Z</time>
        <extensions>
          <ns3:TrackPointExtension>
            <ns3:atemp>16.0</ns3:atemp>
            <ns3:hr>140</ns3:hr>
          </ns3:TrackPointExtension>
        </extensions>
      </trkpt>
      <trkpt lat="-22.03358707018196582794189453125" lon="166.4661001972854137420654296875">
        <ele>906.20001220703125</ele>
        <time>2016-08-12T21:42:58.000Z</time>
        <extensions>
          <ns3:TrackPointExtension>
            <ns3:atemp>16.0</ns3:atemp>
            <ns3:hr>140</ns3:hr>
          </ns3:TrackPointExtension>
        </extensions>
      </trkpt>
      <trkpt lat="-22.03358874656260013580322265625" lon="166.46607412956655025482177734375">
        <ele>906.20001220703125</ele>
        <time>2016-08-12T21:42:59.000Z</time>
        <extensions>
          <ns3:TrackPointExtension>
            <ns3:atemp>16.0</ns3:atemp>
            <ns3:hr>140</ns3:hr>
          </ns3:TrackPointExtension>
        </extensions>
      </trkpt>
      <trkpt lat="-22.03359126113355159759521484375" lon="166.46604470908641815185546875">
        <ele>907</ele>
        <time>2016-08-12T21:43:00.000Z</time>
        <extensions>
          <ns3:TrackPointExtension>
            <ns3:atemp>16.0</ns3:atemp>
            <ns3:hr>140</ns3:hr>
          </ns3:TrackPointExtension>
        </extensions>
      </trkpt>
      <trkpt lat="-22.03359578736126422882080078125" lon="166.46601411513984203338623046875">
        <ele>907</ele>
        <time>2016-08-12T21:43:01.000Z</time>
        <extensions>
          <ns3:TrackPointExtension>
            <ns3:atemp>16.0</ns3:atemp>
            <ns3:hr>140</ns3:hr>
          </ns3:TrackPointExtension>
        </extensions>
      </trkpt>
      <trkpt lat="-22.033595703542232513427734375" lon="166.46598494611680507659912109375">
        <ele>906.5999755859375</ele>
        <time>2016-08-12T21:43:02.000Z</time>
        <extensions>
          <ns3:TrackPointExtension>
            <ns3:atemp>16.0</ns3:atemp>
            <ns3:hr>140</ns3:hr>
          </ns3:TrackPointExtension>
        </extensions>
      </trkpt>
      <trkpt lat="-22.03359914012253284454345703125" lon="166.465957872569561004638671875">
        <ele>906.5999755859375</ele>
        <time>2016-08-12T21:43:03.000Z</time>
        <extensions>
          <ns3:TrackPointExtension>
            <ns3:atemp>16.0</ns3:atemp>
            <ns3:hr>140</ns3:hr>
          </ns3:TrackPointExtension>
        </extensions>
      </trkpt>
      <trkpt lat="-22.0336032472550868988037109375" lon="166.46593197248876094818115234375">
        <ele>906.79998779296875</ele>
        <time>2016-08-12T21:43:04.000Z</time>
        <extensions>
          <ns3:TrackPointExtension>
            <ns3:atemp>16.0</ns3:atemp>
            <ns3:hr>140</ns3:hr>
          </ns3:TrackPointExtension>
        </extensions>
      </trkpt>
      <trkpt lat="-22.033609114587306976318359375" lon="166.4659060724079608917236328125">
        <ele>906.79998779296875</ele>
        <time>2016-08-12T21:43:05.000Z</time>
        <extensions>
          <ns3:TrackPointExtension>
            <ns3:atemp>16.0</ns3:atemp>
            <ns3:hr>140</ns3:hr>
          </ns3:TrackPointExtension>
        </extensions>
      </trkpt>
      <trkpt lat="-22.03361121006309986114501953125" lon="166.46587547846138477325439453125">
        <ele>906.79998779296875</ele>
        <time>2016-08-12T21:43:06.000Z</time>
        <extensions>
          <ns3:TrackPointExtension>
            <ns3:atemp>16.0</ns3:atemp>
            <ns3:hr>140</ns3:hr>
          </ns3:TrackPointExtension>
        </extensions>
      </trkpt>
      <trkpt lat="-22.033625543117523193359375" lon="166.4658455550670623779296875">
        <ele>906.79998779296875</ele>
        <time>2016-08-12T21:43:07.000Z</time>
        <extensions>
          <ns3:TrackPointExtension>
            <ns3:atemp>16.0</ns3:atemp>
            <ns3:hr>139</ns3:hr>
          </ns3:TrackPointExtension>
        </extensions>
      </trkpt>
      <trkpt lat="-22.0336431451141834259033203125" lon="166.46582183428108692169189453125">
        <ele>906.79998779296875</ele>
        <time>2016-08-12T21:43:08.000Z</time>
        <extensions>
          <ns3:TrackPointExtension>
            <ns3:atemp>16.0</ns3:atemp>
            <ns3:hr>139</ns3:hr>
          </ns3:TrackPointExtension>
        </extensions>
      </trkpt>
      <trkpt lat="-22.0336563885211944580078125" lon="166.4657994545996189117431640625">
        <ele>906.5999755859375</ele>
        <time>2016-08-12T21:43:09.000Z</time>
        <extensions>
          <ns3:TrackPointExtension>
            <ns3:atemp>16.0</ns3:atemp>
            <ns3:hr>139</ns3:hr>
          </ns3:TrackPointExtension>
        </extensions>
      </trkpt>
      <trkpt lat="-22.03366653062403202056884765625" lon="166.4657759852707386016845703125">
        <ele>906.5999755859375</ele>
        <time>2016-08-12T21:43:10.000Z</time>
        <extensions>
          <ns3:TrackPointExtension>
            <ns3:atemp>16.0</ns3:atemp>
            <ns3:hr>139</ns3:hr>
          </ns3:TrackPointExtension>
        </extensions>
      </trkpt>
      <trkpt lat="-22.0336706377565860748291015625" lon="166.4657575450837612152099609375">
        <ele>906.4000244140625</ele>
        <time>2016-08-12T21:43:11.000Z</time>
        <extensions>
          <ns3:TrackPointExtension>
            <ns3:atemp>16.0</ns3:atemp>
            <ns3:hr>139</ns3:hr>
          </ns3:TrackPointExtension>
        </extensions>
      </trkpt>
      <trkpt lat="-22.03368279151618480682373046875" lon="166.46573265083134174346923828125">
        <ele>906</ele>
        <time>2016-08-12T21:43:12.000Z</time>
        <extensions>
          <ns3:TrackPointExtension>
            <ns3:atemp>16.0</ns3:atemp>
            <ns3:hr>138</ns3:hr>
          </ns3:TrackPointExtension>
        </extensions>
      </trkpt>
      <trkpt lat="-22.0336927659809589385986328125" lon="166.46570700220763683319091796875">
        <ele>906</ele>
        <time>2016-08-12T21:43:13.000Z</time>
        <extensions>
          <ns3:TrackPointExtension>
            <ns3:atemp>16.0</ns3:atemp>
            <ns3:hr>139</ns3:hr>
          </ns3:TrackPointExtension>
        </extensions>
      </trkpt>
      <trkpt lat="-22.0336974598467350006103515625" lon="166.465676911175251007080078125">
        <ele>906.5999755859375</ele>
        <time>2016-08-12T21:43:14.000Z</time>
        <extensions>
          <ns3:TrackPointExtension>
            <ns3:atemp>16.0</ns3:atemp>
            <ns3:hr>139</ns3:hr>
          </ns3:TrackPointExtension>
        </extensions>
      </trkpt>
      <trkpt lat="-22.03374423086643218994140625" lon="166.4656026475131511688232421875">
        <ele>906.5999755859375</ele>
        <time>2016-08-12T21:43:18.000Z</time>
        <extensions>
          <ns3:TrackPointExtension>
            <ns3:atemp>16.0</ns3:atemp>
            <ns3:hr>139</ns3:hr>
          </ns3:TrackPointExtension>
        </extensions>
      </trkpt>
      <trkpt lat="-22.03375873155891895294189453125" lon="166.4655892364680767059326171875">
        <ele>906.79998779296875</ele>
        <time>2016-08-12T21:43:19.000Z</time>
        <extensions>
          <ns3:TrackPointExtension>
            <ns3:atemp>16.0</ns3:atemp>
            <ns3:hr>138</ns3:hr>
          </ns3:TrackPointExtension>
        </extensions>
      </trkpt>
      <trkpt lat="-22.03378002159297466278076171875" lon="166.465581357479095458984375">
        <ele>906.79998779296875</ele>
        <time>2016-08-12T21:43:20.000Z</time>
        <extensions>
          <ns3:TrackPointExtension>
            <ns3:atemp>16.0</ns3:atemp>
            <ns3:hr>137</ns3:hr>
          </ns3:TrackPointExtension>
        </extensions>
      </trkpt>
      <trkpt lat="-22.03379879705607891082763671875" lon="166.46557088010013103485107421875">
        <ele>906.5999755859375</ele>
        <time>2016-08-12T21:43:21.000Z</time>
        <extensions>
          <ns3:TrackPointExtension>
            <ns3:atemp>16.0</ns3:atemp>
            <ns3:hr>137</ns3:hr>
          </ns3:TrackPointExtension>
        </extensions>
      </trkpt>
      <trkpt lat="-22.0338173210620880126953125" lon="166.4655570499598979949951171875">
        <ele>906.79998779296875</ele>
        <time>2016-08-12T21:43:22.000Z</time>
        <extensions>
          <ns3:TrackPointExtension>
            <ns3:atemp>16.0</ns3:atemp>
            <ns3:hr>137</ns3:hr>
          </ns3:TrackPointExtension>
        </extensions>
      </trkpt>
      <trkpt lat="-22.03383550979197025299072265625" lon="166.465538106858730316162109375">
        <ele>907.20001220703125</ele>
        <time>2016-08-12T21:43:23.000Z</time>
        <extensions>
          <ns3:TrackPointExtension>
            <ns3:atemp>16.0</ns3:atemp>
            <ns3:hr>137</ns3:hr>
          </ns3:TrackPointExtension>
        </extensions>
      </trkpt>
      <trkpt lat="-22.03385042957961559295654296875" lon="166.46552176214754581451416015625">
        <ele>907</ele>
        <time>2016-08-12T21:43:24.000Z</time>
        <extensions>
          <ns3:TrackPointExtension>
            <ns3:atemp>16.0</ns3:atemp>
            <ns3:hr>137</ns3:hr>
          </ns3:TrackPointExtension>
        </extensions>
      </trkpt>
      <trkpt lat="-22.03387088142335414886474609375" lon="166.46551254205405712127685546875">
        <ele>906.5999755859375</ele>
        <time>2016-08-12T21:43:25.000Z</time>
        <extensions>
          <ns3:TrackPointExtension>
            <ns3:atemp>16.0</ns3:atemp>
            <ns3:hr>137</ns3:hr>
          </ns3:TrackPointExtension>
        </extensions>
      </trkpt>
      <trkpt lat="-22.03392662107944488525390625" lon="166.46547566168010234832763671875">
        <ele>906.5999755859375</ele>
        <time>2016-08-12T21:43:28.000Z</time>
        <extensions>
          <ns3:TrackPointExtension>
            <ns3:atemp>16.0</ns3:atemp>
            <ns3:hr>137</ns3:hr>
          </ns3:TrackPointExtension>
        </extensions>
      </trkpt>
      <trkpt lat="-22.0339425466954708099365234375" lon="166.46545990370213985443115234375">
        <ele>906.20001220703125</ele>
        <time>2016-08-12T21:43:29.000Z</time>
        <extensions>
          <ns3:TrackPointExtension>
            <ns3:atemp>16.0</ns3:atemp>
            <ns3:hr>137</ns3:hr>
          </ns3:TrackPointExtension>
        </extensions>
      </trkpt>
      <trkpt lat="-22.0339613221585750579833984375" lon="166.4654430560767650604248046875">
        <ele>906.20001220703125</ele>
        <time>2016-08-12T21:43:30.000Z</time>
        <extensions>
          <ns3:TrackPointExtension>
            <ns3:atemp>16.0</ns3:atemp>
            <ns3:hr>136</ns3:hr>
          </ns3:TrackPointExtension>
        </extensions>
      </trkpt>
      <trkpt lat="-22.03398152254521846771240234375" lon="166.465425454080104827880859375">
        <ele>906.20001220703125</ele>
        <time>2016-08-12T21:43:31.000Z</time>
        <extensions>
          <ns3:TrackPointExtension>
            <ns3:atemp>16.0</ns3:atemp>
            <ns3:hr>137</ns3:hr>
          </ns3:TrackPointExtension>
        </extensions>
      </trkpt>
      <trkpt lat="-22.03402862884104251861572265625" lon="166.4653585664927959442138671875">
        <ele>906.20001220703125</ele>
        <time>2016-08-12T21:43:34.000Z</time>
        <extensions>
          <ns3:TrackPointExtension>
            <ns3:atemp>16.0</ns3:atemp>
            <ns3:hr>137</ns3:hr>
          </ns3:TrackPointExtension>
        </extensions>
      </trkpt>
      <trkpt lat="-22.03403851948678493499755859375" lon="166.4653305709362030029296875">
        <ele>906.20001220703125</ele>
        <time>2016-08-12T21:43:35.000Z</time>
        <extensions>
          <ns3:TrackPointExtension>
            <ns3:atemp>16.0</ns3:atemp>
            <ns3:hr>136</ns3:hr>
          </ns3:TrackPointExtension>
        </extensions>
      </trkpt>
      <trkpt lat="-22.034058384597301483154296875" lon="166.4653112925589084625244140625">
        <ele>906.79998779296875</ele>
        <time>2016-08-12T21:43:36.000Z</time>
        <extensions>
          <ns3:TrackPointExtension>
            <ns3:atemp>16.0</ns3:atemp>
            <ns3:hr>136</ns3:hr>
          </ns3:TrackPointExtension>
        </extensions>
      </trkpt>
      <trkpt lat="-22.0341177284717559814453125" lon="166.46525018848478794097900390625">
        <ele>907.4000244140625</ele>
        <time>2016-08-12T21:43:39.000Z</time>
        <extensions>
          <ns3:TrackPointExtension>
            <ns3:atemp>16.0</ns3:atemp>
            <ns3:hr>137</ns3:hr>
          </ns3:TrackPointExtension>
        </extensions>
      </trkpt>
      <trkpt lat="-22.03413072042167186737060546875" lon="166.46522755734622478485107421875">
        <ele>907.4000244140625</ele>
        <time>2016-08-12T21:43:40.000Z</time>
        <extensions>
          <ns3:TrackPointExtension>
            <ns3:atemp>16.0</ns3:atemp>
            <ns3:hr>137</ns3:hr>
          </ns3:TrackPointExtension>
        </extensions>
      </trkpt>
      <trkpt lat="-22.034145556390285491943359375" lon="166.46520660258829593658447265625">
        <ele>907.79998779296875</ele>
        <time>2016-08-12T21:43:41.000Z</time>
        <extensions>
          <ns3:TrackPointExtension>
            <ns3:atemp>16.0</ns3:atemp>
            <ns3:hr>137</ns3:hr>
          </ns3:TrackPointExtension>
        </extensions>
      </trkpt>
      <trkpt lat="-22.0341618172824382781982421875" lon="166.46518615074455738067626953125">
        <ele>907.79998779296875</ele>
        <time>2016-08-12T21:43:42.000Z</time>
        <extensions>
          <ns3:TrackPointExtension>
            <ns3:atemp>16.0</ns3:atemp>
            <ns3:hr>137</ns3:hr>
          </ns3:TrackPointExtension>
        </extensions>
      </trkpt>
      <trkpt lat="-22.0341859571635723114013671875" lon="166.46517173387110233306884765625">
        <ele>907.79998779296875</ele>
        <time>2016-08-12T21:43:43.000Z</time>
        <extensions>
          <ns3:TrackPointExtension>
            <ns3:atemp>16.0</ns3:atemp>
            <ns3:hr>137</ns3:hr>
          </ns3:TrackPointExtension>
        </extensions>
      </trkpt>
      <trkpt lat="-22.03425921499729156494140625" lon="166.46511641331017017364501953125">
        <ele>907.79998779296875</ele>
        <time>2016-08-12T21:43:47.000Z</time>
        <extensions>
          <ns3:TrackPointExtension>
            <ns3:atemp>16.0</ns3:atemp>
            <ns3:hr>137</ns3:hr>
          </ns3:TrackPointExtension>
        </extensions>
      </trkpt>
      <trkpt lat="-22.03427656553685665130615234375" lon="166.46509814076125621795654296875">
        <ele>907.5999755859375</ele>
        <time>2016-08-12T21:43:48.000Z</time>
        <extensions>
          <ns3:TrackPointExtension>
            <ns3:atemp>16.0</ns3:atemp>
            <ns3:hr>137</ns3:hr>
          </ns3:TrackPointExtension>
        </extensions>
      </trkpt>
      <trkpt lat="-22.03429031185805797576904296875" lon="166.465074084699153900146484375">
        <ele>906.79998779296875</ele>
        <time>2016-08-12T21:43:49.000Z</time>
        <extensions>
          <ns3:TrackPointExtension>
            <ns3:atemp>16.0</ns3:atemp>
            <ns3:hr>137</ns3:hr>
          </ns3:TrackPointExtension>
        </extensions>
      </trkpt>
      <trkpt lat="-22.0343056507408618927001953125" lon="166.465046592056751251220703125">
        <ele>905.5999755859375</ele>
        <time>2016-08-12T21:43:50.000Z</time>
        <extensions>
          <ns3:TrackPointExtension>
            <ns3:atemp>16.0</ns3:atemp>
            <ns3:hr>137</ns3:hr>
          </ns3:TrackPointExtension>
        </extensions>
      </trkpt>
      <trkpt lat="-22.03431713394820690155029296875" lon="166.46501868031919002532958984375">
        <ele>905.5999755859375</ele>
        <time>2016-08-12T21:43:51.000Z</time>
        <extensions>
          <ns3:TrackPointExtension>
            <ns3:atemp>16.0</ns3:atemp>
            <ns3:hr>138</ns3:hr>
          </ns3:TrackPointExtension>
        </extensions>
      </trkpt>
      <trkpt lat="-22.034323923289775848388671875" lon="166.46499328315258026123046875">
        <ele>906.20001220703125</ele>
        <time>2016-08-12T21:43:52.000Z</time>
        <extensions>
          <ns3:TrackPointExtension>
            <ns3:atemp>16.0</ns3:atemp>
            <ns3:hr>137</ns3:hr>
          </ns3:TrackPointExtension>
        </extensions>
      </trkpt>
      <trkpt lat="-22.034311182796955108642578125" lon="166.46493695676326751708984375">
        <ele>906.20001220703125</ele>
        <time>2016-08-12T21:43:54.000Z</time>
        <extensions>
          <ns3:TrackPointExtension>
            <ns3:atemp>16.0</ns3:atemp>
            <ns3:hr>137</ns3:hr>
          </ns3:TrackPointExtension>
        </extensions>
      </trkpt>
      <trkpt lat="-22.0343086682260036468505859375" lon="166.46491290070116519927978515625">
        <ele>906.5999755859375</ele>
        <time>2016-08-12T21:43:55.000Z</time>
        <extensions>
          <ns3:TrackPointExtension>
            <ns3:atemp>16.0</ns3:atemp>
            <ns3:hr>138</ns3:hr>
          </ns3:TrackPointExtension>
        </extensions>
      </trkpt>
      <trkpt lat="-22.034320570528507232666015625" lon="166.464893706142902374267578125">
        <ele>907</ele>
        <time>2016-08-12T21:43:56.000Z</time>
        <extensions>
          <ns3:TrackPointExtension>
            <ns3:atemp>16.0</ns3:atemp>
            <ns3:hr>137</ns3:hr>
          </ns3:TrackPointExtension>
        </extensions>
      </trkpt>
      <trkpt lat="-22.0343391783535480499267578125" lon="166.4648665487766265869140625">
        <ele>907.20001220703125</ele>
        <time>2016-08-12T21:43:57.000Z</time>
        <extensions>
          <ns3:TrackPointExtension>
            <ns3:atemp>16.0</ns3:atemp>
            <ns3:hr>137</ns3:hr>
          </ns3:TrackPointExtension>
        </extensions>
      </trkpt>
      <trkpt lat="-22.03435703180730342864990234375" lon="166.46484333090484142303466796875">
        <ele>907</ele>
        <time>2016-08-12T21:43:58.000Z</time>
        <extensions>
          <ns3:TrackPointExtension>
            <ns3:atemp>16.0</ns3:atemp>
            <ns3:hr>137</ns3:hr>
          </ns3:TrackPointExtension>
        </extensions>
      </trkpt>
      <trkpt lat="-22.034372203052043914794921875" lon="166.4648137427866458892822265625">
        <ele>907</ele>
        <time>2016-08-12T21:43:59.000Z</time>
        <extensions>
          <ns3:TrackPointExtension>
            <ns3:atemp>16.0</ns3:atemp>
            <ns3:hr>137</ns3:hr>
          </ns3:TrackPointExtension>
        </extensions>
      </trkpt>
      <trkpt lat="-22.03437832184135913848876953125" lon="166.464781053364276885986328125">
        <ele>907.20001220703125</ele>
        <time>2016-08-12T21:44:00.000Z</time>
        <extensions>
          <ns3:TrackPointExtension>
            <ns3:atemp>16.0</ns3:atemp>
            <ns3:hr>136</ns3:hr>
          </ns3:TrackPointExtension>
        </extensions>
      </trkpt>
      <trkpt lat="-22.03439525328576564788818359375" lon="166.4647594280540943145751953125">
        <ele>907.5999755859375</ele>
        <time>2016-08-12T21:44:01.000Z</time>
        <extensions>
          <ns3:TrackPointExtension>
            <ns3:atemp>16.0</ns3:atemp>
            <ns3:hr>136</ns3:hr>
          </ns3:TrackPointExtension>
        </extensions>
      </trkpt>
      <trkpt lat="-22.03444487415254116058349609375" lon="166.4646846614778041839599609375">
        <ele>907.5999755859375</ele>
        <time>2016-08-12T21:44:04.000Z</time>
        <extensions>
          <ns3:TrackPointExtension>
            <ns3:atemp>16.0</ns3:atemp>
            <ns3:hr>136</ns3:hr>
          </ns3:TrackPointExtension>
        </extensions>
      </trkpt>
      <trkpt lat="-22.03446029685437679290771484375" lon="166.46465892903506755828857421875">
        <ele>907.79998779296875</ele>
        <time>2016-08-12T21:44:05.000Z</time>
        <extensions>
          <ns3:TrackPointExtension>
            <ns3:atemp>16.0</ns3:atemp>
            <ns3:hr>133</ns3:hr>
          </ns3:TrackPointExtension>
        </extensions>
      </trkpt>
      <trkpt lat="-22.034470774233341217041015625" lon="166.4646303467452526092529296875">
        <ele>907.79998779296875</ele>
        <time>2016-08-12T21:44:06.000Z</time>
        <extensions>
          <ns3:TrackPointExtension>
            <ns3:atemp>16.0</ns3:atemp>
            <ns3:hr>132</ns3:hr>
          </ns3:TrackPointExtension>
        </extensions>
      </trkpt>
      <trkpt lat="-22.034478485584259033203125" lon="166.46460344083607196807861328125">
        <ele>907.79998779296875</ele>
        <time>2016-08-12T21:44:07.000Z</time>
        <extensions>
          <ns3:TrackPointExtension>
            <ns3:atemp>16.0</ns3:atemp>
            <ns3:hr>132</ns3:hr>
          </ns3:TrackPointExtension>
        </extensions>
      </trkpt>
      <trkpt lat="-22.03447538428008556365966796875" lon="166.464572511613368988037109375">
        <ele>907.5999755859375</ele>
        <time>2016-08-12T21:44:08.000Z</time>
        <extensions>
          <ns3:TrackPointExtension>
            <ns3:atemp>16.0</ns3:atemp>
            <ns3:hr>132</ns3:hr>
          </ns3:TrackPointExtension>
        </extensions>
      </trkpt>
      <trkpt lat="-22.03447957523167133331298828125" lon="166.46455029956996440887451171875">
        <ele>907.4000244140625</ele>
        <time>2016-08-12T21:44:09.000Z</time>
        <extensions>
          <ns3:TrackPointExtension>
            <ns3:atemp>16.0</ns3:atemp>
            <ns3:hr>133</ns3:hr>
          </ns3:TrackPointExtension>
        </extensions>
      </trkpt>
      <trkpt lat="-22.03448728658258914947509765625" lon="166.46452766843140125274658203125">
        <ele>907.5999755859375</ele>
        <time>2016-08-12T21:44:10.000Z</time>
        <extensions>
          <ns3:TrackPointExtension>
            <ns3:atemp>16.0</ns3:atemp>
            <ns3:hr>132</ns3:hr>
          </ns3:TrackPointExtension>
        </extensions>
      </trkpt>
      <trkpt lat="-22.03449533320963382720947265625" lon="166.46450235508382320404052734375">
        <ele>907.79998779296875</ele>
        <time>2016-08-12T21:44:11.000Z</time>
        <extensions>
          <ns3:TrackPointExtension>
            <ns3:atemp>16.0</ns3:atemp>
            <ns3:hr>132</ns3:hr>
          </ns3:TrackPointExtension>
        </extensions>
      </trkpt>
      <trkpt lat="-22.0344986021518707275390625" lon="166.4644710905849933624267578125">
        <ele>907.5999755859375</ele>
        <time>2016-08-12T21:44:12.000Z</time>
        <extensions>
          <ns3:TrackPointExtension>
            <ns3:atemp>16.0</ns3:atemp>
            <ns3:hr>132</ns3:hr>
          </ns3:TrackPointExtension>
        </extensions>
      </trkpt>
      <trkpt lat="-22.0344960875809192657470703125" lon="166.46444250829517841339111328125">
        <ele>907.5999755859375</ele>
        <time>2016-08-12T21:44:13.000Z</time>
        <extensions>
          <ns3:TrackPointExtension>
            <ns3:atemp>16.0</ns3:atemp>
            <ns3:hr>132</ns3:hr>
          </ns3:TrackPointExtension>
        </extensions>
      </trkpt>
      <trkpt lat="-22.0345051400363445281982421875" lon="166.46441199816763401031494140625">
        <ele>907.4000244140625</ele>
        <time>2016-08-12T21:44:14.000Z</time>
        <extensions>
          <ns3:TrackPointExtension>
            <ns3:atemp>16.0</ns3:atemp>
            <ns3:hr>133</ns3:hr>
          </ns3:TrackPointExtension>
        </extensions>
      </trkpt>
      <trkpt lat="-22.0345108397305011749267578125" lon="166.4643892832100391387939453125">
        <ele>907.79998779296875</ele>
        <time>2016-08-12T21:44:15.000Z</time>
        <extensions>
          <ns3:TrackPointExtension>
            <ns3:atemp>16.0</ns3:atemp>
            <ns3:hr>133</ns3:hr>
          </ns3:TrackPointExtension>
        </extensions>
      </trkpt>
      <trkpt lat="-22.034522406756877899169921875" lon="166.46436388604342937469482421875">
        <ele>907.79998779296875</ele>
        <time>2016-08-12T21:44:16.000Z</time>
        <extensions>
          <ns3:TrackPointExtension>
            <ns3:atemp>16.0</ns3:atemp>
            <ns3:hr>134</ns3:hr>
          </ns3:TrackPointExtension>
        </extensions>
      </trkpt>
      <trkpt lat="-22.0345343090593814849853515625" lon="166.4643420092761516571044921875">
        <ele>907.20001220703125</ele>
        <time>2016-08-12T21:44:17.000Z</time>
        <extensions>
          <ns3:TrackPointExtension>
            <ns3:atemp>16.0</ns3:atemp>
            <ns3:hr>134</ns3:hr>
          </ns3:TrackPointExtension>
        </extensions>
      </trkpt>
      <trkpt lat="-22.03454428352415561676025390625" lon="166.4643182046711444854736328125">
        <ele>907.20001220703125</ele>
        <time>2016-08-12T21:44:18.000Z</time>
        <extensions>
          <ns3:TrackPointExtension>
            <ns3:atemp>16.0</ns3:atemp>
            <ns3:hr>136</ns3:hr>
          </ns3:TrackPointExtension>
        </extensions>
      </trkpt>
      <trkpt lat="-22.0345547609031200408935546875" lon="166.46429448388516902923583984375">
        <ele>907.79998779296875</ele>
        <time>2016-08-12T21:44:19.000Z</time>
        <extensions>
          <ns3:TrackPointExtension>
            <ns3:atemp>16.0</ns3:atemp>
            <ns3:hr>136</ns3:hr>
          </ns3:TrackPointExtension>
        </extensions>
      </trkpt>
      <trkpt lat="-22.03456842340528964996337890625" lon="166.4642737805843353271484375">
        <ele>907.79998779296875</ele>
        <time>2016-08-12T21:44:20.000Z</time>
        <extensions>
          <ns3:TrackPointExtension>
            <ns3:atemp>16.0</ns3:atemp>
            <ns3:hr>137</ns3:hr>
          </ns3:TrackPointExtension>
        </extensions>
      </trkpt>
      <trkpt lat="-22.03458468429744243621826171875" lon="166.46424754522740840911865234375">
        <ele>907.4000244140625</ele>
        <time>2016-08-12T21:44:21.000Z</time>
        <extensions>
          <ns3:TrackPointExtension>
            <ns3:atemp>16.0</ns3:atemp>
            <ns3:hr>138</ns3:hr>
          </ns3:TrackPointExtension>
        </extensions>
      </trkpt>
      <trkpt lat="-22.03460144810378551483154296875" lon="166.4642229862511157989501953125">
        <ele>907.4000244140625</ele>
        <time>2016-08-12T21:44:22.000Z</time>
        <extensions>
          <ns3:TrackPointExtension>
            <ns3:atemp>16.0</ns3:atemp>
            <ns3:hr>138</ns3:hr>
          </ns3:TrackPointExtension>
        </extensions>
      </trkpt>
      <trkpt lat="-22.03461821191012859344482421875" lon="166.46419960074126720428466796875">
        <ele>907.4000244140625</ele>
        <time>2016-08-12T21:44:23.000Z</time>
        <extensions>
          <ns3:TrackPointExtension>
            <ns3:atemp>16.0</ns3:atemp>
            <ns3:hr>138</ns3:hr>
          </ns3:TrackPointExtension>
        </extensions>
      </trkpt>
      <trkpt lat="-22.034634388983249664306640625" lon="166.464176215231418609619140625">
        <ele>907.5999755859375</ele>
        <time>2016-08-12T21:44:24.000Z</time>
        <extensions>
          <ns3:TrackPointExtension>
            <ns3:atemp>16.0</ns3:atemp>
            <ns3:hr>139</ns3:hr>
          </ns3:TrackPointExtension>
        </extensions>
      </trkpt>
      <trkpt lat="-22.03464469872415065765380859375" lon="166.4641626365482807159423828125">
        <ele>907.4000244140625</ele>
        <time>2016-08-12T21:44:25.000Z</time>
        <extensions>
          <ns3:TrackPointExtension>
            <ns3:atemp>16.0</ns3:atemp>
            <ns3:hr>139</ns3:hr>
          </ns3:TrackPointExtension>
        </extensions>
      </trkpt>
      <trkpt lat="-22.03466313891112804412841796875" lon="166.46414302289485931396484375">
        <ele>907</ele>
        <time>2016-08-12T21:44:26.000Z</time>
        <extensions>
          <ns3:TrackPointExtension>
            <ns3:atemp>16.0</ns3:atemp>
            <ns3:hr>139</ns3:hr>
          </ns3:TrackPointExtension>
        </extensions>
      </trkpt>
      <trkpt lat="-22.03467906452715396881103515625" lon="166.4641210623085498809814453125">
        <ele>907.4000244140625</ele>
        <time>2016-08-12T21:44:27.000Z</time>
        <extensions>
          <ns3:TrackPointExtension>
            <ns3:atemp>16.0</ns3:atemp>
            <ns3:hr>139</ns3:hr>
          </ns3:TrackPointExtension>
        </extensions>
      </trkpt>
      <trkpt lat="-22.03469499014317989349365234375" lon="166.46410186775028705596923828125">
        <ele>908</ele>
        <time>2016-08-12T21:44:28.000Z</time>
        <extensions>
          <ns3:TrackPointExtension>
            <ns3:atemp>16.0</ns3:atemp>
            <ns3:hr>140</ns3:hr>
          </ns3:TrackPointExtension>
        </extensions>
      </trkpt>
      <trkpt lat="-22.03471728600561618804931640625" lon="166.46408258937299251556396484375">
        <ele>907.5999755859375</ele>
        <time>2016-08-12T21:44:29.000Z</time>
        <extensions>
          <ns3:TrackPointExtension>
            <ns3:atemp>16.0</ns3:atemp>
            <ns3:hr>140</ns3:hr>
          </ns3:TrackPointExtension>
        </extensions>
      </trkpt>
      <trkpt lat="-22.03473103232681751251220703125" lon="166.46406549029052257537841796875">
        <ele>907</ele>
        <time>2016-08-12T21:44:30.000Z</time>
        <extensions>
          <ns3:TrackPointExtension>
            <ns3:atemp>16.0</ns3:atemp>
            <ns3:hr>140</ns3:hr>
          </ns3:TrackPointExtension>
        </extensions>
      </trkpt>
      <trkpt lat="-22.03474813140928745269775390625" lon="166.46404646337032318115234375">
        <ele>907</ele>
        <time>2016-08-12T21:44:31.000Z</time>
        <extensions>
          <ns3:TrackPointExtension>
            <ns3:atemp>16.0</ns3:atemp>
            <ns3:hr>140</ns3:hr>
          </ns3:TrackPointExtension>
        </extensions>
      </trkpt>
      <trkpt lat="-22.03476347029209136962890625" lon="166.46402508951723575592041015625">
        <ele>907.5999755859375</ele>
        <time>2016-08-12T21:44:32.000Z</time>
        <extensions>
          <ns3:TrackPointExtension>
            <ns3:atemp>16.0</ns3:atemp>
            <ns3:hr>139</ns3:hr>
          </ns3:TrackPointExtension>
        </extensions>
      </trkpt>
      <trkpt lat="-22.0347723551094532012939453125" lon="166.46400447003543376922607421875">
        <ele>907.20001220703125</ele>
        <time>2016-08-12T21:44:33.000Z</time>
        <extensions>
          <ns3:TrackPointExtension>
            <ns3:atemp>16.0</ns3:atemp>
            <ns3:hr>140</ns3:hr>
          </ns3:TrackPointExtension>
        </extensions>
      </trkpt>
      <trkpt lat="-22.03478417359292507171630859375" lon="166.46398368291556835174560546875">
        <ele>906.79998779296875</ele>
        <time>2016-08-12T21:44:34.000Z</time>
        <extensions>
          <ns3:TrackPointExtension>
            <ns3:atemp>16.0</ns3:atemp>
            <ns3:hr>139</ns3:hr>
          </ns3:TrackPointExtension>
        </extensions>
      </trkpt>
      <trkpt lat="-22.03479766845703125" lon="166.4639634825289249420166015625">
        <ele>906.5999755859375</ele>
        <time>2016-08-12T21:44:35.000Z</time>
        <extensions>
          <ns3:TrackPointExtension>
            <ns3:atemp>16.0</ns3:atemp>
            <ns3:hr>140</ns3:hr>
          </ns3:TrackPointExtension>
        </extensions>
      </trkpt>
      <trkpt lat="-22.0348055474460124969482421875" lon="166.4639363251626491546630859375">
        <ele>906.79998779296875</ele>
        <time>2016-08-12T21:44:36.000Z</time>
        <extensions>
          <ns3:TrackPointExtension>
            <ns3:atemp>16.0</ns3:atemp>
            <ns3:hr>139</ns3:hr>
          </ns3:TrackPointExtension>
        </extensions>
      </trkpt>
      <trkpt lat="-22.03481200151145458221435546875" lon="166.46391109563410282135009765625">
        <ele>907</ele>
        <time>2016-08-12T21:44:37.000Z</time>
        <extensions>
          <ns3:TrackPointExtension>
            <ns3:atemp>16.0</ns3:atemp>
            <ns3:hr>140</ns3:hr>
          </ns3:TrackPointExtension>
        </extensions>
      </trkpt>
      <trkpt lat="-22.0348166115581989288330078125" lon="166.4638867042958736419677734375">
        <ele>906.4000244140625</ele>
        <time>2016-08-12T21:44:38.000Z</time>
        <extensions>
          <ns3:TrackPointExtension>
            <ns3:atemp>16.0</ns3:atemp>
            <ns3:hr>139</ns3:hr>
          </ns3:TrackPointExtension>
        </extensions>
      </trkpt>
      <trkpt lat="-22.03481971286237239837646484375" lon="166.463859044015407562255859375">
        <ele>905.79998779296875</ele>
        <time>2016-08-12T21:44:39.000Z</time>
        <extensions>
          <ns3:TrackPointExtension>
            <ns3:atemp>16.0</ns3:atemp>
            <ns3:hr>140</ns3:hr>
          </ns3:TrackPointExtension>
        </extensions>
      </trkpt>
      <trkpt lat="-22.0348266698420047760009765625" lon="166.46383046172559261322021484375">
        <ele>906</ele>
        <time>2016-08-12T21:44:40.000Z</time>
        <extensions>
          <ns3:TrackPointExtension>
            <ns3:atemp>16.0</ns3:atemp>
            <ns3:hr>139</ns3:hr>
          </ns3:TrackPointExtension>
        </extensions>
      </trkpt>
      <trkpt lat="-22.0348300226032733917236328125" lon="166.4638005383312702178955078125">
        <ele>906.4000244140625</ele>
        <time>2016-08-12T21:44:41.000Z</time>
        <extensions>
          <ns3:TrackPointExtension>
            <ns3:atemp>16.0</ns3:atemp>
            <ns3:hr>139</ns3:hr>
          </ns3:TrackPointExtension>
        </extensions>
      </trkpt>
      <trkpt lat="-22.03483647666871547698974609375" lon="166.46377111785113811492919921875">
        <ele>906.5999755859375</ele>
        <time>2016-08-12T21:44:42.000Z</time>
        <extensions>
          <ns3:TrackPointExtension>
            <ns3:atemp>16.0</ns3:atemp>
            <ns3:hr>139</ns3:hr>
          </ns3:TrackPointExtension>
        </extensions>
      </trkpt>
      <trkpt lat="-22.03484519384801387786865234375" lon="166.46374546922743320465087890625">
        <ele>907.5999755859375</ele>
        <time>2016-08-12T21:44:43.000Z</time>
        <extensions>
          <ns3:TrackPointExtension>
            <ns3:atemp>16.0</ns3:atemp>
            <ns3:hr>139</ns3:hr>
          </ns3:TrackPointExtension>
        </extensions>
      </trkpt>
      <trkpt lat="-22.03486011363565921783447265625" lon="166.46371982060372829437255859375">
        <ele>909</ele>
        <time>2016-08-12T21:44:44.000Z</time>
        <extensions>
          <ns3:TrackPointExtension>
            <ns3:atemp>16.0</ns3:atemp>
            <ns3:hr>139</ns3:hr>
          </ns3:TrackPointExtension>
        </extensions>
      </trkpt>
      <trkpt lat="-22.034875787794589996337890625" lon="166.4636962674558162689208984375">
        <ele>910.20001220703125</ele>
        <time>2016-08-12T21:44:45.000Z</time>
        <extensions>
          <ns3:TrackPointExtension>
            <ns3:atemp>16.0</ns3:atemp>
            <ns3:hr>139</ns3:hr>
          </ns3:TrackPointExtension>
        </extensions>
      </trkpt>
      <trkpt lat="-22.03489087522029876708984375" lon="166.463676989078521728515625">
        <ele>910.5999755859375</ele>
        <time>2016-08-12T21:44:46.000Z</time>
        <extensions>
          <ns3:TrackPointExtension>
            <ns3:atemp>16.0</ns3:atemp>
            <ns3:hr>139</ns3:hr>
          </ns3:TrackPointExtension>
        </extensions>
      </trkpt>
      <trkpt lat="-22.03490755520761013031005859375" lon="166.4636627398431301116943359375">
        <ele>911.4000244140625</ele>
        <time>2016-08-12T21:44:47.000Z</time>
        <extensions>
          <ns3:TrackPointExtension>
            <ns3:atemp>16.0</ns3:atemp>
            <ns3:hr>139</ns3:hr>
          </ns3:TrackPointExtension>
        </extensions>
      </trkpt>
      <trkpt lat="-22.03492532484233379364013671875" lon="166.463654525578022003173828125">
        <ele>911.4000244140625</ele>
        <time>2016-08-12T21:44:48.000Z</time>
        <extensions>
          <ns3:TrackPointExtension>
            <ns3:atemp>16.0</ns3:atemp>
            <ns3:hr>139</ns3:hr>
          </ns3:TrackPointExtension>
        </extensions>
      </trkpt>
      <trkpt lat="-22.034943513572216033935546875" lon="166.4636469818651676177978515625">
        <ele>910.5999755859375</ele>
        <time>2016-08-12T21:44:49.000Z</time>
        <extensions>
          <ns3:TrackPointExtension>
            <ns3:atemp>16.0</ns3:atemp>
            <ns3:hr>139</ns3:hr>
          </ns3:TrackPointExtension>
        </extensions>
      </trkpt>
      <trkpt lat="-22.0349621213972568511962890625" lon="166.4636409468948841094970703125">
        <ele>910.4000244140625</ele>
        <time>2016-08-12T21:44:50.000Z</time>
        <extensions>
          <ns3:TrackPointExtension>
            <ns3:atemp>16.0</ns3:atemp>
            <ns3:hr>139</ns3:hr>
          </ns3:TrackPointExtension>
        </extensions>
      </trkpt>
      <trkpt lat="-22.03498165123164653778076171875" lon="166.46363918669521808624267578125">
        <ele>910.79998779296875</ele>
        <time>2016-08-12T21:44:51.000Z</time>
        <extensions>
          <ns3:TrackPointExtension>
            <ns3:atemp>16.0</ns3:atemp>
            <ns3:hr>139</ns3:hr>
          </ns3:TrackPointExtension>
        </extensions>
      </trkpt>
      <trkpt lat="-22.03500310890376567840576171875" lon="166.4636375941336154937744140625">
        <ele>911.4000244140625</ele>
        <time>2016-08-12T21:44:52.000Z</time>
        <extensions>
          <ns3:TrackPointExtension>
            <ns3:atemp>16.0</ns3:atemp>
            <ns3:hr>139</ns3:hr>
          </ns3:TrackPointExtension>
        </extensions>
      </trkpt>
      <trkpt lat="-22.0350251533091068267822265625" lon="166.4636349119246006011962890625">
        <ele>911.4000244140625</ele>
        <time>2016-08-12T21:44:53.000Z</time>
        <extensions>
          <ns3:TrackPointExtension>
            <ns3:atemp>16.0</ns3:atemp>
            <ns3:hr>138</ns3:hr>
          </ns3:TrackPointExtension>
        </extensions>
      </trkpt>
      <trkpt lat="-22.0350486226379871368408203125" lon="166.4636325649917125701904296875">
        <ele>910.79998779296875</ele>
        <time>2016-08-12T21:44:54.000Z</time>
        <extensions>
          <ns3:TrackPointExtension>
            <ns3:atemp>16.0</ns3:atemp>
            <ns3:hr>138</ns3:hr>
          </ns3:TrackPointExtension>
        </extensions>
      </trkpt>
      <trkpt lat="-22.03507167287170886993408203125" lon="166.46362627856433391571044921875">
        <ele>910.79998779296875</ele>
        <time>2016-08-12T21:44:55.000Z</time>
        <extensions>
          <ns3:TrackPointExtension>
            <ns3:atemp>16.0</ns3:atemp>
            <ns3:hr>138</ns3:hr>
          </ns3:TrackPointExtension>
        </extensions>
      </trkpt>
      <trkpt lat="-22.0350888557732105255126953125" lon="166.46361219696700572967529296875">
        <ele>911</ele>
        <time>2016-08-12T21:44:56.000Z</time>
        <extensions>
          <ns3:TrackPointExtension>
            <ns3:atemp>16.0</ns3:atemp>
            <ns3:hr>138</ns3:hr>
          </ns3:TrackPointExtension>
        </extensions>
      </trkpt>
      <trkpt lat="-22.03511022962629795074462890625" lon="166.463597528636455535888671875">
        <ele>910.79998779296875</ele>
        <time>2016-08-12T21:44:57.000Z</time>
        <extensions>
          <ns3:TrackPointExtension>
            <ns3:atemp>16.0</ns3:atemp>
            <ns3:hr>138</ns3:hr>
          </ns3:TrackPointExtension>
        </extensions>
      </trkpt>
      <trkpt lat="-22.03512883745133876800537109375" lon="166.46358512341976165771484375">
        <ele>910.4000244140625</ele>
        <time>2016-08-12T21:44:58.000Z</time>
        <extensions>
          <ns3:TrackPointExtension>
            <ns3:atemp>16.0</ns3:atemp>
            <ns3:hr>138</ns3:hr>
          </ns3:TrackPointExtension>
        </extensions>
      </trkpt>
      <trkpt lat="-22.03514979220926761627197265625" lon="166.46357238292694091796875">
        <ele>910.79998779296875</ele>
        <time>2016-08-12T21:44:59.000Z</time>
        <extensions>
          <ns3:TrackPointExtension>
            <ns3:atemp>16.0</ns3:atemp>
            <ns3:hr>138</ns3:hr>
          </ns3:TrackPointExtension>
        </extensions>
      </trkpt>
      <trkpt lat="-22.03516873531043529510498046875" lon="166.46355771459639072418212890625">
        <ele>911.20001220703125</ele>
        <time>2016-08-12T21:45:00.000Z</time>
        <extensions>
          <ns3:TrackPointExtension>
            <ns3:atemp>16.0</ns3:atemp>
            <ns3:hr>138</ns3:hr>
          </ns3:TrackPointExtension>
        </extensions>
      </trkpt>
      <trkpt lat="-22.0351857505738735198974609375" lon="166.46354597993195056915283203125">
        <ele>911.4000244140625</ele>
        <time>2016-08-12T21:45:01.000Z</time>
        <extensions>
          <ns3:TrackPointExtension>
            <ns3:atemp>16.0</ns3:atemp>
            <ns3:hr>138</ns3:hr>
          </ns3:TrackPointExtension>
        </extensions>
      </trkpt>
      <trkpt lat="-22.03520628623664379119873046875" lon="166.4635370112955570220947265625">
        <ele>911.4000244140625</ele>
        <time>2016-08-12T21:45:02.000Z</time>
        <extensions>
          <ns3:TrackPointExtension>
            <ns3:atemp>16.0</ns3:atemp>
            <ns3:hr>138</ns3:hr>
          </ns3:TrackPointExtension>
        </extensions>
      </trkpt>
      <trkpt lat="-22.035227157175540924072265625" lon="166.46353147923946380615234375">
        <ele>911.4000244140625</ele>
        <time>2016-08-12T21:45:03.000Z</time>
        <extensions>
          <ns3:TrackPointExtension>
            <ns3:atemp>16.0</ns3:atemp>
            <ns3:hr>138</ns3:hr>
          </ns3:TrackPointExtension>
        </extensions>
      </trkpt>
      <trkpt lat="-22.03524920158088207244873046875" lon="166.46352804265916347503662109375">
        <ele>911</ele>
        <time>2016-08-12T21:45:04.000Z</time>
        <extensions>
          <ns3:TrackPointExtension>
            <ns3:atemp>16.0</ns3:atemp>
            <ns3:hr>138</ns3:hr>
          </ns3:TrackPointExtension>
        </extensions>
      </trkpt>
      <trkpt lat="-22.03527166508138179779052734375" lon="166.4635246060788631439208984375">
        <ele>910.4000244140625</ele>
        <time>2016-08-12T21:45:05.000Z</time>
        <extensions>
          <ns3:TrackPointExtension>
            <ns3:atemp>16.0</ns3:atemp>
            <ns3:hr>138</ns3:hr>
          </ns3:TrackPointExtension>
        </extensions>
      </trkpt>
      <trkpt lat="-22.0352943800389766693115234375" lon="166.4635229296982288360595703125">
        <ele>910.5999755859375</ele>
        <time>2016-08-12T21:45:06.000Z</time>
        <extensions>
          <ns3:TrackPointExtension>
            <ns3:atemp>16.0</ns3:atemp>
            <ns3:hr>138</ns3:hr>
          </ns3:TrackPointExtension>
        </extensions>
      </trkpt>
      <trkpt lat="-22.03532044775784015655517578125" lon="166.463521420955657958984375">
        <ele>910.79998779296875</ele>
        <time>2016-08-12T21:45:07.000Z</time>
        <extensions>
          <ns3:TrackPointExtension>
            <ns3:atemp>16.0</ns3:atemp>
            <ns3:hr>138</ns3:hr>
          </ns3:TrackPointExtension>
        </extensions>
      </trkpt>
      <trkpt lat="-22.03534458763897418975830078125" lon="166.46352150477468967437744140625">
        <ele>910.79998779296875</ele>
        <time>2016-08-12T21:45:08.000Z</time>
        <extensions>
          <ns3:TrackPointExtension>
            <ns3:atemp>16.0</ns3:atemp>
            <ns3:hr>138</ns3:hr>
          </ns3:TrackPointExtension>
        </extensions>
      </trkpt>
      <trkpt lat="-22.0353674702346324920654296875" lon="166.46351848728954792022705078125">
        <ele>910.4000244140625</ele>
        <time>2016-08-12T21:45:09.000Z</time>
        <extensions>
          <ns3:TrackPointExtension>
            <ns3:atemp>16.0</ns3:atemp>
            <ns3:hr>138</ns3:hr>
          </ns3:TrackPointExtension>
        </extensions>
      </trkpt>
      <trkpt lat="-22.03538850881159305572509765625" lon="166.46351781673729419708251953125">
        <ele>910.4000244140625</ele>
        <time>2016-08-12T21:45:10.000Z</time>
        <extensions>
          <ns3:TrackPointExtension>
            <ns3:atemp>16.0</ns3:atemp>
            <ns3:hr>139</ns3:hr>
          </ns3:TrackPointExtension>
        </extensions>
      </trkpt>
      <trkpt lat="-22.03540963120758533477783203125" lon="166.46351848728954792022705078125">
        <ele>910.5999755859375</ele>
        <time>2016-08-12T21:45:11.000Z</time>
        <extensions>
          <ns3:TrackPointExtension>
            <ns3:atemp>16.0</ns3:atemp>
            <ns3:hr>138</ns3:hr>
          </ns3:TrackPointExtension>
        </extensions>
      </trkpt>
      <trkpt lat="-22.03543175943195819854736328125" lon="166.463519074022769927978515625">
        <ele>910.5999755859375</ele>
        <time>2016-08-12T21:45:12.000Z</time>
        <extensions>
          <ns3:TrackPointExtension>
            <ns3:atemp>16.0</ns3:atemp>
            <ns3:hr>138</ns3:hr>
          </ns3:TrackPointExtension>
        </extensions>
      </trkpt>
      <trkpt lat="-22.0354549773037433624267578125" lon="166.4635256119072437286376953125">
        <ele>911</ele>
        <time>2016-08-12T21:45:13.000Z</time>
        <extensions>
          <ns3:TrackPointExtension>
            <ns3:atemp>16.0</ns3:atemp>
            <ns3:hr>138</ns3:hr>
          </ns3:TrackPointExtension>
        </extensions>
      </trkpt>
      <trkpt lat="-22.03547618351876735687255859375" lon="166.46353005431592464447021484375">
        <ele>911.5999755859375</ele>
        <time>2016-08-12T21:45:14.000Z</time>
        <extensions>
          <ns3:TrackPointExtension>
            <ns3:atemp>16.0</ns3:atemp>
            <ns3:hr>138</ns3:hr>
          </ns3:TrackPointExtension>
        </extensions>
      </trkpt>
      <trkpt lat="-22.0354985632002353668212890625" lon="166.4635373465716838836669921875">
        <ele>911.20001220703125</ele>
        <time>2016-08-12T21:45:15.000Z</time>
        <extensions>
          <ns3:TrackPointExtension>
            <ns3:atemp>16.0</ns3:atemp>
            <ns3:hr>138</ns3:hr>
          </ns3:TrackPointExtension>
        </extensions>
      </trkpt>
      <trkpt lat="-22.03551976941525936126708984375" lon="166.46354313008487224578857421875">
        <ele>910.20001220703125</ele>
        <time>2016-08-12T21:45:16.000Z</time>
        <extensions>
          <ns3:TrackPointExtension>
            <ns3:atemp>16.0</ns3:atemp>
            <ns3:hr>138</ns3:hr>
          </ns3:TrackPointExtension>
        </extensions>
      </trkpt>
      <trkpt lat="-22.0355414785444736480712890625" lon="166.463541202247142791748046875">
        <ele>910</ele>
        <time>2016-08-12T21:45:17.000Z</time>
        <extensions>
          <ns3:TrackPointExtension>
            <ns3:atemp>16.0</ns3:atemp>
            <ns3:hr>138</ns3:hr>
          </ns3:TrackPointExtension>
        </extensions>
      </trkpt>
      <trkpt lat="-22.0355656184256076812744140625" lon="166.4635396935045719146728515625">
        <ele>910.4000244140625</ele>
        <time>2016-08-12T21:45:18.000Z</time>
        <extensions>
          <ns3:TrackPointExtension>
            <ns3:atemp>16.0</ns3:atemp>
            <ns3:hr>138</ns3:hr>
          </ns3:TrackPointExtension>
        </extensions>
      </trkpt>
      <trkpt lat="-22.03558799810707569122314453125" lon="166.46353323943912982940673828125">
        <ele>910.4000244140625</ele>
        <time>2016-08-12T21:45:19.000Z</time>
        <extensions>
          <ns3:TrackPointExtension>
            <ns3:atemp>16.0</ns3:atemp>
            <ns3:hr>138</ns3:hr>
          </ns3:TrackPointExtension>
        </extensions>
      </trkpt>
      <trkpt lat="-22.035613395273685455322265625" lon="166.46352946758270263671875">
        <ele>909.79998779296875</ele>
        <time>2016-08-12T21:45:20.000Z</time>
        <extensions>
          <ns3:TrackPointExtension>
            <ns3:atemp>16.0</ns3:atemp>
            <ns3:hr>139</ns3:hr>
          </ns3:TrackPointExtension>
        </extensions>
      </trkpt>
      <trkpt lat="-22.03563611023128032684326171875" lon="166.46352435462176799774169921875">
        <ele>909.5999755859375</ele>
        <time>2016-08-12T21:45:21.000Z</time>
        <extensions>
          <ns3:TrackPointExtension>
            <ns3:atemp>16.0</ns3:atemp>
            <ns3:hr>139</ns3:hr>
          </ns3:TrackPointExtension>
        </extensions>
      </trkpt>
      <trkpt lat="-22.03565773554146289825439453125" lon="166.4635168947279453277587890625">
        <ele>910.20001220703125</ele>
        <time>2016-08-12T21:45:22.000Z</time>
        <extensions>
          <ns3:TrackPointExtension>
            <ns3:atemp>16.0</ns3:atemp>
            <ns3:hr>139</ns3:hr>
          </ns3:TrackPointExtension>
        </extensions>
      </trkpt>
      <trkpt lat="-22.03568154014647006988525390625" lon="166.46351060830056667327880859375">
        <ele>910.20001220703125</ele>
        <time>2016-08-12T21:45:23.000Z</time>
        <extensions>
          <ns3:TrackPointExtension>
            <ns3:atemp>16.0</ns3:atemp>
            <ns3:hr>139</ns3:hr>
          </ns3:TrackPointExtension>
        </extensions>
      </trkpt>
      <trkpt lat="-22.03570400364696979522705078125" lon="166.46350189112126827239990234375">
        <ele>909.4000244140625</ele>
        <time>2016-08-12T21:45:24.000Z</time>
        <extensions>
          <ns3:TrackPointExtension>
            <ns3:atemp>16.0</ns3:atemp>
            <ns3:hr>139</ns3:hr>
          </ns3:TrackPointExtension>
        </extensions>
      </trkpt>
      <trkpt lat="-22.035730741918087005615234375" lon="166.4634954370558261871337890625">
        <ele>909.20001220703125</ele>
        <time>2016-08-12T21:45:25.000Z</time>
        <extensions>
          <ns3:TrackPointExtension>
            <ns3:atemp>16.0</ns3:atemp>
            <ns3:hr>139</ns3:hr>
          </ns3:TrackPointExtension>
        </extensions>
      </trkpt>
      <trkpt lat="-22.035751529037952423095703125" lon="166.46348730660974979400634765625">
        <ele>910</ele>
        <time>2016-08-12T21:45:26.000Z</time>
        <extensions>
          <ns3:TrackPointExtension>
            <ns3:atemp>16.0</ns3:atemp>
            <ns3:hr>139</ns3:hr>
          </ns3:TrackPointExtension>
        </extensions>
      </trkpt>
      <trkpt lat="-22.03577374108135700225830078125" lon="166.4634739793837070465087890625">
        <ele>910.79998779296875</ele>
        <time>2016-08-12T21:45:27.000Z</time>
        <extensions>
          <ns3:TrackPointExtension>
            <ns3:atemp>16.0</ns3:atemp>
            <ns3:hr>139</ns3:hr>
          </ns3:TrackPointExtension>
        </extensions>
      </trkpt>
      <trkpt lat="-22.035796456038951873779296875" lon="166.4634619094431400299072265625">
        <ele>910.5999755859375</ele>
        <time>2016-08-12T21:45:28.000Z</time>
        <extensions>
          <ns3:TrackPointExtension>
            <ns3:atemp>16.0</ns3:atemp>
            <ns3:hr>139</ns3:hr>
          </ns3:TrackPointExtension>
        </extensions>
      </trkpt>
      <trkpt lat="-22.03581799753010272979736328125" lon="166.46345143206417560577392578125">
        <ele>909.20001220703125</ele>
        <time>2016-08-12T21:45:29.000Z</time>
        <extensions>
          <ns3:TrackPointExtension>
            <ns3:atemp>16.0</ns3:atemp>
            <ns3:hr>139</ns3:hr>
          </ns3:TrackPointExtension>
        </extensions>
      </trkpt>
      <trkpt lat="-22.03584113158285617828369140625" lon="166.463437266647815704345703125">
        <ele>908.79998779296875</ele>
        <time>2016-08-12T21:45:30.000Z</time>
        <extensions>
          <ns3:TrackPointExtension>
            <ns3:atemp>16.0</ns3:atemp>
            <ns3:hr>139</ns3:hr>
          </ns3:TrackPointExtension>
        </extensions>
      </trkpt>
      <trkpt lat="-22.0358623377978801727294921875" lon="166.463423855602741241455078125">
        <ele>908.79998779296875</ele>
        <time>2016-08-12T21:45:31.000Z</time>
        <extensions>
          <ns3:TrackPointExtension>
            <ns3:atemp>16.0</ns3:atemp>
            <ns3:hr>139</ns3:hr>
          </ns3:TrackPointExtension>
        </extensions>
      </trkpt>
      <trkpt lat="-22.03588589094579219818115234375" lon="166.4634079299867153167724609375">
        <ele>909</ele>
        <time>2016-08-12T21:45:32.000Z</time>
        <extensions>
          <ns3:TrackPointExtension>
            <ns3:atemp>16.0</ns3:atemp>
            <ns3:hr>139</ns3:hr>
          </ns3:TrackPointExtension>
        </extensions>
      </trkpt>
      <trkpt lat="-22.03590818680822849273681640625" lon="166.46339091472327709197998046875">
        <ele>909</ele>
        <time>2016-08-12T21:45:33.000Z</time>
        <extensions>
          <ns3:TrackPointExtension>
            <ns3:atemp>16.0</ns3:atemp>
            <ns3:hr>139</ns3:hr>
          </ns3:TrackPointExtension>
        </extensions>
      </trkpt>
      <trkpt lat="-22.03592964448034763336181640625" lon="166.46337700076401233673095703125">
        <ele>909</ele>
        <time>2016-08-12T21:45:34.000Z</time>
        <extensions>
          <ns3:TrackPointExtension>
            <ns3:atemp>16.0</ns3:atemp>
            <ns3:hr>139</ns3:hr>
          </ns3:TrackPointExtension>
        </extensions>
      </trkpt>
      <trkpt lat="-22.03595076687633991241455078125" lon="166.46336141042411327362060546875">
        <ele>909.20001220703125</ele>
        <time>2016-08-12T21:45:35.000Z</time>
        <extensions>
          <ns3:TrackPointExtension>
            <ns3:atemp>16.0</ns3:atemp>
            <ns3:hr>139</ns3:hr>
          </ns3:TrackPointExtension>
        </extensions>
      </trkpt>
      <trkpt lat="-22.0359706319868564605712890625" lon="166.46334431134164333343505859375">
        <ele>910</ele>
        <time>2016-08-12T21:45:36.000Z</time>
        <extensions>
          <ns3:TrackPointExtension>
            <ns3:atemp>16.0</ns3:atemp>
            <ns3:hr>139</ns3:hr>
          </ns3:TrackPointExtension>
        </extensions>
      </trkpt>
      <trkpt lat="-22.035987563431262969970703125" lon="166.46332855336368083953857421875">
        <ele>910.20001220703125</ele>
        <time>2016-08-12T21:45:37.000Z</time>
        <extensions>
          <ns3:TrackPointExtension>
            <ns3:atemp>16.0</ns3:atemp>
            <ns3:hr>139</ns3:hr>
          </ns3:TrackPointExtension>
        </extensions>
      </trkpt>
      <trkpt lat="-22.03600390814244747161865234375" lon="166.46330961026251316070556640625">
        <ele>910.20001220703125</ele>
        <time>2016-08-12T21:45:38.000Z</time>
        <extensions>
          <ns3:TrackPointExtension>
            <ns3:atemp>16.0</ns3:atemp>
            <ns3:hr>139</ns3:hr>
          </ns3:TrackPointExtension>
        </extensions>
      </trkpt>
      <trkpt lat="-22.036023773252964019775390625" lon="166.46329544484615325927734375">
        <ele>910</ele>
        <time>2016-08-12T21:45:39.000Z</time>
        <extensions>
          <ns3:TrackPointExtension>
            <ns3:atemp>16.0</ns3:atemp>
            <ns3:hr>139</ns3:hr>
          </ns3:TrackPointExtension>
        </extensions>
      </trkpt>
      <trkpt lat="-22.03604782931506633758544921875" lon="166.46328060887753963470458984375">
        <ele>909.79998779296875</ele>
        <time>2016-08-12T21:45:40.000Z</time>
        <extensions>
          <ns3:TrackPointExtension>
            <ns3:atemp>16.0</ns3:atemp>
            <ns3:hr>139</ns3:hr>
          </ns3:TrackPointExtension>
        </extensions>
      </trkpt>
      <trkpt lat="-22.0360692031681537628173828125" lon="166.46327038295567035675048828125">
        <ele>909.4000244140625</ele>
        <time>2016-08-12T21:45:41.000Z</time>
        <extensions>
          <ns3:TrackPointExtension>
            <ns3:atemp>16.0</ns3:atemp>
            <ns3:hr>139</ns3:hr>
          </ns3:TrackPointExtension>
        </extensions>
      </trkpt>
      <trkpt lat="-22.0360918343067169189453125" lon="166.463257558643817901611328125">
        <ele>909</ele>
        <time>2016-08-12T21:45:42.000Z</time>
        <extensions>
          <ns3:TrackPointExtension>
            <ns3:atemp>16.0</ns3:atemp>
            <ns3:hr>139</ns3:hr>
          </ns3:TrackPointExtension>
        </extensions>
      </trkpt>
      <trkpt lat="-22.03611572273075580596923828125" lon="166.463241465389728546142578125">
        <ele>908.79998779296875</ele>
        <time>2016-08-12T21:45:43.000Z</time>
        <extensions>
          <ns3:TrackPointExtension>
            <ns3:atemp>16.0</ns3:atemp>
            <ns3:hr>139</ns3:hr>
          </ns3:TrackPointExtension>
        </extensions>
      </trkpt>
      <trkpt lat="-22.03613801859319210052490234375" lon="166.463226377964019775390625">
        <ele>908.79998779296875</ele>
        <time>2016-08-12T21:45:44.000Z</time>
        <extensions>
          <ns3:TrackPointExtension>
            <ns3:atemp>16.0</ns3:atemp>
            <ns3:hr>139</ns3:hr>
          </ns3:TrackPointExtension>
        </extensions>
      </trkpt>
      <trkpt lat="-22.03615696169435977935791015625" lon="166.46320433355867862701416015625">
        <ele>908.20001220703125</ele>
        <time>2016-08-12T21:45:45.000Z</time>
        <extensions>
          <ns3:TrackPointExtension>
            <ns3:atemp>16.0</ns3:atemp>
            <ns3:hr>139</ns3:hr>
          </ns3:TrackPointExtension>
        </extensions>
      </trkpt>
      <trkpt lat="-22.036176659166812896728515625" lon="166.4631839655339717864990234375">
        <ele>907.4000244140625</ele>
        <time>2016-08-12T21:45:46.000Z</time>
        <extensions>
          <ns3:TrackPointExtension>
            <ns3:atemp>16.0</ns3:atemp>
            <ns3:hr>139</ns3:hr>
          </ns3:TrackPointExtension>
        </extensions>
      </trkpt>
      <trkpt lat="-22.03619317151606082916259765625" lon="166.4631578139960765838623046875">
        <ele>908</ele>
        <time>2016-08-12T21:45:47.000Z</time>
        <extensions>
          <ns3:TrackPointExtension>
            <ns3:atemp>16.0</ns3:atemp>
            <ns3:hr>139</ns3:hr>
          </ns3:TrackPointExtension>
        </extensions>
      </trkpt>
      <trkpt lat="-22.03620691783726215362548828125" lon="166.4631316624581813812255859375">
        <ele>908.5999755859375</ele>
        <time>2016-08-12T21:45:48.000Z</time>
        <extensions>
          <ns3:TrackPointExtension>
            <ns3:atemp>16.0</ns3:atemp>
            <ns3:hr>139</ns3:hr>
          </ns3:TrackPointExtension>
        </extensions>
      </trkpt>
      <trkpt lat="-22.0362200774252414703369140625" lon="166.46310928277671337127685546875">
        <ele>909</ele>
        <time>2016-08-12T21:45:49.000Z</time>
        <extensions>
          <ns3:TrackPointExtension>
            <ns3:atemp>16.0</ns3:atemp>
            <ns3:hr>139</ns3:hr>
          </ns3:TrackPointExtension>
        </extensions>
      </trkpt>
      <trkpt lat="-22.0362375117838382720947265625" lon="166.46308816038072109222412109375">
        <ele>909</ele>
        <time>2016-08-12T21:45:50.000Z</time>
        <extensions>
          <ns3:TrackPointExtension>
            <ns3:atemp>16.0</ns3:atemp>
            <ns3:hr>139</ns3:hr>
          </ns3:TrackPointExtension>
        </extensions>
      </trkpt>
      <trkpt lat="-22.03625477850437164306640625" lon="166.463065445423126220703125">
        <ele>909.20001220703125</ele>
        <time>2016-08-12T21:45:51.000Z</time>
        <extensions>
          <ns3:TrackPointExtension>
            <ns3:atemp>16.0</ns3:atemp>
            <ns3:hr>138</ns3:hr>
          </ns3:TrackPointExtension>
        </extensions>
      </trkpt>
      <trkpt lat="-22.03627279959619045257568359375" lon="166.46304038353264331817626953125">
        <ele>909.5999755859375</ele>
        <time>2016-08-12T21:45:52.000Z</time>
        <extensions>
          <ns3:TrackPointExtension>
            <ns3:atemp>16.0</ns3:atemp>
            <ns3:hr>139</ns3:hr>
          </ns3:TrackPointExtension>
        </extensions>
      </trkpt>
      <trkpt lat="-22.0362958498299121856689453125" lon="166.4630139805376529693603515625">
        <ele>909.4000244140625</ele>
        <time>2016-08-12T21:45:53.000Z</time>
        <extensions>
          <ns3:TrackPointExtension>
            <ns3:atemp>16.0</ns3:atemp>
            <ns3:hr>138</ns3:hr>
          </ns3:TrackPointExtension>
        </extensions>
      </trkpt>
      <trkpt lat="-22.03631487675011157989501953125" lon="166.4629952050745487213134765625">
        <ele>909</ele>
        <time>2016-08-12T21:45:54.000Z</time>
        <extensions>
          <ns3:TrackPointExtension>
            <ns3:atemp>16.0</ns3:atemp>
            <ns3:hr>139</ns3:hr>
          </ns3:TrackPointExtension>
        </extensions>
      </trkpt>
      <trkpt lat="-22.03633566386997699737548828125" lon="166.462979279458522796630859375">
        <ele>909.4000244140625</ele>
        <time>2016-08-12T21:45:55.000Z</time>
        <extensions>
          <ns3:TrackPointExtension>
            <ns3:atemp>16.0</ns3:atemp>
            <ns3:hr>138</ns3:hr>
          </ns3:TrackPointExtension>
        </extensions>
      </trkpt>
      <trkpt lat="-22.0363518409430980682373046875" lon="166.4629693888127803802490234375">
        <ele>910</ele>
        <time>2016-08-12T21:45:56.000Z</time>
        <extensions>
          <ns3:TrackPointExtension>
            <ns3:atemp>16.0</ns3:atemp>
            <ns3:hr>138</ns3:hr>
          </ns3:TrackPointExtension>
        </extensions>
      </trkpt>
      <trkpt lat="-22.03636919148266315460205078125" lon="166.46296109072864055633544921875">
        <ele>910.20001220703125</ele>
        <time>2016-08-12T21:45:57.000Z</time>
        <extensions>
          <ns3:TrackPointExtension>
            <ns3:atemp>16.0</ns3:atemp>
            <ns3:hr>138</ns3:hr>
          </ns3:TrackPointExtension>
        </extensions>
      </trkpt>
      <trkpt lat="-22.0363917388021945953369140625" lon="166.4629541337490081787109375">
        <ele>910.20001220703125</ele>
        <time>2016-08-12T21:45:58.000Z</time>
        <extensions>
          <ns3:TrackPointExtension>
            <ns3:atemp>16.0</ns3:atemp>
            <ns3:hr>138</ns3:hr>
          </ns3:TrackPointExtension>
        </extensions>
      </trkpt>
      <trkpt lat="-22.03641328029334545135498046875" lon="166.46294751204550266265869140625">
        <ele>910</ele>
        <time>2016-08-12T21:45:59.000Z</time>
        <extensions>
          <ns3:TrackPointExtension>
            <ns3:atemp>16.0</ns3:atemp>
            <ns3:hr>138</ns3:hr>
          </ns3:TrackPointExtension>
        </extensions>
      </trkpt>
      <trkpt lat="-22.03643406741321086883544921875" lon="166.462943069636821746826171875">
        <ele>909.5999755859375</ele>
        <time>2016-08-12T21:46:00.000Z</time>
        <extensions>
          <ns3:TrackPointExtension>
            <ns3:atemp>16.0</ns3:atemp>
            <ns3:hr>138</ns3:hr>
          </ns3:TrackPointExtension>
        </extensions>
      </trkpt>
      <trkpt lat="-22.0364539325237274169921875" lon="166.46293996833264827728271484375">
        <ele>909</ele>
        <time>2016-08-12T21:46:01.000Z</time>
        <extensions>
          <ns3:TrackPointExtension>
            <ns3:atemp>16.0</ns3:atemp>
            <ns3:hr>138</ns3:hr>
          </ns3:TrackPointExtension>
        </extensions>
      </trkpt>
      <trkpt lat="-22.03647061251103878021240234375" lon="166.462935023009777069091796875">
        <ele>909.20001220703125</ele>
        <time>2016-08-12T21:46:02.000Z</time>
        <extensions>
          <ns3:TrackPointExtension>
            <ns3:atemp>16.0</ns3:atemp>
            <ns3:hr>138</ns3:hr>
          </ns3:TrackPointExtension>
        </extensions>
      </trkpt>
      <trkpt lat="-22.0364888012409210205078125" lon="166.46293259225785732269287109375">
        <ele>909.4000244140625</ele>
        <time>2016-08-12T21:46:03.000Z</time>
        <extensions>
          <ns3:TrackPointExtension>
            <ns3:atemp>16.0</ns3:atemp>
            <ns3:hr>138</ns3:hr>
          </ns3:TrackPointExtension>
        </extensions>
      </trkpt>
      <trkpt lat="-22.03651067800819873809814453125" lon="166.462934352457523345947265625">
        <ele>909.4000244140625</ele>
        <time>2016-08-12T21:46:04.000Z</time>
        <extensions>
          <ns3:TrackPointExtension>
            <ns3:atemp>16.0</ns3:atemp>
            <ns3:hr>138</ns3:hr>
          </ns3:TrackPointExtension>
        </extensions>
      </trkpt>
      <trkpt lat="-22.03653548844158649444580078125" lon="166.4629382081329822540283203125">
        <ele>908.79998779296875</ele>
        <time>2016-08-12T21:46:05.000Z</time>
        <extensions>
          <ns3:TrackPointExtension>
            <ns3:atemp>16.0</ns3:atemp>
            <ns3:hr>138</ns3:hr>
          </ns3:TrackPointExtension>
        </extensions>
      </trkpt>
      <trkpt lat="-22.03655920922756195068359375" lon="166.46294080652296543121337890625">
        <ele>908.20001220703125</ele>
        <time>2016-08-12T21:46:06.000Z</time>
        <extensions>
          <ns3:TrackPointExtension>
            <ns3:atemp>16.0</ns3:atemp>
            <ns3:hr>138</ns3:hr>
          </ns3:TrackPointExtension>
        </extensions>
      </trkpt>
      <trkpt lat="-22.03657957725226879119873046875" lon="166.46294181235134601593017578125">
        <ele>908.4000244140625</ele>
        <time>2016-08-12T21:46:07.000Z</time>
        <extensions>
          <ns3:TrackPointExtension>
            <ns3:atemp>16.0</ns3:atemp>
            <ns3:hr>138</ns3:hr>
          </ns3:TrackPointExtension>
        </extensions>
      </trkpt>
      <trkpt lat="-22.03659717924892902374267578125" lon="166.46294164471328258514404296875">
        <ele>908.79998779296875</ele>
        <time>2016-08-12T21:46:08.000Z</time>
        <extensions>
          <ns3:TrackPointExtension>
            <ns3:atemp>16.0</ns3:atemp>
            <ns3:hr>138</ns3:hr>
          </ns3:TrackPointExtension>
        </extensions>
      </trkpt>
      <trkpt lat="-22.03661285340785980224609375" lon="166.462941728532314300537109375">
        <ele>908.5999755859375</ele>
        <time>2016-08-12T21:46:09.000Z</time>
        <extensions>
          <ns3:TrackPointExtension>
            <ns3:atemp>16.0</ns3:atemp>
            <ns3:hr>138</ns3:hr>
          </ns3:TrackPointExtension>
        </extensions>
      </trkpt>
      <trkpt lat="-22.03663188032805919647216796875" lon="166.462947092950344085693359375">
        <ele>908.20001220703125</ele>
        <time>2016-08-12T21:46:10.000Z</time>
        <extensions>
          <ns3:TrackPointExtension>
            <ns3:atemp>16.0</ns3:atemp>
            <ns3:hr>138</ns3:hr>
          </ns3:TrackPointExtension>
        </extensions>
      </trkpt>
      <trkpt lat="-22.03665635548532009124755859375" lon="166.46295388229191303253173828125">
        <ele>908.5999755859375</ele>
        <time>2016-08-12T21:46:11.000Z</time>
        <extensions>
          <ns3:TrackPointExtension>
            <ns3:atemp>16.0</ns3:atemp>
            <ns3:hr>138</ns3:hr>
          </ns3:TrackPointExtension>
        </extensions>
      </trkpt>
      <trkpt lat="-22.03667663969099521636962890625" lon="166.4629621803760528564453125">
        <ele>909</ele>
        <time>2016-08-12T21:46:12.000Z</time>
        <extensions>
          <ns3:TrackPointExtension>
            <ns3:atemp>16.0</ns3:atemp>
            <ns3:hr>138</ns3:hr>
          </ns3:TrackPointExtension>
        </extensions>
      </trkpt>
      <trkpt lat="-22.03669910319149494171142578125" lon="166.462974250316619873046875">
        <ele>908.79998779296875</ele>
        <time>2016-08-12T21:46:13.000Z</time>
        <extensions>
          <ns3:TrackPointExtension>
            <ns3:atemp>16.0</ns3:atemp>
            <ns3:hr>137</ns3:hr>
          </ns3:TrackPointExtension>
        </extensions>
      </trkpt>
      <trkpt lat="-22.036719806492328643798828125" lon="166.4629821293056011199951171875">
        <ele>908.5999755859375</ele>
        <time>2016-08-12T21:46:14.000Z</time>
        <extensions>
          <ns3:TrackPointExtension>
            <ns3:atemp>16.0</ns3:atemp>
            <ns3:hr>138</ns3:hr>
          </ns3:TrackPointExtension>
        </extensions>
      </trkpt>
      <trkpt lat="-22.03674134798347949981689453125" lon="166.46298908628523349761962890625">
        <ele>908.79998779296875</ele>
        <time>2016-08-12T21:46:15.000Z</time>
        <extensions>
          <ns3:TrackPointExtension>
            <ns3:atemp>16.0</ns3:atemp>
            <ns3:hr>137</ns3:hr>
          </ns3:TrackPointExtension>
        </extensions>
      </trkpt>
      <trkpt lat="-22.03675844706594944000244140625" lon="166.46299562416970729827880859375">
        <ele>909.4000244140625</ele>
        <time>2016-08-12T21:46:16.000Z</time>
        <extensions>
          <ns3:TrackPointExtension>
            <ns3:atemp>16.0</ns3:atemp>
            <ns3:hr>137</ns3:hr>
          </ns3:TrackPointExtension>
        </extensions>
      </trkpt>
      <trkpt lat="-22.03677571378648281097412109375" lon="166.46300442516803741455078125">
        <ele>909</ele>
        <time>2016-08-12T21:46:17.000Z</time>
        <extensions>
          <ns3:TrackPointExtension>
            <ns3:atemp>16.0</ns3:atemp>
            <ns3:hr>137</ns3:hr>
          </ns3:TrackPointExtension>
        </extensions>
      </trkpt>
      <trkpt lat="-22.0367972552776336669921875" lon="166.463017165660858154296875">
        <ele>908.4000244140625</ele>
        <time>2016-08-12T21:46:18.000Z</time>
        <extensions>
          <ns3:TrackPointExtension>
            <ns3:atemp>16.0</ns3:atemp>
            <ns3:hr>137</ns3:hr>
          </ns3:TrackPointExtension>
        </extensions>
      </trkpt>
      <trkpt lat="-22.03681007958948612213134765625" lon="166.46303283981978893280029296875">
        <ele>908.79998779296875</ele>
        <time>2016-08-12T21:46:19.000Z</time>
        <extensions>
          <ns3:TrackPointExtension>
            <ns3:atemp>16.0</ns3:atemp>
            <ns3:hr>137</ns3:hr>
          </ns3:TrackPointExtension>
        </extensions>
      </trkpt>
      <trkpt lat="-22.03683413565158843994140625" lon="166.463046334683895111083984375">
        <ele>909.79998779296875</ele>
        <time>2016-08-12T21:46:20.000Z</time>
        <extensions>
          <ns3:TrackPointExtension>
            <ns3:atemp>16.0</ns3:atemp>
            <ns3:hr>137</ns3:hr>
          </ns3:TrackPointExtension>
        </extensions>
      </trkpt>
      <trkpt lat="-22.03685433603823184967041015625" lon="166.46306284703314304351806640625">
        <ele>910</ele>
        <time>2016-08-12T21:46:21.000Z</time>
        <extensions>
          <ns3:TrackPointExtension>
            <ns3:atemp>16.0</ns3:atemp>
            <ns3:hr>137</ns3:hr>
          </ns3:TrackPointExtension>
        </extensions>
      </trkpt>
      <trkpt lat="-22.03687042929232120513916015625" lon="166.46307759918272495269775390625">
        <ele>909.4000244140625</ele>
        <time>2016-08-12T21:46:22.000Z</time>
        <extensions>
          <ns3:TrackPointExtension>
            <ns3:atemp>16.0</ns3:atemp>
            <ns3:hr>137</ns3:hr>
          </ns3:TrackPointExtension>
        </extensions>
      </trkpt>
      <trkpt lat="-22.03688442707061767578125" lon="166.4630957879126071929931640625">
        <ele>909.20001220703125</ele>
        <time>2016-08-12T21:46:23.000Z</time>
        <extensions>
          <ns3:TrackPointExtension>
            <ns3:atemp>16.0</ns3:atemp>
            <ns3:hr>137</ns3:hr>
          </ns3:TrackPointExtension>
        </extensions>
      </trkpt>
      <trkpt lat="-22.03690295107662677764892578125" lon="166.46311246789991855621337890625">
        <ele>909.4000244140625</ele>
        <time>2016-08-12T21:46:24.000Z</time>
        <extensions>
          <ns3:TrackPointExtension>
            <ns3:atemp>16.0</ns3:atemp>
            <ns3:hr>137</ns3:hr>
          </ns3:TrackPointExtension>
        </extensions>
      </trkpt>
      <trkpt lat="-22.03691669739782810211181640625" lon="166.46313392557203769683837890625">
        <ele>908.79998779296875</ele>
        <time>2016-08-12T21:46:25.000Z</time>
        <extensions>
          <ns3:TrackPointExtension>
            <ns3:atemp>16.0</ns3:atemp>
            <ns3:hr>137</ns3:hr>
          </ns3:TrackPointExtension>
        </extensions>
      </trkpt>
      <trkpt lat="-22.03693874180316925048828125" lon="166.463150270283222198486328125">
        <ele>907.79998779296875</ele>
        <time>2016-08-12T21:46:26.000Z</time>
        <extensions>
          <ns3:TrackPointExtension>
            <ns3:atemp>16.0</ns3:atemp>
            <ns3:hr>137</ns3:hr>
          </ns3:TrackPointExtension>
        </extensions>
      </trkpt>
      <trkpt lat="-22.036962546408176422119140625" lon="166.46315622143447399139404296875">
        <ele>908</ele>
        <time>2016-08-12T21:46:27.000Z</time>
        <extensions>
          <ns3:TrackPointExtension>
            <ns3:atemp>16.0</ns3:atemp>
            <ns3:hr>138</ns3:hr>
          </ns3:TrackPointExtension>
        </extensions>
      </trkpt>
      <trkpt lat="-22.03697486780583858489990234375" lon="166.4631668664515018463134765625">
        <ele>908.4000244140625</ele>
        <time>2016-08-12T21:46:28.000Z</time>
        <extensions>
          <ns3:TrackPointExtension>
            <ns3:atemp>16.0</ns3:atemp>
            <ns3:hr>137</ns3:hr>
          </ns3:TrackPointExtension>
        </extensions>
      </trkpt>
      <trkpt lat="-22.03700311481952667236328125" lon="166.4631749130785465240478515625">
        <ele>908.5999755859375</ele>
        <time>2016-08-12T21:46:29.000Z</time>
        <extensions>
          <ns3:TrackPointExtension>
            <ns3:atemp>16.0</ns3:atemp>
            <ns3:hr>138</ns3:hr>
          </ns3:TrackPointExtension>
        </extensions>
      </trkpt>
      <trkpt lat="-22.0370198786258697509765625" lon="166.46318145096302032470703125">
        <ele>908</ele>
        <time>2016-08-12T21:46:30.000Z</time>
        <extensions>
          <ns3:TrackPointExtension>
            <ns3:atemp>16.0</ns3:atemp>
            <ns3:hr>137</ns3:hr>
          </ns3:TrackPointExtension>
        </extensions>
      </trkpt>
      <trkpt lat="-22.03704561106860637664794921875" lon="166.46318606100976467132568359375">
        <ele>907.79998779296875</ele>
        <time>2016-08-12T21:46:31.000Z</time>
        <extensions>
          <ns3:TrackPointExtension>
            <ns3:atemp>16.0</ns3:atemp>
            <ns3:hr>137</ns3:hr>
          </ns3:TrackPointExtension>
        </extensions>
      </trkpt>
      <trkpt lat="-22.03706120140850543975830078125" lon="166.46319595165550708770751953125">
        <ele>908</ele>
        <time>2016-08-12T21:46:32.000Z</time>
        <extensions>
          <ns3:TrackPointExtension>
            <ns3:atemp>16.0</ns3:atemp>
            <ns3:hr>137</ns3:hr>
          </ns3:TrackPointExtension>
        </extensions>
      </trkpt>
      <trkpt lat="-22.0370911248028278350830078125" lon="166.46319796331226825714111328125">
        <ele>908.5999755859375</ele>
        <time>2016-08-12T21:46:33.000Z</time>
        <extensions>
          <ns3:TrackPointExtension>
            <ns3:atemp>16.0</ns3:atemp>
            <ns3:hr>137</ns3:hr>
          </ns3:TrackPointExtension>
        </extensions>
      </trkpt>
      <trkpt lat="-22.0371244847774505615234375" lon="166.463212631642818450927734375">
        <ele>908.79998779296875</ele>
        <time>2016-08-12T21:46:34.000Z</time>
        <extensions>
          <ns3:TrackPointExtension>
            <ns3:atemp>16.0</ns3:atemp>
            <ns3:hr>137</ns3:hr>
          </ns3:TrackPointExtension>
        </extensions>
      </trkpt>
      <trkpt lat="-22.03714384697377681732177734375" lon="166.463226042687892913818359375">
        <ele>908.20001220703125</ele>
        <time>2016-08-12T21:46:35.000Z</time>
        <extensions>
          <ns3:TrackPointExtension>
            <ns3:atemp>16.0</ns3:atemp>
            <ns3:hr>137</ns3:hr>
          </ns3:TrackPointExtension>
        </extensions>
      </trkpt>
      <trkpt lat="-22.03716270625591278076171875" lon="166.46324071101844310760498046875">
        <ele>908.5999755859375</ele>
        <time>2016-08-12T21:46:36.000Z</time>
        <extensions>
          <ns3:TrackPointExtension>
            <ns3:atemp>16.0</ns3:atemp>
            <ns3:hr>137</ns3:hr>
          </ns3:TrackPointExtension>
        </extensions>
      </trkpt>
      <trkpt lat="-22.03718014061450958251953125" lon="166.46325328387320041656494140625">
        <ele>909.20001220703125</ele>
        <time>2016-08-12T21:46:37.000Z</time>
        <extensions>
          <ns3:TrackPointExtension>
            <ns3:atemp>16.0</ns3:atemp>
            <ns3:hr>136</ns3:hr>
          </ns3:TrackPointExtension>
        </extensions>
      </trkpt>
      <trkpt lat="-22.03720151446759700775146484375" lon="166.46325781010091304779052734375">
        <ele>909.4000244140625</ele>
        <time>2016-08-12T21:46:38.000Z</time>
        <extensions>
          <ns3:TrackPointExtension>
            <ns3:atemp>16.0</ns3:atemp>
            <ns3:hr>136</ns3:hr>
          </ns3:TrackPointExtension>
        </extensions>
      </trkpt>
      <trkpt lat="-22.0372305996716022491455078125" lon="166.46325118839740753173828125">
        <ele>909.4000244140625</ele>
        <time>2016-08-12T21:46:39.000Z</time>
        <extensions>
          <ns3:TrackPointExtension>
            <ns3:atemp>16.0</ns3:atemp>
            <ns3:hr>136</ns3:hr>
          </ns3:TrackPointExtension>
        </extensions>
      </trkpt>
      <trkpt lat="-22.03725683502852916717529296875" lon="166.4632493443787097930908203125">
        <ele>910.20001220703125</ele>
        <time>2016-08-12T21:46:40.000Z</time>
        <extensions>
          <ns3:TrackPointExtension>
            <ns3:atemp>16.0</ns3:atemp>
            <ns3:hr>136</ns3:hr>
          </ns3:TrackPointExtension>
        </extensions>
      </trkpt>
      <trkpt lat="-22.03728432767093181610107421875" lon="166.46324909292161464691162109375">
        <ele>910.4000244140625</ele>
        <time>2016-08-12T21:46:41.000Z</time>
        <extensions>
          <ns3:TrackPointExtension>
            <ns3:atemp>16.0</ns3:atemp>
            <ns3:hr>136</ns3:hr>
          </ns3:TrackPointExtension>
        </extensions>
      </trkpt>
      <trkpt lat="-22.03731517307460308074951171875" lon="166.46324448287487030029296875">
        <ele>909.20001220703125</ele>
        <time>2016-08-12T21:46:42.000Z</time>
        <extensions>
          <ns3:TrackPointExtension>
            <ns3:atemp>16.0</ns3:atemp>
            <ns3:hr>136</ns3:hr>
          </ns3:TrackPointExtension>
        </extensions>
      </trkpt>
      <trkpt lat="-22.0373395644128322601318359375" lon="166.46324238739907741546630859375">
        <ele>909</ele>
        <time>2016-08-12T21:46:43.000Z</time>
        <extensions>
          <ns3:TrackPointExtension>
            <ns3:atemp>16.0</ns3:atemp>
            <ns3:hr>136</ns3:hr>
          </ns3:TrackPointExtension>
        </extensions>
      </trkpt>
      <trkpt lat="-22.03736110590398311614990234375" lon="166.46324238739907741546630859375">
        <ele>908.79998779296875</ele>
        <time>2016-08-12T21:46:44.000Z</time>
        <extensions>
          <ns3:TrackPointExtension>
            <ns3:atemp>16.0</ns3:atemp>
            <ns3:hr>136</ns3:hr>
          </ns3:TrackPointExtension>
        </extensions>
      </trkpt>
      <trkpt lat="-22.03738507814705371856689453125" lon="166.4632436446845531463623046875">
        <ele>908.4000244140625</ele>
        <time>2016-08-12T21:46:45.000Z</time>
        <extensions>
          <ns3:TrackPointExtension>
            <ns3:atemp>16.0</ns3:atemp>
            <ns3:hr>136</ns3:hr>
          </ns3:TrackPointExtension>
        </extensions>
      </trkpt>
      <trkpt lat="-22.03740234486758708953857421875" lon="166.46324657835066318511962890625">
        <ele>908.4000244140625</ele>
        <time>2016-08-12T21:46:46.000Z</time>
        <extensions>
          <ns3:TrackPointExtension>
            <ns3:atemp>16.0</ns3:atemp>
            <ns3:hr>135</ns3:hr>
          </ns3:TrackPointExtension>
        </extensions>
      </trkpt>
      <trkpt lat="-22.0374260656535625457763671875" lon="166.46324154920876026153564453125">
        <ele>908.79998779296875</ele>
        <time>2016-08-12T21:46:47.000Z</time>
        <extensions>
          <ns3:TrackPointExtension>
            <ns3:atemp>16.0</ns3:atemp>
            <ns3:hr>135</ns3:hr>
          </ns3:TrackPointExtension>
        </extensions>
      </trkpt>
      <trkpt lat="-22.03745012171566486358642578125" lon="166.46323350258171558380126953125">
        <ele>908.79998779296875</ele>
        <time>2016-08-12T21:46:48.000Z</time>
        <extensions>
          <ns3:TrackPointExtension>
            <ns3:atemp>16.0</ns3:atemp>
            <ns3:hr>135</ns3:hr>
          </ns3:TrackPointExtension>
        </extensions>
      </trkpt>
      <trkpt lat="-22.037478871643543243408203125" lon="166.46322545595467090606689453125">
        <ele>908.4000244140625</ele>
        <time>2016-08-12T21:46:49.000Z</time>
        <extensions>
          <ns3:TrackPointExtension>
            <ns3:atemp>16.0</ns3:atemp>
            <ns3:hr>135</ns3:hr>
          </ns3:TrackPointExtension>
        </extensions>
      </trkpt>
      <trkpt lat="-22.03749395906925201416015625" lon="166.46321372129023075103759765625">
        <ele>907.79998779296875</ele>
        <time>2016-08-12T21:46:50.000Z</time>
        <extensions>
          <ns3:TrackPointExtension>
            <ns3:atemp>16.0</ns3:atemp>
            <ns3:hr>134</ns3:hr>
          </ns3:TrackPointExtension>
        </extensions>
      </trkpt>
      <trkpt lat="-22.0375075377523899078369140625" lon="166.463208608329296112060546875">
        <ele>907.4000244140625</ele>
        <time>2016-08-12T21:46:51.000Z</time>
        <extensions>
          <ns3:TrackPointExtension>
            <ns3:atemp>16.0</ns3:atemp>
            <ns3:hr>135</ns3:hr>
          </ns3:TrackPointExtension>
        </extensions>
      </trkpt>
      <trkpt lat="-22.03751365654170513153076171875" lon="166.463189162313938140869140625">
        <ele>907.79998779296875</ele>
        <time>2016-08-12T21:46:52.000Z</time>
        <extensions>
          <ns3:TrackPointExtension>
            <ns3:atemp>16.0</ns3:atemp>
            <ns3:hr>134</ns3:hr>
          </ns3:TrackPointExtension>
        </extensions>
      </trkpt>
      <trkpt lat="-22.03752740286290645599365234375" lon="166.46316745318472385406494140625">
        <ele>908.4000244140625</ele>
        <time>2016-08-12T21:46:53.000Z</time>
        <extensions>
          <ns3:TrackPointExtension>
            <ns3:atemp>16.0</ns3:atemp>
            <ns3:hr>135</ns3:hr>
          </ns3:TrackPointExtension>
        </extensions>
      </trkpt>
      <trkpt lat="-22.037542574107646942138671875" lon="166.4631397090852260589599609375">
        <ele>908.20001220703125</ele>
        <time>2016-08-12T21:46:54.000Z</time>
        <extensions>
          <ns3:TrackPointExtension>
            <ns3:atemp>16.0</ns3:atemp>
            <ns3:hr>135</ns3:hr>
          </ns3:TrackPointExtension>
        </extensions>
      </trkpt>
      <trkpt lat="-22.037560008466243743896484375" lon="166.46311615593731403350830078125">
        <ele>907.5999755859375</ele>
        <time>2016-08-12T21:46:55.000Z</time>
        <extensions>
          <ns3:TrackPointExtension>
            <ns3:atemp>16.0</ns3:atemp>
            <ns3:hr>135</ns3:hr>
          </ns3:TrackPointExtension>
        </extensions>
      </trkpt>
      <trkpt lat="-22.03758054412901401519775390625" lon="166.46309553645551204681396484375">
        <ele>907.79998779296875</ele>
        <time>2016-08-12T21:46:56.000Z</time>
        <extensions>
          <ns3:TrackPointExtension>
            <ns3:atemp>16.0</ns3:atemp>
            <ns3:hr>135</ns3:hr>
          </ns3:TrackPointExtension>
        </extensions>
      </trkpt>
      <trkpt lat="-22.037598229944705963134765625" lon="166.463075168430805206298828125">
        <ele>908.4000244140625</ele>
        <time>2016-08-12T21:46:57.000Z</time>
        <extensions>
          <ns3:TrackPointExtension>
            <ns3:atemp>16.0</ns3:atemp>
            <ns3:hr>135</ns3:hr>
          </ns3:TrackPointExtension>
        </extensions>
      </trkpt>
      <trkpt lat="-22.03761407174170017242431640625" lon="166.4630542136728763580322265625">
        <ele>908.4000244140625</ele>
        <time>2016-08-12T21:46:58.000Z</time>
        <extensions>
          <ns3:TrackPointExtension>
            <ns3:atemp>16.0</ns3:atemp>
            <ns3:hr>135</ns3:hr>
          </ns3:TrackPointExtension>
        </extensions>
      </trkpt>
      <trkpt lat="-22.03763016499578952789306640625" lon="166.463025547564029693603515625">
        <ele>908</ele>
        <time>2016-08-12T21:46:59.000Z</time>
        <extensions>
          <ns3:TrackPointExtension>
            <ns3:atemp>16.0</ns3:atemp>
            <ns3:hr>135</ns3:hr>
          </ns3:TrackPointExtension>
        </extensions>
      </trkpt>
      <trkpt lat="-22.037639804184436798095703125" lon="166.46299445070326328277587890625">
        <ele>908.20001220703125</ele>
        <time>2016-08-12T21:47:00.000Z</time>
        <extensions>
          <ns3:TrackPointExtension>
            <ns3:atemp>16.0</ns3:atemp>
            <ns3:hr>135</ns3:hr>
          </ns3:TrackPointExtension>
        </extensions>
      </trkpt>
      <trkpt lat="-22.03765220940113067626953125" lon="166.46296461112797260284423828125">
        <ele>908.5999755859375</ele>
        <time>2016-08-12T21:47:01.000Z</time>
        <extensions>
          <ns3:TrackPointExtension>
            <ns3:atemp>16.0</ns3:atemp>
            <ns3:hr>135</ns3:hr>
          </ns3:TrackPointExtension>
        </extensions>
      </trkpt>
      <trkpt lat="-22.03766318969428539276123046875" lon="166.4629361964762210845947265625">
        <ele>908.79998779296875</ele>
        <time>2016-08-12T21:47:02.000Z</time>
        <extensions>
          <ns3:TrackPointExtension>
            <ns3:atemp>16.0</ns3:atemp>
            <ns3:hr>135</ns3:hr>
          </ns3:TrackPointExtension>
        </extensions>
      </trkpt>
      <trkpt lat="-22.03767609782516956329345703125" lon="166.462908871471881866455078125">
        <ele>908.5999755859375</ele>
        <time>2016-08-12T21:47:03.000Z</time>
        <extensions>
          <ns3:TrackPointExtension>
            <ns3:atemp>16.0</ns3:atemp>
            <ns3:hr>135</ns3:hr>
          </ns3:TrackPointExtension>
        </extensions>
      </trkpt>
      <trkpt lat="-22.0376822166144847869873046875" lon="166.4628828875720500946044921875">
        <ele>908.5999755859375</ele>
        <time>2016-08-12T21:47:04.000Z</time>
        <extensions>
          <ns3:TrackPointExtension>
            <ns3:atemp>16.0</ns3:atemp>
            <ns3:hr>135</ns3:hr>
          </ns3:TrackPointExtension>
        </extensions>
      </trkpt>
      <trkpt lat="-22.03769403509795665740966796875" lon="166.46285866387188434600830078125">
        <ele>908.79998779296875</ele>
        <time>2016-08-12T21:47:05.000Z</time>
        <extensions>
          <ns3:TrackPointExtension>
            <ns3:atemp>16.0</ns3:atemp>
            <ns3:hr>135</ns3:hr>
          </ns3:TrackPointExtension>
        </extensions>
      </trkpt>
      <trkpt lat="-22.03770677559077739715576171875" lon="166.46283117122948169708251953125">
        <ele>909</ele>
        <time>2016-08-12T21:47:06.000Z</time>
        <extensions>
          <ns3:TrackPointExtension>
            <ns3:atemp>16.0</ns3:atemp>
            <ns3:hr>135</ns3:hr>
          </ns3:TrackPointExtension>
        </extensions>
      </trkpt>
      <trkpt lat="-22.0377130620181560516357421875" lon="166.4628014154732227325439453125">
        <ele>908.79998779296875</ele>
        <time>2016-08-12T21:47:07.000Z</time>
        <extensions>
          <ns3:TrackPointExtension>
            <ns3:atemp>16.0</ns3:atemp>
            <ns3:hr>135</ns3:hr>
          </ns3:TrackPointExtension>
        </extensions>
      </trkpt>
      <trkpt lat="-22.03772605396807193756103515625" lon="166.4627749286592006683349609375">
        <ele>909</ele>
        <time>2016-08-12T21:47:08.000Z</time>
        <extensions>
          <ns3:TrackPointExtension>
            <ns3:atemp>16.0</ns3:atemp>
            <ns3:hr>135</ns3:hr>
          </ns3:TrackPointExtension>
        </extensions>
      </trkpt>
      <trkpt lat="-22.03773778863251209259033203125" lon="166.462749950587749481201171875">
        <ele>909.79998779296875</ele>
        <time>2016-08-12T21:47:09.000Z</time>
        <extensions>
          <ns3:TrackPointExtension>
            <ns3:atemp>16.0</ns3:atemp>
            <ns3:hr>135</ns3:hr>
          </ns3:TrackPointExtension>
        </extensions>
      </trkpt>
      <trkpt lat="-22.0377496071159839630126953125" lon="166.4627253077924251556396484375">
        <ele>910.20001220703125</ele>
        <time>2016-08-12T21:47:10.000Z</time>
        <extensions>
          <ns3:TrackPointExtension>
            <ns3:atemp>16.0</ns3:atemp>
            <ns3:hr>135</ns3:hr>
          </ns3:TrackPointExtension>
        </extensions>
      </trkpt>
      <trkpt lat="-22.03775857575237751007080078125" lon="166.46270611323416233062744140625">
        <ele>909.5999755859375</ele>
        <time>2016-08-12T21:47:11.000Z</time>
        <extensions>
          <ns3:TrackPointExtension>
            <ns3:atemp>16.0</ns3:atemp>
            <ns3:hr>135</ns3:hr>
          </ns3:TrackPointExtension>
        </extensions>
      </trkpt>
      <trkpt lat="-22.0377710647881031036376953125" lon="166.46268700249493122100830078125">
        <ele>909.20001220703125</ele>
        <time>2016-08-12T21:47:12.000Z</time>
        <extensions>
          <ns3:TrackPointExtension>
            <ns3:atemp>16.0</ns3:atemp>
            <ns3:hr>135</ns3:hr>
          </ns3:TrackPointExtension>
        </extensions>
      </trkpt>
      <trkpt lat="-22.0377878285944461822509765625" lon="166.4626632817089557647705078125">
        <ele>909.79998779296875</ele>
        <time>2016-08-12T21:47:13.000Z</time>
        <extensions>
          <ns3:TrackPointExtension>
            <ns3:atemp>16.0</ns3:atemp>
            <ns3:hr>135</ns3:hr>
          </ns3:TrackPointExtension>
        </extensions>
      </trkpt>
      <trkpt lat="-22.037807442247867584228515625" lon="166.46263897418975830078125">
        <ele>910.4000244140625</ele>
        <time>2016-08-12T21:47:14.000Z</time>
        <extensions>
          <ns3:TrackPointExtension>
            <ns3:atemp>16.0</ns3:atemp>
            <ns3:hr>135</ns3:hr>
          </ns3:TrackPointExtension>
        </extensions>
      </trkpt>
      <trkpt lat="-22.03782948665320873260498046875" lon="166.4626220427453517913818359375">
        <ele>910.20001220703125</ele>
        <time>2016-08-12T21:47:15.000Z</time>
        <extensions>
          <ns3:TrackPointExtension>
            <ns3:atemp>16.0</ns3:atemp>
            <ns3:hr>135</ns3:hr>
          </ns3:TrackPointExtension>
        </extensions>
      </trkpt>
      <trkpt lat="-22.037847004830837249755859375" lon="166.46260653622448444366455078125">
        <ele>909.79998779296875</ele>
        <time>2016-08-12T21:47:16.000Z</time>
        <extensions>
          <ns3:TrackPointExtension>
            <ns3:atemp>16.0</ns3:atemp>
            <ns3:hr>136</ns3:hr>
          </ns3:TrackPointExtension>
        </extensions>
      </trkpt>
      <trkpt lat="-22.03786544501781463623046875" lon="166.462586335837841033935546875">
        <ele>910</ele>
        <time>2016-08-12T21:47:17.000Z</time>
        <extensions>
          <ns3:TrackPointExtension>
            <ns3:atemp>16.0</ns3:atemp>
            <ns3:hr>136</ns3:hr>
          </ns3:TrackPointExtension>
        </extensions>
      </trkpt>
      <trkpt lat="-22.0378884114325046539306640625" lon="166.4625720866024494171142578125">
        <ele>910</ele>
        <time>2016-08-12T21:47:18.000Z</time>
        <extensions>
          <ns3:TrackPointExtension>
            <ns3:atemp>16.0</ns3:atemp>
            <ns3:hr>136</ns3:hr>
          </ns3:TrackPointExtension>
        </extensions>
      </trkpt>
      <trkpt lat="-22.03790861181914806365966796875" lon="166.46255976520478725433349609375">
        <ele>909.20001220703125</ele>
        <time>2016-08-12T21:47:19.000Z</time>
        <extensions>
          <ns3:TrackPointExtension>
            <ns3:atemp>16.0</ns3:atemp>
            <ns3:hr>136</ns3:hr>
          </ns3:TrackPointExtension>
        </extensions>
      </trkpt>
      <trkpt lat="-22.037926800549030303955078125" lon="166.462542749941349029541015625">
        <ele>908.5999755859375</ele>
        <time>2016-08-12T21:47:20.000Z</time>
        <extensions>
          <ns3:TrackPointExtension>
            <ns3:atemp>16.0</ns3:atemp>
            <ns3:hr>136</ns3:hr>
          </ns3:TrackPointExtension>
        </extensions>
      </trkpt>
      <trkpt lat="-22.0379425585269927978515625" lon="166.46252841688692569732666015625">
        <ele>909.4000244140625</ele>
        <time>2016-08-12T21:47:21.000Z</time>
        <extensions>
          <ns3:TrackPointExtension>
            <ns3:atemp>16.0</ns3:atemp>
            <ns3:hr>135</ns3:hr>
          </ns3:TrackPointExtension>
        </extensions>
      </trkpt>
      <trkpt lat="-22.037956975400447845458984375" lon="166.4625130780041217803955078125">
        <ele>910</ele>
        <time>2016-08-12T21:47:22.000Z</time>
        <extensions>
          <ns3:TrackPointExtension>
            <ns3:atemp>16.0</ns3:atemp>
            <ns3:hr>136</ns3:hr>
          </ns3:TrackPointExtension>
        </extensions>
      </trkpt>
      <trkpt lat="-22.037976086139678955078125" lon="166.462499834597110748291015625">
        <ele>909.5999755859375</ele>
        <time>2016-08-12T21:47:23.000Z</time>
        <extensions>
          <ns3:TrackPointExtension>
            <ns3:atemp>16.0</ns3:atemp>
            <ns3:hr>135</ns3:hr>
          </ns3:TrackPointExtension>
        </extensions>
      </trkpt>
      <trkpt lat="-22.0379936881363391876220703125" lon="166.4624932967126369476318359375">
        <ele>909.4000244140625</ele>
        <time>2016-08-12T21:47:24.000Z</time>
        <extensions>
          <ns3:TrackPointExtension>
            <ns3:atemp>16.0</ns3:atemp>
            <ns3:hr>135</ns3:hr>
          </ns3:TrackPointExtension>
        </extensions>
      </trkpt>
      <trkpt lat="-22.03801254741847515106201171875" lon="166.46248181350529193878173828125">
        <ele>909.5999755859375</ele>
        <time>2016-08-12T21:47:25.000Z</time>
        <extensions>
          <ns3:TrackPointExtension>
            <ns3:atemp>16.0</ns3:atemp>
            <ns3:hr>135</ns3:hr>
          </ns3:TrackPointExtension>
        </extensions>
      </trkpt>
      <trkpt lat="-22.038035094738006591796875" lon="166.4624711684882640838623046875">
        <ele>909.79998779296875</ele>
        <time>2016-08-12T21:47:26.000Z</time>
        <extensions>
          <ns3:TrackPointExtension>
            <ns3:atemp>16.0</ns3:atemp>
            <ns3:hr>136</ns3:hr>
          </ns3:TrackPointExtension>
        </extensions>
      </trkpt>
      <trkpt lat="-22.03805722296237945556640625" lon="166.462460942566394805908203125">
        <ele>909.79998779296875</ele>
        <time>2016-08-12T21:47:27.000Z</time>
        <extensions>
          <ns3:TrackPointExtension>
            <ns3:atemp>16.0</ns3:atemp>
            <ns3:hr>136</ns3:hr>
          </ns3:TrackPointExtension>
        </extensions>
      </trkpt>
      <trkpt lat="-22.0380820333957672119140625" lon="166.46245096810162067413330078125">
        <ele>909.79998779296875</ele>
        <time>2016-08-12T21:47:28.000Z</time>
        <extensions>
          <ns3:TrackPointExtension>
            <ns3:atemp>16.0</ns3:atemp>
            <ns3:hr>136</ns3:hr>
          </ns3:TrackPointExtension>
        </extensions>
      </trkpt>
      <trkpt lat="-22.0381053350865840911865234375" lon="166.46244057454168796539306640625">
        <ele>909.79998779296875</ele>
        <time>2016-08-12T21:47:29.000Z</time>
        <extensions>
          <ns3:TrackPointExtension>
            <ns3:atemp>16.0</ns3:atemp>
            <ns3:hr>135</ns3:hr>
          </ns3:TrackPointExtension>
        </extensions>
      </trkpt>
      <trkpt lat="-22.03812620602548122406005859375" lon="166.4624302648007869720458984375">
        <ele>909.5999755859375</ele>
        <time>2016-08-12T21:47:30.000Z</time>
        <extensions>
          <ns3:TrackPointExtension>
            <ns3:atemp>16.0</ns3:atemp>
            <ns3:hr>135</ns3:hr>
          </ns3:TrackPointExtension>
        </extensions>
      </trkpt>
      <trkpt lat="-22.03814313746988773345947265625" lon="166.46241308189928531646728515625">
        <ele>909.4000244140625</ele>
        <time>2016-08-12T21:47:31.000Z</time>
        <extensions>
          <ns3:TrackPointExtension>
            <ns3:atemp>16.0</ns3:atemp>
            <ns3:hr>135</ns3:hr>
          </ns3:TrackPointExtension>
        </extensions>
      </trkpt>
      <trkpt lat="-22.0381455682218074798583984375" lon="166.46239221096038818359375">
        <ele>909.4000244140625</ele>
        <time>2016-08-12T21:47:32.000Z</time>
        <extensions>
          <ns3:TrackPointExtension>
            <ns3:atemp>16.0</ns3:atemp>
            <ns3:hr>135</ns3:hr>
          </ns3:TrackPointExtension>
        </extensions>
      </trkpt>
      <trkpt lat="-22.03813961707055568695068359375" lon="166.46236471831798553466796875">
        <ele>909.20001220703125</ele>
        <time>2016-08-12T21:47:33.000Z</time>
        <extensions>
          <ns3:TrackPointExtension>
            <ns3:atemp>16.0</ns3:atemp>
            <ns3:hr>135</ns3:hr>
          </ns3:TrackPointExtension>
        </extensions>
      </trkpt>
      <trkpt lat="-22.03813609667122364044189453125" lon="166.4623399078845977783203125">
        <ele>908.5999755859375</ele>
        <time>2016-08-12T21:47:34.000Z</time>
        <extensions>
          <ns3:TrackPointExtension>
            <ns3:atemp>16.0</ns3:atemp>
            <ns3:hr>135</ns3:hr>
          </ns3:TrackPointExtension>
        </extensions>
      </trkpt>
      <trkpt lat="-22.03812587074935436248779296875" lon="166.46231216378509998321533203125">
        <ele>908.4000244140625</ele>
        <time>2016-08-12T21:47:35.000Z</time>
        <extensions>
          <ns3:TrackPointExtension>
            <ns3:atemp>16.0</ns3:atemp>
            <ns3:hr>135</ns3:hr>
          </ns3:TrackPointExtension>
        </extensions>
      </trkpt>
      <trkpt lat="-22.03811354935169219970703125" lon="166.46229137666523456573486328125">
        <ele>908.4000244140625</ele>
        <time>2016-08-12T21:47:36.000Z</time>
        <extensions>
          <ns3:TrackPointExtension>
            <ns3:atemp>16.0</ns3:atemp>
            <ns3:hr>136</ns3:hr>
          </ns3:TrackPointExtension>
        </extensions>
      </trkpt>
      <trkpt lat="-22.038101814687252044677734375" lon="166.4622674882411956787109375">
        <ele>908.4000244140625</ele>
        <time>2016-08-12T21:47:37.000Z</time>
        <extensions>
          <ns3:TrackPointExtension>
            <ns3:atemp>16.0</ns3:atemp>
            <ns3:hr>136</ns3:hr>
          </ns3:TrackPointExtension>
        </extensions>
      </trkpt>
      <trkpt lat="-22.0380919240415096282958984375" lon="166.462242342531681060791015625">
        <ele>908.4000244140625</ele>
        <time>2016-08-12T21:47:38.000Z</time>
        <extensions>
          <ns3:TrackPointExtension>
            <ns3:atemp>16.0</ns3:atemp>
            <ns3:hr>136</ns3:hr>
          </ns3:TrackPointExtension>
        </extensions>
      </trkpt>
      <trkpt lat="-22.03808379359543323516845703125" lon="166.46221795119345188140869140625">
        <ele>909</ele>
        <time>2016-08-12T21:47:39.000Z</time>
        <extensions>
          <ns3:TrackPointExtension>
            <ns3:atemp>16.0</ns3:atemp>
            <ns3:hr>136</ns3:hr>
          </ns3:TrackPointExtension>
        </extensions>
      </trkpt>
      <trkpt lat="-22.038077004253864288330078125" lon="166.46219716407358646392822265625">
        <ele>909.4000244140625</ele>
        <time>2016-08-12T21:47:40.000Z</time>
        <extensions>
          <ns3:TrackPointExtension>
            <ns3:atemp>16.0</ns3:atemp>
            <ns3:hr>136</ns3:hr>
          </ns3:TrackPointExtension>
        </extensions>
      </trkpt>
      <trkpt lat="-22.03806283883750438690185546875" lon="166.4621734432876110076904296875">
        <ele>909.4000244140625</ele>
        <time>2016-08-12T21:47:41.000Z</time>
        <extensions>
          <ns3:TrackPointExtension>
            <ns3:atemp>16.0</ns3:atemp>
            <ns3:hr>136</ns3:hr>
          </ns3:TrackPointExtension>
        </extensions>
      </trkpt>
      <trkpt lat="-22.038043476641178131103515625" lon="166.46214251406490802764892578125">
        <ele>909.5999755859375</ele>
        <time>2016-08-12T21:47:42.000Z</time>
        <extensions>
          <ns3:TrackPointExtension>
            <ns3:atemp>16.0</ns3:atemp>
            <ns3:hr>136</ns3:hr>
          </ns3:TrackPointExtension>
        </extensions>
      </trkpt>
      <trkpt lat="-22.03802981413900852203369140625" lon="166.46211259067058563232421875">
        <ele>910.4000244140625</ele>
        <time>2016-08-12T21:47:43.000Z</time>
        <extensions>
          <ns3:TrackPointExtension>
            <ns3:atemp>16.0</ns3:atemp>
            <ns3:hr>136</ns3:hr>
          </ns3:TrackPointExtension>
        </extensions>
      </trkpt>
      <trkpt lat="-22.038014642894268035888671875" lon="166.462090797722339630126953125">
        <ele>910.79998779296875</ele>
        <time>2016-08-12T21:47:44.000Z</time>
        <extensions>
          <ns3:TrackPointExtension>
            <ns3:atemp>16.0</ns3:atemp>
            <ns3:hr>136</ns3:hr>
          </ns3:TrackPointExtension>
        </extensions>
      </trkpt>
      <trkpt lat="-22.03800114803016185760498046875" lon="166.46207059733569622039794921875">
        <ele>909.5999755859375</ele>
        <time>2016-08-12T21:47:45.000Z</time>
        <extensions>
          <ns3:TrackPointExtension>
            <ns3:atemp>16.0</ns3:atemp>
            <ns3:hr>136</ns3:hr>
          </ns3:TrackPointExtension>
        </extensions>
      </trkpt>
      <trkpt lat="-22.03797952271997928619384765625" lon="166.4620502293109893798828125">
        <ele>909.20001220703125</ele>
        <time>2016-08-12T21:47:46.000Z</time>
        <extensions>
          <ns3:TrackPointExtension>
            <ns3:atemp>16.0</ns3:atemp>
            <ns3:hr>136</ns3:hr>
          </ns3:TrackPointExtension>
        </extensions>
      </trkpt>
      <trkpt lat="-22.03795798122882843017578125" lon="166.4620341360569000244140625">
        <ele>909.5999755859375</ele>
        <time>2016-08-12T21:47:47.000Z</time>
        <extensions>
          <ns3:TrackPointExtension>
            <ns3:atemp>16.0</ns3:atemp>
            <ns3:hr>136</ns3:hr>
          </ns3:TrackPointExtension>
        </extensions>
      </trkpt>
      <trkpt lat="-22.03793761320412158966064453125" lon="166.46201871335506439208984375">
        <ele>910</ele>
        <time>2016-08-12T21:47:48.000Z</time>
        <extensions>
          <ns3:TrackPointExtension>
            <ns3:atemp>16.0</ns3:atemp>
            <ns3:hr>136</ns3:hr>
          </ns3:TrackPointExtension>
        </extensions>
      </trkpt>
      <trkpt lat="-22.03791372478008270263671875" lon="166.462003625929355621337890625">
        <ele>909.79998779296875</ele>
        <time>2016-08-12T21:47:49.000Z</time>
        <extensions>
          <ns3:TrackPointExtension>
            <ns3:atemp>16.0</ns3:atemp>
            <ns3:hr>136</ns3:hr>
          </ns3:TrackPointExtension>
        </extensions>
      </trkpt>
      <trkpt lat="-22.037893943488597869873046875" lon="166.46198946051299571990966796875">
        <ele>909.5999755859375</ele>
        <time>2016-08-12T21:47:50.000Z</time>
        <extensions>
          <ns3:TrackPointExtension>
            <ns3:atemp>16.0</ns3:atemp>
            <ns3:hr>136</ns3:hr>
          </ns3:TrackPointExtension>
        </extensions>
      </trkpt>
      <trkpt lat="-22.03786921687424182891845703125" lon="166.46197378635406494140625">
        <ele>909.5999755859375</ele>
        <time>2016-08-12T21:47:51.000Z</time>
        <extensions>
          <ns3:TrackPointExtension>
            <ns3:atemp>16.0</ns3:atemp>
            <ns3:hr>136</ns3:hr>
          </ns3:TrackPointExtension>
        </extensions>
      </trkpt>
      <trkpt lat="-22.03784474171698093414306640625" lon="166.4619578607380390167236328125">
        <ele>910.4000244140625</ele>
        <time>2016-08-12T21:47:52.000Z</time>
        <extensions>
          <ns3:TrackPointExtension>
            <ns3:atemp>16.0</ns3:atemp>
            <ns3:hr>136</ns3:hr>
          </ns3:TrackPointExtension>
        </extensions>
      </trkpt>
      <trkpt lat="-22.037826888263225555419921875" lon="166.461935229599475860595703125">
        <ele>910.5999755859375</ele>
        <time>2016-08-12T21:47:53.000Z</time>
        <extensions>
          <ns3:TrackPointExtension>
            <ns3:atemp>16.0</ns3:atemp>
            <ns3:hr>137</ns3:hr>
          </ns3:TrackPointExtension>
        </extensions>
      </trkpt>
      <trkpt lat="-22.0378072746098041534423828125" lon="166.46191117353737354278564453125">
        <ele>909.79998779296875</ele>
        <time>2016-08-12T21:47:54.000Z</time>
        <extensions>
          <ns3:TrackPointExtension>
            <ns3:atemp>16.0</ns3:atemp>
            <ns3:hr>137</ns3:hr>
          </ns3:TrackPointExtension>
        </extensions>
      </trkpt>
      <trkpt lat="-22.0377888344228267669677734375" lon="166.46189130842685699462890625">
        <ele>909.5999755859375</ele>
        <time>2016-08-12T21:47:55.000Z</time>
        <extensions>
          <ns3:TrackPointExtension>
            <ns3:atemp>16.0</ns3:atemp>
            <ns3:hr>137</ns3:hr>
          </ns3:TrackPointExtension>
        </extensions>
      </trkpt>
      <trkpt lat="-22.03777114860713481903076171875" lon="166.461865492165088653564453125">
        <ele>910.4000244140625</ele>
        <time>2016-08-12T21:47:56.000Z</time>
        <extensions>
          <ns3:TrackPointExtension>
            <ns3:atemp>16.0</ns3:atemp>
            <ns3:hr>137</ns3:hr>
          </ns3:TrackPointExtension>
        </extensions>
      </trkpt>
      <trkpt lat="-22.03775606118142604827880859375" lon="166.4618364907801151275634765625">
        <ele>910.5999755859375</ele>
        <time>2016-08-12T21:47:57.000Z</time>
        <extensions>
          <ns3:TrackPointExtension>
            <ns3:atemp>16.0</ns3:atemp>
            <ns3:hr>138</ns3:hr>
          </ns3:TrackPointExtension>
        </extensions>
      </trkpt>
      <trkpt lat="-22.0377439074218273162841796875" lon="166.4618088304996490478515625">
        <ele>910.20001220703125</ele>
        <time>2016-08-12T21:47:58.000Z</time>
        <extensions>
          <ns3:TrackPointExtension>
            <ns3:atemp>16.0</ns3:atemp>
            <ns3:hr>138</ns3:hr>
          </ns3:TrackPointExtension>
        </extensions>
      </trkpt>
      <trkpt lat="-22.03773477114737033843994140625" lon="166.461780332028865814208984375">
        <ele>909.5999755859375</ele>
        <time>2016-08-12T21:47:59.000Z</time>
        <extensions>
          <ns3:TrackPointExtension>
            <ns3:atemp>16.0</ns3:atemp>
            <ns3:hr>138</ns3:hr>
          </ns3:TrackPointExtension>
        </extensions>
      </trkpt>
      <trkpt lat="-22.0377301611006259918212890625" lon="166.4617509953677654266357421875">
        <ele>910</ele>
        <time>2016-08-12T21:48:00.000Z</time>
        <extensions>
          <ns3:TrackPointExtension>
            <ns3:atemp>16.0</ns3:atemp>
            <ns3:hr>138</ns3:hr>
          </ns3:TrackPointExtension>
        </extensions>
      </trkpt>
      <trkpt lat="-22.0377304963767528533935546875" lon="166.4617178030312061309814453125">
        <ele>910.5999755859375</ele>
        <time>2016-08-12T21:48:01.000Z</time>
        <extensions>
          <ns3:TrackPointExtension>
            <ns3:atemp>16.0</ns3:atemp>
            <ns3:hr>138</ns3:hr>
          </ns3:TrackPointExtension>
        </extensions>
      </trkpt>
      <trkpt lat="-22.03772890381515026092529296875" lon="166.46168972365558147430419921875">
        <ele>910.79998779296875</ele>
        <time>2016-08-12T21:48:02.000Z</time>
        <extensions>
          <ns3:TrackPointExtension>
            <ns3:atemp>16.0</ns3:atemp>
            <ns3:hr>139</ns3:hr>
          </ns3:TrackPointExtension>
        </extensions>
      </trkpt>
      <trkpt lat="-22.0377274788916110992431640625" lon="166.46166390739381313323974609375">
        <ele>909.5999755859375</ele>
        <time>2016-08-12T21:48:03.000Z</time>
        <extensions>
          <ns3:TrackPointExtension>
            <ns3:atemp>16.0</ns3:atemp>
            <ns3:hr>139</ns3:hr>
          </ns3:TrackPointExtension>
        </extensions>
      </trkpt>
      <trkpt lat="-22.03772756271064281463623046875" lon="166.46163758821785449981689453125">
        <ele>909.20001220703125</ele>
        <time>2016-08-12T21:48:04.000Z</time>
        <extensions>
          <ns3:TrackPointExtension>
            <ns3:atemp>16.0</ns3:atemp>
            <ns3:hr>139</ns3:hr>
          </ns3:TrackPointExtension>
        </extensions>
      </trkpt>
      <trkpt lat="-22.0377348549664020538330078125" lon="166.4616125263273715972900390625">
        <ele>909.20001220703125</ele>
        <time>2016-08-12T21:48:05.000Z</time>
        <extensions>
          <ns3:TrackPointExtension>
            <ns3:atemp>16.0</ns3:atemp>
            <ns3:hr>139</ns3:hr>
          </ns3:TrackPointExtension>
        </extensions>
      </trkpt>
      <trkpt lat="-22.03774876892566680908203125" lon="166.4615870453417301177978515625">
        <ele>909.4000244140625</ele>
        <time>2016-08-12T21:48:06.000Z</time>
        <extensions>
          <ns3:TrackPointExtension>
            <ns3:atemp>16.0</ns3:atemp>
            <ns3:hr>139</ns3:hr>
          </ns3:TrackPointExtension>
        </extensions>
      </trkpt>
      <trkpt lat="-22.03776025213301181793212890625" lon="166.4615649171173572540283203125">
        <ele>909.20001220703125</ele>
        <time>2016-08-12T21:48:07.000Z</time>
        <extensions>
          <ns3:TrackPointExtension>
            <ns3:atemp>16.0</ns3:atemp>
            <ns3:hr>139</ns3:hr>
          </ns3:TrackPointExtension>
        </extensions>
      </trkpt>
      <trkpt lat="-22.0377710647881031036376953125" lon="166.46154463291168212890625">
        <ele>908.79998779296875</ele>
        <time>2016-08-12T21:48:08.000Z</time>
        <extensions>
          <ns3:TrackPointExtension>
            <ns3:atemp>16.0</ns3:atemp>
            <ns3:hr>139</ns3:hr>
          </ns3:TrackPointExtension>
        </extensions>
      </trkpt>
      <trkpt lat="-22.03778975643217563629150390625" lon="166.4615216664969921112060546875">
        <ele>908.79998779296875</ele>
        <time>2016-08-12T21:48:09.000Z</time>
        <extensions>
          <ns3:TrackPointExtension>
            <ns3:atemp>16.0</ns3:atemp>
            <ns3:hr>139</ns3:hr>
          </ns3:TrackPointExtension>
        </extensions>
      </trkpt>
      <trkpt lat="-22.03780719079077243804931640625" lon="166.46150046028196811676025390625">
        <ele>908.79998779296875</ele>
        <time>2016-08-12T21:48:10.000Z</time>
        <extensions>
          <ns3:TrackPointExtension>
            <ns3:atemp>16.0</ns3:atemp>
            <ns3:hr>139</ns3:hr>
          </ns3:TrackPointExtension>
        </extensions>
      </trkpt>
      <trkpt lat="-22.0378253795206546783447265625" lon="166.46148235537111759185791015625">
        <ele>908.5999755859375</ele>
        <time>2016-08-12T21:48:11.000Z</time>
        <extensions>
          <ns3:TrackPointExtension>
            <ns3:atemp>16.0</ns3:atemp>
            <ns3:hr>139</ns3:hr>
          </ns3:TrackPointExtension>
        </extensions>
      </trkpt>
      <trkpt lat="-22.037841975688934326171875" lon="166.461467184126377105712890625">
        <ele>908.4000244140625</ele>
        <time>2016-08-12T21:48:12.000Z</time>
        <extensions>
          <ns3:TrackPointExtension>
            <ns3:atemp>16.0</ns3:atemp>
            <ns3:hr>139</ns3:hr>
          </ns3:TrackPointExtension>
        </extensions>
      </trkpt>
      <trkpt lat="-22.037861086428165435791015625" lon="166.461450755596160888671875">
        <ele>908.79998779296875</ele>
        <time>2016-08-12T21:48:13.000Z</time>
        <extensions>
          <ns3:TrackPointExtension>
            <ns3:atemp>16.0</ns3:atemp>
            <ns3:hr>140</ns3:hr>
          </ns3:TrackPointExtension>
        </extensions>
      </trkpt>
      <trkpt lat="-22.03788497485220432281494140625" lon="166.46143734455108642578125">
        <ele>909.20001220703125</ele>
        <time>2016-08-12T21:48:14.000Z</time>
        <extensions>
          <ns3:TrackPointExtension>
            <ns3:atemp>16.0</ns3:atemp>
            <ns3:hr>140</ns3:hr>
          </ns3:TrackPointExtension>
        </extensions>
      </trkpt>
      <trkpt lat="-22.03790567815303802490234375" lon="166.46142737008631229400634765625">
        <ele>909.20001220703125</ele>
        <time>2016-08-12T21:48:15.000Z</time>
        <extensions>
          <ns3:TrackPointExtension>
            <ns3:atemp>16.0</ns3:atemp>
            <ns3:hr>139</ns3:hr>
          </ns3:TrackPointExtension>
        </extensions>
      </trkpt>
      <trkpt lat="-22.03792973421514034271240234375" lon="166.46141865290701389312744140625">
        <ele>909.20001220703125</ele>
        <time>2016-08-12T21:48:16.000Z</time>
        <extensions>
          <ns3:TrackPointExtension>
            <ns3:atemp>16.0</ns3:atemp>
            <ns3:hr>140</ns3:hr>
          </ns3:TrackPointExtension>
        </extensions>
      </trkpt>
      <trkpt lat="-22.03794993460178375244140625" lon="166.461408175528049468994140625">
        <ele>909.5999755859375</ele>
        <time>2016-08-12T21:48:17.000Z</time>
        <extensions>
          <ns3:TrackPointExtension>
            <ns3:atemp>16.0</ns3:atemp>
            <ns3:hr>140</ns3:hr>
          </ns3:TrackPointExtension>
        </extensions>
      </trkpt>
      <trkpt lat="-22.03797139227390289306640625" lon="166.46140373311936855316162109375">
        <ele>910</ele>
        <time>2016-08-12T21:48:18.000Z</time>
        <extensions>
          <ns3:TrackPointExtension>
            <ns3:atemp>16.0</ns3:atemp>
            <ns3:hr>140</ns3:hr>
          </ns3:TrackPointExtension>
        </extensions>
      </trkpt>
      <trkpt lat="-22.03799360431730747222900390625" lon="166.46140658296644687652587890625">
        <ele>909.5999755859375</ele>
        <time>2016-08-12T21:48:19.000Z</time>
        <extensions>
          <ns3:TrackPointExtension>
            <ns3:atemp>16.0</ns3:atemp>
            <ns3:hr>140</ns3:hr>
          </ns3:TrackPointExtension>
        </extensions>
      </trkpt>
      <trkpt lat="-22.0380144752562046051025390625" lon="166.461409516632556915283203125">
        <ele>909.20001220703125</ele>
        <time>2016-08-12T21:48:20.000Z</time>
        <extensions>
          <ns3:TrackPointExtension>
            <ns3:atemp>16.0</ns3:atemp>
            <ns3:hr>140</ns3:hr>
          </ns3:TrackPointExtension>
        </extensions>
      </trkpt>
      <trkpt lat="-22.03803752548992633819580078125" lon="166.46141345612704753875732421875">
        <ele>909.4000244140625</ele>
        <time>2016-08-12T21:48:21.000Z</time>
        <extensions>
          <ns3:TrackPointExtension>
            <ns3:atemp>16.0</ns3:atemp>
            <ns3:hr>140</ns3:hr>
          </ns3:TrackPointExtension>
        </extensions>
      </trkpt>
      <trkpt lat="-22.0380567200481891632080078125" lon="166.4614214189350605010986328125">
        <ele>910.20001220703125</ele>
        <time>2016-08-12T21:48:22.000Z</time>
        <extensions>
          <ns3:TrackPointExtension>
            <ns3:atemp>16.0</ns3:atemp>
            <ns3:hr>139</ns3:hr>
          </ns3:TrackPointExtension>
        </extensions>
      </trkpt>
      <trkpt lat="-22.03807373531162738800048828125" lon="166.46142653189599514007568359375">
        <ele>910</ele>
        <time>2016-08-12T21:48:23.000Z</time>
        <extensions>
          <ns3:TrackPointExtension>
            <ns3:atemp>16.0</ns3:atemp>
            <ns3:hr>139</ns3:hr>
          </ns3:TrackPointExtension>
        </extensions>
      </trkpt>
      <trkpt lat="-22.03809452243149280548095703125" lon="166.4614341594278812408447265625">
        <ele>909.20001220703125</ele>
        <time>2016-08-12T21:48:24.000Z</time>
        <extensions>
          <ns3:TrackPointExtension>
            <ns3:atemp>16.0</ns3:atemp>
            <ns3:hr>139</ns3:hr>
          </ns3:TrackPointExtension>
        </extensions>
      </trkpt>
      <trkpt lat="-22.03811832703649997711181640625" lon="166.461440362036228179931640625">
        <ele>909.20001220703125</ele>
        <time>2016-08-12T21:48:25.000Z</time>
        <extensions>
          <ns3:TrackPointExtension>
            <ns3:atemp>16.0</ns3:atemp>
            <ns3:hr>139</ns3:hr>
          </ns3:TrackPointExtension>
        </extensions>
      </trkpt>
      <trkpt lat="-22.03814079053699970245361328125" lon="166.4614425413310527801513671875">
        <ele>910.79998779296875</ele>
        <time>2016-08-12T21:48:26.000Z</time>
        <extensions>
          <ns3:TrackPointExtension>
            <ns3:atemp>16.0</ns3:atemp>
            <ns3:hr>139</ns3:hr>
          </ns3:TrackPointExtension>
        </extensions>
      </trkpt>
      <trkpt lat="-22.03815755434334278106689453125" lon="166.4614432118833065032958984375">
        <ele>910.79998779296875</ele>
        <time>2016-08-12T21:48:27.000Z</time>
        <extensions>
          <ns3:TrackPointExtension>
            <ns3:atemp>16.0</ns3:atemp>
            <ns3:hr>139</ns3:hr>
          </ns3:TrackPointExtension>
        </extensions>
      </trkpt>
      <trkpt lat="-22.03817683272063732147216796875" lon="166.461443044245243072509765625">
        <ele>909.5999755859375</ele>
        <time>2016-08-12T21:48:28.000Z</time>
        <extensions>
          <ns3:TrackPointExtension>
            <ns3:atemp>16.0</ns3:atemp>
            <ns3:hr>139</ns3:hr>
          </ns3:TrackPointExtension>
        </extensions>
      </trkpt>
      <trkpt lat="-22.038203068077564239501953125" lon="166.461446397006511688232421875">
        <ele>909.20001220703125</ele>
        <time>2016-08-12T21:48:29.000Z</time>
        <extensions>
          <ns3:TrackPointExtension>
            <ns3:atemp>16.0</ns3:atemp>
            <ns3:hr>139</ns3:hr>
          </ns3:TrackPointExtension>
        </extensions>
      </trkpt>
      <trkpt lat="-22.03822980634868144989013671875" lon="166.461451761424541473388671875">
        <ele>909.5999755859375</ele>
        <time>2016-08-12T21:48:30.000Z</time>
        <extensions>
          <ns3:TrackPointExtension>
            <ns3:atemp>16.0</ns3:atemp>
            <ns3:hr>139</ns3:hr>
          </ns3:TrackPointExtension>
        </extensions>
      </trkpt>
      <trkpt lat="-22.0382541976869106292724609375" lon="166.46145100705325603485107421875">
        <ele>909.20001220703125</ele>
        <time>2016-08-12T21:48:31.000Z</time>
        <extensions>
          <ns3:TrackPointExtension>
            <ns3:atemp>16.0</ns3:atemp>
            <ns3:hr>139</ns3:hr>
          </ns3:TrackPointExtension>
        </extensions>
      </trkpt>
      <trkpt lat="-22.0382790081202983856201171875" lon="166.4614468999207019805908203125">
        <ele>908.20001220703125</ele>
        <time>2016-08-12T21:48:32.000Z</time>
        <extensions>
          <ns3:TrackPointExtension>
            <ns3:atemp>16.0</ns3:atemp>
            <ns3:hr>139</ns3:hr>
          </ns3:TrackPointExtension>
        </extensions>
      </trkpt>
      <trkpt lat="-22.03830155543982982635498046875" lon="166.46144128404557704925537109375">
        <ele>907.5999755859375</ele>
        <time>2016-08-12T21:48:33.000Z</time>
        <extensions>
          <ns3:TrackPointExtension>
            <ns3:atemp>16.0</ns3:atemp>
            <ns3:hr>138</ns3:hr>
          </ns3:TrackPointExtension>
        </extensions>
      </trkpt>
      <trkpt lat="-22.038325108587741851806640625" lon="166.46143390797078609466552734375">
        <ele>908.20001220703125</ele>
        <time>2016-08-12T21:48:34.000Z</time>
        <extensions>
          <ns3:TrackPointExtension>
            <ns3:atemp>16.0</ns3:atemp>
            <ns3:hr>138</ns3:hr>
          </ns3:TrackPointExtension>
        </extensions>
      </trkpt>
      <trkpt lat="-22.03834799118340015411376953125" lon="166.461425609886646270751953125">
        <ele>908.79998779296875</ele>
        <time>2016-08-12T21:48:35.000Z</time>
        <extensions>
          <ns3:TrackPointExtension>
            <ns3:atemp>16.0</ns3:atemp>
            <ns3:hr>138</ns3:hr>
          </ns3:TrackPointExtension>
        </extensions>
      </trkpt>
      <trkpt lat="-22.0383690297603607177734375" lon="166.46141647361218929290771484375">
        <ele>908.79998779296875</ele>
        <time>2016-08-12T21:48:36.000Z</time>
        <extensions>
          <ns3:TrackPointExtension>
            <ns3:atemp>16.0</ns3:atemp>
            <ns3:hr>138</ns3:hr>
          </ns3:TrackPointExtension>
        </extensions>
      </trkpt>
      <trkpt lat="-22.03839140944182872772216796875" lon="166.46140842698514461517333984375">
        <ele>908.79998779296875</ele>
        <time>2016-08-12T21:48:37.000Z</time>
        <extensions>
          <ns3:TrackPointExtension>
            <ns3:atemp>16.0</ns3:atemp>
            <ns3:hr>138</ns3:hr>
          </ns3:TrackPointExtension>
        </extensions>
      </trkpt>
      <trkpt lat="-22.03841605223715305328369140625" lon="166.4614002965390682220458984375">
        <ele>909.5999755859375</ele>
        <time>2016-08-12T21:48:38.000Z</time>
        <extensions>
          <ns3:TrackPointExtension>
            <ns3:atemp>16.0</ns3:atemp>
            <ns3:hr>138</ns3:hr>
          </ns3:TrackPointExtension>
        </extensions>
      </trkpt>
      <trkpt lat="-22.0384414494037628173828125" lon="166.46138378418982028961181640625">
        <ele>910</ele>
        <time>2016-08-12T21:48:39.000Z</time>
        <extensions>
          <ns3:TrackPointExtension>
            <ns3:atemp>16.0</ns3:atemp>
            <ns3:hr>138</ns3:hr>
          </ns3:TrackPointExtension>
        </extensions>
      </trkpt>
      <trkpt lat="-22.03846215270459651947021484375" lon="166.46136785857379436492919921875">
        <ele>909</ele>
        <time>2016-08-12T21:48:40.000Z</time>
        <extensions>
          <ns3:TrackPointExtension>
            <ns3:atemp>16.0</ns3:atemp>
            <ns3:hr>138</ns3:hr>
          </ns3:TrackPointExtension>
        </extensions>
      </trkpt>
      <trkpt lat="-22.03848293982446193695068359375" lon="166.46135620772838592529296875">
        <ele>908.79998779296875</ele>
        <time>2016-08-12T21:48:41.000Z</time>
        <extensions>
          <ns3:TrackPointExtension>
            <ns3:atemp>16.0</ns3:atemp>
            <ns3:hr>137</ns3:hr>
          </ns3:TrackPointExtension>
        </extensions>
      </trkpt>
      <trkpt lat="-22.03850246965885162353515625" lon="166.4613436348736286163330078125">
        <ele>909.20001220703125</ele>
        <time>2016-08-12T21:48:42.000Z</time>
        <extensions>
          <ns3:TrackPointExtension>
            <ns3:atemp>16.0</ns3:atemp>
            <ns3:hr>137</ns3:hr>
          </ns3:TrackPointExtension>
        </extensions>
      </trkpt>
      <trkpt lat="-22.03852350823581218719482421875" lon="166.4613298885524272918701171875">
        <ele>909.20001220703125</ele>
        <time>2016-08-12T21:48:43.000Z</time>
        <extensions>
          <ns3:TrackPointExtension>
            <ns3:atemp>16.0</ns3:atemp>
            <ns3:hr>137</ns3:hr>
          </ns3:TrackPointExtension>
        </extensions>
      </trkpt>
      <trkpt lat="-22.03854739665985107421875" lon="166.461322344839572906494140625">
        <ele>908.5999755859375</ele>
        <time>2016-08-12T21:48:44.000Z</time>
        <extensions>
          <ns3:TrackPointExtension>
            <ns3:atemp>16.0</ns3:atemp>
            <ns3:hr>136</ns3:hr>
          </ns3:TrackPointExtension>
        </extensions>
      </trkpt>
      <trkpt lat="-22.038571871817111968994140625" lon="166.4613094367086887359619140625">
        <ele>908.5999755859375</ele>
        <time>2016-08-12T21:48:45.000Z</time>
        <extensions>
          <ns3:TrackPointExtension>
            <ns3:atemp>16.0</ns3:atemp>
            <ns3:hr>136</ns3:hr>
          </ns3:TrackPointExtension>
        </extensions>
      </trkpt>
      <trkpt lat="-22.0385938324034214019775390625" lon="166.4612993784248828887939453125">
        <ele>908.79998779296875</ele>
        <time>2016-08-12T21:48:46.000Z</time>
        <extensions>
          <ns3:TrackPointExtension>
            <ns3:atemp>16.0</ns3:atemp>
            <ns3:hr>137</ns3:hr>
          </ns3:TrackPointExtension>
        </extensions>
      </trkpt>
      <trkpt lat="-22.0386166311800479888916015625" lon="166.461289487779140472412109375">
        <ele>908.5999755859375</ele>
        <time>2016-08-12T21:48:47.000Z</time>
        <extensions>
          <ns3:TrackPointExtension>
            <ns3:atemp>16.0</ns3:atemp>
            <ns3:hr>136</ns3:hr>
          </ns3:TrackPointExtension>
        </extensions>
      </trkpt>
      <trkpt lat="-22.0386427827179431915283203125" lon="166.46127716638147830963134765625">
        <ele>908.20001220703125</ele>
        <time>2016-08-12T21:48:48.000Z</time>
        <extensions>
          <ns3:TrackPointExtension>
            <ns3:atemp>16.0</ns3:atemp>
            <ns3:hr>136</ns3:hr>
          </ns3:TrackPointExtension>
        </extensions>
      </trkpt>
      <trkpt lat="-22.03866080380976200103759765625" lon="166.4612554572522640228271484375">
        <ele>908.4000244140625</ele>
        <time>2016-08-12T21:48:49.000Z</time>
        <extensions>
          <ns3:TrackPointExtension>
            <ns3:atemp>16.0</ns3:atemp>
            <ns3:hr>136</ns3:hr>
          </ns3:TrackPointExtension>
        </extensions>
      </trkpt>
      <trkpt lat="-22.03867505304515361785888671875" lon="166.46122201345860958099365234375">
        <ele>908.4000244140625</ele>
        <time>2016-08-12T21:48:50.000Z</time>
        <extensions>
          <ns3:TrackPointExtension>
            <ns3:atemp>16.0</ns3:atemp>
            <ns3:hr>136</ns3:hr>
          </ns3:TrackPointExtension>
        </extensions>
      </trkpt>
      <trkpt lat="-22.03868351876735687255859375" lon="166.46118731237947940826416015625">
        <ele>908.4000244140625</ele>
        <time>2016-08-12T21:48:51.000Z</time>
        <extensions>
          <ns3:TrackPointExtension>
            <ns3:atemp>16.0</ns3:atemp>
            <ns3:hr>135</ns3:hr>
          </ns3:TrackPointExtension>
        </extensions>
      </trkpt>
      <trkpt lat="-22.03868662007153034210205078125" lon="166.46116082556545734405517578125">
        <ele>910.4000244140625</ele>
        <time>2016-08-12T21:48:52.000Z</time>
        <extensions>
          <ns3:TrackPointExtension>
            <ns3:atemp>16.0</ns3:atemp>
            <ns3:hr>136</ns3:hr>
          </ns3:TrackPointExtension>
        </extensions>
      </trkpt>
      <trkpt lat="-22.03868024982511997222900390625" lon="166.4611330814659595489501953125">
        <ele>911.20001220703125</ele>
        <time>2016-08-12T21:48:53.000Z</time>
        <extensions>
          <ns3:TrackPointExtension>
            <ns3:atemp>16.0</ns3:atemp>
            <ns3:hr>136</ns3:hr>
          </ns3:TrackPointExtension>
        </extensions>
      </trkpt>
      <trkpt lat="-22.03866499476134777069091796875" lon="166.46110944449901580810546875">
        <ele>910.5999755859375</ele>
        <time>2016-08-12T21:48:54.000Z</time>
        <extensions>
          <ns3:TrackPointExtension>
            <ns3:atemp>16.0</ns3:atemp>
            <ns3:hr>135</ns3:hr>
          </ns3:TrackPointExtension>
        </extensions>
      </trkpt>
      <trkpt lat="-22.038643620908260345458984375" lon="166.4610908366739749908447265625">
        <ele>910.5999755859375</ele>
        <time>2016-08-12T21:48:55.000Z</time>
        <extensions>
          <ns3:TrackPointExtension>
            <ns3:atemp>16.0</ns3:atemp>
            <ns3:hr>136</ns3:hr>
          </ns3:TrackPointExtension>
        </extensions>
      </trkpt>
      <trkpt lat="-22.0386132784187793731689453125" lon="166.46107113920152187347412109375">
        <ele>911.79998779296875</ele>
        <time>2016-08-12T21:48:56.000Z</time>
        <extensions>
          <ns3:TrackPointExtension>
            <ns3:atemp>16.0</ns3:atemp>
            <ns3:hr>136</ns3:hr>
          </ns3:TrackPointExtension>
        </extensions>
      </trkpt>
      <trkpt lat="-22.0385928265750408172607421875" lon="166.46105387248098850250244140625">
        <ele>911.79998779296875</ele>
        <time>2016-08-12T21:48:57.000Z</time>
        <extensions>
          <ns3:TrackPointExtension>
            <ns3:atemp>16.0</ns3:atemp>
            <ns3:hr>136</ns3:hr>
          </ns3:TrackPointExtension>
        </extensions>
      </trkpt>
      <trkpt lat="-22.03856860287487506866455078125" lon="166.4610328339040279388427734375">
        <ele>910.79998779296875</ele>
        <time>2016-08-12T21:48:58.000Z</time>
        <extensions>
          <ns3:TrackPointExtension>
            <ns3:atemp>16.0</ns3:atemp>
            <ns3:hr>136</ns3:hr>
          </ns3:TrackPointExtension>
        </extensions>
      </trkpt>
      <trkpt lat="-22.03854404389858245849609375" lon="166.4610127173364162445068359375">
        <ele>910.5999755859375</ele>
        <time>2016-08-12T21:48:59.000Z</time>
        <extensions>
          <ns3:TrackPointExtension>
            <ns3:atemp>16.0</ns3:atemp>
            <ns3:hr>136</ns3:hr>
          </ns3:TrackPointExtension>
        </extensions>
      </trkpt>
      <trkpt lat="-22.03852526843547821044921875" lon="166.46099670790135860443115234375">
        <ele>912</ele>
        <time>2016-08-12T21:49:00.000Z</time>
        <extensions>
          <ns3:TrackPointExtension>
            <ns3:atemp>16.0</ns3:atemp>
            <ns3:hr>136</ns3:hr>
          </ns3:TrackPointExtension>
        </extensions>
      </trkpt>
      <trkpt lat="-22.0385046489536762237548828125" lon="166.46097541786730289459228515625">
        <ele>912.79998779296875</ele>
        <time>2016-08-12T21:49:01.000Z</time>
        <extensions>
          <ns3:TrackPointExtension>
            <ns3:atemp>16.0</ns3:atemp>
            <ns3:hr>136</ns3:hr>
          </ns3:TrackPointExtension>
        </extensions>
      </trkpt>
      <trkpt lat="-22.03848771750926971435546875" lon="166.46095454692840576171875">
        <ele>912.20001220703125</ele>
        <time>2016-08-12T21:49:02.000Z</time>
        <extensions>
          <ns3:TrackPointExtension>
            <ns3:atemp>16.0</ns3:atemp>
            <ns3:hr>137</ns3:hr>
          </ns3:TrackPointExtension>
        </extensions>
      </trkpt>
      <trkpt lat="-22.03847288154065608978271484375" lon="166.46092982031404972076416015625">
        <ele>911.79998779296875</ele>
        <time>2016-08-12T21:49:03.000Z</time>
        <extensions>
          <ns3:TrackPointExtension>
            <ns3:atemp>16.0</ns3:atemp>
            <ns3:hr>137</ns3:hr>
          </ns3:TrackPointExtension>
        </extensions>
      </trkpt>
      <trkpt lat="-22.03845963813364505767822265625" lon="166.46090651862323284149169921875">
        <ele>912</ele>
        <time>2016-08-12T21:49:04.000Z</time>
        <extensions>
          <ns3:TrackPointExtension>
            <ns3:atemp>16.0</ns3:atemp>
            <ns3:hr>137</ns3:hr>
          </ns3:TrackPointExtension>
        </extensions>
      </trkpt>
      <trkpt lat="-22.03845175914466381072998046875" lon="166.4608834683895111083984375">
        <ele>913</ele>
        <time>2016-08-12T21:49:05.000Z</time>
        <extensions>
          <ns3:TrackPointExtension>
            <ns3:atemp>16.0</ns3:atemp>
            <ns3:hr>137</ns3:hr>
          </ns3:TrackPointExtension>
        </extensions>
      </trkpt>
      <trkpt lat="-22.0384453050792217254638671875" lon="166.46085857413709163665771484375">
        <ele>912.20001220703125</ele>
        <time>2016-08-12T21:49:06.000Z</time>
        <extensions>
          <ns3:TrackPointExtension>
            <ns3:atemp>16.0</ns3:atemp>
            <ns3:hr>137</ns3:hr>
          </ns3:TrackPointExtension>
        </extensions>
      </trkpt>
      <trkpt lat="-22.0384369231760501861572265625" lon="166.46083451807498931884765625">
        <ele>911.4000244140625</ele>
        <time>2016-08-12T21:49:07.000Z</time>
        <extensions>
          <ns3:TrackPointExtension>
            <ns3:atemp>16.0</ns3:atemp>
            <ns3:hr>137</ns3:hr>
          </ns3:TrackPointExtension>
        </extensions>
      </trkpt>
      <trkpt lat="-22.03842711634933948516845703125" lon="166.46080828271806240081787109375">
        <ele>911.5999755859375</ele>
        <time>2016-08-12T21:49:08.000Z</time>
        <extensions>
          <ns3:TrackPointExtension>
            <ns3:atemp>16.0</ns3:atemp>
            <ns3:hr>137</ns3:hr>
          </ns3:TrackPointExtension>
        </extensions>
      </trkpt>
      <trkpt lat="-22.0384173095226287841796875" lon="166.46077995188534259796142578125">
        <ele>912.20001220703125</ele>
        <time>2016-08-12T21:49:09.000Z</time>
        <extensions>
          <ns3:TrackPointExtension>
            <ns3:atemp>16.0</ns3:atemp>
            <ns3:hr>138</ns3:hr>
          </ns3:TrackPointExtension>
        </extensions>
      </trkpt>
      <trkpt lat="-22.03841739334166049957275390625" lon="166.460754387080669403076171875">
        <ele>911.79998779296875</ele>
        <time>2016-08-12T21:49:10.000Z</time>
        <extensions>
          <ns3:TrackPointExtension>
            <ns3:atemp>16.0</ns3:atemp>
            <ns3:hr>138</ns3:hr>
          </ns3:TrackPointExtension>
        </extensions>
      </trkpt>
      <trkpt lat="-22.03841823153197765350341796875" lon="166.46072722971439361572265625">
        <ele>911.20001220703125</ele>
        <time>2016-08-12T21:49:11.000Z</time>
        <extensions>
          <ns3:TrackPointExtension>
            <ns3:atemp>16.0</ns3:atemp>
            <ns3:hr>138</ns3:hr>
          </ns3:TrackPointExtension>
        </extensions>
      </trkpt>
      <trkpt lat="-22.0384168066084384918212890625" lon="166.46070065908133983612060546875">
        <ele>912.20001220703125</ele>
        <time>2016-08-12T21:49:12.000Z</time>
        <extensions>
          <ns3:TrackPointExtension>
            <ns3:atemp>16.0</ns3:atemp>
            <ns3:hr>138</ns3:hr>
          </ns3:TrackPointExtension>
        </extensions>
      </trkpt>
      <trkpt lat="-22.03841538168489933013916015625" lon="166.4606744237244129180908203125">
        <ele>912.79998779296875</ele>
        <time>2016-08-12T21:49:13.000Z</time>
        <extensions>
          <ns3:TrackPointExtension>
            <ns3:atemp>16.0</ns3:atemp>
            <ns3:hr>138</ns3:hr>
          </ns3:TrackPointExtension>
        </extensions>
      </trkpt>
      <trkpt lat="-22.0384171418845653533935546875" lon="166.4606474339962005615234375">
        <ele>912</ele>
        <time>2016-08-12T21:49:14.000Z</time>
        <extensions>
          <ns3:TrackPointExtension>
            <ns3:atemp>16.0</ns3:atemp>
            <ns3:hr>138</ns3:hr>
          </ns3:TrackPointExtension>
        </extensions>
      </trkpt>
      <trkpt lat="-22.0384184829890727996826171875" lon="166.46062237210571765899658203125">
        <ele>911</ele>
        <time>2016-08-12T21:49:15.000Z</time>
        <extensions>
          <ns3:TrackPointExtension>
            <ns3:atemp>16.0</ns3:atemp>
            <ns3:hr>139</ns3:hr>
          </ns3:TrackPointExtension>
        </extensions>
      </trkpt>
      <trkpt lat="-22.03841974027454853057861328125" lon="166.46059404127299785614013671875">
        <ele>911.5999755859375</ele>
        <time>2016-08-12T21:49:16.000Z</time>
        <extensions>
          <ns3:TrackPointExtension>
            <ns3:atemp>16.0</ns3:atemp>
            <ns3:hr>138</ns3:hr>
          </ns3:TrackPointExtension>
        </extensions>
      </trkpt>
      <trkpt lat="-22.03841789625585079193115234375" lon="166.460568644106388092041015625">
        <ele>912.5999755859375</ele>
        <time>2016-08-12T21:49:17.000Z</time>
        <extensions>
          <ns3:TrackPointExtension>
            <ns3:atemp>16.0</ns3:atemp>
            <ns3:hr>139</ns3:hr>
          </ns3:TrackPointExtension>
        </extensions>
      </trkpt>
      <trkpt lat="-22.03841202892363071441650390625" lon="166.46054358221590518951416015625">
        <ele>911.79998779296875</ele>
        <time>2016-08-12T21:49:18.000Z</time>
        <extensions>
          <ns3:TrackPointExtension>
            <ns3:atemp>16.0</ns3:atemp>
            <ns3:hr>138</ns3:hr>
          </ns3:TrackPointExtension>
        </extensions>
      </trkpt>
      <trkpt lat="-22.03840683214366436004638671875" lon="166.4605161733925342559814453125">
        <ele>909.79998779296875</ele>
        <time>2016-08-12T21:49:19.000Z</time>
        <extensions>
          <ns3:TrackPointExtension>
            <ns3:atemp>16.0</ns3:atemp>
            <ns3:hr>139</ns3:hr>
          </ns3:TrackPointExtension>
        </extensions>
      </trkpt>
      <trkpt lat="-22.03840163536369800567626953125" lon="166.46048909984529018402099609375">
        <ele>910.20001220703125</ele>
        <time>2016-08-12T21:49:20.000Z</time>
        <extensions>
          <ns3:TrackPointExtension>
            <ns3:atemp>16.0</ns3:atemp>
            <ns3:hr>138</ns3:hr>
          </ns3:TrackPointExtension>
        </extensions>
      </trkpt>
      <trkpt lat="-22.03839384019374847412109375" lon="166.46046261303126811981201171875">
        <ele>911.5999755859375</ele>
        <time>2016-08-12T21:49:21.000Z</time>
        <extensions>
          <ns3:TrackPointExtension>
            <ns3:atemp>16.0</ns3:atemp>
            <ns3:hr>138</ns3:hr>
          </ns3:TrackPointExtension>
        </extensions>
      </trkpt>
      <trkpt lat="-22.038386799395084381103515625" lon="166.46043729968369007110595703125">
        <ele>912</ele>
        <time>2016-08-12T21:49:22.000Z</time>
        <extensions>
          <ns3:TrackPointExtension>
            <ns3:atemp>16.0</ns3:atemp>
            <ns3:hr>138</ns3:hr>
          </ns3:TrackPointExtension>
        </extensions>
      </trkpt>
      <trkpt lat="-22.03837908804416656494140625" lon="166.4604127407073974609375">
        <ele>911.5999755859375</ele>
        <time>2016-08-12T21:49:23.000Z</time>
        <extensions>
          <ns3:TrackPointExtension>
            <ns3:atemp>16.0</ns3:atemp>
            <ns3:hr>138</ns3:hr>
          </ns3:TrackPointExtension>
        </extensions>
      </trkpt>
      <trkpt lat="-22.038374729454517364501953125" lon="166.46038524806499481201171875">
        <ele>911</ele>
        <time>2016-08-12T21:49:24.000Z</time>
        <extensions>
          <ns3:TrackPointExtension>
            <ns3:atemp>16.0</ns3:atemp>
            <ns3:hr>138</ns3:hr>
          </ns3:TrackPointExtension>
        </extensions>
      </trkpt>
      <trkpt lat="-22.03837179578840732574462890625" lon="166.46035901270806789398193359375">
        <ele>913.20001220703125</ele>
        <time>2016-08-12T21:49:25.000Z</time>
        <extensions>
          <ns3:TrackPointExtension>
            <ns3:atemp>16.0</ns3:atemp>
            <ns3:hr>139</ns3:hr>
          </ns3:TrackPointExtension>
        </extensions>
      </trkpt>
      <trkpt lat="-22.038365341722965240478515625" lon="166.460333950817584991455078125">
        <ele>914.79998779296875</ele>
        <time>2016-08-12T21:49:26.000Z</time>
        <extensions>
          <ns3:TrackPointExtension>
            <ns3:atemp>16.0</ns3:atemp>
            <ns3:hr>138</ns3:hr>
          </ns3:TrackPointExtension>
        </extensions>
      </trkpt>
      <trkpt lat="-22.03834748826920986175537109375" lon="166.46031257696449756622314453125">
        <ele>915.79998779296875</ele>
        <time>2016-08-12T21:49:27.000Z</time>
        <extensions>
          <ns3:TrackPointExtension>
            <ns3:atemp>16.0</ns3:atemp>
            <ns3:hr>139</ns3:hr>
          </ns3:TrackPointExtension>
        </extensions>
      </trkpt>
      <trkpt lat="-22.03832812607288360595703125" lon="166.46029078401625156402587890625">
        <ele>915.4000244140625</ele>
        <time>2016-08-12T21:49:28.000Z</time>
        <extensions>
          <ns3:TrackPointExtension>
            <ns3:atemp>16.0</ns3:atemp>
            <ns3:hr>138</ns3:hr>
          </ns3:TrackPointExtension>
        </extensions>
      </trkpt>
      <trkpt lat="-22.03830557875335216522216796875" lon="166.46027619950473308563232421875">
        <ele>915.20001220703125</ele>
        <time>2016-08-12T21:49:29.000Z</time>
        <extensions>
          <ns3:TrackPointExtension>
            <ns3:atemp>16.0</ns3:atemp>
            <ns3:hr>139</ns3:hr>
          </ns3:TrackPointExtension>
        </extensions>
      </trkpt>
      <trkpt lat="-22.03828764148056507110595703125" lon="166.46026077680289745330810546875">
        <ele>915.20001220703125</ele>
        <time>2016-08-12T21:49:30.000Z</time>
        <extensions>
          <ns3:TrackPointExtension>
            <ns3:atemp>16.0</ns3:atemp>
            <ns3:hr>139</ns3:hr>
          </ns3:TrackPointExtension>
        </extensions>
      </trkpt>
      <trkpt lat="-22.038275487720966339111328125" lon="166.460238397121429443359375">
        <ele>915</ele>
        <time>2016-08-12T21:49:31.000Z</time>
        <extensions>
          <ns3:TrackPointExtension>
            <ns3:atemp>16.0</ns3:atemp>
            <ns3:hr>139</ns3:hr>
          </ns3:TrackPointExtension>
        </extensions>
      </trkpt>
      <trkpt lat="-22.03826685436069965362548828125" lon="166.46021333523094654083251953125">
        <ele>914.4000244140625</ele>
        <time>2016-08-12T21:49:32.000Z</time>
        <extensions>
          <ns3:TrackPointExtension>
            <ns3:atemp>16.0</ns3:atemp>
            <ns3:hr>139</ns3:hr>
          </ns3:TrackPointExtension>
        </extensions>
      </trkpt>
      <trkpt lat="-22.0382582210004329681396484375" lon="166.46018718369305133819580078125">
        <ele>914.20001220703125</ele>
        <time>2016-08-12T21:49:33.000Z</time>
        <extensions>
          <ns3:TrackPointExtension>
            <ns3:atemp>16.0</ns3:atemp>
            <ns3:hr>139</ns3:hr>
          </ns3:TrackPointExtension>
        </extensions>
      </trkpt>
      <trkpt lat="-22.03824824653565883636474609375" lon="166.460160948336124420166015625">
        <ele>914.4000244140625</ele>
        <time>2016-08-12T21:49:34.000Z</time>
        <extensions>
          <ns3:TrackPointExtension>
            <ns3:atemp>16.0</ns3:atemp>
            <ns3:hr>140</ns3:hr>
          </ns3:TrackPointExtension>
        </extensions>
      </trkpt>
      <trkpt lat="-22.038242630660533905029296875" lon="166.46013571880757808685302734375">
        <ele>915</ele>
        <time>2016-08-12T21:49:35.000Z</time>
        <extensions>
          <ns3:TrackPointExtension>
            <ns3:atemp>16.0</ns3:atemp>
            <ns3:hr>140</ns3:hr>
          </ns3:TrackPointExtension>
        </extensions>
      </trkpt>
      <trkpt lat="-22.03824623487889766693115234375" lon="166.46010789088904857635498046875">
        <ele>914.79998779296875</ele>
        <time>2016-08-12T21:49:36.000Z</time>
        <extensions>
          <ns3:TrackPointExtension>
            <ns3:atemp>16.0</ns3:atemp>
            <ns3:hr>140</ns3:hr>
          </ns3:TrackPointExtension>
        </extensions>
      </trkpt>
      <trkpt lat="-22.03824690543115139007568359375" lon="166.460082828998565673828125">
        <ele>914.5999755859375</ele>
        <time>2016-08-12T21:49:37.000Z</time>
        <extensions>
          <ns3:TrackPointExtension>
            <ns3:atemp>16.0</ns3:atemp>
            <ns3:hr>139</ns3:hr>
          </ns3:TrackPointExtension>
        </extensions>
      </trkpt>
      <trkpt lat="-22.03824707306921482086181640625" lon="166.46006095223128795623779296875">
        <ele>914.79998779296875</ele>
        <time>2016-08-12T21:49:38.000Z</time>
        <extensions>
          <ns3:TrackPointExtension>
            <ns3:atemp>17.0</ns3:atemp>
            <ns3:hr>140</ns3:hr>
          </ns3:TrackPointExtension>
        </extensions>
      </trkpt>
      <trkpt lat="-22.0382592268288135528564453125" lon="166.460036225616931915283203125">
        <ele>914.4000244140625</ele>
        <time>2016-08-12T21:49:39.000Z</time>
        <extensions>
          <ns3:TrackPointExtension>
            <ns3:atemp>17.0</ns3:atemp>
            <ns3:hr>140</ns3:hr>
          </ns3:TrackPointExtension>
        </extensions>
      </trkpt>
      <trkpt lat="-22.03826568089425563812255859375" lon="166.46001334302127361297607421875">
        <ele>914</ele>
        <time>2016-08-12T21:49:40.000Z</time>
        <extensions>
          <ns3:TrackPointExtension>
            <ns3:atemp>17.0</ns3:atemp>
            <ns3:hr>139</ns3:hr>
          </ns3:TrackPointExtension>
        </extensions>
      </trkpt>
      <trkpt lat="-22.03827171586453914642333984375" lon="166.4599881134927272796630859375">
        <ele>914.20001220703125</ele>
        <time>2016-08-12T21:49:41.000Z</time>
        <extensions>
          <ns3:TrackPointExtension>
            <ns3:atemp>17.0</ns3:atemp>
            <ns3:hr>140</ns3:hr>
          </ns3:TrackPointExtension>
        </extensions>
      </trkpt>
      <trkpt lat="-22.038272805511951446533203125" lon="166.4599621295928955078125">
        <ele>914.20001220703125</ele>
        <time>2016-08-12T21:49:42.000Z</time>
        <extensions>
          <ns3:TrackPointExtension>
            <ns3:atemp>17.0</ns3:atemp>
            <ns3:hr>139</ns3:hr>
          </ns3:TrackPointExtension>
        </extensions>
      </trkpt>
      <trkpt lat="-22.03826651908457279205322265625" lon="166.4599411748349666595458984375">
        <ele>913.4000244140625</ele>
        <time>2016-08-12T21:49:43.000Z</time>
        <extensions>
          <ns3:TrackPointExtension>
            <ns3:atemp>17.0</ns3:atemp>
            <ns3:hr>139</ns3:hr>
          </ns3:TrackPointExtension>
        </extensions>
      </trkpt>
      <trkpt lat="-22.0382649265229701995849609375" lon="166.45991644822061061859130859375">
        <ele>914.20001220703125</ele>
        <time>2016-08-12T21:49:44.000Z</time>
        <extensions>
          <ns3:TrackPointExtension>
            <ns3:atemp>17.0</ns3:atemp>
            <ns3:hr>139</ns3:hr>
          </ns3:TrackPointExtension>
        </extensions>
      </trkpt>
      <trkpt lat="-22.03826735727488994598388671875" lon="166.459892056882381439208984375">
        <ele>914.5999755859375</ele>
        <time>2016-08-12T21:49:45.000Z</time>
        <extensions>
          <ns3:TrackPointExtension>
            <ns3:atemp>17.0</ns3:atemp>
            <ns3:hr>139</ns3:hr>
          </ns3:TrackPointExtension>
        </extensions>
      </trkpt>
      <trkpt lat="-22.0382655970752239227294921875" lon="166.45986967720091342926025390625">
        <ele>914.5999755859375</ele>
        <time>2016-08-12T21:49:46.000Z</time>
        <extensions>
          <ns3:TrackPointExtension>
            <ns3:atemp>17.0</ns3:atemp>
            <ns3:hr>139</ns3:hr>
          </ns3:TrackPointExtension>
        </extensions>
      </trkpt>
      <trkpt lat="-22.03825294040143489837646484375" lon="166.45984620787203311920166015625">
        <ele>913.79998779296875</ele>
        <time>2016-08-12T21:49:47.000Z</time>
        <extensions>
          <ns3:TrackPointExtension>
            <ns3:atemp>17.0</ns3:atemp>
            <ns3:hr>139</ns3:hr>
          </ns3:TrackPointExtension>
        </extensions>
      </trkpt>
      <trkpt lat="-22.0382481627166271209716796875" lon="166.4598208107054233551025390625">
        <ele>913.4000244140625</ele>
        <time>2016-08-12T21:49:48.000Z</time>
        <extensions>
          <ns3:TrackPointExtension>
            <ns3:atemp>17.0</ns3:atemp>
            <ns3:hr>139</ns3:hr>
          </ns3:TrackPointExtension>
        </extensions>
      </trkpt>
      <trkpt lat="-22.0382404513657093048095703125" lon="166.45979843102395534515380859375">
        <ele>912.5999755859375</ele>
        <time>2016-08-12T21:49:49.000Z</time>
        <extensions>
          <ns3:TrackPointExtension>
            <ns3:atemp>17.0</ns3:atemp>
            <ns3:hr>139</ns3:hr>
          </ns3:TrackPointExtension>
        </extensions>
      </trkpt>
      <trkpt lat="-22.038237936794757843017578125" lon="166.45977227948606014251708984375">
        <ele>912</ele>
        <time>2016-08-12T21:49:50.000Z</time>
        <extensions>
          <ns3:TrackPointExtension>
            <ns3:atemp>17.0</ns3:atemp>
            <ns3:hr>139</ns3:hr>
          </ns3:TrackPointExtension>
        </extensions>
      </trkpt>
      <trkpt lat="-22.038237266242504119873046875" lon="166.45974864251911640167236328125">
        <ele>912.79998779296875</ele>
        <time>2016-08-12T21:49:51.000Z</time>
        <extensions>
          <ns3:TrackPointExtension>
            <ns3:atemp>17.0</ns3:atemp>
            <ns3:hr>140</ns3:hr>
          </ns3:TrackPointExtension>
        </extensions>
      </trkpt>
      <trkpt lat="-22.03823634423315525054931640625" lon="166.45972550846636295318603515625">
        <ele>913.5999755859375</ele>
        <time>2016-08-12T21:49:52.000Z</time>
        <extensions>
          <ns3:TrackPointExtension>
            <ns3:atemp>17.0</ns3:atemp>
            <ns3:hr>139</ns3:hr>
          </ns3:TrackPointExtension>
        </extensions>
      </trkpt>
      <trkpt lat="-22.0382297225296497344970703125" lon="166.45970153622329235076904296875">
        <ele>913.4000244140625</ele>
        <time>2016-08-12T21:49:53.000Z</time>
        <extensions>
          <ns3:TrackPointExtension>
            <ns3:atemp>17.0</ns3:atemp>
            <ns3:hr>140</ns3:hr>
          </ns3:TrackPointExtension>
        </extensions>
      </trkpt>
      <trkpt lat="-22.03822595067322254180908203125" lon="166.45967588759958744049072265625">
        <ele>911.79998779296875</ele>
        <time>2016-08-12T21:49:54.000Z</time>
        <extensions>
          <ns3:TrackPointExtension>
            <ns3:atemp>17.0</ns3:atemp>
            <ns3:hr>139</ns3:hr>
          </ns3:TrackPointExtension>
        </extensions>
      </trkpt>
      <trkpt lat="-22.03822980634868144989013671875" lon="166.45964856259524822235107421875">
        <ele>911.5999755859375</ele>
        <time>2016-08-12T21:49:55.000Z</time>
        <extensions>
          <ns3:TrackPointExtension>
            <ns3:atemp>17.0</ns3:atemp>
            <ns3:hr>140</ns3:hr>
          </ns3:TrackPointExtension>
        </extensions>
      </trkpt>
      <trkpt lat="-22.0382340811192989349365234375" lon="166.4596209861338138580322265625">
        <ele>912.4000244140625</ele>
        <time>2016-08-12T21:49:56.000Z</time>
        <extensions>
          <ns3:TrackPointExtension>
            <ns3:atemp>17.0</ns3:atemp>
            <ns3:hr>139</ns3:hr>
          </ns3:TrackPointExtension>
        </extensions>
      </trkpt>
      <trkpt lat="-22.03823852352797985076904296875" lon="166.459594666957855224609375">
        <ele>912.5999755859375</ele>
        <time>2016-08-12T21:49:57.000Z</time>
        <extensions>
          <ns3:TrackPointExtension>
            <ns3:atemp>17.0</ns3:atemp>
            <ns3:hr>140</ns3:hr>
          </ns3:TrackPointExtension>
        </extensions>
      </trkpt>
      <trkpt lat="-22.03824942000210285186767578125" lon="166.45956725813448429107666015625">
        <ele>912.20001220703125</ele>
        <time>2016-08-12T21:49:58.000Z</time>
        <extensions>
          <ns3:TrackPointExtension>
            <ns3:atemp>17.0</ns3:atemp>
            <ns3:hr>139</ns3:hr>
          </ns3:TrackPointExtension>
        </extensions>
      </trkpt>
      <trkpt lat="-22.03825704753398895263671875" lon="166.45954328589141368865966796875">
        <ele>912</ele>
        <time>2016-08-12T21:49:59.000Z</time>
        <extensions>
          <ns3:TrackPointExtension>
            <ns3:atemp>17.0</ns3:atemp>
            <ns3:hr>139</ns3:hr>
          </ns3:TrackPointExtension>
        </extensions>
      </trkpt>
      <trkpt lat="-22.0382652617990970611572265625" lon="166.459520570933818817138671875">
        <ele>912.5999755859375</ele>
        <time>2016-08-12T21:50:00.000Z</time>
        <extensions>
          <ns3:TrackPointExtension>
            <ns3:atemp>17.0</ns3:atemp>
            <ns3:hr>139</ns3:hr>
          </ns3:TrackPointExtension>
        </extensions>
      </trkpt>
      <trkpt lat="-22.03827775083482265472412109375" lon="166.45949768833816051483154296875">
        <ele>912.79998779296875</ele>
        <time>2016-08-12T21:50:01.000Z</time>
        <extensions>
          <ns3:TrackPointExtension>
            <ns3:atemp>17.0</ns3:atemp>
            <ns3:hr>139</ns3:hr>
          </ns3:TrackPointExtension>
        </extensions>
      </trkpt>
      <trkpt lat="-22.0382890664041042327880859375" lon="166.459474973380565643310546875">
        <ele>911.5999755859375</ele>
        <time>2016-08-12T21:50:02.000Z</time>
        <extensions>
          <ns3:TrackPointExtension>
            <ns3:atemp>17.0</ns3:atemp>
            <ns3:hr>139</ns3:hr>
          </ns3:TrackPointExtension>
        </extensions>
      </trkpt>
      <trkpt lat="-22.038300968706607818603515625" lon="166.45945183932781219482421875">
        <ele>911</ele>
        <time>2016-08-12T21:50:03.000Z</time>
        <extensions>
          <ns3:TrackPointExtension>
            <ns3:atemp>17.0</ns3:atemp>
            <ns3:hr>139</ns3:hr>
          </ns3:TrackPointExtension>
        </extensions>
      </trkpt>
      <trkpt lat="-22.03831681050360202789306640625" lon="166.45942895673215389251708984375">
        <ele>911.4000244140625</ele>
        <time>2016-08-12T21:50:04.000Z</time>
        <extensions>
          <ns3:TrackPointExtension>
            <ns3:atemp>17.0</ns3:atemp>
            <ns3:hr>139</ns3:hr>
          </ns3:TrackPointExtension>
        </extensions>
      </trkpt>
      <trkpt lat="-22.03833005391061305999755859375" lon="166.45940448157489299774169921875">
        <ele>912</ele>
        <time>2016-08-12T21:50:05.000Z</time>
        <extensions>
          <ns3:TrackPointExtension>
            <ns3:atemp>17.0</ns3:atemp>
            <ns3:hr>139</ns3:hr>
          </ns3:TrackPointExtension>
        </extensions>
      </trkpt>
      <trkpt lat="-22.038342542946338653564453125" lon="166.45937916822731494903564453125">
        <ele>911.4000244140625</ele>
        <time>2016-08-12T21:50:06.000Z</time>
        <extensions>
          <ns3:TrackPointExtension>
            <ns3:atemp>17.0</ns3:atemp>
            <ns3:hr>139</ns3:hr>
          </ns3:TrackPointExtension>
        </extensions>
      </trkpt>
      <trkpt lat="-22.0383517630398273468017578125" lon="166.45935469307005405426025390625">
        <ele>910.5999755859375</ele>
        <time>2016-08-12T21:50:07.000Z</time>
        <extensions>
          <ns3:TrackPointExtension>
            <ns3:atemp>17.0</ns3:atemp>
            <ns3:hr>139</ns3:hr>
          </ns3:TrackPointExtension>
        </extensions>
      </trkpt>
      <trkpt lat="-22.03835754655301570892333984375" lon="166.45932887680828571319580078125">
        <ele>911.20001220703125</ele>
        <time>2016-08-12T21:50:08.000Z</time>
        <extensions>
          <ns3:TrackPointExtension>
            <ns3:atemp>17.0</ns3:atemp>
            <ns3:hr>139</ns3:hr>
          </ns3:TrackPointExtension>
        </extensions>
      </trkpt>
      <trkpt lat="-22.0383641682565212249755859375" lon="166.45930440165102481842041015625">
        <ele>911.5999755859375</ele>
        <time>2016-08-12T21:50:09.000Z</time>
        <extensions>
          <ns3:TrackPointExtension>
            <ns3:atemp>17.0</ns3:atemp>
            <ns3:hr>139</ns3:hr>
          </ns3:TrackPointExtension>
        </extensions>
      </trkpt>
      <trkpt lat="-22.03837263397872447967529296875" lon="166.45928026176989078521728515625">
        <ele>911</ele>
        <time>2016-08-12T21:50:10.000Z</time>
        <extensions>
          <ns3:TrackPointExtension>
            <ns3:atemp>17.0</ns3:atemp>
            <ns3:hr>139</ns3:hr>
          </ns3:TrackPointExtension>
        </extensions>
      </trkpt>
      <trkpt lat="-22.03837833367288112640380859375" lon="166.45925947465002536773681640625">
        <ele>910.4000244140625</ele>
        <time>2016-08-12T21:50:11.000Z</time>
        <extensions>
          <ns3:TrackPointExtension>
            <ns3:atemp>17.0</ns3:atemp>
            <ns3:hr>139</ns3:hr>
          </ns3:TrackPointExtension>
        </extensions>
      </trkpt>
      <trkpt lat="-22.0383842848241329193115234375" lon="166.4592387713491916656494140625">
        <ele>910.5999755859375</ele>
        <time>2016-08-12T21:50:12.000Z</time>
        <extensions>
          <ns3:TrackPointExtension>
            <ns3:atemp>17.0</ns3:atemp>
            <ns3:hr>139</ns3:hr>
          </ns3:TrackPointExtension>
        </extensions>
      </trkpt>
      <trkpt lat="-22.038392834365367889404296875" lon="166.45921438001096248626708984375">
        <ele>911</ele>
        <time>2016-08-12T21:50:13.000Z</time>
        <extensions>
          <ns3:TrackPointExtension>
            <ns3:atemp>17.0</ns3:atemp>
            <ns3:hr>138</ns3:hr>
          </ns3:TrackPointExtension>
        </extensions>
      </trkpt>
      <trkpt lat="-22.03840331174433231353759765625" lon="166.45919141359627246856689453125">
        <ele>910</ele>
        <time>2016-08-12T21:50:14.000Z</time>
        <extensions>
          <ns3:TrackPointExtension>
            <ns3:atemp>17.0</ns3:atemp>
            <ns3:hr>138</ns3:hr>
          </ns3:TrackPointExtension>
        </extensions>
      </trkpt>
      <trkpt lat="-22.03841454349458217620849609375" lon="166.45916794426739215850830078125">
        <ele>909.79998779296875</ele>
        <time>2016-08-12T21:50:15.000Z</time>
        <extensions>
          <ns3:TrackPointExtension>
            <ns3:atemp>17.0</ns3:atemp>
            <ns3:hr>138</ns3:hr>
          </ns3:TrackPointExtension>
        </extensions>
      </trkpt>
      <trkpt lat="-22.0384241826832294464111328125" lon="166.45914548076689243316650390625">
        <ele>910.4000244140625</ele>
        <time>2016-08-12T21:50:16.000Z</time>
        <extensions>
          <ns3:TrackPointExtension>
            <ns3:atemp>17.0</ns3:atemp>
            <ns3:hr>138</ns3:hr>
          </ns3:TrackPointExtension>
        </extensions>
      </trkpt>
      <trkpt lat="-22.03843667171895503997802734375" lon="166.45912284962832927703857421875">
        <ele>910.20001220703125</ele>
        <time>2016-08-12T21:50:17.000Z</time>
        <extensions>
          <ns3:TrackPointExtension>
            <ns3:atemp>17.0</ns3:atemp>
            <ns3:hr>138</ns3:hr>
          </ns3:TrackPointExtension>
        </extensions>
      </trkpt>
      <trkpt lat="-22.03844748437404632568359375" lon="166.4590966142714023590087890625">
        <ele>909.5999755859375</ele>
        <time>2016-08-12T21:50:18.000Z</time>
        <extensions>
          <ns3:TrackPointExtension>
            <ns3:atemp>17.0</ns3:atemp>
            <ns3:hr>138</ns3:hr>
          </ns3:TrackPointExtension>
        </extensions>
      </trkpt>
      <trkpt lat="-22.03845662064850330352783203125" lon="166.459070630371570587158203125">
        <ele>910.4000244140625</ele>
        <time>2016-08-12T21:50:19.000Z</time>
        <extensions>
          <ns3:TrackPointExtension>
            <ns3:atemp>17.0</ns3:atemp>
            <ns3:hr>138</ns3:hr>
          </ns3:TrackPointExtension>
        </extensions>
      </trkpt>
      <trkpt lat="-22.03846483491361141204833984375" lon="166.4590453170239925384521484375">
        <ele>910.79998779296875</ele>
        <time>2016-08-12T21:50:20.000Z</time>
        <extensions>
          <ns3:TrackPointExtension>
            <ns3:atemp>17.0</ns3:atemp>
            <ns3:hr>138</ns3:hr>
          </ns3:TrackPointExtension>
        </extensions>
      </trkpt>
      <trkpt lat="-22.03847086988389492034912109375" lon="166.45901463925838470458984375">
        <ele>910.5999755859375</ele>
        <time>2016-08-12T21:50:21.000Z</time>
        <extensions>
          <ns3:TrackPointExtension>
            <ns3:atemp>17.0</ns3:atemp>
            <ns3:hr>137</ns3:hr>
          </ns3:TrackPointExtension>
        </extensions>
      </trkpt>
      <trkpt lat="-22.03847103752195835113525390625" lon="166.45898387767374515533447265625">
        <ele>910.4000244140625</ele>
        <time>2016-08-12T21:50:22.000Z</time>
        <extensions>
          <ns3:TrackPointExtension>
            <ns3:atemp>17.0</ns3:atemp>
            <ns3:hr>137</ns3:hr>
          </ns3:TrackPointExtension>
        </extensions>
      </trkpt>
      <trkpt lat="-22.038466930389404296875" lon="166.458953954279422760009765625">
        <ele>910.5999755859375</ele>
        <time>2016-08-12T21:50:23.000Z</time>
        <extensions>
          <ns3:TrackPointExtension>
            <ns3:atemp>17.0</ns3:atemp>
            <ns3:hr>137</ns3:hr>
          </ns3:TrackPointExtension>
        </extensions>
      </trkpt>
      <trkpt lat="-22.03845955431461334228515625" lon="166.4589249528944492340087890625">
        <ele>909.5999755859375</ele>
        <time>2016-08-12T21:50:24.000Z</time>
        <extensions>
          <ns3:TrackPointExtension>
            <ns3:atemp>17.0</ns3:atemp>
            <ns3:hr>137</ns3:hr>
          </ns3:TrackPointExtension>
        </extensions>
      </trkpt>
      <trkpt lat="-22.03845083713531494140625" lon="166.458899639546871185302734375">
        <ele>909.20001220703125</ele>
        <time>2016-08-12T21:50:25.000Z</time>
        <extensions>
          <ns3:TrackPointExtension>
            <ns3:atemp>17.0</ns3:atemp>
            <ns3:hr>137</ns3:hr>
          </ns3:TrackPointExtension>
        </extensions>
      </trkpt>
      <trkpt lat="-22.0384441316127777099609375" lon="166.45887139253318309783935546875">
        <ele>909.79998779296875</ele>
        <time>2016-08-12T21:50:26.000Z</time>
        <extensions>
          <ns3:TrackPointExtension>
            <ns3:atemp>17.0</ns3:atemp>
            <ns3:hr>137</ns3:hr>
          </ns3:TrackPointExtension>
        </extensions>
      </trkpt>
      <trkpt lat="-22.03843600116670131683349609375" lon="166.458842642605304718017578125">
        <ele>909.5999755859375</ele>
        <time>2016-08-12T21:50:27.000Z</time>
        <extensions>
          <ns3:TrackPointExtension>
            <ns3:atemp>17.0</ns3:atemp>
            <ns3:hr>137</ns3:hr>
          </ns3:TrackPointExtension>
        </extensions>
      </trkpt>
      <trkpt lat="-22.0384308882057666778564453125" lon="166.4588154852390289306640625">
        <ele>909.20001220703125</ele>
        <time>2016-08-12T21:50:28.000Z</time>
        <extensions>
          <ns3:TrackPointExtension>
            <ns3:atemp>17.0</ns3:atemp>
            <ns3:hr>137</ns3:hr>
          </ns3:TrackPointExtension>
        </extensions>
      </trkpt>
      <trkpt lat="-22.03842242248356342315673828125" lon="166.45878908224403858184814453125">
        <ele>909.5999755859375</ele>
        <time>2016-08-12T21:50:29.000Z</time>
        <extensions>
          <ns3:TrackPointExtension>
            <ns3:atemp>17.0</ns3:atemp>
            <ns3:hr>137</ns3:hr>
          </ns3:TrackPointExtension>
        </extensions>
      </trkpt>
      <trkpt lat="-22.03841940499842166900634765625" lon="166.4587613381445407867431640625">
        <ele>909.5999755859375</ele>
        <time>2016-08-12T21:50:30.000Z</time>
        <extensions>
          <ns3:TrackPointExtension>
            <ns3:atemp>17.0</ns3:atemp>
            <ns3:hr>137</ns3:hr>
          </ns3:TrackPointExtension>
        </extensions>
      </trkpt>
      <trkpt lat="-22.0384141243994235992431640625" lon="166.45873560570180416107177734375">
        <ele>908.79998779296875</ele>
        <time>2016-08-12T21:50:31.000Z</time>
        <extensions>
          <ns3:TrackPointExtension>
            <ns3:atemp>17.0</ns3:atemp>
            <ns3:hr>137</ns3:hr>
          </ns3:TrackPointExtension>
        </extensions>
      </trkpt>
      <trkpt lat="-22.0384117774665355682373046875" lon="166.45870677195489406585693359375">
        <ele>909</ele>
        <time>2016-08-12T21:50:32.000Z</time>
        <extensions>
          <ns3:TrackPointExtension>
            <ns3:atemp>17.0</ns3:atemp>
            <ns3:hr>137</ns3:hr>
          </ns3:TrackPointExtension>
        </extensions>
      </trkpt>
      <trkpt lat="-22.038405239582061767578125" lon="166.45867978222668170928955078125">
        <ele>909.4000244140625</ele>
        <time>2016-08-12T21:50:33.000Z</time>
        <extensions>
          <ns3:TrackPointExtension>
            <ns3:atemp>17.0</ns3:atemp>
            <ns3:hr>137</ns3:hr>
          </ns3:TrackPointExtension>
        </extensions>
      </trkpt>
      <trkpt lat="-22.03840197063982486724853515625" lon="166.4586517028510570526123046875">
        <ele>908.79998779296875</ele>
        <time>2016-08-12T21:50:34.000Z</time>
        <extensions>
          <ns3:TrackPointExtension>
            <ns3:atemp>17.0</ns3:atemp>
            <ns3:hr>137</ns3:hr>
          </ns3:TrackPointExtension>
        </extensions>
      </trkpt>
      <trkpt lat="-22.038399539887905120849609375" lon="166.4586235396564006805419921875">
        <ele>908.20001220703125</ele>
        <time>2016-08-12T21:50:35.000Z</time>
        <extensions>
          <ns3:TrackPointExtension>
            <ns3:atemp>17.0</ns3:atemp>
            <ns3:hr>137</ns3:hr>
          </ns3:TrackPointExtension>
        </extensions>
      </trkpt>
      <trkpt lat="-22.03839786350727081298828125" lon="166.45859730429947376251220703125">
        <ele>908.4000244140625</ele>
        <time>2016-08-12T21:50:36.000Z</time>
        <extensions>
          <ns3:TrackPointExtension>
            <ns3:atemp>17.0</ns3:atemp>
            <ns3:hr>136</ns3:hr>
          </ns3:TrackPointExtension>
        </extensions>
      </trkpt>
      <trkpt lat="-22.03839895315468311309814453125" lon="166.458569057285785675048828125">
        <ele>909.20001220703125</ele>
        <time>2016-08-12T21:50:37.000Z</time>
        <extensions>
          <ns3:TrackPointExtension>
            <ns3:atemp>17.0</ns3:atemp>
            <ns3:hr>137</ns3:hr>
          </ns3:TrackPointExtension>
        </extensions>
      </trkpt>
      <trkpt lat="-22.03840247355401515960693359375" lon="166.45854122936725616455078125">
        <ele>908.79998779296875</ele>
        <time>2016-08-12T21:50:38.000Z</time>
        <extensions>
          <ns3:TrackPointExtension>
            <ns3:atemp>17.0</ns3:atemp>
            <ns3:hr>136</ns3:hr>
          </ns3:TrackPointExtension>
        </extensions>
      </trkpt>
      <trkpt lat="-22.03840666450560092926025390625" lon="166.4585155807435512542724609375">
        <ele>908.4000244140625</ele>
        <time>2016-08-12T21:50:39.000Z</time>
        <extensions>
          <ns3:TrackPointExtension>
            <ns3:atemp>17.0</ns3:atemp>
            <ns3:hr>137</ns3:hr>
          </ns3:TrackPointExtension>
        </extensions>
      </trkpt>
      <trkpt lat="-22.0384147949516773223876953125" lon="166.4584900997579097747802734375">
        <ele>908.5999755859375</ele>
        <time>2016-08-12T21:50:40.000Z</time>
        <extensions>
          <ns3:TrackPointExtension>
            <ns3:atemp>17.0</ns3:atemp>
            <ns3:hr>136</ns3:hr>
          </ns3:TrackPointExtension>
        </extensions>
      </trkpt>
      <trkpt lat="-22.03841839917004108428955078125" lon="166.45846621133387088775634765625">
        <ele>908.5999755859375</ele>
        <time>2016-08-12T21:50:41.000Z</time>
        <extensions>
          <ns3:TrackPointExtension>
            <ns3:atemp>17.0</ns3:atemp>
            <ns3:hr>137</ns3:hr>
          </ns3:TrackPointExtension>
        </extensions>
      </trkpt>
      <trkpt lat="-22.0384228415787220001220703125" lon="166.4584404788911342620849609375">
        <ele>908.4000244140625</ele>
        <time>2016-08-12T21:50:42.000Z</time>
        <extensions>
          <ns3:TrackPointExtension>
            <ns3:atemp>17.0</ns3:atemp>
            <ns3:hr>136</ns3:hr>
          </ns3:TrackPointExtension>
        </extensions>
      </trkpt>
      <trkpt lat="-22.0384275354444980621337890625" lon="166.45841340534389019012451171875">
        <ele>908.4000244140625</ele>
        <time>2016-08-12T21:50:43.000Z</time>
        <extensions>
          <ns3:TrackPointExtension>
            <ns3:atemp>17.0</ns3:atemp>
            <ns3:hr>136</ns3:hr>
          </ns3:TrackPointExtension>
        </extensions>
      </trkpt>
      <trkpt lat="-22.0384332351386547088623046875" lon="166.45838708616793155670166015625">
        <ele>909</ele>
        <time>2016-08-12T21:50:44.000Z</time>
        <extensions>
          <ns3:TrackPointExtension>
            <ns3:atemp>17.0</ns3:atemp>
            <ns3:hr>136</ns3:hr>
          </ns3:TrackPointExtension>
        </extensions>
      </trkpt>
      <trkpt lat="-22.03843449242413043975830078125" lon="166.45835875533521175384521484375">
        <ele>909</ele>
        <time>2016-08-12T21:50:45.000Z</time>
        <extensions>
          <ns3:TrackPointExtension>
            <ns3:atemp>17.0</ns3:atemp>
            <ns3:hr>137</ns3:hr>
          </ns3:TrackPointExtension>
        </extensions>
      </trkpt>
      <trkpt lat="-22.03843675553798675537109375" lon="166.45833025686442852020263671875">
        <ele>908.5999755859375</ele>
        <time>2016-08-12T21:50:46.000Z</time>
        <extensions>
          <ns3:TrackPointExtension>
            <ns3:atemp>17.0</ns3:atemp>
            <ns3:hr>137</ns3:hr>
          </ns3:TrackPointExtension>
        </extensions>
      </trkpt>
      <trkpt lat="-22.03843818046152591705322265625" lon="166.4583020098507404327392578125">
        <ele>908</ele>
        <time>2016-08-12T21:50:47.000Z</time>
        <extensions>
          <ns3:TrackPointExtension>
            <ns3:atemp>17.0</ns3:atemp>
            <ns3:hr>137</ns3:hr>
          </ns3:TrackPointExtension>
        </extensions>
      </trkpt>
      <trkpt lat="-22.03843407332897186279296875" lon="166.45827426575124263763427734375">
        <ele>908.5999755859375</ele>
        <time>2016-08-12T21:50:48.000Z</time>
        <extensions>
          <ns3:TrackPointExtension>
            <ns3:atemp>17.0</ns3:atemp>
            <ns3:hr>137</ns3:hr>
          </ns3:TrackPointExtension>
        </extensions>
      </trkpt>
      <trkpt lat="-22.038424015045166015625" lon="166.45825012587010860443115234375">
        <ele>909</ele>
        <time>2016-08-12T21:50:49.000Z</time>
        <extensions>
          <ns3:TrackPointExtension>
            <ns3:atemp>17.0</ns3:atemp>
            <ns3:hr>137</ns3:hr>
          </ns3:TrackPointExtension>
        </extensions>
      </trkpt>
      <trkpt lat="-22.03841454349458217620849609375" lon="166.4582227170467376708984375">
        <ele>908.5999755859375</ele>
        <time>2016-08-12T21:50:50.000Z</time>
        <extensions>
          <ns3:TrackPointExtension>
            <ns3:atemp>17.0</ns3:atemp>
            <ns3:hr>137</ns3:hr>
          </ns3:TrackPointExtension>
        </extensions>
      </trkpt>
      <trkpt lat="-22.03841119073331356048583984375" lon="166.45819413475692272186279296875">
        <ele>908.5999755859375</ele>
        <time>2016-08-12T21:50:51.000Z</time>
        <extensions>
          <ns3:TrackPointExtension>
            <ns3:atemp>17.0</ns3:atemp>
            <ns3:hr>137</ns3:hr>
          </ns3:TrackPointExtension>
        </extensions>
      </trkpt>
      <trkpt lat="-22.03841286711394786834716796875" lon="166.4581642113626003265380859375">
        <ele>909.20001220703125</ele>
        <time>2016-08-12T21:50:52.000Z</time>
        <extensions>
          <ns3:TrackPointExtension>
            <ns3:atemp>17.0</ns3:atemp>
            <ns3:hr>138</ns3:hr>
          </ns3:TrackPointExtension>
        </extensions>
      </trkpt>
      <trkpt lat="-22.038415633141994476318359375" lon="166.45813177339732646942138671875">
        <ele>909.20001220703125</ele>
        <time>2016-08-12T21:50:53.000Z</time>
        <extensions>
          <ns3:TrackPointExtension>
            <ns3:atemp>17.0</ns3:atemp>
            <ns3:hr>137</ns3:hr>
          </ns3:TrackPointExtension>
        </extensions>
      </trkpt>
      <trkpt lat="-22.03841487877070903778076171875" lon="166.45810377784073352813720703125">
        <ele>908.4000244140625</ele>
        <time>2016-08-12T21:50:54.000Z</time>
        <extensions>
          <ns3:TrackPointExtension>
            <ns3:atemp>17.0</ns3:atemp>
            <ns3:hr>137</ns3:hr>
          </ns3:TrackPointExtension>
        </extensions>
      </trkpt>
      <trkpt lat="-22.03841638751327991485595703125" lon="166.45807628519833087921142578125">
        <ele>908.79998779296875</ele>
        <time>2016-08-12T21:50:55.000Z</time>
        <extensions>
          <ns3:TrackPointExtension>
            <ns3:atemp>17.0</ns3:atemp>
            <ns3:hr>137</ns3:hr>
          </ns3:TrackPointExtension>
        </extensions>
      </trkpt>
      <trkpt lat="-22.0384199917316436767578125" lon="166.45804694853723049163818359375">
        <ele>909.20001220703125</ele>
        <time>2016-08-12T21:50:56.000Z</time>
        <extensions>
          <ns3:TrackPointExtension>
            <ns3:atemp>17.0</ns3:atemp>
            <ns3:hr>138</ns3:hr>
          </ns3:TrackPointExtension>
        </extensions>
      </trkpt>
      <trkpt lat="-22.038423679769039154052734375" lon="166.45801953971385955810546875">
        <ele>908.4000244140625</ele>
        <time>2016-08-12T21:50:57.000Z</time>
        <extensions>
          <ns3:TrackPointExtension>
            <ns3:atemp>17.0</ns3:atemp>
            <ns3:hr>137</ns3:hr>
          </ns3:TrackPointExtension>
        </extensions>
      </trkpt>
      <trkpt lat="-22.0384334027767181396484375" lon="166.45799296908080577850341796875">
        <ele>907.4000244140625</ele>
        <time>2016-08-12T21:50:58.000Z</time>
        <extensions>
          <ns3:TrackPointExtension>
            <ns3:atemp>17.0</ns3:atemp>
            <ns3:hr>137</ns3:hr>
          </ns3:TrackPointExtension>
        </extensions>
      </trkpt>
      <trkpt lat="-22.03843885101377964019775390625" lon="166.45796849392354488372802734375">
        <ele>907.79998779296875</ele>
        <time>2016-08-12T21:50:59.000Z</time>
        <extensions>
          <ns3:TrackPointExtension>
            <ns3:atemp>17.0</ns3:atemp>
            <ns3:hr>137</ns3:hr>
          </ns3:TrackPointExtension>
        </extensions>
      </trkpt>
      <trkpt lat="-22.038447819650173187255859375" lon="166.457942090928554534912109375">
        <ele>908.79998779296875</ele>
        <time>2016-08-12T21:51:00.000Z</time>
        <extensions>
          <ns3:TrackPointExtension>
            <ns3:atemp>17.0</ns3:atemp>
            <ns3:hr>137</ns3:hr>
          </ns3:TrackPointExtension>
        </extensions>
      </trkpt>
      <trkpt lat="-22.0384613983333110809326171875" lon="166.45791552029550075531005859375">
        <ele>909</ele>
        <time>2016-08-12T21:51:01.000Z</time>
        <extensions>
          <ns3:TrackPointExtension>
            <ns3:atemp>17.0</ns3:atemp>
            <ns3:hr>137</ns3:hr>
          </ns3:TrackPointExtension>
        </extensions>
      </trkpt>
      <trkpt lat="-22.03847422264516353607177734375" lon="166.45789272151887416839599609375">
        <ele>908.5999755859375</ele>
        <time>2016-08-12T21:51:02.000Z</time>
        <extensions>
          <ns3:TrackPointExtension>
            <ns3:atemp>17.0</ns3:atemp>
            <ns3:hr>137</ns3:hr>
          </ns3:TrackPointExtension>
        </extensions>
      </trkpt>
      <trkpt lat="-22.03849098645150661468505859375" lon="166.45787444896996021270751953125">
        <ele>908.79998779296875</ele>
        <time>2016-08-12T21:51:03.000Z</time>
        <extensions>
          <ns3:TrackPointExtension>
            <ns3:atemp>17.0</ns3:atemp>
            <ns3:hr>137</ns3:hr>
          </ns3:TrackPointExtension>
        </extensions>
      </trkpt>
      <trkpt lat="-22.0385083369910717010498046875" lon="166.45785483531653881072998046875">
        <ele>909</ele>
        <time>2016-08-12T21:51:04.000Z</time>
        <extensions>
          <ns3:TrackPointExtension>
            <ns3:atemp>17.0</ns3:atemp>
            <ns3:hr>137</ns3:hr>
          </ns3:TrackPointExtension>
        </extensions>
      </trkpt>
      <trkpt lat="-22.03852652572095394134521484375" lon="166.4578346349298954010009765625">
        <ele>909</ele>
        <time>2016-08-12T21:51:05.000Z</time>
        <extensions>
          <ns3:TrackPointExtension>
            <ns3:atemp>17.0</ns3:atemp>
            <ns3:hr>138</ns3:hr>
          </ns3:TrackPointExtension>
        </extensions>
      </trkpt>
      <trkpt lat="-22.03854479826986789703369140625" lon="166.45781275816261768341064453125">
        <ele>907.79998779296875</ele>
        <time>2016-08-12T21:51:06.000Z</time>
        <extensions>
          <ns3:TrackPointExtension>
            <ns3:atemp>17.0</ns3:atemp>
            <ns3:hr>137</ns3:hr>
          </ns3:TrackPointExtension>
        </extensions>
      </trkpt>
      <trkpt lat="-22.038560807704925537109375" lon="166.4577897079288959503173828125">
        <ele>907.79998779296875</ele>
        <time>2016-08-12T21:51:07.000Z</time>
        <extensions>
          <ns3:TrackPointExtension>
            <ns3:atemp>17.0</ns3:atemp>
            <ns3:hr>137</ns3:hr>
          </ns3:TrackPointExtension>
        </extensions>
      </trkpt>
      <trkpt lat="-22.038577906787395477294921875" lon="166.45776280201971530914306640625">
        <ele>908.4000244140625</ele>
        <time>2016-08-12T21:51:08.000Z</time>
        <extensions>
          <ns3:TrackPointExtension>
            <ns3:atemp>17.0</ns3:atemp>
            <ns3:hr>137</ns3:hr>
          </ns3:TrackPointExtension>
        </extensions>
      </trkpt>
      <trkpt lat="-22.03859475441277027130126953125" lon="166.457737572491168975830078125">
        <ele>908.4000244140625</ele>
        <time>2016-08-12T21:51:09.000Z</time>
        <extensions>
          <ns3:TrackPointExtension>
            <ns3:atemp>17.0</ns3:atemp>
            <ns3:hr>138</ns3:hr>
          </ns3:TrackPointExtension>
        </extensions>
      </trkpt>
      <trkpt lat="-22.038608081638813018798828125" lon="166.4577104151248931884765625">
        <ele>907.20001220703125</ele>
        <time>2016-08-12T21:51:10.000Z</time>
        <extensions>
          <ns3:TrackPointExtension>
            <ns3:atemp>17.0</ns3:atemp>
            <ns3:hr>138</ns3:hr>
          </ns3:TrackPointExtension>
        </extensions>
      </trkpt>
      <trkpt lat="-22.03862509690225124359130859375" lon="166.45768585614860057830810546875">
        <ele>907.20001220703125</ele>
        <time>2016-08-12T21:51:11.000Z</time>
        <extensions>
          <ns3:TrackPointExtension>
            <ns3:atemp>17.0</ns3:atemp>
            <ns3:hr>138</ns3:hr>
          </ns3:TrackPointExtension>
        </extensions>
      </trkpt>
      <trkpt lat="-22.03863867558538913726806640625" lon="166.45766079425811767578125">
        <ele>908</ele>
        <time>2016-08-12T21:51:12.000Z</time>
        <extensions>
          <ns3:TrackPointExtension>
            <ns3:atemp>17.0</ns3:atemp>
            <ns3:hr>138</ns3:hr>
          </ns3:TrackPointExtension>
        </extensions>
      </trkpt>
      <trkpt lat="-22.03865225426852703094482421875" lon="166.457632966339588165283203125">
        <ele>908.4000244140625</ele>
        <time>2016-08-12T21:51:13.000Z</time>
        <extensions>
          <ns3:TrackPointExtension>
            <ns3:atemp>17.0</ns3:atemp>
            <ns3:hr>138</ns3:hr>
          </ns3:TrackPointExtension>
        </extensions>
      </trkpt>
      <trkpt lat="-22.0386662520468235015869140625" lon="166.457609497010707855224609375">
        <ele>908</ele>
        <time>2016-08-12T21:51:14.000Z</time>
        <extensions>
          <ns3:TrackPointExtension>
            <ns3:atemp>17.0</ns3:atemp>
            <ns3:hr>138</ns3:hr>
          </ns3:TrackPointExtension>
        </extensions>
      </trkpt>
      <trkpt lat="-22.03867689706385135650634765625" lon="166.45758762024343013763427734375">
        <ele>907.5999755859375</ele>
        <time>2016-08-12T21:51:15.000Z</time>
        <extensions>
          <ns3:TrackPointExtension>
            <ns3:atemp>17.0</ns3:atemp>
            <ns3:hr>138</ns3:hr>
          </ns3:TrackPointExtension>
        </extensions>
      </trkpt>
      <trkpt lat="-22.0386924035847187042236328125" lon="166.45756599493324756622314453125">
        <ele>908.20001220703125</ele>
        <time>2016-08-12T21:51:16.000Z</time>
        <extensions>
          <ns3:TrackPointExtension>
            <ns3:atemp>17.0</ns3:atemp>
            <ns3:hr>138</ns3:hr>
          </ns3:TrackPointExtension>
        </extensions>
      </trkpt>
      <trkpt lat="-22.03870824538171291351318359375" lon="166.45754344761371612548828125">
        <ele>908.4000244140625</ele>
        <time>2016-08-12T21:51:17.000Z</time>
        <extensions>
          <ns3:TrackPointExtension>
            <ns3:atemp>17.0</ns3:atemp>
            <ns3:hr>138</ns3:hr>
          </ns3:TrackPointExtension>
        </extensions>
      </trkpt>
      <trkpt lat="-22.038721740245819091796875" lon="166.45751796662807464599609375">
        <ele>907.79998779296875</ele>
        <time>2016-08-12T21:51:18.000Z</time>
        <extensions>
          <ns3:TrackPointExtension>
            <ns3:atemp>17.0</ns3:atemp>
            <ns3:hr>138</ns3:hr>
          </ns3:TrackPointExtension>
        </extensions>
      </trkpt>
      <trkpt lat="-22.0387329719960689544677734375" lon="166.4574950002133846282958984375">
        <ele>907.4000244140625</ele>
        <time>2016-08-12T21:51:19.000Z</time>
        <extensions>
          <ns3:TrackPointExtension>
            <ns3:atemp>17.0</ns3:atemp>
            <ns3:hr>138</ns3:hr>
          </ns3:TrackPointExtension>
        </extensions>
      </trkpt>
      <trkpt lat="-22.03874462284147739410400390625" lon="166.45747060887515544891357421875">
        <ele>908</ele>
        <time>2016-08-12T21:51:20.000Z</time>
        <extensions>
          <ns3:TrackPointExtension>
            <ns3:atemp>17.0</ns3:atemp>
            <ns3:hr>138</ns3:hr>
          </ns3:TrackPointExtension>
        </extensions>
      </trkpt>
      <trkpt lat="-22.0387601293623447418212890625" lon="166.4574475586414337158203125">
        <ele>908.79998779296875</ele>
        <time>2016-08-12T21:51:21.000Z</time>
        <extensions>
          <ns3:TrackPointExtension>
            <ns3:atemp>17.0</ns3:atemp>
            <ns3:hr>138</ns3:hr>
          </ns3:TrackPointExtension>
        </extensions>
      </trkpt>
      <trkpt lat="-22.0387732051312923431396484375" lon="166.457431800663471221923828125">
        <ele>908.5999755859375</ele>
        <time>2016-08-12T21:51:22.000Z</time>
        <extensions>
          <ns3:TrackPointExtension>
            <ns3:atemp>17.0</ns3:atemp>
            <ns3:hr>138</ns3:hr>
          </ns3:TrackPointExtension>
        </extensions>
      </trkpt>
      <trkpt lat="-22.03878678381443023681640625" lon="166.45741059444844722747802734375">
        <ele>908</ele>
        <time>2016-08-12T21:51:23.000Z</time>
        <extensions>
          <ns3:TrackPointExtension>
            <ns3:atemp>17.0</ns3:atemp>
            <ns3:hr>139</ns3:hr>
          </ns3:TrackPointExtension>
        </extensions>
      </trkpt>
      <trkpt lat="-22.03880396671593189239501953125" lon="166.45738980732858180999755859375">
        <ele>908</ele>
        <time>2016-08-12T21:51:24.000Z</time>
        <extensions>
          <ns3:TrackPointExtension>
            <ns3:atemp>17.0</ns3:atemp>
            <ns3:hr>139</ns3:hr>
          </ns3:TrackPointExtension>
        </extensions>
      </trkpt>
      <trkpt lat="-22.038816623389720916748046875" lon="166.45737036131322383880615234375">
        <ele>908.5999755859375</ele>
        <time>2016-08-12T21:51:25.000Z</time>
        <extensions>
          <ns3:TrackPointExtension>
            <ns3:atemp>17.0</ns3:atemp>
            <ns3:hr>139</ns3:hr>
          </ns3:TrackPointExtension>
        </extensions>
      </trkpt>
      <trkpt lat="-22.03883062116801738739013671875" lon="166.45734965801239013671875">
        <ele>908.4000244140625</ele>
        <time>2016-08-12T21:51:26.000Z</time>
        <extensions>
          <ns3:TrackPointExtension>
            <ns3:atemp>17.0</ns3:atemp>
            <ns3:hr>138</ns3:hr>
          </ns3:TrackPointExtension>
        </extensions>
      </trkpt>
      <trkpt lat="-22.03884352929890155792236328125" lon="166.45732644014060497283935546875">
        <ele>907.79998779296875</ele>
        <time>2016-08-12T21:51:27.000Z</time>
        <extensions>
          <ns3:TrackPointExtension>
            <ns3:atemp>17.0</ns3:atemp>
            <ns3:hr>138</ns3:hr>
          </ns3:TrackPointExtension>
        </extensions>
      </trkpt>
      <trkpt lat="-22.03885777853429317474365234375" lon="166.4573028869926929473876953125">
        <ele>908.20001220703125</ele>
        <time>2016-08-12T21:51:28.000Z</time>
        <extensions>
          <ns3:TrackPointExtension>
            <ns3:atemp>17.0</ns3:atemp>
            <ns3:hr>138</ns3:hr>
          </ns3:TrackPointExtension>
        </extensions>
      </trkpt>
      <trkpt lat="-22.03887127339839935302734375" lon="166.45727648399770259857177734375">
        <ele>908.20001220703125</ele>
        <time>2016-08-12T21:51:29.000Z</time>
        <extensions>
          <ns3:TrackPointExtension>
            <ns3:atemp>17.0</ns3:atemp>
            <ns3:hr>138</ns3:hr>
          </ns3:TrackPointExtension>
        </extensions>
      </trkpt>
      <trkpt lat="-22.0388781465590000152587890625" lon="166.4572552777826786041259765625">
        <ele>907.4000244140625</ele>
        <time>2016-08-12T21:51:30.000Z</time>
        <extensions>
          <ns3:TrackPointExtension>
            <ns3:atemp>17.0</ns3:atemp>
            <ns3:hr>139</ns3:hr>
          </ns3:TrackPointExtension>
        </extensions>
      </trkpt>
      <trkpt lat="-22.03887755982577800750732421875" lon="166.45722560584545135498046875">
        <ele>907</ele>
        <time>2016-08-12T21:51:31.000Z</time>
        <extensions>
          <ns3:TrackPointExtension>
            <ns3:atemp>17.0</ns3:atemp>
            <ns3:hr>139</ns3:hr>
          </ns3:TrackPointExtension>
        </extensions>
      </trkpt>
      <trkpt lat="-22.03887219540774822235107421875" lon="166.4571982808411121368408203125">
        <ele>907.5999755859375</ele>
        <time>2016-08-12T21:51:32.000Z</time>
        <extensions>
          <ns3:TrackPointExtension>
            <ns3:atemp>17.0</ns3:atemp>
            <ns3:hr>139</ns3:hr>
          </ns3:TrackPointExtension>
        </extensions>
      </trkpt>
      <trkpt lat="-22.03886859118938446044921875" lon="166.45717321895062923431396484375">
        <ele>908.20001220703125</ele>
        <time>2016-08-12T21:51:33.000Z</time>
        <extensions>
          <ns3:TrackPointExtension>
            <ns3:atemp>17.0</ns3:atemp>
            <ns3:hr>139</ns3:hr>
          </ns3:TrackPointExtension>
        </extensions>
      </trkpt>
      <trkpt lat="-22.03886783681809902191162109375" lon="166.457144804298877716064453125">
        <ele>907.5999755859375</ele>
        <time>2016-08-12T21:51:34.000Z</time>
        <extensions>
          <ns3:TrackPointExtension>
            <ns3:atemp>17.0</ns3:atemp>
            <ns3:hr>139</ns3:hr>
          </ns3:TrackPointExtension>
        </extensions>
      </trkpt>
      <trkpt lat="-22.038868926465511322021484375" lon="166.457118988037109375">
        <ele>907.20001220703125</ele>
        <time>2016-08-12T21:51:35.000Z</time>
        <extensions>
          <ns3:TrackPointExtension>
            <ns3:atemp>17.0</ns3:atemp>
            <ns3:hr>139</ns3:hr>
          </ns3:TrackPointExtension>
        </extensions>
      </trkpt>
      <trkpt lat="-22.03887202776968479156494140625" lon="166.45709191448986530303955078125">
        <ele>907.5999755859375</ele>
        <time>2016-08-12T21:51:36.000Z</time>
        <extensions>
          <ns3:TrackPointExtension>
            <ns3:atemp>17.0</ns3:atemp>
            <ns3:hr>139</ns3:hr>
          </ns3:TrackPointExtension>
        </extensions>
      </trkpt>
      <trkpt lat="-22.038877643644809722900390625" lon="166.4570648409426212310791015625">
        <ele>907.79998779296875</ele>
        <time>2016-08-12T21:51:37.000Z</time>
        <extensions>
          <ns3:TrackPointExtension>
            <ns3:atemp>17.0</ns3:atemp>
            <ns3:hr>139</ns3:hr>
          </ns3:TrackPointExtension>
        </extensions>
      </trkpt>
      <trkpt lat="-22.038886360824108123779296875" lon="166.45703994669020175933837890625">
        <ele>907.5999755859375</ele>
        <time>2016-08-12T21:51:38.000Z</time>
        <extensions>
          <ns3:TrackPointExtension>
            <ns3:atemp>17.0</ns3:atemp>
            <ns3:hr>139</ns3:hr>
          </ns3:TrackPointExtension>
        </extensions>
      </trkpt>
      <trkpt lat="-22.03889717347919940948486328125" lon="166.45701379515230655670166015625">
        <ele>907.5999755859375</ele>
        <time>2016-08-12T21:51:39.000Z</time>
        <extensions>
          <ns3:TrackPointExtension>
            <ns3:atemp>17.0</ns3:atemp>
            <ns3:hr>139</ns3:hr>
          </ns3:TrackPointExtension>
        </extensions>
      </trkpt>
      <trkpt lat="-22.03890840522944927215576171875" lon="166.45698848180472850799560546875">
        <ele>908.4000244140625</ele>
        <time>2016-08-12T21:51:40.000Z</time>
        <extensions>
          <ns3:TrackPointExtension>
            <ns3:atemp>17.0</ns3:atemp>
            <ns3:hr>139</ns3:hr>
          </ns3:TrackPointExtension>
        </extensions>
      </trkpt>
      <trkpt lat="-22.03891779296100139617919921875" lon="166.45696333609521389007568359375">
        <ele>908.79998779296875</ele>
        <time>2016-08-12T21:51:41.000Z</time>
        <extensions>
          <ns3:TrackPointExtension>
            <ns3:atemp>17.0</ns3:atemp>
            <ns3:hr>140</ns3:hr>
          </ns3:TrackPointExtension>
        </extensions>
      </trkpt>
      <trkpt lat="-22.03892969526350498199462890625" lon="166.4569374360144138336181640625">
        <ele>907.5999755859375</ele>
        <time>2016-08-12T21:51:42.000Z</time>
        <extensions>
          <ns3:TrackPointExtension>
            <ns3:atemp>17.0</ns3:atemp>
            <ns3:hr>139</ns3:hr>
          </ns3:TrackPointExtension>
        </extensions>
      </trkpt>
      <trkpt lat="-22.03893958590924739837646484375" lon="166.4569139666855335235595703125">
        <ele>906.79998779296875</ele>
        <time>2016-08-12T21:51:43.000Z</time>
        <extensions>
          <ns3:TrackPointExtension>
            <ns3:atemp>17.0</ns3:atemp>
            <ns3:hr>140</ns3:hr>
          </ns3:TrackPointExtension>
        </extensions>
      </trkpt>
      <trkpt lat="-22.03895433805882930755615234375" lon="166.4568904973566532135009765625">
        <ele>907.79998779296875</ele>
        <time>2016-08-12T21:51:44.000Z</time>
        <extensions>
          <ns3:TrackPointExtension>
            <ns3:atemp>17.0</ns3:atemp>
            <ns3:hr>140</ns3:hr>
          </ns3:TrackPointExtension>
        </extensions>
      </trkpt>
      <trkpt lat="-22.0389676652848720550537109375" lon="166.45686644129455089569091796875">
        <ele>908</ele>
        <time>2016-08-12T21:51:45.000Z</time>
        <extensions>
          <ns3:TrackPointExtension>
            <ns3:atemp>17.0</ns3:atemp>
            <ns3:hr>140</ns3:hr>
          </ns3:TrackPointExtension>
        </extensions>
      </trkpt>
      <trkpt lat="-22.03897680155932903289794921875" lon="166.4568438939750194549560546875">
        <ele>907.5999755859375</ele>
        <time>2016-08-12T21:51:46.000Z</time>
        <extensions>
          <ns3:TrackPointExtension>
            <ns3:atemp>17.0</ns3:atemp>
            <ns3:hr>139</ns3:hr>
          </ns3:TrackPointExtension>
        </extensions>
      </trkpt>
      <trkpt lat="-22.038988955318927764892578125" lon="166.4568210951983928680419921875">
        <ele>907.4000244140625</ele>
        <time>2016-08-12T21:51:47.000Z</time>
        <extensions>
          <ns3:TrackPointExtension>
            <ns3:atemp>17.0</ns3:atemp>
            <ns3:hr>139</ns3:hr>
          </ns3:TrackPointExtension>
        </extensions>
      </trkpt>
      <trkpt lat="-22.03900404274463653564453125" lon="166.45679921843111515045166015625">
        <ele>908</ele>
        <time>2016-08-12T21:51:48.000Z</time>
        <extensions>
          <ns3:TrackPointExtension>
            <ns3:atemp>17.0</ns3:atemp>
            <ns3:hr>139</ns3:hr>
          </ns3:TrackPointExtension>
        </extensions>
      </trkpt>
      <trkpt lat="-22.03901837579905986785888671875" lon="166.45677390508353710174560546875">
        <ele>908</ele>
        <time>2016-08-12T21:51:49.000Z</time>
        <extensions>
          <ns3:TrackPointExtension>
            <ns3:atemp>17.0</ns3:atemp>
            <ns3:hr>139</ns3:hr>
          </ns3:TrackPointExtension>
        </extensions>
      </trkpt>
      <trkpt lat="-22.03903145156800746917724609375" lon="166.456748507916927337646484375">
        <ele>908</ele>
        <time>2016-08-12T21:51:50.000Z</time>
        <extensions>
          <ns3:TrackPointExtension>
            <ns3:atemp>17.0</ns3:atemp>
            <ns3:hr>139</ns3:hr>
          </ns3:TrackPointExtension>
        </extensions>
      </trkpt>
      <trkpt lat="-22.03904134221374988555908203125" lon="166.4567231945693492889404296875">
        <ele>908</ele>
        <time>2016-08-12T21:51:51.000Z</time>
        <extensions>
          <ns3:TrackPointExtension>
            <ns3:atemp>17.0</ns3:atemp>
            <ns3:hr>139</ns3:hr>
          </ns3:TrackPointExtension>
        </extensions>
      </trkpt>
      <trkpt lat="-22.0390494726598262786865234375" lon="166.4566990546882152557373046875">
        <ele>908.4000244140625</ele>
        <time>2016-08-12T21:51:52.000Z</time>
        <extensions>
          <ns3:TrackPointExtension>
            <ns3:atemp>17.0</ns3:atemp>
            <ns3:hr>139</ns3:hr>
          </ns3:TrackPointExtension>
        </extensions>
      </trkpt>
      <trkpt lat="-22.03905961476266384124755859375" lon="166.45667516626417636871337890625">
        <ele>907.5999755859375</ele>
        <time>2016-08-12T21:51:53.000Z</time>
        <extensions>
          <ns3:TrackPointExtension>
            <ns3:atemp>17.0</ns3:atemp>
            <ns3:hr>139</ns3:hr>
          </ns3:TrackPointExtension>
        </extensions>
      </trkpt>
      <trkpt lat="-22.03906833194196224212646484375" lon="166.4566509425640106201171875">
        <ele>906.79998779296875</ele>
        <time>2016-08-12T21:51:54.000Z</time>
        <extensions>
          <ns3:TrackPointExtension>
            <ns3:atemp>17.0</ns3:atemp>
            <ns3:hr>139</ns3:hr>
          </ns3:TrackPointExtension>
        </extensions>
      </trkpt>
      <trkpt lat="-22.039079479873180389404296875" lon="166.4566273055970668792724609375">
        <ele>907.5999755859375</ele>
        <time>2016-08-12T21:51:55.000Z</time>
        <extensions>
          <ns3:TrackPointExtension>
            <ns3:atemp>17.0</ns3:atemp>
            <ns3:hr>139</ns3:hr>
          </ns3:TrackPointExtension>
        </extensions>
      </trkpt>
      <trkpt lat="-22.0390907116234302520751953125" lon="166.4566041715443134307861328125">
        <ele>908.4000244140625</ele>
        <time>2016-08-12T21:51:56.000Z</time>
        <extensions>
          <ns3:TrackPointExtension>
            <ns3:atemp>17.0</ns3:atemp>
            <ns3:hr>139</ns3:hr>
          </ns3:TrackPointExtension>
        </extensions>
      </trkpt>
      <trkpt lat="-22.03909766860306262969970703125" lon="166.45658195950090885162353515625">
        <ele>908</ele>
        <time>2016-08-12T21:51:57.000Z</time>
        <extensions>
          <ns3:TrackPointExtension>
            <ns3:atemp>17.0</ns3:atemp>
            <ns3:hr>139</ns3:hr>
          </ns3:TrackPointExtension>
        </extensions>
      </trkpt>
      <trkpt lat="-22.039107978343963623046875" lon="166.45656083710491657257080078125">
        <ele>907.4000244140625</ele>
        <time>2016-08-12T21:51:58.000Z</time>
        <extensions>
          <ns3:TrackPointExtension>
            <ns3:atemp>17.0</ns3:atemp>
            <ns3:hr>139</ns3:hr>
          </ns3:TrackPointExtension>
        </extensions>
      </trkpt>
      <trkpt lat="-22.03911761753261089324951171875" lon="166.4565391279757022857666015625">
        <ele>908</ele>
        <time>2016-08-12T21:51:59.000Z</time>
        <extensions>
          <ns3:TrackPointExtension>
            <ns3:atemp>17.0</ns3:atemp>
            <ns3:hr>139</ns3:hr>
          </ns3:TrackPointExtension>
        </extensions>
      </trkpt>
      <trkpt lat="-22.039125747978687286376953125" lon="166.4565139822661876678466796875">
        <ele>908.79998779296875</ele>
        <time>2016-08-12T21:52:00.000Z</time>
        <extensions>
          <ns3:TrackPointExtension>
            <ns3:atemp>17.0</ns3:atemp>
            <ns3:hr>139</ns3:hr>
          </ns3:TrackPointExtension>
        </extensions>
      </trkpt>
      <trkpt lat="-22.039135806262493133544921875" lon="166.45648531615734100341796875">
        <ele>909</ele>
        <time>2016-08-12T21:52:01.000Z</time>
        <extensions>
          <ns3:TrackPointExtension>
            <ns3:atemp>17.0</ns3:atemp>
            <ns3:hr>139</ns3:hr>
          </ns3:TrackPointExtension>
        </extensions>
      </trkpt>
      <trkpt lat="-22.039145193994045257568359375" lon="166.4564569853246212005615234375">
        <ele>908.20001220703125</ele>
        <time>2016-08-12T21:52:02.000Z</time>
        <extensions>
          <ns3:TrackPointExtension>
            <ns3:atemp>17.0</ns3:atemp>
            <ns3:hr>139</ns3:hr>
          </ns3:TrackPointExtension>
        </extensions>
      </trkpt>
      <trkpt lat="-22.039155252277851104736328125" lon="166.456429995596408843994140625">
        <ele>908.20001220703125</ele>
        <time>2016-08-12T21:52:03.000Z</time>
        <extensions>
          <ns3:TrackPointExtension>
            <ns3:atemp>17.0</ns3:atemp>
            <ns3:hr>139</ns3:hr>
          </ns3:TrackPointExtension>
        </extensions>
      </trkpt>
      <trkpt lat="-22.039165981113910675048828125" lon="166.456406526267528533935546875">
        <ele>908.4000244140625</ele>
        <time>2016-08-12T21:52:04.000Z</time>
        <extensions>
          <ns3:TrackPointExtension>
            <ns3:atemp>17.0</ns3:atemp>
            <ns3:hr>139</ns3:hr>
          </ns3:TrackPointExtension>
        </extensions>
      </trkpt>
      <trkpt lat="-22.0391805656254291534423828125" lon="166.45638129673898220062255859375">
        <ele>907.5999755859375</ele>
        <time>2016-08-12T21:52:05.000Z</time>
        <extensions>
          <ns3:TrackPointExtension>
            <ns3:atemp>17.0</ns3:atemp>
            <ns3:hr>139</ns3:hr>
          </ns3:TrackPointExtension>
        </extensions>
      </trkpt>
      <trkpt lat="-22.0391933061182498931884765625" lon="166.4563557319343090057373046875">
        <ele>907</ele>
        <time>2016-08-12T21:52:06.000Z</time>
        <extensions>
          <ns3:TrackPointExtension>
            <ns3:atemp>17.0</ns3:atemp>
            <ns3:hr>139</ns3:hr>
          </ns3:TrackPointExtension>
        </extensions>
      </trkpt>
      <trkpt lat="-22.03920646570622920989990234375" lon="166.4563312567770481109619140625">
        <ele>907.5999755859375</ele>
        <time>2016-08-12T21:52:07.000Z</time>
        <extensions>
          <ns3:TrackPointExtension>
            <ns3:atemp>18.0</ns3:atemp>
            <ns3:hr>139</ns3:hr>
          </ns3:TrackPointExtension>
        </extensions>
      </trkpt>
      <trkpt lat="-22.03922121785581111907958984375" lon="166.45630518905818462371826171875">
        <ele>908.20001220703125</ele>
        <time>2016-08-12T21:52:08.000Z</time>
        <extensions>
          <ns3:TrackPointExtension>
            <ns3:atemp>18.0</ns3:atemp>
            <ns3:hr>139</ns3:hr>
          </ns3:TrackPointExtension>
        </extensions>
      </trkpt>
      <trkpt lat="-22.03923362307250499725341796875" lon="166.4562823064625263214111328125">
        <ele>908</ele>
        <time>2016-08-12T21:52:09.000Z</time>
        <extensions>
          <ns3:TrackPointExtension>
            <ns3:atemp>18.0</ns3:atemp>
            <ns3:hr>139</ns3:hr>
          </ns3:TrackPointExtension>
        </extensions>
      </trkpt>
      <trkpt lat="-22.03924703411757946014404296875" lon="166.45625825040042400360107421875">
        <ele>907</ele>
        <time>2016-08-12T21:52:10.000Z</time>
        <extensions>
          <ns3:TrackPointExtension>
            <ns3:atemp>18.0</ns3:atemp>
            <ns3:hr>139</ns3:hr>
          </ns3:TrackPointExtension>
        </extensions>
      </trkpt>
      <trkpt lat="-22.0392627082765102386474609375" lon="166.45623561926186084747314453125">
        <ele>907</ele>
        <time>2016-08-12T21:52:11.000Z</time>
        <extensions>
          <ns3:TrackPointExtension>
            <ns3:atemp>18.0</ns3:atemp>
            <ns3:hr>139</ns3:hr>
          </ns3:TrackPointExtension>
        </extensions>
      </trkpt>
      <trkpt lat="-22.03927704133093357086181640625" lon="166.45621047355234622955322265625">
        <ele>907.79998779296875</ele>
        <time>2016-08-12T21:52:12.000Z</time>
        <extensions>
          <ns3:TrackPointExtension>
            <ns3:atemp>18.0</ns3:atemp>
            <ns3:hr>139</ns3:hr>
          </ns3:TrackPointExtension>
        </extensions>
      </trkpt>
      <trkpt lat="-22.0392918772995471954345703125" lon="166.456182897090911865234375">
        <ele>908</ele>
        <time>2016-08-12T21:52:13.000Z</time>
        <extensions>
          <ns3:TrackPointExtension>
            <ns3:atemp>18.0</ns3:atemp>
            <ns3:hr>138</ns3:hr>
          </ns3:TrackPointExtension>
        </extensions>
      </trkpt>
      <trkpt lat="-22.03930403105914592742919921875" lon="166.456157751381397247314453125">
        <ele>907.5999755859375</ele>
        <time>2016-08-12T21:52:14.000Z</time>
        <extensions>
          <ns3:TrackPointExtension>
            <ns3:atemp>18.0</ns3:atemp>
            <ns3:hr>139</ns3:hr>
          </ns3:TrackPointExtension>
        </extensions>
      </trkpt>
      <trkpt lat="-22.03931408934295177459716796875" lon="166.45613193511962890625">
        <ele>907.5999755859375</ele>
        <time>2016-08-12T21:52:15.000Z</time>
        <extensions>
          <ns3:TrackPointExtension>
            <ns3:atemp>18.0</ns3:atemp>
            <ns3:hr>139</ns3:hr>
          </ns3:TrackPointExtension>
        </extensions>
      </trkpt>
      <trkpt lat="-22.0393223874270915985107421875" lon="166.45610846579074859619140625">
        <ele>908.4000244140625</ele>
        <time>2016-08-12T21:52:16.000Z</time>
        <extensions>
          <ns3:TrackPointExtension>
            <ns3:atemp>18.0</ns3:atemp>
            <ns3:hr>139</ns3:hr>
          </ns3:TrackPointExtension>
        </extensions>
      </trkpt>
      <trkpt lat="-22.0393304340541362762451171875" lon="166.4560861699283123016357421875">
        <ele>908.20001220703125</ele>
        <time>2016-08-12T21:52:17.000Z</time>
        <extensions>
          <ns3:TrackPointExtension>
            <ns3:atemp>18.0</ns3:atemp>
            <ns3:hr>138</ns3:hr>
          </ns3:TrackPointExtension>
        </extensions>
      </trkpt>
      <trkpt lat="-22.0393428392708301544189453125" lon="166.4560620300471782684326171875">
        <ele>907.5999755859375</ele>
        <time>2016-08-12T21:52:18.000Z</time>
        <extensions>
          <ns3:TrackPointExtension>
            <ns3:atemp>18.0</ns3:atemp>
            <ns3:hr>139</ns3:hr>
          </ns3:TrackPointExtension>
        </extensions>
      </trkpt>
      <trkpt lat="-22.03935516066849231719970703125" lon="166.4560422487556934356689453125">
        <ele>907.4000244140625</ele>
        <time>2016-08-12T21:52:19.000Z</time>
        <extensions>
          <ns3:TrackPointExtension>
            <ns3:atemp>18.0</ns3:atemp>
            <ns3:hr>139</ns3:hr>
          </ns3:TrackPointExtension>
        </extensions>
      </trkpt>
      <trkpt lat="-22.03936723060905933380126953125" lon="166.4560207910835742950439453125">
        <ele>908</ele>
        <time>2016-08-12T21:52:20.000Z</time>
        <extensions>
          <ns3:TrackPointExtension>
            <ns3:atemp>18.0</ns3:atemp>
            <ns3:hr>138</ns3:hr>
          </ns3:TrackPointExtension>
        </extensions>
      </trkpt>
      <trkpt lat="-22.0393783785402774810791015625" lon="166.455996148288249969482421875">
        <ele>907.79998779296875</ele>
        <time>2016-08-12T21:52:21.000Z</time>
        <extensions>
          <ns3:TrackPointExtension>
            <ns3:atemp>18.0</ns3:atemp>
            <ns3:hr>139</ns3:hr>
          </ns3:TrackPointExtension>
        </extensions>
      </trkpt>
      <trkpt lat="-22.0393864251673221588134765625" lon="166.45597343333065509796142578125">
        <ele>907.5999755859375</ele>
        <time>2016-08-12T21:52:22.000Z</time>
        <extensions>
          <ns3:TrackPointExtension>
            <ns3:atemp>18.0</ns3:atemp>
            <ns3:hr>139</ns3:hr>
          </ns3:TrackPointExtension>
        </extensions>
      </trkpt>
      <trkpt lat="-22.03939338214695453643798828125" lon="166.4559480361640453338623046875">
        <ele>908.20001220703125</ele>
        <time>2016-08-12T21:52:23.000Z</time>
        <extensions>
          <ns3:TrackPointExtension>
            <ns3:atemp>18.0</ns3:atemp>
            <ns3:hr>139</ns3:hr>
          </ns3:TrackPointExtension>
        </extensions>
      </trkpt>
      <trkpt lat="-22.03940100967884063720703125" lon="166.45592314191162586212158203125">
        <ele>908.5999755859375</ele>
        <time>2016-08-12T21:52:24.000Z</time>
        <extensions>
          <ns3:TrackPointExtension>
            <ns3:atemp>18.0</ns3:atemp>
            <ns3:hr>138</ns3:hr>
          </ns3:TrackPointExtension>
        </extensions>
      </trkpt>
      <trkpt lat="-22.03940947540104389190673828125" lon="166.45589833147823810577392578125">
        <ele>908.4000244140625</ele>
        <time>2016-08-12T21:52:25.000Z</time>
        <extensions>
          <ns3:TrackPointExtension>
            <ns3:atemp>18.0</ns3:atemp>
            <ns3:hr>139</ns3:hr>
          </ns3:TrackPointExtension>
        </extensions>
      </trkpt>
      <trkpt lat="-22.0394186116755008697509765625" lon="166.45587243139743804931640625">
        <ele>907.79998779296875</ele>
        <time>2016-08-12T21:52:26.000Z</time>
        <extensions>
          <ns3:TrackPointExtension>
            <ns3:atemp>18.0</ns3:atemp>
            <ns3:hr>139</ns3:hr>
          </ns3:TrackPointExtension>
        </extensions>
      </trkpt>
      <trkpt lat="-22.039422802627086639404296875" lon="166.4558481238782405853271484375">
        <ele>908.20001220703125</ele>
        <time>2016-08-12T21:52:27.000Z</time>
        <extensions>
          <ns3:TrackPointExtension>
            <ns3:atemp>18.0</ns3:atemp>
            <ns3:hr>138</ns3:hr>
          </ns3:TrackPointExtension>
        </extensions>
      </trkpt>
      <trkpt lat="-22.039435207843780517578125" lon="166.45582306198775768280029296875">
        <ele>908.4000244140625</ele>
        <time>2016-08-12T21:52:28.000Z</time>
        <extensions>
          <ns3:TrackPointExtension>
            <ns3:atemp>18.0</ns3:atemp>
            <ns3:hr>139</ns3:hr>
          </ns3:TrackPointExtension>
        </extensions>
      </trkpt>
      <trkpt lat="-22.0394494570791721343994140625" lon="166.4557968266308307647705078125">
        <ele>907.5999755859375</ele>
        <time>2016-08-12T21:52:29.000Z</time>
        <extensions>
          <ns3:TrackPointExtension>
            <ns3:atemp>18.0</ns3:atemp>
            <ns3:hr>138</ns3:hr>
          </ns3:TrackPointExtension>
        </extensions>
      </trkpt>
      <trkpt lat="-22.0394598506391048431396484375" lon="166.45577394403517246246337890625">
        <ele>907.4000244140625</ele>
        <time>2016-08-12T21:52:30.000Z</time>
        <extensions>
          <ns3:TrackPointExtension>
            <ns3:atemp>18.0</ns3:atemp>
            <ns3:hr>138</ns3:hr>
          </ns3:TrackPointExtension>
        </extensions>
      </trkpt>
      <trkpt lat="-22.03947116620838642120361328125" lon="166.45574561320245265960693359375">
        <ele>908.4000244140625</ele>
        <time>2016-08-12T21:52:31.000Z</time>
        <extensions>
          <ns3:TrackPointExtension>
            <ns3:atemp>18.0</ns3:atemp>
            <ns3:hr>138</ns3:hr>
          </ns3:TrackPointExtension>
        </extensions>
      </trkpt>
      <trkpt lat="-22.03947954811155796051025390625" lon="166.4557200483977794647216796875">
        <ele>908.5999755859375</ele>
        <time>2016-08-12T21:52:32.000Z</time>
        <extensions>
          <ns3:TrackPointExtension>
            <ns3:atemp>18.0</ns3:atemp>
            <ns3:hr>138</ns3:hr>
          </ns3:TrackPointExtension>
        </extensions>
      </trkpt>
      <trkpt lat="-22.03948373906314373016357421875" lon="166.45569230429828166961669921875">
        <ele>908.4000244140625</ele>
        <time>2016-08-12T21:52:33.000Z</time>
        <extensions>
          <ns3:TrackPointExtension>
            <ns3:atemp>18.0</ns3:atemp>
            <ns3:hr>139</ns3:hr>
          </ns3:TrackPointExtension>
        </extensions>
      </trkpt>
      <trkpt lat="-22.0394923724234104156494140625" lon="166.45566632039844989776611328125">
        <ele>908</ele>
        <time>2016-08-12T21:52:34.000Z</time>
        <extensions>
          <ns3:TrackPointExtension>
            <ns3:atemp>18.0</ns3:atemp>
            <ns3:hr>138</ns3:hr>
          </ns3:TrackPointExtension>
        </extensions>
      </trkpt>
      <trkpt lat="-22.03949932940304279327392578125" lon="166.45564419217407703399658203125">
        <ele>908.4000244140625</ele>
        <time>2016-08-12T21:52:35.000Z</time>
        <extensions>
          <ns3:TrackPointExtension>
            <ns3:atemp>18.0</ns3:atemp>
            <ns3:hr>138</ns3:hr>
          </ns3:TrackPointExtension>
        </extensions>
      </trkpt>
      <trkpt lat="-22.0395158417522907257080078125" lon="166.45562239922583103179931640625">
        <ele>909</ele>
        <time>2016-08-12T21:52:36.000Z</time>
        <extensions>
          <ns3:TrackPointExtension>
            <ns3:atemp>18.0</ns3:atemp>
            <ns3:hr>139</ns3:hr>
          </ns3:TrackPointExtension>
        </extensions>
      </trkpt>
      <trkpt lat="-22.03952841460704803466796875" lon="166.45560546778142452239990234375">
        <ele>908.4000244140625</ele>
        <time>2016-08-12T21:52:37.000Z</time>
        <extensions>
          <ns3:TrackPointExtension>
            <ns3:atemp>18.0</ns3:atemp>
            <ns3:hr>138</ns3:hr>
          </ns3:TrackPointExtension>
        </extensions>
      </trkpt>
      <trkpt lat="-22.0395438373088836669921875" lon="166.4555876143276691436767578125">
        <ele>907.5999755859375</ele>
        <time>2016-08-12T21:52:38.000Z</time>
        <extensions>
          <ns3:TrackPointExtension>
            <ns3:atemp>18.0</ns3:atemp>
            <ns3:hr>139</ns3:hr>
          </ns3:TrackPointExtension>
        </extensions>
      </trkpt>
      <trkpt lat="-22.0395599305629730224609375" lon="166.4555718563497066497802734375">
        <ele>907.5999755859375</ele>
        <time>2016-08-12T21:52:39.000Z</time>
        <extensions>
          <ns3:TrackPointExtension>
            <ns3:atemp>18.0</ns3:atemp>
            <ns3:hr>138</ns3:hr>
          </ns3:TrackPointExtension>
        </extensions>
      </trkpt>
      <trkpt lat="-22.03957577235996723175048828125" lon="166.45556389354169368743896484375">
        <ele>908.5999755859375</ele>
        <time>2016-08-12T21:52:40.000Z</time>
        <extensions>
          <ns3:TrackPointExtension>
            <ns3:atemp>18.0</ns3:atemp>
            <ns3:hr>139</ns3:hr>
          </ns3:TrackPointExtension>
        </extensions>
      </trkpt>
      <trkpt lat="-22.03959412872791290283203125" lon="166.4555648155510425567626953125">
        <ele>908.79998779296875</ele>
        <time>2016-08-12T21:52:41.000Z</time>
        <extensions>
          <ns3:TrackPointExtension>
            <ns3:atemp>18.0</ns3:atemp>
            <ns3:hr>138</ns3:hr>
          </ns3:TrackPointExtension>
        </extensions>
      </trkpt>
      <trkpt lat="-22.03961349092423915863037109375" lon="166.4555691741406917572021484375">
        <ele>908.20001220703125</ele>
        <time>2016-08-12T21:52:42.000Z</time>
        <extensions>
          <ns3:TrackPointExtension>
            <ns3:atemp>18.0</ns3:atemp>
            <ns3:hr>138</ns3:hr>
          </ns3:TrackPointExtension>
        </extensions>
      </trkpt>
      <trkpt lat="-22.039636708796024322509765625" lon="166.45557881332933902740478515625">
        <ele>908</ele>
        <time>2016-08-12T21:52:43.000Z</time>
        <extensions>
          <ns3:TrackPointExtension>
            <ns3:atemp>18.0</ns3:atemp>
            <ns3:hr>138</ns3:hr>
          </ns3:TrackPointExtension>
        </extensions>
      </trkpt>
      <trkpt lat="-22.039664871990680694580078125" lon="166.45558811724185943603515625">
        <ele>908.5999755859375</ele>
        <time>2016-08-12T21:52:44.000Z</time>
        <extensions>
          <ns3:TrackPointExtension>
            <ns3:atemp>18.0</ns3:atemp>
            <ns3:hr>138</ns3:hr>
          </ns3:TrackPointExtension>
        </extensions>
      </trkpt>
      <trkpt lat="-22.03969043679535388946533203125" lon="166.45559507422149181365966796875">
        <ele>910</ele>
        <time>2016-08-12T21:52:45.000Z</time>
        <extensions>
          <ns3:TrackPointExtension>
            <ns3:atemp>18.0</ns3:atemp>
            <ns3:hr>139</ns3:hr>
          </ns3:TrackPointExtension>
        </extensions>
      </trkpt>
      <trkpt lat="-22.03971608541905879974365234375" lon="166.45560312084853649139404296875">
        <ele>912.4000244140625</ele>
        <time>2016-08-12T21:52:46.000Z</time>
        <extensions>
          <ns3:TrackPointExtension>
            <ns3:atemp>18.0</ns3:atemp>
            <ns3:hr>138</ns3:hr>
          </ns3:TrackPointExtension>
        </extensions>
      </trkpt>
      <trkpt lat="-22.03973720781505107879638671875" lon="166.45561368204653263092041015625">
        <ele>916.20001220703125</ele>
        <time>2016-08-12T21:52:47.000Z</time>
        <extensions>
          <ns3:TrackPointExtension>
            <ns3:atemp>18.0</ns3:atemp>
            <ns3:hr>138</ns3:hr>
          </ns3:TrackPointExtension>
        </extensions>
      </trkpt>
      <trkpt lat="-22.03975765965878963470458984375" lon="166.45562357269227504730224609375">
        <ele>919</ele>
        <time>2016-08-12T21:52:48.000Z</time>
        <extensions>
          <ns3:TrackPointExtension>
            <ns3:atemp>18.0</ns3:atemp>
            <ns3:hr>138</ns3:hr>
          </ns3:TrackPointExtension>
        </extensions>
      </trkpt>
      <trkpt lat="-22.03977786004543304443359375" lon="166.45563296042382717132568359375">
        <ele>918.20001220703125</ele>
        <time>2016-08-12T21:52:49.000Z</time>
        <extensions>
          <ns3:TrackPointExtension>
            <ns3:atemp>18.0</ns3:atemp>
            <ns3:hr>138</ns3:hr>
          </ns3:TrackPointExtension>
        </extensions>
      </trkpt>
      <trkpt lat="-22.0397978089749813079833984375" lon="166.45564000122249126434326171875">
        <ele>917.5999755859375</ele>
        <time>2016-08-12T21:52:50.000Z</time>
        <extensions>
          <ns3:TrackPointExtension>
            <ns3:atemp>18.0</ns3:atemp>
            <ns3:hr>138</ns3:hr>
          </ns3:TrackPointExtension>
        </extensions>
      </trkpt>
      <trkpt lat="-22.03981935046613216400146484375" lon="166.4556469582021236419677734375">
        <ele>917.5999755859375</ele>
        <time>2016-08-12T21:52:51.000Z</time>
        <extensions>
          <ns3:TrackPointExtension>
            <ns3:atemp>18.0</ns3:atemp>
            <ns3:hr>138</ns3:hr>
          </ns3:TrackPointExtension>
        </extensions>
      </trkpt>
      <trkpt lat="-22.039840556681156158447265625" lon="166.45565257407724857330322265625">
        <ele>917.79998779296875</ele>
        <time>2016-08-12T21:52:52.000Z</time>
        <extensions>
          <ns3:TrackPointExtension>
            <ns3:atemp>18.0</ns3:atemp>
            <ns3:hr>138</ns3:hr>
          </ns3:TrackPointExtension>
        </extensions>
      </trkpt>
      <trkpt lat="-22.03986142762005329132080078125" lon="166.45565190352499485015869140625">
        <ele>917.20001220703125</ele>
        <time>2016-08-12T21:52:53.000Z</time>
        <extensions>
          <ns3:TrackPointExtension>
            <ns3:atemp>18.0</ns3:atemp>
            <ns3:hr>138</ns3:hr>
          </ns3:TrackPointExtension>
        </extensions>
      </trkpt>
      <trkpt lat="-22.0398859865963459014892578125" lon="166.4556459523737430572509765625">
        <ele>916.79998779296875</ele>
        <time>2016-08-12T21:52:54.000Z</time>
        <extensions>
          <ns3:TrackPointExtension>
            <ns3:atemp>18.0</ns3:atemp>
            <ns3:hr>138</ns3:hr>
          </ns3:TrackPointExtension>
        </extensions>
      </trkpt>
      <trkpt lat="-22.039908953011035919189453125" lon="166.45563866011798381805419921875">
        <ele>916.79998779296875</ele>
        <time>2016-08-12T21:52:55.000Z</time>
        <extensions>
          <ns3:TrackPointExtension>
            <ns3:atemp>18.0</ns3:atemp>
            <ns3:hr>138</ns3:hr>
          </ns3:TrackPointExtension>
        </extensions>
      </trkpt>
      <trkpt lat="-22.0399302430450916290283203125" lon="166.4556288532912731170654296875">
        <ele>917</ele>
        <time>2016-08-12T21:52:56.000Z</time>
        <extensions>
          <ns3:TrackPointExtension>
            <ns3:atemp>18.0</ns3:atemp>
            <ns3:hr>138</ns3:hr>
          </ns3:TrackPointExtension>
        </extensions>
      </trkpt>
      <trkpt lat="-22.0399513654410839080810546875" lon="166.45561091601848602294921875">
        <ele>916.79998779296875</ele>
        <time>2016-08-12T21:52:57.000Z</time>
        <extensions>
          <ns3:TrackPointExtension>
            <ns3:atemp>18.0</ns3:atemp>
            <ns3:hr>137</ns3:hr>
          </ns3:TrackPointExtension>
        </extensions>
      </trkpt>
      <trkpt lat="-22.03996972180902957916259765625" lon="166.455592811107635498046875">
        <ele>916.5999755859375</ele>
        <time>2016-08-12T21:52:58.000Z</time>
        <extensions>
          <ns3:TrackPointExtension>
            <ns3:atemp>18.0</ns3:atemp>
            <ns3:hr>137</ns3:hr>
          </ns3:TrackPointExtension>
        </extensions>
      </trkpt>
      <trkpt lat="-22.03998832963407039642333984375" lon="166.4555755443871021270751953125">
        <ele>917.20001220703125</ele>
        <time>2016-08-12T21:52:59.000Z</time>
        <extensions>
          <ns3:TrackPointExtension>
            <ns3:atemp>18.0</ns3:atemp>
            <ns3:hr>137</ns3:hr>
          </ns3:TrackPointExtension>
        </extensions>
      </trkpt>
      <trkpt lat="-22.0400105416774749755859375" lon="166.4555564336478710174560546875">
        <ele>917.5999755859375</ele>
        <time>2016-08-12T21:53:00.000Z</time>
        <extensions>
          <ns3:TrackPointExtension>
            <ns3:atemp>18.0</ns3:atemp>
            <ns3:hr>137</ns3:hr>
          </ns3:TrackPointExtension>
        </extensions>
      </trkpt>
      <trkpt lat="-22.04002940095961093902587890625" lon="166.45553908310830593109130859375">
        <ele>917.4000244140625</ele>
        <time>2016-08-12T21:53:01.000Z</time>
        <extensions>
          <ns3:TrackPointExtension>
            <ns3:atemp>18.0</ns3:atemp>
            <ns3:hr>137</ns3:hr>
          </ns3:TrackPointExtension>
        </extensions>
      </trkpt>
      <trkpt lat="-22.0400506071746349334716796875" lon="166.455518715083599090576171875">
        <ele>917</ele>
        <time>2016-08-12T21:53:02.000Z</time>
        <extensions>
          <ns3:TrackPointExtension>
            <ns3:atemp>18.0</ns3:atemp>
            <ns3:hr>137</ns3:hr>
          </ns3:TrackPointExtension>
        </extensions>
      </trkpt>
      <trkpt lat="-22.04007047228515148162841796875" lon="166.45550429821014404296875">
        <ele>917.20001220703125</ele>
        <time>2016-08-12T21:53:03.000Z</time>
        <extensions>
          <ns3:TrackPointExtension>
            <ns3:atemp>18.0</ns3:atemp>
            <ns3:hr>137</ns3:hr>
          </ns3:TrackPointExtension>
        </extensions>
      </trkpt>
      <trkpt lat="-22.04009092412889003753662109375" lon="166.4554967544972896575927734375">
        <ele>917.20001220703125</ele>
        <time>2016-08-12T21:53:04.000Z</time>
        <extensions>
          <ns3:TrackPointExtension>
            <ns3:atemp>18.0</ns3:atemp>
            <ns3:hr>136</ns3:hr>
          </ns3:TrackPointExtension>
        </extensions>
      </trkpt>
      <trkpt lat="-22.04011556692421436309814453125" lon="166.455489881336688995361328125">
        <ele>917.20001220703125</ele>
        <time>2016-08-12T21:53:05.000Z</time>
        <extensions>
          <ns3:TrackPointExtension>
            <ns3:atemp>18.0</ns3:atemp>
            <ns3:hr>136</ns3:hr>
          </ns3:TrackPointExtension>
        </extensions>
      </trkpt>
      <trkpt lat="-22.04013702459633350372314453125" lon="166.45548644475638866424560546875">
        <ele>917</ele>
        <time>2016-08-12T21:53:06.000Z</time>
        <extensions>
          <ns3:TrackPointExtension>
            <ns3:atemp>18.0</ns3:atemp>
            <ns3:hr>136</ns3:hr>
          </ns3:TrackPointExtension>
        </extensions>
      </trkpt>
      <trkpt lat="-22.0401609130203723907470703125" lon="166.4554841816425323486328125">
        <ele>916.20001220703125</ele>
        <time>2016-08-12T21:53:07.000Z</time>
        <extensions>
          <ns3:TrackPointExtension>
            <ns3:atemp>18.0</ns3:atemp>
            <ns3:hr>136</ns3:hr>
          </ns3:TrackPointExtension>
        </extensions>
      </trkpt>
      <trkpt lat="-22.040186226367950439453125" lon="166.45548485219478607177734375">
        <ele>915.79998779296875</ele>
        <time>2016-08-12T21:53:08.000Z</time>
        <extensions>
          <ns3:TrackPointExtension>
            <ns3:atemp>18.0</ns3:atemp>
            <ns3:hr>137</ns3:hr>
          </ns3:TrackPointExtension>
        </extensions>
      </trkpt>
      <trkpt lat="-22.040211372077465057373046875" lon="166.4554893784224987030029296875">
        <ele>916.5999755859375</ele>
        <time>2016-08-12T21:53:09.000Z</time>
        <extensions>
          <ns3:TrackPointExtension>
            <ns3:atemp>18.0</ns3:atemp>
            <ns3:hr>137</ns3:hr>
          </ns3:TrackPointExtension>
        </extensions>
      </trkpt>
      <trkpt lat="-22.040237523615360260009765625" lon="166.45549734123051166534423828125">
        <ele>917.4000244140625</ele>
        <time>2016-08-12T21:53:10.000Z</time>
        <extensions>
          <ns3:TrackPointExtension>
            <ns3:atemp>18.0</ns3:atemp>
            <ns3:hr>137</ns3:hr>
          </ns3:TrackPointExtension>
        </extensions>
      </trkpt>
      <trkpt lat="-22.04026275314390659332275390625" lon="166.45550630986690521240234375">
        <ele>917.4000244140625</ele>
        <time>2016-08-12T21:53:11.000Z</time>
        <extensions>
          <ns3:TrackPointExtension>
            <ns3:atemp>18.0</ns3:atemp>
            <ns3:hr>137</ns3:hr>
          </ns3:TrackPointExtension>
        </extensions>
      </trkpt>
      <trkpt lat="-22.04028613865375518798828125" lon="166.45551628433167934417724609375">
        <ele>916.5999755859375</ele>
        <time>2016-08-12T21:53:12.000Z</time>
        <extensions>
          <ns3:TrackPointExtension>
            <ns3:atemp>18.0</ns3:atemp>
            <ns3:hr>137</ns3:hr>
          </ns3:TrackPointExtension>
        </extensions>
      </trkpt>
      <trkpt lat="-22.0403057523071765899658203125" lon="166.45552684552967548370361328125">
        <ele>916.4000244140625</ele>
        <time>2016-08-12T21:53:13.000Z</time>
        <extensions>
          <ns3:TrackPointExtension>
            <ns3:atemp>18.0</ns3:atemp>
            <ns3:hr>137</ns3:hr>
          </ns3:TrackPointExtension>
        </extensions>
      </trkpt>
      <trkpt lat="-22.04032276757061481475830078125" lon="166.455539166927337646484375">
        <ele>917.20001220703125</ele>
        <time>2016-08-12T21:53:14.000Z</time>
        <extensions>
          <ns3:TrackPointExtension>
            <ns3:atemp>18.0</ns3:atemp>
            <ns3:hr>137</ns3:hr>
          </ns3:TrackPointExtension>
        </extensions>
      </trkpt>
      <trkpt lat="-22.0403419621288776397705078125" lon="166.4555544219911098480224609375">
        <ele>917.79998779296875</ele>
        <time>2016-08-12T21:53:15.000Z</time>
        <extensions>
          <ns3:TrackPointExtension>
            <ns3:atemp>18.0</ns3:atemp>
            <ns3:hr>137</ns3:hr>
          </ns3:TrackPointExtension>
        </extensions>
      </trkpt>
      <trkpt lat="-22.0403577201068401336669921875" lon="166.45556976087391376495361328125">
        <ele>917.20001220703125</ele>
        <time>2016-08-12T21:53:16.000Z</time>
        <extensions>
          <ns3:TrackPointExtension>
            <ns3:atemp>18.0</ns3:atemp>
            <ns3:hr>137</ns3:hr>
          </ns3:TrackPointExtension>
        </extensions>
      </trkpt>
      <trkpt lat="-22.04037523828446865081787109375" lon="166.45558543503284454345703125">
        <ele>916.79998779296875</ele>
        <time>2016-08-12T21:53:17.000Z</time>
        <extensions>
          <ns3:TrackPointExtension>
            <ns3:atemp>18.0</ns3:atemp>
            <ns3:hr>138</ns3:hr>
          </ns3:TrackPointExtension>
        </extensions>
      </trkpt>
      <trkpt lat="-22.04039485193789005279541015625" lon="166.45560379140079021453857421875">
        <ele>917.20001220703125</ele>
        <time>2016-08-12T21:53:18.000Z</time>
        <extensions>
          <ns3:TrackPointExtension>
            <ns3:atemp>18.0</ns3:atemp>
            <ns3:hr>137</ns3:hr>
          </ns3:TrackPointExtension>
        </extensions>
      </trkpt>
      <trkpt lat="-22.04041496850550174713134765625" lon="166.4556204713881015777587890625">
        <ele>917.79998779296875</ele>
        <time>2016-08-12T21:53:19.000Z</time>
        <extensions>
          <ns3:TrackPointExtension>
            <ns3:atemp>18.0</ns3:atemp>
            <ns3:hr>137</ns3:hr>
          </ns3:TrackPointExtension>
        </extensions>
      </trkpt>
      <trkpt lat="-22.04043894074857234954833984375" lon="166.45563346333801746368408203125">
        <ele>918</ele>
        <time>2016-08-12T21:53:20.000Z</time>
        <extensions>
          <ns3:TrackPointExtension>
            <ns3:atemp>18.0</ns3:atemp>
            <ns3:hr>137</ns3:hr>
          </ns3:TrackPointExtension>
        </extensions>
      </trkpt>
      <trkpt lat="-22.0404609851539134979248046875" lon="166.45564067177474498748779296875">
        <ele>917.5999755859375</ele>
        <time>2016-08-12T21:53:21.000Z</time>
        <extensions>
          <ns3:TrackPointExtension>
            <ns3:atemp>18.0</ns3:atemp>
            <ns3:hr>138</ns3:hr>
          </ns3:TrackPointExtension>
        </extensions>
      </trkpt>
      <trkpt lat="-22.04048336483538150787353515625" lon="166.45564050413668155670166015625">
        <ele>917.4000244140625</ele>
        <time>2016-08-12T21:53:22.000Z</time>
        <extensions>
          <ns3:TrackPointExtension>
            <ns3:atemp>18.0</ns3:atemp>
            <ns3:hr>137</ns3:hr>
          </ns3:TrackPointExtension>
        </extensions>
      </trkpt>
      <trkpt lat="-22.04050683416426181793212890625" lon="166.45563664846122264862060546875">
        <ele>918</ele>
        <time>2016-08-12T21:53:23.000Z</time>
        <extensions>
          <ns3:TrackPointExtension>
            <ns3:atemp>18.0</ns3:atemp>
            <ns3:hr>138</ns3:hr>
          </ns3:TrackPointExtension>
        </extensions>
      </trkpt>
      <trkpt lat="-22.04053097404539585113525390625" lon="166.45563237369060516357421875">
        <ele>918.5999755859375</ele>
        <time>2016-08-12T21:53:24.000Z</time>
        <extensions>
          <ns3:TrackPointExtension>
            <ns3:atemp>18.0</ns3:atemp>
            <ns3:hr>138</ns3:hr>
          </ns3:TrackPointExtension>
        </extensions>
      </trkpt>
      <trkpt lat="-22.04055838286876678466796875" lon="166.45562910474836826324462890625">
        <ele>918.5999755859375</ele>
        <time>2016-08-12T21:53:25.000Z</time>
        <extensions>
          <ns3:TrackPointExtension>
            <ns3:atemp>18.0</ns3:atemp>
            <ns3:hr>138</ns3:hr>
          </ns3:TrackPointExtension>
        </extensions>
      </trkpt>
      <trkpt lat="-22.0405830256640911102294921875" lon="166.45562876947224140167236328125">
        <ele>918</ele>
        <time>2016-08-12T21:53:26.000Z</time>
        <extensions>
          <ns3:TrackPointExtension>
            <ns3:atemp>18.0</ns3:atemp>
            <ns3:hr>138</ns3:hr>
          </ns3:TrackPointExtension>
        </extensions>
      </trkpt>
      <trkpt lat="-22.0406078360974788665771484375" lon="166.45563228987157344818115234375">
        <ele>918.20001220703125</ele>
        <time>2016-08-12T21:53:27.000Z</time>
        <extensions>
          <ns3:TrackPointExtension>
            <ns3:atemp>18.0</ns3:atemp>
            <ns3:hr>138</ns3:hr>
          </ns3:TrackPointExtension>
        </extensions>
      </trkpt>
      <trkpt lat="-22.04063390381634235382080078125" lon="166.45563346333801746368408203125">
        <ele>918.5999755859375</ele>
        <time>2016-08-12T21:53:28.000Z</time>
        <extensions>
          <ns3:TrackPointExtension>
            <ns3:atemp>18.0</ns3:atemp>
            <ns3:hr>138</ns3:hr>
          </ns3:TrackPointExtension>
        </extensions>
      </trkpt>
      <trkpt lat="-22.04065770842134952545166015625" lon="166.45563899539411067962646484375">
        <ele>918.79998779296875</ele>
        <time>2016-08-12T21:53:29.000Z</time>
        <extensions>
          <ns3:TrackPointExtension>
            <ns3:atemp>17.0</ns3:atemp>
            <ns3:hr>138</ns3:hr>
          </ns3:TrackPointExtension>
        </extensions>
      </trkpt>
      <trkpt lat="-22.040684111416339874267578125" lon="166.4556466229259967803955078125">
        <ele>918</ele>
        <time>2016-08-12T21:53:30.000Z</time>
        <extensions>
          <ns3:TrackPointExtension>
            <ns3:atemp>17.0</ns3:atemp>
            <ns3:hr>138</ns3:hr>
          </ns3:TrackPointExtension>
        </extensions>
      </trkpt>
      <trkpt lat="-22.0407114364206790924072265625" lon="166.455655507743358612060546875">
        <ele>918</ele>
        <time>2016-08-12T21:53:31.000Z</time>
        <extensions>
          <ns3:TrackPointExtension>
            <ns3:atemp>17.0</ns3:atemp>
            <ns3:hr>138</ns3:hr>
          </ns3:TrackPointExtension>
        </extensions>
      </trkpt>
      <trkpt lat="-22.04073482193052768707275390625" lon="166.45566263236105442047119140625">
        <ele>918.5999755859375</ele>
        <time>2016-08-12T21:53:32.000Z</time>
        <extensions>
          <ns3:TrackPointExtension>
            <ns3:atemp>17.0</ns3:atemp>
            <ns3:hr>139</ns3:hr>
          </ns3:TrackPointExtension>
        </extensions>
      </trkpt>
      <trkpt lat="-22.04076047055423259735107421875" lon="166.455662213265895843505859375">
        <ele>918.5999755859375</ele>
        <time>2016-08-12T21:53:33.000Z</time>
        <extensions>
          <ns3:TrackPointExtension>
            <ns3:atemp>17.0</ns3:atemp>
            <ns3:hr>138</ns3:hr>
          </ns3:TrackPointExtension>
        </extensions>
      </trkpt>
      <trkpt lat="-22.04078502953052520751953125" lon="166.45565575920045375823974609375">
        <ele>918.4000244140625</ele>
        <time>2016-08-12T21:53:34.000Z</time>
        <extensions>
          <ns3:TrackPointExtension>
            <ns3:atemp>17.0</ns3:atemp>
            <ns3:hr>139</ns3:hr>
          </ns3:TrackPointExtension>
        </extensions>
      </trkpt>
      <trkpt lat="-22.04080916941165924072265625" lon="166.45564637146890163421630859375">
        <ele>918.79998779296875</ele>
        <time>2016-08-12T21:53:35.000Z</time>
        <extensions>
          <ns3:TrackPointExtension>
            <ns3:atemp>17.0</ns3:atemp>
            <ns3:hr>139</ns3:hr>
          </ns3:TrackPointExtension>
        </extensions>
      </trkpt>
      <trkpt lat="-22.0408328063786029815673828125" lon="166.45563178695738315582275390625">
        <ele>919</ele>
        <time>2016-08-12T21:53:36.000Z</time>
        <extensions>
          <ns3:TrackPointExtension>
            <ns3:atemp>17.0</ns3:atemp>
            <ns3:hr>139</ns3:hr>
          </ns3:TrackPointExtension>
        </extensions>
      </trkpt>
      <trkpt lat="-22.04085501842200756072998046875" lon="166.4556181244552135467529296875">
        <ele>919</ele>
        <time>2016-08-12T21:53:37.000Z</time>
        <extensions>
          <ns3:TrackPointExtension>
            <ns3:atemp>17.0</ns3:atemp>
            <ns3:hr>138</ns3:hr>
          </ns3:TrackPointExtension>
        </extensions>
      </trkpt>
      <trkpt lat="-22.040877230465412139892578125" lon="166.45560228265821933746337890625">
        <ele>918.79998779296875</ele>
        <time>2016-08-12T21:53:38.000Z</time>
        <extensions>
          <ns3:TrackPointExtension>
            <ns3:atemp>17.0</ns3:atemp>
            <ns3:hr>139</ns3:hr>
          </ns3:TrackPointExtension>
        </extensions>
      </trkpt>
      <trkpt lat="-22.04089877195656299591064453125" lon="166.45558250136673450469970703125">
        <ele>919.4000244140625</ele>
        <time>2016-08-12T21:53:39.000Z</time>
        <extensions>
          <ns3:TrackPointExtension>
            <ns3:atemp>17.0</ns3:atemp>
            <ns3:hr>139</ns3:hr>
          </ns3:TrackPointExtension>
        </extensions>
      </trkpt>
      <trkpt lat="-22.04091888852417469024658203125" lon="166.45556523464620113372802734375">
        <ele>919.4000244140625</ele>
        <time>2016-08-12T21:53:40.000Z</time>
        <extensions>
          <ns3:TrackPointExtension>
            <ns3:atemp>17.0</ns3:atemp>
            <ns3:hr>139</ns3:hr>
          </ns3:TrackPointExtension>
        </extensions>
      </trkpt>
      <trkpt lat="-22.04094453714787960052490234375" lon="166.455553583800792694091796875">
        <ele>919</ele>
        <time>2016-08-12T21:53:41.000Z</time>
        <extensions>
          <ns3:TrackPointExtension>
            <ns3:atemp>17.0</ns3:atemp>
            <ns3:hr>139</ns3:hr>
          </ns3:TrackPointExtension>
        </extensions>
      </trkpt>
      <trkpt lat="-22.0409662462770938873291015625" lon="166.4555450342595577239990234375">
        <ele>919.20001220703125</ele>
        <time>2016-08-12T21:53:42.000Z</time>
        <extensions>
          <ns3:TrackPointExtension>
            <ns3:atemp>17.0</ns3:atemp>
            <ns3:hr>138</ns3:hr>
          </ns3:TrackPointExtension>
        </extensions>
      </trkpt>
      <trkpt lat="-22.040985859930515289306640625" lon="166.45553690381348133087158203125">
        <ele>919.4000244140625</ele>
        <time>2016-08-12T21:53:43.000Z</time>
        <extensions>
          <ns3:TrackPointExtension>
            <ns3:atemp>17.0</ns3:atemp>
            <ns3:hr>139</ns3:hr>
          </ns3:TrackPointExtension>
        </extensions>
      </trkpt>
      <trkpt lat="-22.0410081557929515838623046875" lon="166.45553036592900753021240234375">
        <ele>919.20001220703125</ele>
        <time>2016-08-12T21:53:44.000Z</time>
        <extensions>
          <ns3:TrackPointExtension>
            <ns3:atemp>17.0</ns3:atemp>
            <ns3:hr>138</ns3:hr>
          </ns3:TrackPointExtension>
        </extensions>
      </trkpt>
      <trkpt lat="-22.0410333015024662017822265625" lon="166.45552642643451690673828125">
        <ele>918.4000244140625</ele>
        <time>2016-08-12T21:53:45.000Z</time>
        <extensions>
          <ns3:TrackPointExtension>
            <ns3:atemp>17.0</ns3:atemp>
            <ns3:hr>138</ns3:hr>
          </ns3:TrackPointExtension>
        </extensions>
      </trkpt>
      <trkpt lat="-22.0410601235926151275634765625" lon="166.455528773367404937744140625">
        <ele>918.79998779296875</ele>
        <time>2016-08-12T21:53:46.000Z</time>
        <extensions>
          <ns3:TrackPointExtension>
            <ns3:atemp>17.0</ns3:atemp>
            <ns3:hr>138</ns3:hr>
          </ns3:TrackPointExtension>
        </extensions>
      </trkpt>
      <trkpt lat="-22.04108485020697116851806640625" lon="166.45553170703351497650146484375">
        <ele>919.20001220703125</ele>
        <time>2016-08-12T21:53:47.000Z</time>
        <extensions>
          <ns3:TrackPointExtension>
            <ns3:atemp>17.0</ns3:atemp>
            <ns3:hr>139</ns3:hr>
          </ns3:TrackPointExtension>
        </extensions>
      </trkpt>
      <trkpt lat="-22.04110831953585147857666015625" lon="166.45553455688059329986572265625">
        <ele>919</ele>
        <time>2016-08-12T21:53:48.000Z</time>
        <extensions>
          <ns3:TrackPointExtension>
            <ns3:atemp>17.0</ns3:atemp>
            <ns3:hr>139</ns3:hr>
          </ns3:TrackPointExtension>
        </extensions>
      </trkpt>
      <trkpt lat="-22.04113128595054149627685546875" lon="166.45553606562316417694091796875">
        <ele>918.79998779296875</ele>
        <time>2016-08-12T21:53:49.000Z</time>
        <extensions>
          <ns3:TrackPointExtension>
            <ns3:atemp>17.0</ns3:atemp>
            <ns3:hr>138</ns3:hr>
          </ns3:TrackPointExtension>
        </extensions>
      </trkpt>
      <trkpt lat="-22.0411536656320095062255859375" lon="166.45553849637508392333984375">
        <ele>919.4000244140625</ele>
        <time>2016-08-12T21:53:50.000Z</time>
        <extensions>
          <ns3:TrackPointExtension>
            <ns3:atemp>17.0</ns3:atemp>
            <ns3:hr>138</ns3:hr>
          </ns3:TrackPointExtension>
        </extensions>
      </trkpt>
      <trkpt lat="-22.0411771349608898162841796875" lon="166.45554629154503345489501953125">
        <ele>919.20001220703125</ele>
        <time>2016-08-12T21:53:51.000Z</time>
        <extensions>
          <ns3:TrackPointExtension>
            <ns3:atemp>17.0</ns3:atemp>
            <ns3:hr>138</ns3:hr>
          </ns3:TrackPointExtension>
        </extensions>
      </trkpt>
      <trkpt lat="-22.041200436651706695556640625" lon="166.45555735565721988677978515625">
        <ele>918.4000244140625</ele>
        <time>2016-08-12T21:53:52.000Z</time>
        <extensions>
          <ns3:TrackPointExtension>
            <ns3:atemp>17.0</ns3:atemp>
            <ns3:hr>138</ns3:hr>
          </ns3:TrackPointExtension>
        </extensions>
      </trkpt>
      <trkpt lat="-22.04121963120996952056884765625" lon="166.4555644802749156951904296875">
        <ele>918.4000244140625</ele>
        <time>2016-08-12T21:53:53.000Z</time>
        <extensions>
          <ns3:TrackPointExtension>
            <ns3:atemp>17.0</ns3:atemp>
            <ns3:hr>138</ns3:hr>
          </ns3:TrackPointExtension>
        </extensions>
      </trkpt>
      <trkpt lat="-22.04139263369143009185791015625" lon="166.45566564984619617462158203125">
        <ele>918.4000244140625</ele>
        <time>2016-08-12T21:54:01.000Z</time>
        <extensions>
          <ns3:TrackPointExtension>
            <ns3:atemp>17.0</ns3:atemp>
          </ns3:TrackPointExtension>
        </extensions>
      </trkpt>
      <trkpt lat="-22.04159195534884929656982421875" lon="166.4557282626628875732421875">
        <ele>918.4000244140625</ele>
        <time>2016-08-12T21:54:09.000Z</time>
        <extensions>
          <ns3:TrackPointExtension>
            <ns3:atemp>17.0</ns3:atemp>
            <ns3:hr>137</ns3:hr>
          </ns3:TrackPointExtension>
        </extensions>
      </trkpt>
      <trkpt lat="-22.0416166819632053375244140625" lon="166.4557274244725704193115234375">
        <ele>918</ele>
        <time>2016-08-12T21:54:10.000Z</time>
        <extensions>
          <ns3:TrackPointExtension>
            <ns3:atemp>17.0</ns3:atemp>
            <ns3:hr>137</ns3:hr>
          </ns3:TrackPointExtension>
        </extensions>
      </trkpt>
      <trkpt lat="-22.04164593480527400970458984375" lon="166.455717869102954864501953125">
        <ele>917.79998779296875</ele>
        <time>2016-08-12T21:54:11.000Z</time>
        <extensions>
          <ns3:TrackPointExtension>
            <ns3:atemp>17.0</ns3:atemp>
            <ns3:hr>136</ns3:hr>
          </ns3:TrackPointExtension>
        </extensions>
      </trkpt>
      <trkpt lat="-22.04167208634316921234130859375" lon="166.4557036198675632476806640625">
        <ele>918.20001220703125</ele>
        <time>2016-08-12T21:54:12.000Z</time>
        <extensions>
          <ns3:TrackPointExtension>
            <ns3:atemp>17.0</ns3:atemp>
            <ns3:hr>136</ns3:hr>
          </ns3:TrackPointExtension>
        </extensions>
      </trkpt>
      <trkpt lat="-22.0416922867298126220703125" lon="166.455684341490268707275390625">
        <ele>918.5999755859375</ele>
        <time>2016-08-12T21:54:13.000Z</time>
        <extensions>
          <ns3:TrackPointExtension>
            <ns3:atemp>17.0</ns3:atemp>
            <ns3:hr>136</ns3:hr>
          </ns3:TrackPointExtension>
        </extensions>
      </trkpt>
      <trkpt lat="-22.0417083799839019775390625" lon="166.45566028542816638946533203125">
        <ele>918.20001220703125</ele>
        <time>2016-08-12T21:54:14.000Z</time>
        <extensions>
          <ns3:TrackPointExtension>
            <ns3:atemp>17.0</ns3:atemp>
            <ns3:hr>137</ns3:hr>
          </ns3:TrackPointExtension>
        </extensions>
      </trkpt>
      <trkpt lat="-22.041709721088409423828125" lon="166.45563061349093914031982421875">
        <ele>918.20001220703125</ele>
        <time>2016-08-12T21:54:15.000Z</time>
        <extensions>
          <ns3:TrackPointExtension>
            <ns3:atemp>17.0</ns3:atemp>
            <ns3:hr>137</ns3:hr>
          </ns3:TrackPointExtension>
        </extensions>
      </trkpt>
      <trkpt lat="-22.041710056364536285400390625" lon="166.45560094155371189117431640625">
        <ele>918.4000244140625</ele>
        <time>2016-08-12T21:54:16.000Z</time>
        <extensions>
          <ns3:TrackPointExtension>
            <ns3:atemp>17.0</ns3:atemp>
            <ns3:hr>137</ns3:hr>
          </ns3:TrackPointExtension>
        </extensions>
      </trkpt>
      <trkpt lat="-22.0417112298309803009033203125" lon="166.45557126961648464202880859375">
        <ele>918.79998779296875</ele>
        <time>2016-08-12T21:54:17.000Z</time>
        <extensions>
          <ns3:TrackPointExtension>
            <ns3:atemp>17.0</ns3:atemp>
            <ns3:hr>137</ns3:hr>
          </ns3:TrackPointExtension>
        </extensions>
      </trkpt>
      <trkpt lat="-22.04171701334416866302490234375" lon="166.455540172755718231201171875">
        <ele>918.79998779296875</ele>
        <time>2016-08-12T21:54:18.000Z</time>
        <extensions>
          <ns3:TrackPointExtension>
            <ns3:atemp>17.0</ns3:atemp>
            <ns3:hr>136</ns3:hr>
          </ns3:TrackPointExtension>
        </extensions>
      </trkpt>
      <trkpt lat="-22.041720114648342132568359375" lon="166.45551293157041072845458984375">
        <ele>918.20001220703125</ele>
        <time>2016-08-12T21:54:19.000Z</time>
        <extensions>
          <ns3:TrackPointExtension>
            <ns3:atemp>17.0</ns3:atemp>
            <ns3:hr>137</ns3:hr>
          </ns3:TrackPointExtension>
        </extensions>
      </trkpt>
      <trkpt lat="-22.04172254540026187896728515625" lon="166.45548493601381778717041015625">
        <ele>918.4000244140625</ele>
        <time>2016-08-12T21:54:20.000Z</time>
        <extensions>
          <ns3:TrackPointExtension>
            <ns3:atemp>17.0</ns3:atemp>
            <ns3:hr>137</ns3:hr>
          </ns3:TrackPointExtension>
        </extensions>
      </trkpt>
      <trkpt lat="-22.04173092730343341827392578125" lon="166.45545744337141513824462890625">
        <ele>918.79998779296875</ele>
        <time>2016-08-12T21:54:21.000Z</time>
        <extensions>
          <ns3:TrackPointExtension>
            <ns3:atemp>17.0</ns3:atemp>
            <ns3:hr>137</ns3:hr>
          </ns3:TrackPointExtension>
        </extensions>
      </trkpt>
      <trkpt lat="-22.04174282960593700408935546875" lon="166.45542986690998077392578125">
        <ele>918.79998779296875</ele>
        <time>2016-08-12T21:54:22.000Z</time>
        <extensions>
          <ns3:TrackPointExtension>
            <ns3:atemp>17.0</ns3:atemp>
            <ns3:hr>137</ns3:hr>
          </ns3:TrackPointExtension>
        </extensions>
      </trkpt>
      <trkpt lat="-22.04174953512847423553466796875" lon="166.4554005302488803863525390625">
        <ele>918.5999755859375</ele>
        <time>2016-08-12T21:54:23.000Z</time>
        <extensions>
          <ns3:TrackPointExtension>
            <ns3:atemp>17.0</ns3:atemp>
            <ns3:hr>136</ns3:hr>
          </ns3:TrackPointExtension>
        </extensions>
      </trkpt>
      <trkpt lat="-22.04176261089742183685302734375" lon="166.45537278614938259124755859375">
        <ele>918.79998779296875</ele>
        <time>2016-08-12T21:54:24.000Z</time>
        <extensions>
          <ns3:TrackPointExtension>
            <ns3:atemp>17.0</ns3:atemp>
            <ns3:hr>137</ns3:hr>
          </ns3:TrackPointExtension>
        </extensions>
      </trkpt>
      <trkpt lat="-22.04177082516252994537353515625" lon="166.455345712602138519287109375">
        <ele>919</ele>
        <time>2016-08-12T21:54:25.000Z</time>
        <extensions>
          <ns3:TrackPointExtension>
            <ns3:atemp>17.0</ns3:atemp>
            <ns3:hr>137</ns3:hr>
          </ns3:TrackPointExtension>
        </extensions>
      </trkpt>
      <trkpt lat="-22.04178071580827236175537109375" lon="166.45531830377876758575439453125">
        <ele>918.5999755859375</ele>
        <time>2016-08-12T21:54:26.000Z</time>
        <extensions>
          <ns3:TrackPointExtension>
            <ns3:atemp>17.0</ns3:atemp>
            <ns3:hr>137</ns3:hr>
          </ns3:TrackPointExtension>
        </extensions>
      </trkpt>
      <trkpt lat="-22.04178842715919017791748046875" lon="166.45529441535472869873046875">
        <ele>918.20001220703125</ele>
        <time>2016-08-12T21:54:27.000Z</time>
        <extensions>
          <ns3:TrackPointExtension>
            <ns3:atemp>17.0</ns3:atemp>
            <ns3:hr>137</ns3:hr>
          </ns3:TrackPointExtension>
        </extensions>
      </trkpt>
      <trkpt lat="-22.04180468805134296417236328125" lon="166.45527035929262638092041015625">
        <ele>918.79998779296875</ele>
        <time>2016-08-12T21:54:28.000Z</time>
        <extensions>
          <ns3:TrackPointExtension>
            <ns3:atemp>17.0</ns3:atemp>
            <ns3:hr>137</ns3:hr>
          </ns3:TrackPointExtension>
        </extensions>
      </trkpt>
      <trkpt lat="-22.0418210327625274658203125" lon="166.45524688996374607086181640625">
        <ele>919.4000244140625</ele>
        <time>2016-08-12T21:54:29.000Z</time>
        <extensions>
          <ns3:TrackPointExtension>
            <ns3:atemp>17.0</ns3:atemp>
            <ns3:hr>137</ns3:hr>
          </ns3:TrackPointExtension>
        </extensions>
      </trkpt>
      <trkpt lat="-22.04183720983564853668212890625" lon="166.45522375591099262237548828125">
        <ele>919.20001220703125</ele>
        <time>2016-08-12T21:54:30.000Z</time>
        <extensions>
          <ns3:TrackPointExtension>
            <ns3:atemp>17.0</ns3:atemp>
            <ns3:hr>137</ns3:hr>
          </ns3:TrackPointExtension>
        </extensions>
      </trkpt>
      <trkpt lat="-22.041853554546833038330078125" lon="166.4551996998488903045654296875">
        <ele>918.4000244140625</ele>
        <time>2016-08-12T21:54:31.000Z</time>
        <extensions>
          <ns3:TrackPointExtension>
            <ns3:atemp>17.0</ns3:atemp>
            <ns3:hr>136</ns3:hr>
          </ns3:TrackPointExtension>
        </extensions>
      </trkpt>
      <trkpt lat="-22.04186889342963695526123046875" lon="166.45517916418612003326416015625">
        <ele>919</ele>
        <time>2016-08-12T21:54:32.000Z</time>
        <extensions>
          <ns3:TrackPointExtension>
            <ns3:atemp>17.0</ns3:atemp>
            <ns3:hr>137</ns3:hr>
          </ns3:TrackPointExtension>
        </extensions>
      </trkpt>
      <trkpt lat="-22.04188196919858455657958984375" lon="166.45515753887593746185302734375">
        <ele>919.20001220703125</ele>
        <time>2016-08-12T21:54:33.000Z</time>
        <extensions>
          <ns3:TrackPointExtension>
            <ns3:atemp>17.0</ns3:atemp>
            <ns3:hr>136</ns3:hr>
          </ns3:TrackPointExtension>
        </extensions>
      </trkpt>
      <trkpt lat="-22.0418956317007541656494140625" lon="166.4551353268325328826904296875">
        <ele>919</ele>
        <time>2016-08-12T21:54:34.000Z</time>
        <extensions>
          <ns3:TrackPointExtension>
            <ns3:atemp>17.0</ns3:atemp>
            <ns3:hr>137</ns3:hr>
          </ns3:TrackPointExtension>
        </extensions>
      </trkpt>
      <trkpt lat="-22.041906528174877166748046875" lon="166.4551098458468914031982421875">
        <ele>918.20001220703125</ele>
        <time>2016-08-12T21:54:35.000Z</time>
        <extensions>
          <ns3:TrackPointExtension>
            <ns3:atemp>17.0</ns3:atemp>
            <ns3:hr>137</ns3:hr>
          </ns3:TrackPointExtension>
        </extensions>
      </trkpt>
      <trkpt lat="-22.041919939219951629638671875" lon="166.45508495159447193145751953125">
        <ele>918</ele>
        <time>2016-08-12T21:54:36.000Z</time>
        <extensions>
          <ns3:TrackPointExtension>
            <ns3:atemp>17.0</ns3:atemp>
            <ns3:hr>137</ns3:hr>
          </ns3:TrackPointExtension>
        </extensions>
      </trkpt>
      <trkpt lat="-22.0419338531792163848876953125" lon="166.45506131462752819061279296875">
        <ele>918.79998779296875</ele>
        <time>2016-08-12T21:54:37.000Z</time>
        <extensions>
          <ns3:TrackPointExtension>
            <ns3:atemp>17.0</ns3:atemp>
            <ns3:hr>137</ns3:hr>
          </ns3:TrackPointExtension>
        </extensions>
      </trkpt>
      <trkpt lat="-22.0419502817094326019287109375" lon="166.45503826439380645751953125">
        <ele>919</ele>
        <time>2016-08-12T21:54:38.000Z</time>
        <extensions>
          <ns3:TrackPointExtension>
            <ns3:atemp>17.0</ns3:atemp>
            <ns3:hr>137</ns3:hr>
          </ns3:TrackPointExtension>
        </extensions>
      </trkpt>
      <trkpt lat="-22.041967548429965972900390625" lon="166.455018818378448486328125">
        <ele>918.4000244140625</ele>
        <time>2016-08-12T21:54:39.000Z</time>
        <extensions>
          <ns3:TrackPointExtension>
            <ns3:atemp>17.0</ns3:atemp>
            <ns3:hr>137</ns3:hr>
          </ns3:TrackPointExtension>
        </extensions>
      </trkpt>
      <trkpt lat="-22.04198523424565792083740234375" lon="166.45500029437243938446044921875">
        <ele>918.20001220703125</ele>
        <time>2016-08-12T21:54:40.000Z</time>
        <extensions>
          <ns3:TrackPointExtension>
            <ns3:atemp>17.0</ns3:atemp>
            <ns3:hr>138</ns3:hr>
          </ns3:TrackPointExtension>
        </extensions>
      </trkpt>
      <trkpt lat="-22.04200208187103271484375" lon="166.4549790881574153900146484375">
        <ele>919</ele>
        <time>2016-08-12T21:54:41.000Z</time>
        <extensions>
          <ns3:TrackPointExtension>
            <ns3:atemp>17.0</ns3:atemp>
            <ns3:hr>138</ns3:hr>
          </ns3:TrackPointExtension>
        </extensions>
      </trkpt>
      <trkpt lat="-22.04201616346836090087890625" lon="166.4549599774181842803955078125">
        <ele>919.5999755859375</ele>
        <time>2016-08-12T21:54:42.000Z</time>
        <extensions>
          <ns3:TrackPointExtension>
            <ns3:atemp>17.0</ns3:atemp>
            <ns3:hr>138</ns3:hr>
          </ns3:TrackPointExtension>
        </extensions>
      </trkpt>
      <trkpt lat="-22.04203200526535511016845703125" lon="166.454938687384128570556640625">
        <ele>919.5999755859375</ele>
        <time>2016-08-12T21:54:43.000Z</time>
        <extensions>
          <ns3:TrackPointExtension>
            <ns3:atemp>17.0</ns3:atemp>
            <ns3:hr>138</ns3:hr>
          </ns3:TrackPointExtension>
        </extensions>
      </trkpt>
      <trkpt lat="-22.0420478470623493194580078125" lon="166.4549150504171848297119140625">
        <ele>919.5999755859375</ele>
        <time>2016-08-12T21:54:44.000Z</time>
        <extensions>
          <ns3:TrackPointExtension>
            <ns3:atemp>17.0</ns3:atemp>
            <ns3:hr>138</ns3:hr>
          </ns3:TrackPointExtension>
        </extensions>
      </trkpt>
      <trkpt lat="-22.0420597493648529052734375" lon="166.45489065907895565032958984375">
        <ele>919.79998779296875</ele>
        <time>2016-08-12T21:54:45.000Z</time>
        <extensions>
          <ns3:TrackPointExtension>
            <ns3:atemp>17.0</ns3:atemp>
            <ns3:hr>139</ns3:hr>
          </ns3:TrackPointExtension>
        </extensions>
      </trkpt>
      <trkpt lat="-22.0420652814209461212158203125" lon="166.45486257970333099365234375">
        <ele>919.20001220703125</ele>
        <time>2016-08-12T21:54:46.000Z</time>
        <extensions>
          <ns3:TrackPointExtension>
            <ns3:atemp>17.0</ns3:atemp>
            <ns3:hr>139</ns3:hr>
          </ns3:TrackPointExtension>
        </extensions>
      </trkpt>
      <trkpt lat="-22.0420646108686923980712890625" lon="166.45483575761318206787109375">
        <ele>918.5999755859375</ele>
        <time>2016-08-12T21:54:47.000Z</time>
        <extensions>
          <ns3:TrackPointExtension>
            <ns3:atemp>17.0</ns3:atemp>
            <ns3:hr>139</ns3:hr>
          </ns3:TrackPointExtension>
        </extensions>
      </trkpt>
      <trkpt lat="-22.0420625992119312286376953125" lon="166.45480692386627197265625">
        <ele>919</ele>
        <time>2016-08-12T21:54:48.000Z</time>
        <extensions>
          <ns3:TrackPointExtension>
            <ns3:atemp>17.0</ns3:atemp>
            <ns3:hr>139</ns3:hr>
          </ns3:TrackPointExtension>
        </extensions>
      </trkpt>
      <trkpt lat="-22.0420555584132671356201171875" lon="166.4547785930335521697998046875">
        <ele>919.4000244140625</ele>
        <time>2016-08-12T21:54:49.000Z</time>
        <extensions>
          <ns3:TrackPointExtension>
            <ns3:atemp>17.0</ns3:atemp>
            <ns3:hr>139</ns3:hr>
          </ns3:TrackPointExtension>
        </extensions>
      </trkpt>
      <trkpt lat="-22.04204206354916095733642578125" lon="166.454756297171115875244140625">
        <ele>919</ele>
        <time>2016-08-12T21:54:50.000Z</time>
        <extensions>
          <ns3:TrackPointExtension>
            <ns3:atemp>17.0</ns3:atemp>
            <ns3:hr>139</ns3:hr>
          </ns3:TrackPointExtension>
        </extensions>
      </trkpt>
      <trkpt lat="-22.0420297421514987945556640625" lon="166.45472939126193523406982421875">
        <ele>918.4000244140625</ele>
        <time>2016-08-12T21:54:51.000Z</time>
        <extensions>
          <ns3:TrackPointExtension>
            <ns3:atemp>17.0</ns3:atemp>
            <ns3:hr>139</ns3:hr>
          </ns3:TrackPointExtension>
        </extensions>
      </trkpt>
      <trkpt lat="-22.0420153252780437469482421875" lon="166.4547014795243740081787109375">
        <ele>918.79998779296875</ele>
        <time>2016-08-12T21:54:52.000Z</time>
        <extensions>
          <ns3:TrackPointExtension>
            <ns3:atemp>17.0</ns3:atemp>
            <ns3:hr>138</ns3:hr>
          </ns3:TrackPointExtension>
        </extensions>
      </trkpt>
      <trkpt lat="-22.04200736247003078460693359375" lon="166.45467457361519336700439453125">
        <ele>919.5999755859375</ele>
        <time>2016-08-12T21:54:53.000Z</time>
        <extensions>
          <ns3:TrackPointExtension>
            <ns3:atemp>17.0</ns3:atemp>
            <ns3:hr>139</ns3:hr>
          </ns3:TrackPointExtension>
        </extensions>
      </trkpt>
      <trkpt lat="-22.04199495725333690643310546875" lon="166.454651020467281341552734375">
        <ele>919.5999755859375</ele>
        <time>2016-08-12T21:54:54.000Z</time>
        <extensions>
          <ns3:TrackPointExtension>
            <ns3:atemp>17.0</ns3:atemp>
            <ns3:hr>139</ns3:hr>
          </ns3:TrackPointExtension>
        </extensions>
      </trkpt>
      <trkpt lat="-22.0419881679117679595947265625" lon="166.45462595857679843902587890625">
        <ele>918.5999755859375</ele>
        <time>2016-08-12T21:54:55.000Z</time>
        <extensions>
          <ns3:TrackPointExtension>
            <ns3:atemp>17.0</ns3:atemp>
            <ns3:hr>139</ns3:hr>
          </ns3:TrackPointExtension>
        </extensions>
      </trkpt>
      <trkpt lat="-22.0419821329414844512939453125" lon="166.4545977115631103515625">
        <ele>918.4000244140625</ele>
        <time>2016-08-12T21:54:56.000Z</time>
        <extensions>
          <ns3:TrackPointExtension>
            <ns3:atemp>17.0</ns3:atemp>
            <ns3:hr>139</ns3:hr>
          </ns3:TrackPointExtension>
        </extensions>
      </trkpt>
      <trkpt lat="-22.0419714041054248809814453125" lon="166.45456946454942226409912109375">
        <ele>919.4000244140625</ele>
        <time>2016-08-12T21:54:57.000Z</time>
        <extensions>
          <ns3:TrackPointExtension>
            <ns3:atemp>17.0</ns3:atemp>
            <ns3:hr>139</ns3:hr>
          </ns3:TrackPointExtension>
        </extensions>
      </trkpt>
      <trkpt lat="-22.04196210019290447235107421875" lon="166.4545415528118610382080078125">
        <ele>919.5999755859375</ele>
        <time>2016-08-12T21:54:58.000Z</time>
        <extensions>
          <ns3:TrackPointExtension>
            <ns3:atemp>17.0</ns3:atemp>
            <ns3:hr>139</ns3:hr>
          </ns3:TrackPointExtension>
        </extensions>
      </trkpt>
      <trkpt lat="-22.04195824451744556427001953125" lon="166.454513557255268096923828125">
        <ele>918.79998779296875</ele>
        <time>2016-08-12T21:54:59.000Z</time>
        <extensions>
          <ns3:TrackPointExtension>
            <ns3:atemp>17.0</ns3:atemp>
            <ns3:hr>140</ns3:hr>
          </ns3:TrackPointExtension>
        </extensions>
      </trkpt>
      <trkpt lat="-22.04195371828973293304443359375" lon="166.4544879086315631866455078125">
        <ele>918.4000244140625</ele>
        <time>2016-08-12T21:55:00.000Z</time>
        <extensions>
          <ns3:TrackPointExtension>
            <ns3:atemp>17.0</ns3:atemp>
            <ns3:hr>140</ns3:hr>
          </ns3:TrackPointExtension>
        </extensions>
      </trkpt>
      <trkpt lat="-22.04195137135684490203857421875" lon="166.45445999689400196075439453125">
        <ele>919</ele>
        <time>2016-08-12T21:55:01.000Z</time>
        <extensions>
          <ns3:TrackPointExtension>
            <ns3:atemp>17.0</ns3:atemp>
            <ns3:hr>140</ns3:hr>
          </ns3:TrackPointExtension>
        </extensions>
      </trkpt>
      <trkpt lat="-22.04194935970008373260498046875" lon="166.45443074405193328857421875">
        <ele>919.4000244140625</ele>
        <time>2016-08-12T21:55:02.000Z</time>
        <extensions>
          <ns3:TrackPointExtension>
            <ns3:atemp>17.0</ns3:atemp>
            <ns3:hr>140</ns3:hr>
          </ns3:TrackPointExtension>
        </extensions>
      </trkpt>
      <trkpt lat="-22.04194902442395687103271484375" lon="166.45440526306629180908203125">
        <ele>919.20001220703125</ele>
        <time>2016-08-12T21:55:03.000Z</time>
        <extensions>
          <ns3:TrackPointExtension>
            <ns3:atemp>17.0</ns3:atemp>
            <ns3:hr>140</ns3:hr>
          </ns3:TrackPointExtension>
        </extensions>
      </trkpt>
      <trkpt lat="-22.04194919206202030181884765625" lon="166.4543792791664600372314453125">
        <ele>919</ele>
        <time>2016-08-12T21:55:04.000Z</time>
        <extensions>
          <ns3:TrackPointExtension>
            <ns3:atemp>17.0</ns3:atemp>
            <ns3:hr>140</ns3:hr>
          </ns3:TrackPointExtension>
        </extensions>
      </trkpt>
      <trkpt lat="-22.04195422120392322540283203125" lon="166.45435287617146968841552734375">
        <ele>919.4000244140625</ele>
        <time>2016-08-12T21:55:05.000Z</time>
        <extensions>
          <ns3:TrackPointExtension>
            <ns3:atemp>17.0</ns3:atemp>
            <ns3:hr>140</ns3:hr>
          </ns3:TrackPointExtension>
        </extensions>
      </trkpt>
      <trkpt lat="-22.0419640280306339263916015625" lon="166.45432521589100360870361328125">
        <ele>919.4000244140625</ele>
        <time>2016-08-12T21:55:06.000Z</time>
        <extensions>
          <ns3:TrackPointExtension>
            <ns3:atemp>17.0</ns3:atemp>
            <ns3:hr>140</ns3:hr>
          </ns3:TrackPointExtension>
        </extensions>
      </trkpt>
      <trkpt lat="-22.0419724099338054656982421875" lon="166.45429738797247409820556640625">
        <ele>918.5999755859375</ele>
        <time>2016-08-12T21:55:07.000Z</time>
        <extensions>
          <ns3:TrackPointExtension>
            <ns3:atemp>17.0</ns3:atemp>
            <ns3:hr>140</ns3:hr>
          </ns3:TrackPointExtension>
        </extensions>
      </trkpt>
      <trkpt lat="-22.041975595057010650634765625" lon="166.4542706497013568878173828125">
        <ele>918.4000244140625</ele>
        <time>2016-08-12T21:55:08.000Z</time>
        <extensions>
          <ns3:TrackPointExtension>
            <ns3:atemp>17.0</ns3:atemp>
            <ns3:hr>140</ns3:hr>
          </ns3:TrackPointExtension>
        </extensions>
      </trkpt>
      <trkpt lat="-22.041980959475040435791015625" lon="166.454241313040256500244140625">
        <ele>919.20001220703125</ele>
        <time>2016-08-12T21:55:09.000Z</time>
        <extensions>
          <ns3:TrackPointExtension>
            <ns3:atemp>17.0</ns3:atemp>
            <ns3:hr>140</ns3:hr>
          </ns3:TrackPointExtension>
        </extensions>
      </trkpt>
      <trkpt lat="-22.04198607243597507476806640625" lon="166.4542153291404247283935546875">
        <ele>919.5999755859375</ele>
        <time>2016-08-12T21:55:10.000Z</time>
        <extensions>
          <ns3:TrackPointExtension>
            <ns3:atemp>17.0</ns3:atemp>
            <ns3:hr>140</ns3:hr>
          </ns3:TrackPointExtension>
        </extensions>
      </trkpt>
      <trkpt lat="-22.0419955439865589141845703125" lon="166.45418875850737094879150390625">
        <ele>919.20001220703125</ele>
        <time>2016-08-12T21:55:11.000Z</time>
        <extensions>
          <ns3:TrackPointExtension>
            <ns3:atemp>17.0</ns3:atemp>
            <ns3:hr>140</ns3:hr>
          </ns3:TrackPointExtension>
        </extensions>
      </trkpt>
      <trkpt lat="-22.04200166277587413787841796875" lon="166.45415958948433399200439453125">
        <ele>918.79998779296875</ele>
        <time>2016-08-12T21:55:12.000Z</time>
        <extensions>
          <ns3:TrackPointExtension>
            <ns3:atemp>17.0</ns3:atemp>
            <ns3:hr>140</ns3:hr>
          </ns3:TrackPointExtension>
        </extensions>
      </trkpt>
      <trkpt lat="-22.04201188869774341583251953125" lon="166.45412974990904331207275390625">
        <ele>919.4000244140625</ele>
        <time>2016-08-12T21:55:13.000Z</time>
        <extensions>
          <ns3:TrackPointExtension>
            <ns3:atemp>17.0</ns3:atemp>
            <ns3:hr>141</ns3:hr>
          </ns3:TrackPointExtension>
        </extensions>
      </trkpt>
      <trkpt lat="-22.0420233719050884246826171875" lon="166.454105861485004425048828125">
        <ele>920</ele>
        <time>2016-08-12T21:55:14.000Z</time>
        <extensions>
          <ns3:TrackPointExtension>
            <ns3:atemp>17.0</ns3:atemp>
            <ns3:hr>141</ns3:hr>
          </ns3:TrackPointExtension>
        </extensions>
      </trkpt>
      <trkpt lat="-22.042031250894069671630859375" lon="166.45408666692674160003662109375">
        <ele>919.79998779296875</ele>
        <time>2016-08-12T21:55:15.000Z</time>
        <extensions>
          <ns3:TrackPointExtension>
            <ns3:atemp>17.0</ns3:atemp>
            <ns3:hr>141</ns3:hr>
          </ns3:TrackPointExtension>
        </extensions>
      </trkpt>
      <trkpt lat="-22.0420461706817150115966796875" lon="166.454065628349781036376953125">
        <ele>919.20001220703125</ele>
        <time>2016-08-12T21:55:16.000Z</time>
        <extensions>
          <ns3:TrackPointExtension>
            <ns3:atemp>17.0</ns3:atemp>
            <ns3:hr>141</ns3:hr>
          </ns3:TrackPointExtension>
        </extensions>
      </trkpt>
      <trkpt lat="-22.04206452704966068267822265625" lon="166.45404526032507419586181640625">
        <ele>919.4000244140625</ele>
        <time>2016-08-12T21:55:17.000Z</time>
        <extensions>
          <ns3:TrackPointExtension>
            <ns3:atemp>17.0</ns3:atemp>
            <ns3:hr>141</ns3:hr>
          </ns3:TrackPointExtension>
        </extensions>
      </trkpt>
      <trkpt lat="-22.04207709990441799163818359375" lon="166.45402765832841396331787109375">
        <ele>919.79998779296875</ele>
        <time>2016-08-12T21:55:18.000Z</time>
        <extensions>
          <ns3:TrackPointExtension>
            <ns3:atemp>17.0</ns3:atemp>
            <ns3:hr>141</ns3:hr>
          </ns3:TrackPointExtension>
        </extensions>
      </trkpt>
      <trkpt lat="-22.04209654591977596282958984375" lon="166.45401366055011749267578125">
        <ele>919.4000244140625</ele>
        <time>2016-08-12T21:55:19.000Z</time>
        <extensions>
          <ns3:TrackPointExtension>
            <ns3:atemp>17.0</ns3:atemp>
            <ns3:hr>141</ns3:hr>
          </ns3:TrackPointExtension>
        </extensions>
      </trkpt>
      <trkpt lat="-22.0421125553548336029052734375" lon="166.45400050096213817596435546875">
        <ele>919</ele>
        <time>2016-08-12T21:55:20.000Z</time>
        <extensions>
          <ns3:TrackPointExtension>
            <ns3:atemp>17.0</ns3:atemp>
            <ns3:hr>142</ns3:hr>
          </ns3:TrackPointExtension>
        </extensions>
      </trkpt>
      <trkpt lat="-22.0421286486089229583740234375" lon="166.4539893530309200286865234375">
        <ele>919.5999755859375</ele>
        <time>2016-08-12T21:55:21.000Z</time>
        <extensions>
          <ns3:TrackPointExtension>
            <ns3:atemp>17.0</ns3:atemp>
            <ns3:hr>141</ns3:hr>
          </ns3:TrackPointExtension>
        </extensions>
      </trkpt>
      <trkpt lat="-22.04214767552912235260009765625" lon="166.45398021675646305084228515625">
        <ele>919.79998779296875</ele>
        <time>2016-08-12T21:55:22.000Z</time>
        <extensions>
          <ns3:TrackPointExtension>
            <ns3:atemp>17.0</ns3:atemp>
            <ns3:hr>142</ns3:hr>
          </ns3:TrackPointExtension>
        </extensions>
      </trkpt>
      <trkpt lat="-22.042167373001575469970703125" lon="166.45397619344294071197509765625">
        <ele>919.20001220703125</ele>
        <time>2016-08-12T21:55:23.000Z</time>
        <extensions>
          <ns3:TrackPointExtension>
            <ns3:atemp>17.0</ns3:atemp>
            <ns3:hr>142</ns3:hr>
          </ns3:TrackPointExtension>
        </extensions>
      </trkpt>
      <trkpt lat="-22.0421923510730266571044921875" lon="166.4539782889187335968017578125">
        <ele>919</ele>
        <time>2016-08-12T21:55:24.000Z</time>
        <extensions>
          <ns3:TrackPointExtension>
            <ns3:atemp>17.0</ns3:atemp>
            <ns3:hr>142</ns3:hr>
          </ns3:TrackPointExtension>
        </extensions>
      </trkpt>
      <trkpt lat="-22.04221841879189014434814453125" lon="166.45397904329001903533935546875">
        <ele>919.5999755859375</ele>
        <time>2016-08-12T21:55:25.000Z</time>
        <extensions>
          <ns3:TrackPointExtension>
            <ns3:atemp>17.0</ns3:atemp>
            <ns3:hr>142</ns3:hr>
          </ns3:TrackPointExtension>
        </extensions>
      </trkpt>
      <trkpt lat="-22.04223887063562870025634765625" lon="166.45397703163325786590576171875">
        <ele>919.5999755859375</ele>
        <time>2016-08-12T21:55:26.000Z</time>
        <extensions>
          <ns3:TrackPointExtension>
            <ns3:atemp>17.0</ns3:atemp>
            <ns3:hr>142</ns3:hr>
          </ns3:TrackPointExtension>
        </extensions>
      </trkpt>
      <trkpt lat="-22.0422577299177646636962890625" lon="166.453965045511722564697265625">
        <ele>919.4000244140625</ele>
        <time>2016-08-12T21:55:27.000Z</time>
        <extensions>
          <ns3:TrackPointExtension>
            <ns3:atemp>17.0</ns3:atemp>
            <ns3:hr>142</ns3:hr>
          </ns3:TrackPointExtension>
        </extensions>
      </trkpt>
      <trkpt lat="-22.0422748290002346038818359375" lon="166.45394082181155681610107421875">
        <ele>919.5999755859375</ele>
        <time>2016-08-12T21:55:28.000Z</time>
        <extensions>
          <ns3:TrackPointExtension>
            <ns3:atemp>17.0</ns3:atemp>
            <ns3:hr>142</ns3:hr>
          </ns3:TrackPointExtension>
        </extensions>
      </trkpt>
      <trkpt lat="-22.042286060750484466552734375" lon="166.45391173660755157470703125">
        <ele>919.4000244140625</ele>
        <time>2016-08-12T21:55:29.000Z</time>
        <extensions>
          <ns3:TrackPointExtension>
            <ns3:atemp>17.0</ns3:atemp>
            <ns3:hr>143</ns3:hr>
          </ns3:TrackPointExtension>
        </extensions>
      </trkpt>
      <trkpt lat="-22.0422850549221038818359375" lon="166.45388164557516574859619140625">
        <ele>918.5999755859375</ele>
        <time>2016-08-12T21:55:30.000Z</time>
        <extensions>
          <ns3:TrackPointExtension>
            <ns3:atemp>17.0</ns3:atemp>
            <ns3:hr>142</ns3:hr>
          </ns3:TrackPointExtension>
        </extensions>
      </trkpt>
      <trkpt lat="-22.0422825403511524200439453125" lon="166.453851051628589630126953125">
        <ele>918.20001220703125</ele>
        <time>2016-08-12T21:55:31.000Z</time>
        <extensions>
          <ns3:TrackPointExtension>
            <ns3:atemp>17.0</ns3:atemp>
            <ns3:hr>142</ns3:hr>
          </ns3:TrackPointExtension>
        </extensions>
      </trkpt>
      <trkpt lat="-22.04227876849472522735595703125" lon="166.453818865120410919189453125">
        <ele>918.5999755859375</ele>
        <time>2016-08-12T21:55:32.000Z</time>
        <extensions>
          <ns3:TrackPointExtension>
            <ns3:atemp>17.0</ns3:atemp>
            <ns3:hr>142</ns3:hr>
          </ns3:TrackPointExtension>
        </extensions>
      </trkpt>
      <trkpt lat="-22.04228036105632781982421875" lon="166.45378508605062961578369140625">
        <ele>918.79998779296875</ele>
        <time>2016-08-12T21:55:33.000Z</time>
        <extensions>
          <ns3:TrackPointExtension>
            <ns3:atemp>17.0</ns3:atemp>
            <ns3:hr>142</ns3:hr>
          </ns3:TrackPointExtension>
        </extensions>
      </trkpt>
      <trkpt lat="-22.042284719645977020263671875" lon="166.45375625230371952056884765625">
        <ele>918.79998779296875</ele>
        <time>2016-08-12T21:55:34.000Z</time>
        <extensions>
          <ns3:TrackPointExtension>
            <ns3:atemp>17.0</ns3:atemp>
            <ns3:hr>142</ns3:hr>
          </ns3:TrackPointExtension>
        </extensions>
      </trkpt>
      <trkpt lat="-22.04229050315916538238525390625" lon="166.4537300169467926025390625">
        <ele>919</ele>
        <time>2016-08-12T21:55:35.000Z</time>
        <extensions>
          <ns3:TrackPointExtension>
            <ns3:atemp>17.0</ns3:atemp>
            <ns3:hr>142</ns3:hr>
          </ns3:TrackPointExtension>
        </extensions>
      </trkpt>
      <trkpt lat="-22.04229737631976604461669921875" lon="166.453701518476009368896484375">
        <ele>919.20001220703125</ele>
        <time>2016-08-12T21:55:36.000Z</time>
        <extensions>
          <ns3:TrackPointExtension>
            <ns3:atemp>17.0</ns3:atemp>
            <ns3:hr>142</ns3:hr>
          </ns3:TrackPointExtension>
        </extensions>
      </trkpt>
      <trkpt lat="-22.042308188974857330322265625" lon="166.45367310382425785064697265625">
        <ele>918.79998779296875</ele>
        <time>2016-08-12T21:55:37.000Z</time>
        <extensions>
          <ns3:TrackPointExtension>
            <ns3:atemp>17.0</ns3:atemp>
            <ns3:hr>143</ns3:hr>
          </ns3:TrackPointExtension>
        </extensions>
      </trkpt>
      <trkpt lat="-22.042319588363170623779296875" lon="166.4536450244486331939697265625">
        <ele>918.5999755859375</ele>
        <time>2016-08-12T21:55:38.000Z</time>
        <extensions>
          <ns3:TrackPointExtension>
            <ns3:atemp>17.0</ns3:atemp>
            <ns3:hr>143</ns3:hr>
          </ns3:TrackPointExtension>
        </extensions>
      </trkpt>
      <trkpt lat="-22.04233375377953052520751953125" lon="166.4536200463771820068359375">
        <ele>918.5999755859375</ele>
        <time>2016-08-12T21:55:39.000Z</time>
        <extensions>
          <ns3:TrackPointExtension>
            <ns3:atemp>17.0</ns3:atemp>
            <ns3:hr>142</ns3:hr>
          </ns3:TrackPointExtension>
        </extensions>
      </trkpt>
      <trkpt lat="-22.04235135577619075775146484375" lon="166.453596241772174835205078125">
        <ele>918</ele>
        <time>2016-08-12T21:55:40.000Z</time>
        <extensions>
          <ns3:TrackPointExtension>
            <ns3:atemp>17.0</ns3:atemp>
            <ns3:hr>143</ns3:hr>
          </ns3:TrackPointExtension>
        </extensions>
      </trkpt>
      <trkpt lat="-22.04236929304897785186767578125" lon="166.45357218571007251739501953125">
        <ele>917.4000244140625</ele>
        <time>2016-08-12T21:55:41.000Z</time>
        <extensions>
          <ns3:TrackPointExtension>
            <ns3:atemp>17.0</ns3:atemp>
            <ns3:hr>143</ns3:hr>
          </ns3:TrackPointExtension>
        </extensions>
      </trkpt>
      <trkpt lat="-22.0423898287117481231689453125" lon="166.453548632562160491943359375">
        <ele>917.5999755859375</ele>
        <time>2016-08-12T21:55:42.000Z</time>
        <extensions>
          <ns3:TrackPointExtension>
            <ns3:atemp>17.0</ns3:atemp>
            <ns3:hr>143</ns3:hr>
          </ns3:TrackPointExtension>
        </extensions>
      </trkpt>
      <trkpt lat="-22.04241204075515270233154296875" lon="166.45352491177618503570556640625">
        <ele>918</ele>
        <time>2016-08-12T21:55:43.000Z</time>
        <extensions>
          <ns3:TrackPointExtension>
            <ns3:atemp>17.0</ns3:atemp>
            <ns3:hr>143</ns3:hr>
          </ns3:TrackPointExtension>
        </extensions>
      </trkpt>
      <trkpt lat="-22.04242796637117862701416015625" lon="166.453506052494049072265625">
        <ele>918</ele>
        <time>2016-08-12T21:55:44.000Z</time>
        <extensions>
          <ns3:TrackPointExtension>
            <ns3:atemp>17.0</ns3:atemp>
            <ns3:hr>143</ns3:hr>
          </ns3:TrackPointExtension>
        </extensions>
      </trkpt>
      <trkpt lat="-22.04244741238653659820556640625" lon="166.4534891210496425628662109375">
        <ele>917.20001220703125</ele>
        <time>2016-08-12T21:55:45.000Z</time>
        <extensions>
          <ns3:TrackPointExtension>
            <ns3:atemp>17.0</ns3:atemp>
            <ns3:hr>143</ns3:hr>
          </ns3:TrackPointExtension>
        </extensions>
      </trkpt>
      <trkpt lat="-22.042470462620258331298828125" lon="166.4534706808626651763916015625">
        <ele>917</ele>
        <time>2016-08-12T21:55:46.000Z</time>
        <extensions>
          <ns3:TrackPointExtension>
            <ns3:atemp>17.0</ns3:atemp>
            <ns3:hr>143</ns3:hr>
          </ns3:TrackPointExtension>
        </extensions>
      </trkpt>
      <trkpt lat="-22.04248798079788684844970703125" lon="166.45345182158052921295166015625">
        <ele>917.5999755859375</ele>
        <time>2016-08-12T21:55:47.000Z</time>
        <extensions>
          <ns3:TrackPointExtension>
            <ns3:atemp>17.0</ns3:atemp>
            <ns3:hr>143</ns3:hr>
          </ns3:TrackPointExtension>
        </extensions>
      </trkpt>
      <trkpt lat="-22.042503990232944488525390625" lon="166.45342919044196605682373046875">
        <ele>917.5999755859375</ele>
        <time>2016-08-12T21:55:48.000Z</time>
        <extensions>
          <ns3:TrackPointExtension>
            <ns3:atemp>17.0</ns3:atemp>
            <ns3:hr>143</ns3:hr>
          </ns3:TrackPointExtension>
        </extensions>
      </trkpt>
      <trkpt lat="-22.0425182394683361053466796875" lon="166.4534099958837032318115234375">
        <ele>916.79998779296875</ele>
        <time>2016-08-12T21:55:49.000Z</time>
        <extensions>
          <ns3:TrackPointExtension>
            <ns3:atemp>17.0</ns3:atemp>
            <ns3:hr>143</ns3:hr>
          </ns3:TrackPointExtension>
        </extensions>
      </trkpt>
      <trkpt lat="-22.04252787865698337554931640625" lon="166.4533905498683452606201171875">
        <ele>916.5999755859375</ele>
        <time>2016-08-12T21:55:50.000Z</time>
        <extensions>
          <ns3:TrackPointExtension>
            <ns3:atemp>17.0</ns3:atemp>
            <ns3:hr>143</ns3:hr>
          </ns3:TrackPointExtension>
        </extensions>
      </trkpt>
      <trkpt lat="-22.04254447482526302337646484375" lon="166.45337068475782871246337890625">
        <ele>917.20001220703125</ele>
        <time>2016-08-12T21:55:51.000Z</time>
        <extensions>
          <ns3:TrackPointExtension>
            <ns3:atemp>17.0</ns3:atemp>
            <ns3:hr>143</ns3:hr>
          </ns3:TrackPointExtension>
        </extensions>
      </trkpt>
      <trkpt lat="-22.042559646070003509521484375" lon="166.4533543400466442108154296875">
        <ele>918</ele>
        <time>2016-08-12T21:55:52.000Z</time>
        <extensions>
          <ns3:TrackPointExtension>
            <ns3:atemp>17.0</ns3:atemp>
            <ns3:hr>143</ns3:hr>
          </ns3:TrackPointExtension>
        </extensions>
      </trkpt>
      <trkpt lat="-22.04257666133344173431396484375" lon="166.4533392526209354400634765625">
        <ele>918</ele>
        <time>2016-08-12T21:55:53.000Z</time>
        <extensions>
          <ns3:TrackPointExtension>
            <ns3:atemp>17.0</ns3:atemp>
            <ns3:hr>143</ns3:hr>
          </ns3:TrackPointExtension>
        </extensions>
      </trkpt>
      <trkpt lat="-22.042586803436279296875" lon="166.45332491956651210784912109375">
        <ele>917.79998779296875</ele>
        <time>2016-08-12T21:55:54.000Z</time>
        <extensions>
          <ns3:TrackPointExtension>
            <ns3:atemp>17.0</ns3:atemp>
            <ns3:hr>142</ns3:hr>
          </ns3:TrackPointExtension>
        </extensions>
      </trkpt>
      <trkpt lat="-22.04260197468101978302001953125" lon="166.453311927616596221923828125">
        <ele>917.20001220703125</ele>
        <time>2016-08-12T21:55:55.000Z</time>
        <extensions>
          <ns3:TrackPointExtension>
            <ns3:atemp>17.0</ns3:atemp>
            <ns3:hr>142</ns3:hr>
          </ns3:TrackPointExtension>
        </extensions>
      </trkpt>
      <trkpt lat="-22.0426204986870288848876953125" lon="166.45329340361058712005615234375">
        <ele>917.5999755859375</ele>
        <time>2016-08-12T21:55:56.000Z</time>
        <extensions>
          <ns3:TrackPointExtension>
            <ns3:atemp>17.0</ns3:atemp>
            <ns3:hr>142</ns3:hr>
          </ns3:TrackPointExtension>
        </extensions>
      </trkpt>
      <trkpt lat="-22.04264002852141857147216796875" lon="166.4532740414142608642578125">
        <ele>918.20001220703125</ele>
        <time>2016-08-12T21:55:57.000Z</time>
        <extensions>
          <ns3:TrackPointExtension>
            <ns3:atemp>17.0</ns3:atemp>
            <ns3:hr>142</ns3:hr>
          </ns3:TrackPointExtension>
        </extensions>
      </trkpt>
      <trkpt lat="-22.04265846870839595794677734375" lon="166.4532607980072498321533203125">
        <ele>918.20001220703125</ele>
        <time>2016-08-12T21:55:58.000Z</time>
        <extensions>
          <ns3:TrackPointExtension>
            <ns3:atemp>17.0</ns3:atemp>
            <ns3:hr>142</ns3:hr>
          </ns3:TrackPointExtension>
        </extensions>
      </trkpt>
      <trkpt lat="-22.042675651609897613525390625" lon="166.45324763841927051544189453125">
        <ele>918</ele>
        <time>2016-08-12T21:55:59.000Z</time>
        <extensions>
          <ns3:TrackPointExtension>
            <ns3:atemp>17.0</ns3:atemp>
            <ns3:hr>142</ns3:hr>
          </ns3:TrackPointExtension>
        </extensions>
      </trkpt>
      <trkpt lat="-22.04269199632108211517333984375" lon="166.4532356522977352142333984375">
        <ele>918</ele>
        <time>2016-08-12T21:56:00.000Z</time>
        <extensions>
          <ns3:TrackPointExtension>
            <ns3:atemp>17.0</ns3:atemp>
            <ns3:hr>142</ns3:hr>
          </ns3:TrackPointExtension>
        </extensions>
      </trkpt>
      <trkpt lat="-22.04270792193710803985595703125" lon="166.45322366617619991302490234375">
        <ele>918.5999755859375</ele>
        <time>2016-08-12T21:56:01.000Z</time>
        <extensions>
          <ns3:TrackPointExtension>
            <ns3:atemp>17.0</ns3:atemp>
            <ns3:hr>142</ns3:hr>
          </ns3:TrackPointExtension>
        </extensions>
      </trkpt>
      <trkpt lat="-22.042721249163150787353515625" lon="166.45321109332144260406494140625">
        <ele>919</ele>
        <time>2016-08-12T21:56:02.000Z</time>
        <extensions>
          <ns3:TrackPointExtension>
            <ns3:atemp>17.0</ns3:atemp>
            <ns3:hr>142</ns3:hr>
          </ns3:TrackPointExtension>
        </extensions>
      </trkpt>
      <trkpt lat="-22.04273658804595470428466796875" lon="166.4531930722296237945556640625">
        <ele>918.79998779296875</ele>
        <time>2016-08-12T21:56:03.000Z</time>
        <extensions>
          <ns3:TrackPointExtension>
            <ns3:atemp>17.0</ns3:atemp>
            <ns3:hr>142</ns3:hr>
          </ns3:TrackPointExtension>
        </extensions>
      </trkpt>
      <trkpt lat="-22.04275184310972690582275390625" lon="166.4531747996807098388671875">
        <ele>918.5999755859375</ele>
        <time>2016-08-12T21:56:04.000Z</time>
        <extensions>
          <ns3:TrackPointExtension>
            <ns3:atemp>17.0</ns3:atemp>
            <ns3:hr>142</ns3:hr>
          </ns3:TrackPointExtension>
        </extensions>
      </trkpt>
      <trkpt lat="-22.04276776872575283050537109375" lon="166.45315510220825672149658203125">
        <ele>918.79998779296875</ele>
        <time>2016-08-12T21:56:05.000Z</time>
        <extensions>
          <ns3:TrackPointExtension>
            <ns3:atemp>17.0</ns3:atemp>
            <ns3:hr>142</ns3:hr>
          </ns3:TrackPointExtension>
        </extensions>
      </trkpt>
      <trkpt lat="-22.0427878014743328094482421875" lon="166.453134901821613311767578125">
        <ele>918.79998779296875</ele>
        <time>2016-08-12T21:56:06.000Z</time>
        <extensions>
          <ns3:TrackPointExtension>
            <ns3:atemp>17.0</ns3:atemp>
            <ns3:hr>142</ns3:hr>
          </ns3:TrackPointExtension>
        </extensions>
      </trkpt>
      <trkpt lat="-22.0428022183477878570556640625" lon="166.45311956293880939483642578125">
        <ele>918.20001220703125</ele>
        <time>2016-08-12T21:56:07.000Z</time>
        <extensions>
          <ns3:TrackPointExtension>
            <ns3:atemp>17.0</ns3:atemp>
            <ns3:hr>142</ns3:hr>
          </ns3:TrackPointExtension>
        </extensions>
      </trkpt>
      <trkpt lat="-22.042821832001209259033203125" lon="166.4531032182276248931884765625">
        <ele>918.20001220703125</ele>
        <time>2016-08-12T21:56:08.000Z</time>
        <extensions>
          <ns3:TrackPointExtension>
            <ns3:atemp>17.0</ns3:atemp>
            <ns3:hr>142</ns3:hr>
          </ns3:TrackPointExtension>
        </extensions>
      </trkpt>
      <trkpt lat="-22.04284169711172580718994140625" lon="166.45308217965066432952880859375">
        <ele>918.5999755859375</ele>
        <time>2016-08-12T21:56:09.000Z</time>
        <extensions>
          <ns3:TrackPointExtension>
            <ns3:atemp>17.0</ns3:atemp>
            <ns3:hr>142</ns3:hr>
          </ns3:TrackPointExtension>
        </extensions>
      </trkpt>
      <trkpt lat="-22.04286105930805206298828125" lon="166.453062482178211212158203125">
        <ele>918.79998779296875</ele>
        <time>2016-08-12T21:56:10.000Z</time>
        <extensions>
          <ns3:TrackPointExtension>
            <ns3:atemp>17.0</ns3:atemp>
            <ns3:hr>143</ns3:hr>
          </ns3:TrackPointExtension>
        </extensions>
      </trkpt>
      <trkpt lat="-22.0428793318569660186767578125" lon="166.45303867757320404052734375">
        <ele>918</ele>
        <time>2016-08-12T21:56:11.000Z</time>
        <extensions>
          <ns3:TrackPointExtension>
            <ns3:atemp>17.0</ns3:atemp>
            <ns3:hr>142</ns3:hr>
          </ns3:TrackPointExtension>
        </extensions>
      </trkpt>
      <trkpt lat="-22.0428939163684844970703125" lon="166.453015543520450592041015625">
        <ele>917.79998779296875</ele>
        <time>2016-08-12T21:56:12.000Z</time>
        <extensions>
          <ns3:TrackPointExtension>
            <ns3:atemp>17.0</ns3:atemp>
            <ns3:hr>142</ns3:hr>
          </ns3:TrackPointExtension>
        </extensions>
      </trkpt>
      <trkpt lat="-22.04290724359452724456787109375" lon="166.452996432781219482421875">
        <ele>918.5999755859375</ele>
        <time>2016-08-12T21:56:13.000Z</time>
        <extensions>
          <ns3:TrackPointExtension>
            <ns3:atemp>17.0</ns3:atemp>
            <ns3:hr>142</ns3:hr>
          </ns3:TrackPointExtension>
        </extensions>
      </trkpt>
      <trkpt lat="-22.0429229177534580230712890625" lon="166.4529744721949100494384765625">
        <ele>918.79998779296875</ele>
        <time>2016-08-12T21:56:14.000Z</time>
        <extensions>
          <ns3:TrackPointExtension>
            <ns3:atemp>17.0</ns3:atemp>
            <ns3:hr>142</ns3:hr>
          </ns3:TrackPointExtension>
        </extensions>
      </trkpt>
      <trkpt lat="-22.04293674789369106292724609375" lon="166.45295963622629642486572265625">
        <ele>918.5999755859375</ele>
        <time>2016-08-12T21:56:15.000Z</time>
        <extensions>
          <ns3:TrackPointExtension>
            <ns3:atemp>17.0</ns3:atemp>
            <ns3:hr>143</ns3:hr>
          </ns3:TrackPointExtension>
        </extensions>
      </trkpt>
      <trkpt lat="-22.0429554395377635955810546875" lon="166.45294236950576305389404296875">
        <ele>918.20001220703125</ele>
        <time>2016-08-12T21:56:16.000Z</time>
        <extensions>
          <ns3:TrackPointExtension>
            <ns3:atemp>17.0</ns3:atemp>
            <ns3:hr>142</ns3:hr>
          </ns3:TrackPointExtension>
        </extensions>
      </trkpt>
      <trkpt lat="-22.0429675094783306121826171875" lon="166.45292527042329311370849609375">
        <ele>918.79998779296875</ele>
        <time>2016-08-12T21:56:17.000Z</time>
        <extensions>
          <ns3:TrackPointExtension>
            <ns3:atemp>17.0</ns3:atemp>
            <ns3:hr>143</ns3:hr>
          </ns3:TrackPointExtension>
        </extensions>
      </trkpt>
      <trkpt lat="-22.04298368655145168304443359375" lon="166.45290917716920375823974609375">
        <ele>919.20001220703125</ele>
        <time>2016-08-12T21:56:18.000Z</time>
        <extensions>
          <ns3:TrackPointExtension>
            <ns3:atemp>17.0</ns3:atemp>
            <ns3:hr>142</ns3:hr>
          </ns3:TrackPointExtension>
        </extensions>
      </trkpt>
      <trkpt lat="-22.043005563318729400634765625" lon="166.45289325155317783355712890625">
        <ele>919.4000244140625</ele>
        <time>2016-08-12T21:56:19.000Z</time>
        <extensions>
          <ns3:TrackPointExtension>
            <ns3:atemp>17.0</ns3:atemp>
            <ns3:hr>142</ns3:hr>
          </ns3:TrackPointExtension>
        </extensions>
      </trkpt>
      <trkpt lat="-22.04302241094410419464111328125" lon="166.45288151688873767852783203125">
        <ele>919</ele>
        <time>2016-08-12T21:56:20.000Z</time>
        <extensions>
          <ns3:TrackPointExtension>
            <ns3:atemp>17.0</ns3:atemp>
            <ns3:hr>142</ns3:hr>
          </ns3:TrackPointExtension>
        </extensions>
      </trkpt>
      <trkpt lat="-22.04304353334009647369384765625" lon="166.4528671838343143463134765625">
        <ele>919</ele>
        <time>2016-08-12T21:56:21.000Z</time>
        <extensions>
          <ns3:TrackPointExtension>
            <ns3:atemp>17.0</ns3:atemp>
            <ns3:hr>142</ns3:hr>
          </ns3:TrackPointExtension>
        </extensions>
      </trkpt>
      <trkpt lat="-22.04305811785161495208740234375" lon="166.4528507553040981292724609375">
        <ele>919.5999755859375</ele>
        <time>2016-08-12T21:56:22.000Z</time>
        <extensions>
          <ns3:TrackPointExtension>
            <ns3:atemp>17.0</ns3:atemp>
            <ns3:hr>143</ns3:hr>
          </ns3:TrackPointExtension>
        </extensions>
      </trkpt>
      <trkpt lat="-22.04307429492473602294921875" lon="166.4528319798409938812255859375">
        <ele>919.4000244140625</ele>
        <time>2016-08-12T21:56:23.000Z</time>
        <extensions>
          <ns3:TrackPointExtension>
            <ns3:atemp>17.0</ns3:atemp>
            <ns3:hr>142</ns3:hr>
          </ns3:TrackPointExtension>
        </extensions>
      </trkpt>
      <trkpt lat="-22.04309298656880855560302734375" lon="166.45281462930142879486083984375">
        <ele>919</ele>
        <time>2016-08-12T21:56:24.000Z</time>
        <extensions>
          <ns3:TrackPointExtension>
            <ns3:atemp>17.0</ns3:atemp>
            <ns3:hr>143</ns3:hr>
          </ns3:TrackPointExtension>
        </extensions>
      </trkpt>
      <trkpt lat="-22.04311142675578594207763671875" lon="166.4527971111238002777099609375">
        <ele>919</ele>
        <time>2016-08-12T21:56:25.000Z</time>
        <extensions>
          <ns3:TrackPointExtension>
            <ns3:atemp>17.0</ns3:atemp>
            <ns3:hr>142</ns3:hr>
          </ns3:TrackPointExtension>
        </extensions>
      </trkpt>
      <trkpt lat="-22.0431317947804927825927734375" lon="166.4527776651084423065185546875">
        <ele>919.4000244140625</ele>
        <time>2016-08-12T21:56:26.000Z</time>
        <extensions>
          <ns3:TrackPointExtension>
            <ns3:atemp>17.0</ns3:atemp>
            <ns3:hr>142</ns3:hr>
          </ns3:TrackPointExtension>
        </extensions>
      </trkpt>
      <trkpt lat="-22.0431519113481044769287109375" lon="166.452757380902767181396484375">
        <ele>919.20001220703125</ele>
        <time>2016-08-12T21:56:27.000Z</time>
        <extensions>
          <ns3:TrackPointExtension>
            <ns3:atemp>17.0</ns3:atemp>
            <ns3:hr>143</ns3:hr>
          </ns3:TrackPointExtension>
        </extensions>
      </trkpt>
      <trkpt lat="-22.04316808842122554779052734375" lon="166.45274229347705841064453125">
        <ele>918.5999755859375</ele>
        <time>2016-08-12T21:56:28.000Z</time>
        <extensions>
          <ns3:TrackPointExtension>
            <ns3:atemp>17.0</ns3:atemp>
            <ns3:hr>142</ns3:hr>
          </ns3:TrackPointExtension>
        </extensions>
      </trkpt>
      <trkpt lat="-22.04318904317915439605712890625" lon="166.45272695459425449371337890625">
        <ele>919</ele>
        <time>2016-08-12T21:56:29.000Z</time>
        <extensions>
          <ns3:TrackPointExtension>
            <ns3:atemp>17.0</ns3:atemp>
            <ns3:hr>142</ns3:hr>
          </ns3:TrackPointExtension>
        </extensions>
      </trkpt>
      <trkpt lat="-22.04320840537548065185546875" lon="166.45270784385502338409423828125">
        <ele>919.5999755859375</ele>
        <time>2016-08-12T21:56:30.000Z</time>
        <extensions>
          <ns3:TrackPointExtension>
            <ns3:atemp>17.0</ns3:atemp>
            <ns3:hr>142</ns3:hr>
          </ns3:TrackPointExtension>
        </extensions>
      </trkpt>
      <trkpt lat="-22.04322810284793376922607421875" lon="166.45268621854484081268310546875">
        <ele>919.5999755859375</ele>
        <time>2016-08-12T21:56:31.000Z</time>
        <extensions>
          <ns3:TrackPointExtension>
            <ns3:atemp>17.0</ns3:atemp>
            <ns3:hr>142</ns3:hr>
          </ns3:TrackPointExtension>
        </extensions>
      </trkpt>
      <trkpt lat="-22.0432454533874988555908203125" lon="166.45266006700694561004638671875">
        <ele>919.5999755859375</ele>
        <time>2016-08-12T21:56:32.000Z</time>
        <extensions>
          <ns3:TrackPointExtension>
            <ns3:atemp>17.0</ns3:atemp>
            <ns3:hr>142</ns3:hr>
          </ns3:TrackPointExtension>
        </extensions>
      </trkpt>
      <trkpt lat="-22.04325668513774871826171875" lon="166.45264347083866596221923828125">
        <ele>919.79998779296875</ele>
        <time>2016-08-12T21:56:33.000Z</time>
        <extensions>
          <ns3:TrackPointExtension>
            <ns3:atemp>17.0</ns3:atemp>
            <ns3:hr>142</ns3:hr>
          </ns3:TrackPointExtension>
        </extensions>
      </trkpt>
      <trkpt lat="-22.04325878061354160308837890625" lon="166.4526184089481830596923828125">
        <ele>919.4000244140625</ele>
        <time>2016-08-12T21:56:34.000Z</time>
        <extensions>
          <ns3:TrackPointExtension>
            <ns3:atemp>17.0</ns3:atemp>
            <ns3:hr>141</ns3:hr>
          </ns3:TrackPointExtension>
        </extensions>
      </trkpt>
      <trkpt lat="-22.04324721358716487884521484375" lon="166.452593095600605010986328125">
        <ele>919</ele>
        <time>2016-08-12T21:56:35.000Z</time>
        <extensions>
          <ns3:TrackPointExtension>
            <ns3:atemp>17.0</ns3:atemp>
            <ns3:hr>141</ns3:hr>
          </ns3:TrackPointExtension>
        </extensions>
      </trkpt>
      <trkpt lat="-22.0432313717901706695556640625" lon="166.4525768347084522247314453125">
        <ele>919.5999755859375</ele>
        <time>2016-08-12T21:56:36.000Z</time>
        <extensions>
          <ns3:TrackPointExtension>
            <ns3:atemp>17.0</ns3:atemp>
            <ns3:hr>141</ns3:hr>
          </ns3:TrackPointExtension>
        </extensions>
      </trkpt>
      <trkpt lat="-22.0432139374315738677978515625" lon="166.45255579613149166107177734375">
        <ele>919.79998779296875</ele>
        <time>2016-08-12T21:56:37.000Z</time>
        <extensions>
          <ns3:TrackPointExtension>
            <ns3:atemp>17.0</ns3:atemp>
            <ns3:hr>141</ns3:hr>
          </ns3:TrackPointExtension>
        </extensions>
      </trkpt>
      <trkpt lat="-22.04319792799651622772216796875" lon="166.45253467373549938201904296875">
        <ele>919.20001220703125</ele>
        <time>2016-08-12T21:56:38.000Z</time>
        <extensions>
          <ns3:TrackPointExtension>
            <ns3:atemp>17.0</ns3:atemp>
            <ns3:hr>140</ns3:hr>
          </ns3:TrackPointExtension>
        </extensions>
      </trkpt>
      <trkpt lat="-22.0431857742369174957275390625" lon="166.45251489244401454925537109375">
        <ele>919.20001220703125</ele>
        <time>2016-08-12T21:56:39.000Z</time>
        <extensions>
          <ns3:TrackPointExtension>
            <ns3:atemp>17.0</ns3:atemp>
            <ns3:hr>140</ns3:hr>
          </ns3:TrackPointExtension>
        </extensions>
      </trkpt>
      <trkpt lat="-22.04316674731671810150146484375" lon="166.45249527879059314727783203125">
        <ele>919.79998779296875</ele>
        <time>2016-08-12T21:56:40.000Z</time>
        <extensions>
          <ns3:TrackPointExtension>
            <ns3:atemp>17.0</ns3:atemp>
            <ns3:hr>141</ns3:hr>
          </ns3:TrackPointExtension>
        </extensions>
      </trkpt>
      <trkpt lat="-22.043149061501026153564453125" lon="166.45247985608875751495361328125">
        <ele>919.79998779296875</ele>
        <time>2016-08-12T21:56:41.000Z</time>
        <extensions>
          <ns3:TrackPointExtension>
            <ns3:atemp>17.0</ns3:atemp>
            <ns3:hr>140</ns3:hr>
          </ns3:TrackPointExtension>
        </extensions>
      </trkpt>
      <trkpt lat="-22.04313338734209537506103515625" lon="166.45246845670044422149658203125">
        <ele>919.20001220703125</ele>
        <time>2016-08-12T21:56:42.000Z</time>
        <extensions>
          <ns3:TrackPointExtension>
            <ns3:atemp>17.0</ns3:atemp>
            <ns3:hr>140</ns3:hr>
          </ns3:TrackPointExtension>
        </extensions>
      </trkpt>
      <trkpt lat="-22.04311092384159564971923828125" lon="166.4524568058550357818603515625">
        <ele>919.4000244140625</ele>
        <time>2016-08-12T21:56:43.000Z</time>
        <extensions>
          <ns3:TrackPointExtension>
            <ns3:atemp>17.0</ns3:atemp>
            <ns3:hr>140</ns3:hr>
          </ns3:TrackPointExtension>
        </extensions>
      </trkpt>
      <trkpt lat="-22.04309214837849140167236328125" lon="166.45244884304702281951904296875">
        <ele>920</ele>
        <time>2016-08-12T21:56:44.000Z</time>
        <extensions>
          <ns3:TrackPointExtension>
            <ns3:atemp>17.0</ns3:atemp>
            <ns3:hr>140</ns3:hr>
          </ns3:TrackPointExtension>
        </extensions>
      </trkpt>
      <trkpt lat="-22.04306314699351787567138671875" lon="166.452445574104785919189453125">
        <ele>919.5999755859375</ele>
        <time>2016-08-12T21:56:45.000Z</time>
        <extensions>
          <ns3:TrackPointExtension>
            <ns3:atemp>17.0</ns3:atemp>
            <ns3:hr>140</ns3:hr>
          </ns3:TrackPointExtension>
        </extensions>
      </trkpt>
      <trkpt lat="-22.04303582198917865753173828125" lon="166.45244230516254901885986328125">
        <ele>919</ele>
        <time>2016-08-12T21:56:46.000Z</time>
        <extensions>
          <ns3:TrackPointExtension>
            <ns3:atemp>17.0</ns3:atemp>
            <ns3:hr>139</ns3:hr>
          </ns3:TrackPointExtension>
        </extensions>
      </trkpt>
      <trkpt lat="-22.04301067627966403961181640625" lon="166.4524309895932674407958984375">
        <ele>919.20001220703125</ele>
        <time>2016-08-12T21:56:47.000Z</time>
        <extensions>
          <ns3:TrackPointExtension>
            <ns3:atemp>17.0</ns3:atemp>
            <ns3:hr>140</ns3:hr>
          </ns3:TrackPointExtension>
        </extensions>
      </trkpt>
      <trkpt lat="-22.04298687167465686798095703125" lon="166.45241648890078067779541015625">
        <ele>919.5999755859375</ele>
        <time>2016-08-12T21:56:48.000Z</time>
        <extensions>
          <ns3:TrackPointExtension>
            <ns3:atemp>17.0</ns3:atemp>
            <ns3:hr>139</ns3:hr>
          </ns3:TrackPointExtension>
        </extensions>
      </trkpt>
      <trkpt lat="-22.04296608455479145050048828125" lon="166.45240039564669132232666015625">
        <ele>919.4000244140625</ele>
        <time>2016-08-12T21:56:49.000Z</time>
        <extensions>
          <ns3:TrackPointExtension>
            <ns3:atemp>17.0</ns3:atemp>
            <ns3:hr>140</ns3:hr>
          </ns3:TrackPointExtension>
        </extensions>
      </trkpt>
      <trkpt lat="-22.04294621944427490234375" lon="166.452382542192935943603515625">
        <ele>918.79998779296875</ele>
        <time>2016-08-12T21:56:50.000Z</time>
        <extensions>
          <ns3:TrackPointExtension>
            <ns3:atemp>17.0</ns3:atemp>
            <ns3:hr>139</ns3:hr>
          </ns3:TrackPointExtension>
        </extensions>
      </trkpt>
      <trkpt lat="-22.04293155111372470855712890625" lon="166.452362425625324249267578125">
        <ele>919</ele>
        <time>2016-08-12T21:56:51.000Z</time>
        <extensions>
          <ns3:TrackPointExtension>
            <ns3:atemp>17.0</ns3:atemp>
            <ns3:hr>139</ns3:hr>
          </ns3:TrackPointExtension>
        </extensions>
      </trkpt>
      <trkpt lat="-22.04291311092674732208251953125" lon="166.45234054885804653167724609375">
        <ele>919.4000244140625</ele>
        <time>2016-08-12T21:56:52.000Z</time>
        <extensions>
          <ns3:TrackPointExtension>
            <ns3:atemp>17.0</ns3:atemp>
            <ns3:hr>140</ns3:hr>
          </ns3:TrackPointExtension>
        </extensions>
      </trkpt>
      <trkpt lat="-22.0428897254168987274169921875" lon="166.45231791771948337554931640625">
        <ele>919.5999755859375</ele>
        <time>2016-08-12T21:56:53.000Z</time>
        <extensions>
          <ns3:TrackPointExtension>
            <ns3:atemp>17.0</ns3:atemp>
            <ns3:hr>140</ns3:hr>
          </ns3:TrackPointExtension>
        </extensions>
      </trkpt>
      <trkpt lat="-22.0428736321628093719482421875" lon="166.4522975496947765350341796875">
        <ele>919.20001220703125</ele>
        <time>2016-08-12T21:56:54.000Z</time>
        <extensions>
          <ns3:TrackPointExtension>
            <ns3:atemp>17.0</ns3:atemp>
            <ns3:hr>140</ns3:hr>
          </ns3:TrackPointExtension>
        </extensions>
      </trkpt>
      <trkpt lat="-22.0428585447371006011962890625" lon="166.45227315835654735565185546875">
        <ele>918.4000244140625</ele>
        <time>2016-08-12T21:56:55.000Z</time>
        <extensions>
          <ns3:TrackPointExtension>
            <ns3:atemp>17.0</ns3:atemp>
            <ns3:hr>140</ns3:hr>
          </ns3:TrackPointExtension>
        </extensions>
      </trkpt>
      <trkpt lat="-22.0428454689681529998779296875" lon="166.45225153304636478424072265625">
        <ele>918.5999755859375</ele>
        <time>2016-08-12T21:56:56.000Z</time>
        <extensions>
          <ns3:TrackPointExtension>
            <ns3:atemp>17.0</ns3:atemp>
            <ns3:hr>140</ns3:hr>
          </ns3:TrackPointExtension>
        </extensions>
      </trkpt>
      <trkpt lat="-22.0428344048559665679931640625" lon="166.4522308297455310821533203125">
        <ele>918.79998779296875</ele>
        <time>2016-08-12T21:56:57.000Z</time>
        <extensions>
          <ns3:TrackPointExtension>
            <ns3:atemp>17.0</ns3:atemp>
            <ns3:hr>140</ns3:hr>
          </ns3:TrackPointExtension>
        </extensions>
      </trkpt>
      <trkpt lat="-22.0428203232586383819580078125" lon="166.45220719277858734130859375">
        <ele>918.79998779296875</ele>
        <time>2016-08-12T21:56:58.000Z</time>
        <extensions>
          <ns3:TrackPointExtension>
            <ns3:atemp>17.0</ns3:atemp>
            <ns3:hr>140</ns3:hr>
          </ns3:TrackPointExtension>
        </extensions>
      </trkpt>
      <trkpt lat="-22.042807079851627349853515625" lon="166.4521859027445316314697265625">
        <ele>917.79998779296875</ele>
        <time>2016-08-12T21:56:59.000Z</time>
        <extensions>
          <ns3:TrackPointExtension>
            <ns3:atemp>17.0</ns3:atemp>
            <ns3:hr>140</ns3:hr>
          </ns3:TrackPointExtension>
        </extensions>
      </trkpt>
      <trkpt lat="-22.042795680463314056396484375" lon="166.45215933211147785186767578125">
        <ele>917.5999755859375</ele>
        <time>2016-08-12T21:57:00.000Z</time>
        <extensions>
          <ns3:TrackPointExtension>
            <ns3:atemp>17.0</ns3:atemp>
            <ns3:hr>140</ns3:hr>
          </ns3:TrackPointExtension>
        </extensions>
      </trkpt>
      <trkpt lat="-22.04278352670371532440185546875" lon="166.45213670097291469573974609375">
        <ele>918.20001220703125</ele>
        <time>2016-08-12T21:57:01.000Z</time>
        <extensions>
          <ns3:TrackPointExtension>
            <ns3:atemp>17.0</ns3:atemp>
            <ns3:hr>140</ns3:hr>
          </ns3:TrackPointExtension>
        </extensions>
      </trkpt>
      <trkpt lat="-22.0427683554589748382568359375" lon="166.45211390219628810882568359375">
        <ele>918.20001220703125</ele>
        <time>2016-08-12T21:57:02.000Z</time>
        <extensions>
          <ns3:TrackPointExtension>
            <ns3:atemp>17.0</ns3:atemp>
            <ns3:hr>140</ns3:hr>
          </ns3:TrackPointExtension>
        </extensions>
      </trkpt>
      <trkpt lat="-22.0427529327571392059326171875" lon="166.45208783447742462158203125">
        <ele>917.4000244140625</ele>
        <time>2016-08-12T21:57:03.000Z</time>
        <extensions>
          <ns3:TrackPointExtension>
            <ns3:atemp>17.0</ns3:atemp>
            <ns3:hr>140</ns3:hr>
          </ns3:TrackPointExtension>
        </extensions>
      </trkpt>
      <trkpt lat="-22.042742036283016204833984375" lon="166.4520631916821002960205078125">
        <ele>916.79998779296875</ele>
        <time>2016-08-12T21:57:04.000Z</time>
        <extensions>
          <ns3:TrackPointExtension>
            <ns3:atemp>17.0</ns3:atemp>
            <ns3:hr>140</ns3:hr>
          </ns3:TrackPointExtension>
        </extensions>
      </trkpt>
      <trkpt lat="-22.04273088835179805755615234375" lon="166.45203427411615848541259765625">
        <ele>917.4000244140625</ele>
        <time>2016-08-12T21:57:05.000Z</time>
        <extensions>
          <ns3:TrackPointExtension>
            <ns3:atemp>17.0</ns3:atemp>
            <ns3:hr>140</ns3:hr>
          </ns3:TrackPointExtension>
        </extensions>
      </trkpt>
      <trkpt lat="-22.04271814785897731781005859375" lon="166.45201080478727817535400390625">
        <ele>917.4000244140625</ele>
        <time>2016-08-12T21:57:06.000Z</time>
        <extensions>
          <ns3:TrackPointExtension>
            <ns3:atemp>17.0</ns3:atemp>
            <ns3:hr>140</ns3:hr>
          </ns3:TrackPointExtension>
        </extensions>
      </trkpt>
      <trkpt lat="-22.04270121641457080841064453125" lon="166.4519911073148250579833984375">
        <ele>916.5999755859375</ele>
        <time>2016-08-12T21:57:07.000Z</time>
        <extensions>
          <ns3:TrackPointExtension>
            <ns3:atemp>17.0</ns3:atemp>
            <ns3:hr>140</ns3:hr>
          </ns3:TrackPointExtension>
        </extensions>
      </trkpt>
      <trkpt lat="-22.04267774708569049835205078125" lon="166.4519678056240081787109375">
        <ele>916</ele>
        <time>2016-08-12T21:57:08.000Z</time>
        <extensions>
          <ns3:TrackPointExtension>
            <ns3:atemp>17.0</ns3:atemp>
            <ns3:hr>140</ns3:hr>
          </ns3:TrackPointExtension>
        </extensions>
      </trkpt>
      <trkpt lat="-22.0426580496132373809814453125" lon="166.4519468508660793304443359375">
        <ele>916.4000244140625</ele>
        <time>2016-08-12T21:57:09.000Z</time>
        <extensions>
          <ns3:TrackPointExtension>
            <ns3:atemp>17.0</ns3:atemp>
            <ns3:hr>141</ns3:hr>
          </ns3:TrackPointExtension>
        </extensions>
      </trkpt>
      <trkpt lat="-22.042647488415241241455078125" lon="166.451922543346881866455078125">
        <ele>916.5999755859375</ele>
        <time>2016-08-12T21:57:10.000Z</time>
        <extensions>
          <ns3:TrackPointExtension>
            <ns3:atemp>17.0</ns3:atemp>
            <ns3:hr>140</ns3:hr>
          </ns3:TrackPointExtension>
        </extensions>
      </trkpt>
      <trkpt lat="-22.042637430131435394287109375" lon="166.45189940929412841796875">
        <ele>916</ele>
        <time>2016-08-12T21:57:11.000Z</time>
        <extensions>
          <ns3:TrackPointExtension>
            <ns3:atemp>17.0</ns3:atemp>
            <ns3:hr>141</ns3:hr>
          </ns3:TrackPointExtension>
        </extensions>
      </trkpt>
      <trkpt lat="-22.04263097606599330902099609375" lon="166.4518766105175018310546875">
        <ele>915.4000244140625</ele>
        <time>2016-08-12T21:57:12.000Z</time>
        <extensions>
          <ns3:TrackPointExtension>
            <ns3:atemp>17.0</ns3:atemp>
            <ns3:hr>140</ns3:hr>
          </ns3:TrackPointExtension>
        </extensions>
      </trkpt>
      <trkpt lat="-22.04262577928602695465087890625" lon="166.45185104571282863616943359375">
        <ele>915.79998779296875</ele>
        <time>2016-08-12T21:57:13.000Z</time>
        <extensions>
          <ns3:TrackPointExtension>
            <ns3:atemp>17.0</ns3:atemp>
            <ns3:hr>140</ns3:hr>
          </ns3:TrackPointExtension>
        </extensions>
      </trkpt>
      <trkpt lat="-22.0426194928586483001708984375" lon="166.45182573236525058746337890625">
        <ele>916</ele>
        <time>2016-08-12T21:57:14.000Z</time>
        <extensions>
          <ns3:TrackPointExtension>
            <ns3:atemp>17.0</ns3:atemp>
            <ns3:hr>141</ns3:hr>
          </ns3:TrackPointExtension>
        </extensions>
      </trkpt>
      <trkpt lat="-22.04262108542025089263916015625" lon="166.451801173388957977294921875">
        <ele>915.79998779296875</ele>
        <time>2016-08-12T21:57:15.000Z</time>
        <extensions>
          <ns3:TrackPointExtension>
            <ns3:atemp>17.0</ns3:atemp>
            <ns3:hr>140</ns3:hr>
          </ns3:TrackPointExtension>
        </extensions>
      </trkpt>
      <trkpt lat="-22.04262527637183666229248046875" lon="166.45177845843136310577392578125">
        <ele>915.4000244140625</ele>
        <time>2016-08-12T21:57:16.000Z</time>
        <extensions>
          <ns3:TrackPointExtension>
            <ns3:atemp>17.0</ns3:atemp>
            <ns3:hr>141</ns3:hr>
          </ns3:TrackPointExtension>
        </extensions>
      </trkpt>
      <trkpt lat="-22.0426308922469615936279296875" lon="166.45175549201667308807373046875">
        <ele>915.79998779296875</ele>
        <time>2016-08-12T21:57:17.000Z</time>
        <extensions>
          <ns3:TrackPointExtension>
            <ns3:atemp>17.0</ns3:atemp>
            <ns3:hr>140</ns3:hr>
          </ns3:TrackPointExtension>
        </extensions>
      </trkpt>
      <trkpt lat="-22.04264187254011631011962890625" lon="166.45173168741166591644287109375">
        <ele>916</ele>
        <time>2016-08-12T21:57:18.000Z</time>
        <extensions>
          <ns3:TrackPointExtension>
            <ns3:atemp>17.0</ns3:atemp>
            <ns3:hr>141</ns3:hr>
          </ns3:TrackPointExtension>
        </extensions>
      </trkpt>
      <trkpt lat="-22.04265880398452281951904296875" lon="166.4517138339579105377197265625">
        <ele>916</ele>
        <time>2016-08-12T21:57:19.000Z</time>
        <extensions>
          <ns3:TrackPointExtension>
            <ns3:atemp>17.0</ns3:atemp>
            <ns3:hr>141</ns3:hr>
          </ns3:TrackPointExtension>
        </extensions>
      </trkpt>
      <trkpt lat="-22.042672969400882720947265625" lon="166.451693214476108551025390625">
        <ele>915.5999755859375</ele>
        <time>2016-08-12T21:57:20.000Z</time>
        <extensions>
          <ns3:TrackPointExtension>
            <ns3:atemp>17.0</ns3:atemp>
            <ns3:hr>141</ns3:hr>
          </ns3:TrackPointExtension>
        </extensions>
      </trkpt>
      <trkpt lat="-22.0426905713975429534912109375" lon="166.451669074594974517822265625">
        <ele>915.79998779296875</ele>
        <time>2016-08-12T21:57:21.000Z</time>
        <extensions>
          <ns3:TrackPointExtension>
            <ns3:atemp>17.0</ns3:atemp>
            <ns3:hr>141</ns3:hr>
          </ns3:TrackPointExtension>
        </extensions>
      </trkpt>
      <trkpt lat="-22.0427069999277591705322265625" lon="166.45165004767477512359619140625">
        <ele>915.79998779296875</ele>
        <time>2016-08-12T21:57:22.000Z</time>
        <extensions>
          <ns3:TrackPointExtension>
            <ns3:atemp>17.0</ns3:atemp>
            <ns3:hr>141</ns3:hr>
          </ns3:TrackPointExtension>
        </extensions>
      </trkpt>
      <trkpt lat="-22.0427257753908634185791015625" lon="166.4516296796500682830810546875">
        <ele>915.4000244140625</ele>
        <time>2016-08-12T21:57:23.000Z</time>
        <extensions>
          <ns3:TrackPointExtension>
            <ns3:atemp>17.0</ns3:atemp>
            <ns3:hr>141</ns3:hr>
          </ns3:TrackPointExtension>
        </extensions>
      </trkpt>
      <trkpt lat="-22.04273826442658901214599609375" lon="166.45161174237728118896484375">
        <ele>915</ele>
        <time>2016-08-12T21:57:24.000Z</time>
        <extensions>
          <ns3:TrackPointExtension>
            <ns3:atemp>17.0</ns3:atemp>
            <ns3:hr>141</ns3:hr>
          </ns3:TrackPointExtension>
        </extensions>
      </trkpt>
      <trkpt lat="-22.0427509211003780364990234375" lon="166.4515911228954792022705078125">
        <ele>915.20001220703125</ele>
        <time>2016-08-12T21:57:25.000Z</time>
        <extensions>
          <ns3:TrackPointExtension>
            <ns3:atemp>17.0</ns3:atemp>
            <ns3:hr>141</ns3:hr>
          </ns3:TrackPointExtension>
        </extensions>
      </trkpt>
      <trkpt lat="-22.04276173375546932220458984375" lon="166.451568491756916046142578125">
        <ele>915.5999755859375</ele>
        <time>2016-08-12T21:57:26.000Z</time>
        <extensions>
          <ns3:TrackPointExtension>
            <ns3:atemp>17.0</ns3:atemp>
            <ns3:hr>141</ns3:hr>
          </ns3:TrackPointExtension>
        </extensions>
      </trkpt>
      <trkpt lat="-22.042777240276336669921875" lon="166.45154912956058979034423828125">
        <ele>915.5999755859375</ele>
        <time>2016-08-12T21:57:27.000Z</time>
        <extensions>
          <ns3:TrackPointExtension>
            <ns3:atemp>17.0</ns3:atemp>
            <ns3:hr>141</ns3:hr>
          </ns3:TrackPointExtension>
        </extensions>
      </trkpt>
      <trkpt lat="-22.04279609955847263336181640625" lon="166.45152783952653408050537109375">
        <ele>914.5999755859375</ele>
        <time>2016-08-12T21:57:28.000Z</time>
        <extensions>
          <ns3:TrackPointExtension>
            <ns3:atemp>17.0</ns3:atemp>
            <ns3:hr>141</ns3:hr>
          </ns3:TrackPointExtension>
        </extensions>
      </trkpt>
      <trkpt lat="-22.04281571321189403533935546875" lon="166.4515089802443981170654296875">
        <ele>914.5999755859375</ele>
        <time>2016-08-12T21:57:29.000Z</time>
        <extensions>
          <ns3:TrackPointExtension>
            <ns3:atemp>17.0</ns3:atemp>
            <ns3:hr>141</ns3:hr>
          </ns3:TrackPointExtension>
        </extensions>
      </trkpt>
      <trkpt lat="-22.04283096827566623687744140625" lon="166.45148961804807186126708984375">
        <ele>915.20001220703125</ele>
        <time>2016-08-12T21:57:30.000Z</time>
        <extensions>
          <ns3:TrackPointExtension>
            <ns3:atemp>17.0</ns3:atemp>
            <ns3:hr>141</ns3:hr>
          </ns3:TrackPointExtension>
        </extensions>
      </trkpt>
      <trkpt lat="-22.04285167157649993896484375" lon="166.4514670707285404205322265625">
        <ele>915.20001220703125</ele>
        <time>2016-08-12T21:57:31.000Z</time>
        <extensions>
          <ns3:TrackPointExtension>
            <ns3:atemp>17.0</ns3:atemp>
            <ns3:hr>141</ns3:hr>
          </ns3:TrackPointExtension>
        </extensions>
      </trkpt>
      <trkpt lat="-22.0428692735731601715087890625" lon="166.4514501392841339111328125">
        <ele>914.5999755859375</ele>
        <time>2016-08-12T21:57:32.000Z</time>
        <extensions>
          <ns3:TrackPointExtension>
            <ns3:atemp>17.0</ns3:atemp>
            <ns3:hr>141</ns3:hr>
          </ns3:TrackPointExtension>
        </extensions>
      </trkpt>
      <trkpt lat="-22.04288762994110584259033203125" lon="166.45143496803939342498779296875">
        <ele>914.5999755859375</ele>
        <time>2016-08-12T21:57:33.000Z</time>
        <extensions>
          <ns3:TrackPointExtension>
            <ns3:atemp>17.0</ns3:atemp>
            <ns3:hr>142</ns3:hr>
          </ns3:TrackPointExtension>
        </extensions>
      </trkpt>
      <trkpt lat="-22.04290866851806640625" lon="166.4514179527759552001953125">
        <ele>915.20001220703125</ele>
        <time>2016-08-12T21:57:34.000Z</time>
        <extensions>
          <ns3:TrackPointExtension>
            <ns3:atemp>17.0</ns3:atemp>
            <ns3:hr>141</ns3:hr>
          </ns3:TrackPointExtension>
        </extensions>
      </trkpt>
      <trkpt lat="-22.04292736016213893890380859375" lon="166.451398171484470367431640625">
        <ele>915.20001220703125</ele>
        <time>2016-08-12T21:57:35.000Z</time>
        <extensions>
          <ns3:TrackPointExtension>
            <ns3:atemp>17.0</ns3:atemp>
            <ns3:hr>141</ns3:hr>
          </ns3:TrackPointExtension>
        </extensions>
      </trkpt>
      <trkpt lat="-22.042950578033924102783203125" lon="166.45137562416493892669677734375">
        <ele>914.4000244140625</ele>
        <time>2016-08-12T21:57:36.000Z</time>
        <extensions>
          <ns3:TrackPointExtension>
            <ns3:atemp>17.0</ns3:atemp>
            <ns3:hr>141</ns3:hr>
          </ns3:TrackPointExtension>
        </extensions>
      </trkpt>
      <trkpt lat="-22.042972035706043243408203125" lon="166.4513557590544223785400390625">
        <ele>914.4000244140625</ele>
        <time>2016-08-12T21:57:37.000Z</time>
        <extensions>
          <ns3:TrackPointExtension>
            <ns3:atemp>17.0</ns3:atemp>
            <ns3:hr>141</ns3:hr>
          </ns3:TrackPointExtension>
        </extensions>
      </trkpt>
      <trkpt lat="-22.04299290664494037628173828125" lon="166.45133639685809612274169921875">
        <ele>915.20001220703125</ele>
        <time>2016-08-12T21:57:38.000Z</time>
        <extensions>
          <ns3:TrackPointExtension>
            <ns3:atemp>17.0</ns3:atemp>
            <ns3:hr>141</ns3:hr>
          </ns3:TrackPointExtension>
        </extensions>
      </trkpt>
      <trkpt lat="-22.04301067627966403961181640625" lon="166.4513178728520870208740234375">
        <ele>915.20001220703125</ele>
        <time>2016-08-12T21:57:39.000Z</time>
        <extensions>
          <ns3:TrackPointExtension>
            <ns3:atemp>17.0</ns3:atemp>
            <ns3:hr>141</ns3:hr>
          </ns3:TrackPointExtension>
        </extensions>
      </trkpt>
      <trkpt lat="-22.043028362095355987548828125" lon="166.45129934884607791900634765625">
        <ele>914.5999755859375</ele>
        <time>2016-08-12T21:57:40.000Z</time>
        <extensions>
          <ns3:TrackPointExtension>
            <ns3:atemp>17.0</ns3:atemp>
            <ns3:hr>141</ns3:hr>
          </ns3:TrackPointExtension>
        </extensions>
      </trkpt>
      <trkpt lat="-22.04304889775812625885009765625" lon="166.45128090865910053253173828125">
        <ele>914.5999755859375</ele>
        <time>2016-08-12T21:57:41.000Z</time>
        <extensions>
          <ns3:TrackPointExtension>
            <ns3:atemp>17.0</ns3:atemp>
            <ns3:hr>141</ns3:hr>
          </ns3:TrackPointExtension>
        </extensions>
      </trkpt>
      <trkpt lat="-22.043072283267974853515625" lon="166.45126531831920146942138671875">
        <ele>915.20001220703125</ele>
        <time>2016-08-12T21:57:42.000Z</time>
        <extensions>
          <ns3:TrackPointExtension>
            <ns3:atemp>17.0</ns3:atemp>
            <ns3:hr>142</ns3:hr>
          </ns3:TrackPointExtension>
        </extensions>
      </trkpt>
      <trkpt lat="-22.04309575259685516357421875" lon="166.45125576294958591461181640625">
        <ele>915.5999755859375</ele>
        <time>2016-08-12T21:57:43.000Z</time>
        <extensions>
          <ns3:TrackPointExtension>
            <ns3:atemp>17.0</ns3:atemp>
            <ns3:hr>142</ns3:hr>
          </ns3:TrackPointExtension>
        </extensions>
      </trkpt>
      <trkpt lat="-22.04311721026897430419921875" lon="166.45124888978898525238037109375">
        <ele>915.20001220703125</ele>
        <time>2016-08-12T21:57:44.000Z</time>
        <extensions>
          <ns3:TrackPointExtension>
            <ns3:atemp>17.0</ns3:atemp>
            <ns3:hr>142</ns3:hr>
          </ns3:TrackPointExtension>
        </extensions>
      </trkpt>
      <trkpt lat="-22.04313741065561771392822265625" lon="166.45124520175158977508544921875">
        <ele>915</ele>
        <time>2016-08-12T21:57:45.000Z</time>
        <extensions>
          <ns3:TrackPointExtension>
            <ns3:atemp>17.0</ns3:atemp>
            <ns3:hr>142</ns3:hr>
          </ns3:TrackPointExtension>
        </extensions>
      </trkpt>
      <trkpt lat="-22.0431586168706417083740234375" lon="166.45123782567679882049560546875">
        <ele>915.5999755859375</ele>
        <time>2016-08-12T21:57:46.000Z</time>
        <extensions>
          <ns3:TrackPointExtension>
            <ns3:atemp>17.0</ns3:atemp>
            <ns3:hr>141</ns3:hr>
          </ns3:TrackPointExtension>
        </extensions>
      </trkpt>
      <trkpt lat="-22.0431800745427608489990234375" lon="166.4512286894023418426513671875">
        <ele>915.5999755859375</ele>
        <time>2016-08-12T21:57:47.000Z</time>
        <extensions>
          <ns3:TrackPointExtension>
            <ns3:atemp>17.0</ns3:atemp>
            <ns3:hr>142</ns3:hr>
          </ns3:TrackPointExtension>
        </extensions>
      </trkpt>
      <trkpt lat="-22.04320262186229228973388671875" lon="166.451221145689487457275390625">
        <ele>915</ele>
        <time>2016-08-12T21:57:48.000Z</time>
        <extensions>
          <ns3:TrackPointExtension>
            <ns3:atemp>17.0</ns3:atemp>
            <ns3:hr>142</ns3:hr>
          </ns3:TrackPointExtension>
        </extensions>
      </trkpt>
      <trkpt lat="-22.04322583973407745361328125" lon="166.4512092433869838714599609375">
        <ele>915</ele>
        <time>2016-08-12T21:57:49.000Z</time>
        <extensions>
          <ns3:TrackPointExtension>
            <ns3:atemp>17.0</ns3:atemp>
            <ns3:hr>142</ns3:hr>
          </ns3:TrackPointExtension>
        </extensions>
      </trkpt>
      <trkpt lat="-22.0432461239397525787353515625" lon="166.4511971734464168548583984375">
        <ele>915.5999755859375</ele>
        <time>2016-08-12T21:57:50.000Z</time>
        <extensions>
          <ns3:TrackPointExtension>
            <ns3:atemp>17.0</ns3:atemp>
            <ns3:hr>142</ns3:hr>
          </ns3:TrackPointExtension>
        </extensions>
      </trkpt>
      <trkpt lat="-22.04326397739350795745849609375" lon="166.45118066109716892242431640625">
        <ele>915</ele>
        <time>2016-08-12T21:57:51.000Z</time>
        <extensions>
          <ns3:TrackPointExtension>
            <ns3:atemp>17.0</ns3:atemp>
            <ns3:hr>142</ns3:hr>
          </ns3:TrackPointExtension>
        </extensions>
      </trkpt>
      <trkpt lat="-22.043281495571136474609375" lon="166.451161801815032958984375">
        <ele>914.5999755859375</ele>
        <time>2016-08-12T21:57:52.000Z</time>
        <extensions>
          <ns3:TrackPointExtension>
            <ns3:atemp>17.0</ns3:atemp>
            <ns3:hr>142</ns3:hr>
          </ns3:TrackPointExtension>
        </extensions>
      </trkpt>
      <trkpt lat="-22.0432967506349086761474609375" lon="166.45114059560000896453857421875">
        <ele>915.20001220703125</ele>
        <time>2016-08-12T21:57:53.000Z</time>
        <extensions>
          <ns3:TrackPointExtension>
            <ns3:atemp>17.0</ns3:atemp>
            <ns3:hr>142</ns3:hr>
          </ns3:TrackPointExtension>
        </extensions>
      </trkpt>
      <trkpt lat="-22.04330856911838054656982421875" lon="166.45111293531954288482666015625">
        <ele>915.4000244140625</ele>
        <time>2016-08-12T21:57:54.000Z</time>
        <extensions>
          <ns3:TrackPointExtension>
            <ns3:atemp>17.0</ns3:atemp>
            <ns3:hr>142</ns3:hr>
          </ns3:TrackPointExtension>
        </extensions>
      </trkpt>
      <trkpt lat="-22.04331594519317150115966796875" lon="166.45108426921069622039794921875">
        <ele>914.4000244140625</ele>
        <time>2016-08-12T21:57:55.000Z</time>
        <extensions>
          <ns3:TrackPointExtension>
            <ns3:atemp>17.0</ns3:atemp>
            <ns3:hr>142</ns3:hr>
          </ns3:TrackPointExtension>
        </extensions>
      </trkpt>
      <trkpt lat="-22.04332248307764530181884765625" lon="166.45105275325477123260498046875">
        <ele>914</ele>
        <time>2016-08-12T21:57:56.000Z</time>
        <extensions>
          <ns3:TrackPointExtension>
            <ns3:atemp>17.0</ns3:atemp>
            <ns3:hr>142</ns3:hr>
          </ns3:TrackPointExtension>
        </extensions>
      </trkpt>
      <trkpt lat="-22.043330781161785125732421875" lon="166.45102291367948055267333984375">
        <ele>914.79998779296875</ele>
        <time>2016-08-12T21:57:57.000Z</time>
        <extensions>
          <ns3:TrackPointExtension>
            <ns3:atemp>17.0</ns3:atemp>
            <ns3:hr>142</ns3:hr>
          </ns3:TrackPointExtension>
        </extensions>
      </trkpt>
      <trkpt lat="-22.0433346368372440338134765625" lon="166.45099609158933162689208984375">
        <ele>915.20001220703125</ele>
        <time>2016-08-12T21:57:58.000Z</time>
        <extensions>
          <ns3:TrackPointExtension>
            <ns3:atemp>17.0</ns3:atemp>
            <ns3:hr>142</ns3:hr>
          </ns3:TrackPointExtension>
        </extensions>
      </trkpt>
      <trkpt lat="-22.04334327019751071929931640625" lon="166.450968347489833831787109375">
        <ele>914.5999755859375</ele>
        <time>2016-08-12T21:57:59.000Z</time>
        <extensions>
          <ns3:TrackPointExtension>
            <ns3:atemp>17.0</ns3:atemp>
            <ns3:hr>142</ns3:hr>
          </ns3:TrackPointExtension>
        </extensions>
      </trkpt>
      <trkpt lat="-22.0433477126061916351318359375" lon="166.4509430341422557830810546875">
        <ele>914.20001220703125</ele>
        <time>2016-08-12T21:58:00.000Z</time>
        <extensions>
          <ns3:TrackPointExtension>
            <ns3:atemp>17.0</ns3:atemp>
            <ns3:hr>142</ns3:hr>
          </ns3:TrackPointExtension>
        </extensions>
      </trkpt>
      <trkpt lat="-22.0433514006435871124267578125" lon="166.4509178884327411651611328125">
        <ele>914.4000244140625</ele>
        <time>2016-08-12T21:58:01.000Z</time>
        <extensions>
          <ns3:TrackPointExtension>
            <ns3:atemp>17.0</ns3:atemp>
            <ns3:hr>142</ns3:hr>
          </ns3:TrackPointExtension>
        </extensions>
      </trkpt>
      <trkpt lat="-22.0433534123003482818603515625" lon="166.45089022815227508544921875">
        <ele>915</ele>
        <time>2016-08-12T21:58:02.000Z</time>
        <extensions>
          <ns3:TrackPointExtension>
            <ns3:atemp>17.0</ns3:atemp>
            <ns3:hr>142</ns3:hr>
          </ns3:TrackPointExtension>
        </extensions>
      </trkpt>
      <trkpt lat="-22.04335450194776058197021484375" lon="166.45086315460503101348876953125">
        <ele>915</ele>
        <time>2016-08-12T21:58:03.000Z</time>
        <extensions>
          <ns3:TrackPointExtension>
            <ns3:atemp>18.0</ns3:atemp>
            <ns3:hr>142</ns3:hr>
          </ns3:TrackPointExtension>
        </extensions>
      </trkpt>
      <trkpt lat="-22.04334922134876251220703125" lon="166.4508337341248989105224609375">
        <ele>914.5999755859375</ele>
        <time>2016-08-12T21:58:04.000Z</time>
        <extensions>
          <ns3:TrackPointExtension>
            <ns3:atemp>18.0</ns3:atemp>
            <ns3:hr>142</ns3:hr>
          </ns3:TrackPointExtension>
        </extensions>
      </trkpt>
      <trkpt lat="-22.04334913752973079681396484375" lon="166.450806744396686553955078125">
        <ele>914.5999755859375</ele>
        <time>2016-08-12T21:58:05.000Z</time>
        <extensions>
          <ns3:TrackPointExtension>
            <ns3:atemp>18.0</ns3:atemp>
            <ns3:hr>142</ns3:hr>
          </ns3:TrackPointExtension>
        </extensions>
      </trkpt>
      <trkpt lat="-22.0433480478823184967041015625" lon="166.45078293979167938232421875">
        <ele>914.5999755859375</ele>
        <time>2016-08-12T21:58:06.000Z</time>
        <extensions>
          <ns3:TrackPointExtension>
            <ns3:atemp>18.0</ns3:atemp>
            <ns3:hr>142</ns3:hr>
          </ns3:TrackPointExtension>
        </extensions>
      </trkpt>
      <trkpt lat="-22.0433483831584453582763671875" lon="166.450755782425403594970703125">
        <ele>914.20001220703125</ele>
        <time>2016-08-12T21:58:07.000Z</time>
        <extensions>
          <ns3:TrackPointExtension>
            <ns3:atemp>18.0</ns3:atemp>
            <ns3:hr>142</ns3:hr>
          </ns3:TrackPointExtension>
        </extensions>
      </trkpt>
      <trkpt lat="-22.04334595240652561187744140625" lon="166.45073122344911098480224609375">
        <ele>913.79998779296875</ele>
        <time>2016-08-12T21:58:08.000Z</time>
        <extensions>
          <ns3:TrackPointExtension>
            <ns3:atemp>18.0</ns3:atemp>
            <ns3:hr>142</ns3:hr>
          </ns3:TrackPointExtension>
        </extensions>
      </trkpt>
      <trkpt lat="-22.04334519803524017333984375" lon="166.45070624537765979766845703125">
        <ele>914</ele>
        <time>2016-08-12T21:58:09.000Z</time>
        <extensions>
          <ns3:TrackPointExtension>
            <ns3:atemp>18.0</ns3:atemp>
            <ns3:hr>141</ns3:hr>
          </ns3:TrackPointExtension>
        </extensions>
      </trkpt>
      <trkpt lat="-22.043350227177143096923828125" lon="166.45068260841071605682373046875">
        <ele>914.4000244140625</ele>
        <time>2016-08-12T21:58:10.000Z</time>
        <extensions>
          <ns3:TrackPointExtension>
            <ns3:atemp>18.0</ns3:atemp>
            <ns3:hr>142</ns3:hr>
          </ns3:TrackPointExtension>
        </extensions>
      </trkpt>
      <trkpt lat="-22.0433547534048557281494140625" lon="166.4506562054157257080078125">
        <ele>914.4000244140625</ele>
        <time>2016-08-12T21:58:11.000Z</time>
        <extensions>
          <ns3:TrackPointExtension>
            <ns3:atemp>18.0</ns3:atemp>
            <ns3:hr>142</ns3:hr>
          </ns3:TrackPointExtension>
        </extensions>
      </trkpt>
      <trkpt lat="-22.043358273804187774658203125" lon="166.450629718601703643798828125">
        <ele>913.79998779296875</ele>
        <time>2016-08-12T21:58:12.000Z</time>
        <extensions>
          <ns3:TrackPointExtension>
            <ns3:atemp>18.0</ns3:atemp>
            <ns3:hr>142</ns3:hr>
          </ns3:TrackPointExtension>
        </extensions>
      </trkpt>
      <trkpt lat="-22.04336053691804409027099609375" lon="166.4506025612354278564453125">
        <ele>913.79998779296875</ele>
        <time>2016-08-12T21:58:13.000Z</time>
        <extensions>
          <ns3:TrackPointExtension>
            <ns3:atemp>18.0</ns3:atemp>
            <ns3:hr>142</ns3:hr>
          </ns3:TrackPointExtension>
        </extensions>
      </trkpt>
      <trkpt lat="-22.0433628000319004058837890625" lon="166.4505749009549617767333984375">
        <ele>914</ele>
        <time>2016-08-12T21:58:14.000Z</time>
        <extensions>
          <ns3:TrackPointExtension>
            <ns3:atemp>18.0</ns3:atemp>
            <ns3:hr>141</ns3:hr>
          </ns3:TrackPointExtension>
        </extensions>
      </trkpt>
      <trkpt lat="-22.04336456023156642913818359375" lon="166.4505433849990367889404296875">
        <ele>913.79998779296875</ele>
        <time>2016-08-12T21:58:15.000Z</time>
        <extensions>
          <ns3:TrackPointExtension>
            <ns3:atemp>18.0</ns3:atemp>
            <ns3:hr>142</ns3:hr>
          </ns3:TrackPointExtension>
        </extensions>
      </trkpt>
      <trkpt lat="-22.04336774535477161407470703125" lon="166.45051497034728527069091796875">
        <ele>913.4000244140625</ele>
        <time>2016-08-12T21:58:16.000Z</time>
        <extensions>
          <ns3:TrackPointExtension>
            <ns3:atemp>18.0</ns3:atemp>
            <ns3:hr>142</ns3:hr>
          </ns3:TrackPointExtension>
        </extensions>
      </trkpt>
      <trkpt lat="-22.04337780363857746124267578125" lon="166.45048228092491626739501953125">
        <ele>913.4000244140625</ele>
        <time>2016-08-12T21:58:17.000Z</time>
        <extensions>
          <ns3:TrackPointExtension>
            <ns3:atemp>18.0</ns3:atemp>
            <ns3:hr>142</ns3:hr>
          </ns3:TrackPointExtension>
        </extensions>
      </trkpt>
      <trkpt lat="-22.04338274896144866943359375" lon="166.4504523575305938720703125">
        <ele>913.4000244140625</ele>
        <time>2016-08-12T21:58:18.000Z</time>
        <extensions>
          <ns3:TrackPointExtension>
            <ns3:atemp>18.0</ns3:atemp>
            <ns3:hr>142</ns3:hr>
          </ns3:TrackPointExtension>
        </extensions>
      </trkpt>
      <trkpt lat="-22.043385095894336700439453125" lon="166.45042494870722293853759765625">
        <ele>912.79998779296875</ele>
        <time>2016-08-12T21:58:19.000Z</time>
        <extensions>
          <ns3:TrackPointExtension>
            <ns3:atemp>18.0</ns3:atemp>
            <ns3:hr>142</ns3:hr>
          </ns3:TrackPointExtension>
        </extensions>
      </trkpt>
      <trkpt lat="-22.043395154178142547607421875" lon="166.4503961987793445587158203125">
        <ele>912.4000244140625</ele>
        <time>2016-08-12T21:58:20.000Z</time>
        <extensions>
          <ns3:TrackPointExtension>
            <ns3:atemp>18.0</ns3:atemp>
            <ns3:hr>142</ns3:hr>
          </ns3:TrackPointExtension>
        </extensions>
      </trkpt>
      <trkpt lat="-22.04339959658682346343994140625" lon="166.4503710530698299407958984375">
        <ele>912.79998779296875</ele>
        <time>2016-08-12T21:58:21.000Z</time>
        <extensions>
          <ns3:TrackPointExtension>
            <ns3:atemp>18.0</ns3:atemp>
            <ns3:hr>142</ns3:hr>
          </ns3:TrackPointExtension>
        </extensions>
      </trkpt>
      <trkpt lat="-22.043410241603851318359375" lon="166.45034347660839557647705078125">
        <ele>912.79998779296875</ele>
        <time>2016-08-12T21:58:22.000Z</time>
        <extensions>
          <ns3:TrackPointExtension>
            <ns3:atemp>18.0</ns3:atemp>
            <ns3:hr>142</ns3:hr>
          </ns3:TrackPointExtension>
        </extensions>
      </trkpt>
      <trkpt lat="-22.04342088662087917327880859375" lon="166.45031447522342205047607421875">
        <ele>912</ele>
        <time>2016-08-12T21:58:23.000Z</time>
        <extensions>
          <ns3:TrackPointExtension>
            <ns3:atemp>18.0</ns3:atemp>
            <ns3:hr>142</ns3:hr>
          </ns3:TrackPointExtension>
        </extensions>
      </trkpt>
      <trkpt lat="-22.0434278436005115509033203125" lon="166.4502882398664951324462890625">
        <ele>911.79998779296875</ele>
        <time>2016-08-12T21:58:24.000Z</time>
        <extensions>
          <ns3:TrackPointExtension>
            <ns3:atemp>18.0</ns3:atemp>
            <ns3:hr>142</ns3:hr>
          </ns3:TrackPointExtension>
        </extensions>
      </trkpt>
      <trkpt lat="-22.0434399135410785675048828125" lon="166.4502600766718387603759765625">
        <ele>911.79998779296875</ele>
        <time>2016-08-12T21:58:25.000Z</time>
        <extensions>
          <ns3:TrackPointExtension>
            <ns3:atemp>18.0</ns3:atemp>
            <ns3:hr>142</ns3:hr>
          </ns3:TrackPointExtension>
        </extensions>
      </trkpt>
      <trkpt lat="-22.04344653524458408355712890625" lon="166.45023669116199016571044921875">
        <ele>911.79998779296875</ele>
        <time>2016-08-12T21:58:26.000Z</time>
        <extensions>
          <ns3:TrackPointExtension>
            <ns3:atemp>18.0</ns3:atemp>
            <ns3:hr>142</ns3:hr>
          </ns3:TrackPointExtension>
        </extensions>
      </trkpt>
      <trkpt lat="-22.04345474950969219207763671875" lon="166.4502144791185855865478515625">
        <ele>911.20001220703125</ele>
        <time>2016-08-12T21:58:27.000Z</time>
        <extensions>
          <ns3:TrackPointExtension>
            <ns3:atemp>18.0</ns3:atemp>
            <ns3:hr>142</ns3:hr>
          </ns3:TrackPointExtension>
        </extensions>
      </trkpt>
      <trkpt lat="-22.04346455633640289306640625" lon="166.45018774084746837615966796875">
        <ele>910.79998779296875</ele>
        <time>2016-08-12T21:58:28.000Z</time>
        <extensions>
          <ns3:TrackPointExtension>
            <ns3:atemp>18.0</ns3:atemp>
            <ns3:hr>142</ns3:hr>
          </ns3:TrackPointExtension>
        </extensions>
      </trkpt>
      <trkpt lat="-22.0434727706015110015869140625" lon="166.4501621760427951812744140625">
        <ele>911.79998779296875</ele>
        <time>2016-08-12T21:58:29.000Z</time>
        <extensions>
          <ns3:TrackPointExtension>
            <ns3:atemp>18.0</ns3:atemp>
            <ns3:hr>142</ns3:hr>
          </ns3:TrackPointExtension>
        </extensions>
      </trkpt>
      <trkpt lat="-22.04348425380885601043701171875" lon="166.4501385390758514404296875">
        <ele>912.5999755859375</ele>
        <time>2016-08-12T21:58:30.000Z</time>
        <extensions>
          <ns3:TrackPointExtension>
            <ns3:atemp>18.0</ns3:atemp>
            <ns3:hr>142</ns3:hr>
          </ns3:TrackPointExtension>
        </extensions>
      </trkpt>
      <trkpt lat="-22.04349548555910587310791015625" lon="166.45011800341308116912841796875">
        <ele>912.20001220703125</ele>
        <time>2016-08-12T21:58:31.000Z</time>
        <extensions>
          <ns3:TrackPointExtension>
            <ns3:atemp>18.0</ns3:atemp>
            <ns3:hr>142</ns3:hr>
          </ns3:TrackPointExtension>
        </extensions>
      </trkpt>
      <trkpt lat="-22.04351174645125865936279296875" lon="166.45009763538837432861328125">
        <ele>911.5999755859375</ele>
        <time>2016-08-12T21:58:32.000Z</time>
        <extensions>
          <ns3:TrackPointExtension>
            <ns3:atemp>18.0</ns3:atemp>
            <ns3:hr>142</ns3:hr>
          </ns3:TrackPointExtension>
        </extensions>
      </trkpt>
      <trkpt lat="-22.04353068955242633819580078125" lon="166.45008020102977752685546875">
        <ele>911.79998779296875</ele>
        <time>2016-08-12T21:58:33.000Z</time>
        <extensions>
          <ns3:TrackPointExtension>
            <ns3:atemp>18.0</ns3:atemp>
            <ns3:hr>142</ns3:hr>
          </ns3:TrackPointExtension>
        </extensions>
      </trkpt>
      <trkpt lat="-22.04354158602654933929443359375" lon="166.4500682987272739410400390625">
        <ele>912.4000244140625</ele>
        <time>2016-08-12T21:58:34.000Z</time>
        <extensions>
          <ns3:TrackPointExtension>
            <ns3:atemp>18.0</ns3:atemp>
            <ns3:hr>141</ns3:hr>
          </ns3:TrackPointExtension>
        </extensions>
      </trkpt>
      <trkpt lat="-22.04355516470968723297119140625" lon="166.45005798898637294769287109375">
        <ele>912.5999755859375</ele>
        <time>2016-08-12T21:58:35.000Z</time>
        <extensions>
          <ns3:TrackPointExtension>
            <ns3:atemp>18.0</ns3:atemp>
            <ns3:hr>142</ns3:hr>
          </ns3:TrackPointExtension>
        </extensions>
      </trkpt>
      <trkpt lat="-22.04357226379215717315673828125" lon="166.4500508643686771392822265625">
        <ele>912.5999755859375</ele>
        <time>2016-08-12T21:58:36.000Z</time>
        <extensions>
          <ns3:TrackPointExtension>
            <ns3:atemp>18.0</ns3:atemp>
            <ns3:hr>141</ns3:hr>
          </ns3:TrackPointExtension>
        </extensions>
      </trkpt>
      <trkpt lat="-22.043588943779468536376953125" lon="166.450047679245471954345703125">
        <ele>912.79998779296875</ele>
        <time>2016-08-12T21:58:37.000Z</time>
        <extensions>
          <ns3:TrackPointExtension>
            <ns3:atemp>18.0</ns3:atemp>
            <ns3:hr>141</ns3:hr>
          </ns3:TrackPointExtension>
        </extensions>
      </trkpt>
      <trkpt lat="-22.0436088927090167999267578125" lon="166.450047008693218231201171875">
        <ele>913.4000244140625</ele>
        <time>2016-08-12T21:58:38.000Z</time>
        <extensions>
          <ns3:TrackPointExtension>
            <ns3:atemp>18.0</ns3:atemp>
            <ns3:hr>141</ns3:hr>
          </ns3:TrackPointExtension>
        </extensions>
      </trkpt>
      <trkpt lat="-22.0436266623437404632568359375" lon="166.4500441588461399078369140625">
        <ele>913.20001220703125</ele>
        <time>2016-08-12T21:58:39.000Z</time>
        <extensions>
          <ns3:TrackPointExtension>
            <ns3:atemp>18.0</ns3:atemp>
            <ns3:hr>141</ns3:hr>
          </ns3:TrackPointExtension>
        </extensions>
      </trkpt>
      <trkpt lat="-22.043645940721035003662109375" lon="166.450041644275188446044921875">
        <ele>912.79998779296875</ele>
        <time>2016-08-12T21:58:40.000Z</time>
        <extensions>
          <ns3:TrackPointExtension>
            <ns3:atemp>18.0</ns3:atemp>
            <ns3:hr>142</ns3:hr>
          </ns3:TrackPointExtension>
        </extensions>
      </trkpt>
      <trkpt lat="-22.0436645485460758209228515625" lon="166.45003619603812694549560546875">
        <ele>913</ele>
        <time>2016-08-12T21:58:41.000Z</time>
        <extensions>
          <ns3:TrackPointExtension>
            <ns3:atemp>18.0</ns3:atemp>
            <ns3:hr>141</ns3:hr>
          </ns3:TrackPointExtension>
        </extensions>
      </trkpt>
      <trkpt lat="-22.043681479990482330322265625" lon="166.45002831704914569854736328125">
        <ele>913.20001220703125</ele>
        <time>2016-08-12T21:58:42.000Z</time>
        <extensions>
          <ns3:TrackPointExtension>
            <ns3:atemp>18.0</ns3:atemp>
            <ns3:hr>142</ns3:hr>
          </ns3:TrackPointExtension>
        </extensions>
      </trkpt>
      <trkpt lat="-22.04370117746293544769287109375" lon="166.45001792348921298980712890625">
        <ele>913</ele>
        <time>2016-08-12T21:58:43.000Z</time>
        <extensions>
          <ns3:TrackPointExtension>
            <ns3:atemp>18.0</ns3:atemp>
            <ns3:hr>141</ns3:hr>
          </ns3:TrackPointExtension>
        </extensions>
      </trkpt>
      <trkpt lat="-22.04372012056410312652587890625" lon="166.45000618882477283477783203125">
        <ele>912.79998779296875</ele>
        <time>2016-08-12T21:58:44.000Z</time>
        <extensions>
          <ns3:TrackPointExtension>
            <ns3:atemp>18.0</ns3:atemp>
            <ns3:hr>141</ns3:hr>
          </ns3:TrackPointExtension>
        </extensions>
      </trkpt>
      <trkpt lat="-22.04373948276042938232421875" lon="166.44999076612293720245361328125">
        <ele>913.4000244140625</ele>
        <time>2016-08-12T21:58:45.000Z</time>
        <extensions>
          <ns3:TrackPointExtension>
            <ns3:atemp>18.0</ns3:atemp>
            <ns3:hr>142</ns3:hr>
          </ns3:TrackPointExtension>
        </extensions>
      </trkpt>
      <trkpt lat="-22.043757922947406768798828125" lon="166.44996763207018375396728515625">
        <ele>913.5999755859375</ele>
        <time>2016-08-12T21:58:46.000Z</time>
        <extensions>
          <ns3:TrackPointExtension>
            <ns3:atemp>18.0</ns3:atemp>
            <ns3:hr>141</ns3:hr>
          </ns3:TrackPointExtension>
        </extensions>
      </trkpt>
      <trkpt lat="-22.043776698410511016845703125" lon="166.44994500093162059783935546875">
        <ele>913.5999755859375</ele>
        <time>2016-08-12T21:58:47.000Z</time>
        <extensions>
          <ns3:TrackPointExtension>
            <ns3:atemp>18.0</ns3:atemp>
            <ns3:hr>141</ns3:hr>
          </ns3:TrackPointExtension>
        </extensions>
      </trkpt>
      <trkpt lat="-22.0437949709594249725341796875" lon="166.44992354325950145721435546875">
        <ele>913.79998779296875</ele>
        <time>2016-08-12T21:58:48.000Z</time>
        <extensions>
          <ns3:TrackPointExtension>
            <ns3:atemp>18.0</ns3:atemp>
            <ns3:hr>141</ns3:hr>
          </ns3:TrackPointExtension>
        </extensions>
      </trkpt>
      <trkpt lat="-22.04380662180483341217041015625" lon="166.4498969726264476776123046875">
        <ele>914</ele>
        <time>2016-08-12T21:58:49.000Z</time>
        <extensions>
          <ns3:TrackPointExtension>
            <ns3:atemp>18.0</ns3:atemp>
            <ns3:hr>141</ns3:hr>
          </ns3:TrackPointExtension>
        </extensions>
      </trkpt>
      <trkpt lat="-22.04381600953638553619384765625" lon="166.449871994554996490478515625">
        <ele>914.20001220703125</ele>
        <time>2016-08-12T21:58:50.000Z</time>
        <extensions>
          <ns3:TrackPointExtension>
            <ns3:atemp>18.0</ns3:atemp>
            <ns3:hr>141</ns3:hr>
          </ns3:TrackPointExtension>
        </extensions>
      </trkpt>
      <trkpt lat="-22.04382271505892276763916015625" lon="166.4498456753790378570556640625">
        <ele>914.4000244140625</ele>
        <time>2016-08-12T21:58:51.000Z</time>
        <extensions>
          <ns3:TrackPointExtension>
            <ns3:atemp>18.0</ns3:atemp>
            <ns3:hr>141</ns3:hr>
          </ns3:TrackPointExtension>
        </extensions>
      </trkpt>
      <trkpt lat="-22.04382606782019138336181640625" lon="166.449817009270191192626953125">
        <ele>914.4000244140625</ele>
        <time>2016-08-12T21:58:52.000Z</time>
        <extensions>
          <ns3:TrackPointExtension>
            <ns3:atemp>18.0</ns3:atemp>
            <ns3:hr>141</ns3:hr>
          </ns3:TrackPointExtension>
        </extensions>
      </trkpt>
      <trkpt lat="-22.0438291691243648529052734375" lon="166.44979077391326427459716796875">
        <ele>914</ele>
        <time>2016-08-12T21:58:53.000Z</time>
        <extensions>
          <ns3:TrackPointExtension>
            <ns3:atemp>18.0</ns3:atemp>
            <ns3:hr>141</ns3:hr>
          </ns3:TrackPointExtension>
        </extensions>
      </trkpt>
      <trkpt lat="-22.0438368804752826690673828125" lon="166.44976437091827392578125">
        <ele>913.79998779296875</ele>
        <time>2016-08-12T21:58:54.000Z</time>
        <extensions>
          <ns3:TrackPointExtension>
            <ns3:atemp>18.0</ns3:atemp>
            <ns3:hr>141</ns3:hr>
          </ns3:TrackPointExtension>
        </extensions>
      </trkpt>
      <trkpt lat="-22.04384450800716876983642578125" lon="166.449736542999744415283203125">
        <ele>913.79998779296875</ele>
        <time>2016-08-12T21:58:55.000Z</time>
        <extensions>
          <ns3:TrackPointExtension>
            <ns3:atemp>18.0</ns3:atemp>
            <ns3:hr>140</ns3:hr>
          </ns3:TrackPointExtension>
        </extensions>
      </trkpt>
      <trkpt lat="-22.043852470815181732177734375" lon="166.44971248693764209747314453125">
        <ele>913.79998779296875</ele>
        <time>2016-08-12T21:58:56.000Z</time>
        <extensions>
          <ns3:TrackPointExtension>
            <ns3:atemp>18.0</ns3:atemp>
            <ns3:hr>140</ns3:hr>
          </ns3:TrackPointExtension>
        </extensions>
      </trkpt>
      <trkpt lat="-22.04386286437511444091796875" lon="166.449686586856842041015625">
        <ele>913.20001220703125</ele>
        <time>2016-08-12T21:58:57.000Z</time>
        <extensions>
          <ns3:TrackPointExtension>
            <ns3:atemp>18.0</ns3:atemp>
            <ns3:hr>140</ns3:hr>
          </ns3:TrackPointExtension>
        </extensions>
      </trkpt>
      <trkpt lat="-22.0438702404499053955078125" lon="166.449659764766693115234375">
        <ele>913</ele>
        <time>2016-08-12T21:58:58.000Z</time>
        <extensions>
          <ns3:TrackPointExtension>
            <ns3:atemp>18.0</ns3:atemp>
            <ns3:hr>140</ns3:hr>
          </ns3:TrackPointExtension>
        </extensions>
      </trkpt>
      <trkpt lat="-22.04387669451534748077392578125" lon="166.44963453523814678192138671875">
        <ele>913.79998779296875</ele>
        <time>2016-08-12T21:58:59.000Z</time>
        <extensions>
          <ns3:TrackPointExtension>
            <ns3:atemp>18.0</ns3:atemp>
            <ns3:hr>141</ns3:hr>
          </ns3:TrackPointExtension>
        </extensions>
      </trkpt>
      <trkpt lat="-22.0438818074762821197509765625" lon="166.44961173646152019500732421875">
        <ele>914.20001220703125</ele>
        <time>2016-08-12T21:59:00.000Z</time>
        <extensions>
          <ns3:TrackPointExtension>
            <ns3:atemp>18.0</ns3:atemp>
            <ns3:hr>141</ns3:hr>
          </ns3:TrackPointExtension>
        </extensions>
      </trkpt>
      <trkpt lat="-22.04389102756977081298828125" lon="166.4495905302464962005615234375">
        <ele>913.79998779296875</ele>
        <time>2016-08-12T21:59:01.000Z</time>
        <extensions>
          <ns3:TrackPointExtension>
            <ns3:atemp>18.0</ns3:atemp>
            <ns3:hr>141</ns3:hr>
          </ns3:TrackPointExtension>
        </extensions>
      </trkpt>
      <trkpt lat="-22.043906114995479583740234375" lon="166.44956613890826702117919921875">
        <ele>913.20001220703125</ele>
        <time>2016-08-12T21:59:02.000Z</time>
        <extensions>
          <ns3:TrackPointExtension>
            <ns3:atemp>18.0</ns3:atemp>
            <ns3:hr>141</ns3:hr>
          </ns3:TrackPointExtension>
        </extensions>
      </trkpt>
      <trkpt lat="-22.04392782412469387054443359375" lon="166.4495442621409893035888671875">
        <ele>913.79998779296875</ele>
        <time>2016-08-12T21:59:03.000Z</time>
        <extensions>
          <ns3:TrackPointExtension>
            <ns3:atemp>18.0</ns3:atemp>
            <ns3:hr>141</ns3:hr>
          </ns3:TrackPointExtension>
        </extensions>
      </trkpt>
      <trkpt lat="-22.04394676722586154937744140625" lon="166.44952137954533100128173828125">
        <ele>914.20001220703125</ele>
        <time>2016-08-12T21:59:04.000Z</time>
        <extensions>
          <ns3:TrackPointExtension>
            <ns3:atemp>18.0</ns3:atemp>
            <ns3:hr>141</ns3:hr>
          </ns3:TrackPointExtension>
        </extensions>
      </trkpt>
      <trkpt lat="-22.04396336339414119720458984375" lon="166.4494959823787212371826171875">
        <ele>913.5999755859375</ele>
        <time>2016-08-12T21:59:05.000Z</time>
        <extensions>
          <ns3:TrackPointExtension>
            <ns3:atemp>18.0</ns3:atemp>
            <ns3:hr>141</ns3:hr>
          </ns3:TrackPointExtension>
        </extensions>
      </trkpt>
      <trkpt lat="-22.04397811554372310638427734375" lon="166.44947670400142669677734375">
        <ele>913.20001220703125</ele>
        <time>2016-08-12T21:59:06.000Z</time>
        <extensions>
          <ns3:TrackPointExtension>
            <ns3:atemp>18.0</ns3:atemp>
            <ns3:hr>141</ns3:hr>
          </ns3:TrackPointExtension>
        </extensions>
      </trkpt>
      <trkpt lat="-22.0439988188445568084716796875" lon="166.44945667125284671783447265625">
        <ele>913.79998779296875</ele>
        <time>2016-08-12T21:59:07.000Z</time>
        <extensions>
          <ns3:TrackPointExtension>
            <ns3:atemp>18.0</ns3:atemp>
            <ns3:hr>141</ns3:hr>
          </ns3:TrackPointExtension>
        </extensions>
      </trkpt>
      <trkpt lat="-22.04401700757443904876708984375" lon="166.44943471066653728485107421875">
        <ele>914</ele>
        <time>2016-08-12T21:59:08.000Z</time>
        <extensions>
          <ns3:TrackPointExtension>
            <ns3:atemp>18.0</ns3:atemp>
            <ns3:hr>141</ns3:hr>
          </ns3:TrackPointExtension>
        </extensions>
      </trkpt>
      <trkpt lat="-22.04403712414205074310302734375" lon="166.44941442646086215972900390625">
        <ele>913.20001220703125</ele>
        <time>2016-08-12T21:59:09.000Z</time>
        <extensions>
          <ns3:TrackPointExtension>
            <ns3:atemp>18.0</ns3:atemp>
            <ns3:hr>141</ns3:hr>
          </ns3:TrackPointExtension>
        </extensions>
      </trkpt>
      <trkpt lat="-22.04405154101550579071044921875" lon="166.4493917115032672882080078125">
        <ele>913</ele>
        <time>2016-08-12T21:59:10.000Z</time>
        <extensions>
          <ns3:TrackPointExtension>
            <ns3:atemp>18.0</ns3:atemp>
            <ns3:hr>141</ns3:hr>
          </ns3:TrackPointExtension>
        </extensions>
      </trkpt>
      <trkpt lat="-22.0440641976892948150634765625" lon="166.44936949945986270904541015625">
        <ele>913.4000244140625</ele>
        <time>2016-08-12T21:59:11.000Z</time>
        <extensions>
          <ns3:TrackPointExtension>
            <ns3:atemp>18.0</ns3:atemp>
            <ns3:hr>141</ns3:hr>
          </ns3:TrackPointExtension>
        </extensions>
      </trkpt>
      <trkpt lat="-22.04407618381083011627197265625" lon="166.44934619776904582977294921875">
        <ele>913.5999755859375</ele>
        <time>2016-08-12T21:59:12.000Z</time>
        <extensions>
          <ns3:TrackPointExtension>
            <ns3:atemp>18.0</ns3:atemp>
            <ns3:hr>140</ns3:hr>
          </ns3:TrackPointExtension>
        </extensions>
      </trkpt>
      <trkpt lat="-22.04408758319914340972900390625" lon="166.4493246562778949737548828125">
        <ele>913</ele>
        <time>2016-08-12T21:59:13.000Z</time>
        <extensions>
          <ns3:TrackPointExtension>
            <ns3:atemp>18.0</ns3:atemp>
            <ns3:hr>140</ns3:hr>
          </ns3:TrackPointExtension>
        </extensions>
      </trkpt>
      <trkpt lat="-22.04409646801650524139404296875" lon="166.4493072219192981719970703125">
        <ele>913</ele>
        <time>2016-08-12T21:59:14.000Z</time>
        <extensions>
          <ns3:TrackPointExtension>
            <ns3:atemp>18.0</ns3:atemp>
            <ns3:hr>140</ns3:hr>
          </ns3:TrackPointExtension>
        </extensions>
      </trkpt>
      <trkpt lat="-22.04410560429096221923828125" lon="166.449284590780735015869140625">
        <ele>913.5999755859375</ele>
        <time>2016-08-12T21:59:15.000Z</time>
        <extensions>
          <ns3:TrackPointExtension>
            <ns3:atemp>18.0</ns3:atemp>
            <ns3:hr>140</ns3:hr>
          </ns3:TrackPointExtension>
        </extensions>
      </trkpt>
      <trkpt lat="-22.0441175065934658050537109375" lon="166.44926086999475955963134765625">
        <ele>913.5999755859375</ele>
        <time>2016-08-12T21:59:16.000Z</time>
        <extensions>
          <ns3:TrackPointExtension>
            <ns3:atemp>18.0</ns3:atemp>
            <ns3:hr>141</ns3:hr>
          </ns3:TrackPointExtension>
        </extensions>
      </trkpt>
      <trkpt lat="-22.04412815161049365997314453125" lon="166.44923572428524494171142578125">
        <ele>912.79998779296875</ele>
        <time>2016-08-12T21:59:17.000Z</time>
        <extensions>
          <ns3:TrackPointExtension>
            <ns3:atemp>18.0</ns3:atemp>
            <ns3:hr>140</ns3:hr>
          </ns3:TrackPointExtension>
        </extensions>
      </trkpt>
      <trkpt lat="-22.0441376231610774993896484375" lon="166.44920940510928630828857421875">
        <ele>913.20001220703125</ele>
        <time>2016-08-12T21:59:18.000Z</time>
        <extensions>
          <ns3:TrackPointExtension>
            <ns3:atemp>18.0</ns3:atemp>
            <ns3:hr>141</ns3:hr>
          </ns3:TrackPointExtension>
        </extensions>
      </trkpt>
      <trkpt lat="-22.04414910636842250823974609375" lon="166.44918492995202541351318359375">
        <ele>913.5999755859375</ele>
        <time>2016-08-12T21:59:19.000Z</time>
        <extensions>
          <ns3:TrackPointExtension>
            <ns3:atemp>18.0</ns3:atemp>
            <ns3:hr>140</ns3:hr>
          </ns3:TrackPointExtension>
        </extensions>
      </trkpt>
      <trkpt lat="-22.04416452907025814056396484375" lon="166.44916422665119171142578125">
        <ele>913.4000244140625</ele>
        <time>2016-08-12T21:59:20.000Z</time>
        <extensions>
          <ns3:TrackPointExtension>
            <ns3:atemp>18.0</ns3:atemp>
            <ns3:hr>140</ns3:hr>
          </ns3:TrackPointExtension>
        </extensions>
      </trkpt>
      <trkpt lat="-22.044182717800140380859375" lon="166.44914872013032436370849609375">
        <ele>913.20001220703125</ele>
        <time>2016-08-12T21:59:21.000Z</time>
        <extensions>
          <ns3:TrackPointExtension>
            <ns3:atemp>18.0</ns3:atemp>
            <ns3:hr>141</ns3:hr>
          </ns3:TrackPointExtension>
        </extensions>
      </trkpt>
      <trkpt lat="-22.044197805225849151611328125" lon="166.44913874566555023193359375">
        <ele>913.4000244140625</ele>
        <time>2016-08-12T21:59:22.000Z</time>
        <extensions>
          <ns3:TrackPointExtension>
            <ns3:atemp>18.0</ns3:atemp>
            <ns3:hr>140</ns3:hr>
          </ns3:TrackPointExtension>
        </extensions>
      </trkpt>
      <trkpt lat="-22.04421666450798511505126953125" lon="166.44913111813366413116455078125">
        <ele>913.79998779296875</ele>
        <time>2016-08-12T21:59:23.000Z</time>
        <extensions>
          <ns3:TrackPointExtension>
            <ns3:atemp>18.0</ns3:atemp>
            <ns3:hr>141</ns3:hr>
          </ns3:TrackPointExtension>
        </extensions>
      </trkpt>
      <trkpt lat="-22.0442345179617404937744140625" lon="166.44912407733500003814697265625">
        <ele>913.5999755859375</ele>
        <time>2016-08-12T21:59:24.000Z</time>
        <extensions>
          <ns3:TrackPointExtension>
            <ns3:atemp>18.0</ns3:atemp>
            <ns3:hr>140</ns3:hr>
          </ns3:TrackPointExtension>
        </extensions>
      </trkpt>
      <trkpt lat="-22.04425103031098842620849609375" lon="166.449117958545684814453125">
        <ele>913.4000244140625</ele>
        <time>2016-08-12T21:59:25.000Z</time>
        <extensions>
          <ns3:TrackPointExtension>
            <ns3:atemp>18.0</ns3:atemp>
            <ns3:hr>141</ns3:hr>
          </ns3:TrackPointExtension>
        </extensions>
      </trkpt>
      <trkpt lat="-22.04427064396440982818603515625" lon="166.44911116920411586761474609375">
        <ele>914</ele>
        <time>2016-08-12T21:59:26.000Z</time>
        <extensions>
          <ns3:TrackPointExtension>
            <ns3:atemp>18.0</ns3:atemp>
            <ns3:hr>141</ns3:hr>
          </ns3:TrackPointExtension>
        </extensions>
      </trkpt>
      <trkpt lat="-22.04428891651332378387451171875" lon="166.449103541672229766845703125">
        <ele>913.79998779296875</ele>
        <time>2016-08-12T21:59:27.000Z</time>
        <extensions>
          <ns3:TrackPointExtension>
            <ns3:atemp>18.0</ns3:atemp>
            <ns3:hr>141</ns3:hr>
          </ns3:TrackPointExtension>
        </extensions>
      </trkpt>
      <trkpt lat="-22.04430718906223773956298828125" lon="166.44909339956939220428466796875">
        <ele>913.79998779296875</ele>
        <time>2016-08-12T21:59:28.000Z</time>
        <extensions>
          <ns3:TrackPointExtension>
            <ns3:atemp>18.0</ns3:atemp>
            <ns3:hr>141</ns3:hr>
          </ns3:TrackPointExtension>
        </extensions>
      </trkpt>
      <trkpt lat="-22.0443270541727542877197265625" lon="166.44908778369426727294921875">
        <ele>913.5999755859375</ele>
        <time>2016-08-12T21:59:29.000Z</time>
        <extensions>
          <ns3:TrackPointExtension>
            <ns3:atemp>18.0</ns3:atemp>
            <ns3:hr>140</ns3:hr>
          </ns3:TrackPointExtension>
        </extensions>
      </trkpt>
      <trkpt lat="-22.04434624873101711273193359375" lon="166.44908267073333263397216796875">
        <ele>913.5999755859375</ele>
        <time>2016-08-12T21:59:30.000Z</time>
        <extensions>
          <ns3:TrackPointExtension>
            <ns3:atemp>18.0</ns3:atemp>
            <ns3:hr>141</ns3:hr>
          </ns3:TrackPointExtension>
        </extensions>
      </trkpt>
      <trkpt lat="-22.044369466602802276611328125" lon="166.4490799047052860260009765625">
        <ele>913.20001220703125</ele>
        <time>2016-08-12T21:59:31.000Z</time>
        <extensions>
          <ns3:TrackPointExtension>
            <ns3:atemp>18.0</ns3:atemp>
            <ns3:hr>140</ns3:hr>
          </ns3:TrackPointExtension>
        </extensions>
      </trkpt>
      <trkpt lat="-22.04439788125455379486083984375" lon="166.449075043201446533203125">
        <ele>912.4000244140625</ele>
        <time>2016-08-12T21:59:32.000Z</time>
        <extensions>
          <ns3:TrackPointExtension>
            <ns3:atemp>18.0</ns3:atemp>
            <ns3:hr>140</ns3:hr>
          </ns3:TrackPointExtension>
        </extensions>
      </trkpt>
      <trkpt lat="-22.0444242842495441436767578125" lon="166.44906590692698955535888671875">
        <ele>912</ele>
        <time>2016-08-12T21:59:33.000Z</time>
        <extensions>
          <ns3:TrackPointExtension>
            <ns3:atemp>18.0</ns3:atemp>
            <ns3:hr>141</ns3:hr>
          </ns3:TrackPointExtension>
        </extensions>
      </trkpt>
      <trkpt lat="-22.04444867558777332305908203125" lon="166.44905962049961090087890625">
        <ele>912</ele>
        <time>2016-08-12T21:59:34.000Z</time>
        <extensions>
          <ns3:TrackPointExtension>
            <ns3:atemp>18.0</ns3:atemp>
            <ns3:hr>140</ns3:hr>
          </ns3:TrackPointExtension>
        </extensions>
      </trkpt>
      <trkpt lat="-22.0444705523550510406494140625" lon="166.4490564353764057159423828125">
        <ele>911.5999755859375</ele>
        <time>2016-08-12T21:59:35.000Z</time>
        <extensions>
          <ns3:TrackPointExtension>
            <ns3:atemp>18.0</ns3:atemp>
            <ns3:hr>141</ns3:hr>
          </ns3:TrackPointExtension>
        </extensions>
      </trkpt>
      <trkpt lat="-22.0444950275123119354248046875" lon="166.44905149005353450775146484375">
        <ele>911.4000244140625</ele>
        <time>2016-08-12T21:59:36.000Z</time>
        <extensions>
          <ns3:TrackPointExtension>
            <ns3:atemp>18.0</ns3:atemp>
            <ns3:hr>140</ns3:hr>
          </ns3:TrackPointExtension>
        </extensions>
      </trkpt>
      <trkpt lat="-22.0445195026695728302001953125" lon="166.44904553890228271484375">
        <ele>912</ele>
        <time>2016-08-12T21:59:37.000Z</time>
        <extensions>
          <ns3:TrackPointExtension>
            <ns3:atemp>18.0</ns3:atemp>
            <ns3:hr>141</ns3:hr>
          </ns3:TrackPointExtension>
        </extensions>
      </trkpt>
      <trkpt lat="-22.044543139636516571044921875" lon="166.449037827551364898681640625">
        <ele>912.20001220703125</ele>
        <time>2016-08-12T21:59:38.000Z</time>
        <extensions>
          <ns3:TrackPointExtension>
            <ns3:atemp>18.0</ns3:atemp>
            <ns3:hr>141</ns3:hr>
          </ns3:TrackPointExtension>
        </extensions>
      </trkpt>
      <trkpt lat="-22.04456887207925319671630859375" lon="166.4490255899727344512939453125">
        <ele>912</ele>
        <time>2016-08-12T21:59:39.000Z</time>
        <extensions>
          <ns3:TrackPointExtension>
            <ns3:atemp>18.0</ns3:atemp>
            <ns3:hr>141</ns3:hr>
          </ns3:TrackPointExtension>
        </extensions>
      </trkpt>
      <trkpt lat="-22.04459334723651409149169921875" lon="166.449017040431499481201171875">
        <ele>911.79998779296875</ele>
        <time>2016-08-12T21:59:40.000Z</time>
        <extensions>
          <ns3:TrackPointExtension>
            <ns3:atemp>18.0</ns3:atemp>
            <ns3:hr>140</ns3:hr>
          </ns3:TrackPointExtension>
        </extensions>
      </trkpt>
      <trkpt lat="-22.04461916349828243255615234375" lon="166.44900941289961338043212890625">
        <ele>911.79998779296875</ele>
        <time>2016-08-12T21:59:41.000Z</time>
        <extensions>
          <ns3:TrackPointExtension>
            <ns3:atemp>18.0</ns3:atemp>
            <ns3:hr>140</ns3:hr>
          </ns3:TrackPointExtension>
        </extensions>
      </trkpt>
      <trkpt lat="-22.0446438901126384735107421875" lon="166.4489991031587123870849609375">
        <ele>912</ele>
        <time>2016-08-12T21:59:42.000Z</time>
        <extensions>
          <ns3:TrackPointExtension>
            <ns3:atemp>18.0</ns3:atemp>
            <ns3:hr>140</ns3:hr>
          </ns3:TrackPointExtension>
        </extensions>
      </trkpt>
      <trkpt lat="-22.04467096365988254547119140625" lon="166.44899097271263599395751953125">
        <ele>911.79998779296875</ele>
        <time>2016-08-12T21:59:43.000Z</time>
        <extensions>
          <ns3:TrackPointExtension>
            <ns3:atemp>18.0</ns3:atemp>
            <ns3:hr>140</ns3:hr>
          </ns3:TrackPointExtension>
        </extensions>
      </trkpt>
      <trkpt lat="-22.04469258897006511688232421875" lon="166.4489883743226528167724609375">
        <ele>911</ele>
        <time>2016-08-12T21:59:44.000Z</time>
        <extensions>
          <ns3:TrackPointExtension>
            <ns3:atemp>18.0</ns3:atemp>
            <ns3:hr>139</ns3:hr>
          </ns3:TrackPointExtension>
        </extensions>
      </trkpt>
      <trkpt lat="-22.0447132922708988189697265625" lon="166.44898711703717708587646484375">
        <ele>910.5999755859375</ele>
        <time>2016-08-12T21:59:45.000Z</time>
        <extensions>
          <ns3:TrackPointExtension>
            <ns3:atemp>18.0</ns3:atemp>
            <ns3:hr>139</ns3:hr>
          </ns3:TrackPointExtension>
        </extensions>
      </trkpt>
      <trkpt lat="-22.0447330735623836517333984375" lon="166.44898225553333759307861328125">
        <ele>912</ele>
        <time>2016-08-12T21:59:46.000Z</time>
        <extensions>
          <ns3:TrackPointExtension>
            <ns3:atemp>18.0</ns3:atemp>
            <ns3:hr>139</ns3:hr>
          </ns3:TrackPointExtension>
        </extensions>
      </trkpt>
      <trkpt lat="-22.044753693044185638427734375" lon="166.44897839985787868499755859375">
        <ele>913</ele>
        <time>2016-08-12T21:59:47.000Z</time>
        <extensions>
          <ns3:TrackPointExtension>
            <ns3:atemp>18.0</ns3:atemp>
            <ns3:hr>139</ns3:hr>
          </ns3:TrackPointExtension>
        </extensions>
      </trkpt>
      <trkpt lat="-22.0447716303169727325439453125" lon="166.44897320307791233062744140625">
        <ele>913</ele>
        <time>2016-08-12T21:59:48.000Z</time>
        <extensions>
          <ns3:TrackPointExtension>
            <ns3:atemp>18.0</ns3:atemp>
            <ns3:hr>139</ns3:hr>
          </ns3:TrackPointExtension>
        </extensions>
      </trkpt>
      <trkpt lat="-22.04479535110294818878173828125" lon="166.4489675872027873992919921875">
        <ele>913.4000244140625</ele>
        <time>2016-08-12T21:59:49.000Z</time>
        <extensions>
          <ns3:TrackPointExtension>
            <ns3:atemp>18.0</ns3:atemp>
            <ns3:hr>139</ns3:hr>
          </ns3:TrackPointExtension>
        </extensions>
      </trkpt>
      <trkpt lat="-22.04482066445052623748779296875" lon="166.4489605464041233062744140625">
        <ele>914</ele>
        <time>2016-08-12T21:59:50.000Z</time>
        <extensions>
          <ns3:TrackPointExtension>
            <ns3:atemp>18.0</ns3:atemp>
            <ns3:hr>139</ns3:hr>
          </ns3:TrackPointExtension>
        </extensions>
      </trkpt>
      <trkpt lat="-22.04484446905553340911865234375" lon="166.448954679071903228759765625">
        <ele>914</ele>
        <time>2016-08-12T21:59:51.000Z</time>
        <extensions>
          <ns3:TrackPointExtension>
            <ns3:atemp>18.0</ns3:atemp>
            <ns3:hr>140</ns3:hr>
          </ns3:TrackPointExtension>
        </extensions>
      </trkpt>
      <trkpt lat="-22.04486659727990627288818359375" lon="166.44895006902515888214111328125">
        <ele>913.5999755859375</ele>
        <time>2016-08-12T21:59:52.000Z</time>
        <extensions>
          <ns3:TrackPointExtension>
            <ns3:atemp>18.0</ns3:atemp>
            <ns3:hr>140</ns3:hr>
          </ns3:TrackPointExtension>
        </extensions>
      </trkpt>
      <trkpt lat="-22.04488805495202541351318359375" lon="166.448946632444858551025390625">
        <ele>914.4000244140625</ele>
        <time>2016-08-12T21:59:53.000Z</time>
        <extensions>
          <ns3:TrackPointExtension>
            <ns3:atemp>18.0</ns3:atemp>
            <ns3:hr>140</ns3:hr>
          </ns3:TrackPointExtension>
        </extensions>
      </trkpt>
      <trkpt lat="-22.04491269774734973907470703125" lon="166.44894688390195369720458984375">
        <ele>914.79998779296875</ele>
        <time>2016-08-12T21:59:54.000Z</time>
        <extensions>
          <ns3:TrackPointExtension>
            <ns3:atemp>18.0</ns3:atemp>
            <ns3:hr>141</ns3:hr>
          </ns3:TrackPointExtension>
        </extensions>
      </trkpt>
      <trkpt lat="-22.0449377596378326416015625" lon="166.44894939847290515899658203125">
        <ele>914.5999755859375</ele>
        <time>2016-08-12T21:59:55.000Z</time>
        <extensions>
          <ns3:TrackPointExtension>
            <ns3:atemp>18.0</ns3:atemp>
            <ns3:hr>141</ns3:hr>
          </ns3:TrackPointExtension>
        </extensions>
      </trkpt>
      <trkpt lat="-22.044960558414459228515625" lon="166.448951661586761474609375">
        <ele>914.79998779296875</ele>
        <time>2016-08-12T21:59:56.000Z</time>
        <extensions>
          <ns3:TrackPointExtension>
            <ns3:atemp>18.0</ns3:atemp>
            <ns3:hr>141</ns3:hr>
          </ns3:TrackPointExtension>
        </extensions>
      </trkpt>
      <trkpt lat="-22.04498268663883209228515625" lon="166.44895493052899837493896484375">
        <ele>915.20001220703125</ele>
        <time>2016-08-12T21:59:57.000Z</time>
        <extensions>
          <ns3:TrackPointExtension>
            <ns3:atemp>18.0</ns3:atemp>
            <ns3:hr>141</ns3:hr>
          </ns3:TrackPointExtension>
        </extensions>
      </trkpt>
      <trkpt lat="-22.045001797378063201904296875" lon="166.4489571936428546905517578125">
        <ele>915.20001220703125</ele>
        <time>2016-08-12T21:59:58.000Z</time>
        <extensions>
          <ns3:TrackPointExtension>
            <ns3:atemp>18.0</ns3:atemp>
            <ns3:hr>141</ns3:hr>
          </ns3:TrackPointExtension>
        </extensions>
      </trkpt>
      <trkpt lat="-22.045023255050182342529296875" lon="166.4489595405757427215576171875">
        <ele>915</ele>
        <time>2016-08-12T21:59:59.000Z</time>
        <extensions>
          <ns3:TrackPointExtension>
            <ns3:atemp>18.0</ns3:atemp>
            <ns3:hr>141</ns3:hr>
          </ns3:TrackPointExtension>
        </extensions>
      </trkpt>
      <trkpt lat="-22.0450418628752231597900390625" lon="166.4489769749343395233154296875">
        <ele>915.4000244140625</ele>
        <time>2016-08-12T22:00:00.000Z</time>
        <extensions>
          <ns3:TrackPointExtension>
            <ns3:atemp>18.0</ns3:atemp>
            <ns3:hr>140</ns3:hr>
          </ns3:TrackPointExtension>
        </extensions>
      </trkpt>
      <trkpt lat="-22.04506156034767627716064453125" lon="166.44898644648492336273193359375">
        <ele>914.79998779296875</ele>
        <time>2016-08-12T22:00:01.000Z</time>
        <extensions>
          <ns3:TrackPointExtension>
            <ns3:atemp>18.0</ns3:atemp>
            <ns3:hr>141</ns3:hr>
          </ns3:TrackPointExtension>
        </extensions>
      </trkpt>
      <trkpt lat="-22.0450787432491779327392578125" lon="166.448994912207126617431640625">
        <ele>914</ele>
        <time>2016-08-12T22:00:02.000Z</time>
        <extensions>
          <ns3:TrackPointExtension>
            <ns3:atemp>18.0</ns3:atemp>
            <ns3:hr>141</ns3:hr>
          </ns3:TrackPointExtension>
        </extensions>
      </trkpt>
      <trkpt lat="-22.04509408213198184967041015625" lon="166.44900438375771045684814453125">
        <ele>914.4000244140625</ele>
        <time>2016-08-12T22:00:03.000Z</time>
        <extensions>
          <ns3:TrackPointExtension>
            <ns3:atemp>18.0</ns3:atemp>
            <ns3:hr>140</ns3:hr>
          </ns3:TrackPointExtension>
        </extensions>
      </trkpt>
      <trkpt lat="-22.04511235468089580535888671875" lon="166.44901310093700885772705078125">
        <ele>914.79998779296875</ele>
        <time>2016-08-12T22:00:04.000Z</time>
        <extensions>
          <ns3:TrackPointExtension>
            <ns3:atemp>18.0</ns3:atemp>
            <ns3:hr>141</ns3:hr>
          </ns3:TrackPointExtension>
        </extensions>
      </trkpt>
      <trkpt lat="-22.045127861201763153076171875" lon="166.44902667962014675140380859375">
        <ele>914.4000244140625</ele>
        <time>2016-08-12T22:00:05.000Z</time>
        <extensions>
          <ns3:TrackPointExtension>
            <ns3:atemp>18.0</ns3:atemp>
            <ns3:hr>141</ns3:hr>
          </ns3:TrackPointExtension>
        </extensions>
      </trkpt>
      <trkpt lat="-22.04512945376336574554443359375" lon="166.4490463770925998687744140625">
        <ele>914.4000244140625</ele>
        <time>2016-08-12T22:00:06.000Z</time>
        <extensions>
          <ns3:TrackPointExtension>
            <ns3:atemp>18.0</ns3:atemp>
            <ns3:hr>140</ns3:hr>
          </ns3:TrackPointExtension>
        </extensions>
      </trkpt>
      <trkpt lat="-22.045139260590076446533203125" lon="166.449053920805454254150390625">
        <ele>914.5999755859375</ele>
        <time>2016-08-12T22:00:07.000Z</time>
        <extensions>
          <ns3:TrackPointExtension>
            <ns3:atemp>18.0</ns3:atemp>
            <ns3:hr>141</ns3:hr>
          </ns3:TrackPointExtension>
        </extensions>
      </trkpt>
      <trkpt lat="-22.04515677876770496368408203125" lon="166.4490510709583759307861328125">
        <ele>914.20001220703125</ele>
        <time>2016-08-12T22:00:08.000Z</time>
        <extensions>
          <ns3:TrackPointExtension>
            <ns3:atemp>18.0</ns3:atemp>
            <ns3:hr>141</ns3:hr>
          </ns3:TrackPointExtension>
        </extensions>
      </trkpt>
      <trkpt lat="-22.04519483260810375213623046875" lon="166.4490339718759059906005859375">
        <ele>914.4000244140625</ele>
        <time>2016-08-12T22:00:09.000Z</time>
        <extensions>
          <ns3:TrackPointExtension>
            <ns3:atemp>18.0</ns3:atemp>
            <ns3:hr>140</ns3:hr>
          </ns3:TrackPointExtension>
        </extensions>
      </trkpt>
      <trkpt lat="-22.0452326349914073944091796875" lon="166.4490101672708988189697265625">
        <ele>914.5999755859375</ele>
        <time>2016-08-12T22:00:10.000Z</time>
        <extensions>
          <ns3:TrackPointExtension>
            <ns3:atemp>18.0</ns3:atemp>
            <ns3:hr>140</ns3:hr>
          </ns3:TrackPointExtension>
        </extensions>
      </trkpt>
      <trkpt lat="-22.04526306129992008209228515625" lon="166.4490012824535369873046875">
        <ele>914.4000244140625</ele>
        <time>2016-08-12T22:00:11.000Z</time>
        <extensions>
          <ns3:TrackPointExtension>
            <ns3:atemp>18.0</ns3:atemp>
            <ns3:hr>140</ns3:hr>
          </ns3:TrackPointExtension>
        </extensions>
      </trkpt>
      <trkpt lat="-22.04528720118105411529541015625" lon="166.44899164326488971710205078125">
        <ele>914.20001220703125</ele>
        <time>2016-08-12T22:00:12.000Z</time>
        <extensions>
          <ns3:TrackPointExtension>
            <ns3:atemp>18.0</ns3:atemp>
            <ns3:hr>140</ns3:hr>
          </ns3:TrackPointExtension>
        </extensions>
      </trkpt>
      <trkpt lat="-22.0453107543289661407470703125" lon="166.4489803276956081390380859375">
        <ele>914.79998779296875</ele>
        <time>2016-08-12T22:00:13.000Z</time>
        <extensions>
          <ns3:TrackPointExtension>
            <ns3:atemp>18.0</ns3:atemp>
            <ns3:hr>140</ns3:hr>
          </ns3:TrackPointExtension>
        </extensions>
      </trkpt>
      <trkpt lat="-22.0453429408371448516845703125" lon="166.448976136744022369384765625">
        <ele>914.4000244140625</ele>
        <time>2016-08-12T22:00:14.000Z</time>
        <extensions>
          <ns3:TrackPointExtension>
            <ns3:atemp>18.0</ns3:atemp>
            <ns3:hr>140</ns3:hr>
          </ns3:TrackPointExtension>
        </extensions>
      </trkpt>
      <trkpt lat="-22.0453697629272937774658203125" lon="166.448969431221485137939453125">
        <ele>914</ele>
        <time>2016-08-12T22:00:15.000Z</time>
        <extensions>
          <ns3:TrackPointExtension>
            <ns3:atemp>18.0</ns3:atemp>
            <ns3:hr>141</ns3:hr>
          </ns3:TrackPointExtension>
        </extensions>
      </trkpt>
      <trkpt lat="-22.04539775848388671875" lon="166.44896247424185276031494140625">
        <ele>914.20001220703125</ele>
        <time>2016-08-12T22:00:16.000Z</time>
        <extensions>
          <ns3:TrackPointExtension>
            <ns3:atemp>18.0</ns3:atemp>
            <ns3:hr>140</ns3:hr>
          </ns3:TrackPointExtension>
        </extensions>
      </trkpt>
      <trkpt lat="-22.04542298801243305206298828125" lon="166.44895375706255435943603515625">
        <ele>914.20001220703125</ele>
        <time>2016-08-12T22:00:17.000Z</time>
        <extensions>
          <ns3:TrackPointExtension>
            <ns3:atemp>18.0</ns3:atemp>
            <ns3:hr>140</ns3:hr>
          </ns3:TrackPointExtension>
        </extensions>
      </trkpt>
      <trkpt lat="-22.04544729553163051605224609375" lon="166.44894353114068508148193359375">
        <ele>914</ele>
        <time>2016-08-12T22:00:18.000Z</time>
        <extensions>
          <ns3:TrackPointExtension>
            <ns3:atemp>18.0</ns3:atemp>
            <ns3:hr>140</ns3:hr>
          </ns3:TrackPointExtension>
        </extensions>
      </trkpt>
      <trkpt lat="-22.0454710163176059722900390625" lon="166.4489286951720714569091796875">
        <ele>913.5999755859375</ele>
        <time>2016-08-12T22:00:19.000Z</time>
        <extensions>
          <ns3:TrackPointExtension>
            <ns3:atemp>18.0</ns3:atemp>
            <ns3:hr>140</ns3:hr>
          </ns3:TrackPointExtension>
        </extensions>
      </trkpt>
      <trkpt lat="-22.04549507237970829010009765625" lon="166.448915116488933563232421875">
        <ele>914.20001220703125</ele>
        <time>2016-08-12T22:00:20.000Z</time>
        <extensions>
          <ns3:TrackPointExtension>
            <ns3:atemp>18.0</ns3:atemp>
            <ns3:hr>140</ns3:hr>
          </ns3:TrackPointExtension>
        </extensions>
      </trkpt>
      <trkpt lat="-22.04552155919373035430908203125" lon="166.44890296272933483123779296875">
        <ele>914.79998779296875</ele>
        <time>2016-08-12T22:00:21.000Z</time>
        <extensions>
          <ns3:TrackPointExtension>
            <ns3:atemp>18.0</ns3:atemp>
            <ns3:hr>140</ns3:hr>
          </ns3:TrackPointExtension>
        </extensions>
      </trkpt>
      <trkpt lat="-22.04554687254130840301513671875" lon="166.44888720475137233734130859375">
        <ele>914.4000244140625</ele>
        <time>2016-08-12T22:00:22.000Z</time>
        <extensions>
          <ns3:TrackPointExtension>
            <ns3:atemp>18.0</ns3:atemp>
            <ns3:hr>139</ns3:hr>
          </ns3:TrackPointExtension>
        </extensions>
      </trkpt>
      <trkpt lat="-22.0455712638795375823974609375" lon="166.44887463189661502838134765625">
        <ele>914.4000244140625</ele>
        <time>2016-08-12T22:00:23.000Z</time>
        <extensions>
          <ns3:TrackPointExtension>
            <ns3:atemp>18.0</ns3:atemp>
            <ns3:hr>139</ns3:hr>
          </ns3:TrackPointExtension>
        </extensions>
      </trkpt>
      <trkpt lat="-22.04559129662811756134033203125" lon="166.44886071793735027313232421875">
        <ele>915</ele>
        <time>2016-08-12T22:00:24.000Z</time>
        <extensions>
          <ns3:TrackPointExtension>
            <ns3:atemp>18.0</ns3:atemp>
            <ns3:hr>139</ns3:hr>
          </ns3:TrackPointExtension>
        </extensions>
      </trkpt>
      <trkpt lat="-22.04560495913028717041015625" lon="166.44883858971297740936279296875">
        <ele>915.5999755859375</ele>
        <time>2016-08-12T22:00:25.000Z</time>
        <extensions>
          <ns3:TrackPointExtension>
            <ns3:atemp>18.0</ns3:atemp>
            <ns3:hr>139</ns3:hr>
          </ns3:TrackPointExtension>
        </extensions>
      </trkpt>
      <trkpt lat="-22.0456161908805370330810546875" lon="166.4488247595727443695068359375">
        <ele>916</ele>
        <time>2016-08-12T22:00:26.000Z</time>
        <extensions>
          <ns3:TrackPointExtension>
            <ns3:atemp>18.0</ns3:atemp>
            <ns3:hr>139</ns3:hr>
          </ns3:TrackPointExtension>
        </extensions>
      </trkpt>
      <trkpt lat="-22.04562415368854999542236328125" lon="166.44881428219377994537353515625">
        <ele>916.79998779296875</ele>
        <time>2016-08-12T22:00:27.000Z</time>
        <extensions>
          <ns3:TrackPointExtension>
            <ns3:atemp>18.0</ns3:atemp>
            <ns3:hr>139</ns3:hr>
          </ns3:TrackPointExtension>
        </extensions>
      </trkpt>
      <trkpt lat="-22.0456306077539920806884765625" lon="166.44880338571965694427490234375">
        <ele>917.4000244140625</ele>
        <time>2016-08-12T22:00:28.000Z</time>
        <extensions>
          <ns3:TrackPointExtension>
            <ns3:atemp>17.0</ns3:atemp>
            <ns3:hr>138</ns3:hr>
          </ns3:TrackPointExtension>
        </extensions>
      </trkpt>
      <trkpt lat="-22.0456403307616710662841796875" lon="166.44879248924553394317626953125">
        <ele>917.5999755859375</ele>
        <time>2016-08-12T22:00:29.000Z</time>
        <extensions>
          <ns3:TrackPointExtension>
            <ns3:atemp>17.0</ns3:atemp>
            <ns3:hr>137</ns3:hr>
          </ns3:TrackPointExtension>
        </extensions>
      </trkpt>
      <trkpt lat="-22.04564996995031833648681640625" lon="166.4487805031239986419677734375">
        <ele>917.5999755859375</ele>
        <time>2016-08-12T22:00:30.000Z</time>
        <extensions>
          <ns3:TrackPointExtension>
            <ns3:atemp>17.0</ns3:atemp>
            <ns3:hr>137</ns3:hr>
          </ns3:TrackPointExtension>
        </extensions>
      </trkpt>
      <trkpt lat="-22.045659609138965606689453125" lon="166.4487691037356853485107421875">
        <ele>918</ele>
        <time>2016-08-12T22:00:31.000Z</time>
        <extensions>
          <ns3:TrackPointExtension>
            <ns3:atemp>17.0</ns3:atemp>
            <ns3:hr>136</ns3:hr>
          </ns3:TrackPointExtension>
        </extensions>
      </trkpt>
      <trkpt lat="-22.0456708408892154693603515625" lon="166.4487597160041332244873046875">
        <ele>918.20001220703125</ele>
        <time>2016-08-12T22:00:32.000Z</time>
        <extensions>
          <ns3:TrackPointExtension>
            <ns3:atemp>17.0</ns3:atemp>
            <ns3:hr>136</ns3:hr>
          </ns3:TrackPointExtension>
        </extensions>
      </trkpt>
      <trkpt lat="-22.0456834137439727783203125" lon="166.44875242374837398529052734375">
        <ele>918</ele>
        <time>2016-08-12T22:00:33.000Z</time>
        <extensions>
          <ns3:TrackPointExtension>
            <ns3:atemp>17.0</ns3:atemp>
            <ns3:hr>135</ns3:hr>
          </ns3:TrackPointExtension>
        </extensions>
      </trkpt>
      <trkpt lat="-22.04569883644580841064453125" lon="166.44874471239745616912841796875">
        <ele>917</ele>
        <time>2016-08-12T22:00:34.000Z</time>
        <extensions>
          <ns3:TrackPointExtension>
            <ns3:atemp>17.0</ns3:atemp>
            <ns3:hr>135</ns3:hr>
          </ns3:TrackPointExtension>
        </extensions>
      </trkpt>
      <trkpt lat="-22.0457150973379611968994140625" lon="166.44873750396072864532470703125">
        <ele>916.4000244140625</ele>
        <time>2016-08-12T22:00:35.000Z</time>
        <extensions>
          <ns3:TrackPointExtension>
            <ns3:atemp>17.0</ns3:atemp>
            <ns3:hr>134</ns3:hr>
          </ns3:TrackPointExtension>
        </extensions>
      </trkpt>
      <trkpt lat="-22.04573160968720912933349609375" lon="166.4487295411527156829833984375">
        <ele>916.79998779296875</ele>
        <time>2016-08-12T22:00:36.000Z</time>
        <extensions>
          <ns3:TrackPointExtension>
            <ns3:atemp>17.0</ns3:atemp>
            <ns3:hr>133</ns3:hr>
          </ns3:TrackPointExtension>
        </extensions>
      </trkpt>
      <trkpt lat="-22.04574652947485446929931640625" lon="166.44872166216373443603515625">
        <ele>917.79998779296875</ele>
        <time>2016-08-12T22:00:37.000Z</time>
        <extensions>
          <ns3:TrackPointExtension>
            <ns3:atemp>17.0</ns3:atemp>
            <ns3:hr>132</ns3:hr>
          </ns3:TrackPointExtension>
        </extensions>
      </trkpt>
      <trkpt lat="-22.0457611978054046630859375" lon="166.44871571101248264312744140625">
        <ele>918.4000244140625</ele>
        <time>2016-08-12T22:00:38.000Z</time>
        <extensions>
          <ns3:TrackPointExtension>
            <ns3:atemp>17.0</ns3:atemp>
            <ns3:hr>131</ns3:hr>
          </ns3:TrackPointExtension>
        </extensions>
      </trkpt>
      <trkpt lat="-22.0457746088504791259765625" lon="166.44870799966156482696533203125">
        <ele>918.5999755859375</ele>
        <time>2016-08-12T22:00:39.000Z</time>
        <extensions>
          <ns3:TrackPointExtension>
            <ns3:atemp>17.0</ns3:atemp>
            <ns3:hr>130</ns3:hr>
          </ns3:TrackPointExtension>
        </extensions>
      </trkpt>
      <trkpt lat="-22.04578609205782413482666015625" lon="166.4487020485103130340576171875">
        <ele>917</ele>
        <time>2016-08-12T22:00:40.000Z</time>
        <extensions>
          <ns3:TrackPointExtension>
            <ns3:atemp>17.0</ns3:atemp>
            <ns3:hr>130</ns3:hr>
          </ns3:TrackPointExtension>
        </extensions>
      </trkpt>
      <trkpt lat="-22.04579900018870830535888671875" lon="166.44869509153068065643310546875">
        <ele>915.4000244140625</ele>
        <time>2016-08-12T22:00:41.000Z</time>
        <extensions>
          <ns3:TrackPointExtension>
            <ns3:atemp>17.0</ns3:atemp>
            <ns3:hr>129</ns3:hr>
          </ns3:TrackPointExtension>
        </extensions>
      </trkpt>
      <trkpt lat="-22.04581056721508502960205078125" lon="166.44868813455104827880859375">
        <ele>914.4000244140625</ele>
        <time>2016-08-12T22:00:42.000Z</time>
        <extensions>
          <ns3:TrackPointExtension>
            <ns3:atemp>17.0</ns3:atemp>
            <ns3:hr>128</ns3:hr>
          </ns3:TrackPointExtension>
        </extensions>
      </trkpt>
      <trkpt lat="-22.04581710509955883026123046875" lon="166.44868075847625732421875">
        <ele>913.5999755859375</ele>
        <time>2016-08-12T22:00:43.000Z</time>
        <extensions>
          <ns3:TrackPointExtension>
            <ns3:atemp>17.0</ns3:atemp>
            <ns3:hr>126</ns3:hr>
          </ns3:TrackPointExtension>
        </extensions>
      </trkpt>
      <trkpt lat="-22.04582783393561840057373046875" lon="166.44867111928761005401611328125">
        <ele>913.4000244140625</ele>
        <time>2016-08-12T22:00:44.000Z</time>
        <extensions>
          <ns3:TrackPointExtension>
            <ns3:atemp>17.0</ns3:atemp>
            <ns3:hr>126</ns3:hr>
          </ns3:TrackPointExtension>
        </extensions>
      </trkpt>
      <trkpt lat="-22.04583671875298023223876953125" lon="166.44866189919412136077880859375">
        <ele>913</ele>
        <time>2016-08-12T22:00:45.000Z</time>
        <extensions>
          <ns3:TrackPointExtension>
            <ns3:atemp>17.0</ns3:atemp>
            <ns3:hr>125</ns3:hr>
          </ns3:TrackPointExtension>
        </extensions>
      </trkpt>
      <trkpt lat="-22.04584744758903980255126953125" lon="166.44865435548126697540283203125">
        <ele>912.79998779296875</ele>
        <time>2016-08-12T22:00:46.000Z</time>
        <extensions>
          <ns3:TrackPointExtension>
            <ns3:atemp>17.0</ns3:atemp>
            <ns3:hr>125</ns3:hr>
          </ns3:TrackPointExtension>
        </extensions>
      </trkpt>
      <trkpt lat="-22.04585633240640163421630859375" lon="166.4486484043300151824951171875">
        <ele>912.20001220703125</ele>
        <time>2016-08-12T22:00:47.000Z</time>
        <extensions>
          <ns3:TrackPointExtension>
            <ns3:atemp>17.0</ns3:atemp>
            <ns3:hr>124</ns3:hr>
          </ns3:TrackPointExtension>
        </extensions>
      </trkpt>
      <trkpt lat="-22.0458663068711757659912109375" lon="166.448640525341033935546875">
        <ele>911.5999755859375</ele>
        <time>2016-08-12T22:00:48.000Z</time>
        <extensions>
          <ns3:TrackPointExtension>
            <ns3:atemp>17.0</ns3:atemp>
            <ns3:hr>124</ns3:hr>
          </ns3:TrackPointExtension>
        </extensions>
      </trkpt>
      <trkpt lat="-22.04587477259337902069091796875" lon="166.44863046705722808837890625">
        <ele>911.79998779296875</ele>
        <time>2016-08-12T22:00:49.000Z</time>
        <extensions>
          <ns3:TrackPointExtension>
            <ns3:atemp>17.0</ns3:atemp>
            <ns3:hr>124</ns3:hr>
          </ns3:TrackPointExtension>
        </extensions>
      </trkpt>
      <trkpt lat="-22.04588332213461399078369140625" lon="166.4486222527921199798583984375">
        <ele>912.79998779296875</ele>
        <time>2016-08-12T22:00:50.000Z</time>
        <extensions>
          <ns3:TrackPointExtension>
            <ns3:atemp>17.0</ns3:atemp>
            <ns3:hr>125</ns3:hr>
          </ns3:TrackPointExtension>
        </extensions>
      </trkpt>
      <trkpt lat="-22.0458911173045635223388671875" lon="166.44861076958477497100830078125">
        <ele>913.20001220703125</ele>
        <time>2016-08-12T22:00:51.000Z</time>
        <extensions>
          <ns3:TrackPointExtension>
            <ns3:atemp>17.0</ns3:atemp>
            <ns3:hr>125</ns3:hr>
          </ns3:TrackPointExtension>
        </extensions>
      </trkpt>
      <trkpt lat="-22.0458994992077350616455078125" lon="166.44859802909195423126220703125">
        <ele>912.79998779296875</ele>
        <time>2016-08-12T22:00:52.000Z</time>
        <extensions>
          <ns3:TrackPointExtension>
            <ns3:atemp>17.0</ns3:atemp>
            <ns3:hr>125</ns3:hr>
          </ns3:TrackPointExtension>
        </extensions>
      </trkpt>
      <trkpt lat="-22.04590729437768459320068359375" lon="166.44858419895172119140625">
        <ele>912.5999755859375</ele>
        <time>2016-08-12T22:00:53.000Z</time>
        <extensions>
          <ns3:TrackPointExtension>
            <ns3:atemp>17.0</ns3:atemp>
            <ns3:hr>125</ns3:hr>
          </ns3:TrackPointExtension>
        </extensions>
      </trkpt>
      <trkpt lat="-22.04592556692659854888916015625" lon="166.44856366328895092010498046875">
        <ele>912.4000244140625</ele>
        <time>2016-08-12T22:00:54.000Z</time>
        <extensions>
          <ns3:TrackPointExtension>
            <ns3:atemp>17.0</ns3:atemp>
            <ns3:hr>125</ns3:hr>
          </ns3:TrackPointExtension>
        </extensions>
      </trkpt>
      <trkpt lat="-22.04594434238970279693603515625" lon="166.4485377632081508636474609375">
        <ele>912.4000244140625</ele>
        <time>2016-08-12T22:00:55.000Z</time>
        <extensions>
          <ns3:TrackPointExtension>
            <ns3:atemp>17.0</ns3:atemp>
            <ns3:hr>126</ns3:hr>
          </ns3:TrackPointExtension>
        </extensions>
      </trkpt>
      <trkpt lat="-22.0459719188511371612548828125" lon="166.44851186312735080718994140625">
        <ele>913.20001220703125</ele>
        <time>2016-08-12T22:00:56.000Z</time>
        <extensions>
          <ns3:TrackPointExtension>
            <ns3:atemp>17.0</ns3:atemp>
            <ns3:hr>127</ns3:hr>
          </ns3:TrackPointExtension>
        </extensions>
      </trkpt>
      <trkpt lat="-22.0459970645606517791748046875" lon="166.44848830997943878173828125">
        <ele>914.20001220703125</ele>
        <time>2016-08-12T22:00:57.000Z</time>
        <extensions>
          <ns3:TrackPointExtension>
            <ns3:atemp>17.0</ns3:atemp>
            <ns3:hr>128</ns3:hr>
          </ns3:TrackPointExtension>
        </extensions>
      </trkpt>
      <trkpt lat="-22.0460188575088977813720703125" lon="166.44846240989863872528076171875">
        <ele>914.20001220703125</ele>
        <time>2016-08-12T22:00:58.000Z</time>
        <extensions>
          <ns3:TrackPointExtension>
            <ns3:atemp>17.0</ns3:atemp>
            <ns3:hr>128</ns3:hr>
          </ns3:TrackPointExtension>
        </extensions>
      </trkpt>
      <trkpt lat="-22.04603805206716060638427734375" lon="166.4484371803700923919677734375">
        <ele>913.4000244140625</ele>
        <time>2016-08-12T22:00:59.000Z</time>
        <extensions>
          <ns3:TrackPointExtension>
            <ns3:atemp>17.0</ns3:atemp>
            <ns3:hr>129</ns3:hr>
          </ns3:TrackPointExtension>
        </extensions>
      </trkpt>
      <trkpt lat="-22.0460668019950389862060546875" lon="166.4484187401831150054931640625">
        <ele>913.4000244140625</ele>
        <time>2016-08-12T22:01:00.000Z</time>
        <extensions>
          <ns3:TrackPointExtension>
            <ns3:atemp>17.0</ns3:atemp>
            <ns3:hr>130</ns3:hr>
          </ns3:TrackPointExtension>
        </extensions>
      </trkpt>
      <trkpt lat="-22.04609018750488758087158203125" lon="166.4483952708542346954345703125">
        <ele>914.4000244140625</ele>
        <time>2016-08-12T22:01:01.000Z</time>
        <extensions>
          <ns3:TrackPointExtension>
            <ns3:atemp>17.0</ns3:atemp>
            <ns3:hr>130</ns3:hr>
          </ns3:TrackPointExtension>
        </extensions>
      </trkpt>
      <trkpt lat="-22.0461070351302623748779296875" lon="166.4483691193163394927978515625">
        <ele>914.79998779296875</ele>
        <time>2016-08-12T22:01:02.000Z</time>
        <extensions>
          <ns3:TrackPointExtension>
            <ns3:atemp>17.0</ns3:atemp>
            <ns3:hr>131</ns3:hr>
          </ns3:TrackPointExtension>
        </extensions>
      </trkpt>
      <trkpt lat="-22.04612840898334980010986328125" lon="166.44834690727293491363525390625">
        <ele>914.20001220703125</ele>
        <time>2016-08-12T22:01:03.000Z</time>
        <extensions>
          <ns3:TrackPointExtension>
            <ns3:atemp>17.0</ns3:atemp>
            <ns3:hr>131</ns3:hr>
          </ns3:TrackPointExtension>
        </extensions>
      </trkpt>
      <trkpt lat="-22.04614986665546894073486328125" lon="166.448322348296642303466796875">
        <ele>913.4000244140625</ele>
        <time>2016-08-12T22:01:04.000Z</time>
        <extensions>
          <ns3:TrackPointExtension>
            <ns3:atemp>17.0</ns3:atemp>
            <ns3:hr>131</ns3:hr>
          </ns3:TrackPointExtension>
        </extensions>
      </trkpt>
      <trkpt lat="-22.04617165960371494293212890625" lon="166.4482980407774448394775390625">
        <ele>913.5999755859375</ele>
        <time>2016-08-12T22:01:05.000Z</time>
        <extensions>
          <ns3:TrackPointExtension>
            <ns3:atemp>17.0</ns3:atemp>
            <ns3:hr>131</ns3:hr>
          </ns3:TrackPointExtension>
        </extensions>
      </trkpt>
      <trkpt lat="-22.04618875868618488311767578125" lon="166.44827507436275482177734375">
        <ele>914.20001220703125</ele>
        <time>2016-08-12T22:01:06.000Z</time>
        <extensions>
          <ns3:TrackPointExtension>
            <ns3:atemp>17.0</ns3:atemp>
            <ns3:hr>131</ns3:hr>
          </ns3:TrackPointExtension>
        </extensions>
      </trkpt>
      <trkpt lat="-22.04620309174060821533203125" lon="166.4482511021196842193603515625">
        <ele>914.5999755859375</ele>
        <time>2016-08-12T22:01:07.000Z</time>
        <extensions>
          <ns3:TrackPointExtension>
            <ns3:atemp>17.0</ns3:atemp>
            <ns3:hr>131</ns3:hr>
          </ns3:TrackPointExtension>
        </extensions>
      </trkpt>
      <trkpt lat="-22.04621843062341213226318359375" lon="166.44822813570499420166015625">
        <ele>913.79998779296875</ele>
        <time>2016-08-12T22:01:08.000Z</time>
        <extensions>
          <ns3:TrackPointExtension>
            <ns3:atemp>17.0</ns3:atemp>
            <ns3:hr>131</ns3:hr>
          </ns3:TrackPointExtension>
        </extensions>
      </trkpt>
      <trkpt lat="-22.04623200930655002593994140625" lon="166.44819770939648151397705078125">
        <ele>913.4000244140625</ele>
        <time>2016-08-12T22:01:09.000Z</time>
        <extensions>
          <ns3:TrackPointExtension>
            <ns3:atemp>17.0</ns3:atemp>
            <ns3:hr>131</ns3:hr>
          </ns3:TrackPointExtension>
        </extensions>
      </trkpt>
      <trkpt lat="-22.04625271260738372802734375" lon="166.44817641936242580413818359375">
        <ele>914</ele>
        <time>2016-08-12T22:01:10.000Z</time>
        <extensions>
          <ns3:TrackPointExtension>
            <ns3:atemp>17.0</ns3:atemp>
            <ns3:hr>131</ns3:hr>
          </ns3:TrackPointExtension>
        </extensions>
      </trkpt>
      <trkpt lat="-22.04626352526247501373291015625" lon="166.448163427412509918212890625">
        <ele>914.5999755859375</ele>
        <time>2016-08-12T22:01:11.000Z</time>
        <extensions>
          <ns3:TrackPointExtension>
            <ns3:atemp>17.0</ns3:atemp>
            <ns3:hr>131</ns3:hr>
          </ns3:TrackPointExtension>
        </extensions>
      </trkpt>
      <trkpt lat="-22.04628129489719867706298828125" lon="166.44814942963421344757080078125">
        <ele>914.79998779296875</ele>
        <time>2016-08-12T22:01:12.000Z</time>
        <extensions>
          <ns3:TrackPointExtension>
            <ns3:atemp>17.0</ns3:atemp>
            <ns3:hr>131</ns3:hr>
          </ns3:TrackPointExtension>
        </extensions>
      </trkpt>
      <trkpt lat="-22.046294622123241424560546875" lon="166.4481402933597564697265625">
        <ele>914.4000244140625</ele>
        <time>2016-08-12T22:01:13.000Z</time>
        <extensions>
          <ns3:TrackPointExtension>
            <ns3:atemp>17.0</ns3:atemp>
            <ns3:hr>132</ns3:hr>
          </ns3:TrackPointExtension>
        </extensions>
      </trkpt>
      <trkpt lat="-22.0463082008063793182373046875" lon="166.44813819788396358489990234375">
        <ele>914.5999755859375</ele>
        <time>2016-08-12T22:01:14.000Z</time>
        <extensions>
          <ns3:TrackPointExtension>
            <ns3:atemp>17.0</ns3:atemp>
            <ns3:hr>132</ns3:hr>
          </ns3:TrackPointExtension>
        </extensions>
      </trkpt>
      <trkpt lat="-22.04632873646914958953857421875" lon="166.44813803024590015411376953125">
        <ele>915.5999755859375</ele>
        <time>2016-08-12T22:01:15.000Z</time>
        <extensions>
          <ns3:TrackPointExtension>
            <ns3:atemp>17.0</ns3:atemp>
            <ns3:hr>132</ns3:hr>
          </ns3:TrackPointExtension>
        </extensions>
      </trkpt>
      <trkpt lat="-22.046348266303539276123046875" lon="166.44813559949398040771484375">
        <ele>916</ele>
        <time>2016-08-12T22:01:16.000Z</time>
        <extensions>
          <ns3:TrackPointExtension>
            <ns3:atemp>17.0</ns3:atemp>
            <ns3:hr>132</ns3:hr>
          </ns3:TrackPointExtension>
        </extensions>
      </trkpt>
      <trkpt lat="-22.046368382871150970458984375" lon="166.4481391198933124542236328125">
        <ele>915.4000244140625</ele>
        <time>2016-08-12T22:01:17.000Z</time>
        <extensions>
          <ns3:TrackPointExtension>
            <ns3:atemp>17.0</ns3:atemp>
            <ns3:hr>132</ns3:hr>
          </ns3:TrackPointExtension>
        </extensions>
      </trkpt>
      <trkpt lat="-22.046388499438762664794921875" lon="166.44814423285424709320068359375">
        <ele>915.20001220703125</ele>
        <time>2016-08-12T22:01:18.000Z</time>
        <extensions>
          <ns3:TrackPointExtension>
            <ns3:atemp>17.0</ns3:atemp>
            <ns3:hr>132</ns3:hr>
          </ns3:TrackPointExtension>
        </extensions>
      </trkpt>
      <trkpt lat="-22.046406269073486328125" lon="166.44814758561551570892333984375">
        <ele>915.4000244140625</ele>
        <time>2016-08-12T22:01:19.000Z</time>
        <extensions>
          <ns3:TrackPointExtension>
            <ns3:atemp>17.0</ns3:atemp>
            <ns3:hr>132</ns3:hr>
          </ns3:TrackPointExtension>
        </extensions>
      </trkpt>
      <trkpt lat="-22.04642848111689090728759765625" lon="166.4481592364609241485595703125">
        <ele>915.5999755859375</ele>
        <time>2016-08-12T22:01:20.000Z</time>
        <extensions>
          <ns3:TrackPointExtension>
            <ns3:atemp>17.0</ns3:atemp>
            <ns3:hr>132</ns3:hr>
          </ns3:TrackPointExtension>
        </extensions>
      </trkpt>
      <trkpt lat="-22.04644859768450260162353515625" lon="166.44816367886960506439208984375">
        <ele>915.4000244140625</ele>
        <time>2016-08-12T22:01:21.000Z</time>
        <extensions>
          <ns3:TrackPointExtension>
            <ns3:atemp>17.0</ns3:atemp>
            <ns3:hr>133</ns3:hr>
          </ns3:TrackPointExtension>
        </extensions>
      </trkpt>
      <trkpt lat="-22.0464684627950191497802734375" lon="166.44816166721284389495849609375">
        <ele>914.79998779296875</ele>
        <time>2016-08-12T22:01:22.000Z</time>
        <extensions>
          <ns3:TrackPointExtension>
            <ns3:atemp>17.0</ns3:atemp>
            <ns3:hr>133</ns3:hr>
          </ns3:TrackPointExtension>
        </extensions>
      </trkpt>
      <trkpt lat="-22.04647726379334926605224609375" lon="166.4481682889163494110107421875">
        <ele>915.4000244140625</ele>
        <time>2016-08-12T22:01:23.000Z</time>
        <extensions>
          <ns3:TrackPointExtension>
            <ns3:atemp>17.0</ns3:atemp>
            <ns3:hr>133</ns3:hr>
          </ns3:TrackPointExtension>
        </extensions>
      </trkpt>
      <trkpt lat="-22.04649142920970916748046875" lon="166.44816719926893711090087890625">
        <ele>916</ele>
        <time>2016-08-12T22:01:24.000Z</time>
        <extensions>
          <ns3:TrackPointExtension>
            <ns3:atemp>17.0</ns3:atemp>
            <ns3:hr>133</ns3:hr>
          </ns3:TrackPointExtension>
        </extensions>
      </trkpt>
      <trkpt lat="-22.0465140603482723236083984375" lon="166.44816267304122447967529296875">
        <ele>915.79998779296875</ele>
        <time>2016-08-12T22:01:25.000Z</time>
        <extensions>
          <ns3:TrackPointExtension>
            <ns3:atemp>17.0</ns3:atemp>
            <ns3:hr>133</ns3:hr>
          </ns3:TrackPointExtension>
        </extensions>
      </trkpt>
      <trkpt lat="-22.04652638174593448638916015625" lon="166.4481585659086704254150390625">
        <ele>915.4000244140625</ele>
        <time>2016-08-12T22:01:26.000Z</time>
        <extensions>
          <ns3:TrackPointExtension>
            <ns3:atemp>17.0</ns3:atemp>
            <ns3:hr>133</ns3:hr>
          </ns3:TrackPointExtension>
        </extensions>
      </trkpt>
      <trkpt lat="-22.04654281027615070343017578125" lon="166.44815093837678432464599609375">
        <ele>915.4000244140625</ele>
        <time>2016-08-12T22:01:27.000Z</time>
        <extensions>
          <ns3:TrackPointExtension>
            <ns3:atemp>17.0</ns3:atemp>
            <ns3:hr>133</ns3:hr>
          </ns3:TrackPointExtension>
        </extensions>
      </trkpt>
      <trkpt lat="-22.0465646870434284210205078125" lon="166.4481391198933124542236328125">
        <ele>915</ele>
        <time>2016-08-12T22:01:28.000Z</time>
        <extensions>
          <ns3:TrackPointExtension>
            <ns3:atemp>17.0</ns3:atemp>
            <ns3:hr>133</ns3:hr>
          </ns3:TrackPointExtension>
        </extensions>
      </trkpt>
      <trkpt lat="-22.0465858094394207000732421875" lon="166.448128223419189453125">
        <ele>914.79998779296875</ele>
        <time>2016-08-12T22:01:29.000Z</time>
        <extensions>
          <ns3:TrackPointExtension>
            <ns3:atemp>17.0</ns3:atemp>
            <ns3:hr>133</ns3:hr>
          </ns3:TrackPointExtension>
        </extensions>
      </trkpt>
      <trkpt lat="-22.04661070369184017181396484375" lon="166.44812545739114284515380859375">
        <ele>915.20001220703125</ele>
        <time>2016-08-12T22:01:30.000Z</time>
        <extensions>
          <ns3:TrackPointExtension>
            <ns3:atemp>17.0</ns3:atemp>
            <ns3:hr>133</ns3:hr>
          </ns3:TrackPointExtension>
        </extensions>
      </trkpt>
      <trkpt lat="-22.04663953743875026702880859375" lon="166.44813149236142635345458984375">
        <ele>914.79998779296875</ele>
        <time>2016-08-12T22:01:31.000Z</time>
        <extensions>
          <ns3:TrackPointExtension>
            <ns3:atemp>17.0</ns3:atemp>
            <ns3:hr>133</ns3:hr>
          </ns3:TrackPointExtension>
        </extensions>
      </trkpt>
      <trkpt lat="-22.04666820354759693145751953125" lon="166.4481483399868011474609375">
        <ele>914.5999755859375</ele>
        <time>2016-08-12T22:01:32.000Z</time>
        <extensions>
          <ns3:TrackPointExtension>
            <ns3:atemp>17.0</ns3:atemp>
            <ns3:hr>134</ns3:hr>
          </ns3:TrackPointExtension>
        </extensions>
      </trkpt>
      <trkpt lat="-22.04669284634292125701904296875" lon="166.4481679536402225494384765625">
        <ele>914.79998779296875</ele>
        <time>2016-08-12T22:01:33.000Z</time>
        <extensions>
          <ns3:TrackPointExtension>
            <ns3:atemp>17.0</ns3:atemp>
            <ns3:hr>134</ns3:hr>
          </ns3:TrackPointExtension>
        </extensions>
      </trkpt>
      <trkpt lat="-22.04671463929116725921630859375" lon="166.44818429835140705108642578125">
        <ele>914.79998779296875</ele>
        <time>2016-08-12T22:01:34.000Z</time>
        <extensions>
          <ns3:TrackPointExtension>
            <ns3:atemp>17.0</ns3:atemp>
            <ns3:hr>134</ns3:hr>
          </ns3:TrackPointExtension>
        </extensions>
      </trkpt>
      <trkpt lat="-22.0467376895248889923095703125" lon="166.4481934346258640289306640625">
        <ele>914.20001220703125</ele>
        <time>2016-08-12T22:01:35.000Z</time>
        <extensions>
          <ns3:TrackPointExtension>
            <ns3:atemp>17.0</ns3:atemp>
            <ns3:hr>135</ns3:hr>
          </ns3:TrackPointExtension>
        </extensions>
      </trkpt>
      <trkpt lat="-22.04676375724375247955322265625" lon="166.448212377727031707763671875">
        <ele>914.20001220703125</ele>
        <time>2016-08-12T22:01:36.000Z</time>
        <extensions>
          <ns3:TrackPointExtension>
            <ns3:atemp>17.0</ns3:atemp>
            <ns3:hr>135</ns3:hr>
          </ns3:TrackPointExtension>
        </extensions>
      </trkpt>
      <trkpt lat="-22.0467977039515972137451171875" lon="166.4482247829437255859375">
        <ele>914</ele>
        <time>2016-08-12T22:01:37.000Z</time>
        <extensions>
          <ns3:TrackPointExtension>
            <ns3:atemp>17.0</ns3:atemp>
            <ns3:hr>135</ns3:hr>
          </ns3:TrackPointExtension>
        </extensions>
      </trkpt>
      <trkpt lat="-22.0468278788030147552490234375" lon="166.4482383616268634796142578125">
        <ele>913.5999755859375</ele>
        <time>2016-08-12T22:01:38.000Z</time>
        <extensions>
          <ns3:TrackPointExtension>
            <ns3:atemp>17.0</ns3:atemp>
            <ns3:hr>135</ns3:hr>
          </ns3:TrackPointExtension>
        </extensions>
      </trkpt>
      <trkpt lat="-22.046857215464115142822265625" lon="166.44825018011033535003662109375">
        <ele>913.20001220703125</ele>
        <time>2016-08-12T22:01:39.000Z</time>
        <extensions>
          <ns3:TrackPointExtension>
            <ns3:atemp>17.0</ns3:atemp>
            <ns3:hr>135</ns3:hr>
          </ns3:TrackPointExtension>
        </extensions>
      </trkpt>
      <trkpt lat="-22.0468852110207080841064453125" lon="166.44826023839414119720458984375">
        <ele>913.4000244140625</ele>
        <time>2016-08-12T22:01:40.000Z</time>
        <extensions>
          <ns3:TrackPointExtension>
            <ns3:atemp>17.0</ns3:atemp>
            <ns3:hr>135</ns3:hr>
          </ns3:TrackPointExtension>
        </extensions>
      </trkpt>
      <trkpt lat="-22.04691563732922077178955078125" lon="166.44827214069664478302001953125">
        <ele>913.4000244140625</ele>
        <time>2016-08-12T22:01:41.000Z</time>
        <extensions>
          <ns3:TrackPointExtension>
            <ns3:atemp>17.0</ns3:atemp>
            <ns3:hr>135</ns3:hr>
          </ns3:TrackPointExtension>
        </extensions>
      </trkpt>
      <trkpt lat="-22.046947069466114044189453125" lon="166.44828303717076778411865234375">
        <ele>913</ele>
        <time>2016-08-12T22:01:42.000Z</time>
        <extensions>
          <ns3:TrackPointExtension>
            <ns3:atemp>17.0</ns3:atemp>
            <ns3:hr>135</ns3:hr>
          </ns3:TrackPointExtension>
        </extensions>
      </trkpt>
      <trkpt lat="-22.04697556793689727783203125" lon="166.448292173445224761962890625">
        <ele>913.4000244140625</ele>
        <time>2016-08-12T22:01:43.000Z</time>
        <extensions>
          <ns3:TrackPointExtension>
            <ns3:atemp>17.0</ns3:atemp>
            <ns3:hr>136</ns3:hr>
          </ns3:TrackPointExtension>
        </extensions>
      </trkpt>
      <trkpt lat="-22.0470102690160274505615234375" lon="166.44830315373837947845458984375">
        <ele>913.79998779296875</ele>
        <time>2016-08-12T22:01:44.000Z</time>
        <extensions>
          <ns3:TrackPointExtension>
            <ns3:atemp>17.0</ns3:atemp>
            <ns3:hr>136</ns3:hr>
          </ns3:TrackPointExtension>
        </extensions>
      </trkpt>
      <trkpt lat="-22.0470421202480792999267578125" lon="166.44831304438412189483642578125">
        <ele>913.5999755859375</ele>
        <time>2016-08-12T22:01:45.000Z</time>
        <extensions>
          <ns3:TrackPointExtension>
            <ns3:atemp>17.0</ns3:atemp>
            <ns3:hr>135</ns3:hr>
          </ns3:TrackPointExtension>
        </extensions>
      </trkpt>
      <trkpt lat="-22.04706483520567417144775390625" lon="166.44832209683954715728759765625">
        <ele>913.20001220703125</ele>
        <time>2016-08-12T22:01:46.000Z</time>
        <extensions>
          <ns3:TrackPointExtension>
            <ns3:atemp>17.0</ns3:atemp>
            <ns3:hr>136</ns3:hr>
          </ns3:TrackPointExtension>
        </extensions>
      </trkpt>
      <trkpt lat="-22.047090567648410797119140625" lon="166.4483339153230190277099609375">
        <ele>913.20001220703125</ele>
        <time>2016-08-12T22:01:47.000Z</time>
        <extensions>
          <ns3:TrackPointExtension>
            <ns3:atemp>17.0</ns3:atemp>
            <ns3:hr>135</ns3:hr>
          </ns3:TrackPointExtension>
        </extensions>
      </trkpt>
      <trkpt lat="-22.047112025320529937744140625" lon="166.44834204576909542083740234375">
        <ele>913.20001220703125</ele>
        <time>2016-08-12T22:01:48.000Z</time>
        <extensions>
          <ns3:TrackPointExtension>
            <ns3:atemp>17.0</ns3:atemp>
            <ns3:hr>136</ns3:hr>
          </ns3:TrackPointExtension>
        </extensions>
      </trkpt>
      <trkpt lat="-22.04712971113622188568115234375" lon="166.4483513496816158294677734375">
        <ele>912.5999755859375</ele>
        <time>2016-08-12T22:01:49.000Z</time>
        <extensions>
          <ns3:TrackPointExtension>
            <ns3:atemp>17.0</ns3:atemp>
            <ns3:hr>135</ns3:hr>
          </ns3:TrackPointExtension>
        </extensions>
      </trkpt>
      <trkpt lat="-22.04714613966643810272216796875" lon="166.448357887566089630126953125">
        <ele>912.4000244140625</ele>
        <time>2016-08-12T22:01:50.000Z</time>
        <extensions>
          <ns3:TrackPointExtension>
            <ns3:atemp>17.0</ns3:atemp>
            <ns3:hr>135</ns3:hr>
          </ns3:TrackPointExtension>
        </extensions>
      </trkpt>
      <trkpt lat="-22.04716105945408344268798828125" lon="166.44836383871734142303466796875">
        <ele>912.5999755859375</ele>
        <time>2016-08-12T22:01:51.000Z</time>
        <extensions>
          <ns3:TrackPointExtension>
            <ns3:atemp>17.0</ns3:atemp>
            <ns3:hr>135</ns3:hr>
          </ns3:TrackPointExtension>
        </extensions>
      </trkpt>
      <trkpt lat="-22.047179751098155975341796875" lon="166.44836802966892719268798828125">
        <ele>912.79998779296875</ele>
        <time>2016-08-12T22:01:52.000Z</time>
        <extensions>
          <ns3:TrackPointExtension>
            <ns3:atemp>17.0</ns3:atemp>
            <ns3:hr>136</ns3:hr>
          </ns3:TrackPointExtension>
        </extensions>
      </trkpt>
      <trkpt lat="-22.04719550907611846923828125" lon="166.44837356172502040863037109375">
        <ele>912.5999755859375</ele>
        <time>2016-08-12T22:01:53.000Z</time>
        <extensions>
          <ns3:TrackPointExtension>
            <ns3:atemp>17.0</ns3:atemp>
            <ns3:hr>136</ns3:hr>
          </ns3:TrackPointExtension>
        </extensions>
      </trkpt>
      <trkpt lat="-22.04721151851117610931396484375" lon="166.4483761601150035858154296875">
        <ele>912.5999755859375</ele>
        <time>2016-08-12T22:01:54.000Z</time>
        <extensions>
          <ns3:TrackPointExtension>
            <ns3:atemp>17.0</ns3:atemp>
            <ns3:hr>136</ns3:hr>
          </ns3:TrackPointExtension>
        </extensions>
      </trkpt>
      <trkpt lat="-22.0472328923642635345458984375" lon="166.448374651372432708740234375">
        <ele>913</ele>
        <time>2016-08-12T22:01:55.000Z</time>
        <extensions>
          <ns3:TrackPointExtension>
            <ns3:atemp>17.0</ns3:atemp>
            <ns3:hr>136</ns3:hr>
          </ns3:TrackPointExtension>
        </extensions>
      </trkpt>
      <trkpt lat="-22.04725627787411212921142578125" lon="166.44837724976241588592529296875">
        <ele>913.4000244140625</ele>
        <time>2016-08-12T22:01:56.000Z</time>
        <extensions>
          <ns3:TrackPointExtension>
            <ns3:atemp>17.0</ns3:atemp>
            <ns3:hr>136</ns3:hr>
          </ns3:TrackPointExtension>
        </extensions>
      </trkpt>
      <trkpt lat="-22.04728175885975360870361328125" lon="166.44837724976241588592529296875">
        <ele>913</ele>
        <time>2016-08-12T22:01:57.000Z</time>
        <extensions>
          <ns3:TrackPointExtension>
            <ns3:atemp>17.0</ns3:atemp>
            <ns3:hr>135</ns3:hr>
          </ns3:TrackPointExtension>
        </extensions>
      </trkpt>
      <trkpt lat="-22.04730120487511157989501953125" lon="166.4483763277530670166015625">
        <ele>913.20001220703125</ele>
        <time>2016-08-12T22:01:58.000Z</time>
        <extensions>
          <ns3:TrackPointExtension>
            <ns3:atemp>17.0</ns3:atemp>
            <ns3:hr>136</ns3:hr>
          </ns3:TrackPointExtension>
        </extensions>
      </trkpt>
      <trkpt lat="-22.04732534475624561309814453125" lon="166.4483763277530670166015625">
        <ele>913.4000244140625</ele>
        <time>2016-08-12T22:01:59.000Z</time>
        <extensions>
          <ns3:TrackPointExtension>
            <ns3:atemp>17.0</ns3:atemp>
            <ns3:hr>135</ns3:hr>
          </ns3:TrackPointExtension>
        </extensions>
      </trkpt>
      <trkpt lat="-22.04734998755156993865966796875" lon="166.4483754895627498626708984375">
        <ele>913.5999755859375</ele>
        <time>2016-08-12T22:02:00.000Z</time>
        <extensions>
          <ns3:TrackPointExtension>
            <ns3:atemp>17.0</ns3:atemp>
            <ns3:hr>136</ns3:hr>
          </ns3:TrackPointExtension>
        </extensions>
      </trkpt>
      <trkpt lat="-22.0473747141659259796142578125" lon="166.448373310267925262451171875">
        <ele>913.20001220703125</ele>
        <time>2016-08-12T22:02:01.000Z</time>
        <extensions>
          <ns3:TrackPointExtension>
            <ns3:atemp>17.0</ns3:atemp>
            <ns3:hr>136</ns3:hr>
          </ns3:TrackPointExtension>
        </extensions>
      </trkpt>
      <trkpt lat="-22.04740178771317005157470703125" lon="166.4483711309731006622314453125">
        <ele>913</ele>
        <time>2016-08-12T22:02:02.000Z</time>
        <extensions>
          <ns3:TrackPointExtension>
            <ns3:atemp>17.0</ns3:atemp>
            <ns3:hr>136</ns3:hr>
          </ns3:TrackPointExtension>
        </extensions>
      </trkpt>
      <trkpt lat="-22.04742777161300182342529296875" lon="166.448371969163417816162109375">
        <ele>913.20001220703125</ele>
        <time>2016-08-12T22:02:03.000Z</time>
        <extensions>
          <ns3:TrackPointExtension>
            <ns3:atemp>17.0</ns3:atemp>
            <ns3:hr>135</ns3:hr>
          </ns3:TrackPointExtension>
        </extensions>
      </trkpt>
      <trkpt lat="-22.04745342023670673370361328125" lon="166.44837473519146442413330078125">
        <ele>913.5999755859375</ele>
        <time>2016-08-12T22:02:04.000Z</time>
        <extensions>
          <ns3:TrackPointExtension>
            <ns3:atemp>17.0</ns3:atemp>
            <ns3:hr>136</ns3:hr>
          </ns3:TrackPointExtension>
        </extensions>
      </trkpt>
      <trkpt lat="-22.04747982323169708251953125" lon="166.448378674685955047607421875">
        <ele>913.79998779296875</ele>
        <time>2016-08-12T22:02:05.000Z</time>
        <extensions>
          <ns3:TrackPointExtension>
            <ns3:atemp>17.0</ns3:atemp>
            <ns3:hr>136</ns3:hr>
          </ns3:TrackPointExtension>
        </extensions>
      </trkpt>
      <trkpt lat="-22.04750320874154567718505859375" lon="166.4483855478465557098388671875">
        <ele>913.79998779296875</ele>
        <time>2016-08-12T22:02:06.000Z</time>
        <extensions>
          <ns3:TrackPointExtension>
            <ns3:atemp>17.0</ns3:atemp>
            <ns3:hr>136</ns3:hr>
          </ns3:TrackPointExtension>
        </extensions>
      </trkpt>
      <trkpt lat="-22.0475309528410434722900390625" lon="166.44839401356875896453857421875">
        <ele>914.20001220703125</ele>
        <time>2016-08-12T22:02:07.000Z</time>
        <extensions>
          <ns3:TrackPointExtension>
            <ns3:atemp>17.0</ns3:atemp>
            <ns3:hr>136</ns3:hr>
          </ns3:TrackPointExtension>
        </extensions>
      </trkpt>
      <trkpt lat="-22.04755819402635097503662109375" lon="166.448401473462581634521484375">
        <ele>914.4000244140625</ele>
        <time>2016-08-12T22:02:08.000Z</time>
        <extensions>
          <ns3:TrackPointExtension>
            <ns3:atemp>17.0</ns3:atemp>
            <ns3:hr>136</ns3:hr>
          </ns3:TrackPointExtension>
        </extensions>
      </trkpt>
      <trkpt lat="-22.04758434556424617767333984375" lon="166.44840457476675510406494140625">
        <ele>914</ele>
        <time>2016-08-12T22:02:09.000Z</time>
        <extensions>
          <ns3:TrackPointExtension>
            <ns3:atemp>17.0</ns3:atemp>
            <ns3:hr>136</ns3:hr>
          </ns3:TrackPointExtension>
        </extensions>
      </trkpt>
      <trkpt lat="-22.047611586749553680419921875" lon="166.448407508432865142822265625">
        <ele>913.79998779296875</ele>
        <time>2016-08-12T22:02:10.000Z</time>
        <extensions>
          <ns3:TrackPointExtension>
            <ns3:atemp>17.0</ns3:atemp>
            <ns3:hr>136</ns3:hr>
          </ns3:TrackPointExtension>
        </extensions>
      </trkpt>
      <trkpt lat="-22.047639079391956329345703125" lon="166.44841312430799007415771484375">
        <ele>914</ele>
        <time>2016-08-12T22:02:11.000Z</time>
        <extensions>
          <ns3:TrackPointExtension>
            <ns3:atemp>17.0</ns3:atemp>
            <ns3:hr>136</ns3:hr>
          </ns3:TrackPointExtension>
        </extensions>
      </trkpt>
      <trkpt lat="-22.047667242586612701416015625" lon="166.4484130404889583587646484375">
        <ele>914.4000244140625</ele>
        <time>2016-08-12T22:02:12.000Z</time>
        <extensions>
          <ns3:TrackPointExtension>
            <ns3:atemp>17.0</ns3:atemp>
            <ns3:hr>136</ns3:hr>
          </ns3:TrackPointExtension>
        </extensions>
      </trkpt>
      <trkpt lat="-22.04769599251449108123779296875" lon="166.44840708933770656585693359375">
        <ele>914.20001220703125</ele>
        <time>2016-08-12T22:02:13.000Z</time>
        <extensions>
          <ns3:TrackPointExtension>
            <ns3:atemp>17.0</ns3:atemp>
            <ns3:hr>137</ns3:hr>
          </ns3:TrackPointExtension>
        </extensions>
      </trkpt>
      <trkpt lat="-22.0477207191288471221923828125" lon="166.44839988090097904205322265625">
        <ele>914.4000244140625</ele>
        <time>2016-08-12T22:02:14.000Z</time>
        <extensions>
          <ns3:TrackPointExtension>
            <ns3:atemp>17.0</ns3:atemp>
            <ns3:hr>137</ns3:hr>
          </ns3:TrackPointExtension>
        </extensions>
      </trkpt>
      <trkpt lat="-22.04774745739996433258056640625" lon="166.4483912475407123565673828125">
        <ele>914.79998779296875</ele>
        <time>2016-08-12T22:02:15.000Z</time>
        <extensions>
          <ns3:TrackPointExtension>
            <ns3:atemp>17.0</ns3:atemp>
            <ns3:hr>137</ns3:hr>
          </ns3:TrackPointExtension>
        </extensions>
      </trkpt>
      <trkpt lat="-22.047773189842700958251953125" lon="166.4483828656375408172607421875">
        <ele>915.20001220703125</ele>
        <time>2016-08-12T22:02:16.000Z</time>
        <extensions>
          <ns3:TrackPointExtension>
            <ns3:atemp>17.0</ns3:atemp>
            <ns3:hr>137</ns3:hr>
          </ns3:TrackPointExtension>
        </extensions>
      </trkpt>
      <trkpt lat="-22.047799341380596160888671875" lon="166.4483768306672573089599609375">
        <ele>915.20001220703125</ele>
        <time>2016-08-12T22:02:17.000Z</time>
        <extensions>
          <ns3:TrackPointExtension>
            <ns3:atemp>17.0</ns3:atemp>
            <ns3:hr>137</ns3:hr>
          </ns3:TrackPointExtension>
        </extensions>
      </trkpt>
      <trkpt lat="-22.04782339744269847869873046875" lon="166.4483681134879589080810546875">
        <ele>915.20001220703125</ele>
        <time>2016-08-12T22:02:18.000Z</time>
        <extensions>
          <ns3:TrackPointExtension>
            <ns3:atemp>17.0</ns3:atemp>
            <ns3:hr>137</ns3:hr>
          </ns3:TrackPointExtension>
        </extensions>
      </trkpt>
      <trkpt lat="-22.04784284345805644989013671875" lon="166.4483607374131679534912109375">
        <ele>915.5999755859375</ele>
        <time>2016-08-12T22:02:19.000Z</time>
        <extensions>
          <ns3:TrackPointExtension>
            <ns3:atemp>17.0</ns3:atemp>
            <ns3:hr>137</ns3:hr>
          </ns3:TrackPointExtension>
        </extensions>
      </trkpt>
      <trkpt lat="-22.04786497168242931365966796875" lon="166.4483550377190113067626953125">
        <ele>915.5999755859375</ele>
        <time>2016-08-12T22:02:20.000Z</time>
        <extensions>
          <ns3:TrackPointExtension>
            <ns3:atemp>17.0</ns3:atemp>
            <ns3:hr>138</ns3:hr>
          </ns3:TrackPointExtension>
        </extensions>
      </trkpt>
      <trkpt lat="-22.04789799638092517852783203125" lon="166.44835612736642360687255859375">
        <ele>915.4000244140625</ele>
        <time>2016-08-12T22:02:21.000Z</time>
        <extensions>
          <ns3:TrackPointExtension>
            <ns3:atemp>17.0</ns3:atemp>
            <ns3:hr>138</ns3:hr>
          </ns3:TrackPointExtension>
        </extensions>
      </trkpt>
      <trkpt lat="-22.0479257404804229736328125" lon="166.44835679791867733001708984375">
        <ele>915.5999755859375</ele>
        <time>2016-08-12T22:02:22.000Z</time>
        <extensions>
          <ns3:TrackPointExtension>
            <ns3:atemp>17.0</ns3:atemp>
            <ns3:hr>138</ns3:hr>
          </ns3:TrackPointExtension>
        </extensions>
      </trkpt>
      <trkpt lat="-22.04795767553150653839111328125" lon="166.44836199469864368438720703125">
        <ele>916</ele>
        <time>2016-08-12T22:02:23.000Z</time>
        <extensions>
          <ns3:TrackPointExtension>
            <ns3:atemp>17.0</ns3:atemp>
            <ns3:hr>138</ns3:hr>
          </ns3:TrackPointExtension>
        </extensions>
      </trkpt>
      <trkpt lat="-22.04798365943133831024169921875" lon="166.44836962223052978515625">
        <ele>916</ele>
        <time>2016-08-12T22:02:24.000Z</time>
        <extensions>
          <ns3:TrackPointExtension>
            <ns3:atemp>17.0</ns3:atemp>
            <ns3:hr>138</ns3:hr>
          </ns3:TrackPointExtension>
        </extensions>
      </trkpt>
      <trkpt lat="-22.0480080507695674896240234375" lon="166.4483838714659214019775390625">
        <ele>916</ele>
        <time>2016-08-12T22:02:25.000Z</time>
        <extensions>
          <ns3:TrackPointExtension>
            <ns3:atemp>17.0</ns3:atemp>
            <ns3:hr>138</ns3:hr>
          </ns3:TrackPointExtension>
        </extensions>
      </trkpt>
      <trkpt lat="-22.0480303466320037841796875" lon="166.44840256310999393463134765625">
        <ele>916</ele>
        <time>2016-08-12T22:02:26.000Z</time>
        <extensions>
          <ns3:TrackPointExtension>
            <ns3:atemp>17.0</ns3:atemp>
            <ns3:hr>138</ns3:hr>
          </ns3:TrackPointExtension>
        </extensions>
      </trkpt>
      <trkpt lat="-22.048050463199615478515625" lon="166.4484194107353687286376953125">
        <ele>916.20001220703125</ele>
        <time>2016-08-12T22:02:27.000Z</time>
        <extensions>
          <ns3:TrackPointExtension>
            <ns3:atemp>17.0</ns3:atemp>
            <ns3:hr>139</ns3:hr>
          </ns3:TrackPointExtension>
        </extensions>
      </trkpt>
      <trkpt lat="-22.04807049594819545745849609375" lon="166.448438353836536407470703125">
        <ele>915.5999755859375</ele>
        <time>2016-08-12T22:02:28.000Z</time>
        <extensions>
          <ns3:TrackPointExtension>
            <ns3:atemp>17.0</ns3:atemp>
            <ns3:hr>138</ns3:hr>
          </ns3:TrackPointExtension>
        </extensions>
      </trkpt>
      <trkpt lat="-22.04808910377323627471923828125" lon="166.44845788367092609405517578125">
        <ele>915.79998779296875</ele>
        <time>2016-08-12T22:02:29.000Z</time>
        <extensions>
          <ns3:TrackPointExtension>
            <ns3:atemp>17.0</ns3:atemp>
            <ns3:hr>138</ns3:hr>
          </ns3:TrackPointExtension>
        </extensions>
      </trkpt>
      <trkpt lat="-22.04810251481831073760986328125" lon="166.4484780840575695037841796875">
        <ele>916.20001220703125</ele>
        <time>2016-08-12T22:02:30.000Z</time>
        <extensions>
          <ns3:TrackPointExtension>
            <ns3:atemp>17.0</ns3:atemp>
            <ns3:hr>138</ns3:hr>
          </ns3:TrackPointExtension>
        </extensions>
      </trkpt>
      <trkpt lat="-22.04811944626271724700927734375" lon="166.44849694333970546722412109375">
        <ele>915.79998779296875</ele>
        <time>2016-08-12T22:02:31.000Z</time>
        <extensions>
          <ns3:TrackPointExtension>
            <ns3:atemp>17.0</ns3:atemp>
            <ns3:hr>138</ns3:hr>
          </ns3:TrackPointExtension>
        </extensions>
      </trkpt>
      <trkpt lat="-22.04813562333583831787109375" lon="166.448512785136699676513671875">
        <ele>915.5999755859375</ele>
        <time>2016-08-12T22:02:32.000Z</time>
        <extensions>
          <ns3:TrackPointExtension>
            <ns3:atemp>17.0</ns3:atemp>
            <ns3:hr>138</ns3:hr>
          </ns3:TrackPointExtension>
        </extensions>
      </trkpt>
      <trkpt lat="-22.0481518842279911041259765625" lon="166.44852762110531330108642578125">
        <ele>916</ele>
        <time>2016-08-12T22:02:33.000Z</time>
        <extensions>
          <ns3:TrackPointExtension>
            <ns3:atemp>17.0</ns3:atemp>
            <ns3:hr>138</ns3:hr>
          </ns3:TrackPointExtension>
        </extensions>
      </trkpt>
      <trkpt lat="-22.04816889949142932891845703125" lon="166.44854187034070491790771484375">
        <ele>915.4000244140625</ele>
        <time>2016-08-12T22:02:34.000Z</time>
        <extensions>
          <ns3:TrackPointExtension>
            <ns3:atemp>17.0</ns3:atemp>
            <ns3:hr>138</ns3:hr>
          </ns3:TrackPointExtension>
        </extensions>
      </trkpt>
      <trkpt lat="-22.04818784259259700775146484375" lon="166.448556371033191680908203125">
        <ele>914.79998779296875</ele>
        <time>2016-08-12T22:02:35.000Z</time>
        <extensions>
          <ns3:TrackPointExtension>
            <ns3:atemp>17.0</ns3:atemp>
            <ns3:hr>138</ns3:hr>
          </ns3:TrackPointExtension>
        </extensions>
      </trkpt>
      <trkpt lat="-22.0482095517218112945556640625" lon="166.448564417660236358642578125">
        <ele>914.5999755859375</ele>
        <time>2016-08-12T22:02:36.000Z</time>
        <extensions>
          <ns3:TrackPointExtension>
            <ns3:atemp>17.0</ns3:atemp>
            <ns3:hr>137</ns3:hr>
          </ns3:TrackPointExtension>
        </extensions>
      </trkpt>
      <trkpt lat="-22.0482293330132961273193359375" lon="166.44857187755405902862548828125">
        <ele>914.79998779296875</ele>
        <time>2016-08-12T22:02:37.000Z</time>
        <extensions>
          <ns3:TrackPointExtension>
            <ns3:atemp>17.0</ns3:atemp>
            <ns3:hr>137</ns3:hr>
          </ns3:TrackPointExtension>
        </extensions>
      </trkpt>
      <trkpt lat="-22.04824961721897125244140625" lon="166.44857908599078655242919921875">
        <ele>915</ele>
        <time>2016-08-12T22:02:38.000Z</time>
        <extensions>
          <ns3:TrackPointExtension>
            <ns3:atemp>17.0</ns3:atemp>
            <ns3:hr>137</ns3:hr>
          </ns3:TrackPointExtension>
        </extensions>
      </trkpt>
      <trkpt lat="-22.04826964996755123138427734375" lon="166.44858797080814838409423828125">
        <ele>914.79998779296875</ele>
        <time>2016-08-12T22:02:39.000Z</time>
        <extensions>
          <ns3:TrackPointExtension>
            <ns3:atemp>17.0</ns3:atemp>
            <ns3:hr>137</ns3:hr>
          </ns3:TrackPointExtension>
        </extensions>
      </trkpt>
      <trkpt lat="-22.04829060472548007965087890625" lon="166.4485962688922882080078125">
        <ele>914.20001220703125</ele>
        <time>2016-08-12T22:02:40.000Z</time>
        <extensions>
          <ns3:TrackPointExtension>
            <ns3:atemp>17.0</ns3:atemp>
            <ns3:hr>137</ns3:hr>
          </ns3:TrackPointExtension>
        </extensions>
      </trkpt>
      <trkpt lat="-22.0483118109405040740966796875" lon="166.44860473461449146270751953125">
        <ele>914</ele>
        <time>2016-08-12T22:02:41.000Z</time>
        <extensions>
          <ns3:TrackPointExtension>
            <ns3:atemp>17.0</ns3:atemp>
            <ns3:hr>136</ns3:hr>
          </ns3:TrackPointExtension>
        </extensions>
      </trkpt>
      <trkpt lat="-22.04833486117422580718994140625" lon="166.44861345179378986358642578125">
        <ele>913.79998779296875</ele>
        <time>2016-08-12T22:02:42.000Z</time>
        <extensions>
          <ns3:TrackPointExtension>
            <ns3:atemp>17.0</ns3:atemp>
            <ns3:hr>136</ns3:hr>
          </ns3:TrackPointExtension>
        </extensions>
      </trkpt>
      <trkpt lat="-22.04835967160761356353759765625" lon="166.44862242043018341064453125">
        <ele>913.4000244140625</ele>
        <time>2016-08-12T22:02:43.000Z</time>
        <extensions>
          <ns3:TrackPointExtension>
            <ns3:atemp>17.0</ns3:atemp>
            <ns3:hr>136</ns3:hr>
          </ns3:TrackPointExtension>
        </extensions>
      </trkpt>
      <trkpt lat="-22.04838238656520843505859375" lon="166.44862988032400608062744140625">
        <ele>912.79998779296875</ele>
        <time>2016-08-12T22:02:44.000Z</time>
        <extensions>
          <ns3:TrackPointExtension>
            <ns3:atemp>17.0</ns3:atemp>
            <ns3:hr>136</ns3:hr>
          </ns3:TrackPointExtension>
        </extensions>
      </trkpt>
      <trkpt lat="-22.04840091057121753692626953125" lon="166.44863809458911418914794921875">
        <ele>913.20001220703125</ele>
        <time>2016-08-12T22:02:45.000Z</time>
        <extensions>
          <ns3:TrackPointExtension>
            <ns3:atemp>17.0</ns3:atemp>
            <ns3:hr>135</ns3:hr>
          </ns3:TrackPointExtension>
        </extensions>
      </trkpt>
      <trkpt lat="-22.0484231226146221160888671875" lon="166.448646225035190582275390625">
        <ele>913.20001220703125</ele>
        <time>2016-08-12T22:02:46.000Z</time>
        <extensions>
          <ns3:TrackPointExtension>
            <ns3:atemp>17.0</ns3:atemp>
            <ns3:hr>135</ns3:hr>
          </ns3:TrackPointExtension>
        </extensions>
      </trkpt>
      <trkpt lat="-22.04844533465802669525146484375" lon="166.4486525952816009521484375">
        <ele>912.20001220703125</ele>
        <time>2016-08-12T22:02:47.000Z</time>
        <extensions>
          <ns3:TrackPointExtension>
            <ns3:atemp>17.0</ns3:atemp>
            <ns3:hr>135</ns3:hr>
          </ns3:TrackPointExtension>
        </extensions>
      </trkpt>
      <trkpt lat="-22.04846687614917755126953125" lon="166.44865904934704303741455078125">
        <ele>912</ele>
        <time>2016-08-12T22:02:48.000Z</time>
        <extensions>
          <ns3:TrackPointExtension>
            <ns3:atemp>17.0</ns3:atemp>
            <ns3:hr>135</ns3:hr>
          </ns3:TrackPointExtension>
        </extensions>
      </trkpt>
      <trkpt lat="-22.0484915189445018768310546875" lon="166.44866441376507282257080078125">
        <ele>911.79998779296875</ele>
        <time>2016-08-12T22:02:49.000Z</time>
        <extensions>
          <ns3:TrackPointExtension>
            <ns3:atemp>17.0</ns3:atemp>
            <ns3:hr>135</ns3:hr>
          </ns3:TrackPointExtension>
        </extensions>
      </trkpt>
      <trkpt lat="-22.04851272515952587127685546875" lon="166.44867011345922946929931640625">
        <ele>911.5999755859375</ele>
        <time>2016-08-12T22:02:50.000Z</time>
        <extensions>
          <ns3:TrackPointExtension>
            <ns3:atemp>17.0</ns3:atemp>
            <ns3:hr>135</ns3:hr>
          </ns3:TrackPointExtension>
        </extensions>
      </trkpt>
      <trkpt lat="-22.04853770323097705841064453125" lon="166.44867204129695892333984375">
        <ele>911.5999755859375</ele>
        <time>2016-08-12T22:02:51.000Z</time>
        <extensions>
          <ns3:TrackPointExtension>
            <ns3:atemp>17.0</ns3:atemp>
            <ns3:hr>134</ns3:hr>
          </ns3:TrackPointExtension>
        </extensions>
      </trkpt>
      <trkpt lat="-22.048562429845333099365234375" lon="166.44867531023919582366943359375">
        <ele>912.20001220703125</ele>
        <time>2016-08-12T22:02:52.000Z</time>
        <extensions>
          <ns3:TrackPointExtension>
            <ns3:atemp>17.0</ns3:atemp>
            <ns3:hr>134</ns3:hr>
          </ns3:TrackPointExtension>
        </extensions>
      </trkpt>
      <trkpt lat="-22.048583216965198516845703125" lon="166.44868251867592334747314453125">
        <ele>912.20001220703125</ele>
        <time>2016-08-12T22:02:53.000Z</time>
        <extensions>
          <ns3:TrackPointExtension>
            <ns3:atemp>17.0</ns3:atemp>
            <ns3:hr>134</ns3:hr>
          </ns3:TrackPointExtension>
        </extensions>
      </trkpt>
      <trkpt lat="-22.04860392026603221893310546875" lon="166.4486981928348541259765625">
        <ele>912</ele>
        <time>2016-08-12T22:02:54.000Z</time>
        <extensions>
          <ns3:TrackPointExtension>
            <ns3:atemp>17.0</ns3:atemp>
            <ns3:hr>134</ns3:hr>
          </ns3:TrackPointExtension>
        </extensions>
      </trkpt>
      <trkpt lat="-22.04862420447170734405517578125" lon="166.44871495664119720458984375">
        <ele>912</ele>
        <time>2016-08-12T22:02:55.000Z</time>
        <extensions>
          <ns3:TrackPointExtension>
            <ns3:atemp>17.0</ns3:atemp>
            <ns3:hr>134</ns3:hr>
          </ns3:TrackPointExtension>
        </extensions>
      </trkpt>
      <trkpt lat="-22.04864197410643100738525390625" lon="166.4487312175333499908447265625">
        <ele>912</ele>
        <time>2016-08-12T22:02:56.000Z</time>
        <extensions>
          <ns3:TrackPointExtension>
            <ns3:atemp>17.0</ns3:atemp>
            <ns3:hr>133</ns3:hr>
          </ns3:TrackPointExtension>
        </extensions>
      </trkpt>
      <trkpt lat="-22.04865999519824981689453125" lon="166.44874840043485164642333984375">
        <ele>912</ele>
        <time>2016-08-12T22:02:57.000Z</time>
        <extensions>
          <ns3:TrackPointExtension>
            <ns3:atemp>17.0</ns3:atemp>
            <ns3:hr>133</ns3:hr>
          </ns3:TrackPointExtension>
        </extensions>
      </trkpt>
      <trkpt lat="-22.04867600463330745697021484375" lon="166.4487670920789241790771484375">
        <ele>912.4000244140625</ele>
        <time>2016-08-12T22:02:58.000Z</time>
        <extensions>
          <ns3:TrackPointExtension>
            <ns3:atemp>17.0</ns3:atemp>
            <ns3:hr>133</ns3:hr>
          </ns3:TrackPointExtension>
        </extensions>
      </trkpt>
      <trkpt lat="-22.04868891276419162750244140625" lon="166.44878863357007503509521484375">
        <ele>912.4000244140625</ele>
        <time>2016-08-12T22:02:59.000Z</time>
        <extensions>
          <ns3:TrackPointExtension>
            <ns3:atemp>17.0</ns3:atemp>
            <ns3:hr>133</ns3:hr>
          </ns3:TrackPointExtension>
        </extensions>
      </trkpt>
      <trkpt lat="-22.048699893057346343994140625" lon="166.44881243817508220672607421875">
        <ele>912.5999755859375</ele>
        <time>2016-08-12T22:03:00.000Z</time>
        <extensions>
          <ns3:TrackPointExtension>
            <ns3:atemp>17.0</ns3:atemp>
            <ns3:hr>133</ns3:hr>
          </ns3:TrackPointExtension>
        </extensions>
      </trkpt>
      <trkpt lat="-22.04871204681694507598876953125" lon="166.44883875735104084014892578125">
        <ele>912.5999755859375</ele>
        <time>2016-08-12T22:03:01.000Z</time>
        <extensions>
          <ns3:TrackPointExtension>
            <ns3:atemp>17.0</ns3:atemp>
            <ns3:hr>133</ns3:hr>
          </ns3:TrackPointExtension>
        </extensions>
      </trkpt>
      <trkpt lat="-22.0487228594720363616943359375" lon="166.4488639868795871734619140625">
        <ele>912.20001220703125</ele>
        <time>2016-08-12T22:03:02.000Z</time>
        <extensions>
          <ns3:TrackPointExtension>
            <ns3:atemp>17.0</ns3:atemp>
            <ns3:hr>133</ns3:hr>
          </ns3:TrackPointExtension>
        </extensions>
      </trkpt>
      <trkpt lat="-22.04872570931911468505859375" lon="166.44889072515070438385009765625">
        <ele>912</ele>
        <time>2016-08-12T22:03:03.000Z</time>
        <extensions>
          <ns3:TrackPointExtension>
            <ns3:atemp>17.0</ns3:atemp>
            <ns3:hr>133</ns3:hr>
          </ns3:TrackPointExtension>
        </extensions>
      </trkpt>
      <trkpt lat="-22.04872629605233669281005859375" lon="166.4489189721643924713134765625">
        <ele>912</ele>
        <time>2016-08-12T22:03:04.000Z</time>
        <extensions>
          <ns3:TrackPointExtension>
            <ns3:atemp>17.0</ns3:atemp>
            <ns3:hr>132</ns3:hr>
          </ns3:TrackPointExtension>
        </extensions>
      </trkpt>
      <trkpt lat="-22.04873316921293735504150390625" lon="166.44894696772098541259765625">
        <ele>911.79998779296875</ele>
        <time>2016-08-12T22:03:05.000Z</time>
        <extensions>
          <ns3:TrackPointExtension>
            <ns3:atemp>17.0</ns3:atemp>
            <ns3:hr>132</ns3:hr>
          </ns3:TrackPointExtension>
        </extensions>
      </trkpt>
      <trkpt lat="-22.04874456860125064849853515625" lon="166.44897471182048320770263671875">
        <ele>911.5999755859375</ele>
        <time>2016-08-12T22:03:06.000Z</time>
        <extensions>
          <ns3:TrackPointExtension>
            <ns3:atemp>17.0</ns3:atemp>
            <ns3:hr>132</ns3:hr>
          </ns3:TrackPointExtension>
        </extensions>
      </trkpt>
      <trkpt lat="-22.04875647090375423431396484375" lon="166.44900153391063213348388671875">
        <ele>911.20001220703125</ele>
        <time>2016-08-12T22:03:07.000Z</time>
        <extensions>
          <ns3:TrackPointExtension>
            <ns3:atemp>17.0</ns3:atemp>
            <ns3:hr>132</ns3:hr>
          </ns3:TrackPointExtension>
        </extensions>
      </trkpt>
      <trkpt lat="-22.0487721450626850128173828125" lon="166.44902609288692474365234375">
        <ele>911.20001220703125</ele>
        <time>2016-08-12T22:03:08.000Z</time>
        <extensions>
          <ns3:TrackPointExtension>
            <ns3:atemp>17.0</ns3:atemp>
            <ns3:hr>132</ns3:hr>
          </ns3:TrackPointExtension>
        </extensions>
      </trkpt>
      <trkpt lat="-22.04878731630742549896240234375" lon="166.44905249588191509246826171875">
        <ele>911.5999755859375</ele>
        <time>2016-08-12T22:03:09.000Z</time>
        <extensions>
          <ns3:TrackPointExtension>
            <ns3:atemp>17.0</ns3:atemp>
            <ns3:hr>132</ns3:hr>
          </ns3:TrackPointExtension>
        </extensions>
      </trkpt>
      <trkpt lat="-22.04879988916218280792236328125" lon="166.4490772224962711334228515625">
        <ele>911.4000244140625</ele>
        <time>2016-08-12T22:03:10.000Z</time>
        <extensions>
          <ns3:TrackPointExtension>
            <ns3:atemp>17.0</ns3:atemp>
            <ns3:hr>132</ns3:hr>
          </ns3:TrackPointExtension>
        </extensions>
      </trkpt>
      <trkpt lat="-22.0488110370934009552001953125" lon="166.44910261966288089752197265625">
        <ele>911.20001220703125</ele>
        <time>2016-08-12T22:03:11.000Z</time>
        <extensions>
          <ns3:TrackPointExtension>
            <ns3:atemp>17.0</ns3:atemp>
            <ns3:hr>132</ns3:hr>
          </ns3:TrackPointExtension>
        </extensions>
      </trkpt>
      <trkpt lat="-22.0488231070339679718017578125" lon="166.4491288550198078155517578125">
        <ele>911.20001220703125</ele>
        <time>2016-08-12T22:03:12.000Z</time>
        <extensions>
          <ns3:TrackPointExtension>
            <ns3:atemp>17.0</ns3:atemp>
            <ns3:hr>132</ns3:hr>
          </ns3:TrackPointExtension>
        </extensions>
      </trkpt>
      <trkpt lat="-22.04883542843163013458251953125" lon="166.449151821434497833251953125">
        <ele>910.5999755859375</ele>
        <time>2016-08-12T22:03:13.000Z</time>
        <extensions>
          <ns3:TrackPointExtension>
            <ns3:atemp>17.0</ns3:atemp>
            <ns3:hr>132</ns3:hr>
          </ns3:TrackPointExtension>
        </extensions>
      </trkpt>
      <trkpt lat="-22.04885101877152919769287109375" lon="166.44917034544050693511962890625">
        <ele>910.4000244140625</ele>
        <time>2016-08-12T22:03:14.000Z</time>
        <extensions>
          <ns3:TrackPointExtension>
            <ns3:atemp>17.0</ns3:atemp>
            <ns3:hr>132</ns3:hr>
          </ns3:TrackPointExtension>
        </extensions>
      </trkpt>
      <trkpt lat="-22.0488670282065868377685546875" lon="166.449192054569721221923828125">
        <ele>910.4000244140625</ele>
        <time>2016-08-12T22:03:15.000Z</time>
        <extensions>
          <ns3:TrackPointExtension>
            <ns3:atemp>17.0</ns3:atemp>
            <ns3:hr>131</ns3:hr>
          </ns3:TrackPointExtension>
        </extensions>
      </trkpt>
      <trkpt lat="-22.0488832890987396240234375" lon="166.44921259023249149322509765625">
        <ele>909.79998779296875</ele>
        <time>2016-08-12T22:03:16.000Z</time>
        <extensions>
          <ns3:TrackPointExtension>
            <ns3:atemp>17.0</ns3:atemp>
            <ns3:hr>131</ns3:hr>
          </ns3:TrackPointExtension>
        </extensions>
      </trkpt>
      <trkpt lat="-22.04889376647770404815673828125" lon="166.44923840649425983428955078125">
        <ele>909</ele>
        <time>2016-08-12T22:03:17.000Z</time>
        <extensions>
          <ns3:TrackPointExtension>
            <ns3:atemp>17.0</ns3:atemp>
            <ns3:hr>131</ns3:hr>
          </ns3:TrackPointExtension>
        </extensions>
      </trkpt>
      <trkpt lat="-22.04890751279890537261962890625" lon="166.4492641389369964599609375">
        <ele>908.4000244140625</ele>
        <time>2016-08-12T22:03:18.000Z</time>
        <extensions>
          <ns3:TrackPointExtension>
            <ns3:atemp>17.0</ns3:atemp>
            <ns3:hr>131</ns3:hr>
          </ns3:TrackPointExtension>
        </extensions>
      </trkpt>
      <trkpt lat="-22.04892142675817012786865234375" lon="166.4492817409336566925048828125">
        <ele>907.79998779296875</ele>
        <time>2016-08-12T22:03:19.000Z</time>
        <extensions>
          <ns3:TrackPointExtension>
            <ns3:atemp>17.0</ns3:atemp>
            <ns3:hr>130</ns3:hr>
          </ns3:TrackPointExtension>
        </extensions>
      </trkpt>
      <trkpt lat="-22.0489397831261157989501953125" lon="166.44929741509258747100830078125">
        <ele>907.4000244140625</ele>
        <time>2016-08-12T22:03:20.000Z</time>
        <extensions>
          <ns3:TrackPointExtension>
            <ns3:atemp>17.0</ns3:atemp>
            <ns3:hr>130</ns3:hr>
          </ns3:TrackPointExtension>
        </extensions>
      </trkpt>
      <trkpt lat="-22.0489597320556640625" lon="166.44931283779442310333251953125">
        <ele>907.4000244140625</ele>
        <time>2016-08-12T22:03:21.000Z</time>
        <extensions>
          <ns3:TrackPointExtension>
            <ns3:atemp>17.0</ns3:atemp>
            <ns3:hr>130</ns3:hr>
          </ns3:TrackPointExtension>
        </extensions>
      </trkpt>
      <trkpt lat="-22.04898512922227382659912109375" lon="166.44932381808757781982421875">
        <ele>906.79998779296875</ele>
        <time>2016-08-12T22:03:22.000Z</time>
        <extensions>
          <ns3:TrackPointExtension>
            <ns3:atemp>17.0</ns3:atemp>
            <ns3:hr>130</ns3:hr>
          </ns3:TrackPointExtension>
        </extensions>
      </trkpt>
      <trkpt lat="-22.049014382064342498779296875" lon="166.44933060742914676666259765625">
        <ele>906.4000244140625</ele>
        <time>2016-08-12T22:03:23.000Z</time>
        <extensions>
          <ns3:TrackPointExtension>
            <ns3:atemp>17.0</ns3:atemp>
            <ns3:hr>130</ns3:hr>
          </ns3:TrackPointExtension>
        </extensions>
      </trkpt>
      <trkpt lat="-22.04904279671609401702880859375" lon="166.44933597184717655181884765625">
        <ele>906.20001220703125</ele>
        <time>2016-08-12T22:03:24.000Z</time>
        <extensions>
          <ns3:TrackPointExtension>
            <ns3:atemp>17.0</ns3:atemp>
            <ns3:hr>130</ns3:hr>
          </ns3:TrackPointExtension>
        </extensions>
      </trkpt>
      <trkpt lat="-22.04906945116817951202392578125" lon="166.44934066571295261383056640625">
        <ele>905.5999755859375</ele>
        <time>2016-08-12T22:03:25.000Z</time>
        <extensions>
          <ns3:TrackPointExtension>
            <ns3:atemp>17.0</ns3:atemp>
            <ns3:hr>130</ns3:hr>
          </ns3:TrackPointExtension>
        </extensions>
      </trkpt>
      <trkpt lat="-22.0490940101444721221923828125" lon="166.44934653304517269134521484375">
        <ele>905.5999755859375</ele>
        <time>2016-08-12T22:03:26.000Z</time>
        <extensions>
          <ns3:TrackPointExtension>
            <ns3:atemp>17.0</ns3:atemp>
            <ns3:hr>130</ns3:hr>
          </ns3:TrackPointExtension>
        </extensions>
      </trkpt>
      <trkpt lat="-22.0491168089210987091064453125" lon="166.44935407675802707672119140625">
        <ele>905.4000244140625</ele>
        <time>2016-08-12T22:03:27.000Z</time>
        <extensions>
          <ns3:TrackPointExtension>
            <ns3:atemp>17.0</ns3:atemp>
            <ns3:hr>129</ns3:hr>
          </ns3:TrackPointExtension>
        </extensions>
      </trkpt>
      <trkpt lat="-22.04914002679288387298583984375" lon="166.44936044700443744659423828125">
        <ele>904.79998779296875</ele>
        <time>2016-08-12T22:03:28.000Z</time>
        <extensions>
          <ns3:TrackPointExtension>
            <ns3:atemp>17.0</ns3:atemp>
            <ns3:hr>130</ns3:hr>
          </ns3:TrackPointExtension>
        </extensions>
      </trkpt>
      <trkpt lat="-22.04916265793144702911376953125" lon="166.44936949945986270904541015625">
        <ele>904.20001220703125</ele>
        <time>2016-08-12T22:03:29.000Z</time>
        <extensions>
          <ns3:TrackPointExtension>
            <ns3:atemp>17.0</ns3:atemp>
            <ns3:hr>130</ns3:hr>
          </ns3:TrackPointExtension>
        </extensions>
      </trkpt>
      <trkpt lat="-22.049180679023265838623046875" lon="166.4493786357343196868896484375">
        <ele>904.4000244140625</ele>
        <time>2016-08-12T22:03:30.000Z</time>
        <extensions>
          <ns3:TrackPointExtension>
            <ns3:atemp>17.0</ns3:atemp>
            <ns3:hr>129</ns3:hr>
          </ns3:TrackPointExtension>
        </extensions>
      </trkpt>
      <trkpt lat="-22.0491989515721797943115234375" lon="166.44938861019909381866455078125">
        <ele>904.20001220703125</ele>
        <time>2016-08-12T22:03:31.000Z</time>
        <extensions>
          <ns3:TrackPointExtension>
            <ns3:atemp>17.0</ns3:atemp>
            <ns3:hr>130</ns3:hr>
          </ns3:TrackPointExtension>
        </extensions>
      </trkpt>
      <trkpt lat="-22.04921261407434940338134765625" lon="166.449404619634151458740234375">
        <ele>903.79998779296875</ele>
        <time>2016-08-12T22:03:32.000Z</time>
        <extensions>
          <ns3:TrackPointExtension>
            <ns3:atemp>17.0</ns3:atemp>
            <ns3:hr>129</ns3:hr>
          </ns3:TrackPointExtension>
        </extensions>
      </trkpt>
      <trkpt lat="-22.04922468401491641998291015625" lon="166.44942230544984340667724609375">
        <ele>903.79998779296875</ele>
        <time>2016-08-12T22:03:33.000Z</time>
        <extensions>
          <ns3:TrackPointExtension>
            <ns3:atemp>17.0</ns3:atemp>
            <ns3:hr>129</ns3:hr>
          </ns3:TrackPointExtension>
        </extensions>
      </trkpt>
      <trkpt lat="-22.04924044199287891387939453125" lon="166.44943781197071075439453125">
        <ele>903.79998779296875</ele>
        <time>2016-08-12T22:03:34.000Z</time>
        <extensions>
          <ns3:TrackPointExtension>
            <ns3:atemp>17.0</ns3:atemp>
            <ns3:hr>130</ns3:hr>
          </ns3:TrackPointExtension>
        </extensions>
      </trkpt>
      <trkpt lat="-22.0492561161518096923828125" lon="166.44945298321545124053955078125">
        <ele>903.4000244140625</ele>
        <time>2016-08-12T22:03:35.000Z</time>
        <extensions>
          <ns3:TrackPointExtension>
            <ns3:atemp>17.0</ns3:atemp>
            <ns3:hr>129</ns3:hr>
          </ns3:TrackPointExtension>
        </extensions>
      </trkpt>
      <trkpt lat="-22.04927296377718448638916015625" lon="166.44947008229792118072509765625">
        <ele>903.20001220703125</ele>
        <time>2016-08-12T22:03:36.000Z</time>
        <extensions>
          <ns3:TrackPointExtension>
            <ns3:atemp>17.0</ns3:atemp>
            <ns3:hr>130</ns3:hr>
          </ns3:TrackPointExtension>
        </extensions>
      </trkpt>
      <trkpt lat="-22.049290649592876434326171875" lon="166.44948751665651798248291015625">
        <ele>903.4000244140625</ele>
        <time>2016-08-12T22:03:37.000Z</time>
        <extensions>
          <ns3:TrackPointExtension>
            <ns3:atemp>17.0</ns3:atemp>
            <ns3:hr>129</ns3:hr>
          </ns3:TrackPointExtension>
        </extensions>
      </trkpt>
      <trkpt lat="-22.04930984415113925933837890625" lon="166.44950344227254390716552734375">
        <ele>902.79998779296875</ele>
        <time>2016-08-12T22:03:38.000Z</time>
        <extensions>
          <ns3:TrackPointExtension>
            <ns3:atemp>17.0</ns3:atemp>
            <ns3:hr>129</ns3:hr>
          </ns3:TrackPointExtension>
        </extensions>
      </trkpt>
      <trkpt lat="-22.049328200519084930419921875" lon="166.44951819442212581634521484375">
        <ele>902.79998779296875</ele>
        <time>2016-08-12T22:03:39.000Z</time>
        <extensions>
          <ns3:TrackPointExtension>
            <ns3:atemp>18.0</ns3:atemp>
            <ns3:hr>129</ns3:hr>
          </ns3:TrackPointExtension>
        </extensions>
      </trkpt>
      <trkpt lat="-22.04934638924896717071533203125" lon="166.44953747279942035675048828125">
        <ele>902.5999755859375</ele>
        <time>2016-08-12T22:03:40.000Z</time>
        <extensions>
          <ns3:TrackPointExtension>
            <ns3:atemp>18.0</ns3:atemp>
            <ns3:hr>129</ns3:hr>
          </ns3:TrackPointExtension>
        </extensions>
      </trkpt>
      <trkpt lat="-22.04936164431273937225341796875" lon="166.44956127740442752838134765625">
        <ele>902</ele>
        <time>2016-08-12T22:03:41.000Z</time>
        <extensions>
          <ns3:TrackPointExtension>
            <ns3:atemp>18.0</ns3:atemp>
            <ns3:hr>129</ns3:hr>
          </ns3:TrackPointExtension>
        </extensions>
      </trkpt>
      <trkpt lat="-22.0493749715387821197509765625" lon="166.44958759658038616180419921875">
        <ele>901.79998779296875</ele>
        <time>2016-08-12T22:03:42.000Z</time>
        <extensions>
          <ns3:TrackPointExtension>
            <ns3:atemp>18.0</ns3:atemp>
            <ns3:hr>129</ns3:hr>
          </ns3:TrackPointExtension>
        </extensions>
      </trkpt>
      <trkpt lat="-22.04939181916415691375732421875" lon="166.4496082998812198638916015625">
        <ele>901.79998779296875</ele>
        <time>2016-08-12T22:03:43.000Z</time>
        <extensions>
          <ns3:TrackPointExtension>
            <ns3:atemp>18.0</ns3:atemp>
            <ns3:hr>129</ns3:hr>
          </ns3:TrackPointExtension>
        </extensions>
      </trkpt>
      <trkpt lat="-22.0494078285992145538330078125" lon="166.449623890221118927001953125">
        <ele>902</ele>
        <time>2016-08-12T22:03:44.000Z</time>
        <extensions>
          <ns3:TrackPointExtension>
            <ns3:atemp>18.0</ns3:atemp>
            <ns3:hr>129</ns3:hr>
          </ns3:TrackPointExtension>
        </extensions>
      </trkpt>
      <trkpt lat="-22.04942618496716022491455078125" lon="166.4496396481990814208984375">
        <ele>902</ele>
        <time>2016-08-12T22:03:45.000Z</time>
        <extensions>
          <ns3:TrackPointExtension>
            <ns3:atemp>18.0</ns3:atemp>
            <ns3:hr>129</ns3:hr>
          </ns3:TrackPointExtension>
        </extensions>
      </trkpt>
      <trkpt lat="-22.04944856464862823486328125" lon="166.4496545679867267608642578125">
        <ele>901.79998779296875</ele>
        <time>2016-08-12T22:03:46.000Z</time>
        <extensions>
          <ns3:TrackPointExtension>
            <ns3:atemp>18.0</ns3:atemp>
            <ns3:hr>129</ns3:hr>
          </ns3:TrackPointExtension>
        </extensions>
      </trkpt>
      <trkpt lat="-22.04947345890104770660400390625" lon="166.44966286607086658477783203125">
        <ele>901.79998779296875</ele>
        <time>2016-08-12T22:03:47.000Z</time>
        <extensions>
          <ns3:TrackPointExtension>
            <ns3:atemp>18.0</ns3:atemp>
            <ns3:hr>129</ns3:hr>
          </ns3:TrackPointExtension>
        </extensions>
      </trkpt>
      <trkpt lat="-22.049496509134769439697265625" lon="166.44966940395534038543701171875">
        <ele>901.4000244140625</ele>
        <time>2016-08-12T22:03:48.000Z</time>
        <extensions>
          <ns3:TrackPointExtension>
            <ns3:atemp>18.0</ns3:atemp>
            <ns3:hr>129</ns3:hr>
          </ns3:TrackPointExtension>
        </extensions>
      </trkpt>
      <trkpt lat="-22.0495151169598102569580078125" lon="166.4496813900768756866455078125">
        <ele>901</ele>
        <time>2016-08-12T22:03:49.000Z</time>
        <extensions>
          <ns3:TrackPointExtension>
            <ns3:atemp>18.0</ns3:atemp>
            <ns3:hr>128</ns3:hr>
          </ns3:TrackPointExtension>
        </extensions>
      </trkpt>
      <trkpt lat="-22.04953431151807308197021484375" lon="166.44970066845417022705078125">
        <ele>900.79998779296875</ele>
        <time>2016-08-12T22:03:50.000Z</time>
        <extensions>
          <ns3:TrackPointExtension>
            <ns3:atemp>18.0</ns3:atemp>
            <ns3:hr>128</ns3:hr>
          </ns3:TrackPointExtension>
        </extensions>
      </trkpt>
      <trkpt lat="-22.04955643974244594573974609375" lon="166.44972086884081363677978515625">
        <ele>900.79998779296875</ele>
        <time>2016-08-12T22:03:51.000Z</time>
        <extensions>
          <ns3:TrackPointExtension>
            <ns3:atemp>18.0</ns3:atemp>
            <ns3:hr>128</ns3:hr>
          </ns3:TrackPointExtension>
        </extensions>
      </trkpt>
      <trkpt lat="-22.04957638867199420928955078125" lon="166.44973662681877613067626953125">
        <ele>900</ele>
        <time>2016-08-12T22:03:52.000Z</time>
        <extensions>
          <ns3:TrackPointExtension>
            <ns3:atemp>18.0</ns3:atemp>
            <ns3:hr>129</ns3:hr>
          </ns3:TrackPointExtension>
        </extensions>
      </trkpt>
      <trkpt lat="-22.0495949126780033111572265625" lon="166.4497528038918972015380859375">
        <ele>899.5999755859375</ele>
        <time>2016-08-12T22:03:53.000Z</time>
        <extensions>
          <ns3:TrackPointExtension>
            <ns3:atemp>18.0</ns3:atemp>
            <ns3:hr>129</ns3:hr>
          </ns3:TrackPointExtension>
        </extensions>
      </trkpt>
      <trkpt lat="-22.04961343668401241302490234375" lon="166.4497697353363037109375">
        <ele>900</ele>
        <time>2016-08-12T22:03:54.000Z</time>
        <extensions>
          <ns3:TrackPointExtension>
            <ns3:atemp>18.0</ns3:atemp>
            <ns3:hr>128</ns3:hr>
          </ns3:TrackPointExtension>
        </extensions>
      </trkpt>
      <trkpt lat="-22.04963372088968753814697265625" lon="166.44978540949523448944091796875">
        <ele>900.4000244140625</ele>
        <time>2016-08-12T22:03:55.000Z</time>
        <extensions>
          <ns3:TrackPointExtension>
            <ns3:atemp>18.0</ns3:atemp>
            <ns3:hr>129</ns3:hr>
          </ns3:TrackPointExtension>
        </extensions>
      </trkpt>
      <trkpt lat="-22.04965702258050441741943359375" lon="166.449801921844482421875">
        <ele>899.79998779296875</ele>
        <time>2016-08-12T22:03:56.000Z</time>
        <extensions>
          <ns3:TrackPointExtension>
            <ns3:atemp>18.0</ns3:atemp>
            <ns3:hr>129</ns3:hr>
          </ns3:TrackPointExtension>
        </extensions>
      </trkpt>
      <trkpt lat="-22.04985223710536956787109375" lon="166.44990577362477779388427734375">
        <ele>898.79998779296875</ele>
        <time>2016-08-12T22:04:05.000Z</time>
        <extensions>
          <ns3:TrackPointExtension>
            <ns3:atemp>18.0</ns3:atemp>
          </ns3:TrackPointExtension>
        </extensions>
      </trkpt>
      <trkpt lat="-22.0499962382018566131591796875" lon="166.4500699751079082489013671875">
        <ele>897.4000244140625</ele>
        <time>2016-08-12T22:04:13.000Z</time>
        <extensions>
          <ns3:TrackPointExtension>
            <ns3:atemp>18.0</ns3:atemp>
            <ns3:hr>130</ns3:hr>
          </ns3:TrackPointExtension>
        </extensions>
      </trkpt>
      <trkpt lat="-22.0500984974205493927001953125" lon="166.4502560533583164215087890625">
        <ele>897.20001220703125</ele>
        <time>2016-08-12T22:04:21.000Z</time>
        <extensions>
          <ns3:TrackPointExtension>
            <ns3:atemp>18.0</ns3:atemp>
            <ns3:hr>129</ns3:hr>
          </ns3:TrackPointExtension>
        </extensions>
      </trkpt>
      <trkpt lat="-22.0501112379133701324462890625" lon="166.45033626817166805267333984375">
        <ele>896.5999755859375</ele>
        <time>2016-08-12T22:04:24.000Z</time>
        <extensions>
          <ns3:TrackPointExtension>
            <ns3:atemp>18.0</ns3:atemp>
            <ns3:hr>130</ns3:hr>
          </ns3:TrackPointExtension>
        </extensions>
      </trkpt>
      <trkpt lat="-22.0501179434359073638916015625" lon="166.45036476664245128631591796875">
        <ele>896.20001220703125</ele>
        <time>2016-08-12T22:04:25.000Z</time>
        <extensions>
          <ns3:TrackPointExtension>
            <ns3:atemp>18.0</ns3:atemp>
            <ns3:hr>130</ns3:hr>
          </ns3:TrackPointExtension>
        </extensions>
      </trkpt>
      <trkpt lat="-22.0501283369958400726318359375" lon="166.45039175637066364288330078125">
        <ele>895.79998779296875</ele>
        <time>2016-08-12T22:04:26.000Z</time>
        <extensions>
          <ns3:TrackPointExtension>
            <ns3:atemp>18.0</ns3:atemp>
            <ns3:hr>130</ns3:hr>
          </ns3:TrackPointExtension>
        </extensions>
      </trkpt>
      <trkpt lat="-22.05014283768832683563232421875" lon="166.45041623152792453765869140625">
        <ele>895.5999755859375</ele>
        <time>2016-08-12T22:04:27.000Z</time>
        <extensions>
          <ns3:TrackPointExtension>
            <ns3:atemp>18.0</ns3:atemp>
            <ns3:hr>129</ns3:hr>
          </ns3:TrackPointExtension>
        </extensions>
      </trkpt>
      <trkpt lat="-22.05015993677079677581787109375" lon="166.4504371024668216705322265625">
        <ele>895.20001220703125</ele>
        <time>2016-08-12T22:04:28.000Z</time>
        <extensions>
          <ns3:TrackPointExtension>
            <ns3:atemp>18.0</ns3:atemp>
            <ns3:hr>130</ns3:hr>
          </ns3:TrackPointExtension>
        </extensions>
      </trkpt>
      <trkpt lat="-22.05017804168164730072021484375" lon="166.45045612938702106475830078125">
        <ele>895.20001220703125</ele>
        <time>2016-08-12T22:04:29.000Z</time>
        <extensions>
          <ns3:TrackPointExtension>
            <ns3:atemp>18.0</ns3:atemp>
            <ns3:hr>129</ns3:hr>
          </ns3:TrackPointExtension>
        </extensions>
      </trkpt>
      <trkpt lat="-22.05019447021186351776123046875" lon="166.45047808997333049774169921875">
        <ele>895.20001220703125</ele>
        <time>2016-08-12T22:04:30.000Z</time>
        <extensions>
          <ns3:TrackPointExtension>
            <ns3:atemp>18.0</ns3:atemp>
            <ns3:hr>129</ns3:hr>
          </ns3:TrackPointExtension>
        </extensions>
      </trkpt>
      <trkpt lat="-22.05021106638014316558837890625" lon="166.45049502141773700714111328125">
        <ele>894.79998779296875</ele>
        <time>2016-08-12T22:04:31.000Z</time>
        <extensions>
          <ns3:TrackPointExtension>
            <ns3:atemp>18.0</ns3:atemp>
            <ns3:hr>129</ns3:hr>
          </ns3:TrackPointExtension>
        </extensions>
      </trkpt>
      <trkpt lat="-22.05022430978715419769287109375" lon="166.4505125395953655242919921875">
        <ele>894.4000244140625</ele>
        <time>2016-08-12T22:04:32.000Z</time>
        <extensions>
          <ns3:TrackPointExtension>
            <ns3:atemp>18.0</ns3:atemp>
            <ns3:hr>129</ns3:hr>
          </ns3:TrackPointExtension>
        </extensions>
      </trkpt>
      <trkpt lat="-22.05024006776511669158935546875" lon="166.45053173415362834930419921875">
        <ele>894.4000244140625</ele>
        <time>2016-08-12T22:04:33.000Z</time>
        <extensions>
          <ns3:TrackPointExtension>
            <ns3:atemp>18.0</ns3:atemp>
            <ns3:hr>129</ns3:hr>
          </ns3:TrackPointExtension>
        </extensions>
      </trkpt>
      <trkpt lat="-22.05025247298181056976318359375" lon="166.4505467377603054046630859375">
        <ele>894</ele>
        <time>2016-08-12T22:04:34.000Z</time>
        <extensions>
          <ns3:TrackPointExtension>
            <ns3:atemp>18.0</ns3:atemp>
            <ns3:hr>129</ns3:hr>
          </ns3:TrackPointExtension>
        </extensions>
      </trkpt>
      <trkpt lat="-22.0502699911594390869140625" lon="166.450567357242107391357421875">
        <ele>893.79998779296875</ele>
        <time>2016-08-12T22:04:35.000Z</time>
        <extensions>
          <ns3:TrackPointExtension>
            <ns3:atemp>18.0</ns3:atemp>
            <ns3:hr>129</ns3:hr>
          </ns3:TrackPointExtension>
        </extensions>
      </trkpt>
      <trkpt lat="-22.0502875931560993194580078125" lon="166.4505849592387676239013671875">
        <ele>893.5999755859375</ele>
        <time>2016-08-12T22:04:36.000Z</time>
        <extensions>
          <ns3:TrackPointExtension>
            <ns3:atemp>18.0</ns3:atemp>
            <ns3:hr>129</ns3:hr>
          </ns3:TrackPointExtension>
        </extensions>
      </trkpt>
      <trkpt lat="-22.05030343495309352874755859375" lon="166.4506007172167301177978515625">
        <ele>893</ele>
        <time>2016-08-12T22:04:37.000Z</time>
        <extensions>
          <ns3:TrackPointExtension>
            <ns3:atemp>18.0</ns3:atemp>
            <ns3:hr>129</ns3:hr>
          </ns3:TrackPointExtension>
        </extensions>
      </trkpt>
      <trkpt lat="-22.050310559570789337158203125" lon="166.45061991177499294281005859375">
        <ele>892.4000244140625</ele>
        <time>2016-08-12T22:04:38.000Z</time>
        <extensions>
          <ns3:TrackPointExtension>
            <ns3:atemp>18.0</ns3:atemp>
            <ns3:hr>129</ns3:hr>
          </ns3:TrackPointExtension>
        </extensions>
      </trkpt>
      <trkpt lat="-22.05031692981719970703125" lon="166.4506419561803340911865234375">
        <ele>892.79998779296875</ele>
        <time>2016-08-12T22:04:39.000Z</time>
        <extensions>
          <ns3:TrackPointExtension>
            <ns3:atemp>18.0</ns3:atemp>
            <ns3:hr>129</ns3:hr>
          </ns3:TrackPointExtension>
        </extensions>
      </trkpt>
      <trkpt lat="-22.0503281615674495697021484375" lon="166.450662910938262939453125">
        <ele>892.79998779296875</ele>
        <time>2016-08-12T22:04:40.000Z</time>
        <extensions>
          <ns3:TrackPointExtension>
            <ns3:atemp>18.0</ns3:atemp>
            <ns3:hr>129</ns3:hr>
          </ns3:TrackPointExtension>
        </extensions>
      </trkpt>
      <trkpt lat="-22.05034065060317516326904296875" lon="166.45068495534360408782958984375">
        <ele>892.4000244140625</ele>
        <time>2016-08-12T22:04:41.000Z</time>
        <extensions>
          <ns3:TrackPointExtension>
            <ns3:atemp>18.0</ns3:atemp>
            <ns3:hr>128</ns3:hr>
          </ns3:TrackPointExtension>
        </extensions>
      </trkpt>
      <trkpt lat="-22.05035724677145481109619140625" lon="166.45070591010153293609619140625">
        <ele>892</ele>
        <time>2016-08-12T22:04:42.000Z</time>
        <extensions>
          <ns3:TrackPointExtension>
            <ns3:atemp>18.0</ns3:atemp>
            <ns3:hr>129</ns3:hr>
          </ns3:TrackPointExtension>
        </extensions>
      </trkpt>
      <trkpt lat="-22.0503730885684490203857421875" lon="166.450728289783000946044921875">
        <ele>891.79998779296875</ele>
        <time>2016-08-12T22:04:43.000Z</time>
        <extensions>
          <ns3:TrackPointExtension>
            <ns3:atemp>18.0</ns3:atemp>
            <ns3:hr>128</ns3:hr>
          </ns3:TrackPointExtension>
        </extensions>
      </trkpt>
      <trkpt lat="-22.05038188956677913665771484375" lon="166.45075217820703983306884765625">
        <ele>891.5999755859375</ele>
        <time>2016-08-12T22:04:44.000Z</time>
        <extensions>
          <ns3:TrackPointExtension>
            <ns3:atemp>18.0</ns3:atemp>
            <ns3:hr>129</ns3:hr>
          </ns3:TrackPointExtension>
        </extensions>
      </trkpt>
      <trkpt lat="-22.05038993619382381439208984375" lon="166.45077413879334926605224609375">
        <ele>891.20001220703125</ele>
        <time>2016-08-12T22:04:45.000Z</time>
        <extensions>
          <ns3:TrackPointExtension>
            <ns3:atemp>18.0</ns3:atemp>
            <ns3:hr>129</ns3:hr>
          </ns3:TrackPointExtension>
        </extensions>
      </trkpt>
      <trkpt lat="-22.05039932392537593841552734375" lon="166.45079760812222957611083984375">
        <ele>891.20001220703125</ele>
        <time>2016-08-12T22:04:46.000Z</time>
        <extensions>
          <ns3:TrackPointExtension>
            <ns3:atemp>18.0</ns3:atemp>
            <ns3:hr>129</ns3:hr>
          </ns3:TrackPointExtension>
        </extensions>
      </trkpt>
      <trkpt lat="-22.0504163391888141632080078125" lon="166.45082090981304645538330078125">
        <ele>890.79998779296875</ele>
        <time>2016-08-12T22:04:47.000Z</time>
        <extensions>
          <ns3:TrackPointExtension>
            <ns3:atemp>18.0</ns3:atemp>
            <ns3:hr>129</ns3:hr>
          </ns3:TrackPointExtension>
        </extensions>
      </trkpt>
      <trkpt lat="-22.0504295825958251953125" lon="166.4508411101996898651123046875">
        <ele>890</ele>
        <time>2016-08-12T22:04:48.000Z</time>
        <extensions>
          <ns3:TrackPointExtension>
            <ns3:atemp>18.0</ns3:atemp>
            <ns3:hr>129</ns3:hr>
          </ns3:TrackPointExtension>
        </extensions>
      </trkpt>
      <trkpt lat="-22.05044693313539028167724609375" lon="166.45085938274860382080078125">
        <ele>889.4000244140625</ele>
        <time>2016-08-12T22:04:49.000Z</time>
        <extensions>
          <ns3:TrackPointExtension>
            <ns3:atemp>18.0</ns3:atemp>
            <ns3:hr>129</ns3:hr>
          </ns3:TrackPointExtension>
        </extensions>
      </trkpt>
      <trkpt lat="-22.0504662953317165374755859375" lon="166.45087706856429576873779296875">
        <ele>889.4000244140625</ele>
        <time>2016-08-12T22:04:50.000Z</time>
        <extensions>
          <ns3:TrackPointExtension>
            <ns3:atemp>18.0</ns3:atemp>
            <ns3:hr>129</ns3:hr>
          </ns3:TrackPointExtension>
        </extensions>
      </trkpt>
      <trkpt lat="-22.05048934556543827056884765625" lon="166.45089115016162395477294921875">
        <ele>889.20001220703125</ele>
        <time>2016-08-12T22:04:51.000Z</time>
        <extensions>
          <ns3:TrackPointExtension>
            <ns3:atemp>18.0</ns3:atemp>
            <ns3:hr>129</ns3:hr>
          </ns3:TrackPointExtension>
        </extensions>
      </trkpt>
      <trkpt lat="-22.050507366657257080078125" lon="166.4509071595966815948486328125">
        <ele>888.5999755859375</ele>
        <time>2016-08-12T22:04:52.000Z</time>
        <extensions>
          <ns3:TrackPointExtension>
            <ns3:atemp>18.0</ns3:atemp>
            <ns3:hr>129</ns3:hr>
          </ns3:TrackPointExtension>
        </extensions>
      </trkpt>
      <trkpt lat="-22.05052555538713932037353515625" lon="166.4509249292314052581787109375">
        <ele>888.5999755859375</ele>
        <time>2016-08-12T22:04:53.000Z</time>
        <extensions>
          <ns3:TrackPointExtension>
            <ns3:atemp>18.0</ns3:atemp>
            <ns3:hr>129</ns3:hr>
          </ns3:TrackPointExtension>
        </extensions>
      </trkpt>
      <trkpt lat="-22.05054550431668758392333984375" lon="166.45093842409551143646240234375">
        <ele>888.5999755859375</ele>
        <time>2016-08-12T22:04:54.000Z</time>
        <extensions>
          <ns3:TrackPointExtension>
            <ns3:atemp>18.0</ns3:atemp>
            <ns3:hr>129</ns3:hr>
          </ns3:TrackPointExtension>
        </extensions>
      </trkpt>
      <trkpt lat="-22.050566710531711578369140625" lon="166.45094923675060272216796875">
        <ele>888.4000244140625</ele>
        <time>2016-08-12T22:04:55.000Z</time>
        <extensions>
          <ns3:TrackPointExtension>
            <ns3:atemp>18.0</ns3:atemp>
            <ns3:hr>129</ns3:hr>
          </ns3:TrackPointExtension>
        </extensions>
      </trkpt>
      <trkpt lat="-22.05058657564222812652587890625" lon="166.45096206106245517730712890625">
        <ele>888.20001220703125</ele>
        <time>2016-08-12T22:04:56.000Z</time>
        <extensions>
          <ns3:TrackPointExtension>
            <ns3:atemp>18.0</ns3:atemp>
            <ns3:hr>129</ns3:hr>
          </ns3:TrackPointExtension>
        </extensions>
      </trkpt>
      <trkpt lat="-22.05060753040015697479248046875" lon="166.45097413100302219390869140625">
        <ele>888.20001220703125</ele>
        <time>2016-08-12T22:04:57.000Z</time>
        <extensions>
          <ns3:TrackPointExtension>
            <ns3:atemp>18.0</ns3:atemp>
            <ns3:hr>129</ns3:hr>
          </ns3:TrackPointExtension>
        </extensions>
      </trkpt>
      <trkpt lat="-22.05063049681484699249267578125" lon="166.45098636858165264129638671875">
        <ele>888</ele>
        <time>2016-08-12T22:04:58.000Z</time>
        <extensions>
          <ns3:TrackPointExtension>
            <ns3:atemp>18.0</ns3:atemp>
            <ns3:hr>129</ns3:hr>
          </ns3:TrackPointExtension>
        </extensions>
      </trkpt>
      <trkpt lat="-22.050653211772441864013671875" lon="166.450997181236743927001953125">
        <ele>887.4000244140625</ele>
        <time>2016-08-12T22:04:59.000Z</time>
        <extensions>
          <ns3:TrackPointExtension>
            <ns3:atemp>18.0</ns3:atemp>
            <ns3:hr>130</ns3:hr>
          </ns3:TrackPointExtension>
        </extensions>
      </trkpt>
      <trkpt lat="-22.05067525617778301239013671875" lon="166.45100950263440608978271484375">
        <ele>887.4000244140625</ele>
        <time>2016-08-12T22:05:00.000Z</time>
        <extensions>
          <ns3:TrackPointExtension>
            <ns3:atemp>18.0</ns3:atemp>
            <ns3:hr>130</ns3:hr>
          </ns3:TrackPointExtension>
        </extensions>
      </trkpt>
      <trkpt lat="-22.05070006661117076873779296875" lon="166.451023332774639129638671875">
        <ele>887.5999755859375</ele>
        <time>2016-08-12T22:05:01.000Z</time>
        <extensions>
          <ns3:TrackPointExtension>
            <ns3:atemp>18.0</ns3:atemp>
            <ns3:hr>130</ns3:hr>
          </ns3:TrackPointExtension>
        </extensions>
      </trkpt>
      <trkpt lat="-22.050721608102321624755859375" lon="166.45103666000068187713623046875">
        <ele>887</ele>
        <time>2016-08-12T22:05:02.000Z</time>
        <extensions>
          <ns3:TrackPointExtension>
            <ns3:atemp>18.0</ns3:atemp>
            <ns3:hr>130</ns3:hr>
          </ns3:TrackPointExtension>
        </extensions>
      </trkpt>
      <trkpt lat="-22.0507422275841236114501953125" lon="166.4510506577789783477783203125">
        <ele>887</ele>
        <time>2016-08-12T22:05:03.000Z</time>
        <extensions>
          <ns3:TrackPointExtension>
            <ns3:atemp>18.0</ns3:atemp>
            <ns3:hr>130</ns3:hr>
          </ns3:TrackPointExtension>
        </extensions>
      </trkpt>
      <trkpt lat="-22.05076158978044986724853515625" lon="166.45106800831854343414306640625">
        <ele>887.20001220703125</ele>
        <time>2016-08-12T22:05:04.000Z</time>
        <extensions>
          <ns3:TrackPointExtension>
            <ns3:atemp>18.0</ns3:atemp>
            <ns3:hr>130</ns3:hr>
          </ns3:TrackPointExtension>
        </extensions>
      </trkpt>
      <trkpt lat="-22.050783298909664154052734375" lon="166.45108577795326709747314453125">
        <ele>887.20001220703125</ele>
        <time>2016-08-12T22:05:05.000Z</time>
        <extensions>
          <ns3:TrackPointExtension>
            <ns3:atemp>18.0</ns3:atemp>
            <ns3:hr>130</ns3:hr>
          </ns3:TrackPointExtension>
        </extensions>
      </trkpt>
      <trkpt lat="-22.05080953426659107208251953125" lon="166.45110153593122959136962890625">
        <ele>887</ele>
        <time>2016-08-12T22:05:06.000Z</time>
        <extensions>
          <ns3:TrackPointExtension>
            <ns3:atemp>18.0</ns3:atemp>
            <ns3:hr>130</ns3:hr>
          </ns3:TrackPointExtension>
        </extensions>
      </trkpt>
      <trkpt lat="-22.050836272537708282470703125" lon="166.45111645571887493133544921875">
        <ele>887.20001220703125</ele>
        <time>2016-08-12T22:05:07.000Z</time>
        <extensions>
          <ns3:TrackPointExtension>
            <ns3:atemp>18.0</ns3:atemp>
            <ns3:hr>130</ns3:hr>
          </ns3:TrackPointExtension>
        </extensions>
      </trkpt>
      <trkpt lat="-22.05085949040949344635009765625" lon="166.45113036967813968658447265625">
        <ele>887</ele>
        <time>2016-08-12T22:05:08.000Z</time>
        <extensions>
          <ns3:TrackPointExtension>
            <ns3:atemp>18.0</ns3:atemp>
            <ns3:hr>130</ns3:hr>
          </ns3:TrackPointExtension>
        </extensions>
      </trkpt>
      <trkpt lat="-22.05088815651834011077880859375" lon="166.451143361628055572509765625">
        <ele>886.79998779296875</ele>
        <time>2016-08-12T22:05:09.000Z</time>
        <extensions>
          <ns3:TrackPointExtension>
            <ns3:atemp>18.0</ns3:atemp>
            <ns3:hr>130</ns3:hr>
          </ns3:TrackPointExtension>
        </extensions>
      </trkpt>
      <trkpt lat="-22.05091573297977447509765625" lon="166.451155431568622589111328125">
        <ele>887</ele>
        <time>2016-08-12T22:05:10.000Z</time>
        <extensions>
          <ns3:TrackPointExtension>
            <ns3:atemp>18.0</ns3:atemp>
            <ns3:hr>130</ns3:hr>
          </ns3:TrackPointExtension>
        </extensions>
      </trkpt>
      <trkpt lat="-22.0509443990886211395263671875" lon="166.451167166233062744140625">
        <ele>886.79998779296875</ele>
        <time>2016-08-12T22:05:11.000Z</time>
        <extensions>
          <ns3:TrackPointExtension>
            <ns3:atemp>18.0</ns3:atemp>
            <ns3:hr>130</ns3:hr>
          </ns3:TrackPointExtension>
        </extensions>
      </trkpt>
      <trkpt lat="-22.05097616650164127349853515625" lon="166.451174877583980560302734375">
        <ele>886.20001220703125</ele>
        <time>2016-08-12T22:05:12.000Z</time>
        <extensions>
          <ns3:TrackPointExtension>
            <ns3:atemp>18.0</ns3:atemp>
            <ns3:hr>130</ns3:hr>
          </ns3:TrackPointExtension>
        </extensions>
      </trkpt>
      <trkpt lat="-22.05100583843886852264404296875" lon="166.4511824212968349456787109375">
        <ele>886.20001220703125</ele>
        <time>2016-08-12T22:05:13.000Z</time>
        <extensions>
          <ns3:TrackPointExtension>
            <ns3:atemp>18.0</ns3:atemp>
            <ns3:hr>130</ns3:hr>
          </ns3:TrackPointExtension>
        </extensions>
      </trkpt>
      <trkpt lat="-22.05103098414838314056396484375" lon="166.45119155757129192352294921875">
        <ele>886.20001220703125</ele>
        <time>2016-08-12T22:05:14.000Z</time>
        <extensions>
          <ns3:TrackPointExtension>
            <ns3:atemp>18.0</ns3:atemp>
            <ns3:hr>130</ns3:hr>
          </ns3:TrackPointExtension>
        </extensions>
      </trkpt>
      <trkpt lat="-22.0510563813149929046630859375" lon="166.4511995203793048858642578125">
        <ele>885.79998779296875</ele>
        <time>2016-08-12T22:05:15.000Z</time>
        <extensions>
          <ns3:TrackPointExtension>
            <ns3:atemp>18.0</ns3:atemp>
            <ns3:hr>129</ns3:hr>
          </ns3:TrackPointExtension>
        </extensions>
      </trkpt>
      <trkpt lat="-22.05108060501515865325927734375" lon="166.45120806992053985595703125">
        <ele>885.79998779296875</ele>
        <time>2016-08-12T22:05:16.000Z</time>
        <extensions>
          <ns3:TrackPointExtension>
            <ns3:atemp>18.0</ns3:atemp>
            <ns3:hr>129</ns3:hr>
          </ns3:TrackPointExtension>
        </extensions>
      </trkpt>
      <trkpt lat="-22.0511029846966266632080078125" lon="166.45121770910918712615966796875">
        <ele>886.4000244140625</ele>
        <time>2016-08-12T22:05:17.000Z</time>
        <extensions>
          <ns3:TrackPointExtension>
            <ns3:atemp>18.0</ns3:atemp>
            <ns3:hr>130</ns3:hr>
          </ns3:TrackPointExtension>
        </extensions>
      </trkpt>
      <trkpt lat="-22.05112896859645843505859375" lon="166.4512250013649463653564453125">
        <ele>886.79998779296875</ele>
        <time>2016-08-12T22:05:18.000Z</time>
        <extensions>
          <ns3:TrackPointExtension>
            <ns3:atemp>18.0</ns3:atemp>
            <ns3:hr>129</ns3:hr>
          </ns3:TrackPointExtension>
        </extensions>
      </trkpt>
      <trkpt lat="-22.05115252174437046051025390625" lon="166.45122843794524669647216796875">
        <ele>886.20001220703125</ele>
        <time>2016-08-12T22:05:19.000Z</time>
        <extensions>
          <ns3:TrackPointExtension>
            <ns3:atemp>18.0</ns3:atemp>
            <ns3:hr>130</ns3:hr>
          </ns3:TrackPointExtension>
        </extensions>
      </trkpt>
      <trkpt lat="-22.0511792600154876708984375" lon="166.451231539249420166015625">
        <ele>886</ele>
        <time>2016-08-12T22:05:20.000Z</time>
        <extensions>
          <ns3:TrackPointExtension>
            <ns3:atemp>18.0</ns3:atemp>
            <ns3:hr>129</ns3:hr>
          </ns3:TrackPointExtension>
        </extensions>
      </trkpt>
      <trkpt lat="-22.051206417381763458251953125" lon="166.45123313181102275848388671875">
        <ele>885.79998779296875</ele>
        <time>2016-08-12T22:05:21.000Z</time>
        <extensions>
          <ns3:TrackPointExtension>
            <ns3:atemp>18.0</ns3:atemp>
            <ns3:hr>129</ns3:hr>
          </ns3:TrackPointExtension>
        </extensions>
      </trkpt>
      <trkpt lat="-22.0512320660054683685302734375" lon="166.45123480819165706634521484375">
        <ele>885.79998779296875</ele>
        <time>2016-08-12T22:05:22.000Z</time>
        <extensions>
          <ns3:TrackPointExtension>
            <ns3:atemp>18.0</ns3:atemp>
            <ns3:hr>129</ns3:hr>
          </ns3:TrackPointExtension>
        </extensions>
      </trkpt>
      <trkpt lat="-22.051258385181427001953125" lon="166.45123262889683246612548828125">
        <ele>886</ele>
        <time>2016-08-12T22:05:23.000Z</time>
        <extensions>
          <ns3:TrackPointExtension>
            <ns3:atemp>18.0</ns3:atemp>
            <ns3:hr>129</ns3:hr>
          </ns3:TrackPointExtension>
        </extensions>
      </trkpt>
      <trkpt lat="-22.05128713510930538177490234375" lon="166.45122550427913665771484375">
        <ele>886</ele>
        <time>2016-08-12T22:05:24.000Z</time>
        <extensions>
          <ns3:TrackPointExtension>
            <ns3:atemp>18.0</ns3:atemp>
            <ns3:hr>129</ns3:hr>
          </ns3:TrackPointExtension>
        </extensions>
      </trkpt>
      <trkpt lat="-22.05131345428526401519775390625" lon="166.45122324116528034210205078125">
        <ele>885.5999755859375</ele>
        <time>2016-08-12T22:05:25.000Z</time>
        <extensions>
          <ns3:TrackPointExtension>
            <ns3:atemp>18.0</ns3:atemp>
            <ns3:hr>129</ns3:hr>
          </ns3:TrackPointExtension>
        </extensions>
      </trkpt>
      <trkpt lat="-22.05133859999477863311767578125" lon="166.45122508518397808074951171875">
        <ele>885.5999755859375</ele>
        <time>2016-08-12T22:05:26.000Z</time>
        <extensions>
          <ns3:TrackPointExtension>
            <ns3:atemp>18.0</ns3:atemp>
            <ns3:hr>129</ns3:hr>
          </ns3:TrackPointExtension>
        </extensions>
      </trkpt>
      <trkpt lat="-22.05136290751397609710693359375" lon="166.45122416317462921142578125">
        <ele>885.79998779296875</ele>
        <time>2016-08-12T22:05:27.000Z</time>
        <extensions>
          <ns3:TrackPointExtension>
            <ns3:atemp>18.0</ns3:atemp>
            <ns3:hr>129</ns3:hr>
          </ns3:TrackPointExtension>
        </extensions>
      </trkpt>
      <trkpt lat="-22.05138302408158779144287109375" lon="166.451223157346248626708984375">
        <ele>885.5999755859375</ele>
        <time>2016-08-12T22:05:28.000Z</time>
        <extensions>
          <ns3:TrackPointExtension>
            <ns3:atemp>18.0</ns3:atemp>
            <ns3:hr>129</ns3:hr>
          </ns3:TrackPointExtension>
        </extensions>
      </trkpt>
      <trkpt lat="-22.051403559744358062744140625" lon="166.45122642628848552703857421875">
        <ele>885.4000244140625</ele>
        <time>2016-08-12T22:05:29.000Z</time>
        <extensions>
          <ns3:TrackPointExtension>
            <ns3:atemp>18.0</ns3:atemp>
            <ns3:hr>129</ns3:hr>
          </ns3:TrackPointExtension>
        </extensions>
      </trkpt>
      <trkpt lat="-22.0514265261590480804443359375" lon="166.45122609101235866546630859375">
        <ele>885.4000244140625</ele>
        <time>2016-08-12T22:05:30.000Z</time>
        <extensions>
          <ns3:TrackPointExtension>
            <ns3:atemp>18.0</ns3:atemp>
            <ns3:hr>129</ns3:hr>
          </ns3:TrackPointExtension>
        </extensions>
      </trkpt>
      <trkpt lat="-22.0514506660401821136474609375" lon="166.4512288570404052734375">
        <ele>885</ele>
        <time>2016-08-12T22:05:31.000Z</time>
        <extensions>
          <ns3:TrackPointExtension>
            <ns3:atemp>18.0</ns3:atemp>
            <ns3:hr>129</ns3:hr>
          </ns3:TrackPointExtension>
        </extensions>
      </trkpt>
      <trkpt lat="-22.05147790722548961639404296875" lon="166.45122910849750041961669921875">
        <ele>884.79998779296875</ele>
        <time>2016-08-12T22:05:32.000Z</time>
        <extensions>
          <ns3:TrackPointExtension>
            <ns3:atemp>18.0</ns3:atemp>
            <ns3:hr>129</ns3:hr>
          </ns3:TrackPointExtension>
        </extensions>
      </trkpt>
      <trkpt lat="-22.0515038073062896728515625" lon="166.45122374407947063446044921875">
        <ele>884.5999755859375</ele>
        <time>2016-08-12T22:05:33.000Z</time>
        <extensions>
          <ns3:TrackPointExtension>
            <ns3:atemp>18.0</ns3:atemp>
            <ns3:hr>129</ns3:hr>
          </ns3:TrackPointExtension>
        </extensions>
      </trkpt>
      <trkpt lat="-22.051526941359043121337890625" lon="166.451223157346248626708984375">
        <ele>884.5999755859375</ele>
        <time>2016-08-12T22:05:34.000Z</time>
        <extensions>
          <ns3:TrackPointExtension>
            <ns3:atemp>18.0</ns3:atemp>
            <ns3:hr>129</ns3:hr>
          </ns3:TrackPointExtension>
        </extensions>
      </trkpt>
      <trkpt lat="-22.05155409872531890869140625" lon="166.45122416317462921142578125">
        <ele>884.20001220703125</ele>
        <time>2016-08-12T22:05:35.000Z</time>
        <extensions>
          <ns3:TrackPointExtension>
            <ns3:atemp>18.0</ns3:atemp>
            <ns3:hr>129</ns3:hr>
          </ns3:TrackPointExtension>
        </extensions>
      </trkpt>
      <trkpt lat="-22.05157882533967494964599609375" lon="166.45122542046010494232177734375">
        <ele>884</ele>
        <time>2016-08-12T22:05:36.000Z</time>
        <extensions>
          <ns3:TrackPointExtension>
            <ns3:atemp>18.0</ns3:atemp>
            <ns3:hr>129</ns3:hr>
          </ns3:TrackPointExtension>
        </extensions>
      </trkpt>
      <trkpt lat="-22.05160195939242839813232421875" lon="166.45123195834457874298095703125">
        <ele>883.5999755859375</ele>
        <time>2016-08-12T22:05:37.000Z</time>
        <extensions>
          <ns3:TrackPointExtension>
            <ns3:atemp>18.0</ns3:atemp>
            <ns3:hr>129</ns3:hr>
          </ns3:TrackPointExtension>
        </extensions>
      </trkpt>
      <trkpt lat="-22.05162651836872100830078125" lon="166.45123933441936969757080078125">
        <ele>883.20001220703125</ele>
        <time>2016-08-12T22:05:38.000Z</time>
        <extensions>
          <ns3:TrackPointExtension>
            <ns3:atemp>18.0</ns3:atemp>
            <ns3:hr>129</ns3:hr>
          </ns3:TrackPointExtension>
        </extensions>
      </trkpt>
      <trkpt lat="-22.0516501553356647491455078125" lon="166.451244615018367767333984375">
        <ele>883.20001220703125</ele>
        <time>2016-08-12T22:05:39.000Z</time>
        <extensions>
          <ns3:TrackPointExtension>
            <ns3:atemp>18.0</ns3:atemp>
            <ns3:hr>129</ns3:hr>
          </ns3:TrackPointExtension>
        </extensions>
      </trkpt>
      <trkpt lat="-22.051673792302608489990234375" lon="166.4512501470744609832763671875">
        <ele>883</ele>
        <time>2016-08-12T22:05:40.000Z</time>
        <extensions>
          <ns3:TrackPointExtension>
            <ns3:atemp>18.0</ns3:atemp>
            <ns3:hr>129</ns3:hr>
          </ns3:TrackPointExtension>
        </extensions>
      </trkpt>
      <trkpt lat="-22.05170019529759883880615234375" lon="166.45125425420701503753662109375">
        <ele>882.5999755859375</ele>
        <time>2016-08-12T22:05:41.000Z</time>
        <extensions>
          <ns3:TrackPointExtension>
            <ns3:atemp>18.0</ns3:atemp>
            <ns3:hr>129</ns3:hr>
          </ns3:TrackPointExtension>
        </extensions>
      </trkpt>
      <trkpt lat="-22.05172450281679630279541015625" lon="166.4512597024440765380859375">
        <ele>882.20001220703125</ele>
        <time>2016-08-12T22:05:42.000Z</time>
        <extensions>
          <ns3:TrackPointExtension>
            <ns3:atemp>18.0</ns3:atemp>
            <ns3:hr>129</ns3:hr>
          </ns3:TrackPointExtension>
        </extensions>
      </trkpt>
      <trkpt lat="-22.0517477206885814666748046875" lon="166.45126598887145519256591796875">
        <ele>882</ele>
        <time>2016-08-12T22:05:43.000Z</time>
        <extensions>
          <ns3:TrackPointExtension>
            <ns3:atemp>18.0</ns3:atemp>
            <ns3:hr>129</ns3:hr>
          </ns3:TrackPointExtension>
        </extensions>
      </trkpt>
      <trkpt lat="-22.05177144147455692291259765625" lon="166.45126800052821636199951171875">
        <ele>881.5999755859375</ele>
        <time>2016-08-12T22:05:44.000Z</time>
        <extensions>
          <ns3:TrackPointExtension>
            <ns3:atemp>18.0</ns3:atemp>
            <ns3:hr>129</ns3:hr>
          </ns3:TrackPointExtension>
        </extensions>
      </trkpt>
      <trkpt lat="-22.0517983473837375640869140625" lon="166.45126816816627979278564453125">
        <ele>881.4000244140625</ele>
        <time>2016-08-12T22:05:45.000Z</time>
        <extensions>
          <ns3:TrackPointExtension>
            <ns3:atemp>18.0</ns3:atemp>
            <ns3:hr>129</ns3:hr>
          </ns3:TrackPointExtension>
        </extensions>
      </trkpt>
      <trkpt lat="-22.051827348768711090087890625" lon="166.4512659050524234771728515625">
        <ele>881.4000244140625</ele>
        <time>2016-08-12T22:05:46.000Z</time>
        <extensions>
          <ns3:TrackPointExtension>
            <ns3:atemp>18.0</ns3:atemp>
            <ns3:hr>129</ns3:hr>
          </ns3:TrackPointExtension>
        </extensions>
      </trkpt>
      <trkpt lat="-22.05185442231595516204833984375" lon="166.45126112736761569976806640625">
        <ele>881.20001220703125</ele>
        <time>2016-08-12T22:05:47.000Z</time>
        <extensions>
          <ns3:TrackPointExtension>
            <ns3:atemp>18.0</ns3:atemp>
            <ns3:hr>129</ns3:hr>
          </ns3:TrackPointExtension>
        </extensions>
      </trkpt>
      <trkpt lat="-22.051883004605770111083984375" lon="166.45125634968280792236328125">
        <ele>880.79998779296875</ele>
        <time>2016-08-12T22:05:48.000Z</time>
        <extensions>
          <ns3:TrackPointExtension>
            <ns3:atemp>18.0</ns3:atemp>
            <ns3:hr>129</ns3:hr>
          </ns3:TrackPointExtension>
        </extensions>
      </trkpt>
      <trkpt lat="-22.051909826695919036865234375" lon="166.45125106908380985260009765625">
        <ele>880.79998779296875</ele>
        <time>2016-08-12T22:05:49.000Z</time>
        <extensions>
          <ns3:TrackPointExtension>
            <ns3:atemp>18.0</ns3:atemp>
            <ns3:hr>129</ns3:hr>
          </ns3:TrackPointExtension>
        </extensions>
      </trkpt>
      <trkpt lat="-22.05193321220576763153076171875" lon="166.45124587230384349822998046875">
        <ele>880.79998779296875</ele>
        <time>2016-08-12T22:05:50.000Z</time>
        <extensions>
          <ns3:TrackPointExtension>
            <ns3:atemp>18.0</ns3:atemp>
            <ns3:hr>129</ns3:hr>
          </ns3:TrackPointExtension>
        </extensions>
      </trkpt>
      <trkpt lat="-22.05195919610559940338134765625" lon="166.45124419592320919036865234375">
        <ele>880.4000244140625</ele>
        <time>2016-08-12T22:05:51.000Z</time>
        <extensions>
          <ns3:TrackPointExtension>
            <ns3:atemp>18.0</ns3:atemp>
            <ns3:hr>128</ns3:hr>
          </ns3:TrackPointExtension>
        </extensions>
      </trkpt>
      <trkpt lat="-22.05198501236736774444580078125" lon="166.45124453119933605194091796875">
        <ele>880.4000244140625</ele>
        <time>2016-08-12T22:05:52.000Z</time>
        <extensions>
          <ns3:TrackPointExtension>
            <ns3:atemp>18.0</ns3:atemp>
            <ns3:hr>128</ns3:hr>
          </ns3:TrackPointExtension>
        </extensions>
      </trkpt>
      <trkpt lat="-22.05201149918138980865478515625" lon="166.451241932809352874755859375">
        <ele>880.4000244140625</ele>
        <time>2016-08-12T22:05:53.000Z</time>
        <extensions>
          <ns3:TrackPointExtension>
            <ns3:atemp>18.0</ns3:atemp>
            <ns3:hr>128</ns3:hr>
          </ns3:TrackPointExtension>
        </extensions>
      </trkpt>
      <trkpt lat="-22.0520384050905704498291015625" lon="166.4512377418577671051025390625">
        <ele>879.4000244140625</ele>
        <time>2016-08-12T22:05:54.000Z</time>
        <extensions>
          <ns3:TrackPointExtension>
            <ns3:atemp>18.0</ns3:atemp>
            <ns3:hr>128</ns3:hr>
          </ns3:TrackPointExtension>
        </extensions>
      </trkpt>
      <trkpt lat="-22.052063383162021636962890625" lon="166.451233886182308197021484375">
        <ele>878.79998779296875</ele>
        <time>2016-08-12T22:05:55.000Z</time>
        <extensions>
          <ns3:TrackPointExtension>
            <ns3:atemp>18.0</ns3:atemp>
            <ns3:hr>128</ns3:hr>
          </ns3:TrackPointExtension>
        </extensions>
      </trkpt>
      <trkpt lat="-22.0520885288715362548828125" lon="166.45123279653489589691162109375">
        <ele>879</ele>
        <time>2016-08-12T22:05:56.000Z</time>
        <extensions>
          <ns3:TrackPointExtension>
            <ns3:atemp>18.0</ns3:atemp>
            <ns3:hr>128</ns3:hr>
          </ns3:TrackPointExtension>
        </extensions>
      </trkpt>
      <trkpt lat="-22.0521165244281291961669921875" lon="166.4512303657829761505126953125">
        <ele>878.79998779296875</ele>
        <time>2016-08-12T22:05:57.000Z</time>
        <extensions>
          <ns3:TrackPointExtension>
            <ns3:atemp>18.0</ns3:atemp>
            <ns3:hr>128</ns3:hr>
          </ns3:TrackPointExtension>
        </extensions>
      </trkpt>
      <trkpt lat="-22.05214275978505611419677734375" lon="166.45122542046010494232177734375">
        <ele>878.5999755859375</ele>
        <time>2016-08-12T22:05:58.000Z</time>
        <extensions>
          <ns3:TrackPointExtension>
            <ns3:atemp>18.0</ns3:atemp>
            <ns3:hr>128</ns3:hr>
          </ns3:TrackPointExtension>
        </extensions>
      </trkpt>
      <trkpt lat="-22.0521654747426509857177734375" lon="166.45121477544307708740234375">
        <ele>878.5999755859375</ele>
        <time>2016-08-12T22:05:59.000Z</time>
        <extensions>
          <ns3:TrackPointExtension>
            <ns3:atemp>18.0</ns3:atemp>
            <ns3:hr>128</ns3:hr>
          </ns3:TrackPointExtension>
        </extensions>
      </trkpt>
      <trkpt lat="-22.0521877706050872802734375" lon="166.4512032084167003631591796875">
        <ele>878.20001220703125</ele>
        <time>2016-08-12T22:06:00.000Z</time>
        <extensions>
          <ns3:TrackPointExtension>
            <ns3:atemp>18.0</ns3:atemp>
            <ns3:hr>128</ns3:hr>
          </ns3:TrackPointExtension>
        </extensions>
      </trkpt>
      <trkpt lat="-22.05220880918204784393310546875" lon="166.451196335256099700927734375">
        <ele>877.4000244140625</ele>
        <time>2016-08-12T22:06:01.000Z</time>
        <extensions>
          <ns3:TrackPointExtension>
            <ns3:atemp>18.0</ns3:atemp>
            <ns3:hr>128</ns3:hr>
          </ns3:TrackPointExtension>
        </extensions>
      </trkpt>
      <trkpt lat="-22.0522306859493255615234375" lon="166.45119591616094112396240234375">
        <ele>877</ele>
        <time>2016-08-12T22:06:02.000Z</time>
        <extensions>
          <ns3:TrackPointExtension>
            <ns3:atemp>19.0</ns3:atemp>
            <ns3:hr>128</ns3:hr>
          </ns3:TrackPointExtension>
        </extensions>
      </trkpt>
      <trkpt lat="-22.05225541256368160247802734375" lon="166.45119943656027317047119140625">
        <ele>877.20001220703125</ele>
        <time>2016-08-12T22:06:03.000Z</time>
        <extensions>
          <ns3:TrackPointExtension>
            <ns3:atemp>19.0</ns3:atemp>
            <ns3:hr>128</ns3:hr>
          </ns3:TrackPointExtension>
        </extensions>
      </trkpt>
      <trkpt lat="-22.05228072591125965118408203125" lon="166.45120664499700069427490234375">
        <ele>877.20001220703125</ele>
        <time>2016-08-12T22:06:04.000Z</time>
        <extensions>
          <ns3:TrackPointExtension>
            <ns3:atemp>19.0</ns3:atemp>
            <ns3:hr>128</ns3:hr>
          </ns3:TrackPointExtension>
        </extensions>
      </trkpt>
      <trkpt lat="-22.05230779945850372314453125" lon="166.45120698027312755584716796875">
        <ele>877</ele>
        <time>2016-08-12T22:06:05.000Z</time>
        <extensions>
          <ns3:TrackPointExtension>
            <ns3:atemp>19.0</ns3:atemp>
            <ns3:hr>129</ns3:hr>
          </ns3:TrackPointExtension>
        </extensions>
      </trkpt>
      <trkpt lat="-22.05233328044414520263671875" lon="166.45120245404541492462158203125">
        <ele>877</ele>
        <time>2016-08-12T22:06:06.000Z</time>
        <extensions>
          <ns3:TrackPointExtension>
            <ns3:atemp>19.0</ns3:atemp>
            <ns3:hr>128</ns3:hr>
          </ns3:TrackPointExtension>
        </extensions>
      </trkpt>
      <trkpt lat="-22.0523585937917232513427734375" lon="166.45119759254157543182373046875">
        <ele>877</ele>
        <time>2016-08-12T22:06:07.000Z</time>
        <extensions>
          <ns3:TrackPointExtension>
            <ns3:atemp>19.0</ns3:atemp>
            <ns3:hr>128</ns3:hr>
          </ns3:TrackPointExtension>
        </extensions>
      </trkpt>
      <trkpt lat="-22.05238499678671360015869140625" lon="166.4511901326477527618408203125">
        <ele>876.5999755859375</ele>
        <time>2016-08-12T22:06:08.000Z</time>
        <extensions>
          <ns3:TrackPointExtension>
            <ns3:atemp>19.0</ns3:atemp>
            <ns3:hr>128</ns3:hr>
          </ns3:TrackPointExtension>
        </extensions>
      </trkpt>
      <trkpt lat="-22.05240972340106964111328125" lon="166.45118384622037410736083984375">
        <ele>876.5999755859375</ele>
        <time>2016-08-12T22:06:09.000Z</time>
        <extensions>
          <ns3:TrackPointExtension>
            <ns3:atemp>19.0</ns3:atemp>
            <ns3:hr>128</ns3:hr>
          </ns3:TrackPointExtension>
        </extensions>
      </trkpt>
      <trkpt lat="-22.05243587493896484375" lon="166.451179571449756622314453125">
        <ele>876.20001220703125</ele>
        <time>2016-08-12T22:06:10.000Z</time>
        <extensions>
          <ns3:TrackPointExtension>
            <ns3:atemp>19.0</ns3:atemp>
            <ns3:hr>129</ns3:hr>
          </ns3:TrackPointExtension>
        </extensions>
      </trkpt>
      <trkpt lat="-22.05246261321008205413818359375" lon="166.45117714069783687591552734375">
        <ele>875.5999755859375</ele>
        <time>2016-08-12T22:06:11.000Z</time>
        <extensions>
          <ns3:TrackPointExtension>
            <ns3:atemp>19.0</ns3:atemp>
            <ns3:hr>128</ns3:hr>
          </ns3:TrackPointExtension>
        </extensions>
      </trkpt>
      <trkpt lat="-22.05248977057635784149169921875" lon="166.4511740393936634063720703125">
        <ele>875.4000244140625</ele>
        <time>2016-08-12T22:06:12.000Z</time>
        <extensions>
          <ns3:TrackPointExtension>
            <ns3:atemp>19.0</ns3:atemp>
            <ns3:hr>128</ns3:hr>
          </ns3:TrackPointExtension>
        </extensions>
      </trkpt>
      <trkpt lat="-22.0525175146758556365966796875" lon="166.45117378793656826019287109375">
        <ele>875.4000244140625</ele>
        <time>2016-08-12T22:06:13.000Z</time>
        <extensions>
          <ns3:TrackPointExtension>
            <ns3:atemp>19.0</ns3:atemp>
            <ns3:hr>128</ns3:hr>
          </ns3:TrackPointExtension>
        </extensions>
      </trkpt>
      <trkpt lat="-22.052544169127941131591796875" lon="166.45117077045142650604248046875">
        <ele>875</ele>
        <time>2016-08-12T22:06:14.000Z</time>
        <extensions>
          <ns3:TrackPointExtension>
            <ns3:atemp>19.0</ns3:atemp>
            <ns3:hr>128</ns3:hr>
          </ns3:TrackPointExtension>
        </extensions>
      </trkpt>
      <trkpt lat="-22.05257057212293148040771484375" lon="166.45116557367146015167236328125">
        <ele>874.20001220703125</ele>
        <time>2016-08-12T22:06:15.000Z</time>
        <extensions>
          <ns3:TrackPointExtension>
            <ns3:atemp>19.0</ns3:atemp>
            <ns3:hr>128</ns3:hr>
          </ns3:TrackPointExtension>
        </extensions>
      </trkpt>
      <trkpt lat="-22.0525973103940486907958984375" lon="166.4511579461395740509033203125">
        <ele>874</ele>
        <time>2016-08-12T22:06:16.000Z</time>
        <extensions>
          <ns3:TrackPointExtension>
            <ns3:atemp>19.0</ns3:atemp>
            <ns3:hr>128</ns3:hr>
          </ns3:TrackPointExtension>
        </extensions>
      </trkpt>
      <trkpt lat="-22.05262036062777042388916015625" lon="166.45114880986511707305908203125">
        <ele>874.20001220703125</ele>
        <time>2016-08-12T22:06:17.000Z</time>
        <extensions>
          <ns3:TrackPointExtension>
            <ns3:atemp>19.0</ns3:atemp>
            <ns3:hr>129</ns3:hr>
          </ns3:TrackPointExtension>
        </extensions>
      </trkpt>
      <trkpt lat="-22.0526452548801898956298828125" lon="166.45113556645810604095458984375">
        <ele>873.79998779296875</ele>
        <time>2016-08-12T22:06:18.000Z</time>
        <extensions>
          <ns3:TrackPointExtension>
            <ns3:atemp>19.0</ns3:atemp>
            <ns3:hr>128</ns3:hr>
          </ns3:TrackPointExtension>
        </extensions>
      </trkpt>
      <trkpt lat="-22.052669562399387359619140625" lon="166.45112232305109500885009765625">
        <ele>873.4000244140625</ele>
        <time>2016-08-12T22:06:19.000Z</time>
        <extensions>
          <ns3:TrackPointExtension>
            <ns3:atemp>19.0</ns3:atemp>
            <ns3:hr>128</ns3:hr>
          </ns3:TrackPointExtension>
        </extensions>
      </trkpt>
      <trkpt lat="-22.05269177444279193878173828125" lon="166.45110807381570339202880859375">
        <ele>873.20001220703125</ele>
        <time>2016-08-12T22:06:20.000Z</time>
        <extensions>
          <ns3:TrackPointExtension>
            <ns3:atemp>19.0</ns3:atemp>
            <ns3:hr>128</ns3:hr>
          </ns3:TrackPointExtension>
        </extensions>
      </trkpt>
      <trkpt lat="-22.052714824676513671875" lon="166.4510935731232166290283203125">
        <ele>873</ele>
        <time>2016-08-12T22:06:21.000Z</time>
        <extensions>
          <ns3:TrackPointExtension>
            <ns3:atemp>19.0</ns3:atemp>
            <ns3:hr>129</ns3:hr>
          </ns3:TrackPointExtension>
        </extensions>
      </trkpt>
      <trkpt lat="-22.052737288177013397216796875" lon="166.45108058117330074310302734375">
        <ele>872.5999755859375</ele>
        <time>2016-08-12T22:06:22.000Z</time>
        <extensions>
          <ns3:TrackPointExtension>
            <ns3:atemp>19.0</ns3:atemp>
            <ns3:hr>129</ns3:hr>
          </ns3:TrackPointExtension>
        </extensions>
      </trkpt>
      <trkpt lat="-22.05275882966816425323486328125" lon="166.4510639011859893798828125">
        <ele>872.20001220703125</ele>
        <time>2016-08-12T22:06:23.000Z</time>
        <extensions>
          <ns3:TrackPointExtension>
            <ns3:atemp>19.0</ns3:atemp>
            <ns3:hr>129</ns3:hr>
          </ns3:TrackPointExtension>
        </extensions>
      </trkpt>
      <trkpt lat="-22.05277995206415653228759765625" lon="166.45104001276195049285888671875">
        <ele>872.20001220703125</ele>
        <time>2016-08-12T22:06:24.000Z</time>
        <extensions>
          <ns3:TrackPointExtension>
            <ns3:atemp>19.0</ns3:atemp>
            <ns3:hr>128</ns3:hr>
          </ns3:TrackPointExtension>
        </extensions>
      </trkpt>
      <trkpt lat="-22.05280006863176822662353515625" lon="166.45101629197597503662109375">
        <ele>871.79998779296875</ele>
        <time>2016-08-12T22:06:25.000Z</time>
        <extensions>
          <ns3:TrackPointExtension>
            <ns3:atemp>19.0</ns3:atemp>
            <ns3:hr>128</ns3:hr>
          </ns3:TrackPointExtension>
        </extensions>
      </trkpt>
      <trkpt lat="-22.05282538197934627532958984375" lon="166.4509966783225536346435546875">
        <ele>871.4000244140625</ele>
        <time>2016-08-12T22:06:26.000Z</time>
        <extensions>
          <ns3:TrackPointExtension>
            <ns3:atemp>19.0</ns3:atemp>
            <ns3:hr>128</ns3:hr>
          </ns3:TrackPointExtension>
        </extensions>
      </trkpt>
      <trkpt lat="-22.0528501085937023162841796875" lon="166.45097605884075164794921875">
        <ele>871.20001220703125</ele>
        <time>2016-08-12T22:06:27.000Z</time>
        <extensions>
          <ns3:TrackPointExtension>
            <ns3:atemp>19.0</ns3:atemp>
            <ns3:hr>128</ns3:hr>
          </ns3:TrackPointExtension>
        </extensions>
      </trkpt>
      <trkpt lat="-22.05287416465580463409423828125" lon="166.450958959758281707763671875">
        <ele>870.5999755859375</ele>
        <time>2016-08-12T22:06:28.000Z</time>
        <extensions>
          <ns3:TrackPointExtension>
            <ns3:atemp>19.0</ns3:atemp>
            <ns3:hr>128</ns3:hr>
          </ns3:TrackPointExtension>
        </extensions>
      </trkpt>
      <trkpt lat="-22.05289813689887523651123046875" lon="166.4509447105228900909423828125">
        <ele>870</ele>
        <time>2016-08-12T22:06:29.000Z</time>
        <extensions>
          <ns3:TrackPointExtension>
            <ns3:atemp>19.0</ns3:atemp>
            <ns3:hr>128</ns3:hr>
          </ns3:TrackPointExtension>
        </extensions>
      </trkpt>
      <trkpt lat="-22.05292328260838985443115234375" lon="166.45093473605811595916748046875">
        <ele>870</ele>
        <time>2016-08-12T22:06:30.000Z</time>
        <extensions>
          <ns3:TrackPointExtension>
            <ns3:atemp>19.0</ns3:atemp>
            <ns3:hr>128</ns3:hr>
          </ns3:TrackPointExtension>
        </extensions>
      </trkpt>
      <trkpt lat="-22.0529483444988727569580078125" lon="166.4509244263172149658203125">
        <ele>870</ele>
        <time>2016-08-12T22:06:31.000Z</time>
        <extensions>
          <ns3:TrackPointExtension>
            <ns3:atemp>19.0</ns3:atemp>
            <ns3:hr>128</ns3:hr>
          </ns3:TrackPointExtension>
        </extensions>
      </trkpt>
      <trkpt lat="-22.05297525040805339813232421875" lon="166.45091545768082141876220703125">
        <ele>869.4000244140625</ele>
        <time>2016-08-12T22:06:32.000Z</time>
        <extensions>
          <ns3:TrackPointExtension>
            <ns3:atemp>19.0</ns3:atemp>
            <ns3:hr>128</ns3:hr>
          </ns3:TrackPointExtension>
        </extensions>
      </trkpt>
      <trkpt lat="-22.0530009828507900238037109375" lon="166.45090707577764987945556640625">
        <ele>869.4000244140625</ele>
        <time>2016-08-12T22:06:33.000Z</time>
        <extensions>
          <ns3:TrackPointExtension>
            <ns3:atemp>19.0</ns3:atemp>
            <ns3:hr>128</ns3:hr>
          </ns3:TrackPointExtension>
        </extensions>
      </trkpt>
      <trkpt lat="-22.0530241169035434722900390625" lon="166.450898610055446624755859375">
        <ele>869.4000244140625</ele>
        <time>2016-08-12T22:06:34.000Z</time>
        <extensions>
          <ns3:TrackPointExtension>
            <ns3:atemp>19.0</ns3:atemp>
            <ns3:hr>128</ns3:hr>
          </ns3:TrackPointExtension>
        </extensions>
      </trkpt>
      <trkpt lat="-22.0530472509562969207763671875" lon="166.4508880488574504852294921875">
        <ele>869.20001220703125</ele>
        <time>2016-08-12T22:06:35.000Z</time>
        <extensions>
          <ns3:TrackPointExtension>
            <ns3:atemp>19.0</ns3:atemp>
            <ns3:hr>128</ns3:hr>
          </ns3:TrackPointExtension>
        </extensions>
      </trkpt>
      <trkpt lat="-22.0530670322477817535400390625" lon="166.450877152383327484130859375">
        <ele>868.79998779296875</ele>
        <time>2016-08-12T22:06:36.000Z</time>
        <extensions>
          <ns3:TrackPointExtension>
            <ns3:atemp>19.0</ns3:atemp>
            <ns3:hr>128</ns3:hr>
          </ns3:TrackPointExtension>
        </extensions>
      </trkpt>
      <trkpt lat="-22.05309058539569377899169921875" lon="166.450869776308536529541015625">
        <ele>868.5999755859375</ele>
        <time>2016-08-12T22:06:37.000Z</time>
        <extensions>
          <ns3:TrackPointExtension>
            <ns3:atemp>19.0</ns3:atemp>
            <ns3:hr>128</ns3:hr>
          </ns3:TrackPointExtension>
        </extensions>
      </trkpt>
      <trkpt lat="-22.0531133003532886505126953125" lon="166.45086147822439670562744140625">
        <ele>868</ele>
        <time>2016-08-12T22:06:38.000Z</time>
        <extensions>
          <ns3:TrackPointExtension>
            <ns3:atemp>19.0</ns3:atemp>
            <ns3:hr>128</ns3:hr>
          </ns3:TrackPointExtension>
        </extensions>
      </trkpt>
      <trkpt lat="-22.05313400365412235260009765625" lon="166.45085477270185947418212890625">
        <ele>867.79998779296875</ele>
        <time>2016-08-12T22:06:39.000Z</time>
        <extensions>
          <ns3:TrackPointExtension>
            <ns3:atemp>19.0</ns3:atemp>
            <ns3:hr>128</ns3:hr>
          </ns3:TrackPointExtension>
        </extensions>
      </trkpt>
      <trkpt lat="-22.05315713770687580108642578125" lon="166.45084706135094165802001953125">
        <ele>867.79998779296875</ele>
        <time>2016-08-12T22:06:40.000Z</time>
        <extensions>
          <ns3:TrackPointExtension>
            <ns3:atemp>19.0</ns3:atemp>
            <ns3:hr>128</ns3:hr>
          </ns3:TrackPointExtension>
        </extensions>
      </trkpt>
      <trkpt lat="-22.05317943356931209564208984375" lon="166.450840272009372711181640625">
        <ele>867.5999755859375</ele>
        <time>2016-08-12T22:06:41.000Z</time>
        <extensions>
          <ns3:TrackPointExtension>
            <ns3:atemp>19.0</ns3:atemp>
            <ns3:hr>128</ns3:hr>
          </ns3:TrackPointExtension>
        </extensions>
      </trkpt>
      <trkpt lat="-22.05319921486079692840576171875" lon="166.45083281211555004119873046875">
        <ele>867.20001220703125</ele>
        <time>2016-08-12T22:06:42.000Z</time>
        <extensions>
          <ns3:TrackPointExtension>
            <ns3:atemp>19.0</ns3:atemp>
            <ns3:hr>128</ns3:hr>
          </ns3:TrackPointExtension>
        </extensions>
      </trkpt>
      <trkpt lat="-22.05322033725678920745849609375" lon="166.4508283697068691253662109375">
        <ele>866.79998779296875</ele>
        <time>2016-08-12T22:06:43.000Z</time>
        <extensions>
          <ns3:TrackPointExtension>
            <ns3:atemp>19.0</ns3:atemp>
            <ns3:hr>128</ns3:hr>
          </ns3:TrackPointExtension>
        </extensions>
      </trkpt>
      <trkpt lat="-22.0532410405576229095458984375" lon="166.45082342438399791717529296875">
        <ele>867</ele>
        <time>2016-08-12T22:06:44.000Z</time>
        <extensions>
          <ns3:TrackPointExtension>
            <ns3:atemp>19.0</ns3:atemp>
            <ns3:hr>128</ns3:hr>
          </ns3:TrackPointExtension>
        </extensions>
      </trkpt>
      <trkpt lat="-22.053265012800693511962890625" lon="166.45081923343241214752197265625">
        <ele>866.79998779296875</ele>
        <time>2016-08-12T22:06:45.000Z</time>
        <extensions>
          <ns3:TrackPointExtension>
            <ns3:atemp>19.0</ns3:atemp>
            <ns3:hr>128</ns3:hr>
          </ns3:TrackPointExtension>
        </extensions>
      </trkpt>
      <trkpt lat="-22.05329024232923984527587890625" lon="166.4508166350424289703369140625">
        <ele>866.79998779296875</ele>
        <time>2016-08-12T22:06:46.000Z</time>
        <extensions>
          <ns3:TrackPointExtension>
            <ns3:atemp>19.0</ns3:atemp>
            <ns3:hr>128</ns3:hr>
          </ns3:TrackPointExtension>
        </extensions>
      </trkpt>
      <trkpt lat="-22.05331471748650074005126953125" lon="166.45081252790987491607666015625">
        <ele>866.5999755859375</ele>
        <time>2016-08-12T22:06:47.000Z</time>
        <extensions>
          <ns3:TrackPointExtension>
            <ns3:atemp>19.0</ns3:atemp>
            <ns3:hr>128</ns3:hr>
          </ns3:TrackPointExtension>
        </extensions>
      </trkpt>
      <trkpt lat="-22.0533362589776515960693359375" lon="166.45080934278666973114013671875">
        <ele>866.20001220703125</ele>
        <time>2016-08-12T22:06:48.000Z</time>
        <extensions>
          <ns3:TrackPointExtension>
            <ns3:atemp>19.0</ns3:atemp>
            <ns3:hr>128</ns3:hr>
          </ns3:TrackPointExtension>
        </extensions>
      </trkpt>
      <trkpt lat="-22.0533567108213901519775390625" lon="166.45080682821571826934814453125">
        <ele>865.79998779296875</ele>
        <time>2016-08-12T22:06:49.000Z</time>
        <extensions>
          <ns3:TrackPointExtension>
            <ns3:atemp>19.0</ns3:atemp>
            <ns3:hr>128</ns3:hr>
          </ns3:TrackPointExtension>
        </extensions>
      </trkpt>
      <trkpt lat="-22.053377665579319000244140625" lon="166.45080900751054286956787109375">
        <ele>865.79998779296875</ele>
        <time>2016-08-12T22:06:50.000Z</time>
        <extensions>
          <ns3:TrackPointExtension>
            <ns3:atemp>19.0</ns3:atemp>
            <ns3:hr>128</ns3:hr>
          </ns3:TrackPointExtension>
        </extensions>
      </trkpt>
      <trkpt lat="-22.05339870415627956390380859375" lon="166.45080900751054286956787109375">
        <ele>865.5999755859375</ele>
        <time>2016-08-12T22:06:51.000Z</time>
        <extensions>
          <ns3:TrackPointExtension>
            <ns3:atemp>19.0</ns3:atemp>
            <ns3:hr>129</ns3:hr>
          </ns3:TrackPointExtension>
        </extensions>
      </trkpt>
      <trkpt lat="-22.05342359840869903564453125" lon="166.4508059062063694000244140625">
        <ele>865.5999755859375</ele>
        <time>2016-08-12T22:06:52.000Z</time>
        <extensions>
          <ns3:TrackPointExtension>
            <ns3:atemp>19.0</ns3:atemp>
            <ns3:hr>129</ns3:hr>
          </ns3:TrackPointExtension>
        </extensions>
      </trkpt>
      <trkpt lat="-22.05344798974692821502685546875" lon="166.4508032239973545074462890625">
        <ele>865.4000244140625</ele>
        <time>2016-08-12T22:06:53.000Z</time>
        <extensions>
          <ns3:TrackPointExtension>
            <ns3:atemp>19.0</ns3:atemp>
            <ns3:hr>129</ns3:hr>
          </ns3:TrackPointExtension>
        </extensions>
      </trkpt>
      <trkpt lat="-22.05347280018031597137451171875" lon="166.45079693756997585296630859375">
        <ele>865</ele>
        <time>2016-08-12T22:06:54.000Z</time>
        <extensions>
          <ns3:TrackPointExtension>
            <ns3:atemp>19.0</ns3:atemp>
            <ns3:hr>129</ns3:hr>
          </ns3:TrackPointExtension>
        </extensions>
      </trkpt>
      <trkpt lat="-22.053497023880481719970703125" lon="166.45078587345778942108154296875">
        <ele>864.5999755859375</ele>
        <time>2016-08-12T22:06:55.000Z</time>
        <extensions>
          <ns3:TrackPointExtension>
            <ns3:atemp>19.0</ns3:atemp>
            <ns3:hr>129</ns3:hr>
          </ns3:TrackPointExtension>
        </extensions>
      </trkpt>
      <trkpt lat="-22.05351588316261768341064453125" lon="166.450771875679492950439453125">
        <ele>864.4000244140625</ele>
        <time>2016-08-12T22:06:56.000Z</time>
        <extensions>
          <ns3:TrackPointExtension>
            <ns3:atemp>19.0</ns3:atemp>
            <ns3:hr>130</ns3:hr>
          </ns3:TrackPointExtension>
        </extensions>
      </trkpt>
      <trkpt lat="-22.0535411126911640167236328125" lon="166.45076324231922626495361328125">
        <ele>864</ele>
        <time>2016-08-12T22:06:57.000Z</time>
        <extensions>
          <ns3:TrackPointExtension>
            <ns3:atemp>19.0</ns3:atemp>
            <ns3:hr>130</ns3:hr>
          </ns3:TrackPointExtension>
        </extensions>
      </trkpt>
      <trkpt lat="-22.05356734804809093475341796875" lon="166.4507549442350864410400390625">
        <ele>863.5999755859375</ele>
        <time>2016-08-12T22:06:58.000Z</time>
        <extensions>
          <ns3:TrackPointExtension>
            <ns3:atemp>19.0</ns3:atemp>
            <ns3:hr>130</ns3:hr>
          </ns3:TrackPointExtension>
        </extensions>
      </trkpt>
      <trkpt lat="-22.0535930804908275604248046875" lon="166.450747735798358917236328125">
        <ele>863.5999755859375</ele>
        <time>2016-08-12T22:06:59.000Z</time>
        <extensions>
          <ns3:TrackPointExtension>
            <ns3:atemp>19.0</ns3:atemp>
            <ns3:hr>130</ns3:hr>
          </ns3:TrackPointExtension>
        </extensions>
      </trkpt>
      <trkpt lat="-22.05362074077129364013671875" lon="166.4507358334958553314208984375">
        <ele>863.4000244140625</ele>
        <time>2016-08-12T22:07:00.000Z</time>
        <extensions>
          <ns3:TrackPointExtension>
            <ns3:atemp>19.0</ns3:atemp>
            <ns3:hr>130</ns3:hr>
          </ns3:TrackPointExtension>
        </extensions>
      </trkpt>
      <trkpt lat="-22.053644545376300811767578125" lon="166.4507244341075420379638671875">
        <ele>863.20001220703125</ele>
        <time>2016-08-12T22:07:01.000Z</time>
        <extensions>
          <ns3:TrackPointExtension>
            <ns3:atemp>19.0</ns3:atemp>
            <ns3:hr>129</ns3:hr>
          </ns3:TrackPointExtension>
        </extensions>
      </trkpt>
      <trkpt lat="-22.053666003048419952392578125" lon="166.45070909522473812103271484375">
        <ele>862.79998779296875</ele>
        <time>2016-08-12T22:07:02.000Z</time>
        <extensions>
          <ns3:TrackPointExtension>
            <ns3:atemp>19.0</ns3:atemp>
            <ns3:hr>129</ns3:hr>
          </ns3:TrackPointExtension>
        </extensions>
      </trkpt>
      <trkpt lat="-22.05368737690150737762451171875" lon="166.45068713463842868804931640625">
        <ele>862.5999755859375</ele>
        <time>2016-08-12T22:07:03.000Z</time>
        <extensions>
          <ns3:TrackPointExtension>
            <ns3:atemp>19.0</ns3:atemp>
            <ns3:hr>129</ns3:hr>
          </ns3:TrackPointExtension>
        </extensions>
      </trkpt>
      <trkpt lat="-22.0537104271352291107177734375" lon="166.4506634138524532318115234375">
        <ele>862.20001220703125</ele>
        <time>2016-08-12T22:07:04.000Z</time>
        <extensions>
          <ns3:TrackPointExtension>
            <ns3:atemp>19.0</ns3:atemp>
            <ns3:hr>129</ns3:hr>
          </ns3:TrackPointExtension>
        </extensions>
      </trkpt>
      <trkpt lat="-22.0537315495312213897705078125" lon="166.45063902251422405242919921875">
        <ele>861.20001220703125</ele>
        <time>2016-08-12T22:07:05.000Z</time>
        <extensions>
          <ns3:TrackPointExtension>
            <ns3:atemp>19.0</ns3:atemp>
            <ns3:hr>129</ns3:hr>
          </ns3:TrackPointExtension>
        </extensions>
      </trkpt>
      <trkpt lat="-22.05374990589916706085205078125" lon="166.4506132900714874267578125">
        <ele>860.79998779296875</ele>
        <time>2016-08-12T22:07:06.000Z</time>
        <extensions>
          <ns3:TrackPointExtension>
            <ns3:atemp>19.0</ns3:atemp>
            <ns3:hr>130</ns3:hr>
          </ns3:TrackPointExtension>
        </extensions>
      </trkpt>
      <trkpt lat="-22.05376247875392436981201171875" lon="166.45058454014360904693603515625">
        <ele>860.5999755859375</ele>
        <time>2016-08-12T22:07:07.000Z</time>
        <extensions>
          <ns3:TrackPointExtension>
            <ns3:atemp>19.0</ns3:atemp>
            <ns3:hr>130</ns3:hr>
          </ns3:TrackPointExtension>
        </extensions>
      </trkpt>
      <trkpt lat="-22.0537744648754596710205078125" lon="166.45055805332958698272705078125">
        <ele>860.79998779296875</ele>
        <time>2016-08-12T22:07:08.000Z</time>
        <extensions>
          <ns3:TrackPointExtension>
            <ns3:atemp>19.0</ns3:atemp>
            <ns3:hr>130</ns3:hr>
          </ns3:TrackPointExtension>
        </extensions>
      </trkpt>
      <trkpt lat="-22.05378695391118526458740234375" lon="166.450531482696533203125">
        <ele>860.4000244140625</ele>
        <time>2016-08-12T22:07:09.000Z</time>
        <extensions>
          <ns3:TrackPointExtension>
            <ns3:atemp>19.0</ns3:atemp>
            <ns3:hr>130</ns3:hr>
          </ns3:TrackPointExtension>
        </extensions>
      </trkpt>
      <trkpt lat="-22.05379852093756198883056640625" lon="166.45050524733960628509521484375">
        <ele>859.5999755859375</ele>
        <time>2016-08-12T22:07:10.000Z</time>
        <extensions>
          <ns3:TrackPointExtension>
            <ns3:atemp>19.0</ns3:atemp>
            <ns3:hr>130</ns3:hr>
          </ns3:TrackPointExtension>
        </extensions>
      </trkpt>
      <trkpt lat="-22.0538086630403995513916015625" lon="166.4504810236394405364990234375">
        <ele>859.4000244140625</ele>
        <time>2016-08-12T22:07:11.000Z</time>
        <extensions>
          <ns3:TrackPointExtension>
            <ns3:atemp>19.0</ns3:atemp>
            <ns3:hr>130</ns3:hr>
          </ns3:TrackPointExtension>
        </extensions>
      </trkpt>
      <trkpt lat="-22.05381511710584163665771484375" lon="166.4504528604447841644287109375">
        <ele>859.5999755859375</ele>
        <time>2016-08-12T22:07:12.000Z</time>
        <extensions>
          <ns3:TrackPointExtension>
            <ns3:atemp>19.0</ns3:atemp>
            <ns3:hr>130</ns3:hr>
          </ns3:TrackPointExtension>
        </extensions>
      </trkpt>
      <trkpt lat="-22.05381897278130054473876953125" lon="166.45042846910655498504638671875">
        <ele>859.4000244140625</ele>
        <time>2016-08-12T22:07:13.000Z</time>
        <extensions>
          <ns3:TrackPointExtension>
            <ns3:atemp>19.0</ns3:atemp>
            <ns3:hr>130</ns3:hr>
          </ns3:TrackPointExtension>
        </extensions>
      </trkpt>
      <trkpt lat="-22.05382148735225200653076171875" lon="166.450405418872833251953125">
        <ele>859</ele>
        <time>2016-08-12T22:07:14.000Z</time>
        <extensions>
          <ns3:TrackPointExtension>
            <ns3:atemp>19.0</ns3:atemp>
            <ns3:hr>130</ns3:hr>
          </ns3:TrackPointExtension>
        </extensions>
      </trkpt>
      <trkpt lat="-22.0538224093616008758544921875" lon="166.45038337446749210357666015625">
        <ele>858.5999755859375</ele>
        <time>2016-08-12T22:07:15.000Z</time>
        <extensions>
          <ns3:TrackPointExtension>
            <ns3:atemp>19.0</ns3:atemp>
            <ns3:hr>131</ns3:hr>
          </ns3:TrackPointExtension>
        </extensions>
      </trkpt>
      <trkpt lat="-22.0538274385035037994384765625" lon="166.450362503528594970703125">
        <ele>858.5999755859375</ele>
        <time>2016-08-12T22:07:16.000Z</time>
        <extensions>
          <ns3:TrackPointExtension>
            <ns3:atemp>19.0</ns3:atemp>
            <ns3:hr>131</ns3:hr>
          </ns3:TrackPointExtension>
        </extensions>
      </trkpt>
      <trkpt lat="-22.05383590422570705413818359375" lon="166.45034129731357097625732421875">
        <ele>858.79998779296875</ele>
        <time>2016-08-12T22:07:17.000Z</time>
        <extensions>
          <ns3:TrackPointExtension>
            <ns3:atemp>19.0</ns3:atemp>
            <ns3:hr>131</ns3:hr>
          </ns3:TrackPointExtension>
        </extensions>
      </trkpt>
      <trkpt lat="-22.05384780652821063995361328125" lon="166.4503210969269275665283203125">
        <ele>858.79998779296875</ele>
        <time>2016-08-12T22:07:18.000Z</time>
        <extensions>
          <ns3:TrackPointExtension>
            <ns3:atemp>19.0</ns3:atemp>
            <ns3:hr>131</ns3:hr>
          </ns3:TrackPointExtension>
        </extensions>
      </trkpt>
      <trkpt lat="-22.05385685898363590240478515625" lon="166.45029955543577671051025390625">
        <ele>858.4000244140625</ele>
        <time>2016-08-12T22:07:19.000Z</time>
        <extensions>
          <ns3:TrackPointExtension>
            <ns3:atemp>19.0</ns3:atemp>
            <ns3:hr>132</ns3:hr>
          </ns3:TrackPointExtension>
        </extensions>
      </trkpt>
      <trkpt lat="-22.05386674962937831878662109375" lon="166.4502771757543087005615234375">
        <ele>858</ele>
        <time>2016-08-12T22:07:20.000Z</time>
        <extensions>
          <ns3:TrackPointExtension>
            <ns3:atemp>19.0</ns3:atemp>
            <ns3:hr>132</ns3:hr>
          </ns3:TrackPointExtension>
        </extensions>
      </trkpt>
      <trkpt lat="-22.05387462861835956573486328125" lon="166.45025680772960186004638671875">
        <ele>858.20001220703125</ele>
        <time>2016-08-12T22:07:21.000Z</time>
        <extensions>
          <ns3:TrackPointExtension>
            <ns3:atemp>19.0</ns3:atemp>
            <ns3:hr>132</ns3:hr>
          </ns3:TrackPointExtension>
        </extensions>
      </trkpt>
      <trkpt lat="-22.05388301052153110504150390625" lon="166.4502369426190853118896484375">
        <ele>858.4000244140625</ele>
        <time>2016-08-12T22:07:22.000Z</time>
        <extensions>
          <ns3:TrackPointExtension>
            <ns3:atemp>19.0</ns3:atemp>
            <ns3:hr>133</ns3:hr>
          </ns3:TrackPointExtension>
        </extensions>
      </trkpt>
      <trkpt lat="-22.0538948290050029754638671875" lon="166.450218670070171356201171875">
        <ele>858.4000244140625</ele>
        <time>2016-08-12T22:07:23.000Z</time>
        <extensions>
          <ns3:TrackPointExtension>
            <ns3:atemp>19.0</ns3:atemp>
            <ns3:hr>132</ns3:hr>
          </ns3:TrackPointExtension>
        </extensions>
      </trkpt>
      <trkpt lat="-22.0539085753262042999267578125" lon="166.45020014606416225433349609375">
        <ele>858.5999755859375</ele>
        <time>2016-08-12T22:07:24.000Z</time>
        <extensions>
          <ns3:TrackPointExtension>
            <ns3:atemp>19.0</ns3:atemp>
            <ns3:hr>133</ns3:hr>
          </ns3:TrackPointExtension>
        </extensions>
      </trkpt>
      <trkpt lat="-22.0539206452667713165283203125" lon="166.450181789696216583251953125">
        <ele>858.79998779296875</ele>
        <time>2016-08-12T22:07:25.000Z</time>
        <extensions>
          <ns3:TrackPointExtension>
            <ns3:atemp>19.0</ns3:atemp>
            <ns3:hr>133</ns3:hr>
          </ns3:TrackPointExtension>
        </extensions>
      </trkpt>
      <trkpt lat="-22.05392927862703800201416015625" lon="166.45016376860439777374267578125">
        <ele>858.5999755859375</ele>
        <time>2016-08-12T22:07:26.000Z</time>
        <extensions>
          <ns3:TrackPointExtension>
            <ns3:atemp>19.0</ns3:atemp>
            <ns3:hr>133</ns3:hr>
          </ns3:TrackPointExtension>
        </extensions>
      </trkpt>
      <trkpt lat="-22.05394118092954158782958984375" lon="166.45014348439872264862060546875">
        <ele>858.4000244140625</ele>
        <time>2016-08-12T22:07:27.000Z</time>
        <extensions>
          <ns3:TrackPointExtension>
            <ns3:atemp>19.0</ns3:atemp>
            <ns3:hr>134</ns3:hr>
          </ns3:TrackPointExtension>
        </extensions>
      </trkpt>
      <trkpt lat="-22.05395559780299663543701171875" lon="166.45012311637401580810546875">
        <ele>858.4000244140625</ele>
        <time>2016-08-12T22:07:28.000Z</time>
        <extensions>
          <ns3:TrackPointExtension>
            <ns3:atemp>19.0</ns3:atemp>
            <ns3:hr>134</ns3:hr>
          </ns3:TrackPointExtension>
        </extensions>
      </trkpt>
      <trkpt lat="-22.0539709366858005523681640625" lon="166.450102329254150390625">
        <ele>858.4000244140625</ele>
        <time>2016-08-12T22:07:29.000Z</time>
        <extensions>
          <ns3:TrackPointExtension>
            <ns3:atemp>19.0</ns3:atemp>
            <ns3:hr>134</ns3:hr>
          </ns3:TrackPointExtension>
        </extensions>
      </trkpt>
      <trkpt lat="-22.05398493446409702301025390625" lon="166.4500833861529827117919921875">
        <ele>858.20001220703125</ele>
        <time>2016-08-12T22:07:30.000Z</time>
        <extensions>
          <ns3:TrackPointExtension>
            <ns3:atemp>19.0</ns3:atemp>
            <ns3:hr>135</ns3:hr>
          </ns3:TrackPointExtension>
        </extensions>
      </trkpt>
      <trkpt lat="-22.0540014468133449554443359375" lon="166.450062096118927001953125">
        <ele>858.20001220703125</ele>
        <time>2016-08-12T22:07:31.000Z</time>
        <extensions>
          <ns3:TrackPointExtension>
            <ns3:atemp>19.0</ns3:atemp>
            <ns3:hr>136</ns3:hr>
          </ns3:TrackPointExtension>
        </extensions>
      </trkpt>
      <trkpt lat="-22.0540239103138446807861328125" lon="166.45004223100841045379638671875">
        <ele>858</ele>
        <time>2016-08-12T22:07:32.000Z</time>
        <extensions>
          <ns3:TrackPointExtension>
            <ns3:atemp>19.0</ns3:atemp>
            <ns3:hr>136</ns3:hr>
          </ns3:TrackPointExtension>
        </extensions>
      </trkpt>
      <trkpt lat="-22.05404561944305896759033203125" lon="166.45002253353595733642578125">
        <ele>858.20001220703125</ele>
        <time>2016-08-12T22:07:33.000Z</time>
        <extensions>
          <ns3:TrackPointExtension>
            <ns3:atemp>19.0</ns3:atemp>
            <ns3:hr>137</ns3:hr>
          </ns3:TrackPointExtension>
        </extensions>
      </trkpt>
      <trkpt lat="-22.05406389199197292327880859375" lon="166.45000241696834564208984375">
        <ele>858.5999755859375</ele>
        <time>2016-08-12T22:07:34.000Z</time>
        <extensions>
          <ns3:TrackPointExtension>
            <ns3:atemp>19.0</ns3:atemp>
            <ns3:hr>137</ns3:hr>
          </ns3:TrackPointExtension>
        </extensions>
      </trkpt>
      <trkpt lat="-22.05408635549247264862060546875" lon="166.449986658990383148193359375">
        <ele>858.79998779296875</ele>
        <time>2016-08-12T22:07:35.000Z</time>
        <extensions>
          <ns3:TrackPointExtension>
            <ns3:atemp>19.0</ns3:atemp>
            <ns3:hr>138</ns3:hr>
          </ns3:TrackPointExtension>
        </extensions>
      </trkpt>
      <trkpt lat="-22.0541047118604183197021484375" lon="166.44997048191726207733154296875">
        <ele>858.4000244140625</ele>
        <time>2016-08-12T22:07:36.000Z</time>
        <extensions>
          <ns3:TrackPointExtension>
            <ns3:atemp>19.0</ns3:atemp>
            <ns3:hr>138</ns3:hr>
          </ns3:TrackPointExtension>
        </extensions>
      </trkpt>
      <trkpt lat="-22.05412256531417369842529296875" lon="166.4499526284635066986083984375">
        <ele>858.4000244140625</ele>
        <time>2016-08-12T22:07:37.000Z</time>
        <extensions>
          <ns3:TrackPointExtension>
            <ns3:atemp>19.0</ns3:atemp>
            <ns3:hr>138</ns3:hr>
          </ns3:TrackPointExtension>
        </extensions>
      </trkpt>
      <trkpt lat="-22.05413714982569217681884765625" lon="166.44993578083813190460205078125">
        <ele>858.79998779296875</ele>
        <time>2016-08-12T22:07:38.000Z</time>
        <extensions>
          <ns3:TrackPointExtension>
            <ns3:atemp>19.0</ns3:atemp>
            <ns3:hr>139</ns3:hr>
          </ns3:TrackPointExtension>
        </extensions>
      </trkpt>
      <trkpt lat="-22.0541553385555744171142578125" lon="166.44991599954664707183837890625">
        <ele>859</ele>
        <time>2016-08-12T22:07:39.000Z</time>
        <extensions>
          <ns3:TrackPointExtension>
            <ns3:atemp>19.0</ns3:atemp>
            <ns3:hr>139</ns3:hr>
          </ns3:TrackPointExtension>
        </extensions>
      </trkpt>
      <trkpt lat="-22.05417050980031490325927734375" lon="166.44989722408354282379150390625">
        <ele>858.79998779296875</ele>
        <time>2016-08-12T22:07:40.000Z</time>
        <extensions>
          <ns3:TrackPointExtension>
            <ns3:atemp>19.0</ns3:atemp>
            <ns3:hr>140</ns3:hr>
          </ns3:TrackPointExtension>
        </extensions>
      </trkpt>
      <trkpt lat="-22.054185681045055389404296875" lon="166.4498768560588359832763671875">
        <ele>858.5999755859375</ele>
        <time>2016-08-12T22:07:41.000Z</time>
        <extensions>
          <ns3:TrackPointExtension>
            <ns3:atemp>19.0</ns3:atemp>
            <ns3:hr>140</ns3:hr>
          </ns3:TrackPointExtension>
        </extensions>
      </trkpt>
      <trkpt lat="-22.0541975833475589752197265625" lon="166.44985665567219257354736328125">
        <ele>858.79998779296875</ele>
        <time>2016-08-12T22:07:42.000Z</time>
        <extensions>
          <ns3:TrackPointExtension>
            <ns3:atemp>19.0</ns3:atemp>
            <ns3:hr>141</ns3:hr>
          </ns3:TrackPointExtension>
        </extensions>
      </trkpt>
      <trkpt lat="-22.05420604906976222991943359375" lon="166.44983838312327861785888671875">
        <ele>859</ele>
        <time>2016-08-12T22:07:43.000Z</time>
        <extensions>
          <ns3:TrackPointExtension>
            <ns3:atemp>19.0</ns3:atemp>
            <ns3:hr>141</ns3:hr>
          </ns3:TrackPointExtension>
        </extensions>
      </trkpt>
      <trkpt lat="-22.0542156882584095001220703125" lon="166.44981591962277889251708984375">
        <ele>859</ele>
        <time>2016-08-12T22:07:44.000Z</time>
        <extensions>
          <ns3:TrackPointExtension>
            <ns3:atemp>19.0</ns3:atemp>
            <ns3:hr>141</ns3:hr>
          </ns3:TrackPointExtension>
        </extensions>
      </trkpt>
      <trkpt lat="-22.05423094332218170166015625" lon="166.44979278557002544403076171875">
        <ele>858.5999755859375</ele>
        <time>2016-08-12T22:07:45.000Z</time>
        <extensions>
          <ns3:TrackPointExtension>
            <ns3:atemp>19.0</ns3:atemp>
            <ns3:hr>141</ns3:hr>
          </ns3:TrackPointExtension>
        </extensions>
      </trkpt>
      <trkpt lat="-22.05424745567142963409423828125" lon="166.44977048970758914947509765625">
        <ele>858.5999755859375</ele>
        <time>2016-08-12T22:07:46.000Z</time>
        <extensions>
          <ns3:TrackPointExtension>
            <ns3:atemp>19.0</ns3:atemp>
            <ns3:hr>142</ns3:hr>
          </ns3:TrackPointExtension>
        </extensions>
      </trkpt>
      <trkpt lat="-22.05426438711583614349365234375" lon="166.4497487805783748626708984375">
        <ele>859.20001220703125</ele>
        <time>2016-08-12T22:07:47.000Z</time>
        <extensions>
          <ns3:TrackPointExtension>
            <ns3:atemp>19.0</ns3:atemp>
            <ns3:hr>142</ns3:hr>
          </ns3:TrackPointExtension>
        </extensions>
      </trkpt>
      <trkpt lat="-22.05427980981767177581787109375" lon="166.44972673617303371429443359375">
        <ele>859.4000244140625</ele>
        <time>2016-08-12T22:07:48.000Z</time>
        <extensions>
          <ns3:TrackPointExtension>
            <ns3:atemp>19.0</ns3:atemp>
            <ns3:hr>142</ns3:hr>
          </ns3:TrackPointExtension>
        </extensions>
      </trkpt>
      <trkpt lat="-22.0542933046817779541015625" lon="166.44970335066318511962890625">
        <ele>859.4000244140625</ele>
        <time>2016-08-12T22:07:49.000Z</time>
        <extensions>
          <ns3:TrackPointExtension>
            <ns3:atemp>19.0</ns3:atemp>
            <ns3:hr>142</ns3:hr>
          </ns3:TrackPointExtension>
        </extensions>
      </trkpt>
      <trkpt lat="-22.05430311150848865509033203125" lon="166.4496823959052562713623046875">
        <ele>859</ele>
        <time>2016-08-12T22:07:50.000Z</time>
        <extensions>
          <ns3:TrackPointExtension>
            <ns3:atemp>19.0</ns3:atemp>
            <ns3:hr>143</ns3:hr>
          </ns3:TrackPointExtension>
        </extensions>
      </trkpt>
      <trkpt lat="-22.05431811511516571044921875" lon="166.44966118969023227691650390625">
        <ele>859.20001220703125</ele>
        <time>2016-08-12T22:07:51.000Z</time>
        <extensions>
          <ns3:TrackPointExtension>
            <ns3:atemp>19.0</ns3:atemp>
            <ns3:hr>143</ns3:hr>
          </ns3:TrackPointExtension>
        </extensions>
      </trkpt>
      <trkpt lat="-22.0543313585221767425537109375" lon="166.449640654027462005615234375">
        <ele>859.5999755859375</ele>
        <time>2016-08-12T22:07:52.000Z</time>
        <extensions>
          <ns3:TrackPointExtension>
            <ns3:atemp>19.0</ns3:atemp>
            <ns3:hr>143</ns3:hr>
          </ns3:TrackPointExtension>
        </extensions>
      </trkpt>
      <trkpt lat="-22.05434451811015605926513671875" lon="166.44962045364081859588623046875">
        <ele>859.79998779296875</ele>
        <time>2016-08-12T22:07:53.000Z</time>
        <extensions>
          <ns3:TrackPointExtension>
            <ns3:atemp>19.0</ns3:atemp>
            <ns3:hr>143</ns3:hr>
          </ns3:TrackPointExtension>
        </extensions>
      </trkpt>
      <trkpt lat="-22.05436144955456256866455078125" lon="166.44959966652095317840576171875">
        <ele>859.4000244140625</ele>
        <time>2016-08-12T22:07:54.000Z</time>
        <extensions>
          <ns3:TrackPointExtension>
            <ns3:atemp>19.0</ns3:atemp>
            <ns3:hr>143</ns3:hr>
          </ns3:TrackPointExtension>
        </extensions>
      </trkpt>
      <trkpt lat="-22.05437134020030498504638671875" lon="166.44958390854299068450927734375">
        <ele>859.20001220703125</ele>
        <time>2016-08-12T22:07:55.000Z</time>
        <extensions>
          <ns3:TrackPointExtension>
            <ns3:atemp>19.0</ns3:atemp>
            <ns3:hr>143</ns3:hr>
          </ns3:TrackPointExtension>
        </extensions>
      </trkpt>
      <trkpt lat="-22.05438491888344287872314453125" lon="166.44956714473664760589599609375">
        <ele>859.4000244140625</ele>
        <time>2016-08-12T22:07:56.000Z</time>
        <extensions>
          <ns3:TrackPointExtension>
            <ns3:atemp>19.0</ns3:atemp>
            <ns3:hr>144</ns3:hr>
          </ns3:TrackPointExtension>
        </extensions>
      </trkpt>
      <trkpt lat="-22.0543994195759296417236328125" lon="166.44955046474933624267578125">
        <ele>860</ele>
        <time>2016-08-12T22:07:57.000Z</time>
        <extensions>
          <ns3:TrackPointExtension>
            <ns3:atemp>19.0</ns3:atemp>
            <ns3:hr>144</ns3:hr>
          </ns3:TrackPointExtension>
        </extensions>
      </trkpt>
      <trkpt lat="-22.0544098131358623504638671875" lon="166.44953437149524688720703125">
        <ele>860</ele>
        <time>2016-08-12T22:07:58.000Z</time>
        <extensions>
          <ns3:TrackPointExtension>
            <ns3:atemp>19.0</ns3:atemp>
            <ns3:hr>144</ns3:hr>
          </ns3:TrackPointExtension>
        </extensions>
      </trkpt>
      <trkpt lat="-22.05442733131349086761474609375" lon="166.44952020607888698577880859375">
        <ele>859.5999755859375</ele>
        <time>2016-08-12T22:07:59.000Z</time>
        <extensions>
          <ns3:TrackPointExtension>
            <ns3:atemp>19.0</ns3:atemp>
            <ns3:hr>144</ns3:hr>
          </ns3:TrackPointExtension>
        </extensions>
      </trkpt>
      <trkpt lat="-22.05444124527275562286376953125" lon="166.44951081834733486175537109375">
        <ele>859.4000244140625</ele>
        <time>2016-08-12T22:08:00.000Z</time>
        <extensions>
          <ns3:TrackPointExtension>
            <ns3:atemp>19.0</ns3:atemp>
            <ns3:hr>144</ns3:hr>
          </ns3:TrackPointExtension>
        </extensions>
      </trkpt>
      <trkpt lat="-22.05445650033652782440185546875" lon="166.44949925132095813751220703125">
        <ele>860</ele>
        <time>2016-08-12T22:08:01.000Z</time>
        <extensions>
          <ns3:TrackPointExtension>
            <ns3:atemp>19.0</ns3:atemp>
            <ns3:hr>144</ns3:hr>
          </ns3:TrackPointExtension>
        </extensions>
      </trkpt>
      <trkpt lat="-22.05447091720998287200927734375" lon="166.4494907855987548828125">
        <ele>860.5999755859375</ele>
        <time>2016-08-12T22:08:02.000Z</time>
        <extensions>
          <ns3:TrackPointExtension>
            <ns3:atemp>19.0</ns3:atemp>
            <ns3:hr>144</ns3:hr>
          </ns3:TrackPointExtension>
        </extensions>
      </trkpt>
      <trkpt lat="-22.0544869266450405120849609375" lon="166.44948500208556652069091796875">
        <ele>860.5999755859375</ele>
        <time>2016-08-12T22:08:03.000Z</time>
        <extensions>
          <ns3:TrackPointExtension>
            <ns3:atemp>19.0</ns3:atemp>
            <ns3:hr>145</ns3:hr>
          </ns3:TrackPointExtension>
        </extensions>
      </trkpt>
      <trkpt lat="-22.0545063726603984832763671875" lon="166.44948181696236133575439453125">
        <ele>860</ele>
        <time>2016-08-12T22:08:04.000Z</time>
        <extensions>
          <ns3:TrackPointExtension>
            <ns3:atemp>19.0</ns3:atemp>
            <ns3:hr>145</ns3:hr>
          </ns3:TrackPointExtension>
        </extensions>
      </trkpt>
      <trkpt lat="-22.0545228011906147003173828125" lon="166.4494795538485050201416015625">
        <ele>859.79998779296875</ele>
        <time>2016-08-12T22:08:05.000Z</time>
        <extensions>
          <ns3:TrackPointExtension>
            <ns3:atemp>19.0</ns3:atemp>
            <ns3:hr>144</ns3:hr>
          </ns3:TrackPointExtension>
        </extensions>
      </trkpt>
      <trkpt lat="-22.05453897826373577117919921875" lon="166.4494748599827289581298828125">
        <ele>860.79998779296875</ele>
        <time>2016-08-12T22:08:06.000Z</time>
        <extensions>
          <ns3:TrackPointExtension>
            <ns3:atemp>19.0</ns3:atemp>
            <ns3:hr>145</ns3:hr>
          </ns3:TrackPointExtension>
        </extensions>
      </trkpt>
      <trkpt lat="-22.0545556582510471343994140625" lon="166.44947377033531665802001953125">
        <ele>861.4000244140625</ele>
        <time>2016-08-12T22:08:07.000Z</time>
        <extensions>
          <ns3:TrackPointExtension>
            <ns3:atemp>19.0</ns3:atemp>
            <ns3:hr>145</ns3:hr>
          </ns3:TrackPointExtension>
        </extensions>
      </trkpt>
      <trkpt lat="-22.0545737631618976593017578125" lon="166.449473015964031219482421875">
        <ele>861.4000244140625</ele>
        <time>2016-08-12T22:08:08.000Z</time>
        <extensions>
          <ns3:TrackPointExtension>
            <ns3:atemp>19.0</ns3:atemp>
            <ns3:hr>145</ns3:hr>
          </ns3:TrackPointExtension>
        </extensions>
      </trkpt>
      <trkpt lat="-22.05459438264369964599609375" lon="166.4494741894304752349853515625">
        <ele>861.20001220703125</ele>
        <time>2016-08-12T22:08:09.000Z</time>
        <extensions>
          <ns3:TrackPointExtension>
            <ns3:atemp>20.0</ns3:atemp>
            <ns3:hr>145</ns3:hr>
          </ns3:TrackPointExtension>
        </extensions>
      </trkpt>
      <trkpt lat="-22.05461181700229644775390625" lon="166.44947594963014125823974609375">
        <ele>861.4000244140625</ele>
        <time>2016-08-12T22:08:10.000Z</time>
        <extensions>
          <ns3:TrackPointExtension>
            <ns3:atemp>20.0</ns3:atemp>
            <ns3:hr>145</ns3:hr>
          </ns3:TrackPointExtension>
        </extensions>
      </trkpt>
      <trkpt lat="-22.0546324364840984344482421875" lon="166.44947779364883899688720703125">
        <ele>862</ele>
        <time>2016-08-12T22:08:11.000Z</time>
        <extensions>
          <ns3:TrackPointExtension>
            <ns3:atemp>20.0</ns3:atemp>
            <ns3:hr>145</ns3:hr>
          </ns3:TrackPointExtension>
        </extensions>
      </trkpt>
      <trkpt lat="-22.0546525530517101287841796875" lon="166.449478380382061004638671875">
        <ele>862.20001220703125</ele>
        <time>2016-08-12T22:08:12.000Z</time>
        <extensions>
          <ns3:TrackPointExtension>
            <ns3:atemp>20.0</ns3:atemp>
            <ns3:hr>145</ns3:hr>
          </ns3:TrackPointExtension>
        </extensions>
      </trkpt>
      <trkpt lat="-22.05467090941965579986572265625" lon="166.44947444088757038116455078125">
        <ele>861.79998779296875</ele>
        <time>2016-08-12T22:08:13.000Z</time>
        <extensions>
          <ns3:TrackPointExtension>
            <ns3:atemp>20.0</ns3:atemp>
            <ns3:hr>145</ns3:hr>
          </ns3:TrackPointExtension>
        </extensions>
      </trkpt>
      <trkpt lat="-22.05469169653952121734619140625" lon="166.44946689717471599578857421875">
        <ele>861.5999755859375</ele>
        <time>2016-08-12T22:08:14.000Z</time>
        <extensions>
          <ns3:TrackPointExtension>
            <ns3:atemp>20.0</ns3:atemp>
            <ns3:hr>146</ns3:hr>
          </ns3:TrackPointExtension>
        </extensions>
      </trkpt>
      <trkpt lat="-22.05470745451748371124267578125" lon="166.449453569948673248291015625">
        <ele>862.20001220703125</ele>
        <time>2016-08-12T22:08:15.000Z</time>
        <extensions>
          <ns3:TrackPointExtension>
            <ns3:atemp>20.0</ns3:atemp>
            <ns3:hr>145</ns3:hr>
          </ns3:TrackPointExtension>
        </extensions>
      </trkpt>
      <trkpt lat="-22.054722122848033905029296875" lon="166.44943655468523502349853515625">
        <ele>862.79998779296875</ele>
        <time>2016-08-12T22:08:16.000Z</time>
        <extensions>
          <ns3:TrackPointExtension>
            <ns3:atemp>20.0</ns3:atemp>
            <ns3:hr>146</ns3:hr>
          </ns3:TrackPointExtension>
        </extensions>
      </trkpt>
      <trkpt lat="-22.0547397248446941375732421875" lon="166.44942029379308223724365234375">
        <ele>863</ele>
        <time>2016-08-12T22:08:17.000Z</time>
        <extensions>
          <ns3:TrackPointExtension>
            <ns3:atemp>20.0</ns3:atemp>
            <ns3:hr>146</ns3:hr>
          </ns3:TrackPointExtension>
        </extensions>
      </trkpt>
      <trkpt lat="-22.0547548122704029083251953125" lon="166.44939933903515338897705078125">
        <ele>862.4000244140625</ele>
        <time>2016-08-12T22:08:18.000Z</time>
        <extensions>
          <ns3:TrackPointExtension>
            <ns3:atemp>20.0</ns3:atemp>
            <ns3:hr>146</ns3:hr>
          </ns3:TrackPointExtension>
        </extensions>
      </trkpt>
      <trkpt lat="-22.05476646311581134796142578125" lon="166.44937167875468730926513671875">
        <ele>862.20001220703125</ele>
        <time>2016-08-12T22:08:19.000Z</time>
        <extensions>
          <ns3:TrackPointExtension>
            <ns3:atemp>20.0</ns3:atemp>
            <ns3:hr>146</ns3:hr>
          </ns3:TrackPointExtension>
        </extensions>
      </trkpt>
      <trkpt lat="-22.054775096476078033447265625" lon="166.44934787414968013763427734375">
        <ele>863</ele>
        <time>2016-08-12T22:08:20.000Z</time>
        <extensions>
          <ns3:TrackPointExtension>
            <ns3:atemp>20.0</ns3:atemp>
            <ns3:hr>147</ns3:hr>
          </ns3:TrackPointExtension>
        </extensions>
      </trkpt>
      <trkpt lat="-22.0547816343605518341064453125" lon="166.44932105205953121185302734375">
        <ele>863.4000244140625</ele>
        <time>2016-08-12T22:08:21.000Z</time>
        <extensions>
          <ns3:TrackPointExtension>
            <ns3:atemp>20.0</ns3:atemp>
            <ns3:hr>146</ns3:hr>
          </ns3:TrackPointExtension>
        </extensions>
      </trkpt>
      <trkpt lat="-22.0547866635024547576904296875" lon="166.44929758273065090179443359375">
        <ele>863.4000244140625</ele>
        <time>2016-08-12T22:08:22.000Z</time>
        <extensions>
          <ns3:TrackPointExtension>
            <ns3:atemp>20.0</ns3:atemp>
            <ns3:hr>147</ns3:hr>
          </ns3:TrackPointExtension>
        </extensions>
      </trkpt>
      <trkpt lat="-22.05479152500629425048828125" lon="166.4492730237543582916259765625">
        <ele>863</ele>
        <time>2016-08-12T22:08:23.000Z</time>
        <extensions>
          <ns3:TrackPointExtension>
            <ns3:atemp>20.0</ns3:atemp>
            <ns3:hr>147</ns3:hr>
          </ns3:TrackPointExtension>
        </extensions>
      </trkpt>
      <trkpt lat="-22.054799236357212066650390625" lon="166.44924729131162166595458984375">
        <ele>863.20001220703125</ele>
        <time>2016-08-12T22:08:24.000Z</time>
        <extensions>
          <ns3:TrackPointExtension>
            <ns3:atemp>20.0</ns3:atemp>
            <ns3:hr>146</ns3:hr>
          </ns3:TrackPointExtension>
        </extensions>
      </trkpt>
      <trkpt lat="-22.05480854026973247528076171875" lon="166.449223570525646209716796875">
        <ele>863.79998779296875</ele>
        <time>2016-08-12T22:08:25.000Z</time>
        <extensions>
          <ns3:TrackPointExtension>
            <ns3:atemp>20.0</ns3:atemp>
            <ns3:hr>147</ns3:hr>
          </ns3:TrackPointExtension>
        </extensions>
      </trkpt>
      <trkpt lat="-22.0548205263912677764892578125" lon="166.44919968210160732269287109375">
        <ele>863.4000244140625</ele>
        <time>2016-08-12T22:08:26.000Z</time>
        <extensions>
          <ns3:TrackPointExtension>
            <ns3:atemp>20.0</ns3:atemp>
            <ns3:hr>147</ns3:hr>
          </ns3:TrackPointExtension>
        </extensions>
      </trkpt>
      <trkpt lat="-22.0548322610557079315185546875" lon="166.4491774700582027435302734375">
        <ele>863</ele>
        <time>2016-08-12T22:08:27.000Z</time>
        <extensions>
          <ns3:TrackPointExtension>
            <ns3:atemp>20.0</ns3:atemp>
            <ns3:hr>147</ns3:hr>
          </ns3:TrackPointExtension>
        </extensions>
      </trkpt>
      <trkpt lat="-22.0548443309962749481201171875" lon="166.44915576092898845672607421875">
        <ele>863.5999755859375</ele>
        <time>2016-08-12T22:08:28.000Z</time>
        <extensions>
          <ns3:TrackPointExtension>
            <ns3:atemp>20.0</ns3:atemp>
            <ns3:hr>147</ns3:hr>
          </ns3:TrackPointExtension>
        </extensions>
      </trkpt>
      <trkpt lat="-22.05485966987907886505126953125" lon="166.44913614727556705474853515625">
        <ele>863.79998779296875</ele>
        <time>2016-08-12T22:08:29.000Z</time>
        <extensions>
          <ns3:TrackPointExtension>
            <ns3:atemp>20.0</ns3:atemp>
            <ns3:hr>147</ns3:hr>
          </ns3:TrackPointExtension>
        </extensions>
      </trkpt>
      <trkpt lat="-22.05487442202866077423095703125" lon="166.44911871291697025299072265625">
        <ele>863</ele>
        <time>2016-08-12T22:08:30.000Z</time>
        <extensions>
          <ns3:TrackPointExtension>
            <ns3:atemp>20.0</ns3:atemp>
            <ns3:hr>146</ns3:hr>
          </ns3:TrackPointExtension>
        </extensions>
      </trkpt>
      <trkpt lat="-22.054889760911464691162109375" lon="166.449103541672229766845703125">
        <ele>863</ele>
        <time>2016-08-12T22:08:31.000Z</time>
        <extensions>
          <ns3:TrackPointExtension>
            <ns3:atemp>20.0</ns3:atemp>
            <ns3:hr>146</ns3:hr>
          </ns3:TrackPointExtension>
        </extensions>
      </trkpt>
      <trkpt lat="-22.05490895546972751617431640625" lon="166.44908702932298183441162109375">
        <ele>863.4000244140625</ele>
        <time>2016-08-12T22:08:32.000Z</time>
        <extensions>
          <ns3:TrackPointExtension>
            <ns3:atemp>20.0</ns3:atemp>
            <ns3:hr>146</ns3:hr>
          </ns3:TrackPointExtension>
        </extensions>
      </trkpt>
      <trkpt lat="-22.05492856912314891815185546875" lon="166.449072025716304779052734375">
        <ele>862.79998779296875</ele>
        <time>2016-08-12T22:08:33.000Z</time>
        <extensions>
          <ns3:TrackPointExtension>
            <ns3:atemp>20.0</ns3:atemp>
            <ns3:hr>146</ns3:hr>
          </ns3:TrackPointExtension>
        </extensions>
      </trkpt>
      <trkpt lat="-22.05494298599660396575927734375" lon="166.44905433990061283111572265625">
        <ele>862.20001220703125</ele>
        <time>2016-08-12T22:08:34.000Z</time>
        <extensions>
          <ns3:TrackPointExtension>
            <ns3:atemp>20.0</ns3:atemp>
            <ns3:hr>146</ns3:hr>
          </ns3:TrackPointExtension>
        </extensions>
      </trkpt>
      <trkpt lat="-22.05495706759393215179443359375" lon="166.4490361511707305908203125">
        <ele>862.79998779296875</ele>
        <time>2016-08-12T22:08:35.000Z</time>
        <extensions>
          <ns3:TrackPointExtension>
            <ns3:atemp>20.0</ns3:atemp>
            <ns3:hr>146</ns3:hr>
          </ns3:TrackPointExtension>
        </extensions>
      </trkpt>
      <trkpt lat="-22.0549703948199748992919921875" lon="166.449019052088260650634765625">
        <ele>863.20001220703125</ele>
        <time>2016-08-12T22:08:36.000Z</time>
        <extensions>
          <ns3:TrackPointExtension>
            <ns3:atemp>20.0</ns3:atemp>
            <ns3:hr>145</ns3:hr>
          </ns3:TrackPointExtension>
        </extensions>
      </trkpt>
      <trkpt lat="-22.05498732626438140869140625" lon="166.44900103099644184112548828125">
        <ele>862.79998779296875</ele>
        <time>2016-08-12T22:08:37.000Z</time>
        <extensions>
          <ns3:TrackPointExtension>
            <ns3:atemp>20.0</ns3:atemp>
            <ns3:hr>145</ns3:hr>
          </ns3:TrackPointExtension>
        </extensions>
      </trkpt>
      <trkpt lat="-22.05500249750912189483642578125" lon="166.4489830099046230316162109375">
        <ele>862.5999755859375</ele>
        <time>2016-08-12T22:08:38.000Z</time>
        <extensions>
          <ns3:TrackPointExtension>
            <ns3:atemp>20.0</ns3:atemp>
            <ns3:hr>145</ns3:hr>
          </ns3:TrackPointExtension>
        </extensions>
      </trkpt>
      <trkpt lat="-22.0550153218209743499755859375" lon="166.44896348007023334503173828125">
        <ele>863</ele>
        <time>2016-08-12T22:08:39.000Z</time>
        <extensions>
          <ns3:TrackPointExtension>
            <ns3:atemp>20.0</ns3:atemp>
            <ns3:hr>145</ns3:hr>
          </ns3:TrackPointExtension>
        </extensions>
      </trkpt>
      <trkpt lat="-22.05503200180828571319580078125" lon="166.44894503988325595855712890625">
        <ele>863.5999755859375</ele>
        <time>2016-08-12T22:08:40.000Z</time>
        <extensions>
          <ns3:TrackPointExtension>
            <ns3:atemp>20.0</ns3:atemp>
            <ns3:hr>145</ns3:hr>
          </ns3:TrackPointExtension>
        </extensions>
      </trkpt>
      <trkpt lat="-22.0550465025007724761962890625" lon="166.44892827607691287994384765625">
        <ele>863</ele>
        <time>2016-08-12T22:08:41.000Z</time>
        <extensions>
          <ns3:TrackPointExtension>
            <ns3:atemp>20.0</ns3:atemp>
            <ns3:hr>145</ns3:hr>
          </ns3:TrackPointExtension>
        </extensions>
      </trkpt>
      <trkpt lat="-22.055064775049686431884765625" lon="166.4489139430224895477294921875">
        <ele>862.20001220703125</ele>
        <time>2016-08-12T22:08:42.000Z</time>
        <extensions>
          <ns3:TrackPointExtension>
            <ns3:atemp>20.0</ns3:atemp>
            <ns3:hr>144</ns3:hr>
          </ns3:TrackPointExtension>
        </extensions>
      </trkpt>
      <trkpt lat="-22.0550750009715557098388671875" lon="166.44890061579644680023193359375">
        <ele>862.5999755859375</ele>
        <time>2016-08-12T22:08:43.000Z</time>
        <extensions>
          <ns3:TrackPointExtension>
            <ns3:atemp>20.0</ns3:atemp>
            <ns3:hr>144</ns3:hr>
          </ns3:TrackPointExtension>
        </extensions>
      </trkpt>
      <trkpt lat="-22.05509235151112079620361328125" lon="166.44888619892299175262451171875">
        <ele>863.20001220703125</ele>
        <time>2016-08-12T22:08:44.000Z</time>
        <extensions>
          <ns3:TrackPointExtension>
            <ns3:atemp>20.0</ns3:atemp>
            <ns3:hr>144</ns3:hr>
          </ns3:TrackPointExtension>
        </extensions>
      </trkpt>
      <trkpt lat="-22.05511246807873249053955078125" lon="166.44887320697307586669921875">
        <ele>863.4000244140625</ele>
        <time>2016-08-12T22:08:45.000Z</time>
        <extensions>
          <ns3:TrackPointExtension>
            <ns3:atemp>20.0</ns3:atemp>
            <ns3:hr>144</ns3:hr>
          </ns3:TrackPointExtension>
        </extensions>
      </trkpt>
      <trkpt lat="-22.0551333390176296234130859375" lon="166.448857784271240234375">
        <ele>863.20001220703125</ele>
        <time>2016-08-12T22:08:46.000Z</time>
        <extensions>
          <ns3:TrackPointExtension>
            <ns3:atemp>20.0</ns3:atemp>
            <ns3:hr>144</ns3:hr>
          </ns3:TrackPointExtension>
        </extensions>
      </trkpt>
      <trkpt lat="-22.05515303649008274078369140625" lon="166.44884102046489715576171875">
        <ele>863.20001220703125</ele>
        <time>2016-08-12T22:08:47.000Z</time>
        <extensions>
          <ns3:TrackPointExtension>
            <ns3:atemp>20.0</ns3:atemp>
            <ns3:hr>144</ns3:hr>
          </ns3:TrackPointExtension>
        </extensions>
      </trkpt>
      <trkpt lat="-22.0551698841154575347900390625" lon="166.4488277770578861236572265625">
        <ele>864.20001220703125</ele>
        <time>2016-08-12T22:08:48.000Z</time>
        <extensions>
          <ns3:TrackPointExtension>
            <ns3:atemp>20.0</ns3:atemp>
            <ns3:hr>144</ns3:hr>
          </ns3:TrackPointExtension>
        </extensions>
      </trkpt>
      <trkpt lat="-22.05518924631178379058837890625" lon="166.4488183893263339996337890625">
        <ele>864.20001220703125</ele>
        <time>2016-08-12T22:08:49.000Z</time>
        <extensions>
          <ns3:TrackPointExtension>
            <ns3:atemp>20.0</ns3:atemp>
            <ns3:hr>144</ns3:hr>
          </ns3:TrackPointExtension>
        </extensions>
      </trkpt>
      <trkpt lat="-22.0552025735378265380859375" lon="166.44880774430930614471435546875">
        <ele>863.20001220703125</ele>
        <time>2016-08-12T22:08:50.000Z</time>
        <extensions>
          <ns3:TrackPointExtension>
            <ns3:atemp>20.0</ns3:atemp>
            <ns3:hr>143</ns3:hr>
          </ns3:TrackPointExtension>
        </extensions>
      </trkpt>
      <trkpt lat="-22.0552195049822330474853515625" lon="166.4487989433109760284423828125">
        <ele>863.20001220703125</ele>
        <time>2016-08-12T22:08:51.000Z</time>
        <extensions>
          <ns3:TrackPointExtension>
            <ns3:atemp>20.0</ns3:atemp>
            <ns3:hr>143</ns3:hr>
          </ns3:TrackPointExtension>
        </extensions>
      </trkpt>
      <trkpt lat="-22.05523970536887645721435546875" lon="166.44879542291164398193359375">
        <ele>864</ele>
        <time>2016-08-12T22:08:52.000Z</time>
        <extensions>
          <ns3:TrackPointExtension>
            <ns3:atemp>20.0</ns3:atemp>
            <ns3:hr>143</ns3:hr>
          </ns3:TrackPointExtension>
        </extensions>
      </trkpt>
      <trkpt lat="-22.0552583970129489898681640625" lon="166.4487915672361850738525390625">
        <ele>864</ele>
        <time>2016-08-12T22:08:53.000Z</time>
        <extensions>
          <ns3:TrackPointExtension>
            <ns3:atemp>20.0</ns3:atemp>
            <ns3:hr>143</ns3:hr>
          </ns3:TrackPointExtension>
        </extensions>
      </trkpt>
      <trkpt lat="-22.055282033979892730712890625" lon="166.4487919025123119354248046875">
        <ele>863.4000244140625</ele>
        <time>2016-08-12T22:08:54.000Z</time>
        <extensions>
          <ns3:TrackPointExtension>
            <ns3:atemp>20.0</ns3:atemp>
            <ns3:hr>143</ns3:hr>
          </ns3:TrackPointExtension>
        </extensions>
      </trkpt>
      <trkpt lat="-22.0553018152713775634765625" lon="166.44879131577908992767333984375">
        <ele>862.79998779296875</ele>
        <time>2016-08-12T22:08:55.000Z</time>
        <extensions>
          <ns3:TrackPointExtension>
            <ns3:atemp>20.0</ns3:atemp>
            <ns3:hr>143</ns3:hr>
          </ns3:TrackPointExtension>
        </extensions>
      </trkpt>
      <trkpt lat="-22.05532050691545009613037109375" lon="166.4487878791987895965576171875">
        <ele>863.20001220703125</ele>
        <time>2016-08-12T22:08:56.000Z</time>
        <extensions>
          <ns3:TrackPointExtension>
            <ns3:atemp>20.0</ns3:atemp>
            <ns3:hr>143</ns3:hr>
          </ns3:TrackPointExtension>
        </extensions>
      </trkpt>
      <trkpt lat="-22.0553435571491718292236328125" lon="166.44878360442817211151123046875">
        <ele>863.5999755859375</ele>
        <time>2016-08-12T22:08:57.000Z</time>
        <extensions>
          <ns3:TrackPointExtension>
            <ns3:atemp>20.0</ns3:atemp>
            <ns3:hr>142</ns3:hr>
          </ns3:TrackPointExtension>
        </extensions>
      </trkpt>
      <trkpt lat="-22.0553640089929103851318359375" lon="166.4487774856388568878173828125">
        <ele>863.5999755859375</ele>
        <time>2016-08-12T22:08:58.000Z</time>
        <extensions>
          <ns3:TrackPointExtension>
            <ns3:atemp>20.0</ns3:atemp>
            <ns3:hr>142</ns3:hr>
          </ns3:TrackPointExtension>
        </extensions>
      </trkpt>
      <trkpt lat="-22.0553834550082683563232421875" lon="166.44876684062182903289794921875">
        <ele>863.20001220703125</ele>
        <time>2016-08-12T22:08:59.000Z</time>
        <extensions>
          <ns3:TrackPointExtension>
            <ns3:atemp>20.0</ns3:atemp>
            <ns3:hr>142</ns3:hr>
          </ns3:TrackPointExtension>
        </extensions>
      </trkpt>
      <trkpt lat="-22.0554029010236263275146484375" lon="166.4487496577203273773193359375">
        <ele>863.5999755859375</ele>
        <time>2016-08-12T22:09:00.000Z</time>
        <extensions>
          <ns3:TrackPointExtension>
            <ns3:atemp>20.0</ns3:atemp>
            <ns3:hr>142</ns3:hr>
          </ns3:TrackPointExtension>
        </extensions>
      </trkpt>
      <trkpt lat="-22.0554236881434917449951171875" lon="166.44873113371431827545166015625">
        <ele>864</ele>
        <time>2016-08-12T22:09:01.000Z</time>
        <extensions>
          <ns3:TrackPointExtension>
            <ns3:atemp>20.0</ns3:atemp>
            <ns3:hr>142</ns3:hr>
          </ns3:TrackPointExtension>
        </extensions>
      </trkpt>
      <trkpt lat="-22.05544740892946720123291015625" lon="166.4487094245851039886474609375">
        <ele>863.79998779296875</ele>
        <time>2016-08-12T22:09:02.000Z</time>
        <extensions>
          <ns3:TrackPointExtension>
            <ns3:atemp>20.0</ns3:atemp>
            <ns3:hr>142</ns3:hr>
          </ns3:TrackPointExtension>
        </extensions>
      </trkpt>
      <trkpt lat="-22.05547020770609378814697265625" lon="166.4486896432936191558837890625">
        <ele>863.20001220703125</ele>
        <time>2016-08-12T22:09:03.000Z</time>
        <extensions>
          <ns3:TrackPointExtension>
            <ns3:atemp>20.0</ns3:atemp>
            <ns3:hr>142</ns3:hr>
          </ns3:TrackPointExtension>
        </extensions>
      </trkpt>
      <trkpt lat="-22.055489234626293182373046875" lon="166.44866961054503917694091796875">
        <ele>863.20001220703125</ele>
        <time>2016-08-12T22:09:04.000Z</time>
        <extensions>
          <ns3:TrackPointExtension>
            <ns3:atemp>20.0</ns3:atemp>
            <ns3:hr>142</ns3:hr>
          </ns3:TrackPointExtension>
        </extensions>
      </trkpt>
      <trkpt lat="-22.05550608225166797637939453125" lon="166.4486470632255077362060546875">
        <ele>863.79998779296875</ele>
        <time>2016-08-12T22:09:05.000Z</time>
        <extensions>
          <ns3:TrackPointExtension>
            <ns3:atemp>20.0</ns3:atemp>
            <ns3:hr>141</ns3:hr>
          </ns3:TrackPointExtension>
        </extensions>
      </trkpt>
      <trkpt lat="-22.05552217550575733184814453125" lon="166.44862711429595947265625">
        <ele>864</ele>
        <time>2016-08-12T22:09:06.000Z</time>
        <extensions>
          <ns3:TrackPointExtension>
            <ns3:atemp>20.0</ns3:atemp>
            <ns3:hr>141</ns3:hr>
          </ns3:TrackPointExtension>
        </extensions>
      </trkpt>
      <trkpt lat="-22.05553759820759296417236328125" lon="166.4486044831573963165283203125">
        <ele>863.79998779296875</ele>
        <time>2016-08-12T22:09:07.000Z</time>
        <extensions>
          <ns3:TrackPointExtension>
            <ns3:atemp>20.0</ns3:atemp>
            <ns3:hr>141</ns3:hr>
          </ns3:TrackPointExtension>
        </extensions>
      </trkpt>
      <trkpt lat="-22.05555352382361888885498046875" lon="166.44858428277075290679931640625">
        <ele>863.79998779296875</ele>
        <time>2016-08-12T22:09:08.000Z</time>
        <extensions>
          <ns3:TrackPointExtension>
            <ns3:atemp>20.0</ns3:atemp>
            <ns3:hr>141</ns3:hr>
          </ns3:TrackPointExtension>
        </extensions>
      </trkpt>
      <trkpt lat="-22.0555715449154376983642578125" lon="166.4485632441937923431396484375">
        <ele>864.20001220703125</ele>
        <time>2016-08-12T22:09:09.000Z</time>
        <extensions>
          <ns3:TrackPointExtension>
            <ns3:atemp>20.0</ns3:atemp>
            <ns3:hr>141</ns3:hr>
          </ns3:TrackPointExtension>
        </extensions>
      </trkpt>
      <trkpt lat="-22.055590152740478515625" lon="166.4485421217978000640869140625">
        <ele>864.79998779296875</ele>
        <time>2016-08-12T22:09:10.000Z</time>
        <extensions>
          <ns3:TrackPointExtension>
            <ns3:atemp>20.0</ns3:atemp>
            <ns3:hr>141</ns3:hr>
          </ns3:TrackPointExtension>
        </extensions>
      </trkpt>
      <trkpt lat="-22.05560750328004360198974609375" lon="166.448522508144378662109375">
        <ele>864.79998779296875</ele>
        <time>2016-08-12T22:09:11.000Z</time>
        <extensions>
          <ns3:TrackPointExtension>
            <ns3:atemp>20.0</ns3:atemp>
            <ns3:hr>141</ns3:hr>
          </ns3:TrackPointExtension>
        </extensions>
      </trkpt>
      <trkpt lat="-22.05562510527670383453369140625" lon="166.448501385748386383056640625">
        <ele>864.20001220703125</ele>
        <time>2016-08-12T22:09:12.000Z</time>
        <extensions>
          <ns3:TrackPointExtension>
            <ns3:atemp>20.0</ns3:atemp>
            <ns3:hr>141</ns3:hr>
          </ns3:TrackPointExtension>
        </extensions>
      </trkpt>
      <trkpt lat="-22.05563910305500030517578125" lon="166.448484957218170166015625">
        <ele>864.20001220703125</ele>
        <time>2016-08-12T22:09:13.000Z</time>
        <extensions>
          <ns3:TrackPointExtension>
            <ns3:atemp>20.0</ns3:atemp>
            <ns3:hr>141</ns3:hr>
          </ns3:TrackPointExtension>
        </extensions>
      </trkpt>
      <trkpt lat="-22.05565712414681911468505859375" lon="166.44846928305923938751220703125">
        <ele>864.79998779296875</ele>
        <time>2016-08-12T22:09:14.000Z</time>
        <extensions>
          <ns3:TrackPointExtension>
            <ns3:atemp>20.0</ns3:atemp>
            <ns3:hr>141</ns3:hr>
          </ns3:TrackPointExtension>
        </extensions>
      </trkpt>
      <trkpt lat="-22.05566919408738613128662109375" lon="166.44844941794872283935546875">
        <ele>865.20001220703125</ele>
        <time>2016-08-12T22:09:15.000Z</time>
        <extensions>
          <ns3:TrackPointExtension>
            <ns3:atemp>20.0</ns3:atemp>
            <ns3:hr>141</ns3:hr>
          </ns3:TrackPointExtension>
        </extensions>
      </trkpt>
      <trkpt lat="-22.05568009056150913238525390625" lon="166.448427625000476837158203125">
        <ele>865</ele>
        <time>2016-08-12T22:09:16.000Z</time>
        <extensions>
          <ns3:TrackPointExtension>
            <ns3:atemp>20.0</ns3:atemp>
            <ns3:hr>140</ns3:hr>
          </ns3:TrackPointExtension>
        </extensions>
      </trkpt>
      <trkpt lat="-22.05569366924464702606201171875" lon="166.44840373657643795013427734375">
        <ele>864.79998779296875</ele>
        <time>2016-08-12T22:09:17.000Z</time>
        <extensions>
          <ns3:TrackPointExtension>
            <ns3:atemp>20.0</ns3:atemp>
            <ns3:hr>141</ns3:hr>
          </ns3:TrackPointExtension>
        </extensions>
      </trkpt>
      <trkpt lat="-22.0557053200900554656982421875" lon="166.44838110543787479400634765625">
        <ele>864.79998779296875</ele>
        <time>2016-08-12T22:09:18.000Z</time>
        <extensions>
          <ns3:TrackPointExtension>
            <ns3:atemp>20.0</ns3:atemp>
            <ns3:hr>140</ns3:hr>
          </ns3:TrackPointExtension>
        </extensions>
      </trkpt>
      <trkpt lat="-22.05572091042995452880859375" lon="166.448360569775104522705078125">
        <ele>865.4000244140625</ele>
        <time>2016-08-12T22:09:19.000Z</time>
        <extensions>
          <ns3:TrackPointExtension>
            <ns3:atemp>20.0</ns3:atemp>
            <ns3:hr>140</ns3:hr>
          </ns3:TrackPointExtension>
        </extensions>
      </trkpt>
      <trkpt lat="-22.05573189072310924530029296875" lon="166.4483365975320339202880859375">
        <ele>865.5999755859375</ele>
        <time>2016-08-12T22:09:20.000Z</time>
        <extensions>
          <ns3:TrackPointExtension>
            <ns3:atemp>20.0</ns3:atemp>
            <ns3:hr>140</ns3:hr>
          </ns3:TrackPointExtension>
        </extensions>
      </trkpt>
      <trkpt lat="-22.05573189072310924530029296875" lon="166.4483151398599147796630859375">
        <ele>865.79998779296875</ele>
        <time>2016-08-12T22:09:21.000Z</time>
        <extensions>
          <ns3:TrackPointExtension>
            <ns3:atemp>20.0</ns3:atemp>
            <ns3:hr>141</ns3:hr>
          </ns3:TrackPointExtension>
        </extensions>
      </trkpt>
      <trkpt lat="-22.0557328127324581146240234375" lon="166.44828974269330501556396484375">
        <ele>865.4000244140625</ele>
        <time>2016-08-12T22:09:22.000Z</time>
        <extensions>
          <ns3:TrackPointExtension>
            <ns3:atemp>20.0</ns3:atemp>
            <ns3:hr>141</ns3:hr>
          </ns3:TrackPointExtension>
        </extensions>
      </trkpt>
      <trkpt lat="-22.0557371713221073150634765625" lon="166.4482638426125049591064453125">
        <ele>865.4000244140625</ele>
        <time>2016-08-12T22:09:23.000Z</time>
        <extensions>
          <ns3:TrackPointExtension>
            <ns3:atemp>20.0</ns3:atemp>
            <ns3:hr>141</ns3:hr>
          </ns3:TrackPointExtension>
        </extensions>
      </trkpt>
      <trkpt lat="-22.05574044026434421539306640625" lon="166.448238193988800048828125">
        <ele>866</ele>
        <time>2016-08-12T22:09:24.000Z</time>
        <extensions>
          <ns3:TrackPointExtension>
            <ns3:atemp>20.0</ns3:atemp>
            <ns3:hr>141</ns3:hr>
          </ns3:TrackPointExtension>
        </extensions>
      </trkpt>
      <trkpt lat="-22.0557388477027416229248046875" lon="166.44820961169898509979248046875">
        <ele>866.4000244140625</ele>
        <time>2016-08-12T22:09:25.000Z</time>
        <extensions>
          <ns3:TrackPointExtension>
            <ns3:atemp>20.0</ns3:atemp>
            <ns3:hr>141</ns3:hr>
          </ns3:TrackPointExtension>
        </extensions>
      </trkpt>
      <trkpt lat="-22.05573708750307559967041015625" lon="166.44818128086626529693603515625">
        <ele>866</ele>
        <time>2016-08-12T22:09:26.000Z</time>
        <extensions>
          <ns3:TrackPointExtension>
            <ns3:atemp>20.0</ns3:atemp>
            <ns3:hr>142</ns3:hr>
          </ns3:TrackPointExtension>
        </extensions>
      </trkpt>
      <trkpt lat="-22.0557358302175998687744140625" lon="166.4481508545577526092529296875">
        <ele>865.79998779296875</ele>
        <time>2016-08-12T22:09:27.000Z</time>
        <extensions>
          <ns3:TrackPointExtension>
            <ns3:atemp>20.0</ns3:atemp>
            <ns3:hr>141</ns3:hr>
          </ns3:TrackPointExtension>
        </extensions>
      </trkpt>
      <trkpt lat="-22.05573440529406070709228515625" lon="166.44812512211501598358154296875">
        <ele>866.4000244140625</ele>
        <time>2016-08-12T22:09:28.000Z</time>
        <extensions>
          <ns3:TrackPointExtension>
            <ns3:atemp>20.0</ns3:atemp>
            <ns3:hr>142</ns3:hr>
          </ns3:TrackPointExtension>
        </extensions>
      </trkpt>
      <trkpt lat="-22.05572904087603092193603515625" lon="166.44810014404356479644775390625">
        <ele>866.79998779296875</ele>
        <time>2016-08-12T22:09:29.000Z</time>
        <extensions>
          <ns3:TrackPointExtension>
            <ns3:atemp>20.0</ns3:atemp>
            <ns3:hr>141</ns3:hr>
          </ns3:TrackPointExtension>
        </extensions>
      </trkpt>
      <trkpt lat="-22.055721916258335113525390625" lon="166.44807659089565277099609375">
        <ele>866.5999755859375</ele>
        <time>2016-08-12T22:09:30.000Z</time>
        <extensions>
          <ns3:TrackPointExtension>
            <ns3:atemp>20.0</ns3:atemp>
            <ns3:hr>142</ns3:hr>
          </ns3:TrackPointExtension>
        </extensions>
      </trkpt>
      <trkpt lat="-22.05571227706968784332275390625" lon="166.44805672578513622283935546875">
        <ele>866.79998779296875</ele>
        <time>2016-08-12T22:09:31.000Z</time>
        <extensions>
          <ns3:TrackPointExtension>
            <ns3:atemp>20.0</ns3:atemp>
            <ns3:hr>142</ns3:hr>
          </ns3:TrackPointExtension>
        </extensions>
      </trkpt>
      <trkpt lat="-22.05570456571877002716064453125" lon="166.4480321668088436126708984375">
        <ele>867.20001220703125</ele>
        <time>2016-08-12T22:09:32.000Z</time>
        <extensions>
          <ns3:TrackPointExtension>
            <ns3:atemp>20.0</ns3:atemp>
            <ns3:hr>142</ns3:hr>
          </ns3:TrackPointExtension>
        </extensions>
      </trkpt>
      <trkpt lat="-22.05569945275783538818359375" lon="166.4480080269277095794677734375">
        <ele>867.79998779296875</ele>
        <time>2016-08-12T22:09:33.000Z</time>
        <extensions>
          <ns3:TrackPointExtension>
            <ns3:atemp>20.0</ns3:atemp>
            <ns3:hr>142</ns3:hr>
          </ns3:TrackPointExtension>
        </extensions>
      </trkpt>
      <trkpt lat="-22.0556989498436450958251953125" lon="166.4479852281510829925537109375">
        <ele>867.5999755859375</ele>
        <time>2016-08-12T22:09:34.000Z</time>
        <extensions>
          <ns3:TrackPointExtension>
            <ns3:atemp>20.0</ns3:atemp>
            <ns3:hr>141</ns3:hr>
          </ns3:TrackPointExtension>
        </extensions>
      </trkpt>
      <trkpt lat="-22.0557009615004062652587890625" lon="166.44795991480350494384765625">
        <ele>867.5999755859375</ele>
        <time>2016-08-12T22:09:35.000Z</time>
        <extensions>
          <ns3:TrackPointExtension>
            <ns3:atemp>20.0</ns3:atemp>
            <ns3:hr>142</ns3:hr>
          </ns3:TrackPointExtension>
        </extensions>
      </trkpt>
      <trkpt lat="-22.05570255406200885772705078125" lon="166.4479352720081806182861328125">
        <ele>867.79998779296875</ele>
        <time>2016-08-12T22:09:36.000Z</time>
        <extensions>
          <ns3:TrackPointExtension>
            <ns3:atemp>20.0</ns3:atemp>
            <ns3:hr>141</ns3:hr>
          </ns3:TrackPointExtension>
        </extensions>
      </trkpt>
      <trkpt lat="-22.0557009615004062652587890625" lon="166.44791188649833202362060546875">
        <ele>868.20001220703125</ele>
        <time>2016-08-12T22:09:37.000Z</time>
        <extensions>
          <ns3:TrackPointExtension>
            <ns3:atemp>20.0</ns3:atemp>
            <ns3:hr>142</ns3:hr>
          </ns3:TrackPointExtension>
        </extensions>
      </trkpt>
      <trkpt lat="-22.0556999556720256805419921875" lon="166.4478881657123565673828125">
        <ele>868.20001220703125</ele>
        <time>2016-08-12T22:09:38.000Z</time>
        <extensions>
          <ns3:TrackPointExtension>
            <ns3:atemp>20.0</ns3:atemp>
            <ns3:hr>142</ns3:hr>
          </ns3:TrackPointExtension>
        </extensions>
      </trkpt>
      <trkpt lat="-22.055700123310089111328125" lon="166.4478651992976665496826171875">
        <ele>868</ele>
        <time>2016-08-12T22:09:39.000Z</time>
        <extensions>
          <ns3:TrackPointExtension>
            <ns3:atemp>20.0</ns3:atemp>
            <ns3:hr>142</ns3:hr>
          </ns3:TrackPointExtension>
        </extensions>
      </trkpt>
      <trkpt lat="-22.0557019673287868499755859375" lon="166.447841562330722808837890625">
        <ele>868.20001220703125</ele>
        <time>2016-08-12T22:09:40.000Z</time>
        <extensions>
          <ns3:TrackPointExtension>
            <ns3:atemp>20.0</ns3:atemp>
            <ns3:hr>142</ns3:hr>
          </ns3:TrackPointExtension>
        </extensions>
      </trkpt>
      <trkpt lat="-22.05570087768137454986572265625" lon="166.4478199370205402374267578125">
        <ele>868.20001220703125</ele>
        <time>2016-08-12T22:09:41.000Z</time>
        <extensions>
          <ns3:TrackPointExtension>
            <ns3:atemp>20.0</ns3:atemp>
            <ns3:hr>142</ns3:hr>
          </ns3:TrackPointExtension>
        </extensions>
      </trkpt>
      <trkpt lat="-22.055705487728118896484375" lon="166.44779705442488193511962890625">
        <ele>867.79998779296875</ele>
        <time>2016-08-12T22:09:42.000Z</time>
        <extensions>
          <ns3:TrackPointExtension>
            <ns3:atemp>20.0</ns3:atemp>
            <ns3:hr>142</ns3:hr>
          </ns3:TrackPointExtension>
        </extensions>
      </trkpt>
      <trkpt lat="-22.0557033084332942962646484375" lon="166.4477743394672870635986328125">
        <ele>867.79998779296875</ele>
        <time>2016-08-12T22:09:43.000Z</time>
        <extensions>
          <ns3:TrackPointExtension>
            <ns3:atemp>20.0</ns3:atemp>
            <ns3:hr>142</ns3:hr>
          </ns3:TrackPointExtension>
        </extensions>
      </trkpt>
      <trkpt lat="-22.05570221878588199615478515625" lon="166.4477522112429141998291015625">
        <ele>868.4000244140625</ele>
        <time>2016-08-12T22:09:44.000Z</time>
        <extensions>
          <ns3:TrackPointExtension>
            <ns3:atemp>20.0</ns3:atemp>
            <ns3:hr>142</ns3:hr>
          </ns3:TrackPointExtension>
        </extensions>
      </trkpt>
      <trkpt lat="-22.05569853074848651885986328125" lon="166.44772681407630443572998046875">
        <ele>868.5999755859375</ele>
        <time>2016-08-12T22:09:45.000Z</time>
        <extensions>
          <ns3:TrackPointExtension>
            <ns3:atemp>20.0</ns3:atemp>
            <ns3:hr>143</ns3:hr>
          </ns3:TrackPointExtension>
        </extensions>
      </trkpt>
      <trkpt lat="-22.0556959323585033416748046875" lon="166.44770401529967784881591796875">
        <ele>868.5999755859375</ele>
        <time>2016-08-12T22:09:46.000Z</time>
        <extensions>
          <ns3:TrackPointExtension>
            <ns3:atemp>20.0</ns3:atemp>
            <ns3:hr>142</ns3:hr>
          </ns3:TrackPointExtension>
        </extensions>
      </trkpt>
      <trkpt lat="-22.05569216050207614898681640625" lon="166.44767870195209980010986328125">
        <ele>868.20001220703125</ele>
        <time>2016-08-12T22:09:47.000Z</time>
        <extensions>
          <ns3:TrackPointExtension>
            <ns3:atemp>20.0</ns3:atemp>
            <ns3:hr>142</ns3:hr>
          </ns3:TrackPointExtension>
        </extensions>
      </trkpt>
      <trkpt lat="-22.05568830482661724090576171875" lon="166.44765548408031463623046875">
        <ele>868.79998779296875</ele>
        <time>2016-08-12T22:09:48.000Z</time>
        <extensions>
          <ns3:TrackPointExtension>
            <ns3:atemp>20.0</ns3:atemp>
            <ns3:hr>143</ns3:hr>
          </ns3:TrackPointExtension>
        </extensions>
      </trkpt>
      <trkpt lat="-22.05568361096084117889404296875" lon="166.4476355351507663726806640625">
        <ele>869.20001220703125</ele>
        <time>2016-08-12T22:09:49.000Z</time>
        <extensions>
          <ns3:TrackPointExtension>
            <ns3:atemp>20.0</ns3:atemp>
            <ns3:hr>142</ns3:hr>
          </ns3:TrackPointExtension>
        </extensions>
      </trkpt>
      <trkpt lat="-22.05568872392177581787109375" lon="166.4476140774786472320556640625">
        <ele>869</ele>
        <time>2016-08-12T22:09:50.000Z</time>
        <extensions>
          <ns3:TrackPointExtension>
            <ns3:atemp>20.0</ns3:atemp>
            <ns3:hr>143</ns3:hr>
          </ns3:TrackPointExtension>
        </extensions>
      </trkpt>
      <trkpt lat="-22.0556862093508243560791015625" lon="166.44759404473006725311279296875">
        <ele>868.79998779296875</ele>
        <time>2016-08-12T22:09:51.000Z</time>
        <extensions>
          <ns3:TrackPointExtension>
            <ns3:atemp>20.0</ns3:atemp>
            <ns3:hr>142</ns3:hr>
          </ns3:TrackPointExtension>
        </extensions>
      </trkpt>
      <trkpt lat="-22.05568872392177581787109375" lon="166.44757107831537723541259765625">
        <ele>869.5999755859375</ele>
        <time>2016-08-12T22:09:52.000Z</time>
        <extensions>
          <ns3:TrackPointExtension>
            <ns3:atemp>20.0</ns3:atemp>
            <ns3:hr>143</ns3:hr>
          </ns3:TrackPointExtension>
        </extensions>
      </trkpt>
      <trkpt lat="-22.0556949265301227569580078125" lon="166.44754710607230663299560546875">
        <ele>869.79998779296875</ele>
        <time>2016-08-12T22:09:53.000Z</time>
        <extensions>
          <ns3:TrackPointExtension>
            <ns3:atemp>20.0</ns3:atemp>
            <ns3:hr>143</ns3:hr>
          </ns3:TrackPointExtension>
        </extensions>
      </trkpt>
      <trkpt lat="-22.0556989498436450958251953125" lon="166.447525732219219207763671875">
        <ele>869.79998779296875</ele>
        <time>2016-08-12T22:09:54.000Z</time>
        <extensions>
          <ns3:TrackPointExtension>
            <ns3:atemp>20.0</ns3:atemp>
            <ns3:hr>142</ns3:hr>
          </ns3:TrackPointExtension>
        </extensions>
      </trkpt>
      <trkpt lat="-22.05570389516651630401611328125" lon="166.4475031010806560516357421875">
        <ele>869.4000244140625</ele>
        <time>2016-08-12T22:09:55.000Z</time>
        <extensions>
          <ns3:TrackPointExtension>
            <ns3:atemp>20.0</ns3:atemp>
            <ns3:hr>143</ns3:hr>
          </ns3:TrackPointExtension>
        </extensions>
      </trkpt>
      <trkpt lat="-22.0557081699371337890625" lon="166.44748155958950519561767578125">
        <ele>870.20001220703125</ele>
        <time>2016-08-12T22:09:56.000Z</time>
        <extensions>
          <ns3:TrackPointExtension>
            <ns3:atemp>20.0</ns3:atemp>
            <ns3:hr>142</ns3:hr>
          </ns3:TrackPointExtension>
        </extensions>
      </trkpt>
      <trkpt lat="-22.05571554601192474365234375" lon="166.447462029755115509033203125">
        <ele>870.79998779296875</ele>
        <time>2016-08-12T22:09:57.000Z</time>
        <extensions>
          <ns3:TrackPointExtension>
            <ns3:atemp>20.0</ns3:atemp>
            <ns3:hr>142</ns3:hr>
          </ns3:TrackPointExtension>
        </extensions>
      </trkpt>
      <trkpt lat="-22.05572267062962055206298828125" lon="166.44744082354009151458740234375">
        <ele>870.5999755859375</ele>
        <time>2016-08-12T22:09:58.000Z</time>
        <extensions>
          <ns3:TrackPointExtension>
            <ns3:atemp>20.0</ns3:atemp>
            <ns3:hr>143</ns3:hr>
          </ns3:TrackPointExtension>
        </extensions>
      </trkpt>
      <trkpt lat="-22.05573155544698238372802734375" lon="166.4474209584295749664306640625">
        <ele>870.4000244140625</ele>
        <time>2016-08-12T22:09:59.000Z</time>
        <extensions>
          <ns3:TrackPointExtension>
            <ns3:atemp>20.0</ns3:atemp>
            <ns3:hr>142</ns3:hr>
          </ns3:TrackPointExtension>
        </extensions>
      </trkpt>
      <trkpt lat="-22.0557425357401371002197265625" lon="166.4473995007574558258056640625">
        <ele>870.5999755859375</ele>
        <time>2016-08-12T22:10:00.000Z</time>
        <extensions>
          <ns3:TrackPointExtension>
            <ns3:atemp>20.0</ns3:atemp>
            <ns3:hr>143</ns3:hr>
          </ns3:TrackPointExtension>
        </extensions>
      </trkpt>
      <trkpt lat="-22.05574731342494487762451171875" lon="166.44737645052373409271240234375">
        <ele>870.79998779296875</ele>
        <time>2016-08-12T22:10:01.000Z</time>
        <extensions>
          <ns3:TrackPointExtension>
            <ns3:atemp>20.0</ns3:atemp>
            <ns3:hr>142</ns3:hr>
          </ns3:TrackPointExtension>
        </extensions>
      </trkpt>
      <trkpt lat="-22.05574982799589633941650390625" lon="166.44735314883291721343994140625">
        <ele>870.5999755859375</ele>
        <time>2016-08-12T22:10:02.000Z</time>
        <extensions>
          <ns3:TrackPointExtension>
            <ns3:atemp>20.0</ns3:atemp>
            <ns3:hr>142</ns3:hr>
          </ns3:TrackPointExtension>
        </extensions>
      </trkpt>
      <trkpt lat="-22.0557525940239429473876953125" lon="166.44732967950403690338134765625">
        <ele>870.79998779296875</ele>
        <time>2016-08-12T22:10:03.000Z</time>
        <extensions>
          <ns3:TrackPointExtension>
            <ns3:atemp>20.0</ns3:atemp>
            <ns3:hr>143</ns3:hr>
          </ns3:TrackPointExtension>
        </extensions>
      </trkpt>
      <trkpt lat="-22.05575100146234035491943359375" lon="166.44730688072741031646728515625">
        <ele>871.4000244140625</ele>
        <time>2016-08-12T22:10:04.000Z</time>
        <extensions>
          <ns3:TrackPointExtension>
            <ns3:atemp>20.0</ns3:atemp>
            <ns3:hr>142</ns3:hr>
          </ns3:TrackPointExtension>
        </extensions>
      </trkpt>
      <trkpt lat="-22.05575049854815006256103515625" lon="166.4472828246653079986572265625">
        <ele>872.20001220703125</ele>
        <time>2016-08-12T22:10:05.000Z</time>
        <extensions>
          <ns3:TrackPointExtension>
            <ns3:atemp>20.0</ns3:atemp>
            <ns3:hr>143</ns3:hr>
          </ns3:TrackPointExtension>
        </extensions>
      </trkpt>
      <trkpt lat="-22.05574898980557918548583984375" lon="166.44725893624126911163330078125">
        <ele>874.4000244140625</ele>
        <time>2016-08-12T22:10:06.000Z</time>
        <extensions>
          <ns3:TrackPointExtension>
            <ns3:atemp>20.0</ns3:atemp>
            <ns3:hr>142</ns3:hr>
          </ns3:TrackPointExtension>
        </extensions>
      </trkpt>
      <trkpt lat="-22.055744715034961700439453125" lon="166.4472338743507862091064453125">
        <ele>877.20001220703125</ele>
        <time>2016-08-12T22:10:07.000Z</time>
        <extensions>
          <ns3:TrackPointExtension>
            <ns3:atemp>20.0</ns3:atemp>
            <ns3:hr>142</ns3:hr>
          </ns3:TrackPointExtension>
        </extensions>
      </trkpt>
      <trkpt lat="-22.05573792569339275360107421875" lon="166.44720713607966899871826171875">
        <ele>878.79998779296875</ele>
        <time>2016-08-12T22:10:08.000Z</time>
        <extensions>
          <ns3:TrackPointExtension>
            <ns3:atemp>20.0</ns3:atemp>
            <ns3:hr>143</ns3:hr>
          </ns3:TrackPointExtension>
        </extensions>
      </trkpt>
      <trkpt lat="-22.0557318069040775299072265625" lon="166.44718299619853496551513671875">
        <ele>879.79998779296875</ele>
        <time>2016-08-12T22:10:09.000Z</time>
        <extensions>
          <ns3:TrackPointExtension>
            <ns3:atemp>20.0</ns3:atemp>
            <ns3:hr>143</ns3:hr>
          </ns3:TrackPointExtension>
        </extensions>
      </trkpt>
      <trkpt lat="-22.055724598467350006103515625" lon="166.447157599031925201416015625">
        <ele>880</ele>
        <time>2016-08-12T22:10:10.000Z</time>
        <extensions>
          <ns3:TrackPointExtension>
            <ns3:atemp>20.0</ns3:atemp>
            <ns3:hr>143</ns3:hr>
          </ns3:TrackPointExtension>
        </extensions>
      </trkpt>
      <trkpt lat="-22.05572149716317653656005859375" lon="166.4471317827701568603515625">
        <ele>880</ele>
        <time>2016-08-12T22:10:11.000Z</time>
        <extensions>
          <ns3:TrackPointExtension>
            <ns3:atemp>20.0</ns3:atemp>
            <ns3:hr>143</ns3:hr>
          </ns3:TrackPointExtension>
        </extensions>
      </trkpt>
      <trkpt lat="-22.05571445636451244354248046875" lon="166.44710906781256198883056640625">
        <ele>880.20001220703125</ele>
        <time>2016-08-12T22:10:12.000Z</time>
        <extensions>
          <ns3:TrackPointExtension>
            <ns3:atemp>20.0</ns3:atemp>
            <ns3:hr>143</ns3:hr>
          </ns3:TrackPointExtension>
        </extensions>
      </trkpt>
      <trkpt lat="-22.05570540390908718109130859375" lon="166.4470850117504596710205078125">
        <ele>880.79998779296875</ele>
        <time>2016-08-12T22:10:13.000Z</time>
        <extensions>
          <ns3:TrackPointExtension>
            <ns3:atemp>20.0</ns3:atemp>
            <ns3:hr>144</ns3:hr>
          </ns3:TrackPointExtension>
        </extensions>
      </trkpt>
      <trkpt lat="-22.05569886602461338043212890625" lon="166.44706447608768939971923828125">
        <ele>880.79998779296875</ele>
        <time>2016-08-12T22:10:14.000Z</time>
        <extensions>
          <ns3:TrackPointExtension>
            <ns3:atemp>20.0</ns3:atemp>
            <ns3:hr>143</ns3:hr>
          </ns3:TrackPointExtension>
        </extensions>
      </trkpt>
      <trkpt lat="-22.05568964593112468719482421875" lon="166.447041593492031097412109375">
        <ele>880.5999755859375</ele>
        <time>2016-08-12T22:10:15.000Z</time>
        <extensions>
          <ns3:TrackPointExtension>
            <ns3:atemp>20.0</ns3:atemp>
            <ns3:hr>143</ns3:hr>
          </ns3:TrackPointExtension>
        </extensions>
      </trkpt>
      <trkpt lat="-22.05567942000925540924072265625" lon="166.44701485522091388702392578125">
        <ele>880.5999755859375</ele>
        <time>2016-08-12T22:10:16.000Z</time>
        <extensions>
          <ns3:TrackPointExtension>
            <ns3:atemp>20.0</ns3:atemp>
            <ns3:hr>143</ns3:hr>
          </ns3:TrackPointExtension>
        </extensions>
      </trkpt>
      <trkpt lat="-22.055669613182544708251953125" lon="166.4469887875020503997802734375">
        <ele>881</ele>
        <time>2016-08-12T22:10:17.000Z</time>
        <extensions>
          <ns3:TrackPointExtension>
            <ns3:atemp>20.0</ns3:atemp>
            <ns3:hr>143</ns3:hr>
          </ns3:TrackPointExtension>
        </extensions>
      </trkpt>
      <trkpt lat="-22.05565846525132656097412109375" lon="166.44696322269737720489501953125">
        <ele>881.20001220703125</ele>
        <time>2016-08-12T22:10:18.000Z</time>
        <extensions>
          <ns3:TrackPointExtension>
            <ns3:atemp>20.0</ns3:atemp>
            <ns3:hr>144</ns3:hr>
          </ns3:TrackPointExtension>
        </extensions>
      </trkpt>
      <trkpt lat="-22.0556489937007427215576171875" lon="166.4469415135681629180908203125">
        <ele>880.79998779296875</ele>
        <time>2016-08-12T22:10:19.000Z</time>
        <extensions>
          <ns3:TrackPointExtension>
            <ns3:atemp>20.0</ns3:atemp>
            <ns3:hr>143</ns3:hr>
          </ns3:TrackPointExtension>
        </extensions>
      </trkpt>
      <trkpt lat="-22.0556344091892242431640625" lon="166.44691913388669490814208984375">
        <ele>880.5999755859375</ele>
        <time>2016-08-12T22:10:20.000Z</time>
        <extensions>
          <ns3:TrackPointExtension>
            <ns3:atemp>20.0</ns3:atemp>
            <ns3:hr>144</ns3:hr>
          </ns3:TrackPointExtension>
        </extensions>
      </trkpt>
      <trkpt lat="-22.05562124960124492645263671875" lon="166.44689633511006832122802734375">
        <ele>881</ele>
        <time>2016-08-12T22:10:21.000Z</time>
        <extensions>
          <ns3:TrackPointExtension>
            <ns3:atemp>20.0</ns3:atemp>
            <ns3:hr>143</ns3:hr>
          </ns3:TrackPointExtension>
        </extensions>
      </trkpt>
      <trkpt lat="-22.055608592927455902099609375" lon="166.4468769729137420654296875">
        <ele>881.20001220703125</ele>
        <time>2016-08-12T22:10:22.000Z</time>
        <extensions>
          <ns3:TrackPointExtension>
            <ns3:atemp>20.0</ns3:atemp>
            <ns3:hr>144</ns3:hr>
          </ns3:TrackPointExtension>
        </extensions>
      </trkpt>
      <trkpt lat="-22.055597193539142608642578125" lon="166.44685476087033748626708984375">
        <ele>881.20001220703125</ele>
        <time>2016-08-12T22:10:23.000Z</time>
        <extensions>
          <ns3:TrackPointExtension>
            <ns3:atemp>20.0</ns3:atemp>
            <ns3:hr>144</ns3:hr>
          </ns3:TrackPointExtension>
        </extensions>
      </trkpt>
      <trkpt lat="-22.05558822490274906158447265625" lon="166.4468328841030597686767578125">
        <ele>881</ele>
        <time>2016-08-12T22:10:24.000Z</time>
        <extensions>
          <ns3:TrackPointExtension>
            <ns3:atemp>20.0</ns3:atemp>
            <ns3:hr>143</ns3:hr>
          </ns3:TrackPointExtension>
        </extensions>
      </trkpt>
      <trkpt lat="-22.05557783134281635284423828125" lon="166.44681184552609920501708984375">
        <ele>881.20001220703125</ele>
        <time>2016-08-12T22:10:25.000Z</time>
        <extensions>
          <ns3:TrackPointExtension>
            <ns3:atemp>20.0</ns3:atemp>
            <ns3:hr>144</ns3:hr>
          </ns3:TrackPointExtension>
        </extensions>
      </trkpt>
      <trkpt lat="-22.0555661804974079132080078125" lon="166.44678913056850433349609375">
        <ele>881.5999755859375</ele>
        <time>2016-08-12T22:10:26.000Z</time>
        <extensions>
          <ns3:TrackPointExtension>
            <ns3:atemp>20.0</ns3:atemp>
            <ns3:hr>144</ns3:hr>
          </ns3:TrackPointExtension>
        </extensions>
      </trkpt>
      <trkpt lat="-22.05555553548038005828857421875" lon="166.44676809199154376983642578125">
        <ele>881.4000244140625</ele>
        <time>2016-08-12T22:10:27.000Z</time>
        <extensions>
          <ns3:TrackPointExtension>
            <ns3:atemp>20.0</ns3:atemp>
            <ns3:hr>143</ns3:hr>
          </ns3:TrackPointExtension>
        </extensions>
      </trkpt>
      <trkpt lat="-22.05554178915917873382568359375" lon="166.4467460475862026214599609375">
        <ele>881.20001220703125</ele>
        <time>2016-08-12T22:10:28.000Z</time>
        <extensions>
          <ns3:TrackPointExtension>
            <ns3:atemp>20.0</ns3:atemp>
            <ns3:hr>144</ns3:hr>
          </ns3:TrackPointExtension>
        </extensions>
      </trkpt>
      <trkpt lat="-22.05553181469440460205078125" lon="166.44672685302793979644775390625">
        <ele>881.20001220703125</ele>
        <time>2016-08-12T22:10:29.000Z</time>
        <extensions>
          <ns3:TrackPointExtension>
            <ns3:atemp>20.0</ns3:atemp>
            <ns3:hr>144</ns3:hr>
          </ns3:TrackPointExtension>
        </extensions>
      </trkpt>
      <trkpt lat="-22.055517397820949554443359375" lon="166.446706317365169525146484375">
        <ele>881.5999755859375</ele>
        <time>2016-08-12T22:10:30.000Z</time>
        <extensions>
          <ns3:TrackPointExtension>
            <ns3:atemp>20.0</ns3:atemp>
            <ns3:hr>144</ns3:hr>
          </ns3:TrackPointExtension>
        </extensions>
      </trkpt>
      <trkpt lat="-22.05550222657620906829833984375" lon="166.44668410532176494598388671875">
        <ele>881.79998779296875</ele>
        <time>2016-08-12T22:10:31.000Z</time>
        <extensions>
          <ns3:TrackPointExtension>
            <ns3:atemp>20.0</ns3:atemp>
            <ns3:hr>144</ns3:hr>
          </ns3:TrackPointExtension>
        </extensions>
      </trkpt>
      <trkpt lat="-22.05548755824565887451171875" lon="166.4466662518680095672607421875">
        <ele>881.79998779296875</ele>
        <time>2016-08-12T22:10:32.000Z</time>
        <extensions>
          <ns3:TrackPointExtension>
            <ns3:atemp>20.0</ns3:atemp>
            <ns3:hr>144</ns3:hr>
          </ns3:TrackPointExtension>
        </extensions>
      </trkpt>
      <trkpt lat="-22.05547414720058441162109375" lon="166.4466454647481441497802734375">
        <ele>881.5999755859375</ele>
        <time>2016-08-12T22:10:33.000Z</time>
        <extensions>
          <ns3:TrackPointExtension>
            <ns3:atemp>20.0</ns3:atemp>
            <ns3:hr>144</ns3:hr>
          </ns3:TrackPointExtension>
        </extensions>
      </trkpt>
      <trkpt lat="-22.0554562099277973175048828125" lon="166.44662610255181789398193359375">
        <ele>882</ele>
        <time>2016-08-12T22:10:34.000Z</time>
        <extensions>
          <ns3:TrackPointExtension>
            <ns3:atemp>20.0</ns3:atemp>
            <ns3:hr>144</ns3:hr>
          </ns3:TrackPointExtension>
        </extensions>
      </trkpt>
      <trkpt lat="-22.0554407872259616851806640625" lon="166.44660615362226963043212890625">
        <ele>882</ele>
        <time>2016-08-12T22:10:35.000Z</time>
        <extensions>
          <ns3:TrackPointExtension>
            <ns3:atemp>20.0</ns3:atemp>
            <ns3:hr>144</ns3:hr>
          </ns3:TrackPointExtension>
        </extensions>
      </trkpt>
      <trkpt lat="-22.05542385578155517578125" lon="166.44658436067402362823486328125">
        <ele>881.5999755859375</ele>
        <time>2016-08-12T22:10:36.000Z</time>
        <extensions>
          <ns3:TrackPointExtension>
            <ns3:atemp>20.0</ns3:atemp>
            <ns3:hr>144</ns3:hr>
          </ns3:TrackPointExtension>
        </extensions>
      </trkpt>
      <trkpt lat="-22.0554079301655292510986328125" lon="166.44656994380056858062744140625">
        <ele>881.20001220703125</ele>
        <time>2016-08-12T22:10:37.000Z</time>
        <extensions>
          <ns3:TrackPointExtension>
            <ns3:atemp>20.0</ns3:atemp>
            <ns3:hr>144</ns3:hr>
          </ns3:TrackPointExtension>
        </extensions>
      </trkpt>
      <trkpt lat="-22.05538940615952014923095703125" lon="166.446552760899066925048828125">
        <ele>881.5999755859375</ele>
        <time>2016-08-12T22:10:38.000Z</time>
        <extensions>
          <ns3:TrackPointExtension>
            <ns3:atemp>20.0</ns3:atemp>
            <ns3:hr>144</ns3:hr>
          </ns3:TrackPointExtension>
        </extensions>
      </trkpt>
      <trkpt lat="-22.05537021160125732421875" lon="166.44653809256851673126220703125">
        <ele>881.79998779296875</ele>
        <time>2016-08-12T22:10:39.000Z</time>
        <extensions>
          <ns3:TrackPointExtension>
            <ns3:atemp>20.0</ns3:atemp>
            <ns3:hr>144</ns3:hr>
          </ns3:TrackPointExtension>
        </extensions>
      </trkpt>
      <trkpt lat="-22.05535353161394596099853515625" lon="166.446522586047649383544921875">
        <ele>881.79998779296875</ele>
        <time>2016-08-12T22:10:40.000Z</time>
        <extensions>
          <ns3:TrackPointExtension>
            <ns3:atemp>20.0</ns3:atemp>
            <ns3:hr>144</ns3:hr>
          </ns3:TrackPointExtension>
        </extensions>
      </trkpt>
      <trkpt lat="-22.05533660016953945159912109375" lon="166.4465063251554965972900390625">
        <ele>881.4000244140625</ele>
        <time>2016-08-12T22:10:41.000Z</time>
        <extensions>
          <ns3:TrackPointExtension>
            <ns3:atemp>20.0</ns3:atemp>
            <ns3:hr>144</ns3:hr>
          </ns3:TrackPointExtension>
        </extensions>
      </trkpt>
      <trkpt lat="-22.055312879383563995361328125" lon="166.44649299792945384979248046875">
        <ele>881.79998779296875</ele>
        <time>2016-08-12T22:10:42.000Z</time>
        <extensions>
          <ns3:TrackPointExtension>
            <ns3:atemp>20.0</ns3:atemp>
            <ns3:hr>144</ns3:hr>
          </ns3:TrackPointExtension>
        </extensions>
      </trkpt>
      <trkpt lat="-22.055290751159191131591796875" lon="166.44647858105599880218505859375">
        <ele>882.20001220703125</ele>
        <time>2016-08-12T22:10:43.000Z</time>
        <extensions>
          <ns3:TrackPointExtension>
            <ns3:atemp>20.0</ns3:atemp>
            <ns3:hr>144</ns3:hr>
          </ns3:TrackPointExtension>
        </extensions>
      </trkpt>
      <trkpt lat="-22.05527340061962604522705078125" lon="166.4464660920202732086181640625">
        <ele>882.20001220703125</ele>
        <time>2016-08-12T22:10:44.000Z</time>
        <extensions>
          <ns3:TrackPointExtension>
            <ns3:atemp>20.0</ns3:atemp>
            <ns3:hr>144</ns3:hr>
          </ns3:TrackPointExtension>
        </extensions>
      </trkpt>
      <trkpt lat="-22.05525831319391727447509765625" lon="166.4464503340423107147216796875">
        <ele>882</ele>
        <time>2016-08-12T22:10:45.000Z</time>
        <extensions>
          <ns3:TrackPointExtension>
            <ns3:atemp>20.0</ns3:atemp>
            <ns3:hr>143</ns3:hr>
          </ns3:TrackPointExtension>
        </extensions>
      </trkpt>
      <trkpt lat="-22.05524490214884281158447265625" lon="166.44642795436084270477294921875">
        <ele>882</ele>
        <time>2016-08-12T22:10:46.000Z</time>
        <extensions>
          <ns3:TrackPointExtension>
            <ns3:atemp>20.0</ns3:atemp>
            <ns3:hr>143</ns3:hr>
          </ns3:TrackPointExtension>
        </extensions>
      </trkpt>
      <trkpt lat="-22.055235765874385833740234375" lon="166.44640825688838958740234375">
        <ele>882.20001220703125</ele>
        <time>2016-08-12T22:10:47.000Z</time>
        <extensions>
          <ns3:TrackPointExtension>
            <ns3:atemp>20.0</ns3:atemp>
            <ns3:hr>144</ns3:hr>
          </ns3:TrackPointExtension>
        </extensions>
      </trkpt>
      <trkpt lat="-22.0552278868854045867919921875" lon="166.4463834464550018310546875">
        <ele>882</ele>
        <time>2016-08-12T22:10:48.000Z</time>
        <extensions>
          <ns3:TrackPointExtension>
            <ns3:atemp>20.0</ns3:atemp>
            <ns3:hr>143</ns3:hr>
          </ns3:TrackPointExtension>
        </extensions>
      </trkpt>
      <trkpt lat="-22.05521841533482074737548828125" lon="166.446361653506755828857421875">
        <ele>881.79998779296875</ele>
        <time>2016-08-12T22:10:49.000Z</time>
        <extensions>
          <ns3:TrackPointExtension>
            <ns3:atemp>20.0</ns3:atemp>
            <ns3:hr>144</ns3:hr>
          </ns3:TrackPointExtension>
        </extensions>
      </trkpt>
      <trkpt lat="-22.0552070997655391693115234375" lon="166.446342878043651580810546875">
        <ele>882</ele>
        <time>2016-08-12T22:10:50.000Z</time>
        <extensions>
          <ns3:TrackPointExtension>
            <ns3:atemp>20.0</ns3:atemp>
            <ns3:hr>143</ns3:hr>
          </ns3:TrackPointExtension>
        </extensions>
      </trkpt>
      <trkpt lat="-22.05519796349108219146728515625" lon="166.44632116891443729400634765625">
        <ele>882.4000244140625</ele>
        <time>2016-08-12T22:10:51.000Z</time>
        <extensions>
          <ns3:TrackPointExtension>
            <ns3:atemp>20.0</ns3:atemp>
            <ns3:hr>144</ns3:hr>
          </ns3:TrackPointExtension>
        </extensions>
      </trkpt>
      <trkpt lat="-22.05518907867372035980224609375" lon="166.44630557857453823089599609375">
        <ele>882.4000244140625</ele>
        <time>2016-08-12T22:10:52.000Z</time>
        <extensions>
          <ns3:TrackPointExtension>
            <ns3:atemp>20.0</ns3:atemp>
            <ns3:hr>144</ns3:hr>
          </ns3:TrackPointExtension>
        </extensions>
      </trkpt>
      <trkpt lat="-22.05519259907305240631103515625" lon="166.44628353416919708251953125">
        <ele>882.20001220703125</ele>
        <time>2016-08-12T22:10:53.000Z</time>
        <extensions>
          <ns3:TrackPointExtension>
            <ns3:atemp>20.0</ns3:atemp>
            <ns3:hr>144</ns3:hr>
          </ns3:TrackPointExtension>
        </extensions>
      </trkpt>
      <trkpt lat="-22.055196203291416168212890625" lon="166.44626140594482421875">
        <ele>882.20001220703125</ele>
        <time>2016-08-12T22:10:54.000Z</time>
        <extensions>
          <ns3:TrackPointExtension>
            <ns3:atemp>20.0</ns3:atemp>
            <ns3:hr>144</ns3:hr>
          </ns3:TrackPointExtension>
        </extensions>
      </trkpt>
      <trkpt lat="-22.05519528128206729888916015625" lon="166.44624330103397369384765625">
        <ele>882.4000244140625</ele>
        <time>2016-08-12T22:10:55.000Z</time>
        <extensions>
          <ns3:TrackPointExtension>
            <ns3:atemp>20.0</ns3:atemp>
            <ns3:hr>143</ns3:hr>
          </ns3:TrackPointExtension>
        </extensions>
      </trkpt>
      <trkpt lat="-22.0551943592727184295654296875" lon="166.44622276537120342254638671875">
        <ele>882.5999755859375</ele>
        <time>2016-08-12T22:10:56.000Z</time>
        <extensions>
          <ns3:TrackPointExtension>
            <ns3:atemp>20.0</ns3:atemp>
            <ns3:hr>144</ns3:hr>
          </ns3:TrackPointExtension>
        </extensions>
      </trkpt>
      <trkpt lat="-22.0551930181682109832763671875" lon="166.446206085383892059326171875">
        <ele>882.20001220703125</ele>
        <time>2016-08-12T22:10:57.000Z</time>
        <extensions>
          <ns3:TrackPointExtension>
            <ns3:atemp>20.0</ns3:atemp>
            <ns3:hr>144</ns3:hr>
          </ns3:TrackPointExtension>
        </extensions>
      </trkpt>
      <trkpt lat="-22.055191509425640106201171875" lon="166.4461881481111049652099609375">
        <ele>882.20001220703125</ele>
        <time>2016-08-12T22:10:58.000Z</time>
        <extensions>
          <ns3:TrackPointExtension>
            <ns3:atemp>20.0</ns3:atemp>
            <ns3:hr>143</ns3:hr>
          </ns3:TrackPointExtension>
        </extensions>
      </trkpt>
      <trkpt lat="-22.0551896654069423675537109375" lon="166.44617113284766674041748046875">
        <ele>882.79998779296875</ele>
        <time>2016-08-12T22:10:59.000Z</time>
        <extensions>
          <ns3:TrackPointExtension>
            <ns3:atemp>20.0</ns3:atemp>
            <ns3:hr>144</ns3:hr>
          </ns3:TrackPointExtension>
        </extensions>
      </trkpt>
      <trkpt lat="-22.055184133350849151611328125" lon="166.44615671597421169281005859375">
        <ele>882.5999755859375</ele>
        <time>2016-08-12T22:11:00.000Z</time>
        <extensions>
          <ns3:TrackPointExtension>
            <ns3:atemp>20.0</ns3:atemp>
            <ns3:hr>144</ns3:hr>
          </ns3:TrackPointExtension>
        </extensions>
      </trkpt>
      <trkpt lat="-22.05518790520727634429931640625" lon="166.4461385272443294525146484375">
        <ele>882.20001220703125</ele>
        <time>2016-08-12T22:11:01.000Z</time>
        <extensions>
          <ns3:TrackPointExtension>
            <ns3:atemp>20.0</ns3:atemp>
            <ns3:hr>143</ns3:hr>
          </ns3:TrackPointExtension>
        </extensions>
      </trkpt>
      <trkpt lat="-22.0551970414817333221435546875" lon="166.446124613285064697265625">
        <ele>882.79998779296875</ele>
        <time>2016-08-12T22:11:02.000Z</time>
        <extensions>
          <ns3:TrackPointExtension>
            <ns3:atemp>20.0</ns3:atemp>
            <ns3:hr>144</ns3:hr>
          </ns3:TrackPointExtension>
        </extensions>
      </trkpt>
      <trkpt lat="-22.055211961269378662109375" lon="166.4461160637438297271728515625">
        <ele>883.20001220703125</ele>
        <time>2016-08-12T22:11:03.000Z</time>
        <extensions>
          <ns3:TrackPointExtension>
            <ns3:atemp>20.0</ns3:atemp>
            <ns3:hr>143</ns3:hr>
          </ns3:TrackPointExtension>
        </extensions>
      </trkpt>
      <trkpt lat="-22.05522914417088031768798828125" lon="166.44610424526035785675048828125">
        <ele>883</ele>
        <time>2016-08-12T22:11:04.000Z</time>
        <extensions>
          <ns3:TrackPointExtension>
            <ns3:atemp>20.0</ns3:atemp>
            <ns3:hr>143</ns3:hr>
          </ns3:TrackPointExtension>
        </extensions>
      </trkpt>
      <trkpt lat="-22.0552439801394939422607421875" lon="166.44609435461461544036865234375">
        <ele>882.4000244140625</ele>
        <time>2016-08-12T22:11:05.000Z</time>
        <extensions>
          <ns3:TrackPointExtension>
            <ns3:atemp>20.0</ns3:atemp>
            <ns3:hr>144</ns3:hr>
          </ns3:TrackPointExtension>
        </extensions>
      </trkpt>
      <trkpt lat="-22.0552594028413295745849609375" lon="166.44608681090176105499267578125">
        <ele>882.5999755859375</ele>
        <time>2016-08-12T22:11:06.000Z</time>
        <extensions>
          <ns3:TrackPointExtension>
            <ns3:atemp>20.0</ns3:atemp>
            <ns3:hr>144</ns3:hr>
          </ns3:TrackPointExtension>
        </extensions>
      </trkpt>
      <trkpt lat="-22.055277340114116668701171875" lon="166.44608312286436557769775390625">
        <ele>883.4000244140625</ele>
        <time>2016-08-12T22:11:07.000Z</time>
        <extensions>
          <ns3:TrackPointExtension>
            <ns3:atemp>20.0</ns3:atemp>
            <ns3:hr>144</ns3:hr>
          </ns3:TrackPointExtension>
        </extensions>
      </trkpt>
      <trkpt lat="-22.05529385246336460113525390625" lon="166.446078680455684661865234375">
        <ele>883.4000244140625</ele>
        <time>2016-08-12T22:11:08.000Z</time>
        <extensions>
          <ns3:TrackPointExtension>
            <ns3:atemp>20.0</ns3:atemp>
            <ns3:hr>144</ns3:hr>
          </ns3:TrackPointExtension>
        </extensions>
      </trkpt>
      <trkpt lat="-22.0553147234022617340087890625" lon="166.44607759080827236175537109375">
        <ele>883.4000244140625</ele>
        <time>2016-08-12T22:11:09.000Z</time>
        <extensions>
          <ns3:TrackPointExtension>
            <ns3:atemp>20.0</ns3:atemp>
            <ns3:hr>144</ns3:hr>
          </ns3:TrackPointExtension>
        </extensions>
      </trkpt>
      <trkpt lat="-22.05533458851277828216552734375" lon="166.44607591442763805389404296875">
        <ele>883.79998779296875</ele>
        <time>2016-08-12T22:11:10.000Z</time>
        <extensions>
          <ns3:TrackPointExtension>
            <ns3:atemp>20.0</ns3:atemp>
            <ns3:hr>144</ns3:hr>
          </ns3:TrackPointExtension>
        </extensions>
      </trkpt>
      <trkpt lat="-22.05535403452813625335693359375" lon="166.44607490859925746917724609375">
        <ele>884</ele>
        <time>2016-08-12T22:11:11.000Z</time>
        <extensions>
          <ns3:TrackPointExtension>
            <ns3:atemp>20.0</ns3:atemp>
            <ns3:hr>145</ns3:hr>
          </ns3:TrackPointExtension>
        </extensions>
      </trkpt>
      <trkpt lat="-22.055375576019287109375" lon="166.4460708014667034149169921875">
        <ele>883.4000244140625</ele>
        <time>2016-08-12T22:11:12.000Z</time>
        <extensions>
          <ns3:TrackPointExtension>
            <ns3:atemp>20.0</ns3:atemp>
            <ns3:hr>145</ns3:hr>
          </ns3:TrackPointExtension>
        </extensions>
      </trkpt>
      <trkpt lat="-22.0553968660533428192138671875" lon="166.446065604686737060546875">
        <ele>883.5999755859375</ele>
        <time>2016-08-12T22:11:13.000Z</time>
        <extensions>
          <ns3:TrackPointExtension>
            <ns3:atemp>20.0</ns3:atemp>
            <ns3:hr>145</ns3:hr>
          </ns3:TrackPointExtension>
        </extensions>
      </trkpt>
      <trkpt lat="-22.05541539005935192108154296875" lon="166.4460570551455020904541015625">
        <ele>883.79998779296875</ele>
        <time>2016-08-12T22:11:14.000Z</time>
        <extensions>
          <ns3:TrackPointExtension>
            <ns3:atemp>20.0</ns3:atemp>
            <ns3:hr>145</ns3:hr>
          </ns3:TrackPointExtension>
        </extensions>
      </trkpt>
      <trkpt lat="-22.055436931550502777099609375" lon="166.44605345092713832855224609375">
        <ele>883.4000244140625</ele>
        <time>2016-08-12T22:11:15.000Z</time>
        <extensions>
          <ns3:TrackPointExtension>
            <ns3:atemp>20.0</ns3:atemp>
            <ns3:hr>145</ns3:hr>
          </ns3:TrackPointExtension>
        </extensions>
      </trkpt>
      <trkpt lat="-22.055455036461353302001953125" lon="166.44604909233748912811279296875">
        <ele>883.4000244140625</ele>
        <time>2016-08-12T22:11:16.000Z</time>
        <extensions>
          <ns3:TrackPointExtension>
            <ns3:atemp>20.0</ns3:atemp>
            <ns3:hr>145</ns3:hr>
          </ns3:TrackPointExtension>
        </extensions>
      </trkpt>
      <trkpt lat="-22.05547808669507503509521484375" lon="166.446043811738491058349609375">
        <ele>884</ele>
        <time>2016-08-12T22:11:17.000Z</time>
        <extensions>
          <ns3:TrackPointExtension>
            <ns3:atemp>20.0</ns3:atemp>
            <ns3:hr>145</ns3:hr>
          </ns3:TrackPointExtension>
        </extensions>
      </trkpt>
      <trkpt lat="-22.05550155602395534515380859375" lon="166.44603752531111240386962890625">
        <ele>883.5999755859375</ele>
        <time>2016-08-12T22:11:18.000Z</time>
        <extensions>
          <ns3:TrackPointExtension>
            <ns3:atemp>20.0</ns3:atemp>
            <ns3:hr>145</ns3:hr>
          </ns3:TrackPointExtension>
        </extensions>
      </trkpt>
      <trkpt lat="-22.05552242696285247802734375" lon="166.4460309036076068878173828125">
        <ele>883.5999755859375</ele>
        <time>2016-08-12T22:11:19.000Z</time>
        <extensions>
          <ns3:TrackPointExtension>
            <ns3:atemp>20.0</ns3:atemp>
            <ns3:hr>145</ns3:hr>
          </ns3:TrackPointExtension>
        </extensions>
      </trkpt>
      <trkpt lat="-22.05554522573947906494140625" lon="166.446023695170879364013671875">
        <ele>884</ele>
        <time>2016-08-12T22:11:20.000Z</time>
        <extensions>
          <ns3:TrackPointExtension>
            <ns3:atemp>20.0</ns3:atemp>
            <ns3:hr>145</ns3:hr>
          </ns3:TrackPointExtension>
        </extensions>
      </trkpt>
      <trkpt lat="-22.055567689239978790283203125" lon="166.4460168220102787017822265625">
        <ele>884.5999755859375</ele>
        <time>2016-08-12T22:11:21.000Z</time>
        <extensions>
          <ns3:TrackPointExtension>
            <ns3:atemp>20.0</ns3:atemp>
            <ns3:hr>145</ns3:hr>
          </ns3:TrackPointExtension>
        </extensions>
      </trkpt>
      <trkpt lat="-22.055594511330127716064453125" lon="166.446014307439327239990234375">
        <ele>884.5999755859375</ele>
        <time>2016-08-12T22:11:22.000Z</time>
        <extensions>
          <ns3:TrackPointExtension>
            <ns3:atemp>20.0</ns3:atemp>
            <ns3:hr>145</ns3:hr>
          </ns3:TrackPointExtension>
        </extensions>
      </trkpt>
      <trkpt lat="-22.05562703311443328857421875" lon="166.44601087085902690887451171875">
        <ele>884.5999755859375</ele>
        <time>2016-08-12T22:11:23.000Z</time>
        <extensions>
          <ns3:TrackPointExtension>
            <ns3:atemp>20.0</ns3:atemp>
            <ns3:hr>145</ns3:hr>
          </ns3:TrackPointExtension>
        </extensions>
      </trkpt>
      <trkpt lat="-22.05565410666167736053466796875" lon="166.446004919707775115966796875">
        <ele>885</ele>
        <time>2016-08-12T22:11:24.000Z</time>
        <extensions>
          <ns3:TrackPointExtension>
            <ns3:atemp>20.0</ns3:atemp>
            <ns3:hr>145</ns3:hr>
          </ns3:TrackPointExtension>
        </extensions>
      </trkpt>
      <trkpt lat="-22.0556788332760334014892578125" lon="166.44600181840360164642333984375">
        <ele>885.20001220703125</ele>
        <time>2016-08-12T22:11:25.000Z</time>
        <extensions>
          <ns3:TrackPointExtension>
            <ns3:atemp>20.0</ns3:atemp>
            <ns3:hr>146</ns3:hr>
          </ns3:TrackPointExtension>
        </extensions>
      </trkpt>
      <trkpt lat="-22.05570071004331111907958984375" lon="166.4459936879575252532958984375">
        <ele>885.4000244140625</ele>
        <time>2016-08-12T22:11:26.000Z</time>
        <extensions>
          <ns3:TrackPointExtension>
            <ns3:atemp>20.0</ns3:atemp>
            <ns3:hr>145</ns3:hr>
          </ns3:TrackPointExtension>
        </extensions>
      </trkpt>
      <trkpt lat="-22.05571847967803478240966796875" lon="166.44598337821662425994873046875">
        <ele>885</ele>
        <time>2016-08-12T22:11:27.000Z</time>
        <extensions>
          <ns3:TrackPointExtension>
            <ns3:atemp>20.0</ns3:atemp>
            <ns3:hr>145</ns3:hr>
          </ns3:TrackPointExtension>
        </extensions>
      </trkpt>
      <trkpt lat="-22.05574714578688144683837890625" lon="166.445982120931148529052734375">
        <ele>884.79998779296875</ele>
        <time>2016-08-12T22:11:28.000Z</time>
        <extensions>
          <ns3:TrackPointExtension>
            <ns3:atemp>20.0</ns3:atemp>
            <ns3:hr>146</ns3:hr>
          </ns3:TrackPointExtension>
        </extensions>
      </trkpt>
      <trkpt lat="-22.05577312968671321868896484375" lon="166.445974744856357574462890625">
        <ele>885</ele>
        <time>2016-08-12T22:11:29.000Z</time>
        <extensions>
          <ns3:TrackPointExtension>
            <ns3:atemp>20.0</ns3:atemp>
            <ns3:hr>145</ns3:hr>
          </ns3:TrackPointExtension>
        </extensions>
      </trkpt>
      <trkpt lat="-22.0557953417301177978515625" lon="166.44596493802964687347412109375">
        <ele>885.20001220703125</ele>
        <time>2016-08-12T22:11:30.000Z</time>
        <extensions>
          <ns3:TrackPointExtension>
            <ns3:atemp>20.0</ns3:atemp>
            <ns3:hr>145</ns3:hr>
          </ns3:TrackPointExtension>
        </extensions>
      </trkpt>
      <trkpt lat="-22.05581738613545894622802734375" lon="166.44595186226069927215576171875">
        <ele>884.79998779296875</ele>
        <time>2016-08-12T22:11:31.000Z</time>
        <extensions>
          <ns3:TrackPointExtension>
            <ns3:atemp>20.0</ns3:atemp>
            <ns3:hr>145</ns3:hr>
          </ns3:TrackPointExtension>
        </extensions>
      </trkpt>
      <trkpt lat="-22.055836580693721771240234375" lon="166.44593560136854648590087890625">
        <ele>884.5999755859375</ele>
        <time>2016-08-12T22:11:32.000Z</time>
        <extensions>
          <ns3:TrackPointExtension>
            <ns3:atemp>20.0</ns3:atemp>
            <ns3:hr>145</ns3:hr>
          </ns3:TrackPointExtension>
        </extensions>
      </trkpt>
      <trkpt lat="-22.05586440861225128173828125" lon="166.44592420198023319244384765625">
        <ele>885.20001220703125</ele>
        <time>2016-08-12T22:11:33.000Z</time>
        <extensions>
          <ns3:TrackPointExtension>
            <ns3:atemp>20.0</ns3:atemp>
            <ns3:hr>145</ns3:hr>
          </ns3:TrackPointExtension>
        </extensions>
      </trkpt>
      <trkpt lat="-22.05588997341692447662353515625" lon="166.44590274430811405181884765625">
        <ele>885.5999755859375</ele>
        <time>2016-08-12T22:11:34.000Z</time>
        <extensions>
          <ns3:TrackPointExtension>
            <ns3:atemp>20.0</ns3:atemp>
            <ns3:hr>145</ns3:hr>
          </ns3:TrackPointExtension>
        </extensions>
      </trkpt>
      <trkpt lat="-22.05590992234647274017333984375" lon="166.445888243615627288818359375">
        <ele>886</ele>
        <time>2016-08-12T22:11:35.000Z</time>
        <extensions>
          <ns3:TrackPointExtension>
            <ns3:atemp>20.0</ns3:atemp>
            <ns3:hr>145</ns3:hr>
          </ns3:TrackPointExtension>
        </extensions>
      </trkpt>
      <trkpt lat="-22.0559312961995601654052734375" lon="166.44587122835218906402587890625">
        <ele>886</ele>
        <time>2016-08-12T22:11:36.000Z</time>
        <extensions>
          <ns3:TrackPointExtension>
            <ns3:atemp>20.0</ns3:atemp>
            <ns3:hr>145</ns3:hr>
          </ns3:TrackPointExtension>
        </extensions>
      </trkpt>
      <trkpt lat="-22.05595267005264759063720703125" lon="166.44585463218390941619873046875">
        <ele>885.5999755859375</ele>
        <time>2016-08-12T22:11:37.000Z</time>
        <extensions>
          <ns3:TrackPointExtension>
            <ns3:atemp>20.0</ns3:atemp>
            <ns3:hr>145</ns3:hr>
          </ns3:TrackPointExtension>
        </extensions>
      </trkpt>
      <trkpt lat="-22.05597295425832271575927734375" lon="166.44583585672080516815185546875">
        <ele>885.79998779296875</ele>
        <time>2016-08-12T22:11:38.000Z</time>
        <extensions>
          <ns3:TrackPointExtension>
            <ns3:atemp>20.0</ns3:atemp>
            <ns3:hr>144</ns3:hr>
          </ns3:TrackPointExtension>
        </extensions>
      </trkpt>
      <trkpt lat="-22.0559983514249324798583984375" lon="166.445819847285747528076171875">
        <ele>886.4000244140625</ele>
        <time>2016-08-12T22:11:39.000Z</time>
        <extensions>
          <ns3:TrackPointExtension>
            <ns3:atemp>20.0</ns3:atemp>
            <ns3:hr>144</ns3:hr>
          </ns3:TrackPointExtension>
        </extensions>
      </trkpt>
      <trkpt lat="-22.056018300354480743408203125" lon="166.44580199383199214935302734375">
        <ele>886.5999755859375</ele>
        <time>2016-08-12T22:11:40.000Z</time>
        <extensions>
          <ns3:TrackPointExtension>
            <ns3:atemp>20.0</ns3:atemp>
            <ns3:hr>144</ns3:hr>
          </ns3:TrackPointExtension>
        </extensions>
      </trkpt>
      <trkpt lat="-22.05604185350239276885986328125" lon="166.44578439183533191680908203125">
        <ele>885.79998779296875</ele>
        <time>2016-08-12T22:11:41.000Z</time>
        <extensions>
          <ns3:TrackPointExtension>
            <ns3:atemp>20.0</ns3:atemp>
            <ns3:hr>144</ns3:hr>
          </ns3:TrackPointExtension>
        </extensions>
      </trkpt>
      <trkpt lat="-22.05606515519320964813232421875" lon="166.44576645456254482269287109375">
        <ele>886</ele>
        <time>2016-08-12T22:11:42.000Z</time>
        <extensions>
          <ns3:TrackPointExtension>
            <ns3:atemp>20.0</ns3:atemp>
            <ns3:hr>143</ns3:hr>
          </ns3:TrackPointExtension>
        </extensions>
      </trkpt>
      <trkpt lat="-22.056086696684360504150390625" lon="166.44574918784201145172119140625">
        <ele>886.4000244140625</ele>
        <time>2016-08-12T22:11:43.000Z</time>
        <extensions>
          <ns3:TrackPointExtension>
            <ns3:atemp>20.0</ns3:atemp>
            <ns3:hr>143</ns3:hr>
          </ns3:TrackPointExtension>
        </extensions>
      </trkpt>
      <trkpt lat="-22.05610421486198902130126953125" lon="166.44572320394217967987060546875">
        <ele>886.5999755859375</ele>
        <time>2016-08-12T22:11:44.000Z</time>
        <extensions>
          <ns3:TrackPointExtension>
            <ns3:atemp>20.0</ns3:atemp>
            <ns3:hr>143</ns3:hr>
          </ns3:TrackPointExtension>
        </extensions>
      </trkpt>
      <trkpt lat="-22.056126929819583892822265625" lon="166.4457060210406780242919921875">
        <ele>886.79998779296875</ele>
        <time>2016-08-12T22:11:45.000Z</time>
        <extensions>
          <ns3:TrackPointExtension>
            <ns3:atemp>20.0</ns3:atemp>
            <ns3:hr>143</ns3:hr>
          </ns3:TrackPointExtension>
        </extensions>
      </trkpt>
      <trkpt lat="-22.0561519078910350799560546875" lon="166.44569076597690582275390625">
        <ele>886.79998779296875</ele>
        <time>2016-08-12T22:11:46.000Z</time>
        <extensions>
          <ns3:TrackPointExtension>
            <ns3:atemp>20.0</ns3:atemp>
            <ns3:hr>143</ns3:hr>
          </ns3:TrackPointExtension>
        </extensions>
      </trkpt>
      <trkpt lat="-22.05617529340088367462158203125" lon="166.4456812106072902679443359375">
        <ele>886.79998779296875</ele>
        <time>2016-08-12T22:11:47.000Z</time>
        <extensions>
          <ns3:TrackPointExtension>
            <ns3:atemp>20.0</ns3:atemp>
            <ns3:hr>143</ns3:hr>
          </ns3:TrackPointExtension>
        </extensions>
      </trkpt>
      <trkpt lat="-22.05619809217751026153564453125" lon="166.44567425362765789031982421875">
        <ele>887</ele>
        <time>2016-08-12T22:11:48.000Z</time>
        <extensions>
          <ns3:TrackPointExtension>
            <ns3:atemp>20.0</ns3:atemp>
            <ns3:hr>143</ns3:hr>
          </ns3:TrackPointExtension>
        </extensions>
      </trkpt>
      <trkpt lat="-22.056220471858978271484375" lon="166.44566905684769153594970703125">
        <ele>886.79998779296875</ele>
        <time>2016-08-12T22:11:49.000Z</time>
        <extensions>
          <ns3:TrackPointExtension>
            <ns3:atemp>20.0</ns3:atemp>
            <ns3:hr>143</ns3:hr>
          </ns3:TrackPointExtension>
        </extensions>
      </trkpt>
      <trkpt lat="-22.05623731948435306549072265625" lon="166.4456637762486934661865234375">
        <ele>886.79998779296875</ele>
        <time>2016-08-12T22:11:50.000Z</time>
        <extensions>
          <ns3:TrackPointExtension>
            <ns3:atemp>20.0</ns3:atemp>
            <ns3:hr>142</ns3:hr>
          </ns3:TrackPointExtension>
        </extensions>
      </trkpt>
      <trkpt lat="-22.05625601112842559814453125" lon="166.4456592500209808349609375">
        <ele>886.79998779296875</ele>
        <time>2016-08-12T22:11:51.000Z</time>
        <extensions>
          <ns3:TrackPointExtension>
            <ns3:atemp>20.0</ns3:atemp>
            <ns3:hr>142</ns3:hr>
          </ns3:TrackPointExtension>
        </extensions>
      </trkpt>
      <trkpt lat="-22.05627855844795703887939453125" lon="166.445655561983585357666015625">
        <ele>887</ele>
        <time>2016-08-12T22:11:52.000Z</time>
        <extensions>
          <ns3:TrackPointExtension>
            <ns3:atemp>20.0</ns3:atemp>
            <ns3:hr>142</ns3:hr>
          </ns3:TrackPointExtension>
        </extensions>
      </trkpt>
      <trkpt lat="-22.05630521290004253387451171875" lon="166.445650197565555572509765625">
        <ele>886.5999755859375</ele>
        <time>2016-08-12T22:11:53.000Z</time>
        <extensions>
          <ns3:TrackPointExtension>
            <ns3:atemp>20.0</ns3:atemp>
            <ns3:hr>141</ns3:hr>
          </ns3:TrackPointExtension>
        </extensions>
      </trkpt>
      <trkpt lat="-22.056332789361476898193359375" lon="166.44564826972782611846923828125">
        <ele>886</ele>
        <time>2016-08-12T22:11:54.000Z</time>
        <extensions>
          <ns3:TrackPointExtension>
            <ns3:atemp>20.0</ns3:atemp>
            <ns3:hr>141</ns3:hr>
          </ns3:TrackPointExtension>
        </extensions>
      </trkpt>
      <trkpt lat="-22.056355588138103485107421875" lon="166.4456458389759063720703125">
        <ele>885.79998779296875</ele>
        <time>2016-08-12T22:11:55.000Z</time>
        <extensions>
          <ns3:TrackPointExtension>
            <ns3:atemp>20.0</ns3:atemp>
            <ns3:hr>141</ns3:hr>
          </ns3:TrackPointExtension>
        </extensions>
      </trkpt>
      <trkpt lat="-22.0563773810863494873046875" lon="166.4456510357558727264404296875">
        <ele>886.4000244140625</ele>
        <time>2016-08-12T22:11:56.000Z</time>
        <extensions>
          <ns3:TrackPointExtension>
            <ns3:atemp>20.0</ns3:atemp>
            <ns3:hr>141</ns3:hr>
          </ns3:TrackPointExtension>
        </extensions>
      </trkpt>
      <trkpt lat="-22.0563988387584686279296875" lon="166.44565531052649021148681640625">
        <ele>886.5999755859375</ele>
        <time>2016-08-12T22:11:57.000Z</time>
        <extensions>
          <ns3:TrackPointExtension>
            <ns3:atemp>20.0</ns3:atemp>
            <ns3:hr>141</ns3:hr>
          </ns3:TrackPointExtension>
        </extensions>
      </trkpt>
      <trkpt lat="-22.05641618929803371429443359375" lon="166.44566335715353488922119140625">
        <ele>886.5999755859375</ele>
        <time>2016-08-12T22:11:58.000Z</time>
        <extensions>
          <ns3:TrackPointExtension>
            <ns3:atemp>19.0</ns3:atemp>
            <ns3:hr>141</ns3:hr>
          </ns3:TrackPointExtension>
        </extensions>
      </trkpt>
      <trkpt lat="-22.0564325340092182159423828125" lon="166.44567073322832584381103515625">
        <ele>886.5999755859375</ele>
        <time>2016-08-12T22:11:59.000Z</time>
        <extensions>
          <ns3:TrackPointExtension>
            <ns3:atemp>19.0</ns3:atemp>
            <ns3:hr>140</ns3:hr>
          </ns3:TrackPointExtension>
        </extensions>
      </trkpt>
      <trkpt lat="-22.05645692534744739532470703125" lon="166.44566838629543781280517578125">
        <ele>886.79998779296875</ele>
        <time>2016-08-12T22:12:00.000Z</time>
        <extensions>
          <ns3:TrackPointExtension>
            <ns3:atemp>19.0</ns3:atemp>
            <ns3:hr>140</ns3:hr>
          </ns3:TrackPointExtension>
        </extensions>
      </trkpt>
      <trkpt lat="-22.0564831607043743133544921875" lon="166.4456641115248203277587890625">
        <ele>886.5999755859375</ele>
        <time>2016-08-12T22:12:01.000Z</time>
        <extensions>
          <ns3:TrackPointExtension>
            <ns3:atemp>19.0</ns3:atemp>
            <ns3:hr>140</ns3:hr>
          </ns3:TrackPointExtension>
        </extensions>
      </trkpt>
      <trkpt lat="-22.05650503747165203094482421875" lon="166.44566687755286693572998046875">
        <ele>886.5999755859375</ele>
        <time>2016-08-12T22:12:02.000Z</time>
        <extensions>
          <ns3:TrackPointExtension>
            <ns3:atemp>19.0</ns3:atemp>
            <ns3:hr>140</ns3:hr>
          </ns3:TrackPointExtension>
        </extensions>
      </trkpt>
      <trkpt lat="-22.05652020871639251708984375" lon="166.4456721581518650054931640625">
        <ele>886.79998779296875</ele>
        <time>2016-08-12T22:12:03.000Z</time>
        <extensions>
          <ns3:TrackPointExtension>
            <ns3:atemp>19.0</ns3:atemp>
            <ns3:hr>140</ns3:hr>
          </ns3:TrackPointExtension>
        </extensions>
      </trkpt>
      <trkpt lat="-22.0565408281981945037841796875" lon="166.44567073322832584381103515625">
        <ele>886.5999755859375</ele>
        <time>2016-08-12T22:12:04.000Z</time>
        <extensions>
          <ns3:TrackPointExtension>
            <ns3:atemp>19.0</ns3:atemp>
            <ns3:hr>139</ns3:hr>
          </ns3:TrackPointExtension>
        </extensions>
      </trkpt>
      <trkpt lat="-22.05656421370804309844970703125" lon="166.4456714875996112823486328125">
        <ele>886.5999755859375</ele>
        <time>2016-08-12T22:12:05.000Z</time>
        <extensions>
          <ns3:TrackPointExtension>
            <ns3:atemp>19.0</ns3:atemp>
            <ns3:hr>139</ns3:hr>
          </ns3:TrackPointExtension>
        </extensions>
      </trkpt>
      <trkpt lat="-22.05658592283725738525390625" lon="166.445669643580913543701171875">
        <ele>887</ele>
        <time>2016-08-12T22:12:06.000Z</time>
        <extensions>
          <ns3:TrackPointExtension>
            <ns3:atemp>19.0</ns3:atemp>
            <ns3:hr>139</ns3:hr>
          </ns3:TrackPointExtension>
        </extensions>
      </trkpt>
      <trkpt lat="-22.05659933388233184814453125" lon="166.445669643580913543701171875">
        <ele>887.4000244140625</ele>
        <time>2016-08-12T22:12:07.000Z</time>
        <extensions>
          <ns3:TrackPointExtension>
            <ns3:atemp>19.0</ns3:atemp>
            <ns3:hr>139</ns3:hr>
          </ns3:TrackPointExtension>
        </extensions>
      </trkpt>
      <trkpt lat="-22.05661836080253124237060546875" lon="166.44566704519093036651611328125">
        <ele>887.4000244140625</ele>
        <time>2016-08-12T22:12:08.000Z</time>
        <extensions>
          <ns3:TrackPointExtension>
            <ns3:atemp>19.0</ns3:atemp>
            <ns3:hr>139</ns3:hr>
          </ns3:TrackPointExtension>
        </extensions>
      </trkpt>
      <trkpt lat="-22.056641913950443267822265625" lon="166.44566126167774200439453125">
        <ele>887.4000244140625</ele>
        <time>2016-08-12T22:12:09.000Z</time>
        <extensions>
          <ns3:TrackPointExtension>
            <ns3:atemp>19.0</ns3:atemp>
            <ns3:hr>139</ns3:hr>
          </ns3:TrackPointExtension>
        </extensions>
      </trkpt>
      <trkpt lat="-22.05666731111705303192138671875" lon="166.4456517063081264495849609375">
        <ele>887.79998779296875</ele>
        <time>2016-08-12T22:12:10.000Z</time>
        <extensions>
          <ns3:TrackPointExtension>
            <ns3:atemp>19.0</ns3:atemp>
            <ns3:hr>139</ns3:hr>
          </ns3:TrackPointExtension>
        </extensions>
      </trkpt>
      <trkpt lat="-22.05668977461755275726318359375" lon="166.44564575515687465667724609375">
        <ele>888.20001220703125</ele>
        <time>2016-08-12T22:12:11.000Z</time>
        <extensions>
          <ns3:TrackPointExtension>
            <ns3:atemp>19.0</ns3:atemp>
            <ns3:hr>139</ns3:hr>
          </ns3:TrackPointExtension>
        </extensions>
      </trkpt>
      <trkpt lat="-22.05671064555644989013671875" lon="166.44563167355954647064208984375">
        <ele>888.20001220703125</ele>
        <time>2016-08-12T22:12:12.000Z</time>
        <extensions>
          <ns3:TrackPointExtension>
            <ns3:atemp>19.0</ns3:atemp>
            <ns3:hr>139</ns3:hr>
          </ns3:TrackPointExtension>
        </extensions>
      </trkpt>
      <trkpt lat="-22.05672631971538066864013671875" lon="166.44562463276088237762451171875">
        <ele>888</ele>
        <time>2016-08-12T22:12:13.000Z</time>
        <extensions>
          <ns3:TrackPointExtension>
            <ns3:atemp>19.0</ns3:atemp>
            <ns3:hr>139</ns3:hr>
          </ns3:TrackPointExtension>
        </extensions>
      </trkpt>
      <trkpt lat="-22.05674819648265838623046875" lon="166.44561641849577426910400390625">
        <ele>888</ele>
        <time>2016-08-12T22:12:14.000Z</time>
        <extensions>
          <ns3:TrackPointExtension>
            <ns3:atemp>19.0</ns3:atemp>
            <ns3:hr>139</ns3:hr>
          </ns3:TrackPointExtension>
        </extensions>
      </trkpt>
      <trkpt lat="-22.05676889978349208831787109375" lon="166.44561088643968105316162109375">
        <ele>888.4000244140625</ele>
        <time>2016-08-12T22:12:15.000Z</time>
        <extensions>
          <ns3:TrackPointExtension>
            <ns3:atemp>19.0</ns3:atemp>
            <ns3:hr>139</ns3:hr>
          </ns3:TrackPointExtension>
        </extensions>
      </trkpt>
      <trkpt lat="-22.05678801052272319793701171875" lon="166.445606611669063568115234375">
        <ele>888.5999755859375</ele>
        <time>2016-08-12T22:12:16.000Z</time>
        <extensions>
          <ns3:TrackPointExtension>
            <ns3:atemp>19.0</ns3:atemp>
            <ns3:hr>139</ns3:hr>
          </ns3:TrackPointExtension>
        </extensions>
      </trkpt>
      <trkpt lat="-22.05681391060352325439453125" lon="166.44559646956622600555419921875">
        <ele>888.4000244140625</ele>
        <time>2016-08-12T22:12:17.000Z</time>
        <extensions>
          <ns3:TrackPointExtension>
            <ns3:atemp>19.0</ns3:atemp>
            <ns3:hr>139</ns3:hr>
          </ns3:TrackPointExtension>
        </extensions>
      </trkpt>
      <trkpt lat="-22.05683696083724498748779296875" lon="166.44558875821530818939208984375">
        <ele>888.4000244140625</ele>
        <time>2016-08-12T22:12:18.000Z</time>
        <extensions>
          <ns3:TrackPointExtension>
            <ns3:atemp>19.0</ns3:atemp>
            <ns3:hr>138</ns3:hr>
          </ns3:TrackPointExtension>
        </extensions>
      </trkpt>
      <trkpt lat="-22.05685774795711040496826171875" lon="166.44558138214051723480224609375">
        <ele>889.20001220703125</ele>
        <time>2016-08-12T22:12:19.000Z</time>
        <extensions>
          <ns3:TrackPointExtension>
            <ns3:atemp>19.0</ns3:atemp>
            <ns3:hr>139</ns3:hr>
          </ns3:TrackPointExtension>
        </extensions>
      </trkpt>
      <trkpt lat="-22.05688138492405414581298828125" lon="166.445571742951869964599609375">
        <ele>889.5999755859375</ele>
        <time>2016-08-12T22:12:20.000Z</time>
        <extensions>
          <ns3:TrackPointExtension>
            <ns3:atemp>19.0</ns3:atemp>
            <ns3:hr>139</ns3:hr>
          </ns3:TrackPointExtension>
        </extensions>
      </trkpt>
      <trkpt lat="-22.05690317787230014801025390625" lon="166.445560343563556671142578125">
        <ele>889.79998779296875</ele>
        <time>2016-08-12T22:12:21.000Z</time>
        <extensions>
          <ns3:TrackPointExtension>
            <ns3:atemp>19.0</ns3:atemp>
            <ns3:hr>139</ns3:hr>
          </ns3:TrackPointExtension>
        </extensions>
      </trkpt>
      <trkpt lat="-22.0569218695163726806640625" lon="166.445544920861721038818359375">
        <ele>889.79998779296875</ele>
        <time>2016-08-12T22:12:22.000Z</time>
        <extensions>
          <ns3:TrackPointExtension>
            <ns3:atemp>19.0</ns3:atemp>
            <ns3:hr>139</ns3:hr>
          </ns3:TrackPointExtension>
        </extensions>
      </trkpt>
      <trkpt lat="-22.0569488592445850372314453125" lon="166.44553125835955142974853515625">
        <ele>890.20001220703125</ele>
        <time>2016-08-12T22:12:23.000Z</time>
        <extensions>
          <ns3:TrackPointExtension>
            <ns3:atemp>19.0</ns3:atemp>
            <ns3:hr>139</ns3:hr>
          </ns3:TrackPointExtension>
        </extensions>
      </trkpt>
      <trkpt lat="-22.05697174184024333953857421875" lon="166.44551985897123813629150390625">
        <ele>890.4000244140625</ele>
        <time>2016-08-12T22:12:24.000Z</time>
        <extensions>
          <ns3:TrackPointExtension>
            <ns3:atemp>19.0</ns3:atemp>
            <ns3:hr>139</ns3:hr>
          </ns3:TrackPointExtension>
        </extensions>
      </trkpt>
      <trkpt lat="-22.0569957979023456573486328125" lon="166.4455078728497028350830078125">
        <ele>890</ele>
        <time>2016-08-12T22:12:25.000Z</time>
        <extensions>
          <ns3:TrackPointExtension>
            <ns3:atemp>19.0</ns3:atemp>
            <ns3:hr>139</ns3:hr>
          </ns3:TrackPointExtension>
        </extensions>
      </trkpt>
      <trkpt lat="-22.05702052451670169830322265625" lon="166.445497982203960418701171875">
        <ele>890.20001220703125</ele>
        <time>2016-08-12T22:12:26.000Z</time>
        <extensions>
          <ns3:TrackPointExtension>
            <ns3:atemp>19.0</ns3:atemp>
            <ns3:hr>140</ns3:hr>
          </ns3:TrackPointExtension>
        </extensions>
      </trkpt>
      <trkpt lat="-22.05704516731202602386474609375" lon="166.445491947233676910400390625">
        <ele>890.20001220703125</ele>
        <time>2016-08-12T22:12:27.000Z</time>
        <extensions>
          <ns3:TrackPointExtension>
            <ns3:atemp>19.0</ns3:atemp>
            <ns3:hr>139</ns3:hr>
          </ns3:TrackPointExtension>
        </extensions>
      </trkpt>
      <trkpt lat="-22.05707064829766750335693359375" lon="166.44548515789210796356201171875">
        <ele>890</ele>
        <time>2016-08-12T22:12:28.000Z</time>
        <extensions>
          <ns3:TrackPointExtension>
            <ns3:atemp>19.0</ns3:atemp>
            <ns3:hr>139</ns3:hr>
          </ns3:TrackPointExtension>
        </extensions>
      </trkpt>
      <trkpt lat="-22.0571895875036716461181640625" lon="166.4454528875648975372314453125">
        <ele>890.20001220703125</ele>
        <time>2016-08-12T22:12:33.000Z</time>
        <extensions>
          <ns3:TrackPointExtension>
            <ns3:atemp>19.0</ns3:atemp>
          </ns3:TrackPointExtension>
        </extensions>
      </trkpt>
      <trkpt lat="-22.05721464939415454864501953125" lon="166.44544861279428005218505859375">
        <ele>890.5999755859375</ele>
        <time>2016-08-12T22:12:34.000Z</time>
        <extensions>
          <ns3:TrackPointExtension>
            <ns3:atemp>19.0</ns3:atemp>
          </ns3:TrackPointExtension>
        </extensions>
      </trkpt>
      <trkpt lat="-22.05740676261484622955322265625" lon="166.445477865636348724365234375">
        <ele>891</ele>
        <time>2016-08-12T22:12:42.000Z</time>
        <extensions>
          <ns3:TrackPointExtension>
            <ns3:atemp>19.0</ns3:atemp>
            <ns3:hr>141</ns3:hr>
          </ns3:TrackPointExtension>
        </extensions>
      </trkpt>
      <trkpt lat="-22.05757892690598964691162109375" lon="166.44553276710212230682373046875">
        <ele>891.5999755859375</ele>
        <time>2016-08-12T22:12:49.000Z</time>
        <extensions>
          <ns3:TrackPointExtension>
            <ns3:atemp>19.0</ns3:atemp>
            <ns3:hr>140</ns3:hr>
          </ns3:TrackPointExtension>
        </extensions>
      </trkpt>
      <trkpt lat="-22.05760574899613857269287109375" lon="166.445539556443691253662109375">
        <ele>891.79998779296875</ele>
        <time>2016-08-12T22:12:50.000Z</time>
        <extensions>
          <ns3:TrackPointExtension>
            <ns3:atemp>19.0</ns3:atemp>
            <ns3:hr>140</ns3:hr>
          </ns3:TrackPointExtension>
        </extensions>
      </trkpt>
      <trkpt lat="-22.0576341636478900909423828125" lon="166.44554860889911651611328125">
        <ele>891.20001220703125</ele>
        <time>2016-08-12T22:12:51.000Z</time>
        <extensions>
          <ns3:TrackPointExtension>
            <ns3:atemp>19.0</ns3:atemp>
            <ns3:hr>140</ns3:hr>
          </ns3:TrackPointExtension>
        </extensions>
      </trkpt>
      <trkpt lat="-22.05766174010932445526123046875" lon="166.445554979145526885986328125">
        <ele>891.20001220703125</ele>
        <time>2016-08-12T22:12:52.000Z</time>
        <extensions>
          <ns3:TrackPointExtension>
            <ns3:atemp>19.0</ns3:atemp>
            <ns3:hr>140</ns3:hr>
          </ns3:TrackPointExtension>
        </extensions>
      </trkpt>
      <trkpt lat="-22.05768428742885589599609375" lon="166.4455641992390155792236328125">
        <ele>891.5999755859375</ele>
        <time>2016-08-12T22:12:53.000Z</time>
        <extensions>
          <ns3:TrackPointExtension>
            <ns3:atemp>19.0</ns3:atemp>
            <ns3:hr>140</ns3:hr>
          </ns3:TrackPointExtension>
        </extensions>
      </trkpt>
      <trkpt lat="-22.05770683474838733673095703125" lon="166.44557249732315540313720703125">
        <ele>891.79998779296875</ele>
        <time>2016-08-12T22:12:54.000Z</time>
        <extensions>
          <ns3:TrackPointExtension>
            <ns3:atemp>19.0</ns3:atemp>
            <ns3:hr>139</ns3:hr>
          </ns3:TrackPointExtension>
        </extensions>
      </trkpt>
      <trkpt lat="-22.05773315392434597015380859375" lon="166.4455766044557094573974609375">
        <ele>891.4000244140625</ele>
        <time>2016-08-12T22:12:55.000Z</time>
        <extensions>
          <ns3:TrackPointExtension>
            <ns3:atemp>19.0</ns3:atemp>
            <ns3:hr>139</ns3:hr>
          </ns3:TrackPointExtension>
        </extensions>
      </trkpt>
      <trkpt lat="-22.05776098184287548065185546875" lon="166.4455893449485301971435546875">
        <ele>891.20001220703125</ele>
        <time>2016-08-12T22:12:56.000Z</time>
        <extensions>
          <ns3:TrackPointExtension>
            <ns3:atemp>19.0</ns3:atemp>
            <ns3:hr>139</ns3:hr>
          </ns3:TrackPointExtension>
        </extensions>
      </trkpt>
      <trkpt lat="-22.05779316835105419158935546875" lon="166.445595212280750274658203125">
        <ele>891.5999755859375</ele>
        <time>2016-08-12T22:12:57.000Z</time>
        <extensions>
          <ns3:TrackPointExtension>
            <ns3:atemp>19.0</ns3:atemp>
            <ns3:hr>139</ns3:hr>
          </ns3:TrackPointExtension>
        </extensions>
      </trkpt>
      <trkpt lat="-22.0578229241073131561279296875" lon="166.4456002414226531982421875">
        <ele>892</ele>
        <time>2016-08-12T22:12:58.000Z</time>
        <extensions>
          <ns3:TrackPointExtension>
            <ns3:atemp>19.0</ns3:atemp>
            <ns3:hr>139</ns3:hr>
          </ns3:TrackPointExtension>
        </extensions>
      </trkpt>
      <trkpt lat="-22.05784496851265430450439453125" lon="166.44561407156288623809814453125">
        <ele>891.5999755859375</ele>
        <time>2016-08-12T22:12:59.000Z</time>
        <extensions>
          <ns3:TrackPointExtension>
            <ns3:atemp>19.0</ns3:atemp>
            <ns3:hr>139</ns3:hr>
          </ns3:TrackPointExtension>
        </extensions>
      </trkpt>
      <trkpt lat="-22.057877071201801300048828125" lon="166.44561977125704288482666015625">
        <ele>891.5999755859375</ele>
        <time>2016-08-12T22:13:00.000Z</time>
        <extensions>
          <ns3:TrackPointExtension>
            <ns3:atemp>19.0</ns3:atemp>
            <ns3:hr>138</ns3:hr>
          </ns3:TrackPointExtension>
        </extensions>
      </trkpt>
      <trkpt lat="-22.05790531821548938751220703125" lon="166.44562647677958011627197265625">
        <ele>891.79998779296875</ele>
        <time>2016-08-12T22:13:01.000Z</time>
        <extensions>
          <ns3:TrackPointExtension>
            <ns3:atemp>19.0</ns3:atemp>
            <ns3:hr>138</ns3:hr>
          </ns3:TrackPointExtension>
        </extensions>
      </trkpt>
      <trkpt lat="-22.05792778171598911285400390625" lon="166.4456403069198131561279296875">
        <ele>892</ele>
        <time>2016-08-12T22:13:02.000Z</time>
        <extensions>
          <ns3:TrackPointExtension>
            <ns3:atemp>19.0</ns3:atemp>
            <ns3:hr>138</ns3:hr>
          </ns3:TrackPointExtension>
        </extensions>
      </trkpt>
      <trkpt lat="-22.05795812420547008514404296875" lon="166.44564139656722545623779296875">
        <ele>891.79998779296875</ele>
        <time>2016-08-12T22:13:03.000Z</time>
        <extensions>
          <ns3:TrackPointExtension>
            <ns3:atemp>19.0</ns3:atemp>
            <ns3:hr>138</ns3:hr>
          </ns3:TrackPointExtension>
        </extensions>
      </trkpt>
      <trkpt lat="-22.05798326991498470306396484375" lon="166.44565179012715816497802734375">
        <ele>891.5999755859375</ele>
        <time>2016-08-12T22:13:04.000Z</time>
        <extensions>
          <ns3:TrackPointExtension>
            <ns3:atemp>19.0</ns3:atemp>
            <ns3:hr>137</ns3:hr>
          </ns3:TrackPointExtension>
        </extensions>
      </trkpt>
      <trkpt lat="-22.05801595933735370635986328125" lon="166.44565782509744167327880859375">
        <ele>892.20001220703125</ele>
        <time>2016-08-12T22:13:05.000Z</time>
        <extensions>
          <ns3:TrackPointExtension>
            <ns3:atemp>19.0</ns3:atemp>
            <ns3:hr>137</ns3:hr>
          </ns3:TrackPointExtension>
        </extensions>
      </trkpt>
      <trkpt lat="-22.05804169178009033203125" lon="166.44566126167774200439453125">
        <ele>892.4000244140625</ele>
        <time>2016-08-12T22:13:06.000Z</time>
        <extensions>
          <ns3:TrackPointExtension>
            <ns3:atemp>19.0</ns3:atemp>
            <ns3:hr>137</ns3:hr>
          </ns3:TrackPointExtension>
        </extensions>
      </trkpt>
      <trkpt lat="-22.058050744235515594482421875" lon="166.44567676819860935211181640625">
        <ele>892.20001220703125</ele>
        <time>2016-08-12T22:13:07.000Z</time>
        <extensions>
          <ns3:TrackPointExtension>
            <ns3:atemp>19.0</ns3:atemp>
            <ns3:hr>137</ns3:hr>
          </ns3:TrackPointExtension>
        </extensions>
      </trkpt>
      <trkpt lat="-22.0580698549747467041015625" lon="166.4456825517117977142333984375">
        <ele>892.20001220703125</ele>
        <time>2016-08-12T22:13:08.000Z</time>
        <extensions>
          <ns3:TrackPointExtension>
            <ns3:atemp>19.0</ns3:atemp>
            <ns3:hr>137</ns3:hr>
          </ns3:TrackPointExtension>
        </extensions>
      </trkpt>
      <trkpt lat="-22.0580939948558807373046875" lon="166.44568280316889286041259765625">
        <ele>892.5999755859375</ele>
        <time>2016-08-12T22:13:09.000Z</time>
        <extensions>
          <ns3:TrackPointExtension>
            <ns3:atemp>19.0</ns3:atemp>
            <ns3:hr>137</ns3:hr>
          </ns3:TrackPointExtension>
        </extensions>
      </trkpt>
      <trkpt lat="-22.05811235122382640838623046875" lon="166.44568833522498607635498046875">
        <ele>892.79998779296875</ele>
        <time>2016-08-12T22:13:10.000Z</time>
        <extensions>
          <ns3:TrackPointExtension>
            <ns3:atemp>19.0</ns3:atemp>
            <ns3:hr>136</ns3:hr>
          </ns3:TrackPointExtension>
        </extensions>
      </trkpt>
      <trkpt lat="-22.05813221633434295654296875" lon="166.44569118507206439971923828125">
        <ele>892.5999755859375</ele>
        <time>2016-08-12T22:13:11.000Z</time>
        <extensions>
          <ns3:TrackPointExtension>
            <ns3:atemp>19.0</ns3:atemp>
            <ns3:hr>136</ns3:hr>
          </ns3:TrackPointExtension>
        </extensions>
      </trkpt>
      <trkpt lat="-22.05814738757908344268798828125" lon="166.44569805823266506195068359375">
        <ele>892.4000244140625</ele>
        <time>2016-08-12T22:13:12.000Z</time>
        <extensions>
          <ns3:TrackPointExtension>
            <ns3:atemp>19.0</ns3:atemp>
            <ns3:hr>136</ns3:hr>
          </ns3:TrackPointExtension>
        </extensions>
      </trkpt>
      <trkpt lat="-22.05816750414669513702392578125" lon="166.445700488984584808349609375">
        <ele>892.79998779296875</ele>
        <time>2016-08-12T22:13:13.000Z</time>
        <extensions>
          <ns3:TrackPointExtension>
            <ns3:atemp>19.0</ns3:atemp>
            <ns3:hr>135</ns3:hr>
          </ns3:TrackPointExtension>
        </extensions>
      </trkpt>
      <trkpt lat="-22.05819399096071720123291015625" lon="166.445701830089092254638671875">
        <ele>893.20001220703125</ele>
        <time>2016-08-12T22:13:14.000Z</time>
        <extensions>
          <ns3:TrackPointExtension>
            <ns3:atemp>19.0</ns3:atemp>
            <ns3:hr>136</ns3:hr>
          </ns3:TrackPointExtension>
        </extensions>
      </trkpt>
      <trkpt lat="-22.0582064799964427947998046875" lon="166.4457201026380062103271484375">
        <ele>893.20001220703125</ele>
        <time>2016-08-12T22:13:15.000Z</time>
        <extensions>
          <ns3:TrackPointExtension>
            <ns3:atemp>19.0</ns3:atemp>
            <ns3:hr>136</ns3:hr>
          </ns3:TrackPointExtension>
        </extensions>
      </trkpt>
      <trkpt lat="-22.05823673866689205169677734375" lon="166.44572236575186252593994140625">
        <ele>893.20001220703125</ele>
        <time>2016-08-12T22:13:16.000Z</time>
        <extensions>
          <ns3:TrackPointExtension>
            <ns3:atemp>19.0</ns3:atemp>
            <ns3:hr>136</ns3:hr>
          </ns3:TrackPointExtension>
        </extensions>
      </trkpt>
      <trkpt lat="-22.05826473422348499298095703125" lon="166.4457264728844165802001953125">
        <ele>893.5999755859375</ele>
        <time>2016-08-12T22:13:17.000Z</time>
        <extensions>
          <ns3:TrackPointExtension>
            <ns3:atemp>19.0</ns3:atemp>
            <ns3:hr>136</ns3:hr>
          </ns3:TrackPointExtension>
        </extensions>
      </trkpt>
      <trkpt lat="-22.05828912556171417236328125" lon="166.4457321725785732269287109375">
        <ele>893.5999755859375</ele>
        <time>2016-08-12T22:13:18.000Z</time>
        <extensions>
          <ns3:TrackPointExtension>
            <ns3:atemp>19.0</ns3:atemp>
            <ns3:hr>136</ns3:hr>
          </ns3:TrackPointExtension>
        </extensions>
      </trkpt>
      <trkpt lat="-22.05830966122448444366455078125" lon="166.4457341842353343963623046875">
        <ele>893.4000244140625</ele>
        <time>2016-08-12T22:13:19.000Z</time>
        <extensions>
          <ns3:TrackPointExtension>
            <ns3:atemp>19.0</ns3:atemp>
            <ns3:hr>136</ns3:hr>
          </ns3:TrackPointExtension>
        </extensions>
      </trkpt>
      <trkpt lat="-22.0583208091557025909423828125" lon="166.445740051567554473876953125">
        <ele>893</ele>
        <time>2016-08-12T22:13:20.000Z</time>
        <extensions>
          <ns3:TrackPointExtension>
            <ns3:atemp>19.0</ns3:atemp>
            <ns3:hr>136</ns3:hr>
          </ns3:TrackPointExtension>
        </extensions>
      </trkpt>
      <trkpt lat="-22.05833564512431621551513671875" lon="166.445741392672061920166015625">
        <ele>893.20001220703125</ele>
        <time>2016-08-12T22:13:21.000Z</time>
        <extensions>
          <ns3:TrackPointExtension>
            <ns3:atemp>19.0</ns3:atemp>
            <ns3:hr>135</ns3:hr>
          </ns3:TrackPointExtension>
        </extensions>
      </trkpt>
      <trkpt lat="-22.05836355686187744140625" lon="166.44573795609176158905029296875">
        <ele>893.5999755859375</ele>
        <time>2016-08-12T22:13:22.000Z</time>
        <extensions>
          <ns3:TrackPointExtension>
            <ns3:atemp>19.0</ns3:atemp>
            <ns3:hr>135</ns3:hr>
          </ns3:TrackPointExtension>
        </extensions>
      </trkpt>
      <trkpt lat="-22.0584324561059474945068359375" lon="166.44570191390812397003173828125">
        <ele>893.5999755859375</ele>
        <time>2016-08-12T22:13:23.000Z</time>
        <extensions>
          <ns3:TrackPointExtension>
            <ns3:atemp>19.0</ns3:atemp>
            <ns3:hr>135</ns3:hr>
          </ns3:TrackPointExtension>
        </extensions>
      </trkpt>
      <trkpt lat="-22.0584555901587009429931640625" lon="166.44570040516555309295654296875">
        <ele>893.5999755859375</ele>
        <time>2016-08-12T22:13:24.000Z</time>
        <extensions>
          <ns3:TrackPointExtension>
            <ns3:atemp>19.0</ns3:atemp>
            <ns3:hr>135</ns3:hr>
          </ns3:TrackPointExtension>
        </extensions>
      </trkpt>
      <trkpt lat="-22.0584793947637081146240234375" lon="166.44570258446037769317626953125">
        <ele>894.20001220703125</ele>
        <time>2016-08-12T22:13:25.000Z</time>
        <extensions>
          <ns3:TrackPointExtension>
            <ns3:atemp>19.0</ns3:atemp>
            <ns3:hr>135</ns3:hr>
          </ns3:TrackPointExtension>
        </extensions>
      </trkpt>
      <trkpt lat="-22.0584721863269805908203125" lon="166.44572236575186252593994140625">
        <ele>894.20001220703125</ele>
        <time>2016-08-12T22:13:26.000Z</time>
        <extensions>
          <ns3:TrackPointExtension>
            <ns3:atemp>19.0</ns3:atemp>
            <ns3:hr>136</ns3:hr>
          </ns3:TrackPointExtension>
        </extensions>
      </trkpt>
      <trkpt lat="-22.0584663189947605133056640625" lon="166.44574298523366451263427734375">
        <ele>894</ele>
        <time>2016-08-12T22:13:27.000Z</time>
        <extensions>
          <ns3:TrackPointExtension>
            <ns3:atemp>19.0</ns3:atemp>
            <ns3:hr>135</ns3:hr>
          </ns3:TrackPointExtension>
        </extensions>
      </trkpt>
      <trkpt lat="-22.05848786048591136932373046875" lon="166.44574851728975772857666015625">
        <ele>893.20001220703125</ele>
        <time>2016-08-12T22:13:28.000Z</time>
        <extensions>
          <ns3:TrackPointExtension>
            <ns3:atemp>19.0</ns3:atemp>
            <ns3:hr>135</ns3:hr>
          </ns3:TrackPointExtension>
        </extensions>
      </trkpt>
      <trkpt lat="-22.0585018582642078399658203125" lon="166.44575773738324642181396484375">
        <ele>893.20001220703125</ele>
        <time>2016-08-12T22:13:29.000Z</time>
        <extensions>
          <ns3:TrackPointExtension>
            <ns3:atemp>19.0</ns3:atemp>
            <ns3:hr>135</ns3:hr>
          </ns3:TrackPointExtension>
        </extensions>
      </trkpt>
      <trkpt lat="-22.0585273392498493194580078125" lon="166.4457606710493564605712890625">
        <ele>893.79998779296875</ele>
        <time>2016-08-12T22:13:30.000Z</time>
        <extensions>
          <ns3:TrackPointExtension>
            <ns3:atemp>19.0</ns3:atemp>
            <ns3:hr>135</ns3:hr>
          </ns3:TrackPointExtension>
        </extensions>
      </trkpt>
      <trkpt lat="-22.0585518144071102142333984375" lon="166.44576410762965679168701171875">
        <ele>894</ele>
        <time>2016-08-12T22:13:31.000Z</time>
        <extensions>
          <ns3:TrackPointExtension>
            <ns3:atemp>19.0</ns3:atemp>
            <ns3:hr>135</ns3:hr>
          </ns3:TrackPointExtension>
        </extensions>
      </trkpt>
      <trkpt lat="-22.05857972614467144012451171875" lon="166.445767544209957122802734375">
        <ele>893.5999755859375</ele>
        <time>2016-08-12T22:13:32.000Z</time>
        <extensions>
          <ns3:TrackPointExtension>
            <ns3:atemp>19.0</ns3:atemp>
            <ns3:hr>135</ns3:hr>
          </ns3:TrackPointExtension>
        </extensions>
      </trkpt>
      <trkpt lat="-22.05861032009124755859375" lon="166.4457727409899234771728515625">
        <ele>893.4000244140625</ele>
        <time>2016-08-12T22:13:33.000Z</time>
        <extensions>
          <ns3:TrackPointExtension>
            <ns3:atemp>19.0</ns3:atemp>
            <ns3:hr>135</ns3:hr>
          </ns3:TrackPointExtension>
        </extensions>
      </trkpt>
      <trkpt lat="-22.05864041112363338470458984375" lon="166.44578523002564907073974609375">
        <ele>893.5999755859375</ele>
        <time>2016-08-12T22:13:34.000Z</time>
        <extensions>
          <ns3:TrackPointExtension>
            <ns3:atemp>19.0</ns3:atemp>
            <ns3:hr>135</ns3:hr>
          </ns3:TrackPointExtension>
        </extensions>
      </trkpt>
      <trkpt lat="-22.05867729149758815765380859375" lon="166.44579797051846981048583984375">
        <ele>893.5999755859375</ele>
        <time>2016-08-12T22:13:35.000Z</time>
        <extensions>
          <ns3:TrackPointExtension>
            <ns3:atemp>19.0</ns3:atemp>
            <ns3:hr>135</ns3:hr>
          </ns3:TrackPointExtension>
        </extensions>
      </trkpt>
      <trkpt lat="-22.05870796926319599151611328125" lon="166.4458067715167999267578125">
        <ele>893</ele>
        <time>2016-08-12T22:13:36.000Z</time>
        <extensions>
          <ns3:TrackPointExtension>
            <ns3:atemp>19.0</ns3:atemp>
            <ns3:hr>135</ns3:hr>
          </ns3:TrackPointExtension>
        </extensions>
      </trkpt>
      <trkpt lat="-22.058738730847835540771484375" lon="166.44581842236220836639404296875">
        <ele>892.79998779296875</ele>
        <time>2016-08-12T22:13:37.000Z</time>
        <extensions>
          <ns3:TrackPointExtension>
            <ns3:atemp>19.0</ns3:atemp>
            <ns3:hr>134</ns3:hr>
          </ns3:TrackPointExtension>
        </extensions>
      </trkpt>
      <trkpt lat="-22.05875054933130741119384765625" lon="166.44583703018724918365478515625">
        <ele>893.4000244140625</ele>
        <time>2016-08-12T22:13:38.000Z</time>
        <extensions>
          <ns3:TrackPointExtension>
            <ns3:atemp>19.0</ns3:atemp>
            <ns3:hr>134</ns3:hr>
          </ns3:TrackPointExtension>
        </extensions>
      </trkpt>
      <trkpt lat="-22.05877787433564662933349609375" lon="166.44584893248975276947021484375">
        <ele>893.5999755859375</ele>
        <time>2016-08-12T22:13:39.000Z</time>
        <extensions>
          <ns3:TrackPointExtension>
            <ns3:atemp>19.0</ns3:atemp>
            <ns3:hr>134</ns3:hr>
          </ns3:TrackPointExtension>
        </extensions>
      </trkpt>
      <trkpt lat="-22.05879832617938518524169921875" lon="166.4458615891635417938232421875">
        <ele>893.4000244140625</ele>
        <time>2016-08-12T22:13:40.000Z</time>
        <extensions>
          <ns3:TrackPointExtension>
            <ns3:atemp>19.0</ns3:atemp>
            <ns3:hr>134</ns3:hr>
          </ns3:TrackPointExtension>
        </extensions>
      </trkpt>
      <trkpt lat="-22.0588183589279651641845703125" lon="166.4458733238279819488525390625">
        <ele>893</ele>
        <time>2016-08-12T22:13:41.000Z</time>
        <extensions>
          <ns3:TrackPointExtension>
            <ns3:atemp>19.0</ns3:atemp>
            <ns3:hr>134</ns3:hr>
          </ns3:TrackPointExtension>
        </extensions>
      </trkpt>
      <trkpt lat="-22.05884258262813091278076171875" lon="166.44588497467339038848876953125">
        <ele>893.4000244140625</ele>
        <time>2016-08-12T22:13:42.000Z</time>
        <extensions>
          <ns3:TrackPointExtension>
            <ns3:atemp>19.0</ns3:atemp>
            <ns3:hr>134</ns3:hr>
          </ns3:TrackPointExtension>
        </extensions>
      </trkpt>
      <trkpt lat="-22.0588646270334720611572265625" lon="166.44589737989008426666259765625">
        <ele>893.79998779296875</ele>
        <time>2016-08-12T22:13:43.000Z</time>
        <extensions>
          <ns3:TrackPointExtension>
            <ns3:atemp>19.0</ns3:atemp>
            <ns3:hr>134</ns3:hr>
          </ns3:TrackPointExtension>
        </extensions>
      </trkpt>
      <trkpt lat="-22.0588880963623523712158203125" lon="166.445908360183238983154296875">
        <ele>893.4000244140625</ele>
        <time>2016-08-12T22:13:44.000Z</time>
        <extensions>
          <ns3:TrackPointExtension>
            <ns3:atemp>19.0</ns3:atemp>
            <ns3:hr>134</ns3:hr>
          </ns3:TrackPointExtension>
        </extensions>
      </trkpt>
      <trkpt lat="-22.05891500227153301239013671875" lon="166.44592118449509143829345703125">
        <ele>893</ele>
        <time>2016-08-12T22:13:45.000Z</time>
        <extensions>
          <ns3:TrackPointExtension>
            <ns3:atemp>19.0</ns3:atemp>
            <ns3:hr>134</ns3:hr>
          </ns3:TrackPointExtension>
        </extensions>
      </trkpt>
      <trkpt lat="-22.05893444828689098358154296875" lon="166.44593576900660991668701171875">
        <ele>893.20001220703125</ele>
        <time>2016-08-12T22:13:46.000Z</time>
        <extensions>
          <ns3:TrackPointExtension>
            <ns3:atemp>19.0</ns3:atemp>
            <ns3:hr>134</ns3:hr>
          </ns3:TrackPointExtension>
        </extensions>
      </trkpt>
      <trkpt lat="-22.05896101891994476318359375" lon="166.44594750367105007171630859375">
        <ele>893.4000244140625</ele>
        <time>2016-08-12T22:13:47.000Z</time>
        <extensions>
          <ns3:TrackPointExtension>
            <ns3:atemp>19.0</ns3:atemp>
            <ns3:hr>134</ns3:hr>
          </ns3:TrackPointExtension>
        </extensions>
      </trkpt>
      <trkpt lat="-22.0589940436184406280517578125" lon="166.4459598250687122344970703125">
        <ele>893.20001220703125</ele>
        <time>2016-08-12T22:13:48.000Z</time>
        <extensions>
          <ns3:TrackPointExtension>
            <ns3:atemp>19.0</ns3:atemp>
            <ns3:hr>134</ns3:hr>
          </ns3:TrackPointExtension>
        </extensions>
      </trkpt>
      <trkpt lat="-22.059023715555667877197265625" lon="166.4459735713899135589599609375">
        <ele>893</ele>
        <time>2016-08-12T22:13:49.000Z</time>
        <extensions>
          <ns3:TrackPointExtension>
            <ns3:atemp>19.0</ns3:atemp>
            <ns3:hr>134</ns3:hr>
          </ns3:TrackPointExtension>
        </extensions>
      </trkpt>
      <trkpt lat="-22.05904793925583362579345703125" lon="166.44598849117755889892578125">
        <ele>894</ele>
        <time>2016-08-12T22:13:50.000Z</time>
        <extensions>
          <ns3:TrackPointExtension>
            <ns3:atemp>19.0</ns3:atemp>
            <ns3:hr>133</ns3:hr>
          </ns3:TrackPointExtension>
        </extensions>
      </trkpt>
      <trkpt lat="-22.0590731687843799591064453125" lon="166.44600190222263336181640625">
        <ele>893.79998779296875</ele>
        <time>2016-08-12T22:13:51.000Z</time>
        <extensions>
          <ns3:TrackPointExtension>
            <ns3:atemp>19.0</ns3:atemp>
            <ns3:hr>133</ns3:hr>
          </ns3:TrackPointExtension>
        </extensions>
      </trkpt>
      <trkpt lat="-22.059094794094562530517578125" lon="166.4460174925625324249267578125">
        <ele>893.20001220703125</ele>
        <time>2016-08-12T22:13:52.000Z</time>
        <extensions>
          <ns3:TrackPointExtension>
            <ns3:atemp>19.0</ns3:atemp>
            <ns3:hr>133</ns3:hr>
          </ns3:TrackPointExtension>
        </extensions>
      </trkpt>
      <trkpt lat="-22.05911180935800075531005859375" lon="166.4460374414920806884765625">
        <ele>892.4000244140625</ele>
        <time>2016-08-12T22:13:53.000Z</time>
        <extensions>
          <ns3:TrackPointExtension>
            <ns3:atemp>19.0</ns3:atemp>
            <ns3:hr>133</ns3:hr>
          </ns3:TrackPointExtension>
        </extensions>
      </trkpt>
      <trkpt lat="-22.0591331832110881805419921875" lon="166.44605764187872409820556640625">
        <ele>892.5999755859375</ele>
        <time>2016-08-12T22:13:54.000Z</time>
        <extensions>
          <ns3:TrackPointExtension>
            <ns3:atemp>19.0</ns3:atemp>
            <ns3:hr>134</ns3:hr>
          </ns3:TrackPointExtension>
        </extensions>
      </trkpt>
      <trkpt lat="-22.0591522939503192901611328125" lon="166.44608027301728725433349609375">
        <ele>893.5999755859375</ele>
        <time>2016-08-12T22:13:55.000Z</time>
        <extensions>
          <ns3:TrackPointExtension>
            <ns3:atemp>19.0</ns3:atemp>
            <ns3:hr>134</ns3:hr>
          </ns3:TrackPointExtension>
        </extensions>
      </trkpt>
      <trkpt lat="-22.059171237051486968994140625" lon="166.44609686918556690216064453125">
        <ele>893.79998779296875</ele>
        <time>2016-08-12T22:13:56.000Z</time>
        <extensions>
          <ns3:TrackPointExtension>
            <ns3:atemp>19.0</ns3:atemp>
            <ns3:hr>134</ns3:hr>
          </ns3:TrackPointExtension>
        </extensions>
      </trkpt>
      <trkpt lat="-22.059181295335292816162109375" lon="166.4461157284677028656005859375">
        <ele>893.5999755859375</ele>
        <time>2016-08-12T22:13:57.000Z</time>
        <extensions>
          <ns3:TrackPointExtension>
            <ns3:atemp>19.0</ns3:atemp>
            <ns3:hr>134</ns3:hr>
          </ns3:TrackPointExtension>
        </extensions>
      </trkpt>
      <trkpt lat="-22.05919705331325531005859375" lon="166.44613810814917087554931640625">
        <ele>893.20001220703125</ele>
        <time>2016-08-12T22:13:58.000Z</time>
        <extensions>
          <ns3:TrackPointExtension>
            <ns3:atemp>19.0</ns3:atemp>
            <ns3:hr>134</ns3:hr>
          </ns3:TrackPointExtension>
        </extensions>
      </trkpt>
      <trkpt lat="-22.05922010354697704315185546875" lon="166.44615688361227512359619140625">
        <ele>893.5999755859375</ele>
        <time>2016-08-12T22:13:59.000Z</time>
        <extensions>
          <ns3:TrackPointExtension>
            <ns3:atemp>19.0</ns3:atemp>
            <ns3:hr>134</ns3:hr>
          </ns3:TrackPointExtension>
        </extensions>
      </trkpt>
      <trkpt lat="-22.0592347718775272369384765625" lon="166.4461757428944110870361328125">
        <ele>894.20001220703125</ele>
        <time>2016-08-12T22:14:00.000Z</time>
        <extensions>
          <ns3:TrackPointExtension>
            <ns3:atemp>19.0</ns3:atemp>
            <ns3:hr>135</ns3:hr>
          </ns3:TrackPointExtension>
        </extensions>
      </trkpt>
      <trkpt lat="-22.0592527091503143310546875" lon="166.4461935125291347503662109375">
        <ele>894.20001220703125</ele>
        <time>2016-08-12T22:14:01.000Z</time>
        <extensions>
          <ns3:TrackPointExtension>
            <ns3:atemp>19.0</ns3:atemp>
            <ns3:hr>135</ns3:hr>
          </ns3:TrackPointExtension>
        </extensions>
      </trkpt>
      <trkpt lat="-22.05927022732794284820556640625" lon="166.44621321000158786773681640625">
        <ele>894</ele>
        <time>2016-08-12T22:14:02.000Z</time>
        <extensions>
          <ns3:TrackPointExtension>
            <ns3:atemp>19.0</ns3:atemp>
            <ns3:hr>135</ns3:hr>
          </ns3:TrackPointExtension>
        </extensions>
      </trkpt>
      <trkpt lat="-22.059296630322933197021484375" lon="166.44623215310275554656982421875">
        <ele>894.20001220703125</ele>
        <time>2016-08-12T22:14:03.000Z</time>
        <extensions>
          <ns3:TrackPointExtension>
            <ns3:atemp>19.0</ns3:atemp>
            <ns3:hr>135</ns3:hr>
          </ns3:TrackPointExtension>
        </extensions>
      </trkpt>
      <trkpt lat="-22.05932437442243099212646484375" lon="166.4462481625378131866455078125">
        <ele>894.5999755859375</ele>
        <time>2016-08-12T22:14:04.000Z</time>
        <extensions>
          <ns3:TrackPointExtension>
            <ns3:atemp>19.0</ns3:atemp>
            <ns3:hr>135</ns3:hr>
          </ns3:TrackPointExtension>
        </extensions>
      </trkpt>
      <trkpt lat="-22.0593521185219287872314453125" lon="166.44626165740191936492919921875">
        <ele>894.4000244140625</ele>
        <time>2016-08-12T22:14:05.000Z</time>
        <extensions>
          <ns3:TrackPointExtension>
            <ns3:atemp>19.0</ns3:atemp>
            <ns3:hr>135</ns3:hr>
          </ns3:TrackPointExtension>
        </extensions>
      </trkpt>
      <trkpt lat="-22.0593729056417942047119140625" lon="166.4462716318666934967041015625">
        <ele>893.5999755859375</ele>
        <time>2016-08-12T22:14:06.000Z</time>
        <extensions>
          <ns3:TrackPointExtension>
            <ns3:atemp>19.0</ns3:atemp>
            <ns3:hr>135</ns3:hr>
          </ns3:TrackPointExtension>
        </extensions>
      </trkpt>
      <trkpt lat="-22.05939662642776966094970703125" lon="166.44628219306468963623046875">
        <ele>893.5999755859375</ele>
        <time>2016-08-12T22:14:07.000Z</time>
        <extensions>
          <ns3:TrackPointExtension>
            <ns3:atemp>19.0</ns3:atemp>
            <ns3:hr>136</ns3:hr>
          </ns3:TrackPointExtension>
        </extensions>
      </trkpt>
      <trkpt lat="-22.05941925756633281707763671875" lon="166.44629560410976409912109375">
        <ele>894.4000244140625</ele>
        <time>2016-08-12T22:14:08.000Z</time>
        <extensions>
          <ns3:TrackPointExtension>
            <ns3:atemp>19.0</ns3:atemp>
            <ns3:hr>136</ns3:hr>
          </ns3:TrackPointExtension>
        </extensions>
      </trkpt>
      <trkpt lat="-22.059437446296215057373046875" lon="166.44631094299256801605224609375">
        <ele>894.5999755859375</ele>
        <time>2016-08-12T22:14:09.000Z</time>
        <extensions>
          <ns3:TrackPointExtension>
            <ns3:atemp>19.0</ns3:atemp>
            <ns3:hr>136</ns3:hr>
          </ns3:TrackPointExtension>
        </extensions>
      </trkpt>
      <trkpt lat="-22.0594563893973827362060546875" lon="166.44632770679891109466552734375">
        <ele>894</ele>
        <time>2016-08-12T22:14:10.000Z</time>
        <extensions>
          <ns3:TrackPointExtension>
            <ns3:atemp>19.0</ns3:atemp>
            <ns3:hr>137</ns3:hr>
          </ns3:TrackPointExtension>
        </extensions>
      </trkpt>
      <trkpt lat="-22.059472315013408660888671875" lon="166.446343548595905303955078125">
        <ele>893.4000244140625</ele>
        <time>2016-08-12T22:14:11.000Z</time>
        <extensions>
          <ns3:TrackPointExtension>
            <ns3:atemp>19.0</ns3:atemp>
            <ns3:hr>137</ns3:hr>
          </ns3:TrackPointExtension>
        </extensions>
      </trkpt>
      <trkpt lat="-22.059492431581020355224609375" lon="166.44636039622128009796142578125">
        <ele>893.4000244140625</ele>
        <time>2016-08-12T22:14:12.000Z</time>
        <extensions>
          <ns3:TrackPointExtension>
            <ns3:atemp>19.0</ns3:atemp>
            <ns3:hr>137</ns3:hr>
          </ns3:TrackPointExtension>
        </extensions>
      </trkpt>
      <trkpt lat="-22.05950844101607799530029296875" lon="166.44638168625533580780029296875">
        <ele>894</ele>
        <time>2016-08-12T22:14:13.000Z</time>
        <extensions>
          <ns3:TrackPointExtension>
            <ns3:atemp>19.0</ns3:atemp>
            <ns3:hr>138</ns3:hr>
          </ns3:TrackPointExtension>
        </extensions>
      </trkpt>
      <trkpt lat="-22.05952470190823078155517578125" lon="166.446402557194232940673828125">
        <ele>894</ele>
        <time>2016-08-12T22:14:14.000Z</time>
        <extensions>
          <ns3:TrackPointExtension>
            <ns3:atemp>19.0</ns3:atemp>
            <ns3:hr>138</ns3:hr>
          </ns3:TrackPointExtension>
        </extensions>
      </trkpt>
      <trkpt lat="-22.05954062752425670623779296875" lon="166.44642569124698638916015625">
        <ele>893.5999755859375</ele>
        <time>2016-08-12T22:14:15.000Z</time>
        <extensions>
          <ns3:TrackPointExtension>
            <ns3:atemp>19.0</ns3:atemp>
            <ns3:hr>138</ns3:hr>
          </ns3:TrackPointExtension>
        </extensions>
      </trkpt>
      <trkpt lat="-22.0595559664070606231689453125" lon="166.44644723273813724517822265625">
        <ele>893.79998779296875</ele>
        <time>2016-08-12T22:14:16.000Z</time>
        <extensions>
          <ns3:TrackPointExtension>
            <ns3:atemp>19.0</ns3:atemp>
            <ns3:hr>138</ns3:hr>
          </ns3:TrackPointExtension>
        </extensions>
      </trkpt>
      <trkpt lat="-22.059574909508228302001953125" lon="166.44646801985800266265869140625">
        <ele>894.4000244140625</ele>
        <time>2016-08-12T22:14:17.000Z</time>
        <extensions>
          <ns3:TrackPointExtension>
            <ns3:atemp>19.0</ns3:atemp>
            <ns3:hr>139</ns3:hr>
          </ns3:TrackPointExtension>
        </extensions>
      </trkpt>
      <trkpt lat="-22.05958731472492218017578125" lon="166.4464915730059146881103515625">
        <ele>894.4000244140625</ele>
        <time>2016-08-12T22:14:18.000Z</time>
        <extensions>
          <ns3:TrackPointExtension>
            <ns3:atemp>19.0</ns3:atemp>
            <ns3:hr>139</ns3:hr>
          </ns3:TrackPointExtension>
        </extensions>
      </trkpt>
      <trkpt lat="-22.05959938466548919677734375" lon="166.44651160575449466705322265625">
        <ele>893.79998779296875</ele>
        <time>2016-08-12T22:14:19.000Z</time>
        <extensions>
          <ns3:TrackPointExtension>
            <ns3:atemp>19.0</ns3:atemp>
            <ns3:hr>139</ns3:hr>
          </ns3:TrackPointExtension>
        </extensions>
      </trkpt>
      <trkpt lat="-22.05961556173861026763916015625" lon="166.4465344883501529693603515625">
        <ele>893.5999755859375</ele>
        <time>2016-08-12T22:14:20.000Z</time>
        <extensions>
          <ns3:TrackPointExtension>
            <ns3:atemp>19.0</ns3:atemp>
            <ns3:hr>139</ns3:hr>
          </ns3:TrackPointExtension>
        </extensions>
      </trkpt>
      <trkpt lat="-22.0596290566027164459228515625" lon="166.4465566165745258331298828125">
        <ele>894</ele>
        <time>2016-08-12T22:14:21.000Z</time>
        <extensions>
          <ns3:TrackPointExtension>
            <ns3:atemp>19.0</ns3:atemp>
            <ns3:hr>139</ns3:hr>
          </ns3:TrackPointExtension>
        </extensions>
      </trkpt>
      <trkpt lat="-22.0596324093639850616455078125" lon="166.446580253541469573974609375">
        <ele>894.4000244140625</ele>
        <time>2016-08-12T22:14:22.000Z</time>
        <extensions>
          <ns3:TrackPointExtension>
            <ns3:atemp>18.0</ns3:atemp>
            <ns3:hr>139</ns3:hr>
          </ns3:TrackPointExtension>
        </extensions>
      </trkpt>
      <trkpt lat="-22.0596417970955371856689453125" lon="166.4466072432696819305419921875">
        <ele>894.20001220703125</ele>
        <time>2016-08-12T22:14:23.000Z</time>
        <extensions>
          <ns3:TrackPointExtension>
            <ns3:atemp>18.0</ns3:atemp>
            <ns3:hr>139</ns3:hr>
          </ns3:TrackPointExtension>
        </extensions>
      </trkpt>
      <trkpt lat="-22.05964942462742328643798828125" lon="166.4466300420463085174560546875">
        <ele>893.5999755859375</ele>
        <time>2016-08-12T22:14:24.000Z</time>
        <extensions>
          <ns3:TrackPointExtension>
            <ns3:atemp>18.0</ns3:atemp>
            <ns3:hr>139</ns3:hr>
          </ns3:TrackPointExtension>
        </extensions>
      </trkpt>
      <trkpt lat="-22.05965948291122913360595703125" lon="166.44665476866066455841064453125">
        <ele>893.79998779296875</ele>
        <time>2016-08-12T22:14:25.000Z</time>
        <extensions>
          <ns3:TrackPointExtension>
            <ns3:atemp>18.0</ns3:atemp>
            <ns3:hr>139</ns3:hr>
          </ns3:TrackPointExtension>
        </extensions>
      </trkpt>
      <trkpt lat="-22.0596711337566375732421875" lon="166.4466798305511474609375">
        <ele>894.5999755859375</ele>
        <time>2016-08-12T22:14:26.000Z</time>
        <extensions>
          <ns3:TrackPointExtension>
            <ns3:atemp>18.0</ns3:atemp>
            <ns3:hr>140</ns3:hr>
          </ns3:TrackPointExtension>
        </extensions>
      </trkpt>
      <trkpt lat="-22.05969351343810558319091796875" lon="166.44670438952744007110595703125">
        <ele>894.79998779296875</ele>
        <time>2016-08-12T22:14:27.000Z</time>
        <extensions>
          <ns3:TrackPointExtension>
            <ns3:atemp>18.0</ns3:atemp>
            <ns3:hr>139</ns3:hr>
          </ns3:TrackPointExtension>
        </extensions>
      </trkpt>
      <trkpt lat="-22.0597189106047153472900390625" lon="166.4467255957424640655517578125">
        <ele>894</ele>
        <time>2016-08-12T22:14:28.000Z</time>
        <extensions>
          <ns3:TrackPointExtension>
            <ns3:atemp>18.0</ns3:atemp>
            <ns3:hr>140</ns3:hr>
          </ns3:TrackPointExtension>
        </extensions>
      </trkpt>
      <trkpt lat="-22.05974531359970569610595703125" lon="166.44674227572977542877197265625">
        <ele>893.79998779296875</ele>
        <time>2016-08-12T22:14:29.000Z</time>
        <extensions>
          <ns3:TrackPointExtension>
            <ns3:atemp>18.0</ns3:atemp>
            <ns3:hr>140</ns3:hr>
          </ns3:TrackPointExtension>
        </extensions>
      </trkpt>
      <trkpt lat="-22.059771381318569183349609375" lon="166.44675560295581817626953125">
        <ele>894.4000244140625</ele>
        <time>2016-08-12T22:14:30.000Z</time>
        <extensions>
          <ns3:TrackPointExtension>
            <ns3:atemp>18.0</ns3:atemp>
            <ns3:hr>140</ns3:hr>
          </ns3:TrackPointExtension>
        </extensions>
      </trkpt>
      <trkpt lat="-22.05979761667549610137939453125" lon="166.4467661641538143157958984375">
        <ele>895</ele>
        <time>2016-08-12T22:14:31.000Z</time>
        <extensions>
          <ns3:TrackPointExtension>
            <ns3:atemp>18.0</ns3:atemp>
            <ns3:hr>139</ns3:hr>
          </ns3:TrackPointExtension>
        </extensions>
      </trkpt>
      <trkpt lat="-22.0598241873085498809814453125" lon="166.44677630625665187835693359375">
        <ele>894.79998779296875</ele>
        <time>2016-08-12T22:14:32.000Z</time>
        <extensions>
          <ns3:TrackPointExtension>
            <ns3:atemp>18.0</ns3:atemp>
            <ns3:hr>140</ns3:hr>
          </ns3:TrackPointExtension>
        </extensions>
      </trkpt>
      <trkpt lat="-22.05984958447515964508056640625" lon="166.4467859454452991485595703125">
        <ele>894.20001220703125</ele>
        <time>2016-08-12T22:14:33.000Z</time>
        <extensions>
          <ns3:TrackPointExtension>
            <ns3:atemp>18.0</ns3:atemp>
            <ns3:hr>139</ns3:hr>
          </ns3:TrackPointExtension>
        </extensions>
      </trkpt>
      <trkpt lat="-22.05986551009118556976318359375" lon="166.44679457880556583404541015625">
        <ele>894.4000244140625</ele>
        <time>2016-08-12T22:14:34.000Z</time>
        <extensions>
          <ns3:TrackPointExtension>
            <ns3:atemp>18.0</ns3:atemp>
            <ns3:hr>140</ns3:hr>
          </ns3:TrackPointExtension>
        </extensions>
      </trkpt>
      <trkpt lat="-22.05988093279302120208740234375" lon="166.4468037150800228118896484375">
        <ele>895</ele>
        <time>2016-08-12T22:14:35.000Z</time>
        <extensions>
          <ns3:TrackPointExtension>
            <ns3:atemp>18.0</ns3:atemp>
            <ns3:hr>139</ns3:hr>
          </ns3:TrackPointExtension>
        </extensions>
      </trkpt>
      <trkpt lat="-22.05989367328584194183349609375" lon="166.44681469537317752838134765625">
        <ele>894.79998779296875</ele>
        <time>2016-08-12T22:14:36.000Z</time>
        <extensions>
          <ns3:TrackPointExtension>
            <ns3:atemp>18.0</ns3:atemp>
            <ns3:hr>139</ns3:hr>
          </ns3:TrackPointExtension>
        </extensions>
      </trkpt>
      <trkpt lat="-22.05991052091121673583984375" lon="166.4468251727521419525146484375">
        <ele>894.5999755859375</ele>
        <time>2016-08-12T22:14:37.000Z</time>
        <extensions>
          <ns3:TrackPointExtension>
            <ns3:atemp>18.0</ns3:atemp>
            <ns3:hr>140</ns3:hr>
          </ns3:TrackPointExtension>
        </extensions>
      </trkpt>
      <trkpt lat="-22.05993273295462131500244140625" lon="166.44683632068336009979248046875">
        <ele>894.5999755859375</ele>
        <time>2016-08-12T22:14:38.000Z</time>
        <extensions>
          <ns3:TrackPointExtension>
            <ns3:atemp>18.0</ns3:atemp>
            <ns3:hr>139</ns3:hr>
          </ns3:TrackPointExtension>
        </extensions>
      </trkpt>
      <trkpt lat="-22.0599452219903469085693359375" lon="166.4468419365584850311279296875">
        <ele>895.20001220703125</ele>
        <time>2016-08-12T22:14:39.000Z</time>
        <extensions>
          <ns3:TrackPointExtension>
            <ns3:atemp>18.0</ns3:atemp>
            <ns3:hr>139</ns3:hr>
          </ns3:TrackPointExtension>
        </extensions>
      </trkpt>
      <trkpt lat="-22.05995787866413593292236328125" lon="166.44684411585330963134765625">
        <ele>895.20001220703125</ele>
        <time>2016-08-12T22:14:40.000Z</time>
        <extensions>
          <ns3:TrackPointExtension>
            <ns3:atemp>18.0</ns3:atemp>
            <ns3:hr>139</ns3:hr>
          </ns3:TrackPointExtension>
        </extensions>
      </trkpt>
      <trkpt lat="-22.05997355282306671142578125" lon="166.44684352912008762359619140625">
        <ele>895.20001220703125</ele>
        <time>2016-08-12T22:14:41.000Z</time>
        <extensions>
          <ns3:TrackPointExtension>
            <ns3:atemp>18.0</ns3:atemp>
            <ns3:hr>139</ns3:hr>
          </ns3:TrackPointExtension>
        </extensions>
      </trkpt>
      <trkpt lat="-22.05998302437365055084228515625" lon="166.4468402601778507232666015625">
        <ele>895.79998779296875</ele>
        <time>2016-08-12T22:14:42.000Z</time>
        <extensions>
          <ns3:TrackPointExtension>
            <ns3:atemp>18.0</ns3:atemp>
            <ns3:hr>139</ns3:hr>
          </ns3:TrackPointExtension>
        </extensions>
      </trkpt>
      <trkpt lat="-22.0600042305886745452880859375" lon="166.446837075054645538330078125">
        <ele>896.4000244140625</ele>
        <time>2016-08-12T22:14:43.000Z</time>
        <extensions>
          <ns3:TrackPointExtension>
            <ns3:atemp>18.0</ns3:atemp>
            <ns3:hr>139</ns3:hr>
          </ns3:TrackPointExtension>
        </extensions>
      </trkpt>
      <trkpt lat="-22.060014121234416961669921875" lon="166.44683732651174068450927734375">
        <ele>896.20001220703125</ele>
        <time>2016-08-12T22:14:44.000Z</time>
        <extensions>
          <ns3:TrackPointExtension>
            <ns3:atemp>18.0</ns3:atemp>
            <ns3:hr>139</ns3:hr>
          </ns3:TrackPointExtension>
        </extensions>
      </trkpt>
      <trkpt lat="-22.06003599800169467926025390625" lon="166.44683866761624813079833984375">
        <ele>896</ele>
        <time>2016-08-12T22:14:45.000Z</time>
        <extensions>
          <ns3:TrackPointExtension>
            <ns3:atemp>18.0</ns3:atemp>
            <ns3:hr>140</ns3:hr>
          </ns3:TrackPointExtension>
        </extensions>
      </trkpt>
      <trkpt lat="-22.06005267798900604248046875" lon="166.44684101454913616180419921875">
        <ele>896.20001220703125</ele>
        <time>2016-08-12T22:14:46.000Z</time>
        <extensions>
          <ns3:TrackPointExtension>
            <ns3:atemp>18.0</ns3:atemp>
            <ns3:hr>140</ns3:hr>
          </ns3:TrackPointExtension>
        </extensions>
      </trkpt>
      <trkpt lat="-22.0600732974708080291748046875" lon="166.44684235565364360809326171875">
        <ele>897</ele>
        <time>2016-08-12T22:14:47.000Z</time>
        <extensions>
          <ns3:TrackPointExtension>
            <ns3:atemp>18.0</ns3:atemp>
            <ns3:hr>139</ns3:hr>
          </ns3:TrackPointExtension>
        </extensions>
      </trkpt>
      <trkpt lat="-22.060097269713878631591796875" lon="166.44684688188135623931884765625">
        <ele>897</ele>
        <time>2016-08-12T22:14:48.000Z</time>
        <extensions>
          <ns3:TrackPointExtension>
            <ns3:atemp>18.0</ns3:atemp>
            <ns3:hr>140</ns3:hr>
          </ns3:TrackPointExtension>
        </extensions>
      </trkpt>
      <trkpt lat="-22.06011570990085601806640625" lon="166.44685409031808376312255859375">
        <ele>897</ele>
        <time>2016-08-12T22:14:49.000Z</time>
        <extensions>
          <ns3:TrackPointExtension>
            <ns3:atemp>18.0</ns3:atemp>
            <ns3:hr>140</ns3:hr>
          </ns3:TrackPointExtension>
        </extensions>
      </trkpt>
      <trkpt lat="-22.06013725139200687408447265625" lon="166.44686481915414333343505859375">
        <ele>897.20001220703125</ele>
        <time>2016-08-12T22:14:50.000Z</time>
        <extensions>
          <ns3:TrackPointExtension>
            <ns3:atemp>18.0</ns3:atemp>
            <ns3:hr>140</ns3:hr>
          </ns3:TrackPointExtension>
        </extensions>
      </trkpt>
      <trkpt lat="-22.06016524694859981536865234375" lon="166.446873284876346588134765625">
        <ele>897.79998779296875</ele>
        <time>2016-08-12T22:14:51.000Z</time>
        <extensions>
          <ns3:TrackPointExtension>
            <ns3:atemp>18.0</ns3:atemp>
            <ns3:hr>140</ns3:hr>
          </ns3:TrackPointExtension>
        </extensions>
      </trkpt>
      <trkpt lat="-22.06018947064876556396484375" lon="166.446879990398883819580078125">
        <ele>897.5999755859375</ele>
        <time>2016-08-12T22:14:52.000Z</time>
        <extensions>
          <ns3:TrackPointExtension>
            <ns3:atemp>18.0</ns3:atemp>
            <ns3:hr>141</ns3:hr>
          </ns3:TrackPointExtension>
        </extensions>
      </trkpt>
      <trkpt lat="-22.06021134741604328155517578125" lon="166.44688962958753108978271484375">
        <ele>897.20001220703125</ele>
        <time>2016-08-12T22:14:53.000Z</time>
        <extensions>
          <ns3:TrackPointExtension>
            <ns3:atemp>18.0</ns3:atemp>
            <ns3:hr>141</ns3:hr>
          </ns3:TrackPointExtension>
        </extensions>
      </trkpt>
      <trkpt lat="-22.06023029051721096038818359375" lon="166.44689952023327350616455078125">
        <ele>897.5999755859375</ele>
        <time>2016-08-12T22:14:54.000Z</time>
        <extensions>
          <ns3:TrackPointExtension>
            <ns3:atemp>18.0</ns3:atemp>
            <ns3:hr>141</ns3:hr>
          </ns3:TrackPointExtension>
        </extensions>
      </trkpt>
      <trkpt lat="-22.06024982035160064697265625" lon="166.44690714776515960693359375">
        <ele>897.5999755859375</ele>
        <time>2016-08-12T22:14:55.000Z</time>
        <extensions>
          <ns3:TrackPointExtension>
            <ns3:atemp>18.0</ns3:atemp>
            <ns3:hr>141</ns3:hr>
          </ns3:TrackPointExtension>
        </extensions>
      </trkpt>
      <trkpt lat="-22.0602761395275592803955078125" lon="166.44691712222993373870849609375">
        <ele>897</ele>
        <time>2016-08-12T22:14:56.000Z</time>
        <extensions>
          <ns3:TrackPointExtension>
            <ns3:atemp>18.0</ns3:atemp>
            <ns3:hr>141</ns3:hr>
          </ns3:TrackPointExtension>
        </extensions>
      </trkpt>
      <trkpt lat="-22.06029399298131465911865234375" lon="166.446928940713405609130859375">
        <ele>896.4000244140625</ele>
        <time>2016-08-12T22:14:57.000Z</time>
        <extensions>
          <ns3:TrackPointExtension>
            <ns3:atemp>18.0</ns3:atemp>
            <ns3:hr>142</ns3:hr>
          </ns3:TrackPointExtension>
        </extensions>
      </trkpt>
      <trkpt lat="-22.0603068172931671142578125" lon="166.4469468779861927032470703125">
        <ele>896.5999755859375</ele>
        <time>2016-08-12T22:14:58.000Z</time>
        <extensions>
          <ns3:TrackPointExtension>
            <ns3:atemp>18.0</ns3:atemp>
            <ns3:hr>142</ns3:hr>
          </ns3:TrackPointExtension>
        </extensions>
      </trkpt>
      <trkpt lat="-22.06031762994825839996337890625" lon="166.44696439616382122039794921875">
        <ele>896.79998779296875</ele>
        <time>2016-08-12T22:14:59.000Z</time>
        <extensions>
          <ns3:TrackPointExtension>
            <ns3:atemp>18.0</ns3:atemp>
            <ns3:hr>142</ns3:hr>
          </ns3:TrackPointExtension>
        </extensions>
      </trkpt>
      <trkpt lat="-22.0603391714394092559814453125" lon="166.44697981886565685272216796875">
        <ele>896.5999755859375</ele>
        <time>2016-08-12T22:15:00.000Z</time>
        <extensions>
          <ns3:TrackPointExtension>
            <ns3:atemp>18.0</ns3:atemp>
            <ns3:hr>143</ns3:hr>
          </ns3:TrackPointExtension>
        </extensions>
      </trkpt>
      <trkpt lat="-22.06035836599767208099365234375" lon="166.44699624739587306976318359375">
        <ele>896.4000244140625</ele>
        <time>2016-08-12T22:15:01.000Z</time>
        <extensions>
          <ns3:TrackPointExtension>
            <ns3:atemp>18.0</ns3:atemp>
            <ns3:hr>143</ns3:hr>
          </ns3:TrackPointExtension>
        </extensions>
      </trkpt>
      <trkpt lat="-22.06038116477429866790771484375" lon="166.4470078982412815093994140625">
        <ele>896.4000244140625</ele>
        <time>2016-08-12T22:15:02.000Z</time>
        <extensions>
          <ns3:TrackPointExtension>
            <ns3:atemp>18.0</ns3:atemp>
            <ns3:hr>143</ns3:hr>
          </ns3:TrackPointExtension>
        </extensions>
      </trkpt>
      <trkpt lat="-22.06040002405643463134765625" lon="166.4470213092863559722900390625">
        <ele>896.4000244140625</ele>
        <time>2016-08-12T22:15:03.000Z</time>
        <extensions>
          <ns3:TrackPointExtension>
            <ns3:atemp>18.0</ns3:atemp>
            <ns3:hr>143</ns3:hr>
          </ns3:TrackPointExtension>
        </extensions>
      </trkpt>
      <trkpt lat="-22.06042508594691753387451171875" lon="166.44703832454979419708251953125">
        <ele>895.79998779296875</ele>
        <time>2016-08-12T22:15:04.000Z</time>
        <extensions>
          <ns3:TrackPointExtension>
            <ns3:atemp>18.0</ns3:atemp>
            <ns3:hr>143</ns3:hr>
          </ns3:TrackPointExtension>
        </extensions>
      </trkpt>
      <trkpt lat="-22.0604471303522586822509765625" lon="166.44705466926097869873046875">
        <ele>895.4000244140625</ele>
        <time>2016-08-12T22:15:05.000Z</time>
        <extensions>
          <ns3:TrackPointExtension>
            <ns3:atemp>19.0</ns3:atemp>
            <ns3:hr>144</ns3:hr>
          </ns3:TrackPointExtension>
        </extensions>
      </trkpt>
      <trkpt lat="-22.0604655705392360687255859375" lon="166.44707067869603633880615234375">
        <ele>895.4000244140625</ele>
        <time>2016-08-12T22:15:06.000Z</time>
        <extensions>
          <ns3:TrackPointExtension>
            <ns3:atemp>19.0</ns3:atemp>
            <ns3:hr>144</ns3:hr>
          </ns3:TrackPointExtension>
        </extensions>
      </trkpt>
      <trkpt lat="-22.060486190021038055419921875" lon="166.44708685576915740966796875">
        <ele>895</ele>
        <time>2016-08-12T22:15:07.000Z</time>
        <extensions>
          <ns3:TrackPointExtension>
            <ns3:atemp>19.0</ns3:atemp>
            <ns3:hr>144</ns3:hr>
          </ns3:TrackPointExtension>
        </extensions>
      </trkpt>
      <trkpt lat="-22.06050387583673000335693359375" lon="166.4471000991761684417724609375">
        <ele>895</ele>
        <time>2016-08-12T22:15:08.000Z</time>
        <extensions>
          <ns3:TrackPointExtension>
            <ns3:atemp>19.0</ns3:atemp>
            <ns3:hr>144</ns3:hr>
          </ns3:TrackPointExtension>
        </extensions>
      </trkpt>
      <trkpt lat="-22.06052332185208797454833984375" lon="166.447112001478672027587890625">
        <ele>895.4000244140625</ele>
        <time>2016-08-12T22:15:09.000Z</time>
        <extensions>
          <ns3:TrackPointExtension>
            <ns3:atemp>19.0</ns3:atemp>
            <ns3:hr>144</ns3:hr>
          </ns3:TrackPointExtension>
        </extensions>
      </trkpt>
      <trkpt lat="-22.0605497248470783233642578125" lon="166.447122730314731597900390625">
        <ele>895.5999755859375</ele>
        <time>2016-08-12T22:15:10.000Z</time>
        <extensions>
          <ns3:TrackPointExtension>
            <ns3:atemp>19.0</ns3:atemp>
            <ns3:hr>144</ns3:hr>
          </ns3:TrackPointExtension>
        </extensions>
      </trkpt>
      <trkpt lat="-22.060580737888813018798828125" lon="166.44713555462658405303955078125">
        <ele>895.79998779296875</ele>
        <time>2016-08-12T22:15:11.000Z</time>
        <extensions>
          <ns3:TrackPointExtension>
            <ns3:atemp>19.0</ns3:atemp>
            <ns3:hr>144</ns3:hr>
          </ns3:TrackPointExtension>
        </extensions>
      </trkpt>
      <trkpt lat="-22.0606003515422344207763671875" lon="166.44715198315680027008056640625">
        <ele>896.4000244140625</ele>
        <time>2016-08-12T22:15:12.000Z</time>
        <extensions>
          <ns3:TrackPointExtension>
            <ns3:atemp>19.0</ns3:atemp>
            <ns3:hr>144</ns3:hr>
          </ns3:TrackPointExtension>
        </extensions>
      </trkpt>
      <trkpt lat="-22.0606137625873088836669921875" lon="166.44716908223927021026611328125">
        <ele>896.4000244140625</ele>
        <time>2016-08-12T22:15:13.000Z</time>
        <extensions>
          <ns3:TrackPointExtension>
            <ns3:atemp>19.0</ns3:atemp>
            <ns3:hr>144</ns3:hr>
          </ns3:TrackPointExtension>
        </extensions>
      </trkpt>
      <trkpt lat="-22.06062692217528820037841796875" lon="166.44718609750270843505859375">
        <ele>895.4000244140625</ele>
        <time>2016-08-12T22:15:14.000Z</time>
        <extensions>
          <ns3:TrackPointExtension>
            <ns3:atemp>19.0</ns3:atemp>
            <ns3:hr>144</ns3:hr>
          </ns3:TrackPointExtension>
        </extensions>
      </trkpt>
      <trkpt lat="-22.06064435653388500213623046875" lon="166.447199173271656036376953125">
        <ele>895.79998779296875</ele>
        <time>2016-08-12T22:15:15.000Z</time>
        <extensions>
          <ns3:TrackPointExtension>
            <ns3:atemp>19.0</ns3:atemp>
            <ns3:hr>144</ns3:hr>
          </ns3:TrackPointExtension>
        </extensions>
      </trkpt>
      <trkpt lat="-22.06065952777862548828125" lon="166.44721015356481075286865234375">
        <ele>896.4000244140625</ele>
        <time>2016-08-12T22:15:16.000Z</time>
        <extensions>
          <ns3:TrackPointExtension>
            <ns3:atemp>19.0</ns3:atemp>
            <ns3:hr>144</ns3:hr>
          </ns3:TrackPointExtension>
        </extensions>
      </trkpt>
      <trkpt lat="-22.06067738123238086700439453125" lon="166.44721920602023601531982421875">
        <ele>895.79998779296875</ele>
        <time>2016-08-12T22:15:17.000Z</time>
        <extensions>
          <ns3:TrackPointExtension>
            <ns3:atemp>19.0</ns3:atemp>
            <ns3:hr>144</ns3:hr>
          </ns3:TrackPointExtension>
        </extensions>
      </trkpt>
      <trkpt lat="-22.06069699488580226898193359375" lon="166.4472291804850101470947265625">
        <ele>895.5999755859375</ele>
        <time>2016-08-12T22:15:18.000Z</time>
        <extensions>
          <ns3:TrackPointExtension>
            <ns3:atemp>19.0</ns3:atemp>
            <ns3:hr>144</ns3:hr>
          </ns3:TrackPointExtension>
        </extensions>
      </trkpt>
      <trkpt lat="-22.06071384251117706298828125" lon="166.44723915494978427886962890625">
        <ele>895.79998779296875</ele>
        <time>2016-08-12T22:15:19.000Z</time>
        <extensions>
          <ns3:TrackPointExtension>
            <ns3:atemp>19.0</ns3:atemp>
            <ns3:hr>144</ns3:hr>
          </ns3:TrackPointExtension>
        </extensions>
      </trkpt>
      <trkpt lat="-22.06072591245174407958984375" lon="166.44725390709936618804931640625">
        <ele>895.79998779296875</ele>
        <time>2016-08-12T22:15:20.000Z</time>
        <extensions>
          <ns3:TrackPointExtension>
            <ns3:atemp>19.0</ns3:atemp>
            <ns3:hr>144</ns3:hr>
          </ns3:TrackPointExtension>
        </extensions>
      </trkpt>
      <trkpt lat="-22.06073571927845478057861328125" lon="166.44727150909602642059326171875">
        <ele>895.5999755859375</ele>
        <time>2016-08-12T22:15:21.000Z</time>
        <extensions>
          <ns3:TrackPointExtension>
            <ns3:atemp>19.0</ns3:atemp>
            <ns3:hr>143</ns3:hr>
          </ns3:TrackPointExtension>
        </extensions>
      </trkpt>
      <trkpt lat="-22.0607488788664340972900390625" lon="166.44728802144527435302734375">
        <ele>895.79998779296875</ele>
        <time>2016-08-12T22:15:22.000Z</time>
        <extensions>
          <ns3:TrackPointExtension>
            <ns3:atemp>19.0</ns3:atemp>
            <ns3:hr>143</ns3:hr>
          </ns3:TrackPointExtension>
        </extensions>
      </trkpt>
      <trkpt lat="-22.0607606135308742523193359375" lon="166.44730637781322002410888671875">
        <ele>895.5999755859375</ele>
        <time>2016-08-12T22:15:23.000Z</time>
        <extensions>
          <ns3:TrackPointExtension>
            <ns3:atemp>19.0</ns3:atemp>
            <ns3:hr>143</ns3:hr>
          </ns3:TrackPointExtension>
        </extensions>
      </trkpt>
      <trkpt lat="-22.06077092327177524566650390625" lon="166.4473257400095462799072265625">
        <ele>895.4000244140625</ele>
        <time>2016-08-12T22:15:24.000Z</time>
        <extensions>
          <ns3:TrackPointExtension>
            <ns3:atemp>19.0</ns3:atemp>
            <ns3:hr>143</ns3:hr>
          </ns3:TrackPointExtension>
        </extensions>
      </trkpt>
      <trkpt lat="-22.06078818999230861663818359375" lon="166.44734568893909454345703125">
        <ele>896</ele>
        <time>2016-08-12T22:15:25.000Z</time>
        <extensions>
          <ns3:TrackPointExtension>
            <ns3:atemp>19.0</ns3:atemp>
            <ns3:hr>142</ns3:hr>
          </ns3:TrackPointExtension>
        </extensions>
      </trkpt>
      <trkpt lat="-22.0608065463602542877197265625" lon="166.447366811335086822509765625">
        <ele>895.4000244140625</ele>
        <time>2016-08-12T22:15:26.000Z</time>
        <extensions>
          <ns3:TrackPointExtension>
            <ns3:atemp>19.0</ns3:atemp>
            <ns3:hr>142</ns3:hr>
          </ns3:TrackPointExtension>
        </extensions>
      </trkpt>
      <trkpt lat="-22.0608280040323734283447265625" lon="166.44738323986530303955078125">
        <ele>894.5999755859375</ele>
        <time>2016-08-12T22:15:27.000Z</time>
        <extensions>
          <ns3:TrackPointExtension>
            <ns3:atemp>19.0</ns3:atemp>
            <ns3:hr>142</ns3:hr>
          </ns3:TrackPointExtension>
        </extensions>
      </trkpt>
      <trkpt lat="-22.0608538202941417694091796875" lon="166.447386257350444793701171875">
        <ele>895.20001220703125</ele>
        <time>2016-08-12T22:15:28.000Z</time>
        <extensions>
          <ns3:TrackPointExtension>
            <ns3:atemp>19.0</ns3:atemp>
            <ns3:hr>142</ns3:hr>
          </ns3:TrackPointExtension>
        </extensions>
      </trkpt>
      <trkpt lat="-22.06088676117360591888427734375" lon="166.4473820663988590240478515625">
        <ele>895</ele>
        <time>2016-08-12T22:15:29.000Z</time>
        <extensions>
          <ns3:TrackPointExtension>
            <ns3:atemp>19.0</ns3:atemp>
            <ns3:hr>141</ns3:hr>
          </ns3:TrackPointExtension>
        </extensions>
      </trkpt>
      <trkpt lat="-22.06090972758829593658447265625" lon="166.4473810605704784393310546875">
        <ele>893.5999755859375</ele>
        <time>2016-08-12T22:15:30.000Z</time>
        <extensions>
          <ns3:TrackPointExtension>
            <ns3:atemp>19.0</ns3:atemp>
            <ns3:hr>141</ns3:hr>
          </ns3:TrackPointExtension>
        </extensions>
      </trkpt>
      <trkpt lat="-22.06094023771584033966064453125" lon="166.44737720489501953125">
        <ele>893.20001220703125</ele>
        <time>2016-08-12T22:15:31.000Z</time>
        <extensions>
          <ns3:TrackPointExtension>
            <ns3:atemp>19.0</ns3:atemp>
            <ns3:hr>141</ns3:hr>
          </ns3:TrackPointExtension>
        </extensions>
      </trkpt>
      <trkpt lat="-22.06096236594021320343017578125" lon="166.4473750256001949310302734375">
        <ele>893.79998779296875</ele>
        <time>2016-08-12T22:15:32.000Z</time>
        <extensions>
          <ns3:TrackPointExtension>
            <ns3:atemp>19.0</ns3:atemp>
            <ns3:hr>141</ns3:hr>
          </ns3:TrackPointExtension>
        </extensions>
      </trkpt>
      <trkpt lat="-22.060989439487457275390625" lon="166.447368822991847991943359375">
        <ele>894.20001220703125</ele>
        <time>2016-08-12T22:15:33.000Z</time>
        <extensions>
          <ns3:TrackPointExtension>
            <ns3:atemp>19.0</ns3:atemp>
            <ns3:hr>141</ns3:hr>
          </ns3:TrackPointExtension>
        </extensions>
      </trkpt>
      <trkpt lat="-22.0610204525291919708251953125" lon="166.44735935144126415252685546875">
        <ele>893.79998779296875</ele>
        <time>2016-08-12T22:15:34.000Z</time>
        <extensions>
          <ns3:TrackPointExtension>
            <ns3:atemp>19.0</ns3:atemp>
            <ns3:hr>141</ns3:hr>
          </ns3:TrackPointExtension>
        </extensions>
      </trkpt>
      <trkpt lat="-22.061048112809658050537109375" lon="166.44735214300453662872314453125">
        <ele>893.5999755859375</ele>
        <time>2016-08-12T22:15:35.000Z</time>
        <extensions>
          <ns3:TrackPointExtension>
            <ns3:atemp>19.0</ns3:atemp>
            <ns3:hr>140</ns3:hr>
          </ns3:TrackPointExtension>
        </extensions>
      </trkpt>
      <trkpt lat="-22.06107384525239467620849609375" lon="166.447349376976490020751953125">
        <ele>894</ele>
        <time>2016-08-12T22:15:36.000Z</time>
        <extensions>
          <ns3:TrackPointExtension>
            <ns3:atemp>19.0</ns3:atemp>
            <ns3:hr>140</ns3:hr>
          </ns3:TrackPointExtension>
        </extensions>
      </trkpt>
      <trkpt lat="-22.06109605729579925537109375" lon="166.447350718080997467041015625">
        <ele>893.79998779296875</ele>
        <time>2016-08-12T22:15:37.000Z</time>
        <extensions>
          <ns3:TrackPointExtension>
            <ns3:atemp>19.0</ns3:atemp>
            <ns3:hr>139</ns3:hr>
          </ns3:TrackPointExtension>
        </extensions>
      </trkpt>
      <trkpt lat="-22.06111617386341094970703125" lon="166.44735566340386867523193359375">
        <ele>893.4000244140625</ele>
        <time>2016-08-12T22:15:38.000Z</time>
        <extensions>
          <ns3:TrackPointExtension>
            <ns3:atemp>19.0</ns3:atemp>
            <ns3:hr>139</ns3:hr>
          </ns3:TrackPointExtension>
        </extensions>
      </trkpt>
      <trkpt lat="-22.06113955937325954437255859375" lon="166.4473656378686428070068359375">
        <ele>893.79998779296875</ele>
        <time>2016-08-12T22:15:39.000Z</time>
        <extensions>
          <ns3:TrackPointExtension>
            <ns3:atemp>19.0</ns3:atemp>
            <ns3:hr>139</ns3:hr>
          </ns3:TrackPointExtension>
        </extensions>
      </trkpt>
      <trkpt lat="-22.06116151995956897735595703125" lon="166.44737519323825836181640625">
        <ele>894</ele>
        <time>2016-08-12T22:15:40.000Z</time>
        <extensions>
          <ns3:TrackPointExtension>
            <ns3:atemp>19.0</ns3:atemp>
            <ns3:hr>139</ns3:hr>
          </ns3:TrackPointExtension>
        </extensions>
      </trkpt>
      <trkpt lat="-22.061182223260402679443359375" lon="166.44738189876079559326171875">
        <ele>893.5999755859375</ele>
        <time>2016-08-12T22:15:41.000Z</time>
        <extensions>
          <ns3:TrackPointExtension>
            <ns3:atemp>19.0</ns3:atemp>
            <ns3:hr>139</ns3:hr>
          </ns3:TrackPointExtension>
        </extensions>
      </trkpt>
      <trkpt lat="-22.06120477057993412017822265625" lon="166.4473921246826648712158203125">
        <ele>893</ele>
        <time>2016-08-12T22:15:42.000Z</time>
        <extensions>
          <ns3:TrackPointExtension>
            <ns3:atemp>19.0</ns3:atemp>
            <ns3:hr>139</ns3:hr>
          </ns3:TrackPointExtension>
        </extensions>
      </trkpt>
      <trkpt lat="-22.06122404895722866058349609375" lon="166.447405703365802764892578125">
        <ele>893</ele>
        <time>2016-08-12T22:15:43.000Z</time>
        <extensions>
          <ns3:TrackPointExtension>
            <ns3:atemp>19.0</ns3:atemp>
            <ns3:hr>138</ns3:hr>
          </ns3:TrackPointExtension>
        </extensions>
      </trkpt>
      <trkpt lat="-22.06124081276357173919677734375" lon="166.44741668365895748138427734375">
        <ele>894</ele>
        <time>2016-08-12T22:15:44.000Z</time>
        <extensions>
          <ns3:TrackPointExtension>
            <ns3:atemp>19.0</ns3:atemp>
            <ns3:hr>138</ns3:hr>
          </ns3:TrackPointExtension>
        </extensions>
      </trkpt>
      <trkpt lat="-22.06125807948410511016845703125" lon="166.447425819933414459228515625">
        <ele>893.79998779296875</ele>
        <time>2016-08-12T22:15:45.000Z</time>
        <extensions>
          <ns3:TrackPointExtension>
            <ns3:atemp>19.0</ns3:atemp>
            <ns3:hr>138</ns3:hr>
          </ns3:TrackPointExtension>
        </extensions>
      </trkpt>
      <trkpt lat="-22.0612806268036365509033203125" lon="166.4474375545978546142578125">
        <ele>893.4000244140625</ele>
        <time>2016-08-12T22:15:46.000Z</time>
        <extensions>
          <ns3:TrackPointExtension>
            <ns3:atemp>19.0</ns3:atemp>
            <ns3:hr>138</ns3:hr>
          </ns3:TrackPointExtension>
        </extensions>
      </trkpt>
      <trkpt lat="-22.0613072812557220458984375" lon="166.44744501449167728424072265625">
        <ele>893.4000244140625</ele>
        <time>2016-08-12T22:15:47.000Z</time>
        <extensions>
          <ns3:TrackPointExtension>
            <ns3:atemp>18.0</ns3:atemp>
            <ns3:hr>138</ns3:hr>
          </ns3:TrackPointExtension>
        </extensions>
      </trkpt>
      <trkpt lat="-22.06133452244102954864501953125" lon="166.447461359202861785888671875">
        <ele>893.5999755859375</ele>
        <time>2016-08-12T22:15:48.000Z</time>
        <extensions>
          <ns3:TrackPointExtension>
            <ns3:atemp>18.0</ns3:atemp>
            <ns3:hr>138</ns3:hr>
          </ns3:TrackPointExtension>
        </extensions>
      </trkpt>
      <trkpt lat="-22.06135782413184642791748046875" lon="166.44747711718082427978515625">
        <ele>893.5999755859375</ele>
        <time>2016-08-12T22:15:49.000Z</time>
        <extensions>
          <ns3:TrackPointExtension>
            <ns3:atemp>18.0</ns3:atemp>
            <ns3:hr>137</ns3:hr>
          </ns3:TrackPointExtension>
        </extensions>
      </trkpt>
      <trkpt lat="-22.06137525849044322967529296875" lon="166.4474923722445964813232421875">
        <ele>893.20001220703125</ele>
        <time>2016-08-12T22:15:50.000Z</time>
        <extensions>
          <ns3:TrackPointExtension>
            <ns3:atemp>18.0</ns3:atemp>
            <ns3:hr>137</ns3:hr>
          </ns3:TrackPointExtension>
        </extensions>
      </trkpt>
      <trkpt lat="-22.06139252521097660064697265625" lon="166.4475054480135440826416015625">
        <ele>892.20001220703125</ele>
        <time>2016-08-12T22:15:51.000Z</time>
        <extensions>
          <ns3:TrackPointExtension>
            <ns3:atemp>18.0</ns3:atemp>
            <ns3:hr>137</ns3:hr>
          </ns3:TrackPointExtension>
        </extensions>
      </trkpt>
      <trkpt lat="-22.06141314469277858734130859375" lon="166.44751709885895252227783203125">
        <ele>892.79998779296875</ele>
        <time>2016-08-12T22:15:52.000Z</time>
        <extensions>
          <ns3:TrackPointExtension>
            <ns3:atemp>18.0</ns3:atemp>
            <ns3:hr>136</ns3:hr>
          </ns3:TrackPointExtension>
        </extensions>
      </trkpt>
      <trkpt lat="-22.0614459179341793060302734375" lon="166.4475287497043609619140625">
        <ele>893.5999755859375</ele>
        <time>2016-08-12T22:15:53.000Z</time>
        <extensions>
          <ns3:TrackPointExtension>
            <ns3:atemp>18.0</ns3:atemp>
            <ns3:hr>136</ns3:hr>
          </ns3:TrackPointExtension>
        </extensions>
      </trkpt>
      <trkpt lat="-22.06148053519427776336669921875" lon="166.44754325039684772491455078125">
        <ele>892.79998779296875</ele>
        <time>2016-08-12T22:15:54.000Z</time>
        <extensions>
          <ns3:TrackPointExtension>
            <ns3:atemp>18.0</ns3:atemp>
            <ns3:hr>136</ns3:hr>
          </ns3:TrackPointExtension>
        </extensions>
      </trkpt>
      <trkpt lat="-22.06150752492249011993408203125" lon="166.447558589279651641845703125">
        <ele>892</ele>
        <time>2016-08-12T22:15:55.000Z</time>
        <extensions>
          <ns3:TrackPointExtension>
            <ns3:atemp>18.0</ns3:atemp>
            <ns3:hr>136</ns3:hr>
          </ns3:TrackPointExtension>
        </extensions>
      </trkpt>
      <trkpt lat="-22.06153669394552707672119140625" lon="166.4475725032389163970947265625">
        <ele>892.5999755859375</ele>
        <time>2016-08-12T22:15:56.000Z</time>
        <extensions>
          <ns3:TrackPointExtension>
            <ns3:atemp>18.0</ns3:atemp>
            <ns3:hr>136</ns3:hr>
          </ns3:TrackPointExtension>
        </extensions>
      </trkpt>
      <trkpt lat="-22.0615672878921031951904296875" lon="166.447586081922054290771484375">
        <ele>893.5999755859375</ele>
        <time>2016-08-12T22:15:57.000Z</time>
        <extensions>
          <ns3:TrackPointExtension>
            <ns3:atemp>18.0</ns3:atemp>
            <ns3:hr>136</ns3:hr>
          </ns3:TrackPointExtension>
        </extensions>
      </trkpt>
      <trkpt lat="-22.06159838475286960601806640625" lon="166.4476003311574459075927734375">
        <ele>893.79998779296875</ele>
        <time>2016-08-12T22:15:58.000Z</time>
        <extensions>
          <ns3:TrackPointExtension>
            <ns3:atemp>18.0</ns3:atemp>
            <ns3:hr>137</ns3:hr>
          </ns3:TrackPointExtension>
        </extensions>
      </trkpt>
      <trkpt lat="-22.06163107417523860931396484375" lon="166.447613239288330078125">
        <ele>893</ele>
        <time>2016-08-12T22:15:59.000Z</time>
        <extensions>
          <ns3:TrackPointExtension>
            <ns3:atemp>18.0</ns3:atemp>
            <ns3:hr>137</ns3:hr>
          </ns3:TrackPointExtension>
        </extensions>
      </trkpt>
      <trkpt lat="-22.06165906973183155059814453125" lon="166.447624303400516510009765625">
        <ele>892.4000244140625</ele>
        <time>2016-08-12T22:16:00.000Z</time>
        <extensions>
          <ns3:TrackPointExtension>
            <ns3:atemp>18.0</ns3:atemp>
            <ns3:hr>137</ns3:hr>
          </ns3:TrackPointExtension>
        </extensions>
      </trkpt>
      <trkpt lat="-22.06168840639293193817138671875" lon="166.4476338587701320648193359375">
        <ele>892.79998779296875</ele>
        <time>2016-08-12T22:16:01.000Z</time>
        <extensions>
          <ns3:TrackPointExtension>
            <ns3:atemp>18.0</ns3:atemp>
            <ns3:hr>137</ns3:hr>
          </ns3:TrackPointExtension>
        </extensions>
      </trkpt>
      <trkpt lat="-22.06172428093850612640380859375" lon="166.44763628952205181121826171875">
        <ele>893.79998779296875</ele>
        <time>2016-08-12T22:16:02.000Z</time>
        <extensions>
          <ns3:TrackPointExtension>
            <ns3:atemp>18.0</ns3:atemp>
            <ns3:hr>137</ns3:hr>
          </ns3:TrackPointExtension>
        </extensions>
      </trkpt>
      <trkpt lat="-22.0617516897618770599365234375" lon="166.4476378820836544036865234375">
        <ele>894</ele>
        <time>2016-08-12T22:16:03.000Z</time>
        <extensions>
          <ns3:TrackPointExtension>
            <ns3:atemp>18.0</ns3:atemp>
            <ns3:hr>137</ns3:hr>
          </ns3:TrackPointExtension>
        </extensions>
      </trkpt>
      <trkpt lat="-22.06178278662264347076416015625" lon="166.44763226620852947235107421875">
        <ele>893.20001220703125</ele>
        <time>2016-08-12T22:16:04.000Z</time>
        <extensions>
          <ns3:TrackPointExtension>
            <ns3:atemp>18.0</ns3:atemp>
            <ns3:hr>136</ns3:hr>
          </ns3:TrackPointExtension>
        </extensions>
      </trkpt>
      <trkpt lat="-22.0618117041885852813720703125" lon="166.447622962296009063720703125">
        <ele>892.79998779296875</ele>
        <time>2016-08-12T22:16:05.000Z</time>
        <extensions>
          <ns3:TrackPointExtension>
            <ns3:atemp>18.0</ns3:atemp>
            <ns3:hr>136</ns3:hr>
          </ns3:TrackPointExtension>
        </extensions>
      </trkpt>
      <trkpt lat="-22.06183969974517822265625" lon="166.44760762341320514678955078125">
        <ele>893.4000244140625</ele>
        <time>2016-08-12T22:16:06.000Z</time>
        <extensions>
          <ns3:TrackPointExtension>
            <ns3:atemp>18.0</ns3:atemp>
            <ns3:hr>137</ns3:hr>
          </ns3:TrackPointExtension>
        </extensions>
      </trkpt>
      <trkpt lat="-22.06186719238758087158203125" lon="166.4475889317691326141357421875">
        <ele>893.79998779296875</ele>
        <time>2016-08-12T22:16:07.000Z</time>
        <extensions>
          <ns3:TrackPointExtension>
            <ns3:atemp>18.0</ns3:atemp>
            <ns3:hr>137</ns3:hr>
          </ns3:TrackPointExtension>
        </extensions>
      </trkpt>
      <trkpt lat="-22.06189426593482494354248046875" lon="166.4475701563060283660888671875">
        <ele>893.79998779296875</ele>
        <time>2016-08-12T22:16:08.000Z</time>
        <extensions>
          <ns3:TrackPointExtension>
            <ns3:atemp>18.0</ns3:atemp>
            <ns3:hr>136</ns3:hr>
          </ns3:TrackPointExtension>
        </extensions>
      </trkpt>
      <trkpt lat="-22.0619215071201324462890625" lon="166.44755247049033641815185546875">
        <ele>893.5999755859375</ele>
        <time>2016-08-12T22:16:09.000Z</time>
        <extensions>
          <ns3:TrackPointExtension>
            <ns3:atemp>18.0</ns3:atemp>
            <ns3:hr>137</ns3:hr>
          </ns3:TrackPointExtension>
        </extensions>
      </trkpt>
      <trkpt lat="-22.061943970620632171630859375" lon="166.44753470085561275482177734375">
        <ele>893.4000244140625</ele>
        <time>2016-08-12T22:16:10.000Z</time>
        <extensions>
          <ns3:TrackPointExtension>
            <ns3:atemp>18.0</ns3:atemp>
            <ns3:hr>137</ns3:hr>
          </ns3:TrackPointExtension>
        </extensions>
      </trkpt>
      <trkpt lat="-22.06196702085435390472412109375" lon="166.44751374609768390655517578125">
        <ele>894</ele>
        <time>2016-08-12T22:16:11.000Z</time>
        <extensions>
          <ns3:TrackPointExtension>
            <ns3:atemp>18.0</ns3:atemp>
            <ns3:hr>137</ns3:hr>
          </ns3:TrackPointExtension>
        </extensions>
      </trkpt>
      <trkpt lat="-22.06198998726904392242431640625" lon="166.44749279133975505828857421875">
        <ele>893.79998779296875</ele>
        <time>2016-08-12T22:16:12.000Z</time>
        <extensions>
          <ns3:TrackPointExtension>
            <ns3:atemp>18.0</ns3:atemp>
            <ns3:hr>136</ns3:hr>
          </ns3:TrackPointExtension>
        </extensions>
      </trkpt>
      <trkpt lat="-22.06201337277889251708984375" lon="166.44747451879084110260009765625">
        <ele>893</ele>
        <time>2016-08-12T22:16:13.000Z</time>
        <extensions>
          <ns3:TrackPointExtension>
            <ns3:atemp>18.0</ns3:atemp>
            <ns3:hr>136</ns3:hr>
          </ns3:TrackPointExtension>
        </extensions>
      </trkpt>
      <trkpt lat="-22.06203390844166278839111328125" lon="166.44745440222322940826416015625">
        <ele>893.20001220703125</ele>
        <time>2016-08-12T22:16:14.000Z</time>
        <extensions>
          <ns3:TrackPointExtension>
            <ns3:atemp>18.0</ns3:atemp>
            <ns3:hr>136</ns3:hr>
          </ns3:TrackPointExtension>
        </extensions>
      </trkpt>
      <trkpt lat="-22.06206274218857288360595703125" lon="166.4474373869597911834716796875">
        <ele>894</ele>
        <time>2016-08-12T22:16:15.000Z</time>
        <extensions>
          <ns3:TrackPointExtension>
            <ns3:atemp>18.0</ns3:atemp>
            <ns3:hr>137</ns3:hr>
          </ns3:TrackPointExtension>
        </extensions>
      </trkpt>
      <trkpt lat="-22.0620904862880706787109375" lon="166.44742079079151153564453125">
        <ele>894</ele>
        <time>2016-08-12T22:16:16.000Z</time>
        <extensions>
          <ns3:TrackPointExtension>
            <ns3:atemp>18.0</ns3:atemp>
            <ns3:hr>136</ns3:hr>
          </ns3:TrackPointExtension>
        </extensions>
      </trkpt>
      <trkpt lat="-22.0621084235608577728271484375" lon="166.44740394316613674163818359375">
        <ele>893.5999755859375</ele>
        <time>2016-08-12T22:16:17.000Z</time>
        <extensions>
          <ns3:TrackPointExtension>
            <ns3:atemp>18.0</ns3:atemp>
            <ns3:hr>136</ns3:hr>
          </ns3:TrackPointExtension>
        </extensions>
      </trkpt>
      <trkpt lat="-22.0621271990239620208740234375" lon="166.4473887719213962554931640625">
        <ele>893</ele>
        <time>2016-08-12T22:16:18.000Z</time>
        <extensions>
          <ns3:TrackPointExtension>
            <ns3:atemp>18.0</ns3:atemp>
            <ns3:hr>135</ns3:hr>
          </ns3:TrackPointExtension>
        </extensions>
      </trkpt>
      <trkpt lat="-22.06215142272412776947021484375" lon="166.44737343303859233856201171875">
        <ele>893</ele>
        <time>2016-08-12T22:16:19.000Z</time>
        <extensions>
          <ns3:TrackPointExtension>
            <ns3:atemp>18.0</ns3:atemp>
            <ns3:hr>134</ns3:hr>
          </ns3:TrackPointExtension>
        </extensions>
      </trkpt>
      <trkpt lat="-22.06216768361628055572509765625" lon="166.44735750742256641387939453125">
        <ele>893.5999755859375</ele>
        <time>2016-08-12T22:16:20.000Z</time>
        <extensions>
          <ns3:TrackPointExtension>
            <ns3:atemp>18.0</ns3:atemp>
            <ns3:hr>134</ns3:hr>
          </ns3:TrackPointExtension>
        </extensions>
      </trkpt>
      <trkpt lat="-22.06218645907938480377197265625" lon="166.44734409637749195098876953125">
        <ele>892.79998779296875</ele>
        <time>2016-08-12T22:16:21.000Z</time>
        <extensions>
          <ns3:TrackPointExtension>
            <ns3:atemp>18.0</ns3:atemp>
            <ns3:hr>133</ns3:hr>
          </ns3:TrackPointExtension>
        </extensions>
      </trkpt>
      <trkpt lat="-22.0622066594660282135009765625" lon="166.44733630120754241943359375">
        <ele>892.20001220703125</ele>
        <time>2016-08-12T22:16:22.000Z</time>
        <extensions>
          <ns3:TrackPointExtension>
            <ns3:atemp>18.0</ns3:atemp>
            <ns3:hr>132</ns3:hr>
          </ns3:TrackPointExtension>
        </extensions>
      </trkpt>
      <trkpt lat="-22.06222518347203731536865234375" lon="166.44733336754143238067626953125">
        <ele>892.4000244140625</ele>
        <time>2016-08-12T22:16:23.000Z</time>
        <extensions>
          <ns3:TrackPointExtension>
            <ns3:atemp>18.0</ns3:atemp>
            <ns3:hr>132</ns3:hr>
          </ns3:TrackPointExtension>
        </extensions>
      </trkpt>
      <trkpt lat="-22.06224747933447360992431640625" lon="166.44733353517949581146240234375">
        <ele>893</ele>
        <time>2016-08-12T22:16:24.000Z</time>
        <extensions>
          <ns3:TrackPointExtension>
            <ns3:atemp>18.0</ns3:atemp>
            <ns3:hr>131</ns3:hr>
          </ns3:TrackPointExtension>
        </extensions>
      </trkpt>
      <trkpt lat="-22.0622696913778781890869140625" lon="166.4473357982933521270751953125">
        <ele>892.5999755859375</ele>
        <time>2016-08-12T22:16:25.000Z</time>
        <extensions>
          <ns3:TrackPointExtension>
            <ns3:atemp>18.0</ns3:atemp>
            <ns3:hr>131</ns3:hr>
          </ns3:TrackPointExtension>
        </extensions>
      </trkpt>
      <trkpt lat="-22.06228720955550670623779296875" lon="166.44734158180654048919677734375">
        <ele>891.5999755859375</ele>
        <time>2016-08-12T22:16:26.000Z</time>
        <extensions>
          <ns3:TrackPointExtension>
            <ns3:atemp>18.0</ns3:atemp>
            <ns3:hr>130</ns3:hr>
          </ns3:TrackPointExtension>
        </extensions>
      </trkpt>
      <trkpt lat="-22.06230447627604007720947265625" lon="166.4473451860249042510986328125">
        <ele>891.20001220703125</ele>
        <time>2016-08-12T22:16:27.000Z</time>
        <extensions>
          <ns3:TrackPointExtension>
            <ns3:atemp>18.0</ns3:atemp>
            <ns3:hr>130</ns3:hr>
          </ns3:TrackPointExtension>
        </extensions>
      </trkpt>
      <trkpt lat="-22.06232341937720775604248046875" lon="166.44734568893909454345703125">
        <ele>891.4000244140625</ele>
        <time>2016-08-12T22:16:28.000Z</time>
        <extensions>
          <ns3:TrackPointExtension>
            <ns3:atemp>18.0</ns3:atemp>
            <ns3:hr>129</ns3:hr>
          </ns3:TrackPointExtension>
        </extensions>
      </trkpt>
      <trkpt lat="-22.06234328448772430419921875" lon="166.44734166562557220458984375">
        <ele>891.79998779296875</ele>
        <time>2016-08-12T22:16:29.000Z</time>
        <extensions>
          <ns3:TrackPointExtension>
            <ns3:atemp>18.0</ns3:atemp>
            <ns3:hr>130</ns3:hr>
          </ns3:TrackPointExtension>
        </extensions>
      </trkpt>
      <trkpt lat="-22.06236365251243114471435546875" lon="166.44733764231204986572265625">
        <ele>891.4000244140625</ele>
        <time>2016-08-12T22:16:30.000Z</time>
        <extensions>
          <ns3:TrackPointExtension>
            <ns3:atemp>18.0</ns3:atemp>
            <ns3:hr>130</ns3:hr>
          </ns3:TrackPointExtension>
        </extensions>
      </trkpt>
      <trkpt lat="-22.06238125450909137725830078125" lon="166.44733361899852752685546875">
        <ele>891.20001220703125</ele>
        <time>2016-08-12T22:16:31.000Z</time>
        <extensions>
          <ns3:TrackPointExtension>
            <ns3:atemp>18.0</ns3:atemp>
            <ns3:hr>131</ns3:hr>
          </ns3:TrackPointExtension>
        </extensions>
      </trkpt>
      <trkpt lat="-22.06240355037152767181396484375" lon="166.4473337866365909576416015625">
        <ele>891.79998779296875</ele>
        <time>2016-08-12T22:16:32.000Z</time>
        <extensions>
          <ns3:TrackPointExtension>
            <ns3:atemp>18.0</ns3:atemp>
            <ns3:hr>132</ns3:hr>
          </ns3:TrackPointExtension>
        </extensions>
      </trkpt>
      <trkpt lat="-22.06242433749139308929443359375" lon="166.4473304338753223419189453125">
        <ele>892</ele>
        <time>2016-08-12T22:16:33.000Z</time>
        <extensions>
          <ns3:TrackPointExtension>
            <ns3:atemp>18.0</ns3:atemp>
            <ns3:hr>132</ns3:hr>
          </ns3:TrackPointExtension>
        </extensions>
      </trkpt>
      <trkpt lat="-22.0624490641057491302490234375" lon="166.44732347689568996429443359375">
        <ele>891.5999755859375</ele>
        <time>2016-08-12T22:16:34.000Z</time>
        <extensions>
          <ns3:TrackPointExtension>
            <ns3:atemp>18.0</ns3:atemp>
            <ns3:hr>133</ns3:hr>
          </ns3:TrackPointExtension>
        </extensions>
      </trkpt>
      <trkpt lat="-22.062470354139804840087890625" lon="166.44731576554477214813232421875">
        <ele>891.79998779296875</ele>
        <time>2016-08-12T22:16:35.000Z</time>
        <extensions>
          <ns3:TrackPointExtension>
            <ns3:atemp>18.0</ns3:atemp>
            <ns3:hr>134</ns3:hr>
          </ns3:TrackPointExtension>
        </extensions>
      </trkpt>
      <trkpt lat="-22.06249189563095569610595703125" lon="166.4473086409270763397216796875">
        <ele>892.79998779296875</ele>
        <time>2016-08-12T22:16:36.000Z</time>
        <extensions>
          <ns3:TrackPointExtension>
            <ns3:atemp>18.0</ns3:atemp>
            <ns3:hr>134</ns3:hr>
          </ns3:TrackPointExtension>
        </extensions>
      </trkpt>
      <trkpt lat="-22.06251922063529491424560546875" lon="166.4472999237477779388427734375">
        <ele>893.20001220703125</ele>
        <time>2016-08-12T22:16:37.000Z</time>
        <extensions>
          <ns3:TrackPointExtension>
            <ns3:atemp>18.0</ns3:atemp>
            <ns3:hr>135</ns3:hr>
          </ns3:TrackPointExtension>
        </extensions>
      </trkpt>
      <trkpt lat="-22.06254302524030208587646484375" lon="166.4472900331020355224609375">
        <ele>892.4000244140625</ele>
        <time>2016-08-12T22:16:38.000Z</time>
        <extensions>
          <ns3:TrackPointExtension>
            <ns3:atemp>18.0</ns3:atemp>
            <ns3:hr>136</ns3:hr>
          </ns3:TrackPointExtension>
        </extensions>
      </trkpt>
      <trkpt lat="-22.06256716512143611907958984375" lon="166.447278298437595367431640625">
        <ele>891.4000244140625</ele>
        <time>2016-08-12T22:16:39.000Z</time>
        <extensions>
          <ns3:TrackPointExtension>
            <ns3:atemp>18.0</ns3:atemp>
            <ns3:hr>137</ns3:hr>
          </ns3:TrackPointExtension>
        </extensions>
      </trkpt>
      <trkpt lat="-22.06259231083095073699951171875" lon="166.44727000035345554351806640625">
        <ele>891.4000244140625</ele>
        <time>2016-08-12T22:16:40.000Z</time>
        <extensions>
          <ns3:TrackPointExtension>
            <ns3:atemp>18.0</ns3:atemp>
            <ns3:hr>137</ns3:hr>
          </ns3:TrackPointExtension>
        </extensions>
      </trkpt>
      <trkpt lat="-22.0626099966466426849365234375" lon="166.44725994206964969635009765625">
        <ele>891.79998779296875</ele>
        <time>2016-08-12T22:16:41.000Z</time>
        <extensions>
          <ns3:TrackPointExtension>
            <ns3:atemp>18.0</ns3:atemp>
            <ns3:hr>138</ns3:hr>
          </ns3:TrackPointExtension>
        </extensions>
      </trkpt>
      <trkpt lat="-22.06262868829071521759033203125" lon="166.44724837504327297210693359375">
        <ele>891.5999755859375</ele>
        <time>2016-08-12T22:16:42.000Z</time>
        <extensions>
          <ns3:TrackPointExtension>
            <ns3:atemp>18.0</ns3:atemp>
            <ns3:hr>139</ns3:hr>
          </ns3:TrackPointExtension>
        </extensions>
      </trkpt>
      <trkpt lat="-22.0626478828489780426025390625" lon="166.44723915494978427886962890625">
        <ele>890.79998779296875</ele>
        <time>2016-08-12T22:16:43.000Z</time>
        <extensions>
          <ns3:TrackPointExtension>
            <ns3:atemp>18.0</ns3:atemp>
            <ns3:hr>139</ns3:hr>
          </ns3:TrackPointExtension>
        </extensions>
      </trkpt>
      <trkpt lat="-22.06266690976917743682861328125" lon="166.44723043777048587799072265625">
        <ele>891</ele>
        <time>2016-08-12T22:16:44.000Z</time>
        <extensions>
          <ns3:TrackPointExtension>
            <ns3:atemp>18.0</ns3:atemp>
            <ns3:hr>139</ns3:hr>
          </ns3:TrackPointExtension>
        </extensions>
      </trkpt>
      <trkpt lat="-22.06268887035548686981201171875" lon="166.4472234807908535003662109375">
        <ele>891.79998779296875</ele>
        <time>2016-08-12T22:16:45.000Z</time>
        <extensions>
          <ns3:TrackPointExtension>
            <ns3:atemp>18.0</ns3:atemp>
            <ns3:hr>140</ns3:hr>
          </ns3:TrackPointExtension>
        </extensions>
      </trkpt>
      <trkpt lat="-22.06271066330373287200927734375" lon="166.4472201280295848846435546875">
        <ele>891.79998779296875</ele>
        <time>2016-08-12T22:16:46.000Z</time>
        <extensions>
          <ns3:TrackPointExtension>
            <ns3:atemp>18.0</ns3:atemp>
            <ns3:hr>140</ns3:hr>
          </ns3:TrackPointExtension>
        </extensions>
      </trkpt>
      <trkpt lat="-22.06273086369037628173828125" lon="166.4472137577831745147705078125">
        <ele>891.4000244140625</ele>
        <time>2016-08-12T22:16:47.000Z</time>
        <extensions>
          <ns3:TrackPointExtension>
            <ns3:atemp>18.0</ns3:atemp>
            <ns3:hr>140</ns3:hr>
          </ns3:TrackPointExtension>
        </extensions>
      </trkpt>
      <trkpt lat="-22.06275324337184429168701171875" lon="166.44721115939319133758544921875">
        <ele>891.20001220703125</ele>
        <time>2016-08-12T22:16:48.000Z</time>
        <extensions>
          <ns3:TrackPointExtension>
            <ns3:atemp>18.0</ns3:atemp>
            <ns3:hr>140</ns3:hr>
          </ns3:TrackPointExtension>
        </extensions>
      </trkpt>
      <trkpt lat="-22.06277838908135890960693359375" lon="166.44720948301255702972412109375">
        <ele>891.79998779296875</ele>
        <time>2016-08-12T22:16:49.000Z</time>
        <extensions>
          <ns3:TrackPointExtension>
            <ns3:atemp>18.0</ns3:atemp>
            <ns3:hr>140</ns3:hr>
          </ns3:TrackPointExtension>
        </extensions>
      </trkpt>
      <trkpt lat="-22.06279548816382884979248046875" lon="166.44720445387065410614013671875">
        <ele>891.79998779296875</ele>
        <time>2016-08-12T22:16:50.000Z</time>
        <extensions>
          <ns3:TrackPointExtension>
            <ns3:atemp>18.0</ns3:atemp>
            <ns3:hr>140</ns3:hr>
          </ns3:TrackPointExtension>
        </extensions>
      </trkpt>
      <trkpt lat="-22.06281476654112339019775390625" lon="166.447201855480670928955078125">
        <ele>891</ele>
        <time>2016-08-12T22:16:51.000Z</time>
        <extensions>
          <ns3:TrackPointExtension>
            <ns3:atemp>18.0</ns3:atemp>
            <ns3:hr>141</ns3:hr>
          </ns3:TrackPointExtension>
        </extensions>
      </trkpt>
      <trkpt lat="-22.06283588893711566925048828125" lon="166.4471969939768314361572265625">
        <ele>891</ele>
        <time>2016-08-12T22:16:52.000Z</time>
        <extensions>
          <ns3:TrackPointExtension>
            <ns3:atemp>18.0</ns3:atemp>
            <ns3:hr>141</ns3:hr>
          </ns3:TrackPointExtension>
        </extensions>
      </trkpt>
      <trkpt lat="-22.06285483203828334808349609375" lon="166.447192467749118804931640625">
        <ele>891.79998779296875</ele>
        <time>2016-08-12T22:16:53.000Z</time>
        <extensions>
          <ns3:TrackPointExtension>
            <ns3:atemp>18.0</ns3:atemp>
            <ns3:hr>141</ns3:hr>
          </ns3:TrackPointExtension>
        </extensions>
      </trkpt>
      <trkpt lat="-22.0628745295107364654541015625" lon="166.44719053991138935089111328125">
        <ele>892</ele>
        <time>2016-08-12T22:16:54.000Z</time>
        <extensions>
          <ns3:TrackPointExtension>
            <ns3:atemp>18.0</ns3:atemp>
            <ns3:hr>141</ns3:hr>
          </ns3:TrackPointExtension>
        </extensions>
      </trkpt>
      <trkpt lat="-22.0629005134105682373046875" lon="166.4471909590065479278564453125">
        <ele>890.79998779296875</ele>
        <time>2016-08-12T22:16:55.000Z</time>
        <extensions>
          <ns3:TrackPointExtension>
            <ns3:atemp>18.0</ns3:atemp>
            <ns3:hr>141</ns3:hr>
          </ns3:TrackPointExtension>
        </extensions>
      </trkpt>
      <trkpt lat="-22.06292264163494110107421875" lon="166.447190456092357635498046875">
        <ele>890.5999755859375</ele>
        <time>2016-08-12T22:16:56.000Z</time>
        <extensions>
          <ns3:TrackPointExtension>
            <ns3:atemp>19.0</ns3:atemp>
            <ns3:hr>141</ns3:hr>
          </ns3:TrackPointExtension>
        </extensions>
      </trkpt>
      <trkpt lat="-22.06294300965964794158935546875" lon="166.447188444435596466064453125">
        <ele>891.20001220703125</ele>
        <time>2016-08-12T22:16:57.000Z</time>
        <extensions>
          <ns3:TrackPointExtension>
            <ns3:atemp>19.0</ns3:atemp>
            <ns3:hr>141</ns3:hr>
          </ns3:TrackPointExtension>
        </extensions>
      </trkpt>
      <trkpt lat="-22.06296228803694248199462890625" lon="166.44718785770237445831298828125">
        <ele>891.79998779296875</ele>
        <time>2016-08-12T22:16:58.000Z</time>
        <extensions>
          <ns3:TrackPointExtension>
            <ns3:atemp>19.0</ns3:atemp>
            <ns3:hr>141</ns3:hr>
          </ns3:TrackPointExtension>
        </extensions>
      </trkpt>
      <trkpt lat="-22.0629834942519664764404296875" lon="166.4471869356930255889892578125">
        <ele>891.20001220703125</ele>
        <time>2016-08-12T22:16:59.000Z</time>
        <extensions>
          <ns3:TrackPointExtension>
            <ns3:atemp>19.0</ns3:atemp>
            <ns3:hr>141</ns3:hr>
          </ns3:TrackPointExtension>
        </extensions>
      </trkpt>
      <trkpt lat="-22.06300335936248302459716796875" lon="166.44718819297850131988525390625">
        <ele>890.5999755859375</ele>
        <time>2016-08-12T22:17:00.000Z</time>
        <extensions>
          <ns3:TrackPointExtension>
            <ns3:atemp>19.0</ns3:atemp>
            <ns3:hr>142</ns3:hr>
          </ns3:TrackPointExtension>
        </extensions>
      </trkpt>
      <trkpt lat="-22.063022553920745849609375" lon="166.447191797196865081787109375">
        <ele>890.5999755859375</ele>
        <time>2016-08-12T22:17:01.000Z</time>
        <extensions>
          <ns3:TrackPointExtension>
            <ns3:atemp>19.0</ns3:atemp>
            <ns3:hr>142</ns3:hr>
          </ns3:TrackPointExtension>
        </extensions>
      </trkpt>
      <trkpt lat="-22.06304409541189670562744140625" lon="166.4471953175961971282958984375">
        <ele>891.5999755859375</ele>
        <time>2016-08-12T22:17:02.000Z</time>
        <extensions>
          <ns3:TrackPointExtension>
            <ns3:atemp>19.0</ns3:atemp>
            <ns3:hr>143</ns3:hr>
          </ns3:TrackPointExtension>
        </extensions>
      </trkpt>
      <trkpt lat="-22.0630626194179058074951171875" lon="166.44719992764294147491455078125">
        <ele>891.5999755859375</ele>
        <time>2016-08-12T22:17:03.000Z</time>
        <extensions>
          <ns3:TrackPointExtension>
            <ns3:atemp>19.0</ns3:atemp>
            <ns3:hr>143</ns3:hr>
          </ns3:TrackPointExtension>
        </extensions>
      </trkpt>
      <trkpt lat="-22.0630844123661518096923828125" lon="166.44720596261322498321533203125">
        <ele>891.20001220703125</ele>
        <time>2016-08-12T22:17:04.000Z</time>
        <extensions>
          <ns3:TrackPointExtension>
            <ns3:atemp>19.0</ns3:atemp>
            <ns3:hr>143</ns3:hr>
          </ns3:TrackPointExtension>
        </extensions>
      </trkpt>
      <trkpt lat="-22.0631097257137298583984375" lon="166.44721467979252338409423828125">
        <ele>891.20001220703125</ele>
        <time>2016-08-12T22:17:05.000Z</time>
        <extensions>
          <ns3:TrackPointExtension>
            <ns3:atemp>19.0</ns3:atemp>
            <ns3:hr>143</ns3:hr>
          </ns3:TrackPointExtension>
        </extensions>
      </trkpt>
      <trkpt lat="-22.06313009373843669891357421875" lon="166.44722163677215576171875">
        <ele>891.79998779296875</ele>
        <time>2016-08-12T22:17:06.000Z</time>
        <extensions>
          <ns3:TrackPointExtension>
            <ns3:atemp>19.0</ns3:atemp>
            <ns3:hr>143</ns3:hr>
          </ns3:TrackPointExtension>
        </extensions>
      </trkpt>
      <trkpt lat="-22.06314551644027233123779296875" lon="166.4472315274178981781005859375">
        <ele>891.5999755859375</ele>
        <time>2016-08-12T22:17:07.000Z</time>
        <extensions>
          <ns3:TrackPointExtension>
            <ns3:atemp>19.0</ns3:atemp>
            <ns3:hr>144</ns3:hr>
          </ns3:TrackPointExtension>
        </extensions>
      </trkpt>
      <trkpt lat="-22.063163705170154571533203125" lon="166.44724871031939983367919921875">
        <ele>891</ele>
        <time>2016-08-12T22:17:08.000Z</time>
        <extensions>
          <ns3:TrackPointExtension>
            <ns3:atemp>19.0</ns3:atemp>
            <ns3:hr>144</ns3:hr>
          </ns3:TrackPointExtension>
        </extensions>
      </trkpt>
      <trkpt lat="-22.06318239681422710418701171875" lon="166.447266899049282073974609375">
        <ele>891</ele>
        <time>2016-08-12T22:17:09.000Z</time>
        <extensions>
          <ns3:TrackPointExtension>
            <ns3:atemp>19.0</ns3:atemp>
            <ns3:hr>144</ns3:hr>
          </ns3:TrackPointExtension>
        </extensions>
      </trkpt>
      <trkpt lat="-22.0632024295628070831298828125" lon="166.44728458486497402191162109375">
        <ele>891.5999755859375</ele>
        <time>2016-08-12T22:17:10.000Z</time>
        <extensions>
          <ns3:TrackPointExtension>
            <ns3:atemp>19.0</ns3:atemp>
            <ns3:hr>144</ns3:hr>
          </ns3:TrackPointExtension>
        </extensions>
      </trkpt>
      <trkpt lat="-22.06322170794010162353515625" lon="166.447305120527744293212890625">
        <ele>891.20001220703125</ele>
        <time>2016-08-12T22:17:11.000Z</time>
        <extensions>
          <ns3:TrackPointExtension>
            <ns3:atemp>19.0</ns3:atemp>
            <ns3:hr>145</ns3:hr>
          </ns3:TrackPointExtension>
        </extensions>
      </trkpt>
      <trkpt lat="-22.0632429979741573333740234375" lon="166.44732263870537281036376953125">
        <ele>890.5999755859375</ele>
        <time>2016-08-12T22:17:12.000Z</time>
        <extensions>
          <ns3:TrackPointExtension>
            <ns3:atemp>19.0</ns3:atemp>
            <ns3:hr>145</ns3:hr>
          </ns3:TrackPointExtension>
        </extensions>
      </trkpt>
      <trkpt lat="-22.0632641203701496124267578125" lon="166.44733889959752559661865234375">
        <ele>890.79998779296875</ele>
        <time>2016-08-12T22:17:13.000Z</time>
        <extensions>
          <ns3:TrackPointExtension>
            <ns3:atemp>19.0</ns3:atemp>
            <ns3:hr>145</ns3:hr>
          </ns3:TrackPointExtension>
        </extensions>
      </trkpt>
      <trkpt lat="-22.06328339874744415283203125" lon="166.4473579265177249908447265625">
        <ele>891.4000244140625</ele>
        <time>2016-08-12T22:17:14.000Z</time>
        <extensions>
          <ns3:TrackPointExtension>
            <ns3:atemp>19.0</ns3:atemp>
            <ns3:hr>145</ns3:hr>
          </ns3:TrackPointExtension>
        </extensions>
      </trkpt>
      <trkpt lat="-22.06330074928700923919677734375" lon="166.4473773725330829620361328125">
        <ele>891.4000244140625</ele>
        <time>2016-08-12T22:17:15.000Z</time>
        <extensions>
          <ns3:TrackPointExtension>
            <ns3:atemp>19.0</ns3:atemp>
            <ns3:hr>145</ns3:hr>
          </ns3:TrackPointExtension>
        </extensions>
      </trkpt>
      <trkpt lat="-22.06331969238817691802978515625" lon="166.4473948068916797637939453125">
        <ele>891</ele>
        <time>2016-08-12T22:17:16.000Z</time>
        <extensions>
          <ns3:TrackPointExtension>
            <ns3:atemp>19.0</ns3:atemp>
            <ns3:hr>145</ns3:hr>
          </ns3:TrackPointExtension>
        </extensions>
      </trkpt>
      <trkpt lat="-22.0633350312709808349609375" lon="166.44741031341254711151123046875">
        <ele>891.79998779296875</ele>
        <time>2016-08-12T22:17:17.000Z</time>
        <extensions>
          <ns3:TrackPointExtension>
            <ns3:atemp>19.0</ns3:atemp>
            <ns3:hr>145</ns3:hr>
          </ns3:TrackPointExtension>
        </extensions>
      </trkpt>
      <trkpt lat="-22.0633486099541187286376953125" lon="166.44742791540920734405517578125">
        <ele>892</ele>
        <time>2016-08-12T22:17:18.000Z</time>
        <extensions>
          <ns3:TrackPointExtension>
            <ns3:atemp>19.0</ns3:atemp>
            <ns3:hr>145</ns3:hr>
          </ns3:TrackPointExtension>
        </extensions>
      </trkpt>
      <trkpt lat="-22.0633697323501110076904296875" lon="166.44744694232940673828125">
        <ele>891.5999755859375</ele>
        <time>2016-08-12T22:17:19.000Z</time>
        <extensions>
          <ns3:TrackPointExtension>
            <ns3:atemp>19.0</ns3:atemp>
            <ns3:hr>145</ns3:hr>
          </ns3:TrackPointExtension>
        </extensions>
      </trkpt>
      <trkpt lat="-22.06339194439351558685302734375" lon="166.447460688650608062744140625">
        <ele>892.20001220703125</ele>
        <time>2016-08-12T22:17:20.000Z</time>
        <extensions>
          <ns3:TrackPointExtension>
            <ns3:atemp>19.0</ns3:atemp>
            <ns3:hr>145</ns3:hr>
          </ns3:TrackPointExtension>
        </extensions>
      </trkpt>
      <trkpt lat="-22.063413150608539581298828125" lon="166.4474715851247310638427734375">
        <ele>892.5999755859375</ele>
        <time>2016-08-12T22:17:21.000Z</time>
        <extensions>
          <ns3:TrackPointExtension>
            <ns3:atemp>19.0</ns3:atemp>
            <ns3:hr>145</ns3:hr>
          </ns3:TrackPointExtension>
        </extensions>
      </trkpt>
      <trkpt lat="-22.06343452446162700653076171875" lon="166.44747669808566570281982421875">
        <ele>892.20001220703125</ele>
        <time>2016-08-12T22:17:22.000Z</time>
        <extensions>
          <ns3:TrackPointExtension>
            <ns3:atemp>19.0</ns3:atemp>
            <ns3:hr>146</ns3:hr>
          </ns3:TrackPointExtension>
        </extensions>
      </trkpt>
      <trkpt lat="-22.06345648504793643951416015625" lon="166.44747854210436344146728515625">
        <ele>891.79998779296875</ele>
        <time>2016-08-12T22:17:23.000Z</time>
        <extensions>
          <ns3:TrackPointExtension>
            <ns3:atemp>19.0</ns3:atemp>
            <ns3:hr>145</ns3:hr>
          </ns3:TrackPointExtension>
        </extensions>
      </trkpt>
      <trkpt lat="-22.06347794272005558013916015625" lon="166.44747971557080745697021484375">
        <ele>892.4000244140625</ele>
        <time>2016-08-12T22:17:24.000Z</time>
        <extensions>
          <ns3:TrackPointExtension>
            <ns3:atemp>19.0</ns3:atemp>
            <ns3:hr>146</ns3:hr>
          </ns3:TrackPointExtension>
        </extensions>
      </trkpt>
      <trkpt lat="-22.0634994842112064361572265625" lon="166.44747284241020679473876953125">
        <ele>892.79998779296875</ele>
        <time>2016-08-12T22:17:25.000Z</time>
        <extensions>
          <ns3:TrackPointExtension>
            <ns3:atemp>19.0</ns3:atemp>
            <ns3:hr>146</ns3:hr>
          </ns3:TrackPointExtension>
        </extensions>
      </trkpt>
      <trkpt lat="-22.06352052278816699981689453125" lon="166.44746127538383007049560546875">
        <ele>892.5999755859375</ele>
        <time>2016-08-12T22:17:26.000Z</time>
        <extensions>
          <ns3:TrackPointExtension>
            <ns3:atemp>19.0</ns3:atemp>
            <ns3:hr>146</ns3:hr>
          </ns3:TrackPointExtension>
        </extensions>
      </trkpt>
      <trkpt lat="-22.06354030407965183258056640625" lon="166.4474437572062015533447265625">
        <ele>892.4000244140625</ele>
        <time>2016-08-12T22:17:27.000Z</time>
        <extensions>
          <ns3:TrackPointExtension>
            <ns3:atemp>19.0</ns3:atemp>
            <ns3:hr>146</ns3:hr>
          </ns3:TrackPointExtension>
        </extensions>
      </trkpt>
      <trkpt lat="-22.06356092356145381927490234375" lon="166.447424478828907012939453125">
        <ele>892.79998779296875</ele>
        <time>2016-08-12T22:17:28.000Z</time>
        <extensions>
          <ns3:TrackPointExtension>
            <ns3:atemp>19.0</ns3:atemp>
            <ns3:hr>146</ns3:hr>
          </ns3:TrackPointExtension>
        </extensions>
      </trkpt>
      <trkpt lat="-22.06358288414776325225830078125" lon="166.44740763120353221893310546875">
        <ele>893.5999755859375</ele>
        <time>2016-08-12T22:17:29.000Z</time>
        <extensions>
          <ns3:TrackPointExtension>
            <ns3:atemp>19.0</ns3:atemp>
            <ns3:hr>146</ns3:hr>
          </ns3:TrackPointExtension>
        </extensions>
      </trkpt>
      <trkpt lat="-22.0636017434298992156982421875" lon="166.44738734699785709381103515625">
        <ele>893.5999755859375</ele>
        <time>2016-08-12T22:17:30.000Z</time>
        <extensions>
          <ns3:TrackPointExtension>
            <ns3:atemp>19.0</ns3:atemp>
            <ns3:hr>145</ns3:hr>
          </ns3:TrackPointExtension>
        </extensions>
      </trkpt>
      <trkpt lat="-22.06361733376979827880859375" lon="166.44736689515411853790283203125">
        <ele>892.4000244140625</ele>
        <time>2016-08-12T22:17:31.000Z</time>
        <extensions>
          <ns3:TrackPointExtension>
            <ns3:atemp>19.0</ns3:atemp>
            <ns3:hr>146</ns3:hr>
          </ns3:TrackPointExtension>
        </extensions>
      </trkpt>
      <trkpt lat="-22.06362630240619182586669921875" lon="166.44734677858650684356689453125">
        <ele>892</ele>
        <time>2016-08-12T22:17:32.000Z</time>
        <extensions>
          <ns3:TrackPointExtension>
            <ns3:atemp>19.0</ns3:atemp>
            <ns3:hr>145</ns3:hr>
          </ns3:TrackPointExtension>
        </extensions>
      </trkpt>
      <trkpt lat="-22.0636356063187122344970703125" lon="166.44732423126697540283203125">
        <ele>892.4000244140625</ele>
        <time>2016-08-12T22:17:33.000Z</time>
        <extensions>
          <ns3:TrackPointExtension>
            <ns3:atemp>19.0</ns3:atemp>
            <ns3:hr>145</ns3:hr>
          </ns3:TrackPointExtension>
        </extensions>
      </trkpt>
      <trkpt lat="-22.0636423118412494659423828125" lon="166.44730235449969768524169921875">
        <ele>892.4000244140625</ele>
        <time>2016-08-12T22:17:34.000Z</time>
        <extensions>
          <ns3:TrackPointExtension>
            <ns3:atemp>19.0</ns3:atemp>
            <ns3:hr>146</ns3:hr>
          </ns3:TrackPointExtension>
        </extensions>
      </trkpt>
      <trkpt lat="-22.0636516995728015899658203125" lon="166.44727905280888080596923828125">
        <ele>891.5999755859375</ele>
        <time>2016-08-12T22:17:35.000Z</time>
        <extensions>
          <ns3:TrackPointExtension>
            <ns3:atemp>19.0</ns3:atemp>
            <ns3:hr>145</ns3:hr>
          </ns3:TrackPointExtension>
        </extensions>
      </trkpt>
      <trkpt lat="-22.06366435624659061431884765625" lon="166.4472506381571292877197265625">
        <ele>891.4000244140625</ele>
        <time>2016-08-12T22:17:36.000Z</time>
        <extensions>
          <ns3:TrackPointExtension>
            <ns3:atemp>19.0</ns3:atemp>
            <ns3:hr>145</ns3:hr>
          </ns3:TrackPointExtension>
        </extensions>
      </trkpt>
      <trkpt lat="-22.0636778511106967926025390625" lon="166.44722507335245609283447265625">
        <ele>892</ele>
        <time>2016-08-12T22:17:37.000Z</time>
        <extensions>
          <ns3:TrackPointExtension>
            <ns3:atemp>19.0</ns3:atemp>
            <ns3:hr>145</ns3:hr>
          </ns3:TrackPointExtension>
        </extensions>
      </trkpt>
      <trkpt lat="-22.0636879093945026397705078125" lon="166.447201855480670928955078125">
        <ele>892.5999755859375</ele>
        <time>2016-08-12T22:17:38.000Z</time>
        <extensions>
          <ns3:TrackPointExtension>
            <ns3:atemp>19.0</ns3:atemp>
            <ns3:hr>145</ns3:hr>
          </ns3:TrackPointExtension>
        </extensions>
      </trkpt>
      <trkpt lat="-22.0637003146111965179443359375" lon="166.44717930816113948822021484375">
        <ele>892.20001220703125</ele>
        <time>2016-08-12T22:17:39.000Z</time>
        <extensions>
          <ns3:TrackPointExtension>
            <ns3:atemp>19.0</ns3:atemp>
            <ns3:hr>145</ns3:hr>
          </ns3:TrackPointExtension>
        </extensions>
      </trkpt>
      <trkpt lat="-22.0637123845517635345458984375" lon="166.44715818576514720916748046875">
        <ele>891.5999755859375</ele>
        <time>2016-08-12T22:17:40.000Z</time>
        <extensions>
          <ns3:TrackPointExtension>
            <ns3:atemp>19.0</ns3:atemp>
            <ns3:hr>145</ns3:hr>
          </ns3:TrackPointExtension>
        </extensions>
      </trkpt>
      <trkpt lat="-22.0637241192162036895751953125" lon="166.44713689573109149932861328125">
        <ele>892</ele>
        <time>2016-08-12T22:17:41.000Z</time>
        <extensions>
          <ns3:TrackPointExtension>
            <ns3:atemp>19.0</ns3:atemp>
            <ns3:hr>145</ns3:hr>
          </ns3:TrackPointExtension>
        </extensions>
      </trkpt>
      <trkpt lat="-22.06373258493840694427490234375" lon="166.4471165277063846588134765625">
        <ele>892.4000244140625</ele>
        <time>2016-08-12T22:17:42.000Z</time>
        <extensions>
          <ns3:TrackPointExtension>
            <ns3:atemp>19.0</ns3:atemp>
            <ns3:hr>145</ns3:hr>
          </ns3:TrackPointExtension>
        </extensions>
      </trkpt>
      <trkpt lat="-22.063743062317371368408203125" lon="166.447093226015567779541015625">
        <ele>892.20001220703125</ele>
        <time>2016-08-12T22:17:43.000Z</time>
        <extensions>
          <ns3:TrackPointExtension>
            <ns3:atemp>19.0</ns3:atemp>
            <ns3:hr>145</ns3:hr>
          </ns3:TrackPointExtension>
        </extensions>
      </trkpt>
      <trkpt lat="-22.0637552998960018157958984375" lon="166.44706648774445056915283203125">
        <ele>891.79998779296875</ele>
        <time>2016-08-12T22:17:44.000Z</time>
        <extensions>
          <ns3:TrackPointExtension>
            <ns3:atemp>19.0</ns3:atemp>
            <ns3:hr>145</ns3:hr>
          </ns3:TrackPointExtension>
        </extensions>
      </trkpt>
      <trkpt lat="-22.0637630112469196319580078125" lon="166.447042264044284820556640625">
        <ele>891.79998779296875</ele>
        <time>2016-08-12T22:17:45.000Z</time>
        <extensions>
          <ns3:TrackPointExtension>
            <ns3:atemp>19.0</ns3:atemp>
            <ns3:hr>146</ns3:hr>
          </ns3:TrackPointExtension>
        </extensions>
      </trkpt>
      <trkpt lat="-22.06377063877880573272705078125" lon="166.4470182918012142181396484375">
        <ele>892.79998779296875</ele>
        <time>2016-08-12T22:17:46.000Z</time>
        <extensions>
          <ns3:TrackPointExtension>
            <ns3:atemp>19.0</ns3:atemp>
            <ns3:hr>145</ns3:hr>
          </ns3:TrackPointExtension>
        </extensions>
      </trkpt>
      <trkpt lat="-22.06378363072872161865234375" lon="166.446996666491031646728515625">
        <ele>892.79998779296875</ele>
        <time>2016-08-12T22:17:47.000Z</time>
        <extensions>
          <ns3:TrackPointExtension>
            <ns3:atemp>19.0</ns3:atemp>
            <ns3:hr>145</ns3:hr>
          </ns3:TrackPointExtension>
        </extensions>
      </trkpt>
      <trkpt lat="-22.06379829905927181243896484375" lon="166.44697428680956363677978515625">
        <ele>892.4000244140625</ele>
        <time>2016-08-12T22:17:48.000Z</time>
        <extensions>
          <ns3:TrackPointExtension>
            <ns3:atemp>19.0</ns3:atemp>
            <ns3:hr>145</ns3:hr>
          </ns3:TrackPointExtension>
        </extensions>
      </trkpt>
      <trkpt lat="-22.0638153143227100372314453125" lon="166.44695668481290340423583984375">
        <ele>892.4000244140625</ele>
        <time>2016-08-12T22:17:49.000Z</time>
        <extensions>
          <ns3:TrackPointExtension>
            <ns3:atemp>19.0</ns3:atemp>
            <ns3:hr>145</ns3:hr>
          </ns3:TrackPointExtension>
        </extensions>
      </trkpt>
      <trkpt lat="-22.063831575214862823486328125" lon="166.44694260321557521820068359375">
        <ele>893</ele>
        <time>2016-08-12T22:17:50.000Z</time>
        <extensions>
          <ns3:TrackPointExtension>
            <ns3:atemp>19.0</ns3:atemp>
            <ns3:hr>145</ns3:hr>
          </ns3:TrackPointExtension>
        </extensions>
      </trkpt>
      <trkpt lat="-22.063846997916698455810546875" lon="166.4469277672469615936279296875">
        <ele>892.79998779296875</ele>
        <time>2016-08-12T22:17:51.000Z</time>
        <extensions>
          <ns3:TrackPointExtension>
            <ns3:atemp>19.0</ns3:atemp>
            <ns3:hr>145</ns3:hr>
          </ns3:TrackPointExtension>
        </extensions>
      </trkpt>
      <trkpt lat="-22.0638632588088512420654296875" lon="166.44691511057317256927490234375">
        <ele>892.4000244140625</ele>
        <time>2016-08-12T22:17:52.000Z</time>
        <extensions>
          <ns3:TrackPointExtension>
            <ns3:atemp>19.0</ns3:atemp>
            <ns3:hr>145</ns3:hr>
          </ns3:TrackPointExtension>
        </extensions>
      </trkpt>
      <trkpt lat="-22.063881196081638336181640625" lon="166.446912176907062530517578125">
        <ele>892.4000244140625</ele>
        <time>2016-08-12T22:17:53.000Z</time>
        <extensions>
          <ns3:TrackPointExtension>
            <ns3:atemp>19.0</ns3:atemp>
            <ns3:hr>145</ns3:hr>
          </ns3:TrackPointExtension>
        </extensions>
      </trkpt>
      <trkpt lat="-22.06389921717345714569091796875" lon="166.4469130150973796844482421875">
        <ele>893.20001220703125</ele>
        <time>2016-08-12T22:17:54.000Z</time>
        <extensions>
          <ns3:TrackPointExtension>
            <ns3:atemp>19.0</ns3:atemp>
            <ns3:hr>145</ns3:hr>
          </ns3:TrackPointExtension>
        </extensions>
      </trkpt>
      <trkpt lat="-22.06391614861786365509033203125" lon="166.4469167031347751617431640625">
        <ele>893.5999755859375</ele>
        <time>2016-08-12T22:17:55.000Z</time>
        <extensions>
          <ns3:TrackPointExtension>
            <ns3:atemp>19.0</ns3:atemp>
            <ns3:hr>144</ns3:hr>
          </ns3:TrackPointExtension>
        </extensions>
      </trkpt>
      <trkpt lat="-22.0639383606612682342529296875" lon="166.44692550413310527801513671875">
        <ele>892.79998779296875</ele>
        <time>2016-08-12T22:17:56.000Z</time>
        <extensions>
          <ns3:TrackPointExtension>
            <ns3:atemp>19.0</ns3:atemp>
            <ns3:hr>145</ns3:hr>
          </ns3:TrackPointExtension>
        </extensions>
      </trkpt>
      <trkpt lat="-22.06396040506660938262939453125" lon="166.44693933427333831787109375">
        <ele>892</ele>
        <time>2016-08-12T22:17:57.000Z</time>
        <extensions>
          <ns3:TrackPointExtension>
            <ns3:atemp>19.0</ns3:atemp>
            <ns3:hr>145</ns3:hr>
          </ns3:TrackPointExtension>
        </extensions>
      </trkpt>
      <trkpt lat="-22.0639826171100139617919921875" lon="166.44695274531841278076171875">
        <ele>892.20001220703125</ele>
        <time>2016-08-12T22:17:58.000Z</time>
        <extensions>
          <ns3:TrackPointExtension>
            <ns3:atemp>19.0</ns3:atemp>
            <ns3:hr>144</ns3:hr>
          </ns3:TrackPointExtension>
        </extensions>
      </trkpt>
      <trkpt lat="-22.06400231458246707916259765625" lon="166.44696473143994808197021484375">
        <ele>892.20001220703125</ele>
        <time>2016-08-12T22:17:59.000Z</time>
        <extensions>
          <ns3:TrackPointExtension>
            <ns3:atemp>19.0</ns3:atemp>
            <ns3:hr>144</ns3:hr>
          </ns3:TrackPointExtension>
        </extensions>
      </trkpt>
      <trkpt lat="-22.06401698291301727294921875" lon="166.44697881303727626800537109375">
        <ele>892.20001220703125</ele>
        <time>2016-08-12T22:18:00.000Z</time>
        <extensions>
          <ns3:TrackPointExtension>
            <ns3:atemp>19.0</ns3:atemp>
            <ns3:hr>144</ns3:hr>
          </ns3:TrackPointExtension>
        </extensions>
      </trkpt>
      <trkpt lat="-22.06403550691902637481689453125" lon="166.4469924755394458770751953125">
        <ele>891.79998779296875</ele>
        <time>2016-08-12T22:18:01.000Z</time>
        <extensions>
          <ns3:TrackPointExtension>
            <ns3:atemp>19.0</ns3:atemp>
            <ns3:hr>144</ns3:hr>
          </ns3:TrackPointExtension>
        </extensions>
      </trkpt>
      <trkpt lat="-22.06405662931501865386962890625" lon="166.44700706005096435546875">
        <ele>892.5999755859375</ele>
        <time>2016-08-12T22:18:02.000Z</time>
        <extensions>
          <ns3:TrackPointExtension>
            <ns3:atemp>19.0</ns3:atemp>
            <ns3:hr>144</ns3:hr>
          </ns3:TrackPointExtension>
        </extensions>
      </trkpt>
      <trkpt lat="-22.06407599151134490966796875" lon="166.4470229856669902801513671875">
        <ele>893.20001220703125</ele>
        <time>2016-08-12T22:18:03.000Z</time>
        <extensions>
          <ns3:TrackPointExtension>
            <ns3:atemp>19.0</ns3:atemp>
            <ns3:hr>144</ns3:hr>
          </ns3:TrackPointExtension>
        </extensions>
      </trkpt>
      <trkpt lat="-22.06409753300249576568603515625" lon="166.4470407553017139434814453125">
        <ele>893.4000244140625</ele>
        <time>2016-08-12T22:18:04.000Z</time>
        <extensions>
          <ns3:TrackPointExtension>
            <ns3:atemp>19.0</ns3:atemp>
            <ns3:hr>144</ns3:hr>
          </ns3:TrackPointExtension>
        </extensions>
      </trkpt>
      <trkpt lat="-22.06411295570433139801025390625" lon="166.4470548368990421295166015625">
        <ele>893.20001220703125</ele>
        <time>2016-08-12T22:18:05.000Z</time>
        <extensions>
          <ns3:TrackPointExtension>
            <ns3:atemp>19.0</ns3:atemp>
            <ns3:hr>144</ns3:hr>
          </ns3:TrackPointExtension>
        </extensions>
      </trkpt>
      <trkpt lat="-22.0641264505684375762939453125" lon="166.4470756240189075469970703125">
        <ele>893</ele>
        <time>2016-08-12T22:18:06.000Z</time>
        <extensions>
          <ns3:TrackPointExtension>
            <ns3:atemp>19.0</ns3:atemp>
            <ns3:hr>144</ns3:hr>
          </ns3:TrackPointExtension>
        </extensions>
      </trkpt>
      <trkpt lat="-22.064143382012844085693359375" lon="166.44709222018718719482421875">
        <ele>893.79998779296875</ele>
        <time>2016-08-12T22:18:07.000Z</time>
        <extensions>
          <ns3:TrackPointExtension>
            <ns3:atemp>19.0</ns3:atemp>
            <ns3:hr>144</ns3:hr>
          </ns3:TrackPointExtension>
        </extensions>
      </trkpt>
      <trkpt lat="-22.06415872089564800262451171875" lon="166.4471094869077205657958984375">
        <ele>894</ele>
        <time>2016-08-12T22:18:08.000Z</time>
        <extensions>
          <ns3:TrackPointExtension>
            <ns3:atemp>19.0</ns3:atemp>
            <ns3:hr>143</ns3:hr>
          </ns3:TrackPointExtension>
        </extensions>
      </trkpt>
      <trkpt lat="-22.06417934037744998931884765625" lon="166.44712843000888824462890625">
        <ele>893.79998779296875</ele>
        <time>2016-08-12T22:18:09.000Z</time>
        <extensions>
          <ns3:TrackPointExtension>
            <ns3:atemp>19.0</ns3:atemp>
            <ns3:hr>143</ns3:hr>
          </ns3:TrackPointExtension>
        </extensions>
      </trkpt>
      <trkpt lat="-22.0642085932195186614990234375" lon="166.44714586436748504638671875">
        <ele>893.4000244140625</ele>
        <time>2016-08-12T22:18:10.000Z</time>
        <extensions>
          <ns3:TrackPointExtension>
            <ns3:atemp>19.0</ns3:atemp>
            <ns3:hr>143</ns3:hr>
          </ns3:TrackPointExtension>
        </extensions>
      </trkpt>
      <trkpt lat="-22.06422929652035236358642578125" lon="166.4471668191254138946533203125">
        <ele>894</ele>
        <time>2016-08-12T22:18:11.000Z</time>
        <extensions>
          <ns3:TrackPointExtension>
            <ns3:atemp>19.0</ns3:atemp>
            <ns3:hr>143</ns3:hr>
          </ns3:TrackPointExtension>
        </extensions>
      </trkpt>
      <trkpt lat="-22.0642523467540740966796875" lon="166.4471852593123912811279296875">
        <ele>893.79998779296875</ele>
        <time>2016-08-12T22:18:12.000Z</time>
        <extensions>
          <ns3:TrackPointExtension>
            <ns3:atemp>19.0</ns3:atemp>
            <ns3:hr>143</ns3:hr>
          </ns3:TrackPointExtension>
        </extensions>
      </trkpt>
      <trkpt lat="-22.064272798597812652587890625" lon="166.44720059819519519805908203125">
        <ele>893</ele>
        <time>2016-08-12T22:18:13.000Z</time>
        <extensions>
          <ns3:TrackPointExtension>
            <ns3:atemp>19.0</ns3:atemp>
            <ns3:hr>143</ns3:hr>
          </ns3:TrackPointExtension>
        </extensions>
      </trkpt>
      <trkpt lat="-22.06428386270999908447265625" lon="166.4472214691340923309326171875">
        <ele>893</ele>
        <time>2016-08-12T22:18:14.000Z</time>
        <extensions>
          <ns3:TrackPointExtension>
            <ns3:atemp>19.0</ns3:atemp>
            <ns3:hr>143</ns3:hr>
          </ns3:TrackPointExtension>
        </extensions>
      </trkpt>
      <trkpt lat="-22.06430741585791110992431640625" lon="166.44724133424460887908935546875">
        <ele>893.79998779296875</ele>
        <time>2016-08-12T22:18:15.000Z</time>
        <extensions>
          <ns3:TrackPointExtension>
            <ns3:atemp>19.0</ns3:atemp>
            <ns3:hr>142</ns3:hr>
          </ns3:TrackPointExtension>
        </extensions>
      </trkpt>
      <trkpt lat="-22.06432853825390338897705078125" lon="166.4472591876983642578125">
        <ele>894</ele>
        <time>2016-08-12T22:18:16.000Z</time>
        <extensions>
          <ns3:TrackPointExtension>
            <ns3:atemp>19.0</ns3:atemp>
            <ns3:hr>142</ns3:hr>
          </ns3:TrackPointExtension>
        </extensions>
      </trkpt>
      <trkpt lat="-22.06434597261250019073486328125" lon="166.447279639542102813720703125">
        <ele>893.5999755859375</ele>
        <time>2016-08-12T22:18:17.000Z</time>
        <extensions>
          <ns3:TrackPointExtension>
            <ns3:atemp>19.0</ns3:atemp>
            <ns3:hr>142</ns3:hr>
          </ns3:TrackPointExtension>
        </extensions>
      </trkpt>
      <trkpt lat="-22.0643581263720989227294921875" lon="166.4473007619380950927734375">
        <ele>893.79998779296875</ele>
        <time>2016-08-12T22:18:18.000Z</time>
        <extensions>
          <ns3:TrackPointExtension>
            <ns3:atemp>19.0</ns3:atemp>
            <ns3:hr>142</ns3:hr>
          </ns3:TrackPointExtension>
        </extensions>
      </trkpt>
      <trkpt lat="-22.06437011249363422393798828125" lon="166.447322554886341094970703125">
        <ele>894.4000244140625</ele>
        <time>2016-08-12T22:18:19.000Z</time>
        <extensions>
          <ns3:TrackPointExtension>
            <ns3:atemp>19.0</ns3:atemp>
            <ns3:hr>142</ns3:hr>
          </ns3:TrackPointExtension>
        </extensions>
      </trkpt>
      <trkpt lat="-22.06438519991934299468994140625" lon="166.44734107889235019683837890625">
        <ele>894.4000244140625</ele>
        <time>2016-08-12T22:18:20.000Z</time>
        <extensions>
          <ns3:TrackPointExtension>
            <ns3:atemp>19.0</ns3:atemp>
            <ns3:hr>142</ns3:hr>
          </ns3:TrackPointExtension>
        </extensions>
      </trkpt>
      <trkpt lat="-22.06439810805022716522216796875" lon="166.44736253656446933746337890625">
        <ele>894</ele>
        <time>2016-08-12T22:18:21.000Z</time>
        <extensions>
          <ns3:TrackPointExtension>
            <ns3:atemp>19.0</ns3:atemp>
            <ns3:hr>142</ns3:hr>
          </ns3:TrackPointExtension>
        </extensions>
      </trkpt>
      <trkpt lat="-22.06441587768495082855224609375" lon="166.44738055765628814697265625">
        <ele>893.79998779296875</ele>
        <time>2016-08-12T22:18:22.000Z</time>
        <extensions>
          <ns3:TrackPointExtension>
            <ns3:atemp>19.0</ns3:atemp>
            <ns3:hr>142</ns3:hr>
          </ns3:TrackPointExtension>
        </extensions>
      </trkpt>
      <trkpt lat="-22.06442962400615215301513671875" lon="166.44739723764359951019287109375">
        <ele>894.5999755859375</ele>
        <time>2016-08-12T22:18:23.000Z</time>
        <extensions>
          <ns3:TrackPointExtension>
            <ns3:atemp>19.0</ns3:atemp>
            <ns3:hr>142</ns3:hr>
          </ns3:TrackPointExtension>
        </extensions>
      </trkpt>
      <trkpt lat="-22.06444605253636837005615234375" lon="166.44741232506930828094482421875">
        <ele>894.79998779296875</ele>
        <time>2016-08-12T22:18:24.000Z</time>
        <extensions>
          <ns3:TrackPointExtension>
            <ns3:atemp>19.0</ns3:atemp>
            <ns3:hr>142</ns3:hr>
          </ns3:TrackPointExtension>
        </extensions>
      </trkpt>
      <trkpt lat="-22.06445326097309589385986328125" lon="166.44742875359952449798583984375">
        <ele>894.5999755859375</ele>
        <time>2016-08-12T22:18:25.000Z</time>
        <extensions>
          <ns3:TrackPointExtension>
            <ns3:atemp>19.0</ns3:atemp>
            <ns3:hr>142</ns3:hr>
          </ns3:TrackPointExtension>
        </extensions>
      </trkpt>
      <trkpt lat="-22.06446751020848751068115234375" lon="166.447439230978488922119140625">
        <ele>894.4000244140625</ele>
        <time>2016-08-12T22:18:26.000Z</time>
        <extensions>
          <ns3:TrackPointExtension>
            <ns3:atemp>19.0</ns3:atemp>
            <ns3:hr>142</ns3:hr>
          </ns3:TrackPointExtension>
        </extensions>
      </trkpt>
      <trkpt lat="-22.06447740085422992706298828125" lon="166.44745389930903911590576171875">
        <ele>894.79998779296875</ele>
        <time>2016-08-12T22:18:27.000Z</time>
        <extensions>
          <ns3:TrackPointExtension>
            <ns3:atemp>19.0</ns3:atemp>
            <ns3:hr>142</ns3:hr>
          </ns3:TrackPointExtension>
        </extensions>
      </trkpt>
      <trkpt lat="-22.06449617631733417510986328125" lon="166.4474712498486042022705078125">
        <ele>894.79998779296875</ele>
        <time>2016-08-12T22:18:28.000Z</time>
        <extensions>
          <ns3:TrackPointExtension>
            <ns3:atemp>19.0</ns3:atemp>
            <ns3:hr>141</ns3:hr>
          </ns3:TrackPointExtension>
        </extensions>
      </trkpt>
      <trkpt lat="-22.0645049773156642913818359375" lon="166.447495557367801666259765625">
        <ele>894.4000244140625</ele>
        <time>2016-08-12T22:18:29.000Z</time>
        <extensions>
          <ns3:TrackPointExtension>
            <ns3:atemp>19.0</ns3:atemp>
            <ns3:hr>141</ns3:hr>
          </ns3:TrackPointExtension>
        </extensions>
      </trkpt>
      <trkpt lat="-22.06452014856040477752685546875" lon="166.44752112217247486114501953125">
        <ele>894.5999755859375</ele>
        <time>2016-08-12T22:18:30.000Z</time>
        <extensions>
          <ns3:TrackPointExtension>
            <ns3:atemp>19.0</ns3:atemp>
            <ns3:hr>141</ns3:hr>
          </ns3:TrackPointExtension>
        </extensions>
      </trkpt>
      <trkpt lat="-22.0645304583013057708740234375" lon="166.447543166577816009521484375">
        <ele>894.79998779296875</ele>
        <time>2016-08-12T22:18:31.000Z</time>
        <extensions>
          <ns3:TrackPointExtension>
            <ns3:atemp>19.0</ns3:atemp>
            <ns3:hr>141</ns3:hr>
          </ns3:TrackPointExtension>
        </extensions>
      </trkpt>
      <trkpt lat="-22.06454345025122165679931640625" lon="166.44756370224058628082275390625">
        <ele>894.4000244140625</ele>
        <time>2016-08-12T22:18:32.000Z</time>
        <extensions>
          <ns3:TrackPointExtension>
            <ns3:atemp>19.0</ns3:atemp>
            <ns3:hr>140</ns3:hr>
          </ns3:TrackPointExtension>
        </extensions>
      </trkpt>
      <trkpt lat="-22.06456222571432590484619140625" lon="166.4475859142839908599853515625">
        <ele>894.20001220703125</ele>
        <time>2016-08-12T22:18:33.000Z</time>
        <extensions>
          <ns3:TrackPointExtension>
            <ns3:atemp>19.0</ns3:atemp>
            <ns3:hr>140</ns3:hr>
          </ns3:TrackPointExtension>
        </extensions>
      </trkpt>
      <trkpt lat="-22.06457630731165409088134765625" lon="166.4476087130606174468994140625">
        <ele>895.20001220703125</ele>
        <time>2016-08-12T22:18:34.000Z</time>
        <extensions>
          <ns3:TrackPointExtension>
            <ns3:atemp>19.0</ns3:atemp>
            <ns3:hr>140</ns3:hr>
          </ns3:TrackPointExtension>
        </extensions>
      </trkpt>
      <trkpt lat="-22.06459592096507549285888671875" lon="166.44763000309467315673828125">
        <ele>895.79998779296875</ele>
        <time>2016-08-12T22:18:35.000Z</time>
        <extensions>
          <ns3:TrackPointExtension>
            <ns3:atemp>19.0</ns3:atemp>
            <ns3:hr>140</ns3:hr>
          </ns3:TrackPointExtension>
        </extensions>
      </trkpt>
      <trkpt lat="-22.0646159537136554718017578125" lon="166.44764685072004795074462890625">
        <ele>895.4000244140625</ele>
        <time>2016-08-12T22:18:36.000Z</time>
        <extensions>
          <ns3:TrackPointExtension>
            <ns3:atemp>18.0</ns3:atemp>
            <ns3:hr>140</ns3:hr>
          </ns3:TrackPointExtension>
        </extensions>
      </trkpt>
      <trkpt lat="-22.06463078968226909637451171875" lon="166.44766210578382015228271484375">
        <ele>894.79998779296875</ele>
        <time>2016-08-12T22:18:37.000Z</time>
        <extensions>
          <ns3:TrackPointExtension>
            <ns3:atemp>18.0</ns3:atemp>
            <ns3:hr>140</ns3:hr>
          </ns3:TrackPointExtension>
        </extensions>
      </trkpt>
      <trkpt lat="-22.0646528340876102447509765625" lon="166.44767702557146549224853515625">
        <ele>895</ele>
        <time>2016-08-12T22:18:38.000Z</time>
        <extensions>
          <ns3:TrackPointExtension>
            <ns3:atemp>18.0</ns3:atemp>
            <ns3:hr>140</ns3:hr>
          </ns3:TrackPointExtension>
        </extensions>
      </trkpt>
      <trkpt lat="-22.06467211246490478515625" lon="166.4476895146071910858154296875">
        <ele>895.4000244140625</ele>
        <time>2016-08-12T22:18:39.000Z</time>
        <extensions>
          <ns3:TrackPointExtension>
            <ns3:atemp>18.0</ns3:atemp>
            <ns3:hr>139</ns3:hr>
          </ns3:TrackPointExtension>
        </extensions>
      </trkpt>
      <trkpt lat="-22.06469683907926082611083984375" lon="166.44769915379583835601806640625">
        <ele>895.5999755859375</ele>
        <time>2016-08-12T22:18:40.000Z</time>
        <extensions>
          <ns3:TrackPointExtension>
            <ns3:atemp>18.0</ns3:atemp>
            <ns3:hr>139</ns3:hr>
          </ns3:TrackPointExtension>
        </extensions>
      </trkpt>
      <trkpt lat="-22.0647202245891094207763671875" lon="166.44770652987062931060791015625">
        <ele>895.20001220703125</ele>
        <time>2016-08-12T22:18:41.000Z</time>
        <extensions>
          <ns3:TrackPointExtension>
            <ns3:atemp>18.0</ns3:atemp>
            <ns3:hr>139</ns3:hr>
          </ns3:TrackPointExtension>
        </extensions>
      </trkpt>
      <trkpt lat="-22.06474863924086093902587890625" lon="166.44770485348999500274658203125">
        <ele>894.5999755859375</ele>
        <time>2016-08-12T22:18:42.000Z</time>
        <extensions>
          <ns3:TrackPointExtension>
            <ns3:atemp>18.0</ns3:atemp>
            <ns3:hr>139</ns3:hr>
          </ns3:TrackPointExtension>
        </extensions>
      </trkpt>
      <trkpt lat="-22.0647624693810939788818359375" lon="166.44770787097513675689697265625">
        <ele>894.79998779296875</ele>
        <time>2016-08-12T22:18:43.000Z</time>
        <extensions>
          <ns3:TrackPointExtension>
            <ns3:atemp>18.0</ns3:atemp>
            <ns3:hr>140</ns3:hr>
          </ns3:TrackPointExtension>
        </extensions>
      </trkpt>
      <trkpt lat="-22.0647866092622280120849609375" lon="166.4477022551000118255615234375">
        <ele>894.79998779296875</ele>
        <time>2016-08-12T22:18:44.000Z</time>
        <extensions>
          <ns3:TrackPointExtension>
            <ns3:atemp>18.0</ns3:atemp>
            <ns3:hr>139</ns3:hr>
          </ns3:TrackPointExtension>
        </extensions>
      </trkpt>
      <trkpt lat="-22.06481468863785266876220703125" lon="166.44769848324358463287353515625">
        <ele>894.79998779296875</ele>
        <time>2016-08-12T22:18:45.000Z</time>
        <extensions>
          <ns3:TrackPointExtension>
            <ns3:atemp>18.0</ns3:atemp>
            <ns3:hr>140</ns3:hr>
          </ns3:TrackPointExtension>
        </extensions>
      </trkpt>
      <trkpt lat="-22.06482843495905399322509765625" lon="166.447694040834903717041015625">
        <ele>894.79998779296875</ele>
        <time>2016-08-12T22:18:46.000Z</time>
        <extensions>
          <ns3:TrackPointExtension>
            <ns3:atemp>18.0</ns3:atemp>
            <ns3:hr>139</ns3:hr>
          </ns3:TrackPointExtension>
        </extensions>
      </trkpt>
      <trkpt lat="-22.06484922207891941070556640625" lon="166.4476828090846538543701171875">
        <ele>895</ele>
        <time>2016-08-12T22:18:47.000Z</time>
        <extensions>
          <ns3:TrackPointExtension>
            <ns3:atemp>18.0</ns3:atemp>
            <ns3:hr>140</ns3:hr>
          </ns3:TrackPointExtension>
        </extensions>
      </trkpt>
      <trkpt lat="-22.06487135030329227447509765625" lon="166.44767099060118198394775390625">
        <ele>895.5999755859375</ele>
        <time>2016-08-12T22:18:48.000Z</time>
        <extensions>
          <ns3:TrackPointExtension>
            <ns3:atemp>18.0</ns3:atemp>
            <ns3:hr>140</ns3:hr>
          </ns3:TrackPointExtension>
        </extensions>
      </trkpt>
      <trkpt lat="-22.0648949034512042999267578125" lon="166.4476574957370758056640625">
        <ele>895.5999755859375</ele>
        <time>2016-08-12T22:18:49.000Z</time>
        <extensions>
          <ns3:TrackPointExtension>
            <ns3:atemp>18.0</ns3:atemp>
            <ns3:hr>139</ns3:hr>
          </ns3:TrackPointExtension>
        </extensions>
      </trkpt>
      <trkpt lat="-22.06491820514202117919921875" lon="166.447638384997844696044921875">
        <ele>895.79998779296875</ele>
        <time>2016-08-12T22:18:50.000Z</time>
        <extensions>
          <ns3:TrackPointExtension>
            <ns3:atemp>18.0</ns3:atemp>
            <ns3:hr>140</ns3:hr>
          </ns3:TrackPointExtension>
        </extensions>
      </trkpt>
      <trkpt lat="-22.06493957899510860443115234375" lon="166.447614915668964385986328125">
        <ele>896.20001220703125</ele>
        <time>2016-08-12T22:18:51.000Z</time>
        <extensions>
          <ns3:TrackPointExtension>
            <ns3:atemp>18.0</ns3:atemp>
            <ns3:hr>139</ns3:hr>
          </ns3:TrackPointExtension>
        </extensions>
      </trkpt>
      <trkpt lat="-22.064964137971401214599609375" lon="166.44759169779717922210693359375">
        <ele>896.4000244140625</ele>
        <time>2016-08-12T22:18:52.000Z</time>
        <extensions>
          <ns3:TrackPointExtension>
            <ns3:atemp>18.0</ns3:atemp>
            <ns3:hr>139</ns3:hr>
          </ns3:TrackPointExtension>
        </extensions>
      </trkpt>
      <trkpt lat="-22.064987607300281524658203125" lon="166.447567306458950042724609375">
        <ele>896</ele>
        <time>2016-08-12T22:18:53.000Z</time>
        <extensions>
          <ns3:TrackPointExtension>
            <ns3:atemp>18.0</ns3:atemp>
            <ns3:hr>139</ns3:hr>
          </ns3:TrackPointExtension>
        </extensions>
      </trkpt>
      <trkpt lat="-22.06500445492565631866455078125" lon="166.44754308275878429412841796875">
        <ele>895.79998779296875</ele>
        <time>2016-08-12T22:18:54.000Z</time>
        <extensions>
          <ns3:TrackPointExtension>
            <ns3:atemp>18.0</ns3:atemp>
            <ns3:hr>140</ns3:hr>
          </ns3:TrackPointExtension>
        </extensions>
      </trkpt>
      <trkpt lat="-22.0650229789316654205322265625" lon="166.44751408137381076812744140625">
        <ele>896.20001220703125</ele>
        <time>2016-08-12T22:18:55.000Z</time>
        <extensions>
          <ns3:TrackPointExtension>
            <ns3:atemp>18.0</ns3:atemp>
            <ns3:hr>140</ns3:hr>
          </ns3:TrackPointExtension>
        </extensions>
      </trkpt>
      <trkpt lat="-22.06503379158675670623779296875" lon="166.44748893566429615020751953125">
        <ele>896.5999755859375</ele>
        <time>2016-08-12T22:18:56.000Z</time>
        <extensions>
          <ns3:TrackPointExtension>
            <ns3:atemp>18.0</ns3:atemp>
            <ns3:hr>140</ns3:hr>
          </ns3:TrackPointExtension>
        </extensions>
      </trkpt>
      <trkpt lat="-22.0650489628314971923828125" lon="166.44745943136513233184814453125">
        <ele>896.4000244140625</ele>
        <time>2016-08-12T22:18:57.000Z</time>
        <extensions>
          <ns3:TrackPointExtension>
            <ns3:atemp>18.0</ns3:atemp>
            <ns3:hr>139</ns3:hr>
          </ns3:TrackPointExtension>
        </extensions>
      </trkpt>
      <trkpt lat="-22.06506731919944286346435546875" lon="166.4474286697804927825927734375">
        <ele>896</ele>
        <time>2016-08-12T22:18:58.000Z</time>
        <extensions>
          <ns3:TrackPointExtension>
            <ns3:atemp>18.0</ns3:atemp>
            <ns3:hr>139</ns3:hr>
          </ns3:TrackPointExtension>
        </extensions>
      </trkpt>
      <trkpt lat="-22.06508642993867397308349609375" lon="166.4474018476903438568115234375">
        <ele>896</ele>
        <time>2016-08-12T22:18:59.000Z</time>
        <extensions>
          <ns3:TrackPointExtension>
            <ns3:atemp>18.0</ns3:atemp>
            <ns3:hr>140</ns3:hr>
          </ns3:TrackPointExtension>
        </extensions>
      </trkpt>
      <trkpt lat="-22.0650974102318286895751953125" lon="166.44737108610570430755615234375">
        <ele>896.4000244140625</ele>
        <time>2016-08-12T22:19:00.000Z</time>
        <extensions>
          <ns3:TrackPointExtension>
            <ns3:atemp>18.0</ns3:atemp>
            <ns3:hr>139</ns3:hr>
          </ns3:TrackPointExtension>
        </extensions>
      </trkpt>
      <trkpt lat="-22.0651079714298248291015625" lon="166.44734409637749195098876953125">
        <ele>896.4000244140625</ele>
        <time>2016-08-12T22:19:01.000Z</time>
        <extensions>
          <ns3:TrackPointExtension>
            <ns3:atemp>18.0</ns3:atemp>
            <ns3:hr>139</ns3:hr>
          </ns3:TrackPointExtension>
        </extensions>
      </trkpt>
      <trkpt lat="-22.06512129865586757659912109375" lon="166.4473170228302478790283203125">
        <ele>896.20001220703125</ele>
        <time>2016-08-12T22:19:02.000Z</time>
        <extensions>
          <ns3:TrackPointExtension>
            <ns3:atemp>18.0</ns3:atemp>
            <ns3:hr>139</ns3:hr>
          </ns3:TrackPointExtension>
        </extensions>
      </trkpt>
      <trkpt lat="-22.06513814628124237060546875" lon="166.44729212857782840728759765625">
        <ele>896.20001220703125</ele>
        <time>2016-08-12T22:19:03.000Z</time>
        <extensions>
          <ns3:TrackPointExtension>
            <ns3:atemp>18.0</ns3:atemp>
            <ns3:hr>139</ns3:hr>
          </ns3:TrackPointExtension>
        </extensions>
      </trkpt>
      <trkpt lat="-22.0651570893824100494384765625" lon="166.44727201201021671295166015625">
        <ele>896.4000244140625</ele>
        <time>2016-08-12T22:19:04.000Z</time>
        <extensions>
          <ns3:TrackPointExtension>
            <ns3:atemp>18.0</ns3:atemp>
            <ns3:hr>139</ns3:hr>
          </ns3:TrackPointExtension>
        </extensions>
      </trkpt>
      <trkpt lat="-22.06517041660845279693603515625" lon="166.4472506381571292877197265625">
        <ele>896.20001220703125</ele>
        <time>2016-08-12T22:19:05.000Z</time>
        <extensions>
          <ns3:TrackPointExtension>
            <ns3:atemp>18.0</ns3:atemp>
            <ns3:hr>139</ns3:hr>
          </ns3:TrackPointExtension>
        </extensions>
      </trkpt>
      <trkpt lat="-22.06518751569092273712158203125" lon="166.44723194651305675506591796875">
        <ele>895.5999755859375</ele>
        <time>2016-08-12T22:19:06.000Z</time>
        <extensions>
          <ns3:TrackPointExtension>
            <ns3:atemp>18.0</ns3:atemp>
            <ns3:hr>139</ns3:hr>
          </ns3:TrackPointExtension>
        </extensions>
      </trkpt>
      <trkpt lat="-22.06520520150661468505859375" lon="166.44721283577382564544677734375">
        <ele>895.5999755859375</ele>
        <time>2016-08-12T22:19:07.000Z</time>
        <extensions>
          <ns3:TrackPointExtension>
            <ns3:atemp>18.0</ns3:atemp>
            <ns3:hr>139</ns3:hr>
          </ns3:TrackPointExtension>
        </extensions>
      </trkpt>
      <trkpt lat="-22.06522389315068721771240234375" lon="166.44719422794878482818603515625">
        <ele>896.20001220703125</ele>
        <time>2016-08-12T22:19:08.000Z</time>
        <extensions>
          <ns3:TrackPointExtension>
            <ns3:atemp>18.0</ns3:atemp>
            <ns3:hr>138</ns3:hr>
          </ns3:TrackPointExtension>
        </extensions>
      </trkpt>
      <trkpt lat="-22.065239064395427703857421875" lon="166.447175703942775726318359375">
        <ele>896</ele>
        <time>2016-08-12T22:19:09.000Z</time>
        <extensions>
          <ns3:TrackPointExtension>
            <ns3:atemp>18.0</ns3:atemp>
            <ns3:hr>138</ns3:hr>
          </ns3:TrackPointExtension>
        </extensions>
      </trkpt>
      <trkpt lat="-22.06525423564016819000244140625" lon="166.44715667702257633209228515625">
        <ele>895.79998779296875</ele>
        <time>2016-08-12T22:19:10.000Z</time>
        <extensions>
          <ns3:TrackPointExtension>
            <ns3:atemp>18.0</ns3:atemp>
            <ns3:hr>138</ns3:hr>
          </ns3:TrackPointExtension>
        </extensions>
      </trkpt>
      <trkpt lat="-22.06527334637939929962158203125" lon="166.4471389912068843841552734375">
        <ele>895.79998779296875</ele>
        <time>2016-08-12T22:19:11.000Z</time>
        <extensions>
          <ns3:TrackPointExtension>
            <ns3:atemp>18.0</ns3:atemp>
            <ns3:hr>138</ns3:hr>
          </ns3:TrackPointExtension>
        </extensions>
      </trkpt>
      <trkpt lat="-22.06529245711863040924072265625" lon="166.44711979664862155914306640625">
        <ele>896.20001220703125</ele>
        <time>2016-08-12T22:19:12.000Z</time>
        <extensions>
          <ns3:TrackPointExtension>
            <ns3:atemp>18.0</ns3:atemp>
            <ns3:hr>138</ns3:hr>
          </ns3:TrackPointExtension>
        </extensions>
      </trkpt>
      <trkpt lat="-22.06531575880944728851318359375" lon="166.4471022784709930419921875">
        <ele>896</ele>
        <time>2016-08-12T22:19:13.000Z</time>
        <extensions>
          <ns3:TrackPointExtension>
            <ns3:atemp>18.0</ns3:atemp>
            <ns3:hr>138</ns3:hr>
          </ns3:TrackPointExtension>
        </extensions>
      </trkpt>
      <trkpt lat="-22.06533419899642467498779296875" lon="166.44708341918885707855224609375">
        <ele>895.5999755859375</ele>
        <time>2016-08-12T22:19:14.000Z</time>
        <extensions>
          <ns3:TrackPointExtension>
            <ns3:atemp>18.0</ns3:atemp>
            <ns3:hr>138</ns3:hr>
          </ns3:TrackPointExtension>
        </extensions>
      </trkpt>
      <trkpt lat="-22.0653533935546875" lon="166.44706279970705509185791015625">
        <ele>895.5999755859375</ele>
        <time>2016-08-12T22:19:15.000Z</time>
        <extensions>
          <ns3:TrackPointExtension>
            <ns3:atemp>18.0</ns3:atemp>
            <ns3:hr>137</ns3:hr>
          </ns3:TrackPointExtension>
        </extensions>
      </trkpt>
      <trkpt lat="-22.06536948680877685546875" lon="166.44703991711139678955078125">
        <ele>896</ele>
        <time>2016-08-12T22:19:16.000Z</time>
        <extensions>
          <ns3:TrackPointExtension>
            <ns3:atemp>18.0</ns3:atemp>
            <ns3:hr>137</ns3:hr>
          </ns3:TrackPointExtension>
        </extensions>
      </trkpt>
      <trkpt lat="-22.06538088619709014892578125" lon="166.4470152743160724639892578125">
        <ele>896</ele>
        <time>2016-08-12T22:19:17.000Z</time>
        <extensions>
          <ns3:TrackPointExtension>
            <ns3:atemp>18.0</ns3:atemp>
            <ns3:hr>137</ns3:hr>
          </ns3:TrackPointExtension>
        </extensions>
      </trkpt>
      <trkpt lat="-22.06539941020309925079345703125" lon="166.44699775613844394683837890625">
        <ele>896</ele>
        <time>2016-08-12T22:19:18.000Z</time>
        <extensions>
          <ns3:TrackPointExtension>
            <ns3:atemp>18.0</ns3:atemp>
            <ns3:hr>137</ns3:hr>
          </ns3:TrackPointExtension>
        </extensions>
      </trkpt>
      <trkpt lat="-22.065414749085903167724609375" lon="166.44698400981724262237548828125">
        <ele>895.79998779296875</ele>
        <time>2016-08-12T22:19:19.000Z</time>
        <extensions>
          <ns3:TrackPointExtension>
            <ns3:atemp>18.0</ns3:atemp>
            <ns3:hr>138</ns3:hr>
          </ns3:TrackPointExtension>
        </extensions>
      </trkpt>
      <trkpt lat="-22.065432183444499969482421875" lon="166.44696414470672607421875">
        <ele>896.20001220703125</ele>
        <time>2016-08-12T22:19:20.000Z</time>
        <extensions>
          <ns3:TrackPointExtension>
            <ns3:atemp>18.0</ns3:atemp>
            <ns3:hr>137</ns3:hr>
          </ns3:TrackPointExtension>
        </extensions>
      </trkpt>
      <trkpt lat="-22.065453641116619110107421875" lon="166.4469428546726703643798828125">
        <ele>896.79998779296875</ele>
        <time>2016-08-12T22:19:21.000Z</time>
        <extensions>
          <ns3:TrackPointExtension>
            <ns3:atemp>18.0</ns3:atemp>
            <ns3:hr>138</ns3:hr>
          </ns3:TrackPointExtension>
        </extensions>
      </trkpt>
      <trkpt lat="-22.06547166220843791961669921875" lon="166.4469197206199169158935546875">
        <ele>896.79998779296875</ele>
        <time>2016-08-12T22:19:22.000Z</time>
        <extensions>
          <ns3:TrackPointExtension>
            <ns3:atemp>18.0</ns3:atemp>
            <ns3:hr>138</ns3:hr>
          </ns3:TrackPointExtension>
        </extensions>
      </trkpt>
      <trkpt lat="-22.0654906891286373138427734375" lon="166.44689331762492656707763671875">
        <ele>896.5999755859375</ele>
        <time>2016-08-12T22:19:23.000Z</time>
        <extensions>
          <ns3:TrackPointExtension>
            <ns3:atemp>18.0</ns3:atemp>
            <ns3:hr>137</ns3:hr>
          </ns3:TrackPointExtension>
        </extensions>
      </trkpt>
      <trkpt lat="-22.06550871022045612335205078125" lon="166.44687018357217311859130859375">
        <ele>897.20001220703125</ele>
        <time>2016-08-12T22:19:24.000Z</time>
        <extensions>
          <ns3:TrackPointExtension>
            <ns3:atemp>18.0</ns3:atemp>
            <ns3:hr>138</ns3:hr>
          </ns3:TrackPointExtension>
        </extensions>
      </trkpt>
      <trkpt lat="-22.065530754625797271728515625" lon="166.44685023464262485504150390625">
        <ele>897.20001220703125</ele>
        <time>2016-08-12T22:19:25.000Z</time>
        <extensions>
          <ns3:TrackPointExtension>
            <ns3:atemp>18.0</ns3:atemp>
            <ns3:hr>137</ns3:hr>
          </ns3:TrackPointExtension>
        </extensions>
      </trkpt>
      <trkpt lat="-22.06555330194532871246337890625" lon="166.44683162681758403778076171875">
        <ele>896.79998779296875</ele>
        <time>2016-08-12T22:19:26.000Z</time>
        <extensions>
          <ns3:TrackPointExtension>
            <ns3:atemp>18.0</ns3:atemp>
            <ns3:hr>138</ns3:hr>
          </ns3:TrackPointExtension>
        </extensions>
      </trkpt>
      <trkpt lat="-22.0655691437423229217529296875" lon="166.44681184552609920501708984375">
        <ele>896.5999755859375</ele>
        <time>2016-08-12T22:19:27.000Z</time>
        <extensions>
          <ns3:TrackPointExtension>
            <ns3:atemp>18.0</ns3:atemp>
            <ns3:hr>138</ns3:hr>
          </ns3:TrackPointExtension>
        </extensions>
      </trkpt>
      <trkpt lat="-22.0655872486531734466552734375" lon="166.4467936567962169647216796875">
        <ele>897</ele>
        <time>2016-08-12T22:19:28.000Z</time>
        <extensions>
          <ns3:TrackPointExtension>
            <ns3:atemp>18.0</ns3:atemp>
            <ns3:hr>137</ns3:hr>
          </ns3:TrackPointExtension>
        </extensions>
      </trkpt>
      <trkpt lat="-22.06560275517404079437255859375" lon="166.44677747972309589385986328125">
        <ele>897.20001220703125</ele>
        <time>2016-08-12T22:19:29.000Z</time>
        <extensions>
          <ns3:TrackPointExtension>
            <ns3:atemp>18.0</ns3:atemp>
            <ns3:hr>138</ns3:hr>
          </ns3:TrackPointExtension>
        </extensions>
      </trkpt>
      <trkpt lat="-22.0656204409897327423095703125" lon="166.44676591269671916961669921875">
        <ele>896.79998779296875</ele>
        <time>2016-08-12T22:19:30.000Z</time>
        <extensions>
          <ns3:TrackPointExtension>
            <ns3:atemp>18.0</ns3:atemp>
            <ns3:hr>137</ns3:hr>
          </ns3:TrackPointExtension>
        </extensions>
      </trkpt>
      <trkpt lat="-22.065639384090900421142578125" lon="166.44675803370773792266845703125">
        <ele>896.79998779296875</ele>
        <time>2016-08-12T22:19:31.000Z</time>
        <extensions>
          <ns3:TrackPointExtension>
            <ns3:atemp>18.0</ns3:atemp>
            <ns3:hr>137</ns3:hr>
          </ns3:TrackPointExtension>
        </extensions>
      </trkpt>
      <trkpt lat="-22.06565472297370433807373046875" lon="166.44675166346132755279541015625">
        <ele>897</ele>
        <time>2016-08-12T22:19:32.000Z</time>
        <extensions>
          <ns3:TrackPointExtension>
            <ns3:atemp>18.0</ns3:atemp>
            <ns3:hr>137</ns3:hr>
          </ns3:TrackPointExtension>
        </extensions>
      </trkpt>
      <trkpt lat="-22.06567014567553997039794921875" lon="166.4467483945190906524658203125">
        <ele>897.20001220703125</ele>
        <time>2016-08-12T22:19:33.000Z</time>
        <extensions>
          <ns3:TrackPointExtension>
            <ns3:atemp>18.0</ns3:atemp>
            <ns3:hr>137</ns3:hr>
          </ns3:TrackPointExtension>
        </extensions>
      </trkpt>
      <trkpt lat="-22.06568791531026363372802734375" lon="166.44674680195748805999755859375">
        <ele>896.79998779296875</ele>
        <time>2016-08-12T22:19:34.000Z</time>
        <extensions>
          <ns3:TrackPointExtension>
            <ns3:atemp>18.0</ns3:atemp>
            <ns3:hr>137</ns3:hr>
          </ns3:TrackPointExtension>
        </extensions>
      </trkpt>
      <trkpt lat="-22.065704762935638427734375" lon="166.44674529321491718292236328125">
        <ele>896.5999755859375</ele>
        <time>2016-08-12T22:19:35.000Z</time>
        <extensions>
          <ns3:TrackPointExtension>
            <ns3:atemp>18.0</ns3:atemp>
            <ns3:hr>137</ns3:hr>
          </ns3:TrackPointExtension>
        </extensions>
      </trkpt>
      <trkpt lat="-22.06572555005550384521484375" lon="166.44674998708069324493408203125">
        <ele>896.79998779296875</ele>
        <time>2016-08-12T22:19:36.000Z</time>
        <extensions>
          <ns3:TrackPointExtension>
            <ns3:atemp>18.0</ns3:atemp>
            <ns3:hr>138</ns3:hr>
          </ns3:TrackPointExtension>
        </extensions>
      </trkpt>
      <trkpt lat="-22.0657444931566715240478515625" lon="166.44675753079354763031005859375">
        <ele>897</ele>
        <time>2016-08-12T22:19:37.000Z</time>
        <extensions>
          <ns3:TrackPointExtension>
            <ns3:atemp>18.0</ns3:atemp>
            <ns3:hr>138</ns3:hr>
          </ns3:TrackPointExtension>
        </extensions>
      </trkpt>
      <trkpt lat="-22.06576620228588581085205078125" lon="166.44677312113344669342041015625">
        <ele>897</ele>
        <time>2016-08-12T22:19:38.000Z</time>
        <extensions>
          <ns3:TrackPointExtension>
            <ns3:atemp>18.0</ns3:atemp>
            <ns3:hr>138</ns3:hr>
          </ns3:TrackPointExtension>
        </extensions>
      </trkpt>
      <trkpt lat="-22.0657887496054172515869140625" lon="166.4467884600162506103515625">
        <ele>897</ele>
        <time>2016-08-12T22:19:39.000Z</time>
        <extensions>
          <ns3:TrackPointExtension>
            <ns3:atemp>18.0</ns3:atemp>
            <ns3:hr>138</ns3:hr>
          </ns3:TrackPointExtension>
        </extensions>
      </trkpt>
      <trkpt lat="-22.06580693833529949188232421875" lon="166.44680279307067394256591796875">
        <ele>897</ele>
        <time>2016-08-12T22:19:40.000Z</time>
        <extensions>
          <ns3:TrackPointExtension>
            <ns3:atemp>18.0</ns3:atemp>
            <ns3:hr>138</ns3:hr>
          </ns3:TrackPointExtension>
        </extensions>
      </trkpt>
      <trkpt lat="-22.06582546234130859375" lon="166.44681192934513092041015625">
        <ele>897</ele>
        <time>2016-08-12T22:19:41.000Z</time>
        <extensions>
          <ns3:TrackPointExtension>
            <ns3:atemp>18.0</ns3:atemp>
            <ns3:hr>138</ns3:hr>
          </ns3:TrackPointExtension>
        </extensions>
      </trkpt>
      <trkpt lat="-22.06584583036601543426513671875" lon="166.44681855104863643646240234375">
        <ele>896.79998779296875</ele>
        <time>2016-08-12T22:19:42.000Z</time>
        <extensions>
          <ns3:TrackPointExtension>
            <ns3:atemp>18.0</ns3:atemp>
            <ns3:hr>138</ns3:hr>
          </ns3:TrackPointExtension>
        </extensions>
      </trkpt>
      <trkpt lat="-22.065866030752658843994140625" lon="166.4468218199908733367919921875">
        <ele>897</ele>
        <time>2016-08-12T22:19:43.000Z</time>
        <extensions>
          <ns3:TrackPointExtension>
            <ns3:atemp>18.0</ns3:atemp>
            <ns3:hr>138</ns3:hr>
          </ns3:TrackPointExtension>
        </extensions>
      </trkpt>
      <trkpt lat="-22.06588639877736568450927734375" lon="166.446820311248302459716796875">
        <ele>897.4000244140625</ele>
        <time>2016-08-12T22:19:44.000Z</time>
        <extensions>
          <ns3:TrackPointExtension>
            <ns3:atemp>18.0</ns3:atemp>
            <ns3:hr>138</ns3:hr>
          </ns3:TrackPointExtension>
        </extensions>
      </trkpt>
      <trkpt lat="-22.06590768881142139434814453125" lon="166.44681737758219242095947265625">
        <ele>897.20001220703125</ele>
        <time>2016-08-12T22:19:45.000Z</time>
        <extensions>
          <ns3:TrackPointExtension>
            <ns3:atemp>18.0</ns3:atemp>
            <ns3:hr>139</ns3:hr>
          </ns3:TrackPointExtension>
        </extensions>
      </trkpt>
      <trkpt lat="-22.0659299008548259735107421875" lon="166.4468120969831943511962890625">
        <ele>896.4000244140625</ele>
        <time>2016-08-12T22:19:46.000Z</time>
        <extensions>
          <ns3:TrackPointExtension>
            <ns3:atemp>18.0</ns3:atemp>
            <ns3:hr>139</ns3:hr>
          </ns3:TrackPointExtension>
        </extensions>
      </trkpt>
      <trkpt lat="-22.06595219671726226806640625" lon="166.4468020386993885040283203125">
        <ele>896.5999755859375</ele>
        <time>2016-08-12T22:19:47.000Z</time>
        <extensions>
          <ns3:TrackPointExtension>
            <ns3:atemp>18.0</ns3:atemp>
            <ns3:hr>139</ns3:hr>
          </ns3:TrackPointExtension>
        </extensions>
      </trkpt>
      <trkpt lat="-22.0659728161990642547607421875" lon="166.44679172895848751068115234375">
        <ele>897.79998779296875</ele>
        <time>2016-08-12T22:19:48.000Z</time>
        <extensions>
          <ns3:TrackPointExtension>
            <ns3:atemp>18.0</ns3:atemp>
            <ns3:hr>139</ns3:hr>
          </ns3:TrackPointExtension>
        </extensions>
      </trkpt>
      <trkpt lat="-22.06599318422377109527587890625" lon="166.4467758871614933013916015625">
        <ele>898</ele>
        <time>2016-08-12T22:19:49.000Z</time>
        <extensions>
          <ns3:TrackPointExtension>
            <ns3:atemp>18.0</ns3:atemp>
            <ns3:hr>139</ns3:hr>
          </ns3:TrackPointExtension>
        </extensions>
      </trkpt>
      <trkpt lat="-22.066010534763336181640625" lon="166.44676356576383113861083984375">
        <ele>896.5999755859375</ele>
        <time>2016-08-12T22:19:50.000Z</time>
        <extensions>
          <ns3:TrackPointExtension>
            <ns3:atemp>18.0</ns3:atemp>
            <ns3:hr>138</ns3:hr>
          </ns3:TrackPointExtension>
        </extensions>
      </trkpt>
      <trkpt lat="-22.0660306513309478759765625" lon="166.446749903261661529541015625">
        <ele>896.20001220703125</ele>
        <time>2016-08-12T22:19:51.000Z</time>
        <extensions>
          <ns3:TrackPointExtension>
            <ns3:atemp>18.0</ns3:atemp>
            <ns3:hr>139</ns3:hr>
          </ns3:TrackPointExtension>
        </extensions>
      </trkpt>
      <trkpt lat="-22.06605319865047931671142578125" lon="166.44674085080623626708984375">
        <ele>897</ele>
        <time>2016-08-12T22:19:52.000Z</time>
        <extensions>
          <ns3:TrackPointExtension>
            <ns3:atemp>18.0</ns3:atemp>
            <ns3:hr>138</ns3:hr>
          </ns3:TrackPointExtension>
        </extensions>
      </trkpt>
      <trkpt lat="-22.06607113592326641082763671875" lon="166.4467289485037326812744140625">
        <ele>897.4000244140625</ele>
        <time>2016-08-12T22:19:53.000Z</time>
        <extensions>
          <ns3:TrackPointExtension>
            <ns3:atemp>18.0</ns3:atemp>
            <ns3:hr>139</ns3:hr>
          </ns3:TrackPointExtension>
        </extensions>
      </trkpt>
      <trkpt lat="-22.0660945214331150054931640625" lon="166.44671880640089511871337890625">
        <ele>896.79998779296875</ele>
        <time>2016-08-12T22:19:54.000Z</time>
        <extensions>
          <ns3:TrackPointExtension>
            <ns3:atemp>18.0</ns3:atemp>
            <ns3:hr>138</ns3:hr>
          </ns3:TrackPointExtension>
        </extensions>
      </trkpt>
      <trkpt lat="-22.06611706875264644622802734375" lon="166.4467121846973896026611328125">
        <ele>896.20001220703125</ele>
        <time>2016-08-12T22:19:55.000Z</time>
        <extensions>
          <ns3:TrackPointExtension>
            <ns3:atemp>18.0</ns3:atemp>
            <ns3:hr>138</ns3:hr>
          </ns3:TrackPointExtension>
        </extensions>
      </trkpt>
      <trkpt lat="-22.066139616072177886962890625" lon="166.4467044733464717864990234375">
        <ele>896.79998779296875</ele>
        <time>2016-08-12T22:19:56.000Z</time>
        <extensions>
          <ns3:TrackPointExtension>
            <ns3:atemp>18.0</ns3:atemp>
            <ns3:hr>138</ns3:hr>
          </ns3:TrackPointExtension>
        </extensions>
      </trkpt>
      <trkpt lat="-22.0661612413823604583740234375" lon="166.4466960914433002471923828125">
        <ele>897.79998779296875</ele>
        <time>2016-08-12T22:19:57.000Z</time>
        <extensions>
          <ns3:TrackPointExtension>
            <ns3:atemp>18.0</ns3:atemp>
            <ns3:hr>138</ns3:hr>
          </ns3:TrackPointExtension>
        </extensions>
      </trkpt>
      <trkpt lat="-22.06618211232125759124755859375" lon="166.44668946973979473114013671875">
        <ele>897.4000244140625</ele>
        <time>2016-08-12T22:19:58.000Z</time>
        <extensions>
          <ns3:TrackPointExtension>
            <ns3:atemp>18.0</ns3:atemp>
            <ns3:hr>138</ns3:hr>
          </ns3:TrackPointExtension>
        </extensions>
      </trkpt>
      <trkpt lat="-22.06620574928820133209228515625" lon="166.44668427295982837677001953125">
        <ele>896.5999755859375</ele>
        <time>2016-08-12T22:19:59.000Z</time>
        <extensions>
          <ns3:TrackPointExtension>
            <ns3:atemp>18.0</ns3:atemp>
            <ns3:hr>138</ns3:hr>
          </ns3:TrackPointExtension>
        </extensions>
      </trkpt>
      <trkpt lat="-22.06622720696032047271728515625" lon="166.44667957909405231475830078125">
        <ele>897</ele>
        <time>2016-08-12T22:20:00.000Z</time>
        <extensions>
          <ns3:TrackPointExtension>
            <ns3:atemp>18.0</ns3:atemp>
            <ns3:hr>138</ns3:hr>
          </ns3:TrackPointExtension>
        </extensions>
      </trkpt>
      <trkpt lat="-22.0662457309663295745849609375" lon="166.44667002372443675994873046875">
        <ele>898</ele>
        <time>2016-08-12T22:20:01.000Z</time>
        <extensions>
          <ns3:TrackPointExtension>
            <ns3:atemp>18.0</ns3:atemp>
            <ns3:hr>138</ns3:hr>
          </ns3:TrackPointExtension>
        </extensions>
      </trkpt>
      <trkpt lat="-22.06626794300973415374755859375" lon="166.446663402020931243896484375">
        <ele>898</ele>
        <time>2016-08-12T22:20:02.000Z</time>
        <extensions>
          <ns3:TrackPointExtension>
            <ns3:atemp>18.0</ns3:atemp>
            <ns3:hr>138</ns3:hr>
          </ns3:TrackPointExtension>
        </extensions>
      </trkpt>
      <trkpt lat="-22.06628906540572643280029296875" lon="166.44665895961225032806396484375">
        <ele>897.20001220703125</ele>
        <time>2016-08-12T22:20:03.000Z</time>
        <extensions>
          <ns3:TrackPointExtension>
            <ns3:atemp>18.0</ns3:atemp>
            <ns3:hr>138</ns3:hr>
          </ns3:TrackPointExtension>
        </extensions>
      </trkpt>
      <trkpt lat="-22.06631236709654331207275390625" lon="166.446656025946140289306640625">
        <ele>897.20001220703125</ele>
        <time>2016-08-12T22:20:04.000Z</time>
        <extensions>
          <ns3:TrackPointExtension>
            <ns3:atemp>18.0</ns3:atemp>
            <ns3:hr>138</ns3:hr>
          </ns3:TrackPointExtension>
        </extensions>
      </trkpt>
      <trkpt lat="-22.0663352496922016143798828125" lon="166.44665124826133251190185546875">
        <ele>898</ele>
        <time>2016-08-12T22:20:05.000Z</time>
        <extensions>
          <ns3:TrackPointExtension>
            <ns3:atemp>18.0</ns3:atemp>
            <ns3:hr>138</ns3:hr>
          </ns3:TrackPointExtension>
        </extensions>
      </trkpt>
      <trkpt lat="-22.06635679118335247039794921875" lon="166.44664303399622440338134765625">
        <ele>898</ele>
        <time>2016-08-12T22:20:06.000Z</time>
        <extensions>
          <ns3:TrackPointExtension>
            <ns3:atemp>18.0</ns3:atemp>
            <ns3:hr>138</ns3:hr>
          </ns3:TrackPointExtension>
        </extensions>
      </trkpt>
      <trkpt lat="-22.0663778297603130340576171875" lon="166.4466369152069091796875">
        <ele>897.4000244140625</ele>
        <time>2016-08-12T22:20:07.000Z</time>
        <extensions>
          <ns3:TrackPointExtension>
            <ns3:atemp>18.0</ns3:atemp>
            <ns3:hr>138</ns3:hr>
          </ns3:TrackPointExtension>
        </extensions>
      </trkpt>
      <trkpt lat="-22.06639719195663928985595703125" lon="166.44663834013044834136962890625">
        <ele>897.20001220703125</ele>
        <time>2016-08-12T22:20:08.000Z</time>
        <extensions>
          <ns3:TrackPointExtension>
            <ns3:atemp>18.0</ns3:atemp>
            <ns3:hr>138</ns3:hr>
          </ns3:TrackPointExtension>
        </extensions>
      </trkpt>
      <trkpt lat="-22.066416554152965545654296875" lon="166.44663901068270206451416015625">
        <ele>898.4000244140625</ele>
        <time>2016-08-12T22:20:09.000Z</time>
        <extensions>
          <ns3:TrackPointExtension>
            <ns3:atemp>18.0</ns3:atemp>
            <ns3:hr>138</ns3:hr>
          </ns3:TrackPointExtension>
        </extensions>
      </trkpt>
      <trkpt lat="-22.0664358325302600860595703125" lon="166.44664336927235126495361328125">
        <ele>898.4000244140625</ele>
        <time>2016-08-12T22:20:10.000Z</time>
        <extensions>
          <ns3:TrackPointExtension>
            <ns3:atemp>18.0</ns3:atemp>
            <ns3:hr>138</ns3:hr>
          </ns3:TrackPointExtension>
        </extensions>
      </trkpt>
      <trkpt lat="-22.066451422870159149169921875" lon="166.4466488175094127655029296875">
        <ele>897.5999755859375</ele>
        <time>2016-08-12T22:20:11.000Z</time>
        <extensions>
          <ns3:TrackPointExtension>
            <ns3:atemp>18.0</ns3:atemp>
            <ns3:hr>138</ns3:hr>
          </ns3:TrackPointExtension>
        </extensions>
      </trkpt>
      <trkpt lat="-22.06646977923810482025146484375" lon="166.44665594212710857391357421875">
        <ele>897.20001220703125</ele>
        <time>2016-08-12T22:20:12.000Z</time>
        <extensions>
          <ns3:TrackPointExtension>
            <ns3:atemp>18.0</ns3:atemp>
            <ns3:hr>138</ns3:hr>
          </ns3:TrackPointExtension>
        </extensions>
      </trkpt>
      <trkpt lat="-22.0664866268634796142578125" lon="166.44666248001158237457275390625">
        <ele>898.20001220703125</ele>
        <time>2016-08-12T22:20:13.000Z</time>
        <extensions>
          <ns3:TrackPointExtension>
            <ns3:atemp>18.0</ns3:atemp>
            <ns3:hr>138</ns3:hr>
          </ns3:TrackPointExtension>
        </extensions>
      </trkpt>
      <trkpt lat="-22.06650682725012302398681640625" lon="166.44666834734380245208740234375">
        <ele>899</ele>
        <time>2016-08-12T22:20:14.000Z</time>
        <extensions>
          <ns3:TrackPointExtension>
            <ns3:atemp>18.0</ns3:atemp>
            <ns3:hr>138</ns3:hr>
          </ns3:TrackPointExtension>
        </extensions>
      </trkpt>
      <trkpt lat="-22.06652375869452953338623046875" lon="166.4466712810099124908447265625">
        <ele>898.79998779296875</ele>
        <time>2016-08-12T22:20:15.000Z</time>
        <extensions>
          <ns3:TrackPointExtension>
            <ns3:atemp>18.0</ns3:atemp>
            <ns3:hr>138</ns3:hr>
          </ns3:TrackPointExtension>
        </extensions>
      </trkpt>
      <trkpt lat="-22.06654421053826808929443359375" lon="166.446670107543468475341796875">
        <ele>898.79998779296875</ele>
        <time>2016-08-12T22:20:16.000Z</time>
        <extensions>
          <ns3:TrackPointExtension>
            <ns3:atemp>18.0</ns3:atemp>
            <ns3:hr>138</ns3:hr>
          </ns3:TrackPointExtension>
        </extensions>
      </trkpt>
      <trkpt lat="-22.066574804484844207763671875" lon="166.44666717387735843658447265625">
        <ele>899.20001220703125</ele>
        <time>2016-08-12T22:20:17.000Z</time>
        <extensions>
          <ns3:TrackPointExtension>
            <ns3:atemp>18.0</ns3:atemp>
            <ns3:hr>138</ns3:hr>
          </ns3:TrackPointExtension>
        </extensions>
      </trkpt>
      <trkpt lat="-22.0666128583252429962158203125" lon="166.44665359519422054290771484375">
        <ele>899.79998779296875</ele>
        <time>2016-08-12T22:20:18.000Z</time>
        <extensions>
          <ns3:TrackPointExtension>
            <ns3:atemp>18.0</ns3:atemp>
            <ns3:hr>138</ns3:hr>
          </ns3:TrackPointExtension>
        </extensions>
      </trkpt>
      <trkpt lat="-22.0666440390050411224365234375" lon="166.44664160907268524169921875">
        <ele>899.4000244140625</ele>
        <time>2016-08-12T22:20:19.000Z</time>
        <extensions>
          <ns3:TrackPointExtension>
            <ns3:atemp>18.0</ns3:atemp>
            <ns3:hr>138</ns3:hr>
          </ns3:TrackPointExtension>
        </extensions>
      </trkpt>
      <trkpt lat="-22.06667010672390460968017578125" lon="166.446631886065006256103515625">
        <ele>898.79998779296875</ele>
        <time>2016-08-12T22:20:20.000Z</time>
        <extensions>
          <ns3:TrackPointExtension>
            <ns3:atemp>18.0</ns3:atemp>
            <ns3:hr>138</ns3:hr>
          </ns3:TrackPointExtension>
        </extensions>
      </trkpt>
      <trkpt lat="-22.0666970126330852508544921875" lon="166.44662140868604183197021484375">
        <ele>898.5999755859375</ele>
        <time>2016-08-12T22:20:21.000Z</time>
        <extensions>
          <ns3:TrackPointExtension>
            <ns3:atemp>18.0</ns3:atemp>
            <ns3:hr>138</ns3:hr>
          </ns3:TrackPointExtension>
        </extensions>
      </trkpt>
      <trkpt lat="-22.06671989522874355316162109375" lon="166.44661084748804569244384765625">
        <ele>899</ele>
        <time>2016-08-12T22:20:22.000Z</time>
        <extensions>
          <ns3:TrackPointExtension>
            <ns3:atemp>18.0</ns3:atemp>
            <ns3:hr>138</ns3:hr>
          </ns3:TrackPointExtension>
        </extensions>
      </trkpt>
      <trkpt lat="-22.0667414367198944091796875" lon="166.44659827463328838348388671875">
        <ele>899.5999755859375</ele>
        <time>2016-08-12T22:20:23.000Z</time>
        <extensions>
          <ns3:TrackPointExtension>
            <ns3:atemp>18.0</ns3:atemp>
            <ns3:hr>138</ns3:hr>
          </ns3:TrackPointExtension>
        </extensions>
      </trkpt>
      <trkpt lat="-22.06676616333425045013427734375" lon="166.446581594645977020263671875">
        <ele>899.20001220703125</ele>
        <time>2016-08-12T22:20:24.000Z</time>
        <extensions>
          <ns3:TrackPointExtension>
            <ns3:atemp>18.0</ns3:atemp>
            <ns3:hr>138</ns3:hr>
          </ns3:TrackPointExtension>
        </extensions>
      </trkpt>
      <trkpt lat="-22.0667878724634647369384765625" lon="166.44656776450574398040771484375">
        <ele>898.5999755859375</ele>
        <time>2016-08-12T22:20:25.000Z</time>
        <extensions>
          <ns3:TrackPointExtension>
            <ns3:atemp>18.0</ns3:atemp>
            <ns3:hr>138</ns3:hr>
          </ns3:TrackPointExtension>
        </extensions>
      </trkpt>
      <trkpt lat="-22.066814191639423370361328125" lon="166.44655955024063587188720703125">
        <ele>899</ele>
        <time>2016-08-12T22:20:26.000Z</time>
        <extensions>
          <ns3:TrackPointExtension>
            <ns3:atemp>18.0</ns3:atemp>
            <ns3:hr>139</ns3:hr>
          </ns3:TrackPointExtension>
        </extensions>
      </trkpt>
      <trkpt lat="-22.0668418519198894500732421875" lon="166.44654412753880023956298828125">
        <ele>899.79998779296875</ele>
        <time>2016-08-12T22:20:27.000Z</time>
        <extensions>
          <ns3:TrackPointExtension>
            <ns3:atemp>18.0</ns3:atemp>
            <ns3:hr>139</ns3:hr>
          </ns3:TrackPointExtension>
        </extensions>
      </trkpt>
      <trkpt lat="-22.0668649859726428985595703125" lon="166.44653071649372577667236328125">
        <ele>899.5999755859375</ele>
        <time>2016-08-12T22:20:28.000Z</time>
        <extensions>
          <ns3:TrackPointExtension>
            <ns3:atemp>18.0</ns3:atemp>
            <ns3:hr>139</ns3:hr>
          </ns3:TrackPointExtension>
        </extensions>
      </trkpt>
      <trkpt lat="-22.066887281835079193115234375" lon="166.44651881419122219085693359375">
        <ele>899.5999755859375</ele>
        <time>2016-08-12T22:20:29.000Z</time>
        <extensions>
          <ns3:TrackPointExtension>
            <ns3:atemp>18.0</ns3:atemp>
            <ns3:hr>139</ns3:hr>
          </ns3:TrackPointExtension>
        </extensions>
      </trkpt>
      <trkpt lat="-22.0669105835258960723876953125" lon="166.44650640897452831268310546875">
        <ele>899.79998779296875</ele>
        <time>2016-08-12T22:20:30.000Z</time>
        <extensions>
          <ns3:TrackPointExtension>
            <ns3:atemp>18.0</ns3:atemp>
            <ns3:hr>139</ns3:hr>
          </ns3:TrackPointExtension>
        </extensions>
      </trkpt>
      <trkpt lat="-22.06692986190319061279296875" lon="166.4464939199388027191162109375">
        <ele>899.5999755859375</ele>
        <time>2016-08-12T22:20:31.000Z</time>
        <extensions>
          <ns3:TrackPointExtension>
            <ns3:atemp>18.0</ns3:atemp>
            <ns3:hr>139</ns3:hr>
          </ns3:TrackPointExtension>
        </extensions>
      </trkpt>
      <trkpt lat="-22.0669524930417537689208984375" lon="166.44649266265332698822021484375">
        <ele>899.5999755859375</ele>
        <time>2016-08-12T22:20:32.000Z</time>
        <extensions>
          <ns3:TrackPointExtension>
            <ns3:atemp>18.0</ns3:atemp>
            <ns3:hr>139</ns3:hr>
          </ns3:TrackPointExtension>
        </extensions>
      </trkpt>
      <trkpt lat="-22.066975794732570648193359375" lon="166.4464919082820415496826171875">
        <ele>900</ele>
        <time>2016-08-12T22:20:33.000Z</time>
        <extensions>
          <ns3:TrackPointExtension>
            <ns3:atemp>18.0</ns3:atemp>
            <ns3:hr>139</ns3:hr>
          </ns3:TrackPointExtension>
        </extensions>
      </trkpt>
      <trkpt lat="-22.0670024491846561431884765625" lon="166.4465009607374668121337890625">
        <ele>899.79998779296875</ele>
        <time>2016-08-12T22:20:34.000Z</time>
        <extensions>
          <ns3:TrackPointExtension>
            <ns3:atemp>18.0</ns3:atemp>
            <ns3:hr>139</ns3:hr>
          </ns3:TrackPointExtension>
        </extensions>
      </trkpt>
      <trkpt lat="-22.067026086151599884033203125" lon="166.446502469480037689208984375">
        <ele>899.4000244140625</ele>
        <time>2016-08-12T22:20:35.000Z</time>
        <extensions>
          <ns3:TrackPointExtension>
            <ns3:atemp>18.0</ns3:atemp>
            <ns3:hr>139</ns3:hr>
          </ns3:TrackPointExtension>
        </extensions>
      </trkpt>
      <trkpt lat="-22.0670510642230510711669921875" lon="166.44650272093713283538818359375">
        <ele>899</ele>
        <time>2016-08-12T22:20:36.000Z</time>
        <extensions>
          <ns3:TrackPointExtension>
            <ns3:atemp>18.0</ns3:atemp>
            <ns3:hr>139</ns3:hr>
          </ns3:TrackPointExtension>
        </extensions>
      </trkpt>
      <trkpt lat="-22.06707604229450225830078125" lon="166.44650137983262538909912109375">
        <ele>898.20001220703125</ele>
        <time>2016-08-12T22:20:37.000Z</time>
        <extensions>
          <ns3:TrackPointExtension>
            <ns3:atemp>18.0</ns3:atemp>
            <ns3:hr>139</ns3:hr>
          </ns3:TrackPointExtension>
        </extensions>
      </trkpt>
      <trkpt lat="-22.06710143946111202239990234375" lon="166.44650288857519626617431640625">
        <ele>898.20001220703125</ele>
        <time>2016-08-12T22:20:38.000Z</time>
        <extensions>
          <ns3:TrackPointExtension>
            <ns3:atemp>18.0</ns3:atemp>
            <ns3:hr>139</ns3:hr>
          </ns3:TrackPointExtension>
        </extensions>
      </trkpt>
      <trkpt lat="-22.06712340004742145538330078125" lon="166.446509175002574920654296875">
        <ele>898.20001220703125</ele>
        <time>2016-08-12T22:20:39.000Z</time>
        <extensions>
          <ns3:TrackPointExtension>
            <ns3:atemp>18.0</ns3:atemp>
            <ns3:hr>139</ns3:hr>
          </ns3:TrackPointExtension>
        </extensions>
      </trkpt>
      <trkpt lat="-22.0671466179192066192626953125" lon="166.44651152193546295166015625">
        <ele>898.20001220703125</ele>
        <time>2016-08-12T22:20:40.000Z</time>
        <extensions>
          <ns3:TrackPointExtension>
            <ns3:atemp>18.0</ns3:atemp>
            <ns3:hr>139</ns3:hr>
          </ns3:TrackPointExtension>
        </extensions>
      </trkpt>
      <trkpt lat="-22.06717084161937236785888671875" lon="166.44651931710541248321533203125">
        <ele>898</ele>
        <time>2016-08-12T22:20:41.000Z</time>
        <extensions>
          <ns3:TrackPointExtension>
            <ns3:atemp>18.0</ns3:atemp>
            <ns3:hr>139</ns3:hr>
          </ns3:TrackPointExtension>
        </extensions>
      </trkpt>
      <trkpt lat="-22.0671965740621089935302734375" lon="166.446526944637298583984375">
        <ele>897.79998779296875</ele>
        <time>2016-08-12T22:20:42.000Z</time>
        <extensions>
          <ns3:TrackPointExtension>
            <ns3:atemp>18.0</ns3:atemp>
            <ns3:hr>139</ns3:hr>
          </ns3:TrackPointExtension>
        </extensions>
      </trkpt>
      <trkpt lat="-22.0672254078090190887451171875" lon="166.44653356634080410003662109375">
        <ele>897.20001220703125</ele>
        <time>2016-08-12T22:20:43.000Z</time>
        <extensions>
          <ns3:TrackPointExtension>
            <ns3:atemp>18.0</ns3:atemp>
            <ns3:hr>140</ns3:hr>
          </ns3:TrackPointExtension>
        </extensions>
      </trkpt>
      <trkpt lat="-22.06725164316594600677490234375" lon="166.44654211588203907012939453125">
        <ele>897.4000244140625</ele>
        <time>2016-08-12T22:20:44.000Z</time>
        <extensions>
          <ns3:TrackPointExtension>
            <ns3:atemp>18.0</ns3:atemp>
            <ns3:hr>139</ns3:hr>
          </ns3:TrackPointExtension>
        </extensions>
      </trkpt>
      <trkpt lat="-22.06727863289415836334228515625" lon="166.4465529285371303558349609375">
        <ele>897.4000244140625</ele>
        <time>2016-08-12T22:20:45.000Z</time>
        <extensions>
          <ns3:TrackPointExtension>
            <ns3:atemp>18.0</ns3:atemp>
            <ns3:hr>139</ns3:hr>
          </ns3:TrackPointExtension>
        </extensions>
      </trkpt>
      <trkpt lat="-22.067308723926544189453125" lon="166.44656323827803134918212890625">
        <ele>897.20001220703125</ele>
        <time>2016-08-12T22:20:46.000Z</time>
        <extensions>
          <ns3:TrackPointExtension>
            <ns3:atemp>18.0</ns3:atemp>
            <ns3:hr>139</ns3:hr>
          </ns3:TrackPointExtension>
        </extensions>
      </trkpt>
      <trkpt lat="-22.0673407427966594696044921875" lon="166.446574218571186065673828125">
        <ele>897.20001220703125</ele>
        <time>2016-08-12T22:20:47.000Z</time>
        <extensions>
          <ns3:TrackPointExtension>
            <ns3:atemp>18.0</ns3:atemp>
            <ns3:hr>139</ns3:hr>
          </ns3:TrackPointExtension>
        </extensions>
      </trkpt>
      <trkpt lat="-22.06736949272453784942626953125" lon="166.44658528268337249755859375">
        <ele>897</ele>
        <time>2016-08-12T22:20:48.000Z</time>
        <extensions>
          <ns3:TrackPointExtension>
            <ns3:atemp>18.0</ns3:atemp>
            <ns3:hr>139</ns3:hr>
          </ns3:TrackPointExtension>
        </extensions>
      </trkpt>
      <trkpt lat="-22.06738675944507122039794921875" lon="166.4465961791574954986572265625">
        <ele>896.5999755859375</ele>
        <time>2016-08-12T22:20:49.000Z</time>
        <extensions>
          <ns3:TrackPointExtension>
            <ns3:atemp>18.0</ns3:atemp>
            <ns3:hr>139</ns3:hr>
          </ns3:TrackPointExtension>
        </extensions>
      </trkpt>
      <trkpt lat="-22.06740452907979488372802734375" lon="166.4466045610606670379638671875">
        <ele>896.79998779296875</ele>
        <time>2016-08-12T22:20:50.000Z</time>
        <extensions>
          <ns3:TrackPointExtension>
            <ns3:atemp>18.0</ns3:atemp>
            <ns3:hr>139</ns3:hr>
          </ns3:TrackPointExtension>
        </extensions>
      </trkpt>
      <trkpt lat="-22.06742615438997745513916015625" lon="166.44661151804029941558837890625">
        <ele>897.20001220703125</ele>
        <time>2016-08-12T22:20:51.000Z</time>
        <extensions>
          <ns3:TrackPointExtension>
            <ns3:atemp>18.0</ns3:atemp>
            <ns3:hr>138</ns3:hr>
          </ns3:TrackPointExtension>
        </extensions>
      </trkpt>
      <trkpt lat="-22.06744593568146228790283203125" lon="166.44661906175315380096435546875">
        <ele>897.20001220703125</ele>
        <time>2016-08-12T22:20:52.000Z</time>
        <extensions>
          <ns3:TrackPointExtension>
            <ns3:atemp>18.0</ns3:atemp>
            <ns3:hr>138</ns3:hr>
          </ns3:TrackPointExtension>
        </extensions>
      </trkpt>
      <trkpt lat="-22.0674691535532474517822265625" lon="166.44662844948470592498779296875">
        <ele>897.4000244140625</ele>
        <time>2016-08-12T22:20:53.000Z</time>
        <extensions>
          <ns3:TrackPointExtension>
            <ns3:atemp>18.0</ns3:atemp>
            <ns3:hr>138</ns3:hr>
          </ns3:TrackPointExtension>
        </extensions>
      </trkpt>
      <trkpt lat="-22.06748918630182743072509765625" lon="166.44664001651108264923095703125">
        <ele>897.79998779296875</ele>
        <time>2016-08-12T22:20:54.000Z</time>
        <extensions>
          <ns3:TrackPointExtension>
            <ns3:atemp>18.0</ns3:atemp>
            <ns3:hr>138</ns3:hr>
          </ns3:TrackPointExtension>
        </extensions>
      </trkpt>
      <trkpt lat="-22.06751047633588314056396484375" lon="166.44665108062326908111572265625">
        <ele>897</ele>
        <time>2016-08-12T22:20:55.000Z</time>
        <extensions>
          <ns3:TrackPointExtension>
            <ns3:atemp>18.0</ns3:atemp>
            <ns3:hr>138</ns3:hr>
          </ns3:TrackPointExtension>
        </extensions>
      </trkpt>
      <trkpt lat="-22.06752807833254337310791015625" lon="166.44666499458253383636474609375">
        <ele>897.20001220703125</ele>
        <time>2016-08-12T22:20:56.000Z</time>
        <extensions>
          <ns3:TrackPointExtension>
            <ns3:atemp>18.0</ns3:atemp>
            <ns3:hr>137</ns3:hr>
          </ns3:TrackPointExtension>
        </extensions>
      </trkpt>
      <trkpt lat="-22.0675489492714405059814453125" lon="166.44667379558086395263671875">
        <ele>897.4000244140625</ele>
        <time>2016-08-12T22:20:57.000Z</time>
        <extensions>
          <ns3:TrackPointExtension>
            <ns3:atemp>18.0</ns3:atemp>
            <ns3:hr>137</ns3:hr>
          </ns3:TrackPointExtension>
        </extensions>
      </trkpt>
      <trkpt lat="-22.0675710774958133697509765625" lon="166.44667807035148143768310546875">
        <ele>896.5999755859375</ele>
        <time>2016-08-12T22:20:58.000Z</time>
        <extensions>
          <ns3:TrackPointExtension>
            <ns3:atemp>18.0</ns3:atemp>
            <ns3:hr>137</ns3:hr>
          </ns3:TrackPointExtension>
        </extensions>
      </trkpt>
      <trkpt lat="-22.06759597174823284149169921875" lon="166.4466853626072406768798828125">
        <ele>896.20001220703125</ele>
        <time>2016-08-12T22:20:59.000Z</time>
        <extensions>
          <ns3:TrackPointExtension>
            <ns3:atemp>18.0</ns3:atemp>
            <ns3:hr>137</ns3:hr>
          </ns3:TrackPointExtension>
        </extensions>
      </trkpt>
      <trkpt lat="-22.0676131546497344970703125" lon="166.44669986329972743988037109375">
        <ele>896.5999755859375</ele>
        <time>2016-08-12T22:21:00.000Z</time>
        <extensions>
          <ns3:TrackPointExtension>
            <ns3:atemp>18.0</ns3:atemp>
            <ns3:hr>136</ns3:hr>
          </ns3:TrackPointExtension>
        </extensions>
      </trkpt>
      <trkpt lat="-22.0676391385495662689208984375" lon="166.4467222429811954498291015625">
        <ele>897</ele>
        <time>2016-08-12T22:21:01.000Z</time>
        <extensions>
          <ns3:TrackPointExtension>
            <ns3:atemp>18.0</ns3:atemp>
            <ns3:hr>136</ns3:hr>
          </ns3:TrackPointExtension>
        </extensions>
      </trkpt>
      <trkpt lat="-22.0676652900874614715576171875" lon="166.44673506729304790496826171875">
        <ele>896.79998779296875</ele>
        <time>2016-08-12T22:21:02.000Z</time>
        <extensions>
          <ns3:TrackPointExtension>
            <ns3:atemp>18.0</ns3:atemp>
            <ns3:hr>136</ns3:hr>
          </ns3:TrackPointExtension>
        </extensions>
      </trkpt>
      <trkpt lat="-22.0676931180059909820556640625" lon="166.44674177281558513641357421875">
        <ele>896.79998779296875</ele>
        <time>2016-08-12T22:21:03.000Z</time>
        <extensions>
          <ns3:TrackPointExtension>
            <ns3:atemp>18.0</ns3:atemp>
            <ns3:hr>136</ns3:hr>
          </ns3:TrackPointExtension>
        </extensions>
      </trkpt>
      <trkpt lat="-22.0677150785923004150390625" lon="166.4467567764222621917724609375">
        <ele>896.4000244140625</ele>
        <time>2016-08-12T22:21:04.000Z</time>
        <extensions>
          <ns3:TrackPointExtension>
            <ns3:atemp>18.0</ns3:atemp>
            <ns3:hr>136</ns3:hr>
          </ns3:TrackPointExtension>
        </extensions>
      </trkpt>
      <trkpt lat="-22.067736200988292694091796875" lon="166.4467658288776874542236328125">
        <ele>895.5999755859375</ele>
        <time>2016-08-12T22:21:05.000Z</time>
        <extensions>
          <ns3:TrackPointExtension>
            <ns3:atemp>18.0</ns3:atemp>
            <ns3:hr>136</ns3:hr>
          </ns3:TrackPointExtension>
        </extensions>
      </trkpt>
      <trkpt lat="-22.06776143051683902740478515625" lon="166.4467688463628292083740234375">
        <ele>895.79998779296875</ele>
        <time>2016-08-12T22:21:06.000Z</time>
        <extensions>
          <ns3:TrackPointExtension>
            <ns3:atemp>18.0</ns3:atemp>
            <ns3:hr>135</ns3:hr>
          </ns3:TrackPointExtension>
        </extensions>
      </trkpt>
      <trkpt lat="-22.06778012216091156005859375" lon="166.4467799104750156402587890625">
        <ele>896.20001220703125</ele>
        <time>2016-08-12T22:21:07.000Z</time>
        <extensions>
          <ns3:TrackPointExtension>
            <ns3:atemp>18.0</ns3:atemp>
            <ns3:hr>135</ns3:hr>
          </ns3:TrackPointExtension>
        </extensions>
      </trkpt>
      <trkpt lat="-22.0678030885756015777587890625" lon="166.44678167067468166351318359375">
        <ele>896</ele>
        <time>2016-08-12T22:21:08.000Z</time>
        <extensions>
          <ns3:TrackPointExtension>
            <ns3:atemp>18.0</ns3:atemp>
            <ns3:hr>135</ns3:hr>
          </ns3:TrackPointExtension>
        </extensions>
      </trkpt>
      <trkpt lat="-22.06783954985439777374267578125" lon="166.4467752166092395782470703125">
        <ele>895.4000244140625</ele>
        <time>2016-08-12T22:21:09.000Z</time>
        <extensions>
          <ns3:TrackPointExtension>
            <ns3:atemp>18.0</ns3:atemp>
            <ns3:hr>135</ns3:hr>
          </ns3:TrackPointExtension>
        </extensions>
      </trkpt>
      <trkpt lat="-22.06786553375422954559326171875" lon="166.4467789046466350555419921875">
        <ele>895.79998779296875</ele>
        <time>2016-08-12T22:21:10.000Z</time>
        <extensions>
          <ns3:TrackPointExtension>
            <ns3:atemp>18.0</ns3:atemp>
            <ns3:hr>135</ns3:hr>
          </ns3:TrackPointExtension>
        </extensions>
      </trkpt>
      <trkpt lat="-22.06788875162601470947265625" lon="166.4467825926840305328369140625">
        <ele>895.79998779296875</ele>
        <time>2016-08-12T22:21:11.000Z</time>
        <extensions>
          <ns3:TrackPointExtension>
            <ns3:atemp>18.0</ns3:atemp>
            <ns3:hr>135</ns3:hr>
          </ns3:TrackPointExtension>
        </extensions>
      </trkpt>
      <trkpt lat="-22.06791448406875133514404296875" lon="166.44679105840623378753662109375">
        <ele>895.5999755859375</ele>
        <time>2016-08-12T22:21:12.000Z</time>
        <extensions>
          <ns3:TrackPointExtension>
            <ns3:atemp>18.0</ns3:atemp>
            <ns3:hr>134</ns3:hr>
          </ns3:TrackPointExtension>
        </extensions>
      </trkpt>
      <trkpt lat="-22.06793342716991901397705078125" lon="166.44680128432810306549072265625">
        <ele>896.5999755859375</ele>
        <time>2016-08-12T22:21:13.000Z</time>
        <extensions>
          <ns3:TrackPointExtension>
            <ns3:atemp>18.0</ns3:atemp>
            <ns3:hr>134</ns3:hr>
          </ns3:TrackPointExtension>
        </extensions>
      </trkpt>
      <trkpt lat="-22.06794683821499347686767578125" lon="166.44681637175381183624267578125">
        <ele>897</ele>
        <time>2016-08-12T22:21:14.000Z</time>
        <extensions>
          <ns3:TrackPointExtension>
            <ns3:atemp>18.0</ns3:atemp>
            <ns3:hr>134</ns3:hr>
          </ns3:TrackPointExtension>
        </extensions>
      </trkpt>
      <trkpt lat="-22.06797667779028415679931640625" lon="166.4468300342559814453125">
        <ele>896.79998779296875</ele>
        <time>2016-08-12T22:21:15.000Z</time>
        <extensions>
          <ns3:TrackPointExtension>
            <ns3:atemp>18.0</ns3:atemp>
            <ns3:hr>134</ns3:hr>
          </ns3:TrackPointExtension>
        </extensions>
      </trkpt>
      <trkpt lat="-22.06800618208944797515869140625" lon="166.44684084691107273101806640625">
        <ele>896.79998779296875</ele>
        <time>2016-08-12T22:21:16.000Z</time>
        <extensions>
          <ns3:TrackPointExtension>
            <ns3:atemp>18.0</ns3:atemp>
            <ns3:hr>134</ns3:hr>
          </ns3:TrackPointExtension>
        </extensions>
      </trkpt>
      <trkpt lat="-22.0680320821702480316162109375" lon="166.44685040228068828582763671875">
        <ele>896.79998779296875</ele>
        <time>2016-08-12T22:21:17.000Z</time>
        <extensions>
          <ns3:TrackPointExtension>
            <ns3:atemp>18.0</ns3:atemp>
            <ns3:hr>134</ns3:hr>
          </ns3:TrackPointExtension>
        </extensions>
      </trkpt>
      <trkpt lat="-22.0680568926036357879638671875" lon="166.44686180166900157928466796875">
        <ele>896.79998779296875</ele>
        <time>2016-08-12T22:21:18.000Z</time>
        <extensions>
          <ns3:TrackPointExtension>
            <ns3:atemp>18.0</ns3:atemp>
            <ns3:hr>134</ns3:hr>
          </ns3:TrackPointExtension>
        </extensions>
      </trkpt>
      <trkpt lat="-22.0680803619325160980224609375" lon="166.44687387160956859588623046875">
        <ele>897.20001220703125</ele>
        <time>2016-08-12T22:21:19.000Z</time>
        <extensions>
          <ns3:TrackPointExtension>
            <ns3:atemp>18.0</ns3:atemp>
            <ns3:hr>134</ns3:hr>
          </ns3:TrackPointExtension>
        </extensions>
      </trkpt>
      <trkpt lat="-22.06811145879328250885009765625" lon="166.44688024185597896575927734375">
        <ele>897</ele>
        <time>2016-08-12T22:21:20.000Z</time>
        <extensions>
          <ns3:TrackPointExtension>
            <ns3:atemp>18.0</ns3:atemp>
            <ns3:hr>134</ns3:hr>
          </ns3:TrackPointExtension>
        </extensions>
      </trkpt>
      <trkpt lat="-22.06814113073050975799560546875" lon="166.44688527099788188934326171875">
        <ele>896.79998779296875</ele>
        <time>2016-08-12T22:21:21.000Z</time>
        <extensions>
          <ns3:TrackPointExtension>
            <ns3:atemp>18.0</ns3:atemp>
            <ns3:hr>134</ns3:hr>
          </ns3:TrackPointExtension>
        </extensions>
      </trkpt>
      <trkpt lat="-22.06816661171615123748779296875" lon="166.44689231179654598236083984375">
        <ele>897</ele>
        <time>2016-08-12T22:21:22.000Z</time>
        <extensions>
          <ns3:TrackPointExtension>
            <ns3:atemp>18.0</ns3:atemp>
            <ns3:hr>134</ns3:hr>
          </ns3:TrackPointExtension>
        </extensions>
      </trkpt>
      <trkpt lat="-22.06819343380630016326904296875" lon="166.446900106966495513916015625">
        <ele>897.20001220703125</ele>
        <time>2016-08-12T22:21:23.000Z</time>
        <extensions>
          <ns3:TrackPointExtension>
            <ns3:atemp>18.0</ns3:atemp>
            <ns3:hr>134</ns3:hr>
          </ns3:TrackPointExtension>
        </extensions>
      </trkpt>
      <trkpt lat="-22.06822142936289310455322265625" lon="166.4469029568135738372802734375">
        <ele>897.5999755859375</ele>
        <time>2016-08-12T22:21:24.000Z</time>
        <extensions>
          <ns3:TrackPointExtension>
            <ns3:atemp>18.0</ns3:atemp>
            <ns3:hr>134</ns3:hr>
          </ns3:TrackPointExtension>
        </extensions>
      </trkpt>
      <trkpt lat="-22.0682568848133087158203125" lon="166.4469042979180812835693359375">
        <ele>897.5999755859375</ele>
        <time>2016-08-12T22:21:25.000Z</time>
        <extensions>
          <ns3:TrackPointExtension>
            <ns3:atemp>18.0</ns3:atemp>
            <ns3:hr>133</ns3:hr>
          </ns3:TrackPointExtension>
        </extensions>
      </trkpt>
      <trkpt lat="-22.06828697584569454193115234375" lon="166.44690287299454212188720703125">
        <ele>897.20001220703125</ele>
        <time>2016-08-12T22:21:26.000Z</time>
        <extensions>
          <ns3:TrackPointExtension>
            <ns3:atemp>18.0</ns3:atemp>
            <ns3:hr>133</ns3:hr>
          </ns3:TrackPointExtension>
        </extensions>
      </trkpt>
      <trkpt lat="-22.06831513904035091400146484375" lon="166.44690203480422496795654296875">
        <ele>897</ele>
        <time>2016-08-12T22:21:27.000Z</time>
        <extensions>
          <ns3:TrackPointExtension>
            <ns3:atemp>18.0</ns3:atemp>
            <ns3:hr>133</ns3:hr>
          </ns3:TrackPointExtension>
        </extensions>
      </trkpt>
      <trkpt lat="-22.06834313459694385528564453125" lon="166.44689977169036865234375">
        <ele>896.79998779296875</ele>
        <time>2016-08-12T22:21:28.000Z</time>
        <extensions>
          <ns3:TrackPointExtension>
            <ns3:atemp>18.0</ns3:atemp>
            <ns3:hr>133</ns3:hr>
          </ns3:TrackPointExtension>
        </extensions>
      </trkpt>
      <trkpt lat="-22.068369872868061065673828125" lon="166.4468989335000514984130859375">
        <ele>897</ele>
        <time>2016-08-12T22:21:29.000Z</time>
        <extensions>
          <ns3:TrackPointExtension>
            <ns3:atemp>18.0</ns3:atemp>
            <ns3:hr>133</ns3:hr>
          </ns3:TrackPointExtension>
        </extensions>
      </trkpt>
      <trkpt lat="-22.06840038299560546875" lon="166.44689432345330715179443359375">
        <ele>896.4000244140625</ele>
        <time>2016-08-12T22:21:30.000Z</time>
        <extensions>
          <ns3:TrackPointExtension>
            <ns3:atemp>18.0</ns3:atemp>
            <ns3:hr>133</ns3:hr>
          </ns3:TrackPointExtension>
        </extensions>
      </trkpt>
      <trkpt lat="-22.0684330724179744720458984375" lon="166.4468903839588165283203125">
        <ele>896</ele>
        <time>2016-08-12T22:21:31.000Z</time>
        <extensions>
          <ns3:TrackPointExtension>
            <ns3:atemp>18.0</ns3:atemp>
            <ns3:hr>133</ns3:hr>
          </ns3:TrackPointExtension>
        </extensions>
      </trkpt>
      <trkpt lat="-22.06845176406204700469970703125" lon="166.44689097069203853607177734375">
        <ele>895.79998779296875</ele>
        <time>2016-08-12T22:21:32.000Z</time>
        <extensions>
          <ns3:TrackPointExtension>
            <ns3:atemp>18.0</ns3:atemp>
            <ns3:hr>133</ns3:hr>
          </ns3:TrackPointExtension>
        </extensions>
      </trkpt>
      <trkpt lat="-22.06863038241863250732421875" lon="166.4468179643154144287109375">
        <ele>894.5999755859375</ele>
        <time>2016-08-12T22:21:40.000Z</time>
        <extensions>
          <ns3:TrackPointExtension>
            <ns3:atemp>18.0</ns3:atemp>
          </ns3:TrackPointExtension>
        </extensions>
      </trkpt>
      <trkpt lat="-22.06874496303498744964599609375" lon="166.4467804133892059326171875">
        <ele>895.5999755859375</ele>
        <time>2016-08-12T22:21:44.000Z</time>
        <extensions>
          <ns3:TrackPointExtension>
            <ns3:atemp>18.0</ns3:atemp>
            <ns3:hr>130</ns3:hr>
          </ns3:TrackPointExtension>
        </extensions>
      </trkpt>
      <trkpt lat="-22.068974040448665618896484375" lon="166.44676490686833858489990234375">
        <ele>894.5999755859375</ele>
        <time>2016-08-12T22:21:52.000Z</time>
        <extensions>
          <ns3:TrackPointExtension>
            <ns3:atemp>18.0</ns3:atemp>
            <ns3:hr>130</ns3:hr>
          </ns3:TrackPointExtension>
        </extensions>
      </trkpt>
      <trkpt lat="-22.069000191986560821533203125" lon="166.4467587880790233612060546875">
        <ele>894</ele>
        <time>2016-08-12T22:21:53.000Z</time>
        <extensions>
          <ns3:TrackPointExtension>
            <ns3:atemp>18.0</ns3:atemp>
            <ns3:hr>131</ns3:hr>
          </ns3:TrackPointExtension>
        </extensions>
      </trkpt>
      <trkpt lat="-22.0690345577895641326904296875" lon="166.44675618968904018402099609375">
        <ele>893.4000244140625</ele>
        <time>2016-08-12T22:21:54.000Z</time>
        <extensions>
          <ns3:TrackPointExtension>
            <ns3:atemp>18.0</ns3:atemp>
            <ns3:hr>131</ns3:hr>
          </ns3:TrackPointExtension>
        </extensions>
      </trkpt>
      <trkpt lat="-22.069061212241649627685546875" lon="166.44675317220389842987060546875">
        <ele>894</ele>
        <time>2016-08-12T22:21:55.000Z</time>
        <extensions>
          <ns3:TrackPointExtension>
            <ns3:atemp>18.0</ns3:atemp>
            <ns3:hr>132</ns3:hr>
          </ns3:TrackPointExtension>
        </extensions>
      </trkpt>
      <trkpt lat="-22.06909046508371829986572265625" lon="166.446751914918422698974609375">
        <ele>894.5999755859375</ele>
        <time>2016-08-12T22:21:56.000Z</time>
        <extensions>
          <ns3:TrackPointExtension>
            <ns3:atemp>18.0</ns3:atemp>
            <ns3:hr>132</ns3:hr>
          </ns3:TrackPointExtension>
        </extensions>
      </trkpt>
      <trkpt lat="-22.069116532802581787109375" lon="166.44674864597618579864501953125">
        <ele>894.20001220703125</ele>
        <time>2016-08-12T22:21:57.000Z</time>
        <extensions>
          <ns3:TrackPointExtension>
            <ns3:atemp>18.0</ns3:atemp>
            <ns3:hr>132</ns3:hr>
          </ns3:TrackPointExtension>
        </extensions>
      </trkpt>
      <trkpt lat="-22.06914042122662067413330078125" lon="166.4467460475862026214599609375">
        <ele>894.20001220703125</ele>
        <time>2016-08-12T22:21:58.000Z</time>
        <extensions>
          <ns3:TrackPointExtension>
            <ns3:atemp>18.0</ns3:atemp>
            <ns3:hr>132</ns3:hr>
          </ns3:TrackPointExtension>
        </extensions>
      </trkpt>
      <trkpt lat="-22.06916472874581813812255859375" lon="166.44674076698720455169677734375">
        <ele>894.79998779296875</ele>
        <time>2016-08-12T22:21:59.000Z</time>
        <extensions>
          <ns3:TrackPointExtension>
            <ns3:atemp>18.0</ns3:atemp>
            <ns3:hr>132</ns3:hr>
          </ns3:TrackPointExtension>
        </extensions>
      </trkpt>
      <trkpt lat="-22.06919121555984020233154296875" lon="166.44673439674079418182373046875">
        <ele>894.4000244140625</ele>
        <time>2016-08-12T22:22:00.000Z</time>
        <extensions>
          <ns3:TrackPointExtension>
            <ns3:atemp>18.0</ns3:atemp>
            <ns3:hr>132</ns3:hr>
          </ns3:TrackPointExtension>
        </extensions>
      </trkpt>
      <trkpt lat="-22.06921418197453022003173828125" lon="166.44672811031341552734375">
        <ele>893.79998779296875</ele>
        <time>2016-08-12T22:22:01.000Z</time>
        <extensions>
          <ns3:TrackPointExtension>
            <ns3:atemp>18.0</ns3:atemp>
            <ns3:hr>132</ns3:hr>
          </ns3:TrackPointExtension>
        </extensions>
      </trkpt>
      <trkpt lat="-22.06923781894147396087646484375" lon="166.44672350026667118072509765625">
        <ele>894.20001220703125</ele>
        <time>2016-08-12T22:22:02.000Z</time>
        <extensions>
          <ns3:TrackPointExtension>
            <ns3:atemp>18.0</ns3:atemp>
            <ns3:hr>133</ns3:hr>
          </ns3:TrackPointExtension>
        </extensions>
      </trkpt>
      <trkpt lat="-22.06926011480391025543212890625" lon="166.44672081805765628814697265625">
        <ele>893.5999755859375</ele>
        <time>2016-08-12T22:22:03.000Z</time>
        <extensions>
          <ns3:TrackPointExtension>
            <ns3:atemp>18.0</ns3:atemp>
            <ns3:hr>133</ns3:hr>
          </ns3:TrackPointExtension>
        </extensions>
      </trkpt>
      <trkpt lat="-22.069285176694393157958984375" lon="166.44671729765832424163818359375">
        <ele>893.4000244140625</ele>
        <time>2016-08-12T22:22:04.000Z</time>
        <extensions>
          <ns3:TrackPointExtension>
            <ns3:atemp>18.0</ns3:atemp>
            <ns3:hr>133</ns3:hr>
          </ns3:TrackPointExtension>
        </extensions>
      </trkpt>
      <trkpt lat="-22.0693071372807025909423828125" lon="166.44671025685966014862060546875">
        <ele>893.79998779296875</ele>
        <time>2016-08-12T22:22:05.000Z</time>
        <extensions>
          <ns3:TrackPointExtension>
            <ns3:atemp>18.0</ns3:atemp>
            <ns3:hr>133</ns3:hr>
          </ns3:TrackPointExtension>
        </extensions>
      </trkpt>
      <trkpt lat="-22.0693299360573291778564453125" lon="166.44670422188937664031982421875">
        <ele>894</ele>
        <time>2016-08-12T22:22:06.000Z</time>
        <extensions>
          <ns3:TrackPointExtension>
            <ns3:atemp>18.0</ns3:atemp>
            <ns3:hr>133</ns3:hr>
          </ns3:TrackPointExtension>
        </extensions>
      </trkpt>
      <trkpt lat="-22.06935483030974864959716796875" lon="166.4466950856149196624755859375">
        <ele>893.4000244140625</ele>
        <time>2016-08-12T22:22:07.000Z</time>
        <extensions>
          <ns3:TrackPointExtension>
            <ns3:atemp>18.0</ns3:atemp>
            <ns3:hr>134</ns3:hr>
          </ns3:TrackPointExtension>
        </extensions>
      </trkpt>
      <trkpt lat="-22.06938182003796100616455078125" lon="166.4466863684356212615966796875">
        <ele>893.79998779296875</ele>
        <time>2016-08-12T22:22:08.000Z</time>
        <extensions>
          <ns3:TrackPointExtension>
            <ns3:atemp>18.0</ns3:atemp>
            <ns3:hr>133</ns3:hr>
          </ns3:TrackPointExtension>
        </extensions>
      </trkpt>
      <trkpt lat="-22.06940746866166591644287109375" lon="166.446678824722766876220703125">
        <ele>894.4000244140625</ele>
        <time>2016-08-12T22:22:09.000Z</time>
        <extensions>
          <ns3:TrackPointExtension>
            <ns3:atemp>18.0</ns3:atemp>
            <ns3:hr>134</ns3:hr>
          </ns3:TrackPointExtension>
        </extensions>
      </trkpt>
      <trkpt lat="-22.0694348774850368499755859375" lon="166.44666440784931182861328125">
        <ele>894.20001220703125</ele>
        <time>2016-08-12T22:22:10.000Z</time>
        <extensions>
          <ns3:TrackPointExtension>
            <ns3:atemp>18.0</ns3:atemp>
            <ns3:hr>134</ns3:hr>
          </ns3:TrackPointExtension>
        </extensions>
      </trkpt>
      <trkpt lat="-22.0694616995751857757568359375" lon="166.4466511644423007965087890625">
        <ele>893.79998779296875</ele>
        <time>2016-08-12T22:22:11.000Z</time>
        <extensions>
          <ns3:TrackPointExtension>
            <ns3:atemp>18.0</ns3:atemp>
            <ns3:hr>134</ns3:hr>
          </ns3:TrackPointExtension>
        </extensions>
      </trkpt>
      <trkpt lat="-22.06948575563728809356689453125" lon="166.44663951359689235687255859375">
        <ele>893.79998779296875</ele>
        <time>2016-08-12T22:22:12.000Z</time>
        <extensions>
          <ns3:TrackPointExtension>
            <ns3:atemp>18.0</ns3:atemp>
            <ns3:hr>134</ns3:hr>
          </ns3:TrackPointExtension>
        </extensions>
      </trkpt>
      <trkpt lat="-22.0695096440613269805908203125" lon="166.4466280303895473480224609375">
        <ele>893.5999755859375</ele>
        <time>2016-08-12T22:22:13.000Z</time>
        <extensions>
          <ns3:TrackPointExtension>
            <ns3:atemp>18.0</ns3:atemp>
            <ns3:hr>134</ns3:hr>
          </ns3:TrackPointExtension>
        </extensions>
      </trkpt>
      <trkpt lat="-22.06953562796115875244140625" lon="166.4466173015534877777099609375">
        <ele>893.20001220703125</ele>
        <time>2016-08-12T22:22:14.000Z</time>
        <extensions>
          <ns3:TrackPointExtension>
            <ns3:atemp>18.0</ns3:atemp>
            <ns3:hr>134</ns3:hr>
          </ns3:TrackPointExtension>
        </extensions>
      </trkpt>
      <trkpt lat="-22.0695592649281024932861328125" lon="166.44660615362226963043212890625">
        <ele>893.79998779296875</ele>
        <time>2016-08-12T22:22:15.000Z</time>
        <extensions>
          <ns3:TrackPointExtension>
            <ns3:atemp>18.0</ns3:atemp>
            <ns3:hr>134</ns3:hr>
          </ns3:TrackPointExtension>
        </extensions>
      </trkpt>
      <trkpt lat="-22.06958197988569736480712890625" lon="166.446592994034290313720703125">
        <ele>894</ele>
        <time>2016-08-12T22:22:16.000Z</time>
        <extensions>
          <ns3:TrackPointExtension>
            <ns3:atemp>18.0</ns3:atemp>
            <ns3:hr>134</ns3:hr>
          </ns3:TrackPointExtension>
        </extensions>
      </trkpt>
      <trkpt lat="-22.069604694843292236328125" lon="166.446578241884708404541015625">
        <ele>893.79998779296875</ele>
        <time>2016-08-12T22:22:17.000Z</time>
        <extensions>
          <ns3:TrackPointExtension>
            <ns3:atemp>18.0</ns3:atemp>
            <ns3:hr>134</ns3:hr>
          </ns3:TrackPointExtension>
        </extensions>
      </trkpt>
      <trkpt lat="-22.06962590105831623077392578125" lon="166.44656055606901645660400390625">
        <ele>894.20001220703125</ele>
        <time>2016-08-12T22:22:18.000Z</time>
        <extensions>
          <ns3:TrackPointExtension>
            <ns3:atemp>18.0</ns3:atemp>
            <ns3:hr>133</ns3:hr>
          </ns3:TrackPointExtension>
        </extensions>
      </trkpt>
      <trkpt lat="-22.06964484415948390960693359375" lon="166.44654345698654651641845703125">
        <ele>894.4000244140625</ele>
        <time>2016-08-12T22:22:19.000Z</time>
        <extensions>
          <ns3:TrackPointExtension>
            <ns3:atemp>18.0</ns3:atemp>
            <ns3:hr>134</ns3:hr>
          </ns3:TrackPointExtension>
        </extensions>
      </trkpt>
      <trkpt lat="-22.0696618594229221343994140625" lon="166.4465267769992351531982421875">
        <ele>893.4000244140625</ele>
        <time>2016-08-12T22:22:20.000Z</time>
        <extensions>
          <ns3:TrackPointExtension>
            <ns3:atemp>18.0</ns3:atemp>
            <ns3:hr>134</ns3:hr>
          </ns3:TrackPointExtension>
        </extensions>
      </trkpt>
      <trkpt lat="-22.06968122161924839019775390625" lon="166.4465093426406383514404296875">
        <ele>893</ele>
        <time>2016-08-12T22:22:21.000Z</time>
        <extensions>
          <ns3:TrackPointExtension>
            <ns3:atemp>18.0</ns3:atemp>
            <ns3:hr>134</ns3:hr>
          </ns3:TrackPointExtension>
        </extensions>
      </trkpt>
      <trkpt lat="-22.0697017572820186614990234375" lon="166.44649366848170757293701171875">
        <ele>893</ele>
        <time>2016-08-12T22:22:22.000Z</time>
        <extensions>
          <ns3:TrackPointExtension>
            <ns3:atemp>18.0</ns3:atemp>
            <ns3:hr>133</ns3:hr>
          </ns3:TrackPointExtension>
        </extensions>
      </trkpt>
      <trkpt lat="-22.06972111947834491729736328125" lon="166.44648310728371143341064453125">
        <ele>893</ele>
        <time>2016-08-12T22:22:23.000Z</time>
        <extensions>
          <ns3:TrackPointExtension>
            <ns3:atemp>18.0</ns3:atemp>
            <ns3:hr>133</ns3:hr>
          </ns3:TrackPointExtension>
        </extensions>
      </trkpt>
      <trkpt lat="-22.06974324770271778106689453125" lon="166.44647397100925445556640625">
        <ele>892.79998779296875</ele>
        <time>2016-08-12T22:22:24.000Z</time>
        <extensions>
          <ns3:TrackPointExtension>
            <ns3:atemp>18.0</ns3:atemp>
            <ns3:hr>133</ns3:hr>
          </ns3:TrackPointExtension>
        </extensions>
      </trkpt>
      <trkpt lat="-22.0697657950222492218017578125" lon="166.44646349363029003143310546875">
        <ele>892.4000244140625</ele>
        <time>2016-08-12T22:22:25.000Z</time>
        <extensions>
          <ns3:TrackPointExtension>
            <ns3:atemp>18.0</ns3:atemp>
            <ns3:hr>133</ns3:hr>
          </ns3:TrackPointExtension>
        </extensions>
      </trkpt>
      <trkpt lat="-22.06978850997984409332275390625" lon="166.4464520104229450225830078125">
        <ele>891.79998779296875</ele>
        <time>2016-08-12T22:22:26.000Z</time>
        <extensions>
          <ns3:TrackPointExtension>
            <ns3:atemp>18.0</ns3:atemp>
            <ns3:hr>134</ns3:hr>
          </ns3:TrackPointExtension>
        </extensions>
      </trkpt>
      <trkpt lat="-22.06980921328067779541015625" lon="166.44644153304398059844970703125">
        <ele>892.20001220703125</ele>
        <time>2016-08-12T22:22:27.000Z</time>
        <extensions>
          <ns3:TrackPointExtension>
            <ns3:atemp>18.0</ns3:atemp>
            <ns3:hr>133</ns3:hr>
          </ns3:TrackPointExtension>
        </extensions>
      </trkpt>
      <trkpt lat="-22.0698311738669872283935546875" lon="166.446432061493396759033203125">
        <ele>892</ele>
        <time>2016-08-12T22:22:28.000Z</time>
        <extensions>
          <ns3:TrackPointExtension>
            <ns3:atemp>18.0</ns3:atemp>
            <ns3:hr>133</ns3:hr>
          </ns3:TrackPointExtension>
        </extensions>
      </trkpt>
      <trkpt lat="-22.06985355354845523834228515625" lon="166.4464258588850498199462890625">
        <ele>891.4000244140625</ele>
        <time>2016-08-12T22:22:29.000Z</time>
        <extensions>
          <ns3:TrackPointExtension>
            <ns3:atemp>18.0</ns3:atemp>
            <ns3:hr>133</ns3:hr>
          </ns3:TrackPointExtension>
        </extensions>
      </trkpt>
      <trkpt lat="-22.06987383775413036346435546875" lon="166.44641638733446598052978515625">
        <ele>890.79998779296875</ele>
        <time>2016-08-12T22:22:30.000Z</time>
        <extensions>
          <ns3:TrackPointExtension>
            <ns3:atemp>18.0</ns3:atemp>
            <ns3:hr>133</ns3:hr>
          </ns3:TrackPointExtension>
        </extensions>
      </trkpt>
      <trkpt lat="-22.06989227794110774993896484375" lon="166.44640247337520122528076171875">
        <ele>890.79998779296875</ele>
        <time>2016-08-12T22:22:31.000Z</time>
        <extensions>
          <ns3:TrackPointExtension>
            <ns3:atemp>18.0</ns3:atemp>
            <ns3:hr>133</ns3:hr>
          </ns3:TrackPointExtension>
        </extensions>
      </trkpt>
      <trkpt lat="-22.06991474144160747528076171875" lon="166.4463933371007442474365234375">
        <ele>891</ele>
        <time>2016-08-12T22:22:32.000Z</time>
        <extensions>
          <ns3:TrackPointExtension>
            <ns3:atemp>18.0</ns3:atemp>
            <ns3:hr>132</ns3:hr>
          </ns3:TrackPointExtension>
        </extensions>
      </trkpt>
      <trkpt lat="-22.06993552856147289276123046875" lon="166.44638755358755588531494140625">
        <ele>890.5999755859375</ele>
        <time>2016-08-12T22:22:33.000Z</time>
        <extensions>
          <ns3:TrackPointExtension>
            <ns3:atemp>18.0</ns3:atemp>
            <ns3:hr>132</ns3:hr>
          </ns3:TrackPointExtension>
        </extensions>
      </trkpt>
      <trkpt lat="-22.0699582435190677642822265625" lon="166.4463762380182743072509765625">
        <ele>890.79998779296875</ele>
        <time>2016-08-12T22:22:34.000Z</time>
        <extensions>
          <ns3:TrackPointExtension>
            <ns3:atemp>18.0</ns3:atemp>
            <ns3:hr>132</ns3:hr>
          </ns3:TrackPointExtension>
        </extensions>
      </trkpt>
      <trkpt lat="-22.06998280249536037445068359375" lon="166.4463646709918975830078125">
        <ele>890.5999755859375</ele>
        <time>2016-08-12T22:22:35.000Z</time>
        <extensions>
          <ns3:TrackPointExtension>
            <ns3:atemp>18.0</ns3:atemp>
            <ns3:hr>133</ns3:hr>
          </ns3:TrackPointExtension>
        </extensions>
      </trkpt>
      <trkpt lat="-22.070008032023906707763671875" lon="166.44635218195617198944091796875">
        <ele>890.20001220703125</ele>
        <time>2016-08-12T22:22:36.000Z</time>
        <extensions>
          <ns3:TrackPointExtension>
            <ns3:atemp>18.0</ns3:atemp>
            <ns3:hr>132</ns3:hr>
          </ns3:TrackPointExtension>
        </extensions>
      </trkpt>
      <trkpt lat="-22.0700303278863430023193359375" lon="166.44633592106401920318603515625">
        <ele>890.4000244140625</ele>
        <time>2016-08-12T22:22:37.000Z</time>
        <extensions>
          <ns3:TrackPointExtension>
            <ns3:atemp>18.0</ns3:atemp>
            <ns3:hr>133</ns3:hr>
          </ns3:TrackPointExtension>
        </extensions>
      </trkpt>
      <trkpt lat="-22.07005237229168415069580078125" lon="166.44632150419056415557861328125">
        <ele>889.5999755859375</ele>
        <time>2016-08-12T22:22:38.000Z</time>
        <extensions>
          <ns3:TrackPointExtension>
            <ns3:atemp>18.0</ns3:atemp>
            <ns3:hr>132</ns3:hr>
          </ns3:TrackPointExtension>
        </extensions>
      </trkpt>
      <trkpt lat="-22.070074416697025299072265625" lon="166.446309350430965423583984375">
        <ele>889.20001220703125</ele>
        <time>2016-08-12T22:22:39.000Z</time>
        <extensions>
          <ns3:TrackPointExtension>
            <ns3:atemp>18.0</ns3:atemp>
            <ns3:hr>132</ns3:hr>
          </ns3:TrackPointExtension>
        </extensions>
      </trkpt>
      <trkpt lat="-22.070099897682666778564453125" lon="166.446310020983219146728515625">
        <ele>889.20001220703125</ele>
        <time>2016-08-12T22:22:40.000Z</time>
        <extensions>
          <ns3:TrackPointExtension>
            <ns3:atemp>18.0</ns3:atemp>
            <ns3:hr>132</ns3:hr>
          </ns3:TrackPointExtension>
        </extensions>
      </trkpt>
      <trkpt lat="-22.07012210972607135772705078125" lon="166.44631647504866123199462890625">
        <ele>888.4000244140625</ele>
        <time>2016-08-12T22:22:41.000Z</time>
        <extensions>
          <ns3:TrackPointExtension>
            <ns3:atemp>18.0</ns3:atemp>
            <ns3:hr>133</ns3:hr>
          </ns3:TrackPointExtension>
        </extensions>
      </trkpt>
      <trkpt lat="-22.070141136646270751953125" lon="166.4463269524276256561279296875">
        <ele>888.20001220703125</ele>
        <time>2016-08-12T22:22:42.000Z</time>
        <extensions>
          <ns3:TrackPointExtension>
            <ns3:atemp>18.0</ns3:atemp>
            <ns3:hr>132</ns3:hr>
          </ns3:TrackPointExtension>
        </extensions>
      </trkpt>
      <trkpt lat="-22.07016100175678730010986328125" lon="166.44633491523563861846923828125">
        <ele>888.79998779296875</ele>
        <time>2016-08-12T22:22:43.000Z</time>
        <extensions>
          <ns3:TrackPointExtension>
            <ns3:atemp>18.0</ns3:atemp>
            <ns3:hr>132</ns3:hr>
          </ns3:TrackPointExtension>
        </extensions>
      </trkpt>
      <trkpt lat="-22.07017877139151096343994140625" lon="166.4463390223681926727294921875">
        <ele>889</ele>
        <time>2016-08-12T22:22:44.000Z</time>
        <extensions>
          <ns3:TrackPointExtension>
            <ns3:atemp>18.0</ns3:atemp>
            <ns3:hr>132</ns3:hr>
          </ns3:TrackPointExtension>
        </extensions>
      </trkpt>
      <trkpt lat="-22.0701956190168857574462890625" lon="166.44634195603430271148681640625">
        <ele>888.5999755859375</ele>
        <time>2016-08-12T22:22:45.000Z</time>
        <extensions>
          <ns3:TrackPointExtension>
            <ns3:atemp>18.0</ns3:atemp>
            <ns3:hr>132</ns3:hr>
          </ns3:TrackPointExtension>
        </extensions>
      </trkpt>
      <trkpt lat="-22.07021690905094146728515625" lon="166.44634597934782505035400390625">
        <ele>889</ele>
        <time>2016-08-12T22:22:46.000Z</time>
        <extensions>
          <ns3:TrackPointExtension>
            <ns3:atemp>18.0</ns3:atemp>
            <ns3:hr>132</ns3:hr>
          </ns3:TrackPointExtension>
        </extensions>
      </trkpt>
      <trkpt lat="-22.0702375285327434539794921875" lon="166.44634966738522052764892578125">
        <ele>888.20001220703125</ele>
        <time>2016-08-12T22:22:47.000Z</time>
        <extensions>
          <ns3:TrackPointExtension>
            <ns3:atemp>18.0</ns3:atemp>
            <ns3:hr>132</ns3:hr>
          </ns3:TrackPointExtension>
        </extensions>
      </trkpt>
      <trkpt lat="-22.07025705836713314056396484375" lon="166.4463504217565059661865234375">
        <ele>887.79998779296875</ele>
        <time>2016-08-12T22:22:48.000Z</time>
        <extensions>
          <ns3:TrackPointExtension>
            <ns3:atemp>18.0</ns3:atemp>
            <ns3:hr>132</ns3:hr>
          </ns3:TrackPointExtension>
        </extensions>
      </trkpt>
      <trkpt lat="-22.07027583383023738861083984375" lon="166.44635620526969432830810546875">
        <ele>887.79998779296875</ele>
        <time>2016-08-12T22:22:49.000Z</time>
        <extensions>
          <ns3:TrackPointExtension>
            <ns3:atemp>18.0</ns3:atemp>
            <ns3:hr>132</ns3:hr>
          </ns3:TrackPointExtension>
        </extensions>
      </trkpt>
      <trkpt lat="-22.0702908374369144439697265625" lon="166.44636693410575389862060546875">
        <ele>887.5999755859375</ele>
        <time>2016-08-12T22:22:50.000Z</time>
        <extensions>
          <ns3:TrackPointExtension>
            <ns3:atemp>18.0</ns3:atemp>
            <ns3:hr>132</ns3:hr>
          </ns3:TrackPointExtension>
        </extensions>
      </trkpt>
      <trkpt lat="-22.07030734978616237640380859375" lon="166.4463834464550018310546875">
        <ele>887.4000244140625</ele>
        <time>2016-08-12T22:22:51.000Z</time>
        <extensions>
          <ns3:TrackPointExtension>
            <ns3:atemp>18.0</ns3:atemp>
            <ns3:hr>132</ns3:hr>
          </ns3:TrackPointExtension>
        </extensions>
      </trkpt>
      <trkpt lat="-22.07032679580152034759521484375" lon="166.4464013837277889251708984375">
        <ele>887</ele>
        <time>2016-08-12T22:22:52.000Z</time>
        <extensions>
          <ns3:TrackPointExtension>
            <ns3:atemp>18.0</ns3:atemp>
            <ns3:hr>131</ns3:hr>
          </ns3:TrackPointExtension>
        </extensions>
      </trkpt>
      <trkpt lat="-22.0703481696546077728271484375" lon="166.44641370512545108795166015625">
        <ele>886.5999755859375</ele>
        <time>2016-08-12T22:22:53.000Z</time>
        <extensions>
          <ns3:TrackPointExtension>
            <ns3:atemp>18.0</ns3:atemp>
            <ns3:hr>131</ns3:hr>
          </ns3:TrackPointExtension>
        </extensions>
      </trkpt>
      <trkpt lat="-22.07036954350769519805908203125" lon="166.44642074592411518096923828125">
        <ele>886.5999755859375</ele>
        <time>2016-08-12T22:22:54.000Z</time>
        <extensions>
          <ns3:TrackPointExtension>
            <ns3:atemp>18.0</ns3:atemp>
            <ns3:hr>131</ns3:hr>
          </ns3:TrackPointExtension>
        </extensions>
      </trkpt>
      <trkpt lat="-22.07049359567463397979736328125" lon="166.44643968902528285980224609375">
        <ele>884.79998779296875</ele>
        <time>2016-08-12T22:22:59.000Z</time>
        <extensions>
          <ns3:TrackPointExtension>
            <ns3:atemp>18.0</ns3:atemp>
          </ns3:TrackPointExtension>
        </extensions>
      </trkpt>
      <trkpt lat="-22.07069274969398975372314453125" lon="166.44639979116618633270263671875">
        <ele>884.79998779296875</ele>
        <time>2016-08-12T22:23:07.000Z</time>
        <extensions>
          <ns3:TrackPointExtension>
            <ns3:atemp>18.0</ns3:atemp>
            <ns3:hr>130</ns3:hr>
          </ns3:TrackPointExtension>
        </extensions>
      </trkpt>
      <trkpt lat="-22.07081361673772335052490234375" lon="166.44630557857453823089599609375">
        <ele>881.79998779296875</ele>
        <time>2016-08-12T22:23:13.000Z</time>
        <extensions>
          <ns3:TrackPointExtension>
            <ns3:atemp>18.0</ns3:atemp>
            <ns3:hr>130</ns3:hr>
          </ns3:TrackPointExtension>
        </extensions>
      </trkpt>
      <trkpt lat="-22.0708571188151836395263671875" lon="166.446285545825958251953125">
        <ele>881.4000244140625</ele>
        <time>2016-08-12T22:23:15.000Z</time>
        <extensions>
          <ns3:TrackPointExtension>
            <ns3:atemp>18.0</ns3:atemp>
            <ns3:hr>130</ns3:hr>
          </ns3:TrackPointExtension>
        </extensions>
      </trkpt>
      <trkpt lat="-22.07087966613471508026123046875" lon="166.44627548754215240478515625">
        <ele>881.20001220703125</ele>
        <time>2016-08-12T22:23:16.000Z</time>
        <extensions>
          <ns3:TrackPointExtension>
            <ns3:atemp>18.0</ns3:atemp>
            <ns3:hr>129</ns3:hr>
          </ns3:TrackPointExtension>
        </extensions>
      </trkpt>
      <trkpt lat="-22.07089860923588275909423828125" lon="166.44626903347671031951904296875">
        <ele>880.79998779296875</ele>
        <time>2016-08-12T22:23:17.000Z</time>
        <extensions>
          <ns3:TrackPointExtension>
            <ns3:atemp>18.0</ns3:atemp>
            <ns3:hr>129</ns3:hr>
          </ns3:TrackPointExtension>
        </extensions>
      </trkpt>
      <trkpt lat="-22.0709198154509067535400390625" lon="166.44626651890575885772705078125">
        <ele>880.5999755859375</ele>
        <time>2016-08-12T22:23:18.000Z</time>
        <extensions>
          <ns3:TrackPointExtension>
            <ns3:atemp>18.0</ns3:atemp>
            <ns3:hr>129</ns3:hr>
          </ns3:TrackPointExtension>
        </extensions>
      </trkpt>
      <trkpt lat="-22.0709422789514064788818359375" lon="166.44626366905868053436279296875">
        <ele>881.4000244140625</ele>
        <time>2016-08-12T22:23:19.000Z</time>
        <extensions>
          <ns3:TrackPointExtension>
            <ns3:atemp>18.0</ns3:atemp>
            <ns3:hr>129</ns3:hr>
          </ns3:TrackPointExtension>
        </extensions>
      </trkpt>
      <trkpt lat="-22.07096348516643047332763671875" lon="166.446263082325458526611328125">
        <ele>881</ele>
        <time>2016-08-12T22:23:20.000Z</time>
        <extensions>
          <ns3:TrackPointExtension>
            <ns3:atemp>18.0</ns3:atemp>
            <ns3:hr>129</ns3:hr>
          </ns3:TrackPointExtension>
        </extensions>
      </trkpt>
      <trkpt lat="-22.0709818415343761444091796875" lon="166.44626869820058345794677734375">
        <ele>880.20001220703125</ele>
        <time>2016-08-12T22:23:21.000Z</time>
        <extensions>
          <ns3:TrackPointExtension>
            <ns3:atemp>18.0</ns3:atemp>
            <ns3:hr>129</ns3:hr>
          </ns3:TrackPointExtension>
        </extensions>
      </trkpt>
      <trkpt lat="-22.07100003026425838470458984375" lon="166.4462786726653575897216796875">
        <ele>880</ele>
        <time>2016-08-12T22:23:22.000Z</time>
        <extensions>
          <ns3:TrackPointExtension>
            <ns3:atemp>18.0</ns3:atemp>
            <ns3:hr>129</ns3:hr>
          </ns3:TrackPointExtension>
        </extensions>
      </trkpt>
      <trkpt lat="-22.0710150338709354400634765625" lon="166.44629803486168384552001953125">
        <ele>880</ele>
        <time>2016-08-12T22:23:23.000Z</time>
        <extensions>
          <ns3:TrackPointExtension>
            <ns3:atemp>18.0</ns3:atemp>
            <ns3:hr>129</ns3:hr>
          </ns3:TrackPointExtension>
        </extensions>
      </trkpt>
      <trkpt lat="-22.07103003747761249542236328125" lon="166.4463145472109317779541015625">
        <ele>879.5999755859375</ele>
        <time>2016-08-12T22:23:24.000Z</time>
        <extensions>
          <ns3:TrackPointExtension>
            <ns3:atemp>18.0</ns3:atemp>
            <ns3:hr>129</ns3:hr>
          </ns3:TrackPointExtension>
        </extensions>
      </trkpt>
      <trkpt lat="-22.07104864530265331268310546875" lon="166.44633122719824314117431640625">
        <ele>880</ele>
        <time>2016-08-12T22:23:25.000Z</time>
        <extensions>
          <ns3:TrackPointExtension>
            <ns3:atemp>18.0</ns3:atemp>
            <ns3:hr>129</ns3:hr>
          </ns3:TrackPointExtension>
        </extensions>
      </trkpt>
      <trkpt lat="-22.07106457091867923736572265625" lon="166.44634262658655643463134765625">
        <ele>880</ele>
        <time>2016-08-12T22:23:26.000Z</time>
        <extensions>
          <ns3:TrackPointExtension>
            <ns3:atemp>18.0</ns3:atemp>
            <ns3:hr>129</ns3:hr>
          </ns3:TrackPointExtension>
        </extensions>
      </trkpt>
      <trkpt lat="-22.07108083181083202362060546875" lon="166.446350254118442535400390625">
        <ele>879.79998779296875</ele>
        <time>2016-08-12T22:23:27.000Z</time>
        <extensions>
          <ns3:TrackPointExtension>
            <ns3:atemp>18.0</ns3:atemp>
            <ns3:hr>128</ns3:hr>
          </ns3:TrackPointExtension>
        </extensions>
      </trkpt>
      <trkpt lat="-22.0711025409400463104248046875" lon="166.4463611505925655364990234375">
        <ele>879.4000244140625</ele>
        <time>2016-08-12T22:23:28.000Z</time>
        <extensions>
          <ns3:TrackPointExtension>
            <ns3:atemp>18.0</ns3:atemp>
            <ns3:hr>128</ns3:hr>
          </ns3:TrackPointExtension>
        </extensions>
      </trkpt>
      <trkpt lat="-22.0711246691644191741943359375" lon="166.44637213088572025299072265625">
        <ele>879</ele>
        <time>2016-08-12T22:23:29.000Z</time>
        <extensions>
          <ns3:TrackPointExtension>
            <ns3:atemp>18.0</ns3:atemp>
            <ns3:hr>128</ns3:hr>
          </ns3:TrackPointExtension>
        </extensions>
      </trkpt>
      <trkpt lat="-22.0711484737694263458251953125" lon="166.4463819377124309539794921875">
        <ele>879.20001220703125</ele>
        <time>2016-08-12T22:23:30.000Z</time>
        <extensions>
          <ns3:TrackPointExtension>
            <ns3:atemp>18.0</ns3:atemp>
            <ns3:hr>128</ns3:hr>
          </ns3:TrackPointExtension>
        </extensions>
      </trkpt>
      <trkpt lat="-22.0711752958595752716064453125" lon="166.44639752805233001708984375">
        <ele>879</ele>
        <time>2016-08-12T22:23:31.000Z</time>
        <extensions>
          <ns3:TrackPointExtension>
            <ns3:atemp>18.0</ns3:atemp>
            <ns3:hr>128</ns3:hr>
          </ns3:TrackPointExtension>
        </extensions>
      </trkpt>
      <trkpt lat="-22.0711991004645824432373046875" lon="166.44641035236418247222900390625">
        <ele>878.4000244140625</ele>
        <time>2016-08-12T22:23:32.000Z</time>
        <extensions>
          <ns3:TrackPointExtension>
            <ns3:atemp>18.0</ns3:atemp>
            <ns3:hr>128</ns3:hr>
          </ns3:TrackPointExtension>
        </extensions>
      </trkpt>
      <trkpt lat="-22.07121863029897212982177734375" lon="166.4464223384857177734375">
        <ele>877.79998779296875</ele>
        <time>2016-08-12T22:23:33.000Z</time>
        <extensions>
          <ns3:TrackPointExtension>
            <ns3:atemp>18.0</ns3:atemp>
            <ns3:hr>128</ns3:hr>
          </ns3:TrackPointExtension>
        </extensions>
      </trkpt>
      <trkpt lat="-22.0712436921894550323486328125" lon="166.44643373787403106689453125">
        <ele>877</ele>
        <time>2016-08-12T22:23:34.000Z</time>
        <extensions>
          <ns3:TrackPointExtension>
            <ns3:atemp>18.0</ns3:atemp>
            <ns3:hr>128</ns3:hr>
          </ns3:TrackPointExtension>
        </extensions>
      </trkpt>
      <trkpt lat="-22.07126590423285961151123046875" lon="166.446440778672695159912109375">
        <ele>876.79998779296875</ele>
        <time>2016-08-12T22:23:35.000Z</time>
        <extensions>
          <ns3:TrackPointExtension>
            <ns3:atemp>18.0</ns3:atemp>
            <ns3:hr>128</ns3:hr>
          </ns3:TrackPointExtension>
        </extensions>
      </trkpt>
      <trkpt lat="-22.07128845155239105224609375" lon="166.446451507508754730224609375">
        <ele>877.5999755859375</ele>
        <time>2016-08-12T22:23:36.000Z</time>
        <extensions>
          <ns3:TrackPointExtension>
            <ns3:atemp>18.0</ns3:atemp>
            <ns3:hr>128</ns3:hr>
          </ns3:TrackPointExtension>
        </extensions>
      </trkpt>
      <trkpt lat="-22.07131284289062023162841796875" lon="166.44645293243229389190673828125">
        <ele>877.4000244140625</ele>
        <time>2016-08-12T22:23:37.000Z</time>
        <extensions>
          <ns3:TrackPointExtension>
            <ns3:atemp>18.0</ns3:atemp>
            <ns3:hr>128</ns3:hr>
          </ns3:TrackPointExtension>
        </extensions>
      </trkpt>
      <trkpt lat="-22.07133899442851543426513671875" lon="166.446454189717769622802734375">
        <ele>877.20001220703125</ele>
        <time>2016-08-12T22:23:38.000Z</time>
        <extensions>
          <ns3:TrackPointExtension>
            <ns3:atemp>18.0</ns3:atemp>
            <ns3:hr>128</ns3:hr>
          </ns3:TrackPointExtension>
        </extensions>
      </trkpt>
      <trkpt lat="-22.07136757671833038330078125" lon="166.4464432932436466217041015625">
        <ele>877.5999755859375</ele>
        <time>2016-08-12T22:23:39.000Z</time>
        <extensions>
          <ns3:TrackPointExtension>
            <ns3:atemp>18.0</ns3:atemp>
            <ns3:hr>128</ns3:hr>
          </ns3:TrackPointExtension>
        </extensions>
      </trkpt>
      <trkpt lat="-22.071396075189113616943359375" lon="166.44644035957753658294677734375">
        <ele>878.20001220703125</ele>
        <time>2016-08-12T22:23:40.000Z</time>
        <extensions>
          <ns3:TrackPointExtension>
            <ns3:atemp>18.0</ns3:atemp>
            <ns3:hr>128</ns3:hr>
          </ns3:TrackPointExtension>
        </extensions>
      </trkpt>
      <trkpt lat="-22.07142113707959651947021484375" lon="166.44643348641693592071533203125">
        <ele>878</ele>
        <time>2016-08-12T22:23:41.000Z</time>
        <extensions>
          <ns3:TrackPointExtension>
            <ns3:atemp>18.0</ns3:atemp>
            <ns3:hr>128</ns3:hr>
          </ns3:TrackPointExtension>
        </extensions>
      </trkpt>
      <trkpt lat="-22.07144427113234996795654296875" lon="166.44643415696918964385986328125">
        <ele>877.79998779296875</ele>
        <time>2016-08-12T22:23:42.000Z</time>
        <extensions>
          <ns3:TrackPointExtension>
            <ns3:atemp>18.0</ns3:atemp>
            <ns3:hr>128</ns3:hr>
          </ns3:TrackPointExtension>
        </extensions>
      </trkpt>
      <trkpt lat="-22.07146991975605487823486328125" lon="166.446435414254665374755859375">
        <ele>877.4000244140625</ele>
        <time>2016-08-12T22:23:43.000Z</time>
        <extensions>
          <ns3:TrackPointExtension>
            <ns3:atemp>18.0</ns3:atemp>
            <ns3:hr>129</ns3:hr>
          </ns3:TrackPointExtension>
        </extensions>
      </trkpt>
      <trkpt lat="-22.071496658027172088623046875" lon="166.44643306732177734375">
        <ele>876.79998779296875</ele>
        <time>2016-08-12T22:23:44.000Z</time>
        <extensions>
          <ns3:TrackPointExtension>
            <ns3:atemp>18.0</ns3:atemp>
            <ns3:hr>129</ns3:hr>
          </ns3:TrackPointExtension>
        </extensions>
      </trkpt>
      <trkpt lat="-22.0715206302702426910400390625" lon="166.4464290440082550048828125">
        <ele>876</ele>
        <time>2016-08-12T22:23:45.000Z</time>
        <extensions>
          <ns3:TrackPointExtension>
            <ns3:atemp>18.0</ns3:atemp>
            <ns3:hr>129</ns3:hr>
          </ns3:TrackPointExtension>
        </extensions>
      </trkpt>
      <trkpt lat="-22.07154753617942333221435546875" lon="166.44642476923763751983642578125">
        <ele>874.4000244140625</ele>
        <time>2016-08-12T22:23:46.000Z</time>
        <extensions>
          <ns3:TrackPointExtension>
            <ns3:atemp>18.0</ns3:atemp>
            <ns3:hr>129</ns3:hr>
          </ns3:TrackPointExtension>
        </extensions>
      </trkpt>
      <trkpt lat="-22.07157335244119167327880859375" lon="166.44642476923763751983642578125">
        <ele>873.79998779296875</ele>
        <time>2016-08-12T22:23:47.000Z</time>
        <extensions>
          <ns3:TrackPointExtension>
            <ns3:atemp>18.0</ns3:atemp>
            <ns3:hr>129</ns3:hr>
          </ns3:TrackPointExtension>
        </extensions>
      </trkpt>
      <trkpt lat="-22.071601934731006622314453125" lon="166.44642543978989124298095703125">
        <ele>873.5999755859375</ele>
        <time>2016-08-12T22:23:48.000Z</time>
        <extensions>
          <ns3:TrackPointExtension>
            <ns3:atemp>18.0</ns3:atemp>
            <ns3:hr>129</ns3:hr>
          </ns3:TrackPointExtension>
        </extensions>
      </trkpt>
      <trkpt lat="-22.07163219340145587921142578125" lon="166.44642828963696956634521484375">
        <ele>873</ele>
        <time>2016-08-12T22:23:49.000Z</time>
        <extensions>
          <ns3:TrackPointExtension>
            <ns3:atemp>18.0</ns3:atemp>
            <ns3:hr>130</ns3:hr>
          </ns3:TrackPointExtension>
        </extensions>
      </trkpt>
      <trkpt lat="-22.071659602224826812744140625" lon="166.4464298821985721588134765625">
        <ele>872.4000244140625</ele>
        <time>2016-08-12T22:23:50.000Z</time>
        <extensions>
          <ns3:TrackPointExtension>
            <ns3:atemp>18.0</ns3:atemp>
            <ns3:hr>130</ns3:hr>
          </ns3:TrackPointExtension>
        </extensions>
      </trkpt>
      <trkpt lat="-22.07168600521981716156005859375" lon="166.44642845727503299713134765625">
        <ele>872.79998779296875</ele>
        <time>2016-08-12T22:23:51.000Z</time>
        <extensions>
          <ns3:TrackPointExtension>
            <ns3:atemp>18.0</ns3:atemp>
            <ns3:hr>130</ns3:hr>
          </ns3:TrackPointExtension>
        </extensions>
      </trkpt>
      <trkpt lat="-22.071712575852870941162109375" lon="166.44643130712211132049560546875">
        <ele>872.4000244140625</ele>
        <time>2016-08-12T22:23:52.000Z</time>
        <extensions>
          <ns3:TrackPointExtension>
            <ns3:atemp>18.0</ns3:atemp>
            <ns3:hr>130</ns3:hr>
          </ns3:TrackPointExtension>
        </extensions>
      </trkpt>
      <trkpt lat="-22.0717365480959415435791015625" lon="166.4464305527508258819580078125">
        <ele>872</ele>
        <time>2016-08-12T22:23:53.000Z</time>
        <extensions>
          <ns3:TrackPointExtension>
            <ns3:atemp>18.0</ns3:atemp>
            <ns3:hr>130</ns3:hr>
          </ns3:TrackPointExtension>
        </extensions>
      </trkpt>
      <trkpt lat="-22.0717586763203144073486328125" lon="166.446432061493396759033203125">
        <ele>872.20001220703125</ele>
        <time>2016-08-12T22:23:54.000Z</time>
        <extensions>
          <ns3:TrackPointExtension>
            <ns3:atemp>18.0</ns3:atemp>
            <ns3:hr>130</ns3:hr>
          </ns3:TrackPointExtension>
        </extensions>
      </trkpt>
      <trkpt lat="-22.0717821456491947174072265625" lon="166.44643113948404788970947265625">
        <ele>872.20001220703125</ele>
        <time>2016-08-12T22:23:55.000Z</time>
        <extensions>
          <ns3:TrackPointExtension>
            <ns3:atemp>18.0</ns3:atemp>
            <ns3:hr>130</ns3:hr>
          </ns3:TrackPointExtension>
        </extensions>
      </trkpt>
      <trkpt lat="-22.07180787809193134307861328125" lon="166.44642770290374755859375">
        <ele>871.5999755859375</ele>
        <time>2016-08-12T22:23:56.000Z</time>
        <extensions>
          <ns3:TrackPointExtension>
            <ns3:atemp>18.0</ns3:atemp>
            <ns3:hr>130</ns3:hr>
          </ns3:TrackPointExtension>
        </extensions>
      </trkpt>
      <trkpt lat="-22.07183402962982654571533203125" lon="166.4464215002954006195068359375">
        <ele>871.79998779296875</ele>
        <time>2016-08-12T22:23:57.000Z</time>
        <extensions>
          <ns3:TrackPointExtension>
            <ns3:atemp>18.0</ns3:atemp>
            <ns3:hr>130</ns3:hr>
          </ns3:TrackPointExtension>
        </extensions>
      </trkpt>
      <trkpt lat="-22.071856074035167694091796875" lon="166.44641454331576824188232421875">
        <ele>872.4000244140625</ele>
        <time>2016-08-12T22:23:58.000Z</time>
        <extensions>
          <ns3:TrackPointExtension>
            <ns3:atemp>18.0</ns3:atemp>
            <ns3:hr>130</ns3:hr>
          </ns3:TrackPointExtension>
        </extensions>
      </trkpt>
      <trkpt lat="-22.071878202259540557861328125" lon="166.44640716724097728729248046875">
        <ele>871.79998779296875</ele>
        <time>2016-08-12T22:23:59.000Z</time>
        <extensions>
          <ns3:TrackPointExtension>
            <ns3:atemp>18.0</ns3:atemp>
            <ns3:hr>130</ns3:hr>
          </ns3:TrackPointExtension>
        </extensions>
      </trkpt>
      <trkpt lat="-22.07189991138875484466552734375" lon="166.44639744423329830169677734375">
        <ele>871.79998779296875</ele>
        <time>2016-08-12T22:24:00.000Z</time>
        <extensions>
          <ns3:TrackPointExtension>
            <ns3:atemp>18.0</ns3:atemp>
            <ns3:hr>130</ns3:hr>
          </ns3:TrackPointExtension>
        </extensions>
      </trkpt>
      <trkpt lat="-22.0719202794134616851806640625" lon="166.4463879726827144622802734375">
        <ele>872.4000244140625</ele>
        <time>2016-08-12T22:24:01.000Z</time>
        <extensions>
          <ns3:TrackPointExtension>
            <ns3:atemp>18.0</ns3:atemp>
            <ns3:hr>130</ns3:hr>
          </ns3:TrackPointExtension>
        </extensions>
      </trkpt>
      <trkpt lat="-22.0719434134662151336669921875" lon="166.44638051278889179229736328125">
        <ele>871.79998779296875</ele>
        <time>2016-08-12T22:24:02.000Z</time>
        <extensions>
          <ns3:TrackPointExtension>
            <ns3:atemp>18.0</ns3:atemp>
            <ns3:hr>130</ns3:hr>
          </ns3:TrackPointExtension>
        </extensions>
      </trkpt>
      <trkpt lat="-22.07196948118507862091064453125" lon="166.4463727176189422607421875">
        <ele>870.79998779296875</ele>
        <time>2016-08-12T22:24:03.000Z</time>
        <extensions>
          <ns3:TrackPointExtension>
            <ns3:atemp>18.0</ns3:atemp>
            <ns3:hr>131</ns3:hr>
          </ns3:TrackPointExtension>
        </extensions>
      </trkpt>
      <trkpt lat="-22.07199479453265666961669921875" lon="166.4463681913912296295166015625">
        <ele>870.4000244140625</ele>
        <time>2016-08-12T22:24:04.000Z</time>
        <extensions>
          <ns3:TrackPointExtension>
            <ns3:atemp>18.0</ns3:atemp>
            <ns3:hr>131</ns3:hr>
          </ns3:TrackPointExtension>
        </extensions>
      </trkpt>
      <trkpt lat="-22.07201709039509296417236328125" lon="166.446360647678375244140625">
        <ele>870.20001220703125</ele>
        <time>2016-08-12T22:24:05.000Z</time>
        <extensions>
          <ns3:TrackPointExtension>
            <ns3:atemp>18.0</ns3:atemp>
            <ns3:hr>131</ns3:hr>
          </ns3:TrackPointExtension>
        </extensions>
      </trkpt>
      <trkpt lat="-22.07203670404851436614990234375" lon="166.446356289088726043701171875">
        <ele>870.5999755859375</ele>
        <time>2016-08-12T22:24:06.000Z</time>
        <extensions>
          <ns3:TrackPointExtension>
            <ns3:atemp>18.0</ns3:atemp>
            <ns3:hr>131</ns3:hr>
          </ns3:TrackPointExtension>
        </extensions>
      </trkpt>
      <trkpt lat="-22.07205413840711116790771484375" lon="166.446352936327457427978515625">
        <ele>871.20001220703125</ele>
        <time>2016-08-12T22:24:07.000Z</time>
        <extensions>
          <ns3:TrackPointExtension>
            <ns3:atemp>18.0</ns3:atemp>
            <ns3:hr>131</ns3:hr>
          </ns3:TrackPointExtension>
        </extensions>
      </trkpt>
      <trkpt lat="-22.0720748417079448699951171875" lon="166.44635939039289951324462890625">
        <ele>871</ele>
        <time>2016-08-12T22:24:08.000Z</time>
        <extensions>
          <ns3:TrackPointExtension>
            <ns3:atemp>18.0</ns3:atemp>
            <ns3:hr>131</ns3:hr>
          </ns3:TrackPointExtension>
        </extensions>
      </trkpt>
      <trkpt lat="-22.07207894884049892425537109375" lon="166.44636793993413448333740234375">
        <ele>870.4000244140625</ele>
        <time>2016-08-12T22:24:09.000Z</time>
        <extensions>
          <ns3:TrackPointExtension>
            <ns3:atemp>18.0</ns3:atemp>
            <ns3:hr>131</ns3:hr>
          </ns3:TrackPointExtension>
        </extensions>
      </trkpt>
      <trkpt lat="-22.072095461189746856689453125" lon="166.446379087865352630615234375">
        <ele>870</ele>
        <time>2016-08-12T22:24:10.000Z</time>
        <extensions>
          <ns3:TrackPointExtension>
            <ns3:atemp>18.0</ns3:atemp>
            <ns3:hr>131</ns3:hr>
          </ns3:TrackPointExtension>
        </extensions>
      </trkpt>
      <trkpt lat="-22.07211817614734172821044921875" lon="166.44639308564364910125732421875">
        <ele>869.4000244140625</ele>
        <time>2016-08-12T22:24:11.000Z</time>
        <extensions>
          <ns3:TrackPointExtension>
            <ns3:atemp>18.0</ns3:atemp>
            <ns3:hr>131</ns3:hr>
          </ns3:TrackPointExtension>
        </extensions>
      </trkpt>
      <trkpt lat="-22.072135023772716522216796875" lon="166.44641336984932422637939453125">
        <ele>869.20001220703125</ele>
        <time>2016-08-12T22:24:12.000Z</time>
        <extensions>
          <ns3:TrackPointExtension>
            <ns3:atemp>18.0</ns3:atemp>
            <ns3:hr>131</ns3:hr>
          </ns3:TrackPointExtension>
        </extensions>
      </trkpt>
      <trkpt lat="-22.0721482671797275543212890625" lon="166.4464355818927288055419921875">
        <ele>868.5999755859375</ele>
        <time>2016-08-12T22:24:13.000Z</time>
        <extensions>
          <ns3:TrackPointExtension>
            <ns3:atemp>18.0</ns3:atemp>
            <ns3:hr>131</ns3:hr>
          </ns3:TrackPointExtension>
        </extensions>
      </trkpt>
      <trkpt lat="-22.0721573196351528167724609375" lon="166.446446813642978668212890625">
        <ele>868.20001220703125</ele>
        <time>2016-08-12T22:24:14.000Z</time>
        <extensions>
          <ns3:TrackPointExtension>
            <ns3:atemp>18.0</ns3:atemp>
            <ns3:hr>131</ns3:hr>
          </ns3:TrackPointExtension>
        </extensions>
      </trkpt>
      <trkpt lat="-22.072179280221462249755859375" lon="166.44646952860057353973388671875">
        <ele>867.79998779296875</ele>
        <time>2016-08-12T22:24:15.000Z</time>
        <extensions>
          <ns3:TrackPointExtension>
            <ns3:atemp>18.0</ns3:atemp>
            <ns3:hr>131</ns3:hr>
          </ns3:TrackPointExtension>
        </extensions>
      </trkpt>
      <trkpt lat="-22.0721952058374881744384765625" lon="166.44649484194815158843994140625">
        <ele>867.4000244140625</ele>
        <time>2016-08-12T22:24:16.000Z</time>
        <extensions>
          <ns3:TrackPointExtension>
            <ns3:atemp>18.0</ns3:atemp>
            <ns3:hr>131</ns3:hr>
          </ns3:TrackPointExtension>
        </extensions>
      </trkpt>
      <trkpt lat="-22.07221456803381443023681640625" lon="166.44652015529572963714599609375">
        <ele>867.20001220703125</ele>
        <time>2016-08-12T22:24:17.000Z</time>
        <extensions>
          <ns3:TrackPointExtension>
            <ns3:atemp>18.0</ns3:atemp>
            <ns3:hr>130</ns3:hr>
          </ns3:TrackPointExtension>
        </extensions>
      </trkpt>
      <trkpt lat="-22.0722280628979206085205078125" lon="166.44654228352010250091552734375">
        <ele>867.4000244140625</ele>
        <time>2016-08-12T22:24:18.000Z</time>
        <extensions>
          <ns3:TrackPointExtension>
            <ns3:atemp>18.0</ns3:atemp>
            <ns3:hr>130</ns3:hr>
          </ns3:TrackPointExtension>
        </extensions>
      </trkpt>
      <trkpt lat="-22.072238624095916748046875" lon="166.4465596340596675872802734375">
        <ele>867.5999755859375</ele>
        <time>2016-08-12T22:24:19.000Z</time>
        <extensions>
          <ns3:TrackPointExtension>
            <ns3:atemp>18.0</ns3:atemp>
            <ns3:hr>131</ns3:hr>
          </ns3:TrackPointExtension>
        </extensions>
      </trkpt>
      <trkpt lat="-22.07225136458873748779296875" lon="166.44658000208437442779541015625">
        <ele>867.4000244140625</ele>
        <time>2016-08-12T22:24:20.000Z</time>
        <extensions>
          <ns3:TrackPointExtension>
            <ns3:atemp>18.0</ns3:atemp>
            <ns3:hr>130</ns3:hr>
          </ns3:TrackPointExtension>
        </extensions>
      </trkpt>
      <trkpt lat="-22.07225538790225982666015625" lon="166.44659928046166896820068359375">
        <ele>867.4000244140625</ele>
        <time>2016-08-12T22:24:21.000Z</time>
        <extensions>
          <ns3:TrackPointExtension>
            <ns3:atemp>18.0</ns3:atemp>
            <ns3:hr>130</ns3:hr>
          </ns3:TrackPointExtension>
        </extensions>
      </trkpt>
      <trkpt lat="-22.07226611673831939697265625" lon="166.446621157228946685791015625">
        <ele>867.5999755859375</ele>
        <time>2016-08-12T22:24:22.000Z</time>
        <extensions>
          <ns3:TrackPointExtension>
            <ns3:atemp>18.0</ns3:atemp>
            <ns3:hr>130</ns3:hr>
          </ns3:TrackPointExtension>
        </extensions>
      </trkpt>
      <trkpt lat="-22.07227843813598155975341796875" lon="166.44664236344397068023681640625">
        <ele>867</ele>
        <time>2016-08-12T22:24:23.000Z</time>
        <extensions>
          <ns3:TrackPointExtension>
            <ns3:atemp>18.0</ns3:atemp>
            <ns3:hr>130</ns3:hr>
          </ns3:TrackPointExtension>
        </extensions>
      </trkpt>
      <trkpt lat="-22.07229738123714923858642578125" lon="166.4466665871441364288330078125">
        <ele>866.20001220703125</ele>
        <time>2016-08-12T22:24:24.000Z</time>
        <extensions>
          <ns3:TrackPointExtension>
            <ns3:atemp>18.0</ns3:atemp>
            <ns3:hr>130</ns3:hr>
          </ns3:TrackPointExtension>
        </extensions>
      </trkpt>
      <trkpt lat="-22.072316072881221771240234375" lon="166.44668678753077983856201171875">
        <ele>865.79998779296875</ele>
        <time>2016-08-12T22:24:25.000Z</time>
        <extensions>
          <ns3:TrackPointExtension>
            <ns3:atemp>18.0</ns3:atemp>
            <ns3:hr>130</ns3:hr>
          </ns3:TrackPointExtension>
        </extensions>
      </trkpt>
      <trkpt lat="-22.07233174704015254974365234375" lon="166.4467064850032329559326171875">
        <ele>865.4000244140625</ele>
        <time>2016-08-12T22:24:26.000Z</time>
        <extensions>
          <ns3:TrackPointExtension>
            <ns3:atemp>18.0</ns3:atemp>
            <ns3:hr>129</ns3:hr>
          </ns3:TrackPointExtension>
        </extensions>
      </trkpt>
      <trkpt lat="-22.0723524503409862518310546875" lon="166.446725092828273773193359375">
        <ele>865</ele>
        <time>2016-08-12T22:24:27.000Z</time>
        <extensions>
          <ns3:TrackPointExtension>
            <ns3:atemp>18.0</ns3:atemp>
            <ns3:hr>129</ns3:hr>
          </ns3:TrackPointExtension>
        </extensions>
      </trkpt>
      <trkpt lat="-22.07237474620342254638671875" lon="166.4467396773397922515869140625">
        <ele>865.4000244140625</ele>
        <time>2016-08-12T22:24:28.000Z</time>
        <extensions>
          <ns3:TrackPointExtension>
            <ns3:atemp>18.0</ns3:atemp>
            <ns3:hr>129</ns3:hr>
          </ns3:TrackPointExtension>
        </extensions>
      </trkpt>
      <trkpt lat="-22.0723963715136051177978515625" lon="166.44675484858453273773193359375">
        <ele>866</ele>
        <time>2016-08-12T22:24:29.000Z</time>
        <extensions>
          <ns3:TrackPointExtension>
            <ns3:atemp>18.0</ns3:atemp>
            <ns3:hr>129</ns3:hr>
          </ns3:TrackPointExtension>
        </extensions>
      </trkpt>
      <trkpt lat="-22.072420679032802581787109375" lon="166.44676725380122661590576171875">
        <ele>865.5999755859375</ele>
        <time>2016-08-12T22:24:30.000Z</time>
        <extensions>
          <ns3:TrackPointExtension>
            <ns3:atemp>18.0</ns3:atemp>
            <ns3:hr>129</ns3:hr>
          </ns3:TrackPointExtension>
        </extensions>
      </trkpt>
      <trkpt lat="-22.07244909368455410003662109375" lon="166.4467782340943813323974609375">
        <ele>865.4000244140625</ele>
        <time>2016-08-12T22:24:31.000Z</time>
        <extensions>
          <ns3:TrackPointExtension>
            <ns3:atemp>18.0</ns3:atemp>
            <ns3:hr>129</ns3:hr>
          </ns3:TrackPointExtension>
        </extensions>
      </trkpt>
      <trkpt lat="-22.07247591577470302581787109375" lon="166.44678887911140918731689453125">
        <ele>865.20001220703125</ele>
        <time>2016-08-12T22:24:32.000Z</time>
        <extensions>
          <ns3:TrackPointExtension>
            <ns3:atemp>18.0</ns3:atemp>
            <ns3:hr>129</ns3:hr>
          </ns3:TrackPointExtension>
        </extensions>
      </trkpt>
      <trkpt lat="-22.07250257022678852081298828125" lon="166.446798183023929595947265625">
        <ele>864</ele>
        <time>2016-08-12T22:24:33.000Z</time>
        <extensions>
          <ns3:TrackPointExtension>
            <ns3:atemp>18.0</ns3:atemp>
            <ns3:hr>129</ns3:hr>
          </ns3:TrackPointExtension>
        </extensions>
      </trkpt>
      <trkpt lat="-22.07252972759306430816650390625" lon="166.446806229650974273681640625">
        <ele>863.4000244140625</ele>
        <time>2016-08-12T22:24:34.000Z</time>
        <extensions>
          <ns3:TrackPointExtension>
            <ns3:atemp>18.0</ns3:atemp>
            <ns3:hr>129</ns3:hr>
          </ns3:TrackPointExtension>
        </extensions>
      </trkpt>
      <trkpt lat="-22.072556130588054656982421875" lon="166.4468117617070674896240234375">
        <ele>864.4000244140625</ele>
        <time>2016-08-12T22:24:35.000Z</time>
        <extensions>
          <ns3:TrackPointExtension>
            <ns3:atemp>18.0</ns3:atemp>
            <ns3:hr>128</ns3:hr>
          </ns3:TrackPointExtension>
        </extensions>
      </trkpt>
      <trkpt lat="-22.07258152775466442108154296875" lon="166.44681788049638271331787109375">
        <ele>863.5999755859375</ele>
        <time>2016-08-12T22:24:36.000Z</time>
        <extensions>
          <ns3:TrackPointExtension>
            <ns3:atemp>18.0</ns3:atemp>
            <ns3:hr>128</ns3:hr>
          </ns3:TrackPointExtension>
        </extensions>
      </trkpt>
      <trkpt lat="-22.07260415889322757720947265625" lon="166.44682534039020538330078125">
        <ele>862.20001220703125</ele>
        <time>2016-08-12T22:24:37.000Z</time>
        <extensions>
          <ns3:TrackPointExtension>
            <ns3:atemp>18.0</ns3:atemp>
            <ns3:hr>128</ns3:hr>
          </ns3:TrackPointExtension>
        </extensions>
      </trkpt>
      <trkpt lat="-22.07262846641242504119873046875" lon="166.44683464430272579193115234375">
        <ele>862.4000244140625</ele>
        <time>2016-08-12T22:24:38.000Z</time>
        <extensions>
          <ns3:TrackPointExtension>
            <ns3:atemp>18.0</ns3:atemp>
            <ns3:hr>128</ns3:hr>
          </ns3:TrackPointExtension>
        </extensions>
      </trkpt>
      <trkpt lat="-22.07265277393162250518798828125" lon="166.4468416012823581695556640625">
        <ele>862.4000244140625</ele>
        <time>2016-08-12T22:24:39.000Z</time>
        <extensions>
          <ns3:TrackPointExtension>
            <ns3:atemp>18.0</ns3:atemp>
            <ns3:hr>127</ns3:hr>
          </ns3:TrackPointExtension>
        </extensions>
      </trkpt>
      <trkpt lat="-22.07268051803112030029296875" lon="166.44683849997818470001220703125">
        <ele>861.79998779296875</ele>
        <time>2016-08-12T22:24:40.000Z</time>
        <extensions>
          <ns3:TrackPointExtension>
            <ns3:atemp>18.0</ns3:atemp>
            <ns3:hr>126</ns3:hr>
          </ns3:TrackPointExtension>
        </extensions>
      </trkpt>
      <trkpt lat="-22.07270910032093524932861328125" lon="166.44682894460856914520263671875">
        <ele>862.5999755859375</ele>
        <time>2016-08-12T22:24:41.000Z</time>
        <extensions>
          <ns3:TrackPointExtension>
            <ns3:atemp>18.0</ns3:atemp>
            <ns3:hr>125</ns3:hr>
          </ns3:TrackPointExtension>
        </extensions>
      </trkpt>
      <trkpt lat="-22.07273910753428936004638671875" lon="166.44681436009705066680908203125">
        <ele>862.79998779296875</ele>
        <time>2016-08-12T22:24:42.000Z</time>
        <extensions>
          <ns3:TrackPointExtension>
            <ns3:atemp>18.0</ns3:atemp>
            <ns3:hr>125</ns3:hr>
          </ns3:TrackPointExtension>
        </extensions>
      </trkpt>
      <trkpt lat="-22.07276810891926288604736328125" lon="166.44679307006299495697021484375">
        <ele>862.4000244140625</ele>
        <time>2016-08-12T22:24:43.000Z</time>
        <extensions>
          <ns3:TrackPointExtension>
            <ns3:atemp>18.0</ns3:atemp>
            <ns3:hr>124</ns3:hr>
          </ns3:TrackPointExtension>
        </extensions>
      </trkpt>
      <trkpt lat="-22.07279224880039691925048828125" lon="166.4467723667621612548828125">
        <ele>862.4000244140625</ele>
        <time>2016-08-12T22:24:44.000Z</time>
        <extensions>
          <ns3:TrackPointExtension>
            <ns3:atemp>18.0</ns3:atemp>
            <ns3:hr>123</ns3:hr>
          </ns3:TrackPointExtension>
        </extensions>
      </trkpt>
      <trkpt lat="-22.072817645967006683349609375" lon="166.446753926575183868408203125">
        <ele>862.4000244140625</ele>
        <time>2016-08-12T22:24:45.000Z</time>
        <extensions>
          <ns3:TrackPointExtension>
            <ns3:atemp>18.0</ns3:atemp>
            <ns3:hr>123</ns3:hr>
          </ns3:TrackPointExtension>
        </extensions>
      </trkpt>
      <trkpt lat="-22.072843126952648162841796875" lon="166.44673523493111133575439453125">
        <ele>861.5999755859375</ele>
        <time>2016-08-12T22:24:46.000Z</time>
        <extensions>
          <ns3:TrackPointExtension>
            <ns3:atemp>18.0</ns3:atemp>
            <ns3:hr>123</ns3:hr>
          </ns3:TrackPointExtension>
        </extensions>
      </trkpt>
      <trkpt lat="-22.0728660933673381805419921875" lon="166.44671947695314884185791015625">
        <ele>861.5999755859375</ele>
        <time>2016-08-12T22:24:47.000Z</time>
        <extensions>
          <ns3:TrackPointExtension>
            <ns3:atemp>18.0</ns3:atemp>
            <ns3:hr>122</ns3:hr>
          </ns3:TrackPointExtension>
        </extensions>
      </trkpt>
      <trkpt lat="-22.07288612611591815948486328125" lon="166.446707658469676971435546875">
        <ele>862</ele>
        <time>2016-08-12T22:24:48.000Z</time>
        <extensions>
          <ns3:TrackPointExtension>
            <ns3:atemp>18.0</ns3:atemp>
            <ns3:hr>122</ns3:hr>
          </ns3:TrackPointExtension>
        </extensions>
      </trkpt>
      <trkpt lat="-22.07290858961641788482666015625" lon="166.44669667817652225494384765625">
        <ele>861.20001220703125</ele>
        <time>2016-08-12T22:24:49.000Z</time>
        <extensions>
          <ns3:TrackPointExtension>
            <ns3:atemp>18.0</ns3:atemp>
            <ns3:hr>122</ns3:hr>
          </ns3:TrackPointExtension>
        </extensions>
      </trkpt>
      <trkpt lat="-22.07293155603110790252685546875" lon="166.446682512760162353515625">
        <ele>861</ele>
        <time>2016-08-12T22:24:50.000Z</time>
        <extensions>
          <ns3:TrackPointExtension>
            <ns3:atemp>18.0</ns3:atemp>
            <ns3:hr>122</ns3:hr>
          </ns3:TrackPointExtension>
        </extensions>
      </trkpt>
      <trkpt lat="-22.07295544445514678955078125" lon="166.44666365347802639007568359375">
        <ele>861</ele>
        <time>2016-08-12T22:24:51.000Z</time>
        <extensions>
          <ns3:TrackPointExtension>
            <ns3:atemp>18.0</ns3:atemp>
            <ns3:hr>123</ns3:hr>
          </ns3:TrackPointExtension>
        </extensions>
      </trkpt>
      <trkpt lat="-22.07297715358436107635498046875" lon="166.44664420746266841888427734375">
        <ele>860</ele>
        <time>2016-08-12T22:24:52.000Z</time>
        <extensions>
          <ns3:TrackPointExtension>
            <ns3:atemp>18.0</ns3:atemp>
            <ns3:hr>124</ns3:hr>
          </ns3:TrackPointExtension>
        </extensions>
      </trkpt>
      <trkpt lat="-22.07299978472292423248291015625" lon="166.4466240070760250091552734375">
        <ele>860.20001220703125</ele>
        <time>2016-08-12T22:24:53.000Z</time>
        <extensions>
          <ns3:TrackPointExtension>
            <ns3:atemp>18.0</ns3:atemp>
            <ns3:hr>125</ns3:hr>
          </ns3:TrackPointExtension>
        </extensions>
      </trkpt>
      <trkpt lat="-22.07302392460405826568603515625" lon="166.44660271704196929931640625">
        <ele>860.5999755859375</ele>
        <time>2016-08-12T22:24:54.000Z</time>
        <extensions>
          <ns3:TrackPointExtension>
            <ns3:atemp>18.0</ns3:atemp>
            <ns3:hr>125</ns3:hr>
          </ns3:TrackPointExtension>
        </extensions>
      </trkpt>
      <trkpt lat="-22.07304303534328937530517578125" lon="166.446578241884708404541015625">
        <ele>861</ele>
        <time>2016-08-12T22:24:55.000Z</time>
        <extensions>
          <ns3:TrackPointExtension>
            <ns3:atemp>18.0</ns3:atemp>
            <ns3:hr>126</ns3:hr>
          </ns3:TrackPointExtension>
        </extensions>
      </trkpt>
      <trkpt lat="-22.07305862568318843841552734375" lon="166.44655401818454265594482421875">
        <ele>860.5999755859375</ele>
        <time>2016-08-12T22:24:56.000Z</time>
        <extensions>
          <ns3:TrackPointExtension>
            <ns3:atemp>18.0</ns3:atemp>
            <ns3:hr>127</ns3:hr>
          </ns3:TrackPointExtension>
        </extensions>
      </trkpt>
      <trkpt lat="-22.07306784577667713165283203125" lon="166.44652669318020343780517578125">
        <ele>860.20001220703125</ele>
        <time>2016-08-12T22:24:57.000Z</time>
        <extensions>
          <ns3:TrackPointExtension>
            <ns3:atemp>18.0</ns3:atemp>
            <ns3:hr>127</ns3:hr>
          </ns3:TrackPointExtension>
        </extensions>
      </trkpt>
      <trkpt lat="-22.0730722881853580474853515625" lon="166.44649274647235870361328125">
        <ele>858.79998779296875</ele>
        <time>2016-08-12T22:24:58.000Z</time>
        <extensions>
          <ns3:TrackPointExtension>
            <ns3:atemp>18.0</ns3:atemp>
            <ns3:hr>127</ns3:hr>
          </ns3:TrackPointExtension>
        </extensions>
      </trkpt>
      <trkpt lat="-22.0730796642601490020751953125" lon="166.44646483473479747772216796875">
        <ele>858.79998779296875</ele>
        <time>2016-08-12T22:24:59.000Z</time>
        <extensions>
          <ns3:TrackPointExtension>
            <ns3:atemp>18.0</ns3:atemp>
            <ns3:hr>128</ns3:hr>
          </ns3:TrackPointExtension>
        </extensions>
      </trkpt>
      <trkpt lat="-22.0730863697826862335205078125" lon="166.44643851555883884429931640625">
        <ele>858.5999755859375</ele>
        <time>2016-08-12T22:25:00.000Z</time>
        <extensions>
          <ns3:TrackPointExtension>
            <ns3:atemp>18.0</ns3:atemp>
            <ns3:hr>128</ns3:hr>
          </ns3:TrackPointExtension>
        </extensions>
      </trkpt>
      <trkpt lat="-22.07308762706816196441650390625" lon="166.44640884362161159515380859375">
        <ele>858</ele>
        <time>2016-08-12T22:25:01.000Z</time>
        <extensions>
          <ns3:TrackPointExtension>
            <ns3:atemp>18.0</ns3:atemp>
            <ns3:hr>128</ns3:hr>
          </ns3:TrackPointExtension>
        </extensions>
      </trkpt>
      <trkpt lat="-22.07308427430689334869384765625" lon="166.44638068042695522308349609375">
        <ele>858</ele>
        <time>2016-08-12T22:25:02.000Z</time>
        <extensions>
          <ns3:TrackPointExtension>
            <ns3:atemp>18.0</ns3:atemp>
            <ns3:hr>129</ns3:hr>
          </ns3:TrackPointExtension>
        </extensions>
      </trkpt>
      <trkpt lat="-22.0730823464691638946533203125" lon="166.44635193049907684326171875">
        <ele>858</ele>
        <time>2016-08-12T22:25:03.000Z</time>
        <extensions>
          <ns3:TrackPointExtension>
            <ns3:atemp>18.0</ns3:atemp>
            <ns3:hr>129</ns3:hr>
          </ns3:TrackPointExtension>
        </extensions>
      </trkpt>
      <trkpt lat="-22.07308259792625904083251953125" lon="166.4463232643902301788330078125">
        <ele>858.20001220703125</ele>
        <time>2016-08-12T22:25:04.000Z</time>
        <extensions>
          <ns3:TrackPointExtension>
            <ns3:atemp>18.0</ns3:atemp>
            <ns3:hr>129</ns3:hr>
          </ns3:TrackPointExtension>
        </extensions>
      </trkpt>
      <trkpt lat="-22.07308075390756130218505859375" lon="166.4462954364717006683349609375">
        <ele>858.4000244140625</ele>
        <time>2016-08-12T22:25:05.000Z</time>
        <extensions>
          <ns3:TrackPointExtension>
            <ns3:atemp>18.0</ns3:atemp>
            <ns3:hr>128</ns3:hr>
          </ns3:TrackPointExtension>
        </extensions>
      </trkpt>
      <trkpt lat="-22.07308460958302021026611328125" lon="166.4462654292583465576171875">
        <ele>858.4000244140625</ele>
        <time>2016-08-12T22:25:06.000Z</time>
        <extensions>
          <ns3:TrackPointExtension>
            <ns3:atemp>18.0</ns3:atemp>
            <ns3:hr>129</ns3:hr>
          </ns3:TrackPointExtension>
        </extensions>
      </trkpt>
      <trkpt lat="-22.07308947108685970306396484375" lon="166.4462350867688655853271484375">
        <ele>857.20001220703125</ele>
        <time>2016-08-12T22:25:07.000Z</time>
        <extensions>
          <ns3:TrackPointExtension>
            <ns3:atemp>18.0</ns3:atemp>
            <ns3:hr>128</ns3:hr>
          </ns3:TrackPointExtension>
        </extensions>
      </trkpt>
      <trkpt lat="-22.07309684716165065765380859375" lon="166.4462089352309703826904296875">
        <ele>856.20001220703125</ele>
        <time>2016-08-12T22:25:08.000Z</time>
        <extensions>
          <ns3:TrackPointExtension>
            <ns3:atemp>18.0</ns3:atemp>
            <ns3:hr>128</ns3:hr>
          </ns3:TrackPointExtension>
        </extensions>
      </trkpt>
      <trkpt lat="-22.07311562262475490570068359375" lon="166.44618890248239040374755859375">
        <ele>856.4000244140625</ele>
        <time>2016-08-12T22:25:09.000Z</time>
        <extensions>
          <ns3:TrackPointExtension>
            <ns3:atemp>18.0</ns3:atemp>
            <ns3:hr>128</ns3:hr>
          </ns3:TrackPointExtension>
        </extensions>
      </trkpt>
      <trkpt lat="-22.07312920130789279937744140625" lon="166.44617113284766674041748046875">
        <ele>856</ele>
        <time>2016-08-12T22:25:10.000Z</time>
        <extensions>
          <ns3:TrackPointExtension>
            <ns3:atemp>18.0</ns3:atemp>
            <ns3:hr>128</ns3:hr>
          </ns3:TrackPointExtension>
        </extensions>
      </trkpt>
      <trkpt lat="-22.07314512692391872406005859375" lon="166.44615503959357738494873046875">
        <ele>855.79998779296875</ele>
        <time>2016-08-12T22:25:11.000Z</time>
        <extensions>
          <ns3:TrackPointExtension>
            <ns3:atemp>18.0</ns3:atemp>
            <ns3:hr>128</ns3:hr>
          </ns3:TrackPointExtension>
        </extensions>
      </trkpt>
      <trkpt lat="-22.0731608010828495025634765625" lon="166.4461412094533443450927734375">
        <ele>855.5999755859375</ele>
        <time>2016-08-12T22:25:12.000Z</time>
        <extensions>
          <ns3:TrackPointExtension>
            <ns3:atemp>18.0</ns3:atemp>
            <ns3:hr>128</ns3:hr>
          </ns3:TrackPointExtension>
        </extensions>
      </trkpt>
      <trkpt lat="-22.07317563705146312713623046875" lon="166.446124278008937835693359375">
        <ele>855.5999755859375</ele>
        <time>2016-08-12T22:25:13.000Z</time>
        <extensions>
          <ns3:TrackPointExtension>
            <ns3:atemp>18.0</ns3:atemp>
            <ns3:hr>128</ns3:hr>
          </ns3:TrackPointExtension>
        </extensions>
      </trkpt>
      <trkpt lat="-22.0731889642775058746337890625" lon="166.4461046643555164337158203125">
        <ele>855.79998779296875</ele>
        <time>2016-08-12T22:25:14.000Z</time>
        <extensions>
          <ns3:TrackPointExtension>
            <ns3:atemp>18.0</ns3:atemp>
            <ns3:hr>127</ns3:hr>
          </ns3:TrackPointExtension>
        </extensions>
      </trkpt>
      <trkpt lat="-22.0731993578374385833740234375" lon="166.446082033216953277587890625">
        <ele>856.4000244140625</ele>
        <time>2016-08-12T22:25:15.000Z</time>
        <extensions>
          <ns3:TrackPointExtension>
            <ns3:atemp>18.0</ns3:atemp>
            <ns3:hr>127</ns3:hr>
          </ns3:TrackPointExtension>
        </extensions>
      </trkpt>
      <trkpt lat="-22.07321100868284702301025390625" lon="166.44606166519224643707275390625">
        <ele>856.5999755859375</ele>
        <time>2016-08-12T22:25:16.000Z</time>
        <extensions>
          <ns3:TrackPointExtension>
            <ns3:atemp>18.0</ns3:atemp>
            <ns3:hr>127</ns3:hr>
          </ns3:TrackPointExtension>
        </extensions>
      </trkpt>
      <trkpt lat="-22.0732255093753337860107421875" lon="166.446044147014617919921875">
        <ele>856.20001220703125</ele>
        <time>2016-08-12T22:25:17.000Z</time>
        <extensions>
          <ns3:TrackPointExtension>
            <ns3:atemp>18.0</ns3:atemp>
            <ns3:hr>127</ns3:hr>
          </ns3:TrackPointExtension>
        </extensions>
      </trkpt>
      <trkpt lat="-22.07323632203042507171630859375" lon="166.446023024618625640869140625">
        <ele>856</ele>
        <time>2016-08-12T22:25:18.000Z</time>
        <extensions>
          <ns3:TrackPointExtension>
            <ns3:atemp>18.0</ns3:atemp>
            <ns3:hr>127</ns3:hr>
          </ns3:TrackPointExtension>
        </extensions>
      </trkpt>
      <trkpt lat="-22.07324981689453125" lon="166.44600366242229938507080078125">
        <ele>855.4000244140625</ele>
        <time>2016-08-12T22:25:19.000Z</time>
        <extensions>
          <ns3:TrackPointExtension>
            <ns3:atemp>18.0</ns3:atemp>
            <ns3:hr>127</ns3:hr>
          </ns3:TrackPointExtension>
        </extensions>
      </trkpt>
      <trkpt lat="-22.07326834090054035186767578125" lon="166.445985473692417144775390625">
        <ele>853.79998779296875</ele>
        <time>2016-08-12T22:25:20.000Z</time>
        <extensions>
          <ns3:TrackPointExtension>
            <ns3:atemp>18.0</ns3:atemp>
            <ns3:hr>127</ns3:hr>
          </ns3:TrackPointExtension>
        </extensions>
      </trkpt>
      <trkpt lat="-22.07328644581139087677001953125" lon="166.44596435129642486572265625">
        <ele>853.20001220703125</ele>
        <time>2016-08-12T22:25:21.000Z</time>
        <extensions>
          <ns3:TrackPointExtension>
            <ns3:atemp>18.0</ns3:atemp>
            <ns3:hr>126</ns3:hr>
          </ns3:TrackPointExtension>
        </extensions>
      </trkpt>
      <trkpt lat="-22.0733016170561313629150390625" lon="166.445940546691417694091796875">
        <ele>853.4000244140625</ele>
        <time>2016-08-12T22:25:22.000Z</time>
        <extensions>
          <ns3:TrackPointExtension>
            <ns3:atemp>18.0</ns3:atemp>
            <ns3:hr>127</ns3:hr>
          </ns3:TrackPointExtension>
        </extensions>
      </trkpt>
      <trkpt lat="-22.073312513530254364013671875" lon="166.4459135569632053375244140625">
        <ele>852</ele>
        <time>2016-08-12T22:25:23.000Z</time>
        <extensions>
          <ns3:TrackPointExtension>
            <ns3:atemp>18.0</ns3:atemp>
            <ns3:hr>127</ns3:hr>
          </ns3:TrackPointExtension>
        </extensions>
      </trkpt>
      <trkpt lat="-22.07332131452858448028564453125" lon="166.44588924944400787353515625">
        <ele>851.20001220703125</ele>
        <time>2016-08-12T22:25:24.000Z</time>
        <extensions>
          <ns3:TrackPointExtension>
            <ns3:atemp>18.0</ns3:atemp>
            <ns3:hr>127</ns3:hr>
          </ns3:TrackPointExtension>
        </extensions>
      </trkpt>
      <trkpt lat="-22.073318548500537872314453125" lon="166.44586066715419292449951171875">
        <ele>851.5999755859375</ele>
        <time>2016-08-12T22:25:25.000Z</time>
        <extensions>
          <ns3:TrackPointExtension>
            <ns3:atemp>18.0</ns3:atemp>
            <ns3:hr>127</ns3:hr>
          </ns3:TrackPointExtension>
        </extensions>
      </trkpt>
      <trkpt lat="-22.07332919351756572723388671875" lon="166.44583267159759998321533203125">
        <ele>851.5999755859375</ele>
        <time>2016-08-12T22:25:26.000Z</time>
        <extensions>
          <ns3:TrackPointExtension>
            <ns3:atemp>18.0</ns3:atemp>
            <ns3:hr>127</ns3:hr>
          </ns3:TrackPointExtension>
        </extensions>
      </trkpt>
      <trkpt lat="-22.07334461621940135955810546875" lon="166.445808112621307373046875">
        <ele>850.79998779296875</ele>
        <time>2016-08-12T22:25:27.000Z</time>
        <extensions>
          <ns3:TrackPointExtension>
            <ns3:atemp>18.0</ns3:atemp>
            <ns3:hr>127</ns3:hr>
          </ns3:TrackPointExtension>
        </extensions>
      </trkpt>
      <trkpt lat="-22.07334578968584537506103515625" lon="166.4457767643034458160400390625">
        <ele>851.4000244140625</ele>
        <time>2016-08-12T22:25:28.000Z</time>
        <extensions>
          <ns3:TrackPointExtension>
            <ns3:atemp>18.0</ns3:atemp>
            <ns3:hr>128</ns3:hr>
          </ns3:TrackPointExtension>
        </extensions>
      </trkpt>
      <trkpt lat="-22.07335584796965122222900390625" lon="166.44574684090912342071533203125">
        <ele>851.5999755859375</ele>
        <time>2016-08-12T22:25:29.000Z</time>
        <extensions>
          <ns3:TrackPointExtension>
            <ns3:atemp>18.0</ns3:atemp>
            <ns3:hr>128</ns3:hr>
          </ns3:TrackPointExtension>
        </extensions>
      </trkpt>
      <trkpt lat="-22.07336557097733020782470703125" lon="166.445719934999942779541015625">
        <ele>850.4000244140625</ele>
        <time>2016-08-12T22:25:30.000Z</time>
        <extensions>
          <ns3:TrackPointExtension>
            <ns3:atemp>18.0</ns3:atemp>
            <ns3:hr>128</ns3:hr>
          </ns3:TrackPointExtension>
        </extensions>
      </trkpt>
      <trkpt lat="-22.07337118685245513916015625" lon="166.44569076597690582275390625">
        <ele>850</ele>
        <time>2016-08-12T22:25:31.000Z</time>
        <extensions>
          <ns3:TrackPointExtension>
            <ns3:atemp>18.0</ns3:atemp>
            <ns3:hr>128</ns3:hr>
          </ns3:TrackPointExtension>
        </extensions>
      </trkpt>
      <trkpt lat="-22.07338954322040081024169921875" lon="166.44566738046705722808837890625">
        <ele>851.4000244140625</ele>
        <time>2016-08-12T22:25:32.000Z</time>
        <extensions>
          <ns3:TrackPointExtension>
            <ns3:atemp>18.0</ns3:atemp>
            <ns3:hr>128</ns3:hr>
          </ns3:TrackPointExtension>
        </extensions>
      </trkpt>
      <trkpt lat="-22.07339859567582607269287109375" lon="166.4456429891288280487060546875">
        <ele>850.20001220703125</ele>
        <time>2016-08-12T22:25:33.000Z</time>
        <extensions>
          <ns3:TrackPointExtension>
            <ns3:atemp>18.0</ns3:atemp>
            <ns3:hr>128</ns3:hr>
          </ns3:TrackPointExtension>
        </extensions>
      </trkpt>
      <trkpt lat="-22.07341217435896396636962890625" lon="166.44561767578125">
        <ele>849.20001220703125</ele>
        <time>2016-08-12T22:25:34.000Z</time>
        <extensions>
          <ns3:TrackPointExtension>
            <ns3:atemp>18.0</ns3:atemp>
            <ns3:hr>128</ns3:hr>
          </ns3:TrackPointExtension>
        </extensions>
      </trkpt>
      <trkpt lat="-22.07342910580337047576904296875" lon="166.44559479318559169769287109375">
        <ele>850.4000244140625</ele>
        <time>2016-08-12T22:25:35.000Z</time>
        <extensions>
          <ns3:TrackPointExtension>
            <ns3:atemp>18.0</ns3:atemp>
            <ns3:hr>129</ns3:hr>
          </ns3:TrackPointExtension>
        </extensions>
      </trkpt>
      <trkpt lat="-22.0734565146267414093017578125" lon="166.44557652063667774200439453125">
        <ele>850.5999755859375</ele>
        <time>2016-08-12T22:25:36.000Z</time>
        <extensions>
          <ns3:TrackPointExtension>
            <ns3:atemp>18.0</ns3:atemp>
            <ns3:hr>129</ns3:hr>
          </ns3:TrackPointExtension>
        </extensions>
      </trkpt>
      <trkpt lat="-22.073477469384670257568359375" lon="166.44555573351681232452392578125">
        <ele>849.5999755859375</ele>
        <time>2016-08-12T22:25:37.000Z</time>
        <extensions>
          <ns3:TrackPointExtension>
            <ns3:atemp>18.0</ns3:atemp>
            <ns3:hr>128</ns3:hr>
          </ns3:TrackPointExtension>
        </extensions>
      </trkpt>
      <trkpt lat="-22.07348861731588840484619140625" lon="166.44553829915821552276611328125">
        <ele>850.5999755859375</ele>
        <time>2016-08-12T22:25:38.000Z</time>
        <extensions>
          <ns3:TrackPointExtension>
            <ns3:atemp>18.0</ns3:atemp>
            <ns3:hr>128</ns3:hr>
          </ns3:TrackPointExtension>
        </extensions>
      </trkpt>
      <trkpt lat="-22.07350806333124637603759765625" lon="166.445524133741855621337890625">
        <ele>850.5999755859375</ele>
        <time>2016-08-12T22:25:39.000Z</time>
        <extensions>
          <ns3:TrackPointExtension>
            <ns3:atemp>18.0</ns3:atemp>
            <ns3:hr>128</ns3:hr>
          </ns3:TrackPointExtension>
        </extensions>
      </trkpt>
      <trkpt lat="-22.0735193789005279541015625" lon="166.44551105797290802001953125">
        <ele>849</ele>
        <time>2016-08-12T22:25:40.000Z</time>
        <extensions>
          <ns3:TrackPointExtension>
            <ns3:atemp>18.0</ns3:atemp>
            <ns3:hr>128</ns3:hr>
          </ns3:TrackPointExtension>
        </extensions>
      </trkpt>
      <trkpt lat="-22.07353689707815647125244140625" lon="166.44549764692783355712890625">
        <ele>848.5999755859375</ele>
        <time>2016-08-12T22:25:41.000Z</time>
        <extensions>
          <ns3:TrackPointExtension>
            <ns3:atemp>18.0</ns3:atemp>
            <ns3:hr>128</ns3:hr>
          </ns3:TrackPointExtension>
        </extensions>
      </trkpt>
      <trkpt lat="-22.07355684600770473480224609375" lon="166.445484571158885955810546875">
        <ele>849.4000244140625</ele>
        <time>2016-08-12T22:25:42.000Z</time>
        <extensions>
          <ns3:TrackPointExtension>
            <ns3:atemp>18.0</ns3:atemp>
            <ns3:hr>128</ns3:hr>
          </ns3:TrackPointExtension>
        </extensions>
      </trkpt>
      <trkpt lat="-22.07357344217598438262939453125" lon="166.445473842322826385498046875">
        <ele>849</ele>
        <time>2016-08-12T22:25:43.000Z</time>
        <extensions>
          <ns3:TrackPointExtension>
            <ns3:atemp>18.0</ns3:atemp>
            <ns3:hr>128</ns3:hr>
          </ns3:TrackPointExtension>
        </extensions>
      </trkpt>
      <trkpt lat="-22.07359707914292812347412109375" lon="166.44546906463801860809326171875">
        <ele>847.79998779296875</ele>
        <time>2016-08-12T22:25:44.000Z</time>
        <extensions>
          <ns3:TrackPointExtension>
            <ns3:atemp>18.0</ns3:atemp>
            <ns3:hr>128</ns3:hr>
          </ns3:TrackPointExtension>
        </extensions>
      </trkpt>
      <trkpt lat="-22.07362524233758449554443359375" lon="166.4454652927815914154052734375">
        <ele>848</ele>
        <time>2016-08-12T22:25:45.000Z</time>
        <extensions>
          <ns3:TrackPointExtension>
            <ns3:atemp>18.0</ns3:atemp>
            <ns3:hr>128</ns3:hr>
          </ns3:TrackPointExtension>
        </extensions>
      </trkpt>
      <trkpt lat="-22.07365013659000396728515625" lon="166.44545598886907100677490234375">
        <ele>848.5999755859375</ele>
        <time>2016-08-12T22:25:46.000Z</time>
        <extensions>
          <ns3:TrackPointExtension>
            <ns3:atemp>18.0</ns3:atemp>
            <ns3:hr>128</ns3:hr>
          </ns3:TrackPointExtension>
        </extensions>
      </trkpt>
      <trkpt lat="-22.07367486320436000823974609375" lon="166.44543402828276157379150390625">
        <ele>848</ele>
        <time>2016-08-12T22:25:47.000Z</time>
        <extensions>
          <ns3:TrackPointExtension>
            <ns3:atemp>18.0</ns3:atemp>
            <ns3:hr>128</ns3:hr>
          </ns3:TrackPointExtension>
        </extensions>
      </trkpt>
      <trkpt lat="-22.073698081076145172119140625" lon="166.4454124867916107177734375">
        <ele>847.4000244140625</ele>
        <time>2016-08-12T22:25:48.000Z</time>
        <extensions>
          <ns3:TrackPointExtension>
            <ns3:atemp>18.0</ns3:atemp>
            <ns3:hr>128</ns3:hr>
          </ns3:TrackPointExtension>
        </extensions>
      </trkpt>
      <trkpt lat="-22.07372046075761318206787109375" lon="166.44539161585271358489990234375">
        <ele>848</ele>
        <time>2016-08-12T22:25:49.000Z</time>
        <extensions>
          <ns3:TrackPointExtension>
            <ns3:atemp>18.0</ns3:atemp>
            <ns3:hr>129</ns3:hr>
          </ns3:TrackPointExtension>
        </extensions>
      </trkpt>
      <trkpt lat="-22.07374007441103458404541015625" lon="166.44536630250513553619384765625">
        <ele>848.20001220703125</ele>
        <time>2016-08-12T22:25:50.000Z</time>
        <extensions>
          <ns3:TrackPointExtension>
            <ns3:atemp>18.0</ns3:atemp>
            <ns3:hr>129</ns3:hr>
          </ns3:TrackPointExtension>
        </extensions>
      </trkpt>
      <trkpt lat="-22.07376052625477313995361328125" lon="166.44534937106072902679443359375">
        <ele>847.20001220703125</ele>
        <time>2016-08-12T22:25:51.000Z</time>
        <extensions>
          <ns3:TrackPointExtension>
            <ns3:atemp>18.0</ns3:atemp>
            <ns3:hr>129</ns3:hr>
          </ns3:TrackPointExtension>
        </extensions>
      </trkpt>
      <trkpt lat="-22.07378433085978031158447265625" lon="166.445336379110813140869140625">
        <ele>846.79998779296875</ele>
        <time>2016-08-12T22:25:52.000Z</time>
        <extensions>
          <ns3:TrackPointExtension>
            <ns3:atemp>18.0</ns3:atemp>
            <ns3:hr>129</ns3:hr>
          </ns3:TrackPointExtension>
        </extensions>
      </trkpt>
      <trkpt lat="-22.073809392750263214111328125" lon="166.44532137550413608551025390625">
        <ele>848</ele>
        <time>2016-08-12T22:25:53.000Z</time>
        <extensions>
          <ns3:TrackPointExtension>
            <ns3:atemp>18.0</ns3:atemp>
            <ns3:hr>128</ns3:hr>
          </ns3:TrackPointExtension>
        </extensions>
      </trkpt>
      <trkpt lat="-22.0738316886126995086669921875" lon="166.4453050307929515838623046875">
        <ele>848</ele>
        <time>2016-08-12T22:25:54.000Z</time>
        <extensions>
          <ns3:TrackPointExtension>
            <ns3:atemp>18.0</ns3:atemp>
            <ns3:hr>129</ns3:hr>
          </ns3:TrackPointExtension>
        </extensions>
      </trkpt>
      <trkpt lat="-22.07385658286511898040771484375" lon="166.44528684206306934356689453125">
        <ele>847</ele>
        <time>2016-08-12T22:25:55.000Z</time>
        <extensions>
          <ns3:TrackPointExtension>
            <ns3:atemp>18.0</ns3:atemp>
            <ns3:hr>129</ns3:hr>
          </ns3:TrackPointExtension>
        </extensions>
      </trkpt>
      <trkpt lat="-22.07388038747012615203857421875" lon="166.4452738501131534576416015625">
        <ele>846.4000244140625</ele>
        <time>2016-08-12T22:25:56.000Z</time>
        <extensions>
          <ns3:TrackPointExtension>
            <ns3:atemp>18.0</ns3:atemp>
            <ns3:hr>129</ns3:hr>
          </ns3:TrackPointExtension>
        </extensions>
      </trkpt>
      <trkpt lat="-22.0739037729799747467041015625" lon="166.44526052288711071014404296875">
        <ele>847.20001220703125</ele>
        <time>2016-08-12T22:25:57.000Z</time>
        <extensions>
          <ns3:TrackPointExtension>
            <ns3:atemp>18.0</ns3:atemp>
            <ns3:hr>129</ns3:hr>
          </ns3:TrackPointExtension>
        </extensions>
      </trkpt>
      <trkpt lat="-22.07393042743206024169921875" lon="166.445251218974590301513671875">
        <ele>847.20001220703125</ele>
        <time>2016-08-12T22:25:58.000Z</time>
        <extensions>
          <ns3:TrackPointExtension>
            <ns3:atemp>18.0</ns3:atemp>
            <ns3:hr>129</ns3:hr>
          </ns3:TrackPointExtension>
        </extensions>
      </trkpt>
      <trkpt lat="-22.07395582459867000579833984375" lon="166.44524057395756244659423828125">
        <ele>847</ele>
        <time>2016-08-12T22:25:59.000Z</time>
        <extensions>
          <ns3:TrackPointExtension>
            <ns3:atemp>18.0</ns3:atemp>
            <ns3:hr>129</ns3:hr>
          </ns3:TrackPointExtension>
        </extensions>
      </trkpt>
      <trkpt lat="-22.07398398779332637786865234375" lon="166.44523185677826404571533203125">
        <ele>847</ele>
        <time>2016-08-12T22:26:00.000Z</time>
        <extensions>
          <ns3:TrackPointExtension>
            <ns3:atemp>18.0</ns3:atemp>
            <ns3:hr>129</ns3:hr>
          </ns3:TrackPointExtension>
        </extensions>
      </trkpt>
      <trkpt lat="-22.07400955259799957275390625" lon="166.44522163085639476776123046875">
        <ele>847.4000244140625</ele>
        <time>2016-08-12T22:26:01.000Z</time>
        <extensions>
          <ns3:TrackPointExtension>
            <ns3:atemp>18.0</ns3:atemp>
            <ns3:hr>129</ns3:hr>
          </ns3:TrackPointExtension>
        </extensions>
      </trkpt>
      <trkpt lat="-22.074028663337230682373046875" lon="166.44520754925906658172607421875">
        <ele>846.5999755859375</ele>
        <time>2016-08-12T22:26:02.000Z</time>
        <extensions>
          <ns3:TrackPointExtension>
            <ns3:atemp>18.0</ns3:atemp>
            <ns3:hr>129</ns3:hr>
          </ns3:TrackPointExtension>
        </extensions>
      </trkpt>
      <trkpt lat="-22.074051797389984130859375" lon="166.44519866444170475006103515625">
        <ele>846.20001220703125</ele>
        <time>2016-08-12T22:26:03.000Z</time>
        <extensions>
          <ns3:TrackPointExtension>
            <ns3:atemp>18.0</ns3:atemp>
            <ns3:hr>130</ns3:hr>
          </ns3:TrackPointExtension>
        </extensions>
      </trkpt>
      <trkpt lat="-22.0740764401853084564208984375" lon="166.4451917074620723724365234375">
        <ele>847</ele>
        <time>2016-08-12T22:26:04.000Z</time>
        <extensions>
          <ns3:TrackPointExtension>
            <ns3:atemp>18.0</ns3:atemp>
            <ns3:hr>130</ns3:hr>
          </ns3:TrackPointExtension>
        </extensions>
      </trkpt>
      <trkpt lat="-22.074097730219364166259765625" lon="166.44518424756824970245361328125">
        <ele>846.20001220703125</ele>
        <time>2016-08-12T22:26:05.000Z</time>
        <extensions>
          <ns3:TrackPointExtension>
            <ns3:atemp>18.0</ns3:atemp>
            <ns3:hr>130</ns3:hr>
          </ns3:TrackPointExtension>
        </extensions>
      </trkpt>
      <trkpt lat="-22.07412044517695903778076171875" lon="166.44517485983669757843017578125">
        <ele>845.5999755859375</ele>
        <time>2016-08-12T22:26:06.000Z</time>
        <extensions>
          <ns3:TrackPointExtension>
            <ns3:atemp>18.0</ns3:atemp>
            <ns3:hr>130</ns3:hr>
          </ns3:TrackPointExtension>
        </extensions>
      </trkpt>
      <trkpt lat="-22.0741411484777927398681640625" lon="166.44516698084771633148193359375">
        <ele>846.20001220703125</ele>
        <time>2016-08-12T22:26:07.000Z</time>
        <extensions>
          <ns3:TrackPointExtension>
            <ns3:atemp>18.0</ns3:atemp>
            <ns3:hr>130</ns3:hr>
          </ns3:TrackPointExtension>
        </extensions>
      </trkpt>
      <trkpt lat="-22.07416377961635589599609375" lon="166.44516429863870143890380859375">
        <ele>845.20001220703125</ele>
        <time>2016-08-12T22:26:08.000Z</time>
        <extensions>
          <ns3:TrackPointExtension>
            <ns3:atemp>18.0</ns3:atemp>
            <ns3:hr>130</ns3:hr>
          </ns3:TrackPointExtension>
        </extensions>
      </trkpt>
      <trkpt lat="-22.0741864107549190521240234375" lon="166.44514820538461208343505859375">
        <ele>844.5999755859375</ele>
        <time>2016-08-12T22:26:09.000Z</time>
        <extensions>
          <ns3:TrackPointExtension>
            <ns3:atemp>18.0</ns3:atemp>
            <ns3:hr>130</ns3:hr>
          </ns3:TrackPointExtension>
        </extensions>
      </trkpt>
      <trkpt lat="-22.07421046681702136993408203125" lon="166.44513630308210849761962890625">
        <ele>844.79998779296875</ele>
        <time>2016-08-12T22:26:10.000Z</time>
        <extensions>
          <ns3:TrackPointExtension>
            <ns3:atemp>18.0</ns3:atemp>
            <ns3:hr>130</ns3:hr>
          </ns3:TrackPointExtension>
        </extensions>
      </trkpt>
      <trkpt lat="-22.07423460669815540313720703125" lon="166.44512490369379520416259765625">
        <ele>844.79998779296875</ele>
        <time>2016-08-12T22:26:11.000Z</time>
        <extensions>
          <ns3:TrackPointExtension>
            <ns3:atemp>18.0</ns3:atemp>
            <ns3:hr>130</ns3:hr>
          </ns3:TrackPointExtension>
        </extensions>
      </trkpt>
      <trkpt lat="-22.074256651103496551513671875" lon="166.44510378129780292510986328125">
        <ele>844.79998779296875</ele>
        <time>2016-08-12T22:26:12.000Z</time>
        <extensions>
          <ns3:TrackPointExtension>
            <ns3:atemp>18.0</ns3:atemp>
            <ns3:hr>130</ns3:hr>
          </ns3:TrackPointExtension>
        </extensions>
      </trkpt>
      <trkpt lat="-22.07428070716559886932373046875" lon="166.44509137608110904693603515625">
        <ele>845.20001220703125</ele>
        <time>2016-08-12T22:26:13.000Z</time>
        <extensions>
          <ns3:TrackPointExtension>
            <ns3:atemp>18.0</ns3:atemp>
            <ns3:hr>130</ns3:hr>
          </ns3:TrackPointExtension>
        </extensions>
      </trkpt>
      <trkpt lat="-22.07430568523705005645751953125" lon="166.445082239806652069091796875">
        <ele>844.79998779296875</ele>
        <time>2016-08-12T22:26:14.000Z</time>
        <extensions>
          <ns3:TrackPointExtension>
            <ns3:atemp>18.0</ns3:atemp>
            <ns3:hr>130</ns3:hr>
          </ns3:TrackPointExtension>
        </extensions>
      </trkpt>
      <trkpt lat="-22.07432814873754978179931640625" lon="166.4450750313699245452880859375">
        <ele>844.4000244140625</ele>
        <time>2016-08-12T22:26:15.000Z</time>
        <extensions>
          <ns3:TrackPointExtension>
            <ns3:atemp>18.0</ns3:atemp>
            <ns3:hr>130</ns3:hr>
          </ns3:TrackPointExtension>
        </extensions>
      </trkpt>
      <trkpt lat="-22.07435178570449352264404296875" lon="166.445071510970592498779296875">
        <ele>844</ele>
        <time>2016-08-12T22:26:16.000Z</time>
        <extensions>
          <ns3:TrackPointExtension>
            <ns3:atemp>18.0</ns3:atemp>
            <ns3:hr>131</ns3:hr>
          </ns3:TrackPointExtension>
        </extensions>
      </trkpt>
      <trkpt lat="-22.07437341101467609405517578125" lon="166.4450679905712604522705078125">
        <ele>843.79998779296875</ele>
        <time>2016-08-12T22:26:17.000Z</time>
        <extensions>
          <ns3:TrackPointExtension>
            <ns3:atemp>18.0</ns3:atemp>
            <ns3:hr>131</ns3:hr>
          </ns3:TrackPointExtension>
        </extensions>
      </trkpt>
      <trkpt lat="-22.074396125972270965576171875" lon="166.4450700022280216217041015625">
        <ele>843.79998779296875</ele>
        <time>2016-08-12T22:26:18.000Z</time>
        <extensions>
          <ns3:TrackPointExtension>
            <ns3:atemp>18.0</ns3:atemp>
            <ns3:hr>131</ns3:hr>
          </ns3:TrackPointExtension>
        </extensions>
      </trkpt>
      <trkpt lat="-22.07441749982535839080810546875" lon="166.44507159478962421417236328125">
        <ele>843.4000244140625</ele>
        <time>2016-08-12T22:26:19.000Z</time>
        <extensions>
          <ns3:TrackPointExtension>
            <ns3:atemp>18.0</ns3:atemp>
            <ns3:hr>131</ns3:hr>
          </ns3:TrackPointExtension>
        </extensions>
      </trkpt>
      <trkpt lat="-22.07443627528846263885498046875" lon="166.4450706727802753448486328125">
        <ele>843.20001220703125</ele>
        <time>2016-08-12T22:26:20.000Z</time>
        <extensions>
          <ns3:TrackPointExtension>
            <ns3:atemp>18.0</ns3:atemp>
            <ns3:hr>131</ns3:hr>
          </ns3:TrackPointExtension>
        </extensions>
      </trkpt>
      <trkpt lat="-22.0744569785892963409423828125" lon="166.4450716786086559295654296875">
        <ele>843.4000244140625</ele>
        <time>2016-08-12T22:26:21.000Z</time>
        <extensions>
          <ns3:TrackPointExtension>
            <ns3:atemp>18.0</ns3:atemp>
            <ns3:hr>131</ns3:hr>
          </ns3:TrackPointExtension>
        </extensions>
      </trkpt>
      <trkpt lat="-22.07447625696659088134765625" lon="166.44507628865540027618408203125">
        <ele>843.20001220703125</ele>
        <time>2016-08-12T22:26:22.000Z</time>
        <extensions>
          <ns3:TrackPointExtension>
            <ns3:atemp>18.0</ns3:atemp>
            <ns3:hr>130</ns3:hr>
          </ns3:TrackPointExtension>
        </extensions>
      </trkpt>
      <trkpt lat="-22.0744908414781093597412109375" lon="166.44508517347276210784912109375">
        <ele>842.4000244140625</ele>
        <time>2016-08-12T22:26:23.000Z</time>
        <extensions>
          <ns3:TrackPointExtension>
            <ns3:atemp>18.0</ns3:atemp>
            <ns3:hr>131</ns3:hr>
          </ns3:TrackPointExtension>
        </extensions>
      </trkpt>
      <trkpt lat="-22.07451456226408481597900390625" lon="166.44509799778461456298828125">
        <ele>842</ele>
        <time>2016-08-12T22:26:24.000Z</time>
        <extensions>
          <ns3:TrackPointExtension>
            <ns3:atemp>18.0</ns3:atemp>
            <ns3:hr>130</ns3:hr>
          </ns3:TrackPointExtension>
        </extensions>
      </trkpt>
      <trkpt lat="-22.07452881149947643280029296875" lon="166.44511015154421329498291015625">
        <ele>840.5999755859375</ele>
        <time>2016-08-12T22:26:25.000Z</time>
        <extensions>
          <ns3:TrackPointExtension>
            <ns3:atemp>18.0</ns3:atemp>
            <ns3:hr>131</ns3:hr>
          </ns3:TrackPointExtension>
        </extensions>
      </trkpt>
      <trkpt lat="-22.0745451562106609344482421875" lon="166.4451239816844463348388671875">
        <ele>839.79998779296875</ele>
        <time>2016-08-12T22:26:26.000Z</time>
        <extensions>
          <ns3:TrackPointExtension>
            <ns3:atemp>18.0</ns3:atemp>
            <ns3:hr>130</ns3:hr>
          </ns3:TrackPointExtension>
        </extensions>
      </trkpt>
      <trkpt lat="-22.07456653006374835968017578125" lon="166.44514217041432857513427734375">
        <ele>840.20001220703125</ele>
        <time>2016-08-12T22:26:27.000Z</time>
        <extensions>
          <ns3:TrackPointExtension>
            <ns3:atemp>18.0</ns3:atemp>
            <ns3:hr>130</ns3:hr>
          </ns3:TrackPointExtension>
        </extensions>
      </trkpt>
      <trkpt lat="-22.0745817013084888458251953125" lon="166.4451524801552295684814453125">
        <ele>839.79998779296875</ele>
        <time>2016-08-12T22:26:28.000Z</time>
        <extensions>
          <ns3:TrackPointExtension>
            <ns3:atemp>18.0</ns3:atemp>
            <ns3:hr>130</ns3:hr>
          </ns3:TrackPointExtension>
        </extensions>
      </trkpt>
      <trkpt lat="-22.0745957829058170318603515625" lon="166.4451628737151622772216796875">
        <ele>838.79998779296875</ele>
        <time>2016-08-12T22:26:29.000Z</time>
        <extensions>
          <ns3:TrackPointExtension>
            <ns3:atemp>18.0</ns3:atemp>
            <ns3:hr>130</ns3:hr>
          </ns3:TrackPointExtension>
        </extensions>
      </trkpt>
      <trkpt lat="-22.07460676319897174835205078125" lon="166.4451756142079830169677734375">
        <ele>839.5999755859375</ele>
        <time>2016-08-12T22:26:30.000Z</time>
        <extensions>
          <ns3:TrackPointExtension>
            <ns3:atemp>18.0</ns3:atemp>
            <ns3:hr>130</ns3:hr>
          </ns3:TrackPointExtension>
        </extensions>
      </trkpt>
      <trkpt lat="-22.07462151534855365753173828125" lon="166.44518692977726459503173828125">
        <ele>840.20001220703125</ele>
        <time>2016-08-12T22:26:31.000Z</time>
        <extensions>
          <ns3:TrackPointExtension>
            <ns3:atemp>18.0</ns3:atemp>
            <ns3:hr>129</ns3:hr>
          </ns3:TrackPointExtension>
        </extensions>
      </trkpt>
      <trkpt lat="-22.0746407099068164825439453125" lon="166.4451994188129901885986328125">
        <ele>839.5999755859375</ele>
        <time>2016-08-12T22:26:32.000Z</time>
        <extensions>
          <ns3:TrackPointExtension>
            <ns3:atemp>18.0</ns3:atemp>
            <ns3:hr>129</ns3:hr>
          </ns3:TrackPointExtension>
        </extensions>
      </trkpt>
      <trkpt lat="-22.07466065883636474609375" lon="166.44521492533385753631591796875">
        <ele>839.5999755859375</ele>
        <time>2016-08-12T22:26:33.000Z</time>
        <extensions>
          <ns3:TrackPointExtension>
            <ns3:atemp>18.0</ns3:atemp>
            <ns3:hr>129</ns3:hr>
          </ns3:TrackPointExtension>
        </extensions>
      </trkpt>
      <trkpt lat="-22.07468002103269100189208984375" lon="166.44522716291248798370361328125">
        <ele>839.79998779296875</ele>
        <time>2016-08-12T22:26:34.000Z</time>
        <extensions>
          <ns3:TrackPointExtension>
            <ns3:atemp>18.0</ns3:atemp>
            <ns3:hr>129</ns3:hr>
          </ns3:TrackPointExtension>
        </extensions>
      </trkpt>
      <trkpt lat="-22.07470365799963474273681640625" lon="166.44523705355823040008544921875">
        <ele>839.4000244140625</ele>
        <time>2016-08-12T22:26:35.000Z</time>
        <extensions>
          <ns3:TrackPointExtension>
            <ns3:atemp>18.0</ns3:atemp>
            <ns3:hr>129</ns3:hr>
          </ns3:TrackPointExtension>
        </extensions>
      </trkpt>
      <trkpt lat="-22.07472461275756359100341796875" lon="166.4452446810901165008544921875">
        <ele>839.5999755859375</ele>
        <time>2016-08-12T22:26:36.000Z</time>
        <extensions>
          <ns3:TrackPointExtension>
            <ns3:atemp>18.0</ns3:atemp>
            <ns3:hr>129</ns3:hr>
          </ns3:TrackPointExtension>
        </extensions>
      </trkpt>
      <trkpt lat="-22.07474640570580959320068359375" lon="166.44525364972651004791259765625">
        <ele>840.4000244140625</ele>
        <time>2016-08-12T22:26:37.000Z</time>
        <extensions>
          <ns3:TrackPointExtension>
            <ns3:atemp>18.0</ns3:atemp>
            <ns3:hr>129</ns3:hr>
          </ns3:TrackPointExtension>
        </extensions>
      </trkpt>
      <trkpt lat="-22.07477104850113391876220703125" lon="166.4452577568590641021728515625">
        <ele>839.79998779296875</ele>
        <time>2016-08-12T22:26:38.000Z</time>
        <extensions>
          <ns3:TrackPointExtension>
            <ns3:atemp>18.0</ns3:atemp>
            <ns3:hr>128</ns3:hr>
          </ns3:TrackPointExtension>
        </extensions>
      </trkpt>
      <trkpt lat="-22.0747932605445384979248046875" lon="166.44526161253452301025390625">
        <ele>839.4000244140625</ele>
        <time>2016-08-12T22:26:39.000Z</time>
        <extensions>
          <ns3:TrackPointExtension>
            <ns3:atemp>18.0</ns3:atemp>
            <ns3:hr>129</ns3:hr>
          </ns3:TrackPointExtension>
        </extensions>
      </trkpt>
      <trkpt lat="-22.07481555640697479248046875" lon="166.44526295363903045654296875">
        <ele>839.20001220703125</ele>
        <time>2016-08-12T22:26:40.000Z</time>
        <extensions>
          <ns3:TrackPointExtension>
            <ns3:atemp>18.0</ns3:atemp>
            <ns3:hr>128</ns3:hr>
          </ns3:TrackPointExtension>
        </extensions>
      </trkpt>
      <trkpt lat="-22.07484313286840915679931640625" lon="166.44526706077158451080322265625">
        <ele>839</ele>
        <time>2016-08-12T22:26:41.000Z</time>
        <extensions>
          <ns3:TrackPointExtension>
            <ns3:atemp>18.0</ns3:atemp>
            <ns3:hr>128</ns3:hr>
          </ns3:TrackPointExtension>
        </extensions>
      </trkpt>
      <trkpt lat="-22.07486978732049465179443359375" lon="166.44527108408510684967041015625">
        <ele>838.79998779296875</ele>
        <time>2016-08-12T22:26:42.000Z</time>
        <extensions>
          <ns3:TrackPointExtension>
            <ns3:atemp>18.0</ns3:atemp>
            <ns3:hr>128</ns3:hr>
          </ns3:TrackPointExtension>
        </extensions>
      </trkpt>
      <trkpt lat="-22.07489476539194583892822265625" lon="166.44527435302734375">
        <ele>839</ele>
        <time>2016-08-12T22:26:43.000Z</time>
        <extensions>
          <ns3:TrackPointExtension>
            <ns3:atemp>18.0</ns3:atemp>
            <ns3:hr>128</ns3:hr>
          </ns3:TrackPointExtension>
        </extensions>
      </trkpt>
      <trkpt lat="-22.07491907291114330291748046875" lon="166.44527644850313663482666015625">
        <ele>839</ele>
        <time>2016-08-12T22:26:44.000Z</time>
        <extensions>
          <ns3:TrackPointExtension>
            <ns3:atemp>18.0</ns3:atemp>
            <ns3:hr>128</ns3:hr>
          </ns3:TrackPointExtension>
        </extensions>
      </trkpt>
      <trkpt lat="-22.074942626059055328369140625" lon="166.44527770578861236572265625">
        <ele>838.79998779296875</ele>
        <time>2016-08-12T22:26:45.000Z</time>
        <extensions>
          <ns3:TrackPointExtension>
            <ns3:atemp>18.0</ns3:atemp>
            <ns3:hr>128</ns3:hr>
          </ns3:TrackPointExtension>
        </extensions>
      </trkpt>
      <trkpt lat="-22.07496584393084049224853515625" lon="166.4452808909118175506591796875">
        <ele>839</ele>
        <time>2016-08-12T22:26:46.000Z</time>
        <extensions>
          <ns3:TrackPointExtension>
            <ns3:atemp>18.0</ns3:atemp>
            <ns3:hr>128</ns3:hr>
          </ns3:TrackPointExtension>
        </extensions>
      </trkpt>
      <trkpt lat="-22.07498830743134021759033203125" lon="166.44528365693986415863037109375">
        <ele>839.4000244140625</ele>
        <time>2016-08-12T22:26:47.000Z</time>
        <extensions>
          <ns3:TrackPointExtension>
            <ns3:atemp>18.0</ns3:atemp>
            <ns3:hr>127</ns3:hr>
          </ns3:TrackPointExtension>
        </extensions>
      </trkpt>
      <trkpt lat="-22.0750080049037933349609375" lon="166.4452845789492130279541015625">
        <ele>839.4000244140625</ele>
        <time>2016-08-12T22:26:48.000Z</time>
        <extensions>
          <ns3:TrackPointExtension>
            <ns3:atemp>18.0</ns3:atemp>
            <ns3:hr>127</ns3:hr>
          </ns3:TrackPointExtension>
        </extensions>
      </trkpt>
      <trkpt lat="-22.07502468489110469818115234375" lon="166.4452899433672428131103515625">
        <ele>839.20001220703125</ele>
        <time>2016-08-12T22:26:49.000Z</time>
        <extensions>
          <ns3:TrackPointExtension>
            <ns3:atemp>18.0</ns3:atemp>
            <ns3:hr>127</ns3:hr>
          </ns3:TrackPointExtension>
        </extensions>
      </trkpt>
      <trkpt lat="-22.0750443823635578155517578125" lon="166.44529807381331920623779296875">
        <ele>839</ele>
        <time>2016-08-12T22:26:50.000Z</time>
        <extensions>
          <ns3:TrackPointExtension>
            <ns3:atemp>18.0</ns3:atemp>
            <ns3:hr>127</ns3:hr>
          </ns3:TrackPointExtension>
        </extensions>
      </trkpt>
      <trkpt lat="-22.07506340928375720977783203125" lon="166.44530243240296840667724609375">
        <ele>839</ele>
        <time>2016-08-12T22:26:51.000Z</time>
        <extensions>
          <ns3:TrackPointExtension>
            <ns3:atemp>18.0</ns3:atemp>
            <ns3:hr>127</ns3:hr>
          </ns3:TrackPointExtension>
        </extensions>
      </trkpt>
      <trkpt lat="-22.07508453167974948883056640625" lon="166.44530561752617359161376953125">
        <ele>838.4000244140625</ele>
        <time>2016-08-12T22:26:52.000Z</time>
        <extensions>
          <ns3:TrackPointExtension>
            <ns3:atemp>18.0</ns3:atemp>
            <ns3:hr>127</ns3:hr>
          </ns3:TrackPointExtension>
        </extensions>
      </trkpt>
      <trkpt lat="-22.07510925829410552978515625" lon="166.44530729390680789947509765625">
        <ele>837.4000244140625</ele>
        <time>2016-08-12T22:26:53.000Z</time>
        <extensions>
          <ns3:TrackPointExtension>
            <ns3:atemp>18.0</ns3:atemp>
            <ns3:hr>127</ns3:hr>
          </ns3:TrackPointExtension>
        </extensions>
      </trkpt>
      <trkpt lat="-22.0751295424997806549072265625" lon="166.4453053660690784454345703125">
        <ele>836.79998779296875</ele>
        <time>2016-08-12T22:26:54.000Z</time>
        <extensions>
          <ns3:TrackPointExtension>
            <ns3:atemp>18.0</ns3:atemp>
            <ns3:hr>127</ns3:hr>
          </ns3:TrackPointExtension>
        </extensions>
      </trkpt>
      <trkpt lat="-22.0751503296196460723876953125" lon="166.4453065395355224609375">
        <ele>836.79998779296875</ele>
        <time>2016-08-12T22:26:55.000Z</time>
        <extensions>
          <ns3:TrackPointExtension>
            <ns3:atemp>18.0</ns3:atemp>
            <ns3:hr>127</ns3:hr>
          </ns3:TrackPointExtension>
        </extensions>
      </trkpt>
      <trkpt lat="-22.07516818307340145111083984375" lon="166.4453107304871082305908203125">
        <ele>836.5999755859375</ele>
        <time>2016-08-12T22:26:56.000Z</time>
        <extensions>
          <ns3:TrackPointExtension>
            <ns3:atemp>18.0</ns3:atemp>
            <ns3:hr>126</ns3:hr>
          </ns3:TrackPointExtension>
        </extensions>
      </trkpt>
      <trkpt lat="-22.07518578507006168365478515625" lon="166.44531668163836002349853515625">
        <ele>836.20001220703125</ele>
        <time>2016-08-12T22:26:57.000Z</time>
        <extensions>
          <ns3:TrackPointExtension>
            <ns3:atemp>18.0</ns3:atemp>
            <ns3:hr>127</ns3:hr>
          </ns3:TrackPointExtension>
        </extensions>
      </trkpt>
      <trkpt lat="-22.07520640455186367034912109375" lon="166.44532741047441959381103515625">
        <ele>835.5999755859375</ele>
        <time>2016-08-12T22:26:58.000Z</time>
        <extensions>
          <ns3:TrackPointExtension>
            <ns3:atemp>18.0</ns3:atemp>
            <ns3:hr>127</ns3:hr>
          </ns3:TrackPointExtension>
        </extensions>
      </trkpt>
      <trkpt lat="-22.07522417418658733367919921875" lon="166.4453305117785930633544921875">
        <ele>834.79998779296875</ele>
        <time>2016-08-12T22:26:59.000Z</time>
        <extensions>
          <ns3:TrackPointExtension>
            <ns3:atemp>18.0</ns3:atemp>
            <ns3:hr>127</ns3:hr>
          </ns3:TrackPointExtension>
        </extensions>
      </trkpt>
      <trkpt lat="-22.0752421952784061431884765625" lon="166.44533176906406879425048828125">
        <ele>835</ele>
        <time>2016-08-12T22:27:00.000Z</time>
        <extensions>
          <ns3:TrackPointExtension>
            <ns3:atemp>18.0</ns3:atemp>
            <ns3:hr>127</ns3:hr>
          </ns3:TrackPointExtension>
        </extensions>
      </trkpt>
      <trkpt lat="-22.07525853998959064483642578125" lon="166.4453288353979587554931640625">
        <ele>835</ele>
        <time>2016-08-12T22:27:01.000Z</time>
        <extensions>
          <ns3:TrackPointExtension>
            <ns3:atemp>18.0</ns3:atemp>
            <ns3:hr>127</ns3:hr>
          </ns3:TrackPointExtension>
        </extensions>
      </trkpt>
      <trkpt lat="-22.07527957856655120849609375" lon="166.44531953148543834686279296875">
        <ele>834.4000244140625</ele>
        <time>2016-08-12T22:27:02.000Z</time>
        <extensions>
          <ns3:TrackPointExtension>
            <ns3:atemp>18.0</ns3:atemp>
            <ns3:hr>127</ns3:hr>
          </ns3:TrackPointExtension>
        </extensions>
      </trkpt>
      <trkpt lat="-22.07530229352414608001708984375" lon="166.4453090541064739227294921875">
        <ele>834</ele>
        <time>2016-08-12T22:27:03.000Z</time>
        <extensions>
          <ns3:TrackPointExtension>
            <ns3:atemp>18.0</ns3:atemp>
            <ns3:hr>127</ns3:hr>
          </ns3:TrackPointExtension>
        </extensions>
      </trkpt>
      <trkpt lat="-22.07532693631947040557861328125" lon="166.4452929608523845672607421875">
        <ele>833.5999755859375</ele>
        <time>2016-08-12T22:27:04.000Z</time>
        <extensions>
          <ns3:TrackPointExtension>
            <ns3:atemp>18.0</ns3:atemp>
            <ns3:hr>127</ns3:hr>
          </ns3:TrackPointExtension>
        </extensions>
      </trkpt>
      <trkpt lat="-22.0753508247435092926025390625" lon="166.445281393826007843017578125">
        <ele>833</ele>
        <time>2016-08-12T22:27:05.000Z</time>
        <extensions>
          <ns3:TrackPointExtension>
            <ns3:atemp>18.0</ns3:atemp>
            <ns3:hr>127</ns3:hr>
          </ns3:TrackPointExtension>
        </extensions>
      </trkpt>
      <trkpt lat="-22.07537747919559478759765625" lon="166.44527007825672626495361328125">
        <ele>832.79998779296875</ele>
        <time>2016-08-12T22:27:06.000Z</time>
        <extensions>
          <ns3:TrackPointExtension>
            <ns3:atemp>18.0</ns3:atemp>
            <ns3:hr>127</ns3:hr>
          </ns3:TrackPointExtension>
        </extensions>
      </trkpt>
      <trkpt lat="-22.07539717666804790496826171875" lon="166.44525046460330486297607421875">
        <ele>832.20001220703125</ele>
        <time>2016-08-12T22:27:07.000Z</time>
        <extensions>
          <ns3:TrackPointExtension>
            <ns3:atemp>18.0</ns3:atemp>
            <ns3:hr>127</ns3:hr>
          </ns3:TrackPointExtension>
        </extensions>
      </trkpt>
      <trkpt lat="-22.07541762851178646087646484375" lon="166.44523613154888153076171875">
        <ele>831.79998779296875</ele>
        <time>2016-08-12T22:27:08.000Z</time>
        <extensions>
          <ns3:TrackPointExtension>
            <ns3:atemp>18.0</ns3:atemp>
            <ns3:hr>128</ns3:hr>
          </ns3:TrackPointExtension>
        </extensions>
      </trkpt>
      <trkpt lat="-22.07543942146003246307373046875" lon="166.4452232234179973602294921875">
        <ele>831.5999755859375</ele>
        <time>2016-08-12T22:27:09.000Z</time>
        <extensions>
          <ns3:TrackPointExtension>
            <ns3:atemp>18.0</ns3:atemp>
            <ns3:hr>128</ns3:hr>
          </ns3:TrackPointExtension>
        </extensions>
      </trkpt>
      <trkpt lat="-22.0754604600369930267333984375" lon="166.4452171884477138519287109375">
        <ele>831.20001220703125</ele>
        <time>2016-08-12T22:27:10.000Z</time>
        <extensions>
          <ns3:TrackPointExtension>
            <ns3:atemp>18.0</ns3:atemp>
            <ns3:hr>128</ns3:hr>
          </ns3:TrackPointExtension>
        </extensions>
      </trkpt>
      <trkpt lat="-22.07548300735652446746826171875" lon="166.44521492533385753631591796875">
        <ele>831</ele>
        <time>2016-08-12T22:27:11.000Z</time>
        <extensions>
          <ns3:TrackPointExtension>
            <ns3:atemp>18.0</ns3:atemp>
            <ns3:hr>127</ns3:hr>
          </ns3:TrackPointExtension>
        </extensions>
      </trkpt>
      <trkpt lat="-22.07550563849508762359619140625" lon="166.445207633078098297119140625">
        <ele>831</ele>
        <time>2016-08-12T22:27:12.000Z</time>
        <extensions>
          <ns3:TrackPointExtension>
            <ns3:atemp>18.0</ns3:atemp>
            <ns3:hr>127</ns3:hr>
          </ns3:TrackPointExtension>
        </extensions>
      </trkpt>
      <trkpt lat="-22.0755310356616973876953125" lon="166.4452047832310199737548828125">
        <ele>831</ele>
        <time>2016-08-12T22:27:13.000Z</time>
        <extensions>
          <ns3:TrackPointExtension>
            <ns3:atemp>18.0</ns3:atemp>
            <ns3:hr>127</ns3:hr>
          </ns3:TrackPointExtension>
        </extensions>
      </trkpt>
      <trkpt lat="-22.075551487505435943603515625" lon="166.445198915898799896240234375">
        <ele>831</ele>
        <time>2016-08-12T22:27:14.000Z</time>
        <extensions>
          <ns3:TrackPointExtension>
            <ns3:atemp>18.0</ns3:atemp>
            <ns3:hr>127</ns3:hr>
          </ns3:TrackPointExtension>
        </extensions>
      </trkpt>
      <trkpt lat="-22.07557369954884052276611328125" lon="166.44519581459462642669677734375">
        <ele>830.5999755859375</ele>
        <time>2016-08-12T22:27:15.000Z</time>
        <extensions>
          <ns3:TrackPointExtension>
            <ns3:atemp>18.0</ns3:atemp>
            <ns3:hr>127</ns3:hr>
          </ns3:TrackPointExtension>
        </extensions>
      </trkpt>
      <trkpt lat="-22.07559406757354736328125" lon="166.4451990835368633270263671875">
        <ele>830.20001220703125</ele>
        <time>2016-08-12T22:27:16.000Z</time>
        <extensions>
          <ns3:TrackPointExtension>
            <ns3:atemp>18.0</ns3:atemp>
            <ns3:hr>127</ns3:hr>
          </ns3:TrackPointExtension>
        </extensions>
      </trkpt>
      <trkpt lat="-22.075613178312778472900390625" lon="166.4452057890594005584716796875">
        <ele>830</ele>
        <time>2016-08-12T22:27:17.000Z</time>
        <extensions>
          <ns3:TrackPointExtension>
            <ns3:atemp>18.0</ns3:atemp>
            <ns3:hr>127</ns3:hr>
          </ns3:TrackPointExtension>
        </extensions>
      </trkpt>
      <trkpt lat="-22.07563086412847042083740234375" lon="166.44521425478160381317138671875">
        <ele>829.79998779296875</ele>
        <time>2016-08-12T22:27:18.000Z</time>
        <extensions>
          <ns3:TrackPointExtension>
            <ns3:atemp>18.0</ns3:atemp>
            <ns3:hr>127</ns3:hr>
          </ns3:TrackPointExtension>
        </extensions>
      </trkpt>
      <trkpt lat="-22.0756488852202892303466796875" lon="166.44522313959896564483642578125">
        <ele>829.5999755859375</ele>
        <time>2016-08-12T22:27:19.000Z</time>
        <extensions>
          <ns3:TrackPointExtension>
            <ns3:atemp>18.0</ns3:atemp>
            <ns3:hr>127</ns3:hr>
          </ns3:TrackPointExtension>
        </extensions>
      </trkpt>
      <trkpt lat="-22.0756703428924083709716796875" lon="166.44523504190146923065185546875">
        <ele>829.4000244140625</ele>
        <time>2016-08-12T22:27:20.000Z</time>
        <extensions>
          <ns3:TrackPointExtension>
            <ns3:atemp>18.0</ns3:atemp>
            <ns3:hr>127</ns3:hr>
          </ns3:TrackPointExtension>
        </extensions>
      </trkpt>
      <trkpt lat="-22.0756874419748783111572265625" lon="166.44524845294654369354248046875">
        <ele>829</ele>
        <time>2016-08-12T22:27:21.000Z</time>
        <extensions>
          <ns3:TrackPointExtension>
            <ns3:atemp>18.0</ns3:atemp>
            <ns3:hr>127</ns3:hr>
          </ns3:TrackPointExtension>
        </extensions>
      </trkpt>
      <trkpt lat="-22.07570604979991912841796875" lon="166.44525825977325439453125">
        <ele>828.79998779296875</ele>
        <time>2016-08-12T22:27:22.000Z</time>
        <extensions>
          <ns3:TrackPointExtension>
            <ns3:atemp>18.0</ns3:atemp>
            <ns3:hr>126</ns3:hr>
          </ns3:TrackPointExtension>
        </extensions>
      </trkpt>
      <trkpt lat="-22.0757196284830570220947265625" lon="166.4452596008777618408203125">
        <ele>828.5999755859375</ele>
        <time>2016-08-12T22:27:23.000Z</time>
        <extensions>
          <ns3:TrackPointExtension>
            <ns3:atemp>18.0</ns3:atemp>
            <ns3:hr>127</ns3:hr>
          </ns3:TrackPointExtension>
        </extensions>
      </trkpt>
      <trkpt lat="-22.07573547028005123138427734375" lon="166.44526823423802852630615234375">
        <ele>828.20001220703125</ele>
        <time>2016-08-12T22:27:24.000Z</time>
        <extensions>
          <ns3:TrackPointExtension>
            <ns3:atemp>18.0</ns3:atemp>
            <ns3:hr>126</ns3:hr>
          </ns3:TrackPointExtension>
        </extensions>
      </trkpt>
      <trkpt lat="-22.07575877197086811065673828125" lon="166.445277035236358642578125">
        <ele>828</ele>
        <time>2016-08-12T22:27:25.000Z</time>
        <extensions>
          <ns3:TrackPointExtension>
            <ns3:atemp>18.0</ns3:atemp>
            <ns3:hr>127</ns3:hr>
          </ns3:TrackPointExtension>
        </extensions>
      </trkpt>
      <trkpt lat="-22.07577888853847980499267578125" lon="166.44528667442500591278076171875">
        <ele>827.4000244140625</ele>
        <time>2016-08-12T22:27:26.000Z</time>
        <extensions>
          <ns3:TrackPointExtension>
            <ns3:atemp>18.0</ns3:atemp>
            <ns3:hr>126</ns3:hr>
          </ns3:TrackPointExtension>
        </extensions>
      </trkpt>
      <trkpt lat="-22.0758057944476604461669921875" lon="166.44529438577592372894287109375">
        <ele>827.5999755859375</ele>
        <time>2016-08-12T22:27:27.000Z</time>
        <extensions>
          <ns3:TrackPointExtension>
            <ns3:atemp>18.0</ns3:atemp>
            <ns3:hr>126</ns3:hr>
          </ns3:TrackPointExtension>
        </extensions>
      </trkpt>
      <trkpt lat="-22.075817696750164031982421875" lon="166.44530779682099819183349609375">
        <ele>827.4000244140625</ele>
        <time>2016-08-12T22:27:28.000Z</time>
        <extensions>
          <ns3:TrackPointExtension>
            <ns3:atemp>18.0</ns3:atemp>
            <ns3:hr>127</ns3:hr>
          </ns3:TrackPointExtension>
        </extensions>
      </trkpt>
      <trkpt lat="-22.07582917995750904083251953125" lon="166.44532104022800922393798828125">
        <ele>826.79998779296875</ele>
        <time>2016-08-12T22:27:29.000Z</time>
        <extensions>
          <ns3:TrackPointExtension>
            <ns3:atemp>18.0</ns3:atemp>
            <ns3:hr>126</ns3:hr>
          </ns3:TrackPointExtension>
        </extensions>
      </trkpt>
      <trkpt lat="-22.075847201049327850341796875" lon="166.4453298412263393402099609375">
        <ele>826.5999755859375</ele>
        <time>2016-08-12T22:27:30.000Z</time>
        <extensions>
          <ns3:TrackPointExtension>
            <ns3:atemp>18.0</ns3:atemp>
            <ns3:hr>126</ns3:hr>
          </ns3:TrackPointExtension>
        </extensions>
      </trkpt>
      <trkpt lat="-22.0758621208369731903076171875" lon="166.44533931277692317962646484375">
        <ele>826.4000244140625</ele>
        <time>2016-08-12T22:27:31.000Z</time>
        <extensions>
          <ns3:TrackPointExtension>
            <ns3:atemp>18.0</ns3:atemp>
            <ns3:hr>126</ns3:hr>
          </ns3:TrackPointExtension>
        </extensions>
      </trkpt>
      <trkpt lat="-22.07588349469006061553955078125" lon="166.4453492872416973114013671875">
        <ele>826</ele>
        <time>2016-08-12T22:27:32.000Z</time>
        <extensions>
          <ns3:TrackPointExtension>
            <ns3:atemp>18.0</ns3:atemp>
            <ns3:hr>126</ns3:hr>
          </ns3:TrackPointExtension>
        </extensions>
      </trkpt>
      <trkpt lat="-22.07590076141059398651123046875" lon="166.445359848439693450927734375">
        <ele>826</ele>
        <time>2016-08-12T22:27:33.000Z</time>
        <extensions>
          <ns3:TrackPointExtension>
            <ns3:atemp>18.0</ns3:atemp>
            <ns3:hr>127</ns3:hr>
          </ns3:TrackPointExtension>
        </extensions>
      </trkpt>
      <trkpt lat="-22.07590629346668720245361328125" lon="166.4453704096376895904541015625">
        <ele>826.20001220703125</ele>
        <time>2016-08-12T22:27:34.000Z</time>
        <extensions>
          <ns3:TrackPointExtension>
            <ns3:atemp>18.0</ns3:atemp>
            <ns3:hr>126</ns3:hr>
          </ns3:TrackPointExtension>
        </extensions>
      </trkpt>
      <trkpt lat="-22.0759274996817111968994140625" lon="166.44537937827408313751220703125">
        <ele>826.20001220703125</ele>
        <time>2016-08-12T22:27:35.000Z</time>
        <extensions>
          <ns3:TrackPointExtension>
            <ns3:atemp>18.0</ns3:atemp>
            <ns3:hr>126</ns3:hr>
          </ns3:TrackPointExtension>
        </extensions>
      </trkpt>
      <trkpt lat="-22.0759425871074199676513671875" lon="166.4453841559588909149169921875">
        <ele>826</ele>
        <time>2016-08-12T22:27:36.000Z</time>
        <extensions>
          <ns3:TrackPointExtension>
            <ns3:atemp>18.0</ns3:atemp>
            <ns3:hr>126</ns3:hr>
          </ns3:TrackPointExtension>
        </extensions>
      </trkpt>
      <trkpt lat="-22.07596261985599994659423828125" lon="166.4453925378620624542236328125">
        <ele>825.4000244140625</ele>
        <time>2016-08-12T22:27:37.000Z</time>
        <extensions>
          <ns3:TrackPointExtension>
            <ns3:atemp>18.0</ns3:atemp>
            <ns3:hr>127</ns3:hr>
          </ns3:TrackPointExtension>
        </extensions>
      </trkpt>
      <trkpt lat="-22.0759870111942291259765625" lon="166.4454012550413608551025390625">
        <ele>825</ele>
        <time>2016-08-12T22:27:38.000Z</time>
        <extensions>
          <ns3:TrackPointExtension>
            <ns3:atemp>18.0</ns3:atemp>
            <ns3:hr>126</ns3:hr>
          </ns3:TrackPointExtension>
        </extensions>
      </trkpt>
      <trkpt lat="-22.0760072953999042510986328125" lon="166.44540284760296344757080078125">
        <ele>825</ele>
        <time>2016-08-12T22:27:39.000Z</time>
        <extensions>
          <ns3:TrackPointExtension>
            <ns3:atemp>18.0</ns3:atemp>
            <ns3:hr>126</ns3:hr>
          </ns3:TrackPointExtension>
        </extensions>
      </trkpt>
      <trkpt lat="-22.0760304294526576995849609375" lon="166.4454089663922786712646484375">
        <ele>824.79998779296875</ele>
        <time>2016-08-12T22:27:40.000Z</time>
        <extensions>
          <ns3:TrackPointExtension>
            <ns3:atemp>18.0</ns3:atemp>
            <ns3:hr>126</ns3:hr>
          </ns3:TrackPointExtension>
        </extensions>
      </trkpt>
      <trkpt lat="-22.07605297677218914031982421875" lon="166.44541592337191104888916015625">
        <ele>824.79998779296875</ele>
        <time>2016-08-12T22:27:41.000Z</time>
        <extensions>
          <ns3:TrackPointExtension>
            <ns3:atemp>18.0</ns3:atemp>
            <ns3:hr>126</ns3:hr>
          </ns3:TrackPointExtension>
        </extensions>
      </trkpt>
      <trkpt lat="-22.07607091404497623443603515625" lon="166.44542464055120944976806640625">
        <ele>825</ele>
        <time>2016-08-12T22:27:42.000Z</time>
        <extensions>
          <ns3:TrackPointExtension>
            <ns3:atemp>18.0</ns3:atemp>
            <ns3:hr>126</ns3:hr>
          </ns3:TrackPointExtension>
        </extensions>
      </trkpt>
      <trkpt lat="-22.0760847441852092742919921875" lon="166.44543436355888843536376953125">
        <ele>825</ele>
        <time>2016-08-12T22:27:43.000Z</time>
        <extensions>
          <ns3:TrackPointExtension>
            <ns3:atemp>18.0</ns3:atemp>
            <ns3:hr>126</ns3:hr>
          </ns3:TrackPointExtension>
        </extensions>
      </trkpt>
      <trkpt lat="-22.0761025138199329376220703125" lon="166.44544442184269428253173828125">
        <ele>824.4000244140625</ele>
        <time>2016-08-12T22:27:44.000Z</time>
        <extensions>
          <ns3:TrackPointExtension>
            <ns3:atemp>18.0</ns3:atemp>
            <ns3:hr>125</ns3:hr>
          </ns3:TrackPointExtension>
        </extensions>
      </trkpt>
      <trkpt lat="-22.07612304948270320892333984375" lon="166.4454532228410243988037109375">
        <ele>824.4000244140625</ele>
        <time>2016-08-12T22:27:45.000Z</time>
        <extensions>
          <ns3:TrackPointExtension>
            <ns3:atemp>18.0</ns3:atemp>
            <ns3:hr>125</ns3:hr>
          </ns3:TrackPointExtension>
        </extensions>
      </trkpt>
      <trkpt lat="-22.0761474408209323883056640625" lon="166.44546185620129108428955078125">
        <ele>824.4000244140625</ele>
        <time>2016-08-12T22:27:46.000Z</time>
        <extensions>
          <ns3:TrackPointExtension>
            <ns3:atemp>18.0</ns3:atemp>
            <ns3:hr>125</ns3:hr>
          </ns3:TrackPointExtension>
        </extensions>
      </trkpt>
      <trkpt lat="-22.07617099396884441375732421875" lon="166.44546956755220890045166015625">
        <ele>823.79998779296875</ele>
        <time>2016-08-12T22:27:47.000Z</time>
        <extensions>
          <ns3:TrackPointExtension>
            <ns3:atemp>18.0</ns3:atemp>
            <ns3:hr>126</ns3:hr>
          </ns3:TrackPointExtension>
        </extensions>
      </trkpt>
      <trkpt lat="-22.0761920325458049774169921875" lon="166.445479206740856170654296875">
        <ele>823.4000244140625</ele>
        <time>2016-08-12T22:27:48.000Z</time>
        <extensions>
          <ns3:TrackPointExtension>
            <ns3:atemp>18.0</ns3:atemp>
            <ns3:hr>126</ns3:hr>
          </ns3:TrackPointExtension>
        </extensions>
      </trkpt>
      <trkpt lat="-22.07621474750339984893798828125" lon="166.44549488089978694915771484375">
        <ele>823.5999755859375</ele>
        <time>2016-08-12T22:27:49.000Z</time>
        <extensions>
          <ns3:TrackPointExtension>
            <ns3:atemp>18.0</ns3:atemp>
            <ns3:hr>126</ns3:hr>
          </ns3:TrackPointExtension>
        </extensions>
      </trkpt>
      <trkpt lat="-22.0762376300990581512451171875" lon="166.44550594501197338104248046875">
        <ele>822.5999755859375</ele>
        <time>2016-08-12T22:27:50.000Z</time>
        <extensions>
          <ns3:TrackPointExtension>
            <ns3:atemp>18.0</ns3:atemp>
            <ns3:hr>126</ns3:hr>
          </ns3:TrackPointExtension>
        </extensions>
      </trkpt>
      <trkpt lat="-22.07624576054513454437255859375" lon="166.445520780980587005615234375">
        <ele>822.20001220703125</ele>
        <time>2016-08-12T22:27:51.000Z</time>
        <extensions>
          <ns3:TrackPointExtension>
            <ns3:atemp>18.0</ns3:atemp>
            <ns3:hr>126</ns3:hr>
          </ns3:TrackPointExtension>
        </extensions>
      </trkpt>
      <trkpt lat="-22.076260931789875030517578125" lon="166.44553477875888347625732421875">
        <ele>823</ele>
        <time>2016-08-12T22:27:52.000Z</time>
        <extensions>
          <ns3:TrackPointExtension>
            <ns3:atemp>18.0</ns3:atemp>
            <ns3:hr>126</ns3:hr>
          </ns3:TrackPointExtension>
        </extensions>
      </trkpt>
      <trkpt lat="-22.07628046162426471710205078125" lon="166.44555489532649517059326171875">
        <ele>823</ele>
        <time>2016-08-12T22:27:53.000Z</time>
        <extensions>
          <ns3:TrackPointExtension>
            <ns3:atemp>18.0</ns3:atemp>
            <ns3:hr>126</ns3:hr>
          </ns3:TrackPointExtension>
        </extensions>
      </trkpt>
      <trkpt lat="-22.076309211552143096923828125" lon="166.44557752646505832672119140625">
        <ele>822.5999755859375</ele>
        <time>2016-08-12T22:27:54.000Z</time>
        <extensions>
          <ns3:TrackPointExtension>
            <ns3:atemp>18.0</ns3:atemp>
            <ns3:hr>126</ns3:hr>
          </ns3:TrackPointExtension>
        </extensions>
      </trkpt>
      <trkpt lat="-22.07633293233811855316162109375" lon="166.44559848122298717498779296875">
        <ele>823.20001220703125</ele>
        <time>2016-08-12T22:27:55.000Z</time>
        <extensions>
          <ns3:TrackPointExtension>
            <ns3:atemp>18.0</ns3:atemp>
            <ns3:hr>126</ns3:hr>
          </ns3:TrackPointExtension>
        </extensions>
      </trkpt>
      <trkpt lat="-22.07635355181992053985595703125" lon="166.44561608321964740753173828125">
        <ele>822.79998779296875</ele>
        <time>2016-08-12T22:27:56.000Z</time>
        <extensions>
          <ns3:TrackPointExtension>
            <ns3:atemp>18.0</ns3:atemp>
            <ns3:hr>126</ns3:hr>
          </ns3:TrackPointExtension>
        </extensions>
      </trkpt>
      <trkpt lat="-22.0763774402439594268798828125" lon="166.4456346072256565093994140625">
        <ele>822</ele>
        <time>2016-08-12T22:27:57.000Z</time>
        <extensions>
          <ns3:TrackPointExtension>
            <ns3:atemp>18.0</ns3:atemp>
            <ns3:hr>126</ns3:hr>
          </ns3:TrackPointExtension>
        </extensions>
      </trkpt>
      <trkpt lat="-22.076406776905059814453125" lon="166.44565111957490444183349609375">
        <ele>822.5999755859375</ele>
        <time>2016-08-12T22:27:58.000Z</time>
        <extensions>
          <ns3:TrackPointExtension>
            <ns3:atemp>18.0</ns3:atemp>
            <ns3:hr>126</ns3:hr>
          </ns3:TrackPointExtension>
        </extensions>
      </trkpt>
      <trkpt lat="-22.07643066532909870147705078125" lon="166.44566796720027923583984375">
        <ele>822.5999755859375</ele>
        <time>2016-08-12T22:27:59.000Z</time>
        <extensions>
          <ns3:TrackPointExtension>
            <ns3:atemp>18.0</ns3:atemp>
            <ns3:hr>127</ns3:hr>
          </ns3:TrackPointExtension>
        </extensions>
      </trkpt>
      <trkpt lat="-22.07645547576248645782470703125" lon="166.44567660056054592132568359375">
        <ele>822.5999755859375</ele>
        <time>2016-08-12T22:28:00.000Z</time>
        <extensions>
          <ns3:TrackPointExtension>
            <ns3:atemp>18.0</ns3:atemp>
            <ns3:hr>126</ns3:hr>
          </ns3:TrackPointExtension>
        </extensions>
      </trkpt>
      <trkpt lat="-22.0764780230820178985595703125" lon="166.4456825517117977142333984375">
        <ele>822</ele>
        <time>2016-08-12T22:28:01.000Z</time>
        <extensions>
          <ns3:TrackPointExtension>
            <ns3:atemp>18.0</ns3:atemp>
            <ns3:hr>127</ns3:hr>
          </ns3:TrackPointExtension>
        </extensions>
      </trkpt>
      <trkpt lat="-22.0764978043735027313232421875" lon="166.44568531773984432220458984375">
        <ele>821.4000244140625</ele>
        <time>2016-08-12T22:28:02.000Z</time>
        <extensions>
          <ns3:TrackPointExtension>
            <ns3:atemp>18.0</ns3:atemp>
            <ns3:hr>127</ns3:hr>
          </ns3:TrackPointExtension>
        </extensions>
      </trkpt>
      <trkpt lat="-22.07652051933109760284423828125" lon="166.4456845633685588836669921875">
        <ele>821</ele>
        <time>2016-08-12T22:28:03.000Z</time>
        <extensions>
          <ns3:TrackPointExtension>
            <ns3:atemp>18.0</ns3:atemp>
            <ns3:hr>126</ns3:hr>
          </ns3:TrackPointExtension>
        </extensions>
      </trkpt>
      <trkpt lat="-22.0765423960983753204345703125" lon="166.4456795342266559600830078125">
        <ele>821.79998779296875</ele>
        <time>2016-08-12T22:28:04.000Z</time>
        <extensions>
          <ns3:TrackPointExtension>
            <ns3:atemp>18.0</ns3:atemp>
            <ns3:hr>127</ns3:hr>
          </ns3:TrackPointExtension>
        </extensions>
      </trkpt>
      <trkpt lat="-22.0765618421137332916259765625" lon="166.4456780254840850830078125">
        <ele>821.4000244140625</ele>
        <time>2016-08-12T22:28:05.000Z</time>
        <extensions>
          <ns3:TrackPointExtension>
            <ns3:atemp>18.0</ns3:atemp>
            <ns3:hr>126</ns3:hr>
          </ns3:TrackPointExtension>
        </extensions>
      </trkpt>
      <trkpt lat="-22.07658237777650356292724609375" lon="166.4456805400550365447998046875">
        <ele>821</ele>
        <time>2016-08-12T22:28:06.000Z</time>
        <extensions>
          <ns3:TrackPointExtension>
            <ns3:atemp>18.0</ns3:atemp>
            <ns3:hr>127</ns3:hr>
          </ns3:TrackPointExtension>
        </extensions>
      </trkpt>
      <trkpt lat="-22.07660199142992496490478515625" lon="166.445682384073734283447265625">
        <ele>821.20001220703125</ele>
        <time>2016-08-12T22:28:07.000Z</time>
        <extensions>
          <ns3:TrackPointExtension>
            <ns3:atemp>18.0</ns3:atemp>
            <ns3:hr>127</ns3:hr>
          </ns3:TrackPointExtension>
        </extensions>
      </trkpt>
      <trkpt lat="-22.07662613131105899810791015625" lon="166.4456835575401782989501953125">
        <ele>821</ele>
        <time>2016-08-12T22:28:08.000Z</time>
        <extensions>
          <ns3:TrackPointExtension>
            <ns3:atemp>18.0</ns3:atemp>
            <ns3:hr>127</ns3:hr>
          </ns3:TrackPointExtension>
        </extensions>
      </trkpt>
      <trkpt lat="-22.07664758898317813873291015625" lon="166.44568984396755695343017578125">
        <ele>820.79998779296875</ele>
        <time>2016-08-12T22:28:09.000Z</time>
        <extensions>
          <ns3:TrackPointExtension>
            <ns3:atemp>18.0</ns3:atemp>
            <ns3:hr>127</ns3:hr>
          </ns3:TrackPointExtension>
        </extensions>
      </trkpt>
      <trkpt lat="-22.07667273469269275665283203125" lon="166.4456983096897602081298828125">
        <ele>820.5999755859375</ele>
        <time>2016-08-12T22:28:10.000Z</time>
        <extensions>
          <ns3:TrackPointExtension>
            <ns3:atemp>18.0</ns3:atemp>
            <ns3:hr>126</ns3:hr>
          </ns3:TrackPointExtension>
        </extensions>
      </trkpt>
      <trkpt lat="-22.07669050432741641998291015625" lon="166.4457103796303272247314453125">
        <ele>820.5999755859375</ele>
        <time>2016-08-12T22:28:11.000Z</time>
        <extensions>
          <ns3:TrackPointExtension>
            <ns3:atemp>18.0</ns3:atemp>
            <ns3:hr>127</ns3:hr>
          </ns3:TrackPointExtension>
        </extensions>
      </trkpt>
      <trkpt lat="-22.076707184314727783203125" lon="166.44572739489376544952392578125">
        <ele>820.4000244140625</ele>
        <time>2016-08-12T22:28:12.000Z</time>
        <extensions>
          <ns3:TrackPointExtension>
            <ns3:atemp>18.0</ns3:atemp>
            <ns3:hr>127</ns3:hr>
          </ns3:TrackPointExtension>
        </extensions>
      </trkpt>
      <trkpt lat="-22.07672721706330776214599609375" lon="166.445740722119808197021484375">
        <ele>820.79998779296875</ele>
        <time>2016-08-12T22:28:13.000Z</time>
        <extensions>
          <ns3:TrackPointExtension>
            <ns3:atemp>18.0</ns3:atemp>
            <ns3:hr>127</ns3:hr>
          </ns3:TrackPointExtension>
        </extensions>
      </trkpt>
      <trkpt lat="-22.07674481905996799468994140625" lon="166.44575438462197780609130859375">
        <ele>820.79998779296875</ele>
        <time>2016-08-12T22:28:14.000Z</time>
        <extensions>
          <ns3:TrackPointExtension>
            <ns3:atemp>18.0</ns3:atemp>
            <ns3:hr>127</ns3:hr>
          </ns3:TrackPointExtension>
        </extensions>
      </trkpt>
      <trkpt lat="-22.076760493218898773193359375" lon="166.44576695747673511505126953125">
        <ele>820.79998779296875</ele>
        <time>2016-08-12T22:28:15.000Z</time>
        <extensions>
          <ns3:TrackPointExtension>
            <ns3:atemp>18.0</ns3:atemp>
            <ns3:hr>127</ns3:hr>
          </ns3:TrackPointExtension>
        </extensions>
      </trkpt>
      <trkpt lat="-22.076772563159465789794921875" lon="166.4457740820944309234619140625">
        <ele>821</ele>
        <time>2016-08-12T22:28:16.000Z</time>
        <extensions>
          <ns3:TrackPointExtension>
            <ns3:atemp>18.0</ns3:atemp>
            <ns3:hr>127</ns3:hr>
          </ns3:TrackPointExtension>
        </extensions>
      </trkpt>
      <trkpt lat="-22.0767827890813350677490234375" lon="166.44578405655920505523681640625">
        <ele>820.79998779296875</ele>
        <time>2016-08-12T22:28:17.000Z</time>
        <extensions>
          <ns3:TrackPointExtension>
            <ns3:atemp>18.0</ns3:atemp>
            <ns3:hr>127</ns3:hr>
          </ns3:TrackPointExtension>
        </extensions>
      </trkpt>
      <trkpt lat="-22.07679259590804576873779296875" lon="166.44579260610044002532958984375">
        <ele>820.20001220703125</ele>
        <time>2016-08-12T22:28:18.000Z</time>
        <extensions>
          <ns3:TrackPointExtension>
            <ns3:atemp>18.0</ns3:atemp>
            <ns3:hr>127</ns3:hr>
          </ns3:TrackPointExtension>
        </extensions>
      </trkpt>
      <trkpt lat="-22.0768055878579616546630859375" lon="166.4458066038787364959716796875">
        <ele>820</ele>
        <time>2016-08-12T22:28:19.000Z</time>
        <extensions>
          <ns3:TrackPointExtension>
            <ns3:atemp>18.0</ns3:atemp>
            <ns3:hr>127</ns3:hr>
          </ns3:TrackPointExtension>
        </extensions>
      </trkpt>
      <trkpt lat="-22.07682394422590732574462890625" lon="166.44582462497055530548095703125">
        <ele>819.79998779296875</ele>
        <time>2016-08-12T22:28:20.000Z</time>
        <extensions>
          <ns3:TrackPointExtension>
            <ns3:atemp>18.0</ns3:atemp>
            <ns3:hr>127</ns3:hr>
          </ns3:TrackPointExtension>
        </extensions>
      </trkpt>
      <trkpt lat="-22.0768387801945209503173828125" lon="166.44584055058658123016357421875">
        <ele>819.5999755859375</ele>
        <time>2016-08-12T22:28:21.000Z</time>
        <extensions>
          <ns3:TrackPointExtension>
            <ns3:atemp>18.0</ns3:atemp>
            <ns3:hr>127</ns3:hr>
          </ns3:TrackPointExtension>
        </extensions>
      </trkpt>
      <trkpt lat="-22.0768525265157222747802734375" lon="166.44585572183132171630859375">
        <ele>819.4000244140625</ele>
        <time>2016-08-12T22:28:22.000Z</time>
        <extensions>
          <ns3:TrackPointExtension>
            <ns3:atemp>18.0</ns3:atemp>
            <ns3:hr>127</ns3:hr>
          </ns3:TrackPointExtension>
        </extensions>
      </trkpt>
      <trkpt lat="-22.0768654346466064453125" lon="166.4458682946860790252685546875">
        <ele>819</ele>
        <time>2016-08-12T22:28:23.000Z</time>
        <extensions>
          <ns3:TrackPointExtension>
            <ns3:atemp>18.0</ns3:atemp>
            <ns3:hr>128</ns3:hr>
          </ns3:TrackPointExtension>
        </extensions>
      </trkpt>
      <trkpt lat="-22.07687926478683948516845703125" lon="166.44588614813983440399169921875">
        <ele>819</ele>
        <time>2016-08-12T22:28:24.000Z</time>
        <extensions>
          <ns3:TrackPointExtension>
            <ns3:atemp>18.0</ns3:atemp>
            <ns3:hr>128</ns3:hr>
          </ns3:TrackPointExtension>
        </extensions>
      </trkpt>
      <trkpt lat="-22.07689384929835796356201171875" lon="166.4459078572690486907958984375">
        <ele>818.5999755859375</ele>
        <time>2016-08-12T22:28:25.000Z</time>
        <extensions>
          <ns3:TrackPointExtension>
            <ns3:atemp>18.0</ns3:atemp>
            <ns3:hr>128</ns3:hr>
          </ns3:TrackPointExtension>
        </extensions>
      </trkpt>
      <trkpt lat="-22.07690642215311527252197265625" lon="166.4459269680082798004150390625">
        <ele>818</ele>
        <time>2016-08-12T22:28:26.000Z</time>
        <extensions>
          <ns3:TrackPointExtension>
            <ns3:atemp>18.0</ns3:atemp>
            <ns3:hr>128</ns3:hr>
          </ns3:TrackPointExtension>
        </extensions>
      </trkpt>
      <trkpt lat="-22.0769192464649677276611328125" lon="166.44594750367105007171630859375">
        <ele>817.5999755859375</ele>
        <time>2016-08-12T22:28:27.000Z</time>
        <extensions>
          <ns3:TrackPointExtension>
            <ns3:atemp>18.0</ns3:atemp>
            <ns3:hr>128</ns3:hr>
          </ns3:TrackPointExtension>
        </extensions>
      </trkpt>
      <trkpt lat="-22.07693257369101047515869140625" lon="166.44596971571445465087890625">
        <ele>817</ele>
        <time>2016-08-12T22:28:28.000Z</time>
        <extensions>
          <ns3:TrackPointExtension>
            <ns3:atemp>18.0</ns3:atemp>
            <ns3:hr>129</ns3:hr>
          </ns3:TrackPointExtension>
        </extensions>
      </trkpt>
      <trkpt lat="-22.076942212879657745361328125" lon="166.4459837973117828369140625">
        <ele>816.5999755859375</ele>
        <time>2016-08-12T22:28:29.000Z</time>
        <extensions>
          <ns3:TrackPointExtension>
            <ns3:atemp>18.0</ns3:atemp>
            <ns3:hr>129</ns3:hr>
          </ns3:TrackPointExtension>
        </extensions>
      </trkpt>
      <trkpt lat="-22.07694447599351406097412109375" lon="166.4459970407187938690185546875">
        <ele>816</ele>
        <time>2016-08-12T22:28:30.000Z</time>
        <extensions>
          <ns3:TrackPointExtension>
            <ns3:atemp>18.0</ns3:atemp>
            <ns3:hr>129</ns3:hr>
          </ns3:TrackPointExtension>
        </extensions>
      </trkpt>
      <trkpt lat="-22.07695067860186100006103515625" lon="166.446008943021297454833984375">
        <ele>815.4000244140625</ele>
        <time>2016-08-12T22:28:31.000Z</time>
        <extensions>
          <ns3:TrackPointExtension>
            <ns3:atemp>18.0</ns3:atemp>
            <ns3:hr>129</ns3:hr>
          </ns3:TrackPointExtension>
        </extensions>
      </trkpt>
      <trkpt lat="-22.07695838995277881622314453125" lon="166.44602210260927677154541015625">
        <ele>815.20001220703125</ele>
        <time>2016-08-12T22:28:32.000Z</time>
        <extensions>
          <ns3:TrackPointExtension>
            <ns3:atemp>18.0</ns3:atemp>
            <ns3:hr>130</ns3:hr>
          </ns3:TrackPointExtension>
        </extensions>
      </trkpt>
      <trkpt lat="-22.07698470912873744964599609375" lon="166.44604423083364963531494140625">
        <ele>815</ele>
        <time>2016-08-12T22:28:33.000Z</time>
        <extensions>
          <ns3:TrackPointExtension>
            <ns3:atemp>18.0</ns3:atemp>
            <ns3:hr>130</ns3:hr>
          </ns3:TrackPointExtension>
        </extensions>
      </trkpt>
      <trkpt lat="-22.0769997127354145050048828125" lon="166.44606065936386585235595703125">
        <ele>815</ele>
        <time>2016-08-12T22:28:34.000Z</time>
        <extensions>
          <ns3:TrackPointExtension>
            <ns3:atemp>18.0</ns3:atemp>
            <ns3:hr>130</ns3:hr>
          </ns3:TrackPointExtension>
        </extensions>
      </trkpt>
      <trkpt lat="-22.07702158950269222259521484375" lon="166.4460788480937480926513671875">
        <ele>815</ele>
        <time>2016-08-12T22:28:35.000Z</time>
        <extensions>
          <ns3:TrackPointExtension>
            <ns3:atemp>18.0</ns3:atemp>
            <ns3:hr>130</ns3:hr>
          </ns3:TrackPointExtension>
        </extensions>
      </trkpt>
      <trkpt lat="-22.077029049396514892578125" lon="166.44609921611845493316650390625">
        <ele>815</ele>
        <time>2016-08-12T22:28:36.000Z</time>
        <extensions>
          <ns3:TrackPointExtension>
            <ns3:atemp>18.0</ns3:atemp>
            <ns3:hr>130</ns3:hr>
          </ns3:TrackPointExtension>
        </extensions>
      </trkpt>
      <trkpt lat="-22.07703248597681522369384765625" lon="166.446122936904430389404296875">
        <ele>814.79998779296875</ele>
        <time>2016-08-12T22:28:37.000Z</time>
        <extensions>
          <ns3:TrackPointExtension>
            <ns3:atemp>18.0</ns3:atemp>
            <ns3:hr>130</ns3:hr>
          </ns3:TrackPointExtension>
        </extensions>
      </trkpt>
      <trkpt lat="-22.077036090195178985595703125" lon="166.44615068100392818450927734375">
        <ele>814.20001220703125</ele>
        <time>2016-08-12T22:28:38.000Z</time>
        <extensions>
          <ns3:TrackPointExtension>
            <ns3:atemp>18.0</ns3:atemp>
            <ns3:hr>130</ns3:hr>
          </ns3:TrackPointExtension>
        </extensions>
      </trkpt>
      <trkpt lat="-22.07703910768032073974609375" lon="166.44617314450442790985107421875">
        <ele>814</ele>
        <time>2016-08-12T22:28:39.000Z</time>
        <extensions>
          <ns3:TrackPointExtension>
            <ns3:atemp>18.0</ns3:atemp>
            <ns3:hr>130</ns3:hr>
          </ns3:TrackPointExtension>
        </extensions>
      </trkpt>
      <trkpt lat="-22.077041454613208770751953125" lon="166.44619829021394252777099609375">
        <ele>814.4000244140625</ele>
        <time>2016-08-12T22:28:40.000Z</time>
        <extensions>
          <ns3:TrackPointExtension>
            <ns3:atemp>18.0</ns3:atemp>
            <ns3:hr>130</ns3:hr>
          </ns3:TrackPointExtension>
        </extensions>
      </trkpt>
      <trkpt lat="-22.07704757340252399444580078125" lon="166.44622645340859889984130859375">
        <ele>814.20001220703125</ele>
        <time>2016-08-12T22:28:41.000Z</time>
        <extensions>
          <ns3:TrackPointExtension>
            <ns3:atemp>18.0</ns3:atemp>
            <ns3:hr>129</ns3:hr>
          </ns3:TrackPointExtension>
        </extensions>
      </trkpt>
      <trkpt lat="-22.0770563744008541107177734375" lon="166.4462474919855594635009765625">
        <ele>813.79998779296875</ele>
        <time>2016-08-12T22:28:42.000Z</time>
        <extensions>
          <ns3:TrackPointExtension>
            <ns3:atemp>18.0</ns3:atemp>
            <ns3:hr>130</ns3:hr>
          </ns3:TrackPointExtension>
        </extensions>
      </trkpt>
      <trkpt lat="-22.07706852816045284271240234375" lon="166.44627280533313751220703125">
        <ele>813.4000244140625</ele>
        <time>2016-08-12T22:28:43.000Z</time>
        <extensions>
          <ns3:TrackPointExtension>
            <ns3:atemp>18.0</ns3:atemp>
            <ns3:hr>129</ns3:hr>
          </ns3:TrackPointExtension>
        </extensions>
      </trkpt>
      <trkpt lat="-22.0770751498639583587646484375" lon="166.44630021415650844573974609375">
        <ele>813.4000244140625</ele>
        <time>2016-08-12T22:28:44.000Z</time>
        <extensions>
          <ns3:TrackPointExtension>
            <ns3:atemp>18.0</ns3:atemp>
            <ns3:hr>129</ns3:hr>
          </ns3:TrackPointExtension>
        </extensions>
      </trkpt>
      <trkpt lat="-22.07708344794809818267822265625" lon="166.44632703624665737152099609375">
        <ele>813.4000244140625</ele>
        <time>2016-08-12T22:28:45.000Z</time>
        <extensions>
          <ns3:TrackPointExtension>
            <ns3:atemp>18.0</ns3:atemp>
            <ns3:hr>129</ns3:hr>
          </ns3:TrackPointExtension>
        </extensions>
      </trkpt>
      <trkpt lat="-22.07709518261253833770751953125" lon="166.4463514275848865509033203125">
        <ele>812.4000244140625</ele>
        <time>2016-08-12T22:28:46.000Z</time>
        <extensions>
          <ns3:TrackPointExtension>
            <ns3:atemp>18.0</ns3:atemp>
            <ns3:hr>129</ns3:hr>
          </ns3:TrackPointExtension>
        </extensions>
      </trkpt>
      <trkpt lat="-22.07710909657180309295654296875" lon="166.44637481309473514556884765625">
        <ele>811.5999755859375</ele>
        <time>2016-08-12T22:28:47.000Z</time>
        <extensions>
          <ns3:TrackPointExtension>
            <ns3:atemp>18.0</ns3:atemp>
            <ns3:hr>129</ns3:hr>
          </ns3:TrackPointExtension>
        </extensions>
      </trkpt>
      <trkpt lat="-22.0771214179694652557373046875" lon="166.4463993720710277557373046875">
        <ele>811.79998779296875</ele>
        <time>2016-08-12T22:28:48.000Z</time>
        <extensions>
          <ns3:TrackPointExtension>
            <ns3:atemp>18.0</ns3:atemp>
            <ns3:hr>129</ns3:hr>
          </ns3:TrackPointExtension>
        </extensions>
      </trkpt>
      <trkpt lat="-22.07713298499584197998046875" lon="166.44642208702862262725830078125">
        <ele>811.5999755859375</ele>
        <time>2016-08-12T22:28:49.000Z</time>
        <extensions>
          <ns3:TrackPointExtension>
            <ns3:atemp>18.0</ns3:atemp>
            <ns3:hr>129</ns3:hr>
          </ns3:TrackPointExtension>
        </extensions>
      </trkpt>
      <trkpt lat="-22.07714295946061611175537109375" lon="166.44644446671009063720703125">
        <ele>811.4000244140625</ele>
        <time>2016-08-12T22:28:50.000Z</time>
        <extensions>
          <ns3:TrackPointExtension>
            <ns3:atemp>18.0</ns3:atemp>
            <ns3:hr>129</ns3:hr>
          </ns3:TrackPointExtension>
        </extensions>
      </trkpt>
      <trkpt lat="-22.0771613158285617828369140625" lon="166.4464644156396389007568359375">
        <ele>811.20001220703125</ele>
        <time>2016-08-12T22:28:51.000Z</time>
        <extensions>
          <ns3:TrackPointExtension>
            <ns3:atemp>18.0</ns3:atemp>
            <ns3:hr>128</ns3:hr>
          </ns3:TrackPointExtension>
        </extensions>
      </trkpt>
      <trkpt lat="-22.07717883400619029998779296875" lon="166.4464828558266162872314453125">
        <ele>812</ele>
        <time>2016-08-12T22:28:52.000Z</time>
        <extensions>
          <ns3:TrackPointExtension>
            <ns3:atemp>18.0</ns3:atemp>
            <ns3:hr>128</ns3:hr>
          </ns3:TrackPointExtension>
        </extensions>
      </trkpt>
      <trkpt lat="-22.07719308324158191680908203125" lon="166.4465012960135936737060546875">
        <ele>812</ele>
        <time>2016-08-12T22:28:53.000Z</time>
        <extensions>
          <ns3:TrackPointExtension>
            <ns3:atemp>18.0</ns3:atemp>
            <ns3:hr>128</ns3:hr>
          </ns3:TrackPointExtension>
        </extensions>
      </trkpt>
      <trkpt lat="-22.07720733247697353363037109375" lon="166.44651680253446102142333984375">
        <ele>811.20001220703125</ele>
        <time>2016-08-12T22:28:54.000Z</time>
        <extensions>
          <ns3:TrackPointExtension>
            <ns3:atemp>18.0</ns3:atemp>
            <ns3:hr>128</ns3:hr>
          </ns3:TrackPointExtension>
        </extensions>
      </trkpt>
      <trkpt lat="-22.07722141407430171966552734375" lon="166.44653297960758209228515625">
        <ele>810.4000244140625</ele>
        <time>2016-08-12T22:28:55.000Z</time>
        <extensions>
          <ns3:TrackPointExtension>
            <ns3:atemp>18.0</ns3:atemp>
            <ns3:hr>127</ns3:hr>
          </ns3:TrackPointExtension>
        </extensions>
      </trkpt>
      <trkpt lat="-22.07723314873874187469482421875" lon="166.446552090346813201904296875">
        <ele>810.20001220703125</ele>
        <time>2016-08-12T22:28:56.000Z</time>
        <extensions>
          <ns3:TrackPointExtension>
            <ns3:atemp>18.0</ns3:atemp>
            <ns3:hr>127</ns3:hr>
          </ns3:TrackPointExtension>
        </extensions>
      </trkpt>
      <trkpt lat="-22.07724220119416713714599609375" lon="166.44657648168504238128662109375">
        <ele>810.20001220703125</ele>
        <time>2016-08-12T22:28:57.000Z</time>
        <extensions>
          <ns3:TrackPointExtension>
            <ns3:atemp>18.0</ns3:atemp>
            <ns3:hr>127</ns3:hr>
          </ns3:TrackPointExtension>
        </extensions>
      </trkpt>
      <trkpt lat="-22.0772516727447509765625" lon="166.446603052318096160888671875">
        <ele>810.4000244140625</ele>
        <time>2016-08-12T22:28:58.000Z</time>
        <extensions>
          <ns3:TrackPointExtension>
            <ns3:atemp>18.0</ns3:atemp>
            <ns3:hr>127</ns3:hr>
          </ns3:TrackPointExtension>
        </extensions>
      </trkpt>
      <trkpt lat="-22.07725276239216327667236328125" lon="166.44662559963762760162353515625">
        <ele>810</ele>
        <time>2016-08-12T22:28:59.000Z</time>
        <extensions>
          <ns3:TrackPointExtension>
            <ns3:atemp>18.0</ns3:atemp>
            <ns3:hr>128</ns3:hr>
          </ns3:TrackPointExtension>
        </extensions>
      </trkpt>
      <trkpt lat="-22.0772491581737995147705078125" lon="166.44665242172777652740478515625">
        <ele>809.5999755859375</ele>
        <time>2016-08-12T22:29:00.000Z</time>
        <extensions>
          <ns3:TrackPointExtension>
            <ns3:atemp>18.0</ns3:atemp>
            <ns3:hr>127</ns3:hr>
          </ns3:TrackPointExtension>
        </extensions>
      </trkpt>
      <trkpt lat="-22.07724823616445064544677734375" lon="166.4466820098459720611572265625">
        <ele>809.20001220703125</ele>
        <time>2016-08-12T22:29:01.000Z</time>
        <extensions>
          <ns3:TrackPointExtension>
            <ns3:atemp>18.0</ns3:atemp>
            <ns3:hr>127</ns3:hr>
          </ns3:TrackPointExtension>
        </extensions>
      </trkpt>
      <trkpt lat="-22.077248655259609222412109375" lon="166.44670371897518634796142578125">
        <ele>809.20001220703125</ele>
        <time>2016-08-12T22:29:02.000Z</time>
        <extensions>
          <ns3:TrackPointExtension>
            <ns3:atemp>18.0</ns3:atemp>
            <ns3:hr>128</ns3:hr>
          </ns3:TrackPointExtension>
        </extensions>
      </trkpt>
      <trkpt lat="-22.0772468112409114837646484375" lon="166.4467306248843669891357421875">
        <ele>808.5999755859375</ele>
        <time>2016-08-12T22:29:03.000Z</time>
        <extensions>
          <ns3:TrackPointExtension>
            <ns3:atemp>18.0</ns3:atemp>
            <ns3:hr>128</ns3:hr>
          </ns3:TrackPointExtension>
        </extensions>
      </trkpt>
      <trkpt lat="-22.077243961393833160400390625" lon="166.44676272757351398468017578125">
        <ele>807</ele>
        <time>2016-08-12T22:29:04.000Z</time>
        <extensions>
          <ns3:TrackPointExtension>
            <ns3:atemp>18.0</ns3:atemp>
            <ns3:hr>128</ns3:hr>
          </ns3:TrackPointExtension>
        </extensions>
      </trkpt>
      <trkpt lat="-22.0772397704422473907470703125" lon="166.4467938244342803955078125">
        <ele>806.5999755859375</ele>
        <time>2016-08-12T22:29:05.000Z</time>
        <extensions>
          <ns3:TrackPointExtension>
            <ns3:atemp>18.0</ns3:atemp>
            <ns3:hr>128</ns3:hr>
          </ns3:TrackPointExtension>
        </extensions>
      </trkpt>
      <trkpt lat="-22.0772350765764713287353515625" lon="166.44682240672409534454345703125">
        <ele>807.20001220703125</ele>
        <time>2016-08-12T22:29:06.000Z</time>
        <extensions>
          <ns3:TrackPointExtension>
            <ns3:atemp>18.0</ns3:atemp>
            <ns3:hr>128</ns3:hr>
          </ns3:TrackPointExtension>
        </extensions>
      </trkpt>
      <trkpt lat="-22.0772337354719638824462890625" lon="166.44685358740389347076416015625">
        <ele>807.20001220703125</ele>
        <time>2016-08-12T22:29:07.000Z</time>
        <extensions>
          <ns3:TrackPointExtension>
            <ns3:atemp>18.0</ns3:atemp>
            <ns3:hr>128</ns3:hr>
          </ns3:TrackPointExtension>
        </extensions>
      </trkpt>
      <trkpt lat="-22.0772397704422473907470703125" lon="166.4468798227608203887939453125">
        <ele>806.79998779296875</ele>
        <time>2016-08-12T22:29:08.000Z</time>
        <extensions>
          <ns3:TrackPointExtension>
            <ns3:atemp>18.0</ns3:atemp>
            <ns3:hr>128</ns3:hr>
          </ns3:TrackPointExtension>
        </extensions>
      </trkpt>
      <trkpt lat="-22.07724924199283123016357421875" lon="166.4469026215374469757080078125">
        <ele>807</ele>
        <time>2016-08-12T22:29:09.000Z</time>
        <extensions>
          <ns3:TrackPointExtension>
            <ns3:atemp>18.0</ns3:atemp>
            <ns3:hr>128</ns3:hr>
          </ns3:TrackPointExtension>
        </extensions>
      </trkpt>
      <trkpt lat="-22.07725795917212963104248046875" lon="166.446927599608898162841796875">
        <ele>807</ele>
        <time>2016-08-12T22:29:10.000Z</time>
        <extensions>
          <ns3:TrackPointExtension>
            <ns3:atemp>18.0</ns3:atemp>
            <ns3:hr>128</ns3:hr>
          </ns3:TrackPointExtension>
        </extensions>
      </trkpt>
      <trkpt lat="-22.0772682689130306243896484375" lon="166.44694997929036617279052734375">
        <ele>806.5999755859375</ele>
        <time>2016-08-12T22:29:11.000Z</time>
        <extensions>
          <ns3:TrackPointExtension>
            <ns3:atemp>18.0</ns3:atemp>
            <ns3:hr>128</ns3:hr>
          </ns3:TrackPointExtension>
        </extensions>
      </trkpt>
      <trkpt lat="-22.07728545181453227996826171875" lon="166.4469720236957073211669921875">
        <ele>806.79998779296875</ele>
        <time>2016-08-12T22:29:12.000Z</time>
        <extensions>
          <ns3:TrackPointExtension>
            <ns3:atemp>18.0</ns3:atemp>
            <ns3:hr>128</ns3:hr>
          </ns3:TrackPointExtension>
        </extensions>
      </trkpt>
      <trkpt lat="-22.07730305381119251251220703125" lon="166.44699574448168277740478515625">
        <ele>806.79998779296875</ele>
        <time>2016-08-12T22:29:13.000Z</time>
        <extensions>
          <ns3:TrackPointExtension>
            <ns3:atemp>18.0</ns3:atemp>
            <ns3:hr>128</ns3:hr>
          </ns3:TrackPointExtension>
        </extensions>
      </trkpt>
      <trkpt lat="-22.07731931470334529876708984375" lon="166.44701753742992877960205078125">
        <ele>805.79998779296875</ele>
        <time>2016-08-12T22:29:14.000Z</time>
        <extensions>
          <ns3:TrackPointExtension>
            <ns3:atemp>18.0</ns3:atemp>
            <ns3:hr>127</ns3:hr>
          </ns3:TrackPointExtension>
        </extensions>
      </trkpt>
      <trkpt lat="-22.0773370005190372467041015625" lon="166.4470374025404453277587890625">
        <ele>805.4000244140625</ele>
        <time>2016-08-12T22:29:15.000Z</time>
        <extensions>
          <ns3:TrackPointExtension>
            <ns3:atemp>18.0</ns3:atemp>
            <ns3:hr>127</ns3:hr>
          </ns3:TrackPointExtension>
        </extensions>
      </trkpt>
      <trkpt lat="-22.0773551054298877716064453125" lon="166.44705777056515216827392578125">
        <ele>805.79998779296875</ele>
        <time>2016-08-12T22:29:16.000Z</time>
        <extensions>
          <ns3:TrackPointExtension>
            <ns3:atemp>18.0</ns3:atemp>
            <ns3:hr>127</ns3:hr>
          </ns3:TrackPointExtension>
        </extensions>
      </trkpt>
      <trkpt lat="-22.07737279124557971954345703125" lon="166.44707537256181240081787109375">
        <ele>805.20001220703125</ele>
        <time>2016-08-12T22:29:17.000Z</time>
        <extensions>
          <ns3:TrackPointExtension>
            <ns3:atemp>18.0</ns3:atemp>
            <ns3:hr>127</ns3:hr>
          </ns3:TrackPointExtension>
        </extensions>
      </trkpt>
      <trkpt lat="-22.0773903094232082366943359375" lon="166.44709465093910694122314453125">
        <ele>804.4000244140625</ele>
        <time>2016-08-12T22:29:18.000Z</time>
        <extensions>
          <ns3:TrackPointExtension>
            <ns3:atemp>18.0</ns3:atemp>
            <ns3:hr>127</ns3:hr>
          </ns3:TrackPointExtension>
        </extensions>
      </trkpt>
      <trkpt lat="-22.0774094201624393463134765625" lon="166.4471135102212429046630859375">
        <ele>804.79998779296875</ele>
        <time>2016-08-12T22:29:19.000Z</time>
        <extensions>
          <ns3:TrackPointExtension>
            <ns3:atemp>18.0</ns3:atemp>
            <ns3:hr>127</ns3:hr>
          </ns3:TrackPointExtension>
        </extensions>
      </trkpt>
      <trkpt lat="-22.07742660306394100189208984375" lon="166.447132788598537445068359375">
        <ele>804.79998779296875</ele>
        <time>2016-08-12T22:29:20.000Z</time>
        <extensions>
          <ns3:TrackPointExtension>
            <ns3:atemp>18.0</ns3:atemp>
            <ns3:hr>127</ns3:hr>
          </ns3:TrackPointExtension>
        </extensions>
      </trkpt>
      <trkpt lat="-22.0774382539093494415283203125" lon="166.4471547491848468780517578125">
        <ele>804.20001220703125</ele>
        <time>2016-08-12T22:29:21.000Z</time>
        <extensions>
          <ns3:TrackPointExtension>
            <ns3:atemp>18.0</ns3:atemp>
            <ns3:hr>127</ns3:hr>
          </ns3:TrackPointExtension>
        </extensions>
      </trkpt>
      <trkpt lat="-22.07745082676410675048828125" lon="166.44717763178050518035888671875">
        <ele>804.20001220703125</ele>
        <time>2016-08-12T22:29:22.000Z</time>
        <extensions>
          <ns3:TrackPointExtension>
            <ns3:atemp>18.0</ns3:atemp>
            <ns3:hr>127</ns3:hr>
          </ns3:TrackPointExtension>
        </extensions>
      </trkpt>
      <trkpt lat="-22.077463231980800628662109375" lon="166.44719950854778289794921875">
        <ele>804.20001220703125</ele>
        <time>2016-08-12T22:29:23.000Z</time>
        <extensions>
          <ns3:TrackPointExtension>
            <ns3:atemp>18.0</ns3:atemp>
            <ns3:hr>126</ns3:hr>
          </ns3:TrackPointExtension>
        </extensions>
      </trkpt>
      <trkpt lat="-22.0774783194065093994140625" lon="166.44722188822925090789794921875">
        <ele>804</ele>
        <time>2016-08-12T22:29:24.000Z</time>
        <extensions>
          <ns3:TrackPointExtension>
            <ns3:atemp>18.0</ns3:atemp>
            <ns3:hr>127</ns3:hr>
          </ns3:TrackPointExtension>
        </extensions>
      </trkpt>
      <trkpt lat="-22.07749399356544017791748046875" lon="166.447240412235260009765625">
        <ele>803.5999755859375</ele>
        <time>2016-08-12T22:29:25.000Z</time>
        <extensions>
          <ns3:TrackPointExtension>
            <ns3:atemp>18.0</ns3:atemp>
            <ns3:hr>126</ns3:hr>
          </ns3:TrackPointExtension>
        </extensions>
      </trkpt>
      <trkpt lat="-22.07750849425792694091796875" lon="166.447256505489349365234375">
        <ele>803</ele>
        <time>2016-08-12T22:29:26.000Z</time>
        <extensions>
          <ns3:TrackPointExtension>
            <ns3:atemp>18.0</ns3:atemp>
            <ns3:hr>126</ns3:hr>
          </ns3:TrackPointExtension>
        </extensions>
      </trkpt>
      <trkpt lat="-22.077522911131381988525390625" lon="166.447280980646610260009765625">
        <ele>802.5999755859375</ele>
        <time>2016-08-12T22:29:27.000Z</time>
        <extensions>
          <ns3:TrackPointExtension>
            <ns3:atemp>18.0</ns3:atemp>
            <ns3:hr>126</ns3:hr>
          </ns3:TrackPointExtension>
        </extensions>
      </trkpt>
      <trkpt lat="-22.077541351318359375" lon="166.4473029412329196929931640625">
        <ele>803</ele>
        <time>2016-08-12T22:29:28.000Z</time>
        <extensions>
          <ns3:TrackPointExtension>
            <ns3:atemp>18.0</ns3:atemp>
            <ns3:hr>126</ns3:hr>
          </ns3:TrackPointExtension>
        </extensions>
      </trkpt>
      <trkpt lat="-22.0775602944195270538330078125" lon="166.44731727428734302520751953125">
        <ele>802.79998779296875</ele>
        <time>2016-08-12T22:29:29.000Z</time>
        <extensions>
          <ns3:TrackPointExtension>
            <ns3:atemp>18.0</ns3:atemp>
            <ns3:hr>126</ns3:hr>
          </ns3:TrackPointExtension>
        </extensions>
      </trkpt>
      <trkpt lat="-22.07758015953004360198974609375" lon="166.4473274163901805877685546875">
        <ele>802.20001220703125</ele>
        <time>2016-08-12T22:29:30.000Z</time>
        <extensions>
          <ns3:TrackPointExtension>
            <ns3:atemp>18.0</ns3:atemp>
            <ns3:hr>127</ns3:hr>
          </ns3:TrackPointExtension>
        </extensions>
      </trkpt>
      <trkpt lat="-22.0776022039353847503662109375" lon="166.44733604975044727325439453125">
        <ele>802.20001220703125</ele>
        <time>2016-08-12T22:29:31.000Z</time>
        <extensions>
          <ns3:TrackPointExtension>
            <ns3:atemp>18.0</ns3:atemp>
            <ns3:hr>127</ns3:hr>
          </ns3:TrackPointExtension>
        </extensions>
      </trkpt>
      <trkpt lat="-22.07762508653104305267333984375" lon="166.44734258763492107391357421875">
        <ele>801.79998779296875</ele>
        <time>2016-08-12T22:29:32.000Z</time>
        <extensions>
          <ns3:TrackPointExtension>
            <ns3:atemp>18.0</ns3:atemp>
            <ns3:hr>127</ns3:hr>
          </ns3:TrackPointExtension>
        </extensions>
      </trkpt>
      <trkpt lat="-22.0776504836976528167724609375" lon="166.44734392873942852020263671875">
        <ele>801.20001220703125</ele>
        <time>2016-08-12T22:29:33.000Z</time>
        <extensions>
          <ns3:TrackPointExtension>
            <ns3:atemp>18.0</ns3:atemp>
            <ns3:hr>127</ns3:hr>
          </ns3:TrackPointExtension>
        </extensions>
      </trkpt>
      <trkpt lat="-22.07767487503588199615478515625" lon="166.44734493456780910491943359375">
        <ele>801</ele>
        <time>2016-08-12T22:29:34.000Z</time>
        <extensions>
          <ns3:TrackPointExtension>
            <ns3:atemp>18.0</ns3:atemp>
            <ns3:hr>126</ns3:hr>
          </ns3:TrackPointExtension>
        </extensions>
      </trkpt>
      <trkpt lat="-22.0776977576315402984619140625" lon="166.4473450183868408203125">
        <ele>800.4000244140625</ele>
        <time>2016-08-12T22:29:35.000Z</time>
        <extensions>
          <ns3:TrackPointExtension>
            <ns3:atemp>18.0</ns3:atemp>
            <ns3:hr>126</ns3:hr>
          </ns3:TrackPointExtension>
        </extensions>
      </trkpt>
      <trkpt lat="-22.07772382535040378570556640625" lon="166.4473394863307476043701171875">
        <ele>799.79998779296875</ele>
        <time>2016-08-12T22:29:36.000Z</time>
        <extensions>
          <ns3:TrackPointExtension>
            <ns3:atemp>18.0</ns3:atemp>
            <ns3:hr>126</ns3:hr>
          </ns3:TrackPointExtension>
        </extensions>
      </trkpt>
      <trkpt lat="-22.07775081507861614227294921875" lon="166.44733403809368610382080078125">
        <ele>800</ele>
        <time>2016-08-12T22:29:37.000Z</time>
        <extensions>
          <ns3:TrackPointExtension>
            <ns3:atemp>18.0</ns3:atemp>
            <ns3:hr>127</ns3:hr>
          </ns3:TrackPointExtension>
        </extensions>
      </trkpt>
      <trkpt lat="-22.0777745358645915985107421875" lon="166.4473287574946880340576171875">
        <ele>799.5999755859375</ele>
        <time>2016-08-12T22:29:38.000Z</time>
        <extensions>
          <ns3:TrackPointExtension>
            <ns3:atemp>18.0</ns3:atemp>
            <ns3:hr>127</ns3:hr>
          </ns3:TrackPointExtension>
        </extensions>
      </trkpt>
      <trkpt lat="-22.077797837555408477783203125" lon="166.447321213781833648681640625">
        <ele>799</ele>
        <time>2016-08-12T22:29:39.000Z</time>
        <extensions>
          <ns3:TrackPointExtension>
            <ns3:atemp>18.0</ns3:atemp>
            <ns3:hr>127</ns3:hr>
          </ns3:TrackPointExtension>
        </extensions>
      </trkpt>
      <trkpt lat="-22.0778234861791133880615234375" lon="166.4473133347928524017333984375">
        <ele>798.79998779296875</ele>
        <time>2016-08-12T22:29:40.000Z</time>
        <extensions>
          <ns3:TrackPointExtension>
            <ns3:atemp>18.0</ns3:atemp>
            <ns3:hr>127</ns3:hr>
          </ns3:TrackPointExtension>
        </extensions>
      </trkpt>
      <trkpt lat="-22.0778469555079936981201171875" lon="166.447307132184505462646484375">
        <ele>798.4000244140625</ele>
        <time>2016-08-12T22:29:41.000Z</time>
        <extensions>
          <ns3:TrackPointExtension>
            <ns3:atemp>18.0</ns3:atemp>
            <ns3:hr>127</ns3:hr>
          </ns3:TrackPointExtension>
        </extensions>
      </trkpt>
      <trkpt lat="-22.077870257198810577392578125" lon="166.44730252213776111602783203125">
        <ele>797.79998779296875</ele>
        <time>2016-08-12T22:29:42.000Z</time>
        <extensions>
          <ns3:TrackPointExtension>
            <ns3:atemp>18.0</ns3:atemp>
            <ns3:hr>127</ns3:hr>
          </ns3:TrackPointExtension>
        </extensions>
      </trkpt>
      <trkpt lat="-22.077895067632198333740234375" lon="166.44730084575712680816650390625">
        <ele>797.79998779296875</ele>
        <time>2016-08-12T22:29:43.000Z</time>
        <extensions>
          <ns3:TrackPointExtension>
            <ns3:atemp>18.0</ns3:atemp>
            <ns3:hr>126</ns3:hr>
          </ns3:TrackPointExtension>
        </extensions>
      </trkpt>
      <trkpt lat="-22.0779176987707614898681640625" lon="166.4472999237477779388427734375">
        <ele>797.4000244140625</ele>
        <time>2016-08-12T22:29:44.000Z</time>
        <extensions>
          <ns3:TrackPointExtension>
            <ns3:atemp>18.0</ns3:atemp>
            <ns3:hr>126</ns3:hr>
          </ns3:TrackPointExtension>
        </extensions>
      </trkpt>
      <trkpt lat="-22.07794058136641979217529296875" lon="166.44729782827198505401611328125">
        <ele>797</ele>
        <time>2016-08-12T22:29:45.000Z</time>
        <extensions>
          <ns3:TrackPointExtension>
            <ns3:atemp>18.0</ns3:atemp>
            <ns3:hr>126</ns3:hr>
          </ns3:TrackPointExtension>
        </extensions>
      </trkpt>
      <trkpt lat="-22.07796153612434864044189453125" lon="166.44729346968233585357666015625">
        <ele>797</ele>
        <time>2016-08-12T22:29:46.000Z</time>
        <extensions>
          <ns3:TrackPointExtension>
            <ns3:atemp>18.0</ns3:atemp>
            <ns3:hr>127</ns3:hr>
          </ns3:TrackPointExtension>
        </extensions>
      </trkpt>
      <trkpt lat="-22.0779810659587383270263671875" lon="166.44729011692106723785400390625">
        <ele>796.5999755859375</ele>
        <time>2016-08-12T22:29:47.000Z</time>
        <extensions>
          <ns3:TrackPointExtension>
            <ns3:atemp>18.0</ns3:atemp>
            <ns3:hr>127</ns3:hr>
          </ns3:TrackPointExtension>
        </extensions>
      </trkpt>
      <trkpt lat="-22.07800361327826976776123046875" lon="166.44728156737983226776123046875">
        <ele>796.20001220703125</ele>
        <time>2016-08-12T22:29:48.000Z</time>
        <extensions>
          <ns3:TrackPointExtension>
            <ns3:atemp>18.0</ns3:atemp>
            <ns3:hr>127</ns3:hr>
          </ns3:TrackPointExtension>
        </extensions>
      </trkpt>
      <trkpt lat="-22.07802808843553066253662109375" lon="166.44727704115211963653564453125">
        <ele>796.20001220703125</ele>
        <time>2016-08-12T22:29:49.000Z</time>
        <extensions>
          <ns3:TrackPointExtension>
            <ns3:atemp>18.0</ns3:atemp>
            <ns3:hr>127</ns3:hr>
          </ns3:TrackPointExtension>
        </extensions>
      </trkpt>
      <trkpt lat="-22.07805155776441097259521484375" lon="166.44728056155145168304443359375">
        <ele>795.79998779296875</ele>
        <time>2016-08-12T22:29:50.000Z</time>
        <extensions>
          <ns3:TrackPointExtension>
            <ns3:atemp>18.0</ns3:atemp>
            <ns3:hr>127</ns3:hr>
          </ns3:TrackPointExtension>
        </extensions>
      </trkpt>
      <trkpt lat="-22.07807435654103755950927734375" lon="166.4472834952175617218017578125">
        <ele>795.79998779296875</ele>
        <time>2016-08-12T22:29:51.000Z</time>
        <extensions>
          <ns3:TrackPointExtension>
            <ns3:atemp>18.0</ns3:atemp>
            <ns3:hr>127</ns3:hr>
          </ns3:TrackPointExtension>
        </extensions>
      </trkpt>
      <trkpt lat="-22.0780984126031398773193359375" lon="166.44728223793208599090576171875">
        <ele>796.4000244140625</ele>
        <time>2016-08-12T22:29:52.000Z</time>
        <extensions>
          <ns3:TrackPointExtension>
            <ns3:atemp>18.0</ns3:atemp>
            <ns3:hr>126</ns3:hr>
          </ns3:TrackPointExtension>
        </extensions>
      </trkpt>
      <trkpt lat="-22.078123055398464202880859375" lon="166.4472898654639720916748046875">
        <ele>796.4000244140625</ele>
        <time>2016-08-12T22:29:53.000Z</time>
        <extensions>
          <ns3:TrackPointExtension>
            <ns3:atemp>18.0</ns3:atemp>
            <ns3:hr>127</ns3:hr>
          </ns3:TrackPointExtension>
        </extensions>
      </trkpt>
      <trkpt lat="-22.078149206936359405517578125" lon="166.44730721600353717803955078125">
        <ele>796.4000244140625</ele>
        <time>2016-08-12T22:29:54.000Z</time>
        <extensions>
          <ns3:TrackPointExtension>
            <ns3:atemp>18.0</ns3:atemp>
            <ns3:hr>127</ns3:hr>
          </ns3:TrackPointExtension>
        </extensions>
      </trkpt>
      <trkpt lat="-22.078174687922000885009765625" lon="166.44732766784727573394775390625">
        <ele>796.20001220703125</ele>
        <time>2016-08-12T22:29:55.000Z</time>
        <extensions>
          <ns3:TrackPointExtension>
            <ns3:atemp>18.0</ns3:atemp>
            <ns3:hr>127</ns3:hr>
          </ns3:TrackPointExtension>
        </extensions>
      </trkpt>
      <trkpt lat="-22.0781936310231685638427734375" lon="166.44734644331037998199462890625">
        <ele>796</ele>
        <time>2016-08-12T22:29:56.000Z</time>
        <extensions>
          <ns3:TrackPointExtension>
            <ns3:atemp>18.0</ns3:atemp>
            <ns3:hr>127</ns3:hr>
          </ns3:TrackPointExtension>
        </extensions>
      </trkpt>
      <trkpt lat="-22.07820377312600612640380859375" lon="166.44736119545996189117431640625">
        <ele>795.5999755859375</ele>
        <time>2016-08-12T22:29:57.000Z</time>
        <extensions>
          <ns3:TrackPointExtension>
            <ns3:atemp>18.0</ns3:atemp>
            <ns3:hr>127</ns3:hr>
          </ns3:TrackPointExtension>
        </extensions>
      </trkpt>
      <trkpt lat="-22.078237049281597137451171875" lon="166.447399668395519256591796875">
        <ele>795.5999755859375</ele>
        <time>2016-08-12T22:29:59.000Z</time>
        <extensions>
          <ns3:TrackPointExtension>
            <ns3:atemp>18.0</ns3:atemp>
            <ns3:hr>127</ns3:hr>
          </ns3:TrackPointExtension>
        </extensions>
      </trkpt>
      <trkpt lat="-22.07825481891632080078125" lon="166.44742120988667011260986328125">
        <ele>794.79998779296875</ele>
        <time>2016-08-12T22:30:00.000Z</time>
        <extensions>
          <ns3:TrackPointExtension>
            <ns3:atemp>18.0</ns3:atemp>
            <ns3:hr>126</ns3:hr>
          </ns3:TrackPointExtension>
        </extensions>
      </trkpt>
      <trkpt lat="-22.0782687328755855560302734375" lon="166.4474383927881717681884765625">
        <ele>793.20001220703125</ele>
        <time>2016-08-12T22:30:01.000Z</time>
        <extensions>
          <ns3:TrackPointExtension>
            <ns3:atemp>18.0</ns3:atemp>
            <ns3:hr>127</ns3:hr>
          </ns3:TrackPointExtension>
        </extensions>
      </trkpt>
      <trkpt lat="-22.07828222773969173431396484375" lon="166.44746010191738605499267578125">
        <ele>792.20001220703125</ele>
        <time>2016-08-12T22:30:02.000Z</time>
        <extensions>
          <ns3:TrackPointExtension>
            <ns3:atemp>18.0</ns3:atemp>
            <ns3:hr>126</ns3:hr>
          </ns3:TrackPointExtension>
        </extensions>
      </trkpt>
      <trkpt lat="-22.0782911963760852813720703125" lon="166.44747912883758544921875">
        <ele>791.4000244140625</ele>
        <time>2016-08-12T22:30:03.000Z</time>
        <extensions>
          <ns3:TrackPointExtension>
            <ns3:atemp>18.0</ns3:atemp>
            <ns3:hr>127</ns3:hr>
          </ns3:TrackPointExtension>
        </extensions>
      </trkpt>
      <trkpt lat="-22.07829714752733707427978515625" lon="166.44750469364225864410400390625">
        <ele>791.5999755859375</ele>
        <time>2016-08-12T22:30:04.000Z</time>
        <extensions>
          <ns3:TrackPointExtension>
            <ns3:atemp>18.0</ns3:atemp>
            <ns3:hr>127</ns3:hr>
          </ns3:TrackPointExtension>
        </extensions>
      </trkpt>
      <trkpt lat="-22.078307457268238067626953125" lon="166.44753168337047100067138671875">
        <ele>792</ele>
        <time>2016-08-12T22:30:05.000Z</time>
        <extensions>
          <ns3:TrackPointExtension>
            <ns3:atemp>18.0</ns3:atemp>
            <ns3:hr>127</ns3:hr>
          </ns3:TrackPointExtension>
        </extensions>
      </trkpt>
      <trkpt lat="-22.07831986248493194580078125" lon="166.44755951128900051116943359375">
        <ele>791.4000244140625</ele>
        <time>2016-08-12T22:30:06.000Z</time>
        <extensions>
          <ns3:TrackPointExtension>
            <ns3:atemp>18.0</ns3:atemp>
            <ns3:hr>127</ns3:hr>
          </ns3:TrackPointExtension>
        </extensions>
      </trkpt>
      <trkpt lat="-22.07833553664386272430419921875" lon="166.44758616574108600616455078125">
        <ele>791</ele>
        <time>2016-08-12T22:30:07.000Z</time>
        <extensions>
          <ns3:TrackPointExtension>
            <ns3:atemp>18.0</ns3:atemp>
            <ns3:hr>126</ns3:hr>
          </ns3:TrackPointExtension>
        </extensions>
      </trkpt>
      <trkpt lat="-22.0783538930118083953857421875" lon="166.447610892355442047119140625">
        <ele>791.5999755859375</ele>
        <time>2016-08-12T22:30:08.000Z</time>
        <extensions>
          <ns3:TrackPointExtension>
            <ns3:atemp>18.0</ns3:atemp>
            <ns3:hr>127</ns3:hr>
          </ns3:TrackPointExtension>
        </extensions>
      </trkpt>
      <trkpt lat="-22.07837174646556377410888671875" lon="166.44763260148465633392333984375">
        <ele>791.5999755859375</ele>
        <time>2016-08-12T22:30:09.000Z</time>
        <extensions>
          <ns3:TrackPointExtension>
            <ns3:atemp>18.0</ns3:atemp>
            <ns3:hr>127</ns3:hr>
          </ns3:TrackPointExtension>
        </extensions>
      </trkpt>
      <trkpt lat="-22.0783897675573825836181640625" lon="166.447653472423553466796875">
        <ele>790.79998779296875</ele>
        <time>2016-08-12T22:30:10.000Z</time>
        <extensions>
          <ns3:TrackPointExtension>
            <ns3:atemp>18.0</ns3:atemp>
            <ns3:hr>127</ns3:hr>
          </ns3:TrackPointExtension>
        </extensions>
      </trkpt>
      <trkpt lat="-22.07840644754469394683837890625" lon="166.44767291843891143798828125">
        <ele>790.79998779296875</ele>
        <time>2016-08-12T22:30:11.000Z</time>
        <extensions>
          <ns3:TrackPointExtension>
            <ns3:atemp>18.0</ns3:atemp>
            <ns3:hr>127</ns3:hr>
          </ns3:TrackPointExtension>
        </extensions>
      </trkpt>
      <trkpt lat="-22.07842522300779819488525390625" lon="166.44769362173974514007568359375">
        <ele>791</ele>
        <time>2016-08-12T22:30:12.000Z</time>
        <extensions>
          <ns3:TrackPointExtension>
            <ns3:atemp>18.0</ns3:atemp>
            <ns3:hr>127</ns3:hr>
          </ns3:TrackPointExtension>
        </extensions>
      </trkpt>
      <trkpt lat="-22.07849160768091678619384765625" lon="166.44775204360485076904296875">
        <ele>791</ele>
        <time>2016-08-12T22:30:15.000Z</time>
        <extensions>
          <ns3:TrackPointExtension>
            <ns3:atemp>18.0</ns3:atemp>
            <ns3:hr>127</ns3:hr>
          </ns3:TrackPointExtension>
        </extensions>
      </trkpt>
      <trkpt lat="-22.0785161666572093963623046875" lon="166.44776805303990840911865234375">
        <ele>791.20001220703125</ele>
        <time>2016-08-12T22:30:16.000Z</time>
        <extensions>
          <ns3:TrackPointExtension>
            <ns3:atemp>19.0</ns3:atemp>
            <ns3:hr>127</ns3:hr>
          </ns3:TrackPointExtension>
        </extensions>
      </trkpt>
      <trkpt lat="-22.0785416476428508758544921875" lon="166.44777911715209484100341796875">
        <ele>790.79998779296875</ele>
        <time>2016-08-12T22:30:17.000Z</time>
        <extensions>
          <ns3:TrackPointExtension>
            <ns3:atemp>19.0</ns3:atemp>
            <ns3:hr>127</ns3:hr>
          </ns3:TrackPointExtension>
        </extensions>
      </trkpt>
      <trkpt lat="-22.07856888882815837860107421875" lon="166.44778649322688579559326171875">
        <ele>791</ele>
        <time>2016-08-12T22:30:18.000Z</time>
        <extensions>
          <ns3:TrackPointExtension>
            <ns3:atemp>19.0</ns3:atemp>
            <ns3:hr>127</ns3:hr>
          </ns3:TrackPointExtension>
        </extensions>
      </trkpt>
      <trkpt lat="-22.07863845862448215484619140625" lon="166.44778951071202754974365234375">
        <ele>791</ele>
        <time>2016-08-12T22:30:21.000Z</time>
        <extensions>
          <ns3:TrackPointExtension>
            <ns3:atemp>19.0</ns3:atemp>
            <ns3:hr>127</ns3:hr>
          </ns3:TrackPointExtension>
        </extensions>
      </trkpt>
      <trkpt lat="-22.07866461016237735748291015625" lon="166.44777962006628513336181640625">
        <ele>790.4000244140625</ele>
        <time>2016-08-12T22:30:22.000Z</time>
        <extensions>
          <ns3:TrackPointExtension>
            <ns3:atemp>19.0</ns3:atemp>
            <ns3:hr>127</ns3:hr>
          </ns3:TrackPointExtension>
        </extensions>
      </trkpt>
      <trkpt lat="-22.07869109697639942169189453125" lon="166.44776855595409870147705078125">
        <ele>789.79998779296875</ele>
        <time>2016-08-12T22:30:23.000Z</time>
        <extensions>
          <ns3:TrackPointExtension>
            <ns3:atemp>19.0</ns3:atemp>
            <ns3:hr>127</ns3:hr>
          </ns3:TrackPointExtension>
        </extensions>
      </trkpt>
      <trkpt lat="-22.0787173323333263397216796875" lon="166.44775631837546825408935546875">
        <ele>789.4000244140625</ele>
        <time>2016-08-12T22:30:24.000Z</time>
        <extensions>
          <ns3:TrackPointExtension>
            <ns3:atemp>19.0</ns3:atemp>
            <ns3:hr>127</ns3:hr>
          </ns3:TrackPointExtension>
        </extensions>
      </trkpt>
      <trkpt lat="-22.078796289861202239990234375" lon="166.447708122432231903076171875">
        <ele>789.4000244140625</ele>
        <time>2016-08-12T22:30:27.000Z</time>
        <extensions>
          <ns3:TrackPointExtension>
            <ns3:atemp>19.0</ns3:atemp>
            <ns3:hr>127</ns3:hr>
          </ns3:TrackPointExtension>
        </extensions>
      </trkpt>
      <trkpt lat="-22.07882286049425601959228515625" lon="166.447692029178142547607421875">
        <ele>788.5999755859375</ele>
        <time>2016-08-12T22:30:28.000Z</time>
        <extensions>
          <ns3:TrackPointExtension>
            <ns3:atemp>19.0</ns3:atemp>
            <ns3:hr>127</ns3:hr>
          </ns3:TrackPointExtension>
        </extensions>
      </trkpt>
      <trkpt lat="-22.078850269317626953125" lon="166.44768071360886096954345703125">
        <ele>787.5999755859375</ele>
        <time>2016-08-12T22:30:29.000Z</time>
        <extensions>
          <ns3:TrackPointExtension>
            <ns3:atemp>19.0</ns3:atemp>
            <ns3:hr>127</ns3:hr>
          </ns3:TrackPointExtension>
        </extensions>
      </trkpt>
      <trkpt lat="-22.078880779445171356201171875" lon="166.44767551682889461517333984375">
        <ele>786.5999755859375</ele>
        <time>2016-08-12T22:30:30.000Z</time>
        <extensions>
          <ns3:TrackPointExtension>
            <ns3:atemp>19.0</ns3:atemp>
            <ns3:hr>127</ns3:hr>
          </ns3:TrackPointExtension>
        </extensions>
      </trkpt>
      <trkpt lat="-22.07890718244016170501708984375" lon="166.44767300225794315338134765625">
        <ele>786.4000244140625</ele>
        <time>2016-08-12T22:30:31.000Z</time>
        <extensions>
          <ns3:TrackPointExtension>
            <ns3:atemp>19.0</ns3:atemp>
            <ns3:hr>127</ns3:hr>
          </ns3:TrackPointExtension>
        </extensions>
      </trkpt>
      <trkpt lat="-22.0789298973977565765380859375" lon="166.447669900953769683837890625">
        <ele>786.4000244140625</ele>
        <time>2016-08-12T22:30:32.000Z</time>
        <extensions>
          <ns3:TrackPointExtension>
            <ns3:atemp>19.0</ns3:atemp>
            <ns3:hr>127</ns3:hr>
          </ns3:TrackPointExtension>
        </extensions>
      </trkpt>
      <trkpt lat="-22.07895244471728801727294921875" lon="166.4476687274873256683349609375">
        <ele>785.79998779296875</ele>
        <time>2016-08-12T22:30:33.000Z</time>
        <extensions>
          <ns3:TrackPointExtension>
            <ns3:atemp>19.0</ns3:atemp>
            <ns3:hr>127</ns3:hr>
          </ns3:TrackPointExtension>
        </extensions>
      </trkpt>
      <trkpt lat="-22.07897373475134372711181640625" lon="166.4476660452783107757568359375">
        <ele>785.5999755859375</ele>
        <time>2016-08-12T22:30:34.000Z</time>
        <extensions>
          <ns3:TrackPointExtension>
            <ns3:atemp>19.0</ns3:atemp>
            <ns3:hr>127</ns3:hr>
          </ns3:TrackPointExtension>
        </extensions>
      </trkpt>
      <trkpt lat="-22.07903844304382801055908203125" lon="166.44764701835811138153076171875">
        <ele>785.4000244140625</ele>
        <time>2016-08-12T22:30:37.000Z</time>
        <extensions>
          <ns3:TrackPointExtension>
            <ns3:atemp>19.0</ns3:atemp>
            <ns3:hr>127</ns3:hr>
          </ns3:TrackPointExtension>
        </extensions>
      </trkpt>
      <trkpt lat="-22.07906149327754974365234375" lon="166.44764299504458904266357421875">
        <ele>785.4000244140625</ele>
        <time>2016-08-12T22:30:38.000Z</time>
        <extensions>
          <ns3:TrackPointExtension>
            <ns3:atemp>19.0</ns3:atemp>
            <ns3:hr>127</ns3:hr>
          </ns3:TrackPointExtension>
        </extensions>
      </trkpt>
      <trkpt lat="-22.07908320240676403045654296875" lon="166.447645761072635650634765625">
        <ele>785.20001220703125</ele>
        <time>2016-08-12T22:30:39.000Z</time>
        <extensions>
          <ns3:TrackPointExtension>
            <ns3:atemp>19.0</ns3:atemp>
            <ns3:hr>127</ns3:hr>
          </ns3:TrackPointExtension>
        </extensions>
      </trkpt>
      <trkpt lat="-22.079102732241153717041015625" lon="166.44765003584325313568115234375">
        <ele>784.79998779296875</ele>
        <time>2016-08-12T22:30:40.000Z</time>
        <extensions>
          <ns3:TrackPointExtension>
            <ns3:atemp>19.0</ns3:atemp>
            <ns3:hr>127</ns3:hr>
          </ns3:TrackPointExtension>
        </extensions>
      </trkpt>
      <trkpt lat="-22.0791223458945751190185546875" lon="166.4476586692035198211669921875">
        <ele>784.4000244140625</ele>
        <time>2016-08-12T22:30:41.000Z</time>
        <extensions>
          <ns3:TrackPointExtension>
            <ns3:atemp>19.0</ns3:atemp>
            <ns3:hr>126</ns3:hr>
          </ns3:TrackPointExtension>
        </extensions>
      </trkpt>
      <trkpt lat="-22.07914195954799652099609375" lon="166.44766998477280139923095703125">
        <ele>784.5999755859375</ele>
        <time>2016-08-12T22:30:42.000Z</time>
        <extensions>
          <ns3:TrackPointExtension>
            <ns3:atemp>19.0</ns3:atemp>
            <ns3:hr>126</ns3:hr>
          </ns3:TrackPointExtension>
        </extensions>
      </trkpt>
      <trkpt lat="-22.07915830425918102264404296875" lon="166.44768004305660724639892578125">
        <ele>784.5999755859375</ele>
        <time>2016-08-12T22:30:43.000Z</time>
        <extensions>
          <ns3:TrackPointExtension>
            <ns3:atemp>19.0</ns3:atemp>
            <ns3:hr>126</ns3:hr>
          </ns3:TrackPointExtension>
        </extensions>
      </trkpt>
      <trkpt lat="-22.07917741499841213226318359375" lon="166.44769144244492053985595703125">
        <ele>783.79998779296875</ele>
        <time>2016-08-12T22:30:44.000Z</time>
        <extensions>
          <ns3:TrackPointExtension>
            <ns3:atemp>19.0</ns3:atemp>
            <ns3:hr>126</ns3:hr>
          </ns3:TrackPointExtension>
        </extensions>
      </trkpt>
      <trkpt lat="-22.079199291765689849853515625" lon="166.44770870916545391082763671875">
        <ele>783.5999755859375</ele>
        <time>2016-08-12T22:30:45.000Z</time>
        <extensions>
          <ns3:TrackPointExtension>
            <ns3:atemp>19.0</ns3:atemp>
            <ns3:hr>126</ns3:hr>
          </ns3:TrackPointExtension>
        </extensions>
      </trkpt>
      <trkpt lat="-22.0792190730571746826171875" lon="166.44772253930568695068359375">
        <ele>783.5999755859375</ele>
        <time>2016-08-12T22:30:46.000Z</time>
        <extensions>
          <ns3:TrackPointExtension>
            <ns3:atemp>19.0</ns3:atemp>
            <ns3:hr>126</ns3:hr>
          </ns3:TrackPointExtension>
        </extensions>
      </trkpt>
      <trkpt lat="-22.079240866005420684814453125" lon="166.44773771055042743682861328125">
        <ele>783.20001220703125</ele>
        <time>2016-08-12T22:30:47.000Z</time>
        <extensions>
          <ns3:TrackPointExtension>
            <ns3:atemp>19.0</ns3:atemp>
            <ns3:hr>126</ns3:hr>
          </ns3:TrackPointExtension>
        </extensions>
      </trkpt>
      <trkpt lat="-22.07926693372428417205810546875" lon="166.4477548934519290924072265625">
        <ele>783</ele>
        <time>2016-08-12T22:30:48.000Z</time>
        <extensions>
          <ns3:TrackPointExtension>
            <ns3:atemp>19.0</ns3:atemp>
            <ns3:hr>125</ns3:hr>
          </ns3:TrackPointExtension>
        </extensions>
      </trkpt>
      <trkpt lat="-22.0792901515960693359375" lon="166.4477706514298915863037109375">
        <ele>783.20001220703125</ele>
        <time>2016-08-12T22:30:49.000Z</time>
        <extensions>
          <ns3:TrackPointExtension>
            <ns3:atemp>19.0</ns3:atemp>
            <ns3:hr>126</ns3:hr>
          </ns3:TrackPointExtension>
        </extensions>
      </trkpt>
      <trkpt lat="-22.07931688986718654632568359375" lon="166.44779361784458160400390625">
        <ele>782.5999755859375</ele>
        <time>2016-08-12T22:30:50.000Z</time>
        <extensions>
          <ns3:TrackPointExtension>
            <ns3:atemp>19.0</ns3:atemp>
            <ns3:hr>126</ns3:hr>
          </ns3:TrackPointExtension>
        </extensions>
      </trkpt>
      <trkpt lat="-22.07933910191059112548828125" lon="166.44780811853706836700439453125">
        <ele>782.20001220703125</ele>
        <time>2016-08-12T22:30:51.000Z</time>
        <extensions>
          <ns3:TrackPointExtension>
            <ns3:atemp>19.0</ns3:atemp>
            <ns3:hr>126</ns3:hr>
          </ns3:TrackPointExtension>
        </extensions>
      </trkpt>
      <trkpt lat="-22.07936349324882030487060546875" lon="166.44782052375376224517822265625">
        <ele>782.20001220703125</ele>
        <time>2016-08-12T22:30:52.000Z</time>
        <extensions>
          <ns3:TrackPointExtension>
            <ns3:atemp>19.0</ns3:atemp>
            <ns3:hr>126</ns3:hr>
          </ns3:TrackPointExtension>
        </extensions>
      </trkpt>
      <trkpt lat="-22.07938763312995433807373046875" lon="166.4478219486773014068603515625">
        <ele>782.20001220703125</ele>
        <time>2016-08-12T22:30:53.000Z</time>
        <extensions>
          <ns3:TrackPointExtension>
            <ns3:atemp>19.0</ns3:atemp>
            <ns3:hr>126</ns3:hr>
          </ns3:TrackPointExtension>
        </extensions>
      </trkpt>
      <trkpt lat="-22.07941411994397640228271484375" lon="166.44782354123890399932861328125">
        <ele>782</ele>
        <time>2016-08-12T22:30:54.000Z</time>
        <extensions>
          <ns3:TrackPointExtension>
            <ns3:atemp>19.0</ns3:atemp>
            <ns3:hr>126</ns3:hr>
          </ns3:TrackPointExtension>
        </extensions>
      </trkpt>
      <trkpt lat="-22.07944194786250591278076171875" lon="166.447818093001842498779296875">
        <ele>782</ele>
        <time>2016-08-12T22:30:55.000Z</time>
        <extensions>
          <ns3:TrackPointExtension>
            <ns3:atemp>19.0</ns3:atemp>
            <ns3:hr>126</ns3:hr>
          </ns3:TrackPointExtension>
        </extensions>
      </trkpt>
      <trkpt lat="-22.07946927286684513092041015625" lon="166.44781298004090785980224609375">
        <ele>782</ele>
        <time>2016-08-12T22:30:56.000Z</time>
        <extensions>
          <ns3:TrackPointExtension>
            <ns3:atemp>19.0</ns3:atemp>
            <ns3:hr>126</ns3:hr>
          </ns3:TrackPointExtension>
        </extensions>
      </trkpt>
      <trkpt lat="-22.07949559204280376434326171875" lon="166.447799988090991973876953125">
        <ele>782.4000244140625</ele>
        <time>2016-08-12T22:30:57.000Z</time>
        <extensions>
          <ns3:TrackPointExtension>
            <ns3:atemp>19.0</ns3:atemp>
            <ns3:hr>126</ns3:hr>
          </ns3:TrackPointExtension>
        </extensions>
      </trkpt>
      <trkpt lat="-22.07952124066650867462158203125" lon="166.44778397865593433380126953125">
        <ele>782.4000244140625</ele>
        <time>2016-08-12T22:30:58.000Z</time>
        <extensions>
          <ns3:TrackPointExtension>
            <ns3:atemp>19.0</ns3:atemp>
            <ns3:hr>127</ns3:hr>
          </ns3:TrackPointExtension>
        </extensions>
      </trkpt>
      <trkpt lat="-22.07954940386116504669189453125" lon="166.447772495448589324951171875">
        <ele>782.20001220703125</ele>
        <time>2016-08-12T22:30:59.000Z</time>
        <extensions>
          <ns3:TrackPointExtension>
            <ns3:atemp>19.0</ns3:atemp>
            <ns3:hr>127</ns3:hr>
          </ns3:TrackPointExtension>
        </extensions>
      </trkpt>
      <trkpt lat="-22.07957371138036251068115234375" lon="166.44776143133640289306640625">
        <ele>781.5999755859375</ele>
        <time>2016-08-12T22:31:00.000Z</time>
        <extensions>
          <ns3:TrackPointExtension>
            <ns3:atemp>19.0</ns3:atemp>
            <ns3:hr>127</ns3:hr>
          </ns3:TrackPointExtension>
        </extensions>
      </trkpt>
      <trkpt lat="-22.07959852181375026702880859375" lon="166.44775229506194591522216796875">
        <ele>781.4000244140625</ele>
        <time>2016-08-12T22:31:01.000Z</time>
        <extensions>
          <ns3:TrackPointExtension>
            <ns3:atemp>19.0</ns3:atemp>
            <ns3:hr>127</ns3:hr>
          </ns3:TrackPointExtension>
        </extensions>
      </trkpt>
      <trkpt lat="-22.07962517626583576202392578125" lon="166.44774542190134525299072265625">
        <ele>780.79998779296875</ele>
        <time>2016-08-12T22:31:02.000Z</time>
        <extensions>
          <ns3:TrackPointExtension>
            <ns3:atemp>19.0</ns3:atemp>
            <ns3:hr>127</ns3:hr>
          </ns3:TrackPointExtension>
        </extensions>
      </trkpt>
      <trkpt lat="-22.07965166307985782623291015625" lon="166.44774324260652065277099609375">
        <ele>780.5999755859375</ele>
        <time>2016-08-12T22:31:03.000Z</time>
        <extensions>
          <ns3:TrackPointExtension>
            <ns3:atemp>19.0</ns3:atemp>
            <ns3:hr>127</ns3:hr>
          </ns3:TrackPointExtension>
        </extensions>
      </trkpt>
      <trkpt lat="-22.0796750485897064208984375" lon="166.44774776883423328399658203125">
        <ele>780.79998779296875</ele>
        <time>2016-08-12T22:31:04.000Z</time>
        <extensions>
          <ns3:TrackPointExtension>
            <ns3:atemp>19.0</ns3:atemp>
            <ns3:hr>127</ns3:hr>
          </ns3:TrackPointExtension>
        </extensions>
      </trkpt>
      <trkpt lat="-22.07970078103244304656982421875" lon="166.44775464199483394622802734375">
        <ele>781</ele>
        <time>2016-08-12T22:31:05.000Z</time>
        <extensions>
          <ns3:TrackPointExtension>
            <ns3:atemp>19.0</ns3:atemp>
            <ns3:hr>127</ns3:hr>
          </ns3:TrackPointExtension>
        </extensions>
      </trkpt>
      <trkpt lat="-22.07972466945648193359375" lon="166.447759754955768585205078125">
        <ele>780.4000244140625</ele>
        <time>2016-08-12T22:31:06.000Z</time>
        <extensions>
          <ns3:TrackPointExtension>
            <ns3:atemp>19.0</ns3:atemp>
            <ns3:hr>127</ns3:hr>
          </ns3:TrackPointExtension>
        </extensions>
      </trkpt>
      <trkpt lat="-22.079749144613742828369140625" lon="166.44776671193540096282958984375">
        <ele>779.79998779296875</ele>
        <time>2016-08-12T22:31:07.000Z</time>
        <extensions>
          <ns3:TrackPointExtension>
            <ns3:atemp>19.0</ns3:atemp>
            <ns3:hr>127</ns3:hr>
          </ns3:TrackPointExtension>
        </extensions>
      </trkpt>
      <trkpt lat="-22.07977496087551116943359375" lon="166.44777224399149417877197265625">
        <ele>779.5999755859375</ele>
        <time>2016-08-12T22:31:08.000Z</time>
        <extensions>
          <ns3:TrackPointExtension>
            <ns3:atemp>19.0</ns3:atemp>
            <ns3:hr>128</ns3:hr>
          </ns3:TrackPointExtension>
        </extensions>
      </trkpt>
      <trkpt lat="-22.0798011124134063720703125" lon="166.44777886569499969482421875">
        <ele>779.5999755859375</ele>
        <time>2016-08-12T22:31:09.000Z</time>
        <extensions>
          <ns3:TrackPointExtension>
            <ns3:atemp>19.0</ns3:atemp>
            <ns3:hr>127</ns3:hr>
          </ns3:TrackPointExtension>
        </extensions>
      </trkpt>
      <trkpt lat="-22.0798265933990478515625" lon="166.44778431393206119537353515625">
        <ele>779</ele>
        <time>2016-08-12T22:31:10.000Z</time>
        <extensions>
          <ns3:TrackPointExtension>
            <ns3:atemp>19.0</ns3:atemp>
            <ns3:hr>128</ns3:hr>
          </ns3:TrackPointExtension>
        </extensions>
      </trkpt>
      <trkpt lat="-22.07985132001340389251708984375" lon="166.44778984598815441131591796875">
        <ele>778.5999755859375</ele>
        <time>2016-08-12T22:31:11.000Z</time>
        <extensions>
          <ns3:TrackPointExtension>
            <ns3:atemp>19.0</ns3:atemp>
            <ns3:hr>127</ns3:hr>
          </ns3:TrackPointExtension>
        </extensions>
      </trkpt>
      <trkpt lat="-22.0798757113516330718994140625" lon="166.44779638387262821197509765625">
        <ele>778.4000244140625</ele>
        <time>2016-08-12T22:31:12.000Z</time>
        <extensions>
          <ns3:TrackPointExtension>
            <ns3:atemp>19.0</ns3:atemp>
            <ns3:hr>127</ns3:hr>
          </ns3:TrackPointExtension>
        </extensions>
      </trkpt>
      <trkpt lat="-22.079900018870830535888671875" lon="166.44780409522354602813720703125">
        <ele>777.79998779296875</ele>
        <time>2016-08-12T22:31:13.000Z</time>
        <extensions>
          <ns3:TrackPointExtension>
            <ns3:atemp>19.0</ns3:atemp>
            <ns3:hr>127</ns3:hr>
          </ns3:TrackPointExtension>
        </extensions>
      </trkpt>
      <trkpt lat="-22.0799218118190765380859375" lon="166.44781641662120819091796875">
        <ele>776.79998779296875</ele>
        <time>2016-08-12T22:31:14.000Z</time>
        <extensions>
          <ns3:TrackPointExtension>
            <ns3:atemp>19.0</ns3:atemp>
            <ns3:hr>127</ns3:hr>
          </ns3:TrackPointExtension>
        </extensions>
      </trkpt>
      <trkpt lat="-22.07994100637733936309814453125" lon="166.44782806746661663055419921875">
        <ele>776.5999755859375</ele>
        <time>2016-08-12T22:31:15.000Z</time>
        <extensions>
          <ns3:TrackPointExtension>
            <ns3:atemp>19.0</ns3:atemp>
            <ns3:hr>127</ns3:hr>
          </ns3:TrackPointExtension>
        </extensions>
      </trkpt>
      <trkpt lat="-22.0799534954130649566650390625" lon="166.447845585644245147705078125">
        <ele>776.4000244140625</ele>
        <time>2016-08-12T22:31:16.000Z</time>
        <extensions>
          <ns3:TrackPointExtension>
            <ns3:atemp>19.0</ns3:atemp>
            <ns3:hr>127</ns3:hr>
          </ns3:TrackPointExtension>
        </extensions>
      </trkpt>
      <trkpt lat="-22.079969085752964019775390625" lon="166.4478705637156963348388671875">
        <ele>776.20001220703125</ele>
        <time>2016-08-12T22:31:17.000Z</time>
        <extensions>
          <ns3:TrackPointExtension>
            <ns3:atemp>19.0</ns3:atemp>
            <ns3:hr>127</ns3:hr>
          </ns3:TrackPointExtension>
        </extensions>
      </trkpt>
      <trkpt lat="-22.08005902357399463653564453125" lon="166.44795312546193599700927734375">
        <ele>776</ele>
        <time>2016-08-12T22:31:22.000Z</time>
        <extensions>
          <ns3:TrackPointExtension>
            <ns3:atemp>19.0</ns3:atemp>
            <ns3:hr>127</ns3:hr>
          </ns3:TrackPointExtension>
        </extensions>
      </trkpt>
      <trkpt lat="-22.08008500747382640838623046875" lon="166.44797223620116710662841796875">
        <ele>776</ele>
        <time>2016-08-12T22:31:23.000Z</time>
        <extensions>
          <ns3:TrackPointExtension>
            <ns3:atemp>19.0</ns3:atemp>
            <ns3:hr>126</ns3:hr>
          </ns3:TrackPointExtension>
        </extensions>
      </trkpt>
      <trkpt lat="-22.08010680042207241058349609375" lon="166.44799000583589076995849609375">
        <ele>775.79998779296875</ele>
        <time>2016-08-12T22:31:24.000Z</time>
        <extensions>
          <ns3:TrackPointExtension>
            <ns3:atemp>19.0</ns3:atemp>
            <ns3:hr>127</ns3:hr>
          </ns3:TrackPointExtension>
        </extensions>
      </trkpt>
      <trkpt lat="-22.0801295153796672821044921875" lon="166.44800190813839435577392578125">
        <ele>775.20001220703125</ele>
        <time>2016-08-12T22:31:25.000Z</time>
        <extensions>
          <ns3:TrackPointExtension>
            <ns3:atemp>19.0</ns3:atemp>
            <ns3:hr>126</ns3:hr>
          </ns3:TrackPointExtension>
        </extensions>
      </trkpt>
      <trkpt lat="-22.08015524782240390777587890625" lon="166.44800894893705844879150390625">
        <ele>775.20001220703125</ele>
        <time>2016-08-12T22:31:26.000Z</time>
        <extensions>
          <ns3:TrackPointExtension>
            <ns3:atemp>19.0</ns3:atemp>
            <ns3:hr>126</ns3:hr>
          </ns3:TrackPointExtension>
        </extensions>
      </trkpt>
      <trkpt lat="-22.08017938770353794097900390625" lon="166.44801087677478790283203125">
        <ele>774.5999755859375</ele>
        <time>2016-08-12T22:31:27.000Z</time>
        <extensions>
          <ns3:TrackPointExtension>
            <ns3:atemp>19.0</ns3:atemp>
            <ns3:hr>126</ns3:hr>
          </ns3:TrackPointExtension>
        </extensions>
      </trkpt>
      <trkpt lat="-22.0802012644708156585693359375" lon="166.4480090327560901641845703125">
        <ele>774.20001220703125</ele>
        <time>2016-08-12T22:31:28.000Z</time>
        <extensions>
          <ns3:TrackPointExtension>
            <ns3:atemp>19.0</ns3:atemp>
            <ns3:hr>127</ns3:hr>
          </ns3:TrackPointExtension>
        </extensions>
      </trkpt>
      <trkpt lat="-22.0802264101803302764892578125" lon="166.4480033330619335174560546875">
        <ele>774.20001220703125</ele>
        <time>2016-08-12T22:31:29.000Z</time>
        <extensions>
          <ns3:TrackPointExtension>
            <ns3:atemp>19.0</ns3:atemp>
            <ns3:hr>127</ns3:hr>
          </ns3:TrackPointExtension>
        </extensions>
      </trkpt>
      <trkpt lat="-22.08025214262306690216064453125" lon="166.44799486733973026275634765625">
        <ele>774.20001220703125</ele>
        <time>2016-08-12T22:31:30.000Z</time>
        <extensions>
          <ns3:TrackPointExtension>
            <ns3:atemp>19.0</ns3:atemp>
            <ns3:hr>127</ns3:hr>
          </ns3:TrackPointExtension>
        </extensions>
      </trkpt>
      <trkpt lat="-22.0802770368754863739013671875" lon="166.44797575660049915313720703125">
        <ele>773.79998779296875</ele>
        <time>2016-08-12T22:31:31.000Z</time>
        <extensions>
          <ns3:TrackPointExtension>
            <ns3:atemp>19.0</ns3:atemp>
            <ns3:hr>127</ns3:hr>
          </ns3:TrackPointExtension>
        </extensions>
      </trkpt>
      <trkpt lat="-22.0803055353462696075439453125" lon="166.4479470066726207733154296875">
        <ele>773.5999755859375</ele>
        <time>2016-08-12T22:31:32.000Z</time>
        <extensions>
          <ns3:TrackPointExtension>
            <ns3:atemp>19.0</ns3:atemp>
            <ns3:hr>127</ns3:hr>
          </ns3:TrackPointExtension>
        </extensions>
      </trkpt>
      <trkpt lat="-22.08032674156129360198974609375" lon="166.44792278297245502471923828125">
        <ele>773.20001220703125</ele>
        <time>2016-08-12T22:31:33.000Z</time>
        <extensions>
          <ns3:TrackPointExtension>
            <ns3:atemp>19.0</ns3:atemp>
            <ns3:hr>126</ns3:hr>
          </ns3:TrackPointExtension>
        </extensions>
      </trkpt>
      <trkpt lat="-22.08034015260636806488037109375" lon="166.44789529033005237579345703125">
        <ele>772.5999755859375</ele>
        <time>2016-08-12T22:31:34.000Z</time>
        <extensions>
          <ns3:TrackPointExtension>
            <ns3:atemp>19.0</ns3:atemp>
            <ns3:hr>126</ns3:hr>
          </ns3:TrackPointExtension>
        </extensions>
      </trkpt>
      <trkpt lat="-22.08034635521471500396728515625" lon="166.44786226563155651092529296875">
        <ele>772.20001220703125</ele>
        <time>2016-08-12T22:31:35.000Z</time>
        <extensions>
          <ns3:TrackPointExtension>
            <ns3:atemp>19.0</ns3:atemp>
            <ns3:hr>126</ns3:hr>
          </ns3:TrackPointExtension>
        </extensions>
      </trkpt>
      <trkpt lat="-22.08035205490887165069580078125" lon="166.4478346891701221466064453125">
        <ele>772.20001220703125</ele>
        <time>2016-08-12T22:31:36.000Z</time>
        <extensions>
          <ns3:TrackPointExtension>
            <ns3:atemp>19.0</ns3:atemp>
            <ns3:hr>126</ns3:hr>
          </ns3:TrackPointExtension>
        </extensions>
      </trkpt>
      <trkpt lat="-22.080354988574981689453125" lon="166.4478038437664508819580078125">
        <ele>772</ele>
        <time>2016-08-12T22:31:37.000Z</time>
        <extensions>
          <ns3:TrackPointExtension>
            <ns3:atemp>19.0</ns3:atemp>
            <ns3:hr>125</ns3:hr>
          </ns3:TrackPointExtension>
        </extensions>
      </trkpt>
      <trkpt lat="-22.08036798052489757537841796875" lon="166.44777760840952396392822265625">
        <ele>771.5999755859375</ele>
        <time>2016-08-12T22:31:38.000Z</time>
        <extensions>
          <ns3:TrackPointExtension>
            <ns3:atemp>19.0</ns3:atemp>
            <ns3:hr>125</ns3:hr>
          </ns3:TrackPointExtension>
        </extensions>
      </trkpt>
      <trkpt lat="-22.0803766138851642608642578125" lon="166.44775070250034332275390625">
        <ele>771.5999755859375</ele>
        <time>2016-08-12T22:31:39.000Z</time>
        <extensions>
          <ns3:TrackPointExtension>
            <ns3:atemp>19.0</ns3:atemp>
            <ns3:hr>126</ns3:hr>
          </ns3:TrackPointExtension>
        </extensions>
      </trkpt>
      <trkpt lat="-22.08038248121738433837890625" lon="166.4477220363914966583251953125">
        <ele>771.5999755859375</ele>
        <time>2016-08-12T22:31:40.000Z</time>
        <extensions>
          <ns3:TrackPointExtension>
            <ns3:atemp>19.0</ns3:atemp>
            <ns3:hr>126</ns3:hr>
          </ns3:TrackPointExtension>
        </extensions>
      </trkpt>
      <trkpt lat="-22.080349624156951904296875" lon="166.447702087461948394775390625">
        <ele>771.4000244140625</ele>
        <time>2016-08-12T22:31:41.000Z</time>
        <extensions>
          <ns3:TrackPointExtension>
            <ns3:atemp>19.0</ns3:atemp>
            <ns3:hr>126</ns3:hr>
          </ns3:TrackPointExtension>
        </extensions>
      </trkpt>
      <trkpt lat="-22.08035767078399658203125" lon="166.44766378216445446014404296875">
        <ele>771.20001220703125</ele>
        <time>2016-08-12T22:31:42.000Z</time>
        <extensions>
          <ns3:TrackPointExtension>
            <ns3:atemp>19.0</ns3:atemp>
            <ns3:hr>126</ns3:hr>
          </ns3:TrackPointExtension>
        </extensions>
      </trkpt>
      <trkpt lat="-22.0803548209369182586669921875" lon="166.44762773998081684112548828125">
        <ele>771.20001220703125</ele>
        <time>2016-08-12T22:31:43.000Z</time>
        <extensions>
          <ns3:TrackPointExtension>
            <ns3:atemp>19.0</ns3:atemp>
            <ns3:hr>126</ns3:hr>
          </ns3:TrackPointExtension>
        </extensions>
      </trkpt>
      <trkpt lat="-22.08033512346446514129638671875" lon="166.44760527648031711578369140625">
        <ele>770.4000244140625</ele>
        <time>2016-08-12T22:31:44.000Z</time>
        <extensions>
          <ns3:TrackPointExtension>
            <ns3:atemp>19.0</ns3:atemp>
            <ns3:hr>126</ns3:hr>
          </ns3:TrackPointExtension>
        </extensions>
      </trkpt>
      <trkpt lat="-22.08037837408483028411865234375" lon="166.4474913664162158966064453125">
        <ele>770.4000244140625</ele>
        <time>2016-08-12T22:31:49.000Z</time>
        <extensions>
          <ns3:TrackPointExtension>
            <ns3:atemp>19.0</ns3:atemp>
            <ns3:hr>126</ns3:hr>
          </ns3:TrackPointExtension>
        </extensions>
      </trkpt>
      <trkpt lat="-22.080383487045764923095703125" lon="166.44747267477214336395263671875">
        <ele>770.5999755859375</ele>
        <time>2016-08-12T22:31:50.000Z</time>
        <extensions>
          <ns3:TrackPointExtension>
            <ns3:atemp>19.0</ns3:atemp>
            <ns3:hr>128</ns3:hr>
          </ns3:TrackPointExtension>
        </extensions>
      </trkpt>
      <trkpt lat="-22.080386169254779815673828125" lon="166.447449959814548492431640625">
        <ele>771</ele>
        <time>2016-08-12T22:31:51.000Z</time>
        <extensions>
          <ns3:TrackPointExtension>
            <ns3:atemp>19.0</ns3:atemp>
            <ns3:hr>128</ns3:hr>
          </ns3:TrackPointExtension>
        </extensions>
      </trkpt>
      <trkpt lat="-22.08039396442472934722900390625" lon="166.4474259875714778900146484375">
        <ele>771</ele>
        <time>2016-08-12T22:31:52.000Z</time>
        <extensions>
          <ns3:TrackPointExtension>
            <ns3:atemp>19.0</ns3:atemp>
            <ns3:hr>128</ns3:hr>
          </ns3:TrackPointExtension>
        </extensions>
      </trkpt>
      <trkpt lat="-22.08041332662105560302734375" lon="166.4473948068916797637939453125">
        <ele>770.79998779296875</ele>
        <time>2016-08-12T22:31:53.000Z</time>
        <extensions>
          <ns3:TrackPointExtension>
            <ns3:atemp>19.0</ns3:atemp>
            <ns3:hr>128</ns3:hr>
          </ns3:TrackPointExtension>
        </extensions>
      </trkpt>
      <trkpt lat="-22.0804269053041934967041015625" lon="166.4473679848015308380126953125">
        <ele>770.20001220703125</ele>
        <time>2016-08-12T22:31:54.000Z</time>
        <extensions>
          <ns3:TrackPointExtension>
            <ns3:atemp>19.0</ns3:atemp>
            <ns3:hr>128</ns3:hr>
          </ns3:TrackPointExtension>
        </extensions>
      </trkpt>
      <trkpt lat="-22.0804426632821559906005859375" lon="166.4473445154726505279541015625">
        <ele>769.5999755859375</ele>
        <time>2016-08-12T22:31:55.000Z</time>
        <extensions>
          <ns3:TrackPointExtension>
            <ns3:atemp>19.0</ns3:atemp>
            <ns3:hr>127</ns3:hr>
          </ns3:TrackPointExtension>
        </extensions>
      </trkpt>
      <trkpt lat="-22.0804483629763126373291015625" lon="166.447321213781833648681640625">
        <ele>769.4000244140625</ele>
        <time>2016-08-12T22:31:56.000Z</time>
        <extensions>
          <ns3:TrackPointExtension>
            <ns3:atemp>19.0</ns3:atemp>
            <ns3:hr>127</ns3:hr>
          </ns3:TrackPointExtension>
        </extensions>
      </trkpt>
      <trkpt lat="-22.08046420477330684661865234375" lon="166.44729983992874622344970703125">
        <ele>769.4000244140625</ele>
        <time>2016-08-12T22:31:57.000Z</time>
        <extensions>
          <ns3:TrackPointExtension>
            <ns3:atemp>19.0</ns3:atemp>
            <ns3:hr>127</ns3:hr>
          </ns3:TrackPointExtension>
        </extensions>
      </trkpt>
      <trkpt lat="-22.0804691500961780548095703125" lon="166.44728776998817920684814453125">
        <ele>769</ele>
        <time>2016-08-12T22:31:58.000Z</time>
        <extensions>
          <ns3:TrackPointExtension>
            <ns3:atemp>19.0</ns3:atemp>
            <ns3:hr>127</ns3:hr>
          </ns3:TrackPointExtension>
        </extensions>
      </trkpt>
      <trkpt lat="-22.08048046566545963287353515625" lon="166.44727419130504131317138671875">
        <ele>768.79998779296875</ele>
        <time>2016-08-12T22:31:59.000Z</time>
        <extensions>
          <ns3:TrackPointExtension>
            <ns3:atemp>19.0</ns3:atemp>
            <ns3:hr>127</ns3:hr>
          </ns3:TrackPointExtension>
        </extensions>
      </trkpt>
      <trkpt lat="-22.08049052394926548004150390625" lon="166.4472546614706516265869140625">
        <ele>768.79998779296875</ele>
        <time>2016-08-12T22:32:00.000Z</time>
        <extensions>
          <ns3:TrackPointExtension>
            <ns3:atemp>19.0</ns3:atemp>
            <ns3:hr>127</ns3:hr>
          </ns3:TrackPointExtension>
        </extensions>
      </trkpt>
      <trkpt lat="-22.08049387671053409576416015625" lon="166.44723194651305675506591796875">
        <ele>768.4000244140625</ele>
        <time>2016-08-12T22:32:01.000Z</time>
        <extensions>
          <ns3:TrackPointExtension>
            <ns3:atemp>19.0</ns3:atemp>
            <ns3:hr>127</ns3:hr>
          </ns3:TrackPointExtension>
        </extensions>
      </trkpt>
      <trkpt lat="-22.08050192333757877349853515625" lon="166.44720696844160556793212890625">
        <ele>768.5999755859375</ele>
        <time>2016-08-12T22:32:02.000Z</time>
        <extensions>
          <ns3:TrackPointExtension>
            <ns3:atemp>19.0</ns3:atemp>
            <ns3:hr>128</ns3:hr>
          </ns3:TrackPointExtension>
        </extensions>
      </trkpt>
      <trkpt lat="-22.0805157534778118133544921875" lon="166.44718609750270843505859375">
        <ele>768.79998779296875</ele>
        <time>2016-08-12T22:32:03.000Z</time>
        <extensions>
          <ns3:TrackPointExtension>
            <ns3:atemp>19.0</ns3:atemp>
            <ns3:hr>128</ns3:hr>
          </ns3:TrackPointExtension>
        </extensions>
      </trkpt>
      <trkpt lat="-22.0805278234183788299560546875" lon="166.44716799259185791015625">
        <ele>768.79998779296875</ele>
        <time>2016-08-12T22:32:04.000Z</time>
        <extensions>
          <ns3:TrackPointExtension>
            <ns3:atemp>19.0</ns3:atemp>
            <ns3:hr>128</ns3:hr>
          </ns3:TrackPointExtension>
        </extensions>
      </trkpt>
      <trkpt lat="-22.0805268175899982452392578125" lon="166.4471398293972015380859375">
        <ele>769</ele>
        <time>2016-08-12T22:32:05.000Z</time>
        <extensions>
          <ns3:TrackPointExtension>
            <ns3:atemp>19.0</ns3:atemp>
            <ns3:hr>128</ns3:hr>
          </ns3:TrackPointExtension>
        </extensions>
      </trkpt>
      <trkpt lat="-22.0805414021015167236328125" lon="166.4471156895160675048828125">
        <ele>768.79998779296875</ele>
        <time>2016-08-12T22:32:06.000Z</time>
        <extensions>
          <ns3:TrackPointExtension>
            <ns3:atemp>19.0</ns3:atemp>
            <ns3:hr>129</ns3:hr>
          </ns3:TrackPointExtension>
        </extensions>
      </trkpt>
      <trkpt lat="-22.08055053837597370147705078125" lon="166.44709381274878978729248046875">
        <ele>768</ele>
        <time>2016-08-12T22:32:07.000Z</time>
        <extensions>
          <ns3:TrackPointExtension>
            <ns3:atemp>19.0</ns3:atemp>
            <ns3:hr>129</ns3:hr>
          </ns3:TrackPointExtension>
        </extensions>
      </trkpt>
      <trkpt lat="-22.08055925555527210235595703125" lon="166.4470716007053852081298828125">
        <ele>767.79998779296875</ele>
        <time>2016-08-12T22:32:08.000Z</time>
        <extensions>
          <ns3:TrackPointExtension>
            <ns3:atemp>19.0</ns3:atemp>
            <ns3:hr>129</ns3:hr>
          </ns3:TrackPointExtension>
        </extensions>
      </trkpt>
      <trkpt lat="-22.0805724151432514190673828125" lon="166.44705357961356639862060546875">
        <ele>767.5999755859375</ele>
        <time>2016-08-12T22:32:09.000Z</time>
        <extensions>
          <ns3:TrackPointExtension>
            <ns3:atemp>19.0</ns3:atemp>
            <ns3:hr>129</ns3:hr>
          </ns3:TrackPointExtension>
        </extensions>
      </trkpt>
      <trkpt lat="-22.08058632910251617431640625" lon="166.44703664816915988922119140625">
        <ele>766.5999755859375</ele>
        <time>2016-08-12T22:32:10.000Z</time>
        <extensions>
          <ns3:TrackPointExtension>
            <ns3:atemp>19.0</ns3:atemp>
            <ns3:hr>129</ns3:hr>
          </ns3:TrackPointExtension>
        </extensions>
      </trkpt>
      <trkpt lat="-22.080587334930896759033203125" lon="166.447008065879344940185546875">
        <ele>766.20001220703125</ele>
        <time>2016-08-12T22:32:11.000Z</time>
        <extensions>
          <ns3:TrackPointExtension>
            <ns3:atemp>19.0</ns3:atemp>
            <ns3:hr>129</ns3:hr>
          </ns3:TrackPointExtension>
        </extensions>
      </trkpt>
      <trkpt lat="-22.080591022968292236328125" lon="166.44698115997016429901123046875">
        <ele>766</ele>
        <time>2016-08-12T22:32:12.000Z</time>
        <extensions>
          <ns3:TrackPointExtension>
            <ns3:atemp>19.0</ns3:atemp>
            <ns3:hr>130</ns3:hr>
          </ns3:TrackPointExtension>
        </extensions>
      </trkpt>
      <trkpt lat="-22.0805950462818145751953125" lon="166.4469592832028865814208984375">
        <ele>765.79998779296875</ele>
        <time>2016-08-12T22:32:13.000Z</time>
        <extensions>
          <ns3:TrackPointExtension>
            <ns3:atemp>19.0</ns3:atemp>
            <ns3:hr>129</ns3:hr>
          </ns3:TrackPointExtension>
        </extensions>
      </trkpt>
      <trkpt lat="-22.08060988225042819976806640625" lon="166.4469378255307674407958984375">
        <ele>765.79998779296875</ele>
        <time>2016-08-12T22:32:14.000Z</time>
        <extensions>
          <ns3:TrackPointExtension>
            <ns3:atemp>19.0</ns3:atemp>
            <ns3:hr>130</ns3:hr>
          </ns3:TrackPointExtension>
        </extensions>
      </trkpt>
      <trkpt lat="-22.080620862543582916259765625" lon="166.44691519439220428466796875">
        <ele>766</ele>
        <time>2016-08-12T22:32:15.000Z</time>
        <extensions>
          <ns3:TrackPointExtension>
            <ns3:atemp>19.0</ns3:atemp>
            <ns3:hr>130</ns3:hr>
          </ns3:TrackPointExtension>
        </extensions>
      </trkpt>
      <trkpt lat="-22.08062748424708843231201171875" lon="166.44689331762492656707763671875">
        <ele>766.20001220703125</ele>
        <time>2016-08-12T22:32:16.000Z</time>
        <extensions>
          <ns3:TrackPointExtension>
            <ns3:atemp>19.0</ns3:atemp>
            <ns3:hr>130</ns3:hr>
          </ns3:TrackPointExtension>
        </extensions>
      </trkpt>
      <trkpt lat="-22.08063972182571887969970703125" lon="166.446874625980854034423828125">
        <ele>765.79998779296875</ele>
        <time>2016-08-12T22:32:17.000Z</time>
        <extensions>
          <ns3:TrackPointExtension>
            <ns3:atemp>19.0</ns3:atemp>
            <ns3:hr>130</ns3:hr>
          </ns3:TrackPointExtension>
        </extensions>
      </trkpt>
      <trkpt lat="-22.08064760081470012664794921875" lon="166.44685207866132259368896484375">
        <ele>765.4000244140625</ele>
        <time>2016-08-12T22:32:18.000Z</time>
        <extensions>
          <ns3:TrackPointExtension>
            <ns3:atemp>19.0</ns3:atemp>
            <ns3:hr>130</ns3:hr>
          </ns3:TrackPointExtension>
        </extensions>
      </trkpt>
      <trkpt lat="-22.08065070211887359619140625" lon="166.44683162681758403778076171875">
        <ele>764.79998779296875</ele>
        <time>2016-08-12T22:32:19.000Z</time>
        <extensions>
          <ns3:TrackPointExtension>
            <ns3:atemp>19.0</ns3:atemp>
            <ns3:hr>130</ns3:hr>
          </ns3:TrackPointExtension>
        </extensions>
      </trkpt>
      <trkpt lat="-22.08065070211887359619140625" lon="166.44680832512676715850830078125">
        <ele>763.79998779296875</ele>
        <time>2016-08-12T22:32:20.000Z</time>
        <extensions>
          <ns3:TrackPointExtension>
            <ns3:atemp>19.0</ns3:atemp>
            <ns3:hr>130</ns3:hr>
          </ns3:TrackPointExtension>
        </extensions>
      </trkpt>
      <trkpt lat="-22.080652378499507904052734375" lon="166.44678644835948944091796875">
        <ele>763.4000244140625</ele>
        <time>2016-08-12T22:32:21.000Z</time>
        <extensions>
          <ns3:TrackPointExtension>
            <ns3:atemp>19.0</ns3:atemp>
            <ns3:hr>129</ns3:hr>
          </ns3:TrackPointExtension>
        </extensions>
      </trkpt>
      <trkpt lat="-22.0806552283465862274169921875" lon="166.446762643754482269287109375">
        <ele>763.20001220703125</ele>
        <time>2016-08-12T22:32:22.000Z</time>
        <extensions>
          <ns3:TrackPointExtension>
            <ns3:atemp>19.0</ns3:atemp>
            <ns3:hr>129</ns3:hr>
          </ns3:TrackPointExtension>
        </extensions>
      </trkpt>
      <trkpt lat="-22.08065950311720371246337890625" lon="166.44673992879688739776611328125">
        <ele>763.20001220703125</ele>
        <time>2016-08-12T22:32:23.000Z</time>
        <extensions>
          <ns3:TrackPointExtension>
            <ns3:atemp>19.0</ns3:atemp>
            <ns3:hr>129</ns3:hr>
          </ns3:TrackPointExtension>
        </extensions>
      </trkpt>
      <trkpt lat="-22.08065715618431568145751953125" lon="166.44671536982059478759765625">
        <ele>763.4000244140625</ele>
        <time>2016-08-12T22:32:24.000Z</time>
        <extensions>
          <ns3:TrackPointExtension>
            <ns3:atemp>19.0</ns3:atemp>
            <ns3:hr>130</ns3:hr>
          </ns3:TrackPointExtension>
        </extensions>
      </trkpt>
      <trkpt lat="-22.0806548930704593658447265625" lon="166.4466919004917144775390625">
        <ele>763.20001220703125</ele>
        <time>2016-08-12T22:32:25.000Z</time>
        <extensions>
          <ns3:TrackPointExtension>
            <ns3:atemp>19.0</ns3:atemp>
            <ns3:hr>129</ns3:hr>
          </ns3:TrackPointExtension>
        </extensions>
      </trkpt>
      <trkpt lat="-22.0806562341749668121337890625" lon="166.44666264764964580535888671875">
        <ele>762</ele>
        <time>2016-08-12T22:32:26.000Z</time>
        <extensions>
          <ns3:TrackPointExtension>
            <ns3:atemp>19.0</ns3:atemp>
            <ns3:hr>129</ns3:hr>
          </ns3:TrackPointExtension>
        </extensions>
      </trkpt>
      <trkpt lat="-22.08065581507980823516845703125" lon="166.446626186370849609375">
        <ele>761.79998779296875</ele>
        <time>2016-08-12T22:32:27.000Z</time>
        <extensions>
          <ns3:TrackPointExtension>
            <ns3:atemp>19.0</ns3:atemp>
            <ns3:hr>129</ns3:hr>
          </ns3:TrackPointExtension>
        </extensions>
      </trkpt>
      <trkpt lat="-22.08065740764141082763671875" lon="166.4465948380529880523681640625">
        <ele>762</ele>
        <time>2016-08-12T22:32:28.000Z</time>
        <extensions>
          <ns3:TrackPointExtension>
            <ns3:atemp>19.0</ns3:atemp>
            <ns3:hr>129</ns3:hr>
          </ns3:TrackPointExtension>
        </extensions>
      </trkpt>
      <trkpt lat="-22.08065430633723735809326171875" lon="166.4465629868209362030029296875">
        <ele>762</ele>
        <time>2016-08-12T22:32:29.000Z</time>
        <extensions>
          <ns3:TrackPointExtension>
            <ns3:atemp>19.0</ns3:atemp>
            <ns3:hr>129</ns3:hr>
          </ns3:TrackPointExtension>
        </extensions>
      </trkpt>
      <trkpt lat="-22.08064961247146129608154296875" lon="166.44653256051242351531982421875">
        <ele>761.5999755859375</ele>
        <time>2016-08-12T22:32:30.000Z</time>
        <extensions>
          <ns3:TrackPointExtension>
            <ns3:atemp>19.0</ns3:atemp>
            <ns3:hr>129</ns3:hr>
          </ns3:TrackPointExtension>
        </extensions>
      </trkpt>
      <trkpt lat="-22.0806458406150341033935546875" lon="166.44650490023195743560791015625">
        <ele>761.4000244140625</ele>
        <time>2016-08-12T22:32:31.000Z</time>
        <extensions>
          <ns3:TrackPointExtension>
            <ns3:atemp>19.0</ns3:atemp>
            <ns3:hr>129</ns3:hr>
          </ns3:TrackPointExtension>
        </extensions>
      </trkpt>
      <trkpt lat="-22.08065028302371501922607421875" lon="166.44647656939923763275146484375">
        <ele>761.4000244140625</ele>
        <time>2016-08-12T22:32:32.000Z</time>
        <extensions>
          <ns3:TrackPointExtension>
            <ns3:atemp>19.0</ns3:atemp>
            <ns3:hr>129</ns3:hr>
          </ns3:TrackPointExtension>
        </extensions>
      </trkpt>
      <trkpt lat="-22.080659084022045135498046875" lon="166.44645276479423046112060546875">
        <ele>761.4000244140625</ele>
        <time>2016-08-12T22:32:33.000Z</time>
        <extensions>
          <ns3:TrackPointExtension>
            <ns3:atemp>19.0</ns3:atemp>
            <ns3:hr>129</ns3:hr>
          </ns3:TrackPointExtension>
        </extensions>
      </trkpt>
      <trkpt lat="-22.080682218074798583984375" lon="166.446436755359172821044921875">
        <ele>761</ele>
        <time>2016-08-12T22:32:34.000Z</time>
        <extensions>
          <ns3:TrackPointExtension>
            <ns3:atemp>19.0</ns3:atemp>
            <ns3:hr>129</ns3:hr>
          </ns3:TrackPointExtension>
        </extensions>
      </trkpt>
      <trkpt lat="-22.0806981436908245086669921875" lon="166.446421332657337188720703125">
        <ele>761.4000244140625</ele>
        <time>2016-08-12T22:32:35.000Z</time>
        <extensions>
          <ns3:TrackPointExtension>
            <ns3:atemp>19.0</ns3:atemp>
            <ns3:hr>130</ns3:hr>
          </ns3:TrackPointExtension>
        </extensions>
      </trkpt>
      <trkpt lat="-22.0807291567325592041015625" lon="166.44641487859189510345458984375">
        <ele>761.4000244140625</ele>
        <time>2016-08-12T22:32:36.000Z</time>
        <extensions>
          <ns3:TrackPointExtension>
            <ns3:atemp>19.0</ns3:atemp>
            <ns3:hr>129</ns3:hr>
          </ns3:TrackPointExtension>
        </extensions>
      </trkpt>
      <trkpt lat="-22.08073896355926990509033203125" lon="166.44640867598354816436767578125">
        <ele>761.20001220703125</ele>
        <time>2016-08-12T22:32:37.000Z</time>
        <extensions>
          <ns3:TrackPointExtension>
            <ns3:atemp>19.0</ns3:atemp>
            <ns3:hr>130</ns3:hr>
          </ns3:TrackPointExtension>
        </extensions>
      </trkpt>
      <trkpt lat="-22.0807537995278835296630859375" lon="166.44640783779323101043701171875">
        <ele>761.20001220703125</ele>
        <time>2016-08-12T22:32:38.000Z</time>
        <extensions>
          <ns3:TrackPointExtension>
            <ns3:atemp>19.0</ns3:atemp>
            <ns3:hr>129</ns3:hr>
          </ns3:TrackPointExtension>
        </extensions>
      </trkpt>
      <trkpt lat="-22.0807720720767974853515625" lon="166.4464074186980724334716796875">
        <ele>761.20001220703125</ele>
        <time>2016-08-12T22:32:39.000Z</time>
        <extensions>
          <ns3:TrackPointExtension>
            <ns3:atemp>19.0</ns3:atemp>
            <ns3:hr>129</ns3:hr>
          </ns3:TrackPointExtension>
        </extensions>
      </trkpt>
      <trkpt lat="-22.08078606985509395599365234375" lon="166.446417309343814849853515625">
        <ele>761</ele>
        <time>2016-08-12T22:32:40.000Z</time>
        <extensions>
          <ns3:TrackPointExtension>
            <ns3:atemp>19.0</ns3:atemp>
            <ns3:hr>130</ns3:hr>
          </ns3:TrackPointExtension>
        </extensions>
      </trkpt>
      <trkpt lat="-22.08079931326210498809814453125" lon="166.4464231766760349273681640625">
        <ele>761</ele>
        <time>2016-08-12T22:32:41.000Z</time>
        <extensions>
          <ns3:TrackPointExtension>
            <ns3:atemp>19.0</ns3:atemp>
            <ns3:hr>129</ns3:hr>
          </ns3:TrackPointExtension>
        </extensions>
      </trkpt>
      <trkpt lat="-22.08081037737429141998291015625" lon="166.44642812199890613555908203125">
        <ele>761</ele>
        <time>2016-08-12T22:32:42.000Z</time>
        <extensions>
          <ns3:TrackPointExtension>
            <ns3:atemp>19.0</ns3:atemp>
            <ns3:hr>130</ns3:hr>
          </ns3:TrackPointExtension>
        </extensions>
      </trkpt>
      <trkpt lat="-22.08082973957061767578125" lon="166.44643583334982395172119140625">
        <ele>760.5999755859375</ele>
        <time>2016-08-12T22:32:43.000Z</time>
        <extensions>
          <ns3:TrackPointExtension>
            <ns3:atemp>19.0</ns3:atemp>
            <ns3:hr>129</ns3:hr>
          </ns3:TrackPointExtension>
        </extensions>
      </trkpt>
      <trkpt lat="-22.0808339305222034454345703125" lon="166.44643868319690227508544921875">
        <ele>759.5999755859375</ele>
        <time>2016-08-12T22:32:44.000Z</time>
        <extensions>
          <ns3:TrackPointExtension>
            <ns3:atemp>19.0</ns3:atemp>
            <ns3:hr>130</ns3:hr>
          </ns3:TrackPointExtension>
        </extensions>
      </trkpt>
      <trkpt lat="-22.08084440790116786956787109375" lon="166.4464409463107585906982421875">
        <ele>759</ele>
        <time>2016-08-12T22:32:45.000Z</time>
        <extensions>
          <ns3:TrackPointExtension>
            <ns3:atemp>19.0</ns3:atemp>
            <ns3:hr>130</ns3:hr>
          </ns3:TrackPointExtension>
        </extensions>
      </trkpt>
      <trkpt lat="-22.08086117170751094818115234375" lon="166.44644723273813724517822265625">
        <ele>759</ele>
        <time>2016-08-12T22:32:46.000Z</time>
        <extensions>
          <ns3:TrackPointExtension>
            <ns3:atemp>19.0</ns3:atemp>
            <ns3:hr>130</ns3:hr>
          </ns3:TrackPointExtension>
        </extensions>
      </trkpt>
      <trkpt lat="-22.080875337123870849609375" lon="166.4464540220797061920166015625">
        <ele>758.5999755859375</ele>
        <time>2016-08-12T22:32:47.000Z</time>
        <extensions>
          <ns3:TrackPointExtension>
            <ns3:atemp>19.0</ns3:atemp>
            <ns3:hr>130</ns3:hr>
          </ns3:TrackPointExtension>
        </extensions>
      </trkpt>
      <trkpt lat="-22.0808919332921504974365234375" lon="166.446457207202911376953125">
        <ele>758.20001220703125</ele>
        <time>2016-08-12T22:32:48.000Z</time>
        <extensions>
          <ns3:TrackPointExtension>
            <ns3:atemp>19.0</ns3:atemp>
            <ns3:hr>130</ns3:hr>
          </ns3:TrackPointExtension>
        </extensions>
      </trkpt>
      <trkpt lat="-22.08091481588780879974365234375" lon="166.44645578227937221527099609375">
        <ele>757.79998779296875</ele>
        <time>2016-08-12T22:32:49.000Z</time>
        <extensions>
          <ns3:TrackPointExtension>
            <ns3:atemp>19.0</ns3:atemp>
            <ns3:hr>130</ns3:hr>
          </ns3:TrackPointExtension>
        </extensions>
      </trkpt>
      <trkpt lat="-22.080934680998325347900390625" lon="166.44644907675683498382568359375">
        <ele>757</ele>
        <time>2016-08-12T22:32:50.000Z</time>
        <extensions>
          <ns3:TrackPointExtension>
            <ns3:atemp>19.0</ns3:atemp>
            <ns3:hr>130</ns3:hr>
          </ns3:TrackPointExtension>
        </extensions>
      </trkpt>
      <trkpt lat="-22.08094046451151371002197265625" lon="166.4464305527508258819580078125">
        <ele>756.4000244140625</ele>
        <time>2016-08-12T22:32:51.000Z</time>
        <extensions>
          <ns3:TrackPointExtension>
            <ns3:atemp>19.0</ns3:atemp>
            <ns3:hr>130</ns3:hr>
          </ns3:TrackPointExtension>
        </extensions>
      </trkpt>
      <trkpt lat="-22.08095253445208072662353515625" lon="166.44641588442027568817138671875">
        <ele>756.20001220703125</ele>
        <time>2016-08-12T22:32:52.000Z</time>
        <extensions>
          <ns3:TrackPointExtension>
            <ns3:atemp>19.0</ns3:atemp>
            <ns3:hr>130</ns3:hr>
          </ns3:TrackPointExtension>
        </extensions>
      </trkpt>
      <trkpt lat="-22.08096745423972606658935546875" lon="166.4463990367949008941650390625">
        <ele>755.4000244140625</ele>
        <time>2016-08-12T22:32:53.000Z</time>
        <extensions>
          <ns3:TrackPointExtension>
            <ns3:atemp>19.0</ns3:atemp>
            <ns3:hr>130</ns3:hr>
          </ns3:TrackPointExtension>
        </extensions>
      </trkpt>
      <trkpt lat="-22.080982290208339691162109375" lon="166.44637783057987689971923828125">
        <ele>755.20001220703125</ele>
        <time>2016-08-12T22:32:54.000Z</time>
        <extensions>
          <ns3:TrackPointExtension>
            <ns3:atemp>19.0</ns3:atemp>
            <ns3:hr>130</ns3:hr>
          </ns3:TrackPointExtension>
        </extensions>
      </trkpt>
      <trkpt lat="-22.08099846728146076202392578125" lon="166.4463551156222820281982421875">
        <ele>755.4000244140625</ele>
        <time>2016-08-12T22:32:55.000Z</time>
        <extensions>
          <ns3:TrackPointExtension>
            <ns3:atemp>19.0</ns3:atemp>
            <ns3:hr>131</ns3:hr>
          </ns3:TrackPointExtension>
        </extensions>
      </trkpt>
      <trkpt lat="-22.08099980838596820831298828125" lon="166.44632804207503795623779296875">
        <ele>755.20001220703125</ele>
        <time>2016-08-12T22:32:56.000Z</time>
        <extensions>
          <ns3:TrackPointExtension>
            <ns3:atemp>19.0</ns3:atemp>
            <ns3:hr>131</ns3:hr>
          </ns3:TrackPointExtension>
        </extensions>
      </trkpt>
      <trkpt lat="-22.08099964074790477752685546875" lon="166.44629694521427154541015625">
        <ele>754.79998779296875</ele>
        <time>2016-08-12T22:32:57.000Z</time>
        <extensions>
          <ns3:TrackPointExtension>
            <ns3:atemp>19.0</ns3:atemp>
            <ns3:hr>130</ns3:hr>
          </ns3:TrackPointExtension>
        </extensions>
      </trkpt>
      <trkpt lat="-22.08099779672920703887939453125" lon="166.44626383669674396514892578125">
        <ele>754.5999755859375</ele>
        <time>2016-08-12T22:32:58.000Z</time>
        <extensions>
          <ns3:TrackPointExtension>
            <ns3:atemp>19.0</ns3:atemp>
            <ns3:hr>131</ns3:hr>
          </ns3:TrackPointExtension>
        </extensions>
      </trkpt>
      <trkpt lat="-22.081000395119190216064453125" lon="166.44623315893113613128662109375">
        <ele>754.20001220703125</ele>
        <time>2016-08-12T22:32:59.000Z</time>
        <extensions>
          <ns3:TrackPointExtension>
            <ns3:atemp>19.0</ns3:atemp>
            <ns3:hr>130</ns3:hr>
          </ns3:TrackPointExtension>
        </extensions>
      </trkpt>
      <trkpt lat="-22.0809958688914775848388671875" lon="166.44619879312813282012939453125">
        <ele>753.5999755859375</ele>
        <time>2016-08-12T22:33:00.000Z</time>
        <extensions>
          <ns3:TrackPointExtension>
            <ns3:atemp>19.0</ns3:atemp>
            <ns3:hr>130</ns3:hr>
          </ns3:TrackPointExtension>
        </extensions>
      </trkpt>
      <trkpt lat="-22.080993019044399261474609375" lon="166.44617381505668163299560546875">
        <ele>753.5999755859375</ele>
        <time>2016-08-12T22:33:01.000Z</time>
        <extensions>
          <ns3:TrackPointExtension>
            <ns3:atemp>19.0</ns3:atemp>
            <ns3:hr>131</ns3:hr>
          </ns3:TrackPointExtension>
        </extensions>
      </trkpt>
      <trkpt lat="-22.0810076035559177398681640625" lon="166.44615369848906993865966796875">
        <ele>753.5999755859375</ele>
        <time>2016-08-12T22:33:02.000Z</time>
        <extensions>
          <ns3:TrackPointExtension>
            <ns3:atemp>19.0</ns3:atemp>
            <ns3:hr>131</ns3:hr>
          </ns3:TrackPointExtension>
        </extensions>
      </trkpt>
      <trkpt lat="-22.08101623691618442535400390625" lon="166.44613140262663364410400390625">
        <ele>753.5999755859375</ele>
        <time>2016-08-12T22:33:03.000Z</time>
        <extensions>
          <ns3:TrackPointExtension>
            <ns3:atemp>19.0</ns3:atemp>
            <ns3:hr>131</ns3:hr>
          </ns3:TrackPointExtension>
        </extensions>
      </trkpt>
      <trkpt lat="-22.0810243673622608184814453125" lon="166.44611413590610027313232421875">
        <ele>753.79998779296875</ele>
        <time>2016-08-12T22:33:04.000Z</time>
        <extensions>
          <ns3:TrackPointExtension>
            <ns3:atemp>19.0</ns3:atemp>
            <ns3:hr>130</ns3:hr>
          </ns3:TrackPointExtension>
        </extensions>
      </trkpt>
      <trkpt lat="-22.08102562464773654937744140625" lon="166.44610173068940639495849609375">
        <ele>753.79998779296875</ele>
        <time>2016-08-12T22:33:05.000Z</time>
        <extensions>
          <ns3:TrackPointExtension>
            <ns3:atemp>19.0</ns3:atemp>
            <ns3:hr>130</ns3:hr>
          </ns3:TrackPointExtension>
        </extensions>
      </trkpt>
      <trkpt lat="-22.081033252179622650146484375" lon="166.446092426776885986328125">
        <ele>754</ele>
        <time>2016-08-12T22:33:06.000Z</time>
        <extensions>
          <ns3:TrackPointExtension>
            <ns3:atemp>19.0</ns3:atemp>
            <ns3:hr>130</ns3:hr>
          </ns3:TrackPointExtension>
        </extensions>
      </trkpt>
      <trkpt lat="-22.0810344256460666656494140625" lon="166.44608236849308013916015625">
        <ele>754</ele>
        <time>2016-08-12T22:33:07.000Z</time>
        <extensions>
          <ns3:TrackPointExtension>
            <ns3:atemp>19.0</ns3:atemp>
            <ns3:hr>129</ns3:hr>
          </ns3:TrackPointExtension>
        </extensions>
      </trkpt>
      <trkpt lat="-22.0810337550938129425048828125" lon="166.44607088528573513031005859375">
        <ele>753.79998779296875</ele>
        <time>2016-08-12T22:33:08.000Z</time>
        <extensions>
          <ns3:TrackPointExtension>
            <ns3:atemp>19.0</ns3:atemp>
            <ns3:hr>129</ns3:hr>
          </ns3:TrackPointExtension>
        </extensions>
      </trkpt>
      <trkpt lat="-22.08102445118129253387451171875" lon="166.44606485031545162200927734375">
        <ele>753.79998779296875</ele>
        <time>2016-08-12T22:33:09.000Z</time>
        <extensions>
          <ns3:TrackPointExtension>
            <ns3:atemp>19.0</ns3:atemp>
            <ns3:hr>128</ns3:hr>
          </ns3:TrackPointExtension>
        </extensions>
      </trkpt>
      <trkpt lat="-22.08101539872586727142333984375" lon="166.44605764187872409820556640625">
        <ele>754.5999755859375</ele>
        <time>2016-08-12T22:33:10.000Z</time>
        <extensions>
          <ns3:TrackPointExtension>
            <ns3:atemp>19.0</ns3:atemp>
            <ns3:hr>128</ns3:hr>
          </ns3:TrackPointExtension>
        </extensions>
      </trkpt>
      <trkpt lat="-22.0810054242610931396484375" lon="166.44604825414717197418212890625">
        <ele>755</ele>
        <time>2016-08-12T22:33:11.000Z</time>
        <extensions>
          <ns3:TrackPointExtension>
            <ns3:atemp>19.0</ns3:atemp>
            <ns3:hr>127</ns3:hr>
          </ns3:TrackPointExtension>
        </extensions>
      </trkpt>
      <trkpt lat="-22.08100031130015850067138671875" lon="166.4460429735481739044189453125">
        <ele>754.79998779296875</ele>
        <time>2016-08-12T22:33:12.000Z</time>
        <extensions>
          <ns3:TrackPointExtension>
            <ns3:atemp>19.0</ns3:atemp>
            <ns3:hr>127</ns3:hr>
          </ns3:TrackPointExtension>
        </extensions>
      </trkpt>
      <trkpt lat="-22.08098840899765491485595703125" lon="166.4460372738540172576904296875">
        <ele>754.5999755859375</ele>
        <time>2016-08-12T22:33:13.000Z</time>
        <extensions>
          <ns3:TrackPointExtension>
            <ns3:atemp>19.0</ns3:atemp>
            <ns3:hr>126</ns3:hr>
          </ns3:TrackPointExtension>
        </extensions>
      </trkpt>
      <trkpt lat="-22.080978937447071075439453125" lon="166.4460320770740509033203125">
        <ele>754.5999755859375</ele>
        <time>2016-08-12T22:33:14.000Z</time>
        <extensions>
          <ns3:TrackPointExtension>
            <ns3:atemp>19.0</ns3:atemp>
            <ns3:hr>126</ns3:hr>
          </ns3:TrackPointExtension>
        </extensions>
      </trkpt>
      <trkpt lat="-22.0809710584580898284912109375" lon="166.44602914340794086456298828125">
        <ele>754.4000244140625</ele>
        <time>2016-08-12T22:33:15.000Z</time>
        <extensions>
          <ns3:TrackPointExtension>
            <ns3:atemp>19.0</ns3:atemp>
            <ns3:hr>126</ns3:hr>
          </ns3:TrackPointExtension>
        </extensions>
      </trkpt>
      <trkpt lat="-22.08097130991518497467041015625" lon="166.44602679647505283355712890625">
        <ele>754.20001220703125</ele>
        <time>2016-08-12T22:33:16.000Z</time>
        <extensions>
          <ns3:TrackPointExtension>
            <ns3:atemp>19.0</ns3:atemp>
            <ns3:hr>126</ns3:hr>
          </ns3:TrackPointExtension>
        </extensions>
      </trkpt>
      <trkpt lat="-22.08096921443939208984375" lon="166.4460215158760547637939453125">
        <ele>752.4000244140625</ele>
        <time>2016-08-12T22:33:18.000Z</time>
        <extensions>
          <ns3:TrackPointExtension>
            <ns3:atemp>19.0</ns3:atemp>
            <ns3:hr>125</ns3:hr>
          </ns3:TrackPointExtension>
        </extensions>
      </trkpt>
      <trkpt lat="-22.08096996881067752838134765625" lon="166.44601908512413501739501953125">
        <ele>752.4000244140625</ele>
        <time>2016-08-12T22:33:19.000Z</time>
        <extensions>
          <ns3:TrackPointExtension>
            <ns3:atemp>19.0</ns3:atemp>
            <ns3:hr>124</ns3:hr>
          </ns3:TrackPointExtension>
        </extensions>
      </trkpt>
      <trkpt lat="-22.08097214810550212860107421875" lon="166.44601707346737384796142578125">
        <ele>752.4000244140625</ele>
        <time>2016-08-12T22:33:20.000Z</time>
        <extensions>
          <ns3:TrackPointExtension>
            <ns3:atemp>19.0</ns3:atemp>
            <ns3:hr>121</ns3:hr>
          </ns3:TrackPointExtension>
        </extensions>
      </trkpt>
      <trkpt lat="-22.0809740759432315826416015625" lon="166.446012295782566070556640625">
        <ele>752.4000244140625</ele>
        <time>2016-08-12T22:33:21.000Z</time>
        <extensions>
          <ns3:TrackPointExtension>
            <ns3:atemp>19.0</ns3:atemp>
            <ns3:hr>119</ns3:hr>
          </ns3:TrackPointExtension>
        </extensions>
      </trkpt>
      <trkpt lat="-22.0809693820774555206298828125" lon="166.44600952975451946258544921875">
        <ele>752.79998779296875</ele>
        <time>2016-08-12T22:33:22.000Z</time>
        <extensions>
          <ns3:TrackPointExtension>
            <ns3:atemp>19.0</ns3:atemp>
            <ns3:hr>118</ns3:hr>
          </ns3:TrackPointExtension>
        </extensions>
      </trkpt>
      <trkpt lat="-22.08097013644874095916748046875" lon="166.44600701518356800079345703125">
        <ele>751.79998779296875</ele>
        <time>2016-08-12T22:33:24.000Z</time>
        <extensions>
          <ns3:TrackPointExtension>
            <ns3:atemp>19.0</ns3:atemp>
            <ns3:hr>117</ns3:hr>
          </ns3:TrackPointExtension>
        </extensions>
      </trkpt>
      <trkpt lat="-22.08096661604940891265869140625" lon="166.4460060931742191314697265625">
        <ele>751.4000244140625</ele>
        <time>2016-08-12T22:33:25.000Z</time>
        <extensions>
          <ns3:TrackPointExtension>
            <ns3:atemp>19.0</ns3:atemp>
            <ns3:hr>117</ns3:hr>
          </ns3:TrackPointExtension>
        </extensions>
      </trkpt>
      <trkpt lat="-22.0809643529355525970458984375" lon="166.44600483588874340057373046875">
        <ele>750.79998779296875</ele>
        <time>2016-08-12T22:33:27.000Z</time>
        <extensions>
          <ns3:TrackPointExtension>
            <ns3:atemp>19.0</ns3:atemp>
            <ns3:hr>116</ns3:hr>
          </ns3:TrackPointExtension>
        </extensions>
      </trkpt>
      <trkpt lat="-22.0809603296220302581787109375" lon="166.44600198604166507720947265625">
        <ele>750.79998779296875</ele>
        <time>2016-08-12T22:33:28.000Z</time>
        <extensions>
          <ns3:TrackPointExtension>
            <ns3:atemp>19.0</ns3:atemp>
            <ns3:hr>114</ns3:hr>
          </ns3:TrackPointExtension>
        </extensions>
      </trkpt>
      <trkpt lat="-22.080956138670444488525390625" lon="166.44599829800426959991455078125">
        <ele>751</ele>
        <time>2016-08-12T22:33:30.000Z</time>
        <extensions>
          <ns3:TrackPointExtension>
            <ns3:atemp>19.0</ns3:atemp>
            <ns3:hr>111</ns3:hr>
          </ns3:TrackPointExtension>
        </extensions>
      </trkpt>
      <trkpt lat="-22.08095370791852474212646484375" lon="166.445995867252349853515625">
        <ele>751</ele>
        <time>2016-08-12T22:33:31.000Z</time>
        <extensions>
          <ns3:TrackPointExtension>
            <ns3:atemp>19.0</ns3:atemp>
            <ns3:hr>109</ns3:hr>
          </ns3:TrackPointExtension>
        </extensions>
      </trkpt>
      <trkpt lat="-22.08096913062036037445068359375" lon="166.445994861423969268798828125">
        <ele>750.79998779296875</ele>
        <time>2016-08-12T22:33:33.000Z</time>
        <extensions>
          <ns3:TrackPointExtension>
            <ns3:atemp>19.0</ns3:atemp>
            <ns3:hr>110</ns3:hr>
          </ns3:TrackPointExtension>
        </extensions>
      </trkpt>
      <trkpt lat="-22.08099729381501674652099609375" lon="166.44599117338657379150390625">
        <ele>751.79998779296875</ele>
        <time>2016-08-12T22:33:34.000Z</time>
        <extensions>
          <ns3:TrackPointExtension>
            <ns3:atemp>19.0</ns3:atemp>
            <ns3:hr>111</ns3:hr>
          </ns3:TrackPointExtension>
        </extensions>
      </trkpt>
      <trkpt lat="-22.0810134708881378173828125" lon="166.44599041901528835296630859375">
        <ele>753.79998779296875</ele>
        <time>2016-08-12T22:33:35.000Z</time>
        <extensions>
          <ns3:TrackPointExtension>
            <ns3:atemp>19.0</ns3:atemp>
            <ns3:hr>112</ns3:hr>
          </ns3:TrackPointExtension>
        </extensions>
      </trkpt>
      <trkpt lat="-22.0810216851532459259033203125" lon="166.4459893293678760528564453125">
        <ele>755</ele>
        <time>2016-08-12T22:33:36.000Z</time>
        <extensions>
          <ns3:TrackPointExtension>
            <ns3:atemp>19.0</ns3:atemp>
            <ns3:hr>114</ns3:hr>
          </ns3:TrackPointExtension>
        </extensions>
      </trkpt>
      <trkpt lat="-22.08102713339030742645263671875" lon="166.4459906704723834991455078125">
        <ele>756.20001220703125</ele>
        <time>2016-08-12T22:33:37.000Z</time>
        <extensions>
          <ns3:TrackPointExtension>
            <ns3:atemp>19.0</ns3:atemp>
            <ns3:hr>115</ns3:hr>
          </ns3:TrackPointExtension>
        </extensions>
      </trkpt>
      <trkpt lat="-22.0810247026383876800537109375" lon="166.4459933526813983917236328125">
        <ele>755.5999755859375</ele>
        <time>2016-08-12T22:33:38.000Z</time>
        <extensions>
          <ns3:TrackPointExtension>
            <ns3:atemp>19.0</ns3:atemp>
            <ns3:hr>116</ns3:hr>
          </ns3:TrackPointExtension>
        </extensions>
      </trkpt>
      <trkpt lat="-22.08103031851351261138916015625" lon="166.44599528051912784576416015625">
        <ele>754.79998779296875</ele>
        <time>2016-08-12T22:33:39.000Z</time>
        <extensions>
          <ns3:TrackPointExtension>
            <ns3:atemp>19.0</ns3:atemp>
            <ns3:hr>117</ns3:hr>
          </ns3:TrackPointExtension>
        </extensions>
      </trkpt>
      <trkpt lat="-22.08102093078196048736572265625" lon="166.4460017345845699310302734375">
        <ele>754.4000244140625</ele>
        <time>2016-08-12T22:33:40.000Z</time>
        <extensions>
          <ns3:TrackPointExtension>
            <ns3:atemp>19.0</ns3:atemp>
            <ns3:hr>119</ns3:hr>
          </ns3:TrackPointExtension>
        </extensions>
      </trkpt>
      <trkpt lat="-22.08102176897227764129638671875" lon="166.44601388834416866302490234375">
        <ele>754.20001220703125</ele>
        <time>2016-08-12T22:33:41.000Z</time>
        <extensions>
          <ns3:TrackPointExtension>
            <ns3:atemp>19.0</ns3:atemp>
            <ns3:hr>120</ns3:hr>
          </ns3:TrackPointExtension>
        </extensions>
      </trkpt>
      <trkpt lat="-22.081033252179622650146484375" lon="166.4460188336670398712158203125">
        <ele>754.20001220703125</ele>
        <time>2016-08-12T22:33:42.000Z</time>
        <extensions>
          <ns3:TrackPointExtension>
            <ns3:atemp>19.0</ns3:atemp>
            <ns3:hr>121</ns3:hr>
          </ns3:TrackPointExtension>
        </extensions>
      </trkpt>
      <trkpt lat="-22.0810414664447307586669921875" lon="166.44602025859057903289794921875">
        <ele>754.20001220703125</ele>
        <time>2016-08-12T22:33:43.000Z</time>
        <extensions>
          <ns3:TrackPointExtension>
            <ns3:atemp>19.0</ns3:atemp>
            <ns3:hr>122</ns3:hr>
          </ns3:TrackPointExtension>
        </extensions>
      </trkpt>
      <trkpt lat="-22.08105211146175861358642578125" lon="166.4460285566747188568115234375">
        <ele>754.5999755859375</ele>
        <time>2016-08-12T22:33:44.000Z</time>
        <extensions>
          <ns3:TrackPointExtension>
            <ns3:atemp>19.0</ns3:atemp>
            <ns3:hr>122</ns3:hr>
          </ns3:TrackPointExtension>
        </extensions>
      </trkpt>
      <trkpt lat="-22.081064097583293914794921875" lon="166.4460345916450023651123046875">
        <ele>754.4000244140625</ele>
        <time>2016-08-12T22:33:45.000Z</time>
        <extensions>
          <ns3:TrackPointExtension>
            <ns3:atemp>19.0</ns3:atemp>
            <ns3:hr>122</ns3:hr>
          </ns3:TrackPointExtension>
        </extensions>
      </trkpt>
      <trkpt lat="-22.0810858905315399169921875" lon="166.4460428059101104736328125">
        <ele>753.79998779296875</ele>
        <time>2016-08-12T22:33:46.000Z</time>
        <extensions>
          <ns3:TrackPointExtension>
            <ns3:atemp>19.0</ns3:atemp>
            <ns3:hr>122</ns3:hr>
          </ns3:TrackPointExtension>
        </extensions>
      </trkpt>
      <trkpt lat="-22.08111447282135486602783203125" lon="166.4460490085184574127197265625">
        <ele>752.5999755859375</ele>
        <time>2016-08-12T22:33:47.000Z</time>
        <extensions>
          <ns3:TrackPointExtension>
            <ns3:atemp>19.0</ns3:atemp>
            <ns3:hr>123</ns3:hr>
          </ns3:TrackPointExtension>
        </extensions>
      </trkpt>
      <trkpt lat="-22.08113752305507659912109375" lon="166.4460597373545169830322265625">
        <ele>752</ele>
        <time>2016-08-12T22:33:48.000Z</time>
        <extensions>
          <ns3:TrackPointExtension>
            <ns3:atemp>19.0</ns3:atemp>
            <ns3:hr>123</ns3:hr>
          </ns3:TrackPointExtension>
        </extensions>
      </trkpt>
      <trkpt lat="-22.0811531133949756622314453125" lon="166.44607692025601863861083984375">
        <ele>751.79998779296875</ele>
        <time>2016-08-12T22:33:49.000Z</time>
        <extensions>
          <ns3:TrackPointExtension>
            <ns3:atemp>19.0</ns3:atemp>
            <ns3:hr>124</ns3:hr>
          </ns3:TrackPointExtension>
        </extensions>
      </trkpt>
      <trkpt lat="-22.0811728946864604949951171875" lon="166.44609552808105945587158203125">
        <ele>751.5999755859375</ele>
        <time>2016-08-12T22:33:50.000Z</time>
        <extensions>
          <ns3:TrackPointExtension>
            <ns3:atemp>19.0</ns3:atemp>
            <ns3:hr>125</ns3:hr>
          </ns3:TrackPointExtension>
        </extensions>
      </trkpt>
      <trkpt lat="-22.081190831959247589111328125" lon="166.4461137168109416961669921875">
        <ele>751.4000244140625</ele>
        <time>2016-08-12T22:33:51.000Z</time>
        <extensions>
          <ns3:TrackPointExtension>
            <ns3:atemp>19.0</ns3:atemp>
            <ns3:hr>125</ns3:hr>
          </ns3:TrackPointExtension>
        </extensions>
      </trkpt>
      <trkpt lat="-22.08121203817427158355712890625" lon="166.4461341686546802520751953125">
        <ele>751.4000244140625</ele>
        <time>2016-08-12T22:33:52.000Z</time>
        <extensions>
          <ns3:TrackPointExtension>
            <ns3:atemp>19.0</ns3:atemp>
            <ns3:hr>126</ns3:hr>
          </ns3:TrackPointExtension>
        </extensions>
      </trkpt>
      <trkpt lat="-22.08123500458896160125732421875" lon="166.44615403376519680023193359375">
        <ele>751.79998779296875</ele>
        <time>2016-08-12T22:33:53.000Z</time>
        <extensions>
          <ns3:TrackPointExtension>
            <ns3:atemp>19.0</ns3:atemp>
            <ns3:hr>126</ns3:hr>
          </ns3:TrackPointExtension>
        </extensions>
      </trkpt>
      <trkpt lat="-22.08125730045139789581298828125" lon="166.446172893047332763671875">
        <ele>751.79998779296875</ele>
        <time>2016-08-12T22:33:54.000Z</time>
        <extensions>
          <ns3:TrackPointExtension>
            <ns3:atemp>19.0</ns3:atemp>
            <ns3:hr>126</ns3:hr>
          </ns3:TrackPointExtension>
        </extensions>
      </trkpt>
      <trkpt lat="-22.0812811888754367828369140625" lon="166.4461918361485004425048828125">
        <ele>751.79998779296875</ele>
        <time>2016-08-12T22:33:55.000Z</time>
        <extensions>
          <ns3:TrackPointExtension>
            <ns3:atemp>19.0</ns3:atemp>
            <ns3:hr>126</ns3:hr>
          </ns3:TrackPointExtension>
        </extensions>
      </trkpt>
      <trkpt lat="-22.0813023112714290618896484375" lon="166.44620901905000209808349609375">
        <ele>751.5999755859375</ele>
        <time>2016-08-12T22:33:56.000Z</time>
        <extensions>
          <ns3:TrackPointExtension>
            <ns3:atemp>19.0</ns3:atemp>
            <ns3:hr>125</ns3:hr>
          </ns3:TrackPointExtension>
        </extensions>
      </trkpt>
      <trkpt lat="-22.0813227631151676177978515625" lon="166.44622586667537689208984375">
        <ele>751.79998779296875</ele>
        <time>2016-08-12T22:33:57.000Z</time>
        <extensions>
          <ns3:TrackPointExtension>
            <ns3:atemp>19.0</ns3:atemp>
            <ns3:hr>125</ns3:hr>
          </ns3:TrackPointExtension>
        </extensions>
      </trkpt>
      <trkpt lat="-22.081349082291126251220703125" lon="166.4462401159107685089111328125">
        <ele>751.79998779296875</ele>
        <time>2016-08-12T22:33:58.000Z</time>
        <extensions>
          <ns3:TrackPointExtension>
            <ns3:atemp>19.0</ns3:atemp>
            <ns3:hr>125</ns3:hr>
          </ns3:TrackPointExtension>
        </extensions>
      </trkpt>
      <trkpt lat="-22.081373892724514007568359375" lon="166.4462521858513355255126953125">
        <ele>751.5999755859375</ele>
        <time>2016-08-12T22:33:59.000Z</time>
        <extensions>
          <ns3:TrackPointExtension>
            <ns3:atemp>19.0</ns3:atemp>
            <ns3:hr>125</ns3:hr>
          </ns3:TrackPointExtension>
        </extensions>
      </trkpt>
      <trkpt lat="-22.08139996044337749481201171875" lon="166.4462627470493316650390625">
        <ele>751.4000244140625</ele>
        <time>2016-08-12T22:34:00.000Z</time>
        <extensions>
          <ns3:TrackPointExtension>
            <ns3:atemp>19.0</ns3:atemp>
            <ns3:hr>125</ns3:hr>
          </ns3:TrackPointExtension>
        </extensions>
      </trkpt>
      <trkpt lat="-22.08142477087676525115966796875" lon="166.446272470057010650634765625">
        <ele>751</ele>
        <time>2016-08-12T22:34:01.000Z</time>
        <extensions>
          <ns3:TrackPointExtension>
            <ns3:atemp>19.0</ns3:atemp>
            <ns3:hr>125</ns3:hr>
          </ns3:TrackPointExtension>
        </extensions>
      </trkpt>
      <trkpt lat="-22.08144723437726497650146484375" lon="166.44627909176051616668701171875">
        <ele>751</ele>
        <time>2016-08-12T22:34:02.000Z</time>
        <extensions>
          <ns3:TrackPointExtension>
            <ns3:atemp>19.0</ns3:atemp>
            <ns3:hr>125</ns3:hr>
          </ns3:TrackPointExtension>
        </extensions>
      </trkpt>
      <trkpt lat="-22.08146869204938411712646484375" lon="166.4462810195982456207275390625">
        <ele>750.79998779296875</ele>
        <time>2016-08-12T22:34:03.000Z</time>
        <extensions>
          <ns3:TrackPointExtension>
            <ns3:atemp>19.0</ns3:atemp>
            <ns3:hr>124</ns3:hr>
          </ns3:TrackPointExtension>
        </extensions>
      </trkpt>
      <trkpt lat="-22.0814935863018035888671875" lon="166.446289904415607452392578125">
        <ele>750.5999755859375</ele>
        <time>2016-08-12T22:34:04.000Z</time>
        <extensions>
          <ns3:TrackPointExtension>
            <ns3:atemp>19.0</ns3:atemp>
            <ns3:hr>124</ns3:hr>
          </ns3:TrackPointExtension>
        </extensions>
      </trkpt>
      <trkpt lat="-22.08151881583034992218017578125" lon="166.4463008008897304534912109375">
        <ele>750.4000244140625</ele>
        <time>2016-08-12T22:34:05.000Z</time>
        <extensions>
          <ns3:TrackPointExtension>
            <ns3:atemp>19.0</ns3:atemp>
            <ns3:hr>124</ns3:hr>
          </ns3:TrackPointExtension>
        </extensions>
      </trkpt>
      <trkpt lat="-22.0815445482730865478515625" lon="166.44631169736385345458984375">
        <ele>750.20001220703125</ele>
        <time>2016-08-12T22:34:06.000Z</time>
        <extensions>
          <ns3:TrackPointExtension>
            <ns3:atemp>19.0</ns3:atemp>
            <ns3:hr>123</ns3:hr>
          </ns3:TrackPointExtension>
        </extensions>
      </trkpt>
      <trkpt lat="-22.08157002925872802734375" lon="166.44632150419056415557861328125">
        <ele>750</ele>
        <time>2016-08-12T22:34:07.000Z</time>
        <extensions>
          <ns3:TrackPointExtension>
            <ns3:atemp>19.0</ns3:atemp>
            <ns3:hr>123</ns3:hr>
          </ns3:TrackPointExtension>
        </extensions>
      </trkpt>
      <trkpt lat="-22.0815909840166568756103515625" lon="166.446333490312099456787109375">
        <ele>749.79998779296875</ele>
        <time>2016-08-12T22:34:08.000Z</time>
        <extensions>
          <ns3:TrackPointExtension>
            <ns3:atemp>19.0</ns3:atemp>
            <ns3:hr>123</ns3:hr>
          </ns3:TrackPointExtension>
        </extensions>
      </trkpt>
      <trkpt lat="-22.0816151238977909088134765625" lon="166.4463420398533344268798828125">
        <ele>749.79998779296875</ele>
        <time>2016-08-12T22:34:09.000Z</time>
        <extensions>
          <ns3:TrackPointExtension>
            <ns3:atemp>19.0</ns3:atemp>
            <ns3:hr>122</ns3:hr>
          </ns3:TrackPointExtension>
        </extensions>
      </trkpt>
      <trkpt lat="-22.081635408103466033935546875" lon="166.44635268487036228179931640625">
        <ele>749.79998779296875</ele>
        <time>2016-08-12T22:34:10.000Z</time>
        <extensions>
          <ns3:TrackPointExtension>
            <ns3:atemp>19.0</ns3:atemp>
            <ns3:hr>122</ns3:hr>
          </ns3:TrackPointExtension>
        </extensions>
      </trkpt>
      <trkpt lat="-22.08165259100496768951416015625" lon="166.44636341370642185211181640625">
        <ele>749.4000244140625</ele>
        <time>2016-08-12T22:34:11.000Z</time>
        <extensions>
          <ns3:TrackPointExtension>
            <ns3:atemp>19.0</ns3:atemp>
            <ns3:hr>121</ns3:hr>
          </ns3:TrackPointExtension>
        </extensions>
      </trkpt>
      <trkpt lat="-22.08167337812483310699462890625" lon="166.4463732205331325531005859375">
        <ele>749</ele>
        <time>2016-08-12T22:34:12.000Z</time>
        <extensions>
          <ns3:TrackPointExtension>
            <ns3:atemp>19.0</ns3:atemp>
            <ns3:hr>121</ns3:hr>
          </ns3:TrackPointExtension>
        </extensions>
      </trkpt>
      <trkpt lat="-22.08169567398726940155029296875" lon="166.4463805966079235076904296875">
        <ele>748.5999755859375</ele>
        <time>2016-08-12T22:34:13.000Z</time>
        <extensions>
          <ns3:TrackPointExtension>
            <ns3:atemp>19.0</ns3:atemp>
            <ns3:hr>121</ns3:hr>
          </ns3:TrackPointExtension>
        </extensions>
      </trkpt>
      <trkpt lat="-22.08171729929745197296142578125" lon="166.44638009369373321533203125">
        <ele>748.5999755859375</ele>
        <time>2016-08-12T22:34:14.000Z</time>
        <extensions>
          <ns3:TrackPointExtension>
            <ns3:atemp>19.0</ns3:atemp>
            <ns3:hr>120</ns3:hr>
          </ns3:TrackPointExtension>
        </extensions>
      </trkpt>
      <trkpt lat="-22.08173967897891998291015625" lon="166.44637338817119598388671875">
        <ele>748.5999755859375</ele>
        <time>2016-08-12T22:34:15.000Z</time>
        <extensions>
          <ns3:TrackPointExtension>
            <ns3:atemp>19.0</ns3:atemp>
            <ns3:hr>120</ns3:hr>
          </ns3:TrackPointExtension>
        </extensions>
      </trkpt>
      <trkpt lat="-22.0817649923264980316162109375" lon="166.44636274315416812896728515625">
        <ele>748.4000244140625</ele>
        <time>2016-08-12T22:34:16.000Z</time>
        <extensions>
          <ns3:TrackPointExtension>
            <ns3:atemp>19.0</ns3:atemp>
            <ns3:hr>119</ns3:hr>
          </ns3:TrackPointExtension>
        </extensions>
      </trkpt>
      <trkpt lat="-22.08179332315921783447265625" lon="166.4463531039655208587646484375">
        <ele>747.79998779296875</ele>
        <time>2016-08-12T22:34:17.000Z</time>
        <extensions>
          <ns3:TrackPointExtension>
            <ns3:atemp>19.0</ns3:atemp>
            <ns3:hr>119</ns3:hr>
          </ns3:TrackPointExtension>
        </extensions>
      </trkpt>
      <trkpt lat="-22.0818253420293331146240234375" lon="166.44633608870208263397216796875">
        <ele>747.5999755859375</ele>
        <time>2016-08-12T22:34:18.000Z</time>
        <extensions>
          <ns3:TrackPointExtension>
            <ns3:atemp>19.0</ns3:atemp>
            <ns3:hr>119</ns3:hr>
          </ns3:TrackPointExtension>
        </extensions>
      </trkpt>
      <trkpt lat="-22.0818585343658924102783203125" lon="166.4463215880095958709716796875">
        <ele>746.79998779296875</ele>
        <time>2016-08-12T22:34:19.000Z</time>
        <extensions>
          <ns3:TrackPointExtension>
            <ns3:atemp>19.0</ns3:atemp>
            <ns3:hr>120</ns3:hr>
          </ns3:TrackPointExtension>
        </extensions>
      </trkpt>
      <trkpt lat="-22.08188141696155071258544921875" lon="166.44629753194749355316162109375">
        <ele>745.5999755859375</ele>
        <time>2016-08-12T22:34:20.000Z</time>
        <extensions>
          <ns3:TrackPointExtension>
            <ns3:atemp>19.0</ns3:atemp>
            <ns3:hr>120</ns3:hr>
          </ns3:TrackPointExtension>
        </extensions>
      </trkpt>
      <trkpt lat="-22.0818957500159740447998046875" lon="166.44627003930509090423583984375">
        <ele>745.4000244140625</ele>
        <time>2016-08-12T22:34:21.000Z</time>
        <extensions>
          <ns3:TrackPointExtension>
            <ns3:atemp>19.0</ns3:atemp>
            <ns3:hr>121</ns3:hr>
          </ns3:TrackPointExtension>
        </extensions>
      </trkpt>
      <trkpt lat="-22.08191142417490482330322265625" lon="166.44624925218522548675537109375">
        <ele>745.4000244140625</ele>
        <time>2016-08-12T22:34:22.000Z</time>
        <extensions>
          <ns3:TrackPointExtension>
            <ns3:atemp>19.0</ns3:atemp>
            <ns3:hr>122</ns3:hr>
          </ns3:TrackPointExtension>
        </extensions>
      </trkpt>
      <trkpt lat="-22.08192584104835987091064453125" lon="166.446226872503757476806640625">
        <ele>745.20001220703125</ele>
        <time>2016-08-12T22:34:23.000Z</time>
        <extensions>
          <ns3:TrackPointExtension>
            <ns3:atemp>19.0</ns3:atemp>
            <ns3:hr>122</ns3:hr>
          </ns3:TrackPointExtension>
        </extensions>
      </trkpt>
      <trkpt lat="-22.0819361507892608642578125" lon="166.4462008886039257049560546875">
        <ele>745</ele>
        <time>2016-08-12T22:34:24.000Z</time>
        <extensions>
          <ns3:TrackPointExtension>
            <ns3:atemp>19.0</ns3:atemp>
            <ns3:hr>123</ns3:hr>
          </ns3:TrackPointExtension>
        </extensions>
      </trkpt>
      <trkpt lat="-22.08194076083600521087646484375" lon="166.446175239980220794677734375">
        <ele>745</ele>
        <time>2016-08-12T22:34:25.000Z</time>
        <extensions>
          <ns3:TrackPointExtension>
            <ns3:atemp>19.0</ns3:atemp>
            <ns3:hr>123</ns3:hr>
          </ns3:TrackPointExtension>
        </extensions>
      </trkpt>
      <trkpt lat="-22.0819537527859210968017578125" lon="166.446150429546833038330078125">
        <ele>745</ele>
        <time>2016-08-12T22:34:26.000Z</time>
        <extensions>
          <ns3:TrackPointExtension>
            <ns3:atemp>19.0</ns3:atemp>
            <ns3:hr>124</ns3:hr>
          </ns3:TrackPointExtension>
        </extensions>
      </trkpt>
      <trkpt lat="-22.08197663538157939910888671875" lon="166.44613190554082393646240234375">
        <ele>745.20001220703125</ele>
        <time>2016-08-12T22:34:27.000Z</time>
        <extensions>
          <ns3:TrackPointExtension>
            <ns3:atemp>19.0</ns3:atemp>
            <ns3:hr>124</ns3:hr>
          </ns3:TrackPointExtension>
        </extensions>
      </trkpt>
      <trkpt lat="-22.08198912441730499267578125" lon="166.44611111842095851898193359375">
        <ele>745.20001220703125</ele>
        <time>2016-08-12T22:34:28.000Z</time>
        <extensions>
          <ns3:TrackPointExtension>
            <ns3:atemp>19.0</ns3:atemp>
            <ns3:hr>125</ns3:hr>
          </ns3:TrackPointExtension>
        </extensions>
      </trkpt>
      <trkpt lat="-22.08200043998658657073974609375" lon="166.446084715425968170166015625">
        <ele>744.79998779296875</ele>
        <time>2016-08-12T22:34:29.000Z</time>
        <extensions>
          <ns3:TrackPointExtension>
            <ns3:atemp>19.0</ns3:atemp>
            <ns3:hr>125</ns3:hr>
          </ns3:TrackPointExtension>
        </extensions>
      </trkpt>
      <trkpt lat="-22.08201217465102672576904296875" lon="166.44606200046837329864501953125">
        <ele>743.79998779296875</ele>
        <time>2016-08-12T22:34:30.000Z</time>
        <extensions>
          <ns3:TrackPointExtension>
            <ns3:atemp>19.0</ns3:atemp>
            <ns3:hr>126</ns3:hr>
          </ns3:TrackPointExtension>
        </extensions>
      </trkpt>
      <trkpt lat="-22.0820298604667186737060546875" lon="166.4460412971675395965576171875">
        <ele>743.5999755859375</ele>
        <time>2016-08-12T22:34:31.000Z</time>
        <extensions>
          <ns3:TrackPointExtension>
            <ns3:atemp>19.0</ns3:atemp>
            <ns3:hr>126</ns3:hr>
          </ns3:TrackPointExtension>
        </extensions>
      </trkpt>
      <trkpt lat="-22.08204939030110836029052734375" lon="166.44601841457188129425048828125">
        <ele>744</ele>
        <time>2016-08-12T22:34:32.000Z</time>
        <extensions>
          <ns3:TrackPointExtension>
            <ns3:atemp>19.0</ns3:atemp>
            <ns3:hr>127</ns3:hr>
          </ns3:TrackPointExtension>
        </extensions>
      </trkpt>
      <trkpt lat="-22.08206783048808574676513671875" lon="166.4459977112710475921630859375">
        <ele>744</ele>
        <time>2016-08-12T22:34:33.000Z</time>
        <extensions>
          <ns3:TrackPointExtension>
            <ns3:atemp>19.0</ns3:atemp>
            <ns3:hr>127</ns3:hr>
          </ns3:TrackPointExtension>
        </extensions>
      </trkpt>
      <trkpt lat="-22.0820871926844120025634765625" lon="166.44597399048507213592529296875">
        <ele>744</ele>
        <time>2016-08-12T22:34:34.000Z</time>
        <extensions>
          <ns3:TrackPointExtension>
            <ns3:atemp>19.0</ns3:atemp>
            <ns3:hr>127</ns3:hr>
          </ns3:TrackPointExtension>
        </extensions>
      </trkpt>
      <trkpt lat="-22.0821073092520236968994140625" lon="166.44595186226069927215576171875">
        <ele>743.79998779296875</ele>
        <time>2016-08-12T22:34:35.000Z</time>
        <extensions>
          <ns3:TrackPointExtension>
            <ns3:atemp>19.0</ns3:atemp>
            <ns3:hr>128</ns3:hr>
          </ns3:TrackPointExtension>
        </extensions>
      </trkpt>
      <trkpt lat="-22.082130610942840576171875" lon="166.44593040458858013153076171875">
        <ele>744.20001220703125</ele>
        <time>2016-08-12T22:34:36.000Z</time>
        <extensions>
          <ns3:TrackPointExtension>
            <ns3:atemp>19.0</ns3:atemp>
            <ns3:hr>128</ns3:hr>
          </ns3:TrackPointExtension>
        </extensions>
      </trkpt>
      <trkpt lat="-22.08214377053081989288330078125" lon="166.44590534269809722900390625">
        <ele>745</ele>
        <time>2016-08-12T22:34:37.000Z</time>
        <extensions>
          <ns3:TrackPointExtension>
            <ns3:atemp>19.0</ns3:atemp>
            <ns3:hr>128</ns3:hr>
          </ns3:TrackPointExtension>
        </extensions>
      </trkpt>
      <trkpt lat="-22.08215944468975067138671875" lon="166.44588195718824863433837890625">
        <ele>745.4000244140625</ele>
        <time>2016-08-12T22:34:38.000Z</time>
        <extensions>
          <ns3:TrackPointExtension>
            <ns3:atemp>19.0</ns3:atemp>
            <ns3:hr>129</ns3:hr>
          </ns3:TrackPointExtension>
        </extensions>
      </trkpt>
      <trkpt lat="-22.08217696286737918853759765625" lon="166.44585982896387577056884765625">
        <ele>744.4000244140625</ele>
        <time>2016-08-12T22:34:39.000Z</time>
        <extensions>
          <ns3:TrackPointExtension>
            <ns3:atemp>19.0</ns3:atemp>
            <ns3:hr>129</ns3:hr>
          </ns3:TrackPointExtension>
        </extensions>
      </trkpt>
      <trkpt lat="-22.082187272608280181884765625" lon="166.44583560526371002197265625">
        <ele>744</ele>
        <time>2016-08-12T22:34:40.000Z</time>
        <extensions>
          <ns3:TrackPointExtension>
            <ns3:atemp>19.0</ns3:atemp>
            <ns3:hr>129</ns3:hr>
          </ns3:TrackPointExtension>
        </extensions>
      </trkpt>
      <trkpt lat="-22.08220412023365497589111328125" lon="166.4458176679909229278564453125">
        <ele>743.5999755859375</ele>
        <time>2016-08-12T22:34:41.000Z</time>
        <extensions>
          <ns3:TrackPointExtension>
            <ns3:atemp>19.0</ns3:atemp>
            <ns3:hr>129</ns3:hr>
          </ns3:TrackPointExtension>
        </extensions>
      </trkpt>
      <trkpt lat="-22.08222054876387119293212890625" lon="166.44579847343266010284423828125">
        <ele>743</ele>
        <time>2016-08-12T22:34:42.000Z</time>
        <extensions>
          <ns3:TrackPointExtension>
            <ns3:atemp>19.0</ns3:atemp>
            <ns3:hr>129</ns3:hr>
          </ns3:TrackPointExtension>
        </extensions>
      </trkpt>
      <trkpt lat="-22.082237564027309417724609375" lon="166.44578154198825359344482421875">
        <ele>742.79998779296875</ele>
        <time>2016-08-12T22:34:43.000Z</time>
        <extensions>
          <ns3:TrackPointExtension>
            <ns3:atemp>19.0</ns3:atemp>
            <ns3:hr>129</ns3:hr>
          </ns3:TrackPointExtension>
        </extensions>
      </trkpt>
      <trkpt lat="-22.08225357346236705780029296875" lon="166.44576293416321277618408203125">
        <ele>743</ele>
        <time>2016-08-12T22:34:44.000Z</time>
        <extensions>
          <ns3:TrackPointExtension>
            <ns3:atemp>19.0</ns3:atemp>
            <ns3:hr>129</ns3:hr>
          </ns3:TrackPointExtension>
        </extensions>
      </trkpt>
      <trkpt lat="-22.082273773849010467529296875" lon="166.44574197940528392791748046875">
        <ele>742.79998779296875</ele>
        <time>2016-08-12T22:34:45.000Z</time>
        <extensions>
          <ns3:TrackPointExtension>
            <ns3:atemp>19.0</ns3:atemp>
            <ns3:hr>129</ns3:hr>
          </ns3:TrackPointExtension>
        </extensions>
      </trkpt>
      <trkpt lat="-22.0822920463979244232177734375" lon="166.44572295248508453369140625">
        <ele>742.79998779296875</ele>
        <time>2016-08-12T22:34:46.000Z</time>
        <extensions>
          <ns3:TrackPointExtension>
            <ns3:atemp>19.0</ns3:atemp>
            <ns3:hr>129</ns3:hr>
          </ns3:TrackPointExtension>
        </extensions>
      </trkpt>
      <trkpt lat="-22.08230604417622089385986328125" lon="166.44570325501263141632080078125">
        <ele>742.4000244140625</ele>
        <time>2016-08-12T22:34:47.000Z</time>
        <extensions>
          <ns3:TrackPointExtension>
            <ns3:atemp>19.0</ns3:atemp>
            <ns3:hr>129</ns3:hr>
          </ns3:TrackPointExtension>
        </extensions>
      </trkpt>
      <trkpt lat="-22.08231903612613677978515625" lon="166.4456798695027828216552734375">
        <ele>742</ele>
        <time>2016-08-12T22:34:48.000Z</time>
        <extensions>
          <ns3:TrackPointExtension>
            <ns3:atemp>19.0</ns3:atemp>
            <ns3:hr>129</ns3:hr>
          </ns3:TrackPointExtension>
        </extensions>
      </trkpt>
      <trkpt lat="-22.0823373086750507354736328125" lon="166.445658244192600250244140625">
        <ele>741.79998779296875</ele>
        <time>2016-08-12T22:34:49.000Z</time>
        <extensions>
          <ns3:TrackPointExtension>
            <ns3:atemp>19.0</ns3:atemp>
            <ns3:hr>129</ns3:hr>
          </ns3:TrackPointExtension>
        </extensions>
      </trkpt>
      <trkpt lat="-22.082356922328472137451171875" lon="166.44563217647373676300048828125">
        <ele>741.4000244140625</ele>
        <time>2016-08-12T22:34:50.000Z</time>
        <extensions>
          <ns3:TrackPointExtension>
            <ns3:atemp>19.0</ns3:atemp>
            <ns3:hr>129</ns3:hr>
          </ns3:TrackPointExtension>
        </extensions>
      </trkpt>
      <trkpt lat="-22.0823715068399906158447265625" lon="166.44560619257390499114990234375">
        <ele>740.4000244140625</ele>
        <time>2016-08-12T22:34:51.000Z</time>
        <extensions>
          <ns3:TrackPointExtension>
            <ns3:atemp>19.0</ns3:atemp>
            <ns3:hr>129</ns3:hr>
          </ns3:TrackPointExtension>
        </extensions>
      </trkpt>
      <trkpt lat="-22.08238516934216022491455078125" lon="166.445583142340183258056640625">
        <ele>739.79998779296875</ele>
        <time>2016-08-12T22:34:52.000Z</time>
        <extensions>
          <ns3:TrackPointExtension>
            <ns3:atemp>19.0</ns3:atemp>
            <ns3:hr>129</ns3:hr>
          </ns3:TrackPointExtension>
        </extensions>
      </trkpt>
      <trkpt lat="-22.082397826015949249267578125" lon="166.44556143321096897125244140625">
        <ele>738.5999755859375</ele>
        <time>2016-08-12T22:34:53.000Z</time>
        <extensions>
          <ns3:TrackPointExtension>
            <ns3:atemp>19.0</ns3:atemp>
            <ns3:hr>129</ns3:hr>
          </ns3:TrackPointExtension>
        </extensions>
      </trkpt>
      <trkpt lat="-22.0824103988707065582275390625" lon="166.44553796388208866119384765625">
        <ele>737.79998779296875</ele>
        <time>2016-08-12T22:34:54.000Z</time>
        <extensions>
          <ns3:TrackPointExtension>
            <ns3:atemp>19.0</ns3:atemp>
            <ns3:hr>129</ns3:hr>
          </ns3:TrackPointExtension>
        </extensions>
      </trkpt>
      <trkpt lat="-22.0824211277067661285400390625" lon="166.445511393249034881591796875">
        <ele>737</ele>
        <time>2016-08-12T22:34:55.000Z</time>
        <extensions>
          <ns3:TrackPointExtension>
            <ns3:atemp>19.0</ns3:atemp>
            <ns3:hr>129</ns3:hr>
          </ns3:TrackPointExtension>
        </extensions>
      </trkpt>
      <trkpt lat="-22.0824261568486690521240234375" lon="166.44548515789210796356201171875">
        <ele>736.5999755859375</ele>
        <time>2016-08-12T22:34:56.000Z</time>
        <extensions>
          <ns3:TrackPointExtension>
            <ns3:atemp>19.0</ns3:atemp>
            <ns3:hr>129</ns3:hr>
          </ns3:TrackPointExtension>
        </extensions>
      </trkpt>
      <trkpt lat="-22.08243881352245807647705078125" lon="166.4454575814306735992431640625">
        <ele>736.4000244140625</ele>
        <time>2016-08-12T22:34:57.000Z</time>
        <extensions>
          <ns3:TrackPointExtension>
            <ns3:atemp>19.0</ns3:atemp>
            <ns3:hr>128</ns3:hr>
          </ns3:TrackPointExtension>
        </extensions>
      </trkpt>
      <trkpt lat="-22.08244602195918560028076171875" lon="166.44543184898793697357177734375">
        <ele>736.4000244140625</ele>
        <time>2016-08-12T22:34:58.000Z</time>
        <extensions>
          <ns3:TrackPointExtension>
            <ns3:atemp>19.0</ns3:atemp>
            <ns3:hr>128</ns3:hr>
          </ns3:TrackPointExtension>
        </extensions>
      </trkpt>
      <trkpt lat="-22.08246094174683094024658203125" lon="166.44540435634553432464599609375">
        <ele>736.4000244140625</ele>
        <time>2016-08-12T22:34:59.000Z</time>
        <extensions>
          <ns3:TrackPointExtension>
            <ns3:atemp>19.0</ns3:atemp>
            <ns3:hr>128</ns3:hr>
          </ns3:TrackPointExtension>
        </extensions>
      </trkpt>
      <trkpt lat="-22.08247837610542774200439453125" lon="166.445380635559558868408203125">
        <ele>736.20001220703125</ele>
        <time>2016-08-12T22:35:00.000Z</time>
        <extensions>
          <ns3:TrackPointExtension>
            <ns3:atemp>19.0</ns3:atemp>
            <ns3:hr>128</ns3:hr>
          </ns3:TrackPointExtension>
        </extensions>
      </trkpt>
      <trkpt lat="-22.0824901945888996124267578125" lon="166.4453543163836002349853515625">
        <ele>736.20001220703125</ele>
        <time>2016-08-12T22:35:01.000Z</time>
        <extensions>
          <ns3:TrackPointExtension>
            <ns3:atemp>19.0</ns3:atemp>
            <ns3:hr>128</ns3:hr>
          </ns3:TrackPointExtension>
        </extensions>
      </trkpt>
      <trkpt lat="-22.0825042761862277984619140625" lon="166.44533227197825908660888671875">
        <ele>736.5999755859375</ele>
        <time>2016-08-12T22:35:02.000Z</time>
        <extensions>
          <ns3:TrackPointExtension>
            <ns3:atemp>19.0</ns3:atemp>
            <ns3:hr>128</ns3:hr>
          </ns3:TrackPointExtension>
        </extensions>
      </trkpt>
      <trkpt lat="-22.08252950571477413177490234375" lon="166.44531391561031341552734375">
        <ele>737</ele>
        <time>2016-08-12T22:35:03.000Z</time>
        <extensions>
          <ns3:TrackPointExtension>
            <ns3:atemp>19.0</ns3:atemp>
            <ns3:hr>128</ns3:hr>
          </ns3:TrackPointExtension>
        </extensions>
      </trkpt>
      <trkpt lat="-22.0825518853962421417236328125" lon="166.44529514014720916748046875">
        <ele>736.79998779296875</ele>
        <time>2016-08-12T22:35:04.000Z</time>
        <extensions>
          <ns3:TrackPointExtension>
            <ns3:atemp>19.0</ns3:atemp>
            <ns3:hr>128</ns3:hr>
          </ns3:TrackPointExtension>
        </extensions>
      </trkpt>
      <trkpt lat="-22.08257543854415416717529296875" lon="166.4452768675982952117919921875">
        <ele>736.4000244140625</ele>
        <time>2016-08-12T22:35:05.000Z</time>
        <extensions>
          <ns3:TrackPointExtension>
            <ns3:atemp>19.0</ns3:atemp>
            <ns3:hr>128</ns3:hr>
          </ns3:TrackPointExtension>
        </extensions>
      </trkpt>
      <trkpt lat="-22.08260309882462024688720703125" lon="166.4452554099261760711669921875">
        <ele>736.4000244140625</ele>
        <time>2016-08-12T22:35:06.000Z</time>
        <extensions>
          <ns3:TrackPointExtension>
            <ns3:atemp>19.0</ns3:atemp>
            <ns3:hr>127</ns3:hr>
          </ns3:TrackPointExtension>
        </extensions>
      </trkpt>
      <trkpt lat="-22.082624137401580810546875" lon="166.44523705355823040008544921875">
        <ele>736.20001220703125</ele>
        <time>2016-08-12T22:35:07.000Z</time>
        <extensions>
          <ns3:TrackPointExtension>
            <ns3:atemp>19.0</ns3:atemp>
            <ns3:hr>127</ns3:hr>
          </ns3:TrackPointExtension>
        </extensions>
      </trkpt>
      <trkpt lat="-22.08264626562595367431640625" lon="166.44522137939929962158203125">
        <ele>736</ele>
        <time>2016-08-12T22:35:08.000Z</time>
        <extensions>
          <ns3:TrackPointExtension>
            <ns3:atemp>19.0</ns3:atemp>
            <ns3:hr>127</ns3:hr>
          </ns3:TrackPointExtension>
        </extensions>
      </trkpt>
      <trkpt lat="-22.0826608501374721527099609375" lon="166.4452031068503856658935546875">
        <ele>736</ele>
        <time>2016-08-12T22:35:09.000Z</time>
        <extensions>
          <ns3:TrackPointExtension>
            <ns3:atemp>19.0</ns3:atemp>
            <ns3:hr>127</ns3:hr>
          </ns3:TrackPointExtension>
        </extensions>
      </trkpt>
      <trkpt lat="-22.0826725848019123077392578125" lon="166.4451806433498859405517578125">
        <ele>736</ele>
        <time>2016-08-12T22:35:10.000Z</time>
        <extensions>
          <ns3:TrackPointExtension>
            <ns3:atemp>19.0</ns3:atemp>
            <ns3:hr>127</ns3:hr>
          </ns3:TrackPointExtension>
        </extensions>
      </trkpt>
      <trkpt lat="-22.08268172107636928558349609375" lon="166.44515792839229106903076171875">
        <ele>735.79998779296875</ele>
        <time>2016-08-12T22:35:11.000Z</time>
        <extensions>
          <ns3:TrackPointExtension>
            <ns3:atemp>19.0</ns3:atemp>
            <ns3:hr>127</ns3:hr>
          </ns3:TrackPointExtension>
        </extensions>
      </trkpt>
      <trkpt lat="-22.08270519040524959564208984375" lon="166.4451363869011402130126953125">
        <ele>736</ele>
        <time>2016-08-12T22:35:12.000Z</time>
        <extensions>
          <ns3:TrackPointExtension>
            <ns3:atemp>19.0</ns3:atemp>
            <ns3:hr>127</ns3:hr>
          </ns3:TrackPointExtension>
        </extensions>
      </trkpt>
      <trkpt lat="-22.08272136747837066650390625" lon="166.44511274993419647216796875">
        <ele>735.79998779296875</ele>
        <time>2016-08-12T22:35:13.000Z</time>
        <extensions>
          <ns3:TrackPointExtension>
            <ns3:atemp>19.0</ns3:atemp>
            <ns3:hr>127</ns3:hr>
          </ns3:TrackPointExtension>
        </extensions>
      </trkpt>
      <trkpt lat="-22.0827393047511577606201171875" lon="166.4450911246240139007568359375">
        <ele>735.5999755859375</ele>
        <time>2016-08-12T22:35:14.000Z</time>
        <extensions>
          <ns3:TrackPointExtension>
            <ns3:atemp>19.0</ns3:atemp>
            <ns3:hr>127</ns3:hr>
          </ns3:TrackPointExtension>
        </extensions>
      </trkpt>
      <trkpt lat="-22.082747519016265869140625" lon="166.445064805448055267333984375">
        <ele>735.20001220703125</ele>
        <time>2016-08-12T22:35:15.000Z</time>
        <extensions>
          <ns3:TrackPointExtension>
            <ns3:atemp>19.0</ns3:atemp>
            <ns3:hr>127</ns3:hr>
          </ns3:TrackPointExtension>
        </extensions>
      </trkpt>
      <trkpt lat="-22.0827641151845455169677734375" lon="166.4450482092797756195068359375">
        <ele>735.20001220703125</ele>
        <time>2016-08-12T22:35:16.000Z</time>
        <extensions>
          <ns3:TrackPointExtension>
            <ns3:atemp>19.0</ns3:atemp>
            <ns3:hr>127</ns3:hr>
          </ns3:TrackPointExtension>
        </extensions>
      </trkpt>
      <trkpt lat="-22.0827708207070827484130859375" lon="166.44502691924571990966796875">
        <ele>735</ele>
        <time>2016-08-12T22:35:17.000Z</time>
        <extensions>
          <ns3:TrackPointExtension>
            <ns3:atemp>19.0</ns3:atemp>
            <ns3:hr>127</ns3:hr>
          </ns3:TrackPointExtension>
        </extensions>
      </trkpt>
      <trkpt lat="-22.0827855728566646575927734375" lon="166.44501510076224803924560546875">
        <ele>734.5999755859375</ele>
        <time>2016-08-12T22:35:18.000Z</time>
        <extensions>
          <ns3:TrackPointExtension>
            <ns3:atemp>19.0</ns3:atemp>
            <ns3:hr>127</ns3:hr>
          </ns3:TrackPointExtension>
        </extensions>
      </trkpt>
      <trkpt lat="-22.08280174992978572845458984375" lon="166.44500655122101306915283203125">
        <ele>734.4000244140625</ele>
        <time>2016-08-12T22:35:19.000Z</time>
        <extensions>
          <ns3:TrackPointExtension>
            <ns3:atemp>19.0</ns3:atemp>
            <ns3:hr>127</ns3:hr>
          </ns3:TrackPointExtension>
        </extensions>
      </trkpt>
      <trkpt lat="-22.08282454870641231536865234375" lon="166.44500034861266613006591796875">
        <ele>734.5999755859375</ele>
        <time>2016-08-12T22:35:20.000Z</time>
        <extensions>
          <ns3:TrackPointExtension>
            <ns3:atemp>19.0</ns3:atemp>
            <ns3:hr>127</ns3:hr>
          </ns3:TrackPointExtension>
        </extensions>
      </trkpt>
      <trkpt lat="-22.0828432403504848480224609375" lon="166.44499766640365123748779296875">
        <ele>734.4000244140625</ele>
        <time>2016-08-12T22:35:21.000Z</time>
        <extensions>
          <ns3:TrackPointExtension>
            <ns3:atemp>19.0</ns3:atemp>
            <ns3:hr>127</ns3:hr>
          </ns3:TrackPointExtension>
        </extensions>
      </trkpt>
      <trkpt lat="-22.08286394365131855010986328125" lon="166.4449922181665897369384765625">
        <ele>734.4000244140625</ele>
        <time>2016-08-12T22:35:22.000Z</time>
        <extensions>
          <ns3:TrackPointExtension>
            <ns3:atemp>19.0</ns3:atemp>
            <ns3:hr>127</ns3:hr>
          </ns3:TrackPointExtension>
        </extensions>
      </trkpt>
      <trkpt lat="-22.0828851498663425445556640625" lon="166.44498668611049652099609375">
        <ele>734.4000244140625</ele>
        <time>2016-08-12T22:35:23.000Z</time>
        <extensions>
          <ns3:TrackPointExtension>
            <ns3:atemp>19.0</ns3:atemp>
            <ns3:hr>127</ns3:hr>
          </ns3:TrackPointExtension>
        </extensions>
      </trkpt>
      <trkpt lat="-22.08290585316717624664306640625" lon="166.44498408772051334381103515625">
        <ele>734</ele>
        <time>2016-08-12T22:35:24.000Z</time>
        <extensions>
          <ns3:TrackPointExtension>
            <ns3:atemp>19.0</ns3:atemp>
            <ns3:hr>127</ns3:hr>
          </ns3:TrackPointExtension>
        </extensions>
      </trkpt>
      <trkpt lat="-22.08292923867702484130859375" lon="166.44498140551149845123291015625">
        <ele>733.5999755859375</ele>
        <time>2016-08-12T22:35:25.000Z</time>
        <extensions>
          <ns3:TrackPointExtension>
            <ns3:atemp>19.0</ns3:atemp>
            <ns3:hr>127</ns3:hr>
          </ns3:TrackPointExtension>
        </extensions>
      </trkpt>
      <trkpt lat="-22.08294843323528766632080078125" lon="166.44497168250381946563720703125">
        <ele>733.5999755859375</ele>
        <time>2016-08-12T22:35:26.000Z</time>
        <extensions>
          <ns3:TrackPointExtension>
            <ns3:atemp>19.0</ns3:atemp>
            <ns3:hr>126</ns3:hr>
          </ns3:TrackPointExtension>
        </extensions>
      </trkpt>
      <trkpt lat="-22.0829634368419647216796875" lon="166.44495693035423755645751953125">
        <ele>733.4000244140625</ele>
        <time>2016-08-12T22:35:27.000Z</time>
        <extensions>
          <ns3:TrackPointExtension>
            <ns3:atemp>19.0</ns3:atemp>
            <ns3:hr>126</ns3:hr>
          </ns3:TrackPointExtension>
        </extensions>
      </trkpt>
      <trkpt lat="-22.08299587480723857879638671875" lon="166.444947458803653717041015625">
        <ele>733.20001220703125</ele>
        <time>2016-08-12T22:35:28.000Z</time>
        <extensions>
          <ns3:TrackPointExtension>
            <ns3:atemp>19.0</ns3:atemp>
            <ns3:hr>126</ns3:hr>
          </ns3:TrackPointExtension>
        </extensions>
      </trkpt>
      <trkpt lat="-22.08301230333745479583740234375" lon="166.4449419267475605010986328125">
        <ele>733.20001220703125</ele>
        <time>2016-08-12T22:35:29.000Z</time>
        <extensions>
          <ns3:TrackPointExtension>
            <ns3:atemp>19.0</ns3:atemp>
            <ns3:hr>126</ns3:hr>
          </ns3:TrackPointExtension>
        </extensions>
      </trkpt>
      <trkpt lat="-22.08300945349037647247314453125" lon="166.44494016654789447784423828125">
        <ele>733.4000244140625</ele>
        <time>2016-08-12T22:35:30.000Z</time>
        <extensions>
          <ns3:TrackPointExtension>
            <ns3:atemp>19.0</ns3:atemp>
            <ns3:hr>127</ns3:hr>
          </ns3:TrackPointExtension>
        </extensions>
      </trkpt>
      <trkpt lat="-22.0830363593995571136474609375" lon="166.4449405856430530548095703125">
        <ele>733.20001220703125</ele>
        <time>2016-08-12T22:35:31.000Z</time>
        <extensions>
          <ns3:TrackPointExtension>
            <ns3:atemp>19.0</ns3:atemp>
            <ns3:hr>126</ns3:hr>
          </ns3:TrackPointExtension>
        </extensions>
      </trkpt>
      <trkpt lat="-22.08305940963327884674072265625" lon="166.4449402503669261932373046875">
        <ele>733.20001220703125</ele>
        <time>2016-08-12T22:35:32.000Z</time>
        <extensions>
          <ns3:TrackPointExtension>
            <ns3:atemp>19.0</ns3:atemp>
            <ns3:hr>127</ns3:hr>
          </ns3:TrackPointExtension>
        </extensions>
      </trkpt>
      <trkpt lat="-22.08308589644730091094970703125" lon="166.444940082728862762451171875">
        <ele>733.20001220703125</ele>
        <time>2016-08-12T22:35:33.000Z</time>
        <extensions>
          <ns3:TrackPointExtension>
            <ns3:atemp>19.0</ns3:atemp>
            <ns3:hr>127</ns3:hr>
          </ns3:TrackPointExtension>
        </extensions>
      </trkpt>
      <trkpt lat="-22.08311204798519611358642578125" lon="166.44493161700665950775146484375">
        <ele>733</ele>
        <time>2016-08-12T22:35:34.000Z</time>
        <extensions>
          <ns3:TrackPointExtension>
            <ns3:atemp>19.0</ns3:atemp>
            <ns3:hr>127</ns3:hr>
          </ns3:TrackPointExtension>
        </extensions>
      </trkpt>
      <trkpt lat="-22.08313484676182270050048828125" lon="166.44491828978061676025390625">
        <ele>732.79998779296875</ele>
        <time>2016-08-12T22:35:35.000Z</time>
        <extensions>
          <ns3:TrackPointExtension>
            <ns3:atemp>19.0</ns3:atemp>
            <ns3:hr>127</ns3:hr>
          </ns3:TrackPointExtension>
        </extensions>
      </trkpt>
      <trkpt lat="-22.08315965719521045684814453125" lon="166.4449000172317028045654296875">
        <ele>732.5999755859375</ele>
        <time>2016-08-12T22:35:36.000Z</time>
        <extensions>
          <ns3:TrackPointExtension>
            <ns3:atemp>19.0</ns3:atemp>
            <ns3:hr>127</ns3:hr>
          </ns3:TrackPointExtension>
        </extensions>
      </trkpt>
      <trkpt lat="-22.08318413235247135162353515625" lon="166.444885097444057464599609375">
        <ele>732.20001220703125</ele>
        <time>2016-08-12T22:35:37.000Z</time>
        <extensions>
          <ns3:TrackPointExtension>
            <ns3:atemp>19.0</ns3:atemp>
            <ns3:hr>127</ns3:hr>
          </ns3:TrackPointExtension>
        </extensions>
      </trkpt>
      <trkpt lat="-22.083216570317745208740234375" lon="166.44487562589347362518310546875">
        <ele>732</ele>
        <time>2016-08-12T22:35:38.000Z</time>
        <extensions>
          <ns3:TrackPointExtension>
            <ns3:atemp>19.0</ns3:atemp>
            <ns3:hr>127</ns3:hr>
          </ns3:TrackPointExtension>
        </extensions>
      </trkpt>
      <trkpt lat="-22.0832499302923679351806640625" lon="166.44486523233354091644287109375">
        <ele>731.79998779296875</ele>
        <time>2016-08-12T22:35:39.000Z</time>
        <extensions>
          <ns3:TrackPointExtension>
            <ns3:atemp>19.0</ns3:atemp>
            <ns3:hr>127</ns3:hr>
          </ns3:TrackPointExtension>
        </extensions>
      </trkpt>
      <trkpt lat="-22.08327851258218288421630859375" lon="166.44485701806843280792236328125">
        <ele>731.5999755859375</ele>
        <time>2016-08-12T22:35:40.000Z</time>
        <extensions>
          <ns3:TrackPointExtension>
            <ns3:atemp>19.0</ns3:atemp>
            <ns3:hr>126</ns3:hr>
          </ns3:TrackPointExtension>
        </extensions>
      </trkpt>
      <trkpt lat="-22.0833040773868560791015625" lon="166.4448519051074981689453125">
        <ele>731.4000244140625</ele>
        <time>2016-08-12T22:35:41.000Z</time>
        <extensions>
          <ns3:TrackPointExtension>
            <ns3:atemp>19.0</ns3:atemp>
            <ns3:hr>126</ns3:hr>
          </ns3:TrackPointExtension>
        </extensions>
      </trkpt>
      <trkpt lat="-22.08332955837249755859375" lon="166.44484855234622955322265625">
        <ele>731.20001220703125</ele>
        <time>2016-08-12T22:35:42.000Z</time>
        <extensions>
          <ns3:TrackPointExtension>
            <ns3:atemp>19.0</ns3:atemp>
            <ns3:hr>126</ns3:hr>
          </ns3:TrackPointExtension>
        </extensions>
      </trkpt>
      <trkpt lat="-22.08335462026298046112060546875" lon="166.44484897144138813018798828125">
        <ele>731.20001220703125</ele>
        <time>2016-08-12T22:35:43.000Z</time>
        <extensions>
          <ns3:TrackPointExtension>
            <ns3:atemp>19.0</ns3:atemp>
            <ns3:hr>125</ns3:hr>
          </ns3:TrackPointExtension>
        </extensions>
      </trkpt>
      <trkpt lat="-22.08337859250605106353759765625" lon="166.4448534138500690460205078125">
        <ele>730.79998779296875</ele>
        <time>2016-08-12T22:35:44.000Z</time>
        <extensions>
          <ns3:TrackPointExtension>
            <ns3:atemp>19.0</ns3:atemp>
            <ns3:hr>125</ns3:hr>
          </ns3:TrackPointExtension>
        </extensions>
      </trkpt>
      <trkpt lat="-22.08340323530137538909912109375" lon="166.444858610630035400390625">
        <ele>730</ele>
        <time>2016-08-12T22:35:45.000Z</time>
        <extensions>
          <ns3:TrackPointExtension>
            <ns3:atemp>19.0</ns3:atemp>
            <ns3:hr>125</ns3:hr>
          </ns3:TrackPointExtension>
        </extensions>
      </trkpt>
      <trkpt lat="-22.08342075347900390625" lon="166.4448695071041584014892578125">
        <ele>729.79998779296875</ele>
        <time>2016-08-12T22:35:46.000Z</time>
        <extensions>
          <ns3:TrackPointExtension>
            <ns3:atemp>19.0</ns3:atemp>
            <ns3:hr>125</ns3:hr>
          </ns3:TrackPointExtension>
        </extensions>
      </trkpt>
      <trkpt lat="-22.08343625999987125396728515625" lon="166.444888450205326080322265625">
        <ele>730</ele>
        <time>2016-08-12T22:35:47.000Z</time>
        <extensions>
          <ns3:TrackPointExtension>
            <ns3:atemp>19.0</ns3:atemp>
            <ns3:hr>126</ns3:hr>
          </ns3:TrackPointExtension>
        </extensions>
      </trkpt>
      <trkpt lat="-22.08344765938818454742431640625" lon="166.444900520145893096923828125">
        <ele>730</ele>
        <time>2016-08-12T22:35:48.000Z</time>
        <extensions>
          <ns3:TrackPointExtension>
            <ns3:atemp>19.0</ns3:atemp>
            <ns3:hr>126</ns3:hr>
          </ns3:TrackPointExtension>
        </extensions>
      </trkpt>
      <trkpt lat="-22.083457298576831817626953125" lon="166.44491736777126789093017578125">
        <ele>730.5999755859375</ele>
        <time>2016-08-12T22:35:49.000Z</time>
        <extensions>
          <ns3:TrackPointExtension>
            <ns3:atemp>19.0</ns3:atemp>
            <ns3:hr>126</ns3:hr>
          </ns3:TrackPointExtension>
        </extensions>
      </trkpt>
      <trkpt lat="-22.08346878178417682647705078125" lon="166.4449338801205158233642578125">
        <ele>731</ele>
        <time>2016-08-12T22:35:50.000Z</time>
        <extensions>
          <ns3:TrackPointExtension>
            <ns3:atemp>19.0</ns3:atemp>
            <ns3:hr>126</ns3:hr>
          </ns3:TrackPointExtension>
        </extensions>
      </trkpt>
      <trkpt lat="-22.08348738960921764373779296875" lon="166.44495072774589061737060546875">
        <ele>730.79998779296875</ele>
        <time>2016-08-12T22:35:51.000Z</time>
        <extensions>
          <ns3:TrackPointExtension>
            <ns3:atemp>19.0</ns3:atemp>
            <ns3:hr>126</ns3:hr>
          </ns3:TrackPointExtension>
        </extensions>
      </trkpt>
      <trkpt lat="-22.0835047401487827301025390625" lon="166.44496933557093143463134765625">
        <ele>730</ele>
        <time>2016-08-12T22:35:52.000Z</time>
        <extensions>
          <ns3:TrackPointExtension>
            <ns3:atemp>19.0</ns3:atemp>
            <ns3:hr>126</ns3:hr>
          </ns3:TrackPointExtension>
        </extensions>
      </trkpt>
      <trkpt lat="-22.0835240185260772705078125" lon="166.44498760811984539031982421875">
        <ele>729.4000244140625</ele>
        <time>2016-08-12T22:35:53.000Z</time>
        <extensions>
          <ns3:TrackPointExtension>
            <ns3:atemp>19.0</ns3:atemp>
            <ns3:hr>126</ns3:hr>
          </ns3:TrackPointExtension>
        </extensions>
      </trkpt>
      <trkpt lat="-22.083545811474323272705078125" lon="166.44500604830682277679443359375">
        <ele>729.4000244140625</ele>
        <time>2016-08-12T22:35:54.000Z</time>
        <extensions>
          <ns3:TrackPointExtension>
            <ns3:atemp>19.0</ns3:atemp>
            <ns3:hr>127</ns3:hr>
          </ns3:TrackPointExtension>
        </extensions>
      </trkpt>
      <trkpt lat="-22.0835660956799983978271484375" lon="166.4450270868837833404541015625">
        <ele>729.4000244140625</ele>
        <time>2016-08-12T22:35:55.000Z</time>
        <extensions>
          <ns3:TrackPointExtension>
            <ns3:atemp>19.0</ns3:atemp>
            <ns3:hr>127</ns3:hr>
          </ns3:TrackPointExtension>
        </extensions>
      </trkpt>
      <trkpt lat="-22.08358545787632465362548828125" lon="166.44504812546074390411376953125">
        <ele>729</ele>
        <time>2016-08-12T22:35:56.000Z</time>
        <extensions>
          <ns3:TrackPointExtension>
            <ns3:atemp>19.0</ns3:atemp>
            <ns3:hr>128</ns3:hr>
          </ns3:TrackPointExtension>
        </extensions>
      </trkpt>
      <trkpt lat="-22.08360775373876094818115234375" lon="166.44507243297994136810302734375">
        <ele>728.79998779296875</ele>
        <time>2016-08-12T22:35:57.000Z</time>
        <extensions>
          <ns3:TrackPointExtension>
            <ns3:atemp>19.0</ns3:atemp>
            <ns3:hr>128</ns3:hr>
          </ns3:TrackPointExtension>
        </extensions>
      </trkpt>
      <trkpt lat="-22.08362996578216552734375" lon="166.4450928010046482086181640625">
        <ele>728.79998779296875</ele>
        <time>2016-08-12T22:35:58.000Z</time>
        <extensions>
          <ns3:TrackPointExtension>
            <ns3:atemp>19.0</ns3:atemp>
            <ns3:hr>128</ns3:hr>
          </ns3:TrackPointExtension>
        </extensions>
      </trkpt>
      <trkpt lat="-22.0836509205400943756103515625" lon="166.44510763697326183319091796875">
        <ele>728.5999755859375</ele>
        <time>2016-08-12T22:35:59.000Z</time>
        <extensions>
          <ns3:TrackPointExtension>
            <ns3:atemp>19.0</ns3:atemp>
            <ns3:hr>129</ns3:hr>
          </ns3:TrackPointExtension>
        </extensions>
      </trkpt>
      <trkpt lat="-22.083674557507038116455078125" lon="166.4451236464083194732666015625">
        <ele>728.4000244140625</ele>
        <time>2016-08-12T22:36:00.000Z</time>
        <extensions>
          <ns3:TrackPointExtension>
            <ns3:atemp>19.0</ns3:atemp>
            <ns3:hr>129</ns3:hr>
          </ns3:TrackPointExtension>
        </extensions>
      </trkpt>
      <trkpt lat="-22.08370297215878963470458984375" lon="166.44513881765305995941162109375">
        <ele>728</ele>
        <time>2016-08-12T22:36:01.000Z</time>
        <extensions>
          <ns3:TrackPointExtension>
            <ns3:atemp>19.0</ns3:atemp>
            <ns3:hr>129</ns3:hr>
          </ns3:TrackPointExtension>
        </extensions>
      </trkpt>
      <trkpt lat="-22.08372878842055797576904296875" lon="166.44515943713486194610595703125">
        <ele>728</ele>
        <time>2016-08-12T22:36:02.000Z</time>
        <extensions>
          <ns3:TrackPointExtension>
            <ns3:atemp>19.0</ns3:atemp>
            <ns3:hr>129</ns3:hr>
          </ns3:TrackPointExtension>
        </extensions>
      </trkpt>
      <trkpt lat="-22.08375074900686740875244140625" lon="166.44517200998961925506591796875">
        <ele>728</ele>
        <time>2016-08-12T22:36:03.000Z</time>
        <extensions>
          <ns3:TrackPointExtension>
            <ns3:atemp>19.0</ns3:atemp>
            <ns3:hr>129</ns3:hr>
          </ns3:TrackPointExtension>
        </extensions>
      </trkpt>
      <trkpt lat="-22.08377405069768428802490234375" lon="166.44517988897860050201416015625">
        <ele>727.5999755859375</ele>
        <time>2016-08-12T22:36:04.000Z</time>
        <extensions>
          <ns3:TrackPointExtension>
            <ns3:atemp>19.0</ns3:atemp>
            <ns3:hr>129</ns3:hr>
          </ns3:TrackPointExtension>
        </extensions>
      </trkpt>
      <trkpt lat="-22.0838007889688014984130859375" lon="166.4451860077679157257080078125">
        <ele>727.4000244140625</ele>
        <time>2016-08-12T22:36:05.000Z</time>
        <extensions>
          <ns3:TrackPointExtension>
            <ns3:atemp>19.0</ns3:atemp>
            <ns3:hr>130</ns3:hr>
          </ns3:TrackPointExtension>
        </extensions>
      </trkpt>
      <trkpt lat="-22.08382534794509410858154296875" lon="166.445196904242038726806640625">
        <ele>727</ele>
        <time>2016-08-12T22:36:06.000Z</time>
        <extensions>
          <ns3:TrackPointExtension>
            <ns3:atemp>19.0</ns3:atemp>
            <ns3:hr>130</ns3:hr>
          </ns3:TrackPointExtension>
        </extensions>
      </trkpt>
      <trkpt lat="-22.0838494040071964263916015625" lon="166.44520738162100315093994140625">
        <ele>726.79998779296875</ele>
        <time>2016-08-12T22:36:07.000Z</time>
        <extensions>
          <ns3:TrackPointExtension>
            <ns3:atemp>19.0</ns3:atemp>
            <ns3:hr>129</ns3:hr>
          </ns3:TrackPointExtension>
        </extensions>
      </trkpt>
      <trkpt lat="-22.0838725380599498748779296875" lon="166.44521509297192096710205078125">
        <ele>726.5999755859375</ele>
        <time>2016-08-12T22:36:08.000Z</time>
        <extensions>
          <ns3:TrackPointExtension>
            <ns3:atemp>19.0</ns3:atemp>
            <ns3:hr>130</ns3:hr>
          </ns3:TrackPointExtension>
        </extensions>
      </trkpt>
      <trkpt lat="-22.0838966779410839080810546875" lon="166.44521995447576045989990234375">
        <ele>726.4000244140625</ele>
        <time>2016-08-12T22:36:09.000Z</time>
        <extensions>
          <ns3:TrackPointExtension>
            <ns3:atemp>19.0</ns3:atemp>
            <ns3:hr>130</ns3:hr>
          </ns3:TrackPointExtension>
        </extensions>
      </trkpt>
      <trkpt lat="-22.08392106927931308746337890625" lon="166.44522196613252162933349609375">
        <ele>726.4000244140625</ele>
        <time>2016-08-12T22:36:10.000Z</time>
        <extensions>
          <ns3:TrackPointExtension>
            <ns3:atemp>19.0</ns3:atemp>
            <ns3:hr>130</ns3:hr>
          </ns3:TrackPointExtension>
        </extensions>
      </trkpt>
      <trkpt lat="-22.08394252695143222808837890625" lon="166.44522598944604396820068359375">
        <ele>726.4000244140625</ele>
        <time>2016-08-12T22:36:11.000Z</time>
        <extensions>
          <ns3:TrackPointExtension>
            <ns3:atemp>19.0</ns3:atemp>
            <ns3:hr>129</ns3:hr>
          </ns3:TrackPointExtension>
        </extensions>
      </trkpt>
      <trkpt lat="-22.0839637331664562225341796875" lon="166.44523504190146923065185546875">
        <ele>726.20001220703125</ele>
        <time>2016-08-12T22:36:12.000Z</time>
        <extensions>
          <ns3:TrackPointExtension>
            <ns3:atemp>19.0</ns3:atemp>
            <ns3:hr>130</ns3:hr>
          </ns3:TrackPointExtension>
        </extensions>
      </trkpt>
      <trkpt lat="-22.083987705409526824951171875" lon="166.44524225033819675445556640625">
        <ele>726.20001220703125</ele>
        <time>2016-08-12T22:36:13.000Z</time>
        <extensions>
          <ns3:TrackPointExtension>
            <ns3:atemp>19.0</ns3:atemp>
            <ns3:hr>130</ns3:hr>
          </ns3:TrackPointExtension>
        </extensions>
      </trkpt>
      <trkpt lat="-22.08401159383356571197509765625" lon="166.44524828530848026275634765625">
        <ele>726</ele>
        <time>2016-08-12T22:36:14.000Z</time>
        <extensions>
          <ns3:TrackPointExtension>
            <ns3:atemp>19.0</ns3:atemp>
            <ns3:hr>130</ns3:hr>
          </ns3:TrackPointExtension>
        </extensions>
      </trkpt>
      <trkpt lat="-22.08403036929666996002197265625" lon="166.44525264389812946319580078125">
        <ele>725.5999755859375</ele>
        <time>2016-08-12T22:36:15.000Z</time>
        <extensions>
          <ns3:TrackPointExtension>
            <ns3:atemp>19.0</ns3:atemp>
            <ns3:hr>130</ns3:hr>
          </ns3:TrackPointExtension>
        </extensions>
      </trkpt>
      <trkpt lat="-22.08405484445393085479736328125" lon="166.4452658034861087799072265625">
        <ele>725.20001220703125</ele>
        <time>2016-08-12T22:36:16.000Z</time>
        <extensions>
          <ns3:TrackPointExtension>
            <ns3:atemp>19.0</ns3:atemp>
            <ns3:hr>130</ns3:hr>
          </ns3:TrackPointExtension>
        </extensions>
      </trkpt>
      <trkpt lat="-22.08407588303089141845703125" lon="166.4452788792550563812255859375">
        <ele>725.20001220703125</ele>
        <time>2016-08-12T22:36:17.000Z</time>
        <extensions>
          <ns3:TrackPointExtension>
            <ns3:atemp>19.0</ns3:atemp>
            <ns3:hr>130</ns3:hr>
          </ns3:TrackPointExtension>
        </extensions>
      </trkpt>
      <trkpt lat="-22.08409356884658336639404296875" lon="166.4452936314046382904052734375">
        <ele>725.5999755859375</ele>
        <time>2016-08-12T22:36:18.000Z</time>
        <extensions>
          <ns3:TrackPointExtension>
            <ns3:atemp>19.0</ns3:atemp>
            <ns3:hr>130</ns3:hr>
          </ns3:TrackPointExtension>
        </extensions>
      </trkpt>
      <trkpt lat="-22.0841095782816410064697265625" lon="166.4453046955168247222900390625">
        <ele>725.4000244140625</ele>
        <time>2016-08-12T22:36:19.000Z</time>
        <extensions>
          <ns3:TrackPointExtension>
            <ns3:atemp>19.0</ns3:atemp>
            <ns3:hr>130</ns3:hr>
          </ns3:TrackPointExtension>
        </extensions>
      </trkpt>
      <trkpt lat="-22.084125839173793792724609375" lon="166.4453154243528842926025390625">
        <ele>724.79998779296875</ele>
        <time>2016-08-12T22:36:20.000Z</time>
        <extensions>
          <ns3:TrackPointExtension>
            <ns3:atemp>19.0</ns3:atemp>
            <ns3:hr>130</ns3:hr>
          </ns3:TrackPointExtension>
        </extensions>
      </trkpt>
      <trkpt lat="-22.08414486609399318695068359375" lon="166.4453318528831005096435546875">
        <ele>724.4000244140625</ele>
        <time>2016-08-12T22:36:21.000Z</time>
        <extensions>
          <ns3:TrackPointExtension>
            <ns3:atemp>19.0</ns3:atemp>
            <ns3:hr>130</ns3:hr>
          </ns3:TrackPointExtension>
        </extensions>
      </trkpt>
      <trkpt lat="-22.0841622166335582733154296875" lon="166.44534450955688953399658203125">
        <ele>724.20001220703125</ele>
        <time>2016-08-12T22:36:22.000Z</time>
        <extensions>
          <ns3:TrackPointExtension>
            <ns3:atemp>19.0</ns3:atemp>
            <ns3:hr>130</ns3:hr>
          </ns3:TrackPointExtension>
        </extensions>
      </trkpt>
      <trkpt lat="-22.0841826684772968292236328125" lon="166.445355154573917388916015625">
        <ele>723.5999755859375</ele>
        <time>2016-08-12T22:36:23.000Z</time>
        <extensions>
          <ns3:TrackPointExtension>
            <ns3:atemp>19.0</ns3:atemp>
            <ns3:hr>130</ns3:hr>
          </ns3:TrackPointExtension>
        </extensions>
      </trkpt>
      <trkpt lat="-22.0842044614255428314208984375" lon="166.44537015818059444427490234375">
        <ele>723.5999755859375</ele>
        <time>2016-08-12T22:36:24.000Z</time>
        <extensions>
          <ns3:TrackPointExtension>
            <ns3:atemp>19.0</ns3:atemp>
            <ns3:hr>129</ns3:hr>
          </ns3:TrackPointExtension>
        </extensions>
      </trkpt>
      <trkpt lat="-22.0842218957841396331787109375" lon="166.44538843072950839996337890625">
        <ele>723.79998779296875</ele>
        <time>2016-08-12T22:36:25.000Z</time>
        <extensions>
          <ns3:TrackPointExtension>
            <ns3:atemp>19.0</ns3:atemp>
            <ns3:hr>129</ns3:hr>
          </ns3:TrackPointExtension>
        </extensions>
      </trkpt>
      <trkpt lat="-22.08424377255141735076904296875" lon="166.44539974629878997802734375">
        <ele>723.5999755859375</ele>
        <time>2016-08-12T22:36:26.000Z</time>
        <extensions>
          <ns3:TrackPointExtension>
            <ns3:atemp>19.0</ns3:atemp>
            <ns3:hr>129</ns3:hr>
          </ns3:TrackPointExtension>
        </extensions>
      </trkpt>
      <trkpt lat="-22.08426707424223423004150390625" lon="166.44540905021131038665771484375">
        <ele>723.4000244140625</ele>
        <time>2016-08-12T22:36:27.000Z</time>
        <extensions>
          <ns3:TrackPointExtension>
            <ns3:atemp>19.0</ns3:atemp>
            <ns3:hr>129</ns3:hr>
          </ns3:TrackPointExtension>
        </extensions>
      </trkpt>
      <trkpt lat="-22.0842855982482433319091796875" lon="166.445416510105133056640625">
        <ele>723</ele>
        <time>2016-08-12T22:36:28.000Z</time>
        <extensions>
          <ns3:TrackPointExtension>
            <ns3:atemp>19.0</ns3:atemp>
            <ns3:hr>129</ns3:hr>
          </ns3:TrackPointExtension>
        </extensions>
      </trkpt>
      <trkpt lat="-22.08430881612002849578857421875" lon="166.445427574217319488525390625">
        <ele>722.5999755859375</ele>
        <time>2016-08-12T22:36:29.000Z</time>
        <extensions>
          <ns3:TrackPointExtension>
            <ns3:atemp>19.0</ns3:atemp>
            <ns3:hr>129</ns3:hr>
          </ns3:TrackPointExtension>
        </extensions>
      </trkpt>
      <trkpt lat="-22.08433412946760654449462890625" lon="166.44543184898793697357177734375">
        <ele>722.20001220703125</ele>
        <time>2016-08-12T22:36:30.000Z</time>
        <extensions>
          <ns3:TrackPointExtension>
            <ns3:atemp>19.0</ns3:atemp>
            <ns3:hr>129</ns3:hr>
          </ns3:TrackPointExtension>
        </extensions>
      </trkpt>
      <trkpt lat="-22.084357179701328277587890625" lon="166.44543520174920558929443359375">
        <ele>721.5999755859375</ele>
        <time>2016-08-12T22:36:31.000Z</time>
        <extensions>
          <ns3:TrackPointExtension>
            <ns3:atemp>19.0</ns3:atemp>
            <ns3:hr>129</ns3:hr>
          </ns3:TrackPointExtension>
        </extensions>
      </trkpt>
      <trkpt lat="-22.08438224159181118011474609375" lon="166.4454321004450321197509765625">
        <ele>721.20001220703125</ele>
        <time>2016-08-12T22:36:32.000Z</time>
        <extensions>
          <ns3:TrackPointExtension>
            <ns3:atemp>19.0</ns3:atemp>
            <ns3:hr>129</ns3:hr>
          </ns3:TrackPointExtension>
        </extensions>
      </trkpt>
      <trkpt lat="-22.0844113267958164215087890625" lon="166.4454203657805919647216796875">
        <ele>721</ele>
        <time>2016-08-12T22:36:33.000Z</time>
        <extensions>
          <ns3:TrackPointExtension>
            <ns3:atemp>19.0</ns3:atemp>
            <ns3:hr>129</ns3:hr>
          </ns3:TrackPointExtension>
        </extensions>
      </trkpt>
      <trkpt lat="-22.0844404958188533782958984375" lon="166.44540854729712009429931640625">
        <ele>720.4000244140625</ele>
        <time>2016-08-12T22:36:34.000Z</time>
        <extensions>
          <ns3:TrackPointExtension>
            <ns3:atemp>19.0</ns3:atemp>
            <ns3:hr>129</ns3:hr>
          </ns3:TrackPointExtension>
        </extensions>
      </trkpt>
      <trkpt lat="-22.08446941338479518890380859375" lon="166.4453848265111446380615234375">
        <ele>720.20001220703125</ele>
        <time>2016-08-12T22:36:35.000Z</time>
        <extensions>
          <ns3:TrackPointExtension>
            <ns3:atemp>19.0</ns3:atemp>
            <ns3:hr>129</ns3:hr>
          </ns3:TrackPointExtension>
        </extensions>
      </trkpt>
      <trkpt lat="-22.08449430763721466064453125" lon="166.4453650452196598052978515625">
        <ele>720.20001220703125</ele>
        <time>2016-08-12T22:36:36.000Z</time>
        <extensions>
          <ns3:TrackPointExtension>
            <ns3:atemp>19.0</ns3:atemp>
            <ns3:hr>129</ns3:hr>
          </ns3:TrackPointExtension>
        </extensions>
      </trkpt>
      <trkpt lat="-22.08451987244188785552978515625" lon="166.44534819759428501129150390625">
        <ele>720.20001220703125</ele>
        <time>2016-08-12T22:36:37.000Z</time>
        <extensions>
          <ns3:TrackPointExtension>
            <ns3:atemp>19.0</ns3:atemp>
            <ns3:hr>129</ns3:hr>
          </ns3:TrackPointExtension>
        </extensions>
      </trkpt>
      <trkpt lat="-22.08454392850399017333984375" lon="166.4453321881592273712158203125">
        <ele>719.79998779296875</ele>
        <time>2016-08-12T22:36:38.000Z</time>
        <extensions>
          <ns3:TrackPointExtension>
            <ns3:atemp>19.0</ns3:atemp>
            <ns3:hr>128</ns3:hr>
          </ns3:TrackPointExtension>
        </extensions>
      </trkpt>
      <trkpt lat="-22.0845645479857921600341796875" lon="166.44531550817191600799560546875">
        <ele>719.5999755859375</ele>
        <time>2016-08-12T22:36:39.000Z</time>
        <extensions>
          <ns3:TrackPointExtension>
            <ns3:atemp>19.0</ns3:atemp>
            <ns3:hr>128</ns3:hr>
          </ns3:TrackPointExtension>
        </extensions>
      </trkpt>
      <trkpt lat="-22.08458575420081615447998046875" lon="166.445300169289112091064453125">
        <ele>719.4000244140625</ele>
        <time>2016-08-12T22:36:40.000Z</time>
        <extensions>
          <ns3:TrackPointExtension>
            <ns3:atemp>19.0</ns3:atemp>
            <ns3:hr>128</ns3:hr>
          </ns3:TrackPointExtension>
        </extensions>
      </trkpt>
      <trkpt lat="-22.08460637368261814117431640625" lon="166.445285417139530181884765625">
        <ele>719.4000244140625</ele>
        <time>2016-08-12T22:36:41.000Z</time>
        <extensions>
          <ns3:TrackPointExtension>
            <ns3:atemp>19.0</ns3:atemp>
            <ns3:hr>128</ns3:hr>
          </ns3:TrackPointExtension>
        </extensions>
      </trkpt>
      <trkpt lat="-22.08462883718311786651611328125" lon="166.44527561031281948089599609375">
        <ele>719.4000244140625</ele>
        <time>2016-08-12T22:36:42.000Z</time>
        <extensions>
          <ns3:TrackPointExtension>
            <ns3:atemp>19.0</ns3:atemp>
            <ns3:hr>128</ns3:hr>
          </ns3:TrackPointExtension>
        </extensions>
      </trkpt>
      <trkpt lat="-22.08465146832168102264404296875" lon="166.44526454620063304901123046875">
        <ele>719.20001220703125</ele>
        <time>2016-08-12T22:36:43.000Z</time>
        <extensions>
          <ns3:TrackPointExtension>
            <ns3:atemp>19.0</ns3:atemp>
            <ns3:hr>128</ns3:hr>
          </ns3:TrackPointExtension>
        </extensions>
      </trkpt>
      <trkpt lat="-22.0846760272979736328125" lon="166.44525432027876377105712890625">
        <ele>719</ele>
        <time>2016-08-12T22:36:44.000Z</time>
        <extensions>
          <ns3:TrackPointExtension>
            <ns3:atemp>19.0</ns3:atemp>
            <ns3:hr>127</ns3:hr>
          </ns3:TrackPointExtension>
        </extensions>
      </trkpt>
      <trkpt lat="-22.08469958044588565826416015625" lon="166.44524878822267055511474609375">
        <ele>718.79998779296875</ele>
        <time>2016-08-12T22:36:45.000Z</time>
        <extensions>
          <ns3:TrackPointExtension>
            <ns3:atemp>19.0</ns3:atemp>
            <ns3:hr>127</ns3:hr>
          </ns3:TrackPointExtension>
        </extensions>
      </trkpt>
      <trkpt lat="-22.08471969701349735260009765625" lon="166.44524753093719482421875">
        <ele>718.5999755859375</ele>
        <time>2016-08-12T22:36:46.000Z</time>
        <extensions>
          <ns3:TrackPointExtension>
            <ns3:atemp>19.0</ns3:atemp>
            <ns3:hr>127</ns3:hr>
          </ns3:TrackPointExtension>
        </extensions>
      </trkpt>
      <trkpt lat="-22.08473998121917247772216796875" lon="166.4452510513365268707275390625">
        <ele>718.20001220703125</ele>
        <time>2016-08-12T22:36:47.000Z</time>
        <extensions>
          <ns3:TrackPointExtension>
            <ns3:atemp>19.0</ns3:atemp>
            <ns3:hr>127</ns3:hr>
          </ns3:TrackPointExtension>
        </extensions>
      </trkpt>
      <trkpt lat="-22.0847600139677524566650390625" lon="166.44526203162968158721923828125">
        <ele>717.79998779296875</ele>
        <time>2016-08-12T22:36:48.000Z</time>
        <extensions>
          <ns3:TrackPointExtension>
            <ns3:atemp>19.0</ns3:atemp>
            <ns3:hr>126</ns3:hr>
          </ns3:TrackPointExtension>
        </extensions>
      </trkpt>
      <trkpt lat="-22.0847734250128269195556640625" lon="166.44527594558894634246826171875">
        <ele>717.79998779296875</ele>
        <time>2016-08-12T22:36:49.000Z</time>
        <extensions>
          <ns3:TrackPointExtension>
            <ns3:atemp>19.0</ns3:atemp>
            <ns3:hr>127</ns3:hr>
          </ns3:TrackPointExtension>
        </extensions>
      </trkpt>
      <trkpt lat="-22.08478624932467937469482421875" lon="166.4452939666807651519775390625">
        <ele>717.5999755859375</ele>
        <time>2016-08-12T22:36:50.000Z</time>
        <extensions>
          <ns3:TrackPointExtension>
            <ns3:atemp>19.0</ns3:atemp>
            <ns3:hr>126</ns3:hr>
          </ns3:TrackPointExtension>
        </extensions>
      </trkpt>
      <trkpt lat="-22.0847992412745952606201171875" lon="166.44531190395355224609375">
        <ele>717.4000244140625</ele>
        <time>2016-08-12T22:36:51.000Z</time>
        <extensions>
          <ns3:TrackPointExtension>
            <ns3:atemp>19.0</ns3:atemp>
            <ns3:hr>127</ns3:hr>
          </ns3:TrackPointExtension>
        </extensions>
      </trkpt>
      <trkpt lat="-22.0848106406629085540771484375" lon="166.44532824866473674774169921875">
        <ele>717.4000244140625</ele>
        <time>2016-08-12T22:36:52.000Z</time>
        <extensions>
          <ns3:TrackPointExtension>
            <ns3:atemp>19.0</ns3:atemp>
            <ns3:hr>127</ns3:hr>
          </ns3:TrackPointExtension>
        </extensions>
      </trkpt>
      <trkpt lat="-22.08482681773602962493896484375" lon="166.4453506283462047576904296875">
        <ele>717.20001220703125</ele>
        <time>2016-08-12T22:36:53.000Z</time>
        <extensions>
          <ns3:TrackPointExtension>
            <ns3:atemp>19.0</ns3:atemp>
            <ns3:hr>127</ns3:hr>
          </ns3:TrackPointExtension>
        </extensions>
      </trkpt>
      <trkpt lat="-22.08484165370464324951171875" lon="166.44537200219929218292236328125">
        <ele>717.20001220703125</ele>
        <time>2016-08-12T22:36:54.000Z</time>
        <extensions>
          <ns3:TrackPointExtension>
            <ns3:atemp>19.0</ns3:atemp>
            <ns3:hr>127</ns3:hr>
          </ns3:TrackPointExtension>
        </extensions>
      </trkpt>
      <trkpt lat="-22.08485774695873260498046875" lon="166.4453905262053012847900390625">
        <ele>717</ele>
        <time>2016-08-12T22:36:55.000Z</time>
        <extensions>
          <ns3:TrackPointExtension>
            <ns3:atemp>19.0</ns3:atemp>
            <ns3:hr>127</ns3:hr>
          </ns3:TrackPointExtension>
        </extensions>
      </trkpt>
      <trkpt lat="-22.0848756842315196990966796875" lon="166.4454046078026294708251953125">
        <ele>716.5999755859375</ele>
        <time>2016-08-12T22:36:56.000Z</time>
        <extensions>
          <ns3:TrackPointExtension>
            <ns3:atemp>19.0</ns3:atemp>
            <ns3:hr>126</ns3:hr>
          </ns3:TrackPointExtension>
        </extensions>
      </trkpt>
      <trkpt lat="-22.08489521406590938568115234375" lon="166.445414163172245025634765625">
        <ele>716.5999755859375</ele>
        <time>2016-08-12T22:36:57.000Z</time>
        <extensions>
          <ns3:TrackPointExtension>
            <ns3:atemp>19.0</ns3:atemp>
            <ns3:hr>127</ns3:hr>
          </ns3:TrackPointExtension>
        </extensions>
      </trkpt>
      <trkpt lat="-22.0849152468144893646240234375" lon="166.445414163172245025634765625">
        <ele>716.5999755859375</ele>
        <time>2016-08-12T22:36:58.000Z</time>
        <extensions>
          <ns3:TrackPointExtension>
            <ns3:atemp>19.0</ns3:atemp>
            <ns3:hr>126</ns3:hr>
          </ns3:TrackPointExtension>
        </extensions>
      </trkpt>
      <trkpt lat="-22.0849402248859405517578125" lon="166.44540846347808837890625">
        <ele>716.4000244140625</ele>
        <time>2016-08-12T22:36:59.000Z</time>
        <extensions>
          <ns3:TrackPointExtension>
            <ns3:atemp>19.0</ns3:atemp>
            <ns3:hr>127</ns3:hr>
          </ns3:TrackPointExtension>
        </extensions>
      </trkpt>
      <trkpt lat="-22.08496461622416973114013671875" lon="166.445402093231678009033203125">
        <ele>716.20001220703125</ele>
        <time>2016-08-12T22:37:00.000Z</time>
        <extensions>
          <ns3:TrackPointExtension>
            <ns3:atemp>19.0</ns3:atemp>
            <ns3:hr>126</ns3:hr>
          </ns3:TrackPointExtension>
        </extensions>
      </trkpt>
      <trkpt lat="-22.08498607389628887176513671875" lon="166.4453945495188236236572265625">
        <ele>715.79998779296875</ele>
        <time>2016-08-12T22:37:01.000Z</time>
        <extensions>
          <ns3:TrackPointExtension>
            <ns3:atemp>19.0</ns3:atemp>
            <ns3:hr>126</ns3:hr>
          </ns3:TrackPointExtension>
        </extensions>
      </trkpt>
      <trkpt lat="-22.08500702865421772003173828125" lon="166.44537485204637050628662109375">
        <ele>715.4000244140625</ele>
        <time>2016-08-12T22:37:02.000Z</time>
        <extensions>
          <ns3:TrackPointExtension>
            <ns3:atemp>19.0</ns3:atemp>
            <ns3:hr>125</ns3:hr>
          </ns3:TrackPointExtension>
        </extensions>
      </trkpt>
      <trkpt lat="-22.085029073059558868408203125" lon="166.44535792060196399688720703125">
        <ele>715</ele>
        <time>2016-08-12T22:37:03.000Z</time>
        <extensions>
          <ns3:TrackPointExtension>
            <ns3:atemp>19.0</ns3:atemp>
            <ns3:hr>124</ns3:hr>
          </ns3:TrackPointExtension>
        </extensions>
      </trkpt>
      <trkpt lat="-22.085058577358722686767578125" lon="166.4453400671482086181640625">
        <ele>714.5999755859375</ele>
        <time>2016-08-12T22:37:04.000Z</time>
        <extensions>
          <ns3:TrackPointExtension>
            <ns3:atemp>19.0</ns3:atemp>
            <ns3:hr>124</ns3:hr>
          </ns3:TrackPointExtension>
        </extensions>
      </trkpt>
      <trkpt lat="-22.08508430980145931243896484375" lon="166.4453214593231678009033203125">
        <ele>714.20001220703125</ele>
        <time>2016-08-12T22:37:05.000Z</time>
        <extensions>
          <ns3:TrackPointExtension>
            <ns3:atemp>19.0</ns3:atemp>
            <ns3:hr>123</ns3:hr>
          </ns3:TrackPointExtension>
        </extensions>
      </trkpt>
      <trkpt lat="-22.085107527673244476318359375" lon="166.445308215916156768798828125">
        <ele>713.79998779296875</ele>
        <time>2016-08-12T22:37:06.000Z</time>
        <extensions>
          <ns3:TrackPointExtension>
            <ns3:atemp>19.0</ns3:atemp>
            <ns3:hr>123</ns3:hr>
          </ns3:TrackPointExtension>
        </extensions>
      </trkpt>
      <trkpt lat="-22.08513359539210796356201171875" lon="166.44529639743268489837646484375">
        <ele>713.5999755859375</ele>
        <time>2016-08-12T22:37:07.000Z</time>
        <extensions>
          <ns3:TrackPointExtension>
            <ns3:atemp>19.0</ns3:atemp>
            <ns3:hr>123</ns3:hr>
          </ns3:TrackPointExtension>
        </extensions>
      </trkpt>
      <trkpt lat="-22.08515815436840057373046875" lon="166.44528466276824474334716796875">
        <ele>713.20001220703125</ele>
        <time>2016-08-12T22:37:08.000Z</time>
        <extensions>
          <ns3:TrackPointExtension>
            <ns3:atemp>19.0</ns3:atemp>
            <ns3:hr>123</ns3:hr>
          </ns3:TrackPointExtension>
        </extensions>
      </trkpt>
      <trkpt lat="-22.08517768420279026031494140625" lon="166.445272006094455718994140625">
        <ele>713.20001220703125</ele>
        <time>2016-08-12T22:37:09.000Z</time>
        <extensions>
          <ns3:TrackPointExtension>
            <ns3:atemp>19.0</ns3:atemp>
            <ns3:hr>123</ns3:hr>
          </ns3:TrackPointExtension>
        </extensions>
      </trkpt>
      <trkpt lat="-22.0851982198655605316162109375" lon="166.44526136107742786407470703125">
        <ele>713.20001220703125</ele>
        <time>2016-08-12T22:37:10.000Z</time>
        <extensions>
          <ns3:TrackPointExtension>
            <ns3:atemp>19.0</ns3:atemp>
            <ns3:hr>123</ns3:hr>
          </ns3:TrackPointExtension>
        </extensions>
      </trkpt>
      <trkpt lat="-22.0852190069854259490966796875" lon="166.44524845294654369354248046875">
        <ele>713.20001220703125</ele>
        <time>2016-08-12T22:37:11.000Z</time>
        <extensions>
          <ns3:TrackPointExtension>
            <ns3:atemp>19.0</ns3:atemp>
            <ns3:hr>122</ns3:hr>
          </ns3:TrackPointExtension>
        </extensions>
      </trkpt>
      <trkpt lat="-22.08523753099143505096435546875" lon="166.4452327787876129150390625">
        <ele>713.4000244140625</ele>
        <time>2016-08-12T22:37:12.000Z</time>
        <extensions>
          <ns3:TrackPointExtension>
            <ns3:atemp>19.0</ns3:atemp>
            <ns3:hr>121</ns3:hr>
          </ns3:TrackPointExtension>
        </extensions>
      </trkpt>
      <trkpt lat="-22.085257731378078460693359375" lon="166.4452248997986316680908203125">
        <ele>713.4000244140625</ele>
        <time>2016-08-12T22:37:13.000Z</time>
        <extensions>
          <ns3:TrackPointExtension>
            <ns3:atemp>19.0</ns3:atemp>
            <ns3:hr>120</ns3:hr>
          </ns3:TrackPointExtension>
        </extensions>
      </trkpt>
      <trkpt lat="-22.0852813683450222015380859375" lon="166.44521676935255527496337890625">
        <ele>713.20001220703125</ele>
        <time>2016-08-12T22:37:14.000Z</time>
        <extensions>
          <ns3:TrackPointExtension>
            <ns3:atemp>19.0</ns3:atemp>
            <ns3:hr>120</ns3:hr>
          </ns3:TrackPointExtension>
        </extensions>
      </trkpt>
      <trkpt lat="-22.0853051729500293731689453125" lon="166.4452118240296840667724609375">
        <ele>712.79998779296875</ele>
        <time>2016-08-12T22:37:15.000Z</time>
        <extensions>
          <ns3:TrackPointExtension>
            <ns3:atemp>19.0</ns3:atemp>
            <ns3:hr>121</ns3:hr>
          </ns3:TrackPointExtension>
        </extensions>
      </trkpt>
      <trkpt lat="-22.085328809916973114013671875" lon="166.445195563137531280517578125">
        <ele>712.5999755859375</ele>
        <time>2016-08-12T22:37:16.000Z</time>
        <extensions>
          <ns3:TrackPointExtension>
            <ns3:atemp>19.0</ns3:atemp>
            <ns3:hr>122</ns3:hr>
          </ns3:TrackPointExtension>
        </extensions>
      </trkpt>
      <trkpt lat="-22.08535571582615375518798828125" lon="166.4451844990253448486328125">
        <ele>712.5999755859375</ele>
        <time>2016-08-12T22:37:17.000Z</time>
        <extensions>
          <ns3:TrackPointExtension>
            <ns3:atemp>19.0</ns3:atemp>
            <ns3:hr>122</ns3:hr>
          </ns3:TrackPointExtension>
        </extensions>
      </trkpt>
      <trkpt lat="-22.085381448268890380859375" lon="166.44518173299729824066162109375">
        <ele>712.4000244140625</ele>
        <time>2016-08-12T22:37:18.000Z</time>
        <extensions>
          <ns3:TrackPointExtension>
            <ns3:atemp>19.0</ns3:atemp>
            <ns3:hr>123</ns3:hr>
          </ns3:TrackPointExtension>
        </extensions>
      </trkpt>
      <trkpt lat="-22.08540852181613445281982421875" lon="166.44517502747476100921630859375">
        <ele>712.20001220703125</ele>
        <time>2016-08-12T22:37:19.000Z</time>
        <extensions>
          <ns3:TrackPointExtension>
            <ns3:atemp>19.0</ns3:atemp>
            <ns3:hr>124</ns3:hr>
          </ns3:TrackPointExtension>
        </extensions>
      </trkpt>
      <trkpt lat="-22.08543601445853710174560546875" lon="166.445172764360904693603515625">
        <ele>711.79998779296875</ele>
        <time>2016-08-12T22:37:20.000Z</time>
        <extensions>
          <ns3:TrackPointExtension>
            <ns3:atemp>19.0</ns3:atemp>
            <ns3:hr>125</ns3:hr>
          </ns3:TrackPointExtension>
        </extensions>
      </trkpt>
      <trkpt lat="-22.085458226501941680908203125" lon="166.44517117179930210113525390625">
        <ele>711.5999755859375</ele>
        <time>2016-08-12T22:37:21.000Z</time>
        <extensions>
          <ns3:TrackPointExtension>
            <ns3:atemp>19.0</ns3:atemp>
            <ns3:hr>125</ns3:hr>
          </ns3:TrackPointExtension>
        </extensions>
      </trkpt>
      <trkpt lat="-22.0854795165359973907470703125" lon="166.4451737701892852783203125">
        <ele>711.4000244140625</ele>
        <time>2016-08-12T22:37:22.000Z</time>
        <extensions>
          <ns3:TrackPointExtension>
            <ns3:atemp>19.0</ns3:atemp>
            <ns3:hr>126</ns3:hr>
          </ns3:TrackPointExtension>
        </extensions>
      </trkpt>
      <trkpt lat="-22.0854972861707210540771484375" lon="166.445169411599636077880859375">
        <ele>711.5999755859375</ele>
        <time>2016-08-12T22:37:23.000Z</time>
        <extensions>
          <ns3:TrackPointExtension>
            <ns3:atemp>19.0</ns3:atemp>
            <ns3:hr>126</ns3:hr>
          </ns3:TrackPointExtension>
        </extensions>
      </trkpt>
      <trkpt lat="-22.0855142176151275634765625" lon="166.4451679028570652008056640625">
        <ele>711.79998779296875</ele>
        <time>2016-08-12T22:37:24.000Z</time>
        <extensions>
          <ns3:TrackPointExtension>
            <ns3:atemp>19.0</ns3:atemp>
            <ns3:hr>126</ns3:hr>
          </ns3:TrackPointExtension>
        </extensions>
      </trkpt>
      <trkpt lat="-22.0855284668505191802978515625" lon="166.44516530446708202362060546875">
        <ele>712</ele>
        <time>2016-08-12T22:37:25.000Z</time>
        <extensions>
          <ns3:TrackPointExtension>
            <ns3:atemp>19.0</ns3:atemp>
            <ns3:hr>127</ns3:hr>
          </ns3:TrackPointExtension>
        </extensions>
      </trkpt>
      <trkpt lat="-22.08554279990494251251220703125" lon="166.44516429863870143890380859375">
        <ele>712</ele>
        <time>2016-08-12T22:37:26.000Z</time>
        <extensions>
          <ns3:TrackPointExtension>
            <ns3:atemp>19.0</ns3:atemp>
            <ns3:hr>127</ns3:hr>
          </ns3:TrackPointExtension>
        </extensions>
      </trkpt>
      <trkpt lat="-22.0855606533586978912353515625" lon="166.4451679028570652008056640625">
        <ele>711.79998779296875</ele>
        <time>2016-08-12T22:37:27.000Z</time>
        <extensions>
          <ns3:TrackPointExtension>
            <ns3:atemp>19.0</ns3:atemp>
            <ns3:hr>127</ns3:hr>
          </ns3:TrackPointExtension>
        </extensions>
      </trkpt>
      <trkpt lat="-22.0855868048965930938720703125" lon="166.44517578184604644775390625">
        <ele>711.79998779296875</ele>
        <time>2016-08-12T22:37:28.000Z</time>
        <extensions>
          <ns3:TrackPointExtension>
            <ns3:atemp>19.0</ns3:atemp>
            <ns3:hr>128</ns3:hr>
          </ns3:TrackPointExtension>
        </extensions>
      </trkpt>
      <trkpt lat="-22.0856045745313167572021484375" lon="166.44518340937793254852294921875">
        <ele>711.79998779296875</ele>
        <time>2016-08-12T22:37:29.000Z</time>
        <extensions>
          <ns3:TrackPointExtension>
            <ns3:atemp>19.0</ns3:atemp>
            <ns3:hr>128</ns3:hr>
          </ns3:TrackPointExtension>
        </extensions>
      </trkpt>
      <trkpt lat="-22.085622511804103851318359375" lon="166.44519480876624584197998046875">
        <ele>711.79998779296875</ele>
        <time>2016-08-12T22:37:30.000Z</time>
        <extensions>
          <ns3:TrackPointExtension>
            <ns3:atemp>19.0</ns3:atemp>
            <ns3:hr>128</ns3:hr>
          </ns3:TrackPointExtension>
        </extensions>
      </trkpt>
      <trkpt lat="-22.08564707078039646148681640625" lon="166.445206962525844573974609375">
        <ele>711.4000244140625</ele>
        <time>2016-08-12T22:37:31.000Z</time>
        <extensions>
          <ns3:TrackPointExtension>
            <ns3:atemp>19.0</ns3:atemp>
            <ns3:hr>128</ns3:hr>
          </ns3:TrackPointExtension>
        </extensions>
      </trkpt>
      <trkpt lat="-22.0856696180999279022216796875" lon="166.4452151767909526824951171875">
        <ele>711.20001220703125</ele>
        <time>2016-08-12T22:37:32.000Z</time>
        <extensions>
          <ns3:TrackPointExtension>
            <ns3:atemp>19.0</ns3:atemp>
            <ns3:hr>128</ns3:hr>
          </ns3:TrackPointExtension>
        </extensions>
      </trkpt>
      <trkpt lat="-22.08567556925117969512939453125" lon="166.44521601498126983642578125">
        <ele>711</ele>
        <time>2016-08-12T22:37:33.000Z</time>
        <extensions>
          <ns3:TrackPointExtension>
            <ns3:atemp>19.0</ns3:atemp>
            <ns3:hr>128</ns3:hr>
          </ns3:TrackPointExtension>
        </extensions>
      </trkpt>
      <trkpt lat="-22.0856873877346515655517578125" lon="166.4452161826193332672119140625">
        <ele>710.79998779296875</ele>
        <time>2016-08-12T22:37:34.000Z</time>
        <extensions>
          <ns3:TrackPointExtension>
            <ns3:atemp>19.0</ns3:atemp>
            <ns3:hr>128</ns3:hr>
          </ns3:TrackPointExtension>
        </extensions>
      </trkpt>
      <trkpt lat="-22.08570373244583606719970703125" lon="166.44522272050380706787109375">
        <ele>710.79998779296875</ele>
        <time>2016-08-12T22:37:35.000Z</time>
        <extensions>
          <ns3:TrackPointExtension>
            <ns3:atemp>19.0</ns3:atemp>
            <ns3:hr>127</ns3:hr>
          </ns3:TrackPointExtension>
        </extensions>
      </trkpt>
      <trkpt lat="-22.08572133444249629974365234375" lon="166.4452305994927883148193359375">
        <ele>710.79998779296875</ele>
        <time>2016-08-12T22:37:36.000Z</time>
        <extensions>
          <ns3:TrackPointExtension>
            <ns3:atemp>19.0</ns3:atemp>
            <ns3:hr>127</ns3:hr>
          </ns3:TrackPointExtension>
        </extensions>
      </trkpt>
      <trkpt lat="-22.08574161864817142486572265625" lon="166.44523973576724529266357421875">
        <ele>710.5999755859375</ele>
        <time>2016-08-12T22:37:37.000Z</time>
        <extensions>
          <ns3:TrackPointExtension>
            <ns3:atemp>19.0</ns3:atemp>
            <ns3:hr>127</ns3:hr>
          </ns3:TrackPointExtension>
        </extensions>
      </trkpt>
      <trkpt lat="-22.085759304463863372802734375" lon="166.44524694420397281646728515625">
        <ele>710.4000244140625</ele>
        <time>2016-08-12T22:37:38.000Z</time>
        <extensions>
          <ns3:TrackPointExtension>
            <ns3:atemp>19.0</ns3:atemp>
            <ns3:hr>127</ns3:hr>
          </ns3:TrackPointExtension>
        </extensions>
      </trkpt>
      <trkpt lat="-22.085778079926967620849609375" lon="166.4452547393739223480224609375">
        <ele>710</ele>
        <time>2016-08-12T22:37:39.000Z</time>
        <extensions>
          <ns3:TrackPointExtension>
            <ns3:atemp>19.0</ns3:atemp>
            <ns3:hr>127</ns3:hr>
          </ns3:TrackPointExtension>
        </extensions>
      </trkpt>
      <trkpt lat="-22.08580054342746734619140625" lon="166.445259265601634979248046875">
        <ele>709.79998779296875</ele>
        <time>2016-08-12T22:37:40.000Z</time>
        <extensions>
          <ns3:TrackPointExtension>
            <ns3:atemp>19.0</ns3:atemp>
            <ns3:hr>127</ns3:hr>
          </ns3:TrackPointExtension>
        </extensions>
      </trkpt>
      <trkpt lat="-22.08582208491861820220947265625" lon="166.4452647976577281951904296875">
        <ele>709.5999755859375</ele>
        <time>2016-08-12T22:37:41.000Z</time>
        <extensions>
          <ns3:TrackPointExtension>
            <ns3:atemp>19.0</ns3:atemp>
            <ns3:hr>127</ns3:hr>
          </ns3:TrackPointExtension>
        </extensions>
      </trkpt>
      <trkpt lat="-22.085840441286563873291015625" lon="166.4452601037919521331787109375">
        <ele>709.20001220703125</ele>
        <time>2016-08-12T22:37:42.000Z</time>
        <extensions>
          <ns3:TrackPointExtension>
            <ns3:atemp>19.0</ns3:atemp>
            <ns3:hr>127</ns3:hr>
          </ns3:TrackPointExtension>
        </extensions>
      </trkpt>
      <trkpt lat="-22.08587069995701313018798828125" lon="166.44525817595422267913818359375">
        <ele>709</ele>
        <time>2016-08-12T22:37:43.000Z</time>
        <extensions>
          <ns3:TrackPointExtension>
            <ns3:atemp>19.0</ns3:atemp>
            <ns3:hr>127</ns3:hr>
          </ns3:TrackPointExtension>
        </extensions>
      </trkpt>
      <trkpt lat="-22.0858959294855594635009765625" lon="166.44526018761098384857177734375">
        <ele>708.79998779296875</ele>
        <time>2016-08-12T22:37:44.000Z</time>
        <extensions>
          <ns3:TrackPointExtension>
            <ns3:atemp>19.0</ns3:atemp>
            <ns3:hr>127</ns3:hr>
          </ns3:TrackPointExtension>
        </extensions>
      </trkpt>
      <trkpt lat="-22.0859183929860591888427734375" lon="166.4452614448964595794677734375">
        <ele>708.20001220703125</ele>
        <time>2016-08-12T22:37:45.000Z</time>
        <extensions>
          <ns3:TrackPointExtension>
            <ns3:atemp>19.0</ns3:atemp>
            <ns3:hr>127</ns3:hr>
          </ns3:TrackPointExtension>
        </extensions>
      </trkpt>
      <trkpt lat="-22.08594672381877899169921875" lon="166.445260606706142425537109375">
        <ele>708</ele>
        <time>2016-08-12T22:37:46.000Z</time>
        <extensions>
          <ns3:TrackPointExtension>
            <ns3:atemp>19.0</ns3:atemp>
            <ns3:hr>127</ns3:hr>
          </ns3:TrackPointExtension>
        </extensions>
      </trkpt>
      <trkpt lat="-22.0859720371663570404052734375" lon="166.44525985233485698699951171875">
        <ele>707.5999755859375</ele>
        <time>2016-08-12T22:37:47.000Z</time>
        <extensions>
          <ns3:TrackPointExtension>
            <ns3:atemp>19.0</ns3:atemp>
            <ns3:hr>126</ns3:hr>
          </ns3:TrackPointExtension>
        </extensions>
      </trkpt>
      <trkpt lat="-22.0859955064952373504638671875" lon="166.44526018761098384857177734375">
        <ele>707.4000244140625</ele>
        <time>2016-08-12T22:37:48.000Z</time>
        <extensions>
          <ns3:TrackPointExtension>
            <ns3:atemp>19.0</ns3:atemp>
            <ns3:hr>126</ns3:hr>
          </ns3:TrackPointExtension>
        </extensions>
      </trkpt>
      <trkpt lat="-22.086019478738307952880859375" lon="166.44526303745806217193603515625">
        <ele>707.20001220703125</ele>
        <time>2016-08-12T22:37:49.000Z</time>
        <extensions>
          <ns3:TrackPointExtension>
            <ns3:atemp>19.0</ns3:atemp>
            <ns3:hr>126</ns3:hr>
          </ns3:TrackPointExtension>
        </extensions>
      </trkpt>
      <trkpt lat="-22.0860451273620128631591796875" lon="166.4452621154487133026123046875">
        <ele>706.5999755859375</ele>
        <time>2016-08-12T22:37:50.000Z</time>
        <extensions>
          <ns3:TrackPointExtension>
            <ns3:atemp>19.0</ns3:atemp>
            <ns3:hr>127</ns3:hr>
          </ns3:TrackPointExtension>
        </extensions>
      </trkpt>
      <trkpt lat="-22.08607337437570095062255859375" lon="166.4452614448964595794677734375">
        <ele>706.20001220703125</ele>
        <time>2016-08-12T22:37:51.000Z</time>
        <extensions>
          <ns3:TrackPointExtension>
            <ns3:atemp>19.0</ns3:atemp>
            <ns3:hr>127</ns3:hr>
          </ns3:TrackPointExtension>
        </extensions>
      </trkpt>
      <trkpt lat="-22.08609919063746929168701171875" lon="166.445262618362903594970703125">
        <ele>706.20001220703125</ele>
        <time>2016-08-12T22:37:52.000Z</time>
        <extensions>
          <ns3:TrackPointExtension>
            <ns3:atemp>19.0</ns3:atemp>
            <ns3:hr>127</ns3:hr>
          </ns3:TrackPointExtension>
        </extensions>
      </trkpt>
      <trkpt lat="-22.0861212350428104400634765625" lon="166.44526253454387187957763671875">
        <ele>706.20001220703125</ele>
        <time>2016-08-12T22:37:53.000Z</time>
        <extensions>
          <ns3:TrackPointExtension>
            <ns3:atemp>19.0</ns3:atemp>
            <ns3:hr>126</ns3:hr>
          </ns3:TrackPointExtension>
        </extensions>
      </trkpt>
      <trkpt lat="-22.086148224771022796630859375" lon="166.44526387564837932586669921875">
        <ele>706</ele>
        <time>2016-08-12T22:37:54.000Z</time>
        <extensions>
          <ns3:TrackPointExtension>
            <ns3:atemp>19.0</ns3:atemp>
            <ns3:hr>126</ns3:hr>
          </ns3:TrackPointExtension>
        </extensions>
      </trkpt>
      <trkpt lat="-22.0861795730888843536376953125" lon="166.44526421092450618743896484375">
        <ele>706</ele>
        <time>2016-08-12T22:37:55.000Z</time>
        <extensions>
          <ns3:TrackPointExtension>
            <ns3:atemp>19.0</ns3:atemp>
            <ns3:hr>126</ns3:hr>
          </ns3:TrackPointExtension>
        </extensions>
      </trkpt>
      <trkpt lat="-22.08620362915098667144775390625" lon="166.44526161253452301025390625">
        <ele>705.79998779296875</ele>
        <time>2016-08-12T22:37:56.000Z</time>
        <extensions>
          <ns3:TrackPointExtension>
            <ns3:atemp>19.0</ns3:atemp>
            <ns3:hr>126</ns3:hr>
          </ns3:TrackPointExtension>
        </extensions>
      </trkpt>
      <trkpt lat="-22.08622542209923267364501953125" lon="166.44526052288711071014404296875">
        <ele>705.79998779296875</ele>
        <time>2016-08-12T22:37:57.000Z</time>
        <extensions>
          <ns3:TrackPointExtension>
            <ns3:atemp>19.0</ns3:atemp>
            <ns3:hr>126</ns3:hr>
          </ns3:TrackPointExtension>
        </extensions>
      </trkpt>
      <trkpt lat="-22.08624713122844696044921875" lon="166.44526018761098384857177734375">
        <ele>705.79998779296875</ele>
        <time>2016-08-12T22:37:58.000Z</time>
        <extensions>
          <ns3:TrackPointExtension>
            <ns3:atemp>19.0</ns3:atemp>
            <ns3:hr>125</ns3:hr>
          </ns3:TrackPointExtension>
        </extensions>
      </trkpt>
      <trkpt lat="-22.08626867271959781646728515625" lon="166.445259265601634979248046875">
        <ele>705.4000244140625</ele>
        <time>2016-08-12T22:37:59.000Z</time>
        <extensions>
          <ns3:TrackPointExtension>
            <ns3:atemp>19.0</ns3:atemp>
            <ns3:hr>125</ns3:hr>
          </ns3:TrackPointExtension>
        </extensions>
      </trkpt>
      <trkpt lat="-22.08628225140273571014404296875" lon="166.4452621154487133026123046875">
        <ele>705.20001220703125</ele>
        <time>2016-08-12T22:38:00.000Z</time>
        <extensions>
          <ns3:TrackPointExtension>
            <ns3:atemp>19.0</ns3:atemp>
            <ns3:hr>125</ns3:hr>
          </ns3:TrackPointExtension>
        </extensions>
      </trkpt>
      <trkpt lat="-22.086295075714588165283203125" lon="166.44527628086507320404052734375">
        <ele>705.20001220703125</ele>
        <time>2016-08-12T22:38:01.000Z</time>
        <extensions>
          <ns3:TrackPointExtension>
            <ns3:atemp>19.0</ns3:atemp>
            <ns3:hr>125</ns3:hr>
          </ns3:TrackPointExtension>
        </extensions>
      </trkpt>
      <trkpt lat="-22.08630144596099853515625" lon="166.4452929608523845672607421875">
        <ele>705.20001220703125</ele>
        <time>2016-08-12T22:38:02.000Z</time>
        <extensions>
          <ns3:TrackPointExtension>
            <ns3:atemp>19.0</ns3:atemp>
            <ns3:hr>125</ns3:hr>
          </ns3:TrackPointExtension>
        </extensions>
      </trkpt>
      <trkpt lat="-22.08630706183612346649169921875" lon="166.44531316123902797698974609375">
        <ele>705</ele>
        <time>2016-08-12T22:38:03.000Z</time>
        <extensions>
          <ns3:TrackPointExtension>
            <ns3:atemp>19.0</ns3:atemp>
            <ns3:hr>125</ns3:hr>
          </ns3:TrackPointExtension>
        </extensions>
      </trkpt>
      <trkpt lat="-22.0863180421292781829833984375" lon="166.44533629529178142547607421875">
        <ele>705</ele>
        <time>2016-08-12T22:38:04.000Z</time>
        <extensions>
          <ns3:TrackPointExtension>
            <ns3:atemp>19.0</ns3:atemp>
            <ns3:hr>125</ns3:hr>
          </ns3:TrackPointExtension>
        </extensions>
      </trkpt>
      <trkpt lat="-22.086330950260162353515625" lon="166.44535205326974391937255859375">
        <ele>704.5999755859375</ele>
        <time>2016-08-12T22:38:05.000Z</time>
        <extensions>
          <ns3:TrackPointExtension>
            <ns3:atemp>19.0</ns3:atemp>
            <ns3:hr>125</ns3:hr>
          </ns3:TrackPointExtension>
        </extensions>
      </trkpt>
      <trkpt lat="-22.08634545095264911651611328125" lon="166.44536579959094524383544921875">
        <ele>704.5999755859375</ele>
        <time>2016-08-12T22:38:06.000Z</time>
        <extensions>
          <ns3:TrackPointExtension>
            <ns3:atemp>19.0</ns3:atemp>
            <ns3:hr>125</ns3:hr>
          </ns3:TrackPointExtension>
        </extensions>
      </trkpt>
      <trkpt lat="-22.08636305294930934906005859375" lon="166.44538122229278087615966796875">
        <ele>704.5999755859375</ele>
        <time>2016-08-12T22:38:07.000Z</time>
        <extensions>
          <ns3:TrackPointExtension>
            <ns3:atemp>19.0</ns3:atemp>
            <ns3:hr>125</ns3:hr>
          </ns3:TrackPointExtension>
        </extensions>
      </trkpt>
      <trkpt lat="-22.08638082258403301239013671875" lon="166.44539513625204563140869140625">
        <ele>704.20001220703125</ele>
        <time>2016-08-12T22:38:08.000Z</time>
        <extensions>
          <ns3:TrackPointExtension>
            <ns3:atemp>19.0</ns3:atemp>
            <ns3:hr>125</ns3:hr>
          </ns3:TrackPointExtension>
        </extensions>
      </trkpt>
      <trkpt lat="-22.086402364075183868408203125" lon="166.4454029314219951629638671875">
        <ele>704</ele>
        <time>2016-08-12T22:38:09.000Z</time>
        <extensions>
          <ns3:TrackPointExtension>
            <ns3:atemp>19.0</ns3:atemp>
            <ns3:hr>125</ns3:hr>
          </ns3:TrackPointExtension>
        </extensions>
      </trkpt>
      <trkpt lat="-22.086422480642795562744140625" lon="166.445412151515483856201171875">
        <ele>703.5999755859375</ele>
        <time>2016-08-12T22:38:10.000Z</time>
        <extensions>
          <ns3:TrackPointExtension>
            <ns3:atemp>19.0</ns3:atemp>
            <ns3:hr>126</ns3:hr>
          </ns3:TrackPointExtension>
        </extensions>
      </trkpt>
      <trkpt lat="-22.0864449441432952880859375" lon="166.44542799331247806549072265625">
        <ele>703</ele>
        <time>2016-08-12T22:38:11.000Z</time>
        <extensions>
          <ns3:TrackPointExtension>
            <ns3:atemp>19.0</ns3:atemp>
            <ns3:hr>125</ns3:hr>
          </ns3:TrackPointExtension>
        </extensions>
      </trkpt>
      <trkpt lat="-22.08646799437701702117919921875" lon="166.44544475711882114410400390625">
        <ele>702.20001220703125</ele>
        <time>2016-08-12T22:38:12.000Z</time>
        <extensions>
          <ns3:TrackPointExtension>
            <ns3:atemp>19.0</ns3:atemp>
            <ns3:hr>125</ns3:hr>
          </ns3:TrackPointExtension>
        </extensions>
      </trkpt>
      <trkpt lat="-22.08649096079170703887939453125" lon="166.44546504132449626922607421875">
        <ele>701.79998779296875</ele>
        <time>2016-08-12T22:38:13.000Z</time>
        <extensions>
          <ns3:TrackPointExtension>
            <ns3:atemp>19.0</ns3:atemp>
            <ns3:hr>125</ns3:hr>
          </ns3:TrackPointExtension>
        </extensions>
      </trkpt>
      <trkpt lat="-22.0865091495215892791748046875" lon="166.44548197276890277862548828125">
        <ele>701</ele>
        <time>2016-08-12T22:38:14.000Z</time>
        <extensions>
          <ns3:TrackPointExtension>
            <ns3:atemp>19.0</ns3:atemp>
            <ns3:hr>125</ns3:hr>
          </ns3:TrackPointExtension>
        </extensions>
      </trkpt>
      <trkpt lat="-22.086535803973674774169921875" lon="166.445497311651706695556640625">
        <ele>700.4000244140625</ele>
        <time>2016-08-12T22:38:15.000Z</time>
        <extensions>
          <ns3:TrackPointExtension>
            <ns3:atemp>19.0</ns3:atemp>
            <ns3:hr>126</ns3:hr>
          </ns3:TrackPointExtension>
        </extensions>
      </trkpt>
      <trkpt lat="-22.08656103350222110748291015625" lon="166.4455065317451953887939453125">
        <ele>700.5999755859375</ele>
        <time>2016-08-12T22:38:16.000Z</time>
        <extensions>
          <ns3:TrackPointExtension>
            <ns3:atemp>19.0</ns3:atemp>
            <ns3:hr>126</ns3:hr>
          </ns3:TrackPointExtension>
        </extensions>
      </trkpt>
      <trkpt lat="-22.0865855924785137176513671875" lon="166.44549940712749958038330078125">
        <ele>700.4000244140625</ele>
        <time>2016-08-12T22:38:17.000Z</time>
        <extensions>
          <ns3:TrackPointExtension>
            <ns3:atemp>19.0</ns3:atemp>
            <ns3:hr>126</ns3:hr>
          </ns3:TrackPointExtension>
        </extensions>
      </trkpt>
      <trkpt lat="-22.0866114087402820587158203125" lon="166.44549504853785037994384765625">
        <ele>699.5999755859375</ele>
        <time>2016-08-12T22:38:18.000Z</time>
        <extensions>
          <ns3:TrackPointExtension>
            <ns3:atemp>19.0</ns3:atemp>
            <ns3:hr>126</ns3:hr>
          </ns3:TrackPointExtension>
        </extensions>
      </trkpt>
      <trkpt lat="-22.08664015866816043853759765625" lon="166.445488594472408294677734375">
        <ele>699.4000244140625</ele>
        <time>2016-08-12T22:38:19.000Z</time>
        <extensions>
          <ns3:TrackPointExtension>
            <ns3:atemp>19.0</ns3:atemp>
            <ns3:hr>126</ns3:hr>
          </ns3:TrackPointExtension>
        </extensions>
      </trkpt>
      <trkpt lat="-22.08666765131056308746337890625" lon="166.44548012875020503997802734375">
        <ele>699.4000244140625</ele>
        <time>2016-08-12T22:38:20.000Z</time>
        <extensions>
          <ns3:TrackPointExtension>
            <ns3:atemp>19.0</ns3:atemp>
            <ns3:hr>126</ns3:hr>
          </ns3:TrackPointExtension>
        </extensions>
      </trkpt>
      <trkpt lat="-22.08669506013393402099609375" lon="166.4454741775989532470703125">
        <ele>699.20001220703125</ele>
        <time>2016-08-12T22:38:21.000Z</time>
        <extensions>
          <ns3:TrackPointExtension>
            <ns3:atemp>19.0</ns3:atemp>
            <ns3:hr>126</ns3:hr>
          </ns3:TrackPointExtension>
        </extensions>
      </trkpt>
      <trkpt lat="-22.0867212116718292236328125" lon="166.4454750157892704010009765625">
        <ele>699</ele>
        <time>2016-08-12T22:38:22.000Z</time>
        <extensions>
          <ns3:TrackPointExtension>
            <ns3:atemp>19.0</ns3:atemp>
            <ns3:hr>126</ns3:hr>
          </ns3:TrackPointExtension>
        </extensions>
      </trkpt>
      <trkpt lat="-22.086744010448455810546875" lon="166.445467136800289154052734375">
        <ele>699</ele>
        <time>2016-08-12T22:38:23.000Z</time>
        <extensions>
          <ns3:TrackPointExtension>
            <ns3:atemp>19.0</ns3:atemp>
            <ns3:hr>125</ns3:hr>
          </ns3:TrackPointExtension>
        </extensions>
      </trkpt>
      <trkpt lat="-22.0867632888257503509521484375" lon="166.4454636164009571075439453125">
        <ele>698.79998779296875</ele>
        <time>2016-08-12T22:38:24.000Z</time>
        <extensions>
          <ns3:TrackPointExtension>
            <ns3:atemp>19.0</ns3:atemp>
            <ns3:hr>125</ns3:hr>
          </ns3:TrackPointExtension>
        </extensions>
      </trkpt>
      <trkpt lat="-22.08678097464144229888916015625" lon="166.4454646222293376922607421875">
        <ele>698.79998779296875</ele>
        <time>2016-08-12T22:38:25.000Z</time>
        <extensions>
          <ns3:TrackPointExtension>
            <ns3:atemp>19.0</ns3:atemp>
            <ns3:hr>125</ns3:hr>
          </ns3:TrackPointExtension>
        </extensions>
      </trkpt>
      <trkpt lat="-22.08680125884711742401123046875" lon="166.4454741775989532470703125">
        <ele>698.5999755859375</ele>
        <time>2016-08-12T22:38:26.000Z</time>
        <extensions>
          <ns3:TrackPointExtension>
            <ns3:atemp>19.0</ns3:atemp>
            <ns3:hr>125</ns3:hr>
          </ns3:TrackPointExtension>
        </extensions>
      </trkpt>
      <trkpt lat="-22.0868217945098876953125" lon="166.4454897679388523101806640625">
        <ele>698.20001220703125</ele>
        <time>2016-08-12T22:38:27.000Z</time>
        <extensions>
          <ns3:TrackPointExtension>
            <ns3:atemp>19.0</ns3:atemp>
            <ns3:hr>125</ns3:hr>
          </ns3:TrackPointExtension>
        </extensions>
      </trkpt>
      <trkpt lat="-22.0868383906781673431396484375" lon="166.44550837576389312744140625">
        <ele>698</ele>
        <time>2016-08-12T22:38:28.000Z</time>
        <extensions>
          <ns3:TrackPointExtension>
            <ns3:atemp>19.0</ns3:atemp>
            <ns3:hr>125</ns3:hr>
          </ns3:TrackPointExtension>
        </extensions>
      </trkpt>
      <trkpt lat="-22.08685289137065410614013671875" lon="166.445526815950870513916015625">
        <ele>697.79998779296875</ele>
        <time>2016-08-12T22:38:29.000Z</time>
        <extensions>
          <ns3:TrackPointExtension>
            <ns3:atemp>19.0</ns3:atemp>
            <ns3:hr>125</ns3:hr>
          </ns3:TrackPointExtension>
        </extensions>
      </trkpt>
      <trkpt lat="-22.0868662185966968536376953125" lon="166.44554383121430873870849609375">
        <ele>697.5999755859375</ele>
        <time>2016-08-12T22:38:30.000Z</time>
        <extensions>
          <ns3:TrackPointExtension>
            <ns3:atemp>19.0</ns3:atemp>
            <ns3:hr>124</ns3:hr>
          </ns3:TrackPointExtension>
        </extensions>
      </trkpt>
      <trkpt lat="-22.08687585778534412384033203125" lon="166.445559673011302947998046875">
        <ele>697.20001220703125</ele>
        <time>2016-08-12T22:38:31.000Z</time>
        <extensions>
          <ns3:TrackPointExtension>
            <ns3:atemp>19.0</ns3:atemp>
            <ns3:hr>125</ns3:hr>
          </ns3:TrackPointExtension>
        </extensions>
      </trkpt>
      <trkpt lat="-22.08688625134527683258056640625" lon="166.44557635299861431121826171875">
        <ele>697</ele>
        <time>2016-08-12T22:38:32.000Z</time>
        <extensions>
          <ns3:TrackPointExtension>
            <ns3:atemp>19.0</ns3:atemp>
            <ns3:hr>125</ns3:hr>
          </ns3:TrackPointExtension>
        </extensions>
      </trkpt>
      <trkpt lat="-22.0868950523436069488525390625" lon="166.44559060223400592803955078125">
        <ele>696.79998779296875</ele>
        <time>2016-08-12T22:38:33.000Z</time>
        <extensions>
          <ns3:TrackPointExtension>
            <ns3:atemp>19.0</ns3:atemp>
            <ns3:hr>125</ns3:hr>
          </ns3:TrackPointExtension>
        </extensions>
      </trkpt>
      <trkpt lat="-22.0869071222841739654541015625" lon="166.4456094615161418914794921875">
        <ele>696.79998779296875</ele>
        <time>2016-08-12T22:38:34.000Z</time>
        <extensions>
          <ns3:TrackPointExtension>
            <ns3:atemp>19.0</ns3:atemp>
            <ns3:hr>125</ns3:hr>
          </ns3:TrackPointExtension>
        </extensions>
      </trkpt>
      <trkpt lat="-22.08691726438701152801513671875" lon="166.445625722408294677734375">
        <ele>696.79998779296875</ele>
        <time>2016-08-12T22:38:35.000Z</time>
        <extensions>
          <ns3:TrackPointExtension>
            <ns3:atemp>19.0</ns3:atemp>
            <ns3:hr>125</ns3:hr>
          </ns3:TrackPointExtension>
        </extensions>
      </trkpt>
      <trkpt lat="-22.08692514337599277496337890625" lon="166.44564055837690830230712890625">
        <ele>696.5999755859375</ele>
        <time>2016-08-12T22:38:36.000Z</time>
        <extensions>
          <ns3:TrackPointExtension>
            <ns3:atemp>19.0</ns3:atemp>
            <ns3:hr>125</ns3:hr>
          </ns3:TrackPointExtension>
        </extensions>
      </trkpt>
      <trkpt lat="-22.08693352527916431427001953125" lon="166.44565849564969539642333984375">
        <ele>696.5999755859375</ele>
        <time>2016-08-12T22:38:37.000Z</time>
        <extensions>
          <ns3:TrackPointExtension>
            <ns3:atemp>19.0</ns3:atemp>
            <ns3:hr>125</ns3:hr>
          </ns3:TrackPointExtension>
        </extensions>
      </trkpt>
      <trkpt lat="-22.086942829191684722900390625" lon="166.445677019655704498291015625">
        <ele>696</ele>
        <time>2016-08-12T22:38:38.000Z</time>
        <extensions>
          <ns3:TrackPointExtension>
            <ns3:atemp>19.0</ns3:atemp>
            <ns3:hr>126</ns3:hr>
          </ns3:TrackPointExtension>
        </extensions>
      </trkpt>
      <trkpt lat="-22.08695389330387115478515625" lon="166.445694454014301300048828125">
        <ele>695.79998779296875</ele>
        <time>2016-08-12T22:38:39.000Z</time>
        <extensions>
          <ns3:TrackPointExtension>
            <ns3:atemp>19.0</ns3:atemp>
            <ns3:hr>126</ns3:hr>
          </ns3:TrackPointExtension>
        </extensions>
      </trkpt>
      <trkpt lat="-22.08696386776864528656005859375" lon="166.44571767188608646392822265625">
        <ele>695.5999755859375</ele>
        <time>2016-08-12T22:38:40.000Z</time>
        <extensions>
          <ns3:TrackPointExtension>
            <ns3:atemp>19.0</ns3:atemp>
            <ns3:hr>126</ns3:hr>
          </ns3:TrackPointExtension>
        </extensions>
      </trkpt>
      <trkpt lat="-22.08698331378400325775146484375" lon="166.445739381015300750732421875">
        <ele>695.5999755859375</ele>
        <time>2016-08-12T22:38:41.000Z</time>
        <extensions>
          <ns3:TrackPointExtension>
            <ns3:atemp>19.0</ns3:atemp>
            <ns3:hr>125</ns3:hr>
          </ns3:TrackPointExtension>
        </extensions>
      </trkpt>
      <trkpt lat="-22.08700275979936122894287109375" lon="166.44575723446905612945556640625">
        <ele>695.5999755859375</ele>
        <time>2016-08-12T22:38:42.000Z</time>
        <extensions>
          <ns3:TrackPointExtension>
            <ns3:atemp>19.0</ns3:atemp>
            <ns3:hr>126</ns3:hr>
          </ns3:TrackPointExtension>
        </extensions>
      </trkpt>
      <trkpt lat="-22.08702840842306613922119140625" lon="166.44577751867473125457763671875">
        <ele>695.4000244140625</ele>
        <time>2016-08-12T22:38:43.000Z</time>
        <extensions>
          <ns3:TrackPointExtension>
            <ns3:atemp>19.0</ns3:atemp>
            <ns3:hr>126</ns3:hr>
          </ns3:TrackPointExtension>
        </extensions>
      </trkpt>
      <trkpt lat="-22.08705221302807331085205078125" lon="166.4457928575575351715087890625">
        <ele>695</ele>
        <time>2016-08-12T22:38:44.000Z</time>
        <extensions>
          <ns3:TrackPointExtension>
            <ns3:atemp>19.0</ns3:atemp>
            <ns3:hr>125</ns3:hr>
          </ns3:TrackPointExtension>
        </extensions>
      </trkpt>
      <trkpt lat="-22.08707300014793872833251953125" lon="166.4458049274981021881103515625">
        <ele>695</ele>
        <time>2016-08-12T22:38:45.000Z</time>
        <extensions>
          <ns3:TrackPointExtension>
            <ns3:atemp>19.0</ns3:atemp>
            <ns3:hr>125</ns3:hr>
          </ns3:TrackPointExtension>
        </extensions>
      </trkpt>
      <trkpt lat="-22.087092362344264984130859375" lon="166.44581892527639865875244140625">
        <ele>694.79998779296875</ele>
        <time>2016-08-12T22:38:46.000Z</time>
        <extensions>
          <ns3:TrackPointExtension>
            <ns3:atemp>19.0</ns3:atemp>
            <ns3:hr>125</ns3:hr>
          </ns3:TrackPointExtension>
        </extensions>
      </trkpt>
      <trkpt lat="-22.08710812032222747802734375" lon="166.4458273909986019134521484375">
        <ele>694.5999755859375</ele>
        <time>2016-08-12T22:38:47.000Z</time>
        <extensions>
          <ns3:TrackPointExtension>
            <ns3:atemp>19.0</ns3:atemp>
            <ns3:hr>125</ns3:hr>
          </ns3:TrackPointExtension>
        </extensions>
      </trkpt>
      <trkpt lat="-22.08712513558566570281982421875" lon="166.4458364434540271759033203125">
        <ele>694.4000244140625</ele>
        <time>2016-08-12T22:38:48.000Z</time>
        <extensions>
          <ns3:TrackPointExtension>
            <ns3:atemp>19.0</ns3:atemp>
            <ns3:hr>126</ns3:hr>
          </ns3:TrackPointExtension>
        </extensions>
      </trkpt>
      <trkpt lat="-22.0871478505432605743408203125" lon="166.44585262052714824676513671875">
        <ele>694.20001220703125</ele>
        <time>2016-08-12T22:38:49.000Z</time>
        <extensions>
          <ns3:TrackPointExtension>
            <ns3:atemp>19.0</ns3:atemp>
            <ns3:hr>126</ns3:hr>
          </ns3:TrackPointExtension>
        </extensions>
      </trkpt>
      <trkpt lat="-22.0871676318347454071044921875" lon="166.44586385227739810943603515625">
        <ele>694</ele>
        <time>2016-08-12T22:38:50.000Z</time>
        <extensions>
          <ns3:TrackPointExtension>
            <ns3:atemp>19.0</ns3:atemp>
            <ns3:hr>126</ns3:hr>
          </ns3:TrackPointExtension>
        </extensions>
      </trkpt>
      <trkpt lat="-22.08718565292656421661376953125" lon="166.4458753354847431182861328125">
        <ele>693.79998779296875</ele>
        <time>2016-08-12T22:38:51.000Z</time>
        <extensions>
          <ns3:TrackPointExtension>
            <ns3:atemp>19.0</ns3:atemp>
            <ns3:hr>126</ns3:hr>
          </ns3:TrackPointExtension>
        </extensions>
      </trkpt>
      <trkpt lat="-22.087203674018383026123046875" lon="166.44588899798691272735595703125">
        <ele>693.79998779296875</ele>
        <time>2016-08-12T22:38:52.000Z</time>
        <extensions>
          <ns3:TrackPointExtension>
            <ns3:atemp>19.0</ns3:atemp>
            <ns3:hr>126</ns3:hr>
          </ns3:TrackPointExtension>
        </extensions>
      </trkpt>
      <trkpt lat="-22.0872219465672969818115234375" lon="166.4459024928510189056396484375">
        <ele>693.4000244140625</ele>
        <time>2016-08-12T22:38:53.000Z</time>
        <extensions>
          <ns3:TrackPointExtension>
            <ns3:atemp>19.0</ns3:atemp>
            <ns3:hr>126</ns3:hr>
          </ns3:TrackPointExtension>
        </extensions>
      </trkpt>
      <trkpt lat="-22.08723745308816432952880859375" lon="166.445913054049015045166015625">
        <ele>693.20001220703125</ele>
        <time>2016-08-12T22:38:54.000Z</time>
        <extensions>
          <ns3:TrackPointExtension>
            <ns3:atemp>19.0</ns3:atemp>
            <ns3:hr>126</ns3:hr>
          </ns3:TrackPointExtension>
        </extensions>
      </trkpt>
      <trkpt lat="-22.087254635989665985107421875" lon="166.44592680037021636962890625">
        <ele>692.79998779296875</ele>
        <time>2016-08-12T22:38:55.000Z</time>
        <extensions>
          <ns3:TrackPointExtension>
            <ns3:atemp>19.0</ns3:atemp>
            <ns3:hr>126</ns3:hr>
          </ns3:TrackPointExtension>
        </extensions>
      </trkpt>
      <trkpt lat="-22.08727265708148479461669921875" lon="166.44593845121562480926513671875">
        <ele>692.4000244140625</ele>
        <time>2016-08-12T22:38:56.000Z</time>
        <extensions>
          <ns3:TrackPointExtension>
            <ns3:atemp>19.0</ns3:atemp>
            <ns3:hr>126</ns3:hr>
          </ns3:TrackPointExtension>
        </extensions>
      </trkpt>
      <trkpt lat="-22.087291516363620758056640625" lon="166.44594733603298664093017578125">
        <ele>692.20001220703125</ele>
        <time>2016-08-12T22:38:57.000Z</time>
        <extensions>
          <ns3:TrackPointExtension>
            <ns3:atemp>19.0</ns3:atemp>
            <ns3:hr>126</ns3:hr>
          </ns3:TrackPointExtension>
        </extensions>
      </trkpt>
      <trkpt lat="-22.08731305785477161407470703125" lon="166.4459578134119510650634765625">
        <ele>692.20001220703125</ele>
        <time>2016-08-12T22:38:58.000Z</time>
        <extensions>
          <ns3:TrackPointExtension>
            <ns3:atemp>19.0</ns3:atemp>
            <ns3:hr>126</ns3:hr>
          </ns3:TrackPointExtension>
        </extensions>
      </trkpt>
      <trkpt lat="-22.08733233623206615447998046875" lon="166.44597348757088184356689453125">
        <ele>692</ele>
        <time>2016-08-12T22:38:59.000Z</time>
        <extensions>
          <ns3:TrackPointExtension>
            <ns3:atemp>19.0</ns3:atemp>
            <ns3:hr>126</ns3:hr>
          </ns3:TrackPointExtension>
        </extensions>
      </trkpt>
      <trkpt lat="-22.08735044114291667938232421875" lon="166.44598673097789287567138671875">
        <ele>691.79998779296875</ele>
        <time>2016-08-12T22:39:00.000Z</time>
        <extensions>
          <ns3:TrackPointExtension>
            <ns3:atemp>19.0</ns3:atemp>
            <ns3:hr>126</ns3:hr>
          </ns3:TrackPointExtension>
        </extensions>
      </trkpt>
      <trkpt lat="-22.08736963570117950439453125" lon="166.44599745981395244598388671875">
        <ele>691.5999755859375</ele>
        <time>2016-08-12T22:39:01.000Z</time>
        <extensions>
          <ns3:TrackPointExtension>
            <ns3:atemp>19.0</ns3:atemp>
            <ns3:hr>126</ns3:hr>
          </ns3:TrackPointExtension>
        </extensions>
      </trkpt>
      <trkpt lat="-22.08738748915493488311767578125" lon="166.4460168220102787017822265625">
        <ele>691.4000244140625</ele>
        <time>2016-08-12T22:39:02.000Z</time>
        <extensions>
          <ns3:TrackPointExtension>
            <ns3:atemp>19.0</ns3:atemp>
            <ns3:hr>126</ns3:hr>
          </ns3:TrackPointExtension>
        </extensions>
      </trkpt>
      <trkpt lat="-22.0874040015041828155517578125" lon="166.44602847285568714141845703125">
        <ele>691.4000244140625</ele>
        <time>2016-08-12T22:39:03.000Z</time>
        <extensions>
          <ns3:TrackPointExtension>
            <ns3:atemp>19.0</ns3:atemp>
            <ns3:hr>126</ns3:hr>
          </ns3:TrackPointExtension>
        </extensions>
      </trkpt>
      <trkpt lat="-22.087425291538238525390625" lon="166.446045823395252227783203125">
        <ele>691.4000244140625</ele>
        <time>2016-08-12T22:39:04.000Z</time>
        <extensions>
          <ns3:TrackPointExtension>
            <ns3:atemp>19.0</ns3:atemp>
            <ns3:hr>126</ns3:hr>
          </ns3:TrackPointExtension>
        </extensions>
      </trkpt>
      <trkpt lat="-22.08744280971586704254150390625" lon="166.4460597373545169830322265625">
        <ele>691.20001220703125</ele>
        <time>2016-08-12T22:39:05.000Z</time>
        <extensions>
          <ns3:TrackPointExtension>
            <ns3:atemp>19.0</ns3:atemp>
            <ns3:hr>127</ns3:hr>
          </ns3:TrackPointExtension>
        </extensions>
      </trkpt>
      <trkpt lat="-22.08745588548481464385986328125" lon="166.44607105292379856109619140625">
        <ele>691.20001220703125</ele>
        <time>2016-08-12T22:39:06.000Z</time>
        <extensions>
          <ns3:TrackPointExtension>
            <ns3:atemp>19.0</ns3:atemp>
            <ns3:hr>126</ns3:hr>
          </ns3:TrackPointExtension>
        </extensions>
      </trkpt>
      <trkpt lat="-22.08747164346277713775634765625" lon="166.4460801891982555389404296875">
        <ele>691</ele>
        <time>2016-08-12T22:39:07.000Z</time>
        <extensions>
          <ns3:TrackPointExtension>
            <ns3:atemp>19.0</ns3:atemp>
            <ns3:hr>126</ns3:hr>
          </ns3:TrackPointExtension>
        </extensions>
      </trkpt>
      <trkpt lat="-22.087485976517200469970703125" lon="166.44609251059591770172119140625">
        <ele>691</ele>
        <time>2016-08-12T22:39:08.000Z</time>
        <extensions>
          <ns3:TrackPointExtension>
            <ns3:atemp>19.0</ns3:atemp>
            <ns3:hr>126</ns3:hr>
          </ns3:TrackPointExtension>
        </extensions>
      </trkpt>
      <trkpt lat="-22.08749745972454547882080078125" lon="166.4461066760122776031494140625">
        <ele>690.79998779296875</ele>
        <time>2016-08-12T22:39:09.000Z</time>
        <extensions>
          <ns3:TrackPointExtension>
            <ns3:atemp>19.0</ns3:atemp>
            <ns3:hr>126</ns3:hr>
          </ns3:TrackPointExtension>
        </extensions>
      </trkpt>
      <trkpt lat="-22.0875139720737934112548828125" lon="166.44612260162830352783203125">
        <ele>690.5999755859375</ele>
        <time>2016-08-12T22:39:10.000Z</time>
        <extensions>
          <ns3:TrackPointExtension>
            <ns3:atemp>19.0</ns3:atemp>
            <ns3:hr>126</ns3:hr>
          </ns3:TrackPointExtension>
        </extensions>
      </trkpt>
      <trkpt lat="-22.0875297300517559051513671875" lon="166.4461358450353145599365234375">
        <ele>690.5999755859375</ele>
        <time>2016-08-12T22:39:11.000Z</time>
        <extensions>
          <ns3:TrackPointExtension>
            <ns3:atemp>19.0</ns3:atemp>
            <ns3:hr>126</ns3:hr>
          </ns3:TrackPointExtension>
        </extensions>
      </trkpt>
      <trkpt lat="-22.08754791878163814544677734375" lon="166.446145065128803253173828125">
        <ele>690.20001220703125</ele>
        <time>2016-08-12T22:39:12.000Z</time>
        <extensions>
          <ns3:TrackPointExtension>
            <ns3:atemp>19.0</ns3:atemp>
            <ns3:hr>126</ns3:hr>
          </ns3:TrackPointExtension>
        </extensions>
      </trkpt>
      <trkpt lat="-22.0875656045973300933837890625" lon="166.44615948200225830078125">
        <ele>689.5999755859375</ele>
        <time>2016-08-12T22:39:13.000Z</time>
        <extensions>
          <ns3:TrackPointExtension>
            <ns3:atemp>19.0</ns3:atemp>
            <ns3:hr>126</ns3:hr>
          </ns3:TrackPointExtension>
        </extensions>
      </trkpt>
      <trkpt lat="-22.08758379332721233367919921875" lon="166.44617096520960330963134765625">
        <ele>689.79998779296875</ele>
        <time>2016-08-12T22:39:14.000Z</time>
        <extensions>
          <ns3:TrackPointExtension>
            <ns3:atemp>19.0</ns3:atemp>
            <ns3:hr>126</ns3:hr>
          </ns3:TrackPointExtension>
        </extensions>
      </trkpt>
      <trkpt lat="-22.0876014791429042816162109375" lon="166.44618161022663116455078125">
        <ele>689.79998779296875</ele>
        <time>2016-08-12T22:39:15.000Z</time>
        <extensions>
          <ns3:TrackPointExtension>
            <ns3:atemp>19.0</ns3:atemp>
            <ns3:hr>126</ns3:hr>
          </ns3:TrackPointExtension>
        </extensions>
      </trkpt>
      <trkpt lat="-22.0876155607402324676513671875" lon="166.44618940539658069610595703125">
        <ele>689.79998779296875</ele>
        <time>2016-08-12T22:39:16.000Z</time>
        <extensions>
          <ns3:TrackPointExtension>
            <ns3:atemp>19.0</ns3:atemp>
            <ns3:hr>126</ns3:hr>
          </ns3:TrackPointExtension>
        </extensions>
      </trkpt>
      <trkpt lat="-22.0876286365091800689697265625" lon="166.44619829021394252777099609375">
        <ele>689.79998779296875</ele>
        <time>2016-08-12T22:39:17.000Z</time>
        <extensions>
          <ns3:TrackPointExtension>
            <ns3:atemp>19.0</ns3:atemp>
            <ns3:hr>126</ns3:hr>
          </ns3:TrackPointExtension>
        </extensions>
      </trkpt>
      <trkpt lat="-22.08764179609715938568115234375" lon="166.44620851613581180572509765625">
        <ele>689.79998779296875</ele>
        <time>2016-08-12T22:39:18.000Z</time>
        <extensions>
          <ns3:TrackPointExtension>
            <ns3:atemp>19.0</ns3:atemp>
            <ns3:hr>126</ns3:hr>
          </ns3:TrackPointExtension>
        </extensions>
      </trkpt>
      <trkpt lat="-22.087641544640064239501953125" lon="166.4462280459702014923095703125">
        <ele>689.4000244140625</ele>
        <time>2016-08-12T22:39:19.000Z</time>
        <extensions>
          <ns3:TrackPointExtension>
            <ns3:atemp>19.0</ns3:atemp>
            <ns3:hr>126</ns3:hr>
          </ns3:TrackPointExtension>
        </extensions>
      </trkpt>
      <trkpt lat="-22.0876480825245380401611328125" lon="166.4462495036423206329345703125">
        <ele>689.20001220703125</ele>
        <time>2016-08-12T22:39:20.000Z</time>
        <extensions>
          <ns3:TrackPointExtension>
            <ns3:atemp>19.0</ns3:atemp>
            <ns3:hr>126</ns3:hr>
          </ns3:TrackPointExtension>
        </extensions>
      </trkpt>
      <trkpt lat="-22.08766191266477108001708984375" lon="166.4462739787995815277099609375">
        <ele>689.20001220703125</ele>
        <time>2016-08-12T22:39:21.000Z</time>
        <extensions>
          <ns3:TrackPointExtension>
            <ns3:atemp>19.0</ns3:atemp>
            <ns3:hr>126</ns3:hr>
          </ns3:TrackPointExtension>
        </extensions>
      </trkpt>
      <trkpt lat="-22.0876792632043361663818359375" lon="166.4462971128523349761962890625">
        <ele>688.79998779296875</ele>
        <time>2016-08-12T22:39:22.000Z</time>
        <extensions>
          <ns3:TrackPointExtension>
            <ns3:atemp>19.0</ns3:atemp>
            <ns3:hr>127</ns3:hr>
          </ns3:TrackPointExtension>
        </extensions>
      </trkpt>
      <trkpt lat="-22.08769594319164752960205078125" lon="166.44631798379123210906982421875">
        <ele>688.5999755859375</ele>
        <time>2016-08-12T22:39:23.000Z</time>
        <extensions>
          <ns3:TrackPointExtension>
            <ns3:atemp>19.0</ns3:atemp>
            <ns3:hr>126</ns3:hr>
          </ns3:TrackPointExtension>
        </extensions>
      </trkpt>
      <trkpt lat="-22.0877109467983245849609375" lon="166.44633893854916095733642578125">
        <ele>688.20001220703125</ele>
        <time>2016-08-12T22:39:24.000Z</time>
        <extensions>
          <ns3:TrackPointExtension>
            <ns3:atemp>19.0</ns3:atemp>
            <ns3:hr>126</ns3:hr>
          </ns3:TrackPointExtension>
        </extensions>
      </trkpt>
      <trkpt lat="-22.08772477693855762481689453125" lon="166.44636089913547039031982421875">
        <ele>687.79998779296875</ele>
        <time>2016-08-12T22:39:25.000Z</time>
        <extensions>
          <ns3:TrackPointExtension>
            <ns3:atemp>19.0</ns3:atemp>
            <ns3:hr>126</ns3:hr>
          </ns3:TrackPointExtension>
        </extensions>
      </trkpt>
      <trkpt lat="-22.08773910999298095703125" lon="166.44638269208371639251708984375">
        <ele>687.5999755859375</ele>
        <time>2016-08-12T22:39:26.000Z</time>
        <extensions>
          <ns3:TrackPointExtension>
            <ns3:atemp>19.0</ns3:atemp>
            <ns3:hr>126</ns3:hr>
          </ns3:TrackPointExtension>
        </extensions>
      </trkpt>
      <trkpt lat="-22.0877624116837978363037109375" lon="166.44641362130641937255859375">
        <ele>687.4000244140625</ele>
        <time>2016-08-12T22:39:27.000Z</time>
        <extensions>
          <ns3:TrackPointExtension>
            <ns3:atemp>19.0</ns3:atemp>
            <ns3:hr>127</ns3:hr>
          </ns3:TrackPointExtension>
        </extensions>
      </trkpt>
      <trkpt lat="-22.08777867257595062255859375" lon="166.4464379288256168365478515625">
        <ele>687.4000244140625</ele>
        <time>2016-08-12T22:39:28.000Z</time>
        <extensions>
          <ns3:TrackPointExtension>
            <ns3:atemp>19.0</ns3:atemp>
            <ns3:hr>127</ns3:hr>
          </ns3:TrackPointExtension>
        </extensions>
      </trkpt>
      <trkpt lat="-22.0877945981919765472412109375" lon="166.44645947031676769256591796875">
        <ele>687.4000244140625</ele>
        <time>2016-08-12T22:39:29.000Z</time>
        <extensions>
          <ns3:TrackPointExtension>
            <ns3:atemp>19.0</ns3:atemp>
            <ns3:hr>127</ns3:hr>
          </ns3:TrackPointExtension>
        </extensions>
      </trkpt>
      <trkpt lat="-22.08781664259731769561767578125" lon="166.4464853703975677490234375">
        <ele>687</ele>
        <time>2016-08-12T22:39:30.000Z</time>
        <extensions>
          <ns3:TrackPointExtension>
            <ns3:atemp>19.0</ns3:atemp>
            <ns3:hr>127</ns3:hr>
          </ns3:TrackPointExtension>
        </extensions>
      </trkpt>
      <trkpt lat="-22.087833322584629058837890625" lon="166.44650221802294254302978515625">
        <ele>687</ele>
        <time>2016-08-12T22:39:31.000Z</time>
        <extensions>
          <ns3:TrackPointExtension>
            <ns3:atemp>19.0</ns3:atemp>
            <ns3:hr>127</ns3:hr>
          </ns3:TrackPointExtension>
        </extensions>
      </trkpt>
      <trkpt lat="-22.08784841001033782958984375" lon="166.446532309055328369140625">
        <ele>686.5999755859375</ele>
        <time>2016-08-12T22:39:32.000Z</time>
        <extensions>
          <ns3:TrackPointExtension>
            <ns3:atemp>19.0</ns3:atemp>
            <ns3:hr>127</ns3:hr>
          </ns3:TrackPointExtension>
        </extensions>
      </trkpt>
      <trkpt lat="-22.0878640003502368927001953125" lon="166.446554102003574371337890625">
        <ele>686.20001220703125</ele>
        <time>2016-08-12T22:39:33.000Z</time>
        <extensions>
          <ns3:TrackPointExtension>
            <ns3:atemp>19.0</ns3:atemp>
            <ns3:hr>127</ns3:hr>
          </ns3:TrackPointExtension>
        </extensions>
      </trkpt>
      <trkpt lat="-22.087881602346897125244140625" lon="166.44657765515148639678955078125">
        <ele>686</ele>
        <time>2016-08-12T22:39:34.000Z</time>
        <extensions>
          <ns3:TrackPointExtension>
            <ns3:atemp>19.0</ns3:atemp>
            <ns3:hr>127</ns3:hr>
          </ns3:TrackPointExtension>
        </extensions>
      </trkpt>
      <trkpt lat="-22.08789694122970104217529296875" lon="166.44660363905131816864013671875">
        <ele>685.5999755859375</ele>
        <time>2016-08-12T22:39:35.000Z</time>
        <extensions>
          <ns3:TrackPointExtension>
            <ns3:atemp>19.0</ns3:atemp>
            <ns3:hr>127</ns3:hr>
          </ns3:TrackPointExtension>
        </extensions>
      </trkpt>
      <trkpt lat="-22.08791420795023441314697265625" lon="166.44662551581859588623046875">
        <ele>685.79998779296875</ele>
        <time>2016-08-12T22:39:36.000Z</time>
        <extensions>
          <ns3:TrackPointExtension>
            <ns3:atemp>19.0</ns3:atemp>
            <ns3:hr>127</ns3:hr>
          </ns3:TrackPointExtension>
        </extensions>
      </trkpt>
      <trkpt lat="-22.08793331868946552276611328125" lon="166.44664554856717586517333984375">
        <ele>685.5999755859375</ele>
        <time>2016-08-12T22:39:37.000Z</time>
        <extensions>
          <ns3:TrackPointExtension>
            <ns3:atemp>19.0</ns3:atemp>
            <ns3:hr>126</ns3:hr>
          </ns3:TrackPointExtension>
        </extensions>
      </trkpt>
      <trkpt lat="-22.08794823847711086273193359375" lon="166.4466595463454723358154296875">
        <ele>685.5999755859375</ele>
        <time>2016-08-12T22:39:38.000Z</time>
        <extensions>
          <ns3:TrackPointExtension>
            <ns3:atemp>19.0</ns3:atemp>
            <ns3:hr>127</ns3:hr>
          </ns3:TrackPointExtension>
        </extensions>
      </trkpt>
      <trkpt lat="-22.087965421378612518310546875" lon="166.4466783218085765838623046875">
        <ele>685.4000244140625</ele>
        <time>2016-08-12T22:39:39.000Z</time>
        <extensions>
          <ns3:TrackPointExtension>
            <ns3:atemp>19.0</ns3:atemp>
            <ns3:hr>127</ns3:hr>
          </ns3:TrackPointExtension>
        </extensions>
      </trkpt>
      <trkpt lat="-22.08798998035490512847900390625" lon="166.44670170731842517852783203125">
        <ele>685.20001220703125</ele>
        <time>2016-08-12T22:39:40.000Z</time>
        <extensions>
          <ns3:TrackPointExtension>
            <ns3:atemp>19.0</ns3:atemp>
            <ns3:hr>127</ns3:hr>
          </ns3:TrackPointExtension>
        </extensions>
      </trkpt>
      <trkpt lat="-22.08800171501934528350830078125" lon="166.44672316499054431915283203125">
        <ele>684.79998779296875</ele>
        <time>2016-08-12T22:39:41.000Z</time>
        <extensions>
          <ns3:TrackPointExtension>
            <ns3:atemp>19.0</ns3:atemp>
            <ns3:hr>127</ns3:hr>
          </ns3:TrackPointExtension>
        </extensions>
      </trkpt>
      <trkpt lat="-22.0880175568163394927978515625" lon="166.44674764014780521392822265625">
        <ele>684.5999755859375</ele>
        <time>2016-08-12T22:39:42.000Z</time>
        <extensions>
          <ns3:TrackPointExtension>
            <ns3:atemp>19.0</ns3:atemp>
            <ns3:hr>127</ns3:hr>
          </ns3:TrackPointExtension>
        </extensions>
      </trkpt>
      <trkpt lat="-22.08802401088178157806396484375" lon="166.44677714444696903228759765625">
        <ele>684.4000244140625</ele>
        <time>2016-08-12T22:39:43.000Z</time>
        <extensions>
          <ns3:TrackPointExtension>
            <ns3:atemp>19.0</ns3:atemp>
            <ns3:hr>127</ns3:hr>
          </ns3:TrackPointExtension>
        </extensions>
      </trkpt>
      <trkpt lat="-22.088033817708492279052734375" lon="166.4468045532703399658203125">
        <ele>684.4000244140625</ele>
        <time>2016-08-12T22:39:44.000Z</time>
        <extensions>
          <ns3:TrackPointExtension>
            <ns3:atemp>19.0</ns3:atemp>
            <ns3:hr>127</ns3:hr>
          </ns3:TrackPointExtension>
        </extensions>
      </trkpt>
      <trkpt lat="-22.08805401809513568878173828125" lon="166.4468355663120746612548828125">
        <ele>684.4000244140625</ele>
        <time>2016-08-12T22:39:45.000Z</time>
        <extensions>
          <ns3:TrackPointExtension>
            <ns3:atemp>19.0</ns3:atemp>
            <ns3:hr>127</ns3:hr>
          </ns3:TrackPointExtension>
        </extensions>
      </trkpt>
      <trkpt lat="-22.08807329647243022918701171875" lon="166.44686699844896793365478515625">
        <ele>684.5999755859375</ele>
        <time>2016-08-12T22:39:46.000Z</time>
        <extensions>
          <ns3:TrackPointExtension>
            <ns3:atemp>19.0</ns3:atemp>
            <ns3:hr>127</ns3:hr>
          </ns3:TrackPointExtension>
        </extensions>
      </trkpt>
      <trkpt lat="-22.08807899616658687591552734375" lon="166.4468895457684993743896484375">
        <ele>684.4000244140625</ele>
        <time>2016-08-12T22:39:47.000Z</time>
        <extensions>
          <ns3:TrackPointExtension>
            <ns3:atemp>19.0</ns3:atemp>
            <ns3:hr>127</ns3:hr>
          </ns3:TrackPointExtension>
        </extensions>
      </trkpt>
      <trkpt lat="-22.088089473545551300048828125" lon="166.446912847459316253662109375">
        <ele>684.4000244140625</ele>
        <time>2016-08-12T22:39:48.000Z</time>
        <extensions>
          <ns3:TrackPointExtension>
            <ns3:atemp>19.0</ns3:atemp>
            <ns3:hr>128</ns3:hr>
          </ns3:TrackPointExtension>
        </extensions>
      </trkpt>
      <trkpt lat="-22.088103555142879486083984375" lon="166.44693623296916484832763671875">
        <ele>684.5999755859375</ele>
        <time>2016-08-12T22:39:49.000Z</time>
        <extensions>
          <ns3:TrackPointExtension>
            <ns3:atemp>19.0</ns3:atemp>
            <ns3:hr>128</ns3:hr>
          </ns3:TrackPointExtension>
        </extensions>
      </trkpt>
      <trkpt lat="-22.0881131105124950408935546875" lon="166.44695534370839595794677734375">
        <ele>684.5999755859375</ele>
        <time>2016-08-12T22:39:50.000Z</time>
        <extensions>
          <ns3:TrackPointExtension>
            <ns3:atemp>19.0</ns3:atemp>
            <ns3:hr>128</ns3:hr>
          </ns3:TrackPointExtension>
        </extensions>
      </trkpt>
      <trkpt lat="-22.0881228335201740264892578125" lon="166.44696414470672607421875">
        <ele>684.5999755859375</ele>
        <time>2016-08-12T22:39:51.000Z</time>
        <extensions>
          <ns3:TrackPointExtension>
            <ns3:atemp>19.0</ns3:atemp>
            <ns3:hr>128</ns3:hr>
          </ns3:TrackPointExtension>
        </extensions>
      </trkpt>
      <trkpt lat="-22.08813465200364589691162109375" lon="166.44698082469403743743896484375">
        <ele>684.5999755859375</ele>
        <time>2016-08-12T22:39:52.000Z</time>
        <extensions>
          <ns3:TrackPointExtension>
            <ns3:atemp>19.0</ns3:atemp>
            <ns3:hr>128</ns3:hr>
          </ns3:TrackPointExtension>
        </extensions>
      </trkpt>
      <trkpt lat="-22.08814990706741809844970703125" lon="166.44699574448168277740478515625">
        <ele>684.5999755859375</ele>
        <time>2016-08-12T22:39:53.000Z</time>
        <extensions>
          <ns3:TrackPointExtension>
            <ns3:atemp>19.0</ns3:atemp>
            <ns3:hr>128</ns3:hr>
          </ns3:TrackPointExtension>
        </extensions>
      </trkpt>
      <trkpt lat="-22.0881694369018077850341796875" lon="166.44701334647834300994873046875">
        <ele>684.5999755859375</ele>
        <time>2016-08-12T22:39:54.000Z</time>
        <extensions>
          <ns3:TrackPointExtension>
            <ns3:atemp>19.0</ns3:atemp>
            <ns3:hr>128</ns3:hr>
          </ns3:TrackPointExtension>
        </extensions>
      </trkpt>
      <trkpt lat="-22.08818594925105571746826171875" lon="166.4470249973237514495849609375">
        <ele>684.79998779296875</ele>
        <time>2016-08-12T22:39:55.000Z</time>
        <extensions>
          <ns3:TrackPointExtension>
            <ns3:atemp>19.0</ns3:atemp>
            <ns3:hr>128</ns3:hr>
          </ns3:TrackPointExtension>
        </extensions>
      </trkpt>
      <trkpt lat="-22.08820707164704799652099609375" lon="166.44703245721757411956787109375">
        <ele>684.79998779296875</ele>
        <time>2016-08-12T22:39:56.000Z</time>
        <extensions>
          <ns3:TrackPointExtension>
            <ns3:atemp>19.0</ns3:atemp>
            <ns3:hr>128</ns3:hr>
          </ns3:TrackPointExtension>
        </extensions>
      </trkpt>
      <trkpt lat="-22.08822081796824932098388671875" lon="166.44703580997884273529052734375">
        <ele>684.5999755859375</ele>
        <time>2016-08-12T22:39:57.000Z</time>
        <extensions>
          <ns3:TrackPointExtension>
            <ns3:atemp>19.0</ns3:atemp>
            <ns3:hr>128</ns3:hr>
          </ns3:TrackPointExtension>
        </extensions>
      </trkpt>
      <trkpt lat="-22.08823054097592830657958984375" lon="166.44704486243426799774169921875">
        <ele>684.4000244140625</ele>
        <time>2016-08-12T22:39:58.000Z</time>
        <extensions>
          <ns3:TrackPointExtension>
            <ns3:atemp>19.0</ns3:atemp>
            <ns3:hr>128</ns3:hr>
          </ns3:TrackPointExtension>
        </extensions>
      </trkpt>
      <trkpt lat="-22.08824269473552703857421875" lon="166.4470591954886913299560546875">
        <ele>684.4000244140625</ele>
        <time>2016-08-12T22:39:59.000Z</time>
        <extensions>
          <ns3:TrackPointExtension>
            <ns3:atemp>19.0</ns3:atemp>
            <ns3:hr>129</ns3:hr>
          </ns3:TrackPointExtension>
        </extensions>
      </trkpt>
      <trkpt lat="-22.0882606320083141326904296875" lon="166.4470752887427806854248046875">
        <ele>684.20001220703125</ele>
        <time>2016-08-12T22:40:00.000Z</time>
        <extensions>
          <ns3:TrackPointExtension>
            <ns3:atemp>19.0</ns3:atemp>
            <ns3:hr>128</ns3:hr>
          </ns3:TrackPointExtension>
        </extensions>
      </trkpt>
      <trkpt lat="-22.0882807485759258270263671875" lon="166.44708844833076000213623046875">
        <ele>684.20001220703125</ele>
        <time>2016-08-12T22:40:01.000Z</time>
        <extensions>
          <ns3:TrackPointExtension>
            <ns3:atemp>19.0</ns3:atemp>
            <ns3:hr>128</ns3:hr>
          </ns3:TrackPointExtension>
        </extensions>
      </trkpt>
      <trkpt lat="-22.0883038826286792755126953125" lon="166.4471034519374370574951171875">
        <ele>683.79998779296875</ele>
        <time>2016-08-12T22:40:02.000Z</time>
        <extensions>
          <ns3:TrackPointExtension>
            <ns3:atemp>19.0</ns3:atemp>
            <ns3:hr>129</ns3:hr>
          </ns3:TrackPointExtension>
        </extensions>
      </trkpt>
      <trkpt lat="-22.0883320458233356475830078125" lon="166.44712214358150959014892578125">
        <ele>683.5999755859375</ele>
        <time>2016-08-12T22:40:03.000Z</time>
        <extensions>
          <ns3:TrackPointExtension>
            <ns3:atemp>19.0</ns3:atemp>
            <ns3:hr>129</ns3:hr>
          </ns3:TrackPointExtension>
        </extensions>
      </trkpt>
      <trkpt lat="-22.0883742906153202056884765625" lon="166.4471493847668170928955078125">
        <ele>683.20001220703125</ele>
        <time>2016-08-12T22:40:04.000Z</time>
        <extensions>
          <ns3:TrackPointExtension>
            <ns3:atemp>19.0</ns3:atemp>
            <ns3:hr>129</ns3:hr>
          </ns3:TrackPointExtension>
        </extensions>
      </trkpt>
      <trkpt lat="-22.08840630948543548583984375" lon="166.447171010076999664306640625">
        <ele>682.5999755859375</ele>
        <time>2016-08-12T22:40:05.000Z</time>
        <extensions>
          <ns3:TrackPointExtension>
            <ns3:atemp>19.0</ns3:atemp>
            <ns3:hr>129</ns3:hr>
          </ns3:TrackPointExtension>
        </extensions>
      </trkpt>
      <trkpt lat="-22.088420055806636810302734375" lon="166.447192132472991943359375">
        <ele>681.79998779296875</ele>
        <time>2016-08-12T22:40:06.000Z</time>
        <extensions>
          <ns3:TrackPointExtension>
            <ns3:atemp>19.0</ns3:atemp>
            <ns3:hr>128</ns3:hr>
          </ns3:TrackPointExtension>
        </extensions>
      </trkpt>
      <trkpt lat="-22.08843849599361419677734375" lon="166.44721400924026966094970703125">
        <ele>681.4000244140625</ele>
        <time>2016-08-12T22:40:07.000Z</time>
        <extensions>
          <ns3:TrackPointExtension>
            <ns3:atemp>19.0</ns3:atemp>
            <ns3:hr>129</ns3:hr>
          </ns3:TrackPointExtension>
        </extensions>
      </trkpt>
      <trkpt lat="-22.0884537510573863983154296875" lon="166.44723714329302310943603515625">
        <ele>681.20001220703125</ele>
        <time>2016-08-12T22:40:08.000Z</time>
        <extensions>
          <ns3:TrackPointExtension>
            <ns3:atemp>19.0</ns3:atemp>
            <ns3:hr>129</ns3:hr>
          </ns3:TrackPointExtension>
        </extensions>
      </trkpt>
      <trkpt lat="-22.0884658209979534149169921875" lon="166.447259522974491119384765625">
        <ele>681</ele>
        <time>2016-08-12T22:40:09.000Z</time>
        <extensions>
          <ns3:TrackPointExtension>
            <ns3:atemp>19.0</ns3:atemp>
            <ns3:hr>129</ns3:hr>
          </ns3:TrackPointExtension>
        </extensions>
      </trkpt>
      <trkpt lat="-22.0884711854159832000732421875" lon="166.44727972336113452911376953125">
        <ele>681</ele>
        <time>2016-08-12T22:40:10.000Z</time>
        <extensions>
          <ns3:TrackPointExtension>
            <ns3:atemp>19.0</ns3:atemp>
            <ns3:hr>129</ns3:hr>
          </ns3:TrackPointExtension>
        </extensions>
      </trkpt>
      <trkpt lat="-22.0884782262146472930908203125" lon="166.44730704836547374725341796875">
        <ele>681</ele>
        <time>2016-08-12T22:40:11.000Z</time>
        <extensions>
          <ns3:TrackPointExtension>
            <ns3:atemp>19.0</ns3:atemp>
            <ns3:hr>129</ns3:hr>
          </ns3:TrackPointExtension>
        </extensions>
      </trkpt>
      <trkpt lat="-22.0884802378714084625244140625" lon="166.44733319990336894989013671875">
        <ele>681</ele>
        <time>2016-08-12T22:40:12.000Z</time>
        <extensions>
          <ns3:TrackPointExtension>
            <ns3:atemp>19.0</ns3:atemp>
            <ns3:hr>129</ns3:hr>
          </ns3:TrackPointExtension>
        </extensions>
      </trkpt>
      <trkpt lat="-22.08848216570913791656494140625" lon="166.447358764708042144775390625">
        <ele>681</ele>
        <time>2016-08-12T22:40:13.000Z</time>
        <extensions>
          <ns3:TrackPointExtension>
            <ns3:atemp>19.0</ns3:atemp>
            <ns3:hr>128</ns3:hr>
          </ns3:TrackPointExtension>
        </extensions>
      </trkpt>
      <trkpt lat="-22.08848568610846996307373046875" lon="166.44738717935979366302490234375">
        <ele>681</ele>
        <time>2016-08-12T22:40:14.000Z</time>
        <extensions>
          <ns3:TrackPointExtension>
            <ns3:atemp>19.0</ns3:atemp>
            <ns3:hr>129</ns3:hr>
          </ns3:TrackPointExtension>
        </extensions>
      </trkpt>
      <trkpt lat="-22.0884936489164829254150390625" lon="166.44741802476346492767333984375">
        <ele>680.5999755859375</ele>
        <time>2016-08-12T22:40:15.000Z</time>
        <extensions>
          <ns3:TrackPointExtension>
            <ns3:atemp>19.0</ns3:atemp>
            <ns3:hr>128</ns3:hr>
          </ns3:TrackPointExtension>
        </extensions>
      </trkpt>
      <trkpt lat="-22.08850127644836902618408203125" lon="166.44744400866329669952392578125">
        <ele>680.20001220703125</ele>
        <time>2016-08-12T22:40:16.000Z</time>
        <extensions>
          <ns3:TrackPointExtension>
            <ns3:atemp>19.0</ns3:atemp>
            <ns3:hr>128</ns3:hr>
          </ns3:TrackPointExtension>
        </extensions>
      </trkpt>
      <trkpt lat="-22.08850312046706676483154296875" lon="166.44747183658182621002197265625">
        <ele>680.20001220703125</ele>
        <time>2016-08-12T22:40:17.000Z</time>
        <extensions>
          <ns3:TrackPointExtension>
            <ns3:atemp>19.0</ns3:atemp>
            <ns3:hr>128</ns3:hr>
          </ns3:TrackPointExtension>
        </extensions>
      </trkpt>
      <trkpt lat="-22.0885021984577178955078125" lon="166.44749463535845279693603515625">
        <ele>680</ele>
        <time>2016-08-12T22:40:18.000Z</time>
        <extensions>
          <ns3:TrackPointExtension>
            <ns3:atemp>19.0</ns3:atemp>
            <ns3:hr>128</ns3:hr>
          </ns3:TrackPointExtension>
        </extensions>
      </trkpt>
      <trkpt lat="-22.08849490620195865631103515625" lon="166.44751743413507938385009765625">
        <ele>680</ele>
        <time>2016-08-12T22:40:19.000Z</time>
        <extensions>
          <ns3:TrackPointExtension>
            <ns3:atemp>19.0</ns3:atemp>
            <ns3:hr>128</ns3:hr>
          </ns3:TrackPointExtension>
        </extensions>
      </trkpt>
      <trkpt lat="-22.088494487106800079345703125" lon="166.44753654487431049346923828125">
        <ele>680</ele>
        <time>2016-08-12T22:40:20.000Z</time>
        <extensions>
          <ns3:TrackPointExtension>
            <ns3:atemp>19.0</ns3:atemp>
            <ns3:hr>128</ns3:hr>
          </ns3:TrackPointExtension>
        </extensions>
      </trkpt>
      <trkpt lat="-22.0884993486106395721435546875" lon="166.44755649380385875701904296875">
        <ele>680</ele>
        <time>2016-08-12T22:40:21.000Z</time>
        <extensions>
          <ns3:TrackPointExtension>
            <ns3:atemp>19.0</ns3:atemp>
            <ns3:hr>128</ns3:hr>
          </ns3:TrackPointExtension>
        </extensions>
      </trkpt>
      <trkpt lat="-22.08849825896322727203369140625" lon="166.4475798793137073516845703125">
        <ele>679.79998779296875</ele>
        <time>2016-08-12T22:40:22.000Z</time>
        <extensions>
          <ns3:TrackPointExtension>
            <ns3:atemp>19.0</ns3:atemp>
            <ns3:hr>128</ns3:hr>
          </ns3:TrackPointExtension>
        </extensions>
      </trkpt>
      <trkpt lat="-22.08849616348743438720703125" lon="166.447606869041919708251953125">
        <ele>679.79998779296875</ele>
        <time>2016-08-12T22:40:23.000Z</time>
        <extensions>
          <ns3:TrackPointExtension>
            <ns3:atemp>19.0</ns3:atemp>
            <ns3:hr>128</ns3:hr>
          </ns3:TrackPointExtension>
        </extensions>
      </trkpt>
      <trkpt lat="-22.08847831003367900848388671875" lon="166.4476486109197139739990234375">
        <ele>679.5999755859375</ele>
        <time>2016-08-12T22:40:24.000Z</time>
        <extensions>
          <ns3:TrackPointExtension>
            <ns3:atemp>19.0</ns3:atemp>
            <ns3:hr>128</ns3:hr>
          </ns3:TrackPointExtension>
        </extensions>
      </trkpt>
      <trkpt lat="-22.0884748734533786773681640625" lon="166.44767702557146549224853515625">
        <ele>679.4000244140625</ele>
        <time>2016-08-12T22:40:25.000Z</time>
        <extensions>
          <ns3:TrackPointExtension>
            <ns3:atemp>19.0</ns3:atemp>
            <ns3:hr>127</ns3:hr>
          </ns3:TrackPointExtension>
        </extensions>
      </trkpt>
      <trkpt lat="-22.08847210742533206939697265625" lon="166.44770535640418529510498046875">
        <ele>679.4000244140625</ele>
        <time>2016-08-12T22:40:26.000Z</time>
        <extensions>
          <ns3:TrackPointExtension>
            <ns3:atemp>19.0</ns3:atemp>
            <ns3:hr>127</ns3:hr>
          </ns3:TrackPointExtension>
        </extensions>
      </trkpt>
      <trkpt lat="-22.0884671621024608612060546875" lon="166.44773519597947597503662109375">
        <ele>679</ele>
        <time>2016-08-12T22:40:27.000Z</time>
        <extensions>
          <ns3:TrackPointExtension>
            <ns3:atemp>19.0</ns3:atemp>
            <ns3:hr>127</ns3:hr>
          </ns3:TrackPointExtension>
        </extensions>
      </trkpt>
      <trkpt lat="-22.0884681679308414459228515625" lon="166.4477709867060184478759765625">
        <ele>678.79998779296875</ele>
        <time>2016-08-12T22:40:28.000Z</time>
        <extensions>
          <ns3:TrackPointExtension>
            <ns3:atemp>19.0</ns3:atemp>
            <ns3:hr>127</ns3:hr>
          </ns3:TrackPointExtension>
        </extensions>
      </trkpt>
      <trkpt lat="-22.08848032169044017791748046875" lon="166.447812058031558990478515625">
        <ele>678.5999755859375</ele>
        <time>2016-08-12T22:40:29.000Z</time>
        <extensions>
          <ns3:TrackPointExtension>
            <ns3:atemp>19.0</ns3:atemp>
            <ns3:hr>127</ns3:hr>
          </ns3:TrackPointExtension>
        </extensions>
      </trkpt>
      <trkpt lat="-22.08848543465137481689453125" lon="166.4478397183120250701904296875">
        <ele>678.20001220703125</ele>
        <time>2016-08-12T22:40:30.000Z</time>
        <extensions>
          <ns3:TrackPointExtension>
            <ns3:atemp>19.0</ns3:atemp>
            <ns3:hr>127</ns3:hr>
          </ns3:TrackPointExtension>
        </extensions>
      </trkpt>
      <trkpt lat="-22.08848183043301105499267578125" lon="166.4478527940809726715087890625">
        <ele>678</ele>
        <time>2016-08-12T22:40:31.000Z</time>
        <extensions>
          <ns3:TrackPointExtension>
            <ns3:atemp>19.0</ns3:atemp>
            <ns3:hr>127</ns3:hr>
          </ns3:TrackPointExtension>
        </extensions>
      </trkpt>
      <trkpt lat="-22.0884807407855987548828125" lon="166.447877772152423858642578125">
        <ele>678</ele>
        <time>2016-08-12T22:40:32.000Z</time>
        <extensions>
          <ns3:TrackPointExtension>
            <ns3:atemp>19.0</ns3:atemp>
            <ns3:hr>127</ns3:hr>
          </ns3:TrackPointExtension>
        </extensions>
      </trkpt>
      <trkpt lat="-22.0884859375655651092529296875" lon="166.4479064382612705230712890625">
        <ele>678</ele>
        <time>2016-08-12T22:40:33.000Z</time>
        <extensions>
          <ns3:TrackPointExtension>
            <ns3:atemp>19.0</ns3:atemp>
            <ns3:hr>127</ns3:hr>
          </ns3:TrackPointExtension>
        </extensions>
      </trkpt>
      <trkpt lat="-22.0884936489164829254150390625" lon="166.44793485291302204132080078125">
        <ele>678</ele>
        <time>2016-08-12T22:40:34.000Z</time>
        <extensions>
          <ns3:TrackPointExtension>
            <ns3:atemp>19.0</ns3:atemp>
            <ns3:hr>126</ns3:hr>
          </ns3:TrackPointExtension>
        </extensions>
      </trkpt>
      <trkpt lat="-22.0885063894093036651611328125" lon="166.44796368665993213653564453125">
        <ele>677.5999755859375</ele>
        <time>2016-08-12T22:40:35.000Z</time>
        <extensions>
          <ns3:TrackPointExtension>
            <ns3:atemp>19.0</ns3:atemp>
            <ns3:hr>126</ns3:hr>
          </ns3:TrackPointExtension>
        </extensions>
      </trkpt>
      <trkpt lat="-22.088514268398284912109375" lon="166.447984389960765838623046875">
        <ele>677.4000244140625</ele>
        <time>2016-08-12T22:40:36.000Z</time>
        <extensions>
          <ns3:TrackPointExtension>
            <ns3:atemp>19.0</ns3:atemp>
            <ns3:hr>126</ns3:hr>
          </ns3:TrackPointExtension>
        </extensions>
      </trkpt>
      <trkpt lat="-22.08852390758693218231201171875" lon="166.448001824319362640380859375">
        <ele>677.20001220703125</ele>
        <time>2016-08-12T22:40:37.000Z</time>
        <extensions>
          <ns3:TrackPointExtension>
            <ns3:atemp>19.0</ns3:atemp>
            <ns3:hr>126</ns3:hr>
          </ns3:TrackPointExtension>
        </extensions>
      </trkpt>
      <trkpt lat="-22.08853363059461116790771484375" lon="166.44802118651568889617919921875">
        <ele>677.20001220703125</ele>
        <time>2016-08-12T22:40:38.000Z</time>
        <extensions>
          <ns3:TrackPointExtension>
            <ns3:atemp>19.0</ns3:atemp>
            <ns3:hr>126</ns3:hr>
          </ns3:TrackPointExtension>
        </extensions>
      </trkpt>
      <trkpt lat="-22.0885422639548778533935546875" lon="166.448039710521697998046875">
        <ele>677.20001220703125</ele>
        <time>2016-08-12T22:40:39.000Z</time>
        <extensions>
          <ns3:TrackPointExtension>
            <ns3:atemp>19.0</ns3:atemp>
            <ns3:hr>126</ns3:hr>
          </ns3:TrackPointExtension>
        </extensions>
      </trkpt>
      <trkpt lat="-22.08855492062866687774658203125" lon="166.44806058146059513092041015625">
        <ele>676.79998779296875</ele>
        <time>2016-08-12T22:40:40.000Z</time>
        <extensions>
          <ns3:TrackPointExtension>
            <ns3:atemp>19.0</ns3:atemp>
            <ns3:hr>126</ns3:hr>
          </ns3:TrackPointExtension>
        </extensions>
      </trkpt>
      <trkpt lat="-22.0885612070560455322265625" lon="166.4480839669704437255859375">
        <ele>676.5999755859375</ele>
        <time>2016-08-12T22:40:41.000Z</time>
        <extensions>
          <ns3:TrackPointExtension>
            <ns3:atemp>19.0</ns3:atemp>
            <ns3:hr>126</ns3:hr>
          </ns3:TrackPointExtension>
        </extensions>
      </trkpt>
      <trkpt lat="-22.08857520483434200286865234375" lon="166.44810835830867290496826171875">
        <ele>676.20001220703125</ele>
        <time>2016-08-12T22:40:42.000Z</time>
        <extensions>
          <ns3:TrackPointExtension>
            <ns3:atemp>19.0</ns3:atemp>
            <ns3:hr>126</ns3:hr>
          </ns3:TrackPointExtension>
        </extensions>
      </trkpt>
      <trkpt lat="-22.088592387735843658447265625" lon="166.44813786260783672332763671875">
        <ele>675.5999755859375</ele>
        <time>2016-08-12T22:40:43.000Z</time>
        <extensions>
          <ns3:TrackPointExtension>
            <ns3:atemp>19.0</ns3:atemp>
            <ns3:hr>126</ns3:hr>
          </ns3:TrackPointExtension>
        </extensions>
      </trkpt>
      <trkpt lat="-22.08861174993216991424560546875" lon="166.44816451705992221832275390625">
        <ele>675.20001220703125</ele>
        <time>2016-08-12T22:40:44.000Z</time>
        <extensions>
          <ns3:TrackPointExtension>
            <ns3:atemp>19.0</ns3:atemp>
            <ns3:hr>126</ns3:hr>
          </ns3:TrackPointExtension>
        </extensions>
      </trkpt>
      <trkpt lat="-22.08863069303333759307861328125" lon="166.44818949513137340545654296875">
        <ele>674.79998779296875</ele>
        <time>2016-08-12T22:40:45.000Z</time>
        <extensions>
          <ns3:TrackPointExtension>
            <ns3:atemp>19.0</ns3:atemp>
            <ns3:hr>126</ns3:hr>
          </ns3:TrackPointExtension>
        </extensions>
      </trkpt>
      <trkpt lat="-22.08865215070545673370361328125" lon="166.4482125453650951385498046875">
        <ele>674.5999755859375</ele>
        <time>2016-08-12T22:40:46.000Z</time>
        <extensions>
          <ns3:TrackPointExtension>
            <ns3:atemp>19.0</ns3:atemp>
            <ns3:hr>126</ns3:hr>
          </ns3:TrackPointExtension>
        </extensions>
      </trkpt>
      <trkpt lat="-22.08867293782532215118408203125" lon="166.44823039881885051727294921875">
        <ele>674.4000244140625</ele>
        <time>2016-08-12T22:40:47.000Z</time>
        <extensions>
          <ns3:TrackPointExtension>
            <ns3:atemp>19.0</ns3:atemp>
            <ns3:hr>126</ns3:hr>
          </ns3:TrackPointExtension>
        </extensions>
      </trkpt>
      <trkpt lat="-22.08868869580328464508056640625" lon="166.448250599205493927001953125">
        <ele>674.4000244140625</ele>
        <time>2016-08-12T22:40:48.000Z</time>
        <extensions>
          <ns3:TrackPointExtension>
            <ns3:atemp>19.0</ns3:atemp>
            <ns3:hr>126</ns3:hr>
          </ns3:TrackPointExtension>
        </extensions>
      </trkpt>
      <trkpt lat="-22.08870395086705684661865234375" lon="166.448277421295642852783203125">
        <ele>674.20001220703125</ele>
        <time>2016-08-12T22:40:49.000Z</time>
        <extensions>
          <ns3:TrackPointExtension>
            <ns3:atemp>19.0</ns3:atemp>
            <ns3:hr>126</ns3:hr>
          </ns3:TrackPointExtension>
        </extensions>
      </trkpt>
      <trkpt lat="-22.088719792664051055908203125" lon="166.4483020640909671783447265625">
        <ele>674</ele>
        <time>2016-08-12T22:40:50.000Z</time>
        <extensions>
          <ns3:TrackPointExtension>
            <ns3:atemp>19.0</ns3:atemp>
            <ns3:hr>126</ns3:hr>
          </ns3:TrackPointExtension>
        </extensions>
      </trkpt>
      <trkpt lat="-22.08873429335653781890869140625" lon="166.4483258686959743499755859375">
        <ele>674</ele>
        <time>2016-08-12T22:40:51.000Z</time>
        <extensions>
          <ns3:TrackPointExtension>
            <ns3:atemp>19.0</ns3:atemp>
            <ns3:hr>125</ns3:hr>
          </ns3:TrackPointExtension>
        </extensions>
      </trkpt>
      <trkpt lat="-22.08874837495386600494384765625" lon="166.4483521878719329833984375">
        <ele>673.5999755859375</ele>
        <time>2016-08-12T22:40:52.000Z</time>
        <extensions>
          <ns3:TrackPointExtension>
            <ns3:atemp>19.0</ns3:atemp>
            <ns3:hr>126</ns3:hr>
          </ns3:TrackPointExtension>
        </extensions>
      </trkpt>
      <trkpt lat="-22.088765390217304229736328125" lon="166.44837431609630584716796875">
        <ele>673.4000244140625</ele>
        <time>2016-08-12T22:40:53.000Z</time>
        <extensions>
          <ns3:TrackPointExtension>
            <ns3:atemp>19.0</ns3:atemp>
            <ns3:hr>126</ns3:hr>
          </ns3:TrackPointExtension>
        </extensions>
      </trkpt>
      <trkpt lat="-22.08878173492848873138427734375" lon="166.44839351065456867218017578125">
        <ele>673.4000244140625</ele>
        <time>2016-08-12T22:40:54.000Z</time>
        <extensions>
          <ns3:TrackPointExtension>
            <ns3:atemp>19.0</ns3:atemp>
            <ns3:hr>125</ns3:hr>
          </ns3:TrackPointExtension>
        </extensions>
      </trkpt>
      <trkpt lat="-22.08880168385803699493408203125" lon="166.44841128028929233551025390625">
        <ele>673.20001220703125</ele>
        <time>2016-08-12T22:40:55.000Z</time>
        <extensions>
          <ns3:TrackPointExtension>
            <ns3:atemp>19.0</ns3:atemp>
            <ns3:hr>125</ns3:hr>
          </ns3:TrackPointExtension>
        </extensions>
      </trkpt>
      <trkpt lat="-22.08882012404501438140869140625" lon="166.4484301395714282989501953125">
        <ele>673.20001220703125</ele>
        <time>2016-08-12T22:40:56.000Z</time>
        <extensions>
          <ns3:TrackPointExtension>
            <ns3:atemp>19.0</ns3:atemp>
            <ns3:hr>125</ns3:hr>
          </ns3:TrackPointExtension>
        </extensions>
      </trkpt>
      <trkpt lat="-22.0888366363942623138427734375" lon="166.44844514317810535430908203125">
        <ele>673.20001220703125</ele>
        <time>2016-08-12T22:40:57.000Z</time>
        <extensions>
          <ns3:TrackPointExtension>
            <ns3:atemp>19.0</ns3:atemp>
            <ns3:hr>125</ns3:hr>
          </ns3:TrackPointExtension>
        </extensions>
      </trkpt>
      <trkpt lat="-22.0888590998947620391845703125" lon="166.44845134578645229339599609375">
        <ele>673.20001220703125</ele>
        <time>2016-08-12T22:40:58.000Z</time>
        <extensions>
          <ns3:TrackPointExtension>
            <ns3:atemp>19.0</ns3:atemp>
            <ns3:hr>125</ns3:hr>
          </ns3:TrackPointExtension>
        </extensions>
      </trkpt>
      <trkpt lat="-22.0888777077198028564453125" lon="166.44845905713737010955810546875">
        <ele>673.20001220703125</ele>
        <time>2016-08-12T22:40:59.000Z</time>
        <extensions>
          <ns3:TrackPointExtension>
            <ns3:atemp>19.0</ns3:atemp>
            <ns3:hr>125</ns3:hr>
          </ns3:TrackPointExtension>
        </extensions>
      </trkpt>
      <trkpt lat="-22.08889740519225597381591796875" lon="166.4484723843634128570556640625">
        <ele>672.79998779296875</ele>
        <time>2016-08-12T22:41:00.000Z</time>
        <extensions>
          <ns3:TrackPointExtension>
            <ns3:atemp>19.0</ns3:atemp>
            <ns3:hr>125</ns3:hr>
          </ns3:TrackPointExtension>
        </extensions>
      </trkpt>
      <trkpt lat="-22.08891785703599452972412109375" lon="166.4484918303787708282470703125">
        <ele>672.5999755859375</ele>
        <time>2016-08-12T22:41:01.000Z</time>
        <extensions>
          <ns3:TrackPointExtension>
            <ns3:atemp>19.0</ns3:atemp>
            <ns3:hr>125</ns3:hr>
          </ns3:TrackPointExtension>
        </extensions>
      </trkpt>
      <trkpt lat="-22.08893126808106899261474609375" lon="166.4485065825283527374267578125">
        <ele>672.79998779296875</ele>
        <time>2016-08-12T22:41:02.000Z</time>
        <extensions>
          <ns3:TrackPointExtension>
            <ns3:atemp>19.0</ns3:atemp>
            <ns3:hr>125</ns3:hr>
          </ns3:TrackPointExtension>
        </extensions>
      </trkpt>
      <trkpt lat="-22.08893738687038421630859375" lon="166.44852125085890293121337890625">
        <ele>672.79998779296875</ele>
        <time>2016-08-12T22:41:03.000Z</time>
        <extensions>
          <ns3:TrackPointExtension>
            <ns3:atemp>19.0</ns3:atemp>
            <ns3:hr>124</ns3:hr>
          </ns3:TrackPointExtension>
        </extensions>
      </trkpt>
      <trkpt lat="-22.08894769661128520965576171875" lon="166.4485394395887851715087890625">
        <ele>672.5999755859375</ele>
        <time>2016-08-12T22:41:04.000Z</time>
        <extensions>
          <ns3:TrackPointExtension>
            <ns3:atemp>19.0</ns3:atemp>
            <ns3:hr>124</ns3:hr>
          </ns3:TrackPointExtension>
        </extensions>
      </trkpt>
      <trkpt lat="-22.0889559946954250335693359375" lon="166.44855938851833343505859375">
        <ele>672.4000244140625</ele>
        <time>2016-08-12T22:41:05.000Z</time>
        <extensions>
          <ns3:TrackPointExtension>
            <ns3:atemp>19.0</ns3:atemp>
            <ns3:hr>125</ns3:hr>
          </ns3:TrackPointExtension>
        </extensions>
      </trkpt>
      <trkpt lat="-22.08896286785602569580078125" lon="166.4485813491046428680419921875">
        <ele>672.20001220703125</ele>
        <time>2016-08-12T22:41:06.000Z</time>
        <extensions>
          <ns3:TrackPointExtension>
            <ns3:atemp>19.0</ns3:atemp>
            <ns3:hr>125</ns3:hr>
          </ns3:TrackPointExtension>
        </extensions>
      </trkpt>
      <trkpt lat="-22.08897083066403865814208984375" lon="166.4486044831573963165283203125">
        <ele>671.79998779296875</ele>
        <time>2016-08-12T22:41:07.000Z</time>
        <extensions>
          <ns3:TrackPointExtension>
            <ns3:atemp>19.0</ns3:atemp>
            <ns3:hr>125</ns3:hr>
          </ns3:TrackPointExtension>
        </extensions>
      </trkpt>
      <trkpt lat="-22.088975608348846435546875" lon="166.44862468354403972625732421875">
        <ele>671.79998779296875</ele>
        <time>2016-08-12T22:41:08.000Z</time>
        <extensions>
          <ns3:TrackPointExtension>
            <ns3:atemp>19.0</ns3:atemp>
            <ns3:hr>125</ns3:hr>
          </ns3:TrackPointExtension>
        </extensions>
      </trkpt>
      <trkpt lat="-22.08898055367171764373779296875" lon="166.4486541040241718292236328125">
        <ele>671.79998779296875</ele>
        <time>2016-08-12T22:41:09.000Z</time>
        <extensions>
          <ns3:TrackPointExtension>
            <ns3:atemp>19.0</ns3:atemp>
            <ns3:hr>125</ns3:hr>
          </ns3:TrackPointExtension>
        </extensions>
      </trkpt>
      <trkpt lat="-22.08898256532847881317138671875" lon="166.448681093752384185791015625">
        <ele>671.4000244140625</ele>
        <time>2016-08-12T22:41:10.000Z</time>
        <extensions>
          <ns3:TrackPointExtension>
            <ns3:atemp>19.0</ns3:atemp>
            <ns3:hr>125</ns3:hr>
          </ns3:TrackPointExtension>
        </extensions>
      </trkpt>
      <trkpt lat="-22.0889868400990962982177734375" lon="166.4487060718238353729248046875">
        <ele>671.20001220703125</ele>
        <time>2016-08-12T22:41:11.000Z</time>
        <extensions>
          <ns3:TrackPointExtension>
            <ns3:atemp>19.0</ns3:atemp>
            <ns3:hr>125</ns3:hr>
          </ns3:TrackPointExtension>
        </extensions>
      </trkpt>
      <trkpt lat="-22.0889930427074432373046875" lon="166.44873431883752346038818359375">
        <ele>671.20001220703125</ele>
        <time>2016-08-12T22:41:12.000Z</time>
        <extensions>
          <ns3:TrackPointExtension>
            <ns3:atemp>19.0</ns3:atemp>
            <ns3:hr>126</ns3:hr>
          </ns3:TrackPointExtension>
        </extensions>
      </trkpt>
      <trkpt lat="-22.08900352008640766143798828125" lon="166.44876658916473388671875">
        <ele>671</ele>
        <time>2016-08-12T22:41:13.000Z</time>
        <extensions>
          <ns3:TrackPointExtension>
            <ns3:atemp>19.0</ns3:atemp>
            <ns3:hr>126</ns3:hr>
          </ns3:TrackPointExtension>
        </extensions>
      </trkpt>
      <trkpt lat="-22.089014165103435516357421875" lon="166.44879366271197795867919921875">
        <ele>670.5999755859375</ele>
        <time>2016-08-12T22:41:14.000Z</time>
        <extensions>
          <ns3:TrackPointExtension>
            <ns3:atemp>19.0</ns3:atemp>
            <ns3:hr>126</ns3:hr>
          </ns3:TrackPointExtension>
        </extensions>
      </trkpt>
      <trkpt lat="-22.08902732469141483306884765625" lon="166.44881864078342914581298828125">
        <ele>670.5999755859375</ele>
        <time>2016-08-12T22:41:15.000Z</time>
        <extensions>
          <ns3:TrackPointExtension>
            <ns3:atemp>19.0</ns3:atemp>
            <ns3:hr>126</ns3:hr>
          </ns3:TrackPointExtension>
        </extensions>
      </trkpt>
      <trkpt lat="-22.08903922699391841888427734375" lon="166.44884563051164150238037109375">
        <ele>670.4000244140625</ele>
        <time>2016-08-12T22:41:16.000Z</time>
        <extensions>
          <ns3:TrackPointExtension>
            <ns3:atemp>19.0</ns3:atemp>
            <ns3:hr>127</ns3:hr>
          </ns3:TrackPointExtension>
        </extensions>
      </trkpt>
      <trkpt lat="-22.08904978819191455841064453125" lon="166.44887052476406097412109375">
        <ele>670</ele>
        <time>2016-08-12T22:41:17.000Z</time>
        <extensions>
          <ns3:TrackPointExtension>
            <ns3:atemp>19.0</ns3:atemp>
            <ns3:hr>127</ns3:hr>
          </ns3:TrackPointExtension>
        </extensions>
      </trkpt>
      <trkpt lat="-22.08905808627605438232421875" lon="166.44889734685420989990234375">
        <ele>670</ele>
        <time>2016-08-12T22:41:18.000Z</time>
        <extensions>
          <ns3:TrackPointExtension>
            <ns3:atemp>19.0</ns3:atemp>
            <ns3:hr>127</ns3:hr>
          </ns3:TrackPointExtension>
        </extensions>
      </trkpt>
      <trkpt lat="-22.08906537853181362152099609375" lon="166.448925845324993133544921875">
        <ele>669.4000244140625</ele>
        <time>2016-08-12T22:41:19.000Z</time>
        <extensions>
          <ns3:TrackPointExtension>
            <ns3:atemp>19.0</ns3:atemp>
            <ns3:hr>127</ns3:hr>
          </ns3:TrackPointExtension>
        </extensions>
      </trkpt>
      <trkpt lat="-22.08907392807304859161376953125" lon="166.44895241595804691314697265625">
        <ele>669</ele>
        <time>2016-08-12T22:41:20.000Z</time>
        <extensions>
          <ns3:TrackPointExtension>
            <ns3:atemp>19.0</ns3:atemp>
            <ns3:hr>126</ns3:hr>
          </ns3:TrackPointExtension>
        </extensions>
      </trkpt>
      <trkpt lat="-22.08908499218523502349853515625" lon="166.44897839985787868499755859375">
        <ele>669</ele>
        <time>2016-08-12T22:41:21.000Z</time>
        <extensions>
          <ns3:TrackPointExtension>
            <ns3:atemp>19.0</ns3:atemp>
            <ns3:hr>126</ns3:hr>
          </ns3:TrackPointExtension>
        </extensions>
      </trkpt>
      <trkpt lat="-22.08909236826002597808837890625" lon="166.4490054734051227569580078125">
        <ele>668.79998779296875</ele>
        <time>2016-08-12T22:41:22.000Z</time>
        <extensions>
          <ns3:TrackPointExtension>
            <ns3:atemp>19.0</ns3:atemp>
            <ns3:hr>126</ns3:hr>
          </ns3:TrackPointExtension>
        </extensions>
      </trkpt>
      <trkpt lat="-22.08910292945802211761474609375" lon="166.449032463133335113525390625">
        <ele>668.5999755859375</ele>
        <time>2016-08-12T22:41:23.000Z</time>
        <extensions>
          <ns3:TrackPointExtension>
            <ns3:atemp>19.0</ns3:atemp>
            <ns3:hr>126</ns3:hr>
          </ns3:TrackPointExtension>
        </extensions>
      </trkpt>
      <trkpt lat="-22.0891139097511768341064453125" lon="166.44905685447156429290771484375">
        <ele>668.20001220703125</ele>
        <time>2016-08-12T22:41:24.000Z</time>
        <extensions>
          <ns3:TrackPointExtension>
            <ns3:atemp>19.0</ns3:atemp>
            <ns3:hr>126</ns3:hr>
          </ns3:TrackPointExtension>
        </extensions>
      </trkpt>
      <trkpt lat="-22.0891259796917438507080078125" lon="166.44908082671463489532470703125">
        <ele>667.5999755859375</ele>
        <time>2016-08-12T22:41:25.000Z</time>
        <extensions>
          <ns3:TrackPointExtension>
            <ns3:atemp>19.0</ns3:atemp>
            <ns3:hr>126</ns3:hr>
          </ns3:TrackPointExtension>
        </extensions>
      </trkpt>
      <trkpt lat="-22.08913343958556652069091796875" lon="166.4491073973476886749267578125">
        <ele>667</ele>
        <time>2016-08-12T22:41:26.000Z</time>
        <extensions>
          <ns3:TrackPointExtension>
            <ns3:atemp>19.0</ns3:atemp>
            <ns3:hr>126</ns3:hr>
          </ns3:TrackPointExtension>
        </extensions>
      </trkpt>
      <trkpt lat="-22.08914165385067462921142578125" lon="166.44913396798074245452880859375">
        <ele>666.79998779296875</ele>
        <time>2016-08-12T22:41:27.000Z</time>
        <extensions>
          <ns3:TrackPointExtension>
            <ns3:atemp>19.0</ns3:atemp>
            <ns3:hr>126</ns3:hr>
          </ns3:TrackPointExtension>
        </extensions>
      </trkpt>
      <trkpt lat="-22.0891511254012584686279296875" lon="166.44915752112865447998046875">
        <ele>666.5999755859375</ele>
        <time>2016-08-12T22:41:28.000Z</time>
        <extensions>
          <ns3:TrackPointExtension>
            <ns3:atemp>19.0</ns3:atemp>
            <ns3:hr>126</ns3:hr>
          </ns3:TrackPointExtension>
        </extensions>
      </trkpt>
      <trkpt lat="-22.0891571603715419769287109375" lon="166.44918543286621570587158203125">
        <ele>666.20001220703125</ele>
        <time>2016-08-12T22:41:29.000Z</time>
        <extensions>
          <ns3:TrackPointExtension>
            <ns3:atemp>19.0</ns3:atemp>
            <ns3:hr>126</ns3:hr>
          </ns3:TrackPointExtension>
        </extensions>
      </trkpt>
      <trkpt lat="-22.08916327916085720062255859375" lon="166.44921141676604747772216796875">
        <ele>665.79998779296875</ele>
        <time>2016-08-12T22:41:30.000Z</time>
        <extensions>
          <ns3:TrackPointExtension>
            <ns3:atemp>19.0</ns3:atemp>
            <ns3:hr>126</ns3:hr>
          </ns3:TrackPointExtension>
        </extensions>
      </trkpt>
      <trkpt lat="-22.08916864357888698577880859375" lon="166.44923505373299121856689453125">
        <ele>665.5999755859375</ele>
        <time>2016-08-12T22:41:31.000Z</time>
        <extensions>
          <ns3:TrackPointExtension>
            <ns3:atemp>19.0</ns3:atemp>
            <ns3:hr>126</ns3:hr>
          </ns3:TrackPointExtension>
        </extensions>
      </trkpt>
      <trkpt lat="-22.08917610347270965576171875" lon="166.449262797832489013671875">
        <ele>665</ele>
        <time>2016-08-12T22:41:32.000Z</time>
        <extensions>
          <ns3:TrackPointExtension>
            <ns3:atemp>19.0</ns3:atemp>
            <ns3:hr>126</ns3:hr>
          </ns3:TrackPointExtension>
        </extensions>
      </trkpt>
      <trkpt lat="-22.08918440155684947967529296875" lon="166.4492891170084476470947265625">
        <ele>664.5999755859375</ele>
        <time>2016-08-12T22:41:33.000Z</time>
        <extensions>
          <ns3:TrackPointExtension>
            <ns3:atemp>19.0</ns3:atemp>
            <ns3:hr>126</ns3:hr>
          </ns3:TrackPointExtension>
        </extensions>
      </trkpt>
      <trkpt lat="-22.08919144235551357269287109375" lon="166.44931166432797908782958984375">
        <ele>664.4000244140625</ele>
        <time>2016-08-12T22:41:34.000Z</time>
        <extensions>
          <ns3:TrackPointExtension>
            <ns3:atemp>19.0</ns3:atemp>
            <ns3:hr>126</ns3:hr>
          </ns3:TrackPointExtension>
        </extensions>
      </trkpt>
      <trkpt lat="-22.08919798023998737335205078125" lon="166.44933563657104969024658203125">
        <ele>664</ele>
        <time>2016-08-12T22:41:35.000Z</time>
        <extensions>
          <ns3:TrackPointExtension>
            <ns3:atemp>19.0</ns3:atemp>
            <ns3:hr>126</ns3:hr>
          </ns3:TrackPointExtension>
        </extensions>
      </trkpt>
      <trkpt lat="-22.08920300938189029693603515625" lon="166.44935675896704196929931640625">
        <ele>663.4000244140625</ele>
        <time>2016-08-12T22:41:36.000Z</time>
        <extensions>
          <ns3:TrackPointExtension>
            <ns3:atemp>19.0</ns3:atemp>
            <ns3:hr>126</ns3:hr>
          </ns3:TrackPointExtension>
        </extensions>
      </trkpt>
      <trkpt lat="-22.089209295809268951416015625" lon="166.4493789710104465484619140625">
        <ele>663.20001220703125</ele>
        <time>2016-08-12T22:41:37.000Z</time>
        <extensions>
          <ns3:TrackPointExtension>
            <ns3:atemp>19.0</ns3:atemp>
            <ns3:hr>125</ns3:hr>
          </ns3:TrackPointExtension>
        </extensions>
      </trkpt>
      <trkpt lat="-22.08921373821794986724853515625" lon="166.4494044519960880279541015625">
        <ele>662.79998779296875</ele>
        <time>2016-08-12T22:41:38.000Z</time>
        <extensions>
          <ns3:TrackPointExtension>
            <ns3:atemp>19.0</ns3:atemp>
            <ns3:hr>126</ns3:hr>
          </ns3:TrackPointExtension>
        </extensions>
      </trkpt>
      <trkpt lat="-22.089216671884059906005859375" lon="166.4494282566010951995849609375">
        <ele>662.5999755859375</ele>
        <time>2016-08-12T22:41:39.000Z</time>
        <extensions>
          <ns3:TrackPointExtension>
            <ns3:atemp>19.0</ns3:atemp>
            <ns3:hr>125</ns3:hr>
          </ns3:TrackPointExtension>
        </extensions>
      </trkpt>
      <trkpt lat="-22.08922178484499454498291015625" lon="166.44945298321545124053955078125">
        <ele>662.5999755859375</ele>
        <time>2016-08-12T22:41:40.000Z</time>
        <extensions>
          <ns3:TrackPointExtension>
            <ns3:atemp>19.0</ns3:atemp>
            <ns3:hr>125</ns3:hr>
          </ns3:TrackPointExtension>
        </extensions>
      </trkpt>
      <trkpt lat="-22.0892275683581829071044921875" lon="166.44947745837271213531494140625">
        <ele>662.20001220703125</ele>
        <time>2016-08-12T22:41:41.000Z</time>
        <extensions>
          <ns3:TrackPointExtension>
            <ns3:atemp>19.0</ns3:atemp>
            <ns3:hr>125</ns3:hr>
          </ns3:TrackPointExtension>
        </extensions>
      </trkpt>
      <trkpt lat="-22.0892309211194515228271484375" lon="166.44949992187321186065673828125">
        <ele>661.79998779296875</ele>
        <time>2016-08-12T22:41:42.000Z</time>
        <extensions>
          <ns3:TrackPointExtension>
            <ns3:atemp>19.0</ns3:atemp>
            <ns3:hr>125</ns3:hr>
          </ns3:TrackPointExtension>
        </extensions>
      </trkpt>
      <trkpt lat="-22.08923435769975185394287109375" lon="166.4495258219540119171142578125">
        <ele>661.4000244140625</ele>
        <time>2016-08-12T22:41:43.000Z</time>
        <extensions>
          <ns3:TrackPointExtension>
            <ns3:atemp>19.0</ns3:atemp>
            <ns3:hr>125</ns3:hr>
          </ns3:TrackPointExtension>
        </extensions>
      </trkpt>
      <trkpt lat="-22.08924257196485996246337890625" lon="166.44955038093030452728271484375">
        <ele>661.20001220703125</ele>
        <time>2016-08-12T22:41:44.000Z</time>
        <extensions>
          <ns3:TrackPointExtension>
            <ns3:atemp>19.0</ns3:atemp>
            <ns3:hr>125</ns3:hr>
          </ns3:TrackPointExtension>
        </extensions>
      </trkpt>
      <trkpt lat="-22.0892614312469959259033203125" lon="166.449568234384059906005859375">
        <ele>661</ele>
        <time>2016-08-12T22:41:45.000Z</time>
        <extensions>
          <ns3:TrackPointExtension>
            <ns3:atemp>19.0</ns3:atemp>
            <ns3:hr>125</ns3:hr>
          </ns3:TrackPointExtension>
        </extensions>
      </trkpt>
      <trkpt lat="-22.089285738766193389892578125" lon="166.4495808072388172149658203125">
        <ele>660.79998779296875</ele>
        <time>2016-08-12T22:41:46.000Z</time>
        <extensions>
          <ns3:TrackPointExtension>
            <ns3:atemp>19.0</ns3:atemp>
            <ns3:hr>126</ns3:hr>
          </ns3:TrackPointExtension>
        </extensions>
      </trkpt>
      <trkpt lat="-22.089308202266693115234375" lon="166.44958944059908390045166015625">
        <ele>660.4000244140625</ele>
        <time>2016-08-12T22:41:47.000Z</time>
        <extensions>
          <ns3:TrackPointExtension>
            <ns3:atemp>19.0</ns3:atemp>
            <ns3:hr>126</ns3:hr>
          </ns3:TrackPointExtension>
        </extensions>
      </trkpt>
      <trkpt lat="-22.0893298275768756866455078125" lon="166.44959279336035251617431640625">
        <ele>660.20001220703125</ele>
        <time>2016-08-12T22:41:48.000Z</time>
        <extensions>
          <ns3:TrackPointExtension>
            <ns3:atemp>19.0</ns3:atemp>
            <ns3:hr>125</ns3:hr>
          </ns3:TrackPointExtension>
        </extensions>
      </trkpt>
      <trkpt lat="-22.08935371600091457366943359375" lon="166.4495858363807201385498046875">
        <ele>659.5999755859375</ele>
        <time>2016-08-12T22:41:49.000Z</time>
        <extensions>
          <ns3:TrackPointExtension>
            <ns3:atemp>19.0</ns3:atemp>
            <ns3:hr>126</ns3:hr>
          </ns3:TrackPointExtension>
        </extensions>
      </trkpt>
      <trkpt lat="-22.089375592768192291259765625" lon="166.44957066513597965240478515625">
        <ele>659.4000244140625</ele>
        <time>2016-08-12T22:41:50.000Z</time>
        <extensions>
          <ns3:TrackPointExtension>
            <ns3:atemp>19.0</ns3:atemp>
            <ns3:hr>125</ns3:hr>
          </ns3:TrackPointExtension>
        </extensions>
      </trkpt>
      <trkpt lat="-22.0893980562686920166015625" lon="166.44955641590058803558349609375">
        <ele>659</ele>
        <time>2016-08-12T22:41:51.000Z</time>
        <extensions>
          <ns3:TrackPointExtension>
            <ns3:atemp>19.0</ns3:atemp>
            <ns3:hr>125</ns3:hr>
          </ns3:TrackPointExtension>
        </extensions>
      </trkpt>
      <trkpt lat="-22.08942395634949207305908203125" lon="166.4495457708835601806640625">
        <ele>658.5999755859375</ele>
        <time>2016-08-12T22:41:52.000Z</time>
        <extensions>
          <ns3:TrackPointExtension>
            <ns3:atemp>19.0</ns3:atemp>
            <ns3:hr>125</ns3:hr>
          </ns3:TrackPointExtension>
        </extensions>
      </trkpt>
      <trkpt lat="-22.08944910205900669097900390625" lon="166.4495372213423252105712890625">
        <ele>658.20001220703125</ele>
        <time>2016-08-12T22:41:53.000Z</time>
        <extensions>
          <ns3:TrackPointExtension>
            <ns3:atemp>19.0</ns3:atemp>
            <ns3:hr>126</ns3:hr>
          </ns3:TrackPointExtension>
        </extensions>
      </trkpt>
      <trkpt lat="-22.08947441540658473968505859375" lon="166.44952825270593166351318359375">
        <ele>658</ele>
        <time>2016-08-12T22:41:54.000Z</time>
        <extensions>
          <ns3:TrackPointExtension>
            <ns3:atemp>19.0</ns3:atemp>
            <ns3:hr>126</ns3:hr>
          </ns3:TrackPointExtension>
        </extensions>
      </trkpt>
      <trkpt lat="-22.089501321315765380859375" lon="166.44951869733631610870361328125">
        <ele>657.20001220703125</ele>
        <time>2016-08-12T22:41:55.000Z</time>
        <extensions>
          <ns3:TrackPointExtension>
            <ns3:atemp>19.0</ns3:atemp>
            <ns3:hr>125</ns3:hr>
          </ns3:TrackPointExtension>
        </extensions>
      </trkpt>
      <trkpt lat="-22.0895279757678508758544921875" lon="166.449508555233478546142578125">
        <ele>656.79998779296875</ele>
        <time>2016-08-12T22:41:56.000Z</time>
        <extensions>
          <ns3:TrackPointExtension>
            <ns3:atemp>19.0</ns3:atemp>
            <ns3:hr>126</ns3:hr>
          </ns3:TrackPointExtension>
        </extensions>
      </trkpt>
      <trkpt lat="-22.0895584858953952789306640625" lon="166.44949656911194324493408203125">
        <ele>656.79998779296875</ele>
        <time>2016-08-12T22:41:57.000Z</time>
        <extensions>
          <ns3:TrackPointExtension>
            <ns3:atemp>19.0</ns3:atemp>
            <ns3:hr>126</ns3:hr>
          </ns3:TrackPointExtension>
        </extensions>
      </trkpt>
      <trkpt lat="-22.0895886607468128204345703125" lon="166.44948248751461505889892578125">
        <ele>656.5999755859375</ele>
        <time>2016-08-12T22:41:58.000Z</time>
        <extensions>
          <ns3:TrackPointExtension>
            <ns3:atemp>19.0</ns3:atemp>
            <ns3:hr>125</ns3:hr>
          </ns3:TrackPointExtension>
        </extensions>
      </trkpt>
      <trkpt lat="-22.08961774595081806182861328125" lon="166.44947142340242862701416015625">
        <ele>656.20001220703125</ele>
        <time>2016-08-12T22:41:59.000Z</time>
        <extensions>
          <ns3:TrackPointExtension>
            <ns3:atemp>19.0</ns3:atemp>
            <ns3:hr>126</ns3:hr>
          </ns3:TrackPointExtension>
        </extensions>
      </trkpt>
      <trkpt lat="-22.0896469987928867340087890625" lon="166.4494564197957515716552734375">
        <ele>656</ele>
        <time>2016-08-12T22:42:00.000Z</time>
        <extensions>
          <ns3:TrackPointExtension>
            <ns3:atemp>19.0</ns3:atemp>
            <ns3:hr>126</ns3:hr>
          </ns3:TrackPointExtension>
        </extensions>
      </trkpt>
      <trkpt lat="-22.08967122249305248260498046875" lon="166.4494403265416622161865234375">
        <ele>655.79998779296875</ele>
        <time>2016-08-12T22:42:01.000Z</time>
        <extensions>
          <ns3:TrackPointExtension>
            <ns3:atemp>19.0</ns3:atemp>
            <ns3:hr>126</ns3:hr>
          </ns3:TrackPointExtension>
        </extensions>
      </trkpt>
      <trkpt lat="-22.0896904170513153076171875" lon="166.44942297600209712982177734375">
        <ele>655.79998779296875</ele>
        <time>2016-08-12T22:42:02.000Z</time>
        <extensions>
          <ns3:TrackPointExtension>
            <ns3:atemp>19.0</ns3:atemp>
            <ns3:hr>126</ns3:hr>
          </ns3:TrackPointExtension>
        </extensions>
      </trkpt>
      <trkpt lat="-22.08970793522894382476806640625" lon="166.44939933903515338897705078125">
        <ele>655.4000244140625</ele>
        <time>2016-08-12T22:42:03.000Z</time>
        <extensions>
          <ns3:TrackPointExtension>
            <ns3:atemp>19.0</ns3:atemp>
            <ns3:hr>127</ns3:hr>
          </ns3:TrackPointExtension>
        </extensions>
      </trkpt>
      <trkpt lat="-22.08972771652042865753173828125" lon="166.4493813179433345794677734375">
        <ele>655.4000244140625</ele>
        <time>2016-08-12T22:42:04.000Z</time>
        <extensions>
          <ns3:TrackPointExtension>
            <ns3:atemp>19.0</ns3:atemp>
            <ns3:hr>127</ns3:hr>
          </ns3:TrackPointExtension>
        </extensions>
      </trkpt>
      <trkpt lat="-22.08974665962159633636474609375" lon="166.449363045394420623779296875">
        <ele>655.20001220703125</ele>
        <time>2016-08-12T22:42:05.000Z</time>
        <extensions>
          <ns3:TrackPointExtension>
            <ns3:atemp>19.0</ns3:atemp>
            <ns3:hr>127</ns3:hr>
          </ns3:TrackPointExtension>
        </extensions>
      </trkpt>
      <trkpt lat="-22.08977155387401580810546875" lon="166.44934234209358692169189453125">
        <ele>654.79998779296875</ele>
        <time>2016-08-12T22:42:06.000Z</time>
        <extensions>
          <ns3:TrackPointExtension>
            <ns3:atemp>19.0</ns3:atemp>
            <ns3:hr>126</ns3:hr>
          </ns3:TrackPointExtension>
        </extensions>
      </trkpt>
      <trkpt lat="-22.089786641299724578857421875" lon="166.44931971095502376556396484375">
        <ele>654.4000244140625</ele>
        <time>2016-08-12T22:42:07.000Z</time>
        <extensions>
          <ns3:TrackPointExtension>
            <ns3:atemp>19.0</ns3:atemp>
            <ns3:hr>127</ns3:hr>
          </ns3:TrackPointExtension>
        </extensions>
      </trkpt>
      <trkpt lat="-22.08979644812643527984619140625" lon="166.4492887817323207855224609375">
        <ele>654.4000244140625</ele>
        <time>2016-08-12T22:42:08.000Z</time>
        <extensions>
          <ns3:TrackPointExtension>
            <ns3:atemp>19.0</ns3:atemp>
            <ns3:hr>126</ns3:hr>
          </ns3:TrackPointExtension>
        </extensions>
      </trkpt>
      <trkpt lat="-22.08980600349605083465576171875" lon="166.44925852306187152862548828125">
        <ele>654.20001220703125</ele>
        <time>2016-08-12T22:42:09.000Z</time>
        <extensions>
          <ns3:TrackPointExtension>
            <ns3:atemp>19.0</ns3:atemp>
            <ns3:hr>126</ns3:hr>
          </ns3:TrackPointExtension>
        </extensions>
      </trkpt>
      <trkpt lat="-22.08981421776115894317626953125" lon="166.449227593839168548583984375">
        <ele>653.79998779296875</ele>
        <time>2016-08-12T22:42:10.000Z</time>
        <extensions>
          <ns3:TrackPointExtension>
            <ns3:atemp>19.0</ns3:atemp>
            <ns3:hr>127</ns3:hr>
          </ns3:TrackPointExtension>
        </extensions>
      </trkpt>
      <trkpt lat="-22.08982377313077449798583984375" lon="166.44919314421713352203369140625">
        <ele>653.5999755859375</ele>
        <time>2016-08-12T22:42:11.000Z</time>
        <extensions>
          <ns3:TrackPointExtension>
            <ns3:atemp>19.0</ns3:atemp>
            <ns3:hr>126</ns3:hr>
          </ns3:TrackPointExtension>
        </extensions>
      </trkpt>
      <trkpt lat="-22.08983995020389556884765625" lon="166.44916498102247714996337890625">
        <ele>653.5999755859375</ele>
        <time>2016-08-12T22:42:12.000Z</time>
        <extensions>
          <ns3:TrackPointExtension>
            <ns3:atemp>19.0</ns3:atemp>
            <ns3:hr>127</ns3:hr>
          </ns3:TrackPointExtension>
        </extensions>
      </trkpt>
      <trkpt lat="-22.08984925411641597747802734375" lon="166.4491365663707256317138671875">
        <ele>653.20001220703125</ele>
        <time>2016-08-12T22:42:13.000Z</time>
        <extensions>
          <ns3:TrackPointExtension>
            <ns3:atemp>19.0</ns3:atemp>
            <ns3:hr>127</ns3:hr>
          </ns3:TrackPointExtension>
        </extensions>
      </trkpt>
      <trkpt lat="-22.08984724245965480804443359375" lon="166.44910278730094432830810546875">
        <ele>652.79998779296875</ele>
        <time>2016-08-12T22:42:14.000Z</time>
        <extensions>
          <ns3:TrackPointExtension>
            <ns3:atemp>19.0</ns3:atemp>
            <ns3:hr>127</ns3:hr>
          </ns3:TrackPointExtension>
        </extensions>
      </trkpt>
      <trkpt lat="-22.0898431353271007537841796875" lon="166.44906942732632160186767578125">
        <ele>652.79998779296875</ele>
        <time>2016-08-12T22:42:15.000Z</time>
        <extensions>
          <ns3:TrackPointExtension>
            <ns3:atemp>19.0</ns3:atemp>
            <ns3:hr>128</ns3:hr>
          </ns3:TrackPointExtension>
        </extensions>
      </trkpt>
      <trkpt lat="-22.08984992466866970062255859375" lon="166.44904076121747493743896484375">
        <ele>652.79998779296875</ele>
        <time>2016-08-12T22:42:16.000Z</time>
        <extensions>
          <ns3:TrackPointExtension>
            <ns3:atemp>19.0</ns3:atemp>
            <ns3:hr>128</ns3:hr>
          </ns3:TrackPointExtension>
        </extensions>
      </trkpt>
      <trkpt lat="-22.0898629166185855865478515625" lon="166.4490175433456897735595703125">
        <ele>652.5999755859375</ele>
        <time>2016-08-12T22:42:17.000Z</time>
        <extensions>
          <ns3:TrackPointExtension>
            <ns3:atemp>19.0</ns3:atemp>
            <ns3:hr>128</ns3:hr>
          </ns3:TrackPointExtension>
        </extensions>
      </trkpt>
      <trkpt lat="-22.08987481892108917236328125" lon="166.44899415783584117889404296875">
        <ele>652.4000244140625</ele>
        <time>2016-08-12T22:42:18.000Z</time>
        <extensions>
          <ns3:TrackPointExtension>
            <ns3:atemp>19.0</ns3:atemp>
            <ns3:hr>128</ns3:hr>
          </ns3:TrackPointExtension>
        </extensions>
      </trkpt>
      <trkpt lat="-22.0898887328803539276123046875" lon="166.4489699341356754302978515625">
        <ele>652.20001220703125</ele>
        <time>2016-08-12T22:42:19.000Z</time>
        <extensions>
          <ns3:TrackPointExtension>
            <ns3:atemp>19.0</ns3:atemp>
            <ns3:hr>128</ns3:hr>
          </ns3:TrackPointExtension>
        </extensions>
      </trkpt>
      <trkpt lat="-22.08989359438419342041015625" lon="166.448941938579082489013671875">
        <ele>652.4000244140625</ele>
        <time>2016-08-12T22:42:20.000Z</time>
        <extensions>
          <ns3:TrackPointExtension>
            <ns3:atemp>19.0</ns3:atemp>
            <ns3:hr>128</ns3:hr>
          </ns3:TrackPointExtension>
        </extensions>
      </trkpt>
      <trkpt lat="-22.08990172483026981353759765625" lon="166.44891612231731414794921875">
        <ele>652.5999755859375</ele>
        <time>2016-08-12T22:42:21.000Z</time>
        <extensions>
          <ns3:TrackPointExtension>
            <ns3:atemp>19.0</ns3:atemp>
            <ns3:hr>129</ns3:hr>
          </ns3:TrackPointExtension>
        </extensions>
      </trkpt>
      <trkpt lat="-22.08990977145731449127197265625" lon="166.44888988696038722991943359375">
        <ele>652.20001220703125</ele>
        <time>2016-08-12T22:42:22.000Z</time>
        <extensions>
          <ns3:TrackPointExtension>
            <ns3:atemp>19.0</ns3:atemp>
            <ns3:hr>129</ns3:hr>
          </ns3:TrackPointExtension>
        </extensions>
      </trkpt>
      <trkpt lat="-22.08992083556950092315673828125" lon="166.44886692054569721221923828125">
        <ele>652</ele>
        <time>2016-08-12T22:42:23.000Z</time>
        <extensions>
          <ns3:TrackPointExtension>
            <ns3:atemp>19.0</ns3:atemp>
            <ns3:hr>129</ns3:hr>
          </ns3:TrackPointExtension>
        </extensions>
      </trkpt>
      <trkpt lat="-22.08992854692041873931884765625" lon="166.44884311594069004058837890625">
        <ele>652</ele>
        <time>2016-08-12T22:42:24.000Z</time>
        <extensions>
          <ns3:TrackPointExtension>
            <ns3:atemp>19.0</ns3:atemp>
            <ns3:hr>129</ns3:hr>
          </ns3:TrackPointExtension>
        </extensions>
      </trkpt>
      <trkpt lat="-22.08993525244295597076416015625" lon="166.44881109707057476043701171875">
        <ele>652.4000244140625</ele>
        <time>2016-08-12T22:42:25.000Z</time>
        <extensions>
          <ns3:TrackPointExtension>
            <ns3:atemp>19.0</ns3:atemp>
            <ns3:hr>129</ns3:hr>
          </ns3:TrackPointExtension>
        </extensions>
      </trkpt>
      <trkpt lat="-22.0899546146392822265625" lon="166.4487862028181552886962890625">
        <ele>652.4000244140625</ele>
        <time>2016-08-12T22:42:26.000Z</time>
        <extensions>
          <ns3:TrackPointExtension>
            <ns3:atemp>19.0</ns3:atemp>
            <ns3:hr>129</ns3:hr>
          </ns3:TrackPointExtension>
        </extensions>
      </trkpt>
      <trkpt lat="-22.08996660076081752777099609375" lon="166.44876231439411640167236328125">
        <ele>652.5999755859375</ele>
        <time>2016-08-12T22:42:27.000Z</time>
        <extensions>
          <ns3:TrackPointExtension>
            <ns3:atemp>19.0</ns3:atemp>
            <ns3:hr>129</ns3:hr>
          </ns3:TrackPointExtension>
        </extensions>
      </trkpt>
      <trkpt lat="-22.08996735513210296630859375" lon="166.44873264245688915252685546875">
        <ele>652.5999755859375</ele>
        <time>2016-08-12T22:42:28.000Z</time>
        <extensions>
          <ns3:TrackPointExtension>
            <ns3:atemp>19.0</ns3:atemp>
            <ns3:hr>130</ns3:hr>
          </ns3:TrackPointExtension>
        </extensions>
      </trkpt>
      <trkpt lat="-22.08996810950338840484619140625" lon="166.44870179705321788787841796875">
        <ele>652.4000244140625</ele>
        <time>2016-08-12T22:42:29.000Z</time>
        <extensions>
          <ns3:TrackPointExtension>
            <ns3:atemp>19.0</ns3:atemp>
            <ns3:hr>130</ns3:hr>
          </ns3:TrackPointExtension>
        </extensions>
      </trkpt>
      <trkpt lat="-22.08997649140655994415283203125" lon="166.4486728794872760772705078125">
        <ele>652.20001220703125</ele>
        <time>2016-08-12T22:42:30.000Z</time>
        <extensions>
          <ns3:TrackPointExtension>
            <ns3:atemp>19.0</ns3:atemp>
            <ns3:hr>130</ns3:hr>
          </ns3:TrackPointExtension>
        </extensions>
      </trkpt>
      <trkpt lat="-22.089987806975841522216796875" lon="166.44864966161549091339111328125">
        <ele>652</ele>
        <time>2016-08-12T22:42:31.000Z</time>
        <extensions>
          <ns3:TrackPointExtension>
            <ns3:atemp>19.0</ns3:atemp>
            <ns3:hr>130</ns3:hr>
          </ns3:TrackPointExtension>
        </extensions>
      </trkpt>
      <trkpt lat="-22.08999551832675933837890625" lon="166.4486282877624034881591796875">
        <ele>651.5999755859375</ele>
        <time>2016-08-12T22:42:32.000Z</time>
        <extensions>
          <ns3:TrackPointExtension>
            <ns3:atemp>19.0</ns3:atemp>
            <ns3:hr>130</ns3:hr>
          </ns3:TrackPointExtension>
        </extensions>
      </trkpt>
      <trkpt lat="-22.09001437760889530181884765625" lon="166.4486096799373626708984375">
        <ele>651.20001220703125</ele>
        <time>2016-08-12T22:42:33.000Z</time>
        <extensions>
          <ns3:TrackPointExtension>
            <ns3:atemp>19.0</ns3:atemp>
            <ns3:hr>130</ns3:hr>
          </ns3:TrackPointExtension>
        </extensions>
      </trkpt>
      <trkpt lat="-22.0900231786072254180908203125" lon="166.448587216436862945556640625">
        <ele>651.20001220703125</ele>
        <time>2016-08-12T22:42:34.000Z</time>
        <extensions>
          <ns3:TrackPointExtension>
            <ns3:atemp>19.0</ns3:atemp>
            <ns3:hr>131</ns3:hr>
          </ns3:TrackPointExtension>
        </extensions>
      </trkpt>
      <trkpt lat="-22.090033404529094696044921875" lon="166.44856517203152179718017578125">
        <ele>651.4000244140625</ele>
        <time>2016-08-12T22:42:35.000Z</time>
        <extensions>
          <ns3:TrackPointExtension>
            <ns3:atemp>19.0</ns3:atemp>
            <ns3:hr>131</ns3:hr>
          </ns3:TrackPointExtension>
        </extensions>
      </trkpt>
      <trkpt lat="-22.090039439499378204345703125" lon="166.44854237325489521026611328125">
        <ele>651</ele>
        <time>2016-08-12T22:42:36.000Z</time>
        <extensions>
          <ns3:TrackPointExtension>
            <ns3:atemp>19.0</ns3:atemp>
            <ns3:hr>131</ns3:hr>
          </ns3:TrackPointExtension>
        </extensions>
      </trkpt>
      <trkpt lat="-22.09005092270672321319580078125" lon="166.4485253579914569854736328125">
        <ele>650.5999755859375</ele>
        <time>2016-08-12T22:42:37.000Z</time>
        <extensions>
          <ns3:TrackPointExtension>
            <ns3:atemp>19.0</ns3:atemp>
            <ns3:hr>131</ns3:hr>
          </ns3:TrackPointExtension>
        </extensions>
      </trkpt>
      <trkpt lat="-22.09006316028535366058349609375" lon="166.44850867800414562225341796875">
        <ele>650.79998779296875</ele>
        <time>2016-08-12T22:42:38.000Z</time>
        <extensions>
          <ns3:TrackPointExtension>
            <ns3:atemp>19.0</ns3:atemp>
            <ns3:hr>131</ns3:hr>
          </ns3:TrackPointExtension>
        </extensions>
      </trkpt>
      <trkpt lat="-22.0900748111307621002197265625" lon="166.44849576987326145172119140625">
        <ele>651</ele>
        <time>2016-08-12T22:42:39.000Z</time>
        <extensions>
          <ns3:TrackPointExtension>
            <ns3:atemp>19.0</ns3:atemp>
            <ns3:hr>132</ns3:hr>
          </ns3:TrackPointExtension>
        </extensions>
      </trkpt>
      <trkpt lat="-22.0900925807654857635498046875" lon="166.4484809339046478271484375">
        <ele>650.4000244140625</ele>
        <time>2016-08-12T22:42:40.000Z</time>
        <extensions>
          <ns3:TrackPointExtension>
            <ns3:atemp>19.0</ns3:atemp>
            <ns3:hr>132</ns3:hr>
          </ns3:TrackPointExtension>
        </extensions>
      </trkpt>
      <trkpt lat="-22.09010808728635311126708984375" lon="166.4484680257737636566162109375">
        <ele>650.4000244140625</ele>
        <time>2016-08-12T22:42:41.000Z</time>
        <extensions>
          <ns3:TrackPointExtension>
            <ns3:atemp>19.0</ns3:atemp>
            <ns3:hr>132</ns3:hr>
          </ns3:TrackPointExtension>
        </extensions>
      </trkpt>
      <trkpt lat="-22.09011797793209552764892578125" lon="166.44845536909997463226318359375">
        <ele>650.5999755859375</ele>
        <time>2016-08-12T22:42:42.000Z</time>
        <extensions>
          <ns3:TrackPointExtension>
            <ns3:atemp>19.0</ns3:atemp>
            <ns3:hr>132</ns3:hr>
          </ns3:TrackPointExtension>
        </extensions>
      </trkpt>
      <trkpt lat="-22.090131975710391998291015625" lon="166.4484452269971370697021484375">
        <ele>650.5999755859375</ele>
        <time>2016-08-12T22:42:43.000Z</time>
        <extensions>
          <ns3:TrackPointExtension>
            <ns3:atemp>19.0</ns3:atemp>
            <ns3:hr>132</ns3:hr>
          </ns3:TrackPointExtension>
        </extensions>
      </trkpt>
      <trkpt lat="-22.09015318192541599273681640625" lon="166.44843625836074352264404296875">
        <ele>650.20001220703125</ele>
        <time>2016-08-12T22:42:44.000Z</time>
        <extensions>
          <ns3:TrackPointExtension>
            <ns3:atemp>19.0</ns3:atemp>
            <ns3:hr>132</ns3:hr>
          </ns3:TrackPointExtension>
        </extensions>
      </trkpt>
      <trkpt lat="-22.09017346613109111785888671875" lon="166.44842821173369884490966796875">
        <ele>650.5999755859375</ele>
        <time>2016-08-12T22:42:45.000Z</time>
        <extensions>
          <ns3:TrackPointExtension>
            <ns3:atemp>19.0</ns3:atemp>
            <ns3:hr>132</ns3:hr>
          </ns3:TrackPointExtension>
        </extensions>
      </trkpt>
      <trkpt lat="-22.090188302099704742431640625" lon="166.44842536188662052154541015625">
        <ele>650.79998779296875</ele>
        <time>2016-08-12T22:42:46.000Z</time>
        <extensions>
          <ns3:TrackPointExtension>
            <ns3:atemp>19.0</ns3:atemp>
            <ns3:hr>133</ns3:hr>
          </ns3:TrackPointExtension>
        </extensions>
      </trkpt>
      <trkpt lat="-22.0902219973504543304443359375" lon="166.44842385314404964447021484375">
        <ele>651</ele>
        <time>2016-08-12T22:42:47.000Z</time>
        <extensions>
          <ns3:TrackPointExtension>
            <ns3:atemp>19.0</ns3:atemp>
            <ns3:hr>132</ns3:hr>
          </ns3:TrackPointExtension>
        </extensions>
      </trkpt>
      <trkpt lat="-22.0902461372315883636474609375" lon="166.44842117093503475189208984375">
        <ele>651</ele>
        <time>2016-08-12T22:42:48.000Z</time>
        <extensions>
          <ns3:TrackPointExtension>
            <ns3:atemp>19.0</ns3:atemp>
            <ns3:hr>133</ns3:hr>
          </ns3:TrackPointExtension>
        </extensions>
      </trkpt>
      <trkpt lat="-22.0902716182172298431396484375" lon="166.44841647706925868988037109375">
        <ele>651.4000244140625</ele>
        <time>2016-08-12T22:42:49.000Z</time>
        <extensions>
          <ns3:TrackPointExtension>
            <ns3:atemp>19.0</ns3:atemp>
            <ns3:hr>132</ns3:hr>
          </ns3:TrackPointExtension>
        </extensions>
      </trkpt>
      <trkpt lat="-22.09030397236347198486328125" lon="166.44841899164021015167236328125">
        <ele>651.4000244140625</ele>
        <time>2016-08-12T22:42:50.000Z</time>
        <extensions>
          <ns3:TrackPointExtension>
            <ns3:atemp>19.0</ns3:atemp>
            <ns3:hr>132</ns3:hr>
          </ns3:TrackPointExtension>
        </extensions>
      </trkpt>
      <trkpt lat="-22.0903292857110500335693359375" lon="166.44841614179313182830810546875">
        <ele>651.4000244140625</ele>
        <time>2016-08-12T22:42:51.000Z</time>
        <extensions>
          <ns3:TrackPointExtension>
            <ns3:atemp>19.0</ns3:atemp>
            <ns3:hr>132</ns3:hr>
          </ns3:TrackPointExtension>
        </extensions>
      </trkpt>
      <trkpt lat="-22.09035971201956272125244140625" lon="166.4484143815934658050537109375">
        <ele>651.4000244140625</ele>
        <time>2016-08-12T22:42:52.000Z</time>
        <extensions>
          <ns3:TrackPointExtension>
            <ns3:atemp>19.0</ns3:atemp>
            <ns3:hr>132</ns3:hr>
          </ns3:TrackPointExtension>
        </extensions>
      </trkpt>
      <trkpt lat="-22.0904382504522800445556640625" lon="166.44842351786792278289794921875">
        <ele>651.4000244140625</ele>
        <time>2016-08-12T22:42:53.000Z</time>
        <extensions>
          <ns3:TrackPointExtension>
            <ns3:atemp>19.0</ns3:atemp>
            <ns3:hr>132</ns3:hr>
          </ns3:TrackPointExtension>
        </extensions>
      </trkpt>
      <trkpt lat="-22.09045258350670337677001953125" lon="166.44842083565890789031982421875">
        <ele>651.20001220703125</ele>
        <time>2016-08-12T22:42:54.000Z</time>
        <extensions>
          <ns3:TrackPointExtension>
            <ns3:atemp>19.0</ns3:atemp>
            <ns3:hr>132</ns3:hr>
          </ns3:TrackPointExtension>
        </extensions>
      </trkpt>
      <trkpt lat="-22.0904667489230632781982421875" lon="166.44841597415506839752197265625">
        <ele>651.20001220703125</ele>
        <time>2016-08-12T22:42:55.000Z</time>
        <extensions>
          <ns3:TrackPointExtension>
            <ns3:atemp>19.0</ns3:atemp>
            <ns3:hr>132</ns3:hr>
          </ns3:TrackPointExtension>
        </extensions>
      </trkpt>
      <trkpt lat="-22.0904923975467681884765625" lon="166.44841161556541919708251953125">
        <ele>651.20001220703125</ele>
        <time>2016-08-12T22:42:56.000Z</time>
        <extensions>
          <ns3:TrackPointExtension>
            <ns3:atemp>19.0</ns3:atemp>
            <ns3:hr>132</ns3:hr>
          </ns3:TrackPointExtension>
        </extensions>
      </trkpt>
      <trkpt lat="-22.09052148275077342987060546875" lon="166.44841211847960948944091796875">
        <ele>651</ele>
        <time>2016-08-12T22:42:57.000Z</time>
        <extensions>
          <ns3:TrackPointExtension>
            <ns3:atemp>19.0</ns3:atemp>
            <ns3:hr>132</ns3:hr>
          </ns3:TrackPointExtension>
        </extensions>
      </trkpt>
      <trkpt lat="-22.09055199287831783294677734375" lon="166.44840725697576999664306640625">
        <ele>651.20001220703125</ele>
        <time>2016-08-12T22:42:58.000Z</time>
        <extensions>
          <ns3:TrackPointExtension>
            <ns3:atemp>19.0</ns3:atemp>
            <ns3:hr>132</ns3:hr>
          </ns3:TrackPointExtension>
        </extensions>
      </trkpt>
      <trkpt lat="-22.09058065898716449737548828125" lon="166.44840071909129619598388671875">
        <ele>651.5999755859375</ele>
        <time>2016-08-12T22:42:59.000Z</time>
        <extensions>
          <ns3:TrackPointExtension>
            <ns3:atemp>19.0</ns3:atemp>
            <ns3:hr>132</ns3:hr>
          </ns3:TrackPointExtension>
        </extensions>
      </trkpt>
      <trkpt lat="-22.0906166173517704010009765625" lon="166.44840038381516933441162109375">
        <ele>651.79998779296875</ele>
        <time>2016-08-12T22:43:00.000Z</time>
        <extensions>
          <ns3:TrackPointExtension>
            <ns3:atemp>19.0</ns3:atemp>
            <ns3:hr>132</ns3:hr>
          </ns3:TrackPointExtension>
        </extensions>
      </trkpt>
      <trkpt lat="-22.0906467922031879425048828125" lon="166.44839309155941009521484375">
        <ele>651.79998779296875</ele>
        <time>2016-08-12T22:43:01.000Z</time>
        <extensions>
          <ns3:TrackPointExtension>
            <ns3:atemp>19.0</ns3:atemp>
            <ns3:hr>132</ns3:hr>
          </ns3:TrackPointExtension>
        </extensions>
      </trkpt>
      <trkpt lat="-22.090673781931400299072265625" lon="166.44838328473269939422607421875">
        <ele>651.79998779296875</ele>
        <time>2016-08-12T22:43:02.000Z</time>
        <extensions>
          <ns3:TrackPointExtension>
            <ns3:atemp>19.0</ns3:atemp>
            <ns3:hr>132</ns3:hr>
          </ns3:TrackPointExtension>
        </extensions>
      </trkpt>
      <trkpt lat="-22.090702950954437255859375" lon="166.4483761601150035858154296875">
        <ele>651.5999755859375</ele>
        <time>2016-08-12T22:43:03.000Z</time>
        <extensions>
          <ns3:TrackPointExtension>
            <ns3:atemp>19.0</ns3:atemp>
            <ns3:hr>132</ns3:hr>
          </ns3:TrackPointExtension>
        </extensions>
      </trkpt>
      <trkpt lat="-22.09073237143456935882568359375" lon="166.44836761057376861572265625">
        <ele>651.4000244140625</ele>
        <time>2016-08-12T22:43:04.000Z</time>
        <extensions>
          <ns3:TrackPointExtension>
            <ns3:atemp>19.0</ns3:atemp>
            <ns3:hr>132</ns3:hr>
          </ns3:TrackPointExtension>
        </extensions>
      </trkpt>
      <trkpt lat="-22.09075860679149627685546875" lon="166.44835931248962879180908203125">
        <ele>651.20001220703125</ele>
        <time>2016-08-12T22:43:05.000Z</time>
        <extensions>
          <ns3:TrackPointExtension>
            <ns3:atemp>19.0</ns3:atemp>
            <ns3:hr>132</ns3:hr>
          </ns3:TrackPointExtension>
        </extensions>
      </trkpt>
      <trkpt lat="-22.09078568033874034881591796875" lon="166.448355875909328460693359375">
        <ele>650.79998779296875</ele>
        <time>2016-08-12T22:43:06.000Z</time>
        <extensions>
          <ns3:TrackPointExtension>
            <ns3:atemp>19.0</ns3:atemp>
            <ns3:hr>132</ns3:hr>
          </ns3:TrackPointExtension>
        </extensions>
      </trkpt>
      <trkpt lat="-22.0908110775053501129150390625" lon="166.44835009239614009857177734375">
        <ele>650.4000244140625</ele>
        <time>2016-08-12T22:43:07.000Z</time>
        <extensions>
          <ns3:TrackPointExtension>
            <ns3:atemp>19.0</ns3:atemp>
            <ns3:hr>133</ns3:hr>
          </ns3:TrackPointExtension>
        </extensions>
      </trkpt>
      <trkpt lat="-22.0908318646252155303955078125" lon="166.44834774546325206756591796875">
        <ele>650.20001220703125</ele>
        <time>2016-08-12T22:43:08.000Z</time>
        <extensions>
          <ns3:TrackPointExtension>
            <ns3:atemp>19.0</ns3:atemp>
            <ns3:hr>132</ns3:hr>
          </ns3:TrackPointExtension>
        </extensions>
      </trkpt>
      <trkpt lat="-22.09085139445960521697998046875" lon="166.44834439270198345184326171875">
        <ele>650.20001220703125</ele>
        <time>2016-08-12T22:43:09.000Z</time>
        <extensions>
          <ns3:TrackPointExtension>
            <ns3:atemp>19.0</ns3:atemp>
            <ns3:hr>133</ns3:hr>
          </ns3:TrackPointExtension>
        </extensions>
      </trkpt>
      <trkpt lat="-22.09087084047496318817138671875" lon="166.4483433030545711517333984375">
        <ele>650.20001220703125</ele>
        <time>2016-08-12T22:43:10.000Z</time>
        <extensions>
          <ns3:TrackPointExtension>
            <ns3:atemp>19.0</ns3:atemp>
            <ns3:hr>132</ns3:hr>
          </ns3:TrackPointExtension>
        </extensions>
      </trkpt>
      <trkpt lat="-22.09089263342320919036865234375" lon="166.44834321923553943634033203125">
        <ele>650.4000244140625</ele>
        <time>2016-08-12T22:43:11.000Z</time>
        <extensions>
          <ns3:TrackPointExtension>
            <ns3:atemp>19.0</ns3:atemp>
            <ns3:hr>132</ns3:hr>
          </ns3:TrackPointExtension>
        </extensions>
      </trkpt>
      <trkpt lat="-22.0909213833510875701904296875" lon="166.4483419619500637054443359375">
        <ele>650.20001220703125</ele>
        <time>2016-08-12T22:43:12.000Z</time>
        <extensions>
          <ns3:TrackPointExtension>
            <ns3:atemp>19.0</ns3:atemp>
            <ns3:hr>132</ns3:hr>
          </ns3:TrackPointExtension>
        </extensions>
      </trkpt>
      <trkpt lat="-22.0909488759934902191162109375" lon="166.44834020175039768218994140625">
        <ele>650.20001220703125</ele>
        <time>2016-08-12T22:43:13.000Z</time>
        <extensions>
          <ns3:TrackPointExtension>
            <ns3:atemp>19.0</ns3:atemp>
            <ns3:hr>132</ns3:hr>
          </ns3:TrackPointExtension>
        </extensions>
      </trkpt>
      <trkpt lat="-22.09097159095108509063720703125" lon="166.44834221340715885162353515625">
        <ele>650</ele>
        <time>2016-08-12T22:43:14.000Z</time>
        <extensions>
          <ns3:TrackPointExtension>
            <ns3:atemp>19.0</ns3:atemp>
            <ns3:hr>132</ns3:hr>
          </ns3:TrackPointExtension>
        </extensions>
      </trkpt>
      <trkpt lat="-22.090998329222202301025390625" lon="166.4483360946178436279296875">
        <ele>649.5999755859375</ele>
        <time>2016-08-12T22:43:15.000Z</time>
        <extensions>
          <ns3:TrackPointExtension>
            <ns3:atemp>19.0</ns3:atemp>
            <ns3:hr>132</ns3:hr>
          </ns3:TrackPointExtension>
        </extensions>
      </trkpt>
      <trkpt lat="-22.09102624095976352691650390625" lon="166.448333077132701873779296875">
        <ele>649.20001220703125</ele>
        <time>2016-08-12T22:43:16.000Z</time>
        <extensions>
          <ns3:TrackPointExtension>
            <ns3:atemp>19.0</ns3:atemp>
            <ns3:hr>132</ns3:hr>
          </ns3:TrackPointExtension>
        </extensions>
      </trkpt>
      <trkpt lat="-22.09105633199214935302734375" lon="166.44833005964756011962890625">
        <ele>649.20001220703125</ele>
        <time>2016-08-12T22:43:17.000Z</time>
        <extensions>
          <ns3:TrackPointExtension>
            <ns3:atemp>19.0</ns3:atemp>
            <ns3:hr>132</ns3:hr>
          </ns3:TrackPointExtension>
        </extensions>
      </trkpt>
      <trkpt lat="-22.09108826704323291778564453125" lon="166.44832980819046497344970703125">
        <ele>648.79998779296875</ele>
        <time>2016-08-12T22:43:18.000Z</time>
        <extensions>
          <ns3:TrackPointExtension>
            <ns3:atemp>19.0</ns3:atemp>
            <ns3:hr>132</ns3:hr>
          </ns3:TrackPointExtension>
        </extensions>
      </trkpt>
      <trkpt lat="-22.09112229757010936737060546875" lon="166.448331736028194427490234375">
        <ele>648.4000244140625</ele>
        <time>2016-08-12T22:43:19.000Z</time>
        <extensions>
          <ns3:TrackPointExtension>
            <ns3:atemp>19.0</ns3:atemp>
            <ns3:hr>132</ns3:hr>
          </ns3:TrackPointExtension>
        </extensions>
      </trkpt>
      <trkpt lat="-22.09115465171635150909423828125" lon="166.448329389095306396484375">
        <ele>648.4000244140625</ele>
        <time>2016-08-12T22:43:20.000Z</time>
        <extensions>
          <ns3:TrackPointExtension>
            <ns3:atemp>19.0</ns3:atemp>
            <ns3:hr>132</ns3:hr>
          </ns3:TrackPointExtension>
        </extensions>
      </trkpt>
      <trkpt lat="-22.0911832340061664581298828125" lon="166.44832829944789409637451171875">
        <ele>648.4000244140625</ele>
        <time>2016-08-12T22:43:21.000Z</time>
        <extensions>
          <ns3:TrackPointExtension>
            <ns3:atemp>19.0</ns3:atemp>
            <ns3:hr>132</ns3:hr>
          </ns3:TrackPointExtension>
        </extensions>
      </trkpt>
      <trkpt lat="-22.0912087149918079376220703125" lon="166.448327042162418365478515625">
        <ele>648.20001220703125</ele>
        <time>2016-08-12T22:43:22.000Z</time>
        <extensions>
          <ns3:TrackPointExtension>
            <ns3:atemp>19.0</ns3:atemp>
            <ns3:hr>131</ns3:hr>
          </ns3:TrackPointExtension>
        </extensions>
      </trkpt>
      <trkpt lat="-22.0912331901490688323974609375" lon="166.44832762889564037322998046875">
        <ele>647.79998779296875</ele>
        <time>2016-08-12T22:43:23.000Z</time>
        <extensions>
          <ns3:TrackPointExtension>
            <ns3:atemp>19.0</ns3:atemp>
            <ns3:hr>131</ns3:hr>
          </ns3:TrackPointExtension>
        </extensions>
      </trkpt>
      <trkpt lat="-22.09126043133437633514404296875" lon="166.4483292214572429656982421875">
        <ele>647.5999755859375</ele>
        <time>2016-08-12T22:43:24.000Z</time>
        <extensions>
          <ns3:TrackPointExtension>
            <ns3:atemp>19.0</ns3:atemp>
            <ns3:hr>132</ns3:hr>
          </ns3:TrackPointExtension>
        </extensions>
      </trkpt>
      <trkpt lat="-22.0912818051874637603759765625" lon="166.44832762889564037322998046875">
        <ele>647.5999755859375</ele>
        <time>2016-08-12T22:43:25.000Z</time>
        <extensions>
          <ns3:TrackPointExtension>
            <ns3:atemp>19.0</ns3:atemp>
            <ns3:hr>131</ns3:hr>
          </ns3:TrackPointExtension>
        </extensions>
      </trkpt>
      <trkpt lat="-22.0913056097924709320068359375" lon="166.4483312331140041351318359375">
        <ele>647.20001220703125</ele>
        <time>2016-08-12T22:43:26.000Z</time>
        <extensions>
          <ns3:TrackPointExtension>
            <ns3:atemp>19.0</ns3:atemp>
            <ns3:hr>132</ns3:hr>
          </ns3:TrackPointExtension>
        </extensions>
      </trkpt>
      <trkpt lat="-22.09132765419781208038330078125" lon="166.44832746125757694244384765625">
        <ele>646.5999755859375</ele>
        <time>2016-08-12T22:43:27.000Z</time>
        <extensions>
          <ns3:TrackPointExtension>
            <ns3:atemp>19.0</ns3:atemp>
            <ns3:hr>131</ns3:hr>
          </ns3:TrackPointExtension>
        </extensions>
      </trkpt>
      <trkpt lat="-22.09134927950799465179443359375" lon="166.448321677744388580322265625">
        <ele>646.5999755859375</ele>
        <time>2016-08-12T22:43:28.000Z</time>
        <extensions>
          <ns3:TrackPointExtension>
            <ns3:atemp>20.0</ns3:atemp>
            <ns3:hr>131</ns3:hr>
          </ns3:TrackPointExtension>
        </extensions>
      </trkpt>
      <trkpt lat="-22.0913689769804477691650390625" lon="166.448316983878612518310546875">
        <ele>646.5999755859375</ele>
        <time>2016-08-12T22:43:29.000Z</time>
        <extensions>
          <ns3:TrackPointExtension>
            <ns3:atemp>20.0</ns3:atemp>
            <ns3:hr>131</ns3:hr>
          </ns3:TrackPointExtension>
        </extensions>
      </trkpt>
      <trkpt lat="-22.09138750098645687103271484375" lon="166.4483101107180118560791015625">
        <ele>646.5999755859375</ele>
        <time>2016-08-12T22:43:30.000Z</time>
        <extensions>
          <ns3:TrackPointExtension>
            <ns3:atemp>20.0</ns3:atemp>
            <ns3:hr>131</ns3:hr>
          </ns3:TrackPointExtension>
        </extensions>
      </trkpt>
      <trkpt lat="-22.0914135687053203582763671875" lon="166.44830533303320407867431640625">
        <ele>646.4000244140625</ele>
        <time>2016-08-12T22:43:31.000Z</time>
        <extensions>
          <ns3:TrackPointExtension>
            <ns3:atemp>20.0</ns3:atemp>
            <ns3:hr>131</ns3:hr>
          </ns3:TrackPointExtension>
        </extensions>
      </trkpt>
      <trkpt lat="-22.0914380438625812530517578125" lon="166.448303572833538055419921875">
        <ele>646.4000244140625</ele>
        <time>2016-08-12T22:43:32.000Z</time>
        <extensions>
          <ns3:TrackPointExtension>
            <ns3:atemp>20.0</ns3:atemp>
            <ns3:hr>130</ns3:hr>
          </ns3:TrackPointExtension>
        </extensions>
      </trkpt>
      <trkpt lat="-22.09146159701049327850341796875" lon="166.44830114208161830902099609375">
        <ele>646.4000244140625</ele>
        <time>2016-08-12T22:43:33.000Z</time>
        <extensions>
          <ns3:TrackPointExtension>
            <ns3:atemp>20.0</ns3:atemp>
            <ns3:hr>130</ns3:hr>
          </ns3:TrackPointExtension>
        </extensions>
      </trkpt>
      <trkpt lat="-22.0914883352816104888916015625" lon="166.4483020640909671783447265625">
        <ele>646</ele>
        <time>2016-08-12T22:43:34.000Z</time>
        <extensions>
          <ns3:TrackPointExtension>
            <ns3:atemp>20.0</ns3:atemp>
            <ns3:hr>130</ns3:hr>
          </ns3:TrackPointExtension>
        </extensions>
      </trkpt>
      <trkpt lat="-22.09151322953402996063232421875" lon="166.4483007229864597320556640625">
        <ele>645.4000244140625</ele>
        <time>2016-08-12T22:43:35.000Z</time>
        <extensions>
          <ns3:TrackPointExtension>
            <ns3:atemp>20.0</ns3:atemp>
            <ns3:hr>130</ns3:hr>
          </ns3:TrackPointExtension>
        </extensions>
      </trkpt>
      <trkpt lat="-22.09153912961483001708984375" lon="166.4482990466058254241943359375">
        <ele>645.4000244140625</ele>
        <time>2016-08-12T22:43:36.000Z</time>
        <extensions>
          <ns3:TrackPointExtension>
            <ns3:atemp>20.0</ns3:atemp>
            <ns3:hr>130</ns3:hr>
          </ns3:TrackPointExtension>
        </extensions>
      </trkpt>
      <trkpt lat="-22.09156067110598087310791015625" lon="166.44829946570098400115966796875">
        <ele>645.4000244140625</ele>
        <time>2016-08-12T22:43:37.000Z</time>
        <extensions>
          <ns3:TrackPointExtension>
            <ns3:atemp>20.0</ns3:atemp>
            <ns3:hr>130</ns3:hr>
          </ns3:TrackPointExtension>
        </extensions>
      </trkpt>
      <trkpt lat="-22.09158003330230712890625" lon="166.44830047152936458587646484375">
        <ele>645.20001220703125</ele>
        <time>2016-08-12T22:43:38.000Z</time>
        <extensions>
          <ns3:TrackPointExtension>
            <ns3:atemp>20.0</ns3:atemp>
            <ns3:hr>130</ns3:hr>
          </ns3:TrackPointExtension>
        </extensions>
      </trkpt>
      <trkpt lat="-22.09159637801349163055419921875" lon="166.448307596147060394287109375">
        <ele>645</ele>
        <time>2016-08-12T22:43:39.000Z</time>
        <extensions>
          <ns3:TrackPointExtension>
            <ns3:atemp>20.0</ns3:atemp>
            <ns3:hr>130</ns3:hr>
          </ns3:TrackPointExtension>
        </extensions>
      </trkpt>
      <trkpt lat="-22.0916117168962955474853515625" lon="166.44830566830933094024658203125">
        <ele>644.79998779296875</ele>
        <time>2016-08-12T22:43:40.000Z</time>
        <extensions>
          <ns3:TrackPointExtension>
            <ns3:atemp>20.0</ns3:atemp>
            <ns3:hr>130</ns3:hr>
          </ns3:TrackPointExtension>
        </extensions>
      </trkpt>
      <trkpt lat="-22.0916392095386981964111328125" lon="166.4483044110238552093505859375">
        <ele>644.5999755859375</ele>
        <time>2016-08-12T22:43:41.000Z</time>
        <extensions>
          <ns3:TrackPointExtension>
            <ns3:atemp>20.0</ns3:atemp>
            <ns3:hr>130</ns3:hr>
          </ns3:TrackPointExtension>
        </extensions>
      </trkpt>
      <trkpt lat="-22.09165706299245357513427734375" lon="166.44830114208161830902099609375">
        <ele>644.4000244140625</ele>
        <time>2016-08-12T22:43:42.000Z</time>
        <extensions>
          <ns3:TrackPointExtension>
            <ns3:atemp>20.0</ns3:atemp>
            <ns3:hr>130</ns3:hr>
          </ns3:TrackPointExtension>
        </extensions>
      </trkpt>
      <trkpt lat="-22.09167751483619213104248046875" lon="166.4482987113296985626220703125">
        <ele>643.79998779296875</ele>
        <time>2016-08-12T22:43:43.000Z</time>
        <extensions>
          <ns3:TrackPointExtension>
            <ns3:atemp>20.0</ns3:atemp>
            <ns3:hr>130</ns3:hr>
          </ns3:TrackPointExtension>
        </extensions>
      </trkpt>
      <trkpt lat="-22.09170433692634105682373046875" lon="166.448297202587127685546875">
        <ele>643.5999755859375</ele>
        <time>2016-08-12T22:43:44.000Z</time>
        <extensions>
          <ns3:TrackPointExtension>
            <ns3:atemp>20.0</ns3:atemp>
            <ns3:hr>130</ns3:hr>
          </ns3:TrackPointExtension>
        </extensions>
      </trkpt>
      <trkpt lat="-22.09173065610229969024658203125" lon="166.448300220072269439697265625">
        <ele>643.5999755859375</ele>
        <time>2016-08-12T22:43:45.000Z</time>
        <extensions>
          <ns3:TrackPointExtension>
            <ns3:atemp>20.0</ns3:atemp>
            <ns3:hr>130</ns3:hr>
          </ns3:TrackPointExtension>
        </extensions>
      </trkpt>
      <trkpt lat="-22.09175010211765766143798828125" lon="166.44830348901450634002685546875">
        <ele>643.20001220703125</ele>
        <time>2016-08-12T22:43:46.000Z</time>
        <extensions>
          <ns3:TrackPointExtension>
            <ns3:atemp>20.0</ns3:atemp>
            <ns3:hr>129</ns3:hr>
          </ns3:TrackPointExtension>
        </extensions>
      </trkpt>
      <trkpt lat="-22.0917723141610622406005859375" lon="166.4483050815761089324951171875">
        <ele>642.79998779296875</ele>
        <time>2016-08-12T22:43:47.000Z</time>
        <extensions>
          <ns3:TrackPointExtension>
            <ns3:atemp>20.0</ns3:atemp>
            <ns3:hr>130</ns3:hr>
          </ns3:TrackPointExtension>
        </extensions>
      </trkpt>
      <trkpt lat="-22.0917924307286739349365234375" lon="166.4483087696135044097900390625">
        <ele>642.79998779296875</ele>
        <time>2016-08-12T22:43:48.000Z</time>
        <extensions>
          <ns3:TrackPointExtension>
            <ns3:atemp>20.0</ns3:atemp>
            <ns3:hr>129</ns3:hr>
          </ns3:TrackPointExtension>
        </extensions>
      </trkpt>
      <trkpt lat="-22.091813385486602783203125" lon="166.44830801524221897125244140625">
        <ele>642.79998779296875</ele>
        <time>2016-08-12T22:43:49.000Z</time>
        <extensions>
          <ns3:TrackPointExtension>
            <ns3:atemp>20.0</ns3:atemp>
            <ns3:hr>130</ns3:hr>
          </ns3:TrackPointExtension>
        </extensions>
      </trkpt>
      <trkpt lat="-22.09183610044419765472412109375" lon="166.448307596147060394287109375">
        <ele>642.79998779296875</ele>
        <time>2016-08-12T22:43:50.000Z</time>
        <extensions>
          <ns3:TrackPointExtension>
            <ns3:atemp>20.0</ns3:atemp>
            <ns3:hr>129</ns3:hr>
          </ns3:TrackPointExtension>
        </extensions>
      </trkpt>
      <trkpt lat="-22.091857977211475372314453125" lon="166.4483121223747730255126953125">
        <ele>642.5999755859375</ele>
        <time>2016-08-12T22:43:51.000Z</time>
        <extensions>
          <ns3:TrackPointExtension>
            <ns3:atemp>20.0</ns3:atemp>
            <ns3:hr>129</ns3:hr>
          </ns3:TrackPointExtension>
        </extensions>
      </trkpt>
      <trkpt lat="-22.09188337437808513641357421875" lon="166.44832109101116657257080078125">
        <ele>642.4000244140625</ele>
        <time>2016-08-12T22:43:52.000Z</time>
        <extensions>
          <ns3:TrackPointExtension>
            <ns3:atemp>20.0</ns3:atemp>
            <ns3:hr>130</ns3:hr>
          </ns3:TrackPointExtension>
        </extensions>
      </trkpt>
      <trkpt lat="-22.09190751425921916961669921875" lon="166.448328383266925811767578125">
        <ele>642.20001220703125</ele>
        <time>2016-08-12T22:43:53.000Z</time>
        <extensions>
          <ns3:TrackPointExtension>
            <ns3:atemp>20.0</ns3:atemp>
            <ns3:hr>129</ns3:hr>
          </ns3:TrackPointExtension>
        </extensions>
      </trkpt>
      <trkpt lat="-22.09194104187190532684326171875" lon="166.44832695834338665008544921875">
        <ele>642.20001220703125</ele>
        <time>2016-08-12T22:43:54.000Z</time>
        <extensions>
          <ns3:TrackPointExtension>
            <ns3:atemp>20.0</ns3:atemp>
            <ns3:hr>130</ns3:hr>
          </ns3:TrackPointExtension>
        </extensions>
      </trkpt>
      <trkpt lat="-22.09196601994335651397705078125" lon="166.4483228512108325958251953125">
        <ele>642.20001220703125</ele>
        <time>2016-08-12T22:43:55.000Z</time>
        <extensions>
          <ns3:TrackPointExtension>
            <ns3:atemp>20.0</ns3:atemp>
            <ns3:hr>130</ns3:hr>
          </ns3:TrackPointExtension>
        </extensions>
      </trkpt>
      <trkpt lat="-22.0919909141957759857177734375" lon="166.44832327030599117279052734375">
        <ele>642.4000244140625</ele>
        <time>2016-08-12T22:43:56.000Z</time>
        <extensions>
          <ns3:TrackPointExtension>
            <ns3:atemp>20.0</ns3:atemp>
            <ns3:hr>130</ns3:hr>
          </ns3:TrackPointExtension>
        </extensions>
      </trkpt>
      <trkpt lat="-22.0920237712562084197998046875" lon="166.44831555895507335662841796875">
        <ele>642.20001220703125</ele>
        <time>2016-08-12T22:43:57.000Z</time>
        <extensions>
          <ns3:TrackPointExtension>
            <ns3:atemp>20.0</ns3:atemp>
            <ns3:hr>130</ns3:hr>
          </ns3:TrackPointExtension>
        </extensions>
      </trkpt>
      <trkpt lat="-22.0920519344508647918701171875" lon="166.44831128418445587158203125">
        <ele>642</ele>
        <time>2016-08-12T22:43:58.000Z</time>
        <extensions>
          <ns3:TrackPointExtension>
            <ns3:atemp>20.0</ns3:atemp>
            <ns3:hr>130</ns3:hr>
          </ns3:TrackPointExtension>
        </extensions>
      </trkpt>
      <trkpt lat="-22.0920789241790771484375" lon="166.44830332137644290924072265625">
        <ele>641.79998779296875</ele>
        <time>2016-08-12T22:43:59.000Z</time>
        <extensions>
          <ns3:TrackPointExtension>
            <ns3:atemp>20.0</ns3:atemp>
            <ns3:hr>131</ns3:hr>
          </ns3:TrackPointExtension>
        </extensions>
      </trkpt>
      <trkpt lat="-22.0921126194298267364501953125" lon="166.4482943527400493621826171875">
        <ele>642</ele>
        <time>2016-08-12T22:44:00.000Z</time>
        <extensions>
          <ns3:TrackPointExtension>
            <ns3:atemp>20.0</ns3:atemp>
            <ns3:hr>131</ns3:hr>
          </ns3:TrackPointExtension>
        </extensions>
      </trkpt>
      <trkpt lat="-22.09216408431529998779296875" lon="166.4482832886278629302978515625">
        <ele>642</ele>
        <time>2016-08-12T22:44:01.000Z</time>
        <extensions>
          <ns3:TrackPointExtension>
            <ns3:atemp>20.0</ns3:atemp>
            <ns3:hr>131</ns3:hr>
          </ns3:TrackPointExtension>
        </extensions>
      </trkpt>
      <trkpt lat="-22.09218746982514858245849609375" lon="166.448265351355075836181640625">
        <ele>642</ele>
        <time>2016-08-12T22:44:02.000Z</time>
        <extensions>
          <ns3:TrackPointExtension>
            <ns3:atemp>20.0</ns3:atemp>
            <ns3:hr>131</ns3:hr>
          </ns3:TrackPointExtension>
        </extensions>
      </trkpt>
      <trkpt lat="-22.092217393219470977783203125" lon="166.44824934192001819610595703125">
        <ele>642.20001220703125</ele>
        <time>2016-08-12T22:44:03.000Z</time>
        <extensions>
          <ns3:TrackPointExtension>
            <ns3:atemp>20.0</ns3:atemp>
            <ns3:hr>131</ns3:hr>
          </ns3:TrackPointExtension>
        </extensions>
      </trkpt>
      <trkpt lat="-22.09225921891629695892333984375" lon="166.44824012182652950286865234375">
        <ele>642</ele>
        <time>2016-08-12T22:44:04.000Z</time>
        <extensions>
          <ns3:TrackPointExtension>
            <ns3:atemp>20.0</ns3:atemp>
            <ns3:hr>132</ns3:hr>
          </ns3:TrackPointExtension>
        </extensions>
      </trkpt>
      <trkpt lat="-22.0922805927693843841552734375" lon="166.4482226036489009857177734375">
        <ele>642</ele>
        <time>2016-08-12T22:44:05.000Z</time>
        <extensions>
          <ns3:TrackPointExtension>
            <ns3:atemp>20.0</ns3:atemp>
            <ns3:hr>132</ns3:hr>
          </ns3:TrackPointExtension>
        </extensions>
      </trkpt>
      <trkpt lat="-22.0923070795834064483642578125" lon="166.448215059936046600341796875">
        <ele>642</ele>
        <time>2016-08-12T22:44:06.000Z</time>
        <extensions>
          <ns3:TrackPointExtension>
            <ns3:atemp>20.0</ns3:atemp>
            <ns3:hr>132</ns3:hr>
          </ns3:TrackPointExtension>
        </extensions>
      </trkpt>
      <trkpt lat="-22.0923379249870777130126953125" lon="166.44820667803287506103515625">
        <ele>642</ele>
        <time>2016-08-12T22:44:07.000Z</time>
        <extensions>
          <ns3:TrackPointExtension>
            <ns3:atemp>20.0</ns3:atemp>
            <ns3:hr>132</ns3:hr>
          </ns3:TrackPointExtension>
        </extensions>
      </trkpt>
      <trkpt lat="-22.09237463772296905517578125" lon="166.44819837994873523712158203125">
        <ele>642</ele>
        <time>2016-08-12T22:44:08.000Z</time>
        <extensions>
          <ns3:TrackPointExtension>
            <ns3:atemp>20.0</ns3:atemp>
            <ns3:hr>132</ns3:hr>
          </ns3:TrackPointExtension>
        </extensions>
      </trkpt>
      <trkpt lat="-22.09240322001278400421142578125" lon="166.4481917582452297210693359375">
        <ele>641.79998779296875</ele>
        <time>2016-08-12T22:44:09.000Z</time>
        <extensions>
          <ns3:TrackPointExtension>
            <ns3:atemp>20.0</ns3:atemp>
            <ns3:hr>132</ns3:hr>
          </ns3:TrackPointExtension>
        </extensions>
      </trkpt>
      <trkpt lat="-22.092429958283901214599609375" lon="166.4481843821704387664794921875">
        <ele>641.5999755859375</ele>
        <time>2016-08-12T22:44:10.000Z</time>
        <extensions>
          <ns3:TrackPointExtension>
            <ns3:atemp>20.0</ns3:atemp>
            <ns3:hr>132</ns3:hr>
          </ns3:TrackPointExtension>
        </extensions>
      </trkpt>
      <trkpt lat="-22.09245636127889156341552734375" lon="166.4481743238866329193115234375">
        <ele>641.4000244140625</ele>
        <time>2016-08-12T22:44:11.000Z</time>
        <extensions>
          <ns3:TrackPointExtension>
            <ns3:atemp>20.0</ns3:atemp>
            <ns3:hr>132</ns3:hr>
          </ns3:TrackPointExtension>
        </extensions>
      </trkpt>
      <trkpt lat="-22.09247983060777187347412109375" lon="166.44816284067928791046142578125">
        <ele>641.20001220703125</ele>
        <time>2016-08-12T22:44:12.000Z</time>
        <extensions>
          <ns3:TrackPointExtension>
            <ns3:atemp>20.0</ns3:atemp>
            <ns3:hr>132</ns3:hr>
          </ns3:TrackPointExtension>
        </extensions>
      </trkpt>
      <trkpt lat="-22.092506401240825653076171875" lon="166.44815881736576557159423828125">
        <ele>641.20001220703125</ele>
        <time>2016-08-12T22:44:13.000Z</time>
        <extensions>
          <ns3:TrackPointExtension>
            <ns3:atemp>20.0</ns3:atemp>
            <ns3:hr>132</ns3:hr>
          </ns3:TrackPointExtension>
        </extensions>
      </trkpt>
      <trkpt lat="-22.092533223330974578857421875" lon="166.4481589011847972869873046875">
        <ele>641.20001220703125</ele>
        <time>2016-08-12T22:44:14.000Z</time>
        <extensions>
          <ns3:TrackPointExtension>
            <ns3:atemp>20.0</ns3:atemp>
            <ns3:hr>133</ns3:hr>
          </ns3:TrackPointExtension>
        </extensions>
      </trkpt>
      <trkpt lat="-22.092554010450839996337890625" lon="166.4481639303267002105712890625">
        <ele>641</ele>
        <time>2016-08-12T22:44:15.000Z</time>
        <extensions>
          <ns3:TrackPointExtension>
            <ns3:atemp>20.0</ns3:atemp>
            <ns3:hr>133</ns3:hr>
          </ns3:TrackPointExtension>
        </extensions>
      </trkpt>
      <trkpt lat="-22.0925764739513397216796875" lon="166.4481676183640956878662109375">
        <ele>641</ele>
        <time>2016-08-12T22:44:16.000Z</time>
        <extensions>
          <ns3:TrackPointExtension>
            <ns3:atemp>20.0</ns3:atemp>
            <ns3:hr>133</ns3:hr>
          </ns3:TrackPointExtension>
        </extensions>
      </trkpt>
      <trkpt lat="-22.09259751252830028533935546875" lon="166.44817088730633258819580078125">
        <ele>641</ele>
        <time>2016-08-12T22:44:17.000Z</time>
        <extensions>
          <ns3:TrackPointExtension>
            <ns3:atemp>20.0</ns3:atemp>
            <ns3:hr>133</ns3:hr>
          </ns3:TrackPointExtension>
        </extensions>
      </trkpt>
      <trkpt lat="-22.092616371810436248779296875" lon="166.44817541353404521942138671875">
        <ele>640.79998779296875</ele>
        <time>2016-08-12T22:44:18.000Z</time>
        <extensions>
          <ns3:TrackPointExtension>
            <ns3:atemp>20.0</ns3:atemp>
            <ns3:hr>133</ns3:hr>
          </ns3:TrackPointExtension>
        </extensions>
      </trkpt>
      <trkpt lat="-22.09263271652162075042724609375" lon="166.44817273132503032684326171875">
        <ele>640.79998779296875</ele>
        <time>2016-08-12T22:44:19.000Z</time>
        <extensions>
          <ns3:TrackPointExtension>
            <ns3:atemp>20.0</ns3:atemp>
            <ns3:hr>133</ns3:hr>
          </ns3:TrackPointExtension>
        </extensions>
      </trkpt>
      <trkpt lat="-22.09265652112662792205810546875" lon="166.44817641936242580413818359375">
        <ele>640.4000244140625</ele>
        <time>2016-08-12T22:44:20.000Z</time>
        <extensions>
          <ns3:TrackPointExtension>
            <ns3:atemp>20.0</ns3:atemp>
            <ns3:hr>133</ns3:hr>
          </ns3:TrackPointExtension>
        </extensions>
      </trkpt>
      <trkpt lat="-22.092678062617778778076171875" lon="166.44818429835140705108642578125">
        <ele>640</ele>
        <time>2016-08-12T22:44:21.000Z</time>
        <extensions>
          <ns3:TrackPointExtension>
            <ns3:atemp>20.0</ns3:atemp>
            <ns3:hr>133</ns3:hr>
          </ns3:TrackPointExtension>
        </extensions>
      </trkpt>
      <trkpt lat="-22.09270044229924678802490234375" lon="166.44819234497845172882080078125">
        <ele>639.79998779296875</ele>
        <time>2016-08-12T22:44:22.000Z</time>
        <extensions>
          <ns3:TrackPointExtension>
            <ns3:atemp>20.0</ns3:atemp>
            <ns3:hr>133</ns3:hr>
          </ns3:TrackPointExtension>
        </extensions>
      </trkpt>
      <trkpt lat="-22.09272106178104877471923828125" lon="166.44820022396743297576904296875">
        <ele>639.79998779296875</ele>
        <time>2016-08-12T22:44:23.000Z</time>
        <extensions>
          <ns3:TrackPointExtension>
            <ns3:atemp>20.0</ns3:atemp>
            <ns3:hr>133</ns3:hr>
          </ns3:TrackPointExtension>
        </extensions>
      </trkpt>
      <trkpt lat="-22.0927412621676921844482421875" lon="166.44820290617644786834716796875">
        <ele>639.5999755859375</ele>
        <time>2016-08-12T22:44:24.000Z</time>
        <extensions>
          <ns3:TrackPointExtension>
            <ns3:atemp>20.0</ns3:atemp>
            <ns3:hr>133</ns3:hr>
          </ns3:TrackPointExtension>
        </extensions>
      </trkpt>
      <trkpt lat="-22.092765234410762786865234375" lon="166.44820625893771648406982421875">
        <ele>639.5999755859375</ele>
        <time>2016-08-12T22:44:25.000Z</time>
        <extensions>
          <ns3:TrackPointExtension>
            <ns3:atemp>20.0</ns3:atemp>
            <ns3:hr>133</ns3:hr>
          </ns3:TrackPointExtension>
        </extensions>
      </trkpt>
      <trkpt lat="-22.0927895419299602508544921875" lon="166.4482105337083339691162109375">
        <ele>639.5999755859375</ele>
        <time>2016-08-12T22:44:26.000Z</time>
        <extensions>
          <ns3:TrackPointExtension>
            <ns3:atemp>20.0</ns3:atemp>
            <ns3:hr>133</ns3:hr>
          </ns3:TrackPointExtension>
        </extensions>
      </trkpt>
      <trkpt lat="-22.09281460382044315338134765625" lon="166.44821614958345890045166015625">
        <ele>639.20001220703125</ele>
        <time>2016-08-12T22:44:27.000Z</time>
        <extensions>
          <ns3:TrackPointExtension>
            <ns3:atemp>20.0</ns3:atemp>
            <ns3:hr>133</ns3:hr>
          </ns3:TrackPointExtension>
        </extensions>
      </trkpt>
      <trkpt lat="-22.092841677367687225341796875" lon="166.44822201691567897796630859375">
        <ele>639</ele>
        <time>2016-08-12T22:44:28.000Z</time>
        <extensions>
          <ns3:TrackPointExtension>
            <ns3:atemp>20.0</ns3:atemp>
            <ns3:hr>133</ns3:hr>
          </ns3:TrackPointExtension>
        </extensions>
      </trkpt>
      <trkpt lat="-22.0928747020661830902099609375" lon="166.4482340030372142791748046875">
        <ele>639</ele>
        <time>2016-08-12T22:44:29.000Z</time>
        <extensions>
          <ns3:TrackPointExtension>
            <ns3:atemp>20.0</ns3:atemp>
            <ns3:hr>133</ns3:hr>
          </ns3:TrackPointExtension>
        </extensions>
      </trkpt>
      <trkpt lat="-22.09290529601275920867919921875" lon="166.4482460729777812957763671875">
        <ele>639</ele>
        <time>2016-08-12T22:44:30.000Z</time>
        <extensions>
          <ns3:TrackPointExtension>
            <ns3:atemp>20.0</ns3:atemp>
            <ns3:hr>132</ns3:hr>
          </ns3:TrackPointExtension>
        </extensions>
      </trkpt>
      <trkpt lat="-22.09293463267385959625244140625" lon="166.44825537689030170440673828125">
        <ele>638.79998779296875</ele>
        <time>2016-08-12T22:44:31.000Z</time>
        <extensions>
          <ns3:TrackPointExtension>
            <ns3:atemp>20.0</ns3:atemp>
            <ns3:hr>132</ns3:hr>
          </ns3:TrackPointExtension>
        </extensions>
      </trkpt>
      <trkpt lat="-22.0929622091352939605712890625" lon="166.448259986937046051025390625">
        <ele>638.5999755859375</ele>
        <time>2016-08-12T22:44:32.000Z</time>
        <extensions>
          <ns3:TrackPointExtension>
            <ns3:atemp>20.0</ns3:atemp>
            <ns3:hr>133</ns3:hr>
          </ns3:TrackPointExtension>
        </extensions>
      </trkpt>
      <trkpt lat="-22.0929876901209354400634765625" lon="166.448264010250568389892578125">
        <ele>638.5999755859375</ele>
        <time>2016-08-12T22:44:33.000Z</time>
        <extensions>
          <ns3:TrackPointExtension>
            <ns3:atemp>20.0</ns3:atemp>
            <ns3:hr>132</ns3:hr>
          </ns3:TrackPointExtension>
        </extensions>
      </trkpt>
      <trkpt lat="-22.0930121652781963348388671875" lon="166.448267363011837005615234375">
        <ele>638.20001220703125</ele>
        <time>2016-08-12T22:44:34.000Z</time>
        <extensions>
          <ns3:TrackPointExtension>
            <ns3:atemp>20.0</ns3:atemp>
            <ns3:hr>132</ns3:hr>
          </ns3:TrackPointExtension>
        </extensions>
      </trkpt>
      <trkpt lat="-22.0930416695773601531982421875" lon="166.44827448762953281402587890625">
        <ele>638</ele>
        <time>2016-08-12T22:44:35.000Z</time>
        <extensions>
          <ns3:TrackPointExtension>
            <ns3:atemp>20.0</ns3:atemp>
            <ns3:hr>132</ns3:hr>
          </ns3:TrackPointExtension>
        </extensions>
      </trkpt>
      <trkpt lat="-22.093068994581699371337890625" lon="166.448274068534374237060546875">
        <ele>637.79998779296875</ele>
        <time>2016-08-12T22:44:36.000Z</time>
        <extensions>
          <ns3:TrackPointExtension>
            <ns3:atemp>20.0</ns3:atemp>
            <ns3:hr>132</ns3:hr>
          </ns3:TrackPointExtension>
        </extensions>
      </trkpt>
      <trkpt lat="-22.09309640340507030487060546875" lon="166.44827180542051792144775390625">
        <ele>637.5999755859375</ele>
        <time>2016-08-12T22:44:37.000Z</time>
        <extensions>
          <ns3:TrackPointExtension>
            <ns3:atemp>20.0</ns3:atemp>
            <ns3:hr>132</ns3:hr>
          </ns3:TrackPointExtension>
        </extensions>
      </trkpt>
      <trkpt lat="-22.09311853162944316864013671875" lon="166.4482671953737735748291015625">
        <ele>637.4000244140625</ele>
        <time>2016-08-12T22:44:38.000Z</time>
        <extensions>
          <ns3:TrackPointExtension>
            <ns3:atemp>20.0</ns3:atemp>
            <ns3:hr>132</ns3:hr>
          </ns3:TrackPointExtension>
        </extensions>
      </trkpt>
      <trkpt lat="-22.0931449346244335174560546875" lon="166.448268704116344451904296875">
        <ele>637.20001220703125</ele>
        <time>2016-08-12T22:44:39.000Z</time>
        <extensions>
          <ns3:TrackPointExtension>
            <ns3:atemp>20.0</ns3:atemp>
            <ns3:hr>131</ns3:hr>
          </ns3:TrackPointExtension>
        </extensions>
      </trkpt>
      <trkpt lat="-22.0931697450578212738037109375" lon="166.4482675306499004364013671875">
        <ele>636.79998779296875</ele>
        <time>2016-08-12T22:44:40.000Z</time>
        <extensions>
          <ns3:TrackPointExtension>
            <ns3:atemp>20.0</ns3:atemp>
            <ns3:hr>131</ns3:hr>
          </ns3:TrackPointExtension>
        </extensions>
      </trkpt>
      <trkpt lat="-22.093199752271175384521484375" lon="166.448264010250568389892578125">
        <ele>636.5999755859375</ele>
        <time>2016-08-12T22:44:41.000Z</time>
        <extensions>
          <ns3:TrackPointExtension>
            <ns3:atemp>20.0</ns3:atemp>
            <ns3:hr>131</ns3:hr>
          </ns3:TrackPointExtension>
        </extensions>
      </trkpt>
      <trkpt lat="-22.09322967566549777984619140625" lon="166.44825495779514312744140625">
        <ele>636.4000244140625</ele>
        <time>2016-08-12T22:44:42.000Z</time>
        <extensions>
          <ns3:TrackPointExtension>
            <ns3:atemp>20.0</ns3:atemp>
            <ns3:hr>131</ns3:hr>
          </ns3:TrackPointExtension>
        </extensions>
      </trkpt>
      <trkpt lat="-22.09325985051691532135009765625" lon="166.44824716262519359588623046875">
        <ele>636.20001220703125</ele>
        <time>2016-08-12T22:44:43.000Z</time>
        <extensions>
          <ns3:TrackPointExtension>
            <ns3:atemp>20.0</ns3:atemp>
            <ns3:hr>131</ns3:hr>
          </ns3:TrackPointExtension>
        </extensions>
      </trkpt>
      <trkpt lat="-22.09328927099704742431640625" lon="166.448241211473941802978515625">
        <ele>636</ele>
        <time>2016-08-12T22:44:44.000Z</time>
        <extensions>
          <ns3:TrackPointExtension>
            <ns3:atemp>20.0</ns3:atemp>
            <ns3:hr>131</ns3:hr>
          </ns3:TrackPointExtension>
        </extensions>
      </trkpt>
      <trkpt lat="-22.09331600926816463470458984375" lon="166.44823609851300716400146484375">
        <ele>635.5999755859375</ele>
        <time>2016-08-12T22:44:45.000Z</time>
        <extensions>
          <ns3:TrackPointExtension>
            <ns3:atemp>20.0</ns3:atemp>
            <ns3:hr>131</ns3:hr>
          </ns3:TrackPointExtension>
        </extensions>
      </trkpt>
      <trkpt lat="-22.09334182552993297576904296875" lon="166.44823978655040264129638671875">
        <ele>635.4000244140625</ele>
        <time>2016-08-12T22:44:46.000Z</time>
        <extensions>
          <ns3:TrackPointExtension>
            <ns3:atemp>20.0</ns3:atemp>
            <ns3:hr>130</ns3:hr>
          </ns3:TrackPointExtension>
        </extensions>
      </trkpt>
      <trkpt lat="-22.0933695696294307708740234375" lon="166.44825051538646221160888671875">
        <ele>635.20001220703125</ele>
        <time>2016-08-12T22:44:47.000Z</time>
        <extensions>
          <ns3:TrackPointExtension>
            <ns3:atemp>20.0</ns3:atemp>
            <ns3:hr>131</ns3:hr>
          </ns3:TrackPointExtension>
        </extensions>
      </trkpt>
      <trkpt lat="-22.093393541872501373291015625" lon="166.4482651837170124053955078125">
        <ele>635</ele>
        <time>2016-08-12T22:44:48.000Z</time>
        <extensions>
          <ns3:TrackPointExtension>
            <ns3:atemp>20.0</ns3:atemp>
            <ns3:hr>130</ns3:hr>
          </ns3:TrackPointExtension>
        </extensions>
      </trkpt>
      <trkpt lat="-22.09341173060238361358642578125" lon="166.4482739008963108062744140625">
        <ele>634.79998779296875</ele>
        <time>2016-08-12T22:44:49.000Z</time>
        <extensions>
          <ns3:TrackPointExtension>
            <ns3:atemp>20.0</ns3:atemp>
            <ns3:hr>131</ns3:hr>
          </ns3:TrackPointExtension>
        </extensions>
      </trkpt>
      <trkpt lat="-22.09343335591256618499755859375" lon="166.44828856922686100006103515625">
        <ele>634.4000244140625</ele>
        <time>2016-08-12T22:44:50.000Z</time>
        <extensions>
          <ns3:TrackPointExtension>
            <ns3:atemp>20.0</ns3:atemp>
            <ns3:hr>130</ns3:hr>
          </ns3:TrackPointExtension>
        </extensions>
      </trkpt>
      <trkpt lat="-22.093453221023082733154296875" lon="166.44830164499580860137939453125">
        <ele>634.20001220703125</ele>
        <time>2016-08-12T22:44:51.000Z</time>
        <extensions>
          <ns3:TrackPointExtension>
            <ns3:atemp>20.0</ns3:atemp>
            <ns3:hr>130</ns3:hr>
          </ns3:TrackPointExtension>
        </extensions>
      </trkpt>
      <trkpt lat="-22.09347660653293132781982421875" lon="166.44830457866191864013671875">
        <ele>634</ele>
        <time>2016-08-12T22:44:52.000Z</time>
        <extensions>
          <ns3:TrackPointExtension>
            <ns3:atemp>20.0</ns3:atemp>
            <ns3:hr>130</ns3:hr>
          </ns3:TrackPointExtension>
        </extensions>
      </trkpt>
      <trkpt lat="-22.09349974058568477630615234375" lon="166.44831321202218532562255859375">
        <ele>633.79998779296875</ele>
        <time>2016-08-12T22:44:53.000Z</time>
        <extensions>
          <ns3:TrackPointExtension>
            <ns3:atemp>20.0</ns3:atemp>
            <ns3:hr>130</ns3:hr>
          </ns3:TrackPointExtension>
        </extensions>
      </trkpt>
      <trkpt lat="-22.09352119825780391693115234375" lon="166.44832746125757694244384765625">
        <ele>633.4000244140625</ele>
        <time>2016-08-12T22:44:54.000Z</time>
        <extensions>
          <ns3:TrackPointExtension>
            <ns3:atemp>20.0</ns3:atemp>
            <ns3:hr>130</ns3:hr>
          </ns3:TrackPointExtension>
        </extensions>
      </trkpt>
      <trkpt lat="-22.0935432426631450653076171875" lon="166.448340117931365966796875">
        <ele>633.20001220703125</ele>
        <time>2016-08-12T22:44:55.000Z</time>
        <extensions>
          <ns3:TrackPointExtension>
            <ns3:atemp>20.0</ns3:atemp>
            <ns3:hr>130</ns3:hr>
          </ns3:TrackPointExtension>
        </extensions>
      </trkpt>
      <trkpt lat="-22.093563862144947052001953125" lon="166.44834657199680805206298828125">
        <ele>632.79998779296875</ele>
        <time>2016-08-12T22:44:56.000Z</time>
        <extensions>
          <ns3:TrackPointExtension>
            <ns3:atemp>20.0</ns3:atemp>
            <ns3:hr>130</ns3:hr>
          </ns3:TrackPointExtension>
        </extensions>
      </trkpt>
      <trkpt lat="-22.0935895107686519622802734375" lon="166.448349840939044952392578125">
        <ele>632.20001220703125</ele>
        <time>2016-08-12T22:44:57.000Z</time>
        <extensions>
          <ns3:TrackPointExtension>
            <ns3:atemp>20.0</ns3:atemp>
            <ns3:hr>130</ns3:hr>
          </ns3:TrackPointExtension>
        </extensions>
      </trkpt>
      <trkpt lat="-22.09361406974494457244873046875" lon="166.44835679791867733001708984375">
        <ele>632</ele>
        <time>2016-08-12T22:44:58.000Z</time>
        <extensions>
          <ns3:TrackPointExtension>
            <ns3:atemp>20.0</ns3:atemp>
            <ns3:hr>130</ns3:hr>
          </ns3:TrackPointExtension>
        </extensions>
      </trkpt>
      <trkpt lat="-22.09363418631255626678466796875" lon="166.44836534745991230010986328125">
        <ele>631.79998779296875</ele>
        <time>2016-08-12T22:44:59.000Z</time>
        <extensions>
          <ns3:TrackPointExtension>
            <ns3:atemp>20.0</ns3:atemp>
            <ns3:hr>129</ns3:hr>
          </ns3:TrackPointExtension>
        </extensions>
      </trkpt>
      <trkpt lat="-22.09365715272724628448486328125" lon="166.4483724720776081085205078125">
        <ele>631.5999755859375</ele>
        <time>2016-08-12T22:45:00.000Z</time>
        <extensions>
          <ns3:TrackPointExtension>
            <ns3:atemp>20.0</ns3:atemp>
            <ns3:hr>129</ns3:hr>
          </ns3:TrackPointExtension>
        </extensions>
      </trkpt>
      <trkpt lat="-22.093681879341602325439453125" lon="166.44838294945657253265380859375">
        <ele>631.5999755859375</ele>
        <time>2016-08-12T22:45:01.000Z</time>
        <extensions>
          <ns3:TrackPointExtension>
            <ns3:atemp>20.0</ns3:atemp>
            <ns3:hr>129</ns3:hr>
          </ns3:TrackPointExtension>
        </extensions>
      </trkpt>
      <trkpt lat="-22.0937061868607997894287109375" lon="166.448394767940044403076171875">
        <ele>631</ele>
        <time>2016-08-12T22:45:02.000Z</time>
        <extensions>
          <ns3:TrackPointExtension>
            <ns3:atemp>20.0</ns3:atemp>
            <ns3:hr>129</ns3:hr>
          </ns3:TrackPointExtension>
        </extensions>
      </trkpt>
      <trkpt lat="-22.09372655488550662994384765625" lon="166.44840373657643795013427734375">
        <ele>631</ele>
        <time>2016-08-12T22:45:03.000Z</time>
        <extensions>
          <ns3:TrackPointExtension>
            <ns3:atemp>20.0</ns3:atemp>
            <ns3:hr>129</ns3:hr>
          </ns3:TrackPointExtension>
        </extensions>
      </trkpt>
      <trkpt lat="-22.09374382160604000091552734375" lon="166.4484207518398761749267578125">
        <ele>630.79998779296875</ele>
        <time>2016-08-12T22:45:04.000Z</time>
        <extensions>
          <ns3:TrackPointExtension>
            <ns3:atemp>20.0</ns3:atemp>
            <ns3:hr>129</ns3:hr>
          </ns3:TrackPointExtension>
        </extensions>
      </trkpt>
      <trkpt lat="-22.09376058541238307952880859375" lon="166.4484385214745998382568359375">
        <ele>630.5999755859375</ele>
        <time>2016-08-12T22:45:05.000Z</time>
        <extensions>
          <ns3:TrackPointExtension>
            <ns3:atemp>20.0</ns3:atemp>
            <ns3:hr>129</ns3:hr>
          </ns3:TrackPointExtension>
        </extensions>
      </trkpt>
      <trkpt lat="-22.0937762595713138580322265625" lon="166.4484549500048160552978515625">
        <ele>630.5999755859375</ele>
        <time>2016-08-12T22:45:06.000Z</time>
        <extensions>
          <ns3:TrackPointExtension>
            <ns3:atemp>20.0</ns3:atemp>
            <ns3:hr>129</ns3:hr>
          </ns3:TrackPointExtension>
        </extensions>
      </trkpt>
      <trkpt lat="-22.09379729814827442169189453125" lon="166.44846953451633453369140625">
        <ele>630.20001220703125</ele>
        <time>2016-08-12T22:45:07.000Z</time>
        <extensions>
          <ns3:TrackPointExtension>
            <ns3:atemp>20.0</ns3:atemp>
            <ns3:hr>129</ns3:hr>
          </ns3:TrackPointExtension>
        </extensions>
      </trkpt>
      <trkpt lat="-22.09381221793591976165771484375" lon="166.44848286174237728118896484375">
        <ele>630</ele>
        <time>2016-08-12T22:45:08.000Z</time>
        <extensions>
          <ns3:TrackPointExtension>
            <ns3:atemp>20.0</ns3:atemp>
            <ns3:hr>128</ns3:hr>
          </ns3:TrackPointExtension>
        </extensions>
      </trkpt>
      <trkpt lat="-22.0938352681696414947509765625" lon="166.448500044643878936767578125">
        <ele>630</ele>
        <time>2016-08-12T22:45:09.000Z</time>
        <extensions>
          <ns3:TrackPointExtension>
            <ns3:atemp>20.0</ns3:atemp>
            <ns3:hr>128</ns3:hr>
          </ns3:TrackPointExtension>
        </extensions>
      </trkpt>
      <trkpt lat="-22.0938567258417606353759765625" lon="166.44851337186992168426513671875">
        <ele>629.79998779296875</ele>
        <time>2016-08-12T22:45:10.000Z</time>
        <extensions>
          <ns3:TrackPointExtension>
            <ns3:atemp>20.0</ns3:atemp>
            <ns3:hr>128</ns3:hr>
          </ns3:TrackPointExtension>
        </extensions>
      </trkpt>
      <trkpt lat="-22.0938862301409244537353515625" lon="166.44852661527693271636962890625">
        <ele>629.4000244140625</ele>
        <time>2016-08-12T22:45:11.000Z</time>
        <extensions>
          <ns3:TrackPointExtension>
            <ns3:atemp>20.0</ns3:atemp>
            <ns3:hr>129</ns3:hr>
          </ns3:TrackPointExtension>
        </extensions>
      </trkpt>
      <trkpt lat="-22.09391481243073940277099609375" lon="166.44853734411299228668212890625">
        <ele>629.4000244140625</ele>
        <time>2016-08-12T22:45:12.000Z</time>
        <extensions>
          <ns3:TrackPointExtension>
            <ns3:atemp>20.0</ns3:atemp>
            <ns3:hr>129</ns3:hr>
          </ns3:TrackPointExtension>
        </extensions>
      </trkpt>
      <trkpt lat="-22.09393761120736598968505859375" lon="166.44854237325489521026611328125">
        <ele>629.20001220703125</ele>
        <time>2016-08-12T22:45:13.000Z</time>
        <extensions>
          <ns3:TrackPointExtension>
            <ns3:atemp>20.0</ns3:atemp>
            <ns3:hr>129</ns3:hr>
          </ns3:TrackPointExtension>
        </extensions>
      </trkpt>
      <trkpt lat="-22.09395638667047023773193359375" lon="166.44854790531098842620849609375">
        <ele>628.79998779296875</ele>
        <time>2016-08-12T22:45:14.000Z</time>
        <extensions>
          <ns3:TrackPointExtension>
            <ns3:atemp>20.0</ns3:atemp>
            <ns3:hr>129</ns3:hr>
          </ns3:TrackPointExtension>
        </extensions>
      </trkpt>
      <trkpt lat="-22.0939844660460948944091796875" lon="166.44855360500514507293701171875">
        <ele>628.4000244140625</ele>
        <time>2016-08-12T22:45:15.000Z</time>
        <extensions>
          <ns3:TrackPointExtension>
            <ns3:atemp>20.0</ns3:atemp>
            <ns3:hr>129</ns3:hr>
          </ns3:TrackPointExtension>
        </extensions>
      </trkpt>
      <trkpt lat="-22.094009779393672943115234375" lon="166.44855729304254055023193359375">
        <ele>628</ele>
        <time>2016-08-12T22:45:16.000Z</time>
        <extensions>
          <ns3:TrackPointExtension>
            <ns3:atemp>20.0</ns3:atemp>
            <ns3:hr>128</ns3:hr>
          </ns3:TrackPointExtension>
        </extensions>
      </trkpt>
      <trkpt lat="-22.09402847103774547576904296875" lon="166.44855863414704799652099609375">
        <ele>627.5999755859375</ele>
        <time>2016-08-12T22:45:17.000Z</time>
        <extensions>
          <ns3:TrackPointExtension>
            <ns3:atemp>20.0</ns3:atemp>
            <ns3:hr>128</ns3:hr>
          </ns3:TrackPointExtension>
        </extensions>
      </trkpt>
      <trkpt lat="-22.0940485037863254547119140625" lon="166.44856165163218975067138671875">
        <ele>627.20001220703125</ele>
        <time>2016-08-12T22:45:18.000Z</time>
        <extensions>
          <ns3:TrackPointExtension>
            <ns3:atemp>20.0</ns3:atemp>
            <ns3:hr>129</ns3:hr>
          </ns3:TrackPointExtension>
        </extensions>
      </trkpt>
      <trkpt lat="-22.09406845271587371826171875" lon="166.4485739730298519134521484375">
        <ele>627</ele>
        <time>2016-08-12T22:45:19.000Z</time>
        <extensions>
          <ns3:TrackPointExtension>
            <ns3:atemp>21.0</ns3:atemp>
            <ns3:hr>128</ns3:hr>
          </ns3:TrackPointExtension>
        </extensions>
      </trkpt>
      <trkpt lat="-22.0940873958170413970947265625" lon="166.44858931191265583038330078125">
        <ele>626.79998779296875</ele>
        <time>2016-08-12T22:45:20.000Z</time>
        <extensions>
          <ns3:TrackPointExtension>
            <ns3:atemp>21.0</ns3:atemp>
            <ns3:hr>129</ns3:hr>
          </ns3:TrackPointExtension>
        </extensions>
      </trkpt>
      <trkpt lat="-22.09411128424108028411865234375" lon="166.448608674108982086181640625">
        <ele>626.79998779296875</ele>
        <time>2016-08-12T22:45:21.000Z</time>
        <extensions>
          <ns3:TrackPointExtension>
            <ns3:atemp>21.0</ns3:atemp>
            <ns3:hr>128</ns3:hr>
          </ns3:TrackPointExtension>
        </extensions>
      </trkpt>
      <trkpt lat="-22.094131819903850555419921875" lon="166.44862351007759571075439453125">
        <ele>626.4000244140625</ele>
        <time>2016-08-12T22:45:22.000Z</time>
        <extensions>
          <ns3:TrackPointExtension>
            <ns3:atemp>21.0</ns3:atemp>
            <ns3:hr>128</ns3:hr>
          </ns3:TrackPointExtension>
        </extensions>
      </trkpt>
      <trkpt lat="-22.09415218792855739593505859375" lon="166.44863809458911418914794921875">
        <ele>625.79998779296875</ele>
        <time>2016-08-12T22:45:23.000Z</time>
        <extensions>
          <ns3:TrackPointExtension>
            <ns3:atemp>21.0</ns3:atemp>
            <ns3:hr>128</ns3:hr>
          </ns3:TrackPointExtension>
        </extensions>
      </trkpt>
      <trkpt lat="-22.09416643716394901275634765625" lon="166.44865284673869609832763671875">
        <ele>625.79998779296875</ele>
        <time>2016-08-12T22:45:24.000Z</time>
        <extensions>
          <ns3:TrackPointExtension>
            <ns3:atemp>21.0</ns3:atemp>
            <ns3:hr>128</ns3:hr>
          </ns3:TrackPointExtension>
        </extensions>
      </trkpt>
      <trkpt lat="-22.094188816845417022705078125" lon="166.44866709597408771514892578125">
        <ele>625.79998779296875</ele>
        <time>2016-08-12T22:45:25.000Z</time>
        <extensions>
          <ns3:TrackPointExtension>
            <ns3:atemp>21.0</ns3:atemp>
            <ns3:hr>128</ns3:hr>
          </ns3:TrackPointExtension>
        </extensions>
      </trkpt>
      <trkpt lat="-22.0942084304988384246826171875" lon="166.44867765717208385467529296875">
        <ele>625.4000244140625</ele>
        <time>2016-08-12T22:45:26.000Z</time>
        <extensions>
          <ns3:TrackPointExtension>
            <ns3:atemp>21.0</ns3:atemp>
            <ns3:hr>128</ns3:hr>
          </ns3:TrackPointExtension>
        </extensions>
      </trkpt>
      <trkpt lat="-22.09422896616160869598388671875" lon="166.44869081676006317138671875">
        <ele>625.20001220703125</ele>
        <time>2016-08-12T22:45:27.000Z</time>
        <extensions>
          <ns3:TrackPointExtension>
            <ns3:atemp>21.0</ns3:atemp>
            <ns3:hr>128</ns3:hr>
          </ns3:TrackPointExtension>
        </extensions>
      </trkpt>
      <trkpt lat="-22.0942483283579349517822265625" lon="166.44870196469128131866455078125">
        <ele>624.5999755859375</ele>
        <time>2016-08-12T22:45:28.000Z</time>
        <extensions>
          <ns3:TrackPointExtension>
            <ns3:atemp>21.0</ns3:atemp>
            <ns3:hr>128</ns3:hr>
          </ns3:TrackPointExtension>
        </extensions>
      </trkpt>
      <trkpt lat="-22.094272635877132415771484375" lon="166.4487196505069732666015625">
        <ele>624.4000244140625</ele>
        <time>2016-08-12T22:45:29.000Z</time>
        <extensions>
          <ns3:TrackPointExtension>
            <ns3:atemp>21.0</ns3:atemp>
            <ns3:hr>128</ns3:hr>
          </ns3:TrackPointExtension>
        </extensions>
      </trkpt>
      <trkpt lat="-22.09429400973021984100341796875" lon="166.448732055723667144775390625">
        <ele>624.5999755859375</ele>
        <time>2016-08-12T22:45:30.000Z</time>
        <extensions>
          <ns3:TrackPointExtension>
            <ns3:atemp>21.0</ns3:atemp>
            <ns3:hr>128</ns3:hr>
          </ns3:TrackPointExtension>
        </extensions>
      </trkpt>
      <trkpt lat="-22.09431211464107036590576171875" lon="166.44874437712132930755615234375">
        <ele>623.79998779296875</ele>
        <time>2016-08-12T22:45:31.000Z</time>
        <extensions>
          <ns3:TrackPointExtension>
            <ns3:atemp>21.0</ns3:atemp>
            <ns3:hr>128</ns3:hr>
          </ns3:TrackPointExtension>
        </extensions>
      </trkpt>
      <trkpt lat="-22.09433089010417461395263671875" lon="166.44875460304319858551025390625">
        <ele>623.79998779296875</ele>
        <time>2016-08-12T22:45:32.000Z</time>
        <extensions>
          <ns3:TrackPointExtension>
            <ns3:atemp>21.0</ns3:atemp>
            <ns3:hr>127</ns3:hr>
          </ns3:TrackPointExtension>
        </extensions>
      </trkpt>
      <trkpt lat="-22.0943509228527545928955078125" lon="166.44876533187925815582275390625">
        <ele>623.79998779296875</ele>
        <time>2016-08-12T22:45:33.000Z</time>
        <extensions>
          <ns3:TrackPointExtension>
            <ns3:atemp>21.0</ns3:atemp>
            <ns3:hr>127</ns3:hr>
          </ns3:TrackPointExtension>
        </extensions>
      </trkpt>
      <trkpt lat="-22.09437095560133457183837890625" lon="166.448774971067905426025390625">
        <ele>623.5999755859375</ele>
        <time>2016-08-12T22:45:34.000Z</time>
        <extensions>
          <ns3:TrackPointExtension>
            <ns3:atemp>21.0</ns3:atemp>
            <ns3:hr>127</ns3:hr>
          </ns3:TrackPointExtension>
        </extensions>
      </trkpt>
      <trkpt lat="-22.09439006634056568145751953125" lon="166.44878025166690349578857421875">
        <ele>623.4000244140625</ele>
        <time>2016-08-12T22:45:35.000Z</time>
        <extensions>
          <ns3:TrackPointExtension>
            <ns3:atemp>21.0</ns3:atemp>
            <ns3:hr>127</ns3:hr>
          </ns3:TrackPointExtension>
        </extensions>
      </trkpt>
      <trkpt lat="-22.09440900944173336029052734375" lon="166.44878880120813846588134765625">
        <ele>623</ele>
        <time>2016-08-12T22:45:36.000Z</time>
        <extensions>
          <ns3:TrackPointExtension>
            <ns3:atemp>21.0</ns3:atemp>
            <ns3:hr>127</ns3:hr>
          </ns3:TrackPointExtension>
        </extensions>
      </trkpt>
      <trkpt lat="-22.09442929364740848541259765625" lon="166.448798440396785736083984375">
        <ele>623</ele>
        <time>2016-08-12T22:45:37.000Z</time>
        <extensions>
          <ns3:TrackPointExtension>
            <ns3:atemp>21.0</ns3:atemp>
            <ns3:hr>126</ns3:hr>
          </ns3:TrackPointExtension>
        </extensions>
      </trkpt>
      <trkpt lat="-22.094441615045070648193359375" lon="166.4488081634044647216796875">
        <ele>622.5999755859375</ele>
        <time>2016-08-12T22:45:38.000Z</time>
        <extensions>
          <ns3:TrackPointExtension>
            <ns3:atemp>21.0</ns3:atemp>
            <ns3:hr>126</ns3:hr>
          </ns3:TrackPointExtension>
        </extensions>
      </trkpt>
      <trkpt lat="-22.09445326589047908782958984375" lon="166.4488215744495391845703125">
        <ele>622.79998779296875</ele>
        <time>2016-08-12T22:45:39.000Z</time>
        <extensions>
          <ns3:TrackPointExtension>
            <ns3:atemp>21.0</ns3:atemp>
            <ns3:hr>126</ns3:hr>
          </ns3:TrackPointExtension>
        </extensions>
      </trkpt>
      <trkpt lat="-22.09446231834590435028076171875" lon="166.4488318003714084625244140625">
        <ele>622.5999755859375</ele>
        <time>2016-08-12T22:45:40.000Z</time>
        <extensions>
          <ns3:TrackPointExtension>
            <ns3:atemp>21.0</ns3:atemp>
            <ns3:hr>126</ns3:hr>
          </ns3:TrackPointExtension>
        </extensions>
      </trkpt>
      <trkpt lat="-22.09447908215224742889404296875" lon="166.4488401822745800018310546875">
        <ele>622.5999755859375</ele>
        <time>2016-08-12T22:45:41.000Z</time>
        <extensions>
          <ns3:TrackPointExtension>
            <ns3:atemp>21.0</ns3:atemp>
            <ns3:hr>126</ns3:hr>
          </ns3:TrackPointExtension>
        </extensions>
      </trkpt>
      <trkpt lat="-22.09449869580566883087158203125" lon="166.44885032437741756439208984375">
        <ele>622.20001220703125</ele>
        <time>2016-08-12T22:45:42.000Z</time>
        <extensions>
          <ns3:TrackPointExtension>
            <ns3:atemp>21.0</ns3:atemp>
            <ns3:hr>126</ns3:hr>
          </ns3:TrackPointExtension>
        </extensions>
      </trkpt>
      <trkpt lat="-22.0945172198116779327392578125" lon="166.448864825069904327392578125">
        <ele>621.79998779296875</ele>
        <time>2016-08-12T22:45:43.000Z</time>
        <extensions>
          <ns3:TrackPointExtension>
            <ns3:atemp>21.0</ns3:atemp>
            <ns3:hr>126</ns3:hr>
          </ns3:TrackPointExtension>
        </extensions>
      </trkpt>
      <trkpt lat="-22.09453624673187732696533203125" lon="166.4488859474658966064453125">
        <ele>622.20001220703125</ele>
        <time>2016-08-12T22:45:44.000Z</time>
        <extensions>
          <ns3:TrackPointExtension>
            <ns3:atemp>21.0</ns3:atemp>
            <ns3:hr>126</ns3:hr>
          </ns3:TrackPointExtension>
        </extensions>
      </trkpt>
      <trkpt lat="-22.09455435164272785186767578125" lon="166.4489062316715717315673828125">
        <ele>621.79998779296875</ele>
        <time>2016-08-12T22:45:45.000Z</time>
        <extensions>
          <ns3:TrackPointExtension>
            <ns3:atemp>21.0</ns3:atemp>
            <ns3:hr>126</ns3:hr>
          </ns3:TrackPointExtension>
        </extensions>
      </trkpt>
      <trkpt lat="-22.09457195363938808441162109375" lon="166.448929868638515472412109375">
        <ele>621.20001220703125</ele>
        <time>2016-08-12T22:45:46.000Z</time>
        <extensions>
          <ns3:TrackPointExtension>
            <ns3:atemp>21.0</ns3:atemp>
            <ns3:hr>126</ns3:hr>
          </ns3:TrackPointExtension>
        </extensions>
      </trkpt>
      <trkpt lat="-22.094592489302158355712890625" lon="166.44895233213901519775390625">
        <ele>621</ele>
        <time>2016-08-12T22:45:47.000Z</time>
        <extensions>
          <ns3:TrackPointExtension>
            <ns3:atemp>21.0</ns3:atemp>
            <ns3:hr>126</ns3:hr>
          </ns3:TrackPointExtension>
        </extensions>
      </trkpt>
      <trkpt lat="-22.09461000747978687286376953125" lon="166.448968760669231414794921875">
        <ele>620.5999755859375</ele>
        <time>2016-08-12T22:45:48.000Z</time>
        <extensions>
          <ns3:TrackPointExtension>
            <ns3:atemp>21.0</ns3:atemp>
            <ns3:hr>126</ns3:hr>
          </ns3:TrackPointExtension>
        </extensions>
      </trkpt>
      <trkpt lat="-22.09462878294289112091064453125" lon="166.4489843510091304779052734375">
        <ele>620.4000244140625</ele>
        <time>2016-08-12T22:45:49.000Z</time>
        <extensions>
          <ns3:TrackPointExtension>
            <ns3:atemp>21.0</ns3:atemp>
            <ns3:hr>127</ns3:hr>
          </ns3:TrackPointExtension>
        </extensions>
      </trkpt>
      <trkpt lat="-22.09464906714856624603271484375" lon="166.44900061190128326416015625">
        <ele>620.4000244140625</ele>
        <time>2016-08-12T22:45:50.000Z</time>
        <extensions>
          <ns3:TrackPointExtension>
            <ns3:atemp>21.0</ns3:atemp>
            <ns3:hr>127</ns3:hr>
          </ns3:TrackPointExtension>
        </extensions>
      </trkpt>
      <trkpt lat="-22.09466834552586078643798828125" lon="166.4490168727934360504150390625">
        <ele>620.5999755859375</ele>
        <time>2016-08-12T22:45:51.000Z</time>
        <extensions>
          <ns3:TrackPointExtension>
            <ns3:atemp>21.0</ns3:atemp>
            <ns3:hr>127</ns3:hr>
          </ns3:TrackPointExtension>
        </extensions>
      </trkpt>
      <trkpt lat="-22.0946929045021533966064453125" lon="166.4490289427340030670166015625">
        <ele>620.4000244140625</ele>
        <time>2016-08-12T22:45:52.000Z</time>
        <extensions>
          <ns3:TrackPointExtension>
            <ns3:atemp>21.0</ns3:atemp>
            <ns3:hr>127</ns3:hr>
          </ns3:TrackPointExtension>
        </extensions>
      </trkpt>
      <trkpt lat="-22.09472022950649261474609375" lon="166.4490383304655551910400390625">
        <ele>620.20001220703125</ele>
        <time>2016-08-12T22:45:53.000Z</time>
        <extensions>
          <ns3:TrackPointExtension>
            <ns3:atemp>21.0</ns3:atemp>
            <ns3:hr>126</ns3:hr>
          </ns3:TrackPointExtension>
        </extensions>
      </trkpt>
      <trkpt lat="-22.09474327974021434783935546875" lon="166.44904159940779209136962890625">
        <ele>619.4000244140625</ele>
        <time>2016-08-12T22:45:54.000Z</time>
        <extensions>
          <ns3:TrackPointExtension>
            <ns3:atemp>21.0</ns3:atemp>
            <ns3:hr>126</ns3:hr>
          </ns3:TrackPointExtension>
        </extensions>
      </trkpt>
      <trkpt lat="-22.0947732031345367431640625" lon="166.449040509760379791259765625">
        <ele>618.79998779296875</ele>
        <time>2016-08-12T22:45:55.000Z</time>
        <extensions>
          <ns3:TrackPointExtension>
            <ns3:atemp>21.0</ns3:atemp>
            <ns3:hr>127</ns3:hr>
          </ns3:TrackPointExtension>
        </extensions>
      </trkpt>
      <trkpt lat="-22.09479994140565395355224609375" lon="166.44904352724552154541015625">
        <ele>618.79998779296875</ele>
        <time>2016-08-12T22:45:56.000Z</time>
        <extensions>
          <ns3:TrackPointExtension>
            <ns3:atemp>21.0</ns3:atemp>
            <ns3:hr>127</ns3:hr>
          </ns3:TrackPointExtension>
        </extensions>
      </trkpt>
      <trkpt lat="-22.09482173435389995574951171875" lon="166.4490490593016147613525390625">
        <ele>618.4000244140625</ele>
        <time>2016-08-12T22:45:57.000Z</time>
        <extensions>
          <ns3:TrackPointExtension>
            <ns3:atemp>21.0</ns3:atemp>
            <ns3:hr>127</ns3:hr>
          </ns3:TrackPointExtension>
        </extensions>
      </trkpt>
      <trkpt lat="-22.0948454551398754119873046875" lon="166.4490561001002788543701171875">
        <ele>618</ele>
        <time>2016-08-12T22:45:58.000Z</time>
        <extensions>
          <ns3:TrackPointExtension>
            <ns3:atemp>21.0</ns3:atemp>
            <ns3:hr>127</ns3:hr>
          </ns3:TrackPointExtension>
        </extensions>
      </trkpt>
      <trkpt lat="-22.0948682539165019989013671875" lon="166.44906842149794101715087890625">
        <ele>618.5999755859375</ele>
        <time>2016-08-12T22:45:59.000Z</time>
        <extensions>
          <ns3:TrackPointExtension>
            <ns3:atemp>21.0</ns3:atemp>
            <ns3:hr>127</ns3:hr>
          </ns3:TrackPointExtension>
        </extensions>
      </trkpt>
      <trkpt lat="-22.09489046595990657806396484375" lon="166.44908099435269832611083984375">
        <ele>618.79998779296875</ele>
        <time>2016-08-12T22:46:00.000Z</time>
        <extensions>
          <ns3:TrackPointExtension>
            <ns3:atemp>21.0</ns3:atemp>
            <ns3:hr>127</ns3:hr>
          </ns3:TrackPointExtension>
        </extensions>
      </trkpt>
      <trkpt lat="-22.09491276182234287261962890625" lon="166.449093483388423919677734375">
        <ele>618</ele>
        <time>2016-08-12T22:46:01.000Z</time>
        <extensions>
          <ns3:TrackPointExtension>
            <ns3:atemp>21.0</ns3:atemp>
            <ns3:hr>127</ns3:hr>
          </ns3:TrackPointExtension>
        </extensions>
      </trkpt>
      <trkpt lat="-22.09493505768477916717529296875" lon="166.44910614006221294403076171875">
        <ele>618.20001220703125</ele>
        <time>2016-08-12T22:46:02.000Z</time>
        <extensions>
          <ns3:TrackPointExtension>
            <ns3:atemp>21.0</ns3:atemp>
            <ns3:hr>127</ns3:hr>
          </ns3:TrackPointExtension>
        </extensions>
      </trkpt>
      <trkpt lat="-22.09496003575623035430908203125" lon="166.44912105984985828399658203125">
        <ele>618.20001220703125</ele>
        <time>2016-08-12T22:46:03.000Z</time>
        <extensions>
          <ns3:TrackPointExtension>
            <ns3:atemp>21.0</ns3:atemp>
            <ns3:hr>127</ns3:hr>
          </ns3:TrackPointExtension>
        </extensions>
      </trkpt>
      <trkpt lat="-22.0949842594563961029052734375" lon="166.44913832657039165496826171875">
        <ele>617.79998779296875</ele>
        <time>2016-08-12T22:46:04.000Z</time>
        <extensions>
          <ns3:TrackPointExtension>
            <ns3:atemp>21.0</ns3:atemp>
            <ns3:hr>127</ns3:hr>
          </ns3:TrackPointExtension>
        </extensions>
      </trkpt>
      <trkpt lat="-22.0950053818523883819580078125" lon="166.4491519890725612640380859375">
        <ele>617.4000244140625</ele>
        <time>2016-08-12T22:46:05.000Z</time>
        <extensions>
          <ns3:TrackPointExtension>
            <ns3:atemp>21.0</ns3:atemp>
            <ns3:hr>127</ns3:hr>
          </ns3:TrackPointExtension>
        </extensions>
      </trkpt>
      <trkpt lat="-22.09502675570547580718994140625" lon="166.449161879718303680419921875">
        <ele>617.5999755859375</ele>
        <time>2016-08-12T22:46:06.000Z</time>
        <extensions>
          <ns3:TrackPointExtension>
            <ns3:atemp>21.0</ns3:atemp>
            <ns3:hr>127</ns3:hr>
          </ns3:TrackPointExtension>
        </extensions>
      </trkpt>
      <trkpt lat="-22.09505056031048297882080078125" lon="166.44917570985853672027587890625">
        <ele>617.4000244140625</ele>
        <time>2016-08-12T22:46:07.000Z</time>
        <extensions>
          <ns3:TrackPointExtension>
            <ns3:atemp>21.0</ns3:atemp>
            <ns3:hr>127</ns3:hr>
          </ns3:TrackPointExtension>
        </extensions>
      </trkpt>
      <trkpt lat="-22.09507302381098270416259765625" lon="166.4491878636181354522705078125">
        <ele>617.20001220703125</ele>
        <time>2016-08-12T22:46:08.000Z</time>
        <extensions>
          <ns3:TrackPointExtension>
            <ns3:atemp>21.0</ns3:atemp>
            <ns3:hr>127</ns3:hr>
          </ns3:TrackPointExtension>
        </extensions>
      </trkpt>
      <trkpt lat="-22.095096744596958160400390625" lon="166.44919498823583126068115234375">
        <ele>618</ele>
        <time>2016-08-12T22:46:09.000Z</time>
        <extensions>
          <ns3:TrackPointExtension>
            <ns3:atemp>21.0</ns3:atemp>
            <ns3:hr>127</ns3:hr>
          </ns3:TrackPointExtension>
        </extensions>
      </trkpt>
      <trkpt lat="-22.0951173640787601470947265625" lon="166.44920588470995426177978515625">
        <ele>617.79998779296875</ele>
        <time>2016-08-12T22:46:10.000Z</time>
        <extensions>
          <ns3:TrackPointExtension>
            <ns3:atemp>21.0</ns3:atemp>
            <ns3:hr>127</ns3:hr>
          </ns3:TrackPointExtension>
        </extensions>
      </trkpt>
      <trkpt lat="-22.0951353013515472412109375" lon="166.44921778701245784759521484375">
        <ele>617.4000244140625</ele>
        <time>2016-08-12T22:46:11.000Z</time>
        <extensions>
          <ns3:TrackPointExtension>
            <ns3:atemp>21.0</ns3:atemp>
            <ns3:hr>127</ns3:hr>
          </ns3:TrackPointExtension>
        </extensions>
      </trkpt>
      <trkpt lat="-22.095153741538524627685546875" lon="166.4492341317236423492431640625">
        <ele>617.20001220703125</ele>
        <time>2016-08-12T22:46:12.000Z</time>
        <extensions>
          <ns3:TrackPointExtension>
            <ns3:atemp>21.0</ns3:atemp>
            <ns3:hr>127</ns3:hr>
          </ns3:TrackPointExtension>
        </extensions>
      </trkpt>
      <trkpt lat="-22.09517461247742176055908203125" lon="166.44924561493098735809326171875">
        <ele>617.20001220703125</ele>
        <time>2016-08-12T22:46:13.000Z</time>
        <extensions>
          <ns3:TrackPointExtension>
            <ns3:atemp>21.0</ns3:atemp>
            <ns3:hr>126</ns3:hr>
          </ns3:TrackPointExtension>
        </extensions>
      </trkpt>
      <trkpt lat="-22.0952005125582218170166015625" lon="166.44925751723349094390869140625">
        <ele>617.4000244140625</ele>
        <time>2016-08-12T22:46:14.000Z</time>
        <extensions>
          <ns3:TrackPointExtension>
            <ns3:atemp>21.0</ns3:atemp>
            <ns3:hr>127</ns3:hr>
          </ns3:TrackPointExtension>
        </extensions>
      </trkpt>
      <trkpt lat="-22.09522138349711894989013671875" lon="166.44927428103983402252197265625">
        <ele>617.20001220703125</ele>
        <time>2016-08-12T22:46:15.000Z</time>
        <extensions>
          <ns3:TrackPointExtension>
            <ns3:atemp>21.0</ns3:atemp>
            <ns3:hr>126</ns3:hr>
          </ns3:TrackPointExtension>
        </extensions>
      </trkpt>
      <trkpt lat="-22.09523915313184261322021484375" lon="166.44929020665585994720458984375">
        <ele>617.20001220703125</ele>
        <time>2016-08-12T22:46:16.000Z</time>
        <extensions>
          <ns3:TrackPointExtension>
            <ns3:atemp>21.0</ns3:atemp>
            <ns3:hr>126</ns3:hr>
          </ns3:TrackPointExtension>
        </extensions>
      </trkpt>
      <trkpt lat="-22.0952560007572174072265625" lon="166.44930311478674411773681640625">
        <ele>617.20001220703125</ele>
        <time>2016-08-12T22:46:17.000Z</time>
        <extensions>
          <ns3:TrackPointExtension>
            <ns3:atemp>21.0</ns3:atemp>
            <ns3:hr>126</ns3:hr>
          </ns3:TrackPointExtension>
        </extensions>
      </trkpt>
      <trkpt lat="-22.09527075290679931640625" lon="166.449314095079898834228515625">
        <ele>617.4000244140625</ele>
        <time>2016-08-12T22:46:18.000Z</time>
        <extensions>
          <ns3:TrackPointExtension>
            <ns3:atemp>21.0</ns3:atemp>
            <ns3:hr>127</ns3:hr>
          </ns3:TrackPointExtension>
        </extensions>
      </trkpt>
      <trkpt lat="-22.09528458304703235626220703125" lon="166.44932792522013187408447265625">
        <ele>617.5999755859375</ele>
        <time>2016-08-12T22:46:19.000Z</time>
        <extensions>
          <ns3:TrackPointExtension>
            <ns3:atemp>21.0</ns3:atemp>
            <ns3:hr>126</ns3:hr>
          </ns3:TrackPointExtension>
        </extensions>
      </trkpt>
      <trkpt lat="-22.0952984131872653961181640625" lon="166.4493400789797306060791015625">
        <ele>617.5999755859375</ele>
        <time>2016-08-12T22:46:20.000Z</time>
        <extensions>
          <ns3:TrackPointExtension>
            <ns3:atemp>21.0</ns3:atemp>
            <ns3:hr>127</ns3:hr>
          </ns3:TrackPointExtension>
        </extensions>
      </trkpt>
      <trkpt lat="-22.09531274624168872833251953125" lon="166.4493499696254730224609375">
        <ele>617.4000244140625</ele>
        <time>2016-08-12T22:46:21.000Z</time>
        <extensions>
          <ns3:TrackPointExtension>
            <ns3:atemp>22.0</ns3:atemp>
            <ns3:hr>126</ns3:hr>
          </ns3:TrackPointExtension>
        </extensions>
      </trkpt>
      <trkpt lat="-22.0953312702476978302001953125" lon="166.44936044700443744659423828125">
        <ele>617</ele>
        <time>2016-08-12T22:46:22.000Z</time>
        <extensions>
          <ns3:TrackPointExtension>
            <ns3:atemp>22.0</ns3:atemp>
            <ns3:hr>127</ns3:hr>
          </ns3:TrackPointExtension>
        </extensions>
      </trkpt>
      <trkpt lat="-22.09535046480596065521240234375" lon="166.44937637262046337127685546875">
        <ele>616.4000244140625</ele>
        <time>2016-08-12T22:46:23.000Z</time>
        <extensions>
          <ns3:TrackPointExtension>
            <ns3:atemp>22.0</ns3:atemp>
            <ns3:hr>127</ns3:hr>
          </ns3:TrackPointExtension>
        </extensions>
      </trkpt>
      <trkpt lat="-22.09537913091480731964111328125" lon="166.44939866848289966583251953125">
        <ele>615.5999755859375</ele>
        <time>2016-08-12T22:46:24.000Z</time>
        <extensions>
          <ns3:TrackPointExtension>
            <ns3:atemp>22.0</ns3:atemp>
            <ns3:hr>127</ns3:hr>
          </ns3:TrackPointExtension>
        </extensions>
      </trkpt>
      <trkpt lat="-22.0954036898910999298095703125" lon="166.449415683746337890625">
        <ele>615.20001220703125</ele>
        <time>2016-08-12T22:46:25.000Z</time>
        <extensions>
          <ns3:TrackPointExtension>
            <ns3:atemp>22.0</ns3:atemp>
            <ns3:hr>127</ns3:hr>
          </ns3:TrackPointExtension>
        </extensions>
      </trkpt>
      <trkpt lat="-22.09542439319193363189697265625" lon="166.449434794485569000244140625">
        <ele>615</ele>
        <time>2016-08-12T22:46:26.000Z</time>
        <extensions>
          <ns3:TrackPointExtension>
            <ns3:atemp>22.0</ns3:atemp>
            <ns3:hr>127</ns3:hr>
          </ns3:TrackPointExtension>
        </extensions>
      </trkpt>
      <trkpt lat="-22.09544350393116474151611328125" lon="166.4494560845196247100830078125">
        <ele>614.4000244140625</ele>
        <time>2016-08-12T22:46:27.000Z</time>
        <extensions>
          <ns3:TrackPointExtension>
            <ns3:atemp>22.0</ns3:atemp>
            <ns3:hr>127</ns3:hr>
          </ns3:TrackPointExtension>
        </extensions>
      </trkpt>
      <trkpt lat="-22.09546244703233242034912109375" lon="166.44947745837271213531494140625">
        <ele>614</ele>
        <time>2016-08-12T22:46:28.000Z</time>
        <extensions>
          <ns3:TrackPointExtension>
            <ns3:atemp>22.0</ns3:atemp>
            <ns3:hr>127</ns3:hr>
          </ns3:TrackPointExtension>
        </extensions>
      </trkpt>
      <trkpt lat="-22.095478959381580352783203125" lon="166.44949958659708499908447265625">
        <ele>614.4000244140625</ele>
        <time>2016-08-12T22:46:29.000Z</time>
        <extensions>
          <ns3:TrackPointExtension>
            <ns3:atemp>22.0</ns3:atemp>
            <ns3:hr>127</ns3:hr>
          </ns3:TrackPointExtension>
        </extensions>
      </trkpt>
      <trkpt lat="-22.095493376255035400390625" lon="166.4495181106030941009521484375">
        <ele>614.20001220703125</ele>
        <time>2016-08-12T22:46:30.000Z</time>
        <extensions>
          <ns3:TrackPointExtension>
            <ns3:atemp>22.0</ns3:atemp>
            <ns3:hr>128</ns3:hr>
          </ns3:TrackPointExtension>
        </extensions>
      </trkpt>
      <trkpt lat="-22.09550938569009304046630859375" lon="166.44953629933297634124755859375">
        <ele>613.5999755859375</ele>
        <time>2016-08-12T22:46:31.000Z</time>
        <extensions>
          <ns3:TrackPointExtension>
            <ns3:atemp>22.0</ns3:atemp>
            <ns3:hr>127</ns3:hr>
          </ns3:TrackPointExtension>
        </extensions>
      </trkpt>
      <trkpt lat="-22.09553025662899017333984375" lon="166.4495613612234592437744140625">
        <ele>614</ele>
        <time>2016-08-12T22:46:32.000Z</time>
        <extensions>
          <ns3:TrackPointExtension>
            <ns3:atemp>22.0</ns3:atemp>
            <ns3:hr>128</ns3:hr>
          </ns3:TrackPointExtension>
        </extensions>
      </trkpt>
      <trkpt lat="-22.09554609842598438262939453125" lon="166.44958390854299068450927734375">
        <ele>614.5999755859375</ele>
        <time>2016-08-12T22:46:33.000Z</time>
        <extensions>
          <ns3:TrackPointExtension>
            <ns3:atemp>22.0</ns3:atemp>
            <ns3:hr>128</ns3:hr>
          </ns3:TrackPointExtension>
        </extensions>
      </trkpt>
      <trkpt lat="-22.09555699490010738372802734375" lon="166.44960033707320690155029296875">
        <ele>613.79998779296875</ele>
        <time>2016-08-12T22:46:34.000Z</time>
        <extensions>
          <ns3:TrackPointExtension>
            <ns3:atemp>22.0</ns3:atemp>
            <ns3:hr>128</ns3:hr>
          </ns3:TrackPointExtension>
        </extensions>
      </trkpt>
      <trkpt lat="-22.0955693162977695465087890625" lon="166.4496207050979137420654296875">
        <ele>612.79998779296875</ele>
        <time>2016-08-12T22:46:35.000Z</time>
        <extensions>
          <ns3:TrackPointExtension>
            <ns3:atemp>22.0</ns3:atemp>
            <ns3:hr>128</ns3:hr>
          </ns3:TrackPointExtension>
        </extensions>
      </trkpt>
      <trkpt lat="-22.09558297879993915557861328125" lon="166.44963704980909824371337890625">
        <ele>613.79998779296875</ele>
        <time>2016-08-12T22:46:36.000Z</time>
        <extensions>
          <ns3:TrackPointExtension>
            <ns3:atemp>22.0</ns3:atemp>
            <ns3:hr>128</ns3:hr>
          </ns3:TrackPointExtension>
        </extensions>
      </trkpt>
      <trkpt lat="-22.09559219889342784881591796875" lon="166.449656076729297637939453125">
        <ele>613.20001220703125</ele>
        <time>2016-08-12T22:46:37.000Z</time>
        <extensions>
          <ns3:TrackPointExtension>
            <ns3:atemp>22.0</ns3:atemp>
            <ns3:hr>128</ns3:hr>
          </ns3:TrackPointExtension>
        </extensions>
      </trkpt>
      <trkpt lat="-22.0956175960600376129150390625" lon="166.44968055188655853271484375">
        <ele>613</ele>
        <time>2016-08-12T22:46:38.000Z</time>
        <extensions>
          <ns3:TrackPointExtension>
            <ns3:atemp>22.0</ns3:atemp>
            <ns3:hr>127</ns3:hr>
          </ns3:TrackPointExtension>
        </extensions>
      </trkpt>
      <trkpt lat="-22.09563813172280788421630859375" lon="166.44969907589256763458251953125">
        <ele>613</ele>
        <time>2016-08-12T22:46:39.000Z</time>
        <extensions>
          <ns3:TrackPointExtension>
            <ns3:atemp>22.0</ns3:atemp>
            <ns3:hr>127</ns3:hr>
          </ns3:TrackPointExtension>
        </extensions>
      </trkpt>
      <trkpt lat="-22.09565958939492702484130859375" lon="166.44971835426986217498779296875">
        <ele>612.79998779296875</ele>
        <time>2016-08-12T22:46:40.000Z</time>
        <extensions>
          <ns3:TrackPointExtension>
            <ns3:atemp>22.0</ns3:atemp>
            <ns3:hr>127</ns3:hr>
          </ns3:TrackPointExtension>
        </extensions>
      </trkpt>
      <trkpt lat="-22.09568490274250507354736328125" lon="166.44973545335233211517333984375">
        <ele>612.79998779296875</ele>
        <time>2016-08-12T22:46:41.000Z</time>
        <extensions>
          <ns3:TrackPointExtension>
            <ns3:atemp>22.0</ns3:atemp>
            <ns3:hr>127</ns3:hr>
          </ns3:TrackPointExtension>
        </extensions>
      </trkpt>
      <trkpt lat="-22.09570728242397308349609375" lon="166.449755318462848663330078125">
        <ele>612.5999755859375</ele>
        <time>2016-08-12T22:46:42.000Z</time>
        <extensions>
          <ns3:TrackPointExtension>
            <ns3:atemp>22.0</ns3:atemp>
            <ns3:hr>127</ns3:hr>
          </ns3:TrackPointExtension>
        </extensions>
      </trkpt>
      <trkpt lat="-22.09573619998991489410400390625" lon="166.44978255964815616607666015625">
        <ele>612.4000244140625</ele>
        <time>2016-08-12T22:46:43.000Z</time>
        <extensions>
          <ns3:TrackPointExtension>
            <ns3:atemp>22.0</ns3:atemp>
            <ns3:hr>126</ns3:hr>
          </ns3:TrackPointExtension>
        </extensions>
      </trkpt>
      <trkpt lat="-22.095761597156524658203125" lon="166.4498047716915607452392578125">
        <ele>612</ele>
        <time>2016-08-12T22:46:44.000Z</time>
        <extensions>
          <ns3:TrackPointExtension>
            <ns3:atemp>22.0</ns3:atemp>
            <ns3:hr>126</ns3:hr>
          </ns3:TrackPointExtension>
        </extensions>
      </trkpt>
      <trkpt lat="-22.09578380919992923736572265625" lon="166.4498212002217769622802734375">
        <ele>612.5999755859375</ele>
        <time>2016-08-12T22:46:45.000Z</time>
        <extensions>
          <ns3:TrackPointExtension>
            <ns3:atemp>22.0</ns3:atemp>
            <ns3:hr>125</ns3:hr>
          </ns3:TrackPointExtension>
        </extensions>
      </trkpt>
      <trkpt lat="-22.0958016626536846160888671875" lon="166.4498399756848812103271484375">
        <ele>612.5999755859375</ele>
        <time>2016-08-12T22:46:46.000Z</time>
        <extensions>
          <ns3:TrackPointExtension>
            <ns3:atemp>22.0</ns3:atemp>
            <ns3:hr>125</ns3:hr>
          </ns3:TrackPointExtension>
        </extensions>
      </trkpt>
      <trkpt lat="-22.095820605754852294921875" lon="166.4498580805957317352294921875">
        <ele>611.79998779296875</ele>
        <time>2016-08-12T22:46:47.000Z</time>
        <extensions>
          <ns3:TrackPointExtension>
            <ns3:atemp>22.0</ns3:atemp>
            <ns3:hr>124</ns3:hr>
          </ns3:TrackPointExtension>
        </extensions>
      </trkpt>
      <trkpt lat="-22.09583493880927562713623046875" lon="166.44987660460174083709716796875">
        <ele>611.20001220703125</ele>
        <time>2016-08-12T22:46:48.000Z</time>
        <extensions>
          <ns3:TrackPointExtension>
            <ns3:atemp>22.0</ns3:atemp>
            <ns3:hr>124</ns3:hr>
          </ns3:TrackPointExtension>
        </extensions>
      </trkpt>
      <trkpt lat="-22.095851115882396697998046875" lon="166.44989806227385997772216796875">
        <ele>611.79998779296875</ele>
        <time>2016-08-12T22:46:49.000Z</time>
        <extensions>
          <ns3:TrackPointExtension>
            <ns3:atemp>22.0</ns3:atemp>
            <ns3:hr>123</ns3:hr>
          </ns3:TrackPointExtension>
        </extensions>
      </trkpt>
      <trkpt lat="-22.09586863406002521514892578125" lon="166.4499177597463130950927734375">
        <ele>612</ele>
        <time>2016-08-12T22:46:50.000Z</time>
        <extensions>
          <ns3:TrackPointExtension>
            <ns3:atemp>22.0</ns3:atemp>
            <ns3:hr>122</ns3:hr>
          </ns3:TrackPointExtension>
        </extensions>
      </trkpt>
      <trkpt lat="-22.09588221274316310882568359375" lon="166.4499365352094173431396484375">
        <ele>610.79998779296875</ele>
        <time>2016-08-12T22:46:51.000Z</time>
        <extensions>
          <ns3:TrackPointExtension>
            <ns3:atemp>22.0</ns3:atemp>
            <ns3:hr>122</ns3:hr>
          </ns3:TrackPointExtension>
        </extensions>
      </trkpt>
      <trkpt lat="-22.095897383987903594970703125" lon="166.44995204173028469085693359375">
        <ele>610.5999755859375</ele>
        <time>2016-08-12T22:46:52.000Z</time>
        <extensions>
          <ns3:TrackPointExtension>
            <ns3:atemp>22.0</ns3:atemp>
            <ns3:hr>122</ns3:hr>
          </ns3:TrackPointExtension>
        </extensions>
      </trkpt>
      <trkpt lat="-22.095912806689739227294921875" lon="166.44996612332761287689208984375">
        <ele>611.20001220703125</ele>
        <time>2016-08-12T22:46:53.000Z</time>
        <extensions>
          <ns3:TrackPointExtension>
            <ns3:atemp>22.0</ns3:atemp>
            <ns3:hr>122</ns3:hr>
          </ns3:TrackPointExtension>
        </extensions>
      </trkpt>
      <trkpt lat="-22.095930911600589752197265625" lon="166.4499776065349578857421875">
        <ele>611</ele>
        <time>2016-08-12T22:46:54.000Z</time>
        <extensions>
          <ns3:TrackPointExtension>
            <ns3:atemp>22.0</ns3:atemp>
            <ns3:hr>122</ns3:hr>
          </ns3:TrackPointExtension>
        </extensions>
      </trkpt>
      <trkpt lat="-22.095953039824962615966796875" lon="166.44999034702777862548828125">
        <ele>610.5999755859375</ele>
        <time>2016-08-12T22:46:55.000Z</time>
        <extensions>
          <ns3:TrackPointExtension>
            <ns3:atemp>22.0</ns3:atemp>
            <ns3:hr>123</ns3:hr>
          </ns3:TrackPointExtension>
        </extensions>
      </trkpt>
      <trkpt lat="-22.09597089327871799468994140625" lon="166.44999881274998188018798828125">
        <ele>610.4000244140625</ele>
        <time>2016-08-12T22:46:56.000Z</time>
        <extensions>
          <ns3:TrackPointExtension>
            <ns3:atemp>22.0</ns3:atemp>
            <ns3:hr>123</ns3:hr>
          </ns3:TrackPointExtension>
        </extensions>
      </trkpt>
      <trkpt lat="-22.0959900878369808197021484375" lon="166.4500129781663417816162109375">
        <ele>610.20001220703125</ele>
        <time>2016-08-12T22:46:57.000Z</time>
        <extensions>
          <ns3:TrackPointExtension>
            <ns3:atemp>22.0</ns3:atemp>
            <ns3:hr>124</ns3:hr>
          </ns3:TrackPointExtension>
        </extensions>
      </trkpt>
      <trkpt lat="-22.09600760601460933685302734375" lon="166.450029574334621429443359375">
        <ele>610</ele>
        <time>2016-08-12T22:46:58.000Z</time>
        <extensions>
          <ns3:TrackPointExtension>
            <ns3:atemp>22.0</ns3:atemp>
            <ns3:hr>125</ns3:hr>
          </ns3:TrackPointExtension>
        </extensions>
      </trkpt>
      <trkpt lat="-22.09602420218288898468017578125" lon="166.4500444941222667694091796875">
        <ele>610</ele>
        <time>2016-08-12T22:46:59.000Z</time>
        <extensions>
          <ns3:TrackPointExtension>
            <ns3:atemp>22.0</ns3:atemp>
            <ns3:hr>125</ns3:hr>
          </ns3:TrackPointExtension>
        </extensions>
      </trkpt>
      <trkpt lat="-22.09604297764599323272705078125" lon="166.4500595815479755401611328125">
        <ele>609.79998779296875</ele>
        <time>2016-08-12T22:47:00.000Z</time>
        <extensions>
          <ns3:TrackPointExtension>
            <ns3:atemp>22.0</ns3:atemp>
            <ns3:hr>126</ns3:hr>
          </ns3:TrackPointExtension>
        </extensions>
      </trkpt>
      <trkpt lat="-22.0960668660700321197509765625" lon="166.45007374696433544158935546875">
        <ele>609.79998779296875</ele>
        <time>2016-08-12T22:47:01.000Z</time>
        <extensions>
          <ns3:TrackPointExtension>
            <ns3:atemp>22.0</ns3:atemp>
            <ns3:hr>126</ns3:hr>
          </ns3:TrackPointExtension>
        </extensions>
      </trkpt>
      <trkpt lat="-22.096091844141483306884765625" lon="166.450082547962665557861328125">
        <ele>610</ele>
        <time>2016-08-12T22:47:02.000Z</time>
        <extensions>
          <ns3:TrackPointExtension>
            <ns3:atemp>22.0</ns3:atemp>
            <ns3:hr>127</ns3:hr>
          </ns3:TrackPointExtension>
        </extensions>
      </trkpt>
      <trkpt lat="-22.0961218513548374176025390625" lon="166.45009101368486881256103515625">
        <ele>609.4000244140625</ele>
        <time>2016-08-12T22:47:03.000Z</time>
        <extensions>
          <ns3:TrackPointExtension>
            <ns3:atemp>22.0</ns3:atemp>
            <ns3:hr>127</ns3:hr>
          </ns3:TrackPointExtension>
        </extensions>
      </trkpt>
      <trkpt lat="-22.096148170530796051025390625" lon="166.450094617903232574462890625">
        <ele>609.20001220703125</ele>
        <time>2016-08-12T22:47:04.000Z</time>
        <extensions>
          <ns3:TrackPointExtension>
            <ns3:atemp>22.0</ns3:atemp>
            <ns3:hr>128</ns3:hr>
          </ns3:TrackPointExtension>
        </extensions>
      </trkpt>
      <trkpt lat="-22.09617038257420063018798828125" lon="166.45009386353194713592529296875">
        <ele>609.20001220703125</ele>
        <time>2016-08-12T22:47:05.000Z</time>
        <extensions>
          <ns3:TrackPointExtension>
            <ns3:atemp>22.0</ns3:atemp>
            <ns3:hr>128</ns3:hr>
          </ns3:TrackPointExtension>
        </extensions>
      </trkpt>
      <trkpt lat="-22.09619435481727123260498046875" lon="166.450091935694217681884765625">
        <ele>608.79998779296875</ele>
        <time>2016-08-12T22:47:06.000Z</time>
        <extensions>
          <ns3:TrackPointExtension>
            <ns3:atemp>22.0</ns3:atemp>
            <ns3:hr>129</ns3:hr>
          </ns3:TrackPointExtension>
        </extensions>
      </trkpt>
      <trkpt lat="-22.09622067399322986602783203125" lon="166.450089924037456512451171875">
        <ele>608.5999755859375</ele>
        <time>2016-08-12T22:47:07.000Z</time>
        <extensions>
          <ns3:TrackPointExtension>
            <ns3:atemp>22.0</ns3:atemp>
            <ns3:hr>129</ns3:hr>
          </ns3:TrackPointExtension>
        </extensions>
      </trkpt>
      <trkpt lat="-22.09623995237052440643310546875" lon="166.45008162595331668853759765625">
        <ele>608.4000244140625</ele>
        <time>2016-08-12T22:47:08.000Z</time>
        <extensions>
          <ns3:TrackPointExtension>
            <ns3:atemp>22.0</ns3:atemp>
            <ns3:hr>130</ns3:hr>
          </ns3:TrackPointExtension>
        </extensions>
      </trkpt>
      <trkpt lat="-22.0962630026042461395263671875" lon="166.45007081329822540283203125">
        <ele>608</ele>
        <time>2016-08-12T22:47:09.000Z</time>
        <extensions>
          <ns3:TrackPointExtension>
            <ns3:atemp>22.0</ns3:atemp>
            <ns3:hr>130</ns3:hr>
          </ns3:TrackPointExtension>
        </extensions>
      </trkpt>
      <trkpt lat="-22.09628387354314327239990234375" lon="166.45006536506116390228271484375">
        <ele>608</ele>
        <time>2016-08-12T22:47:10.000Z</time>
        <extensions>
          <ns3:TrackPointExtension>
            <ns3:atemp>22.0</ns3:atemp>
            <ns3:hr>130</ns3:hr>
          </ns3:TrackPointExtension>
        </extensions>
      </trkpt>
      <trkpt lat="-22.09631346166133880615234375" lon="166.450060419738292694091796875">
        <ele>608.79998779296875</ele>
        <time>2016-08-12T22:47:11.000Z</time>
        <extensions>
          <ns3:TrackPointExtension>
            <ns3:atemp>22.0</ns3:atemp>
            <ns3:hr>129</ns3:hr>
          </ns3:TrackPointExtension>
        </extensions>
      </trkpt>
      <trkpt lat="-22.09634053520858287811279296875" lon="166.45005698315799236297607421875">
        <ele>608.20001220703125</ele>
        <time>2016-08-12T22:47:12.000Z</time>
        <extensions>
          <ns3:TrackPointExtension>
            <ns3:atemp>22.0</ns3:atemp>
            <ns3:hr>129</ns3:hr>
          </ns3:TrackPointExtension>
        </extensions>
      </trkpt>
      <trkpt lat="-22.09636308252811431884765625" lon="166.4500595815479755401611328125">
        <ele>607</ele>
        <time>2016-08-12T22:47:13.000Z</time>
        <extensions>
          <ns3:TrackPointExtension>
            <ns3:atemp>22.0</ns3:atemp>
            <ns3:hr>129</ns3:hr>
          </ns3:TrackPointExtension>
        </extensions>
      </trkpt>
      <trkpt lat="-22.09638093598186969757080078125" lon="166.450073160231113433837890625">
        <ele>606</ele>
        <time>2016-08-12T22:47:14.000Z</time>
        <extensions>
          <ns3:TrackPointExtension>
            <ns3:atemp>22.0</ns3:atemp>
            <ns3:hr>129</ns3:hr>
          </ns3:TrackPointExtension>
        </extensions>
      </trkpt>
      <trkpt lat="-22.0964004658162593841552734375" lon="166.45009151659905910491943359375">
        <ele>606</ele>
        <time>2016-08-12T22:47:15.000Z</time>
        <extensions>
          <ns3:TrackPointExtension>
            <ns3:atemp>22.0</ns3:atemp>
            <ns3:hr>129</ns3:hr>
          </ns3:TrackPointExtension>
        </extensions>
      </trkpt>
      <trkpt lat="-22.09642234258353710174560546875" lon="166.45011347718536853790283203125">
        <ele>605.5999755859375</ele>
        <time>2016-08-12T22:47:16.000Z</time>
        <extensions>
          <ns3:TrackPointExtension>
            <ns3:atemp>22.0</ns3:atemp>
            <ns3:hr>129</ns3:hr>
          </ns3:TrackPointExtension>
        </extensions>
      </trkpt>
      <trkpt lat="-22.0964433811604976654052734375" lon="166.45013920962810516357421875">
        <ele>605.79998779296875</ele>
        <time>2016-08-12T22:47:17.000Z</time>
        <extensions>
          <ns3:TrackPointExtension>
            <ns3:atemp>22.0</ns3:atemp>
            <ns3:hr>129</ns3:hr>
          </ns3:TrackPointExtension>
        </extensions>
      </trkpt>
      <trkpt lat="-22.0964608155190944671630859375" lon="166.45016276277601718902587890625">
        <ele>605.79998779296875</ele>
        <time>2016-08-12T22:47:18.000Z</time>
        <extensions>
          <ns3:TrackPointExtension>
            <ns3:atemp>22.0</ns3:atemp>
            <ns3:hr>129</ns3:hr>
          </ns3:TrackPointExtension>
        </extensions>
      </trkpt>
      <trkpt lat="-22.096475064754486083984375" lon="166.450184471905231475830078125">
        <ele>604.79998779296875</ele>
        <time>2016-08-12T22:47:19.000Z</time>
        <extensions>
          <ns3:TrackPointExtension>
            <ns3:atemp>22.0</ns3:atemp>
            <ns3:hr>129</ns3:hr>
          </ns3:TrackPointExtension>
        </extensions>
      </trkpt>
      <trkpt lat="-22.0964933373034000396728515625" lon="166.4502087794244289398193359375">
        <ele>604.20001220703125</ele>
        <time>2016-08-12T22:47:20.000Z</time>
        <extensions>
          <ns3:TrackPointExtension>
            <ns3:atemp>22.0</ns3:atemp>
            <ns3:hr>129</ns3:hr>
          </ns3:TrackPointExtension>
        </extensions>
      </trkpt>
      <trkpt lat="-22.0965104363858699798583984375" lon="166.45023467950522899627685546875">
        <ele>604</ele>
        <time>2016-08-12T22:47:21.000Z</time>
        <extensions>
          <ns3:TrackPointExtension>
            <ns3:atemp>22.0</ns3:atemp>
            <ns3:hr>129</ns3:hr>
          </ns3:TrackPointExtension>
        </extensions>
      </trkpt>
      <trkpt lat="-22.0965275354683399200439453125" lon="166.4502584002912044525146484375">
        <ele>604.4000244140625</ele>
        <time>2016-08-12T22:47:22.000Z</time>
        <extensions>
          <ns3:TrackPointExtension>
            <ns3:atemp>22.0</ns3:atemp>
            <ns3:hr>129</ns3:hr>
          </ns3:TrackPointExtension>
        </extensions>
      </trkpt>
      <trkpt lat="-22.09654337726533412933349609375" lon="166.45027977414429187774658203125">
        <ele>604.20001220703125</ele>
        <time>2016-08-12T22:47:23.000Z</time>
        <extensions>
          <ns3:TrackPointExtension>
            <ns3:atemp>22.0</ns3:atemp>
            <ns3:hr>129</ns3:hr>
          </ns3:TrackPointExtension>
        </extensions>
      </trkpt>
      <trkpt lat="-22.0965600572526454925537109375" lon="166.450298465788364410400390625">
        <ele>604</ele>
        <time>2016-08-12T22:47:24.000Z</time>
        <extensions>
          <ns3:TrackPointExtension>
            <ns3:atemp>22.0</ns3:atemp>
            <ns3:hr>128</ns3:hr>
          </ns3:TrackPointExtension>
        </extensions>
      </trkpt>
      <trkpt lat="-22.0965811796486377716064453125" lon="166.45031497813761234283447265625">
        <ele>604.5999755859375</ele>
        <time>2016-08-12T22:47:25.000Z</time>
        <extensions>
          <ns3:TrackPointExtension>
            <ns3:atemp>22.0</ns3:atemp>
            <ns3:hr>129</ns3:hr>
          </ns3:TrackPointExtension>
        </extensions>
      </trkpt>
      <trkpt lat="-22.09660205058753490447998046875" lon="166.450333334505558013916015625">
        <ele>604.4000244140625</ele>
        <time>2016-08-12T22:47:26.000Z</time>
        <extensions>
          <ns3:TrackPointExtension>
            <ns3:atemp>22.0</ns3:atemp>
            <ns3:hr>129</ns3:hr>
          </ns3:TrackPointExtension>
        </extensions>
      </trkpt>
      <trkpt lat="-22.09661780856549739837646484375" lon="166.45035378634929656982421875">
        <ele>603.5999755859375</ele>
        <time>2016-08-12T22:47:27.000Z</time>
        <extensions>
          <ns3:TrackPointExtension>
            <ns3:atemp>22.0</ns3:atemp>
            <ns3:hr>129</ns3:hr>
          </ns3:TrackPointExtension>
        </extensions>
      </trkpt>
      <trkpt lat="-22.09663088433444499969482421875" lon="166.45037264563143253326416015625">
        <ele>604</ele>
        <time>2016-08-12T22:47:28.000Z</time>
        <extensions>
          <ns3:TrackPointExtension>
            <ns3:atemp>22.0</ns3:atemp>
            <ns3:hr>128</ns3:hr>
          </ns3:TrackPointExtension>
        </extensions>
      </trkpt>
      <trkpt lat="-22.0966428704559803009033203125" lon="166.45039108581840991973876953125">
        <ele>603.79998779296875</ele>
        <time>2016-08-12T22:47:29.000Z</time>
        <extensions>
          <ns3:TrackPointExtension>
            <ns3:atemp>22.0</ns3:atemp>
            <ns3:hr>128</ns3:hr>
          </ns3:TrackPointExtension>
        </extensions>
      </trkpt>
      <trkpt lat="-22.09665535949170589447021484375" lon="166.4504121243953704833984375">
        <ele>603</ele>
        <time>2016-08-12T22:47:30.000Z</time>
        <extensions>
          <ns3:TrackPointExtension>
            <ns3:atemp>22.0</ns3:atemp>
            <ns3:hr>128</ns3:hr>
          </ns3:TrackPointExtension>
        </extensions>
      </trkpt>
      <trkpt lat="-22.096664495766162872314453125" lon="166.45043534226715564727783203125">
        <ele>603.20001220703125</ele>
        <time>2016-08-12T22:47:31.000Z</time>
        <extensions>
          <ns3:TrackPointExtension>
            <ns3:atemp>22.0</ns3:atemp>
            <ns3:hr>128</ns3:hr>
          </ns3:TrackPointExtension>
        </extensions>
      </trkpt>
      <trkpt lat="-22.0966690219938755035400390625" lon="166.450455375015735626220703125">
        <ele>603.79998779296875</ele>
        <time>2016-08-12T22:47:32.000Z</time>
        <extensions>
          <ns3:TrackPointExtension>
            <ns3:atemp>23.0</ns3:atemp>
            <ns3:hr>129</ns3:hr>
          </ns3:TrackPointExtension>
        </extensions>
      </trkpt>
      <trkpt lat="-22.0966829359531402587890625" lon="166.4504843764007091522216796875">
        <ele>603.4000244140625</ele>
        <time>2016-08-12T22:47:33.000Z</time>
        <extensions>
          <ns3:TrackPointExtension>
            <ns3:atemp>23.0</ns3:atemp>
            <ns3:hr>129</ns3:hr>
          </ns3:TrackPointExtension>
        </extensions>
      </trkpt>
      <trkpt lat="-22.0966948382556438446044921875" lon="166.45051161758601665496826171875">
        <ele>602.79998779296875</ele>
        <time>2016-08-12T22:47:34.000Z</time>
        <extensions>
          <ns3:TrackPointExtension>
            <ns3:atemp>23.0</ns3:atemp>
            <ns3:hr>129</ns3:hr>
          </ns3:TrackPointExtension>
        </extensions>
      </trkpt>
      <trkpt lat="-22.09670145995914936065673828125" lon="166.450535841286182403564453125">
        <ele>603.5999755859375</ele>
        <time>2016-08-12T22:47:35.000Z</time>
        <extensions>
          <ns3:TrackPointExtension>
            <ns3:atemp>23.0</ns3:atemp>
            <ns3:hr>129</ns3:hr>
          </ns3:TrackPointExtension>
        </extensions>
      </trkpt>
      <trkpt lat="-22.096709422767162322998046875" lon="166.45056425593793392181396484375">
        <ele>604</ele>
        <time>2016-08-12T22:47:36.000Z</time>
        <extensions>
          <ns3:TrackPointExtension>
            <ns3:atemp>23.0</ns3:atemp>
            <ns3:hr>129</ns3:hr>
          </ns3:TrackPointExtension>
        </extensions>
      </trkpt>
      <trkpt lat="-22.09671956486999988555908203125" lon="166.45058856345713138580322265625">
        <ele>603.79998779296875</ele>
        <time>2016-08-12T22:47:37.000Z</time>
        <extensions>
          <ns3:TrackPointExtension>
            <ns3:atemp>23.0</ns3:atemp>
            <ns3:hr>130</ns3:hr>
          </ns3:TrackPointExtension>
        </extensions>
      </trkpt>
      <trkpt lat="-22.09673113189637660980224609375" lon="166.4506090991199016571044921875">
        <ele>603.4000244140625</ele>
        <time>2016-08-12T22:47:38.000Z</time>
        <extensions>
          <ns3:TrackPointExtension>
            <ns3:atemp>23.0</ns3:atemp>
            <ns3:hr>129</ns3:hr>
          </ns3:TrackPointExtension>
        </extensions>
      </trkpt>
      <trkpt lat="-22.0967437885701656341552734375" lon="166.45062946714460849761962890625">
        <ele>603.5999755859375</ele>
        <time>2016-08-12T22:47:39.000Z</time>
        <extensions>
          <ns3:TrackPointExtension>
            <ns3:atemp>23.0</ns3:atemp>
            <ns3:hr>130</ns3:hr>
          </ns3:TrackPointExtension>
        </extensions>
      </trkpt>
      <trkpt lat="-22.09675736725330352783203125" lon="166.45064857788383960723876953125">
        <ele>603.4000244140625</ele>
        <time>2016-08-12T22:47:40.000Z</time>
        <extensions>
          <ns3:TrackPointExtension>
            <ns3:atemp>23.0</ns3:atemp>
            <ns3:hr>129</ns3:hr>
          </ns3:TrackPointExtension>
        </extensions>
      </trkpt>
      <trkpt lat="-22.0967732928693294525146484375" lon="166.4506647549569606781005859375">
        <ele>603</ele>
        <time>2016-08-12T22:47:41.000Z</time>
        <extensions>
          <ns3:TrackPointExtension>
            <ns3:atemp>23.0</ns3:atemp>
            <ns3:hr>130</ns3:hr>
          </ns3:TrackPointExtension>
        </extensions>
      </trkpt>
      <trkpt lat="-22.09678930230438709259033203125" lon="166.45067975856363773345947265625">
        <ele>603</ele>
        <time>2016-08-12T22:47:42.000Z</time>
        <extensions>
          <ns3:TrackPointExtension>
            <ns3:atemp>23.0</ns3:atemp>
            <ns3:hr>129</ns3:hr>
          </ns3:TrackPointExtension>
        </extensions>
      </trkpt>
      <trkpt lat="-22.096806652843952178955078125" lon="166.4506952650845050811767578125">
        <ele>602.79998779296875</ele>
        <time>2016-08-12T22:47:43.000Z</time>
        <extensions>
          <ns3:TrackPointExtension>
            <ns3:atemp>23.0</ns3:atemp>
            <ns3:hr>130</ns3:hr>
          </ns3:TrackPointExtension>
        </extensions>
      </trkpt>
      <trkpt lat="-22.09682467393577098846435546875" lon="166.450708843767642974853515625">
        <ele>602.5999755859375</ele>
        <time>2016-08-12T22:47:44.000Z</time>
        <extensions>
          <ns3:TrackPointExtension>
            <ns3:atemp>23.0</ns3:atemp>
            <ns3:hr>129</ns3:hr>
          </ns3:TrackPointExtension>
        </extensions>
      </trkpt>
      <trkpt lat="-22.0968443714082241058349609375" lon="166.45072166807949542999267578125">
        <ele>602.5999755859375</ele>
        <time>2016-08-12T22:47:45.000Z</time>
        <extensions>
          <ns3:TrackPointExtension>
            <ns3:atemp>23.0</ns3:atemp>
            <ns3:hr>130</ns3:hr>
          </ns3:TrackPointExtension>
        </extensions>
      </trkpt>
      <trkpt lat="-22.096862979233264923095703125" lon="166.45073407329618930816650390625">
        <ele>602.4000244140625</ele>
        <time>2016-08-12T22:47:46.000Z</time>
        <extensions>
          <ns3:TrackPointExtension>
            <ns3:atemp>23.0</ns3:atemp>
            <ns3:hr>130</ns3:hr>
          </ns3:TrackPointExtension>
        </extensions>
      </trkpt>
      <trkpt lat="-22.09688317961990833282470703125" lon="166.450741030275821685791015625">
        <ele>601.79998779296875</ele>
        <time>2016-08-12T22:47:47.000Z</time>
        <extensions>
          <ns3:TrackPointExtension>
            <ns3:atemp>23.0</ns3:atemp>
            <ns3:hr>130</ns3:hr>
          </ns3:TrackPointExtension>
        </extensions>
      </trkpt>
      <trkpt lat="-22.0969001948833465576171875" lon="166.45075351931154727935791015625">
        <ele>602</ele>
        <time>2016-08-12T22:47:48.000Z</time>
        <extensions>
          <ns3:TrackPointExtension>
            <ns3:atemp>23.0</ns3:atemp>
            <ns3:hr>130</ns3:hr>
          </ns3:TrackPointExtension>
        </extensions>
      </trkpt>
      <trkpt lat="-22.09691452793776988983154296875" lon="166.450767852365970611572265625">
        <ele>602</ele>
        <time>2016-08-12T22:47:49.000Z</time>
        <extensions>
          <ns3:TrackPointExtension>
            <ns3:atemp>23.0</ns3:atemp>
            <ns3:hr>131</ns3:hr>
          </ns3:TrackPointExtension>
        </extensions>
      </trkpt>
      <trkpt lat="-22.09693145938217639923095703125" lon="166.450785957276821136474609375">
        <ele>601.20001220703125</ele>
        <time>2016-08-12T22:47:50.000Z</time>
        <extensions>
          <ns3:TrackPointExtension>
            <ns3:atemp>23.0</ns3:atemp>
            <ns3:hr>130</ns3:hr>
          </ns3:TrackPointExtension>
        </extensions>
      </trkpt>
      <trkpt lat="-22.09694512188434600830078125" lon="166.4508064091205596923828125">
        <ele>600.4000244140625</ele>
        <time>2016-08-12T22:47:51.000Z</time>
        <extensions>
          <ns3:TrackPointExtension>
            <ns3:atemp>23.0</ns3:atemp>
            <ns3:hr>130</ns3:hr>
          </ns3:TrackPointExtension>
        </extensions>
      </trkpt>
      <trkpt lat="-22.0969533361494541168212890625" lon="166.45082409493625164031982421875">
        <ele>599.79998779296875</ele>
        <time>2016-08-12T22:47:52.000Z</time>
        <extensions>
          <ns3:TrackPointExtension>
            <ns3:atemp>23.0</ns3:atemp>
            <ns3:hr>130</ns3:hr>
          </ns3:TrackPointExtension>
        </extensions>
      </trkpt>
      <trkpt lat="-22.096965573728084564208984375" lon="166.45084739662706851959228515625">
        <ele>599.4000244140625</ele>
        <time>2016-08-12T22:47:53.000Z</time>
        <extensions>
          <ns3:TrackPointExtension>
            <ns3:atemp>23.0</ns3:atemp>
            <ns3:hr>130</ns3:hr>
          </ns3:TrackPointExtension>
        </extensions>
      </trkpt>
      <trkpt lat="-22.096976302564144134521484375" lon="166.4508707821369171142578125">
        <ele>599.20001220703125</ele>
        <time>2016-08-12T22:47:54.000Z</time>
        <extensions>
          <ns3:TrackPointExtension>
            <ns3:atemp>23.0</ns3:atemp>
            <ns3:hr>130</ns3:hr>
          </ns3:TrackPointExtension>
        </extensions>
      </trkpt>
      <trkpt lat="-22.09698510356247425079345703125" lon="166.45089291036128997802734375">
        <ele>599.20001220703125</ele>
        <time>2016-08-12T22:47:55.000Z</time>
        <extensions>
          <ns3:TrackPointExtension>
            <ns3:atemp>23.0</ns3:atemp>
            <ns3:hr>130</ns3:hr>
          </ns3:TrackPointExtension>
        </extensions>
      </trkpt>
      <trkpt lat="-22.09699549712240695953369140625" lon="166.45091679878532886505126953125">
        <ele>599.20001220703125</ele>
        <time>2016-08-12T22:47:56.000Z</time>
        <extensions>
          <ns3:TrackPointExtension>
            <ns3:atemp>23.0</ns3:atemp>
            <ns3:hr>130</ns3:hr>
          </ns3:TrackPointExtension>
        </extensions>
      </trkpt>
      <trkpt lat="-22.097005136311054229736328125" lon="166.45093875937163829803466796875">
        <ele>599.5999755859375</ele>
        <time>2016-08-12T22:47:57.000Z</time>
        <extensions>
          <ns3:TrackPointExtension>
            <ns3:atemp>23.0</ns3:atemp>
            <ns3:hr>130</ns3:hr>
          </ns3:TrackPointExtension>
        </extensions>
      </trkpt>
      <trkpt lat="-22.097015865147113800048828125" lon="166.450960971415042877197265625">
        <ele>599.4000244140625</ele>
        <time>2016-08-12T22:47:58.000Z</time>
        <extensions>
          <ns3:TrackPointExtension>
            <ns3:atemp>23.0</ns3:atemp>
            <ns3:hr>129</ns3:hr>
          </ns3:TrackPointExtension>
        </extensions>
      </trkpt>
      <trkpt lat="-22.09702919237315654754638671875" lon="166.450981758534908294677734375">
        <ele>599</ele>
        <time>2016-08-12T22:47:59.000Z</time>
        <extensions>
          <ns3:TrackPointExtension>
            <ns3:atemp>23.0</ns3:atemp>
            <ns3:hr>129</ns3:hr>
          </ns3:TrackPointExtension>
        </extensions>
      </trkpt>
      <trkpt lat="-22.0970421843230724334716796875" lon="166.451004557311534881591796875">
        <ele>598.5999755859375</ele>
        <time>2016-08-12T22:48:00.000Z</time>
        <extensions>
          <ns3:TrackPointExtension>
            <ns3:atemp>23.0</ns3:atemp>
            <ns3:hr>129</ns3:hr>
          </ns3:TrackPointExtension>
        </extensions>
      </trkpt>
      <trkpt lat="-22.09705584682524204254150390625" lon="166.45102375186979770660400390625">
        <ele>598.20001220703125</ele>
        <time>2016-08-12T22:48:01.000Z</time>
        <extensions>
          <ns3:TrackPointExtension>
            <ns3:atemp>23.0</ns3:atemp>
            <ns3:hr>129</ns3:hr>
          </ns3:TrackPointExtension>
        </extensions>
      </trkpt>
      <trkpt lat="-22.09707194007933139801025390625" lon="166.451038084924221038818359375">
        <ele>598</ele>
        <time>2016-08-12T22:48:02.000Z</time>
        <extensions>
          <ns3:TrackPointExtension>
            <ns3:atemp>23.0</ns3:atemp>
            <ns3:hr>129</ns3:hr>
          </ns3:TrackPointExtension>
        </extensions>
      </trkpt>
      <trkpt lat="-22.09708954207599163055419921875" lon="166.451054513454437255859375">
        <ele>597.79998779296875</ele>
        <time>2016-08-12T22:48:03.000Z</time>
        <extensions>
          <ns3:TrackPointExtension>
            <ns3:atemp>23.0</ns3:atemp>
            <ns3:hr>129</ns3:hr>
          </ns3:TrackPointExtension>
        </extensions>
      </trkpt>
      <trkpt lat="-22.0971078984439373016357421875" lon="166.4510697685182094573974609375">
        <ele>598.20001220703125</ele>
        <time>2016-08-12T22:48:04.000Z</time>
        <extensions>
          <ns3:TrackPointExtension>
            <ns3:atemp>23.0</ns3:atemp>
            <ns3:hr>129</ns3:hr>
          </ns3:TrackPointExtension>
        </extensions>
      </trkpt>
      <trkpt lat="-22.097124494612216949462890625" lon="166.451089382171630859375">
        <ele>598.20001220703125</ele>
        <time>2016-08-12T22:48:05.000Z</time>
        <extensions>
          <ns3:TrackPointExtension>
            <ns3:atemp>23.0</ns3:atemp>
            <ns3:hr>129</ns3:hr>
          </ns3:TrackPointExtension>
        </extensions>
      </trkpt>
      <trkpt lat="-22.09713849239051342010498046875" lon="166.4511066488921642303466796875">
        <ele>598.4000244140625</ele>
        <time>2016-08-12T22:48:06.000Z</time>
        <extensions>
          <ns3:TrackPointExtension>
            <ns3:atemp>23.0</ns3:atemp>
            <ns3:hr>128</ns3:hr>
          </ns3:TrackPointExtension>
        </extensions>
      </trkpt>
      <trkpt lat="-22.09715022705495357513427734375" lon="166.4511229097843170166015625">
        <ele>598.5999755859375</ele>
        <time>2016-08-12T22:48:07.000Z</time>
        <extensions>
          <ns3:TrackPointExtension>
            <ns3:atemp>23.0</ns3:atemp>
            <ns3:hr>128</ns3:hr>
          </ns3:TrackPointExtension>
        </extensions>
      </trkpt>
      <trkpt lat="-22.09716196171939373016357421875" lon="166.45114763639867305755615234375">
        <ele>598.20001220703125</ele>
        <time>2016-08-12T22:48:08.000Z</time>
        <extensions>
          <ns3:TrackPointExtension>
            <ns3:atemp>23.0</ns3:atemp>
            <ns3:hr>128</ns3:hr>
          </ns3:TrackPointExtension>
        </extensions>
      </trkpt>
      <trkpt lat="-22.09717771969735622406005859375" lon="166.45117378793656826019287109375">
        <ele>597.5999755859375</ele>
        <time>2016-08-12T22:48:09.000Z</time>
        <extensions>
          <ns3:TrackPointExtension>
            <ns3:atemp>23.0</ns3:atemp>
            <ns3:hr>128</ns3:hr>
          </ns3:TrackPointExtension>
        </extensions>
      </trkpt>
      <trkpt lat="-22.0971925556659698486328125" lon="166.45119809545576572418212890625">
        <ele>596.79998779296875</ele>
        <time>2016-08-12T22:48:10.000Z</time>
        <extensions>
          <ns3:TrackPointExtension>
            <ns3:atemp>23.0</ns3:atemp>
            <ns3:hr>128</ns3:hr>
          </ns3:TrackPointExtension>
        </extensions>
      </trkpt>
      <trkpt lat="-22.0972114987671375274658203125" lon="166.4512169547379016876220703125">
        <ele>596.5999755859375</ele>
        <time>2016-08-12T22:48:11.000Z</time>
        <extensions>
          <ns3:TrackPointExtension>
            <ns3:atemp>23.0</ns3:atemp>
            <ns3:hr>128</ns3:hr>
          </ns3:TrackPointExtension>
        </extensions>
      </trkpt>
      <trkpt lat="-22.09723019041121006011962890625" lon="166.45123329944908618927001953125">
        <ele>596</ele>
        <time>2016-08-12T22:48:12.000Z</time>
        <extensions>
          <ns3:TrackPointExtension>
            <ns3:atemp>23.0</ns3:atemp>
            <ns3:hr>127</ns3:hr>
          </ns3:TrackPointExtension>
        </extensions>
      </trkpt>
      <trkpt lat="-22.09725131280720233917236328125" lon="166.451241932809352874755859375">
        <ele>595.79998779296875</ele>
        <time>2016-08-12T22:48:13.000Z</time>
        <extensions>
          <ns3:TrackPointExtension>
            <ns3:atemp>23.0</ns3:atemp>
            <ns3:hr>128</ns3:hr>
          </ns3:TrackPointExtension>
        </extensions>
      </trkpt>
      <trkpt lat="-22.09727411158382892608642578125" lon="166.45125341601669788360595703125">
        <ele>596.79998779296875</ele>
        <time>2016-08-12T22:48:14.000Z</time>
        <extensions>
          <ns3:TrackPointExtension>
            <ns3:atemp>23.0</ns3:atemp>
            <ns3:hr>127</ns3:hr>
          </ns3:TrackPointExtension>
        </extensions>
      </trkpt>
      <trkpt lat="-22.097295820713043212890625" lon="166.45126439630985260009765625">
        <ele>596.20001220703125</ele>
        <time>2016-08-12T22:48:15.000Z</time>
        <extensions>
          <ns3:TrackPointExtension>
            <ns3:atemp>23.0</ns3:atemp>
            <ns3:hr>127</ns3:hr>
          </ns3:TrackPointExtension>
        </extensions>
      </trkpt>
      <trkpt lat="-22.0973181165754795074462890625" lon="166.45127621479332447052001953125">
        <ele>595.4000244140625</ele>
        <time>2016-08-12T22:48:16.000Z</time>
        <extensions>
          <ns3:TrackPointExtension>
            <ns3:atemp>23.0</ns3:atemp>
            <ns3:hr>127</ns3:hr>
          </ns3:TrackPointExtension>
        </extensions>
      </trkpt>
      <trkpt lat="-22.09734334610402584075927734375" lon="166.45128560252487659454345703125">
        <ele>596.20001220703125</ele>
        <time>2016-08-12T22:48:17.000Z</time>
        <extensions>
          <ns3:TrackPointExtension>
            <ns3:atemp>23.0</ns3:atemp>
            <ns3:hr>127</ns3:hr>
          </ns3:TrackPointExtension>
        </extensions>
      </trkpt>
      <trkpt lat="-22.09736748598515987396240234375" lon="166.4512947387993335723876953125">
        <ele>595.79998779296875</ele>
        <time>2016-08-12T22:48:18.000Z</time>
        <extensions>
          <ns3:TrackPointExtension>
            <ns3:atemp>23.0</ns3:atemp>
            <ns3:hr>127</ns3:hr>
          </ns3:TrackPointExtension>
        </extensions>
      </trkpt>
      <trkpt lat="-22.09739279933273792266845703125" lon="166.45130152814090251922607421875">
        <ele>595</ele>
        <time>2016-08-12T22:48:19.000Z</time>
        <extensions>
          <ns3:TrackPointExtension>
            <ns3:atemp>23.0</ns3:atemp>
            <ns3:hr>127</ns3:hr>
          </ns3:TrackPointExtension>
        </extensions>
      </trkpt>
      <trkpt lat="-22.09741408936679363250732421875" lon="166.4513074792921543121337890625">
        <ele>594.79998779296875</ele>
        <time>2016-08-12T22:48:20.000Z</time>
        <extensions>
          <ns3:TrackPointExtension>
            <ns3:atemp>23.0</ns3:atemp>
            <ns3:hr>127</ns3:hr>
          </ns3:TrackPointExtension>
        </extensions>
      </trkpt>
      <trkpt lat="-22.0974334515631198883056640625" lon="166.4513128437101840972900390625">
        <ele>595</ele>
        <time>2016-08-12T22:48:21.000Z</time>
        <extensions>
          <ns3:TrackPointExtension>
            <ns3:atemp>23.0</ns3:atemp>
            <ns3:hr>126</ns3:hr>
          </ns3:TrackPointExtension>
        </extensions>
      </trkpt>
      <trkpt lat="-22.0974539034068584442138671875" lon="166.45131879486143589019775390625">
        <ele>594.20001220703125</ele>
        <time>2016-08-12T22:48:22.000Z</time>
        <extensions>
          <ns3:TrackPointExtension>
            <ns3:atemp>23.0</ns3:atemp>
            <ns3:hr>127</ns3:hr>
          </ns3:TrackPointExtension>
        </extensions>
      </trkpt>
      <trkpt lat="-22.09747309796512126922607421875" lon="166.4513225667178630828857421875">
        <ele>594.5999755859375</ele>
        <time>2016-08-12T22:48:23.000Z</time>
        <extensions>
          <ns3:TrackPointExtension>
            <ns3:atemp>23.0</ns3:atemp>
            <ns3:hr>126</ns3:hr>
          </ns3:TrackPointExtension>
        </extensions>
      </trkpt>
      <trkpt lat="-22.09749539382755756378173828125" lon="166.45133086480200290679931640625">
        <ele>595.4000244140625</ele>
        <time>2016-08-12T22:48:24.000Z</time>
        <extensions>
          <ns3:TrackPointExtension>
            <ns3:atemp>23.0</ns3:atemp>
            <ns3:hr>126</ns3:hr>
          </ns3:TrackPointExtension>
        </extensions>
      </trkpt>
      <trkpt lat="-22.09752053953707218170166015625" lon="166.4513400010764598846435546875">
        <ele>596.5999755859375</ele>
        <time>2016-08-12T22:48:25.000Z</time>
        <extensions>
          <ns3:TrackPointExtension>
            <ns3:atemp>23.0</ns3:atemp>
            <ns3:hr>126</ns3:hr>
          </ns3:TrackPointExtension>
        </extensions>
      </trkpt>
      <trkpt lat="-22.09754115901887416839599609375" lon="166.45134980790317058563232421875">
        <ele>597.20001220703125</ele>
        <time>2016-08-12T22:48:26.000Z</time>
        <extensions>
          <ns3:TrackPointExtension>
            <ns3:atemp>23.0</ns3:atemp>
            <ns3:hr>126</ns3:hr>
          </ns3:TrackPointExtension>
        </extensions>
      </trkpt>
      <trkpt lat="-22.09756068885326385498046875" lon="166.4513644762337207794189453125">
        <ele>597.4000244140625</ele>
        <time>2016-08-12T22:48:27.000Z</time>
        <extensions>
          <ns3:TrackPointExtension>
            <ns3:atemp>23.0</ns3:atemp>
            <ns3:hr>126</ns3:hr>
          </ns3:TrackPointExtension>
        </extensions>
      </trkpt>
      <trkpt lat="-22.09758323617279529571533203125" lon="166.45137679763138294219970703125">
        <ele>596.4000244140625</ele>
        <time>2016-08-12T22:48:28.000Z</time>
        <extensions>
          <ns3:TrackPointExtension>
            <ns3:atemp>23.0</ns3:atemp>
            <ns3:hr>126</ns3:hr>
          </ns3:TrackPointExtension>
        </extensions>
      </trkpt>
      <trkpt lat="-22.09760536439716815948486328125" lon="166.451384089887142181396484375">
        <ele>594.5999755859375</ele>
        <time>2016-08-12T22:48:29.000Z</time>
        <extensions>
          <ns3:TrackPointExtension>
            <ns3:atemp>23.0</ns3:atemp>
            <ns3:hr>126</ns3:hr>
          </ns3:TrackPointExtension>
        </extensions>
      </trkpt>
      <trkpt lat="-22.097630761563777923583984375" lon="166.4513892866671085357666015625">
        <ele>593.4000244140625</ele>
        <time>2016-08-12T22:48:30.000Z</time>
        <extensions>
          <ns3:TrackPointExtension>
            <ns3:atemp>23.0</ns3:atemp>
            <ns3:hr>127</ns3:hr>
          </ns3:TrackPointExtension>
        </extensions>
      </trkpt>
      <trkpt lat="-22.09765716455876827239990234375" lon="166.45139557309448719024658203125">
        <ele>593.4000244140625</ele>
        <time>2016-08-12T22:48:31.000Z</time>
        <extensions>
          <ns3:TrackPointExtension>
            <ns3:atemp>23.0</ns3:atemp>
            <ns3:hr>126</ns3:hr>
          </ns3:TrackPointExtension>
        </extensions>
      </trkpt>
      <trkpt lat="-22.0976788736879825592041015625" lon="166.451402865350246429443359375">
        <ele>593.5999755859375</ele>
        <time>2016-08-12T22:48:32.000Z</time>
        <extensions>
          <ns3:TrackPointExtension>
            <ns3:atemp>23.0</ns3:atemp>
            <ns3:hr>127</ns3:hr>
          </ns3:TrackPointExtension>
        </extensions>
      </trkpt>
      <trkpt lat="-22.097703851759433746337890625" lon="166.4514072239398956298828125">
        <ele>593.20001220703125</ele>
        <time>2016-08-12T22:48:33.000Z</time>
        <extensions>
          <ns3:TrackPointExtension>
            <ns3:atemp>23.0</ns3:atemp>
            <ns3:hr>126</ns3:hr>
          </ns3:TrackPointExtension>
        </extensions>
      </trkpt>
      <trkpt lat="-22.09773025475442409515380859375" lon="166.45140630193054676055908203125">
        <ele>593.4000244140625</ele>
        <time>2016-08-12T22:48:34.000Z</time>
        <extensions>
          <ns3:TrackPointExtension>
            <ns3:atemp>23.0</ns3:atemp>
            <ns3:hr>126</ns3:hr>
          </ns3:TrackPointExtension>
        </extensions>
      </trkpt>
      <trkpt lat="-22.0977558195590972900390625" lon="166.45140596665441989898681640625">
        <ele>592.4000244140625</ele>
        <time>2016-08-12T22:48:35.000Z</time>
        <extensions>
          <ns3:TrackPointExtension>
            <ns3:atemp>23.0</ns3:atemp>
            <ns3:hr>126</ns3:hr>
          </ns3:TrackPointExtension>
        </extensions>
      </trkpt>
      <trkpt lat="-22.0977844856679439544677734375" lon="166.45140076987445354461669921875">
        <ele>591.5999755859375</ele>
        <time>2016-08-12T22:48:36.000Z</time>
        <extensions>
          <ns3:TrackPointExtension>
            <ns3:atemp>23.0</ns3:atemp>
            <ns3:hr>127</ns3:hr>
          </ns3:TrackPointExtension>
        </extensions>
      </trkpt>
      <trkpt lat="-22.09780837409198284149169921875" lon="166.45139590837061405181884765625">
        <ele>592.79998779296875</ele>
        <time>2016-08-12T22:48:37.000Z</time>
        <extensions>
          <ns3:TrackPointExtension>
            <ns3:atemp>23.0</ns3:atemp>
            <ns3:hr>127</ns3:hr>
          </ns3:TrackPointExtension>
        </extensions>
      </trkpt>
      <trkpt lat="-22.0978317596018314361572265625" lon="166.45138853229582309722900390625">
        <ele>592.5999755859375</ele>
        <time>2016-08-12T22:48:38.000Z</time>
        <extensions>
          <ns3:TrackPointExtension>
            <ns3:atemp>23.0</ns3:atemp>
            <ns3:hr>127</ns3:hr>
          </ns3:TrackPointExtension>
        </extensions>
      </trkpt>
      <trkpt lat="-22.09786235354840755462646484375" lon="166.4513812400400638580322265625">
        <ele>591.5999755859375</ele>
        <time>2016-08-12T22:48:39.000Z</time>
        <extensions>
          <ns3:TrackPointExtension>
            <ns3:atemp>23.0</ns3:atemp>
            <ns3:hr>127</ns3:hr>
          </ns3:TrackPointExtension>
        </extensions>
      </trkpt>
      <trkpt lat="-22.09789252839982509613037109375" lon="166.4513752050697803497314453125">
        <ele>591.4000244140625</ele>
        <time>2016-08-12T22:48:40.000Z</time>
        <extensions>
          <ns3:TrackPointExtension>
            <ns3:atemp>23.0</ns3:atemp>
            <ns3:hr>127</ns3:hr>
          </ns3:TrackPointExtension>
        </extensions>
      </trkpt>
      <trkpt lat="-22.09791918285191059112548828125" lon="166.4513705112040042877197265625">
        <ele>591.5999755859375</ele>
        <time>2016-08-12T22:48:41.000Z</time>
        <extensions>
          <ns3:TrackPointExtension>
            <ns3:atemp>24.0</ns3:atemp>
            <ns3:hr>127</ns3:hr>
          </ns3:TrackPointExtension>
        </extensions>
      </trkpt>
      <trkpt lat="-22.09794483147561550140380859375" lon="166.45136690698564052581787109375">
        <ele>590.4000244140625</ele>
        <time>2016-08-12T22:48:42.000Z</time>
        <extensions>
          <ns3:TrackPointExtension>
            <ns3:atemp>24.0</ns3:atemp>
            <ns3:hr>127</ns3:hr>
          </ns3:TrackPointExtension>
        </extensions>
      </trkpt>
      <trkpt lat="-22.097968719899654388427734375" lon="166.45136472769081592559814453125">
        <ele>590.5999755859375</ele>
        <time>2016-08-12T22:48:43.000Z</time>
        <extensions>
          <ns3:TrackPointExtension>
            <ns3:atemp>24.0</ns3:atemp>
            <ns3:hr>127</ns3:hr>
          </ns3:TrackPointExtension>
        </extensions>
      </trkpt>
      <trkpt lat="-22.0979967154562473297119140625" lon="166.45136942155659198760986328125">
        <ele>590.4000244140625</ele>
        <time>2016-08-12T22:48:44.000Z</time>
        <extensions>
          <ns3:TrackPointExtension>
            <ns3:atemp>24.0</ns3:atemp>
            <ns3:hr>127</ns3:hr>
          </ns3:TrackPointExtension>
        </extensions>
      </trkpt>
      <trkpt lat="-22.09802429191768169403076171875" lon="166.4513741992413997650146484375">
        <ele>590</ele>
        <time>2016-08-12T22:48:45.000Z</time>
        <extensions>
          <ns3:TrackPointExtension>
            <ns3:atemp>24.0</ns3:atemp>
            <ns3:hr>127</ns3:hr>
          </ns3:TrackPointExtension>
        </extensions>
      </trkpt>
      <trkpt lat="-22.09805010817945003509521484375" lon="166.45137730054557323455810546875">
        <ele>590</ele>
        <time>2016-08-12T22:48:46.000Z</time>
        <extensions>
          <ns3:TrackPointExtension>
            <ns3:atemp>24.0</ns3:atemp>
            <ns3:hr>128</ns3:hr>
          </ns3:TrackPointExtension>
        </extensions>
      </trkpt>
      <trkpt lat="-22.09807340987026691436767578125" lon="166.451381742954254150390625">
        <ele>590</ele>
        <time>2016-08-12T22:48:47.000Z</time>
        <extensions>
          <ns3:TrackPointExtension>
            <ns3:atemp>24.0</ns3:atemp>
            <ns3:hr>128</ns3:hr>
          </ns3:TrackPointExtension>
        </extensions>
      </trkpt>
      <trkpt lat="-22.09810073487460613250732421875" lon="166.451387442648410797119140625">
        <ele>589.4000244140625</ele>
        <time>2016-08-12T22:48:48.000Z</time>
        <extensions>
          <ns3:TrackPointExtension>
            <ns3:atemp>24.0</ns3:atemp>
            <ns3:hr>128</ns3:hr>
          </ns3:TrackPointExtension>
        </extensions>
      </trkpt>
      <trkpt lat="-22.0981227792799472808837890625" lon="166.4513906277716159820556640625">
        <ele>588.79998779296875</ele>
        <time>2016-08-12T22:48:49.000Z</time>
        <extensions>
          <ns3:TrackPointExtension>
            <ns3:atemp>24.0</ns3:atemp>
            <ns3:hr>128</ns3:hr>
          </ns3:TrackPointExtension>
        </extensions>
      </trkpt>
      <trkpt lat="-22.09815085865557193756103515625" lon="166.4513973332941532135009765625">
        <ele>589.20001220703125</ele>
        <time>2016-08-12T22:48:50.000Z</time>
        <extensions>
          <ns3:TrackPointExtension>
            <ns3:atemp>24.0</ns3:atemp>
            <ns3:hr>128</ns3:hr>
          </ns3:TrackPointExtension>
        </extensions>
      </trkpt>
      <trkpt lat="-22.09817332215607166290283203125" lon="166.4514043740928173065185546875">
        <ele>589.79998779296875</ele>
        <time>2016-08-12T22:48:51.000Z</time>
        <extensions>
          <ns3:TrackPointExtension>
            <ns3:atemp>24.0</ns3:atemp>
            <ns3:hr>128</ns3:hr>
          </ns3:TrackPointExtension>
        </extensions>
      </trkpt>
      <trkpt lat="-22.098191343247890472412109375" lon="166.45141200162470340728759765625">
        <ele>590</ele>
        <time>2016-08-12T22:48:52.000Z</time>
        <extensions>
          <ns3:TrackPointExtension>
            <ns3:atemp>24.0</ns3:atemp>
            <ns3:hr>128</ns3:hr>
          </ns3:TrackPointExtension>
        </extensions>
      </trkpt>
      <trkpt lat="-22.0982117950916290283203125" lon="166.45141661167144775390625">
        <ele>590.5999755859375</ele>
        <time>2016-08-12T22:48:53.000Z</time>
        <extensions>
          <ns3:TrackPointExtension>
            <ns3:atemp>24.0</ns3:atemp>
            <ns3:hr>128</ns3:hr>
          </ns3:TrackPointExtension>
        </extensions>
      </trkpt>
      <trkpt lat="-22.0982337556779384613037109375" lon="166.45141996443271636962890625">
        <ele>590</ele>
        <time>2016-08-12T22:48:54.000Z</time>
        <extensions>
          <ns3:TrackPointExtension>
            <ns3:atemp>24.0</ns3:atemp>
            <ns3:hr>128</ns3:hr>
          </ns3:TrackPointExtension>
        </extensions>
      </trkpt>
      <trkpt lat="-22.098257057368755340576171875" lon="166.4514248259365558624267578125">
        <ele>589.4000244140625</ele>
        <time>2016-08-12T22:48:55.000Z</time>
        <extensions>
          <ns3:TrackPointExtension>
            <ns3:atemp>24.0</ns3:atemp>
            <ns3:hr>128</ns3:hr>
          </ns3:TrackPointExtension>
        </extensions>
      </trkpt>
      <trkpt lat="-22.09828211925923824310302734375" lon="166.4514355547726154327392578125">
        <ele>589.5999755859375</ele>
        <time>2016-08-12T22:48:56.000Z</time>
        <extensions>
          <ns3:TrackPointExtension>
            <ns3:atemp>24.0</ns3:atemp>
            <ns3:hr>129</ns3:hr>
          </ns3:TrackPointExtension>
        </extensions>
      </trkpt>
      <trkpt lat="-22.09830701351165771484375" lon="166.451447792351245880126953125">
        <ele>589.5999755859375</ele>
        <time>2016-08-12T22:48:57.000Z</time>
        <extensions>
          <ns3:TrackPointExtension>
            <ns3:atemp>24.0</ns3:atemp>
            <ns3:hr>128</ns3:hr>
          </ns3:TrackPointExtension>
        </extensions>
      </trkpt>
      <trkpt lat="-22.0983299799263477325439453125" lon="166.451456509530544281005859375">
        <ele>589.20001220703125</ele>
        <time>2016-08-12T22:48:58.000Z</time>
        <extensions>
          <ns3:TrackPointExtension>
            <ns3:atemp>24.0</ns3:atemp>
            <ns3:hr>129</ns3:hr>
          </ns3:TrackPointExtension>
        </extensions>
      </trkpt>
      <trkpt lat="-22.09835839457809925079345703125" lon="166.4514664001762866973876953125">
        <ele>589.5999755859375</ele>
        <time>2016-08-12T22:48:59.000Z</time>
        <extensions>
          <ns3:TrackPointExtension>
            <ns3:atemp>24.0</ns3:atemp>
            <ns3:hr>128</ns3:hr>
          </ns3:TrackPointExtension>
        </extensions>
      </trkpt>
      <trkpt lat="-22.0983832888305187225341796875" lon="166.451471261680126190185546875">
        <ele>588.79998779296875</ele>
        <time>2016-08-12T22:49:00.000Z</time>
        <extensions>
          <ns3:TrackPointExtension>
            <ns3:atemp>24.0</ns3:atemp>
            <ns3:hr>129</ns3:hr>
          </ns3:TrackPointExtension>
        </extensions>
      </trkpt>
      <trkpt lat="-22.0984114520251750946044921875" lon="166.45147453062236309051513671875">
        <ele>588.4000244140625</ele>
        <time>2016-08-12T22:49:01.000Z</time>
        <extensions>
          <ns3:TrackPointExtension>
            <ns3:atemp>24.0</ns3:atemp>
            <ns3:hr>128</ns3:hr>
          </ns3:TrackPointExtension>
        </extensions>
      </trkpt>
      <trkpt lat="-22.098444811999797821044921875" lon="166.45147201605141162872314453125">
        <ele>588.4000244140625</ele>
        <time>2016-08-12T22:49:02.000Z</time>
        <extensions>
          <ns3:TrackPointExtension>
            <ns3:atemp>24.0</ns3:atemp>
            <ns3:hr>129</ns3:hr>
          </ns3:TrackPointExtension>
        </extensions>
      </trkpt>
      <trkpt lat="-22.09847263991832733154296875" lon="166.45146715454757213592529296875">
        <ele>588.4000244140625</ele>
        <time>2016-08-12T22:49:03.000Z</time>
        <extensions>
          <ns3:TrackPointExtension>
            <ns3:atemp>24.0</ns3:atemp>
            <ns3:hr>128</ns3:hr>
          </ns3:TrackPointExtension>
        </extensions>
      </trkpt>
      <trkpt lat="-22.09849636070430278778076171875" lon="166.451456509530544281005859375">
        <ele>588.4000244140625</ele>
        <time>2016-08-12T22:49:04.000Z</time>
        <extensions>
          <ns3:TrackPointExtension>
            <ns3:atemp>24.0</ns3:atemp>
            <ns3:hr>128</ns3:hr>
          </ns3:TrackPointExtension>
        </extensions>
      </trkpt>
      <trkpt lat="-22.0985210873186588287353515625" lon="166.45144200883805751800537109375">
        <ele>588.4000244140625</ele>
        <time>2016-08-12T22:49:05.000Z</time>
        <extensions>
          <ns3:TrackPointExtension>
            <ns3:atemp>24.0</ns3:atemp>
            <ns3:hr>128</ns3:hr>
          </ns3:TrackPointExtension>
        </extensions>
      </trkpt>
      <trkpt lat="-22.09854212589561939239501953125" lon="166.45142725668847560882568359375">
        <ele>588.4000244140625</ele>
        <time>2016-08-12T22:49:06.000Z</time>
        <extensions>
          <ns3:TrackPointExtension>
            <ns3:atemp>24.0</ns3:atemp>
            <ns3:hr>128</ns3:hr>
          </ns3:TrackPointExtension>
        </extensions>
      </trkpt>
      <trkpt lat="-22.0985591411590576171875" lon="166.4514057151973247528076171875">
        <ele>588</ele>
        <time>2016-08-12T22:49:07.000Z</time>
        <extensions>
          <ns3:TrackPointExtension>
            <ns3:atemp>24.0</ns3:atemp>
            <ns3:hr>129</ns3:hr>
          </ns3:TrackPointExtension>
        </extensions>
      </trkpt>
      <trkpt lat="-22.0985730551183223724365234375" lon="166.4513809047639369964599609375">
        <ele>588</ele>
        <time>2016-08-12T22:49:08.000Z</time>
        <extensions>
          <ns3:TrackPointExtension>
            <ns3:atemp>24.0</ns3:atemp>
            <ns3:hr>128</ns3:hr>
          </ns3:TrackPointExtension>
        </extensions>
      </trkpt>
      <trkpt lat="-22.09858705289661884307861328125" lon="166.4513584412634372711181640625">
        <ele>587</ele>
        <time>2016-08-12T22:49:09.000Z</time>
        <extensions>
          <ns3:TrackPointExtension>
            <ns3:atemp>24.0</ns3:atemp>
            <ns3:hr>128</ns3:hr>
          </ns3:TrackPointExtension>
        </extensions>
      </trkpt>
      <trkpt lat="-22.09860272705554962158203125" lon="166.451333798468112945556640625">
        <ele>586.20001220703125</ele>
        <time>2016-08-12T22:49:10.000Z</time>
        <extensions>
          <ns3:TrackPointExtension>
            <ns3:atemp>24.0</ns3:atemp>
            <ns3:hr>128</ns3:hr>
          </ns3:TrackPointExtension>
        </extensions>
      </trkpt>
      <trkpt lat="-22.09862007759511470794677734375" lon="166.45131041295826435089111328125">
        <ele>587.4000244140625</ele>
        <time>2016-08-12T22:49:11.000Z</time>
        <extensions>
          <ns3:TrackPointExtension>
            <ns3:atemp>23.0</ns3:atemp>
            <ns3:hr>128</ns3:hr>
          </ns3:TrackPointExtension>
        </extensions>
      </trkpt>
      <trkpt lat="-22.0986340753734111785888671875" lon="166.45128929056227207183837890625">
        <ele>586.4000244140625</ele>
        <time>2016-08-12T22:49:12.000Z</time>
        <extensions>
          <ns3:TrackPointExtension>
            <ns3:atemp>23.0</ns3:atemp>
            <ns3:hr>128</ns3:hr>
          </ns3:TrackPointExtension>
        </extensions>
      </trkpt>
      <trkpt lat="-22.0986417867243289947509765625" lon="166.451265402138233184814453125">
        <ele>585.4000244140625</ele>
        <time>2016-08-12T22:49:13.000Z</time>
        <extensions>
          <ns3:TrackPointExtension>
            <ns3:atemp>23.0</ns3:atemp>
            <ns3:hr>128</ns3:hr>
          </ns3:TrackPointExtension>
        </extensions>
      </trkpt>
      <trkpt lat="-22.09865427576005458831787109375" lon="166.45124637521803379058837890625">
        <ele>585.20001220703125</ele>
        <time>2016-08-12T22:49:14.000Z</time>
        <extensions>
          <ns3:TrackPointExtension>
            <ns3:atemp>23.0</ns3:atemp>
            <ns3:hr>128</ns3:hr>
          </ns3:TrackPointExtension>
        </extensions>
      </trkpt>
      <trkpt lat="-22.09867238067090511322021484375" lon="166.4512330479919910430908203125">
        <ele>585.5999755859375</ele>
        <time>2016-08-12T22:49:15.000Z</time>
        <extensions>
          <ns3:TrackPointExtension>
            <ns3:atemp>23.0</ns3:atemp>
            <ns3:hr>127</ns3:hr>
          </ns3:TrackPointExtension>
        </extensions>
      </trkpt>
      <trkpt lat="-22.09869501180946826934814453125" lon="166.451218463480472564697265625">
        <ele>585.5999755859375</ele>
        <time>2016-08-12T22:49:16.000Z</time>
        <extensions>
          <ns3:TrackPointExtension>
            <ns3:atemp>23.0</ns3:atemp>
            <ns3:hr>128</ns3:hr>
          </ns3:TrackPointExtension>
        </extensions>
      </trkpt>
      <trkpt lat="-22.09871060214936733245849609375" lon="166.451204717159271240234375">
        <ele>584.79998779296875</ele>
        <time>2016-08-12T22:49:17.000Z</time>
        <extensions>
          <ns3:TrackPointExtension>
            <ns3:atemp>23.0</ns3:atemp>
            <ns3:hr>128</ns3:hr>
          </ns3:TrackPointExtension>
        </extensions>
      </trkpt>
      <trkpt lat="-22.0987321436405181884765625" lon="166.4511953294277191162109375">
        <ele>584.20001220703125</ele>
        <time>2016-08-12T22:49:18.000Z</time>
        <extensions>
          <ns3:TrackPointExtension>
            <ns3:atemp>23.0</ns3:atemp>
            <ns3:hr>128</ns3:hr>
          </ns3:TrackPointExtension>
        </extensions>
      </trkpt>
      <trkpt lat="-22.098766677081584930419921875" lon="166.45118795335292816162109375">
        <ele>584.20001220703125</ele>
        <time>2016-08-12T22:49:19.000Z</time>
        <extensions>
          <ns3:TrackPointExtension>
            <ns3:atemp>23.0</ns3:atemp>
            <ns3:hr>127</ns3:hr>
          </ns3:TrackPointExtension>
        </extensions>
      </trkpt>
      <trkpt lat="-22.09878369234502315521240234375" lon="166.4511777274310588836669921875">
        <ele>584.4000244140625</ele>
        <time>2016-08-12T22:49:20.000Z</time>
        <extensions>
          <ns3:TrackPointExtension>
            <ns3:atemp>23.0</ns3:atemp>
            <ns3:hr>128</ns3:hr>
          </ns3:TrackPointExtension>
        </extensions>
      </trkpt>
      <trkpt lat="-22.09879877977073192596435546875" lon="166.451169513165950775146484375">
        <ele>584.20001220703125</ele>
        <time>2016-08-12T22:49:21.000Z</time>
        <extensions>
          <ns3:TrackPointExtension>
            <ns3:atemp>23.0</ns3:atemp>
            <ns3:hr>127</ns3:hr>
          </ns3:TrackPointExtension>
        </extensions>
      </trkpt>
      <trkpt lat="-22.098825685679912567138671875" lon="166.4511636458337306976318359375">
        <ele>584</ele>
        <time>2016-08-12T22:49:22.000Z</time>
        <extensions>
          <ns3:TrackPointExtension>
            <ns3:atemp>23.0</ns3:atemp>
            <ns3:hr>128</ns3:hr>
          </ns3:TrackPointExtension>
        </extensions>
      </trkpt>
      <trkpt lat="-22.09884010255336761474609375" lon="166.451149396598339080810546875">
        <ele>584.79998779296875</ele>
        <time>2016-08-12T22:49:23.000Z</time>
        <extensions>
          <ns3:TrackPointExtension>
            <ns3:atemp>23.0</ns3:atemp>
            <ns3:hr>127</ns3:hr>
          </ns3:TrackPointExtension>
        </extensions>
      </trkpt>
      <trkpt lat="-22.09886063821613788604736328125" lon="166.45113288424909114837646484375">
        <ele>584.5999755859375</ele>
        <time>2016-08-12T22:49:24.000Z</time>
        <extensions>
          <ns3:TrackPointExtension>
            <ns3:atemp>23.0</ns3:atemp>
            <ns3:hr>127</ns3:hr>
          </ns3:TrackPointExtension>
        </extensions>
      </trkpt>
      <trkpt lat="-22.0988882146775722503662109375" lon="166.45112081430852413177490234375">
        <ele>584.4000244140625</ele>
        <time>2016-08-12T22:49:25.000Z</time>
        <extensions>
          <ns3:TrackPointExtension>
            <ns3:atemp>23.0</ns3:atemp>
            <ns3:hr>127</ns3:hr>
          </ns3:TrackPointExtension>
        </extensions>
      </trkpt>
      <trkpt lat="-22.098911516368389129638671875" lon="166.451107822358608245849609375">
        <ele>584.4000244140625</ele>
        <time>2016-08-12T22:49:26.000Z</time>
        <extensions>
          <ns3:TrackPointExtension>
            <ns3:atemp>23.0</ns3:atemp>
            <ns3:hr>127</ns3:hr>
          </ns3:TrackPointExtension>
        </extensions>
      </trkpt>
      <trkpt lat="-22.09892651997506618499755859375" lon="166.45108661614358425140380859375">
        <ele>584.20001220703125</ele>
        <time>2016-08-12T22:49:27.000Z</time>
        <extensions>
          <ns3:TrackPointExtension>
            <ns3:atemp>23.0</ns3:atemp>
            <ns3:hr>127</ns3:hr>
          </ns3:TrackPointExtension>
        </extensions>
      </trkpt>
      <trkpt lat="-22.09894294850528240203857421875" lon="166.45107069052755832672119140625">
        <ele>584</ele>
        <time>2016-08-12T22:49:28.000Z</time>
        <extensions>
          <ns3:TrackPointExtension>
            <ns3:atemp>23.0</ns3:atemp>
            <ns3:hr>128</ns3:hr>
          </ns3:TrackPointExtension>
        </extensions>
      </trkpt>
      <trkpt lat="-22.0989576168358325958251953125" lon="166.451055519282817840576171875">
        <ele>584.4000244140625</ele>
        <time>2016-08-12T22:49:29.000Z</time>
        <extensions>
          <ns3:TrackPointExtension>
            <ns3:atemp>23.0</ns3:atemp>
            <ns3:hr>127</ns3:hr>
          </ns3:TrackPointExtension>
        </extensions>
      </trkpt>
      <trkpt lat="-22.09897513501346111297607421875" lon="166.45104353316128253936767578125">
        <ele>584.4000244140625</ele>
        <time>2016-08-12T22:49:30.000Z</time>
        <extensions>
          <ns3:TrackPointExtension>
            <ns3:atemp>23.0</ns3:atemp>
            <ns3:hr>128</ns3:hr>
          </ns3:TrackPointExtension>
        </extensions>
      </trkpt>
      <trkpt lat="-22.09899005480110645294189453125" lon="166.4510325528681278228759765625">
        <ele>584.4000244140625</ele>
        <time>2016-08-12T22:49:31.000Z</time>
        <extensions>
          <ns3:TrackPointExtension>
            <ns3:atemp>23.0</ns3:atemp>
            <ns3:hr>127</ns3:hr>
          </ns3:TrackPointExtension>
        </extensions>
      </trkpt>
      <trkpt lat="-22.09900715388357639312744140625" lon="166.45102593116462230682373046875">
        <ele>584.4000244140625</ele>
        <time>2016-08-12T22:49:32.000Z</time>
        <extensions>
          <ns3:TrackPointExtension>
            <ns3:atemp>23.0</ns3:atemp>
            <ns3:hr>127</ns3:hr>
          </ns3:TrackPointExtension>
        </extensions>
      </trkpt>
      <trkpt lat="-22.0990310423076152801513671875" lon="166.4510188065469264984130859375">
        <ele>584</ele>
        <time>2016-08-12T22:49:33.000Z</time>
        <extensions>
          <ns3:TrackPointExtension>
            <ns3:atemp>23.0</ns3:atemp>
            <ns3:hr>127</ns3:hr>
          </ns3:TrackPointExtension>
        </extensions>
      </trkpt>
      <trkpt lat="-22.099056355655193328857421875" lon="166.45101369358599185943603515625">
        <ele>583.4000244140625</ele>
        <time>2016-08-12T22:49:34.000Z</time>
        <extensions>
          <ns3:TrackPointExtension>
            <ns3:atemp>23.0</ns3:atemp>
            <ns3:hr>127</ns3:hr>
          </ns3:TrackPointExtension>
        </extensions>
      </trkpt>
      <trkpt lat="-22.0990830101072788238525390625" lon="166.45100531168282032012939453125">
        <ele>583.20001220703125</ele>
        <time>2016-08-12T22:49:35.000Z</time>
        <extensions>
          <ns3:TrackPointExtension>
            <ns3:atemp>23.0</ns3:atemp>
            <ns3:hr>128</ns3:hr>
          </ns3:TrackPointExtension>
        </extensions>
      </trkpt>
      <trkpt lat="-22.09911377169191837310791015625" lon="166.45100011490285396575927734375">
        <ele>583.4000244140625</ele>
        <time>2016-08-12T22:49:36.000Z</time>
        <extensions>
          <ns3:TrackPointExtension>
            <ns3:atemp>23.0</ns3:atemp>
            <ns3:hr>128</ns3:hr>
          </ns3:TrackPointExtension>
        </extensions>
      </trkpt>
      <trkpt lat="-22.0991430245339870452880859375" lon="166.4510000310838222503662109375">
        <ele>582.5999755859375</ele>
        <time>2016-08-12T22:49:37.000Z</time>
        <extensions>
          <ns3:TrackPointExtension>
            <ns3:atemp>23.0</ns3:atemp>
            <ns3:hr>128</ns3:hr>
          </ns3:TrackPointExtension>
        </extensions>
      </trkpt>
      <trkpt lat="-22.099169008433818817138671875" lon="166.45099592395126819610595703125">
        <ele>582</ele>
        <time>2016-08-12T22:49:38.000Z</time>
        <extensions>
          <ns3:TrackPointExtension>
            <ns3:atemp>23.0</ns3:atemp>
            <ns3:hr>128</ns3:hr>
          </ns3:TrackPointExtension>
        </extensions>
      </trkpt>
      <trkpt lat="-22.09919608198106288909912109375" lon="166.45099709741771221160888671875">
        <ele>582.20001220703125</ele>
        <time>2016-08-12T22:49:39.000Z</time>
        <extensions>
          <ns3:TrackPointExtension>
            <ns3:atemp>23.0</ns3:atemp>
            <ns3:hr>128</ns3:hr>
          </ns3:TrackPointExtension>
        </extensions>
      </trkpt>
      <trkpt lat="-22.09921854548156261444091796875" lon="166.4509950019419193267822265625">
        <ele>581.5999755859375</ele>
        <time>2016-08-12T22:49:40.000Z</time>
        <extensions>
          <ns3:TrackPointExtension>
            <ns3:atemp>23.0</ns3:atemp>
            <ns3:hr>128</ns3:hr>
          </ns3:TrackPointExtension>
        </extensions>
      </trkpt>
      <trkpt lat="-22.09924184717237949371337890625" lon="166.45098209381103515625">
        <ele>581.4000244140625</ele>
        <time>2016-08-12T22:49:41.000Z</time>
        <extensions>
          <ns3:TrackPointExtension>
            <ns3:atemp>23.0</ns3:atemp>
            <ns3:hr>128</ns3:hr>
          </ns3:TrackPointExtension>
        </extensions>
      </trkpt>
      <trkpt lat="-22.09926045499742031097412109375" lon="166.4509713649749755859375">
        <ele>582</ele>
        <time>2016-08-12T22:49:42.000Z</time>
        <extensions>
          <ns3:TrackPointExtension>
            <ns3:atemp>23.0</ns3:atemp>
            <ns3:hr>128</ns3:hr>
          </ns3:TrackPointExtension>
        </extensions>
      </trkpt>
      <trkpt lat="-22.09928375668823719024658203125" lon="166.45096323452889919281005859375">
        <ele>582</ele>
        <time>2016-08-12T22:49:43.000Z</time>
        <extensions>
          <ns3:TrackPointExtension>
            <ns3:atemp>23.0</ns3:atemp>
            <ns3:hr>128</ns3:hr>
          </ns3:TrackPointExtension>
        </extensions>
      </trkpt>
      <trkpt lat="-22.0992982573807239532470703125" lon="166.45094119012355804443359375">
        <ele>581.5999755859375</ele>
        <time>2016-08-12T22:49:44.000Z</time>
        <extensions>
          <ns3:TrackPointExtension>
            <ns3:atemp>23.0</ns3:atemp>
            <ns3:hr>129</ns3:hr>
          </ns3:TrackPointExtension>
        </extensions>
      </trkpt>
      <trkpt lat="-22.099316529929637908935546875" lon="166.4509306289255619049072265625">
        <ele>581.20001220703125</ele>
        <time>2016-08-12T22:49:45.000Z</time>
        <extensions>
          <ns3:TrackPointExtension>
            <ns3:atemp>23.0</ns3:atemp>
            <ns3:hr>129</ns3:hr>
          </ns3:TrackPointExtension>
        </extensions>
      </trkpt>
      <trkpt lat="-22.09934192709624767303466796875" lon="166.4509195648133754730224609375">
        <ele>580.79998779296875</ele>
        <time>2016-08-12T22:49:46.000Z</time>
        <extensions>
          <ns3:TrackPointExtension>
            <ns3:atemp>23.0</ns3:atemp>
            <ns3:hr>129</ns3:hr>
          </ns3:TrackPointExtension>
        </extensions>
      </trkpt>
      <trkpt lat="-22.0993669889867305755615234375" lon="166.45090674050152301788330078125">
        <ele>580</ele>
        <time>2016-08-12T22:49:47.000Z</time>
        <extensions>
          <ns3:TrackPointExtension>
            <ns3:atemp>23.0</ns3:atemp>
            <ns3:hr>129</ns3:hr>
          </ns3:TrackPointExtension>
        </extensions>
      </trkpt>
      <trkpt lat="-22.099392302334308624267578125" lon="166.4508920721709728240966796875">
        <ele>580.4000244140625</ele>
        <time>2016-08-12T22:49:48.000Z</time>
        <extensions>
          <ns3:TrackPointExtension>
            <ns3:atemp>23.0</ns3:atemp>
            <ns3:hr>129</ns3:hr>
          </ns3:TrackPointExtension>
        </extensions>
      </trkpt>
      <trkpt lat="-22.09942054934799671173095703125" lon="166.4508753083646297454833984375">
        <ele>580.4000244140625</ele>
        <time>2016-08-12T22:49:49.000Z</time>
        <extensions>
          <ns3:TrackPointExtension>
            <ns3:atemp>23.0</ns3:atemp>
            <ns3:hr>129</ns3:hr>
          </ns3:TrackPointExtension>
        </extensions>
      </trkpt>
      <trkpt lat="-22.09944586269557476043701171875" lon="166.45085804164409637451171875">
        <ele>580</ele>
        <time>2016-08-12T22:49:50.000Z</time>
        <extensions>
          <ns3:TrackPointExtension>
            <ns3:atemp>23.0</ns3:atemp>
            <ns3:hr>129</ns3:hr>
          </ns3:TrackPointExtension>
        </extensions>
      </trkpt>
      <trkpt lat="-22.099473774433135986328125" lon="166.45085074938833713531494140625">
        <ele>580</ele>
        <time>2016-08-12T22:49:51.000Z</time>
        <extensions>
          <ns3:TrackPointExtension>
            <ns3:atemp>23.0</ns3:atemp>
            <ns3:hr>129</ns3:hr>
          </ns3:TrackPointExtension>
        </extensions>
      </trkpt>
      <trkpt lat="-22.09950394928455352783203125" lon="166.45084421150386333465576171875">
        <ele>579.79998779296875</ele>
        <time>2016-08-12T22:49:52.000Z</time>
        <extensions>
          <ns3:TrackPointExtension>
            <ns3:atemp>23.0</ns3:atemp>
            <ns3:hr>129</ns3:hr>
          </ns3:TrackPointExtension>
        </extensions>
      </trkpt>
      <trkpt lat="-22.0995272509753704071044921875" lon="166.45082719624042510986328125">
        <ele>579.20001220703125</ele>
        <time>2016-08-12T22:49:53.000Z</time>
        <extensions>
          <ns3:TrackPointExtension>
            <ns3:atemp>23.0</ns3:atemp>
            <ns3:hr>130</ns3:hr>
          </ns3:TrackPointExtension>
        </extensions>
      </trkpt>
      <trkpt lat="-22.0995503850281238555908203125" lon="166.4508119411766529083251953125">
        <ele>579.20001220703125</ele>
        <time>2016-08-12T22:49:54.000Z</time>
        <extensions>
          <ns3:TrackPointExtension>
            <ns3:atemp>23.0</ns3:atemp>
            <ns3:hr>129</ns3:hr>
          </ns3:TrackPointExtension>
        </extensions>
      </trkpt>
      <trkpt lat="-22.099579386413097381591796875" lon="166.45079375244677066802978515625">
        <ele>579</ele>
        <time>2016-08-12T22:49:55.000Z</time>
        <extensions>
          <ns3:TrackPointExtension>
            <ns3:atemp>23.0</ns3:atemp>
            <ns3:hr>130</ns3:hr>
          </ns3:TrackPointExtension>
        </extensions>
      </trkpt>
      <trkpt lat="-22.09960763342678546905517578125" lon="166.4507790841162204742431640625">
        <ele>578.79998779296875</ele>
        <time>2016-08-12T22:49:56.000Z</time>
        <extensions>
          <ns3:TrackPointExtension>
            <ns3:atemp>23.0</ns3:atemp>
            <ns3:hr>130</ns3:hr>
          </ns3:TrackPointExtension>
        </extensions>
      </trkpt>
      <trkpt lat="-22.09963546134531497955322265625" lon="166.45077086985111236572265625">
        <ele>579</ele>
        <time>2016-08-12T22:49:57.000Z</time>
        <extensions>
          <ns3:TrackPointExtension>
            <ns3:atemp>23.0</ns3:atemp>
            <ns3:hr>130</ns3:hr>
          </ns3:TrackPointExtension>
        </extensions>
      </trkpt>
      <trkpt lat="-22.099665217101573944091796875" lon="166.4507676847279071807861328125">
        <ele>579.20001220703125</ele>
        <time>2016-08-12T22:49:58.000Z</time>
        <extensions>
          <ns3:TrackPointExtension>
            <ns3:atemp>23.0</ns3:atemp>
            <ns3:hr>129</ns3:hr>
          </ns3:TrackPointExtension>
        </extensions>
      </trkpt>
      <trkpt lat="-22.099690698087215423583984375" lon="166.4507609792053699493408203125">
        <ele>579.20001220703125</ele>
        <time>2016-08-12T22:49:59.000Z</time>
        <extensions>
          <ns3:TrackPointExtension>
            <ns3:atemp>23.0</ns3:atemp>
            <ns3:hr>130</ns3:hr>
          </ns3:TrackPointExtension>
        </extensions>
      </trkpt>
      <trkpt lat="-22.0997143350541591644287109375" lon="166.4507539384067058563232421875">
        <ele>578.79998779296875</ele>
        <time>2016-08-12T22:50:00.000Z</time>
        <extensions>
          <ns3:TrackPointExtension>
            <ns3:atemp>23.0</ns3:atemp>
            <ns3:hr>130</ns3:hr>
          </ns3:TrackPointExtension>
        </extensions>
      </trkpt>
      <trkpt lat="-22.09974006749689579010009765625" lon="166.4507472328841686248779296875">
        <ele>578.79998779296875</ele>
        <time>2016-08-12T22:50:01.000Z</time>
        <extensions>
          <ns3:TrackPointExtension>
            <ns3:atemp>23.0</ns3:atemp>
            <ns3:hr>129</ns3:hr>
          </ns3:TrackPointExtension>
        </extensions>
      </trkpt>
      <trkpt lat="-22.09976018406450748443603515625" lon="166.4507378451526165008544921875">
        <ele>578.5999755859375</ele>
        <time>2016-08-12T22:50:02.000Z</time>
        <extensions>
          <ns3:TrackPointExtension>
            <ns3:atemp>23.0</ns3:atemp>
            <ns3:hr>129</ns3:hr>
          </ns3:TrackPointExtension>
        </extensions>
      </trkpt>
      <trkpt lat="-22.0997797138988971710205078125" lon="166.45072460174560546875">
        <ele>577.79998779296875</ele>
        <time>2016-08-12T22:50:03.000Z</time>
        <extensions>
          <ns3:TrackPointExtension>
            <ns3:atemp>23.0</ns3:atemp>
            <ns3:hr>129</ns3:hr>
          </ns3:TrackPointExtension>
        </extensions>
      </trkpt>
      <trkpt lat="-22.09979706443846225738525390625" lon="166.45071093924343585968017578125">
        <ele>578.5999755859375</ele>
        <time>2016-08-12T22:50:04.000Z</time>
        <extensions>
          <ns3:TrackPointExtension>
            <ns3:atemp>23.0</ns3:atemp>
            <ns3:hr>129</ns3:hr>
          </ns3:TrackPointExtension>
        </extensions>
      </trkpt>
      <trkpt lat="-22.09981466643512248992919921875" lon="166.4507016353309154510498046875">
        <ele>579.20001220703125</ele>
        <time>2016-08-12T22:50:05.000Z</time>
        <extensions>
          <ns3:TrackPointExtension>
            <ns3:atemp>23.0</ns3:atemp>
            <ns3:hr>129</ns3:hr>
          </ns3:TrackPointExtension>
        </extensions>
      </trkpt>
      <trkpt lat="-22.0998353697359561920166015625" lon="166.45069199614226818084716796875">
        <ele>579.4000244140625</ele>
        <time>2016-08-12T22:50:06.000Z</time>
        <extensions>
          <ns3:TrackPointExtension>
            <ns3:atemp>23.0</ns3:atemp>
            <ns3:hr>129</ns3:hr>
          </ns3:TrackPointExtension>
        </extensions>
      </trkpt>
      <trkpt lat="-22.09985892288386821746826171875" lon="166.45068109966814517974853515625">
        <ele>579</ele>
        <time>2016-08-12T22:50:07.000Z</time>
        <extensions>
          <ns3:TrackPointExtension>
            <ns3:atemp>23.0</ns3:atemp>
            <ns3:hr>128</ns3:hr>
          </ns3:TrackPointExtension>
        </extensions>
      </trkpt>
      <trkpt lat="-22.0998833142220973968505859375" lon="166.45067053847014904022216796875">
        <ele>578.5999755859375</ele>
        <time>2016-08-12T22:50:08.000Z</time>
        <extensions>
          <ns3:TrackPointExtension>
            <ns3:atemp>23.0</ns3:atemp>
            <ns3:hr>128</ns3:hr>
          </ns3:TrackPointExtension>
        </extensions>
      </trkpt>
      <trkpt lat="-22.0999047718942165374755859375" lon="166.45066064782440662384033203125">
        <ele>578.20001220703125</ele>
        <time>2016-08-12T22:50:09.000Z</time>
        <extensions>
          <ns3:TrackPointExtension>
            <ns3:atemp>23.0</ns3:atemp>
            <ns3:hr>128</ns3:hr>
          </ns3:TrackPointExtension>
        </extensions>
      </trkpt>
      <trkpt lat="-22.09993016906082630157470703125" lon="166.450655870139598846435546875">
        <ele>577.20001220703125</ele>
        <time>2016-08-12T22:50:10.000Z</time>
        <extensions>
          <ns3:TrackPointExtension>
            <ns3:atemp>23.0</ns3:atemp>
            <ns3:hr>127</ns3:hr>
          </ns3:TrackPointExtension>
        </extensions>
      </trkpt>
      <trkpt lat="-22.09995263256132602691650390625" lon="166.450652517378330230712890625">
        <ele>576.5999755859375</ele>
        <time>2016-08-12T22:50:11.000Z</time>
        <extensions>
          <ns3:TrackPointExtension>
            <ns3:atemp>23.0</ns3:atemp>
            <ns3:hr>127</ns3:hr>
          </ns3:TrackPointExtension>
        </extensions>
      </trkpt>
      <trkpt lat="-22.09997207857668399810791015625" lon="166.4506479911506175994873046875">
        <ele>576.5999755859375</ele>
        <time>2016-08-12T22:50:12.000Z</time>
        <extensions>
          <ns3:TrackPointExtension>
            <ns3:atemp>23.0</ns3:atemp>
            <ns3:hr>128</ns3:hr>
          </ns3:TrackPointExtension>
        </extensions>
      </trkpt>
      <trkpt lat="-22.09999839775264263153076171875" lon="166.4506479911506175994873046875">
        <ele>576.4000244140625</ele>
        <time>2016-08-12T22:50:13.000Z</time>
        <extensions>
          <ns3:TrackPointExtension>
            <ns3:atemp>23.0</ns3:atemp>
            <ns3:hr>127</ns3:hr>
          </ns3:TrackPointExtension>
        </extensions>
      </trkpt>
      <trkpt lat="-22.10001952014863491058349609375" lon="166.4506503380835056304931640625">
        <ele>576.5999755859375</ele>
        <time>2016-08-12T22:50:14.000Z</time>
        <extensions>
          <ns3:TrackPointExtension>
            <ns3:atemp>23.0</ns3:atemp>
            <ns3:hr>127</ns3:hr>
          </ns3:TrackPointExtension>
        </extensions>
      </trkpt>
      <trkpt lat="-22.10003712214529514312744140625" lon="166.45064882934093475341796875">
        <ele>576.79998779296875</ele>
        <time>2016-08-12T22:50:15.000Z</time>
        <extensions>
          <ns3:TrackPointExtension>
            <ns3:atemp>23.0</ns3:atemp>
            <ns3:hr>127</ns3:hr>
          </ns3:TrackPointExtension>
        </extensions>
      </trkpt>
      <trkpt lat="-22.100062854588031768798828125" lon="166.450649164617061614990234375">
        <ele>576.4000244140625</ele>
        <time>2016-08-12T22:50:16.000Z</time>
        <extensions>
          <ns3:TrackPointExtension>
            <ns3:atemp>23.0</ns3:atemp>
            <ns3:hr>127</ns3:hr>
          </ns3:TrackPointExtension>
        </extensions>
      </trkpt>
      <trkpt lat="-22.1000921912491321563720703125" lon="166.450653858482837677001953125">
        <ele>576.20001220703125</ele>
        <time>2016-08-12T22:50:17.000Z</time>
        <extensions>
          <ns3:TrackPointExtension>
            <ns3:atemp>23.0</ns3:atemp>
            <ns3:hr>127</ns3:hr>
          </ns3:TrackPointExtension>
        </extensions>
      </trkpt>
      <trkpt lat="-22.10011507384479045867919921875" lon="166.45066048018634319305419921875">
        <ele>576.4000244140625</ele>
        <time>2016-08-12T22:50:18.000Z</time>
        <extensions>
          <ns3:TrackPointExtension>
            <ns3:atemp>22.0</ns3:atemp>
            <ns3:hr>127</ns3:hr>
          </ns3:TrackPointExtension>
        </extensions>
      </trkpt>
      <trkpt lat="-22.1001387946307659149169921875" lon="166.45066450349986553192138671875">
        <ele>576</ele>
        <time>2016-08-12T22:50:19.000Z</time>
        <extensions>
          <ns3:TrackPointExtension>
            <ns3:atemp>22.0</ns3:atemp>
            <ns3:hr>127</ns3:hr>
          </ns3:TrackPointExtension>
        </extensions>
      </trkpt>
      <trkpt lat="-22.100154720246791839599609375" lon="166.45066768862307071685791015625">
        <ele>575.4000244140625</ele>
        <time>2016-08-12T22:50:20.000Z</time>
        <extensions>
          <ns3:TrackPointExtension>
            <ns3:atemp>22.0</ns3:atemp>
            <ns3:hr>127</ns3:hr>
          </ns3:TrackPointExtension>
        </extensions>
      </trkpt>
      <trkpt lat="-22.1001860685646533966064453125" lon="166.45067305304110050201416015625">
        <ele>574.79998779296875</ele>
        <time>2016-08-12T22:50:21.000Z</time>
        <extensions>
          <ns3:TrackPointExtension>
            <ns3:atemp>22.0</ns3:atemp>
            <ns3:hr>127</ns3:hr>
          </ns3:TrackPointExtension>
        </extensions>
      </trkpt>
      <trkpt lat="-22.10021431557834148406982421875" lon="166.4506808482110500335693359375">
        <ele>574.5999755859375</ele>
        <time>2016-08-12T22:50:22.000Z</time>
        <extensions>
          <ns3:TrackPointExtension>
            <ns3:atemp>22.0</ns3:atemp>
            <ns3:hr>127</ns3:hr>
          </ns3:TrackPointExtension>
        </extensions>
      </trkpt>
      <trkpt lat="-22.100232504308223724365234375" lon="166.45068780519068241119384765625">
        <ele>574.79998779296875</ele>
        <time>2016-08-12T22:50:23.000Z</time>
        <extensions>
          <ns3:TrackPointExtension>
            <ns3:atemp>22.0</ns3:atemp>
            <ns3:hr>127</ns3:hr>
          </ns3:TrackPointExtension>
        </extensions>
      </trkpt>
      <trkpt lat="-22.10025656037032604217529296875" lon="166.45069551654160022735595703125">
        <ele>573.5999755859375</ele>
        <time>2016-08-12T22:50:24.000Z</time>
        <extensions>
          <ns3:TrackPointExtension>
            <ns3:atemp>22.0</ns3:atemp>
            <ns3:hr>127</ns3:hr>
          </ns3:TrackPointExtension>
        </extensions>
      </trkpt>
      <trkpt lat="-22.1002782694995403289794921875" lon="166.4507063291966915130615234375">
        <ele>573</ele>
        <time>2016-08-12T22:50:25.000Z</time>
        <extensions>
          <ns3:TrackPointExtension>
            <ns3:atemp>22.0</ns3:atemp>
            <ns3:hr>128</ns3:hr>
          </ns3:TrackPointExtension>
        </extensions>
      </trkpt>
      <trkpt lat="-22.100305259227752685546875" lon="166.4507187344133853912353515625">
        <ele>574.20001220703125</ele>
        <time>2016-08-12T22:50:26.000Z</time>
        <extensions>
          <ns3:TrackPointExtension>
            <ns3:atemp>22.0</ns3:atemp>
            <ns3:hr>128</ns3:hr>
          </ns3:TrackPointExtension>
        </extensions>
      </trkpt>
      <trkpt lat="-22.10031238384544849395751953125" lon="166.4507163874804973602294921875">
        <ele>573.79998779296875</ele>
        <time>2016-08-12T22:50:27.000Z</time>
        <extensions>
          <ns3:TrackPointExtension>
            <ns3:atemp>22.0</ns3:atemp>
            <ns3:hr>128</ns3:hr>
          </ns3:TrackPointExtension>
        </extensions>
      </trkpt>
      <trkpt lat="-22.1003309078514575958251953125" lon="166.45072334446012973785400390625">
        <ele>573</ele>
        <time>2016-08-12T22:50:28.000Z</time>
        <extensions>
          <ns3:TrackPointExtension>
            <ns3:atemp>22.0</ns3:atemp>
            <ns3:hr>127</ns3:hr>
          </ns3:TrackPointExtension>
        </extensions>
      </trkpt>
      <trkpt lat="-22.10035177879035472869873046875" lon="166.450729630887508392333984375">
        <ele>573.20001220703125</ele>
        <time>2016-08-12T22:50:29.000Z</time>
        <extensions>
          <ns3:TrackPointExtension>
            <ns3:atemp>22.0</ns3:atemp>
            <ns3:hr>127</ns3:hr>
          </ns3:TrackPointExtension>
        </extensions>
      </trkpt>
      <trkpt lat="-22.1003644354641437530517578125" lon="166.45073172636330127716064453125">
        <ele>573.20001220703125</ele>
        <time>2016-08-12T22:50:30.000Z</time>
        <extensions>
          <ns3:TrackPointExtension>
            <ns3:atemp>22.0</ns3:atemp>
            <ns3:hr>128</ns3:hr>
          </ns3:TrackPointExtension>
        </extensions>
      </trkpt>
      <trkpt lat="-22.10038463585078716278076171875" lon="166.450727619230747222900390625">
        <ele>572.5999755859375</ele>
        <time>2016-08-12T22:50:31.000Z</time>
        <extensions>
          <ns3:TrackPointExtension>
            <ns3:atemp>22.0</ns3:atemp>
            <ns3:hr>128</ns3:hr>
          </ns3:TrackPointExtension>
        </extensions>
      </trkpt>
      <trkpt lat="-22.10040743462741374969482421875" lon="166.45072351209819316864013671875">
        <ele>572.4000244140625</ele>
        <time>2016-08-12T22:50:32.000Z</time>
        <extensions>
          <ns3:TrackPointExtension>
            <ns3:atemp>22.0</ns3:atemp>
            <ns3:hr>128</ns3:hr>
          </ns3:TrackPointExtension>
        </extensions>
      </trkpt>
      <trkpt lat="-22.100429646670818328857421875" lon="166.45071445964276790618896484375">
        <ele>573.20001220703125</ele>
        <time>2016-08-12T22:50:33.000Z</time>
        <extensions>
          <ns3:TrackPointExtension>
            <ns3:atemp>22.0</ns3:atemp>
            <ns3:hr>128</ns3:hr>
          </ns3:TrackPointExtension>
        </extensions>
      </trkpt>
      <trkpt lat="-22.10045219399034976959228515625" lon="166.450698785483837127685546875">
        <ele>573.5999755859375</ele>
        <time>2016-08-12T22:50:34.000Z</time>
        <extensions>
          <ns3:TrackPointExtension>
            <ns3:atemp>22.0</ns3:atemp>
            <ns3:hr>128</ns3:hr>
          </ns3:TrackPointExtension>
        </extensions>
      </trkpt>
      <trkpt lat="-22.100477926433086395263671875" lon="166.4506905712187290191650390625">
        <ele>573.4000244140625</ele>
        <time>2016-08-12T22:50:35.000Z</time>
        <extensions>
          <ns3:TrackPointExtension>
            <ns3:atemp>22.0</ns3:atemp>
            <ns3:hr>128</ns3:hr>
          </ns3:TrackPointExtension>
        </extensions>
      </trkpt>
      <trkpt lat="-22.10050097666680812835693359375" lon="166.4506821893155574798583984375">
        <ele>573.20001220703125</ele>
        <time>2016-08-12T22:50:36.000Z</time>
        <extensions>
          <ns3:TrackPointExtension>
            <ns3:atemp>22.0</ns3:atemp>
            <ns3:hr>128</ns3:hr>
          </ns3:TrackPointExtension>
        </extensions>
      </trkpt>
      <trkpt lat="-22.1005223505198955535888671875" lon="166.4506610669195652008056640625">
        <ele>573.20001220703125</ele>
        <time>2016-08-12T22:50:37.000Z</time>
        <extensions>
          <ns3:TrackPointExtension>
            <ns3:atemp>22.0</ns3:atemp>
            <ns3:hr>128</ns3:hr>
          </ns3:TrackPointExtension>
        </extensions>
      </trkpt>
      <trkpt lat="-22.1005441434681415557861328125" lon="166.45065209828317165374755859375">
        <ele>573.20001220703125</ele>
        <time>2016-08-12T22:50:38.000Z</time>
        <extensions>
          <ns3:TrackPointExtension>
            <ns3:atemp>22.0</ns3:atemp>
            <ns3:hr>128</ns3:hr>
          </ns3:TrackPointExtension>
        </extensions>
      </trkpt>
      <trkpt lat="-22.10056434385478496551513671875" lon="166.4506436325609683990478515625">
        <ele>573</ele>
        <time>2016-08-12T22:50:39.000Z</time>
        <extensions>
          <ns3:TrackPointExtension>
            <ns3:atemp>22.0</ns3:atemp>
            <ns3:hr>128</ns3:hr>
          </ns3:TrackPointExtension>
        </extensions>
      </trkpt>
      <trkpt lat="-22.1005882322788238525390625" lon="166.45064120180904865264892578125">
        <ele>572.5999755859375</ele>
        <time>2016-08-12T22:50:40.000Z</time>
        <extensions>
          <ns3:TrackPointExtension>
            <ns3:atemp>22.0</ns3:atemp>
            <ns3:hr>128</ns3:hr>
          </ns3:TrackPointExtension>
        </extensions>
      </trkpt>
      <trkpt lat="-22.10060876794159412384033203125" lon="166.450644470751285552978515625">
        <ele>572.4000244140625</ele>
        <time>2016-08-12T22:50:41.000Z</time>
        <extensions>
          <ns3:TrackPointExtension>
            <ns3:atemp>22.0</ns3:atemp>
            <ns3:hr>128</ns3:hr>
          </ns3:TrackPointExtension>
        </extensions>
      </trkpt>
      <trkpt lat="-22.1006282977759838104248046875" lon="166.45064606331288814544677734375">
        <ele>572.5999755859375</ele>
        <time>2016-08-12T22:50:42.000Z</time>
        <extensions>
          <ns3:TrackPointExtension>
            <ns3:atemp>22.0</ns3:atemp>
            <ns3:hr>128</ns3:hr>
          </ns3:TrackPointExtension>
        </extensions>
      </trkpt>
      <trkpt lat="-22.1006526052951812744140625" lon="166.4506520144641399383544921875">
        <ele>572.5999755859375</ele>
        <time>2016-08-12T22:50:43.000Z</time>
        <extensions>
          <ns3:TrackPointExtension>
            <ns3:atemp>22.0</ns3:atemp>
            <ns3:hr>128</ns3:hr>
          </ns3:TrackPointExtension>
        </extensions>
      </trkpt>
      <trkpt lat="-22.10067867301404476165771484375" lon="166.45066031254827976226806640625">
        <ele>572.4000244140625</ele>
        <time>2016-08-12T22:50:44.000Z</time>
        <extensions>
          <ns3:TrackPointExtension>
            <ns3:atemp>22.0</ns3:atemp>
            <ns3:hr>128</ns3:hr>
          </ns3:TrackPointExtension>
        </extensions>
      </trkpt>
      <trkpt lat="-22.1007023938000202178955078125" lon="166.45067003555595874786376953125">
        <ele>572.20001220703125</ele>
        <time>2016-08-12T22:50:45.000Z</time>
        <extensions>
          <ns3:TrackPointExtension>
            <ns3:atemp>22.0</ns3:atemp>
            <ns3:hr>128</ns3:hr>
          </ns3:TrackPointExtension>
        </extensions>
      </trkpt>
      <trkpt lat="-22.10072544403374195098876953125" lon="166.4506788365542888641357421875">
        <ele>572</ele>
        <time>2016-08-12T22:50:46.000Z</time>
        <extensions>
          <ns3:TrackPointExtension>
            <ns3:atemp>22.0</ns3:atemp>
            <ns3:hr>128</ns3:hr>
          </ns3:TrackPointExtension>
        </extensions>
      </trkpt>
      <trkpt lat="-22.10074849426746368408203125" lon="166.45069182850420475006103515625">
        <ele>571.5999755859375</ele>
        <time>2016-08-12T22:50:47.000Z</time>
        <extensions>
          <ns3:TrackPointExtension>
            <ns3:atemp>22.0</ns3:atemp>
            <ns3:hr>128</ns3:hr>
          </ns3:TrackPointExtension>
        </extensions>
      </trkpt>
      <trkpt lat="-22.1007681079208850860595703125" lon="166.4507076703011989593505859375">
        <ele>571.5999755859375</ele>
        <time>2016-08-12T22:50:48.000Z</time>
        <extensions>
          <ns3:TrackPointExtension>
            <ns3:atemp>22.0</ns3:atemp>
            <ns3:hr>128</ns3:hr>
          </ns3:TrackPointExtension>
        </extensions>
      </trkpt>
      <trkpt lat="-22.100785709917545318603515625" lon="166.45071923732757568359375">
        <ele>571.5999755859375</ele>
        <time>2016-08-12T22:50:49.000Z</time>
        <extensions>
          <ns3:TrackPointExtension>
            <ns3:atemp>22.0</ns3:atemp>
            <ns3:hr>128</ns3:hr>
          </ns3:TrackPointExtension>
        </extensions>
      </trkpt>
      <trkpt lat="-22.10080339573323726654052734375" lon="166.4507334865629673004150390625">
        <ele>571.79998779296875</ele>
        <time>2016-08-12T22:50:50.000Z</time>
        <extensions>
          <ns3:TrackPointExtension>
            <ns3:atemp>22.0</ns3:atemp>
            <ns3:hr>128</ns3:hr>
          </ns3:TrackPointExtension>
        </extensions>
      </trkpt>
      <trkpt lat="-22.100821249186992645263671875" lon="166.45075418986380100250244140625">
        <ele>571.5999755859375</ele>
        <time>2016-08-12T22:50:51.000Z</time>
        <extensions>
          <ns3:TrackPointExtension>
            <ns3:atemp>22.0</ns3:atemp>
            <ns3:hr>129</ns3:hr>
          </ns3:TrackPointExtension>
        </extensions>
      </trkpt>
      <trkpt lat="-22.1008391864597797393798828125" lon="166.4507686905562877655029296875">
        <ele>571.4000244140625</ele>
        <time>2016-08-12T22:50:52.000Z</time>
        <extensions>
          <ns3:TrackPointExtension>
            <ns3:atemp>22.0</ns3:atemp>
            <ns3:hr>129</ns3:hr>
          </ns3:TrackPointExtension>
        </extensions>
      </trkpt>
      <trkpt lat="-22.100854776799678802490234375" lon="166.45078436471521854400634765625">
        <ele>571.20001220703125</ele>
        <time>2016-08-12T22:50:53.000Z</time>
        <extensions>
          <ns3:TrackPointExtension>
            <ns3:atemp>22.0</ns3:atemp>
            <ns3:hr>129</ns3:hr>
          </ns3:TrackPointExtension>
        </extensions>
      </trkpt>
      <trkpt lat="-22.1008727140724658966064453125" lon="166.45080632530152797698974609375">
        <ele>570.5999755859375</ele>
        <time>2016-08-12T22:50:54.000Z</time>
        <extensions>
          <ns3:TrackPointExtension>
            <ns3:atemp>22.0</ns3:atemp>
            <ns3:hr>129</ns3:hr>
          </ns3:TrackPointExtension>
        </extensions>
      </trkpt>
      <trkpt lat="-22.1008928306400775909423828125" lon="166.45082451403141021728515625">
        <ele>570.20001220703125</ele>
        <time>2016-08-12T22:50:55.000Z</time>
        <extensions>
          <ns3:TrackPointExtension>
            <ns3:atemp>22.0</ns3:atemp>
            <ns3:hr>130</ns3:hr>
          </ns3:TrackPointExtension>
        </extensions>
      </trkpt>
      <trkpt lat="-22.10090749897062778472900390625" lon="166.45083884708583354949951171875">
        <ele>570.20001220703125</ele>
        <time>2016-08-12T22:50:56.000Z</time>
        <extensions>
          <ns3:TrackPointExtension>
            <ns3:atemp>22.0</ns3:atemp>
            <ns3:hr>129</ns3:hr>
          </ns3:TrackPointExtension>
        </extensions>
      </trkpt>
      <trkpt lat="-22.10092241875827312469482421875" lon="166.45085410214960575103759765625">
        <ele>570.4000244140625</ele>
        <time>2016-08-12T22:50:57.000Z</time>
        <extensions>
          <ns3:TrackPointExtension>
            <ns3:atemp>22.0</ns3:atemp>
            <ns3:hr>129</ns3:hr>
          </ns3:TrackPointExtension>
        </extensions>
      </trkpt>
      <trkpt lat="-22.10094253532588481903076171875" lon="166.450874470174312591552734375">
        <ele>570.4000244140625</ele>
        <time>2016-08-12T22:50:58.000Z</time>
        <extensions>
          <ns3:TrackPointExtension>
            <ns3:atemp>22.0</ns3:atemp>
            <ns3:hr>129</ns3:hr>
          </ns3:TrackPointExtension>
        </extensions>
      </trkpt>
      <trkpt lat="-22.1009618975222110748291015625" lon="166.45089534111320972442626953125">
        <ele>570.4000244140625</ele>
        <time>2016-08-12T22:50:59.000Z</time>
        <extensions>
          <ns3:TrackPointExtension>
            <ns3:atemp>22.0</ns3:atemp>
            <ns3:hr>130</ns3:hr>
          </ns3:TrackPointExtension>
        </extensions>
      </trkpt>
      <trkpt lat="-22.1009803377091884613037109375" lon="166.4509165473282337188720703125">
        <ele>570.5999755859375</ele>
        <time>2016-08-12T22:51:00.000Z</time>
        <extensions>
          <ns3:TrackPointExtension>
            <ns3:atemp>22.0</ns3:atemp>
            <ns3:hr>130</ns3:hr>
          </ns3:TrackPointExtension>
        </extensions>
      </trkpt>
      <trkpt lat="-22.10099869407713413238525390625" lon="166.4509302936494350433349609375">
        <ele>570.5999755859375</ele>
        <time>2016-08-12T22:51:01.000Z</time>
        <extensions>
          <ns3:TrackPointExtension>
            <ns3:atemp>22.0</ns3:atemp>
            <ns3:hr>130</ns3:hr>
          </ns3:TrackPointExtension>
        </extensions>
      </trkpt>
      <trkpt lat="-22.10101260803639888763427734375" lon="166.45094747655093669891357421875">
        <ele>570.5999755859375</ele>
        <time>2016-08-12T22:51:02.000Z</time>
        <extensions>
          <ns3:TrackPointExtension>
            <ns3:atemp>22.0</ns3:atemp>
            <ns3:hr>129</ns3:hr>
          </ns3:TrackPointExtension>
        </extensions>
      </trkpt>
      <trkpt lat="-22.101033143699169158935546875" lon="166.45096407271921634674072265625">
        <ele>570.5999755859375</ele>
        <time>2016-08-12T22:51:03.000Z</time>
        <extensions>
          <ns3:TrackPointExtension>
            <ns3:atemp>22.0</ns3:atemp>
            <ns3:hr>129</ns3:hr>
          </ns3:TrackPointExtension>
        </extensions>
      </trkpt>
      <trkpt lat="-22.10105284117162227630615234375" lon="166.45098268054425716400146484375">
        <ele>570.5999755859375</ele>
        <time>2016-08-12T22:51:04.000Z</time>
        <extensions>
          <ns3:TrackPointExtension>
            <ns3:atemp>22.0</ns3:atemp>
            <ns3:hr>129</ns3:hr>
          </ns3:TrackPointExtension>
        </extensions>
      </trkpt>
      <trkpt lat="-22.10107262246310710906982421875" lon="166.4509960077702999114990234375">
        <ele>570.5999755859375</ele>
        <time>2016-08-12T22:51:05.000Z</time>
        <extensions>
          <ns3:TrackPointExtension>
            <ns3:atemp>22.0</ns3:atemp>
            <ns3:hr>129</ns3:hr>
          </ns3:TrackPointExtension>
        </extensions>
      </trkpt>
      <trkpt lat="-22.1010993607342243194580078125" lon="166.451010592281818389892578125">
        <ele>570.5999755859375</ele>
        <time>2016-08-12T22:51:06.000Z</time>
        <extensions>
          <ns3:TrackPointExtension>
            <ns3:atemp>22.0</ns3:atemp>
            <ns3:hr>129</ns3:hr>
          </ns3:TrackPointExtension>
        </extensions>
      </trkpt>
      <trkpt lat="-22.10112375207245349884033203125" lon="166.45102576352655887603759765625">
        <ele>570.4000244140625</ele>
        <time>2016-08-12T22:51:07.000Z</time>
        <extensions>
          <ns3:TrackPointExtension>
            <ns3:atemp>22.0</ns3:atemp>
            <ns3:hr>129</ns3:hr>
          </ns3:TrackPointExtension>
        </extensions>
      </trkpt>
      <trkpt lat="-22.101145125925540924072265625" lon="166.451040096580982208251953125">
        <ele>570.4000244140625</ele>
        <time>2016-08-12T22:51:08.000Z</time>
        <extensions>
          <ns3:TrackPointExtension>
            <ns3:atemp>22.0</ns3:atemp>
            <ns3:hr>129</ns3:hr>
          </ns3:TrackPointExtension>
        </extensions>
      </trkpt>
      <trkpt lat="-22.1011758036911487579345703125" lon="166.451048143208026885986328125">
        <ele>570.20001220703125</ele>
        <time>2016-08-12T22:51:09.000Z</time>
        <extensions>
          <ns3:TrackPointExtension>
            <ns3:atemp>22.0</ns3:atemp>
            <ns3:hr>129</ns3:hr>
          </ns3:TrackPointExtension>
        </extensions>
      </trkpt>
      <trkpt lat="-22.10119935683906078338623046875" lon="166.45105795003473758697509765625">
        <ele>570.20001220703125</ele>
        <time>2016-08-12T22:51:10.000Z</time>
        <extensions>
          <ns3:TrackPointExtension>
            <ns3:atemp>22.0</ns3:atemp>
            <ns3:hr>129</ns3:hr>
          </ns3:TrackPointExtension>
        </extensions>
      </trkpt>
      <trkpt lat="-22.1012244187295436859130859375" lon="166.45106297917664051055908203125">
        <ele>569.79998779296875</ele>
        <time>2016-08-12T22:51:11.000Z</time>
        <extensions>
          <ns3:TrackPointExtension>
            <ns3:atemp>22.0</ns3:atemp>
            <ns3:hr>128</ns3:hr>
          </ns3:TrackPointExtension>
        </extensions>
      </trkpt>
      <trkpt lat="-22.10124981589615345001220703125" lon="166.45106054842472076416015625">
        <ele>570</ele>
        <time>2016-08-12T22:51:12.000Z</time>
        <extensions>
          <ns3:TrackPointExtension>
            <ns3:atemp>22.0</ns3:atemp>
            <ns3:hr>128</ns3:hr>
          </ns3:TrackPointExtension>
        </extensions>
      </trkpt>
      <trkpt lat="-22.10127345286309719085693359375" lon="166.451058201491832733154296875">
        <ele>569.79998779296875</ele>
        <time>2016-08-12T22:51:13.000Z</time>
        <extensions>
          <ns3:TrackPointExtension>
            <ns3:atemp>22.0</ns3:atemp>
            <ns3:hr>128</ns3:hr>
          </ns3:TrackPointExtension>
        </extensions>
      </trkpt>
      <trkpt lat="-22.10129977203905582427978515625" lon="166.45105409435927867889404296875">
        <ele>569.5999755859375</ele>
        <time>2016-08-12T22:51:14.000Z</time>
        <extensions>
          <ns3:TrackPointExtension>
            <ns3:atemp>22.0</ns3:atemp>
            <ns3:hr>128</ns3:hr>
          </ns3:TrackPointExtension>
        </extensions>
      </trkpt>
      <trkpt lat="-22.10132759995758533477783203125" lon="166.451041437685489654541015625">
        <ele>569</ele>
        <time>2016-08-12T22:51:15.000Z</time>
        <extensions>
          <ns3:TrackPointExtension>
            <ns3:atemp>22.0</ns3:atemp>
            <ns3:hr>128</ns3:hr>
          </ns3:TrackPointExtension>
        </extensions>
      </trkpt>
      <trkpt lat="-22.101349644362926483154296875" lon="166.4510285295546054840087890625">
        <ele>568.79998779296875</ele>
        <time>2016-08-12T22:51:16.000Z</time>
        <extensions>
          <ns3:TrackPointExtension>
            <ns3:atemp>22.0</ns3:atemp>
            <ns3:hr>128</ns3:hr>
          </ns3:TrackPointExtension>
        </extensions>
      </trkpt>
      <trkpt lat="-22.1013796515762805938720703125" lon="166.4510114304721355438232421875">
        <ele>568.79998779296875</ele>
        <time>2016-08-12T22:51:17.000Z</time>
        <extensions>
          <ns3:TrackPointExtension>
            <ns3:atemp>22.0</ns3:atemp>
            <ns3:hr>127</ns3:hr>
          </ns3:TrackPointExtension>
        </extensions>
      </trkpt>
      <trkpt lat="-22.10140370763838291168212890625" lon="166.45099055953323841094970703125">
        <ele>568.79998779296875</ele>
        <time>2016-08-12T22:51:18.000Z</time>
        <extensions>
          <ns3:TrackPointExtension>
            <ns3:atemp>22.0</ns3:atemp>
            <ns3:hr>127</ns3:hr>
          </ns3:TrackPointExtension>
        </extensions>
      </trkpt>
      <trkpt lat="-22.1014259196817874908447265625" lon="166.4509779028594493865966796875">
        <ele>568.4000244140625</ele>
        <time>2016-08-12T22:51:19.000Z</time>
        <extensions>
          <ns3:TrackPointExtension>
            <ns3:atemp>22.0</ns3:atemp>
            <ns3:hr>127</ns3:hr>
          </ns3:TrackPointExtension>
        </extensions>
      </trkpt>
      <trkpt lat="-22.1014545857906341552734375" lon="166.45095569081604480743408203125">
        <ele>568</ele>
        <time>2016-08-12T22:51:20.000Z</time>
        <extensions>
          <ns3:TrackPointExtension>
            <ns3:atemp>22.0</ns3:atemp>
            <ns3:hr>127</ns3:hr>
          </ns3:TrackPointExtension>
        </extensions>
      </trkpt>
      <trkpt lat="-22.101482413709163665771484375" lon="166.45094119012355804443359375">
        <ele>568</ele>
        <time>2016-08-12T22:51:21.000Z</time>
        <extensions>
          <ns3:TrackPointExtension>
            <ns3:atemp>22.0</ns3:atemp>
            <ns3:hr>127</ns3:hr>
          </ns3:TrackPointExtension>
        </extensions>
      </trkpt>
      <trkpt lat="-22.10151334293186664581298828125" lon="166.450930796563625335693359375">
        <ele>567.79998779296875</ele>
        <time>2016-08-12T22:51:22.000Z</time>
        <extensions>
          <ns3:TrackPointExtension>
            <ns3:atemp>22.0</ns3:atemp>
            <ns3:hr>127</ns3:hr>
          </ns3:TrackPointExtension>
        </extensions>
      </trkpt>
      <trkpt lat="-22.1015417575836181640625" lon="166.4509128592908382415771484375">
        <ele>567.5999755859375</ele>
        <time>2016-08-12T22:51:23.000Z</time>
        <extensions>
          <ns3:TrackPointExtension>
            <ns3:atemp>22.0</ns3:atemp>
            <ns3:hr>127</ns3:hr>
          </ns3:TrackPointExtension>
        </extensions>
      </trkpt>
      <trkpt lat="-22.10156832821667194366455078125" lon="166.45090162754058837890625">
        <ele>567.20001220703125</ele>
        <time>2016-08-12T22:51:24.000Z</time>
        <extensions>
          <ns3:TrackPointExtension>
            <ns3:atemp>22.0</ns3:atemp>
            <ns3:hr>127</ns3:hr>
          </ns3:TrackPointExtension>
        </extensions>
      </trkpt>
      <trkpt lat="-22.10159380920231342315673828125" lon="166.450891904532909393310546875">
        <ele>567</ele>
        <time>2016-08-12T22:51:25.000Z</time>
        <extensions>
          <ns3:TrackPointExtension>
            <ns3:atemp>22.0</ns3:atemp>
            <ns3:hr>128</ns3:hr>
          </ns3:TrackPointExtension>
        </extensions>
      </trkpt>
      <trkpt lat="-22.101617194712162017822265625" lon="166.45087472163140773773193359375">
        <ele>566.79998779296875</ele>
        <time>2016-08-12T22:51:26.000Z</time>
        <extensions>
          <ns3:TrackPointExtension>
            <ns3:atemp>22.0</ns3:atemp>
            <ns3:hr>128</ns3:hr>
          </ns3:TrackPointExtension>
        </extensions>
      </trkpt>
      <trkpt lat="-22.10164242424070835113525390625" lon="166.4508605562150478363037109375">
        <ele>567</ele>
        <time>2016-08-12T22:51:27.000Z</time>
        <extensions>
          <ns3:TrackPointExtension>
            <ns3:atemp>22.0</ns3:atemp>
            <ns3:hr>128</ns3:hr>
          </ns3:TrackPointExtension>
        </extensions>
      </trkpt>
      <trkpt lat="-22.1016686595976352691650390625" lon="166.4508494921028614044189453125">
        <ele>566.5999755859375</ele>
        <time>2016-08-12T22:51:28.000Z</time>
        <extensions>
          <ns3:TrackPointExtension>
            <ns3:atemp>22.0</ns3:atemp>
            <ns3:hr>128</ns3:hr>
          </ns3:TrackPointExtension>
        </extensions>
      </trkpt>
      <trkpt lat="-22.1016897819936275482177734375" lon="166.4508317224681377410888671875">
        <ele>566.20001220703125</ele>
        <time>2016-08-12T22:51:29.000Z</time>
        <extensions>
          <ns3:TrackPointExtension>
            <ns3:atemp>22.0</ns3:atemp>
            <ns3:hr>128</ns3:hr>
          </ns3:TrackPointExtension>
        </extensions>
      </trkpt>
      <trkpt lat="-22.1017132513225078582763671875" lon="166.45081873051822185516357421875">
        <ele>566.5999755859375</ele>
        <time>2016-08-12T22:51:30.000Z</time>
        <extensions>
          <ns3:TrackPointExtension>
            <ns3:atemp>22.0</ns3:atemp>
            <ns3:hr>128</ns3:hr>
          </ns3:TrackPointExtension>
        </extensions>
      </trkpt>
      <trkpt lat="-22.1017326973378658294677734375" lon="166.450804062187671661376953125">
        <ele>566.5999755859375</ele>
        <time>2016-08-12T22:51:31.000Z</time>
        <extensions>
          <ns3:TrackPointExtension>
            <ns3:atemp>22.0</ns3:atemp>
            <ns3:hr>128</ns3:hr>
          </ns3:TrackPointExtension>
        </extensions>
      </trkpt>
      <trkpt lat="-22.10174904204905033111572265625" lon="166.45078361034393310546875">
        <ele>566.5999755859375</ele>
        <time>2016-08-12T22:51:32.000Z</time>
        <extensions>
          <ns3:TrackPointExtension>
            <ns3:atemp>22.0</ns3:atemp>
            <ns3:hr>128</ns3:hr>
          </ns3:TrackPointExtension>
        </extensions>
      </trkpt>
      <trkpt lat="-22.10176630876958370208740234375" lon="166.4507688581943511962890625">
        <ele>566.5999755859375</ele>
        <time>2016-08-12T22:51:33.000Z</time>
        <extensions>
          <ns3:TrackPointExtension>
            <ns3:atemp>22.0</ns3:atemp>
            <ns3:hr>128</ns3:hr>
          </ns3:TrackPointExtension>
        </extensions>
      </trkpt>
      <trkpt lat="-22.10178248584270477294921875" lon="166.4507569558918476104736328125">
        <ele>567</ele>
        <time>2016-08-12T22:51:34.000Z</time>
        <extensions>
          <ns3:TrackPointExtension>
            <ns3:atemp>22.0</ns3:atemp>
            <ns3:hr>128</ns3:hr>
          </ns3:TrackPointExtension>
        </extensions>
      </trkpt>
      <trkpt lat="-22.1017977409064769744873046875" lon="166.45073776133358478546142578125">
        <ele>567</ele>
        <time>2016-08-12T22:51:35.000Z</time>
        <extensions>
          <ns3:TrackPointExtension>
            <ns3:atemp>22.0</ns3:atemp>
            <ns3:hr>128</ns3:hr>
          </ns3:TrackPointExtension>
        </extensions>
      </trkpt>
      <trkpt lat="-22.10181559436023235321044921875" lon="166.4507251046597957611083984375">
        <ele>567</ele>
        <time>2016-08-12T22:51:36.000Z</time>
        <extensions>
          <ns3:TrackPointExtension>
            <ns3:atemp>22.0</ns3:atemp>
            <ns3:hr>128</ns3:hr>
          </ns3:TrackPointExtension>
        </extensions>
      </trkpt>
      <trkpt lat="-22.10183613002300262451171875" lon="166.4507066644728183746337890625">
        <ele>566.4000244140625</ele>
        <time>2016-08-12T22:51:37.000Z</time>
        <extensions>
          <ns3:TrackPointExtension>
            <ns3:atemp>22.0</ns3:atemp>
            <ns3:hr>128</ns3:hr>
          </ns3:TrackPointExtension>
        </extensions>
      </trkpt>
      <trkpt lat="-22.10185415111482143402099609375" lon="166.4506932534277439117431640625">
        <ele>565.79998779296875</ele>
        <time>2016-08-12T22:51:38.000Z</time>
        <extensions>
          <ns3:TrackPointExtension>
            <ns3:atemp>22.0</ns3:atemp>
            <ns3:hr>128</ns3:hr>
          </ns3:TrackPointExtension>
        </extensions>
      </trkpt>
      <trkpt lat="-22.10187435150146484375" lon="166.45068730227649211883544921875">
        <ele>565.4000244140625</ele>
        <time>2016-08-12T22:51:39.000Z</time>
        <extensions>
          <ns3:TrackPointExtension>
            <ns3:atemp>22.0</ns3:atemp>
            <ns3:hr>128</ns3:hr>
          </ns3:TrackPointExtension>
        </extensions>
      </trkpt>
      <trkpt lat="-22.1018971502780914306640625" lon="166.450684368610382080078125">
        <ele>565.4000244140625</ele>
        <time>2016-08-12T22:51:40.000Z</time>
        <extensions>
          <ns3:TrackPointExtension>
            <ns3:atemp>22.0</ns3:atemp>
            <ns3:hr>128</ns3:hr>
          </ns3:TrackPointExtension>
        </extensions>
      </trkpt>
      <trkpt lat="-22.10191927850246429443359375" lon="166.450676657259464263916015625">
        <ele>565.5999755859375</ele>
        <time>2016-08-12T22:51:41.000Z</time>
        <extensions>
          <ns3:TrackPointExtension>
            <ns3:atemp>22.0</ns3:atemp>
            <ns3:hr>128</ns3:hr>
          </ns3:TrackPointExtension>
        </extensions>
      </trkpt>
      <trkpt lat="-22.1019523032009601593017578125" lon="166.45067439414560794830322265625">
        <ele>565.5999755859375</ele>
        <time>2016-08-12T22:51:42.000Z</time>
        <extensions>
          <ns3:TrackPointExtension>
            <ns3:atemp>22.0</ns3:atemp>
            <ns3:hr>128</ns3:hr>
          </ns3:TrackPointExtension>
        </extensions>
      </trkpt>
      <trkpt lat="-22.1019781194627285003662109375" lon="166.45066567696630954742431640625">
        <ele>565.4000244140625</ele>
        <time>2016-08-12T22:51:43.000Z</time>
        <extensions>
          <ns3:TrackPointExtension>
            <ns3:atemp>22.0</ns3:atemp>
            <ns3:hr>128</ns3:hr>
          </ns3:TrackPointExtension>
        </extensions>
      </trkpt>
      <trkpt lat="-22.10199999623000621795654296875" lon="166.45065360702574253082275390625">
        <ele>565</ele>
        <time>2016-08-12T22:51:44.000Z</time>
        <extensions>
          <ns3:TrackPointExtension>
            <ns3:atemp>22.0</ns3:atemp>
            <ns3:hr>128</ns3:hr>
          </ns3:TrackPointExtension>
        </extensions>
      </trkpt>
      <trkpt lat="-22.10202598012983798980712890625" lon="166.4506443031132221221923828125">
        <ele>564.79998779296875</ele>
        <time>2016-08-12T22:51:45.000Z</time>
        <extensions>
          <ns3:TrackPointExtension>
            <ns3:atemp>22.0</ns3:atemp>
            <ns3:hr>128</ns3:hr>
          </ns3:TrackPointExtension>
        </extensions>
      </trkpt>
      <trkpt lat="-22.1020528860390186309814453125" lon="166.4506386034190654754638671875">
        <ele>564.5999755859375</ele>
        <time>2016-08-12T22:51:46.000Z</time>
        <extensions>
          <ns3:TrackPointExtension>
            <ns3:atemp>22.0</ns3:atemp>
            <ns3:hr>127</ns3:hr>
          </ns3:TrackPointExtension>
        </extensions>
      </trkpt>
      <trkpt lat="-22.10207744501531124114990234375" lon="166.45063583739101886749267578125">
        <ele>564.5999755859375</ele>
        <time>2016-08-12T22:51:47.000Z</time>
        <extensions>
          <ns3:TrackPointExtension>
            <ns3:atemp>22.0</ns3:atemp>
            <ns3:hr>127</ns3:hr>
          </ns3:TrackPointExtension>
        </extensions>
      </trkpt>
      <trkpt lat="-22.1021025069057941436767578125" lon="166.45063835196197032928466796875">
        <ele>564.4000244140625</ele>
        <time>2016-08-12T22:51:48.000Z</time>
        <extensions>
          <ns3:TrackPointExtension>
            <ns3:atemp>21.0</ns3:atemp>
            <ns3:hr>127</ns3:hr>
          </ns3:TrackPointExtension>
        </extensions>
      </trkpt>
      <trkpt lat="-22.1021253056824207305908203125" lon="166.45064220763742923736572265625">
        <ele>564.4000244140625</ele>
        <time>2016-08-12T22:51:49.000Z</time>
        <extensions>
          <ns3:TrackPointExtension>
            <ns3:atemp>21.0</ns3:atemp>
            <ns3:hr>127</ns3:hr>
          </ns3:TrackPointExtension>
        </extensions>
      </trkpt>
      <trkpt lat="-22.1021410636603832244873046875" lon="166.4506454765796661376953125">
        <ele>565</ele>
        <time>2016-08-12T22:51:50.000Z</time>
        <extensions>
          <ns3:TrackPointExtension>
            <ns3:atemp>21.0</ns3:atemp>
            <ns3:hr>128</ns3:hr>
          </ns3:TrackPointExtension>
        </extensions>
      </trkpt>
      <trkpt lat="-22.10215807892382144927978515625" lon="166.4506473205983638763427734375">
        <ele>565.20001220703125</ele>
        <time>2016-08-12T22:51:51.000Z</time>
        <extensions>
          <ns3:TrackPointExtension>
            <ns3:atemp>21.0</ns3:atemp>
            <ns3:hr>128</ns3:hr>
          </ns3:TrackPointExtension>
        </extensions>
      </trkpt>
      <trkpt lat="-22.1021747589111328125" lon="166.450646482408046722412109375">
        <ele>565.4000244140625</ele>
        <time>2016-08-12T22:51:52.000Z</time>
        <extensions>
          <ns3:TrackPointExtension>
            <ns3:atemp>21.0</ns3:atemp>
            <ns3:hr>128</ns3:hr>
          </ns3:TrackPointExtension>
        </extensions>
      </trkpt>
      <trkpt lat="-22.102191857993602752685546875" lon="166.45063986070454120635986328125">
        <ele>565.4000244140625</ele>
        <time>2016-08-12T22:51:53.000Z</time>
        <extensions>
          <ns3:TrackPointExtension>
            <ns3:atemp>21.0</ns3:atemp>
            <ns3:hr>128</ns3:hr>
          </ns3:TrackPointExtension>
        </extensions>
      </trkpt>
      <trkpt lat="-22.10221088491380214691162109375" lon="166.4506399445235729217529296875">
        <ele>565.79998779296875</ele>
        <time>2016-08-12T22:51:54.000Z</time>
        <extensions>
          <ns3:TrackPointExtension>
            <ns3:atemp>21.0</ns3:atemp>
            <ns3:hr>128</ns3:hr>
          </ns3:TrackPointExtension>
        </extensions>
      </trkpt>
      <trkpt lat="-22.1022265590727329254150390625" lon="166.45064036361873149871826171875">
        <ele>565.79998779296875</ele>
        <time>2016-08-12T22:51:55.000Z</time>
        <extensions>
          <ns3:TrackPointExtension>
            <ns3:atemp>21.0</ns3:atemp>
            <ns3:hr>128</ns3:hr>
          </ns3:TrackPointExtension>
        </extensions>
      </trkpt>
      <trkpt lat="-22.10225162096321582794189453125" lon="166.4506429620087146759033203125">
        <ele>565.79998779296875</ele>
        <time>2016-08-12T22:51:56.000Z</time>
        <extensions>
          <ns3:TrackPointExtension>
            <ns3:atemp>21.0</ns3:atemp>
            <ns3:hr>128</ns3:hr>
          </ns3:TrackPointExtension>
        </extensions>
      </trkpt>
      <trkpt lat="-22.10227441973984241485595703125" lon="166.45064556039869785308837890625">
        <ele>565.5999755859375</ele>
        <time>2016-08-12T22:51:57.000Z</time>
        <extensions>
          <ns3:TrackPointExtension>
            <ns3:atemp>21.0</ns3:atemp>
            <ns3:hr>128</ns3:hr>
          </ns3:TrackPointExtension>
        </extensions>
      </trkpt>
      <trkpt lat="-22.10230224765837192535400390625" lon="166.450645811855792999267578125">
        <ele>565.20001220703125</ele>
        <time>2016-08-12T22:51:58.000Z</time>
        <extensions>
          <ns3:TrackPointExtension>
            <ns3:atemp>21.0</ns3:atemp>
            <ns3:hr>129</ns3:hr>
          </ns3:TrackPointExtension>
        </extensions>
      </trkpt>
      <trkpt lat="-22.10232965648174285888671875" lon="166.450651176273822784423828125">
        <ele>565</ele>
        <time>2016-08-12T22:51:59.000Z</time>
        <extensions>
          <ns3:TrackPointExtension>
            <ns3:atemp>21.0</ns3:atemp>
            <ns3:hr>129</ns3:hr>
          </ns3:TrackPointExtension>
        </extensions>
      </trkpt>
      <trkpt lat="-22.10234918631613254547119140625" lon="166.45065763033926486968994140625">
        <ele>564.79998779296875</ele>
        <time>2016-08-12T22:52:00.000Z</time>
        <extensions>
          <ns3:TrackPointExtension>
            <ns3:atemp>21.0</ns3:atemp>
            <ns3:hr>129</ns3:hr>
          </ns3:TrackPointExtension>
        </extensions>
      </trkpt>
      <trkpt lat="-22.102366201579570770263671875" lon="166.45066400058567523956298828125">
        <ele>565.20001220703125</ele>
        <time>2016-08-12T22:52:01.000Z</time>
        <extensions>
          <ns3:TrackPointExtension>
            <ns3:atemp>21.0</ns3:atemp>
            <ns3:hr>129</ns3:hr>
          </ns3:TrackPointExtension>
        </extensions>
      </trkpt>
      <trkpt lat="-22.1023858152329921722412109375" lon="166.45067322067916393280029296875">
        <ele>565.4000244140625</ele>
        <time>2016-08-12T22:52:02.000Z</time>
        <extensions>
          <ns3:TrackPointExtension>
            <ns3:atemp>21.0</ns3:atemp>
            <ns3:hr>130</ns3:hr>
          </ns3:TrackPointExtension>
        </extensions>
      </trkpt>
      <trkpt lat="-22.10241691209375858306884765625" lon="166.45069434307515621185302734375">
        <ele>565.4000244140625</ele>
        <time>2016-08-12T22:52:03.000Z</time>
        <extensions>
          <ns3:TrackPointExtension>
            <ns3:atemp>21.0</ns3:atemp>
            <ns3:hr>129</ns3:hr>
          </ns3:TrackPointExtension>
        </extensions>
      </trkpt>
      <trkpt lat="-22.1024414710700511932373046875" lon="166.45071244798600673675537109375">
        <ele>565</ele>
        <time>2016-08-12T22:52:04.000Z</time>
        <extensions>
          <ns3:TrackPointExtension>
            <ns3:atemp>21.0</ns3:atemp>
            <ns3:hr>130</ns3:hr>
          </ns3:TrackPointExtension>
        </extensions>
      </trkpt>
      <trkpt lat="-22.10246468894183635711669921875" lon="166.4507254399359226226806640625">
        <ele>565.20001220703125</ele>
        <time>2016-08-12T22:52:05.000Z</time>
        <extensions>
          <ns3:TrackPointExtension>
            <ns3:atemp>21.0</ns3:atemp>
            <ns3:hr>130</ns3:hr>
          </ns3:TrackPointExtension>
        </extensions>
      </trkpt>
      <trkpt lat="-22.10248581133782863616943359375" lon="166.4507334865629673004150390625">
        <ele>565</ele>
        <time>2016-08-12T22:52:06.000Z</time>
        <extensions>
          <ns3:TrackPointExtension>
            <ns3:atemp>21.0</ns3:atemp>
            <ns3:hr>130</ns3:hr>
          </ns3:TrackPointExtension>
        </extensions>
      </trkpt>
      <trkpt lat="-22.1025086939334869384765625" lon="166.4507445506751537322998046875">
        <ele>565</ele>
        <time>2016-08-12T22:52:07.000Z</time>
        <extensions>
          <ns3:TrackPointExtension>
            <ns3:atemp>21.0</ns3:atemp>
            <ns3:hr>130</ns3:hr>
          </ns3:TrackPointExtension>
        </extensions>
      </trkpt>
      <trkpt lat="-22.10253006778657436370849609375" lon="166.45075586624443531036376953125">
        <ele>564.79998779296875</ele>
        <time>2016-08-12T22:52:08.000Z</time>
        <extensions>
          <ns3:TrackPointExtension>
            <ns3:atemp>21.0</ns3:atemp>
            <ns3:hr>131</ns3:hr>
          </ns3:TrackPointExtension>
        </extensions>
      </trkpt>
      <trkpt lat="-22.10255630314350128173828125" lon="166.450766511261463165283203125">
        <ele>564.5999755859375</ele>
        <time>2016-08-12T22:52:09.000Z</time>
        <extensions>
          <ns3:TrackPointExtension>
            <ns3:atemp>21.0</ns3:atemp>
            <ns3:hr>131</ns3:hr>
          </ns3:TrackPointExtension>
        </extensions>
      </trkpt>
      <trkpt lat="-22.10257767699658870697021484375" lon="166.45078201778233051300048828125">
        <ele>564.20001220703125</ele>
        <time>2016-08-12T22:52:10.000Z</time>
        <extensions>
          <ns3:TrackPointExtension>
            <ns3:atemp>21.0</ns3:atemp>
            <ns3:hr>131</ns3:hr>
          </ns3:TrackPointExtension>
        </extensions>
      </trkpt>
      <trkpt lat="-22.1025997214019298553466796875" lon="166.4507992006838321685791015625">
        <ele>564.20001220703125</ele>
        <time>2016-08-12T22:52:11.000Z</time>
        <extensions>
          <ns3:TrackPointExtension>
            <ns3:atemp>21.0</ns3:atemp>
            <ns3:hr>132</ns3:hr>
          </ns3:TrackPointExtension>
        </extensions>
      </trkpt>
      <trkpt lat="-22.1026258729398250579833984375" lon="166.45081956870853900909423828125">
        <ele>564.20001220703125</ele>
        <time>2016-08-12T22:52:12.000Z</time>
        <extensions>
          <ns3:TrackPointExtension>
            <ns3:atemp>21.0</ns3:atemp>
            <ns3:hr>132</ns3:hr>
          </ns3:TrackPointExtension>
        </extensions>
      </trkpt>
      <trkpt lat="-22.102641798555850982666015625" lon="166.45083398558199405670166015625">
        <ele>564.4000244140625</ele>
        <time>2016-08-12T22:52:13.000Z</time>
        <extensions>
          <ns3:TrackPointExtension>
            <ns3:atemp>21.0</ns3:atemp>
            <ns3:hr>132</ns3:hr>
          </ns3:TrackPointExtension>
        </extensions>
      </trkpt>
      <trkpt lat="-22.10266166366636753082275390625" lon="166.45085024647414684295654296875">
        <ele>564.4000244140625</ele>
        <time>2016-08-12T22:52:14.000Z</time>
        <extensions>
          <ns3:TrackPointExtension>
            <ns3:atemp>21.0</ns3:atemp>
            <ns3:hr>132</ns3:hr>
          </ns3:TrackPointExtension>
        </extensions>
      </trkpt>
      <trkpt lat="-22.10268312133848667144775390625" lon="166.45086751319468021392822265625">
        <ele>564.20001220703125</ele>
        <time>2016-08-12T22:52:15.000Z</time>
        <extensions>
          <ns3:TrackPointExtension>
            <ns3:atemp>21.0</ns3:atemp>
            <ns3:hr>132</ns3:hr>
          </ns3:TrackPointExtension>
        </extensions>
      </trkpt>
      <trkpt lat="-22.10270575247704982757568359375" lon="166.45088226534426212310791015625">
        <ele>564.20001220703125</ele>
        <time>2016-08-12T22:52:16.000Z</time>
        <extensions>
          <ns3:TrackPointExtension>
            <ns3:atemp>21.0</ns3:atemp>
            <ns3:hr>132</ns3:hr>
          </ns3:TrackPointExtension>
        </extensions>
      </trkpt>
      <trkpt lat="-22.10273467004299163818359375" lon="166.45089601166546344757080078125">
        <ele>563.79998779296875</ele>
        <time>2016-08-12T22:52:17.000Z</time>
        <extensions>
          <ns3:TrackPointExtension>
            <ns3:atemp>21.0</ns3:atemp>
            <ns3:hr>133</ns3:hr>
          </ns3:TrackPointExtension>
        </extensions>
      </trkpt>
      <trkpt lat="-22.10275939665734767913818359375" lon="166.45090632140636444091796875">
        <ele>563.5999755859375</ele>
        <time>2016-08-12T22:52:18.000Z</time>
        <extensions>
          <ns3:TrackPointExtension>
            <ns3:atemp>21.0</ns3:atemp>
            <ns3:hr>133</ns3:hr>
          </ns3:TrackPointExtension>
        </extensions>
      </trkpt>
      <trkpt lat="-22.1027807705104351043701171875" lon="166.45091344602406024932861328125">
        <ele>563.5999755859375</ele>
        <time>2016-08-12T22:52:19.000Z</time>
        <extensions>
          <ns3:TrackPointExtension>
            <ns3:atemp>21.0</ns3:atemp>
            <ns3:hr>133</ns3:hr>
          </ns3:TrackPointExtension>
        </extensions>
      </trkpt>
      <trkpt lat="-22.102809436619281768798828125" lon="166.450915038585662841796875">
        <ele>563.5999755859375</ele>
        <time>2016-08-12T22:52:20.000Z</time>
        <extensions>
          <ns3:TrackPointExtension>
            <ns3:atemp>21.0</ns3:atemp>
            <ns3:hr>133</ns3:hr>
          </ns3:TrackPointExtension>
        </extensions>
      </trkpt>
      <trkpt lat="-22.10283533670008182525634765625" lon="166.4509192295372486114501953125">
        <ele>563.5999755859375</ele>
        <time>2016-08-12T22:52:21.000Z</time>
        <extensions>
          <ns3:TrackPointExtension>
            <ns3:atemp>21.0</ns3:atemp>
            <ns3:hr>133</ns3:hr>
          </ns3:TrackPointExtension>
        </extensions>
      </trkpt>
      <trkpt lat="-22.10286014713346958160400390625" lon="166.45092082209885120391845703125">
        <ele>563</ele>
        <time>2016-08-12T22:52:22.000Z</time>
        <extensions>
          <ns3:TrackPointExtension>
            <ns3:atemp>21.0</ns3:atemp>
            <ns3:hr>133</ns3:hr>
          </ns3:TrackPointExtension>
        </extensions>
      </trkpt>
      <trkpt lat="-22.10289132781326770782470703125" lon="166.45092149265110492706298828125">
        <ele>562.79998779296875</ele>
        <time>2016-08-12T22:52:23.000Z</time>
        <extensions>
          <ns3:TrackPointExtension>
            <ns3:atemp>21.0</ns3:atemp>
            <ns3:hr>133</ns3:hr>
          </ns3:TrackPointExtension>
        </extensions>
      </trkpt>
      <trkpt lat="-22.10291345603764057159423828125" lon="166.4509188942611217498779296875">
        <ele>562.79998779296875</ele>
        <time>2016-08-12T22:52:24.000Z</time>
        <extensions>
          <ns3:TrackPointExtension>
            <ns3:atemp>21.0</ns3:atemp>
            <ns3:hr>133</ns3:hr>
          </ns3:TrackPointExtension>
        </extensions>
      </trkpt>
      <trkpt lat="-22.10293994285166263580322265625" lon="166.45091176964342594146728515625">
        <ele>562.4000244140625</ele>
        <time>2016-08-12T22:52:25.000Z</time>
        <extensions>
          <ns3:TrackPointExtension>
            <ns3:atemp>21.0</ns3:atemp>
            <ns3:hr>133</ns3:hr>
          </ns3:TrackPointExtension>
        </extensions>
      </trkpt>
      <trkpt lat="-22.10296961478888988494873046875" lon="166.45090372301638126373291015625">
        <ele>562.4000244140625</ele>
        <time>2016-08-12T22:52:26.000Z</time>
        <extensions>
          <ns3:TrackPointExtension>
            <ns3:atemp>21.0</ns3:atemp>
            <ns3:hr>133</ns3:hr>
          </ns3:TrackPointExtension>
        </extensions>
      </trkpt>
      <trkpt lat="-22.10298989899456501007080078125" lon="166.45089936442673206329345703125">
        <ele>562.4000244140625</ele>
        <time>2016-08-12T22:52:27.000Z</time>
        <extensions>
          <ns3:TrackPointExtension>
            <ns3:atemp>21.0</ns3:atemp>
            <ns3:hr>132</ns3:hr>
          </ns3:TrackPointExtension>
        </extensions>
      </trkpt>
      <trkpt lat="-22.1030144579708576202392578125" lon="166.45089693367481231689453125">
        <ele>562.4000244140625</ele>
        <time>2016-08-12T22:52:28.000Z</time>
        <extensions>
          <ns3:TrackPointExtension>
            <ns3:atemp>21.0</ns3:atemp>
            <ns3:hr>132</ns3:hr>
          </ns3:TrackPointExtension>
        </extensions>
      </trkpt>
      <trkpt lat="-22.10304102860391139984130859375" lon="166.4508977718651294708251953125">
        <ele>562.4000244140625</ele>
        <time>2016-08-12T22:52:29.000Z</time>
        <extensions>
          <ns3:TrackPointExtension>
            <ns3:atemp>21.0</ns3:atemp>
            <ns3:hr>132</ns3:hr>
          </ns3:TrackPointExtension>
        </extensions>
      </trkpt>
      <trkpt lat="-22.10306885652244091033935546875" lon="166.45090162754058837890625">
        <ele>562.4000244140625</ele>
        <time>2016-08-12T22:52:30.000Z</time>
        <extensions>
          <ns3:TrackPointExtension>
            <ns3:atemp>21.0</ns3:atemp>
            <ns3:hr>132</ns3:hr>
          </ns3:TrackPointExtension>
        </extensions>
      </trkpt>
      <trkpt lat="-22.10310121066868305206298828125" lon="166.4508991129696369171142578125">
        <ele>562.20001220703125</ele>
        <time>2016-08-12T22:52:31.000Z</time>
        <extensions>
          <ns3:TrackPointExtension>
            <ns3:atemp>21.0</ns3:atemp>
            <ns3:hr>131</ns3:hr>
          </ns3:TrackPointExtension>
        </extensions>
      </trkpt>
      <trkpt lat="-22.1031240932643413543701171875" lon="166.450898945331573486328125">
        <ele>562.4000244140625</ele>
        <time>2016-08-12T22:52:32.000Z</time>
        <extensions>
          <ns3:TrackPointExtension>
            <ns3:atemp>21.0</ns3:atemp>
            <ns3:hr>131</ns3:hr>
          </ns3:TrackPointExtension>
        </extensions>
      </trkpt>
      <trkpt lat="-22.1031478978693485260009765625" lon="166.450903303921222686767578125">
        <ele>562.4000244140625</ele>
        <time>2016-08-12T22:52:33.000Z</time>
        <extensions>
          <ns3:TrackPointExtension>
            <ns3:atemp>21.0</ns3:atemp>
            <ns3:hr>131</ns3:hr>
          </ns3:TrackPointExtension>
        </extensions>
      </trkpt>
      <trkpt lat="-22.10317128337919712066650390625" lon="166.45090942271053791046142578125">
        <ele>562.20001220703125</ele>
        <time>2016-08-12T22:52:34.000Z</time>
        <extensions>
          <ns3:TrackPointExtension>
            <ns3:atemp>21.0</ns3:atemp>
            <ns3:hr>131</ns3:hr>
          </ns3:TrackPointExtension>
        </extensions>
      </trkpt>
      <trkpt lat="-22.103193663060665130615234375" lon="166.4509178884327411651611328125">
        <ele>562.20001220703125</ele>
        <time>2016-08-12T22:52:35.000Z</time>
        <extensions>
          <ns3:TrackPointExtension>
            <ns3:atemp>21.0</ns3:atemp>
            <ns3:hr>131</ns3:hr>
          </ns3:TrackPointExtension>
        </extensions>
      </trkpt>
      <trkpt lat="-22.10321235470473766326904296875" lon="166.45092501305043697357177734375">
        <ele>562</ele>
        <time>2016-08-12T22:52:36.000Z</time>
        <extensions>
          <ns3:TrackPointExtension>
            <ns3:atemp>21.0</ns3:atemp>
            <ns3:hr>131</ns3:hr>
          </ns3:TrackPointExtension>
        </extensions>
      </trkpt>
      <trkpt lat="-22.10323984734714031219482421875" lon="166.45093373022973537445068359375">
        <ele>561.79998779296875</ele>
        <time>2016-08-12T22:52:37.000Z</time>
        <extensions>
          <ns3:TrackPointExtension>
            <ns3:atemp>21.0</ns3:atemp>
            <ns3:hr>131</ns3:hr>
          </ns3:TrackPointExtension>
        </extensions>
      </trkpt>
      <trkpt lat="-22.1032662503421306610107421875" lon="166.45094328559935092926025390625">
        <ele>561.79998779296875</ele>
        <time>2016-08-12T22:52:38.000Z</time>
        <extensions>
          <ns3:TrackPointExtension>
            <ns3:atemp>21.0</ns3:atemp>
            <ns3:hr>131</ns3:hr>
          </ns3:TrackPointExtension>
        </extensions>
      </trkpt>
      <trkpt lat="-22.10328678600490093231201171875" lon="166.45095418207347393035888671875">
        <ele>561.5999755859375</ele>
        <time>2016-08-12T22:52:39.000Z</time>
        <extensions>
          <ns3:TrackPointExtension>
            <ns3:atemp>21.0</ns3:atemp>
            <ns3:hr>131</ns3:hr>
          </ns3:TrackPointExtension>
        </extensions>
      </trkpt>
      <trkpt lat="-22.1033081598579883575439453125" lon="166.45096574909985065460205078125">
        <ele>561.5999755859375</ele>
        <time>2016-08-12T22:52:40.000Z</time>
        <extensions>
          <ns3:TrackPointExtension>
            <ns3:atemp>21.0</ns3:atemp>
            <ns3:hr>131</ns3:hr>
          </ns3:TrackPointExtension>
        </extensions>
      </trkpt>
      <trkpt lat="-22.103328444063663482666015625" lon="166.4509779028594493865966796875">
        <ele>561.4000244140625</ele>
        <time>2016-08-12T22:52:41.000Z</time>
        <extensions>
          <ns3:TrackPointExtension>
            <ns3:atemp>21.0</ns3:atemp>
            <ns3:hr>131</ns3:hr>
          </ns3:TrackPointExtension>
        </extensions>
      </trkpt>
      <trkpt lat="-22.1033550985157489776611328125" lon="166.45099810324609279632568359375">
        <ele>561.4000244140625</ele>
        <time>2016-08-12T22:52:42.000Z</time>
        <extensions>
          <ns3:TrackPointExtension>
            <ns3:atemp>21.0</ns3:atemp>
            <ns3:hr>131</ns3:hr>
          </ns3:TrackPointExtension>
        </extensions>
      </trkpt>
      <trkpt lat="-22.10337974131107330322265625" lon="166.45100631751120090484619140625">
        <ele>561.20001220703125</ele>
        <time>2016-08-12T22:52:43.000Z</time>
        <extensions>
          <ns3:TrackPointExtension>
            <ns3:atemp>21.0</ns3:atemp>
            <ns3:hr>131</ns3:hr>
          </ns3:TrackPointExtension>
        </extensions>
      </trkpt>
      <trkpt lat="-22.1033983491361141204833984375" lon="166.4510104246437549591064453125">
        <ele>561</ele>
        <time>2016-08-12T22:52:44.000Z</time>
        <extensions>
          <ns3:TrackPointExtension>
            <ns3:atemp>21.0</ns3:atemp>
            <ns3:hr>131</ns3:hr>
          </ns3:TrackPointExtension>
        </extensions>
      </trkpt>
      <trkpt lat="-22.10342290811240673065185546875" lon="166.45101469941437244415283203125">
        <ele>560.79998779296875</ele>
        <time>2016-08-12T22:52:45.000Z</time>
        <extensions>
          <ns3:TrackPointExtension>
            <ns3:atemp>21.0</ns3:atemp>
            <ns3:hr>131</ns3:hr>
          </ns3:TrackPointExtension>
        </extensions>
      </trkpt>
      <trkpt lat="-22.10344939492642879486083984375" lon="166.4510290324687957763671875">
        <ele>561</ele>
        <time>2016-08-12T22:52:46.000Z</time>
        <extensions>
          <ns3:TrackPointExtension>
            <ns3:atemp>21.0</ns3:atemp>
            <ns3:hr>131</ns3:hr>
          </ns3:TrackPointExtension>
        </extensions>
      </trkpt>
      <trkpt lat="-22.10347034968435764312744140625" lon="166.451040096580982208251953125">
        <ele>561</ele>
        <time>2016-08-12T22:52:47.000Z</time>
        <extensions>
          <ns3:TrackPointExtension>
            <ns3:atemp>21.0</ns3:atemp>
            <ns3:hr>131</ns3:hr>
          </ns3:TrackPointExtension>
        </extensions>
      </trkpt>
      <trkpt lat="-22.1034952439367771148681640625" lon="166.4510556869208812713623046875">
        <ele>561.20001220703125</ele>
        <time>2016-08-12T22:52:48.000Z</time>
        <extensions>
          <ns3:TrackPointExtension>
            <ns3:atemp>21.0</ns3:atemp>
            <ns3:hr>131</ns3:hr>
          </ns3:TrackPointExtension>
        </extensions>
      </trkpt>
      <trkpt lat="-22.1035145223140716552734375" lon="166.45107169635593891143798828125">
        <ele>561.20001220703125</ele>
        <time>2016-08-12T22:52:49.000Z</time>
        <extensions>
          <ns3:TrackPointExtension>
            <ns3:atemp>21.0</ns3:atemp>
            <ns3:hr>130</ns3:hr>
          </ns3:TrackPointExtension>
        </extensions>
      </trkpt>
      <trkpt lat="-22.10353396832942962646484375" lon="166.451095752418041229248046875">
        <ele>561.20001220703125</ele>
        <time>2016-08-12T22:52:50.000Z</time>
        <extensions>
          <ns3:TrackPointExtension>
            <ns3:atemp>21.0</ns3:atemp>
            <ns3:hr>130</ns3:hr>
          </ns3:TrackPointExtension>
        </extensions>
      </trkpt>
      <trkpt lat="-22.10355668328702449798583984375" lon="166.4511215686798095703125">
        <ele>561.20001220703125</ele>
        <time>2016-08-12T22:52:51.000Z</time>
        <extensions>
          <ns3:TrackPointExtension>
            <ns3:atemp>21.0</ns3:atemp>
            <ns3:hr>130</ns3:hr>
          </ns3:TrackPointExtension>
        </extensions>
      </trkpt>
      <trkpt lat="-22.10357420146465301513671875" lon="166.45114428363740444183349609375">
        <ele>561.20001220703125</ele>
        <time>2016-08-12T22:52:52.000Z</time>
        <extensions>
          <ns3:TrackPointExtension>
            <ns3:atemp>21.0</ns3:atemp>
            <ns3:hr>130</ns3:hr>
          </ns3:TrackPointExtension>
        </extensions>
      </trkpt>
      <trkpt lat="-22.10359339602291584014892578125" lon="166.45116959698498249053955078125">
        <ele>560.79998779296875</ele>
        <time>2016-08-12T22:52:53.000Z</time>
        <extensions>
          <ns3:TrackPointExtension>
            <ns3:atemp>21.0</ns3:atemp>
            <ns3:hr>130</ns3:hr>
          </ns3:TrackPointExtension>
        </extensions>
      </trkpt>
      <trkpt lat="-22.10360831581056118011474609375" lon="166.451186947524547576904296875">
        <ele>560.4000244140625</ele>
        <time>2016-08-12T22:52:54.000Z</time>
        <extensions>
          <ns3:TrackPointExtension>
            <ns3:atemp>21.0</ns3:atemp>
            <ns3:hr>130</ns3:hr>
          </ns3:TrackPointExtension>
        </extensions>
      </trkpt>
      <trkpt lat="-22.1036239899694919586181640625" lon="166.4512035436928272247314453125">
        <ele>560</ele>
        <time>2016-08-12T22:52:55.000Z</time>
        <extensions>
          <ns3:TrackPointExtension>
            <ns3:atemp>21.0</ns3:atemp>
            <ns3:hr>130</ns3:hr>
          </ns3:TrackPointExtension>
        </extensions>
      </trkpt>
      <trkpt lat="-22.103642262518405914306640625" lon="166.45122273825109004974365234375">
        <ele>559.79998779296875</ele>
        <time>2016-08-12T22:52:56.000Z</time>
        <extensions>
          <ns3:TrackPointExtension>
            <ns3:atemp>21.0</ns3:atemp>
            <ns3:hr>130</ns3:hr>
          </ns3:TrackPointExtension>
        </extensions>
      </trkpt>
      <trkpt lat="-22.10365978069603443145751953125" lon="166.45123489201068878173828125">
        <ele>559.79998779296875</ele>
        <time>2016-08-12T22:52:57.000Z</time>
        <extensions>
          <ns3:TrackPointExtension>
            <ns3:atemp>21.0</ns3:atemp>
            <ns3:hr>130</ns3:hr>
          </ns3:TrackPointExtension>
        </extensions>
      </trkpt>
      <trkpt lat="-22.10367872379720211029052734375" lon="166.45124721340835094451904296875">
        <ele>559.4000244140625</ele>
        <time>2016-08-12T22:52:58.000Z</time>
        <extensions>
          <ns3:TrackPointExtension>
            <ns3:atemp>21.0</ns3:atemp>
            <ns3:hr>130</ns3:hr>
          </ns3:TrackPointExtension>
        </extensions>
      </trkpt>
      <trkpt lat="-22.10370521061122417449951171875" lon="166.45125961862504482269287109375">
        <ele>559.4000244140625</ele>
        <time>2016-08-12T22:52:59.000Z</time>
        <extensions>
          <ns3:TrackPointExtension>
            <ns3:atemp>21.0</ns3:atemp>
            <ns3:hr>130</ns3:hr>
          </ns3:TrackPointExtension>
        </extensions>
      </trkpt>
      <trkpt lat="-22.103729434311389923095703125" lon="166.451273448765277862548828125">
        <ele>559.20001220703125</ele>
        <time>2016-08-12T22:53:00.000Z</time>
        <extensions>
          <ns3:TrackPointExtension>
            <ns3:atemp>21.0</ns3:atemp>
            <ns3:hr>130</ns3:hr>
          </ns3:TrackPointExtension>
        </extensions>
      </trkpt>
      <trkpt lat="-22.1037534065544605255126953125" lon="166.4512843452394008636474609375">
        <ele>559</ele>
        <time>2016-08-12T22:53:01.000Z</time>
        <extensions>
          <ns3:TrackPointExtension>
            <ns3:atemp>21.0</ns3:atemp>
            <ns3:hr>130</ns3:hr>
          </ns3:TrackPointExtension>
        </extensions>
      </trkpt>
      <trkpt lat="-22.1037815697491168975830078125" lon="166.45129012875258922576904296875">
        <ele>558.5999755859375</ele>
        <time>2016-08-12T22:53:02.000Z</time>
        <extensions>
          <ns3:TrackPointExtension>
            <ns3:atemp>21.0</ns3:atemp>
            <ns3:hr>130</ns3:hr>
          </ns3:TrackPointExtension>
        </extensions>
      </trkpt>
      <trkpt lat="-22.10380327887833118438720703125" lon="166.451290547847747802734375">
        <ele>558.5999755859375</ele>
        <time>2016-08-12T22:53:03.000Z</time>
        <extensions>
          <ns3:TrackPointExtension>
            <ns3:atemp>21.0</ns3:atemp>
            <ns3:hr>130</ns3:hr>
          </ns3:TrackPointExtension>
        </extensions>
      </trkpt>
      <trkpt lat="-22.1038256585597991943359375" lon="166.45129197277128696441650390625">
        <ele>558.4000244140625</ele>
        <time>2016-08-12T22:53:04.000Z</time>
        <extensions>
          <ns3:TrackPointExtension>
            <ns3:atemp>21.0</ns3:atemp>
            <ns3:hr>129</ns3:hr>
          </ns3:TrackPointExtension>
        </extensions>
      </trkpt>
      <trkpt lat="-22.10385642014443874359130859375" lon="166.45129599608480930328369140625">
        <ele>558.20001220703125</ele>
        <time>2016-08-12T22:53:05.000Z</time>
        <extensions>
          <ns3:TrackPointExtension>
            <ns3:atemp>21.0</ns3:atemp>
            <ns3:hr>129</ns3:hr>
          </ns3:TrackPointExtension>
        </extensions>
      </trkpt>
      <trkpt lat="-22.103884331881999969482421875" lon="166.4513054676353931427001953125">
        <ele>558.20001220703125</ele>
        <time>2016-08-12T22:53:06.000Z</time>
        <extensions>
          <ns3:TrackPointExtension>
            <ns3:atemp>21.0</ns3:atemp>
            <ns3:hr>130</ns3:hr>
          </ns3:TrackPointExtension>
        </extensions>
      </trkpt>
      <trkpt lat="-22.103908471763134002685546875" lon="166.45131225697696208953857421875">
        <ele>558</ele>
        <time>2016-08-12T22:53:07.000Z</time>
        <extensions>
          <ns3:TrackPointExtension>
            <ns3:atemp>21.0</ns3:atemp>
            <ns3:hr>129</ns3:hr>
          </ns3:TrackPointExtension>
        </extensions>
      </trkpt>
      <trkpt lat="-22.1039391495287418365478515625" lon="166.45131812430918216705322265625">
        <ele>557.79998779296875</ele>
        <time>2016-08-12T22:53:08.000Z</time>
        <extensions>
          <ns3:TrackPointExtension>
            <ns3:atemp>21.0</ns3:atemp>
            <ns3:hr>129</ns3:hr>
          </ns3:TrackPointExtension>
        </extensions>
      </trkpt>
      <trkpt lat="-22.1039653010666370391845703125" lon="166.45132633857429027557373046875">
        <ele>557.79998779296875</ele>
        <time>2016-08-12T22:53:09.000Z</time>
        <extensions>
          <ns3:TrackPointExtension>
            <ns3:atemp>21.0</ns3:atemp>
            <ns3:hr>129</ns3:hr>
          </ns3:TrackPointExtension>
        </extensions>
      </trkpt>
      <trkpt lat="-22.10399455390870571136474609375" lon="166.45132617093622684478759765625">
        <ele>557.5999755859375</ele>
        <time>2016-08-12T22:53:10.000Z</time>
        <extensions>
          <ns3:TrackPointExtension>
            <ns3:atemp>21.0</ns3:atemp>
            <ns3:hr>129</ns3:hr>
          </ns3:TrackPointExtension>
        </extensions>
      </trkpt>
      <trkpt lat="-22.104021124541759490966796875" lon="166.45133337937295436859130859375">
        <ele>557.5999755859375</ele>
        <time>2016-08-12T22:53:11.000Z</time>
        <extensions>
          <ns3:TrackPointExtension>
            <ns3:atemp>21.0</ns3:atemp>
            <ns3:hr>129</ns3:hr>
          </ns3:TrackPointExtension>
        </extensions>
      </trkpt>
      <trkpt lat="-22.10404518060386180877685546875" lon="166.4513440243899822235107421875">
        <ele>557.4000244140625</ele>
        <time>2016-08-12T22:53:12.000Z</time>
        <extensions>
          <ns3:TrackPointExtension>
            <ns3:atemp>21.0</ns3:atemp>
            <ns3:hr>129</ns3:hr>
          </ns3:TrackPointExtension>
        </extensions>
      </trkpt>
      <trkpt lat="-22.10407401435077190399169921875" lon="166.45135533995926380157470703125">
        <ele>557.4000244140625</ele>
        <time>2016-08-12T22:53:13.000Z</time>
        <extensions>
          <ns3:TrackPointExtension>
            <ns3:atemp>21.0</ns3:atemp>
            <ns3:hr>129</ns3:hr>
          </ns3:TrackPointExtension>
        </extensions>
      </trkpt>
      <trkpt lat="-22.10409949533641338348388671875" lon="166.45136456005275249481201171875">
        <ele>557.4000244140625</ele>
        <time>2016-08-12T22:53:14.000Z</time>
        <extensions>
          <ns3:TrackPointExtension>
            <ns3:atemp>21.0</ns3:atemp>
            <ns3:hr>129</ns3:hr>
          </ns3:TrackPointExtension>
        </extensions>
      </trkpt>
      <trkpt lat="-22.104123048484325408935546875" lon="166.4513778872787952423095703125">
        <ele>557.4000244140625</ele>
        <time>2016-08-12T22:53:15.000Z</time>
        <extensions>
          <ns3:TrackPointExtension>
            <ns3:atemp>21.0</ns3:atemp>
            <ns3:hr>129</ns3:hr>
          </ns3:TrackPointExtension>
        </extensions>
      </trkpt>
      <trkpt lat="-22.10414886474609375" lon="166.451388783752918243408203125">
        <ele>557.20001220703125</ele>
        <time>2016-08-12T22:53:16.000Z</time>
        <extensions>
          <ns3:TrackPointExtension>
            <ns3:atemp>21.0</ns3:atemp>
            <ns3:hr>129</ns3:hr>
          </ns3:TrackPointExtension>
        </extensions>
      </trkpt>
      <trkpt lat="-22.10417233407497406005859375" lon="166.4513973332941532135009765625">
        <ele>557.20001220703125</ele>
        <time>2016-08-12T22:53:17.000Z</time>
        <extensions>
          <ns3:TrackPointExtension>
            <ns3:atemp>21.0</ns3:atemp>
            <ns3:hr>129</ns3:hr>
          </ns3:TrackPointExtension>
        </extensions>
      </trkpt>
      <trkpt lat="-22.104195468127727508544921875" lon="166.45140814594924449920654296875">
        <ele>557.20001220703125</ele>
        <time>2016-08-12T22:53:18.000Z</time>
        <extensions>
          <ns3:TrackPointExtension>
            <ns3:atemp>21.0</ns3:atemp>
            <ns3:hr>129</ns3:hr>
          </ns3:TrackPointExtension>
        </extensions>
      </trkpt>
      <trkpt lat="-22.10422069765627384185791015625" lon="166.45141887478530406951904296875">
        <ele>557</ele>
        <time>2016-08-12T22:53:19.000Z</time>
        <extensions>
          <ns3:TrackPointExtension>
            <ns3:atemp>21.0</ns3:atemp>
            <ns3:hr>128</ns3:hr>
          </ns3:TrackPointExtension>
        </extensions>
      </trkpt>
      <trkpt lat="-22.1042459271848201751708984375" lon="166.45143094472587108612060546875">
        <ele>556.79998779296875</ele>
        <time>2016-08-12T22:53:20.000Z</time>
        <extensions>
          <ns3:TrackPointExtension>
            <ns3:atemp>21.0</ns3:atemp>
            <ns3:hr>129</ns3:hr>
          </ns3:TrackPointExtension>
        </extensions>
      </trkpt>
      <trkpt lat="-22.10426646284759044647216796875" lon="166.45144167356193065643310546875">
        <ele>556.5999755859375</ele>
        <time>2016-08-12T22:53:21.000Z</time>
        <extensions>
          <ns3:TrackPointExtension>
            <ns3:atemp>21.0</ns3:atemp>
            <ns3:hr>129</ns3:hr>
          </ns3:TrackPointExtension>
        </extensions>
      </trkpt>
      <trkpt lat="-22.1042915247380733489990234375" lon="166.4514486305415630340576171875">
        <ele>556.4000244140625</ele>
        <time>2016-08-12T22:53:22.000Z</time>
        <extensions>
          <ns3:TrackPointExtension>
            <ns3:atemp>21.0</ns3:atemp>
            <ns3:hr>129</ns3:hr>
          </ns3:TrackPointExtension>
        </extensions>
      </trkpt>
      <trkpt lat="-22.1043136529624462127685546875" lon="166.45145751535892486572265625">
        <ele>556.20001220703125</ele>
        <time>2016-08-12T22:53:23.000Z</time>
        <extensions>
          <ns3:TrackPointExtension>
            <ns3:atemp>21.0</ns3:atemp>
            <ns3:hr>128</ns3:hr>
          </ns3:TrackPointExtension>
        </extensions>
      </trkpt>
      <trkpt lat="-22.1043324284255504608154296875" lon="166.4514637179672718048095703125">
        <ele>556</ele>
        <time>2016-08-12T22:53:24.000Z</time>
        <extensions>
          <ns3:TrackPointExtension>
            <ns3:atemp>21.0</ns3:atemp>
            <ns3:hr>129</ns3:hr>
          </ns3:TrackPointExtension>
        </extensions>
      </trkpt>
      <trkpt lat="-22.10435581393539905548095703125" lon="166.45145776681602001190185546875">
        <ele>555.5999755859375</ele>
        <time>2016-08-12T22:53:25.000Z</time>
        <extensions>
          <ns3:TrackPointExtension>
            <ns3:atemp>21.0</ns3:atemp>
            <ns3:hr>129</ns3:hr>
          </ns3:TrackPointExtension>
        </extensions>
      </trkpt>
      <trkpt lat="-22.1043800376355648040771484375" lon="166.451460532844066619873046875">
        <ele>555.4000244140625</ele>
        <time>2016-08-12T22:53:26.000Z</time>
        <extensions>
          <ns3:TrackPointExtension>
            <ns3:atemp>21.0</ns3:atemp>
            <ns3:hr>129</ns3:hr>
          </ns3:TrackPointExtension>
        </extensions>
      </trkpt>
      <trkpt lat="-22.1044051833450794219970703125" lon="166.4514608681201934814453125">
        <ele>555.20001220703125</ele>
        <time>2016-08-12T22:53:27.000Z</time>
        <extensions>
          <ns3:TrackPointExtension>
            <ns3:atemp>21.0</ns3:atemp>
            <ns3:hr>129</ns3:hr>
          </ns3:TrackPointExtension>
        </extensions>
      </trkpt>
      <trkpt lat="-22.1044345200061798095703125" lon="166.45145139656960964202880859375">
        <ele>555</ele>
        <time>2016-08-12T22:53:28.000Z</time>
        <extensions>
          <ns3:TrackPointExtension>
            <ns3:atemp>21.0</ns3:atemp>
            <ns3:hr>129</ns3:hr>
          </ns3:TrackPointExtension>
        </extensions>
      </trkpt>
      <trkpt lat="-22.10445974953472614288330078125" lon="166.45144351758062839508056640625">
        <ele>555</ele>
        <time>2016-08-12T22:53:29.000Z</time>
        <extensions>
          <ns3:TrackPointExtension>
            <ns3:atemp>21.0</ns3:atemp>
            <ns3:hr>129</ns3:hr>
          </ns3:TrackPointExtension>
        </extensions>
      </trkpt>
      <trkpt lat="-22.10448355413973331451416015625" lon="166.451435387134552001953125">
        <ele>554.5999755859375</ele>
        <time>2016-08-12T22:53:30.000Z</time>
        <extensions>
          <ns3:TrackPointExtension>
            <ns3:atemp>21.0</ns3:atemp>
            <ns3:hr>129</ns3:hr>
          </ns3:TrackPointExtension>
        </extensions>
      </trkpt>
      <trkpt lat="-22.10450970567762851715087890625" lon="166.45142675377428531646728515625">
        <ele>554.5999755859375</ele>
        <time>2016-08-12T22:53:31.000Z</time>
        <extensions>
          <ns3:TrackPointExtension>
            <ns3:atemp>21.0</ns3:atemp>
            <ns3:hr>130</ns3:hr>
          </ns3:TrackPointExtension>
        </extensions>
      </trkpt>
      <trkpt lat="-22.10453216917812824249267578125" lon="166.45142071880400180816650390625">
        <ele>554.4000244140625</ele>
        <time>2016-08-12T22:53:32.000Z</time>
        <extensions>
          <ns3:TrackPointExtension>
            <ns3:atemp>21.0</ns3:atemp>
            <ns3:hr>130</ns3:hr>
          </ns3:TrackPointExtension>
        </extensions>
      </trkpt>
      <trkpt lat="-22.1045579016208648681640625" lon="166.451420299708843231201171875">
        <ele>554.20001220703125</ele>
        <time>2016-08-12T22:53:33.000Z</time>
        <extensions>
          <ns3:TrackPointExtension>
            <ns3:atemp>21.0</ns3:atemp>
            <ns3:hr>130</ns3:hr>
          </ns3:TrackPointExtension>
        </extensions>
      </trkpt>
      <trkpt lat="-22.10458799265325069427490234375" lon="166.4514167793095111846923828125">
        <ele>554.20001220703125</ele>
        <time>2016-08-12T22:53:34.000Z</time>
        <extensions>
          <ns3:TrackPointExtension>
            <ns3:atemp>21.0</ns3:atemp>
            <ns3:hr>129</ns3:hr>
          </ns3:TrackPointExtension>
        </extensions>
      </trkpt>
      <trkpt lat="-22.10461414419114589691162109375" lon="166.45141149871051311492919921875">
        <ele>554.4000244140625</ele>
        <time>2016-08-12T22:53:35.000Z</time>
        <extensions>
          <ns3:TrackPointExtension>
            <ns3:atemp>21.0</ns3:atemp>
            <ns3:hr>129</ns3:hr>
          </ns3:TrackPointExtension>
        </extensions>
      </trkpt>
      <trkpt lat="-22.10463811643421649932861328125" lon="166.451400853693485260009765625">
        <ele>554.20001220703125</ele>
        <time>2016-08-12T22:53:36.000Z</time>
        <extensions>
          <ns3:TrackPointExtension>
            <ns3:atemp>21.0</ns3:atemp>
            <ns3:hr>129</ns3:hr>
          </ns3:TrackPointExtension>
        </extensions>
      </trkpt>
      <trkpt lat="-22.104667536914348602294921875" lon="166.45139423198997974395751953125">
        <ele>553.79998779296875</ele>
        <time>2016-08-12T22:53:37.000Z</time>
        <extensions>
          <ns3:TrackPointExtension>
            <ns3:atemp>21.0</ns3:atemp>
            <ns3:hr>129</ns3:hr>
          </ns3:TrackPointExtension>
        </extensions>
      </trkpt>
      <trkpt lat="-22.104694359004497528076171875" lon="166.4513916335999965667724609375">
        <ele>553.5999755859375</ele>
        <time>2016-08-12T22:53:38.000Z</time>
        <extensions>
          <ns3:TrackPointExtension>
            <ns3:atemp>21.0</ns3:atemp>
            <ns3:hr>129</ns3:hr>
          </ns3:TrackPointExtension>
        </extensions>
      </trkpt>
      <trkpt lat="-22.10472285747528076171875" lon="166.45139071159064769744873046875">
        <ele>553.4000244140625</ele>
        <time>2016-08-12T22:53:39.000Z</time>
        <extensions>
          <ns3:TrackPointExtension>
            <ns3:atemp>21.0</ns3:atemp>
            <ns3:hr>129</ns3:hr>
          </ns3:TrackPointExtension>
        </extensions>
      </trkpt>
      <trkpt lat="-22.1047515235841274261474609375" lon="166.4513869397342205047607421875">
        <ele>553.4000244140625</ele>
        <time>2016-08-12T22:53:40.000Z</time>
        <extensions>
          <ns3:TrackPointExtension>
            <ns3:atemp>21.0</ns3:atemp>
            <ns3:hr>129</ns3:hr>
          </ns3:TrackPointExtension>
        </extensions>
      </trkpt>
      <trkpt lat="-22.10477876476943492889404296875" lon="166.45139054395258426666259765625">
        <ele>553.20001220703125</ele>
        <time>2016-08-12T22:53:41.000Z</time>
        <extensions>
          <ns3:TrackPointExtension>
            <ns3:atemp>21.0</ns3:atemp>
            <ns3:hr>129</ns3:hr>
          </ns3:TrackPointExtension>
        </extensions>
      </trkpt>
      <trkpt lat="-22.10480399429798126220703125" lon="166.45139758475124835968017578125">
        <ele>553.20001220703125</ele>
        <time>2016-08-12T22:53:42.000Z</time>
        <extensions>
          <ns3:TrackPointExtension>
            <ns3:atemp>21.0</ns3:atemp>
            <ns3:hr>129</ns3:hr>
          </ns3:TrackPointExtension>
        </extensions>
      </trkpt>
      <trkpt lat="-22.10482721216976642608642578125" lon="166.45140387117862701416015625">
        <ele>553.20001220703125</ele>
        <time>2016-08-12T22:53:43.000Z</time>
        <extensions>
          <ns3:TrackPointExtension>
            <ns3:atemp>21.0</ns3:atemp>
            <ns3:hr>129</ns3:hr>
          </ns3:TrackPointExtension>
        </extensions>
      </trkpt>
      <trkpt lat="-22.10484984330832958221435546875" lon="166.45141334272921085357666015625">
        <ele>553</ele>
        <time>2016-08-12T22:53:44.000Z</time>
        <extensions>
          <ns3:TrackPointExtension>
            <ns3:atemp>21.0</ns3:atemp>
            <ns3:hr>129</ns3:hr>
          </ns3:TrackPointExtension>
        </extensions>
      </trkpt>
      <trkpt lat="-22.10487306118011474609375" lon="166.45142608322203159332275390625">
        <ele>552.79998779296875</ele>
        <time>2016-08-12T22:53:45.000Z</time>
        <extensions>
          <ns3:TrackPointExtension>
            <ns3:atemp>21.0</ns3:atemp>
            <ns3:hr>129</ns3:hr>
          </ns3:TrackPointExtension>
        </extensions>
      </trkpt>
      <trkpt lat="-22.10489627905189990997314453125" lon="166.45144402049481868743896484375">
        <ele>552.5999755859375</ele>
        <time>2016-08-12T22:53:46.000Z</time>
        <extensions>
          <ns3:TrackPointExtension>
            <ns3:atemp>21.0</ns3:atemp>
            <ns3:hr>129</ns3:hr>
          </ns3:TrackPointExtension>
        </extensions>
      </trkpt>
      <trkpt lat="-22.10491723380982875823974609375" lon="166.45146279595792293548583984375">
        <ele>552.4000244140625</ele>
        <time>2016-08-12T22:53:47.000Z</time>
        <extensions>
          <ns3:TrackPointExtension>
            <ns3:atemp>21.0</ns3:atemp>
            <ns3:hr>129</ns3:hr>
          </ns3:TrackPointExtension>
        </extensions>
      </trkpt>
      <trkpt lat="-22.1049359254539012908935546875" lon="166.4514848403632640838623046875">
        <ele>552.20001220703125</ele>
        <time>2016-08-12T22:53:48.000Z</time>
        <extensions>
          <ns3:TrackPointExtension>
            <ns3:atemp>21.0</ns3:atemp>
            <ns3:hr>129</ns3:hr>
          </ns3:TrackPointExtension>
        </extensions>
      </trkpt>
      <trkpt lat="-22.10495444945991039276123046875" lon="166.4515078067779541015625">
        <ele>552</ele>
        <time>2016-08-12T22:53:49.000Z</time>
        <extensions>
          <ns3:TrackPointExtension>
            <ns3:atemp>21.0</ns3:atemp>
            <ns3:hr>129</ns3:hr>
          </ns3:TrackPointExtension>
        </extensions>
      </trkpt>
      <trkpt lat="-22.10497037507593631744384765625" lon="166.45152859389781951904296875">
        <ele>551.5999755859375</ele>
        <time>2016-08-12T22:53:50.000Z</time>
        <extensions>
          <ns3:TrackPointExtension>
            <ns3:atemp>21.0</ns3:atemp>
            <ns3:hr>129</ns3:hr>
          </ns3:TrackPointExtension>
        </extensions>
      </trkpt>
      <trkpt lat="-22.10498713888227939605712890625" lon="166.45155097357928752899169921875">
        <ele>551.20001220703125</ele>
        <time>2016-08-12T22:53:51.000Z</time>
        <extensions>
          <ns3:TrackPointExtension>
            <ns3:atemp>21.0</ns3:atemp>
            <ns3:hr>129</ns3:hr>
          </ns3:TrackPointExtension>
        </extensions>
      </trkpt>
      <trkpt lat="-22.105006836354732513427734375" lon="166.451576538383960723876953125">
        <ele>550.79998779296875</ele>
        <time>2016-08-12T22:53:52.000Z</time>
        <extensions>
          <ns3:TrackPointExtension>
            <ns3:atemp>21.0</ns3:atemp>
            <ns3:hr>129</ns3:hr>
          </ns3:TrackPointExtension>
        </extensions>
      </trkpt>
      <trkpt lat="-22.10502183996140956878662109375" lon="166.4515984989702701568603515625">
        <ele>550.5999755859375</ele>
        <time>2016-08-12T22:53:53.000Z</time>
        <extensions>
          <ns3:TrackPointExtension>
            <ns3:atemp>21.0</ns3:atemp>
            <ns3:hr>129</ns3:hr>
          </ns3:TrackPointExtension>
        </extensions>
      </trkpt>
      <trkpt lat="-22.1050380170345306396484375" lon="166.45161936990916728973388671875">
        <ele>550.20001220703125</ele>
        <time>2016-08-12T22:53:54.000Z</time>
        <extensions>
          <ns3:TrackPointExtension>
            <ns3:atemp>21.0</ns3:atemp>
            <ns3:hr>129</ns3:hr>
          </ns3:TrackPointExtension>
        </extensions>
      </trkpt>
      <trkpt lat="-22.1050485782325267791748046875" lon="166.45164334215223789215087890625">
        <ele>550</ele>
        <time>2016-08-12T22:53:55.000Z</time>
        <extensions>
          <ns3:TrackPointExtension>
            <ns3:atemp>21.0</ns3:atemp>
            <ns3:hr>129</ns3:hr>
          </ns3:TrackPointExtension>
        </extensions>
      </trkpt>
      <trkpt lat="-22.10505570285022258758544921875" lon="166.45166404545307159423828125">
        <ele>549.79998779296875</ele>
        <time>2016-08-12T22:53:56.000Z</time>
        <extensions>
          <ns3:TrackPointExtension>
            <ns3:atemp>21.0</ns3:atemp>
            <ns3:hr>129</ns3:hr>
          </ns3:TrackPointExtension>
        </extensions>
      </trkpt>
      <trkpt lat="-22.1050629951059818267822265625" lon="166.45169246010482311248779296875">
        <ele>549.5999755859375</ele>
        <time>2016-08-12T22:53:57.000Z</time>
        <extensions>
          <ns3:TrackPointExtension>
            <ns3:atemp>21.0</ns3:atemp>
            <ns3:hr>129</ns3:hr>
          </ns3:TrackPointExtension>
        </extensions>
      </trkpt>
      <trkpt lat="-22.1050673536956310272216796875" lon="166.4517175219953060150146484375">
        <ele>549.5999755859375</ele>
        <time>2016-08-12T22:53:58.000Z</time>
        <extensions>
          <ns3:TrackPointExtension>
            <ns3:atemp>21.0</ns3:atemp>
            <ns3:hr>129</ns3:hr>
          </ns3:TrackPointExtension>
        </extensions>
      </trkpt>
      <trkpt lat="-22.1050727181136608123779296875" lon="166.4517450146377086639404296875">
        <ele>549.4000244140625</ele>
        <time>2016-08-12T22:53:59.000Z</time>
        <extensions>
          <ns3:TrackPointExtension>
            <ns3:atemp>21.0</ns3:atemp>
            <ns3:hr>129</ns3:hr>
          </ns3:TrackPointExtension>
        </extensions>
      </trkpt>
      <trkpt lat="-22.10507892072200775146484375" lon="166.45177267491817474365234375">
        <ele>549.20001220703125</ele>
        <time>2016-08-12T22:54:00.000Z</time>
        <extensions>
          <ns3:TrackPointExtension>
            <ns3:atemp>21.0</ns3:atemp>
            <ns3:hr>128</ns3:hr>
          </ns3:TrackPointExtension>
        </extensions>
      </trkpt>
      <trkpt lat="-22.1050889790058135986328125" lon="166.45179689861834049224853515625">
        <ele>549</ele>
        <time>2016-08-12T22:54:01.000Z</time>
        <extensions>
          <ns3:TrackPointExtension>
            <ns3:atemp>21.0</ns3:atemp>
            <ns3:hr>129</ns3:hr>
          </ns3:TrackPointExtension>
        </extensions>
      </trkpt>
      <trkpt lat="-22.10510347969830036163330078125" lon="166.451817937195301055908203125">
        <ele>548.79998779296875</ele>
        <time>2016-08-12T22:54:02.000Z</time>
        <extensions>
          <ns3:TrackPointExtension>
            <ns3:atemp>21.0</ns3:atemp>
            <ns3:hr>128</ns3:hr>
          </ns3:TrackPointExtension>
        </extensions>
      </trkpt>
      <trkpt lat="-22.10512326098978519439697265625" lon="166.45183746702969074249267578125">
        <ele>548.4000244140625</ele>
        <time>2016-08-12T22:54:03.000Z</time>
        <extensions>
          <ns3:TrackPointExtension>
            <ns3:atemp>21.0</ns3:atemp>
            <ns3:hr>129</ns3:hr>
          </ns3:TrackPointExtension>
        </extensions>
      </trkpt>
      <trkpt lat="-22.10514329373836517333984375" lon="166.45185448229312896728515625">
        <ele>548.4000244140625</ele>
        <time>2016-08-12T22:54:04.000Z</time>
        <extensions>
          <ns3:TrackPointExtension>
            <ns3:atemp>21.0</ns3:atemp>
            <ns3:hr>129</ns3:hr>
          </ns3:TrackPointExtension>
        </extensions>
      </trkpt>
      <trkpt lat="-22.10517103783786296844482421875" lon="166.45186361856758594512939453125">
        <ele>548.20001220703125</ele>
        <time>2016-08-12T22:54:05.000Z</time>
        <extensions>
          <ns3:TrackPointExtension>
            <ns3:atemp>21.0</ns3:atemp>
            <ns3:hr>129</ns3:hr>
          </ns3:TrackPointExtension>
        </extensions>
      </trkpt>
      <trkpt lat="-22.105195261538028717041015625" lon="166.45187485031783580780029296875">
        <ele>548.20001220703125</ele>
        <time>2016-08-12T22:54:06.000Z</time>
        <extensions>
          <ns3:TrackPointExtension>
            <ns3:atemp>21.0</ns3:atemp>
            <ns3:hr>129</ns3:hr>
          </ns3:TrackPointExtension>
        </extensions>
      </trkpt>
      <trkpt lat="-22.10522183217108249664306640625" lon="166.45188055001199245452880859375">
        <ele>547.79998779296875</ele>
        <time>2016-08-12T22:54:07.000Z</time>
        <extensions>
          <ns3:TrackPointExtension>
            <ns3:atemp>21.0</ns3:atemp>
            <ns3:hr>129</ns3:hr>
          </ns3:TrackPointExtension>
        </extensions>
      </trkpt>
      <trkpt lat="-22.10525619797408580780029296875" lon="166.45187795162200927734375">
        <ele>547.79998779296875</ele>
        <time>2016-08-12T22:54:08.000Z</time>
        <extensions>
          <ns3:TrackPointExtension>
            <ns3:atemp>21.0</ns3:atemp>
            <ns3:hr>129</ns3:hr>
          </ns3:TrackPointExtension>
        </extensions>
      </trkpt>
      <trkpt lat="-22.105283439159393310546875" lon="166.4518824778497219085693359375">
        <ele>547.79998779296875</ele>
        <time>2016-08-12T22:54:09.000Z</time>
        <extensions>
          <ns3:TrackPointExtension>
            <ns3:atemp>21.0</ns3:atemp>
            <ns3:hr>129</ns3:hr>
          </ns3:TrackPointExtension>
        </extensions>
      </trkpt>
      <trkpt lat="-22.10531520657241344451904296875" lon="166.4518900215625762939453125">
        <ele>547.5999755859375</ele>
        <time>2016-08-12T22:54:10.000Z</time>
        <extensions>
          <ns3:TrackPointExtension>
            <ns3:atemp>21.0</ns3:atemp>
            <ns3:hr>129</ns3:hr>
          </ns3:TrackPointExtension>
        </extensions>
      </trkpt>
      <trkpt lat="-22.10534236393868923187255859375" lon="166.45189781673252582550048828125">
        <ele>547.5999755859375</ele>
        <time>2016-08-12T22:54:11.000Z</time>
        <extensions>
          <ns3:TrackPointExtension>
            <ns3:atemp>21.0</ns3:atemp>
            <ns3:hr>129</ns3:hr>
          </ns3:TrackPointExtension>
        </extensions>
      </trkpt>
      <trkpt lat="-22.1053627319633960723876953125" lon="166.45190988667309284210205078125">
        <ele>547.5999755859375</ele>
        <time>2016-08-12T22:54:12.000Z</time>
        <extensions>
          <ns3:TrackPointExtension>
            <ns3:atemp>21.0</ns3:atemp>
            <ns3:hr>128</ns3:hr>
          </ns3:TrackPointExtension>
        </extensions>
      </trkpt>
      <trkpt lat="-22.10538360290229320526123046875" lon="166.45192958414554595947265625">
        <ele>547.20001220703125</ele>
        <time>2016-08-12T22:54:13.000Z</time>
        <extensions>
          <ns3:TrackPointExtension>
            <ns3:atemp>21.0</ns3:atemp>
            <ns3:hr>129</ns3:hr>
          </ns3:TrackPointExtension>
        </extensions>
      </trkpt>
      <trkpt lat="-22.10540204308927059173583984375" lon="166.451947689056396484375">
        <ele>546.79998779296875</ele>
        <time>2016-08-12T22:54:14.000Z</time>
        <extensions>
          <ns3:TrackPointExtension>
            <ns3:atemp>21.0</ns3:atemp>
            <ns3:hr>129</ns3:hr>
          </ns3:TrackPointExtension>
        </extensions>
      </trkpt>
      <trkpt lat="-22.10542115382850170135498046875" lon="166.45196386612951755523681640625">
        <ele>546.4000244140625</ele>
        <time>2016-08-12T22:54:15.000Z</time>
        <extensions>
          <ns3:TrackPointExtension>
            <ns3:atemp>21.0</ns3:atemp>
            <ns3:hr>129</ns3:hr>
          </ns3:TrackPointExtension>
        </extensions>
      </trkpt>
      <trkpt lat="-22.10544361732900142669677734375" lon="166.45197275094687938690185546875">
        <ele>546.20001220703125</ele>
        <time>2016-08-12T22:54:16.000Z</time>
        <extensions>
          <ns3:TrackPointExtension>
            <ns3:atemp>21.0</ns3:atemp>
            <ns3:hr>129</ns3:hr>
          </ns3:TrackPointExtension>
        </extensions>
      </trkpt>
      <trkpt lat="-22.10546708665788173675537109375" lon="166.451984904706478118896484375">
        <ele>545.79998779296875</ele>
        <time>2016-08-12T22:54:17.000Z</time>
        <extensions>
          <ns3:TrackPointExtension>
            <ns3:atemp>21.0</ns3:atemp>
            <ns3:hr>129</ns3:hr>
          </ns3:TrackPointExtension>
        </extensions>
      </trkpt>
      <trkpt lat="-22.10549575276672840118408203125" lon="166.45198532380163669586181640625">
        <ele>546</ele>
        <time>2016-08-12T22:54:18.000Z</time>
        <extensions>
          <ns3:TrackPointExtension>
            <ns3:atemp>21.0</ns3:atemp>
            <ns3:hr>129</ns3:hr>
          </ns3:TrackPointExtension>
        </extensions>
      </trkpt>
      <trkpt lat="-22.1055226586759090423583984375" lon="166.45198549143970012664794921875">
        <ele>546.79998779296875</ele>
        <time>2016-08-12T22:54:19.000Z</time>
        <extensions>
          <ns3:TrackPointExtension>
            <ns3:atemp>21.0</ns3:atemp>
            <ns3:hr>129</ns3:hr>
          </ns3:TrackPointExtension>
        </extensions>
      </trkpt>
      <trkpt lat="-22.10554604418575763702392578125" lon="166.451984234154224395751953125">
        <ele>546.5999755859375</ele>
        <time>2016-08-12T22:54:20.000Z</time>
        <extensions>
          <ns3:TrackPointExtension>
            <ns3:atemp>21.0</ns3:atemp>
            <ns3:hr>129</ns3:hr>
          </ns3:TrackPointExtension>
        </extensions>
      </trkpt>
      <trkpt lat="-22.105572111904621124267578125" lon="166.4519823901355266571044921875">
        <ele>546</ele>
        <time>2016-08-12T22:54:21.000Z</time>
        <extensions>
          <ns3:TrackPointExtension>
            <ns3:atemp>21.0</ns3:atemp>
            <ns3:hr>129</ns3:hr>
          </ns3:TrackPointExtension>
        </extensions>
      </trkpt>
      <trkpt lat="-22.1055987663567066192626953125" lon="166.45198062993586063385009765625">
        <ele>545.20001220703125</ele>
        <time>2016-08-12T22:54:22.000Z</time>
        <extensions>
          <ns3:TrackPointExtension>
            <ns3:atemp>21.0</ns3:atemp>
            <ns3:hr>129</ns3:hr>
          </ns3:TrackPointExtension>
        </extensions>
      </trkpt>
      <trkpt lat="-22.10562332533299922943115234375" lon="166.4519820548593997955322265625">
        <ele>544.79998779296875</ele>
        <time>2016-08-12T22:54:23.000Z</time>
        <extensions>
          <ns3:TrackPointExtension>
            <ns3:atemp>21.0</ns3:atemp>
            <ns3:hr>129</ns3:hr>
          </ns3:TrackPointExtension>
        </extensions>
      </trkpt>
      <trkpt lat="-22.1056520752608776092529296875" lon="166.45198683254420757293701171875">
        <ele>544.5999755859375</ele>
        <time>2016-08-12T22:54:24.000Z</time>
        <extensions>
          <ns3:TrackPointExtension>
            <ns3:atemp>21.0</ns3:atemp>
            <ns3:hr>129</ns3:hr>
          </ns3:TrackPointExtension>
        </extensions>
      </trkpt>
      <trkpt lat="-22.1056778915226459503173828125" lon="166.451994292438030242919921875">
        <ele>544</ele>
        <time>2016-08-12T22:54:25.000Z</time>
        <extensions>
          <ns3:TrackPointExtension>
            <ns3:atemp>21.0</ns3:atemp>
            <ns3:hr>129</ns3:hr>
          </ns3:TrackPointExtension>
        </extensions>
      </trkpt>
      <trkpt lat="-22.10570295341312885284423828125" lon="166.452003009617328643798828125">
        <ele>543.5999755859375</ele>
        <time>2016-08-12T22:54:26.000Z</time>
        <extensions>
          <ns3:TrackPointExtension>
            <ns3:atemp>21.0</ns3:atemp>
            <ns3:hr>129</ns3:hr>
          </ns3:TrackPointExtension>
        </extensions>
      </trkpt>
      <trkpt lat="-22.10572793148458003997802734375" lon="166.45201407372951507568359375">
        <ele>543.4000244140625</ele>
        <time>2016-08-12T22:54:27.000Z</time>
        <extensions>
          <ns3:TrackPointExtension>
            <ns3:atemp>21.0</ns3:atemp>
            <ns3:hr>129</ns3:hr>
          </ns3:TrackPointExtension>
        </extensions>
      </trkpt>
      <trkpt lat="-22.1057474613189697265625" lon="166.45202689804136753082275390625">
        <ele>543.20001220703125</ele>
        <time>2016-08-12T22:54:28.000Z</time>
        <extensions>
          <ns3:TrackPointExtension>
            <ns3:atemp>21.0</ns3:atemp>
            <ns3:hr>129</ns3:hr>
          </ns3:TrackPointExtension>
        </extensions>
      </trkpt>
      <trkpt lat="-22.10576464422047138214111328125" lon="166.45203997381031513214111328125">
        <ele>542.79998779296875</ele>
        <time>2016-08-12T22:54:29.000Z</time>
        <extensions>
          <ns3:TrackPointExtension>
            <ns3:atemp>21.0</ns3:atemp>
            <ns3:hr>129</ns3:hr>
          </ns3:TrackPointExtension>
        </extensions>
      </trkpt>
      <trkpt lat="-22.105776630342006683349609375" lon="166.4520524628460407257080078125">
        <ele>542.79998779296875</ele>
        <time>2016-08-12T22:54:30.000Z</time>
        <extensions>
          <ns3:TrackPointExtension>
            <ns3:atemp>21.0</ns3:atemp>
            <ns3:hr>129</ns3:hr>
          </ns3:TrackPointExtension>
        </extensions>
      </trkpt>
      <trkpt lat="-22.10579766891896724700927734375" lon="166.45207517780363559722900390625">
        <ele>542.79998779296875</ele>
        <time>2016-08-12T22:54:31.000Z</time>
        <extensions>
          <ns3:TrackPointExtension>
            <ns3:atemp>21.0</ns3:atemp>
            <ns3:hr>129</ns3:hr>
          </ns3:TrackPointExtension>
        </extensions>
      </trkpt>
      <trkpt lat="-22.10581175051629543304443359375" lon="166.45209252834320068359375">
        <ele>542.5999755859375</ele>
        <time>2016-08-12T22:54:32.000Z</time>
        <extensions>
          <ns3:TrackPointExtension>
            <ns3:atemp>21.0</ns3:atemp>
            <ns3:hr>129</ns3:hr>
          </ns3:TrackPointExtension>
        </extensions>
      </trkpt>
      <trkpt lat="-22.10582884959876537322998046875" lon="166.452110968530178070068359375">
        <ele>542.4000244140625</ele>
        <time>2016-08-12T22:54:33.000Z</time>
        <extensions>
          <ns3:TrackPointExtension>
            <ns3:atemp>21.0</ns3:atemp>
            <ns3:hr>128</ns3:hr>
          </ns3:TrackPointExtension>
        </extensions>
      </trkpt>
      <trkpt lat="-22.1058502234518527984619140625" lon="166.45212513394653797149658203125">
        <ele>542.20001220703125</ele>
        <time>2016-08-12T22:54:34.000Z</time>
        <extensions>
          <ns3:TrackPointExtension>
            <ns3:atemp>21.0</ns3:atemp>
            <ns3:hr>129</ns3:hr>
          </ns3:TrackPointExtension>
        </extensions>
      </trkpt>
      <trkpt lat="-22.1058763749897480010986328125" lon="166.4521356113255023956298828125">
        <ele>541.79998779296875</ele>
        <time>2016-08-12T22:54:35.000Z</time>
        <extensions>
          <ns3:TrackPointExtension>
            <ns3:atemp>21.0</ns3:atemp>
            <ns3:hr>128</ns3:hr>
          </ns3:TrackPointExtension>
        </extensions>
      </trkpt>
      <trkpt lat="-22.10589959286153316497802734375" lon="166.452144496142864227294921875">
        <ele>541.5999755859375</ele>
        <time>2016-08-12T22:54:36.000Z</time>
        <extensions>
          <ns3:TrackPointExtension>
            <ns3:atemp>21.0</ns3:atemp>
            <ns3:hr>128</ns3:hr>
          </ns3:TrackPointExtension>
        </extensions>
      </trkpt>
      <trkpt lat="-22.105922140181064605712890625" lon="166.45215413533151149749755859375">
        <ele>541.20001220703125</ele>
        <time>2016-08-12T22:54:37.000Z</time>
        <extensions>
          <ns3:TrackPointExtension>
            <ns3:atemp>21.0</ns3:atemp>
            <ns3:hr>128</ns3:hr>
          </ns3:TrackPointExtension>
        </extensions>
      </trkpt>
      <trkpt lat="-22.10594569332897663116455078125" lon="166.45216687582433223724365234375">
        <ele>540.79998779296875</ele>
        <time>2016-08-12T22:54:38.000Z</time>
        <extensions>
          <ns3:TrackPointExtension>
            <ns3:atemp>21.0</ns3:atemp>
            <ns3:hr>128</ns3:hr>
          </ns3:TrackPointExtension>
        </extensions>
      </trkpt>
      <trkpt lat="-22.10597218014299869537353515625" lon="166.4521832205355167388916015625">
        <ele>540.5999755859375</ele>
        <time>2016-08-12T22:54:39.000Z</time>
        <extensions>
          <ns3:TrackPointExtension>
            <ns3:atemp>21.0</ns3:atemp>
            <ns3:hr>128</ns3:hr>
          </ns3:TrackPointExtension>
        </extensions>
      </trkpt>
      <trkpt lat="-22.1059970743954181671142578125" lon="166.452201493084430694580078125">
        <ele>540.20001220703125</ele>
        <time>2016-08-12T22:54:40.000Z</time>
        <extensions>
          <ns3:TrackPointExtension>
            <ns3:atemp>21.0</ns3:atemp>
            <ns3:hr>129</ns3:hr>
          </ns3:TrackPointExtension>
        </extensions>
      </trkpt>
      <trkpt lat="-22.10602180100977420806884765625" lon="166.4522237889468669891357421875">
        <ele>540</ele>
        <time>2016-08-12T22:54:41.000Z</time>
        <extensions>
          <ns3:TrackPointExtension>
            <ns3:atemp>21.0</ns3:atemp>
            <ns3:hr>129</ns3:hr>
          </ns3:TrackPointExtension>
        </extensions>
      </trkpt>
      <trkpt lat="-22.10604527033865451812744140625" lon="166.45225203596055507659912109375">
        <ele>539.79998779296875</ele>
        <time>2016-08-12T22:54:42.000Z</time>
        <extensions>
          <ns3:TrackPointExtension>
            <ns3:atemp>21.0</ns3:atemp>
            <ns3:hr>129</ns3:hr>
          </ns3:TrackPointExtension>
        </extensions>
      </trkpt>
      <trkpt lat="-22.106062956154346466064453125" lon="166.45227148197591304779052734375">
        <ele>539.4000244140625</ele>
        <time>2016-08-12T22:54:43.000Z</time>
        <extensions>
          <ns3:TrackPointExtension>
            <ns3:atemp>21.0</ns3:atemp>
            <ns3:hr>128</ns3:hr>
          </ns3:TrackPointExtension>
        </extensions>
      </trkpt>
      <trkpt lat="-22.10608072578907012939453125" lon="166.45229302346706390380859375">
        <ele>539</ele>
        <time>2016-08-12T22:54:44.000Z</time>
        <extensions>
          <ns3:TrackPointExtension>
            <ns3:atemp>21.0</ns3:atemp>
            <ns3:hr>128</ns3:hr>
          </ns3:TrackPointExtension>
        </extensions>
      </trkpt>
      <trkpt lat="-22.10609723813831806182861328125" lon="166.4523129723966121673583984375">
        <ele>538.4000244140625</ele>
        <time>2016-08-12T22:54:45.000Z</time>
        <extensions>
          <ns3:TrackPointExtension>
            <ns3:atemp>21.0</ns3:atemp>
            <ns3:hr>128</ns3:hr>
          </ns3:TrackPointExtension>
        </extensions>
      </trkpt>
      <trkpt lat="-22.10611919872462749481201171875" lon="166.45233954302966594696044921875">
        <ele>538</ele>
        <time>2016-08-12T22:54:46.000Z</time>
        <extensions>
          <ns3:TrackPointExtension>
            <ns3:atemp>21.0</ns3:atemp>
            <ns3:hr>128</ns3:hr>
          </ns3:TrackPointExtension>
        </extensions>
      </trkpt>
      <trkpt lat="-22.1061377227306365966796875" lon="166.45236267708241939544677734375">
        <ele>537.79998779296875</ele>
        <time>2016-08-12T22:54:47.000Z</time>
        <extensions>
          <ns3:TrackPointExtension>
            <ns3:atemp>21.0</ns3:atemp>
            <ns3:hr>128</ns3:hr>
          </ns3:TrackPointExtension>
        </extensions>
      </trkpt>
      <trkpt lat="-22.10615004412829875946044921875" lon="166.45238430239260196685791015625">
        <ele>537.4000244140625</ele>
        <time>2016-08-12T22:54:48.000Z</time>
        <extensions>
          <ns3:TrackPointExtension>
            <ns3:atemp>21.0</ns3:atemp>
            <ns3:hr>128</ns3:hr>
          </ns3:TrackPointExtension>
        </extensions>
      </trkpt>
      <trkpt lat="-22.106158845126628875732421875" lon="166.45240425132215023040771484375">
        <ele>537</ele>
        <time>2016-08-12T22:54:49.000Z</time>
        <extensions>
          <ns3:TrackPointExtension>
            <ns3:atemp>21.0</ns3:atemp>
            <ns3:hr>128</ns3:hr>
          </ns3:TrackPointExtension>
        </extensions>
      </trkpt>
      <trkpt lat="-22.10616814903914928436279296875" lon="166.452428139746189117431640625">
        <ele>536.5999755859375</ele>
        <time>2016-08-12T22:54:50.000Z</time>
        <extensions>
          <ns3:TrackPointExtension>
            <ns3:atemp>21.0</ns3:atemp>
            <ns3:hr>128</ns3:hr>
          </ns3:TrackPointExtension>
        </extensions>
      </trkpt>
      <trkpt lat="-22.106178291141986846923828125" lon="166.452449597418308258056640625">
        <ele>536.20001220703125</ele>
        <time>2016-08-12T22:54:51.000Z</time>
        <extensions>
          <ns3:TrackPointExtension>
            <ns3:atemp>21.0</ns3:atemp>
            <ns3:hr>128</ns3:hr>
          </ns3:TrackPointExtension>
        </extensions>
      </trkpt>
      <trkpt lat="-22.10619195364415645599365234375" lon="166.45247482694685459136962890625">
        <ele>535.79998779296875</ele>
        <time>2016-08-12T22:54:52.000Z</time>
        <extensions>
          <ns3:TrackPointExtension>
            <ns3:atemp>21.0</ns3:atemp>
            <ns3:hr>128</ns3:hr>
          </ns3:TrackPointExtension>
        </extensions>
      </trkpt>
      <trkpt lat="-22.1062036044895648956298828125" lon="166.45249678753316402435302734375">
        <ele>535.79998779296875</ele>
        <time>2016-08-12T22:54:53.000Z</time>
        <extensions>
          <ns3:TrackPointExtension>
            <ns3:atemp>21.0</ns3:atemp>
            <ns3:hr>128</ns3:hr>
          </ns3:TrackPointExtension>
        </extensions>
      </trkpt>
      <trkpt lat="-22.10621492005884647369384765625" lon="166.4525205083191394805908203125">
        <ele>535.4000244140625</ele>
        <time>2016-08-12T22:54:54.000Z</time>
        <extensions>
          <ns3:TrackPointExtension>
            <ns3:atemp>21.0</ns3:atemp>
            <ns3:hr>127</ns3:hr>
          </ns3:TrackPointExtension>
        </extensions>
      </trkpt>
      <trkpt lat="-22.10622514598071575164794921875" lon="166.45254305563867092132568359375">
        <ele>535</ele>
        <time>2016-08-12T22:54:55.000Z</time>
        <extensions>
          <ns3:TrackPointExtension>
            <ns3:atemp>21.0</ns3:atemp>
            <ns3:hr>127</ns3:hr>
          </ns3:TrackPointExtension>
        </extensions>
      </trkpt>
      <trkpt lat="-22.1062347851693630218505859375" lon="166.45256317220628261566162109375">
        <ele>534.4000244140625</ele>
        <time>2016-08-12T22:54:56.000Z</time>
        <extensions>
          <ns3:TrackPointExtension>
            <ns3:atemp>21.0</ns3:atemp>
            <ns3:hr>127</ns3:hr>
          </ns3:TrackPointExtension>
        </extensions>
      </trkpt>
      <trkpt lat="-22.10624559782445430755615234375" lon="166.45258605480194091796875">
        <ele>533.5999755859375</ele>
        <time>2016-08-12T22:54:57.000Z</time>
        <extensions>
          <ns3:TrackPointExtension>
            <ns3:atemp>21.0</ns3:atemp>
            <ns3:hr>127</ns3:hr>
          </ns3:TrackPointExtension>
        </extensions>
      </trkpt>
      <trkpt lat="-22.10625641047954559326171875" lon="166.452611871063709259033203125">
        <ele>533.20001220703125</ele>
        <time>2016-08-12T22:54:58.000Z</time>
        <extensions>
          <ns3:TrackPointExtension>
            <ns3:atemp>21.0</ns3:atemp>
            <ns3:hr>127</ns3:hr>
          </ns3:TrackPointExtension>
        </extensions>
      </trkpt>
      <trkpt lat="-22.10626336745917797088623046875" lon="166.45263626240193843841552734375">
        <ele>533.20001220703125</ele>
        <time>2016-08-12T22:54:59.000Z</time>
        <extensions>
          <ns3:TrackPointExtension>
            <ns3:atemp>21.0</ns3:atemp>
            <ns3:hr>127</ns3:hr>
          </ns3:TrackPointExtension>
        </extensions>
      </trkpt>
      <trkpt lat="-22.106273174285888671875" lon="166.45266107283532619476318359375">
        <ele>533</ele>
        <time>2016-08-12T22:55:00.000Z</time>
        <extensions>
          <ns3:TrackPointExtension>
            <ns3:atemp>21.0</ns3:atemp>
            <ns3:hr>127</ns3:hr>
          </ns3:TrackPointExtension>
        </extensions>
      </trkpt>
      <trkpt lat="-22.10628331638872623443603515625" lon="166.4526841230690479278564453125">
        <ele>532.79998779296875</ele>
        <time>2016-08-12T22:55:01.000Z</time>
        <extensions>
          <ns3:TrackPointExtension>
            <ns3:atemp>21.0</ns3:atemp>
            <ns3:hr>127</ns3:hr>
          </ns3:TrackPointExtension>
        </extensions>
      </trkpt>
      <trkpt lat="-22.10629136301577091217041015625" lon="166.45270784385502338409423828125">
        <ele>533</ele>
        <time>2016-08-12T22:55:02.000Z</time>
        <extensions>
          <ns3:TrackPointExtension>
            <ns3:atemp>21.0</ns3:atemp>
            <ns3:hr>127</ns3:hr>
          </ns3:TrackPointExtension>
        </extensions>
      </trkpt>
      <trkpt lat="-22.106297314167022705078125" lon="166.4527327381074428558349609375">
        <ele>532.79998779296875</ele>
        <time>2016-08-12T22:55:03.000Z</time>
        <extensions>
          <ns3:TrackPointExtension>
            <ns3:atemp>21.0</ns3:atemp>
            <ns3:hr>127</ns3:hr>
          </ns3:TrackPointExtension>
        </extensions>
      </trkpt>
      <trkpt lat="-22.10630259476602077484130859375" lon="166.4527558721601963043212890625">
        <ele>532</ele>
        <time>2016-08-12T22:55:04.000Z</time>
        <extensions>
          <ns3:TrackPointExtension>
            <ns3:atemp>21.0</ns3:atemp>
            <ns3:hr>127</ns3:hr>
          </ns3:TrackPointExtension>
        </extensions>
      </trkpt>
      <trkpt lat="-22.10630645044147968292236328125" lon="166.4527820236980915069580078125">
        <ele>531.4000244140625</ele>
        <time>2016-08-12T22:55:05.000Z</time>
        <extensions>
          <ns3:TrackPointExtension>
            <ns3:atemp>21.0</ns3:atemp>
            <ns3:hr>127</ns3:hr>
          </ns3:TrackPointExtension>
        </extensions>
      </trkpt>
      <trkpt lat="-22.1063088811933994293212890625" lon="166.45280758850276470184326171875">
        <ele>531.20001220703125</ele>
        <time>2016-08-12T22:55:06.000Z</time>
        <extensions>
          <ns3:TrackPointExtension>
            <ns3:atemp>22.0</ns3:atemp>
            <ns3:hr>126</ns3:hr>
          </ns3:TrackPointExtension>
        </extensions>
      </trkpt>
      <trkpt lat="-22.10631030611693859100341796875" lon="166.45283340476453304290771484375">
        <ele>530.5999755859375</ele>
        <time>2016-08-12T22:55:07.000Z</time>
        <extensions>
          <ns3:TrackPointExtension>
            <ns3:atemp>22.0</ns3:atemp>
            <ns3:hr>126</ns3:hr>
          </ns3:TrackPointExtension>
        </extensions>
      </trkpt>
      <trkpt lat="-22.1063129045069217681884765625" lon="166.4528655074536800384521484375">
        <ele>530.4000244140625</ele>
        <time>2016-08-12T22:55:08.000Z</time>
        <extensions>
          <ns3:TrackPointExtension>
            <ns3:atemp>22.0</ns3:atemp>
            <ns3:hr>126</ns3:hr>
          </ns3:TrackPointExtension>
        </extensions>
      </trkpt>
      <trkpt lat="-22.10631567053496837615966796875" lon="166.45289643667638301849365234375">
        <ele>530.4000244140625</ele>
        <time>2016-08-12T22:55:09.000Z</time>
        <extensions>
          <ns3:TrackPointExtension>
            <ns3:atemp>22.0</ns3:atemp>
            <ns3:hr>125</ns3:hr>
          </ns3:TrackPointExtension>
        </extensions>
      </trkpt>
      <trkpt lat="-22.10631902329623699188232421875" lon="166.45292493514716625213623046875">
        <ele>530</ele>
        <time>2016-08-12T22:55:10.000Z</time>
        <extensions>
          <ns3:TrackPointExtension>
            <ns3:atemp>22.0</ns3:atemp>
            <ns3:hr>125</ns3:hr>
          </ns3:TrackPointExtension>
        </extensions>
      </trkpt>
      <trkpt lat="-22.10632723756134510040283203125" lon="166.4529553614556789398193359375">
        <ele>529.79998779296875</ele>
        <time>2016-08-12T22:55:11.000Z</time>
        <extensions>
          <ns3:TrackPointExtension>
            <ns3:atemp>22.0</ns3:atemp>
            <ns3:hr>125</ns3:hr>
          </ns3:TrackPointExtension>
        </extensions>
      </trkpt>
      <trkpt lat="-22.10633645765483379364013671875" lon="166.4529852010309696197509765625">
        <ele>529.5999755859375</ele>
        <time>2016-08-12T22:55:12.000Z</time>
        <extensions>
          <ns3:TrackPointExtension>
            <ns3:atemp>22.0</ns3:atemp>
            <ns3:hr>125</ns3:hr>
          </ns3:TrackPointExtension>
        </extensions>
      </trkpt>
      <trkpt lat="-22.1063424088060855865478515625" lon="166.45301613025367259979248046875">
        <ele>529.4000244140625</ele>
        <time>2016-08-12T22:55:13.000Z</time>
        <extensions>
          <ns3:TrackPointExtension>
            <ns3:atemp>22.0</ns3:atemp>
            <ns3:hr>125</ns3:hr>
          </ns3:TrackPointExtension>
        </extensions>
      </trkpt>
      <trkpt lat="-22.10634567774832248687744140625" lon="166.453049071133136749267578125">
        <ele>528.79998779296875</ele>
        <time>2016-08-12T22:55:14.000Z</time>
        <extensions>
          <ns3:TrackPointExtension>
            <ns3:atemp>22.0</ns3:atemp>
            <ns3:hr>125</ns3:hr>
          </ns3:TrackPointExtension>
        </extensions>
      </trkpt>
      <trkpt lat="-22.10634919814765453338623046875" lon="166.45307446829974651336669921875">
        <ele>528.5999755859375</ele>
        <time>2016-08-12T22:55:15.000Z</time>
        <extensions>
          <ns3:TrackPointExtension>
            <ns3:atemp>22.0</ns3:atemp>
            <ns3:hr>125</ns3:hr>
          </ns3:TrackPointExtension>
        </extensions>
      </trkpt>
      <trkpt lat="-22.10635489784181118011474609375" lon="166.45310631953179836273193359375">
        <ele>528.5999755859375</ele>
        <time>2016-08-12T22:55:16.000Z</time>
        <extensions>
          <ns3:TrackPointExtension>
            <ns3:atemp>22.0</ns3:atemp>
            <ns3:hr>124</ns3:hr>
          </ns3:TrackPointExtension>
        </extensions>
      </trkpt>
      <trkpt lat="-22.10636076517403125762939453125" lon="166.45314051769673824310302734375">
        <ele>528.20001220703125</ele>
        <time>2016-08-12T22:55:17.000Z</time>
        <extensions>
          <ns3:TrackPointExtension>
            <ns3:atemp>22.0</ns3:atemp>
            <ns3:hr>124</ns3:hr>
          </ns3:TrackPointExtension>
        </extensions>
      </trkpt>
      <trkpt lat="-22.10636160336434841156005859375" lon="166.45317119546234607696533203125">
        <ele>527.5999755859375</ele>
        <time>2016-08-12T22:55:18.000Z</time>
        <extensions>
          <ns3:TrackPointExtension>
            <ns3:atemp>22.0</ns3:atemp>
            <ns3:hr>125</ns3:hr>
          </ns3:TrackPointExtension>
        </extensions>
      </trkpt>
      <trkpt lat="-22.10635925643146038055419921875" lon="166.453199945390224456787109375">
        <ele>527.4000244140625</ele>
        <time>2016-08-12T22:55:19.000Z</time>
        <extensions>
          <ns3:TrackPointExtension>
            <ns3:atemp>22.0</ns3:atemp>
            <ns3:hr>125</ns3:hr>
          </ns3:TrackPointExtension>
        </extensions>
      </trkpt>
      <trkpt lat="-22.10635623894631862640380859375" lon="166.45322483964264392852783203125">
        <ele>527</ele>
        <time>2016-08-12T22:55:20.000Z</time>
        <extensions>
          <ns3:TrackPointExtension>
            <ns3:atemp>22.0</ns3:atemp>
            <ns3:hr>125</ns3:hr>
          </ns3:TrackPointExtension>
        </extensions>
      </trkpt>
      <trkpt lat="-22.10635104216635227203369140625" lon="166.453245542943477630615234375">
        <ele>526.79998779296875</ele>
        <time>2016-08-12T22:55:21.000Z</time>
        <extensions>
          <ns3:TrackPointExtension>
            <ns3:atemp>22.0</ns3:atemp>
            <ns3:hr>125</ns3:hr>
          </ns3:TrackPointExtension>
        </extensions>
      </trkpt>
      <trkpt lat="-22.106347940862178802490234375" lon="166.4532758854329586029052734375">
        <ele>526.20001220703125</ele>
        <time>2016-08-12T22:55:22.000Z</time>
        <extensions>
          <ns3:TrackPointExtension>
            <ns3:atemp>22.0</ns3:atemp>
            <ns3:hr>125</ns3:hr>
          </ns3:TrackPointExtension>
        </extensions>
      </trkpt>
      <trkpt lat="-22.10634869523346424102783203125" lon="166.45330782048404216766357421875">
        <ele>525.79998779296875</ele>
        <time>2016-08-12T22:55:23.000Z</time>
        <extensions>
          <ns3:TrackPointExtension>
            <ns3:atemp>22.0</ns3:atemp>
            <ns3:hr>126</ns3:hr>
          </ns3:TrackPointExtension>
        </extensions>
      </trkpt>
      <trkpt lat="-22.10634668357670307159423828125" lon="166.45333229564130306243896484375">
        <ele>525.4000244140625</ele>
        <time>2016-08-12T22:55:24.000Z</time>
        <extensions>
          <ns3:TrackPointExtension>
            <ns3:atemp>22.0</ns3:atemp>
            <ns3:hr>126</ns3:hr>
          </ns3:TrackPointExtension>
        </extensions>
      </trkpt>
      <trkpt lat="-22.10634634830057621002197265625" lon="166.45336297340691089630126953125">
        <ele>525.20001220703125</ele>
        <time>2016-08-12T22:55:25.000Z</time>
        <extensions>
          <ns3:TrackPointExtension>
            <ns3:atemp>22.0</ns3:atemp>
            <ns3:hr>126</ns3:hr>
          </ns3:TrackPointExtension>
        </extensions>
      </trkpt>
      <trkpt lat="-22.1063442528247833251953125" lon="166.45338828675448894500732421875">
        <ele>524.4000244140625</ele>
        <time>2016-08-12T22:55:26.000Z</time>
        <extensions>
          <ns3:TrackPointExtension>
            <ns3:atemp>22.0</ns3:atemp>
            <ns3:hr>126</ns3:hr>
          </ns3:TrackPointExtension>
        </extensions>
      </trkpt>
      <trkpt lat="-22.10634349845349788665771484375" lon="166.45341276191174983978271484375">
        <ele>523.5999755859375</ele>
        <time>2016-08-12T22:55:27.000Z</time>
        <extensions>
          <ns3:TrackPointExtension>
            <ns3:atemp>22.0</ns3:atemp>
            <ns3:hr>126</ns3:hr>
          </ns3:TrackPointExtension>
        </extensions>
      </trkpt>
      <trkpt lat="-22.106343246996402740478515625" lon="166.45344008691608905792236328125">
        <ele>523.20001220703125</ele>
        <time>2016-08-12T22:55:28.000Z</time>
        <extensions>
          <ns3:TrackPointExtension>
            <ns3:atemp>22.0</ns3:atemp>
            <ns3:hr>126</ns3:hr>
          </ns3:TrackPointExtension>
        </extensions>
      </trkpt>
      <trkpt lat="-22.1063491143286228179931640625" lon="166.45345869474112987518310546875">
        <ele>522.79998779296875</ele>
        <time>2016-08-12T22:55:29.000Z</time>
        <extensions>
          <ns3:TrackPointExtension>
            <ns3:atemp>22.0</ns3:atemp>
            <ns3:hr>126</ns3:hr>
          </ns3:TrackPointExtension>
        </extensions>
      </trkpt>
      <trkpt lat="-22.10635674186050891876220703125" lon="166.45347814075648784637451171875">
        <ele>522.4000244140625</ele>
        <time>2016-08-12T22:55:30.000Z</time>
        <extensions>
          <ns3:TrackPointExtension>
            <ns3:atemp>22.0</ns3:atemp>
            <ns3:hr>126</ns3:hr>
          </ns3:TrackPointExtension>
        </extensions>
      </trkpt>
      <trkpt lat="-22.1063571609556674957275390625" lon="166.4535092376172542572021484375">
        <ele>522.20001220703125</ele>
        <time>2016-08-12T22:55:31.000Z</time>
        <extensions>
          <ns3:TrackPointExtension>
            <ns3:atemp>22.0</ns3:atemp>
            <ns3:hr>126</ns3:hr>
          </ns3:TrackPointExtension>
        </extensions>
      </trkpt>
      <trkpt lat="-22.106357328593730926513671875" lon="166.45353664644062519073486328125">
        <ele>522</ele>
        <time>2016-08-12T22:55:32.000Z</time>
        <extensions>
          <ns3:TrackPointExtension>
            <ns3:atemp>22.0</ns3:atemp>
            <ns3:hr>126</ns3:hr>
          </ns3:TrackPointExtension>
        </extensions>
      </trkpt>
      <trkpt lat="-22.10635833442211151123046875" lon="166.45356413908302783966064453125">
        <ele>521.4000244140625</ele>
        <time>2016-08-12T22:55:33.000Z</time>
        <extensions>
          <ns3:TrackPointExtension>
            <ns3:atemp>22.0</ns3:atemp>
            <ns3:hr>126</ns3:hr>
          </ns3:TrackPointExtension>
        </extensions>
      </trkpt>
      <trkpt lat="-22.106362022459506988525390625" lon="166.453596241772174835205078125">
        <ele>521.20001220703125</ele>
        <time>2016-08-12T22:55:34.000Z</time>
        <extensions>
          <ns3:TrackPointExtension>
            <ns3:atemp>22.0</ns3:atemp>
            <ns3:hr>126</ns3:hr>
          </ns3:TrackPointExtension>
        </extensions>
      </trkpt>
      <trkpt lat="-22.10636294446885585784912109375" lon="166.4536202140152454376220703125">
        <ele>520.79998779296875</ele>
        <time>2016-08-12T22:55:35.000Z</time>
        <extensions>
          <ns3:TrackPointExtension>
            <ns3:atemp>22.0</ns3:atemp>
            <ns3:hr>126</ns3:hr>
          </ns3:TrackPointExtension>
        </extensions>
      </trkpt>
      <trkpt lat="-22.10636277683079242706298828125" lon="166.4536470361053943634033203125">
        <ele>520.20001220703125</ele>
        <time>2016-08-12T22:55:36.000Z</time>
        <extensions>
          <ns3:TrackPointExtension>
            <ns3:atemp>22.0</ns3:atemp>
            <ns3:hr>126</ns3:hr>
          </ns3:TrackPointExtension>
        </extensions>
      </trkpt>
      <trkpt lat="-22.1063697338104248046875" lon="166.45367846824228763580322265625">
        <ele>519.79998779296875</ele>
        <time>2016-08-12T22:55:37.000Z</time>
        <extensions>
          <ns3:TrackPointExtension>
            <ns3:atemp>22.0</ns3:atemp>
            <ns3:hr>127</ns3:hr>
          </ns3:TrackPointExtension>
        </extensions>
      </trkpt>
      <trkpt lat="-22.1063749305903911590576171875" lon="166.4537040330469608306884765625">
        <ele>519.5999755859375</ele>
        <time>2016-08-12T22:55:38.000Z</time>
        <extensions>
          <ns3:TrackPointExtension>
            <ns3:atemp>22.0</ns3:atemp>
            <ns3:hr>126</ns3:hr>
          </ns3:TrackPointExtension>
        </extensions>
      </trkpt>
      <trkpt lat="-22.106377445161342620849609375" lon="166.45373077131807804107666015625">
        <ele>519.4000244140625</ele>
        <time>2016-08-12T22:55:39.000Z</time>
        <extensions>
          <ns3:TrackPointExtension>
            <ns3:atemp>22.0</ns3:atemp>
            <ns3:hr>127</ns3:hr>
          </ns3:TrackPointExtension>
        </extensions>
      </trkpt>
      <trkpt lat="-22.10638088174164295196533203125" lon="166.45375549793243408203125">
        <ele>519</ele>
        <time>2016-08-12T22:55:40.000Z</time>
        <extensions>
          <ns3:TrackPointExtension>
            <ns3:atemp>22.0</ns3:atemp>
            <ns3:hr>127</ns3:hr>
          </ns3:TrackPointExtension>
        </extensions>
      </trkpt>
      <trkpt lat="-22.1063833124935626983642578125" lon="166.453784666955471038818359375">
        <ele>518.4000244140625</ele>
        <time>2016-08-12T22:55:41.000Z</time>
        <extensions>
          <ns3:TrackPointExtension>
            <ns3:atemp>22.0</ns3:atemp>
            <ns3:hr>126</ns3:hr>
          </ns3:TrackPointExtension>
        </extensions>
      </trkpt>
      <trkpt lat="-22.1063866652548313140869140625" lon="166.453817188739776611328125">
        <ele>517.79998779296875</ele>
        <time>2016-08-12T22:55:42.000Z</time>
        <extensions>
          <ns3:TrackPointExtension>
            <ns3:atemp>22.0</ns3:atemp>
            <ns3:hr>127</ns3:hr>
          </ns3:TrackPointExtension>
        </extensions>
      </trkpt>
      <trkpt lat="-22.10638892836868762969970703125" lon="166.45384870469570159912109375">
        <ele>517.4000244140625</ele>
        <time>2016-08-12T22:55:43.000Z</time>
        <extensions>
          <ns3:TrackPointExtension>
            <ns3:atemp>22.0</ns3:atemp>
            <ns3:hr>126</ns3:hr>
          </ns3:TrackPointExtension>
        </extensions>
      </trkpt>
      <trkpt lat="-22.10638758726418018341064453125" lon="166.45387552678585052490234375">
        <ele>517.20001220703125</ele>
        <time>2016-08-12T22:55:44.000Z</time>
        <extensions>
          <ns3:TrackPointExtension>
            <ns3:atemp>22.0</ns3:atemp>
            <ns3:hr>127</ns3:hr>
          </ns3:TrackPointExtension>
        </extensions>
      </trkpt>
      <trkpt lat="-22.10638306103646755218505859375" lon="166.45390477962791919708251953125">
        <ele>516.79998779296875</ele>
        <time>2016-08-12T22:55:45.000Z</time>
        <extensions>
          <ns3:TrackPointExtension>
            <ns3:atemp>22.0</ns3:atemp>
            <ns3:hr>127</ns3:hr>
          </ns3:TrackPointExtension>
        </extensions>
      </trkpt>
      <trkpt lat="-22.10637719370424747467041015625" lon="166.45392858423292636871337890625">
        <ele>516.4000244140625</ele>
        <time>2016-08-12T22:55:46.000Z</time>
        <extensions>
          <ns3:TrackPointExtension>
            <ns3:atemp>22.0</ns3:atemp>
            <ns3:hr>127</ns3:hr>
          </ns3:TrackPointExtension>
        </extensions>
      </trkpt>
      <trkpt lat="-22.10636747069656848907470703125" lon="166.45395490340888500213623046875">
        <ele>516</ele>
        <time>2016-08-12T22:55:47.000Z</time>
        <extensions>
          <ns3:TrackPointExtension>
            <ns3:atemp>22.0</ns3:atemp>
            <ns3:hr>127</ns3:hr>
          </ns3:TrackPointExtension>
        </extensions>
      </trkpt>
      <trkpt lat="-22.10635699331760406494140625" lon="166.45398021675646305084228515625">
        <ele>516</ele>
        <time>2016-08-12T22:55:48.000Z</time>
        <extensions>
          <ns3:TrackPointExtension>
            <ns3:atemp>22.0</ns3:atemp>
            <ns3:hr>126</ns3:hr>
          </ns3:TrackPointExtension>
        </extensions>
      </trkpt>
      <trkpt lat="-22.10634953342378139495849609375" lon="166.45400695502758026123046875">
        <ele>515.4000244140625</ele>
        <time>2016-08-12T22:55:49.000Z</time>
        <extensions>
          <ns3:TrackPointExtension>
            <ns3:atemp>22.0</ns3:atemp>
            <ns3:hr>126</ns3:hr>
          </ns3:TrackPointExtension>
        </extensions>
      </trkpt>
      <trkpt lat="-22.1063415706157684326171875" lon="166.454036794602870941162109375">
        <ele>514.79998779296875</ele>
        <time>2016-08-12T22:55:50.000Z</time>
        <extensions>
          <ns3:TrackPointExtension>
            <ns3:atemp>22.0</ns3:atemp>
            <ns3:hr>126</ns3:hr>
          </ns3:TrackPointExtension>
        </extensions>
      </trkpt>
      <trkpt lat="-22.10633209906518459320068359375" lon="166.45406085066497325897216796875">
        <ele>514.5999755859375</ele>
        <time>2016-08-12T22:55:51.000Z</time>
        <extensions>
          <ns3:TrackPointExtension>
            <ns3:atemp>22.0</ns3:atemp>
            <ns3:hr>126</ns3:hr>
          </ns3:TrackPointExtension>
        </extensions>
      </trkpt>
      <trkpt lat="-22.1063179336488246917724609375" lon="166.4540855772793292999267578125">
        <ele>514.4000244140625</ele>
        <time>2016-08-12T22:55:52.000Z</time>
        <extensions>
          <ns3:TrackPointExtension>
            <ns3:atemp>22.0</ns3:atemp>
            <ns3:hr>126</ns3:hr>
          </ns3:TrackPointExtension>
        </extensions>
      </trkpt>
      <trkpt lat="-22.1063013374805450439453125" lon="166.4541087113320827484130859375">
        <ele>513.5999755859375</ele>
        <time>2016-08-12T22:55:53.000Z</time>
        <extensions>
          <ns3:TrackPointExtension>
            <ns3:atemp>22.0</ns3:atemp>
            <ns3:hr>127</ns3:hr>
          </ns3:TrackPointExtension>
        </extensions>
      </trkpt>
      <trkpt lat="-22.106285579502582550048828125" lon="166.45413075573742389678955078125">
        <ele>513.4000244140625</ele>
        <time>2016-08-12T22:55:54.000Z</time>
        <extensions>
          <ns3:TrackPointExtension>
            <ns3:atemp>22.0</ns3:atemp>
            <ns3:hr>126</ns3:hr>
          </ns3:TrackPointExtension>
        </extensions>
      </trkpt>
      <trkpt lat="-22.1062649600207805633544921875" lon="166.4541511237621307373046875">
        <ele>513</ele>
        <time>2016-08-12T22:55:55.000Z</time>
        <extensions>
          <ns3:TrackPointExtension>
            <ns3:atemp>22.0</ns3:atemp>
            <ns3:hr>127</ns3:hr>
          </ns3:TrackPointExtension>
        </extensions>
      </trkpt>
      <trkpt lat="-22.10624593310058116912841796875" lon="166.4541730843484401702880859375">
        <ele>512.5999755859375</ele>
        <time>2016-08-12T22:55:56.000Z</time>
        <extensions>
          <ns3:TrackPointExtension>
            <ns3:atemp>22.0</ns3:atemp>
            <ns3:hr>127</ns3:hr>
          </ns3:TrackPointExtension>
        </extensions>
      </trkpt>
      <trkpt lat="-22.10623227059841156005859375" lon="166.454195044934749603271484375">
        <ele>512</ele>
        <time>2016-08-12T22:55:57.000Z</time>
        <extensions>
          <ns3:TrackPointExtension>
            <ns3:atemp>22.0</ns3:atemp>
            <ns3:hr>127</ns3:hr>
          </ns3:TrackPointExtension>
        </extensions>
      </trkpt>
      <trkpt lat="-22.10622154176235198974609375" lon="166.4542183466255664825439453125">
        <ele>512</ele>
        <time>2016-08-12T22:55:58.000Z</time>
        <extensions>
          <ns3:TrackPointExtension>
            <ns3:atemp>22.0</ns3:atemp>
            <ns3:hr>127</ns3:hr>
          </ns3:TrackPointExtension>
        </extensions>
      </trkpt>
      <trkpt lat="-22.10620989091694355010986328125" lon="166.454239971935749053955078125">
        <ele>511.600006103515625</ele>
        <time>2016-08-12T22:55:59.000Z</time>
        <extensions>
          <ns3:TrackPointExtension>
            <ns3:atemp>22.0</ns3:atemp>
            <ns3:hr>127</ns3:hr>
          </ns3:TrackPointExtension>
        </extensions>
      </trkpt>
      <trkpt lat="-22.1061972342431545257568359375" lon="166.45426386035978794097900390625">
        <ele>511</ele>
        <time>2016-08-12T22:56:00.000Z</time>
        <extensions>
          <ns3:TrackPointExtension>
            <ns3:atemp>22.0</ns3:atemp>
            <ns3:hr>127</ns3:hr>
          </ns3:TrackPointExtension>
        </extensions>
      </trkpt>
      <trkpt lat="-22.1061886847019195556640625" lon="166.4542894251644611358642578125">
        <ele>510.600006103515625</ele>
        <time>2016-08-12T22:56:01.000Z</time>
        <extensions>
          <ns3:TrackPointExtension>
            <ns3:atemp>22.0</ns3:atemp>
            <ns3:hr>128</ns3:hr>
          </ns3:TrackPointExtension>
        </extensions>
      </trkpt>
      <trkpt lat="-22.1061791293323040008544921875" lon="166.45431406795978546142578125">
        <ele>510.399993896484375</ele>
        <time>2016-08-12T22:56:02.000Z</time>
        <extensions>
          <ns3:TrackPointExtension>
            <ns3:atemp>23.0</ns3:atemp>
            <ns3:hr>128</ns3:hr>
          </ns3:TrackPointExtension>
        </extensions>
      </trkpt>
      <trkpt lat="-22.1061699092388153076171875" lon="166.45434030331671237945556640625">
        <ele>509.79998779296875</ele>
        <time>2016-08-12T22:56:03.000Z</time>
        <extensions>
          <ns3:TrackPointExtension>
            <ns3:atemp>23.0</ns3:atemp>
            <ns3:hr>128</ns3:hr>
          </ns3:TrackPointExtension>
        </extensions>
      </trkpt>
      <trkpt lat="-22.10616043768823146820068359375" lon="166.4543665386736392974853515625">
        <ele>509.600006103515625</ele>
        <time>2016-08-12T22:56:04.000Z</time>
        <extensions>
          <ns3:TrackPointExtension>
            <ns3:atemp>23.0</ns3:atemp>
            <ns3:hr>128</ns3:hr>
          </ns3:TrackPointExtension>
        </extensions>
      </trkpt>
      <trkpt lat="-22.10615306161344051361083984375" lon="166.45439160056412220001220703125">
        <ele>509.20001220703125</ele>
        <time>2016-08-12T22:56:05.000Z</time>
        <extensions>
          <ns3:TrackPointExtension>
            <ns3:atemp>23.0</ns3:atemp>
            <ns3:hr>129</ns3:hr>
          </ns3:TrackPointExtension>
        </extensions>
      </trkpt>
      <trkpt lat="-22.10614467971026897430419921875" lon="166.454417668282985687255859375">
        <ele>509</ele>
        <time>2016-08-12T22:56:06.000Z</time>
        <extensions>
          <ns3:TrackPointExtension>
            <ns3:atemp>23.0</ns3:atemp>
            <ns3:hr>129</ns3:hr>
          </ns3:TrackPointExtension>
        </extensions>
      </trkpt>
      <trkpt lat="-22.10613378323614597320556640625" lon="166.45444214344024658203125">
        <ele>508.600006103515625</ele>
        <time>2016-08-12T22:56:07.000Z</time>
        <extensions>
          <ns3:TrackPointExtension>
            <ns3:atemp>23.0</ns3:atemp>
            <ns3:hr>129</ns3:hr>
          </ns3:TrackPointExtension>
        </extensions>
      </trkpt>
      <trkpt lat="-22.10612406022846698760986328125" lon="166.45446670241653919219970703125">
        <ele>508.20001220703125</ele>
        <time>2016-08-12T22:56:08.000Z</time>
        <extensions>
          <ns3:TrackPointExtension>
            <ns3:atemp>23.0</ns3:atemp>
            <ns3:hr>129</ns3:hr>
          </ns3:TrackPointExtension>
        </extensions>
      </trkpt>
      <trkpt lat="-22.106114588677883148193359375" lon="166.4544946141541004180908203125">
        <ele>507.79998779296875</ele>
        <time>2016-08-12T22:56:09.000Z</time>
        <extensions>
          <ns3:TrackPointExtension>
            <ns3:atemp>23.0</ns3:atemp>
            <ns3:hr>129</ns3:hr>
          </ns3:TrackPointExtension>
        </extensions>
      </trkpt>
      <trkpt lat="-22.10610226728022098541259765625" lon="166.454520262777805328369140625">
        <ele>507.399993896484375</ele>
        <time>2016-08-12T22:56:10.000Z</time>
        <extensions>
          <ns3:TrackPointExtension>
            <ns3:atemp>23.0</ns3:atemp>
            <ns3:hr>129</ns3:hr>
          </ns3:TrackPointExtension>
        </extensions>
      </trkpt>
      <trkpt lat="-22.1060921251773834228515625" lon="166.4545449055731296539306640625">
        <ele>507.20001220703125</ele>
        <time>2016-08-12T22:56:11.000Z</time>
        <extensions>
          <ns3:TrackPointExtension>
            <ns3:atemp>23.0</ns3:atemp>
            <ns3:hr>129</ns3:hr>
          </ns3:TrackPointExtension>
        </extensions>
      </trkpt>
      <trkpt lat="-22.10607804358005523681640625" lon="166.45457021892070770263671875">
        <ele>507.20001220703125</ele>
        <time>2016-08-12T22:56:12.000Z</time>
        <extensions>
          <ns3:TrackPointExtension>
            <ns3:atemp>23.0</ns3:atemp>
            <ns3:hr>129</ns3:hr>
          </ns3:TrackPointExtension>
        </extensions>
      </trkpt>
      <trkpt lat="-22.1060654707252979278564453125" lon="166.45459645427763462066650390625">
        <ele>507</ele>
        <time>2016-08-12T22:56:13.000Z</time>
        <extensions>
          <ns3:TrackPointExtension>
            <ns3:atemp>23.0</ns3:atemp>
            <ns3:hr>129</ns3:hr>
          </ns3:TrackPointExtension>
        </extensions>
      </trkpt>
      <trkpt lat="-22.106056250631809234619140625" lon="166.45462579093873500823974609375">
        <ele>506.79998779296875</ele>
        <time>2016-08-12T22:56:14.000Z</time>
        <extensions>
          <ns3:TrackPointExtension>
            <ns3:atemp>23.0</ns3:atemp>
            <ns3:hr>129</ns3:hr>
          </ns3:TrackPointExtension>
        </extensions>
      </trkpt>
      <trkpt lat="-22.10604962892830371856689453125" lon="166.4546553790569305419921875">
        <ele>506.399993896484375</ele>
        <time>2016-08-12T22:56:15.000Z</time>
        <extensions>
          <ns3:TrackPointExtension>
            <ns3:atemp>23.0</ns3:atemp>
            <ns3:hr>129</ns3:hr>
          </ns3:TrackPointExtension>
        </extensions>
      </trkpt>
      <trkpt lat="-22.106045521795749664306640625" lon="166.4546843804419040679931640625">
        <ele>506</ele>
        <time>2016-08-12T22:56:16.000Z</time>
        <extensions>
          <ns3:TrackPointExtension>
            <ns3:atemp>23.0</ns3:atemp>
            <ns3:hr>129</ns3:hr>
          </ns3:TrackPointExtension>
        </extensions>
      </trkpt>
      <trkpt lat="-22.10604661144316196441650390625" lon="166.45471547730267047882080078125">
        <ele>505.600006103515625</ele>
        <time>2016-08-12T22:56:17.000Z</time>
        <extensions>
          <ns3:TrackPointExtension>
            <ns3:atemp>23.0</ns3:atemp>
            <ns3:hr>129</ns3:hr>
          </ns3:TrackPointExtension>
        </extensions>
      </trkpt>
      <trkpt lat="-22.10604962892830371856689453125" lon="166.45474724471569061279296875">
        <ele>505.399993896484375</ele>
        <time>2016-08-12T22:56:18.000Z</time>
        <extensions>
          <ns3:TrackPointExtension>
            <ns3:atemp>23.0</ns3:atemp>
            <ns3:hr>129</ns3:hr>
          </ns3:TrackPointExtension>
        </extensions>
      </trkpt>
      <trkpt lat="-22.106054909527301788330078125" lon="166.45477817393839359283447265625">
        <ele>505.20001220703125</ele>
        <time>2016-08-12T22:56:19.000Z</time>
        <extensions>
          <ns3:TrackPointExtension>
            <ns3:atemp>23.0</ns3:atemp>
            <ns3:hr>129</ns3:hr>
          </ns3:TrackPointExtension>
        </extensions>
      </trkpt>
      <trkpt lat="-22.10605985485017299652099609375" lon="166.45480759441852569580078125">
        <ele>505</ele>
        <time>2016-08-12T22:56:20.000Z</time>
        <extensions>
          <ns3:TrackPointExtension>
            <ns3:atemp>23.0</ns3:atemp>
            <ns3:hr>129</ns3:hr>
          </ns3:TrackPointExtension>
        </extensions>
      </trkpt>
      <trkpt lat="-22.10606597363948822021484375" lon="166.45483818836510181427001953125">
        <ele>504.79998779296875</ele>
        <time>2016-08-12T22:56:21.000Z</time>
        <extensions>
          <ns3:TrackPointExtension>
            <ns3:atemp>23.0</ns3:atemp>
            <ns3:hr>130</ns3:hr>
          </ns3:TrackPointExtension>
        </extensions>
      </trkpt>
      <trkpt lat="-22.10607293061912059783935546875" lon="166.454867608845233917236328125">
        <ele>504.399993896484375</ele>
        <time>2016-08-12T22:56:22.000Z</time>
        <extensions>
          <ns3:TrackPointExtension>
            <ns3:atemp>23.0</ns3:atemp>
            <ns3:hr>130</ns3:hr>
          </ns3:TrackPointExtension>
        </extensions>
      </trkpt>
      <trkpt lat="-22.10608181543648242950439453125" lon="166.45489619113504886627197265625">
        <ele>504.20001220703125</ele>
        <time>2016-08-12T22:56:23.000Z</time>
        <extensions>
          <ns3:TrackPointExtension>
            <ns3:atemp>23.0</ns3:atemp>
            <ns3:hr>130</ns3:hr>
          </ns3:TrackPointExtension>
        </extensions>
      </trkpt>
      <trkpt lat="-22.10609220899641513824462890625" lon="166.4549207501113414764404296875">
        <ele>504</ele>
        <time>2016-08-12T22:56:24.000Z</time>
        <extensions>
          <ns3:TrackPointExtension>
            <ns3:atemp>23.0</ns3:atemp>
            <ns3:hr>130</ns3:hr>
          </ns3:TrackPointExtension>
        </extensions>
      </trkpt>
      <trkpt lat="-22.10610562004148960113525390625" lon="166.45494572818279266357421875">
        <ele>503.600006103515625</ele>
        <time>2016-08-12T22:56:25.000Z</time>
        <extensions>
          <ns3:TrackPointExtension>
            <ns3:atemp>23.0</ns3:atemp>
            <ns3:hr>129</ns3:hr>
          </ns3:TrackPointExtension>
        </extensions>
      </trkpt>
      <trkpt lat="-22.106114923954010009765625" lon="166.45497196353971958160400390625">
        <ele>503.600006103515625</ele>
        <time>2016-08-12T22:56:26.000Z</time>
        <extensions>
          <ns3:TrackPointExtension>
            <ns3:atemp>23.0</ns3:atemp>
            <ns3:hr>129</ns3:hr>
          </ns3:TrackPointExtension>
        </extensions>
      </trkpt>
      <trkpt lat="-22.1061207912862300872802734375" lon="166.454997360706329345703125">
        <ele>503.600006103515625</ele>
        <time>2016-08-12T22:56:27.000Z</time>
        <extensions>
          <ns3:TrackPointExtension>
            <ns3:atemp>23.0</ns3:atemp>
            <ns3:hr>129</ns3:hr>
          </ns3:TrackPointExtension>
        </extensions>
      </trkpt>
      <trkpt lat="-22.10612766444683074951171875" lon="166.4550226740539073944091796875">
        <ele>503.399993896484375</ele>
        <time>2016-08-12T22:56:28.000Z</time>
        <extensions>
          <ns3:TrackPointExtension>
            <ns3:atemp>23.0</ns3:atemp>
            <ns3:hr>129</ns3:hr>
          </ns3:TrackPointExtension>
        </extensions>
      </trkpt>
      <trkpt lat="-22.10613512434065341949462890625" lon="166.45505025051534175872802734375">
        <ele>503.20001220703125</ele>
        <time>2016-08-12T22:56:29.000Z</time>
        <extensions>
          <ns3:TrackPointExtension>
            <ns3:atemp>23.0</ns3:atemp>
            <ns3:hr>129</ns3:hr>
          </ns3:TrackPointExtension>
        </extensions>
      </trkpt>
      <trkpt lat="-22.1061422489583492279052734375" lon="166.45507715642452239990234375">
        <ele>503.20001220703125</ele>
        <time>2016-08-12T22:56:30.000Z</time>
        <extensions>
          <ns3:TrackPointExtension>
            <ns3:atemp>23.0</ns3:atemp>
            <ns3:hr>129</ns3:hr>
          </ns3:TrackPointExtension>
        </extensions>
      </trkpt>
      <trkpt lat="-22.10614870302379131317138671875" lon="166.45510439760982990264892578125">
        <ele>503</ele>
        <time>2016-08-12T22:56:31.000Z</time>
        <extensions>
          <ns3:TrackPointExtension>
            <ns3:atemp>23.0</ns3:atemp>
            <ns3:hr>129</ns3:hr>
          </ns3:TrackPointExtension>
        </extensions>
      </trkpt>
      <trkpt lat="-22.10615272633731365203857421875" lon="166.45513222552835941314697265625">
        <ele>502.600006103515625</ele>
        <time>2016-08-12T22:56:32.000Z</time>
        <extensions>
          <ns3:TrackPointExtension>
            <ns3:atemp>23.0</ns3:atemp>
            <ns3:hr>129</ns3:hr>
          </ns3:TrackPointExtension>
        </extensions>
      </trkpt>
      <trkpt lat="-22.1061539836227893829345703125" lon="166.4551591314375400543212890625">
        <ele>502.399993896484375</ele>
        <time>2016-08-12T22:56:33.000Z</time>
        <extensions>
          <ns3:TrackPointExtension>
            <ns3:atemp>23.0</ns3:atemp>
            <ns3:hr>129</ns3:hr>
          </ns3:TrackPointExtension>
        </extensions>
      </trkpt>
      <trkpt lat="-22.1061610244214534759521484375" lon="166.45518771372735500335693359375">
        <ele>502.399993896484375</ele>
        <time>2016-08-12T22:56:34.000Z</time>
        <extensions>
          <ns3:TrackPointExtension>
            <ns3:atemp>23.0</ns3:atemp>
            <ns3:hr>128</ns3:hr>
          </ns3:TrackPointExtension>
        </extensions>
      </trkpt>
      <trkpt lat="-22.10616898722946643829345703125" lon="166.45521302707493305206298828125">
        <ele>502.20001220703125</ele>
        <time>2016-08-12T22:56:35.000Z</time>
        <extensions>
          <ns3:TrackPointExtension>
            <ns3:atemp>23.0</ns3:atemp>
            <ns3:hr>128</ns3:hr>
          </ns3:TrackPointExtension>
        </extensions>
      </trkpt>
      <trkpt lat="-22.10617770440876483917236328125" lon="166.45523649640381336212158203125">
        <ele>502</ele>
        <time>2016-08-12T22:56:36.000Z</time>
        <extensions>
          <ns3:TrackPointExtension>
            <ns3:atemp>23.0</ns3:atemp>
            <ns3:hr>128</ns3:hr>
          </ns3:TrackPointExtension>
        </extensions>
      </trkpt>
      <trkpt lat="-22.10618927143514156341552734375" lon="166.455263905227184295654296875">
        <ele>501.79998779296875</ele>
        <time>2016-08-12T22:56:37.000Z</time>
        <extensions>
          <ns3:TrackPointExtension>
            <ns3:atemp>23.0</ns3:atemp>
            <ns3:hr>128</ns3:hr>
          </ns3:TrackPointExtension>
        </extensions>
      </trkpt>
      <trkpt lat="-22.1062020957469940185546875" lon="166.4552925713360309600830078125">
        <ele>501.79998779296875</ele>
        <time>2016-08-12T22:56:38.000Z</time>
        <extensions>
          <ns3:TrackPointExtension>
            <ns3:atemp>23.0</ns3:atemp>
            <ns3:hr>128</ns3:hr>
          </ns3:TrackPointExtension>
        </extensions>
      </trkpt>
      <trkpt lat="-22.10621617734432220458984375" lon="166.45531863905489444732666015625">
        <ele>501.600006103515625</ele>
        <time>2016-08-12T22:56:39.000Z</time>
        <extensions>
          <ns3:TrackPointExtension>
            <ns3:atemp>23.0</ns3:atemp>
            <ns3:hr>128</ns3:hr>
          </ns3:TrackPointExtension>
        </extensions>
      </trkpt>
      <trkpt lat="-22.106229253113269805908203125" lon="166.45534361712634563446044921875">
        <ele>501.399993896484375</ele>
        <time>2016-08-12T22:56:40.000Z</time>
        <extensions>
          <ns3:TrackPointExtension>
            <ns3:atemp>23.0</ns3:atemp>
            <ns3:hr>127</ns3:hr>
          </ns3:TrackPointExtension>
        </extensions>
      </trkpt>
      <trkpt lat="-22.10624207742512226104736328125" lon="166.45536758936941623687744140625">
        <ele>501.399993896484375</ele>
        <time>2016-08-12T22:56:41.000Z</time>
        <extensions>
          <ns3:TrackPointExtension>
            <ns3:atemp>23.0</ns3:atemp>
            <ns3:hr>128</ns3:hr>
          </ns3:TrackPointExtension>
        </extensions>
      </trkpt>
      <trkpt lat="-22.10630737245082855224609375" lon="166.45558333955705165863037109375">
        <ele>499.399993896484375</ele>
        <time>2016-08-12T22:56:49.000Z</time>
        <extensions>
          <ns3:TrackPointExtension>
            <ns3:atemp>23.0</ns3:atemp>
          </ns3:TrackPointExtension>
        </extensions>
      </trkpt>
      <trkpt lat="-22.10629262030124664306640625" lon="166.45569129846990108489990234375">
        <ele>497.79998779296875</ele>
        <time>2016-08-12T22:56:53.000Z</time>
        <extensions>
          <ns3:TrackPointExtension>
            <ns3:atemp>23.0</ns3:atemp>
          </ns3:TrackPointExtension>
        </extensions>
      </trkpt>
      <trkpt lat="-22.10630737245082855224609375" lon="166.4558907039463520050048828125">
        <ele>498.399993896484375</ele>
        <time>2016-08-12T22:57:01.000Z</time>
        <extensions>
          <ns3:TrackPointExtension>
            <ns3:atemp>23.0</ns3:atemp>
            <ns3:hr>128</ns3:hr>
          </ns3:TrackPointExtension>
        </extensions>
      </trkpt>
      <trkpt lat="-22.106305696070194244384765625" lon="166.45591509528458118438720703125">
        <ele>498.20001220703125</ele>
        <time>2016-08-12T22:57:02.000Z</time>
        <extensions>
          <ns3:TrackPointExtension>
            <ns3:atemp>23.0</ns3:atemp>
            <ns3:hr>128</ns3:hr>
          </ns3:TrackPointExtension>
        </extensions>
      </trkpt>
      <trkpt lat="-22.10629924200475215911865234375" lon="166.45594074390828609466552734375">
        <ele>498</ele>
        <time>2016-08-12T22:57:03.000Z</time>
        <extensions>
          <ns3:TrackPointExtension>
            <ns3:atemp>23.0</ns3:atemp>
            <ns3:hr>128</ns3:hr>
          </ns3:TrackPointExtension>
        </extensions>
      </trkpt>
      <trkpt lat="-22.10629052482545375823974609375" lon="166.45596270449459552764892578125">
        <ele>498</ele>
        <time>2016-08-12T22:57:04.000Z</time>
        <extensions>
          <ns3:TrackPointExtension>
            <ns3:atemp>23.0</ns3:atemp>
            <ns3:hr>128</ns3:hr>
          </ns3:TrackPointExtension>
        </extensions>
      </trkpt>
      <trkpt lat="-22.10628532804548740386962890625" lon="166.45598634146153926849365234375">
        <ele>498</ele>
        <time>2016-08-12T22:57:05.000Z</time>
        <extensions>
          <ns3:TrackPointExtension>
            <ns3:atemp>23.0</ns3:atemp>
            <ns3:hr>128</ns3:hr>
          </ns3:TrackPointExtension>
        </extensions>
      </trkpt>
      <trkpt lat="-22.1062839031219482421875" lon="166.456014253199100494384765625">
        <ele>497.79998779296875</ele>
        <time>2016-08-12T22:57:06.000Z</time>
        <extensions>
          <ns3:TrackPointExtension>
            <ns3:atemp>23.0</ns3:atemp>
            <ns3:hr>127</ns3:hr>
          </ns3:TrackPointExtension>
        </extensions>
      </trkpt>
      <trkpt lat="-22.1062839031219482421875" lon="166.45604333840310573577880859375">
        <ele>497.399993896484375</ele>
        <time>2016-08-12T22:57:07.000Z</time>
        <extensions>
          <ns3:TrackPointExtension>
            <ns3:atemp>23.0</ns3:atemp>
            <ns3:hr>127</ns3:hr>
          </ns3:TrackPointExtension>
        </extensions>
      </trkpt>
      <trkpt lat="-22.1062800474464893341064453125" lon="166.45607250742614269256591796875">
        <ele>497.399993896484375</ele>
        <time>2016-08-12T22:57:08.000Z</time>
        <extensions>
          <ns3:TrackPointExtension>
            <ns3:atemp>23.0</ns3:atemp>
            <ns3:hr>127</ns3:hr>
          </ns3:TrackPointExtension>
        </extensions>
      </trkpt>
      <trkpt lat="-22.10627376101911067962646484375" lon="166.456100754439830780029296875">
        <ele>497.20001220703125</ele>
        <time>2016-08-12T22:57:09.000Z</time>
        <extensions>
          <ns3:TrackPointExtension>
            <ns3:atemp>23.0</ns3:atemp>
            <ns3:hr>127</ns3:hr>
          </ns3:TrackPointExtension>
        </extensions>
      </trkpt>
      <trkpt lat="-22.10627007298171520233154296875" lon="166.456127576529979705810546875">
        <ele>497</ele>
        <time>2016-08-12T22:57:10.000Z</time>
        <extensions>
          <ns3:TrackPointExtension>
            <ns3:atemp>23.0</ns3:atemp>
            <ns3:hr>127</ns3:hr>
          </ns3:TrackPointExtension>
        </extensions>
      </trkpt>
      <trkpt lat="-22.10627007298171520233154296875" lon="166.4561552368104457855224609375">
        <ele>497</ele>
        <time>2016-08-12T22:57:11.000Z</time>
        <extensions>
          <ns3:TrackPointExtension>
            <ns3:atemp>23.0</ns3:atemp>
            <ns3:hr>128</ns3:hr>
          </ns3:TrackPointExtension>
        </extensions>
      </trkpt>
      <trkpt lat="-22.10627392865717411041259765625" lon="166.45618583075702190399169921875">
        <ele>496.79998779296875</ele>
        <time>2016-08-12T22:57:12.000Z</time>
        <extensions>
          <ns3:TrackPointExtension>
            <ns3:atemp>23.0</ns3:atemp>
            <ns3:hr>128</ns3:hr>
          </ns3:TrackPointExtension>
        </extensions>
      </trkpt>
      <trkpt lat="-22.10627912543714046478271484375" lon="166.45621315576136112213134765625">
        <ele>496.399993896484375</ele>
        <time>2016-08-12T22:57:13.000Z</time>
        <extensions>
          <ns3:TrackPointExtension>
            <ns3:atemp>23.0</ns3:atemp>
            <ns3:hr>128</ns3:hr>
          </ns3:TrackPointExtension>
        </extensions>
      </trkpt>
      <trkpt lat="-22.1062854118645191192626953125" lon="166.4562400616705417633056640625">
        <ele>496.20001220703125</ele>
        <time>2016-08-12T22:57:14.000Z</time>
        <extensions>
          <ns3:TrackPointExtension>
            <ns3:atemp>23.0</ns3:atemp>
            <ns3:hr>128</ns3:hr>
          </ns3:TrackPointExtension>
        </extensions>
      </trkpt>
      <trkpt lat="-22.1062887646257877349853515625" lon="166.456267051398754119873046875">
        <ele>496.20001220703125</ele>
        <time>2016-08-12T22:57:15.000Z</time>
        <extensions>
          <ns3:TrackPointExtension>
            <ns3:atemp>23.0</ns3:atemp>
            <ns3:hr>127</ns3:hr>
          </ns3:TrackPointExtension>
        </extensions>
      </trkpt>
      <trkpt lat="-22.10628935135900974273681640625" lon="166.4562943764030933380126953125">
        <ele>496.20001220703125</ele>
        <time>2016-08-12T22:57:16.000Z</time>
        <extensions>
          <ns3:TrackPointExtension>
            <ns3:atemp>23.0</ns3:atemp>
            <ns3:hr>127</ns3:hr>
          </ns3:TrackPointExtension>
        </extensions>
      </trkpt>
      <trkpt lat="-22.1062924526631832122802734375" lon="166.45632262341678142547607421875">
        <ele>496</ele>
        <time>2016-08-12T22:57:17.000Z</time>
        <extensions>
          <ns3:TrackPointExtension>
            <ns3:atemp>23.0</ns3:atemp>
            <ns3:hr>128</ns3:hr>
          </ns3:TrackPointExtension>
        </extensions>
      </trkpt>
      <trkpt lat="-22.106294296681880950927734375" lon="166.45635028369724750518798828125">
        <ele>495.79998779296875</ele>
        <time>2016-08-12T22:57:18.000Z</time>
        <extensions>
          <ns3:TrackPointExtension>
            <ns3:atemp>23.0</ns3:atemp>
            <ns3:hr>128</ns3:hr>
          </ns3:TrackPointExtension>
        </extensions>
      </trkpt>
      <trkpt lat="-22.1062954701483249664306640625" lon="166.45637643523514270782470703125">
        <ele>495.399993896484375</ele>
        <time>2016-08-12T22:57:19.000Z</time>
        <extensions>
          <ns3:TrackPointExtension>
            <ns3:atemp>23.0</ns3:atemp>
            <ns3:hr>128</ns3:hr>
          </ns3:TrackPointExtension>
        </extensions>
      </trkpt>
      <trkpt lat="-22.10629421286284923553466796875" lon="166.45640292204916477203369140625">
        <ele>495.20001220703125</ele>
        <time>2016-08-12T22:57:20.000Z</time>
        <extensions>
          <ns3:TrackPointExtension>
            <ns3:atemp>23.0</ns3:atemp>
            <ns3:hr>127</ns3:hr>
          </ns3:TrackPointExtension>
        </extensions>
      </trkpt>
      <trkpt lat="-22.10629320703446865081787109375" lon="166.45643007941544055938720703125">
        <ele>495.20001220703125</ele>
        <time>2016-08-12T22:57:21.000Z</time>
        <extensions>
          <ns3:TrackPointExtension>
            <ns3:atemp>23.0</ns3:atemp>
            <ns3:hr>128</ns3:hr>
          </ns3:TrackPointExtension>
        </extensions>
      </trkpt>
      <trkpt lat="-22.10629555396735668182373046875" lon="166.4564566500484943389892578125">
        <ele>495.20001220703125</ele>
        <time>2016-08-12T22:57:22.000Z</time>
        <extensions>
          <ns3:TrackPointExtension>
            <ns3:atemp>23.0</ns3:atemp>
            <ns3:hr>127</ns3:hr>
          </ns3:TrackPointExtension>
        </extensions>
      </trkpt>
      <trkpt lat="-22.106299661099910736083984375" lon="166.4564844779670238494873046875">
        <ele>495.20001220703125</ele>
        <time>2016-08-12T22:57:23.000Z</time>
        <extensions>
          <ns3:TrackPointExtension>
            <ns3:atemp>23.0</ns3:atemp>
            <ns3:hr>127</ns3:hr>
          </ns3:TrackPointExtension>
        </extensions>
      </trkpt>
      <trkpt lat="-22.1063053607940673828125" lon="166.45651289261877536773681640625">
        <ele>495.20001220703125</ele>
        <time>2016-08-12T22:57:24.000Z</time>
        <extensions>
          <ns3:TrackPointExtension>
            <ns3:atemp>23.0</ns3:atemp>
            <ns3:hr>127</ns3:hr>
          </ns3:TrackPointExtension>
        </extensions>
      </trkpt>
      <trkpt lat="-22.1063092164695262908935546875" lon="166.45653937943279743194580078125">
        <ele>495</ele>
        <time>2016-08-12T22:57:25.000Z</time>
        <extensions>
          <ns3:TrackPointExtension>
            <ns3:atemp>23.0</ns3:atemp>
            <ns3:hr>127</ns3:hr>
          </ns3:TrackPointExtension>
        </extensions>
      </trkpt>
      <trkpt lat="-22.106315754354000091552734375" lon="166.45656117238104343414306640625">
        <ele>495</ele>
        <time>2016-08-12T22:57:26.000Z</time>
        <extensions>
          <ns3:TrackPointExtension>
            <ns3:atemp>23.0</ns3:atemp>
            <ns3:hr>127</ns3:hr>
          </ns3:TrackPointExtension>
        </extensions>
      </trkpt>
      <trkpt lat="-22.1063186042010784149169921875" lon="166.45658648572862148284912109375">
        <ele>495.20001220703125</ele>
        <time>2016-08-12T22:57:27.000Z</time>
        <extensions>
          <ns3:TrackPointExtension>
            <ns3:atemp>23.0</ns3:atemp>
            <ns3:hr>128</ns3:hr>
          </ns3:TrackPointExtension>
        </extensions>
      </trkpt>
      <trkpt lat="-22.10632254369556903839111328125" lon="166.45661381073296070098876953125">
        <ele>495.20001220703125</ele>
        <time>2016-08-12T22:57:28.000Z</time>
        <extensions>
          <ns3:TrackPointExtension>
            <ns3:atemp>23.0</ns3:atemp>
            <ns3:hr>128</ns3:hr>
          </ns3:TrackPointExtension>
        </extensions>
      </trkpt>
      <trkpt lat="-22.10632790811359882354736328125" lon="166.4566417224705219268798828125">
        <ele>494.79998779296875</ele>
        <time>2016-08-12T22:57:29.000Z</time>
        <extensions>
          <ns3:TrackPointExtension>
            <ns3:atemp>23.0</ns3:atemp>
            <ns3:hr>127</ns3:hr>
          </ns3:TrackPointExtension>
        </extensions>
      </trkpt>
      <trkpt lat="-22.1063320152461528778076171875" lon="166.4566682092845439910888671875">
        <ele>494.79998779296875</ele>
        <time>2016-08-12T22:57:30.000Z</time>
        <extensions>
          <ns3:TrackPointExtension>
            <ns3:atemp>23.0</ns3:atemp>
            <ns3:hr>128</ns3:hr>
          </ns3:TrackPointExtension>
        </extensions>
      </trkpt>
      <trkpt lat="-22.106334529817104339599609375" lon="166.4566936902701854705810546875">
        <ele>494.600006103515625</ele>
        <time>2016-08-12T22:57:31.000Z</time>
        <extensions>
          <ns3:TrackPointExtension>
            <ns3:atemp>23.0</ns3:atemp>
            <ns3:hr>128</ns3:hr>
          </ns3:TrackPointExtension>
        </extensions>
      </trkpt>
      <trkpt lat="-22.10633779875934123992919921875" lon="166.45672109909355640411376953125">
        <ele>494.600006103515625</ele>
        <time>2016-08-12T22:57:32.000Z</time>
        <extensions>
          <ns3:TrackPointExtension>
            <ns3:atemp>23.0</ns3:atemp>
            <ns3:hr>127</ns3:hr>
          </ns3:TrackPointExtension>
        </extensions>
      </trkpt>
      <trkpt lat="-22.1063414029777050018310546875" lon="166.45675043575465679168701171875">
        <ele>494.600006103515625</ele>
        <time>2016-08-12T22:57:33.000Z</time>
        <extensions>
          <ns3:TrackPointExtension>
            <ns3:atemp>23.0</ns3:atemp>
            <ns3:hr>128</ns3:hr>
          </ns3:TrackPointExtension>
        </extensions>
      </trkpt>
      <trkpt lat="-22.1063494496047496795654296875" lon="166.45677994005382061004638671875">
        <ele>494.399993896484375</ele>
        <time>2016-08-12T22:57:34.000Z</time>
        <extensions>
          <ns3:TrackPointExtension>
            <ns3:atemp>23.0</ns3:atemp>
            <ns3:hr>127</ns3:hr>
          </ns3:TrackPointExtension>
        </extensions>
      </trkpt>
      <trkpt lat="-22.1063588373363018035888671875" lon="166.4568073488771915435791015625">
        <ele>494.20001220703125</ele>
        <time>2016-08-12T22:57:35.000Z</time>
        <extensions>
          <ns3:TrackPointExtension>
            <ns3:atemp>23.0</ns3:atemp>
            <ns3:hr>128</ns3:hr>
          </ns3:TrackPointExtension>
        </extensions>
      </trkpt>
      <trkpt lat="-22.10636914707720279693603515625" lon="166.45683257840573787689208984375">
        <ele>494</ele>
        <time>2016-08-12T22:57:36.000Z</time>
        <extensions>
          <ns3:TrackPointExtension>
            <ns3:atemp>23.0</ns3:atemp>
            <ns3:hr>128</ns3:hr>
          </ns3:TrackPointExtension>
        </extensions>
      </trkpt>
      <trkpt lat="-22.1063839830458164215087890625" lon="166.45685655064880847930908203125">
        <ele>493.79998779296875</ele>
        <time>2016-08-12T22:57:37.000Z</time>
        <extensions>
          <ns3:TrackPointExtension>
            <ns3:atemp>23.0</ns3:atemp>
            <ns3:hr>128</ns3:hr>
          </ns3:TrackPointExtension>
        </extensions>
      </trkpt>
      <trkpt lat="-22.10639663971960544586181640625" lon="166.4568816125392913818359375">
        <ele>493.79998779296875</ele>
        <time>2016-08-12T22:57:38.000Z</time>
        <extensions>
          <ns3:TrackPointExtension>
            <ns3:atemp>23.0</ns3:atemp>
            <ns3:hr>128</ns3:hr>
          </ns3:TrackPointExtension>
        </extensions>
      </trkpt>
      <trkpt lat="-22.1064104698598384857177734375" lon="166.45690768025815486907958984375">
        <ele>493.600006103515625</ele>
        <time>2016-08-12T22:57:39.000Z</time>
        <extensions>
          <ns3:TrackPointExtension>
            <ns3:atemp>23.0</ns3:atemp>
            <ns3:hr>127</ns3:hr>
          </ns3:TrackPointExtension>
        </extensions>
      </trkpt>
      <trkpt lat="-22.10643217898905277252197265625" lon="166.4569325745105743408203125">
        <ele>493.399993896484375</ele>
        <time>2016-08-12T22:57:40.000Z</time>
        <extensions>
          <ns3:TrackPointExtension>
            <ns3:atemp>23.0</ns3:atemp>
            <ns3:hr>127</ns3:hr>
          </ns3:TrackPointExtension>
        </extensions>
      </trkpt>
      <trkpt lat="-22.1064513735473155975341796875" lon="166.4569567143917083740234375">
        <ele>493.20001220703125</ele>
        <time>2016-08-12T22:57:41.000Z</time>
        <extensions>
          <ns3:TrackPointExtension>
            <ns3:atemp>23.0</ns3:atemp>
            <ns3:hr>127</ns3:hr>
          </ns3:TrackPointExtension>
        </extensions>
      </trkpt>
      <trkpt lat="-22.10646838881075382232666015625" lon="166.45698018372058868408203125">
        <ele>493.20001220703125</ele>
        <time>2016-08-12T22:57:42.000Z</time>
        <extensions>
          <ns3:TrackPointExtension>
            <ns3:atemp>23.0</ns3:atemp>
            <ns3:hr>127</ns3:hr>
          </ns3:TrackPointExtension>
        </extensions>
      </trkpt>
      <trkpt lat="-22.106490433216094970703125" lon="166.4570014737546443939208984375">
        <ele>493.20001220703125</ele>
        <time>2016-08-12T22:57:43.000Z</time>
        <extensions>
          <ns3:TrackPointExtension>
            <ns3:atemp>23.0</ns3:atemp>
            <ns3:hr>127</ns3:hr>
          </ns3:TrackPointExtension>
        </extensions>
      </trkpt>
      <trkpt lat="-22.10650979541242122650146484375" lon="166.45702117122709751129150390625">
        <ele>493.399993896484375</ele>
        <time>2016-08-12T22:57:44.000Z</time>
        <extensions>
          <ns3:TrackPointExtension>
            <ns3:atemp>23.0</ns3:atemp>
            <ns3:hr>127</ns3:hr>
          </ns3:TrackPointExtension>
        </extensions>
      </trkpt>
      <trkpt lat="-22.10653058253228664398193359375" lon="166.45703919231891632080078125">
        <ele>493.20001220703125</ele>
        <time>2016-08-12T22:57:45.000Z</time>
        <extensions>
          <ns3:TrackPointExtension>
            <ns3:atemp>23.0</ns3:atemp>
            <ns3:hr>127</ns3:hr>
          </ns3:TrackPointExtension>
        </extensions>
      </trkpt>
      <trkpt lat="-22.10655053146183490753173828125" lon="166.45705888979136943817138671875">
        <ele>493</ele>
        <time>2016-08-12T22:57:46.000Z</time>
        <extensions>
          <ns3:TrackPointExtension>
            <ns3:atemp>23.0</ns3:atemp>
            <ns3:hr>127</ns3:hr>
          </ns3:TrackPointExtension>
        </extensions>
      </trkpt>
      <trkpt lat="-22.10656763054430484771728515625" lon="166.4570819400250911712646484375">
        <ele>493</ele>
        <time>2016-08-12T22:57:47.000Z</time>
        <extensions>
          <ns3:TrackPointExtension>
            <ns3:atemp>23.0</ns3:atemp>
            <ns3:hr>127</ns3:hr>
          </ns3:TrackPointExtension>
        </extensions>
      </trkpt>
      <trkpt lat="-22.10658363997936248779296875" lon="166.4571020565927028656005859375">
        <ele>492.79998779296875</ele>
        <time>2016-08-12T22:57:48.000Z</time>
        <extensions>
          <ns3:TrackPointExtension>
            <ns3:atemp>23.0</ns3:atemp>
            <ns3:hr>127</ns3:hr>
          </ns3:TrackPointExtension>
        </extensions>
      </trkpt>
      <trkpt lat="-22.10659897886216640472412109375" lon="166.45712443627417087554931640625">
        <ele>492.79998779296875</ele>
        <time>2016-08-12T22:57:49.000Z</time>
        <extensions>
          <ns3:TrackPointExtension>
            <ns3:atemp>23.0</ns3:atemp>
            <ns3:hr>127</ns3:hr>
          </ns3:TrackPointExtension>
        </extensions>
      </trkpt>
      <trkpt lat="-22.1066099591553211212158203125" lon="166.45714782178401947021484375">
        <ele>492.79998779296875</ele>
        <time>2016-08-12T22:57:50.000Z</time>
        <extensions>
          <ns3:TrackPointExtension>
            <ns3:atemp>23.0</ns3:atemp>
            <ns3:hr>127</ns3:hr>
          </ns3:TrackPointExtension>
        </extensions>
      </trkpt>
      <trkpt lat="-22.10662093944847583770751953125" lon="166.45717062056064605712890625">
        <ele>492.600006103515625</ele>
        <time>2016-08-12T22:57:51.000Z</time>
        <extensions>
          <ns3:TrackPointExtension>
            <ns3:atemp>23.0</ns3:atemp>
            <ns3:hr>127</ns3:hr>
          </ns3:TrackPointExtension>
        </extensions>
      </trkpt>
      <trkpt lat="-22.106636278331279754638671875" lon="166.45719534717500209808349609375">
        <ele>492.399993896484375</ele>
        <time>2016-08-12T22:57:52.000Z</time>
        <extensions>
          <ns3:TrackPointExtension>
            <ns3:atemp>23.0</ns3:atemp>
            <ns3:hr>127</ns3:hr>
          </ns3:TrackPointExtension>
        </extensions>
      </trkpt>
      <trkpt lat="-22.10665312595665454864501953125" lon="166.457215882837772369384765625">
        <ele>492.20001220703125</ele>
        <time>2016-08-12T22:57:53.000Z</time>
        <extensions>
          <ns3:TrackPointExtension>
            <ns3:atemp>23.0</ns3:atemp>
            <ns3:hr>127</ns3:hr>
          </ns3:TrackPointExtension>
        </extensions>
      </trkpt>
      <trkpt lat="-22.1066686324775218963623046875" lon="166.45723440684378147125244140625">
        <ele>492</ele>
        <time>2016-08-12T22:57:54.000Z</time>
        <extensions>
          <ns3:TrackPointExtension>
            <ns3:atemp>23.0</ns3:atemp>
            <ns3:hr>127</ns3:hr>
          </ns3:TrackPointExtension>
        </extensions>
      </trkpt>
      <trkpt lat="-22.1066907607018947601318359375" lon="166.4572505839169025421142578125">
        <ele>492</ele>
        <time>2016-08-12T22:57:55.000Z</time>
        <extensions>
          <ns3:TrackPointExtension>
            <ns3:atemp>23.0</ns3:atemp>
            <ns3:hr>127</ns3:hr>
          </ns3:TrackPointExtension>
        </extensions>
      </trkpt>
      <trkpt lat="-22.10671381093561649322509765625" lon="166.4572636596858501434326171875">
        <ele>492</ele>
        <time>2016-08-12T22:57:56.000Z</time>
        <extensions>
          <ns3:TrackPointExtension>
            <ns3:atemp>23.0</ns3:atemp>
            <ns3:hr>127</ns3:hr>
          </ns3:TrackPointExtension>
        </extensions>
      </trkpt>
      <trkpt lat="-22.106740213930606842041015625" lon="166.457270197570323944091796875">
        <ele>492</ele>
        <time>2016-08-12T22:57:57.000Z</time>
        <extensions>
          <ns3:TrackPointExtension>
            <ns3:atemp>23.0</ns3:atemp>
            <ns3:hr>128</ns3:hr>
          </ns3:TrackPointExtension>
        </extensions>
      </trkpt>
      <trkpt lat="-22.1067707240581512451171875" lon="166.45726776681840419769287109375">
        <ele>492</ele>
        <time>2016-08-12T22:57:58.000Z</time>
        <extensions>
          <ns3:TrackPointExtension>
            <ns3:atemp>23.0</ns3:atemp>
            <ns3:hr>128</ns3:hr>
          </ns3:TrackPointExtension>
        </extensions>
      </trkpt>
      <trkpt lat="-22.106796205043792724609375" lon="166.4572598040103912353515625">
        <ele>491.79998779296875</ele>
        <time>2016-08-12T22:57:59.000Z</time>
        <extensions>
          <ns3:TrackPointExtension>
            <ns3:atemp>23.0</ns3:atemp>
            <ns3:hr>128</ns3:hr>
          </ns3:TrackPointExtension>
        </extensions>
      </trkpt>
      <trkpt lat="-22.10682244040071964263916015625" lon="166.45725167356431484222412109375">
        <ele>491.79998779296875</ele>
        <time>2016-08-12T22:58:00.000Z</time>
        <extensions>
          <ns3:TrackPointExtension>
            <ns3:atemp>23.0</ns3:atemp>
            <ns3:hr>128</ns3:hr>
          </ns3:TrackPointExtension>
        </extensions>
      </trkpt>
      <trkpt lat="-22.10684607736766338348388671875" lon="166.45723490975797176361083984375">
        <ele>491.399993896484375</ele>
        <time>2016-08-12T22:58:01.000Z</time>
        <extensions>
          <ns3:TrackPointExtension>
            <ns3:atemp>23.0</ns3:atemp>
            <ns3:hr>128</ns3:hr>
          </ns3:TrackPointExtension>
        </extensions>
      </trkpt>
      <trkpt lat="-22.10686552338302135467529296875" lon="166.45721261389553546905517578125">
        <ele>491.399993896484375</ele>
        <time>2016-08-12T22:58:02.000Z</time>
        <extensions>
          <ns3:TrackPointExtension>
            <ns3:atemp>23.0</ns3:atemp>
            <ns3:hr>129</ns3:hr>
          </ns3:TrackPointExtension>
        </extensions>
      </trkpt>
      <trkpt lat="-22.1068806946277618408203125" lon="166.45718595944344997406005859375">
        <ele>491.20001220703125</ele>
        <time>2016-08-12T22:58:03.000Z</time>
        <extensions>
          <ns3:TrackPointExtension>
            <ns3:atemp>23.0</ns3:atemp>
            <ns3:hr>129</ns3:hr>
          </ns3:TrackPointExtension>
        </extensions>
      </trkpt>
      <trkpt lat="-22.10688983090221881866455078125" lon="166.4571583829820156097412109375">
        <ele>491.20001220703125</ele>
        <time>2016-08-12T22:58:04.000Z</time>
        <extensions>
          <ns3:TrackPointExtension>
            <ns3:atemp>23.0</ns3:atemp>
            <ns3:hr>129</ns3:hr>
          </ns3:TrackPointExtension>
        </extensions>
      </trkpt>
      <trkpt lat="-22.10689385421574115753173828125" lon="166.457130052149295806884765625">
        <ele>491</ele>
        <time>2016-08-12T22:58:05.000Z</time>
        <extensions>
          <ns3:TrackPointExtension>
            <ns3:atemp>23.0</ns3:atemp>
            <ns3:hr>129</ns3:hr>
          </ns3:TrackPointExtension>
        </extensions>
      </trkpt>
      <trkpt lat="-22.106896452605724334716796875" lon="166.4570976980030536651611328125">
        <ele>490.79998779296875</ele>
        <time>2016-08-12T22:58:06.000Z</time>
        <extensions>
          <ns3:TrackPointExtension>
            <ns3:atemp>23.0</ns3:atemp>
            <ns3:hr>129</ns3:hr>
          </ns3:TrackPointExtension>
        </extensions>
      </trkpt>
      <trkpt lat="-22.10689938627183437347412109375" lon="166.457068026065826416015625">
        <ele>490.600006103515625</ele>
        <time>2016-08-12T22:58:07.000Z</time>
        <extensions>
          <ns3:TrackPointExtension>
            <ns3:atemp>23.0</ns3:atemp>
            <ns3:hr>129</ns3:hr>
          </ns3:TrackPointExtension>
        </extensions>
      </trkpt>
      <trkpt lat="-22.1069048345088958740234375" lon="166.45704044960439205169677734375">
        <ele>490.600006103515625</ele>
        <time>2016-08-12T22:58:08.000Z</time>
        <extensions>
          <ns3:TrackPointExtension>
            <ns3:atemp>23.0</ns3:atemp>
            <ns3:hr>129</ns3:hr>
          </ns3:TrackPointExtension>
        </extensions>
      </trkpt>
      <trkpt lat="-22.10691028274595737457275390625" lon="166.457011364400386810302734375">
        <ele>490.600006103515625</ele>
        <time>2016-08-12T22:58:09.000Z</time>
        <extensions>
          <ns3:TrackPointExtension>
            <ns3:atemp>23.0</ns3:atemp>
            <ns3:hr>129</ns3:hr>
          </ns3:TrackPointExtension>
        </extensions>
      </trkpt>
      <trkpt lat="-22.106915898621082305908203125" lon="166.45698412321507930755615234375">
        <ele>490.79998779296875</ele>
        <time>2016-08-12T22:58:10.000Z</time>
        <extensions>
          <ns3:TrackPointExtension>
            <ns3:atemp>23.0</ns3:atemp>
            <ns3:hr>129</ns3:hr>
          </ns3:TrackPointExtension>
        </extensions>
      </trkpt>
      <trkpt lat="-22.10691363550722599029541015625" lon="166.45695243962109088897705078125">
        <ele>491</ele>
        <time>2016-08-12T22:58:11.000Z</time>
        <extensions>
          <ns3:TrackPointExtension>
            <ns3:atemp>23.0</ns3:atemp>
            <ns3:hr>129</ns3:hr>
          </ns3:TrackPointExtension>
        </extensions>
      </trkpt>
      <trkpt lat="-22.10692335851490497589111328125" lon="166.4569213427603244781494140625">
        <ele>491</ele>
        <time>2016-08-12T22:58:12.000Z</time>
        <extensions>
          <ns3:TrackPointExtension>
            <ns3:atemp>23.0</ns3:atemp>
            <ns3:hr>129</ns3:hr>
          </ns3:TrackPointExtension>
        </extensions>
      </trkpt>
      <trkpt lat="-22.1069321595132350921630859375" lon="166.45689167082309722900390625">
        <ele>491.20001220703125</ele>
        <time>2016-08-12T22:58:13.000Z</time>
        <extensions>
          <ns3:TrackPointExtension>
            <ns3:atemp>23.0</ns3:atemp>
            <ns3:hr>129</ns3:hr>
          </ns3:TrackPointExtension>
        </extensions>
      </trkpt>
      <trkpt lat="-22.10693559609353542327880859375" lon="166.45685738883912563323974609375">
        <ele>491</ele>
        <time>2016-08-12T22:58:14.000Z</time>
        <extensions>
          <ns3:TrackPointExtension>
            <ns3:atemp>23.0</ns3:atemp>
            <ns3:hr>129</ns3:hr>
          </ns3:TrackPointExtension>
        </extensions>
      </trkpt>
      <trkpt lat="-22.1069502644240856170654296875" lon="166.4568321593105792999267578125">
        <ele>490.79998779296875</ele>
        <time>2016-08-12T22:58:15.000Z</time>
        <extensions>
          <ns3:TrackPointExtension>
            <ns3:atemp>23.0</ns3:atemp>
            <ns3:hr>128</ns3:hr>
          </ns3:TrackPointExtension>
        </extensions>
      </trkpt>
      <trkpt lat="-22.1069616638123989105224609375" lon="166.45681145600974559783935546875">
        <ele>490.600006103515625</ele>
        <time>2016-08-12T22:58:16.000Z</time>
        <extensions>
          <ns3:TrackPointExtension>
            <ns3:atemp>23.0</ns3:atemp>
            <ns3:hr>129</ns3:hr>
          </ns3:TrackPointExtension>
        </extensions>
      </trkpt>
      <trkpt lat="-22.1069626696407794952392578125" lon="166.456786058843135833740234375">
        <ele>490.399993896484375</ele>
        <time>2016-08-12T22:58:17.000Z</time>
        <extensions>
          <ns3:TrackPointExtension>
            <ns3:atemp>23.0</ns3:atemp>
            <ns3:hr>129</ns3:hr>
          </ns3:TrackPointExtension>
        </extensions>
      </trkpt>
      <trkpt lat="-22.10697147063910961151123046875" lon="166.4567644335329532623291015625">
        <ele>490.399993896484375</ele>
        <time>2016-08-12T22:58:18.000Z</time>
        <extensions>
          <ns3:TrackPointExtension>
            <ns3:atemp>23.0</ns3:atemp>
            <ns3:hr>128</ns3:hr>
          </ns3:TrackPointExtension>
        </extensions>
      </trkpt>
      <trkpt lat="-22.10698002018034458160400390625" lon="166.456743814051151275634765625">
        <ele>490.20001220703125</ele>
        <time>2016-08-12T22:58:19.000Z</time>
        <extensions>
          <ns3:TrackPointExtension>
            <ns3:atemp>23.0</ns3:atemp>
            <ns3:hr>128</ns3:hr>
          </ns3:TrackPointExtension>
        </extensions>
      </trkpt>
      <trkpt lat="-22.1070008911192417144775390625" lon="166.4567314088344573974609375">
        <ele>490.20001220703125</ele>
        <time>2016-08-12T22:58:20.000Z</time>
        <extensions>
          <ns3:TrackPointExtension>
            <ns3:atemp>23.0</ns3:atemp>
            <ns3:hr>128</ns3:hr>
          </ns3:TrackPointExtension>
        </extensions>
      </trkpt>
      <trkpt lat="-22.107016146183013916015625" lon="166.4567195065319538116455078125">
        <ele>490.20001220703125</ele>
        <time>2016-08-12T22:58:21.000Z</time>
        <extensions>
          <ns3:TrackPointExtension>
            <ns3:atemp>23.0</ns3:atemp>
            <ns3:hr>128</ns3:hr>
          </ns3:TrackPointExtension>
        </extensions>
      </trkpt>
      <trkpt lat="-22.10702796466648578643798828125" lon="166.45671330392360687255859375">
        <ele>490.20001220703125</ele>
        <time>2016-08-12T22:58:22.000Z</time>
        <extensions>
          <ns3:TrackPointExtension>
            <ns3:atemp>23.0</ns3:atemp>
            <ns3:hr>128</ns3:hr>
          </ns3:TrackPointExtension>
        </extensions>
      </trkpt>
      <trkpt lat="-22.10703986696898937225341796875" lon="166.45671875216066837310791015625">
        <ele>490.399993896484375</ele>
        <time>2016-08-12T22:58:23.000Z</time>
        <extensions>
          <ns3:TrackPointExtension>
            <ns3:atemp>23.0</ns3:atemp>
            <ns3:hr>128</ns3:hr>
          </ns3:TrackPointExtension>
        </extensions>
      </trkpt>
      <trkpt lat="-22.10705570876598358154296875" lon="166.456729061901569366455078125">
        <ele>490.399993896484375</ele>
        <time>2016-08-12T22:58:24.000Z</time>
        <extensions>
          <ns3:TrackPointExtension>
            <ns3:atemp>23.0</ns3:atemp>
            <ns3:hr>128</ns3:hr>
          </ns3:TrackPointExtension>
        </extensions>
      </trkpt>
      <trkpt lat="-22.10707507096230983734130859375" lon="166.45673970691859722137451171875">
        <ele>490.399993896484375</ele>
        <time>2016-08-12T22:58:25.000Z</time>
        <extensions>
          <ns3:TrackPointExtension>
            <ns3:atemp>23.0</ns3:atemp>
            <ns3:hr>127</ns3:hr>
          </ns3:TrackPointExtension>
        </extensions>
      </trkpt>
      <trkpt lat="-22.10708596743643283843994140625" lon="166.45674909465014934539794921875">
        <ele>490</ele>
        <time>2016-08-12T22:58:26.000Z</time>
        <extensions>
          <ns3:TrackPointExtension>
            <ns3:atemp>23.0</ns3:atemp>
            <ns3:hr>127</ns3:hr>
          </ns3:TrackPointExtension>
        </extensions>
      </trkpt>
      <trkpt lat="-22.107101641595363616943359375" lon="166.4567563869059085845947265625">
        <ele>490</ele>
        <time>2016-08-12T22:58:27.000Z</time>
        <extensions>
          <ns3:TrackPointExtension>
            <ns3:atemp>23.0</ns3:atemp>
            <ns3:hr>127</ns3:hr>
          </ns3:TrackPointExtension>
        </extensions>
      </trkpt>
      <trkpt lat="-22.107122428715229034423828125" lon="166.45676116459071636199951171875">
        <ele>490</ele>
        <time>2016-08-12T22:58:28.000Z</time>
        <extensions>
          <ns3:TrackPointExtension>
            <ns3:atemp>23.0</ns3:atemp>
            <ns3:hr>127</ns3:hr>
          </ns3:TrackPointExtension>
        </extensions>
      </trkpt>
      <trkpt lat="-22.10714380256831645965576171875" lon="166.45676552318036556243896484375">
        <ele>489.79998779296875</ele>
        <time>2016-08-12T22:58:29.000Z</time>
        <extensions>
          <ns3:TrackPointExtension>
            <ns3:atemp>23.0</ns3:atemp>
            <ns3:hr>127</ns3:hr>
          </ns3:TrackPointExtension>
        </extensions>
      </trkpt>
      <trkpt lat="-22.1071614883840084075927734375" lon="166.4567657746374607086181640625">
        <ele>489.600006103515625</ele>
        <time>2016-08-12T22:58:30.000Z</time>
        <extensions>
          <ns3:TrackPointExtension>
            <ns3:atemp>23.0</ns3:atemp>
            <ns3:hr>127</ns3:hr>
          </ns3:TrackPointExtension>
        </extensions>
      </trkpt>
      <trkpt lat="-22.10718018002808094024658203125" lon="166.45676334388554096221923828125">
        <ele>489.600006103515625</ele>
        <time>2016-08-12T22:58:31.000Z</time>
        <extensions>
          <ns3:TrackPointExtension>
            <ns3:atemp>23.0</ns3:atemp>
            <ns3:hr>127</ns3:hr>
          </ns3:TrackPointExtension>
        </extensions>
      </trkpt>
      <trkpt lat="-22.107199542224407196044921875" lon="166.456761248409748077392578125">
        <ele>489.600006103515625</ele>
        <time>2016-08-12T22:58:32.000Z</time>
        <extensions>
          <ns3:TrackPointExtension>
            <ns3:atemp>23.0</ns3:atemp>
            <ns3:hr>127</ns3:hr>
          </ns3:TrackPointExtension>
        </extensions>
      </trkpt>
      <trkpt lat="-22.1072355844080448150634765625" lon="166.45676166750490665435791015625">
        <ele>489.600006103515625</ele>
        <time>2016-08-12T22:58:33.000Z</time>
        <extensions>
          <ns3:TrackPointExtension>
            <ns3:atemp>23.0</ns3:atemp>
            <ns3:hr>127</ns3:hr>
          </ns3:TrackPointExtension>
        </extensions>
      </trkpt>
      <trkpt lat="-22.10726148448884487152099609375" lon="166.4567523635923862457275390625">
        <ele>489.399993896484375</ele>
        <time>2016-08-12T22:58:34.000Z</time>
        <extensions>
          <ns3:TrackPointExtension>
            <ns3:atemp>23.0</ns3:atemp>
            <ns3:hr>128</ns3:hr>
          </ns3:TrackPointExtension>
        </extensions>
      </trkpt>
      <trkpt lat="-22.10729216225445270538330078125" lon="166.456746160984039306640625">
        <ele>489.399993896484375</ele>
        <time>2016-08-12T22:58:35.000Z</time>
        <extensions>
          <ns3:TrackPointExtension>
            <ns3:atemp>23.0</ns3:atemp>
            <ns3:hr>128</ns3:hr>
          </ns3:TrackPointExtension>
        </extensions>
      </trkpt>
      <trkpt lat="-22.10731361992657184600830078125" lon="166.45673342049121856689453125">
        <ele>489.20001220703125</ele>
        <time>2016-08-12T22:58:36.000Z</time>
        <extensions>
          <ns3:TrackPointExtension>
            <ns3:atemp>23.0</ns3:atemp>
            <ns3:hr>128</ns3:hr>
          </ns3:TrackPointExtension>
        </extensions>
      </trkpt>
      <trkpt lat="-22.10734044201672077178955078125" lon="166.45672939717769622802734375">
        <ele>489.20001220703125</ele>
        <time>2016-08-12T22:58:37.000Z</time>
        <extensions>
          <ns3:TrackPointExtension>
            <ns3:atemp>23.0</ns3:atemp>
            <ns3:hr>128</ns3:hr>
          </ns3:TrackPointExtension>
        </extensions>
      </trkpt>
      <trkpt lat="-22.10736407898366451263427734375" lon="166.4567260444164276123046875">
        <ele>489</ele>
        <time>2016-08-12T22:58:38.000Z</time>
        <extensions>
          <ns3:TrackPointExtension>
            <ns3:atemp>22.0</ns3:atemp>
            <ns3:hr>128</ns3:hr>
          </ns3:TrackPointExtension>
        </extensions>
      </trkpt>
      <trkpt lat="-22.10739157162606716156005859375" lon="166.4567245356738567352294921875">
        <ele>488.600006103515625</ele>
        <time>2016-08-12T22:58:39.000Z</time>
        <extensions>
          <ns3:TrackPointExtension>
            <ns3:atemp>22.0</ns3:atemp>
            <ns3:hr>128</ns3:hr>
          </ns3:TrackPointExtension>
        </extensions>
      </trkpt>
      <trkpt lat="-22.10742342285811901092529296875" lon="166.456726379692554473876953125">
        <ele>488.399993896484375</ele>
        <time>2016-08-12T22:58:40.000Z</time>
        <extensions>
          <ns3:TrackPointExtension>
            <ns3:atemp>22.0</ns3:atemp>
            <ns3:hr>128</ns3:hr>
          </ns3:TrackPointExtension>
        </extensions>
      </trkpt>
      <trkpt lat="-22.10745024494826793670654296875" lon="166.45672671496868133544921875">
        <ele>488.399993896484375</ele>
        <time>2016-08-12T22:58:41.000Z</time>
        <extensions>
          <ns3:TrackPointExtension>
            <ns3:atemp>22.0</ns3:atemp>
            <ns3:hr>128</ns3:hr>
          </ns3:TrackPointExtension>
        </extensions>
      </trkpt>
      <trkpt lat="-22.10747547447681427001953125" lon="166.45672126673161983489990234375">
        <ele>488.399993896484375</ele>
        <time>2016-08-12T22:58:42.000Z</time>
        <extensions>
          <ns3:TrackPointExtension>
            <ns3:atemp>22.0</ns3:atemp>
            <ns3:hr>127</ns3:hr>
          </ns3:TrackPointExtension>
        </extensions>
      </trkpt>
      <trkpt lat="-22.10750020109117031097412109375" lon="166.45671707578003406524658203125">
        <ele>488.20001220703125</ele>
        <time>2016-08-12T22:58:43.000Z</time>
        <extensions>
          <ns3:TrackPointExtension>
            <ns3:atemp>22.0</ns3:atemp>
            <ns3:hr>127</ns3:hr>
          </ns3:TrackPointExtension>
        </extensions>
      </trkpt>
      <trkpt lat="-22.10752031765878200531005859375" lon="166.4567168243229389190673828125">
        <ele>488.20001220703125</ele>
        <time>2016-08-12T22:58:44.000Z</time>
        <extensions>
          <ns3:TrackPointExtension>
            <ns3:atemp>22.0</ns3:atemp>
            <ns3:hr>127</ns3:hr>
          </ns3:TrackPointExtension>
        </extensions>
      </trkpt>
      <trkpt lat="-22.107541859149932861328125" lon="166.4567188359797000885009765625">
        <ele>488</ele>
        <time>2016-08-12T22:58:45.000Z</time>
        <extensions>
          <ns3:TrackPointExtension>
            <ns3:atemp>22.0</ns3:atemp>
            <ns3:hr>127</ns3:hr>
          </ns3:TrackPointExtension>
        </extensions>
      </trkpt>
      <trkpt lat="-22.10755971260368824005126953125" lon="166.45672210492193698883056640625">
        <ele>487.600006103515625</ele>
        <time>2016-08-12T22:58:46.000Z</time>
        <extensions>
          <ns3:TrackPointExtension>
            <ns3:atemp>22.0</ns3:atemp>
            <ns3:hr>127</ns3:hr>
          </ns3:TrackPointExtension>
        </extensions>
      </trkpt>
      <trkpt lat="-22.107581086456775665283203125" lon="166.45672797225415706634521484375">
        <ele>487.399993896484375</ele>
        <time>2016-08-12T22:58:47.000Z</time>
        <extensions>
          <ns3:TrackPointExtension>
            <ns3:atemp>22.0</ns3:atemp>
            <ns3:hr>127</ns3:hr>
          </ns3:TrackPointExtension>
        </extensions>
      </trkpt>
      <trkpt lat="-22.10760883055627346038818359375" lon="166.45674004219472408294677734375">
        <ele>487.20001220703125</ele>
        <time>2016-08-12T22:58:48.000Z</time>
        <extensions>
          <ns3:TrackPointExtension>
            <ns3:atemp>22.0</ns3:atemp>
            <ns3:hr>127</ns3:hr>
          </ns3:TrackPointExtension>
        </extensions>
      </trkpt>
      <trkpt lat="-22.10763229988515377044677734375" lon="166.4567496813833713531494140625">
        <ele>487</ele>
        <time>2016-08-12T22:58:49.000Z</time>
        <extensions>
          <ns3:TrackPointExtension>
            <ns3:atemp>22.0</ns3:atemp>
            <ns3:hr>128</ns3:hr>
          </ns3:TrackPointExtension>
        </extensions>
      </trkpt>
      <trkpt lat="-22.10766063071787357330322265625" lon="166.45675932057201862335205078125">
        <ele>487</ele>
        <time>2016-08-12T22:58:50.000Z</time>
        <extensions>
          <ns3:TrackPointExtension>
            <ns3:atemp>22.0</ns3:atemp>
            <ns3:hr>128</ns3:hr>
          </ns3:TrackPointExtension>
        </extensions>
      </trkpt>
      <trkpt lat="-22.1076845191419124603271484375" lon="166.456773988902568817138671875">
        <ele>487</ele>
        <time>2016-08-12T22:58:51.000Z</time>
        <extensions>
          <ns3:TrackPointExtension>
            <ns3:atemp>22.0</ns3:atemp>
            <ns3:hr>127</ns3:hr>
          </ns3:TrackPointExtension>
        </extensions>
      </trkpt>
      <trkpt lat="-22.1077053062617778778076171875" lon="166.45678513683378696441650390625">
        <ele>487</ele>
        <time>2016-08-12T22:58:52.000Z</time>
        <extensions>
          <ns3:TrackPointExtension>
            <ns3:atemp>22.0</ns3:atemp>
            <ns3:hr>127</ns3:hr>
          </ns3:TrackPointExtension>
        </extensions>
      </trkpt>
      <trkpt lat="-22.10773405618965625762939453125" lon="166.45679385401308536529541015625">
        <ele>486.79998779296875</ele>
        <time>2016-08-12T22:58:53.000Z</time>
        <extensions>
          <ns3:TrackPointExtension>
            <ns3:atemp>22.0</ns3:atemp>
            <ns3:hr>126</ns3:hr>
          </ns3:TrackPointExtension>
        </extensions>
      </trkpt>
      <trkpt lat="-22.107760123908519744873046875" lon="166.45680340938270092010498046875">
        <ele>486.600006103515625</ele>
        <time>2016-08-12T22:58:54.000Z</time>
        <extensions>
          <ns3:TrackPointExtension>
            <ns3:atemp>22.0</ns3:atemp>
            <ns3:hr>126</ns3:hr>
          </ns3:TrackPointExtension>
        </extensions>
      </trkpt>
      <trkpt lat="-22.10778920911252498626708984375" lon="166.45680584013462066650390625">
        <ele>486.600006103515625</ele>
        <time>2016-08-12T22:58:55.000Z</time>
        <extensions>
          <ns3:TrackPointExtension>
            <ns3:atemp>22.0</ns3:atemp>
            <ns3:hr>125</ns3:hr>
          </ns3:TrackPointExtension>
        </extensions>
      </trkpt>
      <trkpt lat="-22.107816450297832489013671875" lon="166.45680558867752552032470703125">
        <ele>486.399993896484375</ele>
        <time>2016-08-12T22:58:56.000Z</time>
        <extensions>
          <ns3:TrackPointExtension>
            <ns3:atemp>22.0</ns3:atemp>
            <ns3:hr>125</ns3:hr>
          </ns3:TrackPointExtension>
        </extensions>
      </trkpt>
      <trkpt lat="-22.1078434400260448455810546875" lon="166.456802152097225189208984375">
        <ele>486.20001220703125</ele>
        <time>2016-08-12T22:58:57.000Z</time>
        <extensions>
          <ns3:TrackPointExtension>
            <ns3:atemp>22.0</ns3:atemp>
            <ns3:hr>125</ns3:hr>
          </ns3:TrackPointExtension>
        </extensions>
      </trkpt>
      <trkpt lat="-22.1078739501535892486572265625" lon="166.45679754205048084259033203125">
        <ele>486</ele>
        <time>2016-08-12T22:58:58.000Z</time>
        <extensions>
          <ns3:TrackPointExtension>
            <ns3:atemp>22.0</ns3:atemp>
            <ns3:hr>125</ns3:hr>
          </ns3:TrackPointExtension>
        </extensions>
      </trkpt>
      <trkpt lat="-22.10790823213756084442138671875" lon="166.4567892439663410186767578125">
        <ele>485.79998779296875</ele>
        <time>2016-08-12T22:58:59.000Z</time>
        <extensions>
          <ns3:TrackPointExtension>
            <ns3:atemp>22.0</ns3:atemp>
            <ns3:hr>126</ns3:hr>
          </ns3:TrackPointExtension>
        </extensions>
      </trkpt>
      <trkpt lat="-22.10793840698897838592529296875" lon="166.45677893422544002532958984375">
        <ele>485.600006103515625</ele>
        <time>2016-08-12T22:59:00.000Z</time>
        <extensions>
          <ns3:TrackPointExtension>
            <ns3:atemp>22.0</ns3:atemp>
            <ns3:hr>126</ns3:hr>
          </ns3:TrackPointExtension>
        </extensions>
      </trkpt>
      <trkpt lat="-22.10797009058296680450439453125" lon="166.45675219595432281494140625">
        <ele>485.399993896484375</ele>
        <time>2016-08-12T22:59:01.000Z</time>
        <extensions>
          <ns3:TrackPointExtension>
            <ns3:atemp>23.0</ns3:atemp>
            <ns3:hr>126</ns3:hr>
          </ns3:TrackPointExtension>
        </extensions>
      </trkpt>
      <trkpt lat="-22.10799490101635456085205078125" lon="166.45673166029155254364013671875">
        <ele>485</ele>
        <time>2016-08-12T22:59:02.000Z</time>
        <extensions>
          <ns3:TrackPointExtension>
            <ns3:atemp>23.0</ns3:atemp>
            <ns3:hr>126</ns3:hr>
          </ns3:TrackPointExtension>
        </extensions>
      </trkpt>
      <trkpt lat="-22.1080164425075054168701171875" lon="166.45670819096267223358154296875">
        <ele>484.79998779296875</ele>
        <time>2016-08-12T22:59:03.000Z</time>
        <extensions>
          <ns3:TrackPointExtension>
            <ns3:atemp>23.0</ns3:atemp>
            <ns3:hr>126</ns3:hr>
          </ns3:TrackPointExtension>
        </extensions>
      </trkpt>
      <trkpt lat="-22.108034379780292510986328125" lon="166.45668203942477703094482421875">
        <ele>484.399993896484375</ele>
        <time>2016-08-12T22:59:04.000Z</time>
        <extensions>
          <ns3:TrackPointExtension>
            <ns3:atemp>23.0</ns3:atemp>
            <ns3:hr>126</ns3:hr>
          </ns3:TrackPointExtension>
        </extensions>
      </trkpt>
      <trkpt lat="-22.10805483162403106689453125" lon="166.4566608332097530364990234375">
        <ele>484.20001220703125</ele>
        <time>2016-08-12T22:59:05.000Z</time>
        <extensions>
          <ns3:TrackPointExtension>
            <ns3:atemp>23.0</ns3:atemp>
            <ns3:hr>126</ns3:hr>
          </ns3:TrackPointExtension>
        </extensions>
      </trkpt>
      <trkpt lat="-22.10806631483137607574462890625" lon="166.45663510076701641082763671875">
        <ele>484.20001220703125</ele>
        <time>2016-08-12T22:59:06.000Z</time>
        <extensions>
          <ns3:TrackPointExtension>
            <ns3:atemp>23.0</ns3:atemp>
            <ns3:hr>126</ns3:hr>
          </ns3:TrackPointExtension>
        </extensions>
      </trkpt>
      <trkpt lat="-22.10808022879064083099365234375" lon="166.4566118828952312469482421875">
        <ele>483.79998779296875</ele>
        <time>2016-08-12T22:59:07.000Z</time>
        <extensions>
          <ns3:TrackPointExtension>
            <ns3:atemp>23.0</ns3:atemp>
            <ns3:hr>126</ns3:hr>
          </ns3:TrackPointExtension>
        </extensions>
      </trkpt>
      <trkpt lat="-22.1081009320914745330810546875" lon="166.456590928137302398681640625">
        <ele>483.600006103515625</ele>
        <time>2016-08-12T22:59:08.000Z</time>
        <extensions>
          <ns3:TrackPointExtension>
            <ns3:atemp>23.0</ns3:atemp>
            <ns3:hr>127</ns3:hr>
          </ns3:TrackPointExtension>
        </extensions>
      </trkpt>
      <trkpt lat="-22.10811928845942020416259765625" lon="166.45657072775065898895263671875">
        <ele>483.399993896484375</ele>
        <time>2016-08-12T22:59:09.000Z</time>
        <extensions>
          <ns3:TrackPointExtension>
            <ns3:atemp>23.0</ns3:atemp>
            <ns3:hr>127</ns3:hr>
          </ns3:TrackPointExtension>
        </extensions>
      </trkpt>
      <trkpt lat="-22.10813303478062152862548828125" lon="166.4565501920878887176513671875">
        <ele>483.399993896484375</ele>
        <time>2016-08-12T22:59:10.000Z</time>
        <extensions>
          <ns3:TrackPointExtension>
            <ns3:atemp>23.0</ns3:atemp>
            <ns3:hr>127</ns3:hr>
          </ns3:TrackPointExtension>
        </extensions>
      </trkpt>
      <trkpt lat="-22.10813705809414386749267578125" lon="166.45651825703680515289306640625">
        <ele>483</ele>
        <time>2016-08-12T22:59:11.000Z</time>
        <extensions>
          <ns3:TrackPointExtension>
            <ns3:atemp>23.0</ns3:atemp>
            <ns3:hr>127</ns3:hr>
          </ns3:TrackPointExtension>
        </extensions>
      </trkpt>
      <trkpt lat="-22.1081505529582500457763671875" lon="166.456490345299243927001953125">
        <ele>483</ele>
        <time>2016-08-12T22:59:12.000Z</time>
        <extensions>
          <ns3:TrackPointExtension>
            <ns3:atemp>23.0</ns3:atemp>
            <ns3:hr>127</ns3:hr>
          </ns3:TrackPointExtension>
        </extensions>
      </trkpt>
      <trkpt lat="-22.1081639640033245086669921875" lon="166.45646645687520503997802734375">
        <ele>482.79998779296875</ele>
        <time>2016-08-12T22:59:13.000Z</time>
        <extensions>
          <ns3:TrackPointExtension>
            <ns3:atemp>23.0</ns3:atemp>
            <ns3:hr>128</ns3:hr>
          </ns3:TrackPointExtension>
        </extensions>
      </trkpt>
      <trkpt lat="-22.1081599406898021697998046875" lon="166.45643510855734348297119140625">
        <ele>482.399993896484375</ele>
        <time>2016-08-12T22:59:14.000Z</time>
        <extensions>
          <ns3:TrackPointExtension>
            <ns3:atemp>23.0</ns3:atemp>
            <ns3:hr>128</ns3:hr>
          </ns3:TrackPointExtension>
        </extensions>
      </trkpt>
      <trkpt lat="-22.10816103033721446990966796875" lon="166.45640661008656024932861328125">
        <ele>482.20001220703125</ele>
        <time>2016-08-12T22:59:15.000Z</time>
        <extensions>
          <ns3:TrackPointExtension>
            <ns3:atemp>23.0</ns3:atemp>
            <ns3:hr>128</ns3:hr>
          </ns3:TrackPointExtension>
        </extensions>
      </trkpt>
      <trkpt lat="-22.1081710048019886016845703125" lon="166.456381380558013916015625">
        <ele>481.79998779296875</ele>
        <time>2016-08-12T22:59:16.000Z</time>
        <extensions>
          <ns3:TrackPointExtension>
            <ns3:atemp>23.0</ns3:atemp>
            <ns3:hr>128</ns3:hr>
          </ns3:TrackPointExtension>
        </extensions>
      </trkpt>
      <trkpt lat="-22.1081860922276973724365234375" lon="166.456356905400753021240234375">
        <ele>481.600006103515625</ele>
        <time>2016-08-12T22:59:17.000Z</time>
        <extensions>
          <ns3:TrackPointExtension>
            <ns3:atemp>23.0</ns3:atemp>
            <ns3:hr>127</ns3:hr>
          </ns3:TrackPointExtension>
        </extensions>
      </trkpt>
      <trkpt lat="-22.1081944741308689117431640625" lon="166.456330753862857818603515625">
        <ele>481.399993896484375</ele>
        <time>2016-08-12T22:59:18.000Z</time>
        <extensions>
          <ns3:TrackPointExtension>
            <ns3:atemp>23.0</ns3:atemp>
            <ns3:hr>127</ns3:hr>
          </ns3:TrackPointExtension>
        </extensions>
      </trkpt>
      <trkpt lat="-22.1082030236721038818359375" lon="166.45630359649658203125">
        <ele>481.20001220703125</ele>
        <time>2016-08-12T22:59:19.000Z</time>
        <extensions>
          <ns3:TrackPointExtension>
            <ns3:atemp>23.0</ns3:atemp>
            <ns3:hr>128</ns3:hr>
          </ns3:TrackPointExtension>
        </extensions>
      </trkpt>
      <trkpt lat="-22.1082164347171783447265625" lon="166.45628021098673343658447265625">
        <ele>481.20001220703125</ele>
        <time>2016-08-12T22:59:20.000Z</time>
        <extensions>
          <ns3:TrackPointExtension>
            <ns3:atemp>23.0</ns3:atemp>
            <ns3:hr>128</ns3:hr>
          </ns3:TrackPointExtension>
        </extensions>
      </trkpt>
      <trkpt lat="-22.1082316897809505462646484375" lon="166.456259675323963165283203125">
        <ele>481.20001220703125</ele>
        <time>2016-08-12T22:59:21.000Z</time>
        <extensions>
          <ns3:TrackPointExtension>
            <ns3:atemp>23.0</ns3:atemp>
            <ns3:hr>127</ns3:hr>
          </ns3:TrackPointExtension>
        </extensions>
      </trkpt>
      <trkpt lat="-22.10824585519731044769287109375" lon="166.4562377147376537322998046875">
        <ele>481</ele>
        <time>2016-08-12T22:59:22.000Z</time>
        <extensions>
          <ns3:TrackPointExtension>
            <ns3:atemp>23.0</ns3:atemp>
            <ns3:hr>128</ns3:hr>
          </ns3:TrackPointExtension>
        </extensions>
      </trkpt>
      <trkpt lat="-22.10825758986175060272216796875" lon="166.45621885545551776885986328125">
        <ele>480.600006103515625</ele>
        <time>2016-08-12T22:59:23.000Z</time>
        <extensions>
          <ns3:TrackPointExtension>
            <ns3:atemp>23.0</ns3:atemp>
            <ns3:hr>127</ns3:hr>
          </ns3:TrackPointExtension>
        </extensions>
      </trkpt>
      <trkpt lat="-22.10826345719397068023681640625" lon="166.4562031812965869903564453125">
        <ele>480.600006103515625</ele>
        <time>2016-08-12T22:59:24.000Z</time>
        <extensions>
          <ns3:TrackPointExtension>
            <ns3:atemp>23.0</ns3:atemp>
            <ns3:hr>127</ns3:hr>
          </ns3:TrackPointExtension>
        </extensions>
      </trkpt>
      <trkpt lat="-22.1082702465355396270751953125" lon="166.4561894349753856658935546875">
        <ele>480.600006103515625</ele>
        <time>2016-08-12T22:59:25.000Z</time>
        <extensions>
          <ns3:TrackPointExtension>
            <ns3:atemp>23.0</ns3:atemp>
            <ns3:hr>126</ns3:hr>
          </ns3:TrackPointExtension>
        </extensions>
      </trkpt>
      <trkpt lat="-22.10827753879129886627197265625" lon="166.45617845468223094940185546875">
        <ele>480.600006103515625</ele>
        <time>2016-08-12T22:59:26.000Z</time>
        <extensions>
          <ns3:TrackPointExtension>
            <ns3:atemp>23.0</ns3:atemp>
            <ns3:hr>126</ns3:hr>
          </ns3:TrackPointExtension>
        </extensions>
      </trkpt>
      <trkpt lat="-22.1082853339612483978271484375" lon="166.45616638474166393280029296875">
        <ele>480.399993896484375</ele>
        <time>2016-08-12T22:59:27.000Z</time>
        <extensions>
          <ns3:TrackPointExtension>
            <ns3:atemp>23.0</ns3:atemp>
            <ns3:hr>126</ns3:hr>
          </ns3:TrackPointExtension>
        </extensions>
      </trkpt>
      <trkpt lat="-22.1082896925508975982666015625" lon="166.45615364424884319305419921875">
        <ele>480.79998779296875</ele>
        <time>2016-08-12T22:59:28.000Z</time>
        <extensions>
          <ns3:TrackPointExtension>
            <ns3:atemp>23.0</ns3:atemp>
            <ns3:hr>126</ns3:hr>
          </ns3:TrackPointExtension>
        </extensions>
      </trkpt>
      <trkpt lat="-22.10829882882535457611083984375" lon="166.4561418257653713226318359375">
        <ele>480.600006103515625</ele>
        <time>2016-08-12T22:59:29.000Z</time>
        <extensions>
          <ns3:TrackPointExtension>
            <ns3:atemp>23.0</ns3:atemp>
            <ns3:hr>126</ns3:hr>
          </ns3:TrackPointExtension>
        </extensions>
      </trkpt>
      <trkpt lat="-22.1083061210811138153076171875" lon="166.45612849853932857513427734375">
        <ele>479.600006103515625</ele>
        <time>2016-08-12T22:59:30.000Z</time>
        <extensions>
          <ns3:TrackPointExtension>
            <ns3:atemp>23.0</ns3:atemp>
          </ns3:TrackPointExtension>
        </extensions>
      </trkpt>
      <trkpt lat="-22.10839387960731983184814453125" lon="166.45599036477506160736083984375">
        <ele>477.399993896484375</ele>
        <time>2016-08-12T22:59:42.000Z</time>
        <extensions>
          <ns3:TrackPointExtension>
            <ns3:atemp>22.0</ns3:atemp>
            <ns3:hr>119</ns3:hr>
          </ns3:TrackPointExtension>
        </extensions>
      </trkpt>
      <trkpt lat="-22.10841818712651729583740234375" lon="166.45595264621078968048095703125">
        <ele>477.399993896484375</ele>
        <time>2016-08-12T22:59:45.000Z</time>
        <extensions>
          <ns3:TrackPointExtension>
            <ns3:atemp>22.0</ns3:atemp>
            <ns3:hr>117</ns3:hr>
          </ns3:TrackPointExtension>
        </extensions>
      </trkpt>
      <trkpt lat="-22.10842204280197620391845703125" lon="166.45593789406120777130126953125">
        <ele>477.399993896484375</ele>
        <time>2016-08-12T22:59:46.000Z</time>
        <extensions>
          <ns3:TrackPointExtension>
            <ns3:atemp>22.0</ns3:atemp>
            <ns3:hr>116</ns3:hr>
          </ns3:TrackPointExtension>
        </extensions>
      </trkpt>
      <trkpt lat="-22.1084271557629108428955078125" lon="166.455923728644847869873046875">
        <ele>477.20001220703125</ele>
        <time>2016-08-12T22:59:47.000Z</time>
        <extensions>
          <ns3:TrackPointExtension>
            <ns3:atemp>22.0</ns3:atemp>
            <ns3:hr>116</ns3:hr>
          </ns3:TrackPointExtension>
        </extensions>
      </trkpt>
      <trkpt lat="-22.10843662731349468231201171875" lon="166.45591241307556629180908203125">
        <ele>477</ele>
        <time>2016-08-12T22:59:48.000Z</time>
        <extensions>
          <ns3:TrackPointExtension>
            <ns3:atemp>22.0</ns3:atemp>
            <ns3:hr>116</ns3:hr>
          </ns3:TrackPointExtension>
        </extensions>
      </trkpt>
      <trkpt lat="-22.10845322348177433013916015625" lon="166.4558997564017772674560546875">
        <ele>477</ele>
        <time>2016-08-12T22:59:49.000Z</time>
        <extensions>
          <ns3:TrackPointExtension>
            <ns3:atemp>22.0</ns3:atemp>
            <ns3:hr>116</ns3:hr>
          </ns3:TrackPointExtension>
        </extensions>
      </trkpt>
      <trkpt lat="-22.1084653772413730621337890625" lon="166.45588240586221218109130859375">
        <ele>477.399993896484375</ele>
        <time>2016-08-12T22:59:50.000Z</time>
        <extensions>
          <ns3:TrackPointExtension>
            <ns3:atemp>22.0</ns3:atemp>
            <ns3:hr>117</ns3:hr>
          </ns3:TrackPointExtension>
        </extensions>
      </trkpt>
      <trkpt lat="-22.1084673888981342315673828125" lon="166.4558581821620464324951171875">
        <ele>477.600006103515625</ele>
        <time>2016-08-12T22:59:51.000Z</time>
        <extensions>
          <ns3:TrackPointExtension>
            <ns3:atemp>22.0</ns3:atemp>
            <ns3:hr>118</ns3:hr>
          </ns3:TrackPointExtension>
        </extensions>
      </trkpt>
      <trkpt lat="-22.108478285372257232666015625" lon="166.45583278499543666839599609375">
        <ele>477.79998779296875</ele>
        <time>2016-08-12T22:59:52.000Z</time>
        <extensions>
          <ns3:TrackPointExtension>
            <ns3:atemp>22.0</ns3:atemp>
            <ns3:hr>118</ns3:hr>
          </ns3:TrackPointExtension>
        </extensions>
      </trkpt>
      <trkpt lat="-22.10848532617092132568359375" lon="166.4558099023997783660888671875">
        <ele>478</ele>
        <time>2016-08-12T22:59:53.000Z</time>
        <extensions>
          <ns3:TrackPointExtension>
            <ns3:atemp>22.0</ns3:atemp>
            <ns3:hr>119</ns3:hr>
          </ns3:TrackPointExtension>
        </extensions>
      </trkpt>
      <trkpt lat="-22.10849328897893428802490234375" lon="166.4557857625186443328857421875">
        <ele>477.79998779296875</ele>
        <time>2016-08-12T22:59:54.000Z</time>
        <extensions>
          <ns3:TrackPointExtension>
            <ns3:atemp>22.0</ns3:atemp>
            <ns3:hr>119</ns3:hr>
          </ns3:TrackPointExtension>
        </extensions>
      </trkpt>
      <trkpt lat="-22.108508460223674774169921875" lon="166.45576137118041515350341796875">
        <ele>477.79998779296875</ele>
        <time>2016-08-12T22:59:55.000Z</time>
        <extensions>
          <ns3:TrackPointExtension>
            <ns3:atemp>22.0</ns3:atemp>
            <ns3:hr>120</ns3:hr>
          </ns3:TrackPointExtension>
        </extensions>
      </trkpt>
      <trkpt lat="-22.1085196919739246368408203125" lon="166.45573589019477367401123046875">
        <ele>478</ele>
        <time>2016-08-12T22:59:56.000Z</time>
        <extensions>
          <ns3:TrackPointExtension>
            <ns3:atemp>22.0</ns3:atemp>
            <ns3:hr>120</ns3:hr>
          </ns3:TrackPointExtension>
        </extensions>
      </trkpt>
      <trkpt lat="-22.10853452794253826141357421875" lon="166.45570906810462474822998046875">
        <ele>477.79998779296875</ele>
        <time>2016-08-12T22:59:57.000Z</time>
        <extensions>
          <ns3:TrackPointExtension>
            <ns3:atemp>22.0</ns3:atemp>
            <ns3:hr>120</ns3:hr>
          </ns3:TrackPointExtension>
        </extensions>
      </trkpt>
      <trkpt lat="-22.1085458435118198394775390625" lon="166.45567931234836578369140625">
        <ele>477.600006103515625</ele>
        <time>2016-08-12T22:59:58.000Z</time>
        <extensions>
          <ns3:TrackPointExtension>
            <ns3:atemp>22.0</ns3:atemp>
            <ns3:hr>120</ns3:hr>
          </ns3:TrackPointExtension>
        </extensions>
      </trkpt>
      <trkpt lat="-22.1085542254149913787841796875" lon="166.45565257407724857330322265625">
        <ele>477.399993896484375</ele>
        <time>2016-08-12T22:59:59.000Z</time>
        <extensions>
          <ns3:TrackPointExtension>
            <ns3:atemp>22.0</ns3:atemp>
            <ns3:hr>121</ns3:hr>
          </ns3:TrackPointExtension>
        </extensions>
      </trkpt>
      <trkpt lat="-22.1085699833929538726806640625" lon="166.455624997615814208984375">
        <ele>477.20001220703125</ele>
        <time>2016-08-12T23:00:00.000Z</time>
        <extensions>
          <ns3:TrackPointExtension>
            <ns3:atemp>22.0</ns3:atemp>
            <ns3:hr>121</ns3:hr>
          </ns3:TrackPointExtension>
        </extensions>
      </trkpt>
      <trkpt lat="-22.1085844002664089202880859375" lon="166.45559775643050670623779296875">
        <ele>477.399993896484375</ele>
        <time>2016-08-12T23:00:01.000Z</time>
        <extensions>
          <ns3:TrackPointExtension>
            <ns3:atemp>22.0</ns3:atemp>
            <ns3:hr>121</ns3:hr>
          </ns3:TrackPointExtension>
        </extensions>
      </trkpt>
      <trkpt lat="-22.10859621874988079071044921875" lon="166.45557194016873836517333984375">
        <ele>477.399993896484375</ele>
        <time>2016-08-12T23:00:02.000Z</time>
        <extensions>
          <ns3:TrackPointExtension>
            <ns3:atemp>22.0</ns3:atemp>
            <ns3:hr>121</ns3:hr>
          </ns3:TrackPointExtension>
        </extensions>
      </trkpt>
      <trkpt lat="-22.108605019748210906982421875" lon="166.45554360933601856231689453125">
        <ele>477</ele>
        <time>2016-08-12T23:00:03.000Z</time>
        <extensions>
          <ns3:TrackPointExtension>
            <ns3:atemp>22.0</ns3:atemp>
            <ns3:hr>121</ns3:hr>
          </ns3:TrackPointExtension>
        </extensions>
      </trkpt>
      <trkpt lat="-22.10861734114587306976318359375" lon="166.45551846362650394439697265625">
        <ele>476.600006103515625</ele>
        <time>2016-08-12T23:00:04.000Z</time>
        <extensions>
          <ns3:TrackPointExtension>
            <ns3:atemp>22.0</ns3:atemp>
            <ns3:hr>121</ns3:hr>
          </ns3:TrackPointExtension>
        </extensions>
      </trkpt>
      <trkpt lat="-22.10862773470580577850341796875" lon="166.455491892993450164794921875">
        <ele>476.600006103515625</ele>
        <time>2016-08-12T23:00:05.000Z</time>
        <extensions>
          <ns3:TrackPointExtension>
            <ns3:atemp>22.0</ns3:atemp>
            <ns3:hr>121</ns3:hr>
          </ns3:TrackPointExtension>
        </extensions>
      </trkpt>
      <trkpt lat="-22.10863150656223297119140625" lon="166.45545962266623973846435546875">
        <ele>476</ele>
        <time>2016-08-12T23:00:06.000Z</time>
        <extensions>
          <ns3:TrackPointExtension>
            <ns3:atemp>22.0</ns3:atemp>
            <ns3:hr>121</ns3:hr>
          </ns3:TrackPointExtension>
        </extensions>
      </trkpt>
      <trkpt lat="-22.10863108746707439422607421875" lon="166.45542659796774387359619140625">
        <ele>475.600006103515625</ele>
        <time>2016-08-12T23:00:07.000Z</time>
        <extensions>
          <ns3:TrackPointExtension>
            <ns3:atemp>22.0</ns3:atemp>
            <ns3:hr>122</ns3:hr>
          </ns3:TrackPointExtension>
        </extensions>
      </trkpt>
      <trkpt lat="-22.1086501143872737884521484375" lon="166.45540145225822925567626953125">
        <ele>475.399993896484375</ele>
        <time>2016-08-12T23:00:08.000Z</time>
        <extensions>
          <ns3:TrackPointExtension>
            <ns3:atemp>22.0</ns3:atemp>
            <ns3:hr>122</ns3:hr>
          </ns3:TrackPointExtension>
        </extensions>
      </trkpt>
      <trkpt lat="-22.108668386936187744140625" lon="166.455378569662570953369140625">
        <ele>475.20001220703125</ele>
        <time>2016-08-12T23:00:09.000Z</time>
        <extensions>
          <ns3:TrackPointExtension>
            <ns3:atemp>22.0</ns3:atemp>
            <ns3:hr>122</ns3:hr>
          </ns3:TrackPointExtension>
        </extensions>
      </trkpt>
      <trkpt lat="-22.10870769806206226348876953125" lon="166.45536943338811397552490234375">
        <ele>475</ele>
        <time>2016-08-12T23:00:10.000Z</time>
        <extensions>
          <ns3:TrackPointExtension>
            <ns3:atemp>22.0</ns3:atemp>
            <ns3:hr>122</ns3:hr>
          </ns3:TrackPointExtension>
        </extensions>
      </trkpt>
      <trkpt lat="-22.10873904637992382049560546875" lon="166.45535937510430812835693359375">
        <ele>475</ele>
        <time>2016-08-12T23:00:11.000Z</time>
        <extensions>
          <ns3:TrackPointExtension>
            <ns3:atemp>22.0</ns3:atemp>
            <ns3:hr>122</ns3:hr>
          </ns3:TrackPointExtension>
        </extensions>
      </trkpt>
      <trkpt lat="-22.1087624318897724151611328125" lon="166.45534914918243885040283203125">
        <ele>474.79998779296875</ele>
        <time>2016-08-12T23:00:12.000Z</time>
        <extensions>
          <ns3:TrackPointExtension>
            <ns3:atemp>22.0</ns3:atemp>
            <ns3:hr>122</ns3:hr>
          </ns3:TrackPointExtension>
        </extensions>
      </trkpt>
      <trkpt lat="-22.1087879128754138946533203125" lon="166.45534059964120388031005859375">
        <ele>474.79998779296875</ele>
        <time>2016-08-12T23:00:13.000Z</time>
        <extensions>
          <ns3:TrackPointExtension>
            <ns3:atemp>22.0</ns3:atemp>
            <ns3:hr>122</ns3:hr>
          </ns3:TrackPointExtension>
        </extensions>
      </trkpt>
      <trkpt lat="-22.10880928672850131988525390625" lon="166.45533272065222263336181640625">
        <ele>475.20001220703125</ele>
        <time>2016-08-12T23:00:14.000Z</time>
        <extensions>
          <ns3:TrackPointExtension>
            <ns3:atemp>22.0</ns3:atemp>
            <ns3:hr>123</ns3:hr>
          </ns3:TrackPointExtension>
        </extensions>
      </trkpt>
      <trkpt lat="-22.1088428981602191925048828125" lon="166.45533171482384204864501953125">
        <ele>475.600006103515625</ele>
        <time>2016-08-12T23:00:15.000Z</time>
        <extensions>
          <ns3:TrackPointExtension>
            <ns3:atemp>22.0</ns3:atemp>
            <ns3:hr>123</ns3:hr>
          </ns3:TrackPointExtension>
        </extensions>
      </trkpt>
      <trkpt lat="-22.10886661894619464874267578125" lon="166.45532702095806598663330078125">
        <ele>476</ele>
        <time>2016-08-12T23:00:16.000Z</time>
        <extensions>
          <ns3:TrackPointExtension>
            <ns3:atemp>22.0</ns3:atemp>
            <ns3:hr>122</ns3:hr>
          </ns3:TrackPointExtension>
        </extensions>
      </trkpt>
      <trkpt lat="-22.10888489149510860443115234375" lon="166.45532232709228992462158203125">
        <ele>475.79998779296875</ele>
        <time>2016-08-12T23:00:17.000Z</time>
        <extensions>
          <ns3:TrackPointExtension>
            <ns3:atemp>22.0</ns3:atemp>
            <ns3:hr>123</ns3:hr>
          </ns3:TrackPointExtension>
        </extensions>
      </trkpt>
      <trkpt lat="-22.10891070775687694549560546875" lon="166.45531947724521160125732421875">
        <ele>475.600006103515625</ele>
        <time>2016-08-12T23:00:18.000Z</time>
        <extensions>
          <ns3:TrackPointExtension>
            <ns3:atemp>22.0</ns3:atemp>
            <ns3:hr>123</ns3:hr>
          </ns3:TrackPointExtension>
        </extensions>
      </trkpt>
      <trkpt lat="-22.10894037969410419464111328125" lon="166.45531511865556240081787109375">
        <ele>475.600006103515625</ele>
        <time>2016-08-12T23:00:19.000Z</time>
        <extensions>
          <ns3:TrackPointExtension>
            <ns3:atemp>22.0</ns3:atemp>
            <ns3:hr>123</ns3:hr>
          </ns3:TrackPointExtension>
        </extensions>
      </trkpt>
      <trkpt lat="-22.108979858458042144775390625" lon="166.4553116820752620697021484375">
        <ele>475.399993896484375</ele>
        <time>2016-08-12T23:00:20.000Z</time>
        <extensions>
          <ns3:TrackPointExtension>
            <ns3:atemp>22.0</ns3:atemp>
            <ns3:hr>123</ns3:hr>
          </ns3:TrackPointExtension>
        </extensions>
      </trkpt>
      <trkpt lat="-22.10901078768074512481689453125" lon="166.4553044736385345458984375">
        <ele>475</ele>
        <time>2016-08-12T23:00:21.000Z</time>
        <extensions>
          <ns3:TrackPointExtension>
            <ns3:atemp>22.0</ns3:atemp>
            <ns3:hr>124</ns3:hr>
          </ns3:TrackPointExtension>
        </extensions>
      </trkpt>
      <trkpt lat="-22.10903249680995941162109375" lon="166.4552939124405384063720703125">
        <ele>475</ele>
        <time>2016-08-12T23:00:22.000Z</time>
        <extensions>
          <ns3:TrackPointExtension>
            <ns3:atemp>22.0</ns3:atemp>
            <ns3:hr>124</ns3:hr>
          </ns3:TrackPointExtension>
        </extensions>
      </trkpt>
      <trkpt lat="-22.1090531162917613983154296875" lon="166.45527991466224193572998046875">
        <ele>475</ele>
        <time>2016-08-12T23:00:23.000Z</time>
        <extensions>
          <ns3:TrackPointExtension>
            <ns3:atemp>22.0</ns3:atemp>
            <ns3:hr>124</ns3:hr>
          </ns3:TrackPointExtension>
        </extensions>
      </trkpt>
      <trkpt lat="-22.1090718917548656463623046875" lon="166.45526683889329433441162109375">
        <ele>475</ele>
        <time>2016-08-12T23:00:24.000Z</time>
        <extensions>
          <ns3:TrackPointExtension>
            <ns3:atemp>22.0</ns3:atemp>
            <ns3:hr>124</ns3:hr>
          </ns3:TrackPointExtension>
        </extensions>
      </trkpt>
      <trkpt lat="-22.10908924229443073272705078125" lon="166.45525409840047359466552734375">
        <ele>474.79998779296875</ele>
        <time>2016-08-12T23:00:25.000Z</time>
        <extensions>
          <ns3:TrackPointExtension>
            <ns3:atemp>22.0</ns3:atemp>
            <ns3:hr>125</ns3:hr>
          </ns3:TrackPointExtension>
        </extensions>
      </trkpt>
      <trkpt lat="-22.10911036469042301177978515625" lon="166.455240435898303985595703125">
        <ele>474.79998779296875</ele>
        <time>2016-08-12T23:00:26.000Z</time>
        <extensions>
          <ns3:TrackPointExtension>
            <ns3:atemp>22.0</ns3:atemp>
            <ns3:hr>125</ns3:hr>
          </ns3:TrackPointExtension>
        </extensions>
      </trkpt>
      <trkpt lat="-22.10912629030644893646240234375" lon="166.45522593520581722259521484375">
        <ele>474.79998779296875</ele>
        <time>2016-08-12T23:00:27.000Z</time>
        <extensions>
          <ns3:TrackPointExtension>
            <ns3:atemp>22.0</ns3:atemp>
            <ns3:hr>125</ns3:hr>
          </ns3:TrackPointExtension>
        </extensions>
      </trkpt>
      <trkpt lat="-22.10915612988173961639404296875" lon="166.45521637983620166778564453125">
        <ele>474.79998779296875</ele>
        <time>2016-08-12T23:00:28.000Z</time>
        <extensions>
          <ns3:TrackPointExtension>
            <ns3:atemp>22.0</ns3:atemp>
            <ns3:hr>126</ns3:hr>
          </ns3:TrackPointExtension>
        </extensions>
      </trkpt>
      <trkpt lat="-22.10918110795319080352783203125" lon="166.4552064053714275360107421875">
        <ele>475</ele>
        <time>2016-08-12T23:00:29.000Z</time>
        <extensions>
          <ns3:TrackPointExtension>
            <ns3:atemp>22.0</ns3:atemp>
            <ns3:hr>126</ns3:hr>
          </ns3:TrackPointExtension>
        </extensions>
      </trkpt>
      <trkpt lat="-22.10920357145369052886962890625" lon="166.45519785583019256591796875">
        <ele>475</ele>
        <time>2016-08-12T23:00:30.000Z</time>
        <extensions>
          <ns3:TrackPointExtension>
            <ns3:atemp>22.0</ns3:atemp>
            <ns3:hr>126</ns3:hr>
          </ns3:TrackPointExtension>
        </extensions>
      </trkpt>
      <trkpt lat="-22.109237015247344970703125" lon="166.45519517362117767333984375">
        <ele>475</ele>
        <time>2016-08-12T23:00:31.000Z</time>
        <extensions>
          <ns3:TrackPointExtension>
            <ns3:atemp>22.0</ns3:atemp>
            <ns3:hr>127</ns3:hr>
          </ns3:TrackPointExtension>
        </extensions>
      </trkpt>
      <trkpt lat="-22.1092596463859081268310546875" lon="166.455193497240543365478515625">
        <ele>474.79998779296875</ele>
        <time>2016-08-12T23:00:32.000Z</time>
        <extensions>
          <ns3:TrackPointExtension>
            <ns3:atemp>22.0</ns3:atemp>
            <ns3:hr>127</ns3:hr>
          </ns3:TrackPointExtension>
        </extensions>
      </trkpt>
      <trkpt lat="-22.10928261280059814453125" lon="166.45519785583019256591796875">
        <ele>474.600006103515625</ele>
        <time>2016-08-12T23:00:33.000Z</time>
        <extensions>
          <ns3:TrackPointExtension>
            <ns3:atemp>22.0</ns3:atemp>
            <ns3:hr>127</ns3:hr>
          </ns3:TrackPointExtension>
        </extensions>
      </trkpt>
      <trkpt lat="-22.1093106083571910858154296875" lon="166.455202884972095489501953125">
        <ele>474.20001220703125</ele>
        <time>2016-08-12T23:00:34.000Z</time>
        <extensions>
          <ns3:TrackPointExtension>
            <ns3:atemp>22.0</ns3:atemp>
            <ns3:hr>128</ns3:hr>
          </ns3:TrackPointExtension>
        </extensions>
      </trkpt>
      <trkpt lat="-22.10933499969542026519775390625" lon="166.4552132785320281982421875">
        <ele>474</ele>
        <time>2016-08-12T23:00:35.000Z</time>
        <extensions>
          <ns3:TrackPointExtension>
            <ns3:atemp>22.0</ns3:atemp>
            <ns3:hr>128</ns3:hr>
          </ns3:TrackPointExtension>
        </extensions>
      </trkpt>
      <trkpt lat="-22.10936182178556919097900390625" lon="166.45522694103419780731201171875">
        <ele>473.79998779296875</ele>
        <time>2016-08-12T23:00:36.000Z</time>
        <extensions>
          <ns3:TrackPointExtension>
            <ns3:atemp>22.0</ns3:atemp>
            <ns3:hr>128</ns3:hr>
          </ns3:TrackPointExtension>
        </extensions>
      </trkpt>
      <trkpt lat="-22.10938788950443267822265625" lon="166.4552402682602405548095703125">
        <ele>473.600006103515625</ele>
        <time>2016-08-12T23:00:37.000Z</time>
        <extensions>
          <ns3:TrackPointExtension>
            <ns3:atemp>22.0</ns3:atemp>
            <ns3:hr>129</ns3:hr>
          </ns3:TrackPointExtension>
        </extensions>
      </trkpt>
      <trkpt lat="-22.1094138734042644500732421875" lon="166.455252505838871002197265625">
        <ele>473.399993896484375</ele>
        <time>2016-08-12T23:00:38.000Z</time>
        <extensions>
          <ns3:TrackPointExtension>
            <ns3:atemp>22.0</ns3:atemp>
            <ns3:hr>129</ns3:hr>
          </ns3:TrackPointExtension>
        </extensions>
      </trkpt>
      <trkpt lat="-22.109439186751842498779296875" lon="166.4552654139697551727294921875">
        <ele>473</ele>
        <time>2016-08-12T23:00:39.000Z</time>
        <extensions>
          <ns3:TrackPointExtension>
            <ns3:atemp>22.0</ns3:atemp>
            <ns3:hr>129</ns3:hr>
          </ns3:TrackPointExtension>
        </extensions>
      </trkpt>
      <trkpt lat="-22.10945787839591503143310546875" lon="166.4552794955670833587646484375">
        <ele>472.600006103515625</ele>
        <time>2016-08-12T23:00:40.000Z</time>
        <extensions>
          <ns3:TrackPointExtension>
            <ns3:atemp>22.0</ns3:atemp>
            <ns3:hr>130</ns3:hr>
          </ns3:TrackPointExtension>
        </extensions>
      </trkpt>
      <trkpt lat="-22.1094752289354801177978515625" lon="166.45529382862150669097900390625">
        <ele>472.20001220703125</ele>
        <time>2016-08-12T23:00:41.000Z</time>
        <extensions>
          <ns3:TrackPointExtension>
            <ns3:atemp>22.0</ns3:atemp>
            <ns3:hr>129</ns3:hr>
          </ns3:TrackPointExtension>
        </extensions>
      </trkpt>
      <trkpt lat="-22.10949727334082126617431640625" lon="166.4553059823811054229736328125">
        <ele>471.79998779296875</ele>
        <time>2016-08-12T23:00:42.000Z</time>
        <extensions>
          <ns3:TrackPointExtension>
            <ns3:atemp>22.0</ns3:atemp>
            <ns3:hr>130</ns3:hr>
          </ns3:TrackPointExtension>
        </extensions>
      </trkpt>
      <trkpt lat="-22.10951839573681354522705078125" lon="166.4553173817694187164306640625">
        <ele>471</ele>
        <time>2016-08-12T23:00:43.000Z</time>
        <extensions>
          <ns3:TrackPointExtension>
            <ns3:atemp>22.0</ns3:atemp>
            <ns3:hr>130</ns3:hr>
          </ns3:TrackPointExtension>
        </extensions>
      </trkpt>
      <trkpt lat="-22.10954102687537670135498046875" lon="166.455332972109317779541015625">
        <ele>470.20001220703125</ele>
        <time>2016-08-12T23:00:44.000Z</time>
        <extensions>
          <ns3:TrackPointExtension>
            <ns3:atemp>22.0</ns3:atemp>
            <ns3:hr>130</ns3:hr>
          </ns3:TrackPointExtension>
        </extensions>
      </trkpt>
      <trkpt lat="-22.10956181399524211883544921875" lon="166.45534596405923366546630859375">
        <ele>469.79998779296875</ele>
        <time>2016-08-12T23:00:45.000Z</time>
        <extensions>
          <ns3:TrackPointExtension>
            <ns3:atemp>22.0</ns3:atemp>
            <ns3:hr>130</ns3:hr>
          </ns3:TrackPointExtension>
        </extensions>
      </trkpt>
      <trkpt lat="-22.1095784939825534820556640625" lon="166.4553613029420375823974609375">
        <ele>469.399993896484375</ele>
        <time>2016-08-12T23:00:46.000Z</time>
        <extensions>
          <ns3:TrackPointExtension>
            <ns3:atemp>22.0</ns3:atemp>
            <ns3:hr>130</ns3:hr>
          </ns3:TrackPointExtension>
        </extensions>
      </trkpt>
      <trkpt lat="-22.10959701798856258392333984375" lon="166.4553757198154926300048828125">
        <ele>469</ele>
        <time>2016-08-12T23:00:47.000Z</time>
        <extensions>
          <ns3:TrackPointExtension>
            <ns3:atemp>22.0</ns3:atemp>
            <ns3:hr>130</ns3:hr>
          </ns3:TrackPointExtension>
        </extensions>
      </trkpt>
      <trkpt lat="-22.109617888927459716796875" lon="166.45539055578410625457763671875">
        <ele>468.399993896484375</ele>
        <time>2016-08-12T23:00:48.000Z</time>
        <extensions>
          <ns3:TrackPointExtension>
            <ns3:atemp>22.0</ns3:atemp>
            <ns3:hr>131</ns3:hr>
          </ns3:TrackPointExtension>
        </extensions>
      </trkpt>
      <trkpt lat="-22.1096371673047542572021484375" lon="166.45540245808660984039306640625">
        <ele>468</ele>
        <time>2016-08-12T23:00:49.000Z</time>
        <extensions>
          <ns3:TrackPointExtension>
            <ns3:atemp>22.0</ns3:atemp>
            <ns3:hr>131</ns3:hr>
          </ns3:TrackPointExtension>
        </extensions>
      </trkpt>
      <trkpt lat="-22.1096623130142688751220703125" lon="166.4554171264171600341796875">
        <ele>467.600006103515625</ele>
        <time>2016-08-12T23:00:50.000Z</time>
        <extensions>
          <ns3:TrackPointExtension>
            <ns3:atemp>22.0</ns3:atemp>
            <ns3:hr>131</ns3:hr>
          </ns3:TrackPointExtension>
        </extensions>
      </trkpt>
      <trkpt lat="-22.1096889674663543701171875" lon="166.4554283581674098968505859375">
        <ele>467.20001220703125</ele>
        <time>2016-08-12T23:00:51.000Z</time>
        <extensions>
          <ns3:TrackPointExtension>
            <ns3:atemp>22.0</ns3:atemp>
            <ns3:hr>131</ns3:hr>
          </ns3:TrackPointExtension>
        </extensions>
      </trkpt>
      <trkpt lat="-22.10971939377486705780029296875" lon="166.45544059574604034423828125">
        <ele>467</ele>
        <time>2016-08-12T23:00:52.000Z</time>
        <extensions>
          <ns3:TrackPointExtension>
            <ns3:atemp>22.0</ns3:atemp>
            <ns3:hr>131</ns3:hr>
          </ns3:TrackPointExtension>
        </extensions>
      </trkpt>
      <trkpt lat="-22.10976080037653446197509765625" lon="166.45544922910630702972412109375">
        <ele>467</ele>
        <time>2016-08-12T23:00:53.000Z</time>
        <extensions>
          <ns3:TrackPointExtension>
            <ns3:atemp>22.0</ns3:atemp>
            <ns3:hr>131</ns3:hr>
          </ns3:TrackPointExtension>
        </extensions>
      </trkpt>
      <trkpt lat="-22.109814696013927459716796875" lon="166.4554669149219989776611328125">
        <ele>466.79998779296875</ele>
        <time>2016-08-12T23:00:54.000Z</time>
        <extensions>
          <ns3:TrackPointExtension>
            <ns3:atemp>22.0</ns3:atemp>
            <ns3:hr>130</ns3:hr>
          </ns3:TrackPointExtension>
        </extensions>
      </trkpt>
      <trkpt lat="-22.1098554320633411407470703125" lon="166.45547068677842617034912109375">
        <ele>466.399993896484375</ele>
        <time>2016-08-12T23:00:55.000Z</time>
        <extensions>
          <ns3:TrackPointExtension>
            <ns3:atemp>22.0</ns3:atemp>
            <ns3:hr>130</ns3:hr>
          </ns3:TrackPointExtension>
        </extensions>
      </trkpt>
      <trkpt lat="-22.10989658720791339874267578125" lon="166.45547051914036273956298828125">
        <ele>466</ele>
        <time>2016-08-12T23:00:56.000Z</time>
        <extensions>
          <ns3:TrackPointExtension>
            <ns3:atemp>22.0</ns3:atemp>
            <ns3:hr>130</ns3:hr>
          </ns3:TrackPointExtension>
        </extensions>
      </trkpt>
      <trkpt lat="-22.10992659442126750946044921875" lon="166.45546683110296726226806640625">
        <ele>466</ele>
        <time>2016-08-12T23:00:57.000Z</time>
        <extensions>
          <ns3:TrackPointExtension>
            <ns3:atemp>22.0</ns3:atemp>
            <ns3:hr>130</ns3:hr>
          </ns3:TrackPointExtension>
        </extensions>
      </trkpt>
      <trkpt lat="-22.10995727218687534332275390625" lon="166.45546071231365203857421875">
        <ele>465.600006103515625</ele>
        <time>2016-08-12T23:00:58.000Z</time>
        <extensions>
          <ns3:TrackPointExtension>
            <ns3:atemp>22.0</ns3:atemp>
            <ns3:hr>130</ns3:hr>
          </ns3:TrackPointExtension>
        </extensions>
      </trkpt>
      <trkpt lat="-22.1099878661334514617919921875" lon="166.45545224659144878387451171875">
        <ele>465.20001220703125</ele>
        <time>2016-08-12T23:00:59.000Z</time>
        <extensions>
          <ns3:TrackPointExtension>
            <ns3:atemp>22.0</ns3:atemp>
            <ns3:hr>130</ns3:hr>
          </ns3:TrackPointExtension>
        </extensions>
      </trkpt>
      <trkpt lat="-22.1100213937461376190185546875" lon="166.4554441161453723907470703125">
        <ele>465</ele>
        <time>2016-08-12T23:01:00.000Z</time>
        <extensions>
          <ns3:TrackPointExtension>
            <ns3:atemp>22.0</ns3:atemp>
            <ns3:hr>130</ns3:hr>
          </ns3:TrackPointExtension>
        </extensions>
      </trkpt>
      <trkpt lat="-22.110052071511745452880859375" lon="166.4554310403764247894287109375">
        <ele>465.20001220703125</ele>
        <time>2016-08-12T23:01:01.000Z</time>
        <extensions>
          <ns3:TrackPointExtension>
            <ns3:atemp>22.0</ns3:atemp>
            <ns3:hr>130</ns3:hr>
          </ns3:TrackPointExtension>
        </extensions>
      </trkpt>
      <trkpt lat="-22.11008149199187755584716796875" lon="166.45542156882584095001220703125">
        <ele>465</ele>
        <time>2016-08-12T23:01:02.000Z</time>
        <extensions>
          <ns3:TrackPointExtension>
            <ns3:atemp>22.0</ns3:atemp>
            <ns3:hr>130</ns3:hr>
          </ns3:TrackPointExtension>
        </extensions>
      </trkpt>
      <trkpt lat="-22.1101068891584873199462890625" lon="166.45540832541882991790771484375">
        <ele>465</ele>
        <time>2016-08-12T23:01:03.000Z</time>
        <extensions>
          <ns3:TrackPointExtension>
            <ns3:atemp>22.0</ns3:atemp>
            <ns3:hr>130</ns3:hr>
          </ns3:TrackPointExtension>
        </extensions>
      </trkpt>
      <trkpt lat="-22.11013211868703365325927734375" lon="166.4553938247263431549072265625">
        <ele>465.20001220703125</ele>
        <time>2016-08-12T23:01:04.000Z</time>
        <extensions>
          <ns3:TrackPointExtension>
            <ns3:atemp>22.0</ns3:atemp>
            <ns3:hr>130</ns3:hr>
          </ns3:TrackPointExtension>
        </extensions>
      </trkpt>
      <trkpt lat="-22.11015307344496250152587890625" lon="166.45537563599646091461181640625">
        <ele>464.79998779296875</ele>
        <time>2016-08-12T23:01:05.000Z</time>
        <extensions>
          <ns3:TrackPointExtension>
            <ns3:atemp>22.0</ns3:atemp>
            <ns3:hr>130</ns3:hr>
          </ns3:TrackPointExtension>
        </extensions>
      </trkpt>
      <trkpt lat="-22.11017134599387645721435546875" lon="166.45535744726657867431640625">
        <ele>464.399993896484375</ele>
        <time>2016-08-12T23:01:06.000Z</time>
        <extensions>
          <ns3:TrackPointExtension>
            <ns3:atemp>22.0</ns3:atemp>
            <ns3:hr>130</ns3:hr>
          </ns3:TrackPointExtension>
        </extensions>
      </trkpt>
      <trkpt lat="-22.11019246838986873626708984375" lon="166.455339677631855010986328125">
        <ele>464.20001220703125</ele>
        <time>2016-08-12T23:01:07.000Z</time>
        <extensions>
          <ns3:TrackPointExtension>
            <ns3:atemp>22.0</ns3:atemp>
            <ns3:hr>130</ns3:hr>
          </ns3:TrackPointExtension>
        </extensions>
      </trkpt>
      <trkpt lat="-22.11021895520389080047607421875" lon="166.45532651804387569427490234375">
        <ele>464.20001220703125</ele>
        <time>2016-08-12T23:01:08.000Z</time>
        <extensions>
          <ns3:TrackPointExtension>
            <ns3:atemp>22.0</ns3:atemp>
            <ns3:hr>130</ns3:hr>
          </ns3:TrackPointExtension>
        </extensions>
      </trkpt>
      <trkpt lat="-22.11024510674178600311279296875" lon="166.4553143642842769622802734375">
        <ele>464</ele>
        <time>2016-08-12T23:01:09.000Z</time>
        <extensions>
          <ns3:TrackPointExtension>
            <ns3:atemp>22.0</ns3:atemp>
            <ns3:hr>130</ns3:hr>
          </ns3:TrackPointExtension>
        </extensions>
      </trkpt>
      <trkpt lat="-22.11027075536549091339111328125" lon="166.4553036354482173919677734375">
        <ele>463.79998779296875</ele>
        <time>2016-08-12T23:01:10.000Z</time>
        <extensions>
          <ns3:TrackPointExtension>
            <ns3:atemp>22.0</ns3:atemp>
            <ns3:hr>129</ns3:hr>
          </ns3:TrackPointExtension>
        </extensions>
      </trkpt>
      <trkpt lat="-22.1102964878082275390625" lon="166.45529215224087238311767578125">
        <ele>463.600006103515625</ele>
        <time>2016-08-12T23:01:11.000Z</time>
        <extensions>
          <ns3:TrackPointExtension>
            <ns3:atemp>22.0</ns3:atemp>
            <ns3:hr>130</ns3:hr>
          </ns3:TrackPointExtension>
        </extensions>
      </trkpt>
      <trkpt lat="-22.11032372899353504180908203125" lon="166.4552808366715908050537109375">
        <ele>463.600006103515625</ele>
        <time>2016-08-12T23:01:12.000Z</time>
        <extensions>
          <ns3:TrackPointExtension>
            <ns3:atemp>22.0</ns3:atemp>
            <ns3:hr>130</ns3:hr>
          </ns3:TrackPointExtension>
        </extensions>
      </trkpt>
      <trkpt lat="-22.110347114503383636474609375" lon="166.4552657492458820343017578125">
        <ele>463.20001220703125</ele>
        <time>2016-08-12T23:01:13.000Z</time>
        <extensions>
          <ns3:TrackPointExtension>
            <ns3:atemp>22.0</ns3:atemp>
            <ns3:hr>130</ns3:hr>
          </ns3:TrackPointExtension>
        </extensions>
      </trkpt>
      <trkpt lat="-22.110373266041278839111328125" lon="166.4552560262382030487060546875">
        <ele>463</ele>
        <time>2016-08-12T23:01:14.000Z</time>
        <extensions>
          <ns3:TrackPointExtension>
            <ns3:atemp>22.0</ns3:atemp>
            <ns3:hr>130</ns3:hr>
          </ns3:TrackPointExtension>
        </extensions>
      </trkpt>
      <trkpt lat="-22.11039774119853973388671875" lon="166.45524688996374607086181640625">
        <ele>462.79998779296875</ele>
        <time>2016-08-12T23:01:15.000Z</time>
        <extensions>
          <ns3:TrackPointExtension>
            <ns3:atemp>22.0</ns3:atemp>
            <ns3:hr>130</ns3:hr>
          </ns3:TrackPointExtension>
        </extensions>
      </trkpt>
      <trkpt lat="-22.11042079143226146697998046875" lon="166.45523272454738616943359375">
        <ele>462.399993896484375</ele>
        <time>2016-08-12T23:01:16.000Z</time>
        <extensions>
          <ns3:TrackPointExtension>
            <ns3:atemp>22.0</ns3:atemp>
            <ns3:hr>130</ns3:hr>
          </ns3:TrackPointExtension>
        </extensions>
      </trkpt>
      <trkpt lat="-22.11044727824628353118896484375" lon="166.455220989882946014404296875">
        <ele>462.399993896484375</ele>
        <time>2016-08-12T23:01:17.000Z</time>
        <extensions>
          <ns3:TrackPointExtension>
            <ns3:atemp>22.0</ns3:atemp>
            <ns3:hr>130</ns3:hr>
          </ns3:TrackPointExtension>
        </extensions>
      </trkpt>
      <trkpt lat="-22.11047108285129070281982421875" lon="166.45521235652267932891845703125">
        <ele>462.399993896484375</ele>
        <time>2016-08-12T23:01:18.000Z</time>
        <extensions>
          <ns3:TrackPointExtension>
            <ns3:atemp>22.0</ns3:atemp>
            <ns3:hr>130</ns3:hr>
          </ns3:TrackPointExtension>
        </extensions>
      </trkpt>
      <trkpt lat="-22.110491953790187835693359375" lon="166.4551971852779388427734375">
        <ele>462.600006103515625</ele>
        <time>2016-08-12T23:01:19.000Z</time>
        <extensions>
          <ns3:TrackPointExtension>
            <ns3:atemp>22.0</ns3:atemp>
            <ns3:hr>130</ns3:hr>
          </ns3:TrackPointExtension>
        </extensions>
      </trkpt>
      <trkpt lat="-22.1105196140706539154052734375" lon="166.45519106648862361907958984375">
        <ele>462.399993896484375</ele>
        <time>2016-08-12T23:01:20.000Z</time>
        <extensions>
          <ns3:TrackPointExtension>
            <ns3:atemp>22.0</ns3:atemp>
            <ns3:hr>130</ns3:hr>
          </ns3:TrackPointExtension>
        </extensions>
      </trkpt>
      <trkpt lat="-22.1105491183698177337646484375" lon="166.4551856182515621185302734375">
        <ele>462</ele>
        <time>2016-08-12T23:01:21.000Z</time>
        <extensions>
          <ns3:TrackPointExtension>
            <ns3:atemp>22.0</ns3:atemp>
            <ns3:hr>130</ns3:hr>
          </ns3:TrackPointExtension>
        </extensions>
      </trkpt>
      <trkpt lat="-22.1105779521167278289794921875" lon="166.45517296157777309417724609375">
        <ele>461.79998779296875</ele>
        <time>2016-08-12T23:01:22.000Z</time>
        <extensions>
          <ns3:TrackPointExtension>
            <ns3:atemp>22.0</ns3:atemp>
            <ns3:hr>130</ns3:hr>
          </ns3:TrackPointExtension>
        </extensions>
      </trkpt>
      <trkpt lat="-22.11060049943625926971435546875" lon="166.4551623165607452392578125">
        <ele>462</ele>
        <time>2016-08-12T23:01:23.000Z</time>
        <extensions>
          <ns3:TrackPointExtension>
            <ns3:atemp>22.0</ns3:atemp>
            <ns3:hr>130</ns3:hr>
          </ns3:TrackPointExtension>
        </extensions>
      </trkpt>
      <trkpt lat="-22.1106222085654735565185546875" lon="166.45515083335340023040771484375">
        <ele>461.79998779296875</ele>
        <time>2016-08-12T23:01:24.000Z</time>
        <extensions>
          <ns3:TrackPointExtension>
            <ns3:atemp>22.0</ns3:atemp>
            <ns3:hr>131</ns3:hr>
          </ns3:TrackPointExtension>
        </extensions>
      </trkpt>
      <trkpt lat="-22.11064442060887813568115234375" lon="166.4551376737654209136962890625">
        <ele>461.600006103515625</ele>
        <time>2016-08-12T23:01:25.000Z</time>
        <extensions>
          <ns3:TrackPointExtension>
            <ns3:atemp>22.0</ns3:atemp>
            <ns3:hr>130</ns3:hr>
          </ns3:TrackPointExtension>
        </extensions>
      </trkpt>
      <trkpt lat="-22.11066973395645618438720703125" lon="166.4551269449293613433837890625">
        <ele>461.600006103515625</ele>
        <time>2016-08-12T23:01:26.000Z</time>
        <extensions>
          <ns3:TrackPointExtension>
            <ns3:atemp>22.0</ns3:atemp>
            <ns3:hr>131</ns3:hr>
          </ns3:TrackPointExtension>
        </extensions>
      </trkpt>
      <trkpt lat="-22.110691107809543609619140625" lon="166.45511479116976261138916015625">
        <ele>461.600006103515625</ele>
        <time>2016-08-12T23:01:27.000Z</time>
        <extensions>
          <ns3:TrackPointExtension>
            <ns3:atemp>22.0</ns3:atemp>
            <ns3:hr>131</ns3:hr>
          </ns3:TrackPointExtension>
        </extensions>
      </trkpt>
      <trkpt lat="-22.11071281693875789642333984375" lon="166.45510272122919559478759765625">
        <ele>461.79998779296875</ele>
        <time>2016-08-12T23:01:28.000Z</time>
        <extensions>
          <ns3:TrackPointExtension>
            <ns3:atemp>22.0</ns3:atemp>
            <ns3:hr>130</ns3:hr>
          </ns3:TrackPointExtension>
        </extensions>
      </trkpt>
      <trkpt lat="-22.1107288263738155364990234375" lon="166.45508679561316967010498046875">
        <ele>461.600006103515625</ele>
        <time>2016-08-12T23:01:29.000Z</time>
        <extensions>
          <ns3:TrackPointExtension>
            <ns3:atemp>22.0</ns3:atemp>
            <ns3:hr>131</ns3:hr>
          </ns3:TrackPointExtension>
        </extensions>
      </trkpt>
      <trkpt lat="-22.1107479371130466461181640625" lon="166.45507045090198516845703125">
        <ele>461.600006103515625</ele>
        <time>2016-08-12T23:01:30.000Z</time>
        <extensions>
          <ns3:TrackPointExtension>
            <ns3:atemp>22.0</ns3:atemp>
            <ns3:hr>131</ns3:hr>
          </ns3:TrackPointExtension>
        </extensions>
      </trkpt>
      <trkpt lat="-22.11076444946229457855224609375" lon="166.455052681267261505126953125">
        <ele>461.600006103515625</ele>
        <time>2016-08-12T23:01:31.000Z</time>
        <extensions>
          <ns3:TrackPointExtension>
            <ns3:atemp>22.0</ns3:atemp>
            <ns3:hr>131</ns3:hr>
          </ns3:TrackPointExtension>
        </extensions>
      </trkpt>
      <trkpt lat="-22.110776938498020172119140625" lon="166.45502778701484203338623046875">
        <ele>461.600006103515625</ele>
        <time>2016-08-12T23:01:32.000Z</time>
        <extensions>
          <ns3:TrackPointExtension>
            <ns3:atemp>22.0</ns3:atemp>
            <ns3:hr>131</ns3:hr>
          </ns3:TrackPointExtension>
        </extensions>
      </trkpt>
      <trkpt lat="-22.1107908524572849273681640625" lon="166.455007083714008331298828125">
        <ele>461.399993896484375</ele>
        <time>2016-08-12T23:01:33.000Z</time>
        <extensions>
          <ns3:TrackPointExtension>
            <ns3:atemp>22.0</ns3:atemp>
            <ns3:hr>131</ns3:hr>
          </ns3:TrackPointExtension>
        </extensions>
      </trkpt>
      <trkpt lat="-22.1107978932559490203857421875" lon="166.4549839496612548828125">
        <ele>461.20001220703125</ele>
        <time>2016-08-12T23:01:34.000Z</time>
        <extensions>
          <ns3:TrackPointExtension>
            <ns3:atemp>23.0</ns3:atemp>
            <ns3:hr>131</ns3:hr>
          </ns3:TrackPointExtension>
        </extensions>
      </trkpt>
      <trkpt lat="-22.1108082868158817291259765625" lon="166.4549646712839603424072265625">
        <ele>461.20001220703125</ele>
        <time>2016-08-12T23:01:35.000Z</time>
        <extensions>
          <ns3:TrackPointExtension>
            <ns3:atemp>22.0</ns3:atemp>
            <ns3:hr>131</ns3:hr>
          </ns3:TrackPointExtension>
        </extensions>
      </trkpt>
      <trkpt lat="-22.11081993766129016876220703125" lon="166.4549479074776172637939453125">
        <ele>461.20001220703125</ele>
        <time>2016-08-12T23:01:36.000Z</time>
        <extensions>
          <ns3:TrackPointExtension>
            <ns3:atemp>23.0</ns3:atemp>
            <ns3:hr>131</ns3:hr>
          </ns3:TrackPointExtension>
        </extensions>
      </trkpt>
      <trkpt lat="-22.11081893183290958404541015625" lon="166.45492133684456348419189453125">
        <ele>461</ele>
        <time>2016-08-12T23:01:37.000Z</time>
        <extensions>
          <ns3:TrackPointExtension>
            <ns3:atemp>23.0</ns3:atemp>
            <ns3:hr>131</ns3:hr>
          </ns3:TrackPointExtension>
        </extensions>
      </trkpt>
      <trkpt lat="-22.11082748137414455413818359375" lon="166.45490088500082492828369140625">
        <ele>460.79998779296875</ele>
        <time>2016-08-12T23:01:38.000Z</time>
        <extensions>
          <ns3:TrackPointExtension>
            <ns3:atemp>23.0</ns3:atemp>
            <ns3:hr>131</ns3:hr>
          </ns3:TrackPointExtension>
        </extensions>
      </trkpt>
      <trkpt lat="-22.1108391322195529937744140625" lon="166.454882360994815826416015625">
        <ele>460.79998779296875</ele>
        <time>2016-08-12T23:01:39.000Z</time>
        <extensions>
          <ns3:TrackPointExtension>
            <ns3:atemp>23.0</ns3:atemp>
            <ns3:hr>131</ns3:hr>
          </ns3:TrackPointExtension>
        </extensions>
      </trkpt>
      <trkpt lat="-22.11085229180753231048583984375" lon="166.45486350171267986297607421875">
        <ele>460.79998779296875</ele>
        <time>2016-08-12T23:01:40.000Z</time>
        <extensions>
          <ns3:TrackPointExtension>
            <ns3:atemp>23.0</ns3:atemp>
            <ns3:hr>130</ns3:hr>
          </ns3:TrackPointExtension>
        </extensions>
      </trkpt>
      <trkpt lat="-22.11086419411003589630126953125" lon="166.45484304986894130706787109375">
        <ele>460.600006103515625</ele>
        <time>2016-08-12T23:01:41.000Z</time>
        <extensions>
          <ns3:TrackPointExtension>
            <ns3:atemp>23.0</ns3:atemp>
            <ns3:hr>131</ns3:hr>
          </ns3:TrackPointExtension>
        </extensions>
      </trkpt>
      <trkpt lat="-22.11088716052472591400146484375" lon="166.454826705157756805419921875">
        <ele>460.600006103515625</ele>
        <time>2016-08-12T23:01:42.000Z</time>
        <extensions>
          <ns3:TrackPointExtension>
            <ns3:atemp>23.0</ns3:atemp>
            <ns3:hr>131</ns3:hr>
          </ns3:TrackPointExtension>
        </extensions>
      </trkpt>
      <trkpt lat="-22.11091431789100170135498046875" lon="166.4548134617507457733154296875">
        <ele>460.399993896484375</ele>
        <time>2016-08-12T23:01:43.000Z</time>
        <extensions>
          <ns3:TrackPointExtension>
            <ns3:atemp>23.0</ns3:atemp>
            <ns3:hr>131</ns3:hr>
          </ns3:TrackPointExtension>
        </extensions>
      </trkpt>
      <trkpt lat="-22.1109326742589473724365234375" lon="166.4547980390489101409912109375">
        <ele>460.399993896484375</ele>
        <time>2016-08-12T23:01:44.000Z</time>
        <extensions>
          <ns3:TrackPointExtension>
            <ns3:atemp>23.0</ns3:atemp>
            <ns3:hr>131</ns3:hr>
          </ns3:TrackPointExtension>
        </extensions>
      </trkpt>
      <trkpt lat="-22.11095203645527362823486328125" lon="166.4547806046903133392333984375">
        <ele>460.399993896484375</ele>
        <time>2016-08-12T23:01:45.000Z</time>
        <extensions>
          <ns3:TrackPointExtension>
            <ns3:atemp>23.0</ns3:atemp>
            <ns3:hr>130</ns3:hr>
          </ns3:TrackPointExtension>
        </extensions>
      </trkpt>
      <trkpt lat="-22.11097114719450473785400390625" lon="166.4547624997794628143310546875">
        <ele>460.399993896484375</ele>
        <time>2016-08-12T23:01:46.000Z</time>
        <extensions>
          <ns3:TrackPointExtension>
            <ns3:atemp>23.0</ns3:atemp>
            <ns3:hr>131</ns3:hr>
          </ns3:TrackPointExtension>
        </extensions>
      </trkpt>
      <trkpt lat="-22.11098916828632354736328125" lon="166.454749591648578643798828125">
        <ele>460.600006103515625</ele>
        <time>2016-08-12T23:01:47.000Z</time>
        <extensions>
          <ns3:TrackPointExtension>
            <ns3:atemp>23.0</ns3:atemp>
            <ns3:hr>130</ns3:hr>
          </ns3:TrackPointExtension>
        </extensions>
      </trkpt>
      <trkpt lat="-22.11101599037647247314453125" lon="166.45474397577345371246337890625">
        <ele>460.600006103515625</ele>
        <time>2016-08-12T23:01:48.000Z</time>
        <extensions>
          <ns3:TrackPointExtension>
            <ns3:atemp>23.0</ns3:atemp>
            <ns3:hr>131</ns3:hr>
          </ns3:TrackPointExtension>
        </extensions>
      </trkpt>
      <trkpt lat="-22.1110345982015132904052734375" lon="166.4547393657267093658447265625">
        <ele>460.600006103515625</ele>
        <time>2016-08-12T23:01:49.000Z</time>
        <extensions>
          <ns3:TrackPointExtension>
            <ns3:atemp>23.0</ns3:atemp>
            <ns3:hr>130</ns3:hr>
          </ns3:TrackPointExtension>
        </extensions>
      </trkpt>
      <trkpt lat="-22.111054547131061553955078125" lon="166.45474347285926342010498046875">
        <ele>460.600006103515625</ele>
        <time>2016-08-12T23:01:50.000Z</time>
        <extensions>
          <ns3:TrackPointExtension>
            <ns3:atemp>23.0</ns3:atemp>
            <ns3:hr>130</ns3:hr>
          </ns3:TrackPointExtension>
        </extensions>
      </trkpt>
      <trkpt lat="-22.11107173003256320953369140625" lon="166.45474514923989772796630859375">
        <ele>460.600006103515625</ele>
        <time>2016-08-12T23:01:51.000Z</time>
        <extensions>
          <ns3:TrackPointExtension>
            <ns3:atemp>23.0</ns3:atemp>
            <ns3:hr>130</ns3:hr>
          </ns3:TrackPointExtension>
        </extensions>
      </trkpt>
      <trkpt lat="-22.111090756952762603759765625" lon="166.45474229939281940460205078125">
        <ele>460.20001220703125</ele>
        <time>2016-08-12T23:01:52.000Z</time>
        <extensions>
          <ns3:TrackPointExtension>
            <ns3:atemp>23.0</ns3:atemp>
            <ns3:hr>130</ns3:hr>
          </ns3:TrackPointExtension>
        </extensions>
      </trkpt>
      <trkpt lat="-22.11111498065292835235595703125" lon="166.45474364049732685089111328125">
        <ele>460</ele>
        <time>2016-08-12T23:01:53.000Z</time>
        <extensions>
          <ns3:TrackPointExtension>
            <ns3:atemp>23.0</ns3:atemp>
            <ns3:hr>131</ns3:hr>
          </ns3:TrackPointExtension>
        </extensions>
      </trkpt>
      <trkpt lat="-22.11113677360117435455322265625" lon="166.454746909439563751220703125">
        <ele>460</ele>
        <time>2016-08-12T23:01:54.000Z</time>
        <extensions>
          <ns3:TrackPointExtension>
            <ns3:atemp>23.0</ns3:atemp>
            <ns3:hr>130</ns3:hr>
          </ns3:TrackPointExtension>
        </extensions>
      </trkpt>
      <trkpt lat="-22.1111542917788028717041015625" lon="166.4547500945627689361572265625">
        <ele>460</ele>
        <time>2016-08-12T23:01:55.000Z</time>
        <extensions>
          <ns3:TrackPointExtension>
            <ns3:atemp>23.0</ns3:atemp>
            <ns3:hr>131</ns3:hr>
          </ns3:TrackPointExtension>
        </extensions>
      </trkpt>
      <trkpt lat="-22.1111801080405712127685546875" lon="166.4547571353614330291748046875">
        <ele>460.20001220703125</ele>
        <time>2016-08-12T23:01:56.000Z</time>
        <extensions>
          <ns3:TrackPointExtension>
            <ns3:atemp>23.0</ns3:atemp>
            <ns3:hr>130</ns3:hr>
          </ns3:TrackPointExtension>
        </extensions>
      </trkpt>
      <trkpt lat="-22.11119838058948516845703125" lon="166.4547588117420673370361328125">
        <ele>460.20001220703125</ele>
        <time>2016-08-12T23:01:57.000Z</time>
        <extensions>
          <ns3:TrackPointExtension>
            <ns3:atemp>23.0</ns3:atemp>
            <ns3:hr>131</ns3:hr>
          </ns3:TrackPointExtension>
        </extensions>
      </trkpt>
      <trkpt lat="-22.11121690459549427032470703125" lon="166.45475788973271846771240234375">
        <ele>460.20001220703125</ele>
        <time>2016-08-12T23:01:58.000Z</time>
        <extensions>
          <ns3:TrackPointExtension>
            <ns3:atemp>23.0</ns3:atemp>
            <ns3:hr>131</ns3:hr>
          </ns3:TrackPointExtension>
        </extensions>
      </trkpt>
      <trkpt lat="-22.11123953573405742645263671875" lon="166.45476124249398708343505859375">
        <ele>460.20001220703125</ele>
        <time>2016-08-12T23:01:59.000Z</time>
        <extensions>
          <ns3:TrackPointExtension>
            <ns3:atemp>23.0</ns3:atemp>
            <ns3:hr>131</ns3:hr>
          </ns3:TrackPointExtension>
        </extensions>
      </trkpt>
      <trkpt lat="-22.1112634241580963134765625" lon="166.45477029494941234588623046875">
        <ele>460.20001220703125</ele>
        <time>2016-08-12T23:02:00.000Z</time>
        <extensions>
          <ns3:TrackPointExtension>
            <ns3:atemp>23.0</ns3:atemp>
            <ns3:hr>131</ns3:hr>
          </ns3:TrackPointExtension>
        </extensions>
      </trkpt>
      <trkpt lat="-22.1112863905727863311767578125" lon="166.45477146841585636138916015625">
        <ele>460</ele>
        <time>2016-08-12T23:02:01.000Z</time>
        <extensions>
          <ns3:TrackPointExtension>
            <ns3:atemp>23.0</ns3:atemp>
            <ns3:hr>131</ns3:hr>
          </ns3:TrackPointExtension>
        </extensions>
      </trkpt>
      <trkpt lat="-22.111307680606842041015625" lon="166.4547712169587612152099609375">
        <ele>459.79998779296875</ele>
        <time>2016-08-12T23:02:02.000Z</time>
        <extensions>
          <ns3:TrackPointExtension>
            <ns3:atemp>23.0</ns3:atemp>
            <ns3:hr>131</ns3:hr>
          </ns3:TrackPointExtension>
        </extensions>
      </trkpt>
      <trkpt lat="-22.1113252826035022735595703125" lon="166.454770378768444061279296875">
        <ele>459.600006103515625</ele>
        <time>2016-08-12T23:02:03.000Z</time>
        <extensions>
          <ns3:TrackPointExtension>
            <ns3:atemp>23.0</ns3:atemp>
            <ns3:hr>131</ns3:hr>
          </ns3:TrackPointExtension>
        </extensions>
      </trkpt>
      <trkpt lat="-22.11134313605725765228271484375" lon="166.4547816105186939239501953125">
        <ele>459.20001220703125</ele>
        <time>2016-08-12T23:02:04.000Z</time>
        <extensions>
          <ns3:TrackPointExtension>
            <ns3:atemp>23.0</ns3:atemp>
            <ns3:hr>131</ns3:hr>
          </ns3:TrackPointExtension>
        </extensions>
      </trkpt>
      <trkpt lat="-22.1113578043878078460693359375" lon="166.45479644648730754852294921875">
        <ele>458.79998779296875</ele>
        <time>2016-08-12T23:02:05.000Z</time>
        <extensions>
          <ns3:TrackPointExtension>
            <ns3:atemp>23.0</ns3:atemp>
            <ns3:hr>131</ns3:hr>
          </ns3:TrackPointExtension>
        </extensions>
      </trkpt>
      <trkpt lat="-22.11137968115508556365966796875" lon="166.45481564104557037353515625">
        <ele>458.600006103515625</ele>
        <time>2016-08-12T23:02:06.000Z</time>
        <extensions>
          <ns3:TrackPointExtension>
            <ns3:atemp>23.0</ns3:atemp>
            <ns3:hr>131</ns3:hr>
          </ns3:TrackPointExtension>
        </extensions>
      </trkpt>
      <trkpt lat="-22.11140700615942478179931640625" lon="166.45483701489865779876708984375">
        <ele>458.79998779296875</ele>
        <time>2016-08-12T23:02:07.000Z</time>
        <extensions>
          <ns3:TrackPointExtension>
            <ns3:atemp>23.0</ns3:atemp>
            <ns3:hr>131</ns3:hr>
          </ns3:TrackPointExtension>
        </extensions>
      </trkpt>
      <trkpt lat="-22.111424691975116729736328125" lon="166.45485713146626949310302734375">
        <ele>458.79998779296875</ele>
        <time>2016-08-12T23:02:08.000Z</time>
        <extensions>
          <ns3:TrackPointExtension>
            <ns3:atemp>23.0</ns3:atemp>
            <ns3:hr>132</ns3:hr>
          </ns3:TrackPointExtension>
        </extensions>
      </trkpt>
      <trkpt lat="-22.11144246160984039306640625" lon="166.454879678785800933837890625">
        <ele>458.79998779296875</ele>
        <time>2016-08-12T23:02:09.000Z</time>
        <extensions>
          <ns3:TrackPointExtension>
            <ns3:atemp>23.0</ns3:atemp>
            <ns3:hr>131</ns3:hr>
          </ns3:TrackPointExtension>
        </extensions>
      </trkpt>
      <trkpt lat="-22.11146257817745208740234375" lon="166.454906165599822998046875">
        <ele>458.600006103515625</ele>
        <time>2016-08-12T23:02:10.000Z</time>
        <extensions>
          <ns3:TrackPointExtension>
            <ns3:atemp>23.0</ns3:atemp>
            <ns3:hr>132</ns3:hr>
          </ns3:TrackPointExtension>
        </extensions>
      </trkpt>
      <trkpt lat="-22.111479677259922027587890625" lon="166.45493256859481334686279296875">
        <ele>458.20001220703125</ele>
        <time>2016-08-12T23:02:11.000Z</time>
        <extensions>
          <ns3:TrackPointExtension>
            <ns3:atemp>23.0</ns3:atemp>
            <ns3:hr>131</ns3:hr>
          </ns3:TrackPointExtension>
        </extensions>
      </trkpt>
      <trkpt lat="-22.1114945970475673675537109375" lon="166.45496140234172344207763671875">
        <ele>457.600006103515625</ele>
        <time>2016-08-12T23:02:12.000Z</time>
        <extensions>
          <ns3:TrackPointExtension>
            <ns3:atemp>23.0</ns3:atemp>
            <ns3:hr>131</ns3:hr>
          </ns3:TrackPointExtension>
        </extensions>
      </trkpt>
      <trkpt lat="-22.111513875424861907958984375" lon="166.4549884758889675140380859375">
        <ele>457</ele>
        <time>2016-08-12T23:02:13.000Z</time>
        <extensions>
          <ns3:TrackPointExtension>
            <ns3:atemp>23.0</ns3:atemp>
            <ns3:hr>132</ns3:hr>
          </ns3:TrackPointExtension>
        </extensions>
      </trkpt>
      <trkpt lat="-22.11152954958379268646240234375" lon="166.45501144230365753173828125">
        <ele>456.600006103515625</ele>
        <time>2016-08-12T23:02:14.000Z</time>
        <extensions>
          <ns3:TrackPointExtension>
            <ns3:atemp>23.0</ns3:atemp>
            <ns3:hr>133</ns3:hr>
          </ns3:TrackPointExtension>
        </extensions>
      </trkpt>
      <trkpt lat="-22.1115422062575817108154296875" lon="166.45503952167928218841552734375">
        <ele>456.20001220703125</ele>
        <time>2016-08-12T23:02:15.000Z</time>
        <extensions>
          <ns3:TrackPointExtension>
            <ns3:atemp>23.0</ns3:atemp>
            <ns3:hr>132</ns3:hr>
          </ns3:TrackPointExtension>
        </extensions>
      </trkpt>
      <trkpt lat="-22.11155016906559467315673828125" lon="166.4550657570362091064453125">
        <ele>455.79998779296875</ele>
        <time>2016-08-12T23:02:16.000Z</time>
        <extensions>
          <ns3:TrackPointExtension>
            <ns3:atemp>23.0</ns3:atemp>
            <ns3:hr>132</ns3:hr>
          </ns3:TrackPointExtension>
        </extensions>
      </trkpt>
      <trkpt lat="-22.11156056262552738189697265625" lon="166.4550917409360408782958984375">
        <ele>455.20001220703125</ele>
        <time>2016-08-12T23:02:17.000Z</time>
        <extensions>
          <ns3:TrackPointExtension>
            <ns3:atemp>23.0</ns3:atemp>
            <ns3:hr>132</ns3:hr>
          </ns3:TrackPointExtension>
        </extensions>
      </trkpt>
      <trkpt lat="-22.11157363839447498321533203125" lon="166.4551192335784435272216796875">
        <ele>455</ele>
        <time>2016-08-12T23:02:18.000Z</time>
        <extensions>
          <ns3:TrackPointExtension>
            <ns3:atemp>23.0</ns3:atemp>
            <ns3:hr>132</ns3:hr>
          </ns3:TrackPointExtension>
        </extensions>
      </trkpt>
      <trkpt lat="-22.11158805526793003082275390625" lon="166.45515133626759052276611328125">
        <ele>454.600006103515625</ele>
        <time>2016-08-12T23:02:19.000Z</time>
        <extensions>
          <ns3:TrackPointExtension>
            <ns3:atemp>23.0</ns3:atemp>
            <ns3:hr>132</ns3:hr>
          </ns3:TrackPointExtension>
        </extensions>
      </trkpt>
      <trkpt lat="-22.11159811355173587799072265625" lon="166.4551802538335323333740234375">
        <ele>454</ele>
        <time>2016-08-12T23:02:20.000Z</time>
        <extensions>
          <ns3:TrackPointExtension>
            <ns3:atemp>23.0</ns3:atemp>
            <ns3:hr>132</ns3:hr>
          </ns3:TrackPointExtension>
        </extensions>
      </trkpt>
      <trkpt lat="-22.111609093844890594482421875" lon="166.45520883612334728240966796875">
        <ele>453.600006103515625</ele>
        <time>2016-08-12T23:02:21.000Z</time>
        <extensions>
          <ns3:TrackPointExtension>
            <ns3:atemp>23.0</ns3:atemp>
            <ns3:hr>132</ns3:hr>
          </ns3:TrackPointExtension>
        </extensions>
      </trkpt>
      <trkpt lat="-22.1116201579570770263671875" lon="166.45523683167994022369384765625">
        <ele>453.20001220703125</ele>
        <time>2016-08-12T23:02:22.000Z</time>
        <extensions>
          <ns3:TrackPointExtension>
            <ns3:atemp>23.0</ns3:atemp>
            <ns3:hr>131</ns3:hr>
          </ns3:TrackPointExtension>
        </extensions>
      </trkpt>
      <trkpt lat="-22.111631892621517181396484375" lon="166.455262564122676849365234375">
        <ele>453</ele>
        <time>2016-08-12T23:02:23.000Z</time>
        <extensions>
          <ns3:TrackPointExtension>
            <ns3:atemp>23.0</ns3:atemp>
            <ns3:hr>131</ns3:hr>
          </ns3:TrackPointExtension>
        </extensions>
      </trkpt>
      <trkpt lat="-22.111643962562084197998046875" lon="166.45528041757643222808837890625">
        <ele>452.79998779296875</ele>
        <time>2016-08-12T23:02:24.000Z</time>
        <extensions>
          <ns3:TrackPointExtension>
            <ns3:atemp>23.0</ns3:atemp>
            <ns3:hr>131</ns3:hr>
          </ns3:TrackPointExtension>
        </extensions>
      </trkpt>
      <trkpt lat="-22.11165460757911205291748046875" lon="166.45530086942017078399658203125">
        <ele>452.600006103515625</ele>
        <time>2016-08-12T23:02:25.000Z</time>
        <extensions>
          <ns3:TrackPointExtension>
            <ns3:atemp>23.0</ns3:atemp>
            <ns3:hr>131</ns3:hr>
          </ns3:TrackPointExtension>
        </extensions>
      </trkpt>
      <trkpt lat="-22.11166081018745899200439453125" lon="166.4553294517099857330322265625">
        <ele>452.399993896484375</ele>
        <time>2016-08-12T23:02:26.000Z</time>
        <extensions>
          <ns3:TrackPointExtension>
            <ns3:atemp>23.0</ns3:atemp>
            <ns3:hr>131</ns3:hr>
          </ns3:TrackPointExtension>
        </extensions>
      </trkpt>
      <trkpt lat="-22.1116722933948040008544921875" lon="166.45535585470497608184814453125">
        <ele>452</ele>
        <time>2016-08-12T23:02:27.000Z</time>
        <extensions>
          <ns3:TrackPointExtension>
            <ns3:atemp>23.0</ns3:atemp>
            <ns3:hr>131</ns3:hr>
          </ns3:TrackPointExtension>
        </extensions>
      </trkpt>
      <trkpt lat="-22.11167874746024608612060546875" lon="166.4553807489573955535888671875">
        <ele>451.399993896484375</ele>
        <time>2016-08-12T23:02:28.000Z</time>
        <extensions>
          <ns3:TrackPointExtension>
            <ns3:atemp>23.0</ns3:atemp>
            <ns3:hr>131</ns3:hr>
          </ns3:TrackPointExtension>
        </extensions>
      </trkpt>
      <trkpt lat="-22.111680842936038970947265625" lon="166.45540748722851276397705078125">
        <ele>451</ele>
        <time>2016-08-12T23:02:29.000Z</time>
        <extensions>
          <ns3:TrackPointExtension>
            <ns3:atemp>23.0</ns3:atemp>
            <ns3:hr>131</ns3:hr>
          </ns3:TrackPointExtension>
        </extensions>
      </trkpt>
      <trkpt lat="-22.1116810105741024017333984375" lon="166.455433554947376251220703125">
        <ele>450.79998779296875</ele>
        <time>2016-08-12T23:02:30.000Z</time>
        <extensions>
          <ns3:TrackPointExtension>
            <ns3:atemp>23.0</ns3:atemp>
            <ns3:hr>130</ns3:hr>
          </ns3:TrackPointExtension>
        </extensions>
      </trkpt>
      <trkpt lat="-22.11168117821216583251953125" lon="166.45546163432300090789794921875">
        <ele>450.600006103515625</ele>
        <time>2016-08-12T23:02:31.000Z</time>
        <extensions>
          <ns3:TrackPointExtension>
            <ns3:atemp>23.0</ns3:atemp>
            <ns3:hr>130</ns3:hr>
          </ns3:TrackPointExtension>
        </extensions>
      </trkpt>
      <trkpt lat="-22.11168964393436908721923828125" lon="166.45548560656607151031494140625">
        <ele>450.20001220703125</ele>
        <time>2016-08-12T23:02:32.000Z</time>
        <extensions>
          <ns3:TrackPointExtension>
            <ns3:atemp>23.0</ns3:atemp>
            <ns3:hr>130</ns3:hr>
          </ns3:TrackPointExtension>
        </extensions>
      </trkpt>
      <trkpt lat="-22.111704982817173004150390625" lon="166.4555111713707447052001953125">
        <ele>449.600006103515625</ele>
        <time>2016-08-12T23:02:33.000Z</time>
        <extensions>
          <ns3:TrackPointExtension>
            <ns3:atemp>23.0</ns3:atemp>
            <ns3:hr>130</ns3:hr>
          </ns3:TrackPointExtension>
        </extensions>
      </trkpt>
      <trkpt lat="-22.11172677576541900634765625" lon="166.45553371869027614593505859375">
        <ele>449.399993896484375</ele>
        <time>2016-08-12T23:02:34.000Z</time>
        <extensions>
          <ns3:TrackPointExtension>
            <ns3:atemp>23.0</ns3:atemp>
            <ns3:hr>130</ns3:hr>
          </ns3:TrackPointExtension>
        </extensions>
      </trkpt>
      <trkpt lat="-22.11174689233303070068359375" lon="166.4555540867149829864501953125">
        <ele>449.20001220703125</ele>
        <time>2016-08-12T23:02:35.000Z</time>
        <extensions>
          <ns3:TrackPointExtension>
            <ns3:atemp>23.0</ns3:atemp>
            <ns3:hr>130</ns3:hr>
          </ns3:TrackPointExtension>
        </extensions>
      </trkpt>
      <trkpt lat="-22.11176658980548381805419921875" lon="166.4555752091109752655029296875">
        <ele>448.600006103515625</ele>
        <time>2016-08-12T23:02:36.000Z</time>
        <extensions>
          <ns3:TrackPointExtension>
            <ns3:atemp>23.0</ns3:atemp>
            <ns3:hr>130</ns3:hr>
          </ns3:TrackPointExtension>
        </extensions>
      </trkpt>
      <trkpt lat="-22.11178888566792011260986328125" lon="166.45559348165988922119140625">
        <ele>448.20001220703125</ele>
        <time>2016-08-12T23:02:37.000Z</time>
        <extensions>
          <ns3:TrackPointExtension>
            <ns3:atemp>23.0</ns3:atemp>
            <ns3:hr>130</ns3:hr>
          </ns3:TrackPointExtension>
        </extensions>
      </trkpt>
      <trkpt lat="-22.11181101389229297637939453125" lon="166.45561384968459606170654296875">
        <ele>448</ele>
        <time>2016-08-12T23:02:38.000Z</time>
        <extensions>
          <ns3:TrackPointExtension>
            <ns3:atemp>23.0</ns3:atemp>
            <ns3:hr>130</ns3:hr>
          </ns3:TrackPointExtension>
        </extensions>
      </trkpt>
      <trkpt lat="-22.11183280684053897857666015625" lon="166.4556370675563812255859375">
        <ele>447.79998779296875</ele>
        <time>2016-08-12T23:02:39.000Z</time>
        <extensions>
          <ns3:TrackPointExtension>
            <ns3:atemp>23.0</ns3:atemp>
            <ns3:hr>130</ns3:hr>
          </ns3:TrackPointExtension>
        </extensions>
      </trkpt>
      <trkpt lat="-22.11185191757977008819580078125" lon="166.4556603692471981048583984375">
        <ele>447.20001220703125</ele>
        <time>2016-08-12T23:02:40.000Z</time>
        <extensions>
          <ns3:TrackPointExtension>
            <ns3:atemp>23.0</ns3:atemp>
            <ns3:hr>129</ns3:hr>
          </ns3:TrackPointExtension>
        </extensions>
      </trkpt>
      <trkpt lat="-22.11187027394771575927734375" lon="166.45568442530930042266845703125">
        <ele>447</ele>
        <time>2016-08-12T23:02:41.000Z</time>
        <extensions>
          <ns3:TrackPointExtension>
            <ns3:atemp>23.0</ns3:atemp>
            <ns3:hr>129</ns3:hr>
          </ns3:TrackPointExtension>
        </extensions>
      </trkpt>
      <trkpt lat="-22.1118875406682491302490234375" lon="166.45571124739944934844970703125">
        <ele>446.79998779296875</ele>
        <time>2016-08-12T23:02:42.000Z</time>
        <extensions>
          <ns3:TrackPointExtension>
            <ns3:atemp>23.0</ns3:atemp>
            <ns3:hr>129</ns3:hr>
          </ns3:TrackPointExtension>
        </extensions>
      </trkpt>
      <trkpt lat="-22.11190338246524333953857421875" lon="166.4557361416518688201904296875">
        <ele>446.600006103515625</ele>
        <time>2016-08-12T23:02:43.000Z</time>
        <extensions>
          <ns3:TrackPointExtension>
            <ns3:atemp>23.0</ns3:atemp>
            <ns3:hr>129</ns3:hr>
          </ns3:TrackPointExtension>
        </extensions>
      </trkpt>
      <trkpt lat="-22.11191712878644466400146484375" lon="166.455756090581417083740234375">
        <ele>446.20001220703125</ele>
        <time>2016-08-12T23:02:44.000Z</time>
        <extensions>
          <ns3:TrackPointExtension>
            <ns3:atemp>23.0</ns3:atemp>
            <ns3:hr>130</ns3:hr>
          </ns3:TrackPointExtension>
        </extensions>
      </trkpt>
      <trkpt lat="-22.11193188093602657318115234375" lon="166.4557763747870922088623046875">
        <ele>446.20001220703125</ele>
        <time>2016-08-12T23:02:45.000Z</time>
        <extensions>
          <ns3:TrackPointExtension>
            <ns3:atemp>23.0</ns3:atemp>
            <ns3:hr>129</ns3:hr>
          </ns3:TrackPointExtension>
        </extensions>
      </trkpt>
      <trkpt lat="-22.11194537580013275146484375" lon="166.45579892210662364959716796875">
        <ele>446.20001220703125</ele>
        <time>2016-08-12T23:02:46.000Z</time>
        <extensions>
          <ns3:TrackPointExtension>
            <ns3:atemp>23.0</ns3:atemp>
            <ns3:hr>129</ns3:hr>
          </ns3:TrackPointExtension>
        </extensions>
      </trkpt>
      <trkpt lat="-22.11196138523519039154052734375" lon="166.45582188852131366729736328125">
        <ele>446.20001220703125</ele>
        <time>2016-08-12T23:02:47.000Z</time>
        <extensions>
          <ns3:TrackPointExtension>
            <ns3:atemp>23.0</ns3:atemp>
            <ns3:hr>129</ns3:hr>
          </ns3:TrackPointExtension>
        </extensions>
      </trkpt>
      <trkpt lat="-22.11197555065155029296875" lon="166.45584736950695514678955078125">
        <ele>445.79998779296875</ele>
        <time>2016-08-12T23:02:48.000Z</time>
        <extensions>
          <ns3:TrackPointExtension>
            <ns3:atemp>23.0</ns3:atemp>
            <ns3:hr>129</ns3:hr>
          </ns3:TrackPointExtension>
        </extensions>
      </trkpt>
      <trkpt lat="-22.111987285315990447998046875" lon="166.45587251521646976470947265625">
        <ele>445.399993896484375</ele>
        <time>2016-08-12T23:02:49.000Z</time>
        <extensions>
          <ns3:TrackPointExtension>
            <ns3:atemp>23.0</ns3:atemp>
            <ns3:hr>129</ns3:hr>
          </ns3:TrackPointExtension>
        </extensions>
      </trkpt>
      <trkpt lat="-22.11199767887592315673828125" lon="166.45589833147823810577392578125">
        <ele>444.79998779296875</ele>
        <time>2016-08-12T23:02:50.000Z</time>
        <extensions>
          <ns3:TrackPointExtension>
            <ns3:atemp>23.0</ns3:atemp>
            <ns3:hr>129</ns3:hr>
          </ns3:TrackPointExtension>
        </extensions>
      </trkpt>
      <trkpt lat="-22.11200446821749210357666015625" lon="166.4559245668351650238037109375">
        <ele>444.399993896484375</ele>
        <time>2016-08-12T23:02:51.000Z</time>
        <extensions>
          <ns3:TrackPointExtension>
            <ns3:atemp>23.0</ns3:atemp>
            <ns3:hr>129</ns3:hr>
          </ns3:TrackPointExtension>
        </extensions>
      </trkpt>
      <trkpt lat="-22.11201352067291736602783203125" lon="166.45595063455402851104736328125">
        <ele>444</ele>
        <time>2016-08-12T23:02:52.000Z</time>
        <extensions>
          <ns3:TrackPointExtension>
            <ns3:atemp>23.0</ns3:atemp>
            <ns3:hr>129</ns3:hr>
          </ns3:TrackPointExtension>
        </extensions>
      </trkpt>
      <trkpt lat="-22.11202559061348438262939453125" lon="166.45597963593900203704833984375">
        <ele>443.20001220703125</ele>
        <time>2016-08-12T23:02:53.000Z</time>
        <extensions>
          <ns3:TrackPointExtension>
            <ns3:atemp>23.0</ns3:atemp>
            <ns3:hr>129</ns3:hr>
          </ns3:TrackPointExtension>
        </extensions>
      </trkpt>
      <trkpt lat="-22.11203615181148052215576171875" lon="166.456006877124309539794921875">
        <ele>442.79998779296875</ele>
        <time>2016-08-12T23:02:54.000Z</time>
        <extensions>
          <ns3:TrackPointExtension>
            <ns3:atemp>23.0</ns3:atemp>
            <ns3:hr>129</ns3:hr>
          </ns3:TrackPointExtension>
        </extensions>
      </trkpt>
      <trkpt lat="-22.11204729974269866943359375" lon="166.45603093318641185760498046875">
        <ele>442.600006103515625</ele>
        <time>2016-08-12T23:02:55.000Z</time>
        <extensions>
          <ns3:TrackPointExtension>
            <ns3:atemp>23.0</ns3:atemp>
            <ns3:hr>129</ns3:hr>
          </ns3:TrackPointExtension>
        </extensions>
      </trkpt>
      <trkpt lat="-22.1120571903884410858154296875" lon="166.4560554921627044677734375">
        <ele>442.399993896484375</ele>
        <time>2016-08-12T23:02:56.000Z</time>
        <extensions>
          <ns3:TrackPointExtension>
            <ns3:atemp>23.0</ns3:atemp>
            <ns3:hr>128</ns3:hr>
          </ns3:TrackPointExtension>
        </extensions>
      </trkpt>
      <trkpt lat="-22.11206448264420032501220703125" lon="166.4560814760625362396240234375">
        <ele>442.399993896484375</ele>
        <time>2016-08-12T23:02:57.000Z</time>
        <extensions>
          <ns3:TrackPointExtension>
            <ns3:atemp>23.0</ns3:atemp>
            <ns3:hr>128</ns3:hr>
          </ns3:TrackPointExtension>
        </extensions>
      </trkpt>
      <trkpt lat="-22.11207185871899127960205078125" lon="166.45610603503882884979248046875">
        <ele>442.399993896484375</ele>
        <time>2016-08-12T23:02:58.000Z</time>
        <extensions>
          <ns3:TrackPointExtension>
            <ns3:atemp>23.0</ns3:atemp>
            <ns3:hr>129</ns3:hr>
          </ns3:TrackPointExtension>
        </extensions>
      </trkpt>
      <trkpt lat="-22.11208040826022624969482421875" lon="166.4561300911009311676025390625">
        <ele>442.399993896484375</ele>
        <time>2016-08-12T23:02:59.000Z</time>
        <extensions>
          <ns3:TrackPointExtension>
            <ns3:atemp>23.0</ns3:atemp>
            <ns3:hr>128</ns3:hr>
          </ns3:TrackPointExtension>
        </extensions>
      </trkpt>
      <trkpt lat="-22.112085856497287750244140625" lon="166.45615397952497005462646484375">
        <ele>442</ele>
        <time>2016-08-12T23:03:00.000Z</time>
        <extensions>
          <ns3:TrackPointExtension>
            <ns3:atemp>23.0</ns3:atemp>
            <ns3:hr>129</ns3:hr>
          </ns3:TrackPointExtension>
        </extensions>
      </trkpt>
      <trkpt lat="-22.11209029890596866607666015625" lon="166.4561773650348186492919921875">
        <ele>441.399993896484375</ele>
        <time>2016-08-12T23:03:01.000Z</time>
        <extensions>
          <ns3:TrackPointExtension>
            <ns3:atemp>23.0</ns3:atemp>
            <ns3:hr>128</ns3:hr>
          </ns3:TrackPointExtension>
        </extensions>
      </trkpt>
      <trkpt lat="-22.11209432221949100494384765625" lon="166.456202678382396697998046875">
        <ele>440.79998779296875</ele>
        <time>2016-08-12T23:03:02.000Z</time>
        <extensions>
          <ns3:TrackPointExtension>
            <ns3:atemp>23.0</ns3:atemp>
            <ns3:hr>128</ns3:hr>
          </ns3:TrackPointExtension>
        </extensions>
      </trkpt>
      <trkpt lat="-22.1120994351804256439208984375" lon="166.456226818263530731201171875">
        <ele>440.399993896484375</ele>
        <time>2016-08-12T23:03:03.000Z</time>
        <extensions>
          <ns3:TrackPointExtension>
            <ns3:atemp>23.0</ns3:atemp>
            <ns3:hr>128</ns3:hr>
          </ns3:TrackPointExtension>
        </extensions>
      </trkpt>
      <trkpt lat="-22.1121051348745822906494140625" lon="166.456254310905933380126953125">
        <ele>440.20001220703125</ele>
        <time>2016-08-12T23:03:04.000Z</time>
        <extensions>
          <ns3:TrackPointExtension>
            <ns3:atemp>23.0</ns3:atemp>
            <ns3:hr>128</ns3:hr>
          </ns3:TrackPointExtension>
        </extensions>
      </trkpt>
      <trkpt lat="-22.11210622452199459075927734375" lon="166.45628389902412891387939453125">
        <ele>440</ele>
        <time>2016-08-12T23:03:05.000Z</time>
        <extensions>
          <ns3:TrackPointExtension>
            <ns3:atemp>24.0</ns3:atemp>
            <ns3:hr>129</ns3:hr>
          </ns3:TrackPointExtension>
        </extensions>
      </trkpt>
      <trkpt lat="-22.11210924200713634490966796875" lon="166.45631105639040470123291015625">
        <ele>439.79998779296875</ele>
        <time>2016-08-12T23:03:06.000Z</time>
        <extensions>
          <ns3:TrackPointExtension>
            <ns3:atemp>24.0</ns3:atemp>
            <ns3:hr>128</ns3:hr>
          </ns3:TrackPointExtension>
        </extensions>
      </trkpt>
      <trkpt lat="-22.11211896501481533050537109375" lon="166.45633645355701446533203125">
        <ele>439.399993896484375</ele>
        <time>2016-08-12T23:03:07.000Z</time>
        <extensions>
          <ns3:TrackPointExtension>
            <ns3:atemp>24.0</ns3:atemp>
            <ns3:hr>129</ns3:hr>
          </ns3:TrackPointExtension>
        </extensions>
      </trkpt>
      <trkpt lat="-22.1121272630989551544189453125" lon="166.45636503584682941436767578125">
        <ele>439.20001220703125</ele>
        <time>2016-08-12T23:03:08.000Z</time>
        <extensions>
          <ns3:TrackPointExtension>
            <ns3:atemp>24.0</ns3:atemp>
            <ns3:hr>128</ns3:hr>
          </ns3:TrackPointExtension>
        </extensions>
      </trkpt>
      <trkpt lat="-22.112134806811809539794921875" lon="166.4563916064798831939697265625">
        <ele>439</ele>
        <time>2016-08-12T23:03:09.000Z</time>
        <extensions>
          <ns3:TrackPointExtension>
            <ns3:atemp>24.0</ns3:atemp>
            <ns3:hr>128</ns3:hr>
          </ns3:TrackPointExtension>
        </extensions>
      </trkpt>
      <trkpt lat="-22.1121487207710742950439453125" lon="166.45641733892261981964111328125">
        <ele>438.600006103515625</ele>
        <time>2016-08-12T23:03:10.000Z</time>
        <extensions>
          <ns3:TrackPointExtension>
            <ns3:atemp>24.0</ns3:atemp>
            <ns3:hr>128</ns3:hr>
          </ns3:TrackPointExtension>
        </extensions>
      </trkpt>
      <trkpt lat="-22.11216531693935394287109375" lon="166.4564432390034198760986328125">
        <ele>438.399993896484375</ele>
        <time>2016-08-12T23:03:11.000Z</time>
        <extensions>
          <ns3:TrackPointExtension>
            <ns3:atemp>24.0</ns3:atemp>
            <ns3:hr>128</ns3:hr>
          </ns3:TrackPointExtension>
        </extensions>
      </trkpt>
      <trkpt lat="-22.11218300275504589080810546875" lon="166.45646561868488788604736328125">
        <ele>438.20001220703125</ele>
        <time>2016-08-12T23:03:12.000Z</time>
        <extensions>
          <ns3:TrackPointExtension>
            <ns3:atemp>24.0</ns3:atemp>
            <ns3:hr>128</ns3:hr>
          </ns3:TrackPointExtension>
        </extensions>
      </trkpt>
      <trkpt lat="-22.1122057177126407623291015625" lon="166.45648338831961154937744140625">
        <ele>437.79998779296875</ele>
        <time>2016-08-12T23:03:13.000Z</time>
        <extensions>
          <ns3:TrackPointExtension>
            <ns3:atemp>24.0</ns3:atemp>
            <ns3:hr>128</ns3:hr>
          </ns3:TrackPointExtension>
        </extensions>
      </trkpt>
      <trkpt lat="-22.11223077960312366485595703125" lon="166.45649746991693973541259765625">
        <ele>437.399993896484375</ele>
        <time>2016-08-12T23:03:14.000Z</time>
        <extensions>
          <ns3:TrackPointExtension>
            <ns3:atemp>24.0</ns3:atemp>
            <ns3:hr>129</ns3:hr>
          </ns3:TrackPointExtension>
        </extensions>
      </trkpt>
      <trkpt lat="-22.11225642822682857513427734375" lon="166.4565109647810459136962890625">
        <ele>437</ele>
        <time>2016-08-12T23:03:15.000Z</time>
        <extensions>
          <ns3:TrackPointExtension>
            <ns3:atemp>24.0</ns3:atemp>
            <ns3:hr>128</ns3:hr>
          </ns3:TrackPointExtension>
        </extensions>
      </trkpt>
      <trkpt lat="-22.1122838370501995086669921875" lon="166.45652060396969318389892578125">
        <ele>436.600006103515625</ele>
        <time>2016-08-12T23:03:16.000Z</time>
        <extensions>
          <ns3:TrackPointExtension>
            <ns3:atemp>24.0</ns3:atemp>
            <ns3:hr>128</ns3:hr>
          </ns3:TrackPointExtension>
        </extensions>
      </trkpt>
      <trkpt lat="-22.1123094856739044189453125" lon="166.4565253816545009613037109375">
        <ele>436</ele>
        <time>2016-08-12T23:03:17.000Z</time>
        <extensions>
          <ns3:TrackPointExtension>
            <ns3:atemp>24.0</ns3:atemp>
            <ns3:hr>128</ns3:hr>
          </ns3:TrackPointExtension>
        </extensions>
      </trkpt>
      <trkpt lat="-22.1123341284692287445068359375" lon="166.45652898587286472320556640625">
        <ele>435.79998779296875</ele>
        <time>2016-08-12T23:03:18.000Z</time>
        <extensions>
          <ns3:TrackPointExtension>
            <ns3:atemp>24.0</ns3:atemp>
            <ns3:hr>128</ns3:hr>
          </ns3:TrackPointExtension>
        </extensions>
      </trkpt>
      <trkpt lat="-22.11235885508358478546142578125" lon="166.45653367973864078521728515625">
        <ele>435.600006103515625</ele>
        <time>2016-08-12T23:03:19.000Z</time>
        <extensions>
          <ns3:TrackPointExtension>
            <ns3:atemp>24.0</ns3:atemp>
            <ns3:hr>128</ns3:hr>
          </ns3:TrackPointExtension>
        </extensions>
      </trkpt>
      <trkpt lat="-22.11237813346087932586669921875" lon="166.45653770305216312408447265625">
        <ele>435.399993896484375</ele>
        <time>2016-08-12T23:03:20.000Z</time>
        <extensions>
          <ns3:TrackPointExtension>
            <ns3:atemp>24.0</ns3:atemp>
            <ns3:hr>129</ns3:hr>
          </ns3:TrackPointExtension>
        </extensions>
      </trkpt>
      <trkpt lat="-22.11240160278975963592529296875" lon="166.45654222927987575531005859375">
        <ele>435</ele>
        <time>2016-08-12T23:03:21.000Z</time>
        <extensions>
          <ns3:TrackPointExtension>
            <ns3:atemp>24.0</ns3:atemp>
            <ns3:hr>128</ns3:hr>
          </ns3:TrackPointExtension>
        </extensions>
      </trkpt>
      <trkpt lat="-22.1124275028705596923828125" lon="166.45654792897403240203857421875">
        <ele>434.79998779296875</ele>
        <time>2016-08-12T23:03:22.000Z</time>
        <extensions>
          <ns3:TrackPointExtension>
            <ns3:atemp>24.0</ns3:atemp>
            <ns3:hr>128</ns3:hr>
          </ns3:TrackPointExtension>
        </extensions>
      </trkpt>
      <trkpt lat="-22.1124521456658840179443359375" lon="166.45654994063079357147216796875">
        <ele>434.20001220703125</ele>
        <time>2016-08-12T23:03:23.000Z</time>
        <extensions>
          <ns3:TrackPointExtension>
            <ns3:atemp>24.0</ns3:atemp>
            <ns3:hr>128</ns3:hr>
          </ns3:TrackPointExtension>
        </extensions>
      </trkpt>
      <trkpt lat="-22.112474776804447174072265625" lon="166.45655279047787189483642578125">
        <ele>433</ele>
        <time>2016-08-12T23:03:24.000Z</time>
        <extensions>
          <ns3:TrackPointExtension>
            <ns3:atemp>24.0</ns3:atemp>
            <ns3:hr>128</ns3:hr>
          </ns3:TrackPointExtension>
        </extensions>
      </trkpt>
      <trkpt lat="-22.11249631829559803009033203125" lon="166.45655371248722076416015625">
        <ele>432.399993896484375</ele>
        <time>2016-08-12T23:03:25.000Z</time>
        <extensions>
          <ns3:TrackPointExtension>
            <ns3:atemp>24.0</ns3:atemp>
            <ns3:hr>128</ns3:hr>
          </ns3:TrackPointExtension>
        </extensions>
      </trkpt>
      <trkpt lat="-22.1125228889286518096923828125" lon="166.456556059420108795166015625">
        <ele>432.399993896484375</ele>
        <time>2016-08-12T23:03:26.000Z</time>
        <extensions>
          <ns3:TrackPointExtension>
            <ns3:atemp>24.0</ns3:atemp>
            <ns3:hr>128</ns3:hr>
          </ns3:TrackPointExtension>
        </extensions>
      </trkpt>
      <trkpt lat="-22.11254459805786609649658203125" lon="166.45655396394431591033935546875">
        <ele>432.600006103515625</ele>
        <time>2016-08-12T23:03:27.000Z</time>
        <extensions>
          <ns3:TrackPointExtension>
            <ns3:atemp>24.0</ns3:atemp>
            <ns3:hr>128</ns3:hr>
          </ns3:TrackPointExtension>
        </extensions>
      </trkpt>
      <trkpt lat="-22.11256337352097034454345703125" lon="166.4565542154014110565185546875">
        <ele>432.399993896484375</ele>
        <time>2016-08-12T23:03:28.000Z</time>
        <extensions>
          <ns3:TrackPointExtension>
            <ns3:atemp>24.0</ns3:atemp>
            <ns3:hr>127</ns3:hr>
          </ns3:TrackPointExtension>
        </extensions>
      </trkpt>
      <trkpt lat="-22.11257946677505970001220703125" lon="166.45656016655266284942626953125">
        <ele>432.399993896484375</ele>
        <time>2016-08-12T23:03:29.000Z</time>
        <extensions>
          <ns3:TrackPointExtension>
            <ns3:atemp>24.0</ns3:atemp>
            <ns3:hr>127</ns3:hr>
          </ns3:TrackPointExtension>
        </extensions>
      </trkpt>
      <trkpt lat="-22.11260385811328887939453125" lon="166.456579864025115966796875">
        <ele>432.399993896484375</ele>
        <time>2016-08-12T23:03:30.000Z</time>
        <extensions>
          <ns3:TrackPointExtension>
            <ns3:atemp>24.0</ns3:atemp>
            <ns3:hr>127</ns3:hr>
          </ns3:TrackPointExtension>
        </extensions>
      </trkpt>
      <trkpt lat="-22.11262808181345462799072265625" lon="166.45659788511693477630615234375">
        <ele>432.399993896484375</ele>
        <time>2016-08-12T23:03:31.000Z</time>
        <extensions>
          <ns3:TrackPointExtension>
            <ns3:atemp>24.0</ns3:atemp>
            <ns3:hr>127</ns3:hr>
          </ns3:TrackPointExtension>
        </extensions>
      </trkpt>
      <trkpt lat="-22.11265071295201778411865234375" lon="166.456615738570690155029296875">
        <ele>432.20001220703125</ele>
        <time>2016-08-12T23:03:32.000Z</time>
        <extensions>
          <ns3:TrackPointExtension>
            <ns3:atemp>24.0</ns3:atemp>
            <ns3:hr>127</ns3:hr>
          </ns3:TrackPointExtension>
        </extensions>
      </trkpt>
      <trkpt lat="-22.11267049424350261688232421875" lon="166.45663560368120670318603515625">
        <ele>432</ele>
        <time>2016-08-12T23:03:33.000Z</time>
        <extensions>
          <ns3:TrackPointExtension>
            <ns3:atemp>24.0</ns3:atemp>
            <ns3:hr>127</ns3:hr>
          </ns3:TrackPointExtension>
        </extensions>
      </trkpt>
      <trkpt lat="-22.1126888506114482879638671875" lon="166.45665337331593036651611328125">
        <ele>431.600006103515625</ele>
        <time>2016-08-12T23:03:34.000Z</time>
        <extensions>
          <ns3:TrackPointExtension>
            <ns3:atemp>24.0</ns3:atemp>
            <ns3:hr>127</ns3:hr>
          </ns3:TrackPointExtension>
        </extensions>
      </trkpt>
      <trkpt lat="-22.11270687170326709747314453125" lon="166.4566695503890514373779296875">
        <ele>431.20001220703125</ele>
        <time>2016-08-12T23:03:35.000Z</time>
        <extensions>
          <ns3:TrackPointExtension>
            <ns3:atemp>24.0</ns3:atemp>
            <ns3:hr>127</ns3:hr>
          </ns3:TrackPointExtension>
        </extensions>
      </trkpt>
      <trkpt lat="-22.1127193607389926910400390625" lon="166.45668790675699710845947265625">
        <ele>431</ele>
        <time>2016-08-12T23:03:36.000Z</time>
        <extensions>
          <ns3:TrackPointExtension>
            <ns3:atemp>24.0</ns3:atemp>
            <ns3:hr>128</ns3:hr>
          </ns3:TrackPointExtension>
        </extensions>
      </trkpt>
      <trkpt lat="-22.1127307601273059844970703125" lon="166.45670316182076930999755859375">
        <ele>430.600006103515625</ele>
        <time>2016-08-12T23:03:37.000Z</time>
        <extensions>
          <ns3:TrackPointExtension>
            <ns3:atemp>24.0</ns3:atemp>
            <ns3:hr>128</ns3:hr>
          </ns3:TrackPointExtension>
        </extensions>
      </trkpt>
      <trkpt lat="-22.1127488650381565093994140625" lon="166.45672126673161983489990234375">
        <ele>430.600006103515625</ele>
        <time>2016-08-12T23:03:38.000Z</time>
        <extensions>
          <ns3:TrackPointExtension>
            <ns3:atemp>24.0</ns3:atemp>
            <ns3:hr>128</ns3:hr>
          </ns3:TrackPointExtension>
        </extensions>
      </trkpt>
      <trkpt lat="-22.11276671849191188812255859375" lon="166.45674440078437328338623046875">
        <ele>430.399993896484375</ele>
        <time>2016-08-12T23:03:39.000Z</time>
        <extensions>
          <ns3:TrackPointExtension>
            <ns3:atemp>24.0</ns3:atemp>
            <ns3:hr>128</ns3:hr>
          </ns3:TrackPointExtension>
        </extensions>
      </trkpt>
      <trkpt lat="-22.11278624832630157470703125" lon="166.45676837302744388580322265625">
        <ele>430.20001220703125</ele>
        <time>2016-08-12T23:03:40.000Z</time>
        <extensions>
          <ns3:TrackPointExtension>
            <ns3:atemp>24.0</ns3:atemp>
            <ns3:hr>127</ns3:hr>
          </ns3:TrackPointExtension>
        </extensions>
      </trkpt>
      <trkpt lat="-22.1128028444945812225341796875" lon="166.45679569803178310394287109375">
        <ele>430</ele>
        <time>2016-08-12T23:03:41.000Z</time>
        <extensions>
          <ns3:TrackPointExtension>
            <ns3:atemp>24.0</ns3:atemp>
            <ns3:hr>128</ns3:hr>
          </ns3:TrackPointExtension>
        </extensions>
      </trkpt>
      <trkpt lat="-22.1128164231777191162109375" lon="166.45682067610323429107666015625">
        <ele>429.79998779296875</ele>
        <time>2016-08-12T23:03:42.000Z</time>
        <extensions>
          <ns3:TrackPointExtension>
            <ns3:atemp>24.0</ns3:atemp>
            <ns3:hr>128</ns3:hr>
          </ns3:TrackPointExtension>
        </extensions>
      </trkpt>
      <trkpt lat="-22.1128316782414913177490234375" lon="166.45684548653662204742431640625">
        <ele>429.399993896484375</ele>
        <time>2016-08-12T23:03:43.000Z</time>
        <extensions>
          <ns3:TrackPointExtension>
            <ns3:atemp>24.0</ns3:atemp>
            <ns3:hr>128</ns3:hr>
          </ns3:TrackPointExtension>
        </extensions>
      </trkpt>
      <trkpt lat="-22.1128447540104389190673828125" lon="166.4568713866174221038818359375">
        <ele>429</ele>
        <time>2016-08-12T23:03:44.000Z</time>
        <extensions>
          <ns3:TrackPointExtension>
            <ns3:atemp>24.0</ns3:atemp>
            <ns3:hr>128</ns3:hr>
          </ns3:TrackPointExtension>
        </extensions>
      </trkpt>
      <trkpt lat="-22.11285657249391078948974609375" lon="166.45689460448920726776123046875">
        <ele>428.79998779296875</ele>
        <time>2016-08-12T23:03:45.000Z</time>
        <extensions>
          <ns3:TrackPointExtension>
            <ns3:atemp>24.0</ns3:atemp>
            <ns3:hr>128</ns3:hr>
          </ns3:TrackPointExtension>
        </extensions>
      </trkpt>
      <trkpt lat="-22.11287249810993671417236328125" lon="166.4569186605513095855712890625">
        <ele>428.399993896484375</ele>
        <time>2016-08-12T23:03:46.000Z</time>
        <extensions>
          <ns3:TrackPointExtension>
            <ns3:atemp>24.0</ns3:atemp>
            <ns3:hr>128</ns3:hr>
          </ns3:TrackPointExtension>
        </extensions>
      </trkpt>
      <trkpt lat="-22.1128893457353115081787109375" lon="166.45694003440439701080322265625">
        <ele>427.600006103515625</ele>
        <time>2016-08-12T23:03:47.000Z</time>
        <extensions>
          <ns3:TrackPointExtension>
            <ns3:atemp>24.0</ns3:atemp>
            <ns3:hr>127</ns3:hr>
          </ns3:TrackPointExtension>
        </extensions>
      </trkpt>
      <trkpt lat="-22.112902589142322540283203125" lon="166.45696165971457958221435546875">
        <ele>427.399993896484375</ele>
        <time>2016-08-12T23:03:48.000Z</time>
        <extensions>
          <ns3:TrackPointExtension>
            <ns3:atemp>24.0</ns3:atemp>
            <ns3:hr>127</ns3:hr>
          </ns3:TrackPointExtension>
        </extensions>
      </trkpt>
      <trkpt lat="-22.11291499435901641845703125" lon="166.45698647014796733856201171875">
        <ele>427.399993896484375</ele>
        <time>2016-08-12T23:03:49.000Z</time>
        <extensions>
          <ns3:TrackPointExtension>
            <ns3:atemp>24.0</ns3:atemp>
            <ns3:hr>126</ns3:hr>
          </ns3:TrackPointExtension>
        </extensions>
      </trkpt>
      <trkpt lat="-22.1129248850047588348388671875" lon="166.45701061002910137176513671875">
        <ele>427.20001220703125</ele>
        <time>2016-08-12T23:03:50.000Z</time>
        <extensions>
          <ns3:TrackPointExtension>
            <ns3:atemp>24.0</ns3:atemp>
            <ns3:hr>125</ns3:hr>
          </ns3:TrackPointExtension>
        </extensions>
      </trkpt>
      <trkpt lat="-22.11293184198439121246337890625" lon="166.45703391171991825103759765625">
        <ele>427</ele>
        <time>2016-08-12T23:03:51.000Z</time>
        <extensions>
          <ns3:TrackPointExtension>
            <ns3:atemp>24.0</ns3:atemp>
            <ns3:hr>125</ns3:hr>
          </ns3:TrackPointExtension>
        </extensions>
      </trkpt>
      <trkpt lat="-22.11293636821210384368896484375" lon="166.45706241019070148468017578125">
        <ele>426.600006103515625</ele>
        <time>2016-08-12T23:03:52.000Z</time>
        <extensions>
          <ns3:TrackPointExtension>
            <ns3:atemp>24.0</ns3:atemp>
            <ns3:hr>124</ns3:hr>
          </ns3:TrackPointExtension>
        </extensions>
      </trkpt>
      <trkpt lat="-22.11293955333530902862548828125" lon="166.45708738826215267181396484375">
        <ele>426.399993896484375</ele>
        <time>2016-08-12T23:03:53.000Z</time>
        <extensions>
          <ns3:TrackPointExtension>
            <ns3:atemp>24.0</ns3:atemp>
            <ns3:hr>123</ns3:hr>
          </ns3:TrackPointExtension>
        </extensions>
      </trkpt>
      <trkpt lat="-22.11294022388756275177001953125" lon="166.45711068995296955108642578125">
        <ele>426.399993896484375</ele>
        <time>2016-08-12T23:03:54.000Z</time>
        <extensions>
          <ns3:TrackPointExtension>
            <ns3:atemp>24.0</ns3:atemp>
            <ns3:hr>122</ns3:hr>
          </ns3:TrackPointExtension>
        </extensions>
      </trkpt>
      <trkpt lat="-22.1129416488111019134521484375" lon="166.45713441073894500732421875">
        <ele>426.399993896484375</ele>
        <time>2016-08-12T23:03:55.000Z</time>
        <extensions>
          <ns3:TrackPointExtension>
            <ns3:atemp>24.0</ns3:atemp>
            <ns3:hr>121</ns3:hr>
          </ns3:TrackPointExtension>
        </extensions>
      </trkpt>
      <trkpt lat="-22.11294106207787990570068359375" lon="166.45715746097266674041748046875">
        <ele>426.20001220703125</ele>
        <time>2016-08-12T23:03:56.000Z</time>
        <extensions>
          <ns3:TrackPointExtension>
            <ns3:atemp>24.0</ns3:atemp>
            <ns3:hr>120</ns3:hr>
          </ns3:TrackPointExtension>
        </extensions>
      </trkpt>
      <trkpt lat="-22.11294156499207019805908203125" lon="166.45718076266348361968994140625">
        <ele>426</ele>
        <time>2016-08-12T23:03:57.000Z</time>
        <extensions>
          <ns3:TrackPointExtension>
            <ns3:atemp>24.0</ns3:atemp>
            <ns3:hr>120</ns3:hr>
          </ns3:TrackPointExtension>
        </extensions>
      </trkpt>
      <trkpt lat="-22.112944163382053375244140625" lon="166.45720892585813999176025390625">
        <ele>425.600006103515625</ele>
        <time>2016-08-12T23:03:58.000Z</time>
        <extensions>
          <ns3:TrackPointExtension>
            <ns3:atemp>24.0</ns3:atemp>
            <ns3:hr>119</ns3:hr>
          </ns3:TrackPointExtension>
        </extensions>
      </trkpt>
      <trkpt lat="-22.11294391192495822906494140625" lon="166.4572351612150669097900390625">
        <ele>425.399993896484375</ele>
        <time>2016-08-12T23:03:59.000Z</time>
        <extensions>
          <ns3:TrackPointExtension>
            <ns3:atemp>24.0</ns3:atemp>
            <ns3:hr>119</ns3:hr>
          </ns3:TrackPointExtension>
        </extensions>
      </trkpt>
      <trkpt lat="-22.112940140068531036376953125" lon="166.45726189948618412017822265625">
        <ele>425.399993896484375</ele>
        <time>2016-08-12T23:04:00.000Z</time>
        <extensions>
          <ns3:TrackPointExtension>
            <ns3:atemp>24.0</ns3:atemp>
            <ns3:hr>118</ns3:hr>
          </ns3:TrackPointExtension>
        </extensions>
      </trkpt>
      <trkpt lat="-22.1129339374601840972900390625" lon="166.457286290824413299560546875">
        <ele>425.20001220703125</ele>
        <time>2016-08-12T23:04:01.000Z</time>
        <extensions>
          <ns3:TrackPointExtension>
            <ns3:atemp>24.0</ns3:atemp>
            <ns3:hr>119</ns3:hr>
          </ns3:TrackPointExtension>
        </extensions>
      </trkpt>
      <trkpt lat="-22.11292647756636142730712890625" lon="166.45730716176331043243408203125">
        <ele>425</ele>
        <time>2016-08-12T23:04:02.000Z</time>
        <extensions>
          <ns3:TrackPointExtension>
            <ns3:atemp>24.0</ns3:atemp>
            <ns3:hr>119</ns3:hr>
          </ns3:TrackPointExtension>
        </extensions>
      </trkpt>
      <trkpt lat="-22.11290971376001834869384765625" lon="166.457329876720905303955078125">
        <ele>424.600006103515625</ele>
        <time>2016-08-12T23:04:03.000Z</time>
        <extensions>
          <ns3:TrackPointExtension>
            <ns3:atemp>24.0</ns3:atemp>
            <ns3:hr>119</ns3:hr>
          </ns3:TrackPointExtension>
        </extensions>
      </trkpt>
      <trkpt lat="-22.11289823055267333984375" lon="166.45735611207783222198486328125">
        <ele>424.20001220703125</ele>
        <time>2016-08-12T23:04:04.000Z</time>
        <extensions>
          <ns3:TrackPointExtension>
            <ns3:atemp>24.0</ns3:atemp>
            <ns3:hr>119</ns3:hr>
          </ns3:TrackPointExtension>
        </extensions>
      </trkpt>
      <trkpt lat="-22.11289144121110439300537109375" lon="166.45737891085445880889892578125">
        <ele>423.79998779296875</ele>
        <time>2016-08-12T23:04:05.000Z</time>
        <extensions>
          <ns3:TrackPointExtension>
            <ns3:atemp>24.0</ns3:atemp>
            <ns3:hr>119</ns3:hr>
          </ns3:TrackPointExtension>
        </extensions>
      </trkpt>
      <trkpt lat="-22.11288423277437686920166015625" lon="166.45740724168717861175537109375">
        <ele>423.399993896484375</ele>
        <time>2016-08-12T23:04:06.000Z</time>
        <extensions>
          <ns3:TrackPointExtension>
            <ns3:atemp>24.0</ns3:atemp>
            <ns3:hr>120</ns3:hr>
          </ns3:TrackPointExtension>
        </extensions>
      </trkpt>
      <trkpt lat="-22.11287870071828365325927734375" lon="166.457434482872486114501953125">
        <ele>423.20001220703125</ele>
        <time>2016-08-12T23:04:07.000Z</time>
        <extensions>
          <ns3:TrackPointExtension>
            <ns3:atemp>24.0</ns3:atemp>
            <ns3:hr>121</ns3:hr>
          </ns3:TrackPointExtension>
        </extensions>
      </trkpt>
      <trkpt lat="-22.1128672175109386444091796875" lon="166.4574591256678104400634765625">
        <ele>422.79998779296875</ele>
        <time>2016-08-12T23:04:08.000Z</time>
        <extensions>
          <ns3:TrackPointExtension>
            <ns3:atemp>24.0</ns3:atemp>
            <ns3:hr>122</ns3:hr>
          </ns3:TrackPointExtension>
        </extensions>
      </trkpt>
      <trkpt lat="-22.11285573430359363555908203125" lon="166.457486450672149658203125">
        <ele>422.399993896484375</ele>
        <time>2016-08-12T23:04:09.000Z</time>
        <extensions>
          <ns3:TrackPointExtension>
            <ns3:atemp>24.0</ns3:atemp>
            <ns3:hr>123</ns3:hr>
          </ns3:TrackPointExtension>
        </extensions>
      </trkpt>
      <trkpt lat="-22.11284550838172435760498046875" lon="166.45751151256263256072998046875">
        <ele>422.399993896484375</ele>
        <time>2016-08-12T23:04:10.000Z</time>
        <extensions>
          <ns3:TrackPointExtension>
            <ns3:atemp>24.0</ns3:atemp>
            <ns3:hr>124</ns3:hr>
          </ns3:TrackPointExtension>
        </extensions>
      </trkpt>
      <trkpt lat="-22.11283578537404537200927734375" lon="166.457537077367305755615234375">
        <ele>422.20001220703125</ele>
        <time>2016-08-12T23:04:11.000Z</time>
        <extensions>
          <ns3:TrackPointExtension>
            <ns3:atemp>24.0</ns3:atemp>
            <ns3:hr>125</ns3:hr>
          </ns3:TrackPointExtension>
        </extensions>
      </trkpt>
      <trkpt lat="-22.1128303371369838714599609375" lon="166.45757085643708705902099609375">
        <ele>422.20001220703125</ele>
        <time>2016-08-12T23:04:12.000Z</time>
        <extensions>
          <ns3:TrackPointExtension>
            <ns3:atemp>24.0</ns3:atemp>
            <ns3:hr>125</ns3:hr>
          </ns3:TrackPointExtension>
        </extensions>
      </trkpt>
      <trkpt lat="-22.1128276549279689788818359375" lon="166.4576002769172191619873046875">
        <ele>422</ele>
        <time>2016-08-12T23:04:13.000Z</time>
        <extensions>
          <ns3:TrackPointExtension>
            <ns3:atemp>24.0</ns3:atemp>
            <ns3:hr>127</ns3:hr>
          </ns3:TrackPointExtension>
        </extensions>
      </trkpt>
      <trkpt lat="-22.1128232963383197784423828125" lon="166.45763472653925418853759765625">
        <ele>422</ele>
        <time>2016-08-12T23:04:14.000Z</time>
        <extensions>
          <ns3:TrackPointExtension>
            <ns3:atemp>24.0</ns3:atemp>
            <ns3:hr>127</ns3:hr>
          </ns3:TrackPointExtension>
        </extensions>
      </trkpt>
      <trkpt lat="-22.1128165908157825469970703125" lon="166.45766473375260829925537109375">
        <ele>421.79998779296875</ele>
        <time>2016-08-12T23:04:15.000Z</time>
        <extensions>
          <ns3:TrackPointExtension>
            <ns3:atemp>24.0</ns3:atemp>
            <ns3:hr>127</ns3:hr>
          </ns3:TrackPointExtension>
        </extensions>
      </trkpt>
      <trkpt lat="-22.11280946619808673858642578125" lon="166.45769071765244007110595703125">
        <ele>421.399993896484375</ele>
        <time>2016-08-12T23:04:16.000Z</time>
        <extensions>
          <ns3:TrackPointExtension>
            <ns3:atemp>24.0</ns3:atemp>
            <ns3:hr>128</ns3:hr>
          </ns3:TrackPointExtension>
        </extensions>
      </trkpt>
      <trkpt lat="-22.11279471404850482940673828125" lon="166.45771854557096958160400390625">
        <ele>421.20001220703125</ele>
        <time>2016-08-12T23:04:17.000Z</time>
        <extensions>
          <ns3:TrackPointExtension>
            <ns3:atemp>24.0</ns3:atemp>
            <ns3:hr>128</ns3:hr>
          </ns3:TrackPointExtension>
        </extensions>
      </trkpt>
      <trkpt lat="-22.11278582923114299774169921875" lon="166.457745619118213653564453125">
        <ele>420.600006103515625</ele>
        <time>2016-08-12T23:04:18.000Z</time>
        <extensions>
          <ns3:TrackPointExtension>
            <ns3:atemp>24.0</ns3:atemp>
            <ns3:hr>129</ns3:hr>
          </ns3:TrackPointExtension>
        </extensions>
      </trkpt>
      <trkpt lat="-22.11277744732797145843505859375" lon="166.4577736146748065948486328125">
        <ele>420</ele>
        <time>2016-08-12T23:04:19.000Z</time>
        <extensions>
          <ns3:TrackPointExtension>
            <ns3:atemp>24.0</ns3:atemp>
            <ns3:hr>129</ns3:hr>
          </ns3:TrackPointExtension>
        </extensions>
      </trkpt>
      <trkpt lat="-22.112766802310943603515625" lon="166.45780102349817752838134765625">
        <ele>419.600006103515625</ele>
        <time>2016-08-12T23:04:20.000Z</time>
        <extensions>
          <ns3:TrackPointExtension>
            <ns3:atemp>24.0</ns3:atemp>
            <ns3:hr>129</ns3:hr>
          </ns3:TrackPointExtension>
        </extensions>
      </trkpt>
      <trkpt lat="-22.11275917477905750274658203125" lon="166.457828097045421600341796875">
        <ele>419.20001220703125</ele>
        <time>2016-08-12T23:04:21.000Z</time>
        <extensions>
          <ns3:TrackPointExtension>
            <ns3:atemp>24.0</ns3:atemp>
            <ns3:hr>129</ns3:hr>
          </ns3:TrackPointExtension>
        </extensions>
      </trkpt>
      <trkpt lat="-22.1127559058368206024169921875" lon="166.4578570984303951263427734375">
        <ele>419</ele>
        <time>2016-08-12T23:04:22.000Z</time>
        <extensions>
          <ns3:TrackPointExtension>
            <ns3:atemp>24.0</ns3:atemp>
            <ns3:hr>129</ns3:hr>
          </ns3:TrackPointExtension>
        </extensions>
      </trkpt>
      <trkpt lat="-22.11275934241712093353271484375" lon="166.45788752473890781402587890625">
        <ele>418.79998779296875</ele>
        <time>2016-08-12T23:04:23.000Z</time>
        <extensions>
          <ns3:TrackPointExtension>
            <ns3:atemp>24.0</ns3:atemp>
            <ns3:hr>129</ns3:hr>
          </ns3:TrackPointExtension>
        </extensions>
      </trkpt>
      <trkpt lat="-22.1127679757773876190185546875" lon="166.45791635848581790924072265625">
        <ele>418.600006103515625</ele>
        <time>2016-08-12T23:04:24.000Z</time>
        <extensions>
          <ns3:TrackPointExtension>
            <ns3:atemp>24.0</ns3:atemp>
            <ns3:hr>130</ns3:hr>
          </ns3:TrackPointExtension>
        </extensions>
      </trkpt>
      <trkpt lat="-22.112779207527637481689453125" lon="166.45794485695660114288330078125">
        <ele>418.20001220703125</ele>
        <time>2016-08-12T23:04:25.000Z</time>
        <extensions>
          <ns3:TrackPointExtension>
            <ns3:atemp>24.0</ns3:atemp>
            <ns3:hr>129</ns3:hr>
          </ns3:TrackPointExtension>
        </extensions>
      </trkpt>
      <trkpt lat="-22.112794630229473114013671875" lon="166.457973606884479522705078125">
        <ele>418.20001220703125</ele>
        <time>2016-08-12T23:04:26.000Z</time>
        <extensions>
          <ns3:TrackPointExtension>
            <ns3:atemp>24.0</ns3:atemp>
            <ns3:hr>129</ns3:hr>
          </ns3:TrackPointExtension>
        </extensions>
      </trkpt>
      <trkpt lat="-22.11280862800776958465576171875" lon="166.458001434803009033203125">
        <ele>418.399993896484375</ele>
        <time>2016-08-12T23:04:27.000Z</time>
        <extensions>
          <ns3:TrackPointExtension>
            <ns3:atemp>24.0</ns3:atemp>
            <ns3:hr>129</ns3:hr>
          </ns3:TrackPointExtension>
        </extensions>
      </trkpt>
      <trkpt lat="-22.11282312870025634765625" lon="166.4580267481505870819091796875">
        <ele>418.20001220703125</ele>
        <time>2016-08-12T23:04:28.000Z</time>
        <extensions>
          <ns3:TrackPointExtension>
            <ns3:atemp>24.0</ns3:atemp>
            <ns3:hr>129</ns3:hr>
          </ns3:TrackPointExtension>
        </extensions>
      </trkpt>
      <trkpt lat="-22.112838886678218841552734375" lon="166.45805197767913341522216796875">
        <ele>417.79998779296875</ele>
        <time>2016-08-12T23:04:29.000Z</time>
        <extensions>
          <ns3:TrackPointExtension>
            <ns3:atemp>24.0</ns3:atemp>
            <ns3:hr>129</ns3:hr>
          </ns3:TrackPointExtension>
        </extensions>
      </trkpt>
      <trkpt lat="-22.11285288445651531219482421875" lon="166.458076871931552886962890625">
        <ele>417</ele>
        <time>2016-08-12T23:04:30.000Z</time>
        <extensions>
          <ns3:TrackPointExtension>
            <ns3:atemp>24.0</ns3:atemp>
            <ns3:hr>128</ns3:hr>
          </ns3:TrackPointExtension>
        </extensions>
      </trkpt>
      <trkpt lat="-22.11286763660609722137451171875" lon="166.4581015147268772125244140625">
        <ele>416.399993896484375</ele>
        <time>2016-08-12T23:04:31.000Z</time>
        <extensions>
          <ns3:TrackPointExtension>
            <ns3:atemp>24.0</ns3:atemp>
            <ns3:hr>128</ns3:hr>
          </ns3:TrackPointExtension>
        </extensions>
      </trkpt>
      <trkpt lat="-22.1128834784030914306640625" lon="166.45812414586544036865234375">
        <ele>416.20001220703125</ele>
        <time>2016-08-12T23:04:32.000Z</time>
        <extensions>
          <ns3:TrackPointExtension>
            <ns3:atemp>24.0</ns3:atemp>
            <ns3:hr>128</ns3:hr>
          </ns3:TrackPointExtension>
        </extensions>
      </trkpt>
      <trkpt lat="-22.11289864964783191680908203125" lon="166.45814635790884494781494140625">
        <ele>415.600006103515625</ele>
        <time>2016-08-12T23:04:33.000Z</time>
        <extensions>
          <ns3:TrackPointExtension>
            <ns3:atemp>24.0</ns3:atemp>
            <ns3:hr>128</ns3:hr>
          </ns3:TrackPointExtension>
        </extensions>
      </trkpt>
      <trkpt lat="-22.112913317978382110595703125" lon="166.4581689052283763885498046875">
        <ele>415.399993896484375</ele>
        <time>2016-08-12T23:04:34.000Z</time>
        <extensions>
          <ns3:TrackPointExtension>
            <ns3:atemp>24.0</ns3:atemp>
            <ns3:hr>128</ns3:hr>
          </ns3:TrackPointExtension>
        </extensions>
      </trkpt>
      <trkpt lat="-22.11292765103280544281005859375" lon="166.45819195546209812164306640625">
        <ele>415.20001220703125</ele>
        <time>2016-08-12T23:04:35.000Z</time>
        <extensions>
          <ns3:TrackPointExtension>
            <ns3:atemp>24.0</ns3:atemp>
            <ns3:hr>128</ns3:hr>
          </ns3:TrackPointExtension>
        </extensions>
      </trkpt>
      <trkpt lat="-22.1129396371543407440185546875" lon="166.45821408368647098541259765625">
        <ele>415</ele>
        <time>2016-08-12T23:04:36.000Z</time>
        <extensions>
          <ns3:TrackPointExtension>
            <ns3:atemp>24.0</ns3:atemp>
            <ns3:hr>128</ns3:hr>
          </ns3:TrackPointExtension>
        </extensions>
      </trkpt>
      <trkpt lat="-22.112956233322620391845703125" lon="166.4582352899014949798583984375">
        <ele>414.79998779296875</ele>
        <time>2016-08-12T23:04:37.000Z</time>
        <extensions>
          <ns3:TrackPointExtension>
            <ns3:atemp>24.0</ns3:atemp>
            <ns3:hr>128</ns3:hr>
          </ns3:TrackPointExtension>
        </extensions>
      </trkpt>
      <trkpt lat="-22.11297266185283660888671875" lon="166.4582564122974872589111328125">
        <ele>414.600006103515625</ele>
        <time>2016-08-12T23:04:38.000Z</time>
        <extensions>
          <ns3:TrackPointExtension>
            <ns3:atemp>24.0</ns3:atemp>
            <ns3:hr>129</ns3:hr>
          </ns3:TrackPointExtension>
        </extensions>
      </trkpt>
      <trkpt lat="-22.112986743450164794921875" lon="166.45827703177928924560546875">
        <ele>414.399993896484375</ele>
        <time>2016-08-12T23:04:39.000Z</time>
        <extensions>
          <ns3:TrackPointExtension>
            <ns3:atemp>24.0</ns3:atemp>
            <ns3:hr>129</ns3:hr>
          </ns3:TrackPointExtension>
        </extensions>
      </trkpt>
      <trkpt lat="-22.1130001544952392578125" lon="166.45829848945140838623046875">
        <ele>414</ele>
        <time>2016-08-12T23:04:40.000Z</time>
        <extensions>
          <ns3:TrackPointExtension>
            <ns3:atemp>24.0</ns3:atemp>
            <ns3:hr>128</ns3:hr>
          </ns3:TrackPointExtension>
        </extensions>
      </trkpt>
      <trkpt lat="-22.11301381699740886688232421875" lon="166.4583204500377178192138671875">
        <ele>413.600006103515625</ele>
        <time>2016-08-12T23:04:41.000Z</time>
        <extensions>
          <ns3:TrackPointExtension>
            <ns3:atemp>24.0</ns3:atemp>
            <ns3:hr>128</ns3:hr>
          </ns3:TrackPointExtension>
        </extensions>
      </trkpt>
      <trkpt lat="-22.1130254678428173065185546875" lon="166.4583434164524078369140625">
        <ele>413.20001220703125</ele>
        <time>2016-08-12T23:04:42.000Z</time>
        <extensions>
          <ns3:TrackPointExtension>
            <ns3:atemp>24.0</ns3:atemp>
            <ns3:hr>128</ns3:hr>
          </ns3:TrackPointExtension>
        </extensions>
      </trkpt>
      <trkpt lat="-22.1130385436117649078369140625" lon="166.45836713723838329315185546875">
        <ele>413</ele>
        <time>2016-08-12T23:04:43.000Z</time>
        <extensions>
          <ns3:TrackPointExtension>
            <ns3:atemp>24.0</ns3:atemp>
            <ns3:hr>128</ns3:hr>
          </ns3:TrackPointExtension>
        </extensions>
      </trkpt>
      <trkpt lat="-22.1130482666194438934326171875" lon="166.45839110948145389556884765625">
        <ele>412.79998779296875</ele>
        <time>2016-08-12T23:04:44.000Z</time>
        <extensions>
          <ns3:TrackPointExtension>
            <ns3:atemp>24.0</ns3:atemp>
            <ns3:hr>128</ns3:hr>
          </ns3:TrackPointExtension>
        </extensions>
      </trkpt>
      <trkpt lat="-22.11304969154298305511474609375" lon="166.4584156684577465057373046875">
        <ele>412.600006103515625</ele>
        <time>2016-08-12T23:04:45.000Z</time>
        <extensions>
          <ns3:TrackPointExtension>
            <ns3:atemp>24.0</ns3:atemp>
            <ns3:hr>128</ns3:hr>
          </ns3:TrackPointExtension>
        </extensions>
      </trkpt>
      <trkpt lat="-22.11304868571460247039794921875" lon="166.45844223909080028533935546875">
        <ele>412.399993896484375</ele>
        <time>2016-08-12T23:04:46.000Z</time>
        <extensions>
          <ns3:TrackPointExtension>
            <ns3:atemp>24.0</ns3:atemp>
            <ns3:hr>128</ns3:hr>
          </ns3:TrackPointExtension>
        </extensions>
      </trkpt>
      <trkpt lat="-22.11305136792361736297607421875" lon="166.45846654660999774932861328125">
        <ele>412</ele>
        <time>2016-08-12T23:04:47.000Z</time>
        <extensions>
          <ns3:TrackPointExtension>
            <ns3:atemp>24.0</ns3:atemp>
            <ns3:hr>127</ns3:hr>
          </ns3:TrackPointExtension>
        </extensions>
      </trkpt>
      <trkpt lat="-22.1130482666194438934326171875" lon="166.4584911055862903594970703125">
        <ele>411.399993896484375</ele>
        <time>2016-08-12T23:04:48.000Z</time>
        <extensions>
          <ns3:TrackPointExtension>
            <ns3:atemp>24.0</ns3:atemp>
            <ns3:hr>127</ns3:hr>
          </ns3:TrackPointExtension>
        </extensions>
      </trkpt>
      <trkpt lat="-22.1130422316491603851318359375" lon="166.45851708948612213134765625">
        <ele>411.20001220703125</ele>
        <time>2016-08-12T23:04:49.000Z</time>
        <extensions>
          <ns3:TrackPointExtension>
            <ns3:atemp>24.0</ns3:atemp>
            <ns3:hr>127</ns3:hr>
          </ns3:TrackPointExtension>
        </extensions>
      </trkpt>
      <trkpt lat="-22.11303410120308399200439453125" lon="166.45854055881500244140625">
        <ele>410.79998779296875</ele>
        <time>2016-08-12T23:04:50.000Z</time>
        <extensions>
          <ns3:TrackPointExtension>
            <ns3:atemp>24.0</ns3:atemp>
            <ns3:hr>127</ns3:hr>
          </ns3:TrackPointExtension>
        </extensions>
      </trkpt>
      <trkpt lat="-22.11302555166184902191162109375" lon="166.45856679417192935943603515625">
        <ele>410.600006103515625</ele>
        <time>2016-08-12T23:04:51.000Z</time>
        <extensions>
          <ns3:TrackPointExtension>
            <ns3:atemp>24.0</ns3:atemp>
            <ns3:hr>127</ns3:hr>
          </ns3:TrackPointExtension>
        </extensions>
      </trkpt>
      <trkpt lat="-22.113017253577709197998046875" lon="166.45859361626207828521728515625">
        <ele>410.399993896484375</ele>
        <time>2016-08-12T23:04:52.000Z</time>
        <extensions>
          <ns3:TrackPointExtension>
            <ns3:atemp>24.0</ns3:atemp>
            <ns3:hr>127</ns3:hr>
          </ns3:TrackPointExtension>
        </extensions>
      </trkpt>
      <trkpt lat="-22.1130093745887279510498046875" lon="166.458619348704814910888671875">
        <ele>410</ele>
        <time>2016-08-12T23:04:53.000Z</time>
        <extensions>
          <ns3:TrackPointExtension>
            <ns3:atemp>24.0</ns3:atemp>
            <ns3:hr>127</ns3:hr>
          </ns3:TrackPointExtension>
        </extensions>
      </trkpt>
      <trkpt lat="-22.11300342343747615814208984375" lon="166.45864625461399555206298828125">
        <ele>409.600006103515625</ele>
        <time>2016-08-12T23:04:54.000Z</time>
        <extensions>
          <ns3:TrackPointExtension>
            <ns3:atemp>24.0</ns3:atemp>
            <ns3:hr>127</ns3:hr>
          </ns3:TrackPointExtension>
        </extensions>
      </trkpt>
      <trkpt lat="-22.11299839429557323455810546875" lon="166.45867408253252506256103515625">
        <ele>409.399993896484375</ele>
        <time>2016-08-12T23:04:55.000Z</time>
        <extensions>
          <ns3:TrackPointExtension>
            <ns3:atemp>24.0</ns3:atemp>
            <ns3:hr>127</ns3:hr>
          </ns3:TrackPointExtension>
        </extensions>
      </trkpt>
      <trkpt lat="-22.11299453862011432647705078125" lon="166.45869788713753223419189453125">
        <ele>409.20001220703125</ele>
        <time>2016-08-12T23:04:56.000Z</time>
        <extensions>
          <ns3:TrackPointExtension>
            <ns3:atemp>24.0</ns3:atemp>
            <ns3:hr>127</ns3:hr>
          </ns3:TrackPointExtension>
        </extensions>
      </trkpt>
      <trkpt lat="-22.11299034766852855682373046875" lon="166.4587224461138248443603515625">
        <ele>409.20001220703125</ele>
        <time>2016-08-12T23:04:57.000Z</time>
        <extensions>
          <ns3:TrackPointExtension>
            <ns3:atemp>24.0</ns3:atemp>
            <ns3:hr>126</ns3:hr>
          </ns3:TrackPointExtension>
        </extensions>
      </trkpt>
      <trkpt lat="-22.112987749278545379638671875" lon="166.4587485976517200469970703125">
        <ele>408.79998779296875</ele>
        <time>2016-08-12T23:04:58.000Z</time>
        <extensions>
          <ns3:TrackPointExtension>
            <ns3:atemp>24.0</ns3:atemp>
            <ns3:hr>126</ns3:hr>
          </ns3:TrackPointExtension>
        </extensions>
      </trkpt>
      <trkpt lat="-22.1129832230508327484130859375" lon="166.45877550356090068817138671875">
        <ele>408.399993896484375</ele>
        <time>2016-08-12T23:04:59.000Z</time>
        <extensions>
          <ns3:TrackPointExtension>
            <ns3:atemp>24.0</ns3:atemp>
            <ns3:hr>126</ns3:hr>
          </ns3:TrackPointExtension>
        </extensions>
      </trkpt>
      <trkpt lat="-22.11298213340342044830322265625" lon="166.458803750574588775634765625">
        <ele>408</ele>
        <time>2016-08-12T23:05:00.000Z</time>
        <extensions>
          <ns3:TrackPointExtension>
            <ns3:atemp>24.0</ns3:atemp>
            <ns3:hr>126</ns3:hr>
          </ns3:TrackPointExtension>
        </extensions>
      </trkpt>
      <trkpt lat="-22.11298615671694278717041015625" lon="166.45883090794086456298828125">
        <ele>407.79998779296875</ele>
        <time>2016-08-12T23:05:01.000Z</time>
        <extensions>
          <ns3:TrackPointExtension>
            <ns3:atemp>24.0</ns3:atemp>
            <ns3:hr>126</ns3:hr>
          </ns3:TrackPointExtension>
        </extensions>
      </trkpt>
      <trkpt lat="-22.1129895932972431182861328125" lon="166.45885865204036235809326171875">
        <ele>407.399993896484375</ele>
        <time>2016-08-12T23:05:02.000Z</time>
        <extensions>
          <ns3:TrackPointExtension>
            <ns3:atemp>24.0</ns3:atemp>
            <ns3:hr>126</ns3:hr>
          </ns3:TrackPointExtension>
        </extensions>
      </trkpt>
      <trkpt lat="-22.1129879169166088104248046875" lon="166.45888882689177989959716796875">
        <ele>407.20001220703125</ele>
        <time>2016-08-12T23:05:03.000Z</time>
        <extensions>
          <ns3:TrackPointExtension>
            <ns3:atemp>24.0</ns3:atemp>
            <ns3:hr>126</ns3:hr>
          </ns3:TrackPointExtension>
        </extensions>
      </trkpt>
      <trkpt lat="-22.1129832230508327484130859375" lon="166.45891732536256313323974609375">
        <ele>407</ele>
        <time>2016-08-12T23:05:04.000Z</time>
        <extensions>
          <ns3:TrackPointExtension>
            <ns3:atemp>24.0</ns3:atemp>
            <ns3:hr>126</ns3:hr>
          </ns3:TrackPointExtension>
        </extensions>
      </trkpt>
      <trkpt lat="-22.11298062466084957122802734375" lon="166.45894599147140979766845703125">
        <ele>406.79998779296875</ele>
        <time>2016-08-12T23:05:05.000Z</time>
        <extensions>
          <ns3:TrackPointExtension>
            <ns3:atemp>24.0</ns3:atemp>
            <ns3:hr>126</ns3:hr>
          </ns3:TrackPointExtension>
        </extensions>
      </trkpt>
      <trkpt lat="-22.11297802627086639404296875" lon="166.4589755795896053314208984375">
        <ele>407.20001220703125</ele>
        <time>2016-08-12T23:05:06.000Z</time>
        <extensions>
          <ns3:TrackPointExtension>
            <ns3:atemp>24.0</ns3:atemp>
            <ns3:hr>126</ns3:hr>
          </ns3:TrackPointExtension>
        </extensions>
      </trkpt>
      <trkpt lat="-22.112973667681217193603515625" lon="166.45900047384202480316162109375">
        <ele>408</ele>
        <time>2016-08-12T23:05:07.000Z</time>
        <extensions>
          <ns3:TrackPointExtension>
            <ns3:atemp>24.0</ns3:atemp>
            <ns3:hr>126</ns3:hr>
          </ns3:TrackPointExtension>
        </extensions>
      </trkpt>
      <trkpt lat="-22.11296956054866313934326171875" lon="166.4590262062847614288330078125">
        <ele>407.600006103515625</ele>
        <time>2016-08-12T23:05:08.000Z</time>
        <extensions>
          <ns3:TrackPointExtension>
            <ns3:atemp>24.0</ns3:atemp>
            <ns3:hr>126</ns3:hr>
          </ns3:TrackPointExtension>
        </extensions>
      </trkpt>
      <trkpt lat="-22.11297056637704372406005859375" lon="166.4590516872704029083251953125">
        <ele>407</ele>
        <time>2016-08-12T23:05:09.000Z</time>
        <extensions>
          <ns3:TrackPointExtension>
            <ns3:atemp>24.0</ns3:atemp>
            <ns3:hr>126</ns3:hr>
          </ns3:TrackPointExtension>
        </extensions>
      </trkpt>
      <trkpt lat="-22.11297358386218547821044921875" lon="166.4590768329799175262451171875">
        <ele>406.20001220703125</ele>
        <time>2016-08-12T23:05:10.000Z</time>
        <extensions>
          <ns3:TrackPointExtension>
            <ns3:atemp>24.0</ns3:atemp>
            <ns3:hr>126</ns3:hr>
          </ns3:TrackPointExtension>
        </extensions>
      </trkpt>
      <trkpt lat="-22.11297224275767803192138671875" lon="166.459104157984256744384765625">
        <ele>405.600006103515625</ele>
        <time>2016-08-12T23:05:11.000Z</time>
        <extensions>
          <ns3:TrackPointExtension>
            <ns3:atemp>24.0</ns3:atemp>
            <ns3:hr>126</ns3:hr>
          </ns3:TrackPointExtension>
        </extensions>
      </trkpt>
      <trkpt lat="-22.1129718236625194549560546875" lon="166.45913064479827880859375">
        <ele>405.20001220703125</ele>
        <time>2016-08-12T23:05:12.000Z</time>
        <extensions>
          <ns3:TrackPointExtension>
            <ns3:atemp>24.0</ns3:atemp>
            <ns3:hr>127</ns3:hr>
          </ns3:TrackPointExtension>
        </extensions>
      </trkpt>
      <trkpt lat="-22.11297308094799518585205078125" lon="166.45915620960295200347900390625">
        <ele>404.79998779296875</ele>
        <time>2016-08-12T23:05:13.000Z</time>
        <extensions>
          <ns3:TrackPointExtension>
            <ns3:atemp>24.0</ns3:atemp>
            <ns3:hr>127</ns3:hr>
          </ns3:TrackPointExtension>
        </extensions>
      </trkpt>
      <trkpt lat="-22.1129721589386463165283203125" lon="166.4591829478740692138671875">
        <ele>404.399993896484375</ele>
        <time>2016-08-12T23:05:14.000Z</time>
        <extensions>
          <ns3:TrackPointExtension>
            <ns3:atemp>24.0</ns3:atemp>
            <ns3:hr>127</ns3:hr>
          </ns3:TrackPointExtension>
        </extensions>
      </trkpt>
      <trkpt lat="-22.112973667681217193603515625" lon="166.45920884795486927032470703125">
        <ele>404.20001220703125</ele>
        <time>2016-08-12T23:05:15.000Z</time>
        <extensions>
          <ns3:TrackPointExtension>
            <ns3:atemp>24.0</ns3:atemp>
            <ns3:hr>127</ns3:hr>
          </ns3:TrackPointExtension>
        </extensions>
      </trkpt>
      <trkpt lat="-22.112975679337978363037109375" lon="166.45923533476889133453369140625">
        <ele>404</ele>
        <time>2016-08-12T23:05:16.000Z</time>
        <extensions>
          <ns3:TrackPointExtension>
            <ns3:atemp>24.0</ns3:atemp>
            <ns3:hr>127</ns3:hr>
          </ns3:TrackPointExtension>
        </extensions>
      </trkpt>
      <trkpt lat="-22.1129791997373104095458984375" lon="166.4592632465064525604248046875">
        <ele>404</ele>
        <time>2016-08-12T23:05:17.000Z</time>
        <extensions>
          <ns3:TrackPointExtension>
            <ns3:atemp>24.0</ns3:atemp>
            <ns3:hr>127</ns3:hr>
          </ns3:TrackPointExtension>
        </extensions>
      </trkpt>
      <trkpt lat="-22.112985067069530487060546875" lon="166.4592893980443477630615234375">
        <ele>403.79998779296875</ele>
        <time>2016-08-12T23:05:18.000Z</time>
        <extensions>
          <ns3:TrackPointExtension>
            <ns3:atemp>24.0</ns3:atemp>
            <ns3:hr>127</ns3:hr>
          </ns3:TrackPointExtension>
        </extensions>
      </trkpt>
      <trkpt lat="-22.1129889227449893951416015625" lon="166.45931613631546497344970703125">
        <ele>403.600006103515625</ele>
        <time>2016-08-12T23:05:19.000Z</time>
        <extensions>
          <ns3:TrackPointExtension>
            <ns3:atemp>24.0</ns3:atemp>
            <ns3:hr>127</ns3:hr>
          </ns3:TrackPointExtension>
        </extensions>
      </trkpt>
      <trkpt lat="-22.11299277842044830322265625" lon="166.4593443833291530609130859375">
        <ele>403.20001220703125</ele>
        <time>2016-08-12T23:05:20.000Z</time>
        <extensions>
          <ns3:TrackPointExtension>
            <ns3:atemp>24.0</ns3:atemp>
            <ns3:hr>127</ns3:hr>
          </ns3:TrackPointExtension>
        </extensions>
      </trkpt>
      <trkpt lat="-22.11299621500074863433837890625" lon="166.45937195979058742523193359375">
        <ele>403</ele>
        <time>2016-08-12T23:05:21.000Z</time>
        <extensions>
          <ns3:TrackPointExtension>
            <ns3:atemp>24.0</ns3:atemp>
            <ns3:hr>127</ns3:hr>
          </ns3:TrackPointExtension>
        </extensions>
      </trkpt>
      <trkpt lat="-22.11300216615200042724609375" lon="166.45939962007105350494384765625">
        <ele>402.79998779296875</ele>
        <time>2016-08-12T23:05:22.000Z</time>
        <extensions>
          <ns3:TrackPointExtension>
            <ns3:atemp>24.0</ns3:atemp>
            <ns3:hr>127</ns3:hr>
          </ns3:TrackPointExtension>
        </extensions>
      </trkpt>
      <trkpt lat="-22.11300551891326904296875" lon="166.45942878909409046173095703125">
        <ele>402.600006103515625</ele>
        <time>2016-08-12T23:05:23.000Z</time>
        <extensions>
          <ns3:TrackPointExtension>
            <ns3:atemp>24.0</ns3:atemp>
            <ns3:hr>128</ns3:hr>
          </ns3:TrackPointExtension>
        </extensions>
      </trkpt>
      <trkpt lat="-22.1130066923797130584716796875" lon="166.459457874298095703125">
        <ele>402.399993896484375</ele>
        <time>2016-08-12T23:05:24.000Z</time>
        <extensions>
          <ns3:TrackPointExtension>
            <ns3:atemp>24.0</ns3:atemp>
            <ns3:hr>127</ns3:hr>
          </ns3:TrackPointExtension>
        </extensions>
      </trkpt>
      <trkpt lat="-22.113008201122283935546875" lon="166.45948830060660839080810546875">
        <ele>402.20001220703125</ele>
        <time>2016-08-12T23:05:25.000Z</time>
        <extensions>
          <ns3:TrackPointExtension>
            <ns3:atemp>24.0</ns3:atemp>
            <ns3:hr>127</ns3:hr>
          </ns3:TrackPointExtension>
        </extensions>
      </trkpt>
      <trkpt lat="-22.11301029659807682037353515625" lon="166.45951688289642333984375">
        <ele>402</ele>
        <time>2016-08-12T23:05:26.000Z</time>
        <extensions>
          <ns3:TrackPointExtension>
            <ns3:atemp>24.0</ns3:atemp>
            <ns3:hr>127</ns3:hr>
          </ns3:TrackPointExtension>
        </extensions>
      </trkpt>
      <trkpt lat="-22.1130164153873920440673828125" lon="166.459544040262699127197265625">
        <ele>401.600006103515625</ele>
        <time>2016-08-12T23:05:27.000Z</time>
        <extensions>
          <ns3:TrackPointExtension>
            <ns3:atemp>24.0</ns3:atemp>
            <ns3:hr>127</ns3:hr>
          </ns3:TrackPointExtension>
        </extensions>
      </trkpt>
      <trkpt lat="-22.11302337236702442169189453125" lon="166.459573209285736083984375">
        <ele>401.20001220703125</ele>
        <time>2016-08-12T23:05:28.000Z</time>
        <extensions>
          <ns3:TrackPointExtension>
            <ns3:atemp>24.0</ns3:atemp>
            <ns3:hr>127</ns3:hr>
          </ns3:TrackPointExtension>
        </extensions>
      </trkpt>
      <trkpt lat="-22.113030664622783660888671875" lon="166.4596008695662021636962890625">
        <ele>401.20001220703125</ele>
        <time>2016-08-12T23:05:29.000Z</time>
        <extensions>
          <ns3:TrackPointExtension>
            <ns3:atemp>24.0</ns3:atemp>
            <ns3:hr>127</ns3:hr>
          </ns3:TrackPointExtension>
        </extensions>
      </trkpt>
      <trkpt lat="-22.11304114200174808502197265625" lon="166.459627188742160797119140625">
        <ele>401</ele>
        <time>2016-08-12T23:05:30.000Z</time>
        <extensions>
          <ns3:TrackPointExtension>
            <ns3:atemp>24.0</ns3:atemp>
            <ns3:hr>128</ns3:hr>
          </ns3:TrackPointExtension>
        </extensions>
      </trkpt>
      <trkpt lat="-22.11305622942745685577392578125" lon="166.45965191535651683807373046875">
        <ele>400.79998779296875</ele>
        <time>2016-08-12T23:05:31.000Z</time>
        <extensions>
          <ns3:TrackPointExtension>
            <ns3:atemp>24.0</ns3:atemp>
            <ns3:hr>128</ns3:hr>
          </ns3:TrackPointExtension>
        </extensions>
      </trkpt>
      <trkpt lat="-22.11307517252862453460693359375" lon="166.45967957563698291778564453125">
        <ele>400.600006103515625</ele>
        <time>2016-08-12T23:05:32.000Z</time>
        <extensions>
          <ns3:TrackPointExtension>
            <ns3:atemp>24.0</ns3:atemp>
            <ns3:hr>127</ns3:hr>
          </ns3:TrackPointExtension>
        </extensions>
      </trkpt>
      <trkpt lat="-22.11309428326785564422607421875" lon="166.45970128476619720458984375">
        <ele>400.600006103515625</ele>
        <time>2016-08-12T23:05:33.000Z</time>
        <extensions>
          <ns3:TrackPointExtension>
            <ns3:atemp>24.0</ns3:atemp>
            <ns3:hr>127</ns3:hr>
          </ns3:TrackPointExtension>
        </extensions>
      </trkpt>
      <trkpt lat="-22.11311423219740390777587890625" lon="166.45972047932446002960205078125">
        <ele>400.20001220703125</ele>
        <time>2016-08-12T23:05:34.000Z</time>
        <extensions>
          <ns3:TrackPointExtension>
            <ns3:atemp>24.0</ns3:atemp>
            <ns3:hr>127</ns3:hr>
          </ns3:TrackPointExtension>
        </extensions>
      </trkpt>
      <trkpt lat="-22.1131356060504913330078125" lon="166.459741182625293731689453125">
        <ele>400</ele>
        <time>2016-08-12T23:05:35.000Z</time>
        <extensions>
          <ns3:TrackPointExtension>
            <ns3:atemp>24.0</ns3:atemp>
            <ns3:hr>127</ns3:hr>
          </ns3:TrackPointExtension>
        </extensions>
      </trkpt>
      <trkpt lat="-22.113162092864513397216796875" lon="166.45975685678422451019287109375">
        <ele>399.79998779296875</ele>
        <time>2016-08-12T23:05:36.000Z</time>
        <extensions>
          <ns3:TrackPointExtension>
            <ns3:atemp>24.0</ns3:atemp>
            <ns3:hr>127</ns3:hr>
          </ns3:TrackPointExtension>
        </extensions>
      </trkpt>
      <trkpt lat="-22.113186903297901153564453125" lon="166.459773369133472442626953125">
        <ele>399.399993896484375</ele>
        <time>2016-08-12T23:05:37.000Z</time>
        <extensions>
          <ns3:TrackPointExtension>
            <ns3:atemp>24.0</ns3:atemp>
            <ns3:hr>127</ns3:hr>
          </ns3:TrackPointExtension>
        </extensions>
      </trkpt>
      <trkpt lat="-22.11320869624614715576171875" lon="166.45979055203497409820556640625">
        <ele>399.20001220703125</ele>
        <time>2016-08-12T23:05:38.000Z</time>
        <extensions>
          <ns3:TrackPointExtension>
            <ns3:atemp>24.0</ns3:atemp>
            <ns3:hr>128</ns3:hr>
          </ns3:TrackPointExtension>
        </extensions>
      </trkpt>
      <trkpt lat="-22.1132336743175983428955078125" lon="166.45980061031877994537353515625">
        <ele>399.20001220703125</ele>
        <time>2016-08-12T23:05:39.000Z</time>
        <extensions>
          <ns3:TrackPointExtension>
            <ns3:atemp>24.0</ns3:atemp>
            <ns3:hr>127</ns3:hr>
          </ns3:TrackPointExtension>
        </extensions>
      </trkpt>
      <trkpt lat="-22.1132618375122547149658203125" lon="166.4598090760409832000732421875">
        <ele>399</ele>
        <time>2016-08-12T23:05:40.000Z</time>
        <extensions>
          <ns3:TrackPointExtension>
            <ns3:atemp>24.0</ns3:atemp>
            <ns3:hr>128</ns3:hr>
          </ns3:TrackPointExtension>
        </extensions>
      </trkpt>
      <trkpt lat="-22.1132938563823699951171875" lon="166.4598130993545055389404296875">
        <ele>399</ele>
        <time>2016-08-12T23:05:41.000Z</time>
        <extensions>
          <ns3:TrackPointExtension>
            <ns3:atemp>24.0</ns3:atemp>
            <ns3:hr>128</ns3:hr>
          </ns3:TrackPointExtension>
        </extensions>
      </trkpt>
      <trkpt lat="-22.11332227103412151336669921875" lon="166.4598171226680278778076171875">
        <ele>399</ele>
        <time>2016-08-12T23:05:42.000Z</time>
        <extensions>
          <ns3:TrackPointExtension>
            <ns3:atemp>24.0</ns3:atemp>
            <ns3:hr>127</ns3:hr>
          </ns3:TrackPointExtension>
        </extensions>
      </trkpt>
      <trkpt lat="-22.11334817111492156982421875" lon="166.459819972515106201171875">
        <ele>399</ele>
        <time>2016-08-12T23:05:43.000Z</time>
        <extensions>
          <ns3:TrackPointExtension>
            <ns3:atemp>24.0</ns3:atemp>
            <ns3:hr>128</ns3:hr>
          </ns3:TrackPointExtension>
        </extensions>
      </trkpt>
      <trkpt lat="-22.1133743226528167724609375" lon="166.4598218165338039398193359375">
        <ele>398.600006103515625</ele>
        <time>2016-08-12T23:05:44.000Z</time>
        <extensions>
          <ns3:TrackPointExtension>
            <ns3:atemp>24.0</ns3:atemp>
            <ns3:hr>128</ns3:hr>
          </ns3:TrackPointExtension>
        </extensions>
      </trkpt>
      <trkpt lat="-22.11340248584747314453125" lon="166.459820978343486785888671875">
        <ele>398.399993896484375</ele>
        <time>2016-08-12T23:05:45.000Z</time>
        <extensions>
          <ns3:TrackPointExtension>
            <ns3:atemp>24.0</ns3:atemp>
            <ns3:hr>128</ns3:hr>
          </ns3:TrackPointExtension>
        </extensions>
      </trkpt>
      <trkpt lat="-22.11342788301408290863037109375" lon="166.45981888286769390106201171875">
        <ele>398.399993896484375</ele>
        <time>2016-08-12T23:05:46.000Z</time>
        <extensions>
          <ns3:TrackPointExtension>
            <ns3:atemp>24.0</ns3:atemp>
            <ns3:hr>128</ns3:hr>
          </ns3:TrackPointExtension>
        </extensions>
      </trkpt>
      <trkpt lat="-22.11345554329454898834228515625" lon="166.45981921814382076263427734375">
        <ele>398.399993896484375</ele>
        <time>2016-08-12T23:05:47.000Z</time>
        <extensions>
          <ns3:TrackPointExtension>
            <ns3:atemp>24.0</ns3:atemp>
            <ns3:hr>128</ns3:hr>
          </ns3:TrackPointExtension>
        </extensions>
      </trkpt>
      <trkpt lat="-22.11348420940339565277099609375" lon="166.45981787703931331634521484375">
        <ele>398</ele>
        <time>2016-08-12T23:05:48.000Z</time>
        <extensions>
          <ns3:TrackPointExtension>
            <ns3:atemp>24.0</ns3:atemp>
            <ns3:hr>128</ns3:hr>
          </ns3:TrackPointExtension>
        </extensions>
      </trkpt>
      <trkpt lat="-22.1135075949132442474365234375" lon="166.45981536246836185455322265625">
        <ele>397.79998779296875</ele>
        <time>2016-08-12T23:05:49.000Z</time>
        <extensions>
          <ns3:TrackPointExtension>
            <ns3:atemp>24.0</ns3:atemp>
            <ns3:hr>128</ns3:hr>
          </ns3:TrackPointExtension>
        </extensions>
      </trkpt>
      <trkpt lat="-22.11353450082242488861083984375" lon="166.459814943373203277587890625">
        <ele>397.600006103515625</ele>
        <time>2016-08-12T23:05:50.000Z</time>
        <extensions>
          <ns3:TrackPointExtension>
            <ns3:atemp>24.0</ns3:atemp>
            <ns3:hr>128</ns3:hr>
          </ns3:TrackPointExtension>
        </extensions>
      </trkpt>
      <trkpt lat="-22.11355738341808319091796875" lon="166.45980991423130035400390625">
        <ele>397.399993896484375</ele>
        <time>2016-08-12T23:05:51.000Z</time>
        <extensions>
          <ns3:TrackPointExtension>
            <ns3:atemp>24.0</ns3:atemp>
            <ns3:hr>128</ns3:hr>
          </ns3:TrackPointExtension>
        </extensions>
      </trkpt>
      <trkpt lat="-22.113578505814075469970703125" lon="166.45980454981327056884765625">
        <ele>397.20001220703125</ele>
        <time>2016-08-12T23:05:52.000Z</time>
        <extensions>
          <ns3:TrackPointExtension>
            <ns3:atemp>24.0</ns3:atemp>
            <ns3:hr>128</ns3:hr>
          </ns3:TrackPointExtension>
        </extensions>
      </trkpt>
      <trkpt lat="-22.11360256187617778778076171875" lon="166.4597983472049236297607421875">
        <ele>397.20001220703125</ele>
        <time>2016-08-12T23:05:53.000Z</time>
        <extensions>
          <ns3:TrackPointExtension>
            <ns3:atemp>24.0</ns3:atemp>
            <ns3:hr>128</ns3:hr>
          </ns3:TrackPointExtension>
        </extensions>
      </trkpt>
      <trkpt lat="-22.1136262826621532440185546875" lon="166.459790132939815521240234375">
        <ele>397.20001220703125</ele>
        <time>2016-08-12T23:05:54.000Z</time>
        <extensions>
          <ns3:TrackPointExtension>
            <ns3:atemp>24.0</ns3:atemp>
            <ns3:hr>128</ns3:hr>
          </ns3:TrackPointExtension>
        </extensions>
      </trkpt>
      <trkpt lat="-22.11364924907684326171875" lon="166.45978284068405628204345703125">
        <ele>397.20001220703125</ele>
        <time>2016-08-12T23:05:55.000Z</time>
        <extensions>
          <ns3:TrackPointExtension>
            <ns3:atemp>24.0</ns3:atemp>
            <ns3:hr>128</ns3:hr>
          </ns3:TrackPointExtension>
        </extensions>
      </trkpt>
      <trkpt lat="-22.11367514915764331817626953125" lon="166.4597799070179462432861328125">
        <ele>397.20001220703125</ele>
        <time>2016-08-12T23:05:56.000Z</time>
        <extensions>
          <ns3:TrackPointExtension>
            <ns3:atemp>24.0</ns3:atemp>
            <ns3:hr>128</ns3:hr>
          </ns3:TrackPointExtension>
        </extensions>
      </trkpt>
      <trkpt lat="-22.11370314471423625946044921875" lon="166.45978049375116825103759765625">
        <ele>396.79998779296875</ele>
        <time>2016-08-12T23:05:57.000Z</time>
        <extensions>
          <ns3:TrackPointExtension>
            <ns3:atemp>24.0</ns3:atemp>
            <ns3:hr>128</ns3:hr>
          </ns3:TrackPointExtension>
        </extensions>
      </trkpt>
      <trkpt lat="-22.1137292124330997467041015625" lon="166.4597799070179462432861328125">
        <ele>396.600006103515625</ele>
        <time>2016-08-12T23:05:58.000Z</time>
        <extensions>
          <ns3:TrackPointExtension>
            <ns3:atemp>24.0</ns3:atemp>
            <ns3:hr>128</ns3:hr>
          </ns3:TrackPointExtension>
        </extensions>
      </trkpt>
      <trkpt lat="-22.11374974809587001800537109375" lon="166.45977663807570934295654296875">
        <ele>397</ele>
        <time>2016-08-12T23:05:59.000Z</time>
        <extensions>
          <ns3:TrackPointExtension>
            <ns3:atemp>24.0</ns3:atemp>
            <ns3:hr>128</ns3:hr>
          </ns3:TrackPointExtension>
        </extensions>
      </trkpt>
      <trkpt lat="-22.1137724630534648895263671875" lon="166.45977747626602649688720703125">
        <ele>397.399993896484375</ele>
        <time>2016-08-12T23:06:00.000Z</time>
        <extensions>
          <ns3:TrackPointExtension>
            <ns3:atemp>24.0</ns3:atemp>
            <ns3:hr>128</ns3:hr>
          </ns3:TrackPointExtension>
        </extensions>
      </trkpt>
      <trkpt lat="-22.11379970423877239227294921875" lon="166.45977747626602649688720703125">
        <ele>397.20001220703125</ele>
        <time>2016-08-12T23:06:01.000Z</time>
        <extensions>
          <ns3:TrackPointExtension>
            <ns3:atemp>24.0</ns3:atemp>
            <ns3:hr>128</ns3:hr>
          </ns3:TrackPointExtension>
        </extensions>
      </trkpt>
      <trkpt lat="-22.11382216773927211761474609375" lon="166.45978233776986598968505859375">
        <ele>397</ele>
        <time>2016-08-12T23:06:02.000Z</time>
        <extensions>
          <ns3:TrackPointExtension>
            <ns3:atemp>24.0</ns3:atemp>
            <ns3:hr>128</ns3:hr>
          </ns3:TrackPointExtension>
        </extensions>
      </trkpt>
      <trkpt lat="-22.11384446360170841217041015625" lon="166.459791474044322967529296875">
        <ele>396.600006103515625</ele>
        <time>2016-08-12T23:06:03.000Z</time>
        <extensions>
          <ns3:TrackPointExtension>
            <ns3:atemp>24.0</ns3:atemp>
            <ns3:hr>128</ns3:hr>
          </ns3:TrackPointExtension>
        </extensions>
      </trkpt>
      <trkpt lat="-22.11386810056865215301513671875" lon="166.4598063938319683074951171875">
        <ele>396.399993896484375</ele>
        <time>2016-08-12T23:06:04.000Z</time>
        <extensions>
          <ns3:TrackPointExtension>
            <ns3:atemp>24.0</ns3:atemp>
            <ns3:hr>128</ns3:hr>
          </ns3:TrackPointExtension>
        </extensions>
      </trkpt>
      <trkpt lat="-22.11388637311756610870361328125" lon="166.45981930196285247802734375">
        <ele>396.20001220703125</ele>
        <time>2016-08-12T23:06:05.000Z</time>
        <extensions>
          <ns3:TrackPointExtension>
            <ns3:atemp>24.0</ns3:atemp>
            <ns3:hr>128</ns3:hr>
          </ns3:TrackPointExtension>
        </extensions>
      </trkpt>
      <trkpt lat="-22.11390397511422634124755859375" lon="166.4598365686833858489990234375">
        <ele>396</ele>
        <time>2016-08-12T23:06:06.000Z</time>
        <extensions>
          <ns3:TrackPointExtension>
            <ns3:atemp>24.0</ns3:atemp>
            <ns3:hr>128</ns3:hr>
          </ns3:TrackPointExtension>
        </extensions>
      </trkpt>
      <trkpt lat="-22.1139193139970302581787109375" lon="166.4598533324897289276123046875">
        <ele>395.79998779296875</ele>
        <time>2016-08-12T23:06:07.000Z</time>
        <extensions>
          <ns3:TrackPointExtension>
            <ns3:atemp>24.0</ns3:atemp>
            <ns3:hr>128</ns3:hr>
          </ns3:TrackPointExtension>
        </extensions>
      </trkpt>
      <trkpt lat="-22.1139357425272464752197265625" lon="166.45987018011510372161865234375">
        <ele>395.399993896484375</ele>
        <time>2016-08-12T23:06:08.000Z</time>
        <extensions>
          <ns3:TrackPointExtension>
            <ns3:atemp>24.0</ns3:atemp>
            <ns3:hr>128</ns3:hr>
          </ns3:TrackPointExtension>
        </extensions>
      </trkpt>
      <trkpt lat="-22.11395141668617725372314453125" lon="166.45988945849239826202392578125">
        <ele>395.20001220703125</ele>
        <time>2016-08-12T23:06:09.000Z</time>
        <extensions>
          <ns3:TrackPointExtension>
            <ns3:atemp>24.0</ns3:atemp>
            <ns3:hr>128</ns3:hr>
          </ns3:TrackPointExtension>
        </extensions>
      </trkpt>
      <trkpt lat="-22.11396851576864719390869140625" lon="166.459907479584217071533203125">
        <ele>395.20001220703125</ele>
        <time>2016-08-12T23:06:10.000Z</time>
        <extensions>
          <ns3:TrackPointExtension>
            <ns3:atemp>24.0</ns3:atemp>
            <ns3:hr>128</ns3:hr>
          </ns3:TrackPointExtension>
        </extensions>
      </trkpt>
      <trkpt lat="-22.113989554345607757568359375" lon="166.4599284343421459197998046875">
        <ele>395.20001220703125</ele>
        <time>2016-08-12T23:06:11.000Z</time>
        <extensions>
          <ns3:TrackPointExtension>
            <ns3:atemp>24.0</ns3:atemp>
            <ns3:hr>128</ns3:hr>
          </ns3:TrackPointExtension>
        </extensions>
      </trkpt>
      <trkpt lat="-22.11400740779936313629150390625" lon="166.45995081402361392974853515625">
        <ele>395.20001220703125</ele>
        <time>2016-08-12T23:06:12.000Z</time>
        <extensions>
          <ns3:TrackPointExtension>
            <ns3:atemp>24.0</ns3:atemp>
            <ns3:hr>128</ns3:hr>
          </ns3:TrackPointExtension>
        </extensions>
      </trkpt>
      <trkpt lat="-22.11402014829218387603759765625" lon="166.45996858365833759307861328125">
        <ele>395</ele>
        <time>2016-08-12T23:06:13.000Z</time>
        <extensions>
          <ns3:TrackPointExtension>
            <ns3:atemp>24.0</ns3:atemp>
            <ns3:hr>128</ns3:hr>
          </ns3:TrackPointExtension>
        </extensions>
      </trkpt>
      <trkpt lat="-22.1140346489846706390380859375" lon="166.45998895168304443359375">
        <ele>394.79998779296875</ele>
        <time>2016-08-12T23:06:14.000Z</time>
        <extensions>
          <ns3:TrackPointExtension>
            <ns3:atemp>24.0</ns3:atemp>
            <ns3:hr>128</ns3:hr>
          </ns3:TrackPointExtension>
        </extensions>
      </trkpt>
      <trkpt lat="-22.11404445581138134002685546875" lon="166.4600122533738613128662109375">
        <ele>394.600006103515625</ele>
        <time>2016-08-12T23:06:15.000Z</time>
        <extensions>
          <ns3:TrackPointExtension>
            <ns3:atemp>24.0</ns3:atemp>
            <ns3:hr>128</ns3:hr>
          </ns3:TrackPointExtension>
        </extensions>
      </trkpt>
      <trkpt lat="-22.1140537597239017486572265625" lon="166.46003530360758304595947265625">
        <ele>394.20001220703125</ele>
        <time>2016-08-12T23:06:16.000Z</time>
        <extensions>
          <ns3:TrackPointExtension>
            <ns3:atemp>24.0</ns3:atemp>
            <ns3:hr>128</ns3:hr>
          </ns3:TrackPointExtension>
        </extensions>
      </trkpt>
      <trkpt lat="-22.1140671707689762115478515625" lon="166.46005776710808277130126953125">
        <ele>394</ele>
        <time>2016-08-12T23:06:17.000Z</time>
        <extensions>
          <ns3:TrackPointExtension>
            <ns3:atemp>24.0</ns3:atemp>
            <ns3:hr>128</ns3:hr>
          </ns3:TrackPointExtension>
        </extensions>
      </trkpt>
      <trkpt lat="-22.11408351548016071319580078125" lon="166.46008525975048542022705078125">
        <ele>394</ele>
        <time>2016-08-12T23:06:18.000Z</time>
        <extensions>
          <ns3:TrackPointExtension>
            <ns3:atemp>24.0</ns3:atemp>
            <ns3:hr>128</ns3:hr>
          </ns3:TrackPointExtension>
        </extensions>
      </trkpt>
      <trkpt lat="-22.1140970103442668914794921875" lon="166.46010990254580974578857421875">
        <ele>393.79998779296875</ele>
        <time>2016-08-12T23:06:19.000Z</time>
        <extensions>
          <ns3:TrackPointExtension>
            <ns3:atemp>24.0</ns3:atemp>
            <ns3:hr>128</ns3:hr>
          </ns3:TrackPointExtension>
        </extensions>
      </trkpt>
      <trkpt lat="-22.11410983465611934661865234375" lon="166.46013236604630947113037109375">
        <ele>393.399993896484375</ele>
        <time>2016-08-12T23:06:20.000Z</time>
        <extensions>
          <ns3:TrackPointExtension>
            <ns3:atemp>24.0</ns3:atemp>
            <ns3:hr>128</ns3:hr>
          </ns3:TrackPointExtension>
        </extensions>
      </trkpt>
      <trkpt lat="-22.1141248382627964019775390625" lon="166.46015818230807781219482421875">
        <ele>393.399993896484375</ele>
        <time>2016-08-12T23:06:21.000Z</time>
        <extensions>
          <ns3:TrackPointExtension>
            <ns3:atemp>24.0</ns3:atemp>
            <ns3:hr>127</ns3:hr>
          </ns3:TrackPointExtension>
        </extensions>
      </trkpt>
      <trkpt lat="-22.114141769707202911376953125" lon="166.4601775445044040679931640625">
        <ele>393.20001220703125</ele>
        <time>2016-08-12T23:06:22.000Z</time>
        <extensions>
          <ns3:TrackPointExtension>
            <ns3:atemp>24.0</ns3:atemp>
            <ns3:hr>127</ns3:hr>
          </ns3:TrackPointExtension>
        </extensions>
      </trkpt>
      <trkpt lat="-22.11416146717965602874755859375" lon="166.460198499262332916259765625">
        <ele>392.600006103515625</ele>
        <time>2016-08-12T23:06:23.000Z</time>
        <extensions>
          <ns3:TrackPointExtension>
            <ns3:atemp>24.0</ns3:atemp>
            <ns3:hr>128</ns3:hr>
          </ns3:TrackPointExtension>
        </extensions>
      </trkpt>
      <trkpt lat="-22.1141781471669673919677734375" lon="166.4602204598486423492431640625">
        <ele>392.20001220703125</ele>
        <time>2016-08-12T23:06:24.000Z</time>
        <extensions>
          <ns3:TrackPointExtension>
            <ns3:atemp>24.0</ns3:atemp>
            <ns3:hr>128</ns3:hr>
          </ns3:TrackPointExtension>
        </extensions>
      </trkpt>
      <trkpt lat="-22.1141898818314075469970703125" lon="166.46024040877819061279296875">
        <ele>392</ele>
        <time>2016-08-12T23:06:25.000Z</time>
        <extensions>
          <ns3:TrackPointExtension>
            <ns3:atemp>24.0</ns3:atemp>
            <ns3:hr>128</ns3:hr>
          </ns3:TrackPointExtension>
        </extensions>
      </trkpt>
      <trkpt lat="-22.1142069809138774871826171875" lon="166.4602606929838657379150390625">
        <ele>391.79998779296875</ele>
        <time>2016-08-12T23:06:26.000Z</time>
        <extensions>
          <ns3:TrackPointExtension>
            <ns3:atemp>24.0</ns3:atemp>
            <ns3:hr>128</ns3:hr>
          </ns3:TrackPointExtension>
        </extensions>
      </trkpt>
      <trkpt lat="-22.1142224036157131195068359375" lon="166.4602861739695072174072265625">
        <ele>391.79998779296875</ele>
        <time>2016-08-12T23:06:27.000Z</time>
        <extensions>
          <ns3:TrackPointExtension>
            <ns3:atemp>24.0</ns3:atemp>
            <ns3:hr>128</ns3:hr>
          </ns3:TrackPointExtension>
        </extensions>
      </trkpt>
      <trkpt lat="-22.11423992179334163665771484375" lon="166.4603129960596561431884765625">
        <ele>391.600006103515625</ele>
        <time>2016-08-12T23:06:28.000Z</time>
        <extensions>
          <ns3:TrackPointExtension>
            <ns3:atemp>24.0</ns3:atemp>
            <ns3:hr>128</ns3:hr>
          </ns3:TrackPointExtension>
        </extensions>
      </trkpt>
      <trkpt lat="-22.11425115354359149932861328125" lon="166.4603357948362827301025390625">
        <ele>391.600006103515625</ele>
        <time>2016-08-12T23:06:29.000Z</time>
        <extensions>
          <ns3:TrackPointExtension>
            <ns3:atemp>24.0</ns3:atemp>
            <ns3:hr>128</ns3:hr>
          </ns3:TrackPointExtension>
        </extensions>
      </trkpt>
      <trkpt lat="-22.11425936780869960784912109375" lon="166.46036102436482906341552734375">
        <ele>391.399993896484375</ele>
        <time>2016-08-12T23:06:30.000Z</time>
        <extensions>
          <ns3:TrackPointExtension>
            <ns3:atemp>24.0</ns3:atemp>
            <ns3:hr>128</ns3:hr>
          </ns3:TrackPointExtension>
        </extensions>
      </trkpt>
      <trkpt lat="-22.11426976136863231658935546875" lon="166.4603884331881999969482421875">
        <ele>391.20001220703125</ele>
        <time>2016-08-12T23:06:31.000Z</time>
        <extensions>
          <ns3:TrackPointExtension>
            <ns3:atemp>24.0</ns3:atemp>
            <ns3:hr>128</ns3:hr>
          </ns3:TrackPointExtension>
        </extensions>
      </trkpt>
      <trkpt lat="-22.11427889764308929443359375" lon="166.46041450090706348419189453125">
        <ele>390.79998779296875</ele>
        <time>2016-08-12T23:06:32.000Z</time>
        <extensions>
          <ns3:TrackPointExtension>
            <ns3:atemp>24.0</ns3:atemp>
            <ns3:hr>128</ns3:hr>
          </ns3:TrackPointExtension>
        </extensions>
      </trkpt>
      <trkpt lat="-22.11428635753691196441650390625" lon="166.46043947897851467132568359375">
        <ele>390.79998779296875</ele>
        <time>2016-08-12T23:06:33.000Z</time>
        <extensions>
          <ns3:TrackPointExtension>
            <ns3:atemp>24.0</ns3:atemp>
            <ns3:hr>128</ns3:hr>
          </ns3:TrackPointExtension>
        </extensions>
      </trkpt>
      <trkpt lat="-22.1142894588410854339599609375" lon="166.46046437323093414306640625">
        <ele>390.79998779296875</ele>
        <time>2016-08-12T23:06:34.000Z</time>
        <extensions>
          <ns3:TrackPointExtension>
            <ns3:atemp>24.0</ns3:atemp>
            <ns3:hr>128</ns3:hr>
          </ns3:TrackPointExtension>
        </extensions>
      </trkpt>
      <trkpt lat="-22.1142907999455928802490234375" lon="166.460490524768829345703125">
        <ele>390.399993896484375</ele>
        <time>2016-08-12T23:06:35.000Z</time>
        <extensions>
          <ns3:TrackPointExtension>
            <ns3:atemp>24.0</ns3:atemp>
            <ns3:hr>128</ns3:hr>
          </ns3:TrackPointExtension>
        </extensions>
      </trkpt>
      <trkpt lat="-22.11428971029818058013916015625" lon="166.46051525138318538665771484375">
        <ele>390.20001220703125</ele>
        <time>2016-08-12T23:06:36.000Z</time>
        <extensions>
          <ns3:TrackPointExtension>
            <ns3:atemp>24.0</ns3:atemp>
            <ns3:hr>128</ns3:hr>
          </ns3:TrackPointExtension>
        </extensions>
      </trkpt>
      <trkpt lat="-22.11428669281303882598876953125" lon="166.46054224111139774322509765625">
        <ele>390</ele>
        <time>2016-08-12T23:06:37.000Z</time>
        <extensions>
          <ns3:TrackPointExtension>
            <ns3:atemp>24.0</ns3:atemp>
            <ns3:hr>128</ns3:hr>
          </ns3:TrackPointExtension>
        </extensions>
      </trkpt>
      <trkpt lat="-22.11428157985210418701171875" lon="166.460567973554134368896484375">
        <ele>390</ele>
        <time>2016-08-12T23:06:38.000Z</time>
        <extensions>
          <ns3:TrackPointExtension>
            <ns3:atemp>24.0</ns3:atemp>
            <ns3:hr>128</ns3:hr>
          </ns3:TrackPointExtension>
        </extensions>
      </trkpt>
      <trkpt lat="-22.114276885986328125" lon="166.46059169434010982513427734375">
        <ele>389.600006103515625</ele>
        <time>2016-08-12T23:06:39.000Z</time>
        <extensions>
          <ns3:TrackPointExtension>
            <ns3:atemp>24.0</ns3:atemp>
            <ns3:hr>127</ns3:hr>
          </ns3:TrackPointExtension>
        </extensions>
      </trkpt>
      <trkpt lat="-22.114270515739917755126953125" lon="166.46062195301055908203125">
        <ele>389.399993896484375</ele>
        <time>2016-08-12T23:06:40.000Z</time>
        <extensions>
          <ns3:TrackPointExtension>
            <ns3:atemp>24.0</ns3:atemp>
            <ns3:hr>128</ns3:hr>
          </ns3:TrackPointExtension>
        </extensions>
      </trkpt>
      <trkpt lat="-22.1142663247883319854736328125" lon="166.4606482721865177154541015625">
        <ele>389.20001220703125</ele>
        <time>2016-08-12T23:06:41.000Z</time>
        <extensions>
          <ns3:TrackPointExtension>
            <ns3:atemp>24.0</ns3:atemp>
            <ns3:hr>128</ns3:hr>
          </ns3:TrackPointExtension>
        </extensions>
      </trkpt>
      <trkpt lat="-22.11425651796162128448486328125" lon="166.4606771059334278106689453125">
        <ele>389</ele>
        <time>2016-08-12T23:06:42.000Z</time>
        <extensions>
          <ns3:TrackPointExtension>
            <ns3:atemp>24.0</ns3:atemp>
            <ns3:hr>127</ns3:hr>
          </ns3:TrackPointExtension>
        </extensions>
      </trkpt>
      <trkpt lat="-22.11424645967781543731689453125" lon="166.4607079513370990753173828125">
        <ele>388.79998779296875</ele>
        <time>2016-08-12T23:06:43.000Z</time>
        <extensions>
          <ns3:TrackPointExtension>
            <ns3:atemp>24.0</ns3:atemp>
            <ns3:hr>128</ns3:hr>
          </ns3:TrackPointExtension>
        </extensions>
      </trkpt>
      <trkpt lat="-22.11423656903207302093505859375" lon="166.4607359468936920166015625">
        <ele>388.600006103515625</ele>
        <time>2016-08-12T23:06:44.000Z</time>
        <extensions>
          <ns3:TrackPointExtension>
            <ns3:atemp>24.0</ns3:atemp>
            <ns3:hr>127</ns3:hr>
          </ns3:TrackPointExtension>
        </extensions>
      </trkpt>
      <trkpt lat="-22.11422449909150600433349609375" lon="166.4607619307935237884521484375">
        <ele>388.399993896484375</ele>
        <time>2016-08-12T23:06:45.000Z</time>
        <extensions>
          <ns3:TrackPointExtension>
            <ns3:atemp>24.0</ns3:atemp>
            <ns3:hr>127</ns3:hr>
          </ns3:TrackPointExtension>
        </extensions>
      </trkpt>
      <trkpt lat="-22.11420823819935321807861328125" lon="166.4607842266559600830078125">
        <ele>388</ele>
        <time>2016-08-12T23:06:46.000Z</time>
        <extensions>
          <ns3:TrackPointExtension>
            <ns3:atemp>24.0</ns3:atemp>
            <ns3:hr>127</ns3:hr>
          </ns3:TrackPointExtension>
        </extensions>
      </trkpt>
      <trkpt lat="-22.1141908876597881317138671875" lon="166.4608038403093814849853515625">
        <ele>387.600006103515625</ele>
        <time>2016-08-12T23:06:47.000Z</time>
        <extensions>
          <ns3:TrackPointExtension>
            <ns3:atemp>24.0</ns3:atemp>
            <ns3:hr>127</ns3:hr>
          </ns3:TrackPointExtension>
        </extensions>
      </trkpt>
      <trkpt lat="-22.11417135782539844512939453125" lon="166.46082236431539058685302734375">
        <ele>387.600006103515625</ele>
        <time>2016-08-12T23:06:48.000Z</time>
        <extensions>
          <ns3:TrackPointExtension>
            <ns3:atemp>24.0</ns3:atemp>
            <ns3:hr>127</ns3:hr>
          </ns3:TrackPointExtension>
        </extensions>
      </trkpt>
      <trkpt lat="-22.11415241472423076629638671875" lon="166.46083963103592395782470703125">
        <ele>387.600006103515625</ele>
        <time>2016-08-12T23:06:49.000Z</time>
        <extensions>
          <ns3:TrackPointExtension>
            <ns3:atemp>24.0</ns3:atemp>
            <ns3:hr>127</ns3:hr>
          </ns3:TrackPointExtension>
        </extensions>
      </trkpt>
      <trkpt lat="-22.11413330398499965667724609375" lon="166.4608591608703136444091796875">
        <ele>387.20001220703125</ele>
        <time>2016-08-12T23:06:50.000Z</time>
        <extensions>
          <ns3:TrackPointExtension>
            <ns3:atemp>24.0</ns3:atemp>
            <ns3:hr>127</ns3:hr>
          </ns3:TrackPointExtension>
        </extensions>
      </trkpt>
      <trkpt lat="-22.11411251686513423919677734375" lon="166.46088137291371822357177734375">
        <ele>386.79998779296875</ele>
        <time>2016-08-12T23:06:51.000Z</time>
        <extensions>
          <ns3:TrackPointExtension>
            <ns3:atemp>24.0</ns3:atemp>
            <ns3:hr>127</ns3:hr>
          </ns3:TrackPointExtension>
        </extensions>
      </trkpt>
      <trkpt lat="-22.11408988572657108306884765625" lon="166.46089998073875904083251953125">
        <ele>386.399993896484375</ele>
        <time>2016-08-12T23:06:52.000Z</time>
        <extensions>
          <ns3:TrackPointExtension>
            <ns3:atemp>24.0</ns3:atemp>
            <ns3:hr>126</ns3:hr>
          </ns3:TrackPointExtension>
        </extensions>
      </trkpt>
      <trkpt lat="-22.11406675167381763458251953125" lon="166.46091590635478496551513671875">
        <ele>386.399993896484375</ele>
        <time>2016-08-12T23:06:53.000Z</time>
        <extensions>
          <ns3:TrackPointExtension>
            <ns3:atemp>24.0</ns3:atemp>
            <ns3:hr>127</ns3:hr>
          </ns3:TrackPointExtension>
        </extensions>
      </trkpt>
      <trkpt lat="-22.11404026485979557037353515625" lon="166.46093132905662059783935546875">
        <ele>386.20001220703125</ele>
        <time>2016-08-12T23:06:54.000Z</time>
        <extensions>
          <ns3:TrackPointExtension>
            <ns3:atemp>24.0</ns3:atemp>
            <ns3:hr>126</ns3:hr>
          </ns3:TrackPointExtension>
        </extensions>
      </trkpt>
      <trkpt lat="-22.11401646025478839874267578125" lon="166.46094658412039279937744140625">
        <ele>386</ele>
        <time>2016-08-12T23:06:55.000Z</time>
        <extensions>
          <ns3:TrackPointExtension>
            <ns3:atemp>24.0</ns3:atemp>
            <ns3:hr>126</ns3:hr>
          </ns3:TrackPointExtension>
        </extensions>
      </trkpt>
      <trkpt lat="-22.11399114690721035003662109375" lon="166.4609617553651332855224609375">
        <ele>385.600006103515625</ele>
        <time>2016-08-12T23:06:56.000Z</time>
        <extensions>
          <ns3:TrackPointExtension>
            <ns3:atemp>24.0</ns3:atemp>
            <ns3:hr>126</ns3:hr>
          </ns3:TrackPointExtension>
        </extensions>
      </trkpt>
      <trkpt lat="-22.11396633647382259368896484375" lon="166.46097675897181034088134765625">
        <ele>385.399993896484375</ele>
        <time>2016-08-12T23:06:57.000Z</time>
        <extensions>
          <ns3:TrackPointExtension>
            <ns3:atemp>24.0</ns3:atemp>
            <ns3:hr>126</ns3:hr>
          </ns3:TrackPointExtension>
        </extensions>
      </trkpt>
      <trkpt lat="-22.1139404363930225372314453125" lon="166.46098966710269451141357421875">
        <ele>384.79998779296875</ele>
        <time>2016-08-12T23:06:58.000Z</time>
        <extensions>
          <ns3:TrackPointExtension>
            <ns3:atemp>24.0</ns3:atemp>
            <ns3:hr>126</ns3:hr>
          </ns3:TrackPointExtension>
        </extensions>
      </trkpt>
      <trkpt lat="-22.1139152906835079193115234375" lon="166.46100291050970554351806640625">
        <ele>384.399993896484375</ele>
        <time>2016-08-12T23:06:59.000Z</time>
        <extensions>
          <ns3:TrackPointExtension>
            <ns3:atemp>24.0</ns3:atemp>
            <ns3:hr>126</ns3:hr>
          </ns3:TrackPointExtension>
        </extensions>
      </trkpt>
      <trkpt lat="-22.1138888038694858551025390625" lon="166.461012549698352813720703125">
        <ele>384.20001220703125</ele>
        <time>2016-08-12T23:07:00.000Z</time>
        <extensions>
          <ns3:TrackPointExtension>
            <ns3:atemp>24.0</ns3:atemp>
            <ns3:hr>127</ns3:hr>
          </ns3:TrackPointExtension>
        </extensions>
      </trkpt>
      <trkpt lat="-22.1138609759509563446044921875" lon="166.4610177464783191680908203125">
        <ele>384</ele>
        <time>2016-08-12T23:07:01.000Z</time>
        <extensions>
          <ns3:TrackPointExtension>
            <ns3:atemp>24.0</ns3:atemp>
            <ns3:hr>126</ns3:hr>
          </ns3:TrackPointExtension>
        </extensions>
      </trkpt>
      <trkpt lat="-22.11383507587015628814697265625" lon="166.4610261283814907073974609375">
        <ele>383.600006103515625</ele>
        <time>2016-08-12T23:07:02.000Z</time>
        <extensions>
          <ns3:TrackPointExtension>
            <ns3:atemp>24.0</ns3:atemp>
            <ns3:hr>126</ns3:hr>
          </ns3:TrackPointExtension>
        </extensions>
      </trkpt>
      <trkpt lat="-22.1138090081512928009033203125" lon="166.4610351808369159698486328125">
        <ele>383.399993896484375</ele>
        <time>2016-08-12T23:07:03.000Z</time>
        <extensions>
          <ns3:TrackPointExtension>
            <ns3:atemp>24.0</ns3:atemp>
            <ns3:hr>126</ns3:hr>
          </ns3:TrackPointExtension>
        </extensions>
      </trkpt>
      <trkpt lat="-22.11378210224211215972900390625" lon="166.4610425569117069244384765625">
        <ele>383</ele>
        <time>2016-08-12T23:07:04.000Z</time>
        <extensions>
          <ns3:TrackPointExtension>
            <ns3:atemp>24.0</ns3:atemp>
            <ns3:hr>126</ns3:hr>
          </ns3:TrackPointExtension>
        </extensions>
      </trkpt>
      <trkpt lat="-22.113753519952297210693359375" lon="166.4610524475574493408203125">
        <ele>382.600006103515625</ele>
        <time>2016-08-12T23:07:05.000Z</time>
        <extensions>
          <ns3:TrackPointExtension>
            <ns3:atemp>24.0</ns3:atemp>
            <ns3:hr>126</ns3:hr>
          </ns3:TrackPointExtension>
        </extensions>
      </trkpt>
      <trkpt lat="-22.1137283742427825927734375" lon="166.46106191910803318023681640625">
        <ele>382.20001220703125</ele>
        <time>2016-08-12T23:07:06.000Z</time>
        <extensions>
          <ns3:TrackPointExtension>
            <ns3:atemp>24.0</ns3:atemp>
            <ns3:hr>127</ns3:hr>
          </ns3:TrackPointExtension>
        </extensions>
      </trkpt>
      <trkpt lat="-22.11370465345680713653564453125" lon="166.46106761880218982696533203125">
        <ele>382.20001220703125</ele>
        <time>2016-08-12T23:07:07.000Z</time>
        <extensions>
          <ns3:TrackPointExtension>
            <ns3:atemp>24.0</ns3:atemp>
            <ns3:hr>126</ns3:hr>
          </ns3:TrackPointExtension>
        </extensions>
      </trkpt>
      <trkpt lat="-22.1136779151856899261474609375" lon="166.4610780961811542510986328125">
        <ele>382</ele>
        <time>2016-08-12T23:07:08.000Z</time>
        <extensions>
          <ns3:TrackPointExtension>
            <ns3:atemp>24.0</ns3:atemp>
            <ns3:hr>126</ns3:hr>
          </ns3:TrackPointExtension>
        </extensions>
      </trkpt>
      <trkpt lat="-22.113653607666492462158203125" lon="166.46109066903591156005859375">
        <ele>381.79998779296875</ele>
        <time>2016-08-12T23:07:09.000Z</time>
        <extensions>
          <ns3:TrackPointExtension>
            <ns3:atemp>24.0</ns3:atemp>
            <ns3:hr>127</ns3:hr>
          </ns3:TrackPointExtension>
        </extensions>
      </trkpt>
      <trkpt lat="-22.11362452246248722076416015625" lon="166.46110902540385723114013671875">
        <ele>381.79998779296875</ele>
        <time>2016-08-12T23:07:10.000Z</time>
        <extensions>
          <ns3:TrackPointExtension>
            <ns3:atemp>24.0</ns3:atemp>
            <ns3:hr>126</ns3:hr>
          </ns3:TrackPointExtension>
        </extensions>
      </trkpt>
      <trkpt lat="-22.1135991252958774566650390625" lon="166.4611250348389148712158203125">
        <ele>381.399993896484375</ele>
        <time>2016-08-12T23:07:11.000Z</time>
        <extensions>
          <ns3:TrackPointExtension>
            <ns3:atemp>24.0</ns3:atemp>
            <ns3:hr>126</ns3:hr>
          </ns3:TrackPointExtension>
        </extensions>
      </trkpt>
      <trkpt lat="-22.113578505814075469970703125" lon="166.461141295731067657470703125">
        <ele>381</ele>
        <time>2016-08-12T23:07:12.000Z</time>
        <extensions>
          <ns3:TrackPointExtension>
            <ns3:atemp>24.0</ns3:atemp>
            <ns3:hr>126</ns3:hr>
          </ns3:TrackPointExtension>
        </extensions>
      </trkpt>
      <trkpt lat="-22.1135562099516391754150390625" lon="166.4611615799367427825927734375">
        <ele>380.79998779296875</ele>
        <time>2016-08-12T23:07:13.000Z</time>
        <extensions>
          <ns3:TrackPointExtension>
            <ns3:atemp>24.0</ns3:atemp>
            <ns3:hr>126</ns3:hr>
          </ns3:TrackPointExtension>
        </extensions>
      </trkpt>
      <trkpt lat="-22.11353634484112262725830078125" lon="166.46118060685694217681884765625">
        <ele>380.600006103515625</ele>
        <time>2016-08-12T23:07:14.000Z</time>
        <extensions>
          <ns3:TrackPointExtension>
            <ns3:atemp>24.0</ns3:atemp>
            <ns3:hr>126</ns3:hr>
          </ns3:TrackPointExtension>
        </extensions>
      </trkpt>
      <trkpt lat="-22.11351438425481319427490234375" lon="166.4612051658332347869873046875">
        <ele>380</ele>
        <time>2016-08-12T23:07:15.000Z</time>
        <extensions>
          <ns3:TrackPointExtension>
            <ns3:atemp>24.0</ns3:atemp>
            <ns3:hr>126</ns3:hr>
          </ns3:TrackPointExtension>
        </extensions>
      </trkpt>
      <trkpt lat="-22.113495357334613800048828125" lon="166.46123257465660572052001953125">
        <ele>379.600006103515625</ele>
        <time>2016-08-12T23:07:16.000Z</time>
        <extensions>
          <ns3:TrackPointExtension>
            <ns3:atemp>24.0</ns3:atemp>
            <ns3:hr>126</ns3:hr>
          </ns3:TrackPointExtension>
        </extensions>
      </trkpt>
      <trkpt lat="-22.11347800679504871368408203125" lon="166.46125830709934234619140625">
        <ele>379.20001220703125</ele>
        <time>2016-08-12T23:07:17.000Z</time>
        <extensions>
          <ns3:TrackPointExtension>
            <ns3:atemp>24.0</ns3:atemp>
            <ns3:hr>126</ns3:hr>
          </ns3:TrackPointExtension>
        </extensions>
      </trkpt>
      <trkpt lat="-22.11346291936933994293212890625" lon="166.46128647029399871826171875">
        <ele>379.20001220703125</ele>
        <time>2016-08-12T23:07:18.000Z</time>
        <extensions>
          <ns3:TrackPointExtension>
            <ns3:atemp>24.0</ns3:atemp>
            <ns3:hr>126</ns3:hr>
          </ns3:TrackPointExtension>
        </extensions>
      </trkpt>
      <trkpt lat="-22.11344867013394832611083984375" lon="166.46131270565092563629150390625">
        <ele>379</ele>
        <time>2016-08-12T23:07:19.000Z</time>
        <extensions>
          <ns3:TrackPointExtension>
            <ns3:atemp>24.0</ns3:atemp>
            <ns3:hr>127</ns3:hr>
          </ns3:TrackPointExtension>
        </extensions>
      </trkpt>
      <trkpt lat="-22.11343693546950817108154296875" lon="166.461341120302677154541015625">
        <ele>378.20001220703125</ele>
        <time>2016-08-12T23:07:20.000Z</time>
        <extensions>
          <ns3:TrackPointExtension>
            <ns3:atemp>24.0</ns3:atemp>
            <ns3:hr>127</ns3:hr>
          </ns3:TrackPointExtension>
        </extensions>
      </trkpt>
      <trkpt lat="-22.11342536844313144683837890625" lon="166.46137230098247528076171875">
        <ele>378</ele>
        <time>2016-08-12T23:07:21.000Z</time>
        <extensions>
          <ns3:TrackPointExtension>
            <ns3:atemp>24.0</ns3:atemp>
            <ns3:hr>127</ns3:hr>
          </ns3:TrackPointExtension>
        </extensions>
      </trkpt>
      <trkpt lat="-22.11341631598770618438720703125" lon="166.46140121854841709136962890625">
        <ele>378</ele>
        <time>2016-08-12T23:07:22.000Z</time>
        <extensions>
          <ns3:TrackPointExtension>
            <ns3:atemp>24.0</ns3:atemp>
            <ns3:hr>127</ns3:hr>
          </ns3:TrackPointExtension>
        </extensions>
      </trkpt>
      <trkpt lat="-22.1134073473513126373291015625" lon="166.46143306978046894073486328125">
        <ele>377.79998779296875</ele>
        <time>2016-08-12T23:07:23.000Z</time>
        <extensions>
          <ns3:TrackPointExtension>
            <ns3:atemp>24.0</ns3:atemp>
            <ns3:hr>126</ns3:hr>
          </ns3:TrackPointExtension>
        </extensions>
      </trkpt>
      <trkpt lat="-22.1134053356945514678955078125" lon="166.46146626211702823638916015625">
        <ele>377.600006103515625</ele>
        <time>2016-08-12T23:07:24.000Z</time>
        <extensions>
          <ns3:TrackPointExtension>
            <ns3:atemp>24.0</ns3:atemp>
            <ns3:hr>126</ns3:hr>
          </ns3:TrackPointExtension>
        </extensions>
      </trkpt>
      <trkpt lat="-22.11340022273361682891845703125" lon="166.46149610169231891632080078125">
        <ele>377.399993896484375</ele>
        <time>2016-08-12T23:07:25.000Z</time>
        <extensions>
          <ns3:TrackPointExtension>
            <ns3:atemp>24.0</ns3:atemp>
            <ns3:hr>127</ns3:hr>
          </ns3:TrackPointExtension>
        </extensions>
      </trkpt>
      <trkpt lat="-22.11339888162910938262939453125" lon="166.4615300484001636505126953125">
        <ele>377.600006103515625</ele>
        <time>2016-08-12T23:07:26.000Z</time>
        <extensions>
          <ns3:TrackPointExtension>
            <ns3:atemp>24.0</ns3:atemp>
            <ns3:hr>127</ns3:hr>
          </ns3:TrackPointExtension>
        </extensions>
      </trkpt>
      <trkpt lat="-22.11339787580072879791259765625" lon="166.461558043956756591796875">
        <ele>377.399993896484375</ele>
        <time>2016-08-12T23:07:27.000Z</time>
        <extensions>
          <ns3:TrackPointExtension>
            <ns3:atemp>24.0</ns3:atemp>
            <ns3:hr>127</ns3:hr>
          </ns3:TrackPointExtension>
        </extensions>
      </trkpt>
      <trkpt lat="-22.113397456705570220947265625" lon="166.46158863790333271026611328125">
        <ele>376.79998779296875</ele>
        <time>2016-08-12T23:07:28.000Z</time>
        <extensions>
          <ns3:TrackPointExtension>
            <ns3:atemp>24.0</ns3:atemp>
            <ns3:hr>127</ns3:hr>
          </ns3:TrackPointExtension>
        </extensions>
      </trkpt>
      <trkpt lat="-22.11339402012526988983154296875" lon="166.461617052555084228515625">
        <ele>376.79998779296875</ele>
        <time>2016-08-12T23:07:29.000Z</time>
        <extensions>
          <ns3:TrackPointExtension>
            <ns3:atemp>24.0</ns3:atemp>
            <ns3:hr>127</ns3:hr>
          </ns3:TrackPointExtension>
        </extensions>
      </trkpt>
      <trkpt lat="-22.11338815279304981231689453125" lon="166.46164412610232830047607421875">
        <ele>377</ele>
        <time>2016-08-12T23:07:30.000Z</time>
        <extensions>
          <ns3:TrackPointExtension>
            <ns3:atemp>24.0</ns3:atemp>
            <ns3:hr>127</ns3:hr>
          </ns3:TrackPointExtension>
        </extensions>
      </trkpt>
      <trkpt lat="-22.1133852191269397735595703125" lon="166.461676396429538726806640625">
        <ele>376.600006103515625</ele>
        <time>2016-08-12T23:07:31.000Z</time>
        <extensions>
          <ns3:TrackPointExtension>
            <ns3:atemp>24.0</ns3:atemp>
            <ns3:hr>127</ns3:hr>
          </ns3:TrackPointExtension>
        </extensions>
      </trkpt>
      <trkpt lat="-22.113381363451480865478515625" lon="166.46170497871935367584228515625">
        <ele>376</ele>
        <time>2016-08-12T23:07:32.000Z</time>
        <extensions>
          <ns3:TrackPointExtension>
            <ns3:atemp>24.0</ns3:atemp>
            <ns3:hr>126</ns3:hr>
          </ns3:TrackPointExtension>
        </extensions>
      </trkpt>
      <trkpt lat="-22.11337742395699024200439453125" lon="166.46173171699047088623046875">
        <ele>376</ele>
        <time>2016-08-12T23:07:33.000Z</time>
        <extensions>
          <ns3:TrackPointExtension>
            <ns3:atemp>24.0</ns3:atemp>
            <ns3:hr>126</ns3:hr>
          </ns3:TrackPointExtension>
        </extensions>
      </trkpt>
      <trkpt lat="-22.113377340137958526611328125" lon="166.4617610536515712738037109375">
        <ele>376</ele>
        <time>2016-08-12T23:07:34.000Z</time>
        <extensions>
          <ns3:TrackPointExtension>
            <ns3:atemp>24.0</ns3:atemp>
            <ns3:hr>126</ns3:hr>
          </ns3:TrackPointExtension>
        </extensions>
      </trkpt>
      <trkpt lat="-22.1133748255670070648193359375" lon="166.46178879775106906890869140625">
        <ele>376</ele>
        <time>2016-08-12T23:07:35.000Z</time>
        <extensions>
          <ns3:TrackPointExtension>
            <ns3:atemp>24.0</ns3:atemp>
            <ns3:hr>126</ns3:hr>
          </ns3:TrackPointExtension>
        </extensions>
      </trkpt>
      <trkpt lat="-22.1133801899850368499755859375" lon="166.46181830205023288726806640625">
        <ele>375.600006103515625</ele>
        <time>2016-08-12T23:07:36.000Z</time>
        <extensions>
          <ns3:TrackPointExtension>
            <ns3:atemp>24.0</ns3:atemp>
            <ns3:hr>126</ns3:hr>
          </ns3:TrackPointExtension>
        </extensions>
      </trkpt>
      <trkpt lat="-22.113379351794719696044921875" lon="166.46184596233069896697998046875">
        <ele>375.399993896484375</ele>
        <time>2016-08-12T23:07:37.000Z</time>
        <extensions>
          <ns3:TrackPointExtension>
            <ns3:atemp>24.0</ns3:atemp>
            <ns3:hr>127</ns3:hr>
          </ns3:TrackPointExtension>
        </extensions>
      </trkpt>
      <trkpt lat="-22.1133768372237682342529296875" lon="166.46187362261116504669189453125">
        <ele>375.399993896484375</ele>
        <time>2016-08-12T23:07:38.000Z</time>
        <extensions>
          <ns3:TrackPointExtension>
            <ns3:atemp>24.0</ns3:atemp>
            <ns3:hr>127</ns3:hr>
          </ns3:TrackPointExtension>
        </extensions>
      </trkpt>
      <trkpt lat="-22.11337273009121417999267578125" lon="166.4619032107293605804443359375">
        <ele>375.600006103515625</ele>
        <time>2016-08-12T23:07:39.000Z</time>
        <extensions>
          <ns3:TrackPointExtension>
            <ns3:atemp>24.0</ns3:atemp>
            <ns3:hr>127</ns3:hr>
          </ns3:TrackPointExtension>
        </extensions>
      </trkpt>
      <trkpt lat="-22.11337105371057987213134765625" lon="166.461925841867923736572265625">
        <ele>375.399993896484375</ele>
        <time>2016-08-12T23:07:40.000Z</time>
        <extensions>
          <ns3:TrackPointExtension>
            <ns3:atemp>24.0</ns3:atemp>
            <ns3:hr>128</ns3:hr>
          </ns3:TrackPointExtension>
        </extensions>
      </trkpt>
      <trkpt lat="-22.11336426436901092529296875" lon="166.46195274777710437774658203125">
        <ele>375</ele>
        <time>2016-08-12T23:07:41.000Z</time>
        <extensions>
          <ns3:TrackPointExtension>
            <ns3:atemp>24.0</ns3:atemp>
            <ns3:hr>128</ns3:hr>
          </ns3:TrackPointExtension>
        </extensions>
      </trkpt>
      <trkpt lat="-22.1133607439696788787841796875" lon="166.46197789348661899566650390625">
        <ele>375</ele>
        <time>2016-08-12T23:07:42.000Z</time>
        <extensions>
          <ns3:TrackPointExtension>
            <ns3:atemp>24.0</ns3:atemp>
            <ns3:hr>128</ns3:hr>
          </ns3:TrackPointExtension>
        </extensions>
      </trkpt>
      <trkpt lat="-22.11335613392293453216552734375" lon="166.46199901588261127471923828125">
        <ele>374.79998779296875</ele>
        <time>2016-08-12T23:07:43.000Z</time>
        <extensions>
          <ns3:TrackPointExtension>
            <ns3:atemp>24.0</ns3:atemp>
            <ns3:hr>128</ns3:hr>
          </ns3:TrackPointExtension>
        </extensions>
      </trkpt>
      <trkpt lat="-22.11335110478103160858154296875" lon="166.46202181465923786163330078125">
        <ele>374.600006103515625</ele>
        <time>2016-08-12T23:07:44.000Z</time>
        <extensions>
          <ns3:TrackPointExtension>
            <ns3:atemp>24.0</ns3:atemp>
            <ns3:hr>129</ns3:hr>
          </ns3:TrackPointExtension>
        </extensions>
      </trkpt>
      <trkpt lat="-22.11334548890590667724609375" lon="166.4620463736355304718017578125">
        <ele>374.399993896484375</ele>
        <time>2016-08-12T23:07:45.000Z</time>
        <extensions>
          <ns3:TrackPointExtension>
            <ns3:atemp>24.0</ns3:atemp>
            <ns3:hr>129</ns3:hr>
          </ns3:TrackPointExtension>
        </extensions>
      </trkpt>
      <trkpt lat="-22.11333786137402057647705078125" lon="166.4620705135166645050048828125">
        <ele>374.20001220703125</ele>
        <time>2016-08-12T23:07:46.000Z</time>
        <extensions>
          <ns3:TrackPointExtension>
            <ns3:atemp>24.0</ns3:atemp>
            <ns3:hr>129</ns3:hr>
          </ns3:TrackPointExtension>
        </extensions>
      </trkpt>
      <trkpt lat="-22.11332998238503932952880859375" lon="166.4620963297784328460693359375">
        <ele>373.600006103515625</ele>
        <time>2016-08-12T23:07:47.000Z</time>
        <extensions>
          <ns3:TrackPointExtension>
            <ns3:atemp>24.0</ns3:atemp>
            <ns3:hr>129</ns3:hr>
          </ns3:TrackPointExtension>
        </extensions>
      </trkpt>
      <trkpt lat="-22.113318331539630889892578125" lon="166.4621221460402011871337890625">
        <ele>373.600006103515625</ele>
        <time>2016-08-12T23:07:48.000Z</time>
        <extensions>
          <ns3:TrackPointExtension>
            <ns3:atemp>24.0</ns3:atemp>
            <ns3:hr>129</ns3:hr>
          </ns3:TrackPointExtension>
        </extensions>
      </trkpt>
      <trkpt lat="-22.11330651305615901947021484375" lon="166.46214955486357212066650390625">
        <ele>373.600006103515625</ele>
        <time>2016-08-12T23:07:49.000Z</time>
        <extensions>
          <ns3:TrackPointExtension>
            <ns3:atemp>24.0</ns3:atemp>
            <ns3:hr>129</ns3:hr>
          </ns3:TrackPointExtension>
        </extensions>
      </trkpt>
      <trkpt lat="-22.1132946945726871490478515625" lon="166.46217503584921360015869140625">
        <ele>373</ele>
        <time>2016-08-12T23:07:50.000Z</time>
        <extensions>
          <ns3:TrackPointExtension>
            <ns3:atemp>24.0</ns3:atemp>
            <ns3:hr>129</ns3:hr>
          </ns3:TrackPointExtension>
        </extensions>
      </trkpt>
      <trkpt lat="-22.113284133374691009521484375" lon="166.462196409702301025390625">
        <ele>372.600006103515625</ele>
        <time>2016-08-12T23:07:51.000Z</time>
        <extensions>
          <ns3:TrackPointExtension>
            <ns3:atemp>24.0</ns3:atemp>
            <ns3:hr>129</ns3:hr>
          </ns3:TrackPointExtension>
        </extensions>
      </trkpt>
      <trkpt lat="-22.11325957439839839935302734375" lon="166.46222398616373538970947265625">
        <ele>372.20001220703125</ele>
        <time>2016-08-12T23:07:52.000Z</time>
        <extensions>
          <ns3:TrackPointExtension>
            <ns3:atemp>24.0</ns3:atemp>
            <ns3:hr>129</ns3:hr>
          </ns3:TrackPointExtension>
        </extensions>
      </trkpt>
      <trkpt lat="-22.1132457442581653594970703125" lon="166.462255418300628662109375">
        <ele>371.79998779296875</ele>
        <time>2016-08-12T23:07:53.000Z</time>
        <extensions>
          <ns3:TrackPointExtension>
            <ns3:atemp>24.0</ns3:atemp>
            <ns3:hr>129</ns3:hr>
          </ns3:TrackPointExtension>
        </extensions>
      </trkpt>
      <trkpt lat="-22.11323459632694721221923828125" lon="166.4622807316482067108154296875">
        <ele>371.399993896484375</ele>
        <time>2016-08-12T23:07:54.000Z</time>
        <extensions>
          <ns3:TrackPointExtension>
            <ns3:atemp>24.0</ns3:atemp>
            <ns3:hr>129</ns3:hr>
          </ns3:TrackPointExtension>
        </extensions>
      </trkpt>
      <trkpt lat="-22.113225460052490234375" lon="166.462307386100292205810546875">
        <ele>371</ele>
        <time>2016-08-12T23:07:55.000Z</time>
        <extensions>
          <ns3:TrackPointExtension>
            <ns3:atemp>24.0</ns3:atemp>
            <ns3:hr>130</ns3:hr>
          </ns3:TrackPointExtension>
        </extensions>
      </trkpt>
      <trkpt lat="-22.11321867071092128753662109375" lon="166.4623372256755828857421875">
        <ele>370.79998779296875</ele>
        <time>2016-08-12T23:07:56.000Z</time>
        <extensions>
          <ns3:TrackPointExtension>
            <ns3:atemp>24.0</ns3:atemp>
            <ns3:hr>129</ns3:hr>
          </ns3:TrackPointExtension>
        </extensions>
      </trkpt>
      <trkpt lat="-22.113215737044811248779296875" lon="166.46236631087958812713623046875">
        <ele>370.399993896484375</ele>
        <time>2016-08-12T23:07:57.000Z</time>
        <extensions>
          <ns3:TrackPointExtension>
            <ns3:atemp>24.0</ns3:atemp>
            <ns3:hr>130</ns3:hr>
          </ns3:TrackPointExtension>
        </extensions>
      </trkpt>
      <trkpt lat="-22.11321196518838405609130859375" lon="166.462395898997783660888671875">
        <ele>370.20001220703125</ele>
        <time>2016-08-12T23:07:58.000Z</time>
        <extensions>
          <ns3:TrackPointExtension>
            <ns3:atemp>24.0</ns3:atemp>
            <ns3:hr>130</ns3:hr>
          </ns3:TrackPointExtension>
        </extensions>
      </trkpt>
      <trkpt lat="-22.1132128871977329254150390625" lon="166.46242649294435977935791015625">
        <ele>370</ele>
        <time>2016-08-12T23:07:59.000Z</time>
        <extensions>
          <ns3:TrackPointExtension>
            <ns3:atemp>24.0</ns3:atemp>
            <ns3:hr>130</ns3:hr>
          </ns3:TrackPointExtension>
        </extensions>
      </trkpt>
      <trkpt lat="-22.1132159046828746795654296875" lon="166.46245658397674560546875">
        <ele>369.600006103515625</ele>
        <time>2016-08-12T23:08:00.000Z</time>
        <extensions>
          <ns3:TrackPointExtension>
            <ns3:atemp>24.0</ns3:atemp>
            <ns3:hr>130</ns3:hr>
          </ns3:TrackPointExtension>
        </extensions>
      </trkpt>
      <trkpt lat="-22.11321942508220672607421875" lon="166.46248734556138515472412109375">
        <ele>369.399993896484375</ele>
        <time>2016-08-12T23:08:01.000Z</time>
        <extensions>
          <ns3:TrackPointExtension>
            <ns3:atemp>24.0</ns3:atemp>
            <ns3:hr>130</ns3:hr>
          </ns3:TrackPointExtension>
        </extensions>
      </trkpt>
      <trkpt lat="-22.11322520859539508819580078125" lon="166.4625174365937709808349609375">
        <ele>369.20001220703125</ele>
        <time>2016-08-12T23:08:02.000Z</time>
        <extensions>
          <ns3:TrackPointExtension>
            <ns3:atemp>24.0</ns3:atemp>
            <ns3:hr>130</ns3:hr>
          </ns3:TrackPointExtension>
        </extensions>
      </trkpt>
      <trkpt lat="-22.11323954164981842041015625" lon="166.46254367195069789886474609375">
        <ele>368.600006103515625</ele>
        <time>2016-08-12T23:08:03.000Z</time>
        <extensions>
          <ns3:TrackPointExtension>
            <ns3:atemp>24.0</ns3:atemp>
            <ns3:hr>130</ns3:hr>
          </ns3:TrackPointExtension>
        </extensions>
      </trkpt>
      <trkpt lat="-22.1132598258554935455322265625" lon="166.46256647072732448577880859375">
        <ele>368.399993896484375</ele>
        <time>2016-08-12T23:08:04.000Z</time>
        <extensions>
          <ns3:TrackPointExtension>
            <ns3:atemp>24.0</ns3:atemp>
            <ns3:hr>130</ns3:hr>
          </ns3:TrackPointExtension>
        </extensions>
      </trkpt>
      <trkpt lat="-22.11327684111893177032470703125" lon="166.462586335837841033935546875">
        <ele>368.20001220703125</ele>
        <time>2016-08-12T23:08:05.000Z</time>
        <extensions>
          <ns3:TrackPointExtension>
            <ns3:atemp>24.0</ns3:atemp>
            <ns3:hr>130</ns3:hr>
          </ns3:TrackPointExtension>
        </extensions>
      </trkpt>
      <trkpt lat="-22.11329813115298748016357421875" lon="166.46260720677673816680908203125">
        <ele>367.79998779296875</ele>
        <time>2016-08-12T23:08:06.000Z</time>
        <extensions>
          <ns3:TrackPointExtension>
            <ns3:atemp>24.0</ns3:atemp>
            <ns3:hr>130</ns3:hr>
          </ns3:TrackPointExtension>
        </extensions>
      </trkpt>
      <trkpt lat="-22.113316990435123443603515625" lon="166.462632603943347930908203125">
        <ele>367.20001220703125</ele>
        <time>2016-08-12T23:08:07.000Z</time>
        <extensions>
          <ns3:TrackPointExtension>
            <ns3:atemp>24.0</ns3:atemp>
            <ns3:hr>130</ns3:hr>
          </ns3:TrackPointExtension>
        </extensions>
      </trkpt>
      <trkpt lat="-22.11333551444113254547119140625" lon="166.46265246905386447906494140625">
        <ele>367.20001220703125</ele>
        <time>2016-08-12T23:08:08.000Z</time>
        <extensions>
          <ns3:TrackPointExtension>
            <ns3:atemp>24.0</ns3:atemp>
            <ns3:hr>130</ns3:hr>
          </ns3:TrackPointExtension>
        </extensions>
      </trkpt>
      <trkpt lat="-22.11335395462810993194580078125" lon="166.46267459727823734283447265625">
        <ele>367</ele>
        <time>2016-08-12T23:08:09.000Z</time>
        <extensions>
          <ns3:TrackPointExtension>
            <ns3:atemp>25.0</ns3:atemp>
            <ns3:hr>131</ns3:hr>
          </ns3:TrackPointExtension>
        </extensions>
      </trkpt>
      <trkpt lat="-22.11337457410991191864013671875" lon="166.4626964740455150604248046875">
        <ele>366.600006103515625</ele>
        <time>2016-08-12T23:08:10.000Z</time>
        <extensions>
          <ns3:TrackPointExtension>
            <ns3:atemp>25.0</ns3:atemp>
            <ns3:hr>131</ns3:hr>
          </ns3:TrackPointExtension>
        </extensions>
      </trkpt>
      <trkpt lat="-22.1133925952017307281494140625" lon="166.4627189375460147857666015625">
        <ele>366.399993896484375</ele>
        <time>2016-08-12T23:08:11.000Z</time>
        <extensions>
          <ns3:TrackPointExtension>
            <ns3:atemp>25.0</ns3:atemp>
            <ns3:hr>130</ns3:hr>
          </ns3:TrackPointExtension>
        </extensions>
      </trkpt>
      <trkpt lat="-22.11342721246182918548583984375" lon="166.46273662336170673370361328125">
        <ele>365.79998779296875</ele>
        <time>2016-08-12T23:08:12.000Z</time>
        <extensions>
          <ns3:TrackPointExtension>
            <ns3:atemp>25.0</ns3:atemp>
            <ns3:hr>130</ns3:hr>
          </ns3:TrackPointExtension>
        </extensions>
      </trkpt>
      <trkpt lat="-22.1134502626955509185791015625" lon="166.4627544768154621124267578125">
        <ele>365.399993896484375</ele>
        <time>2016-08-12T23:08:13.000Z</time>
        <extensions>
          <ns3:TrackPointExtension>
            <ns3:atemp>25.0</ns3:atemp>
            <ns3:hr>130</ns3:hr>
          </ns3:TrackPointExtension>
        </extensions>
      </trkpt>
      <trkpt lat="-22.11346861906349658966064453125" lon="166.46277501247823238372802734375">
        <ele>365.20001220703125</ele>
        <time>2016-08-12T23:08:14.000Z</time>
        <extensions>
          <ns3:TrackPointExtension>
            <ns3:atemp>25.0</ns3:atemp>
            <ns3:hr>130</ns3:hr>
          </ns3:TrackPointExtension>
        </extensions>
      </trkpt>
      <trkpt lat="-22.1134871430695056915283203125" lon="166.46279948763549327850341796875">
        <ele>365</ele>
        <time>2016-08-12T23:08:15.000Z</time>
        <extensions>
          <ns3:TrackPointExtension>
            <ns3:atemp>25.0</ns3:atemp>
            <ns3:hr>130</ns3:hr>
          </ns3:TrackPointExtension>
        </extensions>
      </trkpt>
      <trkpt lat="-22.113502062857151031494140625" lon="166.46282329224050045013427734375">
        <ele>364.600006103515625</ele>
        <time>2016-08-12T23:08:16.000Z</time>
        <extensions>
          <ns3:TrackPointExtension>
            <ns3:atemp>25.0</ns3:atemp>
            <ns3:hr>130</ns3:hr>
          </ns3:TrackPointExtension>
        </extensions>
      </trkpt>
      <trkpt lat="-22.1135203354060649871826171875" lon="166.4628453366458415985107421875">
        <ele>364.399993896484375</ele>
        <time>2016-08-12T23:08:17.000Z</time>
        <extensions>
          <ns3:TrackPointExtension>
            <ns3:atemp>25.0</ns3:atemp>
            <ns3:hr>130</ns3:hr>
          </ns3:TrackPointExtension>
        </extensions>
      </trkpt>
      <trkpt lat="-22.1135458163917064666748046875" lon="166.46286268718540668487548828125">
        <ele>364.399993896484375</ele>
        <time>2016-08-12T23:08:18.000Z</time>
        <extensions>
          <ns3:TrackPointExtension>
            <ns3:atemp>25.0</ns3:atemp>
            <ns3:hr>130</ns3:hr>
          </ns3:TrackPointExtension>
        </extensions>
      </trkpt>
      <trkpt lat="-22.11356651969254016876220703125" lon="166.4628768526017665863037109375">
        <ele>363.79998779296875</ele>
        <time>2016-08-12T23:08:19.000Z</time>
        <extensions>
          <ns3:TrackPointExtension>
            <ns3:atemp>25.0</ns3:atemp>
            <ns3:hr>129</ns3:hr>
          </ns3:TrackPointExtension>
        </extensions>
      </trkpt>
      <trkpt lat="-22.113588564097881317138671875" lon="166.462893784046173095703125">
        <ele>363.600006103515625</ele>
        <time>2016-08-12T23:08:20.000Z</time>
        <extensions>
          <ns3:TrackPointExtension>
            <ns3:atemp>25.0</ns3:atemp>
            <ns3:hr>129</ns3:hr>
          </ns3:TrackPointExtension>
        </extensions>
      </trkpt>
      <trkpt lat="-22.1136122010648250579833984375" lon="166.462909877300262451171875">
        <ele>363.600006103515625</ele>
        <time>2016-08-12T23:08:21.000Z</time>
        <extensions>
          <ns3:TrackPointExtension>
            <ns3:atemp>25.0</ns3:atemp>
            <ns3:hr>129</ns3:hr>
          </ns3:TrackPointExtension>
        </extensions>
      </trkpt>
      <trkpt lat="-22.11363541893661022186279296875" lon="166.462925970554351806640625">
        <ele>363.399993896484375</ele>
        <time>2016-08-12T23:08:22.000Z</time>
        <extensions>
          <ns3:TrackPointExtension>
            <ns3:atemp>25.0</ns3:atemp>
            <ns3:hr>129</ns3:hr>
          </ns3:TrackPointExtension>
        </extensions>
      </trkpt>
      <trkpt lat="-22.11366240866482257843017578125" lon="166.4629415608942508697509765625">
        <ele>363.20001220703125</ele>
        <time>2016-08-12T23:08:23.000Z</time>
        <extensions>
          <ns3:TrackPointExtension>
            <ns3:atemp>25.0</ns3:atemp>
            <ns3:hr>129</ns3:hr>
          </ns3:TrackPointExtension>
        </extensions>
      </trkpt>
      <trkpt lat="-22.113687805831432342529296875" lon="166.4629559777677059173583984375">
        <ele>363.20001220703125</ele>
        <time>2016-08-12T23:08:24.000Z</time>
        <extensions>
          <ns3:TrackPointExtension>
            <ns3:atemp>25.0</ns3:atemp>
            <ns3:hr>129</ns3:hr>
          </ns3:TrackPointExtension>
        </extensions>
      </trkpt>
      <trkpt lat="-22.11371169425547122955322265625" lon="166.46296955645084381103515625">
        <ele>363.399993896484375</ele>
        <time>2016-08-12T23:08:25.000Z</time>
        <extensions>
          <ns3:TrackPointExtension>
            <ns3:atemp>25.0</ns3:atemp>
            <ns3:hr>128</ns3:hr>
          </ns3:TrackPointExtension>
        </extensions>
      </trkpt>
      <trkpt lat="-22.11373977363109588623046875" lon="166.46297852508723735809326171875">
        <ele>363.20001220703125</ele>
        <time>2016-08-12T23:08:26.000Z</time>
        <extensions>
          <ns3:TrackPointExtension>
            <ns3:atemp>25.0</ns3:atemp>
            <ns3:hr>129</ns3:hr>
          </ns3:TrackPointExtension>
        </extensions>
      </trkpt>
      <trkpt lat="-22.11376634426414966583251953125" lon="166.46298489533364772796630859375">
        <ele>363</ele>
        <time>2016-08-12T23:08:27.000Z</time>
        <extensions>
          <ns3:TrackPointExtension>
            <ns3:atemp>25.0</ns3:atemp>
            <ns3:hr>129</ns3:hr>
          </ns3:TrackPointExtension>
        </extensions>
      </trkpt>
      <trkpt lat="-22.11379065178334712982177734375" lon="166.462989337742328643798828125">
        <ele>363</ele>
        <time>2016-08-12T23:08:28.000Z</time>
        <extensions>
          <ns3:TrackPointExtension>
            <ns3:atemp>25.0</ns3:atemp>
            <ns3:hr>128</ns3:hr>
          </ns3:TrackPointExtension>
        </extensions>
      </trkpt>
      <trkpt lat="-22.11383096873760223388671875" lon="166.4629935286939144134521484375">
        <ele>362.600006103515625</ele>
        <time>2016-08-12T23:08:29.000Z</time>
        <extensions>
          <ns3:TrackPointExtension>
            <ns3:atemp>25.0</ns3:atemp>
            <ns3:hr>128</ns3:hr>
          </ns3:TrackPointExtension>
        </extensions>
      </trkpt>
      <trkpt lat="-22.1138592995703220367431640625" lon="166.4629992283880710601806640625">
        <ele>362.399993896484375</ele>
        <time>2016-08-12T23:08:30.000Z</time>
        <extensions>
          <ns3:TrackPointExtension>
            <ns3:atemp>25.0</ns3:atemp>
            <ns3:hr>128</ns3:hr>
          </ns3:TrackPointExtension>
        </extensions>
      </trkpt>
      <trkpt lat="-22.1138874627649784088134765625" lon="166.463004089891910552978515625">
        <ele>362.20001220703125</ele>
        <time>2016-08-12T23:08:31.000Z</time>
        <extensions>
          <ns3:TrackPointExtension>
            <ns3:atemp>25.0</ns3:atemp>
            <ns3:hr>129</ns3:hr>
          </ns3:TrackPointExtension>
        </extensions>
      </trkpt>
      <trkpt lat="-22.1139102615416049957275390625" lon="166.46300115622580051422119140625">
        <ele>362</ele>
        <time>2016-08-12T23:08:32.000Z</time>
        <extensions>
          <ns3:TrackPointExtension>
            <ns3:atemp>25.0</ns3:atemp>
            <ns3:hr>128</ns3:hr>
          </ns3:TrackPointExtension>
        </extensions>
      </trkpt>
      <trkpt lat="-22.1139303781092166900634765625" lon="166.46300165913999080657958984375">
        <ele>361.79998779296875</ele>
        <time>2016-08-12T23:08:33.000Z</time>
        <extensions>
          <ns3:TrackPointExtension>
            <ns3:atemp>25.0</ns3:atemp>
            <ns3:hr>129</ns3:hr>
          </ns3:TrackPointExtension>
        </extensions>
      </trkpt>
      <trkpt lat="-22.1139461360871791839599609375" lon="166.46299637854099273681640625">
        <ele>361.79998779296875</ele>
        <time>2016-08-12T23:08:34.000Z</time>
        <extensions>
          <ns3:TrackPointExtension>
            <ns3:atemp>25.0</ns3:atemp>
            <ns3:hr>128</ns3:hr>
          </ns3:TrackPointExtension>
        </extensions>
      </trkpt>
      <trkpt lat="-22.11397589184343814849853515625" lon="166.46299445070326328277587890625">
        <ele>361.600006103515625</ele>
        <time>2016-08-12T23:08:35.000Z</time>
        <extensions>
          <ns3:TrackPointExtension>
            <ns3:atemp>25.0</ns3:atemp>
            <ns3:hr>129</ns3:hr>
          </ns3:TrackPointExtension>
        </extensions>
      </trkpt>
      <trkpt lat="-22.114000618457794189453125" lon="166.46299629472196102142333984375">
        <ele>361.399993896484375</ele>
        <time>2016-08-12T23:08:36.000Z</time>
        <extensions>
          <ns3:TrackPointExtension>
            <ns3:atemp>25.0</ns3:atemp>
            <ns3:hr>129</ns3:hr>
          </ns3:TrackPointExtension>
        </extensions>
      </trkpt>
      <trkpt lat="-22.114027440547943115234375" lon="166.46299914456903934478759765625">
        <ele>361.399993896484375</ele>
        <time>2016-08-12T23:08:37.000Z</time>
        <extensions>
          <ns3:TrackPointExtension>
            <ns3:atemp>25.0</ns3:atemp>
            <ns3:hr>128</ns3:hr>
          </ns3:TrackPointExtension>
        </extensions>
      </trkpt>
      <trkpt lat="-22.1140574477612972259521484375" lon="166.4630035869777202606201171875">
        <ele>361.20001220703125</ele>
        <time>2016-08-12T23:08:38.000Z</time>
        <extensions>
          <ns3:TrackPointExtension>
            <ns3:atemp>25.0</ns3:atemp>
            <ns3:hr>128</ns3:hr>
          </ns3:TrackPointExtension>
        </extensions>
      </trkpt>
      <trkpt lat="-22.114082761108875274658203125" lon="166.4630066044628620147705078125">
        <ele>361.20001220703125</ele>
        <time>2016-08-12T23:08:39.000Z</time>
        <extensions>
          <ns3:TrackPointExtension>
            <ns3:atemp>25.0</ns3:atemp>
            <ns3:hr>129</ns3:hr>
          </ns3:TrackPointExtension>
        </extensions>
      </trkpt>
      <trkpt lat="-22.1141094155609607696533203125" lon="166.4630082808434963226318359375">
        <ele>361</ele>
        <time>2016-08-12T23:08:40.000Z</time>
        <extensions>
          <ns3:TrackPointExtension>
            <ns3:atemp>25.0</ns3:atemp>
            <ns3:hr>129</ns3:hr>
          </ns3:TrackPointExtension>
        </extensions>
      </trkpt>
      <trkpt lat="-22.1141302026808261871337890625" lon="166.46300635300576686859130859375">
        <ele>360.600006103515625</ele>
        <time>2016-08-12T23:08:41.000Z</time>
        <extensions>
          <ns3:TrackPointExtension>
            <ns3:atemp>25.0</ns3:atemp>
            <ns3:hr>128</ns3:hr>
          </ns3:TrackPointExtension>
        </extensions>
      </trkpt>
      <trkpt lat="-22.11415174417197704315185546875" lon="166.463003419339656829833984375">
        <ele>360.399993896484375</ele>
        <time>2016-08-12T23:08:42.000Z</time>
        <extensions>
          <ns3:TrackPointExtension>
            <ns3:atemp>25.0</ns3:atemp>
            <ns3:hr>128</ns3:hr>
          </ns3:TrackPointExtension>
        </extensions>
      </trkpt>
      <trkpt lat="-22.11417739279568195343017578125" lon="166.462994702160358428955078125">
        <ele>360.600006103515625</ele>
        <time>2016-08-12T23:08:43.000Z</time>
        <extensions>
          <ns3:TrackPointExtension>
            <ns3:atemp>25.0</ns3:atemp>
            <ns3:hr>128</ns3:hr>
          </ns3:TrackPointExtension>
        </extensions>
      </trkpt>
      <trkpt lat="-22.11420740000903606414794921875" lon="166.4629916846752166748046875">
        <ele>360.399993896484375</ele>
        <time>2016-08-12T23:08:44.000Z</time>
        <extensions>
          <ns3:TrackPointExtension>
            <ns3:atemp>25.0</ns3:atemp>
            <ns3:hr>128</ns3:hr>
          </ns3:TrackPointExtension>
        </extensions>
      </trkpt>
      <trkpt lat="-22.1142307855188846588134765625" lon="166.46299277432262897491455078125">
        <ele>360.20001220703125</ele>
        <time>2016-08-12T23:08:45.000Z</time>
        <extensions>
          <ns3:TrackPointExtension>
            <ns3:atemp>25.0</ns3:atemp>
            <ns3:hr>128</ns3:hr>
          </ns3:TrackPointExtension>
        </extensions>
      </trkpt>
      <trkpt lat="-22.114262469112873077392578125" lon="166.4630035869777202606201171875">
        <ele>360</ele>
        <time>2016-08-12T23:08:46.000Z</time>
        <extensions>
          <ns3:TrackPointExtension>
            <ns3:atemp>25.0</ns3:atemp>
            <ns3:hr>129</ns3:hr>
          </ns3:TrackPointExtension>
        </extensions>
      </trkpt>
      <trkpt lat="-22.11428962647914886474609375" lon="166.4630089513957500457763671875">
        <ele>360</ele>
        <time>2016-08-12T23:08:47.000Z</time>
        <extensions>
          <ns3:TrackPointExtension>
            <ns3:atemp>25.0</ns3:atemp>
            <ns3:hr>128</ns3:hr>
          </ns3:TrackPointExtension>
        </extensions>
      </trkpt>
      <trkpt lat="-22.11431535892188549041748046875" lon="166.463008783757686614990234375">
        <ele>359.600006103515625</ele>
        <time>2016-08-12T23:08:48.000Z</time>
        <extensions>
          <ns3:TrackPointExtension>
            <ns3:atemp>25.0</ns3:atemp>
            <ns3:hr>129</ns3:hr>
          </ns3:TrackPointExtension>
        </extensions>
      </trkpt>
      <trkpt lat="-22.114340923726558685302734375" lon="166.4630062691867351531982421875">
        <ele>359.399993896484375</ele>
        <time>2016-08-12T23:08:49.000Z</time>
        <extensions>
          <ns3:TrackPointExtension>
            <ns3:atemp>25.0</ns3:atemp>
            <ns3:hr>129</ns3:hr>
          </ns3:TrackPointExtension>
        </extensions>
      </trkpt>
      <trkpt lat="-22.11436900310218334197998046875" lon="166.46301087923347949981689453125">
        <ele>359.399993896484375</ele>
        <time>2016-08-12T23:08:50.000Z</time>
        <extensions>
          <ns3:TrackPointExtension>
            <ns3:atemp>25.0</ns3:atemp>
            <ns3:hr>129</ns3:hr>
          </ns3:TrackPointExtension>
        </extensions>
      </trkpt>
      <trkpt lat="-22.11439825594425201416015625" lon="166.46301657892763614654541015625">
        <ele>359.399993896484375</ele>
        <time>2016-08-12T23:08:51.000Z</time>
        <extensions>
          <ns3:TrackPointExtension>
            <ns3:atemp>25.0</ns3:atemp>
            <ns3:hr>129</ns3:hr>
          </ns3:TrackPointExtension>
        </extensions>
      </trkpt>
      <trkpt lat="-22.114427424967288970947265625" lon="166.46301917731761932373046875">
        <ele>359.20001220703125</ele>
        <time>2016-08-12T23:08:52.000Z</time>
        <extensions>
          <ns3:TrackPointExtension>
            <ns3:atemp>25.0</ns3:atemp>
            <ns3:hr>129</ns3:hr>
          </ns3:TrackPointExtension>
        </extensions>
      </trkpt>
      <trkpt lat="-22.11445190012454986572265625" lon="166.46302211098372936248779296875">
        <ele>359.20001220703125</ele>
        <time>2016-08-12T23:08:53.000Z</time>
        <extensions>
          <ns3:TrackPointExtension>
            <ns3:atemp>25.0</ns3:atemp>
            <ns3:hr>129</ns3:hr>
          </ns3:TrackPointExtension>
        </extensions>
      </trkpt>
      <trkpt lat="-22.1144788898527622222900390625" lon="166.4630260504782199859619140625">
        <ele>359</ele>
        <time>2016-08-12T23:08:54.000Z</time>
        <extensions>
          <ns3:TrackPointExtension>
            <ns3:atemp>25.0</ns3:atemp>
            <ns3:hr>129</ns3:hr>
          </ns3:TrackPointExtension>
        </extensions>
      </trkpt>
      <trkpt lat="-22.1145050413906574249267578125" lon="166.46303401328623294830322265625">
        <ele>358.79998779296875</ele>
        <time>2016-08-12T23:08:55.000Z</time>
        <extensions>
          <ns3:TrackPointExtension>
            <ns3:atemp>25.0</ns3:atemp>
            <ns3:hr>129</ns3:hr>
          </ns3:TrackPointExtension>
        </extensions>
      </trkpt>
      <trkpt lat="-22.11452968418598175048828125" lon="166.46304155699908733367919921875">
        <ele>358.79998779296875</ele>
        <time>2016-08-12T23:08:56.000Z</time>
        <extensions>
          <ns3:TrackPointExtension>
            <ns3:atemp>25.0</ns3:atemp>
            <ns3:hr>129</ns3:hr>
          </ns3:TrackPointExtension>
        </extensions>
      </trkpt>
      <trkpt lat="-22.11455575190484523773193359375" lon="166.46305094473063945770263671875">
        <ele>358.600006103515625</ele>
        <time>2016-08-12T23:08:57.000Z</time>
        <extensions>
          <ns3:TrackPointExtension>
            <ns3:atemp>25.0</ns3:atemp>
            <ns3:hr>129</ns3:hr>
          </ns3:TrackPointExtension>
        </extensions>
      </trkpt>
      <trkpt lat="-22.11457536555826663970947265625" lon="166.4630589075386524200439453125">
        <ele>358.399993896484375</ele>
        <time>2016-08-12T23:08:58.000Z</time>
        <extensions>
          <ns3:TrackPointExtension>
            <ns3:atemp>25.0</ns3:atemp>
            <ns3:hr>129</ns3:hr>
          </ns3:TrackPointExtension>
        </extensions>
      </trkpt>
      <trkpt lat="-22.11460101418197154998779296875" lon="166.4630672894418239593505859375">
        <ele>358.399993896484375</ele>
        <time>2016-08-12T23:08:59.000Z</time>
        <extensions>
          <ns3:TrackPointExtension>
            <ns3:atemp>25.0</ns3:atemp>
            <ns3:hr>129</ns3:hr>
          </ns3:TrackPointExtension>
        </extensions>
      </trkpt>
      <trkpt lat="-22.11463018320500850677490234375" lon="166.4630770124495029449462890625">
        <ele>358.399993896484375</ele>
        <time>2016-08-12T23:09:00.000Z</time>
        <extensions>
          <ns3:TrackPointExtension>
            <ns3:atemp>25.0</ns3:atemp>
            <ns3:hr>129</ns3:hr>
          </ns3:TrackPointExtension>
        </extensions>
      </trkpt>
      <trkpt lat="-22.11465574800968170166015625" lon="166.463083215057849884033203125">
        <ele>358.399993896484375</ele>
        <time>2016-08-12T23:09:01.000Z</time>
        <extensions>
          <ns3:TrackPointExtension>
            <ns3:atemp>25.0</ns3:atemp>
            <ns3:hr>129</ns3:hr>
          </ns3:TrackPointExtension>
        </extensions>
      </trkpt>
      <trkpt lat="-22.114682234823703765869140625" lon="166.4630830474197864532470703125">
        <ele>358.20001220703125</ele>
        <time>2016-08-12T23:09:02.000Z</time>
        <extensions>
          <ns3:TrackPointExtension>
            <ns3:atemp>25.0</ns3:atemp>
            <ns3:hr>129</ns3:hr>
          </ns3:TrackPointExtension>
        </extensions>
      </trkpt>
      <trkpt lat="-22.11470645852386951446533203125" lon="166.4630850590765476226806640625">
        <ele>358</ele>
        <time>2016-08-12T23:09:03.000Z</time>
        <extensions>
          <ns3:TrackPointExtension>
            <ns3:atemp>25.0</ns3:atemp>
            <ns3:hr>129</ns3:hr>
          </ns3:TrackPointExtension>
        </extensions>
      </trkpt>
      <trkpt lat="-22.11473487317562103271484375" lon="166.4630860649049282073974609375">
        <ele>357.79998779296875</ele>
        <time>2016-08-12T23:09:04.000Z</time>
        <extensions>
          <ns3:TrackPointExtension>
            <ns3:atemp>25.0</ns3:atemp>
            <ns3:hr>129</ns3:hr>
          </ns3:TrackPointExtension>
        </extensions>
      </trkpt>
      <trkpt lat="-22.11476278491318225860595703125" lon="166.46308447234332561492919921875">
        <ele>357.600006103515625</ele>
        <time>2016-08-12T23:09:05.000Z</time>
        <extensions>
          <ns3:TrackPointExtension>
            <ns3:atemp>25.0</ns3:atemp>
            <ns3:hr>129</ns3:hr>
          </ns3:TrackPointExtension>
        </extensions>
      </trkpt>
      <trkpt lat="-22.11478591896593570709228515625" lon="166.4630817063152790069580078125">
        <ele>357.600006103515625</ele>
        <time>2016-08-12T23:09:06.000Z</time>
        <extensions>
          <ns3:TrackPointExtension>
            <ns3:atemp>25.0</ns3:atemp>
            <ns3:hr>129</ns3:hr>
          </ns3:TrackPointExtension>
        </extensions>
      </trkpt>
      <trkpt lat="-22.1148108132183551788330078125" lon="166.4630786888301372528076171875">
        <ele>357.399993896484375</ele>
        <time>2016-08-12T23:09:07.000Z</time>
        <extensions>
          <ns3:TrackPointExtension>
            <ns3:atemp>25.0</ns3:atemp>
            <ns3:hr>129</ns3:hr>
          </ns3:TrackPointExtension>
        </extensions>
      </trkpt>
      <trkpt lat="-22.1148399822413921356201171875" lon="166.46307558752596378326416015625">
        <ele>357.20001220703125</ele>
        <time>2016-08-12T23:09:08.000Z</time>
        <extensions>
          <ns3:TrackPointExtension>
            <ns3:atemp>25.0</ns3:atemp>
            <ns3:hr>129</ns3:hr>
          </ns3:TrackPointExtension>
        </extensions>
      </trkpt>
      <trkpt lat="-22.1148657985031604766845703125" lon="166.46307550370693206787109375">
        <ele>357</ele>
        <time>2016-08-12T23:09:09.000Z</time>
        <extensions>
          <ns3:TrackPointExtension>
            <ns3:atemp>25.0</ns3:atemp>
            <ns3:hr>129</ns3:hr>
          </ns3:TrackPointExtension>
        </extensions>
      </trkpt>
      <trkpt lat="-22.1148896031081676483154296875" lon="166.4630760066211223602294921875">
        <ele>357</ele>
        <time>2016-08-12T23:09:10.000Z</time>
        <extensions>
          <ns3:TrackPointExtension>
            <ns3:atemp>25.0</ns3:atemp>
            <ns3:hr>129</ns3:hr>
          </ns3:TrackPointExtension>
        </extensions>
      </trkpt>
      <trkpt lat="-22.114916257560253143310546875" lon="166.4630773477256298065185546875">
        <ele>356.600006103515625</ele>
        <time>2016-08-12T23:09:11.000Z</time>
        <extensions>
          <ns3:TrackPointExtension>
            <ns3:atemp>25.0</ns3:atemp>
            <ns3:hr>129</ns3:hr>
          </ns3:TrackPointExtension>
        </extensions>
      </trkpt>
      <trkpt lat="-22.11494266055524349212646484375" lon="166.46308011375367641448974609375">
        <ele>356.399993896484375</ele>
        <time>2016-08-12T23:09:12.000Z</time>
        <extensions>
          <ns3:TrackPointExtension>
            <ns3:atemp>25.0</ns3:atemp>
            <ns3:hr>130</ns3:hr>
          </ns3:TrackPointExtension>
        </extensions>
      </trkpt>
      <trkpt lat="-22.11496981792151927947998046875" lon="166.4630830474197864532470703125">
        <ele>356</ele>
        <time>2016-08-12T23:09:13.000Z</time>
        <extensions>
          <ns3:TrackPointExtension>
            <ns3:atemp>25.0</ns3:atemp>
            <ns3:hr>129</ns3:hr>
          </ns3:TrackPointExtension>
        </extensions>
      </trkpt>
      <trkpt lat="-22.1149972267448902130126953125" lon="166.463082544505596160888671875">
        <ele>355.79998779296875</ele>
        <time>2016-08-12T23:09:14.000Z</time>
        <extensions>
          <ns3:TrackPointExtension>
            <ns3:atemp>25.0</ns3:atemp>
            <ns3:hr>129</ns3:hr>
          </ns3:TrackPointExtension>
        </extensions>
      </trkpt>
      <trkpt lat="-22.11502010934054851531982421875" lon="166.4630770124495029449462890625">
        <ele>355.79998779296875</ele>
        <time>2016-08-12T23:09:15.000Z</time>
        <extensions>
          <ns3:TrackPointExtension>
            <ns3:atemp>25.0</ns3:atemp>
            <ns3:hr>129</ns3:hr>
          </ns3:TrackPointExtension>
        </extensions>
      </trkpt>
      <trkpt lat="-22.11504198610782623291015625" lon="166.46307273767888545989990234375">
        <ele>355.600006103515625</ele>
        <time>2016-08-12T23:09:16.000Z</time>
        <extensions>
          <ns3:TrackPointExtension>
            <ns3:atemp>25.0</ns3:atemp>
            <ns3:hr>129</ns3:hr>
          </ns3:TrackPointExtension>
        </extensions>
      </trkpt>
      <trkpt lat="-22.1150689758360385894775390625" lon="166.463077180087566375732421875">
        <ele>355.399993896484375</ele>
        <time>2016-08-12T23:09:17.000Z</time>
        <extensions>
          <ns3:TrackPointExtension>
            <ns3:atemp>25.0</ns3:atemp>
            <ns3:hr>129</ns3:hr>
          </ns3:TrackPointExtension>
        </extensions>
      </trkpt>
      <trkpt lat="-22.11509370245039463043212890625" lon="166.4630810357630252838134765625">
        <ele>355</ele>
        <time>2016-08-12T23:09:18.000Z</time>
        <extensions>
          <ns3:TrackPointExtension>
            <ns3:atemp>25.0</ns3:atemp>
            <ns3:hr>129</ns3:hr>
          </ns3:TrackPointExtension>
        </extensions>
      </trkpt>
      <trkpt lat="-22.1151185967028141021728515625" lon="166.46308715455234050750732421875">
        <ele>355</ele>
        <time>2016-08-12T23:09:19.000Z</time>
        <extensions>
          <ns3:TrackPointExtension>
            <ns3:atemp>25.0</ns3:atemp>
            <ns3:hr>129</ns3:hr>
          </ns3:TrackPointExtension>
        </extensions>
      </trkpt>
      <trkpt lat="-22.1151460893452167510986328125" lon="166.46309025585651397705078125">
        <ele>354.600006103515625</ele>
        <time>2016-08-12T23:09:20.000Z</time>
        <extensions>
          <ns3:TrackPointExtension>
            <ns3:atemp>25.0</ns3:atemp>
            <ns3:hr>129</ns3:hr>
          </ns3:TrackPointExtension>
        </extensions>
      </trkpt>
      <trkpt lat="-22.115173079073429107666015625" lon="166.46309168078005313873291015625">
        <ele>354.399993896484375</ele>
        <time>2016-08-12T23:09:21.000Z</time>
        <extensions>
          <ns3:TrackPointExtension>
            <ns3:atemp>25.0</ns3:atemp>
            <ns3:hr>129</ns3:hr>
          </ns3:TrackPointExtension>
        </extensions>
      </trkpt>
      <trkpt lat="-22.1152004040777683258056640625" lon="166.46309159696102142333984375">
        <ele>354.20001220703125</ele>
        <time>2016-08-12T23:09:22.000Z</time>
        <extensions>
          <ns3:TrackPointExtension>
            <ns3:atemp>25.0</ns3:atemp>
            <ns3:hr>129</ns3:hr>
          </ns3:TrackPointExtension>
        </extensions>
      </trkpt>
      <trkpt lat="-22.1152258850634098052978515625" lon="166.4630847238004207611083984375">
        <ele>354</ele>
        <time>2016-08-12T23:09:23.000Z</time>
        <extensions>
          <ns3:TrackPointExtension>
            <ns3:atemp>25.0</ns3:atemp>
            <ns3:hr>129</ns3:hr>
          </ns3:TrackPointExtension>
        </extensions>
      </trkpt>
      <trkpt lat="-22.11525497026741504669189453125" lon="166.463082544505596160888671875">
        <ele>353.600006103515625</ele>
        <time>2016-08-12T23:09:24.000Z</time>
        <extensions>
          <ns3:TrackPointExtension>
            <ns3:atemp>25.0</ns3:atemp>
            <ns3:hr>128</ns3:hr>
          </ns3:TrackPointExtension>
        </extensions>
      </trkpt>
      <trkpt lat="-22.11528112180531024932861328125" lon="166.46307944320142269134521484375">
        <ele>353.399993896484375</ele>
        <time>2016-08-12T23:09:25.000Z</time>
        <extensions>
          <ns3:TrackPointExtension>
            <ns3:atemp>25.0</ns3:atemp>
            <ns3:hr>128</ns3:hr>
          </ns3:TrackPointExtension>
        </extensions>
      </trkpt>
      <trkpt lat="-22.11530626751482486724853515625" lon="166.463073827326297760009765625">
        <ele>353.399993896484375</ele>
        <time>2016-08-12T23:09:26.000Z</time>
        <extensions>
          <ns3:TrackPointExtension>
            <ns3:atemp>25.0</ns3:atemp>
            <ns3:hr>128</ns3:hr>
          </ns3:TrackPointExtension>
        </extensions>
      </trkpt>
      <trkpt lat="-22.11533141322433948516845703125" lon="166.4630723185837268829345703125">
        <ele>353.20001220703125</ele>
        <time>2016-08-12T23:09:27.000Z</time>
        <extensions>
          <ns3:TrackPointExtension>
            <ns3:atemp>25.0</ns3:atemp>
            <ns3:hr>128</ns3:hr>
          </ns3:TrackPointExtension>
        </extensions>
      </trkpt>
      <trkpt lat="-22.11535488255321979522705078125" lon="166.4630632661283016204833984375">
        <ele>352.79998779296875</ele>
        <time>2016-08-12T23:09:28.000Z</time>
        <extensions>
          <ns3:TrackPointExtension>
            <ns3:atemp>25.0</ns3:atemp>
            <ns3:hr>128</ns3:hr>
          </ns3:TrackPointExtension>
        </extensions>
      </trkpt>
      <trkpt lat="-22.1153814531862735748291015625" lon="166.46305496804416179656982421875">
        <ele>352.600006103515625</ele>
        <time>2016-08-12T23:09:29.000Z</time>
        <extensions>
          <ns3:TrackPointExtension>
            <ns3:atemp>25.0</ns3:atemp>
            <ns3:hr>128</ns3:hr>
          </ns3:TrackPointExtension>
        </extensions>
      </trkpt>
      <trkpt lat="-22.11540467105805873870849609375" lon="166.4630454964935779571533203125">
        <ele>352.20001220703125</ele>
        <time>2016-08-12T23:09:30.000Z</time>
        <extensions>
          <ns3:TrackPointExtension>
            <ns3:atemp>25.0</ns3:atemp>
            <ns3:hr>128</ns3:hr>
          </ns3:TrackPointExtension>
        </extensions>
      </trkpt>
      <trkpt lat="-22.1154315769672393798828125" lon="166.463038958609104156494140625">
        <ele>352</ele>
        <time>2016-08-12T23:09:31.000Z</time>
        <extensions>
          <ns3:TrackPointExtension>
            <ns3:atemp>25.0</ns3:atemp>
            <ns3:hr>128</ns3:hr>
          </ns3:TrackPointExtension>
        </extensions>
      </trkpt>
      <trkpt lat="-22.1154583990573883056640625" lon="166.4630344323813915252685546875">
        <ele>352</ele>
        <time>2016-08-12T23:09:32.000Z</time>
        <extensions>
          <ns3:TrackPointExtension>
            <ns3:atemp>25.0</ns3:atemp>
            <ns3:hr>128</ns3:hr>
          </ns3:TrackPointExtension>
        </extensions>
      </trkpt>
      <trkpt lat="-22.11548228748142719268798828125" lon="166.4630237035453319549560546875">
        <ele>351.79998779296875</ele>
        <time>2016-08-12T23:09:33.000Z</time>
        <extensions>
          <ns3:TrackPointExtension>
            <ns3:atemp>25.0</ns3:atemp>
            <ns3:hr>128</ns3:hr>
          </ns3:TrackPointExtension>
        </extensions>
      </trkpt>
      <trkpt lat="-22.1155051700770854949951171875" lon="166.46301247179508209228515625">
        <ele>351.399993896484375</ele>
        <time>2016-08-12T23:09:34.000Z</time>
        <extensions>
          <ns3:TrackPointExtension>
            <ns3:atemp>25.0</ns3:atemp>
            <ns3:hr>128</ns3:hr>
          </ns3:TrackPointExtension>
        </extensions>
      </trkpt>
      <trkpt lat="-22.1155272983014583587646484375" lon="166.4630049280822277069091796875">
        <ele>351.20001220703125</ele>
        <time>2016-08-12T23:09:35.000Z</time>
        <extensions>
          <ns3:TrackPointExtension>
            <ns3:atemp>25.0</ns3:atemp>
            <ns3:hr>128</ns3:hr>
          </ns3:TrackPointExtension>
        </extensions>
      </trkpt>
      <trkpt lat="-22.11554917506873607635498046875" lon="166.46300283260643482208251953125">
        <ele>351</ele>
        <time>2016-08-12T23:09:36.000Z</time>
        <extensions>
          <ns3:TrackPointExtension>
            <ns3:atemp>25.0</ns3:atemp>
            <ns3:hr>128</ns3:hr>
          </ns3:TrackPointExtension>
        </extensions>
      </trkpt>
      <trkpt lat="-22.11556828580796718597412109375" lon="166.46300174295902252197265625">
        <ele>350.79998779296875</ele>
        <time>2016-08-12T23:09:37.000Z</time>
        <extensions>
          <ns3:TrackPointExtension>
            <ns3:atemp>25.0</ns3:atemp>
            <ns3:hr>128</ns3:hr>
          </ns3:TrackPointExtension>
        </extensions>
      </trkpt>
      <trkpt lat="-22.11559058167040348052978515625" lon="166.463001072406768798828125">
        <ele>350.600006103515625</ele>
        <time>2016-08-12T23:09:38.000Z</time>
        <extensions>
          <ns3:TrackPointExtension>
            <ns3:atemp>25.0</ns3:atemp>
            <ns3:hr>129</ns3:hr>
          </ns3:TrackPointExtension>
        </extensions>
      </trkpt>
      <trkpt lat="-22.11561405099928379058837890625" lon="166.46300165913999080657958984375">
        <ele>350.399993896484375</ele>
        <time>2016-08-12T23:09:39.000Z</time>
        <extensions>
          <ns3:TrackPointExtension>
            <ns3:atemp>25.0</ns3:atemp>
            <ns3:hr>128</ns3:hr>
          </ns3:TrackPointExtension>
        </extensions>
      </trkpt>
      <trkpt lat="-22.1156349219381809234619140625" lon="166.46299679763615131378173828125">
        <ele>350</ele>
        <time>2016-08-12T23:09:40.000Z</time>
        <extensions>
          <ns3:TrackPointExtension>
            <ns3:atemp>25.0</ns3:atemp>
            <ns3:hr>129</ns3:hr>
          </ns3:TrackPointExtension>
        </extensions>
      </trkpt>
      <trkpt lat="-22.115657217800617218017578125" lon="166.462986655533313751220703125">
        <ele>349.79998779296875</ele>
        <time>2016-08-12T23:09:41.000Z</time>
        <extensions>
          <ns3:TrackPointExtension>
            <ns3:atemp>25.0</ns3:atemp>
            <ns3:hr>128</ns3:hr>
          </ns3:TrackPointExtension>
        </extensions>
      </trkpt>
      <trkpt lat="-22.1156810224056243896484375" lon="166.462978608906269073486328125">
        <ele>349.600006103515625</ele>
        <time>2016-08-12T23:09:42.000Z</time>
        <extensions>
          <ns3:TrackPointExtension>
            <ns3:atemp>25.0</ns3:atemp>
            <ns3:hr>128</ns3:hr>
          </ns3:TrackPointExtension>
        </extensions>
      </trkpt>
      <trkpt lat="-22.115706838667392730712890625" lon="166.4629747532308101654052734375">
        <ele>349.399993896484375</ele>
        <time>2016-08-12T23:09:43.000Z</time>
        <extensions>
          <ns3:TrackPointExtension>
            <ns3:atemp>25.0</ns3:atemp>
            <ns3:hr>128</ns3:hr>
          </ns3:TrackPointExtension>
        </extensions>
      </trkpt>
      <trkpt lat="-22.11573064327239990234375" lon="166.46297081373631954193115234375">
        <ele>349.20001220703125</ele>
        <time>2016-08-12T23:09:44.000Z</time>
        <extensions>
          <ns3:TrackPointExtension>
            <ns3:atemp>25.0</ns3:atemp>
            <ns3:hr>129</ns3:hr>
          </ns3:TrackPointExtension>
        </extensions>
      </trkpt>
      <trkpt lat="-22.115751765668392181396484375" lon="166.4629675447940826416015625">
        <ele>349</ele>
        <time>2016-08-12T23:09:45.000Z</time>
        <extensions>
          <ns3:TrackPointExtension>
            <ns3:atemp>25.0</ns3:atemp>
            <ns3:hr>129</ns3:hr>
          </ns3:TrackPointExtension>
        </extensions>
      </trkpt>
      <trkpt lat="-22.1157737262547016143798828125" lon="166.46296712569892406463623046875">
        <ele>349</ele>
        <time>2016-08-12T23:09:46.000Z</time>
        <extensions>
          <ns3:TrackPointExtension>
            <ns3:atemp>25.0</ns3:atemp>
            <ns3:hr>129</ns3:hr>
          </ns3:TrackPointExtension>
        </extensions>
      </trkpt>
      <trkpt lat="-22.11579501628875732421875" lon="166.4629630185663700103759765625">
        <ele>349</ele>
        <time>2016-08-12T23:09:47.000Z</time>
        <extensions>
          <ns3:TrackPointExtension>
            <ns3:atemp>25.0</ns3:atemp>
            <ns3:hr>129</ns3:hr>
          </ns3:TrackPointExtension>
        </extensions>
      </trkpt>
      <trkpt lat="-22.11581848561763763427734375" lon="166.46295991726219654083251953125">
        <ele>348.600006103515625</ele>
        <time>2016-08-12T23:09:48.000Z</time>
        <extensions>
          <ns3:TrackPointExtension>
            <ns3:atemp>25.0</ns3:atemp>
            <ns3:hr>129</ns3:hr>
          </ns3:TrackPointExtension>
        </extensions>
      </trkpt>
      <trkpt lat="-22.1158404462039470672607421875" lon="166.462957821786403656005859375">
        <ele>348.399993896484375</ele>
        <time>2016-08-12T23:09:49.000Z</time>
        <extensions>
          <ns3:TrackPointExtension>
            <ns3:atemp>25.0</ns3:atemp>
            <ns3:hr>129</ns3:hr>
          </ns3:TrackPointExtension>
        </extensions>
      </trkpt>
      <trkpt lat="-22.11586450226604938507080078125" lon="166.46295354701578617095947265625">
        <ele>348.600006103515625</ele>
        <time>2016-08-12T23:09:50.000Z</time>
        <extensions>
          <ns3:TrackPointExtension>
            <ns3:atemp>25.0</ns3:atemp>
            <ns3:hr>129</ns3:hr>
          </ns3:TrackPointExtension>
        </extensions>
      </trkpt>
      <trkpt lat="-22.11588730104267597198486328125" lon="166.46294734440743923187255859375">
        <ele>348.600006103515625</ele>
        <time>2016-08-12T23:09:51.000Z</time>
        <extensions>
          <ns3:TrackPointExtension>
            <ns3:atemp>25.0</ns3:atemp>
            <ns3:hr>129</ns3:hr>
          </ns3:TrackPointExtension>
        </extensions>
      </trkpt>
      <trkpt lat="-22.11591009981930255889892578125" lon="166.46294030360877513885498046875">
        <ele>348.399993896484375</ele>
        <time>2016-08-12T23:09:52.000Z</time>
        <extensions>
          <ns3:TrackPointExtension>
            <ns3:atemp>25.0</ns3:atemp>
            <ns3:hr>129</ns3:hr>
          </ns3:TrackPointExtension>
        </extensions>
      </trkpt>
      <trkpt lat="-22.11593155749142169952392578125" lon="166.46293259225785732269287109375">
        <ele>348.20001220703125</ele>
        <time>2016-08-12T23:09:53.000Z</time>
        <extensions>
          <ns3:TrackPointExtension>
            <ns3:atemp>25.0</ns3:atemp>
            <ns3:hr>129</ns3:hr>
          </ns3:TrackPointExtension>
        </extensions>
      </trkpt>
      <trkpt lat="-22.1159534342586994171142578125" lon="166.46292286925017833709716796875">
        <ele>348.20001220703125</ele>
        <time>2016-08-12T23:09:54.000Z</time>
        <extensions>
          <ns3:TrackPointExtension>
            <ns3:atemp>25.0</ns3:atemp>
            <ns3:hr>128</ns3:hr>
          </ns3:TrackPointExtension>
        </extensions>
      </trkpt>
      <trkpt lat="-22.11597966961562633514404296875" lon="166.46291716955602169036865234375">
        <ele>348</ele>
        <time>2016-08-12T23:09:55.000Z</time>
        <extensions>
          <ns3:TrackPointExtension>
            <ns3:atemp>25.0</ns3:atemp>
            <ns3:hr>129</ns3:hr>
          </ns3:TrackPointExtension>
        </extensions>
      </trkpt>
      <trkpt lat="-22.11600012145936489105224609375" lon="166.4629085361957550048828125">
        <ele>348.20001220703125</ele>
        <time>2016-08-12T23:09:56.000Z</time>
        <extensions>
          <ns3:TrackPointExtension>
            <ns3:atemp>25.0</ns3:atemp>
            <ns3:hr>129</ns3:hr>
          </ns3:TrackPointExtension>
        </extensions>
      </trkpt>
      <trkpt lat="-22.11602090857923030853271484375" lon="166.4628962986171245574951171875">
        <ele>348.20001220703125</ele>
        <time>2016-08-12T23:09:57.000Z</time>
        <extensions>
          <ns3:TrackPointExtension>
            <ns3:atemp>25.0</ns3:atemp>
            <ns3:hr>129</ns3:hr>
          </ns3:TrackPointExtension>
        </extensions>
      </trkpt>
      <trkpt lat="-22.11604806594550609588623046875" lon="166.46289185620844364166259765625">
        <ele>347.79998779296875</ele>
        <time>2016-08-12T23:09:58.000Z</time>
        <extensions>
          <ns3:TrackPointExtension>
            <ns3:atemp>25.0</ns3:atemp>
            <ns3:hr>129</ns3:hr>
          </ns3:TrackPointExtension>
        </extensions>
      </trkpt>
      <trkpt lat="-22.1160687692463397979736328125" lon="166.462886743247509002685546875">
        <ele>347.79998779296875</ele>
        <time>2016-08-12T23:09:59.000Z</time>
        <extensions>
          <ns3:TrackPointExtension>
            <ns3:atemp>25.0</ns3:atemp>
            <ns3:hr>129</ns3:hr>
          </ns3:TrackPointExtension>
        </extensions>
      </trkpt>
      <trkpt lat="-22.1160922385752201080322265625" lon="166.4628812111914157867431640625">
        <ele>347.600006103515625</ele>
        <time>2016-08-12T23:10:00.000Z</time>
        <extensions>
          <ns3:TrackPointExtension>
            <ns3:atemp>25.0</ns3:atemp>
            <ns3:hr>129</ns3:hr>
          </ns3:TrackPointExtension>
        </extensions>
      </trkpt>
      <trkpt lat="-22.116117887198925018310546875" lon="166.462874673306941986083984375">
        <ele>347.399993896484375</ele>
        <time>2016-08-12T23:10:01.000Z</time>
        <extensions>
          <ns3:TrackPointExtension>
            <ns3:atemp>25.0</ns3:atemp>
            <ns3:hr>129</ns3:hr>
          </ns3:TrackPointExtension>
        </extensions>
      </trkpt>
      <trkpt lat="-22.1161405183374881744384765625" lon="166.46287123672664165496826171875">
        <ele>347.20001220703125</ele>
        <time>2016-08-12T23:10:02.000Z</time>
        <extensions>
          <ns3:TrackPointExtension>
            <ns3:atemp>25.0</ns3:atemp>
            <ns3:hr>129</ns3:hr>
          </ns3:TrackPointExtension>
        </extensions>
      </trkpt>
      <trkpt lat="-22.11616926826536655426025390625" lon="166.4628755114972591400146484375">
        <ele>347</ele>
        <time>2016-08-12T23:10:03.000Z</time>
        <extensions>
          <ns3:TrackPointExtension>
            <ns3:atemp>25.0</ns3:atemp>
            <ns3:hr>129</ns3:hr>
          </ns3:TrackPointExtension>
        </extensions>
      </trkpt>
      <trkpt lat="-22.1161891333758831024169921875" lon="166.4628748409450054168701171875">
        <ele>346.600006103515625</ele>
        <time>2016-08-12T23:10:04.000Z</time>
        <extensions>
          <ns3:TrackPointExtension>
            <ns3:atemp>25.0</ns3:atemp>
            <ns3:hr>129</ns3:hr>
          </ns3:TrackPointExtension>
        </extensions>
      </trkpt>
      <trkpt lat="-22.11621821857988834381103515625" lon="166.46288313902914524078369140625">
        <ele>346.399993896484375</ele>
        <time>2016-08-12T23:10:05.000Z</time>
        <extensions>
          <ns3:TrackPointExtension>
            <ns3:atemp>25.0</ns3:atemp>
            <ns3:hr>129</ns3:hr>
          </ns3:TrackPointExtension>
        </extensions>
      </trkpt>
      <trkpt lat="-22.11624202318489551544189453125" lon="166.46288573741912841796875">
        <ele>346.399993896484375</ele>
        <time>2016-08-12T23:10:06.000Z</time>
        <extensions>
          <ns3:TrackPointExtension>
            <ns3:atemp>25.0</ns3:atemp>
            <ns3:hr>129</ns3:hr>
          </ns3:TrackPointExtension>
        </extensions>
      </trkpt>
      <trkpt lat="-22.11626532487571239471435546875" lon="166.4628855697810649871826171875">
        <ele>346.20001220703125</ele>
        <time>2016-08-12T23:10:07.000Z</time>
        <extensions>
          <ns3:TrackPointExtension>
            <ns3:atemp>25.0</ns3:atemp>
            <ns3:hr>129</ns3:hr>
          </ns3:TrackPointExtension>
        </extensions>
      </trkpt>
      <trkpt lat="-22.1162917278707027435302734375" lon="166.462890096008777618408203125">
        <ele>346</ele>
        <time>2016-08-12T23:10:08.000Z</time>
        <extensions>
          <ns3:TrackPointExtension>
            <ns3:atemp>25.0</ns3:atemp>
            <ns3:hr>129</ns3:hr>
          </ns3:TrackPointExtension>
        </extensions>
      </trkpt>
      <trkpt lat="-22.1163148619234561920166015625" lon="166.4628932811319828033447265625">
        <ele>346</ele>
        <time>2016-08-12T23:10:09.000Z</time>
        <extensions>
          <ns3:TrackPointExtension>
            <ns3:atemp>25.0</ns3:atemp>
            <ns3:hr>129</ns3:hr>
          </ns3:TrackPointExtension>
        </extensions>
      </trkpt>
      <trkpt lat="-22.11633858270943164825439453125" lon="166.46289956755936145782470703125">
        <ele>345.600006103515625</ele>
        <time>2016-08-12T23:10:10.000Z</time>
        <extensions>
          <ns3:TrackPointExtension>
            <ns3:atemp>25.0</ns3:atemp>
            <ns3:hr>129</ns3:hr>
          </ns3:TrackPointExtension>
        </extensions>
      </trkpt>
      <trkpt lat="-22.116364650428295135498046875" lon="166.46290241740643978118896484375">
        <ele>345.399993896484375</ele>
        <time>2016-08-12T23:10:11.000Z</time>
        <extensions>
          <ns3:TrackPointExtension>
            <ns3:atemp>25.0</ns3:atemp>
            <ns3:hr>129</ns3:hr>
          </ns3:TrackPointExtension>
        </extensions>
      </trkpt>
      <trkpt lat="-22.1163913048803806304931640625" lon="166.46290292032063007354736328125">
        <ele>345.20001220703125</ele>
        <time>2016-08-12T23:10:12.000Z</time>
        <extensions>
          <ns3:TrackPointExtension>
            <ns3:atemp>25.0</ns3:atemp>
            <ns3:hr>129</ns3:hr>
          </ns3:TrackPointExtension>
        </extensions>
      </trkpt>
      <trkpt lat="-22.1164161153137683868408203125" lon="166.4629040099680423736572265625">
        <ele>345.20001220703125</ele>
        <time>2016-08-12T23:10:13.000Z</time>
        <extensions>
          <ns3:TrackPointExtension>
            <ns3:atemp>25.0</ns3:atemp>
            <ns3:hr>129</ns3:hr>
          </ns3:TrackPointExtension>
        </extensions>
      </trkpt>
      <trkpt lat="-22.1164392493665218353271484375" lon="166.46290610544383525848388671875">
        <ele>345</ele>
        <time>2016-08-12T23:10:14.000Z</time>
        <extensions>
          <ns3:TrackPointExtension>
            <ns3:atemp>25.0</ns3:atemp>
            <ns3:hr>128</ns3:hr>
          </ns3:TrackPointExtension>
        </extensions>
      </trkpt>
      <trkpt lat="-22.11646012030541896820068359375" lon="166.46290610544383525848388671875">
        <ele>345</ele>
        <time>2016-08-12T23:10:15.000Z</time>
        <extensions>
          <ns3:TrackPointExtension>
            <ns3:atemp>25.0</ns3:atemp>
            <ns3:hr>128</ns3:hr>
          </ns3:TrackPointExtension>
        </extensions>
      </trkpt>
      <trkpt lat="-22.11648627184331417083740234375" lon="166.462905518710613250732421875">
        <ele>345.20001220703125</ele>
        <time>2016-08-12T23:10:16.000Z</time>
        <extensions>
          <ns3:TrackPointExtension>
            <ns3:atemp>25.0</ns3:atemp>
            <ns3:hr>128</ns3:hr>
          </ns3:TrackPointExtension>
        </extensions>
      </trkpt>
      <trkpt lat="-22.1165126748383045196533203125" lon="166.46290359087288379669189453125">
        <ele>344.79998779296875</ele>
        <time>2016-08-12T23:10:17.000Z</time>
        <extensions>
          <ns3:TrackPointExtension>
            <ns3:atemp>25.0</ns3:atemp>
            <ns3:hr>128</ns3:hr>
          </ns3:TrackPointExtension>
        </extensions>
      </trkpt>
      <trkpt lat="-22.11653974838554859161376953125" lon="166.4629016630351543426513671875">
        <ele>344.600006103515625</ele>
        <time>2016-08-12T23:10:18.000Z</time>
        <extensions>
          <ns3:TrackPointExtension>
            <ns3:atemp>25.0</ns3:atemp>
            <ns3:hr>128</ns3:hr>
          </ns3:TrackPointExtension>
        </extensions>
      </trkpt>
      <trkpt lat="-22.11656204424798488616943359375" lon="166.46289856173098087310791015625">
        <ele>344.600006103515625</ele>
        <time>2016-08-12T23:10:19.000Z</time>
        <extensions>
          <ns3:TrackPointExtension>
            <ns3:atemp>25.0</ns3:atemp>
            <ns3:hr>127</ns3:hr>
          </ns3:TrackPointExtension>
        </extensions>
      </trkpt>
      <trkpt lat="-22.116585932672023773193359375" lon="166.46289847791194915771484375">
        <ele>344</ele>
        <time>2016-08-12T23:10:20.000Z</time>
        <extensions>
          <ns3:TrackPointExtension>
            <ns3:atemp>25.0</ns3:atemp>
            <ns3:hr>127</ns3:hr>
          </ns3:TrackPointExtension>
        </extensions>
      </trkpt>
      <trkpt lat="-22.11660814471542835235595703125" lon="166.46289839409291744232177734375">
        <ele>343.79998779296875</ele>
        <time>2016-08-12T23:10:21.000Z</time>
        <extensions>
          <ns3:TrackPointExtension>
            <ns3:atemp>25.0</ns3:atemp>
            <ns3:hr>127</ns3:hr>
          </ns3:TrackPointExtension>
        </extensions>
      </trkpt>
      <trkpt lat="-22.11663412861526012420654296875" lon="166.4629036746919155120849609375">
        <ele>343.600006103515625</ele>
        <time>2016-08-12T23:10:22.000Z</time>
        <extensions>
          <ns3:TrackPointExtension>
            <ns3:atemp>25.0</ns3:atemp>
            <ns3:hr>126</ns3:hr>
          </ns3:TrackPointExtension>
        </extensions>
      </trkpt>
      <trkpt lat="-22.11666111834347248077392578125" lon="166.46291197277605533599853515625">
        <ele>343.399993896484375</ele>
        <time>2016-08-12T23:10:23.000Z</time>
        <extensions>
          <ns3:TrackPointExtension>
            <ns3:atemp>25.0</ns3:atemp>
            <ns3:hr>126</ns3:hr>
          </ns3:TrackPointExtension>
        </extensions>
      </trkpt>
      <trkpt lat="-22.11668550968170166015625" lon="166.46291934885084629058837890625">
        <ele>343.20001220703125</ele>
        <time>2016-08-12T23:10:24.000Z</time>
        <extensions>
          <ns3:TrackPointExtension>
            <ns3:atemp>25.0</ns3:atemp>
            <ns3:hr>126</ns3:hr>
          </ns3:TrackPointExtension>
        </extensions>
      </trkpt>
      <trkpt lat="-22.116711325943470001220703125" lon="166.46292940713465213775634765625">
        <ele>343</ele>
        <time>2016-08-12T23:10:25.000Z</time>
        <extensions>
          <ns3:TrackPointExtension>
            <ns3:atemp>25.0</ns3:atemp>
            <ns3:hr>126</ns3:hr>
          </ns3:TrackPointExtension>
        </extensions>
      </trkpt>
      <trkpt lat="-22.11673571728169918060302734375" lon="166.46293426863849163055419921875">
        <ele>342.79998779296875</ele>
        <time>2016-08-12T23:10:26.000Z</time>
        <extensions>
          <ns3:TrackPointExtension>
            <ns3:atemp>25.0</ns3:atemp>
            <ns3:hr>126</ns3:hr>
          </ns3:TrackPointExtension>
        </extensions>
      </trkpt>
      <trkpt lat="-22.1167621202766895294189453125" lon="166.46294047124683856964111328125">
        <ele>342.399993896484375</ele>
        <time>2016-08-12T23:10:27.000Z</time>
        <extensions>
          <ns3:TrackPointExtension>
            <ns3:atemp>25.0</ns3:atemp>
            <ns3:hr>126</ns3:hr>
          </ns3:TrackPointExtension>
        </extensions>
      </trkpt>
      <trkpt lat="-22.11679120548069477081298828125" lon="166.46295404992997646331787109375">
        <ele>342.20001220703125</ele>
        <time>2016-08-12T23:10:28.000Z</time>
        <extensions>
          <ns3:TrackPointExtension>
            <ns3:atemp>25.0</ns3:atemp>
            <ns3:hr>126</ns3:hr>
          </ns3:TrackPointExtension>
        </extensions>
      </trkpt>
      <trkpt lat="-22.116815932095050811767578125" lon="166.4629620127379894256591796875">
        <ele>342</ele>
        <time>2016-08-12T23:10:29.000Z</time>
        <extensions>
          <ns3:TrackPointExtension>
            <ns3:atemp>25.0</ns3:atemp>
            <ns3:hr>126</ns3:hr>
          </ns3:TrackPointExtension>
        </extensions>
      </trkpt>
      <trkpt lat="-22.11684250272810459136962890625" lon="166.4629754237830638885498046875">
        <ele>341.600006103515625</ele>
        <time>2016-08-12T23:10:30.000Z</time>
        <extensions>
          <ns3:TrackPointExtension>
            <ns3:atemp>25.0</ns3:atemp>
            <ns3:hr>126</ns3:hr>
          </ns3:TrackPointExtension>
        </extensions>
      </trkpt>
      <trkpt lat="-22.11686815135180950164794921875" lon="166.46299478597939014434814453125">
        <ele>341.399993896484375</ele>
        <time>2016-08-12T23:10:31.000Z</time>
        <extensions>
          <ns3:TrackPointExtension>
            <ns3:atemp>25.0</ns3:atemp>
            <ns3:hr>126</ns3:hr>
          </ns3:TrackPointExtension>
        </extensions>
      </trkpt>
      <trkpt lat="-22.11688944138586521148681640625" lon="166.46301020868122577667236328125">
        <ele>341.20001220703125</ele>
        <time>2016-08-12T23:10:32.000Z</time>
        <extensions>
          <ns3:TrackPointExtension>
            <ns3:atemp>25.0</ns3:atemp>
            <ns3:hr>126</ns3:hr>
          </ns3:TrackPointExtension>
        </extensions>
      </trkpt>
      <trkpt lat="-22.116919197142124176025390625" lon="166.46303686313331127166748046875">
        <ele>341.20001220703125</ele>
        <time>2016-08-12T23:10:33.000Z</time>
        <extensions>
          <ns3:TrackPointExtension>
            <ns3:atemp>25.0</ns3:atemp>
            <ns3:hr>126</ns3:hr>
          </ns3:TrackPointExtension>
        </extensions>
      </trkpt>
      <trkpt lat="-22.11694375611841678619384765625" lon="166.46306569688022136688232421875">
        <ele>340.79998779296875</ele>
        <time>2016-08-12T23:10:34.000Z</time>
        <extensions>
          <ns3:TrackPointExtension>
            <ns3:atemp>25.0</ns3:atemp>
            <ns3:hr>126</ns3:hr>
          </ns3:TrackPointExtension>
        </extensions>
      </trkpt>
      <trkpt lat="-22.11696588434278964996337890625" lon="166.46309235133230686187744140625">
        <ele>340.399993896484375</ele>
        <time>2016-08-12T23:10:35.000Z</time>
        <extensions>
          <ns3:TrackPointExtension>
            <ns3:atemp>25.0</ns3:atemp>
            <ns3:hr>126</ns3:hr>
          </ns3:TrackPointExtension>
        </extensions>
      </trkpt>
      <trkpt lat="-22.1169911138713359832763671875" lon="166.463116742670536041259765625">
        <ele>340.399993896484375</ele>
        <time>2016-08-12T23:10:36.000Z</time>
        <extensions>
          <ns3:TrackPointExtension>
            <ns3:atemp>25.0</ns3:atemp>
            <ns3:hr>125</ns3:hr>
          </ns3:TrackPointExtension>
        </extensions>
      </trkpt>
      <trkpt lat="-22.1170165948569774627685546875" lon="166.46314532496035099029541015625">
        <ele>340.20001220703125</ele>
        <time>2016-08-12T23:10:37.000Z</time>
        <extensions>
          <ns3:TrackPointExtension>
            <ns3:atemp>25.0</ns3:atemp>
            <ns3:hr>126</ns3:hr>
          </ns3:TrackPointExtension>
        </extensions>
      </trkpt>
      <trkpt lat="-22.1170380525290966033935546875" lon="166.4631638489663600921630859375">
        <ele>340</ele>
        <time>2016-08-12T23:10:38.000Z</time>
        <extensions>
          <ns3:TrackPointExtension>
            <ns3:atemp>25.0</ns3:atemp>
            <ns3:hr>126</ns3:hr>
          </ns3:TrackPointExtension>
        </extensions>
      </trkpt>
      <trkpt lat="-22.117058001458644866943359375" lon="166.46318371407687664031982421875">
        <ele>340</ele>
        <time>2016-08-12T23:10:39.000Z</time>
        <extensions>
          <ns3:TrackPointExtension>
            <ns3:atemp>25.0</ns3:atemp>
            <ns3:hr>126</ns3:hr>
          </ns3:TrackPointExtension>
        </extensions>
      </trkpt>
      <trkpt lat="-22.117082811892032623291015625" lon="166.46320533938705921173095703125">
        <ele>339.79998779296875</ele>
        <time>2016-08-12T23:10:40.000Z</time>
        <extensions>
          <ns3:TrackPointExtension>
            <ns3:atemp>25.0</ns3:atemp>
            <ns3:hr>126</ns3:hr>
          </ns3:TrackPointExtension>
        </extensions>
      </trkpt>
      <trkpt lat="-22.1171101368963718414306640625" lon="166.46322696469724178314208984375">
        <ele>339.79998779296875</ele>
        <time>2016-08-12T23:10:41.000Z</time>
        <extensions>
          <ns3:TrackPointExtension>
            <ns3:atemp>25.0</ns3:atemp>
            <ns3:hr>126</ns3:hr>
          </ns3:TrackPointExtension>
        </extensions>
      </trkpt>
      <trkpt lat="-22.1171347796916961669921875" lon="166.4632429741322994232177734375">
        <ele>339.600006103515625</ele>
        <time>2016-08-12T23:10:42.000Z</time>
        <extensions>
          <ns3:TrackPointExtension>
            <ns3:atemp>25.0</ns3:atemp>
            <ns3:hr>126</ns3:hr>
          </ns3:TrackPointExtension>
        </extensions>
      </trkpt>
      <trkpt lat="-22.11715749464929103851318359375" lon="166.46325630135834217071533203125">
        <ele>339.20001220703125</ele>
        <time>2016-08-12T23:10:43.000Z</time>
        <extensions>
          <ns3:TrackPointExtension>
            <ns3:atemp>25.0</ns3:atemp>
            <ns3:hr>126</ns3:hr>
          </ns3:TrackPointExtension>
        </extensions>
      </trkpt>
      <trkpt lat="-22.11718104779720306396484375" lon="166.4632684551179409027099609375">
        <ele>339</ele>
        <time>2016-08-12T23:10:44.000Z</time>
        <extensions>
          <ns3:TrackPointExtension>
            <ns3:atemp>25.0</ns3:atemp>
            <ns3:hr>127</ns3:hr>
          </ns3:TrackPointExtension>
        </extensions>
      </trkpt>
      <trkpt lat="-22.1172036789357662200927734375" lon="166.4632795192301273345947265625">
        <ele>339</ele>
        <time>2016-08-12T23:10:45.000Z</time>
        <extensions>
          <ns3:TrackPointExtension>
            <ns3:atemp>25.0</ns3:atemp>
            <ns3:hr>127</ns3:hr>
          </ns3:TrackPointExtension>
        </extensions>
      </trkpt>
      <trkpt lat="-22.11722454987466335296630859375" lon="166.463287062942981719970703125">
        <ele>338.79998779296875</ele>
        <time>2016-08-12T23:10:46.000Z</time>
        <extensions>
          <ns3:TrackPointExtension>
            <ns3:atemp>25.0</ns3:atemp>
            <ns3:hr>127</ns3:hr>
          </ns3:TrackPointExtension>
        </extensions>
      </trkpt>
      <trkpt lat="-22.11724433116614818572998046875" lon="166.46329435519874095916748046875">
        <ele>338.600006103515625</ele>
        <time>2016-08-12T23:10:47.000Z</time>
        <extensions>
          <ns3:TrackPointExtension>
            <ns3:atemp>25.0</ns3:atemp>
            <ns3:hr>127</ns3:hr>
          </ns3:TrackPointExtension>
        </extensions>
      </trkpt>
      <trkpt lat="-22.1172630228102207183837890625" lon="166.463300473988056182861328125">
        <ele>338.600006103515625</ele>
        <time>2016-08-12T23:10:48.000Z</time>
        <extensions>
          <ns3:TrackPointExtension>
            <ns3:atemp>25.0</ns3:atemp>
            <ns3:hr>128</ns3:hr>
          </ns3:TrackPointExtension>
        </extensions>
      </trkpt>
      <trkpt lat="-22.11728942580521106719970703125" lon="166.46330416202545166015625">
        <ele>338.20001220703125</ele>
        <time>2016-08-12T23:10:49.000Z</time>
        <extensions>
          <ns3:TrackPointExtension>
            <ns3:atemp>25.0</ns3:atemp>
            <ns3:hr>128</ns3:hr>
          </ns3:TrackPointExtension>
        </extensions>
      </trkpt>
      <trkpt lat="-22.11731557734310626983642578125" lon="166.4633063413202762603759765625">
        <ele>337.79998779296875</ele>
        <time>2016-08-12T23:10:50.000Z</time>
        <extensions>
          <ns3:TrackPointExtension>
            <ns3:atemp>25.0</ns3:atemp>
            <ns3:hr>128</ns3:hr>
          </ns3:TrackPointExtension>
        </extensions>
      </trkpt>
      <trkpt lat="-22.11734374053776264190673828125" lon="166.4633110351860523223876953125">
        <ele>337.600006103515625</ele>
        <time>2016-08-12T23:10:51.000Z</time>
        <extensions>
          <ns3:TrackPointExtension>
            <ns3:atemp>25.0</ns3:atemp>
            <ns3:hr>128</ns3:hr>
          </ns3:TrackPointExtension>
        </extensions>
      </trkpt>
      <trkpt lat="-22.117369137704372406005859375" lon="166.46330751478672027587890625">
        <ele>337.399993896484375</ele>
        <time>2016-08-12T23:10:52.000Z</time>
        <extensions>
          <ns3:TrackPointExtension>
            <ns3:atemp>25.0</ns3:atemp>
            <ns3:hr>128</ns3:hr>
          </ns3:TrackPointExtension>
        </extensions>
      </trkpt>
      <trkpt lat="-22.11739805527031421661376953125" lon="166.46330709569156169891357421875">
        <ele>337.20001220703125</ele>
        <time>2016-08-12T23:10:53.000Z</time>
        <extensions>
          <ns3:TrackPointExtension>
            <ns3:atemp>25.0</ns3:atemp>
            <ns3:hr>128</ns3:hr>
          </ns3:TrackPointExtension>
        </extensions>
      </trkpt>
      <trkpt lat="-22.11741381324827671051025390625" lon="166.46328798495233058929443359375">
        <ele>337</ele>
        <time>2016-08-12T23:10:54.000Z</time>
        <extensions>
          <ns3:TrackPointExtension>
            <ns3:atemp>25.0</ns3:atemp>
            <ns3:hr>129</ns3:hr>
          </ns3:TrackPointExtension>
        </extensions>
      </trkpt>
      <trkpt lat="-22.11743342690169811248779296875" lon="166.463270969688892364501953125">
        <ele>336.79998779296875</ele>
        <time>2016-08-12T23:10:55.000Z</time>
        <extensions>
          <ns3:TrackPointExtension>
            <ns3:atemp>25.0</ns3:atemp>
            <ns3:hr>129</ns3:hr>
          </ns3:TrackPointExtension>
        </extensions>
      </trkpt>
      <trkpt lat="-22.11745622567832469940185546875" lon="166.463256888091564178466796875">
        <ele>336.399993896484375</ele>
        <time>2016-08-12T23:10:56.000Z</time>
        <extensions>
          <ns3:TrackPointExtension>
            <ns3:atemp>25.0</ns3:atemp>
            <ns3:hr>129</ns3:hr>
          </ns3:TrackPointExtension>
        </extensions>
      </trkpt>
      <trkpt lat="-22.117469720542430877685546875" lon="166.4632329158484935760498046875">
        <ele>335.79998779296875</ele>
        <time>2016-08-12T23:10:57.000Z</time>
        <extensions>
          <ns3:TrackPointExtension>
            <ns3:atemp>25.0</ns3:atemp>
            <ns3:hr>129</ns3:hr>
          </ns3:TrackPointExtension>
        </extensions>
      </trkpt>
      <trkpt lat="-22.1174807846546173095703125" lon="166.4632121287286281585693359375">
        <ele>335.20001220703125</ele>
        <time>2016-08-12T23:10:58.000Z</time>
        <extensions>
          <ns3:TrackPointExtension>
            <ns3:atemp>25.0</ns3:atemp>
            <ns3:hr>129</ns3:hr>
          </ns3:TrackPointExtension>
        </extensions>
      </trkpt>
      <trkpt lat="-22.11748757399618625640869140625" lon="166.46318539045751094818115234375">
        <ele>334.20001220703125</ele>
        <time>2016-08-12T23:10:59.000Z</time>
        <extensions>
          <ns3:TrackPointExtension>
            <ns3:atemp>25.0</ns3:atemp>
            <ns3:hr>129</ns3:hr>
          </ns3:TrackPointExtension>
        </extensions>
      </trkpt>
      <trkpt lat="-22.11749075911939144134521484375" lon="166.4631514437496662139892578125">
        <ele>333.79998779296875</ele>
        <time>2016-08-12T23:11:00.000Z</time>
        <extensions>
          <ns3:TrackPointExtension>
            <ns3:atemp>25.0</ns3:atemp>
            <ns3:hr>129</ns3:hr>
          </ns3:TrackPointExtension>
        </extensions>
      </trkpt>
      <trkpt lat="-22.11748941801488399505615234375" lon="166.46311841905117034912109375">
        <ele>333.79998779296875</ele>
        <time>2016-08-12T23:11:01.000Z</time>
        <extensions>
          <ns3:TrackPointExtension>
            <ns3:atemp>25.0</ns3:atemp>
            <ns3:hr>129</ns3:hr>
          </ns3:TrackPointExtension>
        </extensions>
      </trkpt>
      <trkpt lat="-22.117491848766803741455078125" lon="166.4630887471139430999755859375">
        <ele>333.399993896484375</ele>
        <time>2016-08-12T23:11:02.000Z</time>
        <extensions>
          <ns3:TrackPointExtension>
            <ns3:atemp>25.0</ns3:atemp>
            <ns3:hr>130</ns3:hr>
          </ns3:TrackPointExtension>
        </extensions>
      </trkpt>
      <trkpt lat="-22.117494530975818634033203125" lon="166.46305739879608154296875">
        <ele>333</ele>
        <time>2016-08-12T23:11:03.000Z</time>
        <extensions>
          <ns3:TrackPointExtension>
            <ns3:atemp>25.0</ns3:atemp>
            <ns3:hr>130</ns3:hr>
          </ns3:TrackPointExtension>
        </extensions>
      </trkpt>
      <trkpt lat="-22.117501236498355865478515625" lon="166.4630292356014251708984375">
        <ele>332.79998779296875</ele>
        <time>2016-08-12T23:11:04.000Z</time>
        <extensions>
          <ns3:TrackPointExtension>
            <ns3:atemp>25.0</ns3:atemp>
            <ns3:hr>130</ns3:hr>
          </ns3:TrackPointExtension>
        </extensions>
      </trkpt>
      <trkpt lat="-22.11750752292573451995849609375" lon="166.46299947984516620635986328125">
        <ele>332.600006103515625</ele>
        <time>2016-08-12T23:11:05.000Z</time>
        <extensions>
          <ns3:TrackPointExtension>
            <ns3:atemp>25.0</ns3:atemp>
            <ns3:hr>129</ns3:hr>
          </ns3:TrackPointExtension>
        </extensions>
      </trkpt>
      <trkpt lat="-22.1175141446292400360107421875" lon="166.46296964026987552642822265625">
        <ele>332.399993896484375</ele>
        <time>2016-08-12T23:11:06.000Z</time>
        <extensions>
          <ns3:TrackPointExtension>
            <ns3:atemp>25.0</ns3:atemp>
            <ns3:hr>130</ns3:hr>
          </ns3:TrackPointExtension>
        </extensions>
      </trkpt>
      <trkpt lat="-22.11751875467598438262939453125" lon="166.46294097416102886199951171875">
        <ele>332.399993896484375</ele>
        <time>2016-08-12T23:11:07.000Z</time>
        <extensions>
          <ns3:TrackPointExtension>
            <ns3:atemp>25.0</ns3:atemp>
            <ns3:hr>130</ns3:hr>
          </ns3:TrackPointExtension>
        </extensions>
      </trkpt>
      <trkpt lat="-22.11752646602690219879150390625" lon="166.46291331388056278228759765625">
        <ele>332.399993896484375</ele>
        <time>2016-08-12T23:11:08.000Z</time>
        <extensions>
          <ns3:TrackPointExtension>
            <ns3:atemp>25.0</ns3:atemp>
            <ns3:hr>130</ns3:hr>
          </ns3:TrackPointExtension>
        </extensions>
      </trkpt>
      <trkpt lat="-22.117536775767803192138671875" lon="166.4628870785236358642578125">
        <ele>332.20001220703125</ele>
        <time>2016-08-12T23:11:09.000Z</time>
        <extensions>
          <ns3:TrackPointExtension>
            <ns3:atemp>25.0</ns3:atemp>
            <ns3:hr>130</ns3:hr>
          </ns3:TrackPointExtension>
        </extensions>
      </trkpt>
      <trkpt lat="-22.1175386197865009307861328125" lon="166.46285916678607463836669921875">
        <ele>332.20001220703125</ele>
        <time>2016-08-12T23:11:10.000Z</time>
        <extensions>
          <ns3:TrackPointExtension>
            <ns3:atemp>25.0</ns3:atemp>
            <ns3:hr>130</ns3:hr>
          </ns3:TrackPointExtension>
        </extensions>
      </trkpt>
      <trkpt lat="-22.11754155345261096954345703125" lon="166.46283133886754512786865234375">
        <ele>331.79998779296875</ele>
        <time>2016-08-12T23:11:11.000Z</time>
        <extensions>
          <ns3:TrackPointExtension>
            <ns3:atemp>25.0</ns3:atemp>
            <ns3:hr>130</ns3:hr>
          </ns3:TrackPointExtension>
        </extensions>
      </trkpt>
      <trkpt lat="-22.1175532042980194091796875" lon="166.46280317567288875579833984375">
        <ele>331.399993896484375</ele>
        <time>2016-08-12T23:11:12.000Z</time>
        <extensions>
          <ns3:TrackPointExtension>
            <ns3:atemp>25.0</ns3:atemp>
            <ns3:hr>130</ns3:hr>
          </ns3:TrackPointExtension>
        </extensions>
      </trkpt>
      <trkpt lat="-22.11756183765828609466552734375" lon="166.4627744257450103759765625">
        <ele>331</ele>
        <time>2016-08-12T23:11:13.000Z</time>
        <extensions>
          <ns3:TrackPointExtension>
            <ns3:atemp>25.0</ns3:atemp>
            <ns3:hr>129</ns3:hr>
          </ns3:TrackPointExtension>
        </extensions>
      </trkpt>
      <trkpt lat="-22.11757172830402851104736328125" lon="166.46274634636938571929931640625">
        <ele>331.20001220703125</ele>
        <time>2016-08-12T23:11:14.000Z</time>
        <extensions>
          <ns3:TrackPointExtension>
            <ns3:atemp>25.0</ns3:atemp>
            <ns3:hr>129</ns3:hr>
          </ns3:TrackPointExtension>
        </extensions>
      </trkpt>
      <trkpt lat="-22.1175788529217243194580078125" lon="166.4627186022698879241943359375">
        <ele>331</ele>
        <time>2016-08-12T23:11:15.000Z</time>
        <extensions>
          <ns3:TrackPointExtension>
            <ns3:atemp>25.0</ns3:atemp>
            <ns3:hr>129</ns3:hr>
          </ns3:TrackPointExtension>
        </extensions>
      </trkpt>
      <trkpt lat="-22.11757860146462917327880859375" lon="166.46268867887556552886962890625">
        <ele>330.79998779296875</ele>
        <time>2016-08-12T23:11:16.000Z</time>
        <extensions>
          <ns3:TrackPointExtension>
            <ns3:atemp>25.0</ns3:atemp>
            <ns3:hr>129</ns3:hr>
          </ns3:TrackPointExtension>
        </extensions>
      </trkpt>
      <trkpt lat="-22.11758673191070556640625" lon="166.462662108242511749267578125">
        <ele>330.79998779296875</ele>
        <time>2016-08-12T23:11:17.000Z</time>
        <extensions>
          <ns3:TrackPointExtension>
            <ns3:atemp>25.0</ns3:atemp>
            <ns3:hr>128</ns3:hr>
          </ns3:TrackPointExtension>
        </extensions>
      </trkpt>
      <trkpt lat="-22.1175929345190525054931640625" lon="166.46263897418975830078125">
        <ele>330.600006103515625</ele>
        <time>2016-08-12T23:11:18.000Z</time>
        <extensions>
          <ns3:TrackPointExtension>
            <ns3:atemp>25.0</ns3:atemp>
            <ns3:hr>128</ns3:hr>
          </ns3:TrackPointExtension>
        </extensions>
      </trkpt>
      <trkpt lat="-22.11759402416646480560302734375" lon="166.46260955370962619781494140625">
        <ele>330.399993896484375</ele>
        <time>2016-08-12T23:11:19.000Z</time>
        <extensions>
          <ns3:TrackPointExtension>
            <ns3:atemp>25.0</ns3:atemp>
            <ns3:hr>128</ns3:hr>
          </ns3:TrackPointExtension>
        </extensions>
      </trkpt>
      <trkpt lat="-22.11760341189801692962646484375" lon="166.46258239634335041046142578125">
        <ele>330.20001220703125</ele>
        <time>2016-08-12T23:11:20.000Z</time>
        <extensions>
          <ns3:TrackPointExtension>
            <ns3:atemp>25.0</ns3:atemp>
            <ns3:hr>128</ns3:hr>
          </ns3:TrackPointExtension>
        </extensions>
      </trkpt>
      <trkpt lat="-22.117601148784160614013671875" lon="166.46255607716739177703857421875">
        <ele>330.20001220703125</ele>
        <time>2016-08-12T23:11:21.000Z</time>
        <extensions>
          <ns3:TrackPointExtension>
            <ns3:atemp>25.0</ns3:atemp>
            <ns3:hr>128</ns3:hr>
          </ns3:TrackPointExtension>
        </extensions>
      </trkpt>
      <trkpt lat="-22.117602489888668060302734375" lon="166.46252942271530628204345703125">
        <ele>330</ele>
        <time>2016-08-12T23:11:22.000Z</time>
        <extensions>
          <ns3:TrackPointExtension>
            <ns3:atemp>25.0</ns3:atemp>
            <ns3:hr>128</ns3:hr>
          </ns3:TrackPointExtension>
        </extensions>
      </trkpt>
      <trkpt lat="-22.1176050044596195220947265625" lon="166.462502516806125640869140625">
        <ele>329.79998779296875</ele>
        <time>2016-08-12T23:11:23.000Z</time>
        <extensions>
          <ns3:TrackPointExtension>
            <ns3:atemp>25.0</ns3:atemp>
            <ns3:hr>128</ns3:hr>
          </ns3:TrackPointExtension>
        </extensions>
      </trkpt>
      <trkpt lat="-22.11759754456579685211181640625" lon="166.462473012506961822509765625">
        <ele>329.79998779296875</ele>
        <time>2016-08-12T23:11:24.000Z</time>
        <extensions>
          <ns3:TrackPointExtension>
            <ns3:atemp>25.0</ns3:atemp>
            <ns3:hr>128</ns3:hr>
          </ns3:TrackPointExtension>
        </extensions>
      </trkpt>
      <trkpt lat="-22.11760156787931919097900390625" lon="166.46244878880679607391357421875">
        <ele>329.600006103515625</ele>
        <time>2016-08-12T23:11:25.000Z</time>
        <extensions>
          <ns3:TrackPointExtension>
            <ns3:atemp>25.0</ns3:atemp>
            <ns3:hr>128</ns3:hr>
          </ns3:TrackPointExtension>
        </extensions>
      </trkpt>
      <trkpt lat="-22.11760022677481174468994140625" lon="166.46241995505988597869873046875">
        <ele>329</ele>
        <time>2016-08-12T23:11:26.000Z</time>
        <extensions>
          <ns3:TrackPointExtension>
            <ns3:atemp>25.0</ns3:atemp>
            <ns3:hr>128</ns3:hr>
          </ns3:TrackPointExtension>
        </extensions>
      </trkpt>
      <trkpt lat="-22.11760458536446094512939453125" lon="166.4623933844268321990966796875">
        <ele>328.79998779296875</ele>
        <time>2016-08-12T23:11:27.000Z</time>
        <extensions>
          <ns3:TrackPointExtension>
            <ns3:atemp>25.0</ns3:atemp>
            <ns3:hr>128</ns3:hr>
          </ns3:TrackPointExtension>
        </extensions>
      </trkpt>
      <trkpt lat="-22.11760341189801692962646484375" lon="166.46236664615571498870849609375">
        <ele>329</ele>
        <time>2016-08-12T23:11:28.000Z</time>
        <extensions>
          <ns3:TrackPointExtension>
            <ns3:atemp>25.0</ns3:atemp>
            <ns3:hr>128</ns3:hr>
          </ns3:TrackPointExtension>
        </extensions>
      </trkpt>
      <trkpt lat="-22.11760617792606353759765625" lon="166.4623437635600566864013671875">
        <ele>328.79998779296875</ele>
        <time>2016-08-12T23:11:29.000Z</time>
        <extensions>
          <ns3:TrackPointExtension>
            <ns3:atemp>25.0</ns3:atemp>
            <ns3:hr>128</ns3:hr>
          </ns3:TrackPointExtension>
        </extensions>
      </trkpt>
      <trkpt lat="-22.117611207067966461181640625" lon="166.46232255734503269195556640625">
        <ele>328.399993896484375</ele>
        <time>2016-08-12T23:11:30.000Z</time>
        <extensions>
          <ns3:TrackPointExtension>
            <ns3:atemp>25.0</ns3:atemp>
            <ns3:hr>128</ns3:hr>
          </ns3:TrackPointExtension>
        </extensions>
      </trkpt>
      <trkpt lat="-22.11760810576379299163818359375" lon="166.46229489706456661224365234375">
        <ele>328.399993896484375</ele>
        <time>2016-08-12T23:11:31.000Z</time>
        <extensions>
          <ns3:TrackPointExtension>
            <ns3:atemp>25.0</ns3:atemp>
            <ns3:hr>128</ns3:hr>
          </ns3:TrackPointExtension>
        </extensions>
      </trkpt>
      <trkpt lat="-22.11760927923023700714111328125" lon="166.46226673386991024017333984375">
        <ele>328.600006103515625</ele>
        <time>2016-08-12T23:11:32.000Z</time>
        <extensions>
          <ns3:TrackPointExtension>
            <ns3:atemp>25.0</ns3:atemp>
            <ns3:hr>127</ns3:hr>
          </ns3:TrackPointExtension>
        </extensions>
      </trkpt>
      <trkpt lat="-22.1176217682659626007080078125" lon="166.46224804222583770751953125">
        <ele>328.600006103515625</ele>
        <time>2016-08-12T23:11:33.000Z</time>
        <extensions>
          <ns3:TrackPointExtension>
            <ns3:atemp>25.0</ns3:atemp>
            <ns3:hr>128</ns3:hr>
          </ns3:TrackPointExtension>
        </extensions>
      </trkpt>
      <trkpt lat="-22.11762755177915096282958984375" lon="166.462226249277591705322265625">
        <ele>328.20001220703125</ele>
        <time>2016-08-12T23:11:34.000Z</time>
        <extensions>
          <ns3:TrackPointExtension>
            <ns3:atemp>25.0</ns3:atemp>
            <ns3:hr>128</ns3:hr>
          </ns3:TrackPointExtension>
        </extensions>
      </trkpt>
      <trkpt lat="-22.11762554012238979339599609375" lon="166.462198756635189056396484375">
        <ele>328.399993896484375</ele>
        <time>2016-08-12T23:11:35.000Z</time>
        <extensions>
          <ns3:TrackPointExtension>
            <ns3:atemp>25.0</ns3:atemp>
            <ns3:hr>128</ns3:hr>
          </ns3:TrackPointExtension>
        </extensions>
      </trkpt>
      <trkpt lat="-22.11762964725494384765625" lon="166.462170593440532684326171875">
        <ele>328.399993896484375</ele>
        <time>2016-08-12T23:11:36.000Z</time>
        <extensions>
          <ns3:TrackPointExtension>
            <ns3:atemp>25.0</ns3:atemp>
            <ns3:hr>128</ns3:hr>
          </ns3:TrackPointExtension>
        </extensions>
      </trkpt>
      <trkpt lat="-22.11763660423457622528076171875" lon="166.462145783007144927978515625">
        <ele>327.79998779296875</ele>
        <time>2016-08-12T23:11:37.000Z</time>
        <extensions>
          <ns3:TrackPointExtension>
            <ns3:atemp>25.0</ns3:atemp>
            <ns3:hr>128</ns3:hr>
          </ns3:TrackPointExtension>
        </extensions>
      </trkpt>
      <trkpt lat="-22.1176418848335742950439453125" lon="166.46211938001215457916259765625">
        <ele>327.600006103515625</ele>
        <time>2016-08-12T23:11:38.000Z</time>
        <extensions>
          <ns3:TrackPointExtension>
            <ns3:atemp>25.0</ns3:atemp>
            <ns3:hr>128</ns3:hr>
          </ns3:TrackPointExtension>
        </extensions>
      </trkpt>
      <trkpt lat="-22.117652110755443572998046875" lon="166.4620933122932910919189453125">
        <ele>327.79998779296875</ele>
        <time>2016-08-12T23:11:39.000Z</time>
        <extensions>
          <ns3:TrackPointExtension>
            <ns3:atemp>25.0</ns3:atemp>
            <ns3:hr>128</ns3:hr>
          </ns3:TrackPointExtension>
        </extensions>
      </trkpt>
      <trkpt lat="-22.11765320040285587310791015625" lon="166.4620611257851123809814453125">
        <ele>327.79998779296875</ele>
        <time>2016-08-12T23:11:40.000Z</time>
        <extensions>
          <ns3:TrackPointExtension>
            <ns3:atemp>25.0</ns3:atemp>
            <ns3:hr>129</ns3:hr>
          </ns3:TrackPointExtension>
        </extensions>
      </trkpt>
      <trkpt lat="-22.1176603250205516815185546875" lon="166.4620302803814411163330078125">
        <ele>327.20001220703125</ele>
        <time>2016-08-12T23:11:41.000Z</time>
        <extensions>
          <ns3:TrackPointExtension>
            <ns3:atemp>25.0</ns3:atemp>
            <ns3:hr>128</ns3:hr>
          </ns3:TrackPointExtension>
        </extensions>
      </trkpt>
      <trkpt lat="-22.11765957064926624298095703125" lon="166.46199985407292842864990234375">
        <ele>326.20001220703125</ele>
        <time>2016-08-12T23:11:42.000Z</time>
        <extensions>
          <ns3:TrackPointExtension>
            <ns3:atemp>25.0</ns3:atemp>
            <ns3:hr>128</ns3:hr>
          </ns3:TrackPointExtension>
        </extensions>
      </trkpt>
      <trkpt lat="-22.11765848100185394287109375" lon="166.4619695954024791717529296875">
        <ele>325.79998779296875</ele>
        <time>2016-08-12T23:11:43.000Z</time>
        <extensions>
          <ns3:TrackPointExtension>
            <ns3:atemp>25.0</ns3:atemp>
            <ns3:hr>129</ns3:hr>
          </ns3:TrackPointExtension>
        </extensions>
      </trkpt>
      <trkpt lat="-22.1176539547741413116455078125" lon="166.4619387499988079071044921875">
        <ele>326.20001220703125</ele>
        <time>2016-08-12T23:11:44.000Z</time>
        <extensions>
          <ns3:TrackPointExtension>
            <ns3:atemp>25.0</ns3:atemp>
            <ns3:hr>129</ns3:hr>
          </ns3:TrackPointExtension>
        </extensions>
      </trkpt>
      <trkpt lat="-22.1176589839160442352294921875" lon="166.4619112573564052581787109375">
        <ele>326</ele>
        <time>2016-08-12T23:11:45.000Z</time>
        <extensions>
          <ns3:TrackPointExtension>
            <ns3:atemp>25.0</ns3:atemp>
            <ns3:hr>129</ns3:hr>
          </ns3:TrackPointExtension>
        </extensions>
      </trkpt>
      <trkpt lat="-22.1176603250205516815185546875" lon="166.46188066340982913970947265625">
        <ele>325.600006103515625</ele>
        <time>2016-08-12T23:11:46.000Z</time>
        <extensions>
          <ns3:TrackPointExtension>
            <ns3:atemp>25.0</ns3:atemp>
            <ns3:hr>129</ns3:hr>
          </ns3:TrackPointExtension>
        </extensions>
      </trkpt>
      <trkpt lat="-22.11766292341053485870361328125" lon="166.4618515782058238983154296875">
        <ele>325.600006103515625</ele>
        <time>2016-08-12T23:11:47.000Z</time>
        <extensions>
          <ns3:TrackPointExtension>
            <ns3:atemp>25.0</ns3:atemp>
            <ns3:hr>129</ns3:hr>
          </ns3:TrackPointExtension>
        </extensions>
      </trkpt>
      <trkpt lat="-22.11766560561954975128173828125" lon="166.46182551048696041107177734375">
        <ele>325.20001220703125</ele>
        <time>2016-08-12T23:11:48.000Z</time>
        <extensions>
          <ns3:TrackPointExtension>
            <ns3:atemp>25.0</ns3:atemp>
            <ns3:hr>129</ns3:hr>
          </ns3:TrackPointExtension>
        </extensions>
      </trkpt>
      <trkpt lat="-22.11767147295176982879638671875" lon="166.46180036477744579315185546875">
        <ele>325</ele>
        <time>2016-08-12T23:11:49.000Z</time>
        <extensions>
          <ns3:TrackPointExtension>
            <ns3:atemp>25.0</ns3:atemp>
            <ns3:hr>129</ns3:hr>
          </ns3:TrackPointExtension>
        </extensions>
      </trkpt>
      <trkpt lat="-22.11767834611237049102783203125" lon="166.461773626506328582763671875">
        <ele>325</ele>
        <time>2016-08-12T23:11:50.000Z</time>
        <extensions>
          <ns3:TrackPointExtension>
            <ns3:atemp>25.0</ns3:atemp>
            <ns3:hr>129</ns3:hr>
          </ns3:TrackPointExtension>
        </extensions>
      </trkpt>
      <trkpt lat="-22.11769075132906436920166015625" lon="166.4617471396923065185546875">
        <ele>325.20001220703125</ele>
        <time>2016-08-12T23:11:51.000Z</time>
        <extensions>
          <ns3:TrackPointExtension>
            <ns3:atemp>25.0</ns3:atemp>
            <ns3:hr>130</ns3:hr>
          </ns3:TrackPointExtension>
        </extensions>
      </trkpt>
      <trkpt lat="-22.1177055872976779937744140625" lon="166.4617221616208553314208984375">
        <ele>325.399993896484375</ele>
        <time>2016-08-12T23:11:52.000Z</time>
        <extensions>
          <ns3:TrackPointExtension>
            <ns3:atemp>25.0</ns3:atemp>
            <ns3:hr>129</ns3:hr>
          </ns3:TrackPointExtension>
        </extensions>
      </trkpt>
      <trkpt lat="-22.11771740578114986419677734375" lon="166.46169684827327728271484375">
        <ele>325.20001220703125</ele>
        <time>2016-08-12T23:11:53.000Z</time>
        <extensions>
          <ns3:TrackPointExtension>
            <ns3:atemp>25.0</ns3:atemp>
            <ns3:hr>130</ns3:hr>
          </ns3:TrackPointExtension>
        </extensions>
      </trkpt>
      <trkpt lat="-22.11772360838949680328369140625" lon="166.4616722054779529571533203125">
        <ele>325</ele>
        <time>2016-08-12T23:11:54.000Z</time>
        <extensions>
          <ns3:TrackPointExtension>
            <ns3:atemp>25.0</ns3:atemp>
            <ns3:hr>130</ns3:hr>
          </ns3:TrackPointExtension>
        </extensions>
      </trkpt>
      <trkpt lat="-22.1177263744175434112548828125" lon="166.46164798177778720855712890625">
        <ele>324.79998779296875</ele>
        <time>2016-08-12T23:11:55.000Z</time>
        <extensions>
          <ns3:TrackPointExtension>
            <ns3:atemp>25.0</ns3:atemp>
            <ns3:hr>130</ns3:hr>
          </ns3:TrackPointExtension>
        </extensions>
      </trkpt>
      <trkpt lat="-22.11773450486361980438232421875" lon="166.46162308752536773681640625">
        <ele>324.600006103515625</ele>
        <time>2016-08-12T23:11:56.000Z</time>
        <extensions>
          <ns3:TrackPointExtension>
            <ns3:atemp>25.0</ns3:atemp>
            <ns3:hr>130</ns3:hr>
          </ns3:TrackPointExtension>
        </extensions>
      </trkpt>
      <trkpt lat="-22.1177409589290618896484375" lon="166.46159718744456768035888671875">
        <ele>324.399993896484375</ele>
        <time>2016-08-12T23:11:57.000Z</time>
        <extensions>
          <ns3:TrackPointExtension>
            <ns3:atemp>25.0</ns3:atemp>
            <ns3:hr>130</ns3:hr>
          </ns3:TrackPointExtension>
        </extensions>
      </trkpt>
      <trkpt lat="-22.117745317518711090087890625" lon="166.46157078444957733154296875">
        <ele>324.20001220703125</ele>
        <time>2016-08-12T23:11:58.000Z</time>
        <extensions>
          <ns3:TrackPointExtension>
            <ns3:atemp>25.0</ns3:atemp>
            <ns3:hr>130</ns3:hr>
          </ns3:TrackPointExtension>
        </extensions>
      </trkpt>
      <trkpt lat="-22.117754705250263214111328125" lon="166.4615464769303798675537109375">
        <ele>324</ele>
        <time>2016-08-12T23:11:59.000Z</time>
        <extensions>
          <ns3:TrackPointExtension>
            <ns3:atemp>25.0</ns3:atemp>
            <ns3:hr>130</ns3:hr>
          </ns3:TrackPointExtension>
        </extensions>
      </trkpt>
      <trkpt lat="-22.11776635609567165374755859375" lon="166.4615233428776264190673828125">
        <ele>323.600006103515625</ele>
        <time>2016-08-12T23:12:00.000Z</time>
        <extensions>
          <ns3:TrackPointExtension>
            <ns3:atemp>25.0</ns3:atemp>
            <ns3:hr>130</ns3:hr>
          </ns3:TrackPointExtension>
        </extensions>
      </trkpt>
      <trkpt lat="-22.11777674965560436248779296875" lon="166.46150046028196811676025390625">
        <ele>323.20001220703125</ele>
        <time>2016-08-12T23:12:01.000Z</time>
        <extensions>
          <ns3:TrackPointExtension>
            <ns3:atemp>25.0</ns3:atemp>
            <ns3:hr>130</ns3:hr>
          </ns3:TrackPointExtension>
        </extensions>
      </trkpt>
      <trkpt lat="-22.11778999306261539459228515625" lon="166.46147548221051692962646484375">
        <ele>323.20001220703125</ele>
        <time>2016-08-12T23:12:02.000Z</time>
        <extensions>
          <ns3:TrackPointExtension>
            <ns3:atemp>25.0</ns3:atemp>
            <ns3:hr>130</ns3:hr>
          </ns3:TrackPointExtension>
        </extensions>
      </trkpt>
      <trkpt lat="-22.11780072189867496490478515625" lon="166.46145008504390716552734375">
        <ele>322.600006103515625</ele>
        <time>2016-08-12T23:12:03.000Z</time>
        <extensions>
          <ns3:TrackPointExtension>
            <ns3:atemp>25.0</ns3:atemp>
            <ns3:hr>131</ns3:hr>
          </ns3:TrackPointExtension>
        </extensions>
      </trkpt>
      <trkpt lat="-22.1178031526505947113037109375" lon="166.461423933506011962890625">
        <ele>322.399993896484375</ele>
        <time>2016-08-12T23:12:04.000Z</time>
        <extensions>
          <ns3:TrackPointExtension>
            <ns3:atemp>25.0</ns3:atemp>
            <ns3:hr>131</ns3:hr>
          </ns3:TrackPointExtension>
        </extensions>
      </trkpt>
      <trkpt lat="-22.11780994199216365814208984375" lon="166.461398117244243621826171875">
        <ele>322.399993896484375</ele>
        <time>2016-08-12T23:12:05.000Z</time>
        <extensions>
          <ns3:TrackPointExtension>
            <ns3:atemp>25.0</ns3:atemp>
            <ns3:hr>131</ns3:hr>
          </ns3:TrackPointExtension>
        </extensions>
      </trkpt>
      <trkpt lat="-22.11781966499984264373779296875" lon="166.46137473173439502716064453125">
        <ele>322</ele>
        <time>2016-08-12T23:12:06.000Z</time>
        <extensions>
          <ns3:TrackPointExtension>
            <ns3:atemp>25.0</ns3:atemp>
            <ns3:hr>131</ns3:hr>
          </ns3:TrackPointExtension>
        </extensions>
      </trkpt>
      <trkpt lat="-22.11783458478748798370361328125" lon="166.46135310642421245574951171875">
        <ele>321.600006103515625</ele>
        <time>2016-08-12T23:12:07.000Z</time>
        <extensions>
          <ns3:TrackPointExtension>
            <ns3:atemp>25.0</ns3:atemp>
            <ns3:hr>131</ns3:hr>
          </ns3:TrackPointExtension>
        </extensions>
      </trkpt>
      <trkpt lat="-22.11784481070935726165771484375" lon="166.46132963709533214569091796875">
        <ele>321.399993896484375</ele>
        <time>2016-08-12T23:12:08.000Z</time>
        <extensions>
          <ns3:TrackPointExtension>
            <ns3:atemp>25.0</ns3:atemp>
            <ns3:hr>130</ns3:hr>
          </ns3:TrackPointExtension>
        </extensions>
      </trkpt>
      <trkpt lat="-22.1178561262786388397216796875" lon="166.46130859851837158203125">
        <ele>321.399993896484375</ele>
        <time>2016-08-12T23:12:09.000Z</time>
        <extensions>
          <ns3:TrackPointExtension>
            <ns3:atemp>25.0</ns3:atemp>
            <ns3:hr>130</ns3:hr>
          </ns3:TrackPointExtension>
        </extensions>
      </trkpt>
      <trkpt lat="-22.1178670227527618408203125" lon="166.461284793913364410400390625">
        <ele>320.79998779296875</ele>
        <time>2016-08-12T23:12:10.000Z</time>
        <extensions>
          <ns3:TrackPointExtension>
            <ns3:atemp>25.0</ns3:atemp>
            <ns3:hr>130</ns3:hr>
          </ns3:TrackPointExtension>
        </extensions>
      </trkpt>
      <trkpt lat="-22.117880769073963165283203125" lon="166.4612611569464206695556640625">
        <ele>320.399993896484375</ele>
        <time>2016-08-12T23:12:11.000Z</time>
        <extensions>
          <ns3:TrackPointExtension>
            <ns3:atemp>25.0</ns3:atemp>
            <ns3:hr>130</ns3:hr>
          </ns3:TrackPointExtension>
        </extensions>
      </trkpt>
      <trkpt lat="-22.11788688786327838897705078125" lon="166.46123760379850864410400390625">
        <ele>320.399993896484375</ele>
        <time>2016-08-12T23:12:12.000Z</time>
        <extensions>
          <ns3:TrackPointExtension>
            <ns3:atemp>25.0</ns3:atemp>
            <ns3:hr>130</ns3:hr>
          </ns3:TrackPointExtension>
        </extensions>
      </trkpt>
      <trkpt lat="-22.117904238402843475341796875" lon="166.46121866069734096527099609375">
        <ele>320.20001220703125</ele>
        <time>2016-08-12T23:12:13.000Z</time>
        <extensions>
          <ns3:TrackPointExtension>
            <ns3:atemp>25.0</ns3:atemp>
            <ns3:hr>130</ns3:hr>
          </ns3:TrackPointExtension>
        </extensions>
      </trkpt>
      <trkpt lat="-22.117918320000171661376953125" lon="166.461197622120380401611328125">
        <ele>320</ele>
        <time>2016-08-12T23:12:14.000Z</time>
        <extensions>
          <ns3:TrackPointExtension>
            <ns3:atemp>25.0</ns3:atemp>
            <ns3:hr>130</ns3:hr>
          </ns3:TrackPointExtension>
        </extensions>
      </trkpt>
      <trkpt lat="-22.1179305575788021087646484375" lon="166.461176835000514984130859375">
        <ele>319.79998779296875</ele>
        <time>2016-08-12T23:12:15.000Z</time>
        <extensions>
          <ns3:TrackPointExtension>
            <ns3:atemp>25.0</ns3:atemp>
            <ns3:hr>130</ns3:hr>
          </ns3:TrackPointExtension>
        </extensions>
      </trkpt>
      <trkpt lat="-22.11794120259582996368408203125" lon="166.46115428768098354339599609375">
        <ele>319.600006103515625</ele>
        <time>2016-08-12T23:12:16.000Z</time>
        <extensions>
          <ns3:TrackPointExtension>
            <ns3:atemp>25.0</ns3:atemp>
            <ns3:hr>130</ns3:hr>
          </ns3:TrackPointExtension>
        </extensions>
      </trkpt>
      <trkpt lat="-22.11795561946928501129150390625" lon="166.461133919656276702880859375">
        <ele>319.20001220703125</ele>
        <time>2016-08-12T23:12:17.000Z</time>
        <extensions>
          <ns3:TrackPointExtension>
            <ns3:atemp>25.0</ns3:atemp>
            <ns3:hr>130</ns3:hr>
          </ns3:TrackPointExtension>
        </extensions>
      </trkpt>
      <trkpt lat="-22.117977328598499298095703125" lon="166.46111438982188701629638671875">
        <ele>319.20001220703125</ele>
        <time>2016-08-12T23:12:18.000Z</time>
        <extensions>
          <ns3:TrackPointExtension>
            <ns3:atemp>25.0</ns3:atemp>
            <ns3:hr>130</ns3:hr>
          </ns3:TrackPointExtension>
        </extensions>
      </trkpt>
      <trkpt lat="-22.11798696778714656829833984375" lon="166.4610874839127063751220703125">
        <ele>319.20001220703125</ele>
        <time>2016-08-12T23:12:19.000Z</time>
        <extensions>
          <ns3:TrackPointExtension>
            <ns3:atemp>25.0</ns3:atemp>
            <ns3:hr>129</ns3:hr>
          </ns3:TrackPointExtension>
        </extensions>
      </trkpt>
      <trkpt lat="-22.11800507269799709320068359375" lon="166.46106518805027008056640625">
        <ele>319</ele>
        <time>2016-08-12T23:12:20.000Z</time>
        <extensions>
          <ns3:TrackPointExtension>
            <ns3:atemp>25.0</ns3:atemp>
            <ns3:hr>129</ns3:hr>
          </ns3:TrackPointExtension>
        </extensions>
      </trkpt>
      <trkpt lat="-22.11801311932504177093505859375" lon="166.4610378630459308624267578125">
        <ele>318.79998779296875</ele>
        <time>2016-08-12T23:12:21.000Z</time>
        <extensions>
          <ns3:TrackPointExtension>
            <ns3:atemp>25.0</ns3:atemp>
            <ns3:hr>129</ns3:hr>
          </ns3:TrackPointExtension>
        </extensions>
      </trkpt>
      <trkpt lat="-22.118020243942737579345703125" lon="166.46100793965160846710205078125">
        <ele>318.79998779296875</ele>
        <time>2016-08-12T23:12:22.000Z</time>
        <extensions>
          <ns3:TrackPointExtension>
            <ns3:atemp>25.0</ns3:atemp>
            <ns3:hr>129</ns3:hr>
          </ns3:TrackPointExtension>
        </extensions>
      </trkpt>
      <trkpt lat="-22.1180301345884799957275390625" lon="166.4609818719327449798583984375">
        <ele>318.600006103515625</ele>
        <time>2016-08-12T23:12:23.000Z</time>
        <extensions>
          <ns3:TrackPointExtension>
            <ns3:atemp>25.0</ns3:atemp>
            <ns3:hr>130</ns3:hr>
          </ns3:TrackPointExtension>
        </extensions>
      </trkpt>
      <trkpt lat="-22.11804471909999847412109375" lon="166.46095781587064266204833984375">
        <ele>318.399993896484375</ele>
        <time>2016-08-12T23:12:24.000Z</time>
        <extensions>
          <ns3:TrackPointExtension>
            <ns3:atemp>25.0</ns3:atemp>
            <ns3:hr>130</ns3:hr>
          </ns3:TrackPointExtension>
        </extensions>
      </trkpt>
      <trkpt lat="-22.11804999969899654388427734375" lon="166.4609292335808277130126953125">
        <ele>318.20001220703125</ele>
        <time>2016-08-12T23:12:25.000Z</time>
        <extensions>
          <ns3:TrackPointExtension>
            <ns3:atemp>25.0</ns3:atemp>
            <ns3:hr>130</ns3:hr>
          </ns3:TrackPointExtension>
        </extensions>
      </trkpt>
      <trkpt lat="-22.1180572919547557830810546875" lon="166.46090199239552021026611328125">
        <ele>318</ele>
        <time>2016-08-12T23:12:26.000Z</time>
        <extensions>
          <ns3:TrackPointExtension>
            <ns3:atemp>25.0</ns3:atemp>
            <ns3:hr>129</ns3:hr>
          </ns3:TrackPointExtension>
        </extensions>
      </trkpt>
      <trkpt lat="-22.11806223727762699127197265625" lon="166.4608735777437686920166015625">
        <ele>317.79998779296875</ele>
        <time>2016-08-12T23:12:27.000Z</time>
        <extensions>
          <ns3:TrackPointExtension>
            <ns3:atemp>25.0</ns3:atemp>
            <ns3:hr>129</ns3:hr>
          </ns3:TrackPointExtension>
        </extensions>
      </trkpt>
      <trkpt lat="-22.11807112209498882293701171875" lon="166.46084927022457122802734375">
        <ele>317.79998779296875</ele>
        <time>2016-08-12T23:12:28.000Z</time>
        <extensions>
          <ns3:TrackPointExtension>
            <ns3:atemp>25.0</ns3:atemp>
            <ns3:hr>129</ns3:hr>
          </ns3:TrackPointExtension>
        </extensions>
      </trkpt>
      <trkpt lat="-22.118073888123035430908203125" lon="166.4608202688395977020263671875">
        <ele>317.600006103515625</ele>
        <time>2016-08-12T23:12:29.000Z</time>
        <extensions>
          <ns3:TrackPointExtension>
            <ns3:atemp>25.0</ns3:atemp>
            <ns3:hr>129</ns3:hr>
          </ns3:TrackPointExtension>
        </extensions>
      </trkpt>
      <trkpt lat="-22.11807715706527233123779296875" lon="166.460788249969482421875">
        <ele>317.399993896484375</ele>
        <time>2016-08-12T23:12:30.000Z</time>
        <extensions>
          <ns3:TrackPointExtension>
            <ns3:atemp>25.0</ns3:atemp>
            <ns3:hr>129</ns3:hr>
          </ns3:TrackPointExtension>
        </extensions>
      </trkpt>
      <trkpt lat="-22.11808520369231700897216796875" lon="166.46075933240354061126708984375">
        <ele>317.20001220703125</ele>
        <time>2016-08-12T23:12:31.000Z</time>
        <extensions>
          <ns3:TrackPointExtension>
            <ns3:atemp>24.0</ns3:atemp>
            <ns3:hr>129</ns3:hr>
          </ns3:TrackPointExtension>
        </extensions>
      </trkpt>
      <trkpt lat="-22.11809190921485424041748046875" lon="166.4607297442853450775146484375">
        <ele>317</ele>
        <time>2016-08-12T23:12:32.000Z</time>
        <extensions>
          <ns3:TrackPointExtension>
            <ns3:atemp>24.0</ns3:atemp>
            <ns3:hr>129</ns3:hr>
          </ns3:TrackPointExtension>
        </extensions>
      </trkpt>
      <trkpt lat="-22.11809568107128143310546875" lon="166.46069906651973724365234375">
        <ele>316.600006103515625</ele>
        <time>2016-08-12T23:12:33.000Z</time>
        <extensions>
          <ns3:TrackPointExtension>
            <ns3:atemp>24.0</ns3:atemp>
            <ns3:hr>129</ns3:hr>
          </ns3:TrackPointExtension>
        </extensions>
      </trkpt>
      <trkpt lat="-22.11809702217578887939453125" lon="166.4606730826199054718017578125">
        <ele>316.20001220703125</ele>
        <time>2016-08-12T23:12:34.000Z</time>
        <extensions>
          <ns3:TrackPointExtension>
            <ns3:atemp>24.0</ns3:atemp>
            <ns3:hr>130</ns3:hr>
          </ns3:TrackPointExtension>
        </extensions>
      </trkpt>
      <trkpt lat="-22.11809970438480377197265625" lon="166.46064366213977336883544921875">
        <ele>316</ele>
        <time>2016-08-12T23:12:35.000Z</time>
        <extensions>
          <ns3:TrackPointExtension>
            <ns3:atemp>24.0</ns3:atemp>
            <ns3:hr>129</ns3:hr>
          </ns3:TrackPointExtension>
        </extensions>
      </trkpt>
      <trkpt lat="-22.1181055717170238494873046875" lon="166.460612230002880096435546875">
        <ele>316</ele>
        <time>2016-08-12T23:12:36.000Z</time>
        <extensions>
          <ns3:TrackPointExtension>
            <ns3:atemp>24.0</ns3:atemp>
            <ns3:hr>130</ns3:hr>
          </ns3:TrackPointExtension>
        </extensions>
      </trkpt>
      <trkpt lat="-22.11810297332704067230224609375" lon="166.46057702600955963134765625">
        <ele>316.20001220703125</ele>
        <time>2016-08-12T23:12:37.000Z</time>
        <extensions>
          <ns3:TrackPointExtension>
            <ns3:atemp>24.0</ns3:atemp>
            <ns3:hr>130</ns3:hr>
          </ns3:TrackPointExtension>
        </extensions>
      </trkpt>
      <trkpt lat="-22.118102051317691802978515625" lon="166.46054391749203205108642578125">
        <ele>316.399993896484375</ele>
        <time>2016-08-12T23:12:38.000Z</time>
        <extensions>
          <ns3:TrackPointExtension>
            <ns3:atemp>24.0</ns3:atemp>
            <ns3:hr>130</ns3:hr>
          </ns3:TrackPointExtension>
        </extensions>
      </trkpt>
      <trkpt lat="-22.118089310824871063232421875" lon="166.46051508374512195587158203125">
        <ele>316.20001220703125</ele>
        <time>2016-08-12T23:12:39.000Z</time>
        <extensions>
          <ns3:TrackPointExtension>
            <ns3:atemp>24.0</ns3:atemp>
            <ns3:hr>130</ns3:hr>
          </ns3:TrackPointExtension>
        </extensions>
      </trkpt>
      <trkpt lat="-22.118082940578460693359375" lon="166.4604819752275943756103515625">
        <ele>315.600006103515625</ele>
        <time>2016-08-12T23:12:40.000Z</time>
        <extensions>
          <ns3:TrackPointExtension>
            <ns3:atemp>24.0</ns3:atemp>
            <ns3:hr>129</ns3:hr>
          </ns3:TrackPointExtension>
        </extensions>
      </trkpt>
      <trkpt lat="-22.11807447485625743865966796875" lon="166.460451968014240264892578125">
        <ele>315.20001220703125</ele>
        <time>2016-08-12T23:12:41.000Z</time>
        <extensions>
          <ns3:TrackPointExtension>
            <ns3:atemp>24.0</ns3:atemp>
            <ns3:hr>130</ns3:hr>
          </ns3:TrackPointExtension>
        </extensions>
      </trkpt>
      <trkpt lat="-22.11806274019181728363037109375" lon="166.46042221225798130035400390625">
        <ele>314.399993896484375</ele>
        <time>2016-08-12T23:12:42.000Z</time>
        <extensions>
          <ns3:TrackPointExtension>
            <ns3:atemp>24.0</ns3:atemp>
            <ns3:hr>130</ns3:hr>
          </ns3:TrackPointExtension>
        </extensions>
      </trkpt>
      <trkpt lat="-22.11804983206093311309814453125" lon="166.46039404906332492828369140625">
        <ele>313.600006103515625</ele>
        <time>2016-08-12T23:12:43.000Z</time>
        <extensions>
          <ns3:TrackPointExtension>
            <ns3:atemp>24.0</ns3:atemp>
            <ns3:hr>130</ns3:hr>
          </ns3:TrackPointExtension>
        </extensions>
      </trkpt>
      <trkpt lat="-22.1180365048348903656005859375" lon="166.460367478430271148681640625">
        <ele>313</ele>
        <time>2016-08-12T23:12:44.000Z</time>
        <extensions>
          <ns3:TrackPointExtension>
            <ns3:atemp>24.0</ns3:atemp>
            <ns3:hr>129</ns3:hr>
          </ns3:TrackPointExtension>
        </extensions>
      </trkpt>
      <trkpt lat="-22.11802686564624309539794921875" lon="166.46034359000623226165771484375">
        <ele>312.79998779296875</ele>
        <time>2016-08-12T23:12:45.000Z</time>
        <extensions>
          <ns3:TrackPointExtension>
            <ns3:atemp>24.0</ns3:atemp>
            <ns3:hr>129</ns3:hr>
          </ns3:TrackPointExtension>
        </extensions>
      </trkpt>
      <trkpt lat="-22.1180116944015026092529296875" lon="166.460314504802227020263671875">
        <ele>312.79998779296875</ele>
        <time>2016-08-12T23:12:46.000Z</time>
        <extensions>
          <ns3:TrackPointExtension>
            <ns3:atemp>24.0</ns3:atemp>
            <ns3:hr>129</ns3:hr>
          </ns3:TrackPointExtension>
        </extensions>
      </trkpt>
      <trkpt lat="-22.11799082346260547637939453125" lon="166.4602895267307758331298828125">
        <ele>313.20001220703125</ele>
        <time>2016-08-12T23:12:47.000Z</time>
        <extensions>
          <ns3:TrackPointExtension>
            <ns3:atemp>24.0</ns3:atemp>
            <ns3:hr>129</ns3:hr>
          </ns3:TrackPointExtension>
        </extensions>
      </trkpt>
      <trkpt lat="-22.11797087453305721282958984375" lon="166.4602627046406269073486328125">
        <ele>313.20001220703125</ele>
        <time>2016-08-12T23:12:48.000Z</time>
        <extensions>
          <ns3:TrackPointExtension>
            <ns3:atemp>24.0</ns3:atemp>
            <ns3:hr>129</ns3:hr>
          </ns3:TrackPointExtension>
        </extensions>
      </trkpt>
      <trkpt lat="-22.11795327253639698028564453125" lon="166.4602345414459705352783203125">
        <ele>313.20001220703125</ele>
        <time>2016-08-12T23:12:49.000Z</time>
        <extensions>
          <ns3:TrackPointExtension>
            <ns3:atemp>24.0</ns3:atemp>
            <ns3:hr>129</ns3:hr>
          </ns3:TrackPointExtension>
        </extensions>
      </trkpt>
      <trkpt lat="-22.117938101291656494140625" lon="166.46020746789872646331787109375">
        <ele>313.20001220703125</ele>
        <time>2016-08-12T23:12:50.000Z</time>
        <extensions>
          <ns3:TrackPointExtension>
            <ns3:atemp>24.0</ns3:atemp>
            <ns3:hr>129</ns3:hr>
          </ns3:TrackPointExtension>
        </extensions>
      </trkpt>
      <trkpt lat="-22.1179285459220409393310546875" lon="166.4601785503327846527099609375">
        <ele>313.20001220703125</ele>
        <time>2016-08-12T23:12:51.000Z</time>
        <extensions>
          <ns3:TrackPointExtension>
            <ns3:atemp>24.0</ns3:atemp>
            <ns3:hr>130</ns3:hr>
          </ns3:TrackPointExtension>
        </extensions>
      </trkpt>
      <trkpt lat="-22.11791421286761760711669921875" lon="166.46015181206166744232177734375">
        <ele>313.20001220703125</ele>
        <time>2016-08-12T23:12:52.000Z</time>
        <extensions>
          <ns3:TrackPointExtension>
            <ns3:atemp>24.0</ns3:atemp>
            <ns3:hr>130</ns3:hr>
          </ns3:TrackPointExtension>
        </extensions>
      </trkpt>
      <trkpt lat="-22.11791069246828556060791015625" lon="166.46012733690440654754638671875">
        <ele>313.20001220703125</ele>
        <time>2016-08-12T23:12:53.000Z</time>
        <extensions>
          <ns3:TrackPointExtension>
            <ns3:atemp>24.0</ns3:atemp>
            <ns3:hr>130</ns3:hr>
          </ns3:TrackPointExtension>
        </extensions>
      </trkpt>
      <trkpt lat="-22.11790566332638263702392578125" lon="166.46009917370975017547607421875">
        <ele>312.79998779296875</ele>
        <time>2016-08-12T23:12:54.000Z</time>
        <extensions>
          <ns3:TrackPointExtension>
            <ns3:atemp>24.0</ns3:atemp>
            <ns3:hr>130</ns3:hr>
          </ns3:TrackPointExtension>
        </extensions>
      </trkpt>
      <trkpt lat="-22.11790465749800205230712890625" lon="166.460072435438632965087890625">
        <ele>312.600006103515625</ele>
        <time>2016-08-12T23:12:55.000Z</time>
        <extensions>
          <ns3:TrackPointExtension>
            <ns3:atemp>24.0</ns3:atemp>
            <ns3:hr>130</ns3:hr>
          </ns3:TrackPointExtension>
        </extensions>
      </trkpt>
      <trkpt lat="-22.11790784262120723724365234375" lon="166.460042931139469146728515625">
        <ele>312.399993896484375</ele>
        <time>2016-08-12T23:12:56.000Z</time>
        <extensions>
          <ns3:TrackPointExtension>
            <ns3:atemp>24.0</ns3:atemp>
            <ns3:hr>129</ns3:hr>
          </ns3:TrackPointExtension>
        </extensions>
      </trkpt>
      <trkpt lat="-22.11791370995342731475830078125" lon="166.4600099064409732818603515625">
        <ele>312</ele>
        <time>2016-08-12T23:12:57.000Z</time>
        <extensions>
          <ns3:TrackPointExtension>
            <ns3:atemp>24.0</ns3:atemp>
            <ns3:hr>130</ns3:hr>
          </ns3:TrackPointExtension>
        </extensions>
      </trkpt>
      <trkpt lat="-22.1179178170859813690185546875" lon="166.45998694002628326416015625">
        <ele>312</ele>
        <time>2016-08-12T23:12:58.000Z</time>
        <extensions>
          <ns3:TrackPointExtension>
            <ns3:atemp>24.0</ns3:atemp>
            <ns3:hr>130</ns3:hr>
          </ns3:TrackPointExtension>
        </extensions>
      </trkpt>
      <trkpt lat="-22.11791773326694965362548828125" lon="166.4599569328129291534423828125">
        <ele>312</ele>
        <time>2016-08-12T23:12:59.000Z</time>
        <extensions>
          <ns3:TrackPointExtension>
            <ns3:atemp>24.0</ns3:atemp>
            <ns3:hr>130</ns3:hr>
          </ns3:TrackPointExtension>
        </extensions>
      </trkpt>
      <trkpt lat="-22.11791236884891986846923828125" lon="166.45993337966501712799072265625">
        <ele>311.79998779296875</ele>
        <time>2016-08-12T23:13:00.000Z</time>
        <extensions>
          <ns3:TrackPointExtension>
            <ns3:atemp>24.0</ns3:atemp>
            <ns3:hr>130</ns3:hr>
          </ns3:TrackPointExtension>
        </extensions>
      </trkpt>
      <trkpt lat="-22.1179168112576007843017578125" lon="166.45991309545934200286865234375">
        <ele>311.600006103515625</ele>
        <time>2016-08-12T23:13:01.000Z</time>
        <extensions>
          <ns3:TrackPointExtension>
            <ns3:atemp>24.0</ns3:atemp>
            <ns3:hr>130</ns3:hr>
          </ns3:TrackPointExtension>
        </extensions>
      </trkpt>
      <trkpt lat="-22.11791689507663249969482421875" lon="166.45988442935049533843994140625">
        <ele>311.20001220703125</ele>
        <time>2016-08-12T23:13:02.000Z</time>
        <extensions>
          <ns3:TrackPointExtension>
            <ns3:atemp>24.0</ns3:atemp>
            <ns3:hr>130</ns3:hr>
          </ns3:TrackPointExtension>
        </extensions>
      </trkpt>
      <trkpt lat="-22.117918990552425384521484375" lon="166.4598563499748706817626953125">
        <ele>311</ele>
        <time>2016-08-12T23:13:03.000Z</time>
        <extensions>
          <ns3:TrackPointExtension>
            <ns3:atemp>24.0</ns3:atemp>
            <ns3:hr>130</ns3:hr>
          </ns3:TrackPointExtension>
        </extensions>
      </trkpt>
      <trkpt lat="-22.11792728863656520843505859375" lon="166.4598355628550052642822265625">
        <ele>310.600006103515625</ele>
        <time>2016-08-12T23:13:04.000Z</time>
        <extensions>
          <ns3:TrackPointExtension>
            <ns3:atemp>24.0</ns3:atemp>
            <ns3:hr>129</ns3:hr>
          </ns3:TrackPointExtension>
        </extensions>
      </trkpt>
      <trkpt lat="-22.11793047375977039337158203125" lon="166.459808908402919769287109375">
        <ele>310.600006103515625</ele>
        <time>2016-08-12T23:13:05.000Z</time>
        <extensions>
          <ns3:TrackPointExtension>
            <ns3:atemp>24.0</ns3:atemp>
            <ns3:hr>129</ns3:hr>
          </ns3:TrackPointExtension>
        </extensions>
      </trkpt>
      <trkpt lat="-22.1179382689297199249267578125" lon="166.4597832597792148590087890625">
        <ele>310.79998779296875</ele>
        <time>2016-08-12T23:13:06.000Z</time>
        <extensions>
          <ns3:TrackPointExtension>
            <ns3:atemp>24.0</ns3:atemp>
            <ns3:hr>129</ns3:hr>
          </ns3:TrackPointExtension>
        </extensions>
      </trkpt>
      <trkpt lat="-22.1179528534412384033203125" lon="166.45976356230676174163818359375">
        <ele>310.600006103515625</ele>
        <time>2016-08-12T23:13:07.000Z</time>
        <extensions>
          <ns3:TrackPointExtension>
            <ns3:atemp>24.0</ns3:atemp>
            <ns3:hr>130</ns3:hr>
          </ns3:TrackPointExtension>
        </extensions>
      </trkpt>
      <trkpt lat="-22.11796131916344165802001953125" lon="166.4597408473491668701171875">
        <ele>310.20001220703125</ele>
        <time>2016-08-12T23:13:08.000Z</time>
        <extensions>
          <ns3:TrackPointExtension>
            <ns3:atemp>24.0</ns3:atemp>
            <ns3:hr>129</ns3:hr>
          </ns3:TrackPointExtension>
        </extensions>
      </trkpt>
      <trkpt lat="-22.117970623075962066650390625" lon="166.4597205631434917449951171875">
        <ele>310</ele>
        <time>2016-08-12T23:13:09.000Z</time>
        <extensions>
          <ns3:TrackPointExtension>
            <ns3:atemp>24.0</ns3:atemp>
            <ns3:hr>129</ns3:hr>
          </ns3:TrackPointExtension>
        </extensions>
      </trkpt>
      <trkpt lat="-22.11798864416778087615966796875" lon="166.4597001112997531890869140625">
        <ele>309.600006103515625</ele>
        <time>2016-08-12T23:13:10.000Z</time>
        <extensions>
          <ns3:TrackPointExtension>
            <ns3:atemp>24.0</ns3:atemp>
            <ns3:hr>129</ns3:hr>
          </ns3:TrackPointExtension>
        </extensions>
      </trkpt>
      <trkpt lat="-22.11800054647028446197509765625" lon="166.45967924036085605621337890625">
        <ele>309.20001220703125</ele>
        <time>2016-08-12T23:13:11.000Z</time>
        <extensions>
          <ns3:TrackPointExtension>
            <ns3:atemp>24.0</ns3:atemp>
            <ns3:hr>129</ns3:hr>
          </ns3:TrackPointExtension>
        </extensions>
      </trkpt>
      <trkpt lat="-22.1180140413343906402587890625" lon="166.4596608839929103851318359375">
        <ele>309.20001220703125</ele>
        <time>2016-08-12T23:13:12.000Z</time>
        <extensions>
          <ns3:TrackPointExtension>
            <ns3:atemp>24.0</ns3:atemp>
            <ns3:hr>129</ns3:hr>
          </ns3:TrackPointExtension>
        </extensions>
      </trkpt>
      <trkpt lat="-22.11802192032337188720703125" lon="166.459637917578220367431640625">
        <ele>309</ele>
        <time>2016-08-12T23:13:13.000Z</time>
        <extensions>
          <ns3:TrackPointExtension>
            <ns3:atemp>24.0</ns3:atemp>
            <ns3:hr>129</ns3:hr>
          </ns3:TrackPointExtension>
        </extensions>
      </trkpt>
      <trkpt lat="-22.118033654987812042236328125" lon="166.459617130458354949951171875">
        <ele>308.600006103515625</ele>
        <time>2016-08-12T23:13:14.000Z</time>
        <extensions>
          <ns3:TrackPointExtension>
            <ns3:atemp>24.0</ns3:atemp>
            <ns3:hr>129</ns3:hr>
          </ns3:TrackPointExtension>
        </extensions>
      </trkpt>
      <trkpt lat="-22.11804362945258617401123046875" lon="166.4595955051481723785400390625">
        <ele>308.399993896484375</ele>
        <time>2016-08-12T23:13:15.000Z</time>
        <extensions>
          <ns3:TrackPointExtension>
            <ns3:atemp>24.0</ns3:atemp>
            <ns3:hr>129</ns3:hr>
          </ns3:TrackPointExtension>
        </extensions>
      </trkpt>
      <trkpt lat="-22.11806056089699268341064453125" lon="166.45957865752279758453369140625">
        <ele>308.20001220703125</ele>
        <time>2016-08-12T23:13:16.000Z</time>
        <extensions>
          <ns3:TrackPointExtension>
            <ns3:atemp>24.0</ns3:atemp>
            <ns3:hr>129</ns3:hr>
          </ns3:TrackPointExtension>
        </extensions>
      </trkpt>
      <trkpt lat="-22.11806760169565677642822265625" lon="166.4595544338226318359375">
        <ele>307.79998779296875</ele>
        <time>2016-08-12T23:13:17.000Z</time>
        <extensions>
          <ns3:TrackPointExtension>
            <ns3:atemp>24.0</ns3:atemp>
            <ns3:hr>129</ns3:hr>
          </ns3:TrackPointExtension>
        </extensions>
      </trkpt>
      <trkpt lat="-22.1180730499327182769775390625" lon="166.4595264382660388946533203125">
        <ele>307.600006103515625</ele>
        <time>2016-08-12T23:13:18.000Z</time>
        <extensions>
          <ns3:TrackPointExtension>
            <ns3:atemp>24.0</ns3:atemp>
            <ns3:hr>129</ns3:hr>
          </ns3:TrackPointExtension>
        </extensions>
      </trkpt>
      <trkpt lat="-22.118079923093318939208984375" lon="166.45949768833816051483154296875">
        <ele>307.399993896484375</ele>
        <time>2016-08-12T23:13:19.000Z</time>
        <extensions>
          <ns3:TrackPointExtension>
            <ns3:atemp>24.0</ns3:atemp>
            <ns3:hr>129</ns3:hr>
          </ns3:TrackPointExtension>
        </extensions>
      </trkpt>
      <trkpt lat="-22.11808537133038043975830078125" lon="166.4594704471528530120849609375">
        <ele>307</ele>
        <time>2016-08-12T23:13:20.000Z</time>
        <extensions>
          <ns3:TrackPointExtension>
            <ns3:atemp>24.0</ns3:atemp>
            <ns3:hr>128</ns3:hr>
          </ns3:TrackPointExtension>
        </extensions>
      </trkpt>
      <trkpt lat="-22.11810364387929439544677734375" lon="166.45944806747138500213623046875">
        <ele>306.79998779296875</ele>
        <time>2016-08-12T23:13:21.000Z</time>
        <extensions>
          <ns3:TrackPointExtension>
            <ns3:atemp>24.0</ns3:atemp>
            <ns3:hr>128</ns3:hr>
          </ns3:TrackPointExtension>
        </extensions>
      </trkpt>
      <trkpt lat="-22.11811470799148082733154296875" lon="166.459421329200267791748046875">
        <ele>306.79998779296875</ele>
        <time>2016-08-12T23:13:22.000Z</time>
        <extensions>
          <ns3:TrackPointExtension>
            <ns3:atemp>24.0</ns3:atemp>
            <ns3:hr>128</ns3:hr>
          </ns3:TrackPointExtension>
        </extensions>
      </trkpt>
      <trkpt lat="-22.11811655201017856597900390625" lon="166.45939257927238941192626953125">
        <ele>306.79998779296875</ele>
        <time>2016-08-12T23:13:23.000Z</time>
        <extensions>
          <ns3:TrackPointExtension>
            <ns3:atemp>24.0</ns3:atemp>
            <ns3:hr>128</ns3:hr>
          </ns3:TrackPointExtension>
        </extensions>
      </trkpt>
      <trkpt lat="-22.1181230060756206512451171875" lon="166.4593599736690521240234375">
        <ele>306.600006103515625</ele>
        <time>2016-08-12T23:13:24.000Z</time>
        <extensions>
          <ns3:TrackPointExtension>
            <ns3:atemp>24.0</ns3:atemp>
            <ns3:hr>127</ns3:hr>
          </ns3:TrackPointExtension>
        </extensions>
      </trkpt>
      <trkpt lat="-22.11812677793204784393310546875" lon="166.4593262784183025360107421875">
        <ele>306.399993896484375</ele>
        <time>2016-08-12T23:13:25.000Z</time>
        <extensions>
          <ns3:TrackPointExtension>
            <ns3:atemp>24.0</ns3:atemp>
            <ns3:hr>127</ns3:hr>
          </ns3:TrackPointExtension>
        </extensions>
      </trkpt>
      <trkpt lat="-22.1181374229490756988525390625" lon="166.45929886959493160247802734375">
        <ele>306</ele>
        <time>2016-08-12T23:13:26.000Z</time>
        <extensions>
          <ns3:TrackPointExtension>
            <ns3:atemp>24.0</ns3:atemp>
            <ns3:hr>127</ns3:hr>
          </ns3:TrackPointExtension>
        </extensions>
      </trkpt>
      <trkpt lat="-22.11813096888363361358642578125" lon="166.4592632465064525604248046875">
        <ele>305.79998779296875</ele>
        <time>2016-08-12T23:13:27.000Z</time>
        <extensions>
          <ns3:TrackPointExtension>
            <ns3:atemp>24.0</ns3:atemp>
            <ns3:hr>126</ns3:hr>
          </ns3:TrackPointExtension>
        </extensions>
      </trkpt>
      <trkpt lat="-22.11813398636877536773681640625" lon="166.45923315547406673431396484375">
        <ele>305.600006103515625</ele>
        <time>2016-08-12T23:13:28.000Z</time>
        <extensions>
          <ns3:TrackPointExtension>
            <ns3:atemp>24.0</ns3:atemp>
            <ns3:hr>126</ns3:hr>
          </ns3:TrackPointExtension>
        </extensions>
      </trkpt>
      <trkpt lat="-22.11812895722687244415283203125" lon="166.45919862203299999237060546875">
        <ele>305.399993896484375</ele>
        <time>2016-08-12T23:13:29.000Z</time>
        <extensions>
          <ns3:TrackPointExtension>
            <ns3:atemp>24.0</ns3:atemp>
            <ns3:hr>125</ns3:hr>
          </ns3:TrackPointExtension>
        </extensions>
      </trkpt>
      <trkpt lat="-22.1181271970272064208984375" lon="166.45916492678225040435791015625">
        <ele>305.20001220703125</ele>
        <time>2016-08-12T23:13:30.000Z</time>
        <extensions>
          <ns3:TrackPointExtension>
            <ns3:atemp>24.0</ns3:atemp>
            <ns3:hr>125</ns3:hr>
          </ns3:TrackPointExtension>
        </extensions>
      </trkpt>
      <trkpt lat="-22.1181384287774562835693359375" lon="166.4591378532350063323974609375">
        <ele>304.79998779296875</ele>
        <time>2016-08-12T23:13:31.000Z</time>
        <extensions>
          <ns3:TrackPointExtension>
            <ns3:atemp>24.0</ns3:atemp>
            <ns3:hr>124</ns3:hr>
          </ns3:TrackPointExtension>
        </extensions>
      </trkpt>
      <trkpt lat="-22.11814530193805694580078125" lon="166.4591080136597156524658203125">
        <ele>305</ele>
        <time>2016-08-12T23:13:32.000Z</time>
        <extensions>
          <ns3:TrackPointExtension>
            <ns3:atemp>24.0</ns3:atemp>
            <ns3:hr>123</ns3:hr>
          </ns3:TrackPointExtension>
        </extensions>
      </trkpt>
      <trkpt lat="-22.11815242655575275421142578125" lon="166.459077335894107818603515625">
        <ele>304.79998779296875</ele>
        <time>2016-08-12T23:13:33.000Z</time>
        <extensions>
          <ns3:TrackPointExtension>
            <ns3:atemp>24.0</ns3:atemp>
            <ns3:hr>123</ns3:hr>
          </ns3:TrackPointExtension>
        </extensions>
      </trkpt>
      <trkpt lat="-22.1181649155914783477783203125" lon="166.459051854908466339111328125">
        <ele>304.79998779296875</ele>
        <time>2016-08-12T23:13:34.000Z</time>
        <extensions>
          <ns3:TrackPointExtension>
            <ns3:atemp>24.0</ns3:atemp>
            <ns3:hr>123</ns3:hr>
          </ns3:TrackPointExtension>
        </extensions>
      </trkpt>
      <trkpt lat="-22.11818017065525054931640625" lon="166.45902897231280803680419921875">
        <ele>304.399993896484375</ele>
        <time>2016-08-12T23:13:35.000Z</time>
        <extensions>
          <ns3:TrackPointExtension>
            <ns3:atemp>24.0</ns3:atemp>
            <ns3:hr>124</ns3:hr>
          </ns3:TrackPointExtension>
        </extensions>
      </trkpt>
      <trkpt lat="-22.11819626390933990478515625" lon="166.45900466479361057281494140625">
        <ele>304.600006103515625</ele>
        <time>2016-08-12T23:13:36.000Z</time>
        <extensions>
          <ns3:TrackPointExtension>
            <ns3:atemp>24.0</ns3:atemp>
            <ns3:hr>124</ns3:hr>
          </ns3:TrackPointExtension>
        </extensions>
      </trkpt>
      <trkpt lat="-22.1182188950479030609130859375" lon="166.4589853025972843170166015625">
        <ele>304.399993896484375</ele>
        <time>2016-08-12T23:13:37.000Z</time>
        <extensions>
          <ns3:TrackPointExtension>
            <ns3:atemp>24.0</ns3:atemp>
            <ns3:hr>125</ns3:hr>
          </ns3:TrackPointExtension>
        </extensions>
      </trkpt>
      <trkpt lat="-22.11823624558746814727783203125" lon="166.4589658565819263458251953125">
        <ele>304</ele>
        <time>2016-08-12T23:13:38.000Z</time>
        <extensions>
          <ns3:TrackPointExtension>
            <ns3:atemp>24.0</ns3:atemp>
            <ns3:hr>125</ns3:hr>
          </ns3:TrackPointExtension>
        </extensions>
      </trkpt>
      <trkpt lat="-22.11826574988663196563720703125" lon="166.45895521156489849090576171875">
        <ele>303.79998779296875</ele>
        <time>2016-08-12T23:13:39.000Z</time>
        <extensions>
          <ns3:TrackPointExtension>
            <ns3:atemp>24.0</ns3:atemp>
            <ns3:hr>126</ns3:hr>
          </ns3:TrackPointExtension>
        </extensions>
      </trkpt>
      <trkpt lat="-22.11828955449163913726806640625" lon="166.458940207958221435546875">
        <ele>304</ele>
        <time>2016-08-12T23:13:40.000Z</time>
        <extensions>
          <ns3:TrackPointExtension>
            <ns3:atemp>24.0</ns3:atemp>
            <ns3:hr>126</ns3:hr>
          </ns3:TrackPointExtension>
        </extensions>
      </trkpt>
      <trkpt lat="-22.11831185035407543182373046875" lon="166.458924449980258941650390625">
        <ele>304</ele>
        <time>2016-08-12T23:13:41.000Z</time>
        <extensions>
          <ns3:TrackPointExtension>
            <ns3:atemp>24.0</ns3:atemp>
            <ns3:hr>127</ns3:hr>
          </ns3:TrackPointExtension>
        </extensions>
      </trkpt>
      <trkpt lat="-22.118332050740718841552734375" lon="166.458908356726169586181640625">
        <ele>303.600006103515625</ele>
        <time>2016-08-12T23:13:42.000Z</time>
        <extensions>
          <ns3:TrackPointExtension>
            <ns3:atemp>24.0</ns3:atemp>
            <ns3:hr>127</ns3:hr>
          </ns3:TrackPointExtension>
        </extensions>
      </trkpt>
      <trkpt lat="-22.11835292167961597442626953125" lon="166.4588944427669048309326171875">
        <ele>303.600006103515625</ele>
        <time>2016-08-12T23:13:43.000Z</time>
        <extensions>
          <ns3:TrackPointExtension>
            <ns3:atemp>24.0</ns3:atemp>
            <ns3:hr>127</ns3:hr>
          </ns3:TrackPointExtension>
        </extensions>
      </trkpt>
      <trkpt lat="-22.11837186478078365325927734375" lon="166.4588820375502109527587890625">
        <ele>303.399993896484375</ele>
        <time>2016-08-12T23:13:44.000Z</time>
        <extensions>
          <ns3:TrackPointExtension>
            <ns3:atemp>24.0</ns3:atemp>
            <ns3:hr>128</ns3:hr>
          </ns3:TrackPointExtension>
        </extensions>
      </trkpt>
      <trkpt lat="-22.11840271018445491790771484375" lon="166.45887373946607112884521484375">
        <ele>303</ele>
        <time>2016-08-12T23:13:45.000Z</time>
        <extensions>
          <ns3:TrackPointExtension>
            <ns3:atemp>24.0</ns3:atemp>
            <ns3:hr>128</ns3:hr>
          </ns3:TrackPointExtension>
        </extensions>
      </trkpt>
      <trkpt lat="-22.118426263332366943359375" lon="166.45886166952550411224365234375">
        <ele>302.79998779296875</ele>
        <time>2016-08-12T23:13:46.000Z</time>
        <extensions>
          <ns3:TrackPointExtension>
            <ns3:atemp>24.0</ns3:atemp>
            <ns3:hr>128</ns3:hr>
          </ns3:TrackPointExtension>
        </extensions>
      </trkpt>
      <trkpt lat="-22.11844076402485370635986328125" lon="166.4588475041091442108154296875">
        <ele>302.600006103515625</ele>
        <time>2016-08-12T23:13:47.000Z</time>
        <extensions>
          <ns3:TrackPointExtension>
            <ns3:atemp>24.0</ns3:atemp>
            <ns3:hr>128</ns3:hr>
          </ns3:TrackPointExtension>
        </extensions>
      </trkpt>
      <trkpt lat="-22.11845166049897670745849609375" lon="166.45883090794086456298828125">
        <ele>302.20001220703125</ele>
        <time>2016-08-12T23:13:48.000Z</time>
        <extensions>
          <ns3:TrackPointExtension>
            <ns3:atemp>24.0</ns3:atemp>
            <ns3:hr>128</ns3:hr>
          </ns3:TrackPointExtension>
        </extensions>
      </trkpt>
      <trkpt lat="-22.1184619702398777008056640625" lon="166.4588128030300140380859375">
        <ele>302</ele>
        <time>2016-08-12T23:13:49.000Z</time>
        <extensions>
          <ns3:TrackPointExtension>
            <ns3:atemp>24.0</ns3:atemp>
            <ns3:hr>128</ns3:hr>
          </ns3:TrackPointExtension>
        </extensions>
      </trkpt>
      <trkpt lat="-22.11847387254238128662109375" lon="166.4587913453578948974609375">
        <ele>302</ele>
        <time>2016-08-12T23:13:50.000Z</time>
        <extensions>
          <ns3:TrackPointExtension>
            <ns3:atemp>24.0</ns3:atemp>
            <ns3:hr>129</ns3:hr>
          </ns3:TrackPointExtension>
        </extensions>
      </trkpt>
      <trkpt lat="-22.11849608458578586578369140625" lon="166.4587752521038055419921875">
        <ele>301.79998779296875</ele>
        <time>2016-08-12T23:13:51.000Z</time>
        <extensions>
          <ns3:TrackPointExtension>
            <ns3:atemp>24.0</ns3:atemp>
            <ns3:hr>128</ns3:hr>
          </ns3:TrackPointExtension>
        </extensions>
      </trkpt>
      <trkpt lat="-22.11850580759346485137939453125" lon="166.45875287242233753204345703125">
        <ele>301.600006103515625</ele>
        <time>2016-08-12T23:13:52.000Z</time>
        <extensions>
          <ns3:TrackPointExtension>
            <ns3:atemp>24.0</ns3:atemp>
            <ns3:hr>128</ns3:hr>
          </ns3:TrackPointExtension>
        </extensions>
      </trkpt>
      <trkpt lat="-22.11851536296308040618896484375" lon="166.4587274752557277679443359375">
        <ele>301.399993896484375</ele>
        <time>2016-08-12T23:13:53.000Z</time>
        <extensions>
          <ns3:TrackPointExtension>
            <ns3:atemp>24.0</ns3:atemp>
            <ns3:hr>128</ns3:hr>
          </ns3:TrackPointExtension>
        </extensions>
      </trkpt>
      <trkpt lat="-22.1185307018458843231201171875" lon="166.4587056823074817657470703125">
        <ele>301</ele>
        <time>2016-08-12T23:13:54.000Z</time>
        <extensions>
          <ns3:TrackPointExtension>
            <ns3:atemp>24.0</ns3:atemp>
            <ns3:hr>128</ns3:hr>
          </ns3:TrackPointExtension>
        </extensions>
      </trkpt>
      <trkpt lat="-22.1185434423387050628662109375" lon="166.45868606865406036376953125">
        <ele>300.79998779296875</ele>
        <time>2016-08-12T23:13:55.000Z</time>
        <extensions>
          <ns3:TrackPointExtension>
            <ns3:atemp>24.0</ns3:atemp>
            <ns3:hr>128</ns3:hr>
          </ns3:TrackPointExtension>
        </extensions>
      </trkpt>
      <trkpt lat="-22.11856431327760219573974609375" lon="166.45866804756224155426025390625">
        <ele>300.399993896484375</ele>
        <time>2016-08-12T23:13:56.000Z</time>
        <extensions>
          <ns3:TrackPointExtension>
            <ns3:atemp>24.0</ns3:atemp>
            <ns3:hr>128</ns3:hr>
          </ns3:TrackPointExtension>
        </extensions>
      </trkpt>
      <trkpt lat="-22.11857311427593231201171875" lon="166.45864273421466350555419921875">
        <ele>300.399993896484375</ele>
        <time>2016-08-12T23:13:57.000Z</time>
        <extensions>
          <ns3:TrackPointExtension>
            <ns3:atemp>24.0</ns3:atemp>
            <ns3:hr>128</ns3:hr>
          </ns3:TrackPointExtension>
        </extensions>
      </trkpt>
      <trkpt lat="-22.1185920573770999908447265625" lon="166.45862228237092494964599609375">
        <ele>300.20001220703125</ele>
        <time>2016-08-12T23:13:58.000Z</time>
        <extensions>
          <ns3:TrackPointExtension>
            <ns3:atemp>24.0</ns3:atemp>
            <ns3:hr>128</ns3:hr>
          </ns3:TrackPointExtension>
        </extensions>
      </trkpt>
      <trkpt lat="-22.11861125193536281585693359375" lon="166.4586050994694232940673828125">
        <ele>299.79998779296875</ele>
        <time>2016-08-12T23:13:59.000Z</time>
        <extensions>
          <ns3:TrackPointExtension>
            <ns3:atemp>24.0</ns3:atemp>
            <ns3:hr>128</ns3:hr>
          </ns3:TrackPointExtension>
        </extensions>
      </trkpt>
      <trkpt lat="-22.11862516589462757110595703125" lon="166.45858087576925754547119140625">
        <ele>299.79998779296875</ele>
        <time>2016-08-12T23:14:00.000Z</time>
        <extensions>
          <ns3:TrackPointExtension>
            <ns3:atemp>24.0</ns3:atemp>
            <ns3:hr>129</ns3:hr>
          </ns3:TrackPointExtension>
        </extensions>
      </trkpt>
      <trkpt lat="-22.1186359785497188568115234375" lon="166.458552293479442596435546875">
        <ele>299.600006103515625</ele>
        <time>2016-08-12T23:14:01.000Z</time>
        <extensions>
          <ns3:TrackPointExtension>
            <ns3:atemp>24.0</ns3:atemp>
            <ns3:hr>128</ns3:hr>
          </ns3:TrackPointExtension>
        </extensions>
      </trkpt>
      <trkpt lat="-22.1186477132141590118408203125" lon="166.4585258066654205322265625">
        <ele>299.20001220703125</ele>
        <time>2016-08-12T23:14:02.000Z</time>
        <extensions>
          <ns3:TrackPointExtension>
            <ns3:atemp>24.0</ns3:atemp>
            <ns3:hr>128</ns3:hr>
          </ns3:TrackPointExtension>
        </extensions>
      </trkpt>
      <trkpt lat="-22.11865986697375774383544921875" lon="166.45849965512752532958984375">
        <ele>299</ele>
        <time>2016-08-12T23:14:03.000Z</time>
        <extensions>
          <ns3:TrackPointExtension>
            <ns3:atemp>24.0</ns3:atemp>
            <ns3:hr>128</ns3:hr>
          </ns3:TrackPointExtension>
        </extensions>
      </trkpt>
      <trkpt lat="-22.118661962449550628662109375" lon="166.45846470259130001068115234375">
        <ele>298.79998779296875</ele>
        <time>2016-08-12T23:14:04.000Z</time>
        <extensions>
          <ns3:TrackPointExtension>
            <ns3:atemp>24.0</ns3:atemp>
            <ns3:hr>128</ns3:hr>
          </ns3:TrackPointExtension>
        </extensions>
      </trkpt>
      <trkpt lat="-22.118680737912654876708984375" lon="166.458434946835041046142578125">
        <ele>298.600006103515625</ele>
        <time>2016-08-12T23:14:05.000Z</time>
        <extensions>
          <ns3:TrackPointExtension>
            <ns3:atemp>24.0</ns3:atemp>
            <ns3:hr>129</ns3:hr>
          </ns3:TrackPointExtension>
        </extensions>
      </trkpt>
      <trkpt lat="-22.1186926402151584625244140625" lon="166.45840980112552642822265625">
        <ele>298.399993896484375</ele>
        <time>2016-08-12T23:14:06.000Z</time>
        <extensions>
          <ns3:TrackPointExtension>
            <ns3:atemp>24.0</ns3:atemp>
            <ns3:hr>129</ns3:hr>
          </ns3:TrackPointExtension>
        </extensions>
      </trkpt>
      <trkpt lat="-22.1187060512602329254150390625" lon="166.45838373340666294097900390625">
        <ele>298.20001220703125</ele>
        <time>2016-08-12T23:14:07.000Z</time>
        <extensions>
          <ns3:TrackPointExtension>
            <ns3:atemp>24.0</ns3:atemp>
            <ns3:hr>129</ns3:hr>
          </ns3:TrackPointExtension>
        </extensions>
      </trkpt>
      <trkpt lat="-22.1187191270291805267333984375" lon="166.458354480564594268798828125">
        <ele>298</ele>
        <time>2016-08-12T23:14:08.000Z</time>
        <extensions>
          <ns3:TrackPointExtension>
            <ns3:atemp>24.0</ns3:atemp>
            <ns3:hr>129</ns3:hr>
          </ns3:TrackPointExtension>
        </extensions>
      </trkpt>
      <trkpt lat="-22.118730358779430389404296875" lon="166.45832740701735019683837890625">
        <ele>297.79998779296875</ele>
        <time>2016-08-12T23:14:09.000Z</time>
        <extensions>
          <ns3:TrackPointExtension>
            <ns3:atemp>24.0</ns3:atemp>
            <ns3:hr>129</ns3:hr>
          </ns3:TrackPointExtension>
        </extensions>
      </trkpt>
      <trkpt lat="-22.11874519474804401397705078125" lon="166.45829907618463039398193359375">
        <ele>297.600006103515625</ele>
        <time>2016-08-12T23:14:10.000Z</time>
        <extensions>
          <ns3:TrackPointExtension>
            <ns3:atemp>24.0</ns3:atemp>
            <ns3:hr>129</ns3:hr>
          </ns3:TrackPointExtension>
        </extensions>
      </trkpt>
      <trkpt lat="-22.11875776760280132293701171875" lon="166.45827007479965686798095703125">
        <ele>297.600006103515625</ele>
        <time>2016-08-12T23:14:11.000Z</time>
        <extensions>
          <ns3:TrackPointExtension>
            <ns3:atemp>24.0</ns3:atemp>
            <ns3:hr>129</ns3:hr>
          </ns3:TrackPointExtension>
        </extensions>
      </trkpt>
      <trkpt lat="-22.1187762916088104248046875" lon="166.45824761129915714263916015625">
        <ele>297</ele>
        <time>2016-08-12T23:14:12.000Z</time>
        <extensions>
          <ns3:TrackPointExtension>
            <ns3:atemp>24.0</ns3:atemp>
            <ns3:hr>129</ns3:hr>
          </ns3:TrackPointExtension>
        </extensions>
      </trkpt>
      <trkpt lat="-22.11879707872867584228515625" lon="166.458229087293148040771484375">
        <ele>296.79998779296875</ele>
        <time>2016-08-12T23:14:13.000Z</time>
        <extensions>
          <ns3:TrackPointExtension>
            <ns3:atemp>24.0</ns3:atemp>
            <ns3:hr>129</ns3:hr>
          </ns3:TrackPointExtension>
        </extensions>
      </trkpt>
      <trkpt lat="-22.118814848363399505615234375" lon="166.4582051150500774383544921875">
        <ele>296.79998779296875</ele>
        <time>2016-08-12T23:14:14.000Z</time>
        <extensions>
          <ns3:TrackPointExtension>
            <ns3:atemp>24.0</ns3:atemp>
            <ns3:hr>129</ns3:hr>
          </ns3:TrackPointExtension>
        </extensions>
      </trkpt>
      <trkpt lat="-22.1188250742852687835693359375" lon="166.4581776224076747894287109375">
        <ele>296.600006103515625</ele>
        <time>2016-08-12T23:14:15.000Z</time>
        <extensions>
          <ns3:TrackPointExtension>
            <ns3:atemp>24.0</ns3:atemp>
            <ns3:hr>129</ns3:hr>
          </ns3:TrackPointExtension>
        </extensions>
      </trkpt>
      <trkpt lat="-22.1188366413116455078125" lon="166.45815390162169933319091796875">
        <ele>296.399993896484375</ele>
        <time>2016-08-12T23:14:16.000Z</time>
        <extensions>
          <ns3:TrackPointExtension>
            <ns3:atemp>24.0</ns3:atemp>
            <ns3:hr>128</ns3:hr>
          </ns3:TrackPointExtension>
        </extensions>
      </trkpt>
      <trkpt lat="-22.11884963326156139373779296875" lon="166.45813093520700931549072265625">
        <ele>296.20001220703125</ele>
        <time>2016-08-12T23:14:17.000Z</time>
        <extensions>
          <ns3:TrackPointExtension>
            <ns3:atemp>24.0</ns3:atemp>
            <ns3:hr>129</ns3:hr>
          </ns3:TrackPointExtension>
        </extensions>
      </trkpt>
      <trkpt lat="-22.118858434259891510009765625" lon="166.458103023469448089599609375">
        <ele>296</ele>
        <time>2016-08-12T23:14:18.000Z</time>
        <extensions>
          <ns3:TrackPointExtension>
            <ns3:atemp>24.0</ns3:atemp>
            <ns3:hr>128</ns3:hr>
          </ns3:TrackPointExtension>
        </extensions>
      </trkpt>
      <trkpt lat="-22.118866480886936187744140625" lon="166.45807511173188686370849609375">
        <ele>295.79998779296875</ele>
        <time>2016-08-12T23:14:19.000Z</time>
        <extensions>
          <ns3:TrackPointExtension>
            <ns3:atemp>24.0</ns3:atemp>
            <ns3:hr>129</ns3:hr>
          </ns3:TrackPointExtension>
        </extensions>
      </trkpt>
      <trkpt lat="-22.11887880228459835052490234375" lon="166.4580510556697845458984375">
        <ele>295.600006103515625</ele>
        <time>2016-08-12T23:14:20.000Z</time>
        <extensions>
          <ns3:TrackPointExtension>
            <ns3:atemp>24.0</ns3:atemp>
            <ns3:hr>128</ns3:hr>
          </ns3:TrackPointExtension>
        </extensions>
      </trkpt>
      <trkpt lat="-22.118883244693279266357421875" lon="166.4580215513706207275390625">
        <ele>295.600006103515625</ele>
        <time>2016-08-12T23:14:21.000Z</time>
        <extensions>
          <ns3:TrackPointExtension>
            <ns3:atemp>24.0</ns3:atemp>
            <ns3:hr>129</ns3:hr>
          </ns3:TrackPointExtension>
        </extensions>
      </trkpt>
      <trkpt lat="-22.1188943088054656982421875" lon="166.45799808204174041748046875">
        <ele>295.399993896484375</ele>
        <time>2016-08-12T23:14:22.000Z</time>
        <extensions>
          <ns3:TrackPointExtension>
            <ns3:atemp>24.0</ns3:atemp>
            <ns3:hr>128</ns3:hr>
          </ns3:TrackPointExtension>
        </extensions>
      </trkpt>
      <trkpt lat="-22.118902020156383514404296875" lon="166.45797201432287693023681640625">
        <ele>295.20001220703125</ele>
        <time>2016-08-12T23:14:23.000Z</time>
        <extensions>
          <ns3:TrackPointExtension>
            <ns3:atemp>24.0</ns3:atemp>
            <ns3:hr>129</ns3:hr>
          </ns3:TrackPointExtension>
        </extensions>
      </trkpt>
      <trkpt lat="-22.118900008499622344970703125" lon="166.4579412527382373809814453125">
        <ele>295</ele>
        <time>2016-08-12T23:14:24.000Z</time>
        <extensions>
          <ns3:TrackPointExtension>
            <ns3:atemp>24.0</ns3:atemp>
            <ns3:hr>129</ns3:hr>
          </ns3:TrackPointExtension>
        </extensions>
      </trkpt>
      <trkpt lat="-22.11890629492700099945068359375" lon="166.4579151012003421783447265625">
        <ele>294.79998779296875</ele>
        <time>2016-08-12T23:14:25.000Z</time>
        <extensions>
          <ns3:TrackPointExtension>
            <ns3:atemp>24.0</ns3:atemp>
            <ns3:hr>129</ns3:hr>
          </ns3:TrackPointExtension>
        </extensions>
      </trkpt>
      <trkpt lat="-22.11890193633735179901123046875" lon="166.45787981338798999786376953125">
        <ele>294.20001220703125</ele>
        <time>2016-08-12T23:14:26.000Z</time>
        <extensions>
          <ns3:TrackPointExtension>
            <ns3:atemp>24.0</ns3:atemp>
            <ns3:hr>129</ns3:hr>
          </ns3:TrackPointExtension>
        </extensions>
      </trkpt>
      <trkpt lat="-22.11890746839344501495361328125" lon="166.457849554717540740966796875">
        <ele>294</ele>
        <time>2016-08-12T23:14:27.000Z</time>
        <extensions>
          <ns3:TrackPointExtension>
            <ns3:atemp>24.0</ns3:atemp>
            <ns3:hr>129</ns3:hr>
          </ns3:TrackPointExtension>
        </extensions>
      </trkpt>
      <trkpt lat="-22.11892138235270977020263671875" lon="166.45782499574124813079833984375">
        <ele>294</ele>
        <time>2016-08-12T23:14:28.000Z</time>
        <extensions>
          <ns3:TrackPointExtension>
            <ns3:atemp>24.0</ns3:atemp>
            <ns3:hr>129</ns3:hr>
          </ns3:TrackPointExtension>
        </extensions>
      </trkpt>
      <trkpt lat="-22.11893462575972080230712890625" lon="166.4578017778694629669189453125">
        <ele>293.600006103515625</ele>
        <time>2016-08-12T23:14:29.000Z</time>
        <extensions>
          <ns3:TrackPointExtension>
            <ns3:atemp>24.0</ns3:atemp>
            <ns3:hr>129</ns3:hr>
          </ns3:TrackPointExtension>
        </extensions>
      </trkpt>
      <trkpt lat="-22.118946276605129241943359375" lon="166.4577793143689632415771484375">
        <ele>293.600006103515625</ele>
        <time>2016-08-12T23:14:30.000Z</time>
        <extensions>
          <ns3:TrackPointExtension>
            <ns3:atemp>24.0</ns3:atemp>
            <ns3:hr>129</ns3:hr>
          </ns3:TrackPointExtension>
        </extensions>
      </trkpt>
      <trkpt lat="-22.11896144784986972808837890625" lon="166.4577598683536052703857421875">
        <ele>293.600006103515625</ele>
        <time>2016-08-12T23:14:31.000Z</time>
        <extensions>
          <ns3:TrackPointExtension>
            <ns3:atemp>24.0</ns3:atemp>
            <ns3:hr>130</ns3:hr>
          </ns3:TrackPointExtension>
        </extensions>
      </trkpt>
      <trkpt lat="-22.11897720582783222198486328125" lon="166.4577390812337398529052734375">
        <ele>293.399993896484375</ele>
        <time>2016-08-12T23:14:32.000Z</time>
        <extensions>
          <ns3:TrackPointExtension>
            <ns3:atemp>24.0</ns3:atemp>
            <ns3:hr>129</ns3:hr>
          </ns3:TrackPointExtension>
        </extensions>
      </trkpt>
      <trkpt lat="-22.11899061687290668487548828125" lon="166.457714773714542388916015625">
        <ele>293.20001220703125</ele>
        <time>2016-08-12T23:14:33.000Z</time>
        <extensions>
          <ns3:TrackPointExtension>
            <ns3:atemp>24.0</ns3:atemp>
            <ns3:hr>129</ns3:hr>
          </ns3:TrackPointExtension>
        </extensions>
      </trkpt>
      <trkpt lat="-22.11899296380579471588134765625" lon="166.457686610519886016845703125">
        <ele>293.20001220703125</ele>
        <time>2016-08-12T23:14:34.000Z</time>
        <extensions>
          <ns3:TrackPointExtension>
            <ns3:atemp>24.0</ns3:atemp>
            <ns3:hr>130</ns3:hr>
          </ns3:TrackPointExtension>
        </extensions>
      </trkpt>
      <trkpt lat="-22.1190047822892665863037109375" lon="166.45766146481037139892578125">
        <ele>293</ele>
        <time>2016-08-12T23:14:35.000Z</time>
        <extensions>
          <ns3:TrackPointExtension>
            <ns3:atemp>24.0</ns3:atemp>
            <ns3:hr>130</ns3:hr>
          </ns3:TrackPointExtension>
        </extensions>
      </trkpt>
      <trkpt lat="-22.1190158464014530181884765625" lon="166.457636989653110504150390625">
        <ele>292.79998779296875</ele>
        <time>2016-08-12T23:14:36.000Z</time>
        <extensions>
          <ns3:TrackPointExtension>
            <ns3:atemp>24.0</ns3:atemp>
            <ns3:hr>129</ns3:hr>
          </ns3:TrackPointExtension>
        </extensions>
      </trkpt>
      <trkpt lat="-22.119024060666561126708984375" lon="166.45761050283908843994140625">
        <ele>292.399993896484375</ele>
        <time>2016-08-12T23:14:37.000Z</time>
        <extensions>
          <ns3:TrackPointExtension>
            <ns3:atemp>24.0</ns3:atemp>
            <ns3:hr>129</ns3:hr>
          </ns3:TrackPointExtension>
        </extensions>
      </trkpt>
      <trkpt lat="-22.119038812816143035888671875" lon="166.457588039338588714599609375">
        <ele>292.20001220703125</ele>
        <time>2016-08-12T23:14:38.000Z</time>
        <extensions>
          <ns3:TrackPointExtension>
            <ns3:atemp>24.0</ns3:atemp>
            <ns3:hr>129</ns3:hr>
          </ns3:TrackPointExtension>
        </extensions>
      </trkpt>
      <trkpt lat="-22.119047529995441436767578125" lon="166.45756448619067668914794921875">
        <ele>292</ele>
        <time>2016-08-12T23:14:39.000Z</time>
        <extensions>
          <ns3:TrackPointExtension>
            <ns3:atemp>24.0</ns3:atemp>
            <ns3:hr>129</ns3:hr>
          </ns3:TrackPointExtension>
        </extensions>
      </trkpt>
      <trkpt lat="-22.119063623249530792236328125" lon="166.45754068158566951751708984375">
        <ele>292</ele>
        <time>2016-08-12T23:14:40.000Z</time>
        <extensions>
          <ns3:TrackPointExtension>
            <ns3:atemp>24.0</ns3:atemp>
            <ns3:hr>129</ns3:hr>
          </ns3:TrackPointExtension>
        </extensions>
      </trkpt>
      <trkpt lat="-22.11908265016973018646240234375" lon="166.457518972456455230712890625">
        <ele>291.79998779296875</ele>
        <time>2016-08-12T23:14:41.000Z</time>
        <extensions>
          <ns3:TrackPointExtension>
            <ns3:atemp>24.0</ns3:atemp>
            <ns3:hr>130</ns3:hr>
          </ns3:TrackPointExtension>
        </extensions>
      </trkpt>
      <trkpt lat="-22.11909539066255092620849609375" lon="166.4574923180043697357177734375">
        <ele>291.20001220703125</ele>
        <time>2016-08-12T23:14:42.000Z</time>
        <extensions>
          <ns3:TrackPointExtension>
            <ns3:atemp>24.0</ns3:atemp>
            <ns3:hr>130</ns3:hr>
          </ns3:TrackPointExtension>
        </extensions>
      </trkpt>
      <trkpt lat="-22.11911089718341827392578125" lon="166.45747127942740917205810546875">
        <ele>291</ele>
        <time>2016-08-12T23:14:43.000Z</time>
        <extensions>
          <ns3:TrackPointExtension>
            <ns3:atemp>24.0</ns3:atemp>
            <ns3:hr>130</ns3:hr>
          </ns3:TrackPointExtension>
        </extensions>
      </trkpt>
      <trkpt lat="-22.11912053637206554412841796875" lon="166.4574490673840045928955078125">
        <ele>290.79998779296875</ele>
        <time>2016-08-12T23:14:44.000Z</time>
        <extensions>
          <ns3:TrackPointExtension>
            <ns3:atemp>24.0</ns3:atemp>
            <ns3:hr>130</ns3:hr>
          </ns3:TrackPointExtension>
        </extensions>
      </trkpt>
      <trkpt lat="-22.11912967264652252197265625" lon="166.4574245922267436981201171875">
        <ele>290.399993896484375</ele>
        <time>2016-08-12T23:14:45.000Z</time>
        <extensions>
          <ns3:TrackPointExtension>
            <ns3:atemp>24.0</ns3:atemp>
            <ns3:hr>130</ns3:hr>
          </ns3:TrackPointExtension>
        </extensions>
      </trkpt>
      <trkpt lat="-22.1191419102251529693603515625" lon="166.4573992788791656494140625">
        <ele>290.399993896484375</ele>
        <time>2016-08-12T23:14:46.000Z</time>
        <extensions>
          <ns3:TrackPointExtension>
            <ns3:atemp>24.0</ns3:atemp>
            <ns3:hr>130</ns3:hr>
          </ns3:TrackPointExtension>
        </extensions>
      </trkpt>
      <trkpt lat="-22.1191549859941005706787109375" lon="166.45737438462674617767333984375">
        <ele>290.399993896484375</ele>
        <time>2016-08-12T23:14:47.000Z</time>
        <extensions>
          <ns3:TrackPointExtension>
            <ns3:atemp>24.0</ns3:atemp>
            <ns3:hr>130</ns3:hr>
          </ns3:TrackPointExtension>
        </extensions>
      </trkpt>
      <trkpt lat="-22.11916328407824039459228515625" lon="166.45734764635562896728515625">
        <ele>290.399993896484375</ele>
        <time>2016-08-12T23:14:48.000Z</time>
        <extensions>
          <ns3:TrackPointExtension>
            <ns3:atemp>24.0</ns3:atemp>
            <ns3:hr>129</ns3:hr>
          </ns3:TrackPointExtension>
        </extensions>
      </trkpt>
      <trkpt lat="-22.1191677264869213104248046875" lon="166.45731705240905284881591796875">
        <ele>290.20001220703125</ele>
        <time>2016-08-12T23:14:49.000Z</time>
        <extensions>
          <ns3:TrackPointExtension>
            <ns3:atemp>24.0</ns3:atemp>
            <ns3:hr>129</ns3:hr>
          </ns3:TrackPointExtension>
        </extensions>
      </trkpt>
      <trkpt lat="-22.1191705763339996337890625" lon="166.4572847820818424224853515625">
        <ele>290.20001220703125</ele>
        <time>2016-08-12T23:14:50.000Z</time>
        <extensions>
          <ns3:TrackPointExtension>
            <ns3:atemp>24.0</ns3:atemp>
            <ns3:hr>130</ns3:hr>
          </ns3:TrackPointExtension>
        </extensions>
      </trkpt>
      <trkpt lat="-22.11916479282081127166748046875" lon="166.45725267939269542694091796875">
        <ele>290</ele>
        <time>2016-08-12T23:14:51.000Z</time>
        <extensions>
          <ns3:TrackPointExtension>
            <ns3:atemp>24.0</ns3:atemp>
            <ns3:hr>130</ns3:hr>
          </ns3:TrackPointExtension>
        </extensions>
      </trkpt>
      <trkpt lat="-22.11915506981313228607177734375" lon="166.457221917808055877685546875">
        <ele>289.79998779296875</ele>
        <time>2016-08-12T23:14:52.000Z</time>
        <extensions>
          <ns3:TrackPointExtension>
            <ns3:atemp>24.0</ns3:atemp>
            <ns3:hr>129</ns3:hr>
          </ns3:TrackPointExtension>
        </extensions>
      </trkpt>
      <trkpt lat="-22.1191462688148021697998046875" lon="166.45719534717500209808349609375">
        <ele>289.600006103515625</ele>
        <time>2016-08-12T23:14:53.000Z</time>
        <extensions>
          <ns3:TrackPointExtension>
            <ns3:atemp>24.0</ns3:atemp>
            <ns3:hr>129</ns3:hr>
          </ns3:TrackPointExtension>
        </extensions>
      </trkpt>
      <trkpt lat="-22.11913646198809146881103515625" lon="166.45717062056064605712890625">
        <ele>289.399993896484375</ele>
        <time>2016-08-12T23:14:54.000Z</time>
        <extensions>
          <ns3:TrackPointExtension>
            <ns3:atemp>24.0</ns3:atemp>
            <ns3:hr>129</ns3:hr>
          </ns3:TrackPointExtension>
        </extensions>
      </trkpt>
      <trkpt lat="-22.1191181056201457977294921875" lon="166.45714689977467060089111328125">
        <ele>289.20001220703125</ele>
        <time>2016-08-12T23:14:55.000Z</time>
        <extensions>
          <ns3:TrackPointExtension>
            <ns3:atemp>24.0</ns3:atemp>
            <ns3:hr>129</ns3:hr>
          </ns3:TrackPointExtension>
        </extensions>
      </trkpt>
      <trkpt lat="-22.11910125799477100372314453125" lon="166.457126028835773468017578125">
        <ele>289</ele>
        <time>2016-08-12T23:14:56.000Z</time>
        <extensions>
          <ns3:TrackPointExtension>
            <ns3:atemp>24.0</ns3:atemp>
            <ns3:hr>129</ns3:hr>
          </ns3:TrackPointExtension>
        </extensions>
      </trkpt>
      <trkpt lat="-22.11908273398876190185546875" lon="166.4571054093539714813232421875">
        <ele>288.79998779296875</ele>
        <time>2016-08-12T23:14:57.000Z</time>
        <extensions>
          <ns3:TrackPointExtension>
            <ns3:atemp>24.0</ns3:atemp>
            <ns3:hr>130</ns3:hr>
          </ns3:TrackPointExtension>
        </extensions>
      </trkpt>
      <trkpt lat="-22.1190651319921016693115234375" lon="166.457082442939281463623046875">
        <ele>288.399993896484375</ele>
        <time>2016-08-12T23:14:58.000Z</time>
        <extensions>
          <ns3:TrackPointExtension>
            <ns3:atemp>24.0</ns3:atemp>
            <ns3:hr>129</ns3:hr>
          </ns3:TrackPointExtension>
        </extensions>
      </trkpt>
      <trkpt lat="-22.119049541652202606201171875" lon="166.4570561237633228302001953125">
        <ele>288.20001220703125</ele>
        <time>2016-08-12T23:14:59.000Z</time>
        <extensions>
          <ns3:TrackPointExtension>
            <ns3:atemp>24.0</ns3:atemp>
            <ns3:hr>129</ns3:hr>
          </ns3:TrackPointExtension>
        </extensions>
      </trkpt>
      <trkpt lat="-22.119032442569732666015625" lon="166.45702888257801532745361328125">
        <ele>288</ele>
        <time>2016-08-12T23:15:00.000Z</time>
        <extensions>
          <ns3:TrackPointExtension>
            <ns3:atemp>24.0</ns3:atemp>
            <ns3:hr>129</ns3:hr>
          </ns3:TrackPointExtension>
        </extensions>
      </trkpt>
      <trkpt lat="-22.11901475675404071807861328125" lon="166.457004658877849578857421875">
        <ele>287.600006103515625</ele>
        <time>2016-08-12T23:15:01.000Z</time>
        <extensions>
          <ns3:TrackPointExtension>
            <ns3:atemp>24.0</ns3:atemp>
            <ns3:hr>129</ns3:hr>
          </ns3:TrackPointExtension>
        </extensions>
      </trkpt>
      <trkpt lat="-22.11900033988058567047119140625" lon="166.4569820277392864227294921875">
        <ele>287.399993896484375</ele>
        <time>2016-08-12T23:15:02.000Z</time>
        <extensions>
          <ns3:TrackPointExtension>
            <ns3:atemp>24.0</ns3:atemp>
            <ns3:hr>130</ns3:hr>
          </ns3:TrackPointExtension>
        </extensions>
      </trkpt>
      <trkpt lat="-22.11898189969360828399658203125" lon="166.456958390772342681884765625">
        <ele>287.399993896484375</ele>
        <time>2016-08-12T23:15:03.000Z</time>
        <extensions>
          <ns3:TrackPointExtension>
            <ns3:atemp>24.0</ns3:atemp>
            <ns3:hr>129</ns3:hr>
          </ns3:TrackPointExtension>
        </extensions>
      </trkpt>
      <trkpt lat="-22.11896874010562896728515625" lon="166.45693450234830379486083984375">
        <ele>287</ele>
        <time>2016-08-12T23:15:04.000Z</time>
        <extensions>
          <ns3:TrackPointExtension>
            <ns3:atemp>24.0</ns3:atemp>
            <ns3:hr>129</ns3:hr>
          </ns3:TrackPointExtension>
        </extensions>
      </trkpt>
      <trkpt lat="-22.1189524792134761810302734375" lon="166.45690902136266231536865234375">
        <ele>286.79998779296875</ele>
        <time>2016-08-12T23:15:05.000Z</time>
        <extensions>
          <ns3:TrackPointExtension>
            <ns3:atemp>24.0</ns3:atemp>
            <ns3:hr>130</ns3:hr>
          </ns3:TrackPointExtension>
        </extensions>
      </trkpt>
      <trkpt lat="-22.1189340390264987945556640625" lon="166.4568847976624965667724609375">
        <ele>286.600006103515625</ele>
        <time>2016-08-12T23:15:06.000Z</time>
        <extensions>
          <ns3:TrackPointExtension>
            <ns3:atemp>24.0</ns3:atemp>
            <ns3:hr>129</ns3:hr>
          </ns3:TrackPointExtension>
        </extensions>
      </trkpt>
      <trkpt lat="-22.118916101753711700439453125" lon="166.45686040632426738739013671875">
        <ele>286.399993896484375</ele>
        <time>2016-08-12T23:15:07.000Z</time>
        <extensions>
          <ns3:TrackPointExtension>
            <ns3:atemp>24.0</ns3:atemp>
            <ns3:hr>130</ns3:hr>
          </ns3:TrackPointExtension>
        </extensions>
      </trkpt>
      <trkpt lat="-22.118903696537017822265625" lon="166.4568345062434673309326171875">
        <ele>286.20001220703125</ele>
        <time>2016-08-12T23:15:08.000Z</time>
        <extensions>
          <ns3:TrackPointExtension>
            <ns3:atemp>24.0</ns3:atemp>
            <ns3:hr>130</ns3:hr>
          </ns3:TrackPointExtension>
        </extensions>
      </trkpt>
      <trkpt lat="-22.11888852529227733612060546875" lon="166.45681195892393589019775390625">
        <ele>286</ele>
        <time>2016-08-12T23:15:09.000Z</time>
        <extensions>
          <ns3:TrackPointExtension>
            <ns3:atemp>24.0</ns3:atemp>
            <ns3:hr>130</ns3:hr>
          </ns3:TrackPointExtension>
        </extensions>
      </trkpt>
      <trkpt lat="-22.11887846700847148895263671875" lon="166.4567848853766918182373046875">
        <ele>285.79998779296875</ele>
        <time>2016-08-12T23:15:10.000Z</time>
        <extensions>
          <ns3:TrackPointExtension>
            <ns3:atemp>24.0</ns3:atemp>
            <ns3:hr>130</ns3:hr>
          </ns3:TrackPointExtension>
        </extensions>
      </trkpt>
      <trkpt lat="-22.11886874400079250335693359375" lon="166.45675714127719402313232421875">
        <ele>285.20001220703125</ele>
        <time>2016-08-12T23:15:11.000Z</time>
        <extensions>
          <ns3:TrackPointExtension>
            <ns3:atemp>24.0</ns3:atemp>
            <ns3:hr>130</ns3:hr>
          </ns3:TrackPointExtension>
        </extensions>
      </trkpt>
      <trkpt lat="-22.11884091608226299285888671875" lon="166.4567262120544910430908203125">
        <ele>285.20001220703125</ele>
        <time>2016-08-12T23:15:12.000Z</time>
        <extensions>
          <ns3:TrackPointExtension>
            <ns3:atemp>24.0</ns3:atemp>
            <ns3:hr>130</ns3:hr>
          </ns3:TrackPointExtension>
        </extensions>
      </trkpt>
      <trkpt lat="-22.11883236654102802276611328125" lon="166.45669997669756412506103515625">
        <ele>285.399993896484375</ele>
        <time>2016-08-12T23:15:13.000Z</time>
        <extensions>
          <ns3:TrackPointExtension>
            <ns3:atemp>24.0</ns3:atemp>
            <ns3:hr>130</ns3:hr>
          </ns3:TrackPointExtension>
        </extensions>
      </trkpt>
      <trkpt lat="-22.11881258524954319000244140625" lon="166.45667047239840030670166015625">
        <ele>285.20001220703125</ele>
        <time>2016-08-12T23:15:14.000Z</time>
        <extensions>
          <ns3:TrackPointExtension>
            <ns3:atemp>24.0</ns3:atemp>
            <ns3:hr>130</ns3:hr>
          </ns3:TrackPointExtension>
        </extensions>
      </trkpt>
      <trkpt lat="-22.118800096213817596435546875" lon="166.456649266183376312255859375">
        <ele>285</ele>
        <time>2016-08-12T23:15:15.000Z</time>
        <extensions>
          <ns3:TrackPointExtension>
            <ns3:atemp>24.0</ns3:atemp>
            <ns3:hr>131</ns3:hr>
          </ns3:TrackPointExtension>
        </extensions>
      </trkpt>
      <trkpt lat="-22.1187977492809295654296875" lon="166.45662621594965457916259765625">
        <ele>284.79998779296875</ele>
        <time>2016-08-12T23:15:16.000Z</time>
        <extensions>
          <ns3:TrackPointExtension>
            <ns3:atemp>24.0</ns3:atemp>
            <ns3:hr>130</ns3:hr>
          </ns3:TrackPointExtension>
        </extensions>
      </trkpt>
      <trkpt lat="-22.11878811009228229522705078125" lon="166.4565951190888881683349609375">
        <ele>284.600006103515625</ele>
        <time>2016-08-12T23:15:17.000Z</time>
        <extensions>
          <ns3:TrackPointExtension>
            <ns3:atemp>24.0</ns3:atemp>
            <ns3:hr>130</ns3:hr>
          </ns3:TrackPointExtension>
        </extensions>
      </trkpt>
      <trkpt lat="-22.11877386085689067840576171875" lon="166.45657056011259555816650390625">
        <ele>284.399993896484375</ele>
        <time>2016-08-12T23:15:18.000Z</time>
        <extensions>
          <ns3:TrackPointExtension>
            <ns3:atemp>24.0</ns3:atemp>
            <ns3:hr>130</ns3:hr>
          </ns3:TrackPointExtension>
        </extensions>
      </trkpt>
      <trkpt lat="-22.11877754889428615570068359375" lon="166.45654139108955860137939453125">
        <ele>284.20001220703125</ele>
        <time>2016-08-12T23:15:19.000Z</time>
        <extensions>
          <ns3:TrackPointExtension>
            <ns3:atemp>24.0</ns3:atemp>
            <ns3:hr>130</ns3:hr>
          </ns3:TrackPointExtension>
        </extensions>
      </trkpt>
      <trkpt lat="-22.11877168156206607818603515625" lon="166.456510126590728759765625">
        <ele>284.20001220703125</ele>
        <time>2016-08-12T23:15:20.000Z</time>
        <extensions>
          <ns3:TrackPointExtension>
            <ns3:atemp>24.0</ns3:atemp>
            <ns3:hr>130</ns3:hr>
          </ns3:TrackPointExtension>
        </extensions>
      </trkpt>
      <trkpt lat="-22.11876195855438709259033203125" lon="166.45648489706218242645263671875">
        <ele>284</ele>
        <time>2016-08-12T23:15:21.000Z</time>
        <extensions>
          <ns3:TrackPointExtension>
            <ns3:atemp>24.0</ns3:atemp>
            <ns3:hr>130</ns3:hr>
          </ns3:TrackPointExtension>
        </extensions>
      </trkpt>
      <trkpt lat="-22.1187697537243366241455078125" lon="166.45646645687520503997802734375">
        <ele>284</ele>
        <time>2016-08-12T23:15:22.000Z</time>
        <extensions>
          <ns3:TrackPointExtension>
            <ns3:atemp>24.0</ns3:atemp>
            <ns3:hr>130</ns3:hr>
          </ns3:TrackPointExtension>
        </extensions>
      </trkpt>
      <trkpt lat="-22.11877293884754180908203125" lon="166.45644265227019786834716796875">
        <ele>283.79998779296875</ele>
        <time>2016-08-12T23:15:23.000Z</time>
        <extensions>
          <ns3:TrackPointExtension>
            <ns3:atemp>24.0</ns3:atemp>
            <ns3:hr>130</ns3:hr>
          </ns3:TrackPointExtension>
        </extensions>
      </trkpt>
      <trkpt lat="-22.1187811531126499176025390625" lon="166.4564227871596813201904296875">
        <ele>283.600006103515625</ele>
        <time>2016-08-12T23:15:24.000Z</time>
        <extensions>
          <ns3:TrackPointExtension>
            <ns3:atemp>24.0</ns3:atemp>
            <ns3:hr>130</ns3:hr>
          </ns3:TrackPointExtension>
        </extensions>
      </trkpt>
      <trkpt lat="-22.11878911592066287994384765625" lon="166.45640216767787933349609375">
        <ele>283.399993896484375</ele>
        <time>2016-08-12T23:15:25.000Z</time>
        <extensions>
          <ns3:TrackPointExtension>
            <ns3:atemp>24.0</ns3:atemp>
            <ns3:hr>130</ns3:hr>
          </ns3:TrackPointExtension>
        </extensions>
      </trkpt>
      <trkpt lat="-22.11879313923418521881103515625" lon="166.45638263784348964691162109375">
        <ele>283.399993896484375</ele>
        <time>2016-08-12T23:15:26.000Z</time>
        <extensions>
          <ns3:TrackPointExtension>
            <ns3:atemp>24.0</ns3:atemp>
            <ns3:hr>130</ns3:hr>
          </ns3:TrackPointExtension>
        </extensions>
      </trkpt>
      <trkpt lat="-22.1187948994338512420654296875" lon="166.4563574083149433135986328125">
        <ele>283</ele>
        <time>2016-08-12T23:15:27.000Z</time>
        <extensions>
          <ns3:TrackPointExtension>
            <ns3:atemp>24.0</ns3:atemp>
            <ns3:hr>130</ns3:hr>
          </ns3:TrackPointExtension>
        </extensions>
      </trkpt>
      <trkpt lat="-22.118808142840862274169921875" lon="166.456338129937648773193359375">
        <ele>282.79998779296875</ele>
        <time>2016-08-12T23:15:28.000Z</time>
        <extensions>
          <ns3:TrackPointExtension>
            <ns3:atemp>24.0</ns3:atemp>
            <ns3:hr>131</ns3:hr>
          </ns3:TrackPointExtension>
        </extensions>
      </trkpt>
      <trkpt lat="-22.11882247589528560638427734375" lon="166.456320025026798248291015625">
        <ele>282.600006103515625</ele>
        <time>2016-08-12T23:15:29.000Z</time>
        <extensions>
          <ns3:TrackPointExtension>
            <ns3:atemp>24.0</ns3:atemp>
            <ns3:hr>131</ns3:hr>
          </ns3:TrackPointExtension>
        </extensions>
      </trkpt>
      <trkpt lat="-22.118833959102630615234375" lon="166.45630468614399433135986328125">
        <ele>282.399993896484375</ele>
        <time>2016-08-12T23:15:30.000Z</time>
        <extensions>
          <ns3:TrackPointExtension>
            <ns3:atemp>24.0</ns3:atemp>
            <ns3:hr>130</ns3:hr>
          </ns3:TrackPointExtension>
        </extensions>
      </trkpt>
      <trkpt lat="-22.11884762160480022430419921875" lon="166.4562942087650299072265625">
        <ele>282.399993896484375</ele>
        <time>2016-08-12T23:15:31.000Z</time>
        <extensions>
          <ns3:TrackPointExtension>
            <ns3:atemp>24.0</ns3:atemp>
            <ns3:hr>130</ns3:hr>
          </ns3:TrackPointExtension>
        </extensions>
      </trkpt>
      <trkpt lat="-22.11886019445955753326416015625" lon="166.45628054626286029815673828125">
        <ele>282.600006103515625</ele>
        <time>2016-08-12T23:15:32.000Z</time>
        <extensions>
          <ns3:TrackPointExtension>
            <ns3:atemp>24.0</ns3:atemp>
            <ns3:hr>130</ns3:hr>
          </ns3:TrackPointExtension>
        </extensions>
      </trkpt>
      <trkpt lat="-22.1188780479133129119873046875" lon="166.45627367310225963592529296875">
        <ele>282.600006103515625</ele>
        <time>2016-08-12T23:15:33.000Z</time>
        <extensions>
          <ns3:TrackPointExtension>
            <ns3:atemp>24.0</ns3:atemp>
            <ns3:hr>130</ns3:hr>
          </ns3:TrackPointExtension>
        </extensions>
      </trkpt>
      <trkpt lat="-22.118897326290607452392578125" lon="166.4562668837606906890869140625">
        <ele>282</ele>
        <time>2016-08-12T23:15:34.000Z</time>
        <extensions>
          <ns3:TrackPointExtension>
            <ns3:atemp>24.0</ns3:atemp>
            <ns3:hr>130</ns3:hr>
          </ns3:TrackPointExtension>
        </extensions>
      </trkpt>
      <trkpt lat="-22.1189189516007900238037109375" lon="166.4562611840665340423583984375">
        <ele>281.79998779296875</ele>
        <time>2016-08-12T23:15:35.000Z</time>
        <extensions>
          <ns3:TrackPointExtension>
            <ns3:atemp>24.0</ns3:atemp>
            <ns3:hr>130</ns3:hr>
          </ns3:TrackPointExtension>
        </extensions>
      </trkpt>
      <trkpt lat="-22.11894686333835124969482421875" lon="166.45628037862479686737060546875">
        <ele>281.399993896484375</ele>
        <time>2016-08-12T23:15:36.000Z</time>
        <extensions>
          <ns3:TrackPointExtension>
            <ns3:atemp>24.0</ns3:atemp>
            <ns3:hr>130</ns3:hr>
          </ns3:TrackPointExtension>
        </extensions>
      </trkpt>
      <trkpt lat="-22.11897008121013641357421875" lon="166.45627317018806934356689453125">
        <ele>281.20001220703125</ele>
        <time>2016-08-12T23:15:37.000Z</time>
        <extensions>
          <ns3:TrackPointExtension>
            <ns3:atemp>24.0</ns3:atemp>
            <ns3:hr>130</ns3:hr>
          </ns3:TrackPointExtension>
        </extensions>
      </trkpt>
      <trkpt lat="-22.11899631656706333160400390625" lon="166.45626814104616641998291015625">
        <ele>281.20001220703125</ele>
        <time>2016-08-12T23:15:38.000Z</time>
        <extensions>
          <ns3:TrackPointExtension>
            <ns3:atemp>24.0</ns3:atemp>
            <ns3:hr>130</ns3:hr>
          </ns3:TrackPointExtension>
        </extensions>
      </trkpt>
      <trkpt lat="-22.11902079172432422637939453125" lon="166.456255652010440826416015625">
        <ele>281</ele>
        <time>2016-08-12T23:15:39.000Z</time>
        <extensions>
          <ns3:TrackPointExtension>
            <ns3:atemp>24.0</ns3:atemp>
            <ns3:hr>130</ns3:hr>
          </ns3:TrackPointExtension>
        </extensions>
      </trkpt>
      <trkpt lat="-22.11904308758676052093505859375" lon="166.45624014548957347869873046875">
        <ele>280.600006103515625</ele>
        <time>2016-08-12T23:15:40.000Z</time>
        <extensions>
          <ns3:TrackPointExtension>
            <ns3:atemp>24.0</ns3:atemp>
            <ns3:hr>130</ns3:hr>
          </ns3:TrackPointExtension>
        </extensions>
      </trkpt>
      <trkpt lat="-22.11905163712799549102783203125" lon="166.45621298812329769134521484375">
        <ele>280.600006103515625</ele>
        <time>2016-08-12T23:15:41.000Z</time>
        <extensions>
          <ns3:TrackPointExtension>
            <ns3:atemp>24.0</ns3:atemp>
            <ns3:hr>130</ns3:hr>
          </ns3:TrackPointExtension>
        </extensions>
      </trkpt>
      <trkpt lat="-22.1190547384321689605712890625" lon="166.45618088543415069580078125">
        <ele>280.20001220703125</ele>
        <time>2016-08-12T23:15:42.000Z</time>
        <extensions>
          <ns3:TrackPointExtension>
            <ns3:atemp>24.0</ns3:atemp>
            <ns3:hr>130</ns3:hr>
          </ns3:TrackPointExtension>
        </extensions>
      </trkpt>
      <trkpt lat="-22.11905666626989841461181640625" lon="166.4561547338962554931640625">
        <ele>279.79998779296875</ele>
        <time>2016-08-12T23:15:43.000Z</time>
        <extensions>
          <ns3:TrackPointExtension>
            <ns3:atemp>24.0</ns3:atemp>
            <ns3:hr>130</ns3:hr>
          </ns3:TrackPointExtension>
        </extensions>
      </trkpt>
      <trkpt lat="-22.1190517209470272064208984375" lon="166.456124894320964813232421875">
        <ele>279.79998779296875</ele>
        <time>2016-08-12T23:15:44.000Z</time>
        <extensions>
          <ns3:TrackPointExtension>
            <ns3:atemp>24.0</ns3:atemp>
            <ns3:hr>130</ns3:hr>
          </ns3:TrackPointExtension>
        </extensions>
      </trkpt>
      <trkpt lat="-22.11905683390796184539794921875" lon="166.456102430820465087890625">
        <ele>279.79998779296875</ele>
        <time>2016-08-12T23:15:45.000Z</time>
        <extensions>
          <ns3:TrackPointExtension>
            <ns3:atemp>24.0</ns3:atemp>
            <ns3:hr>130</ns3:hr>
          </ns3:TrackPointExtension>
        </extensions>
      </trkpt>
      <trkpt lat="-22.11905130185186862945556640625" lon="166.45607569254934787750244140625">
        <ele>279</ele>
        <time>2016-08-12T23:15:46.000Z</time>
        <extensions>
          <ns3:TrackPointExtension>
            <ns3:atemp>24.0</ns3:atemp>
            <ns3:hr>130</ns3:hr>
          </ns3:TrackPointExtension>
        </extensions>
      </trkpt>
      <trkpt lat="-22.119040824472904205322265625" lon="166.45604752935469150543212890625">
        <ele>278.600006103515625</ele>
        <time>2016-08-12T23:15:47.000Z</time>
        <extensions>
          <ns3:TrackPointExtension>
            <ns3:atemp>24.0</ns3:atemp>
            <ns3:hr>130</ns3:hr>
          </ns3:TrackPointExtension>
        </extensions>
      </trkpt>
      <trkpt lat="-22.119032777845859527587890625" lon="166.4560233056545257568359375">
        <ele>278.399993896484375</ele>
        <time>2016-08-12T23:15:48.000Z</time>
        <extensions>
          <ns3:TrackPointExtension>
            <ns3:atemp>24.0</ns3:atemp>
            <ns3:hr>130</ns3:hr>
          </ns3:TrackPointExtension>
        </extensions>
      </trkpt>
      <trkpt lat="-22.1190202049911022186279296875" lon="166.45599757321178913116455078125">
        <ele>278</ele>
        <time>2016-08-12T23:15:49.000Z</time>
        <extensions>
          <ns3:TrackPointExtension>
            <ns3:atemp>24.0</ns3:atemp>
            <ns3:hr>130</ns3:hr>
          </ns3:TrackPointExtension>
        </extensions>
      </trkpt>
      <trkpt lat="-22.11900905705988407135009765625" lon="166.455970667302608489990234375">
        <ele>278</ele>
        <time>2016-08-12T23:15:50.000Z</time>
        <extensions>
          <ns3:TrackPointExtension>
            <ns3:atemp>24.0</ns3:atemp>
            <ns3:hr>130</ns3:hr>
          </ns3:TrackPointExtension>
        </extensions>
      </trkpt>
      <trkpt lat="-22.1189975738525390625" lon="166.45594376139342784881591796875">
        <ele>278</ele>
        <time>2016-08-12T23:15:51.000Z</time>
        <extensions>
          <ns3:TrackPointExtension>
            <ns3:atemp>24.0</ns3:atemp>
            <ns3:hr>131</ns3:hr>
          </ns3:TrackPointExtension>
        </extensions>
      </trkpt>
      <trkpt lat="-22.1189826540648937225341796875" lon="166.4559160172939300537109375">
        <ele>277.399993896484375</ele>
        <time>2016-08-12T23:15:52.000Z</time>
        <extensions>
          <ns3:TrackPointExtension>
            <ns3:atemp>24.0</ns3:atemp>
            <ns3:hr>130</ns3:hr>
          </ns3:TrackPointExtension>
        </extensions>
      </trkpt>
      <trkpt lat="-22.11897804401814937591552734375" lon="166.4558907039463520050048828125">
        <ele>277.20001220703125</ele>
        <time>2016-08-12T23:15:53.000Z</time>
        <extensions>
          <ns3:TrackPointExtension>
            <ns3:atemp>24.0</ns3:atemp>
            <ns3:hr>130</ns3:hr>
          </ns3:TrackPointExtension>
        </extensions>
      </trkpt>
      <trkpt lat="-22.11897033266723155975341796875" lon="166.45586279220879077911376953125">
        <ele>277.399993896484375</ele>
        <time>2016-08-12T23:15:54.000Z</time>
        <extensions>
          <ns3:TrackPointExtension>
            <ns3:atemp>24.0</ns3:atemp>
            <ns3:hr>130</ns3:hr>
          </ns3:TrackPointExtension>
        </extensions>
      </trkpt>
      <trkpt lat="-22.118946947157382965087890625" lon="166.45581208169460296630859375">
        <ele>277.399993896484375</ele>
        <time>2016-08-12T23:15:56.000Z</time>
        <extensions>
          <ns3:TrackPointExtension>
            <ns3:atemp>24.0</ns3:atemp>
            <ns3:hr>130</ns3:hr>
          </ns3:TrackPointExtension>
        </extensions>
      </trkpt>
      <trkpt lat="-22.11893999017775058746337890625" lon="166.45578634925186634063720703125">
        <ele>277.399993896484375</ele>
        <time>2016-08-12T23:15:57.000Z</time>
        <extensions>
          <ns3:TrackPointExtension>
            <ns3:atemp>24.0</ns3:atemp>
            <ns3:hr>130</ns3:hr>
          </ns3:TrackPointExtension>
        </extensions>
      </trkpt>
      <trkpt lat="-22.11892540566623210906982421875" lon="166.45575935952365398406982421875">
        <ele>277.399993896484375</ele>
        <time>2016-08-12T23:15:58.000Z</time>
        <extensions>
          <ns3:TrackPointExtension>
            <ns3:atemp>24.0</ns3:atemp>
            <ns3:hr>130</ns3:hr>
          </ns3:TrackPointExtension>
        </extensions>
      </trkpt>
      <trkpt lat="-22.118906714022159576416015625" lon="166.45573471672832965850830078125">
        <ele>276.79998779296875</ele>
        <time>2016-08-12T23:15:59.000Z</time>
        <extensions>
          <ns3:TrackPointExtension>
            <ns3:atemp>24.0</ns3:atemp>
            <ns3:hr>130</ns3:hr>
          </ns3:TrackPointExtension>
        </extensions>
      </trkpt>
      <trkpt lat="-22.118890285491943359375" lon="166.45571024157106876373291015625">
        <ele>276.600006103515625</ele>
        <time>2016-08-12T23:16:00.000Z</time>
        <extensions>
          <ns3:TrackPointExtension>
            <ns3:atemp>24.0</ns3:atemp>
            <ns3:hr>130</ns3:hr>
          </ns3:TrackPointExtension>
        </extensions>
      </trkpt>
      <trkpt lat="-22.118883244693279266357421875" lon="166.4556845091283321380615234375">
        <ele>276.399993896484375</ele>
        <time>2016-08-12T23:16:01.000Z</time>
        <extensions>
          <ns3:TrackPointExtension>
            <ns3:atemp>24.0</ns3:atemp>
            <ns3:hr>129</ns3:hr>
          </ns3:TrackPointExtension>
        </extensions>
      </trkpt>
      <trkpt lat="-22.1188643015921115875244140625" lon="166.45565777085721492767333984375">
        <ele>276.399993896484375</ele>
        <time>2016-08-12T23:16:02.000Z</time>
        <extensions>
          <ns3:TrackPointExtension>
            <ns3:atemp>24.0</ns3:atemp>
            <ns3:hr>129</ns3:hr>
          </ns3:TrackPointExtension>
        </extensions>
      </trkpt>
      <trkpt lat="-22.11885164491832256317138671875" lon="166.455628685653209686279296875">
        <ele>276.399993896484375</ele>
        <time>2016-08-12T23:16:03.000Z</time>
        <extensions>
          <ns3:TrackPointExtension>
            <ns3:atemp>24.0</ns3:atemp>
            <ns3:hr>129</ns3:hr>
          </ns3:TrackPointExtension>
        </extensions>
      </trkpt>
      <trkpt lat="-22.11883773095905780792236328125" lon="166.45560152828693389892578125">
        <ele>276.399993896484375</ele>
        <time>2016-08-12T23:16:04.000Z</time>
        <extensions>
          <ns3:TrackPointExtension>
            <ns3:atemp>24.0</ns3:atemp>
            <ns3:hr>129</ns3:hr>
          </ns3:TrackPointExtension>
        </extensions>
      </trkpt>
      <trkpt lat="-22.11883119307458400726318359375" lon="166.45556959323585033416748046875">
        <ele>276.399993896484375</ele>
        <time>2016-08-12T23:16:05.000Z</time>
        <extensions>
          <ns3:TrackPointExtension>
            <ns3:atemp>24.0</ns3:atemp>
            <ns3:hr>129</ns3:hr>
          </ns3:TrackPointExtension>
        </extensions>
      </trkpt>
      <trkpt lat="-22.11882281117141246795654296875" lon="166.45554109476506710052490234375">
        <ele>276</ele>
        <time>2016-08-12T23:16:06.000Z</time>
        <extensions>
          <ns3:TrackPointExtension>
            <ns3:atemp>24.0</ns3:atemp>
            <ns3:hr>129</ns3:hr>
          </ns3:TrackPointExtension>
        </extensions>
      </trkpt>
      <trkpt lat="-22.1188170276582241058349609375" lon="166.455513350665569305419921875">
        <ele>275.79998779296875</ele>
        <time>2016-08-12T23:16:07.000Z</time>
        <extensions>
          <ns3:TrackPointExtension>
            <ns3:atemp>24.0</ns3:atemp>
            <ns3:hr>129</ns3:hr>
          </ns3:TrackPointExtension>
        </extensions>
      </trkpt>
      <trkpt lat="-22.11881375871598720550537109375" lon="166.455483175814151763916015625">
        <ele>275.399993896484375</ele>
        <time>2016-08-12T23:16:08.000Z</time>
        <extensions>
          <ns3:TrackPointExtension>
            <ns3:atemp>24.0</ns3:atemp>
            <ns3:hr>130</ns3:hr>
          </ns3:TrackPointExtension>
        </extensions>
      </trkpt>
      <trkpt lat="-22.1188036166131496429443359375" lon="166.45545509643852710723876953125">
        <ele>275.20001220703125</ele>
        <time>2016-08-12T23:16:09.000Z</time>
        <extensions>
          <ns3:TrackPointExtension>
            <ns3:atemp>24.0</ns3:atemp>
            <ns3:hr>130</ns3:hr>
          </ns3:TrackPointExtension>
        </extensions>
      </trkpt>
      <trkpt lat="-22.1187995932996273040771484375" lon="166.45542827434837818145751953125">
        <ele>275.20001220703125</ele>
        <time>2016-08-12T23:16:10.000Z</time>
        <extensions>
          <ns3:TrackPointExtension>
            <ns3:atemp>24.0</ns3:atemp>
            <ns3:hr>130</ns3:hr>
          </ns3:TrackPointExtension>
        </extensions>
      </trkpt>
      <trkpt lat="-22.1187870204448699951171875" lon="166.45539910532534122467041015625">
        <ele>275.20001220703125</ele>
        <time>2016-08-12T23:16:11.000Z</time>
        <extensions>
          <ns3:TrackPointExtension>
            <ns3:atemp>24.0</ns3:atemp>
            <ns3:hr>130</ns3:hr>
          </ns3:TrackPointExtension>
        </extensions>
      </trkpt>
      <trkpt lat="-22.11878090165555477142333984375" lon="166.45537094213068485260009765625">
        <ele>275.20001220703125</ele>
        <time>2016-08-12T23:16:12.000Z</time>
        <extensions>
          <ns3:TrackPointExtension>
            <ns3:atemp>24.0</ns3:atemp>
            <ns3:hr>131</ns3:hr>
          </ns3:TrackPointExtension>
        </extensions>
      </trkpt>
      <trkpt lat="-22.11876128800213336944580078125" lon="166.45529014058411121368408203125">
        <ele>275.20001220703125</ele>
        <time>2016-08-12T23:16:15.000Z</time>
        <extensions>
          <ns3:TrackPointExtension>
            <ns3:atemp>24.0</ns3:atemp>
            <ns3:hr>131</ns3:hr>
          </ns3:TrackPointExtension>
        </extensions>
      </trkpt>
      <trkpt lat="-22.11875508539378643035888671875" lon="166.45526063628494739532470703125">
        <ele>275</ele>
        <time>2016-08-12T23:16:16.000Z</time>
        <extensions>
          <ns3:TrackPointExtension>
            <ns3:atemp>24.0</ns3:atemp>
            <ns3:hr>131</ns3:hr>
          </ns3:TrackPointExtension>
        </extensions>
      </trkpt>
      <trkpt lat="-22.11875257082283496856689453125" lon="166.4552328921854496002197265625">
        <ele>274.600006103515625</ele>
        <time>2016-08-12T23:16:17.000Z</time>
        <extensions>
          <ns3:TrackPointExtension>
            <ns3:atemp>24.0</ns3:atemp>
            <ns3:hr>131</ns3:hr>
          </ns3:TrackPointExtension>
        </extensions>
      </trkpt>
      <trkpt lat="-22.1187506429851055145263671875" lon="166.4552079141139984130859375">
        <ele>274.20001220703125</ele>
        <time>2016-08-12T23:16:18.000Z</time>
        <extensions>
          <ns3:TrackPointExtension>
            <ns3:atemp>24.0</ns3:atemp>
            <ns3:hr>131</ns3:hr>
          </ns3:TrackPointExtension>
        </extensions>
      </trkpt>
      <trkpt lat="-22.11876614950597286224365234375" lon="166.45513121969997882843017578125">
        <ele>274.20001220703125</ele>
        <time>2016-08-12T23:16:21.000Z</time>
        <extensions>
          <ns3:TrackPointExtension>
            <ns3:atemp>24.0</ns3:atemp>
            <ns3:hr>131</ns3:hr>
          </ns3:TrackPointExtension>
        </extensions>
      </trkpt>
      <trkpt lat="-22.118772603571414947509765625" lon="166.45510490052402019500732421875">
        <ele>273.600006103515625</ele>
        <time>2016-08-12T23:16:22.000Z</time>
        <extensions>
          <ns3:TrackPointExtension>
            <ns3:atemp>24.0</ns3:atemp>
            <ns3:hr>132</ns3:hr>
          </ns3:TrackPointExtension>
        </extensions>
      </trkpt>
      <trkpt lat="-22.11877293884754180908203125" lon="166.455084867775440216064453125">
        <ele>273.20001220703125</ele>
        <time>2016-08-12T23:16:23.000Z</time>
        <extensions>
          <ns3:TrackPointExtension>
            <ns3:atemp>24.0</ns3:atemp>
            <ns3:hr>132</ns3:hr>
          </ns3:TrackPointExtension>
        </extensions>
      </trkpt>
      <trkpt lat="-22.11877956055104732513427734375" lon="166.45505846478044986724853515625">
        <ele>272.79998779296875</ele>
        <time>2016-08-12T23:16:24.000Z</time>
        <extensions>
          <ns3:TrackPointExtension>
            <ns3:atemp>24.0</ns3:atemp>
            <ns3:hr>132</ns3:hr>
          </ns3:TrackPointExtension>
        </extensions>
      </trkpt>
      <trkpt lat="-22.11878710426390171051025390625" lon="166.45500213839113712310791015625">
        <ele>272.79998779296875</ele>
        <time>2016-08-12T23:16:26.000Z</time>
        <extensions>
          <ns3:TrackPointExtension>
            <ns3:atemp>24.0</ns3:atemp>
            <ns3:hr>132</ns3:hr>
          </ns3:TrackPointExtension>
        </extensions>
      </trkpt>
      <trkpt lat="-22.11878634989261627197265625" lon="166.4549710415303707122802734375">
        <ele>272.600006103515625</ele>
        <time>2016-08-12T23:16:27.000Z</time>
        <extensions>
          <ns3:TrackPointExtension>
            <ns3:atemp>24.0</ns3:atemp>
            <ns3:hr>131</ns3:hr>
          </ns3:TrackPointExtension>
        </extensions>
      </trkpt>
      <trkpt lat="-22.11878576315939426422119140625" lon="166.4549438841640949249267578125">
        <ele>272</ele>
        <time>2016-08-12T23:16:28.000Z</time>
        <extensions>
          <ns3:TrackPointExtension>
            <ns3:atemp>24.0</ns3:atemp>
            <ns3:hr>131</ns3:hr>
          </ns3:TrackPointExtension>
        </extensions>
      </trkpt>
      <trkpt lat="-22.118798084557056427001953125" lon="166.4549195766448974609375">
        <ele>271.399993896484375</ele>
        <time>2016-08-12T23:16:29.000Z</time>
        <extensions>
          <ns3:TrackPointExtension>
            <ns3:atemp>24.0</ns3:atemp>
            <ns3:hr>131</ns3:hr>
          </ns3:TrackPointExtension>
        </extensions>
      </trkpt>
      <trkpt lat="-22.1188032813370227813720703125" lon="166.45489099435508251190185546875">
        <ele>271.20001220703125</ele>
        <time>2016-08-12T23:16:30.000Z</time>
        <extensions>
          <ns3:TrackPointExtension>
            <ns3:atemp>24.0</ns3:atemp>
            <ns3:hr>131</ns3:hr>
          </ns3:TrackPointExtension>
        </extensions>
      </trkpt>
      <trkpt lat="-22.11881694383919239044189453125" lon="166.4548707939684391021728515625">
        <ele>271.20001220703125</ele>
        <time>2016-08-12T23:16:31.000Z</time>
        <extensions>
          <ns3:TrackPointExtension>
            <ns3:atemp>24.0</ns3:atemp>
            <ns3:hr>131</ns3:hr>
          </ns3:TrackPointExtension>
        </extensions>
      </trkpt>
      <trkpt lat="-22.1188247390091419219970703125" lon="166.454846151173114776611328125">
        <ele>271.20001220703125</ele>
        <time>2016-08-12T23:16:32.000Z</time>
        <extensions>
          <ns3:TrackPointExtension>
            <ns3:atemp>24.0</ns3:atemp>
            <ns3:hr>132</ns3:hr>
          </ns3:TrackPointExtension>
        </extensions>
      </trkpt>
      <trkpt lat="-22.1188398264348506927490234375" lon="166.4548245258629322052001953125">
        <ele>270.79998779296875</ele>
        <time>2016-08-12T23:16:33.000Z</time>
        <extensions>
          <ns3:TrackPointExtension>
            <ns3:atemp>24.0</ns3:atemp>
            <ns3:hr>132</ns3:hr>
          </ns3:TrackPointExtension>
        </extensions>
      </trkpt>
      <trkpt lat="-22.11885298602283000946044921875" lon="166.4548029005527496337890625">
        <ele>270.79998779296875</ele>
        <time>2016-08-12T23:16:34.000Z</time>
        <extensions>
          <ns3:TrackPointExtension>
            <ns3:atemp>24.0</ns3:atemp>
            <ns3:hr>132</ns3:hr>
          </ns3:TrackPointExtension>
        </extensions>
      </trkpt>
      <trkpt lat="-22.11885700933635234832763671875" lon="166.45477364771068096160888671875">
        <ele>270.79998779296875</ele>
        <time>2016-08-12T23:16:35.000Z</time>
        <extensions>
          <ns3:TrackPointExtension>
            <ns3:atemp>24.0</ns3:atemp>
            <ns3:hr>132</ns3:hr>
          </ns3:TrackPointExtension>
        </extensions>
      </trkpt>
      <trkpt lat="-22.1188626252114772796630859375" lon="166.4547464065253734588623046875">
        <ele>270.600006103515625</ele>
        <time>2016-08-12T23:16:36.000Z</time>
        <extensions>
          <ns3:TrackPointExtension>
            <ns3:atemp>24.0</ns3:atemp>
            <ns3:hr>132</ns3:hr>
          </ns3:TrackPointExtension>
        </extensions>
      </trkpt>
      <trkpt lat="-22.118870504200458526611328125" lon="166.45472000353038311004638671875">
        <ele>270.399993896484375</ele>
        <time>2016-08-12T23:16:37.000Z</time>
        <extensions>
          <ns3:TrackPointExtension>
            <ns3:atemp>24.0</ns3:atemp>
            <ns3:hr>132</ns3:hr>
          </ns3:TrackPointExtension>
        </extensions>
      </trkpt>
      <trkpt lat="-22.11887645535171031951904296875" lon="166.45469200797379016876220703125">
        <ele>270.399993896484375</ele>
        <time>2016-08-12T23:16:38.000Z</time>
        <extensions>
          <ns3:TrackPointExtension>
            <ns3:atemp>24.0</ns3:atemp>
            <ns3:hr>131</ns3:hr>
          </ns3:TrackPointExtension>
        </extensions>
      </trkpt>
      <trkpt lat="-22.1188877709209918975830078125" lon="166.45463526248931884765625">
        <ele>270.399993896484375</ele>
        <time>2016-08-12T23:16:40.000Z</time>
        <extensions>
          <ns3:TrackPointExtension>
            <ns3:atemp>24.0</ns3:atemp>
            <ns3:hr>131</ns3:hr>
          </ns3:TrackPointExtension>
        </extensions>
      </trkpt>
      <trkpt lat="-22.11889632046222686767578125" lon="166.45460567437112331390380859375">
        <ele>270.399993896484375</ele>
        <time>2016-08-12T23:16:41.000Z</time>
        <extensions>
          <ns3:TrackPointExtension>
            <ns3:atemp>24.0</ns3:atemp>
            <ns3:hr>131</ns3:hr>
          </ns3:TrackPointExtension>
        </extensions>
      </trkpt>
      <trkpt lat="-22.1189072169363498687744140625" lon="166.454580612480640411376953125">
        <ele>270.20001220703125</ele>
        <time>2016-08-12T23:16:42.000Z</time>
        <extensions>
          <ns3:TrackPointExtension>
            <ns3:atemp>24.0</ns3:atemp>
            <ns3:hr>131</ns3:hr>
          </ns3:TrackPointExtension>
        </extensions>
      </trkpt>
      <trkpt lat="-22.118921466171741485595703125" lon="166.4545586518943309783935546875">
        <ele>269.600006103515625</ele>
        <time>2016-08-12T23:16:43.000Z</time>
        <extensions>
          <ns3:TrackPointExtension>
            <ns3:atemp>24.0</ns3:atemp>
            <ns3:hr>132</ns3:hr>
          </ns3:TrackPointExtension>
        </extensions>
      </trkpt>
      <trkpt lat="-22.11893462575972080230712890625" lon="166.45453426055610179901123046875">
        <ele>269.20001220703125</ele>
        <time>2016-08-12T23:16:44.000Z</time>
        <extensions>
          <ns3:TrackPointExtension>
            <ns3:atemp>24.0</ns3:atemp>
            <ns3:hr>132</ns3:hr>
          </ns3:TrackPointExtension>
        </extensions>
      </trkpt>
      <trkpt lat="-22.11898173205554485321044921875" lon="166.45444004796445369720458984375">
        <ele>269.20001220703125</ele>
        <time>2016-08-12T23:16:48.000Z</time>
        <extensions>
          <ns3:TrackPointExtension>
            <ns3:atemp>24.0</ns3:atemp>
            <ns3:hr>132</ns3:hr>
          </ns3:TrackPointExtension>
        </extensions>
      </trkpt>
      <trkpt lat="-22.11899447254836559295654296875" lon="166.45441909320652484893798828125">
        <ele>269</ele>
        <time>2016-08-12T23:16:49.000Z</time>
        <extensions>
          <ns3:TrackPointExtension>
            <ns3:atemp>24.0</ns3:atemp>
            <ns3:hr>132</ns3:hr>
          </ns3:TrackPointExtension>
        </extensions>
      </trkpt>
      <trkpt lat="-22.11901291273534297943115234375" lon="166.45439897663891315460205078125">
        <ele>268.79998779296875</ele>
        <time>2016-08-12T23:16:50.000Z</time>
        <extensions>
          <ns3:TrackPointExtension>
            <ns3:atemp>24.0</ns3:atemp>
            <ns3:hr>132</ns3:hr>
          </ns3:TrackPointExtension>
        </extensions>
      </trkpt>
      <trkpt lat="-22.11902297101914882659912109375" lon="166.45436980761587619781494140625">
        <ele>268.600006103515625</ele>
        <time>2016-08-12T23:16:51.000Z</time>
        <extensions>
          <ns3:TrackPointExtension>
            <ns3:atemp>24.0</ns3:atemp>
            <ns3:hr>132</ns3:hr>
          </ns3:TrackPointExtension>
        </extensions>
      </trkpt>
      <trkpt lat="-22.1190257370471954345703125" lon="166.45433980040252208709716796875">
        <ele>268.399993896484375</ele>
        <time>2016-08-12T23:16:52.000Z</time>
        <extensions>
          <ns3:TrackPointExtension>
            <ns3:atemp>24.0</ns3:atemp>
            <ns3:hr>132</ns3:hr>
          </ns3:TrackPointExtension>
        </extensions>
      </trkpt>
      <trkpt lat="-22.1190228872001171112060546875" lon="166.45431012846529483795166015625">
        <ele>267.79998779296875</ele>
        <time>2016-08-12T23:16:53.000Z</time>
        <extensions>
          <ns3:TrackPointExtension>
            <ns3:atemp>24.0</ns3:atemp>
            <ns3:hr>132</ns3:hr>
          </ns3:TrackPointExtension>
        </extensions>
      </trkpt>
      <trkpt lat="-22.1190284192562103271484375" lon="166.4542827196419239044189453125">
        <ele>267.600006103515625</ele>
        <time>2016-08-12T23:16:54.000Z</time>
        <extensions>
          <ns3:TrackPointExtension>
            <ns3:atemp>24.0</ns3:atemp>
            <ns3:hr>132</ns3:hr>
          </ns3:TrackPointExtension>
        </extensions>
      </trkpt>
      <trkpt lat="-22.11902800016105175018310546875" lon="166.454252712428569793701171875">
        <ele>267.600006103515625</ele>
        <time>2016-08-12T23:16:55.000Z</time>
        <extensions>
          <ns3:TrackPointExtension>
            <ns3:atemp>24.0</ns3:atemp>
            <ns3:hr>132</ns3:hr>
          </ns3:TrackPointExtension>
        </extensions>
      </trkpt>
      <trkpt lat="-22.11903470568358898162841796875" lon="166.45422287285327911376953125">
        <ele>267.600006103515625</ele>
        <time>2016-08-12T23:16:56.000Z</time>
        <extensions>
          <ns3:TrackPointExtension>
            <ns3:atemp>24.0</ns3:atemp>
            <ns3:hr>132</ns3:hr>
          </ns3:TrackPointExtension>
        </extensions>
      </trkpt>
      <trkpt lat="-22.11904593743383884429931640625" lon="166.4541928656399250030517578125">
        <ele>267.20001220703125</ele>
        <time>2016-08-12T23:16:57.000Z</time>
        <extensions>
          <ns3:TrackPointExtension>
            <ns3:atemp>24.0</ns3:atemp>
            <ns3:hr>133</ns3:hr>
          </ns3:TrackPointExtension>
        </extensions>
      </trkpt>
      <trkpt lat="-22.1190523914992809295654296875" lon="166.45416629500687122344970703125">
        <ele>267.20001220703125</ele>
        <time>2016-08-12T23:16:58.000Z</time>
        <extensions>
          <ns3:TrackPointExtension>
            <ns3:atemp>24.0</ns3:atemp>
            <ns3:hr>133</ns3:hr>
          </ns3:TrackPointExtension>
        </extensions>
      </trkpt>
      <trkpt lat="-22.11905331350862979888916015625" lon="166.45413972437381744384765625">
        <ele>267</ele>
        <time>2016-08-12T23:16:59.000Z</time>
        <extensions>
          <ns3:TrackPointExtension>
            <ns3:atemp>24.0</ns3:atemp>
            <ns3:hr>133</ns3:hr>
          </ns3:TrackPointExtension>
        </extensions>
      </trkpt>
      <trkpt lat="-22.11905633099377155303955078125" lon="166.454111225903034210205078125">
        <ele>267.20001220703125</ele>
        <time>2016-08-12T23:17:00.000Z</time>
        <extensions>
          <ns3:TrackPointExtension>
            <ns3:atemp>24.0</ns3:atemp>
            <ns3:hr>133</ns3:hr>
          </ns3:TrackPointExtension>
        </extensions>
      </trkpt>
      <trkpt lat="-22.1190637908875942230224609375" lon="166.45408046431839466094970703125">
        <ele>267</ele>
        <time>2016-08-12T23:17:01.000Z</time>
        <extensions>
          <ns3:TrackPointExtension>
            <ns3:atemp>24.0</ns3:atemp>
            <ns3:hr>133</ns3:hr>
          </ns3:TrackPointExtension>
        </extensions>
      </trkpt>
      <trkpt lat="-22.11906664073467254638671875" lon="166.45404852926731109619140625">
        <ele>266.79998779296875</ele>
        <time>2016-08-12T23:17:02.000Z</time>
        <extensions>
          <ns3:TrackPointExtension>
            <ns3:atemp>24.0</ns3:atemp>
            <ns3:hr>133</ns3:hr>
          </ns3:TrackPointExtension>
        </extensions>
      </trkpt>
      <trkpt lat="-22.11908214725553989410400390625" lon="166.45388700999319553375244140625">
        <ele>266.399993896484375</ele>
        <time>2016-08-12T23:17:07.000Z</time>
        <extensions>
          <ns3:TrackPointExtension>
            <ns3:atemp>24.0</ns3:atemp>
            <ns3:hr>133</ns3:hr>
          </ns3:TrackPointExtension>
        </extensions>
      </trkpt>
      <trkpt lat="-22.1190855838358402252197265625" lon="166.4538562484085559844970703125">
        <ele>266.399993896484375</ele>
        <time>2016-08-12T23:17:08.000Z</time>
        <extensions>
          <ns3:TrackPointExtension>
            <ns3:atemp>24.0</ns3:atemp>
            <ns3:hr>133</ns3:hr>
          </ns3:TrackPointExtension>
        </extensions>
      </trkpt>
      <trkpt lat="-22.119091115891933441162109375" lon="166.4538277499377727508544921875">
        <ele>266.20001220703125</ele>
        <time>2016-08-12T23:17:09.000Z</time>
        <extensions>
          <ns3:TrackPointExtension>
            <ns3:atemp>24.0</ns3:atemp>
            <ns3:hr>134</ns3:hr>
          </ns3:TrackPointExtension>
        </extensions>
      </trkpt>
      <trkpt lat="-22.1190943010151386260986328125" lon="166.4538005925714969635009765625">
        <ele>266.20001220703125</ele>
        <time>2016-08-12T23:17:10.000Z</time>
        <extensions>
          <ns3:TrackPointExtension>
            <ns3:atemp>24.0</ns3:atemp>
            <ns3:hr>134</ns3:hr>
          </ns3:TrackPointExtension>
        </extensions>
      </trkpt>
      <trkpt lat="-22.119090445339679718017578125" lon="166.45376999862492084503173828125">
        <ele>266.20001220703125</ele>
        <time>2016-08-12T23:17:11.000Z</time>
        <extensions>
          <ns3:TrackPointExtension>
            <ns3:atemp>24.0</ns3:atemp>
            <ns3:hr>134</ns3:hr>
          </ns3:TrackPointExtension>
        </extensions>
      </trkpt>
      <trkpt lat="-22.11909304372966289520263671875" lon="166.45374518819153308868408203125">
        <ele>266</ele>
        <time>2016-08-12T23:17:12.000Z</time>
        <extensions>
          <ns3:TrackPointExtension>
            <ns3:atemp>24.0</ns3:atemp>
            <ns3:hr>134</ns3:hr>
          </ns3:TrackPointExtension>
        </extensions>
      </trkpt>
      <trkpt lat="-22.11910109035670757293701171875" lon="166.453722305595874786376953125">
        <ele>265.79998779296875</ele>
        <time>2016-08-12T23:17:13.000Z</time>
        <extensions>
          <ns3:TrackPointExtension>
            <ns3:atemp>24.0</ns3:atemp>
            <ns3:hr>134</ns3:hr>
          </ns3:TrackPointExtension>
        </extensions>
      </trkpt>
      <trkpt lat="-22.11910829879343509674072265625" lon="166.4536979980766773223876953125">
        <ele>265.79998779296875</ele>
        <time>2016-08-12T23:17:14.000Z</time>
        <extensions>
          <ns3:TrackPointExtension>
            <ns3:atemp>24.0</ns3:atemp>
            <ns3:hr>135</ns3:hr>
          </ns3:TrackPointExtension>
        </extensions>
      </trkpt>
      <trkpt lat="-22.11911248974502086639404296875" lon="166.45367394201457500457763671875">
        <ele>265.600006103515625</ele>
        <time>2016-08-12T23:17:15.000Z</time>
        <extensions>
          <ns3:TrackPointExtension>
            <ns3:atemp>24.0</ns3:atemp>
            <ns3:hr>134</ns3:hr>
          </ns3:TrackPointExtension>
        </extensions>
      </trkpt>
      <trkpt lat="-22.11910913698375225067138671875" lon="166.4536483772099018096923828125">
        <ele>265.399993896484375</ele>
        <time>2016-08-12T23:17:16.000Z</time>
        <extensions>
          <ns3:TrackPointExtension>
            <ns3:atemp>24.0</ns3:atemp>
            <ns3:hr>134</ns3:hr>
          </ns3:TrackPointExtension>
        </extensions>
      </trkpt>
      <trkpt lat="-22.11911701597273349761962890625" lon="166.45362515933811664581298828125">
        <ele>265.600006103515625</ele>
        <time>2016-08-12T23:17:17.000Z</time>
        <extensions>
          <ns3:TrackPointExtension>
            <ns3:atemp>24.0</ns3:atemp>
            <ns3:hr>134</ns3:hr>
          </ns3:TrackPointExtension>
        </extensions>
      </trkpt>
      <trkpt lat="-22.1191214583814144134521484375" lon="166.4535990916192531585693359375">
        <ele>265.600006103515625</ele>
        <time>2016-08-12T23:17:18.000Z</time>
        <extensions>
          <ns3:TrackPointExtension>
            <ns3:atemp>24.0</ns3:atemp>
            <ns3:hr>135</ns3:hr>
          </ns3:TrackPointExtension>
        </extensions>
      </trkpt>
      <trkpt lat="-22.11912673898041248321533203125" lon="166.45357168279588222503662109375">
        <ele>265.20001220703125</ele>
        <time>2016-08-12T23:17:19.000Z</time>
        <extensions>
          <ns3:TrackPointExtension>
            <ns3:atemp>24.0</ns3:atemp>
            <ns3:hr>134</ns3:hr>
          </ns3:TrackPointExtension>
        </extensions>
      </trkpt>
      <trkpt lat="-22.11913964711129665374755859375" lon="166.4535504765808582305908203125">
        <ele>264.600006103515625</ele>
        <time>2016-08-12T23:17:20.000Z</time>
        <extensions>
          <ns3:TrackPointExtension>
            <ns3:atemp>24.0</ns3:atemp>
            <ns3:hr>134</ns3:hr>
          </ns3:TrackPointExtension>
        </extensions>
      </trkpt>
      <trkpt lat="-22.11914350278675556182861328125" lon="166.4535315334796905517578125">
        <ele>264.20001220703125</ele>
        <time>2016-08-12T23:17:21.000Z</time>
        <extensions>
          <ns3:TrackPointExtension>
            <ns3:atemp>24.0</ns3:atemp>
            <ns3:hr>134</ns3:hr>
          </ns3:TrackPointExtension>
        </extensions>
      </trkpt>
      <trkpt lat="-22.11916378699243068695068359375" lon="166.4535208046436309814453125">
        <ele>263.79998779296875</ele>
        <time>2016-08-12T23:17:22.000Z</time>
        <extensions>
          <ns3:TrackPointExtension>
            <ns3:atemp>24.0</ns3:atemp>
            <ns3:hr>135</ns3:hr>
          </ns3:TrackPointExtension>
        </extensions>
      </trkpt>
      <trkpt lat="-22.1191784553229808807373046875" lon="166.45350831560790538787841796875">
        <ele>263.20001220703125</ele>
        <time>2016-08-12T23:17:23.000Z</time>
        <extensions>
          <ns3:TrackPointExtension>
            <ns3:atemp>24.0</ns3:atemp>
            <ns3:hr>134</ns3:hr>
          </ns3:TrackPointExtension>
        </extensions>
      </trkpt>
      <trkpt lat="-22.11918532848358154296875" lon="166.4534958265721797943115234375">
        <ele>263</ele>
        <time>2016-08-12T23:17:24.000Z</time>
        <extensions>
          <ns3:TrackPointExtension>
            <ns3:atemp>24.0</ns3:atemp>
            <ns3:hr>134</ns3:hr>
          </ns3:TrackPointExtension>
        </extensions>
      </trkpt>
      <trkpt lat="-22.11921206675469875335693359375" lon="166.45349473692476749420166015625">
        <ele>262.600006103515625</ele>
        <time>2016-08-12T23:17:25.000Z</time>
        <extensions>
          <ns3:TrackPointExtension>
            <ns3:atemp>24.0</ns3:atemp>
            <ns3:hr>134</ns3:hr>
          </ns3:TrackPointExtension>
        </extensions>
      </trkpt>
      <trkpt lat="-22.1192324347794055938720703125" lon="166.453488953411579132080078125">
        <ele>262.20001220703125</ele>
        <time>2016-08-12T23:17:26.000Z</time>
        <extensions>
          <ns3:TrackPointExtension>
            <ns3:atemp>24.0</ns3:atemp>
            <ns3:hr>135</ns3:hr>
          </ns3:TrackPointExtension>
        </extensions>
      </trkpt>
      <trkpt lat="-22.11924291215837001800537109375" lon="166.4534787274897098541259765625">
        <ele>261.79998779296875</ele>
        <time>2016-08-12T23:17:27.000Z</time>
        <extensions>
          <ns3:TrackPointExtension>
            <ns3:atemp>24.0</ns3:atemp>
            <ns3:hr>135</ns3:hr>
          </ns3:TrackPointExtension>
        </extensions>
      </trkpt>
      <trkpt lat="-22.1192617714405059814453125" lon="166.45346942357718944549560546875">
        <ele>261.600006103515625</ele>
        <time>2016-08-12T23:17:28.000Z</time>
        <extensions>
          <ns3:TrackPointExtension>
            <ns3:atemp>24.0</ns3:atemp>
            <ns3:hr>135</ns3:hr>
          </ns3:TrackPointExtension>
        </extensions>
      </trkpt>
      <trkpt lat="-22.1192760206758975982666015625" lon="166.45345349796116352081298828125">
        <ele>261.399993896484375</ele>
        <time>2016-08-12T23:17:29.000Z</time>
        <extensions>
          <ns3:TrackPointExtension>
            <ns3:atemp>24.0</ns3:atemp>
            <ns3:hr>135</ns3:hr>
          </ns3:TrackPointExtension>
        </extensions>
      </trkpt>
      <trkpt lat="-22.11928465403616428375244140625" lon="166.45343321375548839569091796875">
        <ele>261</ele>
        <time>2016-08-12T23:17:30.000Z</time>
        <extensions>
          <ns3:TrackPointExtension>
            <ns3:atemp>24.0</ns3:atemp>
            <ns3:hr>135</ns3:hr>
          </ns3:TrackPointExtension>
        </extensions>
      </trkpt>
      <trkpt lat="-22.11930359713733196258544921875" lon="166.4534200541675090789794921875">
        <ele>260.79998779296875</ele>
        <time>2016-08-12T23:17:31.000Z</time>
        <extensions>
          <ns3:TrackPointExtension>
            <ns3:atemp>24.0</ns3:atemp>
            <ns3:hr>135</ns3:hr>
          </ns3:TrackPointExtension>
        </extensions>
      </trkpt>
      <trkpt lat="-22.11931700818240642547607421875" lon="166.45340622402727603912353515625">
        <ele>260.600006103515625</ele>
        <time>2016-08-12T23:17:32.000Z</time>
        <extensions>
          <ns3:TrackPointExtension>
            <ns3:atemp>24.0</ns3:atemp>
            <ns3:hr>135</ns3:hr>
          </ns3:TrackPointExtension>
        </extensions>
      </trkpt>
      <trkpt lat="-22.119332849979400634765625" lon="166.45339214242994785308837890625">
        <ele>260.20001220703125</ele>
        <time>2016-08-12T23:17:33.000Z</time>
        <extensions>
          <ns3:TrackPointExtension>
            <ns3:atemp>24.0</ns3:atemp>
            <ns3:hr>135</ns3:hr>
          </ns3:TrackPointExtension>
        </extensions>
      </trkpt>
      <trkpt lat="-22.1193434111773967742919921875" lon="166.453370265662670135498046875">
        <ele>259.600006103515625</ele>
        <time>2016-08-12T23:17:34.000Z</time>
        <extensions>
          <ns3:TrackPointExtension>
            <ns3:atemp>24.0</ns3:atemp>
            <ns3:hr>135</ns3:hr>
          </ns3:TrackPointExtension>
        </extensions>
      </trkpt>
      <trkpt lat="-22.11935439147055149078369140625" lon="166.4533469639718532562255859375">
        <ele>259.20001220703125</ele>
        <time>2016-08-12T23:17:35.000Z</time>
        <extensions>
          <ns3:TrackPointExtension>
            <ns3:atemp>24.0</ns3:atemp>
            <ns3:hr>135</ns3:hr>
          </ns3:TrackPointExtension>
        </extensions>
      </trkpt>
      <trkpt lat="-22.1193541400134563446044921875" lon="166.45332005806267261505126953125">
        <ele>259</ele>
        <time>2016-08-12T23:17:36.000Z</time>
        <extensions>
          <ns3:TrackPointExtension>
            <ns3:atemp>24.0</ns3:atemp>
            <ns3:hr>135</ns3:hr>
          </ns3:TrackPointExtension>
        </extensions>
      </trkpt>
      <trkpt lat="-22.11936377920210361480712890625" lon="166.45329457707703113555908203125">
        <ele>258.600006103515625</ele>
        <time>2016-08-12T23:17:37.000Z</time>
        <extensions>
          <ns3:TrackPointExtension>
            <ns3:atemp>24.0</ns3:atemp>
            <ns3:hr>135</ns3:hr>
          </ns3:TrackPointExtension>
        </extensions>
      </trkpt>
      <trkpt lat="-22.1193725802004337310791015625" lon="166.453267671167850494384765625">
        <ele>258</ele>
        <time>2016-08-12T23:17:38.000Z</time>
        <extensions>
          <ns3:TrackPointExtension>
            <ns3:atemp>24.0</ns3:atemp>
            <ns3:hr>135</ns3:hr>
          </ns3:TrackPointExtension>
        </extensions>
      </trkpt>
      <trkpt lat="-22.11938372813165187835693359375" lon="166.45324378274381160736083984375">
        <ele>257.79998779296875</ele>
        <time>2016-08-12T23:17:39.000Z</time>
        <extensions>
          <ns3:TrackPointExtension>
            <ns3:atemp>24.0</ns3:atemp>
            <ns3:hr>135</ns3:hr>
          </ns3:TrackPointExtension>
        </extensions>
      </trkpt>
      <trkpt lat="-22.1193997375667095184326171875" lon="166.4532203972339630126953125">
        <ele>257.600006103515625</ele>
        <time>2016-08-12T23:17:40.000Z</time>
        <extensions>
          <ns3:TrackPointExtension>
            <ns3:atemp>24.0</ns3:atemp>
            <ns3:hr>135</ns3:hr>
          </ns3:TrackPointExtension>
        </extensions>
      </trkpt>
      <trkpt lat="-22.11941591463983058929443359375" lon="166.45319751463830471038818359375">
        <ele>257.20001220703125</ele>
        <time>2016-08-12T23:17:41.000Z</time>
        <extensions>
          <ns3:TrackPointExtension>
            <ns3:atemp>24.0</ns3:atemp>
            <ns3:hr>135</ns3:hr>
          </ns3:TrackPointExtension>
        </extensions>
      </trkpt>
      <trkpt lat="-22.11943016387522220611572265625" lon="166.4531721174716949462890625">
        <ele>256.79998779296875</ele>
        <time>2016-08-12T23:17:42.000Z</time>
        <extensions>
          <ns3:TrackPointExtension>
            <ns3:atemp>24.0</ns3:atemp>
            <ns3:hr>135</ns3:hr>
          </ns3:TrackPointExtension>
        </extensions>
      </trkpt>
      <trkpt lat="-22.119441814720630645751953125" lon="166.45314420573413372039794921875">
        <ele>256.399993896484375</ele>
        <time>2016-08-12T23:17:43.000Z</time>
        <extensions>
          <ns3:TrackPointExtension>
            <ns3:atemp>24.0</ns3:atemp>
            <ns3:hr>135</ns3:hr>
          </ns3:TrackPointExtension>
        </extensions>
      </trkpt>
      <trkpt lat="-22.11945329792797565460205078125" lon="166.45311780273914337158203125">
        <ele>255.600006103515625</ele>
        <time>2016-08-12T23:17:44.000Z</time>
        <extensions>
          <ns3:TrackPointExtension>
            <ns3:atemp>24.0</ns3:atemp>
            <ns3:hr>135</ns3:hr>
          </ns3:TrackPointExtension>
        </extensions>
      </trkpt>
      <trkpt lat="-22.11945933289825916290283203125" lon="166.45308838225901126861572265625">
        <ele>255</ele>
        <time>2016-08-12T23:17:45.000Z</time>
        <extensions>
          <ns3:TrackPointExtension>
            <ns3:atemp>24.0</ns3:atemp>
            <ns3:hr>135</ns3:hr>
          </ns3:TrackPointExtension>
        </extensions>
      </trkpt>
      <trkpt lat="-22.119461260735988616943359375" lon="166.45306105725467205047607421875">
        <ele>254.8000030517578125</ele>
        <time>2016-08-12T23:17:46.000Z</time>
        <extensions>
          <ns3:TrackPointExtension>
            <ns3:atemp>24.0</ns3:atemp>
            <ns3:hr>135</ns3:hr>
          </ns3:TrackPointExtension>
        </extensions>
      </trkpt>
      <trkpt lat="-22.1194661222398281097412109375" lon="166.45303373225033283233642578125">
        <ele>254</ele>
        <time>2016-08-12T23:17:47.000Z</time>
        <extensions>
          <ns3:TrackPointExtension>
            <ns3:atemp>24.0</ns3:atemp>
            <ns3:hr>135</ns3:hr>
          </ns3:TrackPointExtension>
        </extensions>
      </trkpt>
      <trkpt lat="-22.119465284049510955810546875" lon="166.4530046470463275909423828125">
        <ele>253.600006103515625</ele>
        <time>2016-08-12T23:17:48.000Z</time>
        <extensions>
          <ns3:TrackPointExtension>
            <ns3:atemp>24.0</ns3:atemp>
            <ns3:hr>135</ns3:hr>
          </ns3:TrackPointExtension>
        </extensions>
      </trkpt>
      <trkpt lat="-22.11945665068924427032470703125" lon="166.4529751427471637725830078125">
        <ele>253.399993896484375</ele>
        <time>2016-08-12T23:17:49.000Z</time>
        <extensions>
          <ns3:TrackPointExtension>
            <ns3:atemp>24.0</ns3:atemp>
            <ns3:hr>135</ns3:hr>
          </ns3:TrackPointExtension>
        </extensions>
      </trkpt>
      <trkpt lat="-22.11944625712931156158447265625" lon="166.45294639281928539276123046875">
        <ele>253.1999969482421875</ele>
        <time>2016-08-12T23:17:50.000Z</time>
        <extensions>
          <ns3:TrackPointExtension>
            <ns3:atemp>24.0</ns3:atemp>
            <ns3:hr>135</ns3:hr>
          </ns3:TrackPointExtension>
        </extensions>
      </trkpt>
      <trkpt lat="-22.1194382943212985992431640625" lon="166.452915966510772705078125">
        <ele>252.8000030517578125</ele>
        <time>2016-08-12T23:17:51.000Z</time>
        <extensions>
          <ns3:TrackPointExtension>
            <ns3:atemp>24.0</ns3:atemp>
            <ns3:hr>134</ns3:hr>
          </ns3:TrackPointExtension>
        </extensions>
      </trkpt>
      <trkpt lat="-22.11942815221846103668212890625" lon="166.45288906060159206390380859375">
        <ele>252.399993896484375</ele>
        <time>2016-08-12T23:17:52.000Z</time>
        <extensions>
          <ns3:TrackPointExtension>
            <ns3:atemp>24.0</ns3:atemp>
            <ns3:hr>134</ns3:hr>
          </ns3:TrackPointExtension>
        </extensions>
      </trkpt>
      <trkpt lat="-22.11942069232463836669921875" lon="166.45286005921661853790283203125">
        <ele>252</ele>
        <time>2016-08-12T23:17:53.000Z</time>
        <extensions>
          <ns3:TrackPointExtension>
            <ns3:atemp>24.0</ns3:atemp>
            <ns3:hr>134</ns3:hr>
          </ns3:TrackPointExtension>
        </extensions>
      </trkpt>
      <trkpt lat="-22.11941876448690891265869140625" lon="166.452833153307437896728515625">
        <ele>251.600006103515625</ele>
        <time>2016-08-12T23:17:54.000Z</time>
        <extensions>
          <ns3:TrackPointExtension>
            <ns3:atemp>24.0</ns3:atemp>
            <ns3:hr>134</ns3:hr>
          </ns3:TrackPointExtension>
        </extensions>
      </trkpt>
      <trkpt lat="-22.11941457353532314300537109375" lon="166.45280758850276470184326171875">
        <ele>251.1999969482421875</ele>
        <time>2016-08-12T23:17:55.000Z</time>
        <extensions>
          <ns3:TrackPointExtension>
            <ns3:atemp>24.0</ns3:atemp>
            <ns3:hr>134</ns3:hr>
          </ns3:TrackPointExtension>
        </extensions>
      </trkpt>
      <trkpt lat="-22.119412310421466827392578125" lon="166.4527805149555206298828125">
        <ele>250.8000030517578125</ele>
        <time>2016-08-12T23:17:56.000Z</time>
        <extensions>
          <ns3:TrackPointExtension>
            <ns3:atemp>24.0</ns3:atemp>
            <ns3:hr>134</ns3:hr>
          </ns3:TrackPointExtension>
        </extensions>
      </trkpt>
      <trkpt lat="-22.119409628212451934814453125" lon="166.45275436341762542724609375">
        <ele>250.600006103515625</ele>
        <time>2016-08-12T23:17:57.000Z</time>
        <extensions>
          <ns3:TrackPointExtension>
            <ns3:atemp>24.0</ns3:atemp>
            <ns3:hr>133</ns3:hr>
          </ns3:TrackPointExtension>
        </extensions>
      </trkpt>
      <trkpt lat="-22.11940753273665904998779296875" lon="166.452726535499095916748046875">
        <ele>250.399993896484375</ele>
        <time>2016-08-12T23:17:58.000Z</time>
        <extensions>
          <ns3:TrackPointExtension>
            <ns3:atemp>24.0</ns3:atemp>
            <ns3:hr>133</ns3:hr>
          </ns3:TrackPointExtension>
        </extensions>
      </trkpt>
      <trkpt lat="-22.11940191686153411865234375" lon="166.45269594155251979827880859375">
        <ele>250</ele>
        <time>2016-08-12T23:17:59.000Z</time>
        <extensions>
          <ns3:TrackPointExtension>
            <ns3:atemp>24.0</ns3:atemp>
            <ns3:hr>133</ns3:hr>
          </ns3:TrackPointExtension>
        </extensions>
      </trkpt>
      <trkpt lat="-22.11939931847155094146728515625" lon="166.452667526900768280029296875">
        <ele>249.8000030517578125</ele>
        <time>2016-08-12T23:18:00.000Z</time>
        <extensions>
          <ns3:TrackPointExtension>
            <ns3:atemp>24.0</ns3:atemp>
            <ns3:hr>132</ns3:hr>
          </ns3:TrackPointExtension>
        </extensions>
      </trkpt>
      <trkpt lat="-22.11939697153866291046142578125" lon="166.4526388607919216156005859375">
        <ele>249.600006103515625</ele>
        <time>2016-08-12T23:18:01.000Z</time>
        <extensions>
          <ns3:TrackPointExtension>
            <ns3:atemp>24.0</ns3:atemp>
            <ns3:hr>132</ns3:hr>
          </ns3:TrackPointExtension>
        </extensions>
      </trkpt>
      <trkpt lat="-22.11939252912998199462890625" lon="166.452607177197933197021484375">
        <ele>249.1999969482421875</ele>
        <time>2016-08-12T23:18:02.000Z</time>
        <extensions>
          <ns3:TrackPointExtension>
            <ns3:atemp>24.0</ns3:atemp>
            <ns3:hr>132</ns3:hr>
          </ns3:TrackPointExtension>
        </extensions>
      </trkpt>
      <trkpt lat="-22.11938909254968166351318359375" lon="166.452579684555530548095703125">
        <ele>248.600006103515625</ele>
        <time>2016-08-12T23:18:03.000Z</time>
        <extensions>
          <ns3:TrackPointExtension>
            <ns3:atemp>24.0</ns3:atemp>
            <ns3:hr>132</ns3:hr>
          </ns3:TrackPointExtension>
        </extensions>
      </trkpt>
      <trkpt lat="-22.119386494159698486328125" lon="166.4525513537228107452392578125">
        <ele>248.600006103515625</ele>
        <time>2016-08-12T23:18:04.000Z</time>
        <extensions>
          <ns3:TrackPointExtension>
            <ns3:atemp>24.0</ns3:atemp>
            <ns3:hr>133</ns3:hr>
          </ns3:TrackPointExtension>
        </extensions>
      </trkpt>
      <trkpt lat="-22.11938255466520786285400390625" lon="166.45252277143299579620361328125">
        <ele>248.1999969482421875</ele>
        <time>2016-08-12T23:18:05.000Z</time>
        <extensions>
          <ns3:TrackPointExtension>
            <ns3:atemp>24.0</ns3:atemp>
            <ns3:hr>132</ns3:hr>
          </ns3:TrackPointExtension>
        </extensions>
      </trkpt>
      <trkpt lat="-22.11937568150460720062255859375" lon="166.4524946920573711395263671875">
        <ele>247.8000030517578125</ele>
        <time>2016-08-12T23:18:06.000Z</time>
        <extensions>
          <ns3:TrackPointExtension>
            <ns3:atemp>24.0</ns3:atemp>
            <ns3:hr>132</ns3:hr>
          </ns3:TrackPointExtension>
        </extensions>
      </trkpt>
      <trkpt lat="-22.119370065629482269287109375" lon="166.4524655230343341827392578125">
        <ele>247.600006103515625</ele>
        <time>2016-08-12T23:18:07.000Z</time>
        <extensions>
          <ns3:TrackPointExtension>
            <ns3:atemp>24.0</ns3:atemp>
            <ns3:hr>132</ns3:hr>
          </ns3:TrackPointExtension>
        </extensions>
      </trkpt>
      <trkpt lat="-22.11936512030661106109619140625" lon="166.45244046114385128021240234375">
        <ele>247.399993896484375</ele>
        <time>2016-08-12T23:18:08.000Z</time>
        <extensions>
          <ns3:TrackPointExtension>
            <ns3:atemp>24.0</ns3:atemp>
            <ns3:hr>132</ns3:hr>
          </ns3:TrackPointExtension>
        </extensions>
      </trkpt>
      <trkpt lat="-22.11936176754534244537353515625" lon="166.4524165727198123931884765625">
        <ele>247</ele>
        <time>2016-08-12T23:18:09.000Z</time>
        <extensions>
          <ns3:TrackPointExtension>
            <ns3:atemp>24.0</ns3:atemp>
            <ns3:hr>132</ns3:hr>
          </ns3:TrackPointExtension>
        </extensions>
      </trkpt>
      <trkpt lat="-22.11935137398540973663330078125" lon="166.45238715223968029022216796875">
        <ele>246.8000030517578125</ele>
        <time>2016-08-12T23:18:10.000Z</time>
        <extensions>
          <ns3:TrackPointExtension>
            <ns3:atemp>24.0</ns3:atemp>
            <ns3:hr>132</ns3:hr>
          </ns3:TrackPointExtension>
        </extensions>
      </trkpt>
      <trkpt lat="-22.11933779530227184295654296875" lon="166.45235965959727764129638671875">
        <ele>246.399993896484375</ele>
        <time>2016-08-12T23:18:11.000Z</time>
        <extensions>
          <ns3:TrackPointExtension>
            <ns3:atemp>24.0</ns3:atemp>
            <ns3:hr>131</ns3:hr>
          </ns3:TrackPointExtension>
        </extensions>
      </trkpt>
      <trkpt lat="-22.11932949721813201904296875" lon="166.45233099348843097686767578125">
        <ele>245.8000030517578125</ele>
        <time>2016-08-12T23:18:12.000Z</time>
        <extensions>
          <ns3:TrackPointExtension>
            <ns3:atemp>24.0</ns3:atemp>
            <ns3:hr>131</ns3:hr>
          </ns3:TrackPointExtension>
        </extensions>
      </trkpt>
      <trkpt lat="-22.11932337842881679534912109375" lon="166.4522978849709033966064453125">
        <ele>245.8000030517578125</ele>
        <time>2016-08-12T23:18:13.000Z</time>
        <extensions>
          <ns3:TrackPointExtension>
            <ns3:atemp>24.0</ns3:atemp>
            <ns3:hr>131</ns3:hr>
          </ns3:TrackPointExtension>
        </extensions>
      </trkpt>
      <trkpt lat="-22.1193180978298187255859375" lon="166.4522687159478664398193359375">
        <ele>245.399993896484375</ele>
        <time>2016-08-12T23:18:14.000Z</time>
        <extensions>
          <ns3:TrackPointExtension>
            <ns3:atemp>24.0</ns3:atemp>
            <ns3:hr>131</ns3:hr>
          </ns3:TrackPointExtension>
        </extensions>
      </trkpt>
      <trkpt lat="-22.11931432597339153289794921875" lon="166.452237702906131744384765625">
        <ele>245</ele>
        <time>2016-08-12T23:18:15.000Z</time>
        <extensions>
          <ns3:TrackPointExtension>
            <ns3:atemp>24.0</ns3:atemp>
            <ns3:hr>130</ns3:hr>
          </ns3:TrackPointExtension>
        </extensions>
      </trkpt>
      <trkpt lat="-22.11930795572698116302490234375" lon="166.45220585167407989501953125">
        <ele>244.8000030517578125</ele>
        <time>2016-08-12T23:18:16.000Z</time>
        <extensions>
          <ns3:TrackPointExtension>
            <ns3:atemp>24.0</ns3:atemp>
            <ns3:hr>131</ns3:hr>
          </ns3:TrackPointExtension>
        </extensions>
      </trkpt>
      <trkpt lat="-22.1193045191466808319091796875" lon="166.45217810757458209991455078125">
        <ele>244.600006103515625</ele>
        <time>2016-08-12T23:18:17.000Z</time>
        <extensions>
          <ns3:TrackPointExtension>
            <ns3:atemp>24.0</ns3:atemp>
            <ns3:hr>131</ns3:hr>
          </ns3:TrackPointExtension>
        </extensions>
      </trkpt>
      <trkpt lat="-22.1193041838705539703369140625" lon="166.45214407704770565032958984375">
        <ele>244</ele>
        <time>2016-08-12T23:18:18.000Z</time>
        <extensions>
          <ns3:TrackPointExtension>
            <ns3:atemp>24.0</ns3:atemp>
            <ns3:hr>131</ns3:hr>
          </ns3:TrackPointExtension>
        </extensions>
      </trkpt>
      <trkpt lat="-22.119306027889251708984375" lon="166.45211675204336643218994140625">
        <ele>243.399993896484375</ele>
        <time>2016-08-12T23:18:19.000Z</time>
        <extensions>
          <ns3:TrackPointExtension>
            <ns3:atemp>24.0</ns3:atemp>
            <ns3:hr>130</ns3:hr>
          </ns3:TrackPointExtension>
        </extensions>
      </trkpt>
      <trkpt lat="-22.1193055249750614166259765625" lon="166.4520923607051372528076171875">
        <ele>242.8000030517578125</ele>
        <time>2016-08-12T23:18:20.000Z</time>
        <extensions>
          <ns3:TrackPointExtension>
            <ns3:atemp>24.0</ns3:atemp>
            <ns3:hr>130</ns3:hr>
          </ns3:TrackPointExtension>
        </extensions>
      </trkpt>
      <trkpt lat="-22.11930795572698116302490234375" lon="166.452064029872417449951171875">
        <ele>242.399993896484375</ele>
        <time>2016-08-12T23:18:21.000Z</time>
        <extensions>
          <ns3:TrackPointExtension>
            <ns3:atemp>24.0</ns3:atemp>
            <ns3:hr>130</ns3:hr>
          </ns3:TrackPointExtension>
        </extensions>
      </trkpt>
      <trkpt lat="-22.11931130848824977874755859375" lon="166.45203712396323680877685546875">
        <ele>242.1999969482421875</ele>
        <time>2016-08-12T23:18:22.000Z</time>
        <extensions>
          <ns3:TrackPointExtension>
            <ns3:atemp>24.0</ns3:atemp>
            <ns3:hr>130</ns3:hr>
          </ns3:TrackPointExtension>
        </extensions>
      </trkpt>
      <trkpt lat="-22.119311057031154632568359375" lon="166.4520088769495487213134765625">
        <ele>242</ele>
        <time>2016-08-12T23:18:23.000Z</time>
        <extensions>
          <ns3:TrackPointExtension>
            <ns3:atemp>24.0</ns3:atemp>
            <ns3:hr>130</ns3:hr>
          </ns3:TrackPointExtension>
        </extensions>
      </trkpt>
      <trkpt lat="-22.11931650526821613311767578125" lon="166.4519838988780975341796875">
        <ele>242</ele>
        <time>2016-08-12T23:18:24.000Z</time>
        <extensions>
          <ns3:TrackPointExtension>
            <ns3:atemp>24.0</ns3:atemp>
            <ns3:hr>130</ns3:hr>
          </ns3:TrackPointExtension>
        </extensions>
      </trkpt>
      <trkpt lat="-22.11932572536170482635498046875" lon="166.45195984281599521636962890625">
        <ele>241.600006103515625</ele>
        <time>2016-08-12T23:18:25.000Z</time>
        <extensions>
          <ns3:TrackPointExtension>
            <ns3:atemp>24.0</ns3:atemp>
            <ns3:hr>130</ns3:hr>
          </ns3:TrackPointExtension>
        </extensions>
      </trkpt>
      <trkpt lat="-22.119325809180736541748046875" lon="166.4519280754029750823974609375">
        <ele>241.399993896484375</ele>
        <time>2016-08-12T23:18:26.000Z</time>
        <extensions>
          <ns3:TrackPointExtension>
            <ns3:atemp>24.0</ns3:atemp>
            <ns3:hr>129</ns3:hr>
          </ns3:TrackPointExtension>
        </extensions>
      </trkpt>
      <trkpt lat="-22.11932572536170482635498046875" lon="166.4518979005515575408935546875">
        <ele>241</ele>
        <time>2016-08-12T23:18:27.000Z</time>
        <extensions>
          <ns3:TrackPointExtension>
            <ns3:atemp>24.0</ns3:atemp>
            <ns3:hr>129</ns3:hr>
          </ns3:TrackPointExtension>
        </extensions>
      </trkpt>
      <trkpt lat="-22.1193283237516880035400390625" lon="166.451869904994964599609375">
        <ele>240.8000030517578125</ele>
        <time>2016-08-12T23:18:28.000Z</time>
        <extensions>
          <ns3:TrackPointExtension>
            <ns3:atemp>24.0</ns3:atemp>
            <ns3:hr>130</ns3:hr>
          </ns3:TrackPointExtension>
        </extensions>
      </trkpt>
      <trkpt lat="-22.119322456419467926025390625" lon="166.451840065419673919677734375">
        <ele>240.600006103515625</ele>
        <time>2016-08-12T23:18:29.000Z</time>
        <extensions>
          <ns3:TrackPointExtension>
            <ns3:atemp>24.0</ns3:atemp>
            <ns3:hr>130</ns3:hr>
          </ns3:TrackPointExtension>
        </extensions>
      </trkpt>
      <trkpt lat="-22.11931918747723102569580078125" lon="166.451811231672763824462890625">
        <ele>240.600006103515625</ele>
        <time>2016-08-12T23:18:30.000Z</time>
        <extensions>
          <ns3:TrackPointExtension>
            <ns3:atemp>24.0</ns3:atemp>
            <ns3:hr>130</ns3:hr>
          </ns3:TrackPointExtension>
        </extensions>
      </trkpt>
      <trkpt lat="-22.11931415833532810211181640625" lon="166.45177963189780712127685546875">
        <ele>240.600006103515625</ele>
        <time>2016-08-12T23:18:31.000Z</time>
        <extensions>
          <ns3:TrackPointExtension>
            <ns3:atemp>24.0</ns3:atemp>
            <ns3:hr>130</ns3:hr>
          </ns3:TrackPointExtension>
        </extensions>
      </trkpt>
      <trkpt lat="-22.1193098835647106170654296875" lon="166.4517517201602458953857421875">
        <ele>240.1999969482421875</ele>
        <time>2016-08-12T23:18:32.000Z</time>
        <extensions>
          <ns3:TrackPointExtension>
            <ns3:atemp>24.0</ns3:atemp>
            <ns3:hr>131</ns3:hr>
          </ns3:TrackPointExtension>
        </extensions>
      </trkpt>
      <trkpt lat="-22.11930091492831707000732421875" lon="166.4517215453088283538818359375">
        <ele>240.1999969482421875</ele>
        <time>2016-08-12T23:18:33.000Z</time>
        <extensions>
          <ns3:TrackPointExtension>
            <ns3:atemp>24.0</ns3:atemp>
            <ns3:hr>131</ns3:hr>
          </ns3:TrackPointExtension>
        </extensions>
      </trkpt>
      <trkpt lat="-22.11928817443549633026123046875" lon="166.4516927115619182586669921875">
        <ele>239.600006103515625</ele>
        <time>2016-08-12T23:18:34.000Z</time>
        <extensions>
          <ns3:TrackPointExtension>
            <ns3:atemp>24.0</ns3:atemp>
            <ns3:hr>131</ns3:hr>
          </ns3:TrackPointExtension>
        </extensions>
      </trkpt>
      <trkpt lat="-22.11927778087556362152099609375" lon="166.45166429691016674041748046875">
        <ele>239.600006103515625</ele>
        <time>2016-08-12T23:18:35.000Z</time>
        <extensions>
          <ns3:TrackPointExtension>
            <ns3:atemp>24.0</ns3:atemp>
            <ns3:hr>131</ns3:hr>
          </ns3:TrackPointExtension>
        </extensions>
      </trkpt>
      <trkpt lat="-22.1192657947540283203125" lon="166.4516325294971466064453125">
        <ele>239.600006103515625</ele>
        <time>2016-08-12T23:18:36.000Z</time>
        <extensions>
          <ns3:TrackPointExtension>
            <ns3:atemp>24.0</ns3:atemp>
            <ns3:hr>131</ns3:hr>
          </ns3:TrackPointExtension>
        </extensions>
      </trkpt>
      <trkpt lat="-22.1192510426044464111328125" lon="166.451598666608333587646484375">
        <ele>239.399993896484375</ele>
        <time>2016-08-12T23:18:37.000Z</time>
        <extensions>
          <ns3:TrackPointExtension>
            <ns3:atemp>24.0</ns3:atemp>
            <ns3:hr>131</ns3:hr>
          </ns3:TrackPointExtension>
        </extensions>
      </trkpt>
      <trkpt lat="-22.11923637427389621734619140625" lon="166.4515676535665988922119140625">
        <ele>239.399993896484375</ele>
        <time>2016-08-12T23:18:38.000Z</time>
        <extensions>
          <ns3:TrackPointExtension>
            <ns3:atemp>24.0</ns3:atemp>
            <ns3:hr>131</ns3:hr>
          </ns3:TrackPointExtension>
        </extensions>
      </trkpt>
      <trkpt lat="-22.11922782473266124725341796875" lon="166.451536975800991058349609375">
        <ele>239.1999969482421875</ele>
        <time>2016-08-12T23:18:39.000Z</time>
        <extensions>
          <ns3:TrackPointExtension>
            <ns3:atemp>24.0</ns3:atemp>
            <ns3:hr>131</ns3:hr>
          </ns3:TrackPointExtension>
        </extensions>
      </trkpt>
      <trkpt lat="-22.11921005509793758392333984375" lon="166.4515096507966518402099609375">
        <ele>239</ele>
        <time>2016-08-12T23:18:40.000Z</time>
        <extensions>
          <ns3:TrackPointExtension>
            <ns3:atemp>24.0</ns3:atemp>
            <ns3:hr>131</ns3:hr>
          </ns3:TrackPointExtension>
        </extensions>
      </trkpt>
      <trkpt lat="-22.1191947162151336669921875" lon="166.4514818228781223297119140625">
        <ele>238.399993896484375</ele>
        <time>2016-08-12T23:18:41.000Z</time>
        <extensions>
          <ns3:TrackPointExtension>
            <ns3:atemp>24.0</ns3:atemp>
            <ns3:hr>131</ns3:hr>
          </ns3:TrackPointExtension>
        </extensions>
      </trkpt>
      <trkpt lat="-22.1191784553229808807373046875" lon="166.45145039074122905731201171875">
        <ele>238</ele>
        <time>2016-08-12T23:18:42.000Z</time>
        <extensions>
          <ns3:TrackPointExtension>
            <ns3:atemp>24.0</ns3:atemp>
            <ns3:hr>131</ns3:hr>
          </ns3:TrackPointExtension>
        </extensions>
      </trkpt>
      <trkpt lat="-22.11915842257440090179443359375" lon="166.4514218084514141082763671875">
        <ele>238</ele>
        <time>2016-08-12T23:18:43.000Z</time>
        <extensions>
          <ns3:TrackPointExtension>
            <ns3:atemp>24.0</ns3:atemp>
            <ns3:hr>130</ns3:hr>
          </ns3:TrackPointExtension>
        </extensions>
      </trkpt>
      <trkpt lat="-22.1191402338445186614990234375" lon="166.451392136514186859130859375">
        <ele>237.600006103515625</ele>
        <time>2016-08-12T23:18:44.000Z</time>
        <extensions>
          <ns3:TrackPointExtension>
            <ns3:atemp>24.0</ns3:atemp>
            <ns3:hr>130</ns3:hr>
          </ns3:TrackPointExtension>
        </extensions>
      </trkpt>
      <trkpt lat="-22.11912631988525390625" lon="166.451361291110515594482421875">
        <ele>237.1999969482421875</ele>
        <time>2016-08-12T23:18:45.000Z</time>
        <extensions>
          <ns3:TrackPointExtension>
            <ns3:atemp>24.0</ns3:atemp>
            <ns3:hr>130</ns3:hr>
          </ns3:TrackPointExtension>
        </extensions>
      </trkpt>
      <trkpt lat="-22.1191134117543697357177734375" lon="166.451335139572620391845703125">
        <ele>237.1999969482421875</ele>
        <time>2016-08-12T23:18:46.000Z</time>
        <extensions>
          <ns3:TrackPointExtension>
            <ns3:atemp>24.0</ns3:atemp>
            <ns3:hr>130</ns3:hr>
          </ns3:TrackPointExtension>
        </extensions>
      </trkpt>
      <trkpt lat="-22.1190996654331684112548828125" lon="166.4513058029115200042724609375">
        <ele>237.1999969482421875</ele>
        <time>2016-08-12T23:18:47.000Z</time>
        <extensions>
          <ns3:TrackPointExtension>
            <ns3:atemp>24.0</ns3:atemp>
            <ns3:hr>131</ns3:hr>
          </ns3:TrackPointExtension>
        </extensions>
      </trkpt>
      <trkpt lat="-22.11908566765487194061279296875" lon="166.45127738825976848602294921875">
        <ele>236.8000030517578125</ele>
        <time>2016-08-12T23:18:48.000Z</time>
        <extensions>
          <ns3:TrackPointExtension>
            <ns3:atemp>24.0</ns3:atemp>
            <ns3:hr>130</ns3:hr>
          </ns3:TrackPointExtension>
        </extensions>
      </trkpt>
      <trkpt lat="-22.1190701611340045928955078125" lon="166.45125073380768299102783203125">
        <ele>236.1999969482421875</ele>
        <time>2016-08-12T23:18:49.000Z</time>
        <extensions>
          <ns3:TrackPointExtension>
            <ns3:atemp>24.0</ns3:atemp>
            <ns3:hr>131</ns3:hr>
          </ns3:TrackPointExtension>
        </extensions>
      </trkpt>
      <trkpt lat="-22.11905750446021556854248046875" lon="166.45122106187045574188232421875">
        <ele>236.1999969482421875</ele>
        <time>2016-08-12T23:18:50.000Z</time>
        <extensions>
          <ns3:TrackPointExtension>
            <ns3:atemp>24.0</ns3:atemp>
            <ns3:hr>130</ns3:hr>
          </ns3:TrackPointExtension>
        </extensions>
      </trkpt>
      <trkpt lat="-22.119043171405792236328125" lon="166.4511968381702899932861328125">
        <ele>235.8000030517578125</ele>
        <time>2016-08-12T23:18:51.000Z</time>
        <extensions>
          <ns3:TrackPointExtension>
            <ns3:atemp>24.0</ns3:atemp>
            <ns3:hr>130</ns3:hr>
          </ns3:TrackPointExtension>
        </extensions>
      </trkpt>
      <trkpt lat="-22.11903520859777927398681640625" lon="166.4511669985949993133544921875">
        <ele>235.600006103515625</ele>
        <time>2016-08-12T23:18:52.000Z</time>
        <extensions>
          <ns3:TrackPointExtension>
            <ns3:atemp>24.0</ns3:atemp>
            <ns3:hr>130</ns3:hr>
          </ns3:TrackPointExtension>
        </extensions>
      </trkpt>
      <trkpt lat="-22.1190289221704006195068359375" lon="166.45113875158131122589111328125">
        <ele>235.399993896484375</ele>
        <time>2016-08-12T23:18:53.000Z</time>
        <extensions>
          <ns3:TrackPointExtension>
            <ns3:atemp>24.0</ns3:atemp>
            <ns3:hr>131</ns3:hr>
          </ns3:TrackPointExtension>
        </extensions>
      </trkpt>
      <trkpt lat="-22.1190202049911022186279296875" lon="166.45111343823373317718505859375">
        <ele>235.1999969482421875</ele>
        <time>2016-08-12T23:18:54.000Z</time>
        <extensions>
          <ns3:TrackPointExtension>
            <ns3:atemp>24.0</ns3:atemp>
            <ns3:hr>131</ns3:hr>
          </ns3:TrackPointExtension>
        </extensions>
      </trkpt>
      <trkpt lat="-22.11901207454502582550048828125" lon="166.45108711905777454376220703125">
        <ele>235</ele>
        <time>2016-08-12T23:18:55.000Z</time>
        <extensions>
          <ns3:TrackPointExtension>
            <ns3:atemp>24.0</ns3:atemp>
            <ns3:hr>130</ns3:hr>
          </ns3:TrackPointExtension>
        </extensions>
      </trkpt>
      <trkpt lat="-22.11900897324085235595703125" lon="166.4510585367679595947265625">
        <ele>234.600006103515625</ele>
        <time>2016-08-12T23:18:56.000Z</time>
        <extensions>
          <ns3:TrackPointExtension>
            <ns3:atemp>24.0</ns3:atemp>
            <ns3:hr>130</ns3:hr>
          </ns3:TrackPointExtension>
        </extensions>
      </trkpt>
      <trkpt lat="-22.11900067515671253204345703125" lon="166.45103230141103267669677734375">
        <ele>234.600006103515625</ele>
        <time>2016-08-12T23:18:57.000Z</time>
        <extensions>
          <ns3:TrackPointExtension>
            <ns3:atemp>24.0</ns3:atemp>
            <ns3:hr>130</ns3:hr>
          </ns3:TrackPointExtension>
        </extensions>
      </trkpt>
      <trkpt lat="-22.1189964003860950469970703125" lon="166.451003551483154296875">
        <ele>234.600006103515625</ele>
        <time>2016-08-12T23:18:58.000Z</time>
        <extensions>
          <ns3:TrackPointExtension>
            <ns3:atemp>24.0</ns3:atemp>
            <ns3:hr>131</ns3:hr>
          </ns3:TrackPointExtension>
        </extensions>
      </trkpt>
      <trkpt lat="-22.1189910359680652618408203125" lon="166.4509775675833225250244140625">
        <ele>234.600006103515625</ele>
        <time>2016-08-12T23:18:59.000Z</time>
        <extensions>
          <ns3:TrackPointExtension>
            <ns3:atemp>24.0</ns3:atemp>
            <ns3:hr>131</ns3:hr>
          </ns3:TrackPointExtension>
        </extensions>
      </trkpt>
      <trkpt lat="-22.118983156979084014892578125" lon="166.45095200277864933013916015625">
        <ele>234.1999969482421875</ele>
        <time>2016-08-12T23:19:00.000Z</time>
        <extensions>
          <ns3:TrackPointExtension>
            <ns3:atemp>24.0</ns3:atemp>
            <ns3:hr>131</ns3:hr>
          </ns3:TrackPointExtension>
        </extensions>
      </trkpt>
      <trkpt lat="-22.11897167377173900604248046875" lon="166.4509244263172149658203125">
        <ele>234.1999969482421875</ele>
        <time>2016-08-12T23:19:01.000Z</time>
        <extensions>
          <ns3:TrackPointExtension>
            <ns3:atemp>24.0</ns3:atemp>
            <ns3:hr>131</ns3:hr>
          </ns3:TrackPointExtension>
        </extensions>
      </trkpt>
      <trkpt lat="-22.1189586818218231201171875" lon="166.450895927846431732177734375">
        <ele>234</ele>
        <time>2016-08-12T23:19:02.000Z</time>
        <extensions>
          <ns3:TrackPointExtension>
            <ns3:atemp>24.0</ns3:atemp>
            <ns3:hr>131</ns3:hr>
          </ns3:TrackPointExtension>
        </extensions>
      </trkpt>
      <trkpt lat="-22.11894585750997066497802734375" lon="166.4508632384240627288818359375">
        <ele>234</ele>
        <time>2016-08-12T23:19:03.000Z</time>
        <extensions>
          <ns3:TrackPointExtension>
            <ns3:atemp>24.0</ns3:atemp>
            <ns3:hr>131</ns3:hr>
          </ns3:TrackPointExtension>
        </extensions>
      </trkpt>
      <trkpt lat="-22.1189290098845958709716796875" lon="166.45083214156329631805419921875">
        <ele>233.8000030517578125</ele>
        <time>2016-08-12T23:19:04.000Z</time>
        <extensions>
          <ns3:TrackPointExtension>
            <ns3:atemp>24.0</ns3:atemp>
            <ns3:hr>131</ns3:hr>
          </ns3:TrackPointExtension>
        </extensions>
      </trkpt>
      <trkpt lat="-22.1189202927052974700927734375" lon="166.45080515183508396148681640625">
        <ele>233.399993896484375</ele>
        <time>2016-08-12T23:19:05.000Z</time>
        <extensions>
          <ns3:TrackPointExtension>
            <ns3:atemp>24.0</ns3:atemp>
            <ns3:hr>131</ns3:hr>
          </ns3:TrackPointExtension>
        </extensions>
      </trkpt>
      <trkpt lat="-22.11890302598476409912109375" lon="166.45077715627849102020263671875">
        <ele>233</ele>
        <time>2016-08-12T23:19:06.000Z</time>
        <extensions>
          <ns3:TrackPointExtension>
            <ns3:atemp>24.0</ns3:atemp>
            <ns3:hr>131</ns3:hr>
          </ns3:TrackPointExtension>
        </extensions>
      </trkpt>
      <trkpt lat="-22.11888433434069156646728515625" lon="166.450754441320896148681640625">
        <ele>232.8000030517578125</ele>
        <time>2016-08-12T23:19:07.000Z</time>
        <extensions>
          <ns3:TrackPointExtension>
            <ns3:atemp>24.0</ns3:atemp>
            <ns3:hr>131</ns3:hr>
          </ns3:TrackPointExtension>
        </extensions>
      </trkpt>
      <trkpt lat="-22.1188646368682384490966796875" lon="166.45073407329618930816650390625">
        <ele>232.399993896484375</ele>
        <time>2016-08-12T23:19:08.000Z</time>
        <extensions>
          <ns3:TrackPointExtension>
            <ns3:atemp>24.0</ns3:atemp>
            <ns3:hr>131</ns3:hr>
          </ns3:TrackPointExtension>
        </extensions>
      </trkpt>
      <trkpt lat="-22.1188448555767536163330078125" lon="166.450718902051448822021484375">
        <ele>232</ele>
        <time>2016-08-12T23:19:09.000Z</time>
        <extensions>
          <ns3:TrackPointExtension>
            <ns3:atemp>24.0</ns3:atemp>
            <ns3:hr>131</ns3:hr>
          </ns3:TrackPointExtension>
        </extensions>
      </trkpt>
      <trkpt lat="-22.11882264353334903717041015625" lon="166.4507080055773258209228515625">
        <ele>232.1999969482421875</ele>
        <time>2016-08-12T23:19:10.000Z</time>
        <extensions>
          <ns3:TrackPointExtension>
            <ns3:atemp>24.0</ns3:atemp>
            <ns3:hr>131</ns3:hr>
          </ns3:TrackPointExtension>
        </extensions>
      </trkpt>
      <trkpt lat="-22.1187982521951198577880859375" lon="166.45069979131221771240234375">
        <ele>231.8000030517578125</ele>
        <time>2016-08-12T23:19:11.000Z</time>
        <extensions>
          <ns3:TrackPointExtension>
            <ns3:atemp>24.0</ns3:atemp>
            <ns3:hr>131</ns3:hr>
          </ns3:TrackPointExtension>
        </extensions>
      </trkpt>
      <trkpt lat="-22.11877754889428615570068359375" lon="166.45069719292223453521728515625">
        <ele>231.8000030517578125</ele>
        <time>2016-08-12T23:19:12.000Z</time>
        <extensions>
          <ns3:TrackPointExtension>
            <ns3:atemp>24.0</ns3:atemp>
            <ns3:hr>131</ns3:hr>
          </ns3:TrackPointExtension>
        </extensions>
      </trkpt>
      <trkpt lat="-22.118740081787109375" lon="166.4506919123232364654541015625">
        <ele>231.8000030517578125</ele>
        <time>2016-08-12T23:19:13.000Z</time>
        <extensions>
          <ns3:TrackPointExtension>
            <ns3:atemp>24.0</ns3:atemp>
            <ns3:hr>131</ns3:hr>
          </ns3:TrackPointExtension>
        </extensions>
      </trkpt>
      <trkpt lat="-22.11869926191866397857666015625" lon="166.450689733028411865234375">
        <ele>231.600006103515625</ele>
        <time>2016-08-12T23:19:14.000Z</time>
        <extensions>
          <ns3:TrackPointExtension>
            <ns3:atemp>24.0</ns3:atemp>
            <ns3:hr>131</ns3:hr>
          </ns3:TrackPointExtension>
        </extensions>
      </trkpt>
      <trkpt lat="-22.1186762116849422454833984375" lon="166.45068998448550701141357421875">
        <ele>231.399993896484375</ele>
        <time>2016-08-12T23:19:15.000Z</time>
        <extensions>
          <ns3:TrackPointExtension>
            <ns3:atemp>24.0</ns3:atemp>
            <ns3:hr>131</ns3:hr>
          </ns3:TrackPointExtension>
        </extensions>
      </trkpt>
      <trkpt lat="-22.11864260025322437286376953125" lon="166.45068948157131671905517578125">
        <ele>231.1999969482421875</ele>
        <time>2016-08-12T23:19:16.000Z</time>
        <extensions>
          <ns3:TrackPointExtension>
            <ns3:atemp>24.0</ns3:atemp>
            <ns3:hr>131</ns3:hr>
          </ns3:TrackPointExtension>
        </extensions>
      </trkpt>
      <trkpt lat="-22.11859784089028835296630859375" lon="166.4506919123232364654541015625">
        <ele>230.8000030517578125</ele>
        <time>2016-08-12T23:19:17.000Z</time>
        <extensions>
          <ns3:TrackPointExtension>
            <ns3:atemp>24.0</ns3:atemp>
            <ns3:hr>131</ns3:hr>
          </ns3:TrackPointExtension>
        </extensions>
      </trkpt>
      <trkpt lat="-22.11855811066925525665283203125" lon="166.45069249905645847320556640625">
        <ele>230.8000030517578125</ele>
        <time>2016-08-12T23:19:18.000Z</time>
        <extensions>
          <ns3:TrackPointExtension>
            <ns3:atemp>24.0</ns3:atemp>
            <ns3:hr>131</ns3:hr>
          </ns3:TrackPointExtension>
        </extensions>
      </trkpt>
      <trkpt lat="-22.1185134351253509521484375" lon="166.45069031976163387298583984375">
        <ele>230.399993896484375</ele>
        <time>2016-08-12T23:19:19.000Z</time>
        <extensions>
          <ns3:TrackPointExtension>
            <ns3:atemp>24.0</ns3:atemp>
            <ns3:hr>131</ns3:hr>
          </ns3:TrackPointExtension>
        </extensions>
      </trkpt>
      <trkpt lat="-22.11847831495106220245361328125" lon="166.4506909064948558807373046875">
        <ele>230.1999969482421875</ele>
        <time>2016-08-12T23:19:20.000Z</time>
        <extensions>
          <ns3:TrackPointExtension>
            <ns3:atemp>24.0</ns3:atemp>
            <ns3:hr>132</ns3:hr>
          </ns3:TrackPointExtension>
        </extensions>
      </trkpt>
      <trkpt lat="-22.11845643818378448486328125" lon="166.450691409409046173095703125">
        <ele>230.1999969482421875</ele>
        <time>2016-08-12T23:19:21.000Z</time>
        <extensions>
          <ns3:TrackPointExtension>
            <ns3:atemp>24.0</ns3:atemp>
            <ns3:hr>131</ns3:hr>
          </ns3:TrackPointExtension>
        </extensions>
      </trkpt>
      <trkpt lat="-22.1184317953884601593017578125" lon="166.4506909064948558807373046875">
        <ele>230.1999969482421875</ele>
        <time>2016-08-12T23:19:22.000Z</time>
        <extensions>
          <ns3:TrackPointExtension>
            <ns3:atemp>24.0</ns3:atemp>
            <ns3:hr>132</ns3:hr>
          </ns3:TrackPointExtension>
        </extensions>
      </trkpt>
      <trkpt lat="-22.118397094309329986572265625" lon="166.45069333724677562713623046875">
        <ele>229.600006103515625</ele>
        <time>2016-08-12T23:19:23.000Z</time>
        <extensions>
          <ns3:TrackPointExtension>
            <ns3:atemp>24.0</ns3:atemp>
            <ns3:hr>132</ns3:hr>
          </ns3:TrackPointExtension>
        </extensions>
      </trkpt>
      <trkpt lat="-22.1183536760509014129638671875" lon="166.4506952650845050811767578125">
        <ele>229.1999969482421875</ele>
        <time>2016-08-12T23:19:24.000Z</time>
        <extensions>
          <ns3:TrackPointExtension>
            <ns3:atemp>24.0</ns3:atemp>
            <ns3:hr>132</ns3:hr>
          </ns3:TrackPointExtension>
        </extensions>
      </trkpt>
      <trkpt lat="-22.11832090280950069427490234375" lon="166.45069434307515621185302734375">
        <ele>229.1999969482421875</ele>
        <time>2016-08-12T23:19:25.000Z</time>
        <extensions>
          <ns3:TrackPointExtension>
            <ns3:atemp>24.0</ns3:atemp>
            <ns3:hr>132</ns3:hr>
          </ns3:TrackPointExtension>
        </extensions>
      </trkpt>
      <trkpt lat="-22.1182899735867977142333984375" lon="166.4506924152374267578125">
        <ele>229.1999969482421875</ele>
        <time>2016-08-12T23:19:26.000Z</time>
        <extensions>
          <ns3:TrackPointExtension>
            <ns3:atemp>24.0</ns3:atemp>
            <ns3:hr>132</ns3:hr>
          </ns3:TrackPointExtension>
        </extensions>
      </trkpt>
      <trkpt lat="-22.11826524697244167327880859375" lon="166.450688727200031280517578125">
        <ele>229.1999969482421875</ele>
        <time>2016-08-12T23:19:27.000Z</time>
        <extensions>
          <ns3:TrackPointExtension>
            <ns3:atemp>24.0</ns3:atemp>
            <ns3:hr>131</ns3:hr>
          </ns3:TrackPointExtension>
        </extensions>
      </trkpt>
      <trkpt lat="-22.11823792196810245513916015625" lon="166.45068277604877948760986328125">
        <ele>229.1999969482421875</ele>
        <time>2016-08-12T23:19:28.000Z</time>
        <extensions>
          <ns3:TrackPointExtension>
            <ns3:atemp>24.0</ns3:atemp>
            <ns3:hr>131</ns3:hr>
          </ns3:TrackPointExtension>
        </extensions>
      </trkpt>
      <trkpt lat="-22.11821864359080791473388671875" lon="166.45068076439201831817626953125">
        <ele>229.399993896484375</ele>
        <time>2016-08-12T23:19:29.000Z</time>
        <extensions>
          <ns3:TrackPointExtension>
            <ns3:atemp>24.0</ns3:atemp>
            <ns3:hr>131</ns3:hr>
          </ns3:TrackPointExtension>
        </extensions>
      </trkpt>
      <trkpt lat="-22.1181987784802913665771484375" lon="166.450679004192352294921875">
        <ele>229.399993896484375</ele>
        <time>2016-08-12T23:19:30.000Z</time>
        <extensions>
          <ns3:TrackPointExtension>
            <ns3:atemp>24.0</ns3:atemp>
            <ns3:hr>130</ns3:hr>
          </ns3:TrackPointExtension>
        </extensions>
      </trkpt>
      <trkpt lat="-22.11818411014974117279052734375" lon="166.45068109966814517974853515625">
        <ele>229.399993896484375</ele>
        <time>2016-08-12T23:19:31.000Z</time>
        <extensions>
          <ns3:TrackPointExtension>
            <ns3:atemp>24.0</ns3:atemp>
            <ns3:hr>129</ns3:hr>
          </ns3:TrackPointExtension>
        </extensions>
      </trkpt>
      <trkpt lat="-22.11817338131368160247802734375" lon="166.4506838656961917877197265625">
        <ele>229.399993896484375</ele>
        <time>2016-08-12T23:19:32.000Z</time>
        <extensions>
          <ns3:TrackPointExtension>
            <ns3:atemp>24.0</ns3:atemp>
            <ns3:hr>129</ns3:hr>
          </ns3:TrackPointExtension>
        </extensions>
      </trkpt>
      <trkpt lat="-22.11816516704857349395751953125" lon="166.45068981684744358062744140625">
        <ele>229.1999969482421875</ele>
        <time>2016-08-12T23:19:33.000Z</time>
        <extensions>
          <ns3:TrackPointExtension>
            <ns3:atemp>24.0</ns3:atemp>
            <ns3:hr>129</ns3:hr>
          </ns3:TrackPointExtension>
        </extensions>
      </trkpt>
      <trkpt lat="-22.11816717870533466339111328125" lon="166.450698114931583404541015625">
        <ele>229.1999969482421875</ele>
        <time>2016-08-12T23:19:34.000Z</time>
        <extensions>
          <ns3:TrackPointExtension>
            <ns3:atemp>24.0</ns3:atemp>
            <ns3:hr>128</ns3:hr>
          </ns3:TrackPointExtension>
        </extensions>
      </trkpt>
      <trkpt lat="-22.11817673407495021820068359375" lon="166.45070138387382030487060546875">
        <ele>229</ele>
        <time>2016-08-12T23:19:35.000Z</time>
        <extensions>
          <ns3:TrackPointExtension>
            <ns3:atemp>24.0</ns3:atemp>
            <ns3:hr>128</ns3:hr>
          </ns3:TrackPointExtension>
        </extensions>
      </trkpt>
      <trkpt lat="-22.11817522533237934112548828125" lon="166.450704820454120635986328125">
        <ele>228.8000030517578125</ele>
        <time>2016-08-12T23:19:36.000Z</time>
        <extensions>
          <ns3:TrackPointExtension>
            <ns3:atemp>24.0</ns3:atemp>
            <ns3:hr>128</ns3:hr>
          </ns3:TrackPointExtension>
        </extensions>
      </trkpt>
      <trkpt lat="-22.11818310432136058807373046875" lon="166.45070926286280155181884765625">
        <ele>228.8000030517578125</ele>
        <time>2016-08-12T23:19:37.000Z</time>
        <extensions>
          <ns3:TrackPointExtension>
            <ns3:atemp>24.0</ns3:atemp>
            <ns3:hr>128</ns3:hr>
          </ns3:TrackPointExtension>
        </extensions>
      </trkpt>
      <trkpt lat="-22.1181950904428958892822265625" lon="166.45071328617632389068603515625">
        <ele>228.600006103515625</ele>
        <time>2016-08-12T23:19:38.000Z</time>
        <extensions>
          <ns3:TrackPointExtension>
            <ns3:atemp>24.0</ns3:atemp>
            <ns3:hr>129</ns3:hr>
          </ns3:TrackPointExtension>
        </extensions>
      </trkpt>
      <trkpt lat="-22.11819383315742015838623046875" lon="166.4507126994431018829345703125">
        <ele>228.399993896484375</ele>
        <time>2016-08-12T23:19:39.000Z</time>
        <extensions>
          <ns3:TrackPointExtension>
            <ns3:atemp>24.0</ns3:atemp>
            <ns3:hr>129</ns3:hr>
          </ns3:TrackPointExtension>
        </extensions>
      </trkpt>
      <trkpt lat="-22.11818687617778778076171875" lon="166.45071186125278472900390625">
        <ele>227.399993896484375</ele>
        <time>2016-08-12T23:19:40.000Z</time>
        <extensions>
          <ns3:TrackPointExtension>
            <ns3:atemp>24.0</ns3:atemp>
            <ns3:hr>129</ns3:hr>
          </ns3:TrackPointExtension>
        </extensions>
      </trkpt>
      <trkpt lat="-22.118175812065601348876953125" lon="166.450730971992015838623046875">
        <ele>226</ele>
        <time>2016-08-12T23:19:41.000Z</time>
        <extensions>
          <ns3:TrackPointExtension>
            <ns3:atemp>24.0</ns3:atemp>
            <ns3:hr>130</ns3:hr>
          </ns3:TrackPointExtension>
        </extensions>
      </trkpt>
      <trkpt lat="-22.118178494274616241455078125" lon="166.450726278126239776611328125">
        <ele>225.399993896484375</ele>
        <time>2016-08-12T23:19:42.000Z</time>
        <extensions>
          <ns3:TrackPointExtension>
            <ns3:atemp>24.0</ns3:atemp>
            <ns3:hr>130</ns3:hr>
          </ns3:TrackPointExtension>
        </extensions>
      </trkpt>
      <trkpt lat="-22.11816164664924144744873046875" lon="166.4507281221449375152587890625">
        <ele>226.1999969482421875</ele>
        <time>2016-08-12T23:19:43.000Z</time>
        <extensions>
          <ns3:TrackPointExtension>
            <ns3:atemp>24.0</ns3:atemp>
            <ns3:hr>131</ns3:hr>
          </ns3:TrackPointExtension>
        </extensions>
      </trkpt>
      <trkpt lat="-22.11816315539181232452392578125" lon="166.45072099752724170684814453125">
        <ele>226.8000030517578125</ele>
        <time>2016-08-12T23:19:44.000Z</time>
        <extensions>
          <ns3:TrackPointExtension>
            <ns3:atemp>24.0</ns3:atemp>
            <ns3:hr>131</ns3:hr>
          </ns3:TrackPointExtension>
        </extensions>
      </trkpt>
      <trkpt lat="-22.1181565336883068084716796875" lon="166.45071110688149929046630859375">
        <ele>226.1999969482421875</ele>
        <time>2016-08-12T23:19:45.000Z</time>
        <extensions>
          <ns3:TrackPointExtension>
            <ns3:atemp>24.0</ns3:atemp>
            <ns3:hr>132</ns3:hr>
          </ns3:TrackPointExtension>
        </extensions>
      </trkpt>
      <trkpt lat="-22.11814270354807376861572265625" lon="166.4507059939205646514892578125">
        <ele>224.1999969482421875</ele>
        <time>2016-08-12T23:19:46.000Z</time>
        <extensions>
          <ns3:TrackPointExtension>
            <ns3:atemp>24.0</ns3:atemp>
            <ns3:hr>132</ns3:hr>
          </ns3:TrackPointExtension>
        </extensions>
      </trkpt>
      <trkpt lat="-22.1181323938071727752685546875" lon="166.45069769583642482757568359375">
        <ele>223</ele>
        <time>2016-08-12T23:19:47.000Z</time>
        <extensions>
          <ns3:TrackPointExtension>
            <ns3:atemp>24.0</ns3:atemp>
            <ns3:hr>132</ns3:hr>
          </ns3:TrackPointExtension>
        </extensions>
      </trkpt>
      <trkpt lat="-22.11813951842486858367919921875" lon="166.45068495534360408782958984375">
        <ele>222.600006103515625</ele>
        <time>2016-08-12T23:19:48.000Z</time>
        <extensions>
          <ns3:TrackPointExtension>
            <ns3:atemp>24.0</ns3:atemp>
            <ns3:hr>132</ns3:hr>
          </ns3:TrackPointExtension>
        </extensions>
      </trkpt>
      <trkpt lat="-22.11811688728630542755126953125" lon="166.45066701807081699371337890625">
        <ele>223</ele>
        <time>2016-08-12T23:19:49.000Z</time>
        <extensions>
          <ns3:TrackPointExtension>
            <ns3:atemp>24.0</ns3:atemp>
            <ns3:hr>133</ns3:hr>
          </ns3:TrackPointExtension>
        </extensions>
      </trkpt>
      <trkpt lat="-22.1181384287774562835693359375" lon="166.450630389153957366943359375">
        <ele>224.399993896484375</ele>
        <time>2016-08-12T23:19:50.000Z</time>
        <extensions>
          <ns3:TrackPointExtension>
            <ns3:atemp>24.0</ns3:atemp>
            <ns3:hr>132</ns3:hr>
          </ns3:TrackPointExtension>
        </extensions>
      </trkpt>
      <trkpt lat="-22.11814806796610355377197265625" lon="166.450594179332256317138671875">
        <ele>225.8000030517578125</ele>
        <time>2016-08-12T23:19:51.000Z</time>
        <extensions>
          <ns3:TrackPointExtension>
            <ns3:atemp>24.0</ns3:atemp>
            <ns3:hr>132</ns3:hr>
          </ns3:TrackPointExtension>
        </extensions>
      </trkpt>
      <trkpt lat="-22.11816407740116119384765625" lon="166.45057196728885173797607421875">
        <ele>227</ele>
        <time>2016-08-12T23:19:52.000Z</time>
        <extensions>
          <ns3:TrackPointExtension>
            <ns3:atemp>24.0</ns3:atemp>
            <ns3:hr>131</ns3:hr>
          </ns3:TrackPointExtension>
        </extensions>
      </trkpt>
      <trkpt lat="-22.11820674128830432891845703125" lon="166.450559981167316436767578125">
        <ele>226.1999969482421875</ele>
        <time>2016-08-12T23:19:53.000Z</time>
        <extensions>
          <ns3:TrackPointExtension>
            <ns3:atemp>24.0</ns3:atemp>
            <ns3:hr>131</ns3:hr>
          </ns3:TrackPointExtension>
        </extensions>
      </trkpt>
      <trkpt lat="-22.11823356337845325469970703125" lon="166.45054422318935394287109375">
        <ele>226</ele>
        <time>2016-08-12T23:19:54.000Z</time>
        <extensions>
          <ns3:TrackPointExtension>
            <ns3:atemp>24.0</ns3:atemp>
            <ns3:hr>131</ns3:hr>
          </ns3:TrackPointExtension>
        </extensions>
      </trkpt>
      <trkpt lat="-22.1182514168322086334228515625" lon="166.45053173415362834930419921875">
        <ele>225.600006103515625</ele>
        <time>2016-08-12T23:19:55.000Z</time>
        <extensions>
          <ns3:TrackPointExtension>
            <ns3:atemp>24.0</ns3:atemp>
            <ns3:hr>130</ns3:hr>
          </ns3:TrackPointExtension>
        </extensions>
      </trkpt>
      <trkpt lat="-22.11827949620783329010009765625" lon="166.4505219273269176483154296875">
        <ele>225</ele>
        <time>2016-08-12T23:19:56.000Z</time>
        <extensions>
          <ns3:TrackPointExtension>
            <ns3:atemp>24.0</ns3:atemp>
            <ns3:hr>130</ns3:hr>
          </ns3:TrackPointExtension>
        </extensions>
      </trkpt>
      <trkpt lat="-22.118299193680286407470703125" lon="166.45051245577633380889892578125">
        <ele>225.1999969482421875</ele>
        <time>2016-08-12T23:19:57.000Z</time>
        <extensions>
          <ns3:TrackPointExtension>
            <ns3:atemp>24.0</ns3:atemp>
            <ns3:hr>130</ns3:hr>
          </ns3:TrackPointExtension>
        </extensions>
      </trkpt>
      <trkpt lat="-22.11832702159881591796875" lon="166.45050206221640110015869140625">
        <ele>224.8000030517578125</ele>
        <time>2016-08-12T23:19:58.000Z</time>
        <extensions>
          <ns3:TrackPointExtension>
            <ns3:atemp>24.0</ns3:atemp>
            <ns3:hr>130</ns3:hr>
          </ns3:TrackPointExtension>
        </extensions>
      </trkpt>
      <trkpt lat="-22.1183550171554088592529296875" lon="166.45049653016030788421630859375">
        <ele>224.8000030517578125</ele>
        <time>2016-08-12T23:19:59.000Z</time>
        <extensions>
          <ns3:TrackPointExtension>
            <ns3:atemp>24.0</ns3:atemp>
            <ns3:hr>130</ns3:hr>
          </ns3:TrackPointExtension>
        </extensions>
      </trkpt>
      <trkpt lat="-22.1183667518198490142822265625" lon="166.45048781298100948333740234375">
        <ele>225</ele>
        <time>2016-08-12T23:20:00.000Z</time>
        <extensions>
          <ns3:TrackPointExtension>
            <ns3:atemp>24.0</ns3:atemp>
            <ns3:hr>129</ns3:hr>
          </ns3:TrackPointExtension>
        </extensions>
      </trkpt>
      <trkpt lat="-22.11840572766959667205810546875" lon="166.45048177801072597503662109375">
        <ele>224.600006103515625</ele>
        <time>2016-08-12T23:20:01.000Z</time>
        <extensions>
          <ns3:TrackPointExtension>
            <ns3:atemp>24.0</ns3:atemp>
            <ns3:hr>129</ns3:hr>
          </ns3:TrackPointExtension>
        </extensions>
      </trkpt>
      <trkpt lat="-22.118432633578777313232421875" lon="166.45046710968017578125">
        <ele>224.399993896484375</ele>
        <time>2016-08-12T23:20:02.000Z</time>
        <extensions>
          <ns3:TrackPointExtension>
            <ns3:atemp>24.0</ns3:atemp>
            <ns3:hr>129</ns3:hr>
          </ns3:TrackPointExtension>
        </extensions>
      </trkpt>
      <trkpt lat="-22.11843959055840969085693359375" lon="166.4504434727132320404052734375">
        <ele>224.1999969482421875</ele>
        <time>2016-08-12T23:20:03.000Z</time>
        <extensions>
          <ns3:TrackPointExtension>
            <ns3:atemp>24.0</ns3:atemp>
            <ns3:hr>129</ns3:hr>
          </ns3:TrackPointExtension>
        </extensions>
      </trkpt>
      <trkpt lat="-22.1184475533664226531982421875" lon="166.450418494641780853271484375">
        <ele>224.399993896484375</ele>
        <time>2016-08-12T23:20:04.000Z</time>
        <extensions>
          <ns3:TrackPointExtension>
            <ns3:atemp>24.0</ns3:atemp>
            <ns3:hr>129</ns3:hr>
          </ns3:TrackPointExtension>
        </extensions>
      </trkpt>
      <trkpt lat="-22.11846448481082916259765625" lon="166.4503920078277587890625">
        <ele>224.399993896484375</ele>
        <time>2016-08-12T23:20:05.000Z</time>
        <extensions>
          <ns3:TrackPointExtension>
            <ns3:atemp>24.0</ns3:atemp>
            <ns3:hr>129</ns3:hr>
          </ns3:TrackPointExtension>
        </extensions>
      </trkpt>
      <trkpt lat="-22.1184703521430492401123046875" lon="166.4503611624240875244140625">
        <ele>224</ele>
        <time>2016-08-12T23:20:06.000Z</time>
        <extensions>
          <ns3:TrackPointExtension>
            <ns3:atemp>24.0</ns3:atemp>
            <ns3:hr>129</ns3:hr>
          </ns3:TrackPointExtension>
        </extensions>
      </trkpt>
      <trkpt lat="-22.11850446648895740509033203125" lon="166.45032771863043308258056640625">
        <ele>223.600006103515625</ele>
        <time>2016-08-12T23:20:07.000Z</time>
        <extensions>
          <ns3:TrackPointExtension>
            <ns3:atemp>24.0</ns3:atemp>
            <ns3:hr>129</ns3:hr>
          </ns3:TrackPointExtension>
        </extensions>
      </trkpt>
      <trkpt lat="-22.11851402185857295989990234375" lon="166.4503003098070621490478515625">
        <ele>223.8000030517578125</ele>
        <time>2016-08-12T23:20:08.000Z</time>
        <extensions>
          <ns3:TrackPointExtension>
            <ns3:atemp>24.0</ns3:atemp>
            <ns3:hr>129</ns3:hr>
          </ns3:TrackPointExtension>
        </extensions>
      </trkpt>
      <trkpt lat="-22.11853061802685260772705078125" lon="166.45027373917400836944580078125">
        <ele>223.8000030517578125</ele>
        <time>2016-08-12T23:20:09.000Z</time>
        <extensions>
          <ns3:TrackPointExtension>
            <ns3:atemp>24.0</ns3:atemp>
            <ns3:hr>129</ns3:hr>
          </ns3:TrackPointExtension>
        </extensions>
      </trkpt>
      <trkpt lat="-22.11854855529963970184326171875" lon="166.45025278441607952117919921875">
        <ele>223.1999969482421875</ele>
        <time>2016-08-12T23:20:10.000Z</time>
        <extensions>
          <ns3:TrackPointExtension>
            <ns3:atemp>24.0</ns3:atemp>
            <ns3:hr>129</ns3:hr>
          </ns3:TrackPointExtension>
        </extensions>
      </trkpt>
      <trkpt lat="-22.11856481619179248809814453125" lon="166.45022830925881862640380859375">
        <ele>223</ele>
        <time>2016-08-12T23:20:11.000Z</time>
        <extensions>
          <ns3:TrackPointExtension>
            <ns3:atemp>24.0</ns3:atemp>
            <ns3:hr>129</ns3:hr>
          </ns3:TrackPointExtension>
        </extensions>
      </trkpt>
      <trkpt lat="-22.11858526803553104400634765625" lon="166.4502055943012237548828125">
        <ele>223.1999969482421875</ele>
        <time>2016-08-12T23:20:12.000Z</time>
        <extensions>
          <ns3:TrackPointExtension>
            <ns3:atemp>24.0</ns3:atemp>
            <ns3:hr>129</ns3:hr>
          </ns3:TrackPointExtension>
        </extensions>
      </trkpt>
      <trkpt lat="-22.11860991083085536956787109375" lon="166.45019025541841983795166015625">
        <ele>223</ele>
        <time>2016-08-12T23:20:13.000Z</time>
        <extensions>
          <ns3:TrackPointExtension>
            <ns3:atemp>24.0</ns3:atemp>
            <ns3:hr>129</ns3:hr>
          </ns3:TrackPointExtension>
        </extensions>
      </trkpt>
      <trkpt lat="-22.118624746799468994140625" lon="166.450167037546634674072265625">
        <ele>222.600006103515625</ele>
        <time>2016-08-12T23:20:14.000Z</time>
        <extensions>
          <ns3:TrackPointExtension>
            <ns3:atemp>24.0</ns3:atemp>
            <ns3:hr>128</ns3:hr>
          </ns3:TrackPointExtension>
        </extensions>
      </trkpt>
      <trkpt lat="-22.1186383254826068878173828125" lon="166.45014398731291294097900390625">
        <ele>222</ele>
        <time>2016-08-12T23:20:15.000Z</time>
        <extensions>
          <ns3:TrackPointExtension>
            <ns3:atemp>24.0</ns3:atemp>
            <ns3:hr>128</ns3:hr>
          </ns3:TrackPointExtension>
        </extensions>
      </trkpt>
      <trkpt lat="-22.118658609688282012939453125" lon="166.45012579858303070068359375">
        <ele>222.1999969482421875</ele>
        <time>2016-08-12T23:20:16.000Z</time>
        <extensions>
          <ns3:TrackPointExtension>
            <ns3:atemp>24.0</ns3:atemp>
            <ns3:hr>128</ns3:hr>
          </ns3:TrackPointExtension>
        </extensions>
      </trkpt>
      <trkpt lat="-22.11868149228394031524658203125" lon="166.45010962150990962982177734375">
        <ele>221.8000030517578125</ele>
        <time>2016-08-12T23:20:17.000Z</time>
        <extensions>
          <ns3:TrackPointExtension>
            <ns3:atemp>24.0</ns3:atemp>
            <ns3:hr>128</ns3:hr>
          </ns3:TrackPointExtension>
        </extensions>
      </trkpt>
      <trkpt lat="-22.118704207241535186767578125" lon="166.45009537227451801300048828125">
        <ele>221.399993896484375</ele>
        <time>2016-08-12T23:20:18.000Z</time>
        <extensions>
          <ns3:TrackPointExtension>
            <ns3:atemp>24.0</ns3:atemp>
            <ns3:hr>127</ns3:hr>
          </ns3:TrackPointExtension>
        </extensions>
      </trkpt>
      <trkpt lat="-22.11874703876674175262451171875" lon="166.45008916966617107391357421875">
        <ele>221.1999969482421875</ele>
        <time>2016-08-12T23:20:19.000Z</time>
        <extensions>
          <ns3:TrackPointExtension>
            <ns3:atemp>24.0</ns3:atemp>
            <ns3:hr>127</ns3:hr>
          </ns3:TrackPointExtension>
        </extensions>
      </trkpt>
      <trkpt lat="-22.11877101100981235504150390625" lon="166.45007877610623836517333984375">
        <ele>221.399993896484375</ele>
        <time>2016-08-12T23:20:20.000Z</time>
        <extensions>
          <ns3:TrackPointExtension>
            <ns3:atemp>24.0</ns3:atemp>
            <ns3:hr>127</ns3:hr>
          </ns3:TrackPointExtension>
        </extensions>
      </trkpt>
      <trkpt lat="-22.1187878586351871490478515625" lon="166.45006117410957813262939453125">
        <ele>221.1999969482421875</ele>
        <time>2016-08-12T23:20:21.000Z</time>
        <extensions>
          <ns3:TrackPointExtension>
            <ns3:atemp>24.0</ns3:atemp>
            <ns3:hr>127</ns3:hr>
          </ns3:TrackPointExtension>
        </extensions>
      </trkpt>
      <trkpt lat="-22.11881124414503574371337890625" lon="166.450044997036457061767578125">
        <ele>220.8000030517578125</ele>
        <time>2016-08-12T23:20:22.000Z</time>
        <extensions>
          <ns3:TrackPointExtension>
            <ns3:atemp>24.0</ns3:atemp>
            <ns3:hr>128</ns3:hr>
          </ns3:TrackPointExtension>
        </extensions>
      </trkpt>
      <trkpt lat="-22.11882281117141246795654296875" lon="166.450026892125606536865234375">
        <ele>220.600006103515625</ele>
        <time>2016-08-12T23:20:23.000Z</time>
        <extensions>
          <ns3:TrackPointExtension>
            <ns3:atemp>24.0</ns3:atemp>
            <ns3:hr>128</ns3:hr>
          </ns3:TrackPointExtension>
        </extensions>
      </trkpt>
      <trkpt lat="-22.11883756332099437713623046875" lon="166.45000509917736053466796875">
        <ele>221</ele>
        <time>2016-08-12T23:20:24.000Z</time>
        <extensions>
          <ns3:TrackPointExtension>
            <ns3:atemp>24.0</ns3:atemp>
            <ns3:hr>128</ns3:hr>
          </ns3:TrackPointExtension>
        </extensions>
      </trkpt>
      <trkpt lat="-22.1188629604876041412353515625" lon="166.4499868266284465789794921875">
        <ele>221</ele>
        <time>2016-08-12T23:20:25.000Z</time>
        <extensions>
          <ns3:TrackPointExtension>
            <ns3:atemp>24.0</ns3:atemp>
            <ns3:hr>127</ns3:hr>
          </ns3:TrackPointExtension>
        </extensions>
      </trkpt>
      <trkpt lat="-22.11888483725488185882568359375" lon="166.4499727450311183929443359375">
        <ele>220.8000030517578125</ele>
        <time>2016-08-12T23:20:26.000Z</time>
        <extensions>
          <ns3:TrackPointExtension>
            <ns3:atemp>24.0</ns3:atemp>
            <ns3:hr>127</ns3:hr>
          </ns3:TrackPointExtension>
        </extensions>
      </trkpt>
      <trkpt lat="-22.11892054416239261627197265625" lon="166.44996444694697856903076171875">
        <ele>220.600006103515625</ele>
        <time>2016-08-12T23:20:27.000Z</time>
        <extensions>
          <ns3:TrackPointExtension>
            <ns3:atemp>24.0</ns3:atemp>
            <ns3:hr>127</ns3:hr>
          </ns3:TrackPointExtension>
        </extensions>
      </trkpt>
      <trkpt lat="-22.11894568987190723419189453125" lon="166.449955143034458160400390625">
        <ele>221</ele>
        <time>2016-08-12T23:20:28.000Z</time>
        <extensions>
          <ns3:TrackPointExtension>
            <ns3:atemp>24.0</ns3:atemp>
            <ns3:hr>127</ns3:hr>
          </ns3:TrackPointExtension>
        </extensions>
      </trkpt>
      <trkpt lat="-22.11897636763751506805419921875" lon="166.44995472393929958343505859375">
        <ele>220.399993896484375</ele>
        <time>2016-08-12T23:20:29.000Z</time>
        <extensions>
          <ns3:TrackPointExtension>
            <ns3:atemp>24.0</ns3:atemp>
            <ns3:hr>127</ns3:hr>
          </ns3:TrackPointExtension>
        </extensions>
      </trkpt>
      <trkpt lat="-22.11900888942182064056396484375" lon="166.44995472393929958343505859375">
        <ele>220.1999969482421875</ele>
        <time>2016-08-12T23:20:30.000Z</time>
        <extensions>
          <ns3:TrackPointExtension>
            <ns3:atemp>24.0</ns3:atemp>
            <ns3:hr>127</ns3:hr>
          </ns3:TrackPointExtension>
        </extensions>
      </trkpt>
      <trkpt lat="-22.11903889663517475128173828125" lon="166.4499539695680141448974609375">
        <ele>220.600006103515625</ele>
        <time>2016-08-12T23:20:31.000Z</time>
        <extensions>
          <ns3:TrackPointExtension>
            <ns3:atemp>24.0</ns3:atemp>
            <ns3:hr>128</ns3:hr>
          </ns3:TrackPointExtension>
        </extensions>
      </trkpt>
      <trkpt lat="-22.11907326243817806243896484375" lon="166.44995941780507564544677734375">
        <ele>220</ele>
        <time>2016-08-12T23:20:32.000Z</time>
        <extensions>
          <ns3:TrackPointExtension>
            <ns3:atemp>24.0</ns3:atemp>
            <ns3:hr>127</ns3:hr>
          </ns3:TrackPointExtension>
        </extensions>
      </trkpt>
      <trkpt lat="-22.11910444311797618865966796875" lon="166.44996754825115203857421875">
        <ele>219.399993896484375</ele>
        <time>2016-08-12T23:20:33.000Z</time>
        <extensions>
          <ns3:TrackPointExtension>
            <ns3:atemp>24.0</ns3:atemp>
            <ns3:hr>127</ns3:hr>
          </ns3:TrackPointExtension>
        </extensions>
      </trkpt>
      <trkpt lat="-22.11913797073066234588623046875" lon="166.449976600706577301025390625">
        <ele>219</ele>
        <time>2016-08-12T23:20:34.000Z</time>
        <extensions>
          <ns3:TrackPointExtension>
            <ns3:atemp>24.0</ns3:atemp>
            <ns3:hr>127</ns3:hr>
          </ns3:TrackPointExtension>
        </extensions>
      </trkpt>
      <trkpt lat="-22.11918273009359836578369140625" lon="166.44998875446617603302001953125">
        <ele>219.1999969482421875</ele>
        <time>2016-08-12T23:20:35.000Z</time>
        <extensions>
          <ns3:TrackPointExtension>
            <ns3:atemp>24.0</ns3:atemp>
            <ns3:hr>127</ns3:hr>
          </ns3:TrackPointExtension>
        </extensions>
      </trkpt>
      <trkpt lat="-22.1192160062491893768310546875" lon="166.44999026320874691009521484375">
        <ele>219.1999969482421875</ele>
        <time>2016-08-12T23:20:36.000Z</time>
        <extensions>
          <ns3:TrackPointExtension>
            <ns3:atemp>24.0</ns3:atemp>
            <ns3:hr>128</ns3:hr>
          </ns3:TrackPointExtension>
        </extensions>
      </trkpt>
      <trkpt lat="-22.1192515455186367034912109375" lon="166.449992358684539794921875">
        <ele>218.399993896484375</ele>
        <time>2016-08-12T23:20:37.000Z</time>
        <extensions>
          <ns3:TrackPointExtension>
            <ns3:atemp>24.0</ns3:atemp>
            <ns3:hr>127</ns3:hr>
          </ns3:TrackPointExtension>
        </extensions>
      </trkpt>
      <trkpt lat="-22.1192827261984348297119140625" lon="166.4499921910464763641357421875">
        <ele>217.8000030517578125</ele>
        <time>2016-08-12T23:20:38.000Z</time>
        <extensions>
          <ns3:TrackPointExtension>
            <ns3:atemp>24.0</ns3:atemp>
            <ns3:hr>128</ns3:hr>
          </ns3:TrackPointExtension>
        </extensions>
      </trkpt>
      <trkpt lat="-22.11931608617305755615234375" lon="166.44999311305582523345947265625">
        <ele>217.8000030517578125</ele>
        <time>2016-08-12T23:20:39.000Z</time>
        <extensions>
          <ns3:TrackPointExtension>
            <ns3:atemp>24.0</ns3:atemp>
            <ns3:hr>128</ns3:hr>
          </ns3:TrackPointExtension>
        </extensions>
      </trkpt>
      <trkpt lat="-22.11934827268123626708984375" lon="166.449988670647144317626953125">
        <ele>217.600006103515625</ele>
        <time>2016-08-12T23:20:40.000Z</time>
        <extensions>
          <ns3:TrackPointExtension>
            <ns3:atemp>24.0</ns3:atemp>
            <ns3:hr>128</ns3:hr>
          </ns3:TrackPointExtension>
        </extensions>
      </trkpt>
      <trkpt lat="-22.119374088943004608154296875" lon="166.44997970201075077056884765625">
        <ele>217.1999969482421875</ele>
        <time>2016-08-12T23:20:41.000Z</time>
        <extensions>
          <ns3:TrackPointExtension>
            <ns3:atemp>24.0</ns3:atemp>
            <ns3:hr>128</ns3:hr>
          </ns3:TrackPointExtension>
        </extensions>
      </trkpt>
      <trkpt lat="-22.11940434761345386505126953125" lon="166.4499730803072452545166015625">
        <ele>217</ele>
        <time>2016-08-12T23:20:42.000Z</time>
        <extensions>
          <ns3:TrackPointExtension>
            <ns3:atemp>24.0</ns3:atemp>
            <ns3:hr>128</ns3:hr>
          </ns3:TrackPointExtension>
        </extensions>
      </trkpt>
      <trkpt lat="-22.11942831985652446746826171875" lon="166.4499606750905513763427734375">
        <ele>217.1999969482421875</ele>
        <time>2016-08-12T23:20:43.000Z</time>
        <extensions>
          <ns3:TrackPointExtension>
            <ns3:atemp>24.0</ns3:atemp>
            <ns3:hr>128</ns3:hr>
          </ns3:TrackPointExtension>
        </extensions>
      </trkpt>
      <trkpt lat="-22.1194506995379924774169921875" lon="166.44995220936834812164306640625">
        <ele>217.600006103515625</ele>
        <time>2016-08-12T23:20:44.000Z</time>
        <extensions>
          <ns3:TrackPointExtension>
            <ns3:atemp>24.0</ns3:atemp>
            <ns3:hr>129</ns3:hr>
          </ns3:TrackPointExtension>
        </extensions>
      </trkpt>
      <trkpt lat="-22.11947727017104625701904296875" lon="166.44994533620774745941162109375">
        <ele>216.8000030517578125</ele>
        <time>2016-08-12T23:20:45.000Z</time>
        <extensions>
          <ns3:TrackPointExtension>
            <ns3:atemp>24.0</ns3:atemp>
            <ns3:hr>129</ns3:hr>
          </ns3:TrackPointExtension>
        </extensions>
      </trkpt>
      <trkpt lat="-22.11951230652630329132080078125" lon="166.44994449801743030548095703125">
        <ele>216</ele>
        <time>2016-08-12T23:20:46.000Z</time>
        <extensions>
          <ns3:TrackPointExtension>
            <ns3:atemp>24.0</ns3:atemp>
            <ns3:hr>129</ns3:hr>
          </ns3:TrackPointExtension>
        </extensions>
      </trkpt>
      <trkpt lat="-22.1195402182638645172119140625" lon="166.449941731989383697509765625">
        <ele>215.8000030517578125</ele>
        <time>2016-08-12T23:20:47.000Z</time>
        <extensions>
          <ns3:TrackPointExtension>
            <ns3:atemp>24.0</ns3:atemp>
            <ns3:hr>129</ns3:hr>
          </ns3:TrackPointExtension>
        </extensions>
      </trkpt>
      <trkpt lat="-22.11956846527755260467529296875" lon="166.4499402232468128204345703125">
        <ele>215.8000030517578125</ele>
        <time>2016-08-12T23:20:48.000Z</time>
        <extensions>
          <ns3:TrackPointExtension>
            <ns3:atemp>24.0</ns3:atemp>
            <ns3:hr>130</ns3:hr>
          </ns3:TrackPointExtension>
        </extensions>
      </trkpt>
      <trkpt lat="-22.1195905096828937530517578125" lon="166.44992555491626262664794921875">
        <ele>215.8000030517578125</ele>
        <time>2016-08-12T23:20:49.000Z</time>
        <extensions>
          <ns3:TrackPointExtension>
            <ns3:atemp>24.0</ns3:atemp>
            <ns3:hr>130</ns3:hr>
          </ns3:TrackPointExtension>
        </extensions>
      </trkpt>
      <trkpt lat="-22.1196193434298038482666015625" lon="166.44991331733763217926025390625">
        <ele>214.8000030517578125</ele>
        <time>2016-08-12T23:20:50.000Z</time>
        <extensions>
          <ns3:TrackPointExtension>
            <ns3:atemp>24.0</ns3:atemp>
            <ns3:hr>130</ns3:hr>
          </ns3:TrackPointExtension>
        </extensions>
      </trkpt>
      <trkpt lat="-22.11964021436870098114013671875" lon="166.4499020017683506011962890625">
        <ele>214.1999969482421875</ele>
        <time>2016-08-12T23:20:51.000Z</time>
        <extensions>
          <ns3:TrackPointExtension>
            <ns3:atemp>24.0</ns3:atemp>
            <ns3:hr>131</ns3:hr>
          </ns3:TrackPointExtension>
        </extensions>
      </trkpt>
      <trkpt lat="-22.11966267786920070648193359375" lon="166.44989152438938617706298828125">
        <ele>214.1999969482421875</ele>
        <time>2016-08-12T23:20:52.000Z</time>
        <extensions>
          <ns3:TrackPointExtension>
            <ns3:atemp>24.0</ns3:atemp>
            <ns3:hr>131</ns3:hr>
          </ns3:TrackPointExtension>
        </extensions>
      </trkpt>
      <trkpt lat="-22.11968631483614444732666015625" lon="166.44988238811492919921875">
        <ele>214.399993896484375</ele>
        <time>2016-08-12T23:20:53.000Z</time>
        <extensions>
          <ns3:TrackPointExtension>
            <ns3:atemp>24.0</ns3:atemp>
            <ns3:hr>131</ns3:hr>
          </ns3:TrackPointExtension>
        </extensions>
      </trkpt>
      <trkpt lat="-22.1197091974318027496337890625" lon="166.4498708210885524749755859375">
        <ele>213.600006103515625</ele>
        <time>2016-08-12T23:20:54.000Z</time>
        <extensions>
          <ns3:TrackPointExtension>
            <ns3:atemp>24.0</ns3:atemp>
            <ns3:hr>131</ns3:hr>
          </ns3:TrackPointExtension>
        </extensions>
      </trkpt>
      <trkpt lat="-22.11974431760609149932861328125" lon="166.44986185245215892791748046875">
        <ele>213</ele>
        <time>2016-08-12T23:20:55.000Z</time>
        <extensions>
          <ns3:TrackPointExtension>
            <ns3:atemp>25.0</ns3:atemp>
            <ns3:hr>131</ns3:hr>
          </ns3:TrackPointExtension>
        </extensions>
      </trkpt>
      <trkpt lat="-22.119769044220447540283203125" lon="166.44984827376902103424072265625">
        <ele>212.8000030517578125</ele>
        <time>2016-08-12T23:20:56.000Z</time>
        <extensions>
          <ns3:TrackPointExtension>
            <ns3:atemp>25.0</ns3:atemp>
            <ns3:hr>131</ns3:hr>
          </ns3:TrackPointExtension>
        </extensions>
      </trkpt>
      <trkpt lat="-22.11979829706251621246337890625" lon="166.44983486272394657135009765625">
        <ele>213</ele>
        <time>2016-08-12T23:20:57.000Z</time>
        <extensions>
          <ns3:TrackPointExtension>
            <ns3:atemp>25.0</ns3:atemp>
            <ns3:hr>131</ns3:hr>
          </ns3:TrackPointExtension>
        </extensions>
      </trkpt>
      <trkpt lat="-22.11982562206685543060302734375" lon="166.44981625489890575408935546875">
        <ele>212.600006103515625</ele>
        <time>2016-08-12T23:20:58.000Z</time>
        <extensions>
          <ns3:TrackPointExtension>
            <ns3:atemp>25.0</ns3:atemp>
            <ns3:hr>131</ns3:hr>
          </ns3:TrackPointExtension>
        </extensions>
      </trkpt>
      <trkpt lat="-22.11984389461576938629150390625" lon="166.4497952163219451904296875">
        <ele>212.1999969482421875</ele>
        <time>2016-08-12T23:20:59.000Z</time>
        <extensions>
          <ns3:TrackPointExtension>
            <ns3:atemp>25.0</ns3:atemp>
            <ns3:hr>131</ns3:hr>
          </ns3:TrackPointExtension>
        </extensions>
      </trkpt>
      <trkpt lat="-22.11985814385116100311279296875" lon="166.44977116025984287261962890625">
        <ele>212.1999969482421875</ele>
        <time>2016-08-12T23:21:00.000Z</time>
        <extensions>
          <ns3:TrackPointExtension>
            <ns3:atemp>25.0</ns3:atemp>
            <ns3:hr>131</ns3:hr>
          </ns3:TrackPointExtension>
        </extensions>
      </trkpt>
      <trkpt lat="-22.11986954323947429656982421875" lon="166.44974651746451854705810546875">
        <ele>213.399993896484375</ele>
        <time>2016-08-12T23:21:01.000Z</time>
        <extensions>
          <ns3:TrackPointExtension>
            <ns3:atemp>25.0</ns3:atemp>
            <ns3:hr>131</ns3:hr>
          </ns3:TrackPointExtension>
        </extensions>
      </trkpt>
      <trkpt lat="-22.11988337337970733642578125" lon="166.44971919246017932891845703125">
        <ele>212.600006103515625</ele>
        <time>2016-08-12T23:21:02.000Z</time>
        <extensions>
          <ns3:TrackPointExtension>
            <ns3:atemp>25.0</ns3:atemp>
            <ns3:hr>131</ns3:hr>
          </ns3:TrackPointExtension>
        </extensions>
      </trkpt>
      <trkpt lat="-22.11989033035933971405029296875" lon="166.44969153217971324920654296875">
        <ele>211.600006103515625</ele>
        <time>2016-08-12T23:21:03.000Z</time>
        <extensions>
          <ns3:TrackPointExtension>
            <ns3:atemp>25.0</ns3:atemp>
            <ns3:hr>131</ns3:hr>
          </ns3:TrackPointExtension>
        </extensions>
      </trkpt>
      <trkpt lat="-22.1199110336601734161376953125" lon="166.4496679790318012237548828125">
        <ele>211.399993896484375</ele>
        <time>2016-08-12T23:21:04.000Z</time>
        <extensions>
          <ns3:TrackPointExtension>
            <ns3:atemp>25.0</ns3:atemp>
            <ns3:hr>131</ns3:hr>
          </ns3:TrackPointExtension>
        </extensions>
      </trkpt>
      <trkpt lat="-22.119938023388385772705078125" lon="166.449648700654506683349609375">
        <ele>211.8000030517578125</ele>
        <time>2016-08-12T23:21:05.000Z</time>
        <extensions>
          <ns3:TrackPointExtension>
            <ns3:atemp>25.0</ns3:atemp>
            <ns3:hr>131</ns3:hr>
          </ns3:TrackPointExtension>
        </extensions>
      </trkpt>
      <trkpt lat="-22.1199586428701877593994140625" lon="166.44962749443948268890380859375">
        <ele>211</ele>
        <time>2016-08-12T23:21:06.000Z</time>
        <extensions>
          <ns3:TrackPointExtension>
            <ns3:atemp>25.0</ns3:atemp>
            <ns3:hr>131</ns3:hr>
          </ns3:TrackPointExtension>
        </extensions>
      </trkpt>
      <trkpt lat="-22.11998035199940204620361328125" lon="166.44960855133831501007080078125">
        <ele>211</ele>
        <time>2016-08-12T23:21:07.000Z</time>
        <extensions>
          <ns3:TrackPointExtension>
            <ns3:atemp>25.0</ns3:atemp>
            <ns3:hr>132</ns3:hr>
          </ns3:TrackPointExtension>
        </extensions>
      </trkpt>
      <trkpt lat="-22.120003066956996917724609375" lon="166.44958927296102046966552734375">
        <ele>211.1999969482421875</ele>
        <time>2016-08-12T23:21:08.000Z</time>
        <extensions>
          <ns3:TrackPointExtension>
            <ns3:atemp>25.0</ns3:atemp>
            <ns3:hr>132</ns3:hr>
          </ns3:TrackPointExtension>
        </extensions>
      </trkpt>
      <trkpt lat="-22.1200253628194332122802734375" lon="166.4495657198131084442138671875">
        <ele>210.8000030517578125</ele>
        <time>2016-08-12T23:21:09.000Z</time>
        <extensions>
          <ns3:TrackPointExtension>
            <ns3:atemp>25.0</ns3:atemp>
            <ns3:hr>132</ns3:hr>
          </ns3:TrackPointExtension>
        </extensions>
      </trkpt>
      <trkpt lat="-22.12003785185515880584716796875" lon="166.4495335333049297332763671875">
        <ele>210.1999969482421875</ele>
        <time>2016-08-12T23:21:10.000Z</time>
        <extensions>
          <ns3:TrackPointExtension>
            <ns3:atemp>25.0</ns3:atemp>
            <ns3:hr>132</ns3:hr>
          </ns3:TrackPointExtension>
        </extensions>
      </trkpt>
      <trkpt lat="-22.12005210109055042266845703125" lon="166.4495036937296390533447265625">
        <ele>209.8000030517578125</ele>
        <time>2016-08-12T23:21:11.000Z</time>
        <extensions>
          <ns3:TrackPointExtension>
            <ns3:atemp>25.0</ns3:atemp>
            <ns3:hr>132</ns3:hr>
          </ns3:TrackPointExtension>
        </extensions>
      </trkpt>
      <trkpt lat="-22.120066769421100616455078125" lon="166.44947628490626811981201171875">
        <ele>209.8000030517578125</ele>
        <time>2016-08-12T23:21:12.000Z</time>
        <extensions>
          <ns3:TrackPointExtension>
            <ns3:atemp>25.0</ns3:atemp>
            <ns3:hr>133</ns3:hr>
          </ns3:TrackPointExtension>
        </extensions>
      </trkpt>
      <trkpt lat="-22.12009384296834468841552734375" lon="166.449457593262195587158203125">
        <ele>209.1999969482421875</ele>
        <time>2016-08-12T23:21:13.000Z</time>
        <extensions>
          <ns3:TrackPointExtension>
            <ns3:atemp>25.0</ns3:atemp>
            <ns3:hr>133</ns3:hr>
          </ns3:TrackPointExtension>
        </extensions>
      </trkpt>
      <trkpt lat="-22.12010909803211688995361328125" lon="166.4494332857429981231689453125">
        <ele>208.600006103515625</ele>
        <time>2016-08-12T23:21:14.000Z</time>
        <extensions>
          <ns3:TrackPointExtension>
            <ns3:atemp>25.0</ns3:atemp>
            <ns3:hr>133</ns3:hr>
          </ns3:TrackPointExtension>
        </extensions>
      </trkpt>
      <trkpt lat="-22.12014882825314998626708984375" lon="166.44941694103181362152099609375">
        <ele>208.600006103515625</ele>
        <time>2016-08-12T23:21:15.000Z</time>
        <extensions>
          <ns3:TrackPointExtension>
            <ns3:atemp>25.0</ns3:atemp>
            <ns3:hr>134</ns3:hr>
          </ns3:TrackPointExtension>
        </extensions>
      </trkpt>
      <trkpt lat="-22.12017447687685489654541015625" lon="166.44939632155001163482666015625">
        <ele>208.8000030517578125</ele>
        <time>2016-08-12T23:21:16.000Z</time>
        <extensions>
          <ns3:TrackPointExtension>
            <ns3:atemp>25.0</ns3:atemp>
            <ns3:hr>134</ns3:hr>
          </ns3:TrackPointExtension>
        </extensions>
      </trkpt>
      <trkpt lat="-22.12019182741641998291015625" lon="166.44937075674533843994140625">
        <ele>209.1999969482421875</ele>
        <time>2016-08-12T23:21:17.000Z</time>
        <extensions>
          <ns3:TrackPointExtension>
            <ns3:atemp>25.0</ns3:atemp>
            <ns3:hr>134</ns3:hr>
          </ns3:TrackPointExtension>
        </extensions>
      </trkpt>
      <trkpt lat="-22.12021487765014171600341796875" lon="166.44935072399675846099853515625">
        <ele>208.8000030517578125</ele>
        <time>2016-08-12T23:21:18.000Z</time>
        <extensions>
          <ns3:TrackPointExtension>
            <ns3:atemp>25.0</ns3:atemp>
            <ns3:hr>134</ns3:hr>
          </ns3:TrackPointExtension>
        </extensions>
      </trkpt>
      <trkpt lat="-22.120235748589038848876953125" lon="166.4493357203900814056396484375">
        <ele>208.399993896484375</ele>
        <time>2016-08-12T23:21:19.000Z</time>
        <extensions>
          <ns3:TrackPointExtension>
            <ns3:atemp>25.0</ns3:atemp>
            <ns3:hr>135</ns3:hr>
          </ns3:TrackPointExtension>
        </extensions>
      </trkpt>
      <trkpt lat="-22.12025226093828678131103515625" lon="166.4493145979940891265869140625">
        <ele>208.399993896484375</ele>
        <time>2016-08-12T23:21:20.000Z</time>
        <extensions>
          <ns3:TrackPointExtension>
            <ns3:atemp>25.0</ns3:atemp>
            <ns3:hr>134</ns3:hr>
          </ns3:TrackPointExtension>
        </extensions>
      </trkpt>
      <trkpt lat="-22.12026500143110752105712890625" lon="166.4492904581129550933837890625">
        <ele>209</ele>
        <time>2016-08-12T23:21:21.000Z</time>
        <extensions>
          <ns3:TrackPointExtension>
            <ns3:atemp>25.0</ns3:atemp>
            <ns3:hr>135</ns3:hr>
          </ns3:TrackPointExtension>
        </extensions>
      </trkpt>
      <trkpt lat="-22.12027497589588165283203125" lon="166.44926908425986766815185546875">
        <ele>208</ele>
        <time>2016-08-12T23:21:22.000Z</time>
        <extensions>
          <ns3:TrackPointExtension>
            <ns3:atemp>25.0</ns3:atemp>
            <ns3:hr>135</ns3:hr>
          </ns3:TrackPointExtension>
        </extensions>
      </trkpt>
      <trkpt lat="-22.1202905662357807159423828125" lon="166.4492458663880825042724609375">
        <ele>207.600006103515625</ele>
        <time>2016-08-12T23:21:23.000Z</time>
        <extensions>
          <ns3:TrackPointExtension>
            <ns3:atemp>25.0</ns3:atemp>
            <ns3:hr>135</ns3:hr>
          </ns3:TrackPointExtension>
        </extensions>
      </trkpt>
      <trkpt lat="-22.120307497680187225341796875" lon="166.44922348670661449432373046875">
        <ele>207.399993896484375</ele>
        <time>2016-08-12T23:21:24.000Z</time>
        <extensions>
          <ns3:TrackPointExtension>
            <ns3:atemp>25.0</ns3:atemp>
            <ns3:hr>135</ns3:hr>
          </ns3:TrackPointExtension>
        </extensions>
      </trkpt>
      <trkpt lat="-22.12033306248486042022705078125" lon="166.449209153652191162109375">
        <ele>207.8000030517578125</ele>
        <time>2016-08-12T23:21:25.000Z</time>
        <extensions>
          <ns3:TrackPointExtension>
            <ns3:atemp>25.0</ns3:atemp>
            <ns3:hr>135</ns3:hr>
          </ns3:TrackPointExtension>
        </extensions>
      </trkpt>
      <trkpt lat="-22.12034865282475948333740234375" lon="166.44919297657907009124755859375">
        <ele>207.1999969482421875</ele>
        <time>2016-08-12T23:21:26.000Z</time>
        <extensions>
          <ns3:TrackPointExtension>
            <ns3:atemp>25.0</ns3:atemp>
            <ns3:hr>135</ns3:hr>
          </ns3:TrackPointExtension>
        </extensions>
      </trkpt>
      <trkpt lat="-22.12036407552659511566162109375" lon="166.4491764642298221588134765625">
        <ele>206.600006103515625</ele>
        <time>2016-08-12T23:21:27.000Z</time>
        <extensions>
          <ns3:TrackPointExtension>
            <ns3:atemp>25.0</ns3:atemp>
            <ns3:hr>135</ns3:hr>
          </ns3:TrackPointExtension>
        </extensions>
      </trkpt>
      <trkpt lat="-22.12039022706449031829833984375" lon="166.44916355609893798828125">
        <ele>206.399993896484375</ele>
        <time>2016-08-12T23:21:28.000Z</time>
        <extensions>
          <ns3:TrackPointExtension>
            <ns3:atemp>25.0</ns3:atemp>
            <ns3:hr>135</ns3:hr>
          </ns3:TrackPointExtension>
        </extensions>
      </trkpt>
      <trkpt lat="-22.120404727756977081298828125" lon="166.44914184696972370147705078125">
        <ele>206.600006103515625</ele>
        <time>2016-08-12T23:21:29.000Z</time>
        <extensions>
          <ns3:TrackPointExtension>
            <ns3:atemp>25.0</ns3:atemp>
            <ns3:hr>135</ns3:hr>
          </ns3:TrackPointExtension>
        </extensions>
      </trkpt>
      <trkpt lat="-22.1204285323619842529296875" lon="166.4491187967360019683837890625">
        <ele>207.600006103515625</ele>
        <time>2016-08-12T23:21:30.000Z</time>
        <extensions>
          <ns3:TrackPointExtension>
            <ns3:atemp>25.0</ns3:atemp>
            <ns3:hr>135</ns3:hr>
          </ns3:TrackPointExtension>
        </extensions>
      </trkpt>
      <trkpt lat="-22.120448648929595947265625" lon="166.4490946568548679351806640625">
        <ele>206.8000030517578125</ele>
        <time>2016-08-12T23:21:31.000Z</time>
        <extensions>
          <ns3:TrackPointExtension>
            <ns3:atemp>25.0</ns3:atemp>
            <ns3:hr>135</ns3:hr>
          </ns3:TrackPointExtension>
        </extensions>
      </trkpt>
      <trkpt lat="-22.1204687654972076416015625" lon="166.44907797686755657196044921875">
        <ele>206.1999969482421875</ele>
        <time>2016-08-12T23:21:32.000Z</time>
        <extensions>
          <ns3:TrackPointExtension>
            <ns3:atemp>25.0</ns3:atemp>
            <ns3:hr>135</ns3:hr>
          </ns3:TrackPointExtension>
        </extensions>
      </trkpt>
      <trkpt lat="-22.12049399502575397491455078125" lon="166.4490614645183086395263671875">
        <ele>206</ele>
        <time>2016-08-12T23:21:33.000Z</time>
        <extensions>
          <ns3:TrackPointExtension>
            <ns3:atemp>25.0</ns3:atemp>
            <ns3:hr>135</ns3:hr>
          </ns3:TrackPointExtension>
        </extensions>
      </trkpt>
      <trkpt lat="-22.1205185540020465850830078125" lon="166.4490467123687267303466796875">
        <ele>207</ele>
        <time>2016-08-12T23:21:34.000Z</time>
        <extensions>
          <ns3:TrackPointExtension>
            <ns3:atemp>25.0</ns3:atemp>
            <ns3:hr>135</ns3:hr>
          </ns3:TrackPointExtension>
        </extensions>
      </trkpt>
      <trkpt lat="-22.1205359883606433868408203125" lon="166.44902969710528850555419921875">
        <ele>206.399993896484375</ele>
        <time>2016-08-12T23:21:35.000Z</time>
        <extensions>
          <ns3:TrackPointExtension>
            <ns3:atemp>25.0</ns3:atemp>
            <ns3:hr>135</ns3:hr>
          </ns3:TrackPointExtension>
        </extensions>
      </trkpt>
      <trkpt lat="-22.12056239135563373565673828125" lon="166.44901670515537261962890625">
        <ele>205.600006103515625</ele>
        <time>2016-08-12T23:21:36.000Z</time>
        <extensions>
          <ns3:TrackPointExtension>
            <ns3:atemp>25.0</ns3:atemp>
            <ns3:hr>135</ns3:hr>
          </ns3:TrackPointExtension>
        </extensions>
      </trkpt>
      <trkpt lat="-22.1205829270184040069580078125" lon="166.44900036044418811798095703125">
        <ele>205.1999969482421875</ele>
        <time>2016-08-12T23:21:37.000Z</time>
        <extensions>
          <ns3:TrackPointExtension>
            <ns3:atemp>25.0</ns3:atemp>
            <ns3:hr>135</ns3:hr>
          </ns3:TrackPointExtension>
        </extensions>
      </trkpt>
      <trkpt lat="-22.1206053905189037322998046875" lon="166.448982171714305877685546875">
        <ele>205.8000030517578125</ele>
        <time>2016-08-12T23:21:38.000Z</time>
        <extensions>
          <ns3:TrackPointExtension>
            <ns3:atemp>25.0</ns3:atemp>
            <ns3:hr>135</ns3:hr>
          </ns3:TrackPointExtension>
        </extensions>
      </trkpt>
      <trkpt lat="-22.12063246406614780426025390625" lon="166.44896917976438999176025390625">
        <ele>205.8000030517578125</ele>
        <time>2016-08-12T23:21:39.000Z</time>
        <extensions>
          <ns3:TrackPointExtension>
            <ns3:atemp>25.0</ns3:atemp>
            <ns3:hr>135</ns3:hr>
          </ns3:TrackPointExtension>
        </extensions>
      </trkpt>
      <trkpt lat="-22.1206586994230747222900390625" lon="166.4489605464041233062744140625">
        <ele>205</ele>
        <time>2016-08-12T23:21:40.000Z</time>
        <extensions>
          <ns3:TrackPointExtension>
            <ns3:atemp>25.0</ns3:atemp>
            <ns3:hr>135</ns3:hr>
          </ns3:TrackPointExtension>
        </extensions>
      </trkpt>
      <trkpt lat="-22.12069608271121978759765625" lon="166.44895769655704498291015625">
        <ele>204.8000030517578125</ele>
        <time>2016-08-12T23:21:41.000Z</time>
        <extensions>
          <ns3:TrackPointExtension>
            <ns3:atemp>25.0</ns3:atemp>
            <ns3:hr>135</ns3:hr>
          </ns3:TrackPointExtension>
        </extensions>
      </trkpt>
      <trkpt lat="-22.12071997113525867462158203125" lon="166.44894721917808055877685546875">
        <ele>204.8000030517578125</ele>
        <time>2016-08-12T23:21:42.000Z</time>
        <extensions>
          <ns3:TrackPointExtension>
            <ns3:atemp>25.0</ns3:atemp>
            <ns3:hr>134</ns3:hr>
          </ns3:TrackPointExtension>
        </extensions>
      </trkpt>
      <trkpt lat="-22.1207415126264095306396484375" lon="166.44893615506589412689208984375">
        <ele>204.399993896484375</ele>
        <time>2016-08-12T23:21:43.000Z</time>
        <extensions>
          <ns3:TrackPointExtension>
            <ns3:atemp>25.0</ns3:atemp>
            <ns3:hr>134</ns3:hr>
          </ns3:TrackPointExtension>
        </extensions>
      </trkpt>
      <trkpt lat="-22.12076758034527301788330078125" lon="166.4489303715527057647705078125">
        <ele>204</ele>
        <time>2016-08-12T23:21:44.000Z</time>
        <extensions>
          <ns3:TrackPointExtension>
            <ns3:atemp>25.0</ns3:atemp>
            <ns3:hr>134</ns3:hr>
          </ns3:TrackPointExtension>
        </extensions>
      </trkpt>
      <trkpt lat="-22.1208013594150543212890625" lon="166.44892542622983455657958984375">
        <ele>204.399993896484375</ele>
        <time>2016-08-12T23:21:45.000Z</time>
        <extensions>
          <ns3:TrackPointExtension>
            <ns3:atemp>25.0</ns3:atemp>
            <ns3:hr>134</ns3:hr>
          </ns3:TrackPointExtension>
        </extensions>
      </trkpt>
      <trkpt lat="-22.1208075620234012603759765625" lon="166.44889977760612964630126953125">
        <ele>204</ele>
        <time>2016-08-12T23:21:46.000Z</time>
        <extensions>
          <ns3:TrackPointExtension>
            <ns3:atemp>25.0</ns3:atemp>
            <ns3:hr>134</ns3:hr>
          </ns3:TrackPointExtension>
        </extensions>
      </trkpt>
      <trkpt lat="-22.1208343841135501861572265625" lon="166.4488857798278331756591796875">
        <ele>203.399993896484375</ele>
        <time>2016-08-12T23:21:47.000Z</time>
        <extensions>
          <ns3:TrackPointExtension>
            <ns3:atemp>25.0</ns3:atemp>
            <ns3:hr>134</ns3:hr>
          </ns3:TrackPointExtension>
        </extensions>
      </trkpt>
      <trkpt lat="-22.12085341103374958038330078125" lon="166.448874212801456451416015625">
        <ele>203</ele>
        <time>2016-08-12T23:21:48.000Z</time>
        <extensions>
          <ns3:TrackPointExtension>
            <ns3:atemp>25.0</ns3:atemp>
            <ns3:hr>134</ns3:hr>
          </ns3:TrackPointExtension>
        </extensions>
      </trkpt>
      <trkpt lat="-22.12088325060904026031494140625" lon="166.44886977039277553558349609375">
        <ele>203.399993896484375</ele>
        <time>2016-08-12T23:21:49.000Z</time>
        <extensions>
          <ns3:TrackPointExtension>
            <ns3:atemp>25.0</ns3:atemp>
            <ns3:hr>134</ns3:hr>
          </ns3:TrackPointExtension>
        </extensions>
      </trkpt>
      <trkpt lat="-22.12091292254626750946044921875" lon="166.4488589577376842498779296875">
        <ele>202.600006103515625</ele>
        <time>2016-08-12T23:21:50.000Z</time>
        <extensions>
          <ns3:TrackPointExtension>
            <ns3:atemp>25.0</ns3:atemp>
            <ns3:hr>134</ns3:hr>
          </ns3:TrackPointExtension>
        </extensions>
      </trkpt>
      <trkpt lat="-22.12092147208750247955322265625" lon="166.44883523695170879364013671875">
        <ele>202.399993896484375</ele>
        <time>2016-08-12T23:21:51.000Z</time>
        <extensions>
          <ns3:TrackPointExtension>
            <ns3:atemp>25.0</ns3:atemp>
            <ns3:hr>134</ns3:hr>
          </ns3:TrackPointExtension>
        </extensions>
      </trkpt>
      <trkpt lat="-22.1209394931793212890625" lon="166.4488106779754161834716796875">
        <ele>202.1999969482421875</ele>
        <time>2016-08-12T23:21:52.000Z</time>
        <extensions>
          <ns3:TrackPointExtension>
            <ns3:atemp>25.0</ns3:atemp>
            <ns3:hr>135</ns3:hr>
          </ns3:TrackPointExtension>
        </extensions>
      </trkpt>
      <trkpt lat="-22.1209649741649627685546875" lon="166.44878712482750415802001953125">
        <ele>201.8000030517578125</ele>
        <time>2016-08-12T23:21:53.000Z</time>
        <extensions>
          <ns3:TrackPointExtension>
            <ns3:atemp>25.0</ns3:atemp>
            <ns3:hr>135</ns3:hr>
          </ns3:TrackPointExtension>
        </extensions>
      </trkpt>
      <trkpt lat="-22.1209855936467647552490234375" lon="166.44876147620379924774169921875">
        <ele>201.399993896484375</ele>
        <time>2016-08-12T23:21:54.000Z</time>
        <extensions>
          <ns3:TrackPointExtension>
            <ns3:atemp>25.0</ns3:atemp>
            <ns3:hr>135</ns3:hr>
          </ns3:TrackPointExtension>
        </extensions>
      </trkpt>
      <trkpt lat="-22.1210073865950107574462890625" lon="166.44873498938977718353271484375">
        <ele>201.1999969482421875</ele>
        <time>2016-08-12T23:21:55.000Z</time>
        <extensions>
          <ns3:TrackPointExtension>
            <ns3:atemp>25.0</ns3:atemp>
            <ns3:hr>135</ns3:hr>
          </ns3:TrackPointExtension>
        </extensions>
      </trkpt>
      <trkpt lat="-22.12103580124676227569580078125" lon="166.44871034659445285797119140625">
        <ele>201.399993896484375</ele>
        <time>2016-08-12T23:21:56.000Z</time>
        <extensions>
          <ns3:TrackPointExtension>
            <ns3:atemp>25.0</ns3:atemp>
            <ns3:hr>134</ns3:hr>
          </ns3:TrackPointExtension>
        </extensions>
      </trkpt>
      <trkpt lat="-22.12104745209217071533203125" lon="166.448679752647876739501953125">
        <ele>201.1999969482421875</ele>
        <time>2016-08-12T23:21:57.000Z</time>
        <extensions>
          <ns3:TrackPointExtension>
            <ns3:atemp>25.0</ns3:atemp>
            <ns3:hr>134</ns3:hr>
          </ns3:TrackPointExtension>
        </extensions>
      </trkpt>
      <trkpt lat="-22.1210546605288982391357421875" lon="166.44864697940647602081298828125">
        <ele>201</ele>
        <time>2016-08-12T23:21:58.000Z</time>
        <extensions>
          <ns3:TrackPointExtension>
            <ns3:atemp>25.0</ns3:atemp>
            <ns3:hr>134</ns3:hr>
          </ns3:TrackPointExtension>
        </extensions>
      </trkpt>
      <trkpt lat="-22.12105340324342250823974609375" lon="166.4486158825457096099853515625">
        <ele>201.399993896484375</ele>
        <time>2016-08-12T23:21:59.000Z</time>
        <extensions>
          <ns3:TrackPointExtension>
            <ns3:atemp>25.0</ns3:atemp>
            <ns3:hr>134</ns3:hr>
          </ns3:TrackPointExtension>
        </extensions>
      </trkpt>
      <trkpt lat="-22.1210496313869953155517578125" lon="166.4485867135226726531982421875">
        <ele>200.8000030517578125</ele>
        <time>2016-08-12T23:22:00.000Z</time>
        <extensions>
          <ns3:TrackPointExtension>
            <ns3:atemp>25.0</ns3:atemp>
            <ns3:hr>134</ns3:hr>
          </ns3:TrackPointExtension>
        </extensions>
      </trkpt>
      <trkpt lat="-22.12105088867247104644775390625" lon="166.44856274127960205078125">
        <ele>200.399993896484375</ele>
        <time>2016-08-12T23:22:01.000Z</time>
        <extensions>
          <ns3:TrackPointExtension>
            <ns3:atemp>25.0</ns3:atemp>
            <ns3:hr>134</ns3:hr>
          </ns3:TrackPointExtension>
        </extensions>
      </trkpt>
      <trkpt lat="-22.1210373938083648681640625" lon="166.44853332079946994781494140625">
        <ele>200.1999969482421875</ele>
        <time>2016-08-12T23:22:02.000Z</time>
        <extensions>
          <ns3:TrackPointExtension>
            <ns3:atemp>25.0</ns3:atemp>
            <ns3:hr>134</ns3:hr>
          </ns3:TrackPointExtension>
        </extensions>
      </trkpt>
      <trkpt lat="-22.12102272547781467437744140625" lon="166.4485065825283527374267578125">
        <ele>201.399993896484375</ele>
        <time>2016-08-12T23:22:03.000Z</time>
        <extensions>
          <ns3:TrackPointExtension>
            <ns3:atemp>25.0</ns3:atemp>
            <ns3:hr>134</ns3:hr>
          </ns3:TrackPointExtension>
        </extensions>
      </trkpt>
      <trkpt lat="-22.12101199664175510406494140625" lon="166.44848085008561611175537109375">
        <ele>200.8000030517578125</ele>
        <time>2016-08-12T23:22:04.000Z</time>
        <extensions>
          <ns3:TrackPointExtension>
            <ns3:atemp>25.0</ns3:atemp>
            <ns3:hr>134</ns3:hr>
          </ns3:TrackPointExtension>
        </extensions>
      </trkpt>
      <trkpt lat="-22.12099908851087093353271484375" lon="166.4484566263854503631591796875">
        <ele>200.399993896484375</ele>
        <time>2016-08-12T23:22:05.000Z</time>
        <extensions>
          <ns3:TrackPointExtension>
            <ns3:atemp>25.0</ns3:atemp>
            <ns3:hr>134</ns3:hr>
          </ns3:TrackPointExtension>
        </extensions>
      </trkpt>
      <trkpt lat="-22.12099087424576282501220703125" lon="166.44843307323753833770751953125">
        <ele>200.1999969482421875</ele>
        <time>2016-08-12T23:22:06.000Z</time>
        <extensions>
          <ns3:TrackPointExtension>
            <ns3:atemp>25.0</ns3:atemp>
            <ns3:hr>134</ns3:hr>
          </ns3:TrackPointExtension>
        </extensions>
      </trkpt>
      <trkpt lat="-22.120979726314544677734375" lon="166.4484130404889583587646484375">
        <ele>200.8000030517578125</ele>
        <time>2016-08-12T23:22:07.000Z</time>
        <extensions>
          <ns3:TrackPointExtension>
            <ns3:atemp>25.0</ns3:atemp>
            <ns3:hr>134</ns3:hr>
          </ns3:TrackPointExtension>
        </extensions>
      </trkpt>
      <trkpt lat="-22.12096505798399448394775390625" lon="166.4483946003019809722900390625">
        <ele>200.600006103515625</ele>
        <time>2016-08-12T23:22:08.000Z</time>
        <extensions>
          <ns3:TrackPointExtension>
            <ns3:atemp>25.0</ns3:atemp>
            <ns3:hr>133</ns3:hr>
          </ns3:TrackPointExtension>
        </extensions>
      </trkpt>
      <trkpt lat="-22.12095751427114009857177734375" lon="166.44838060252368450164794921875">
        <ele>200</ele>
        <time>2016-08-12T23:22:09.000Z</time>
        <extensions>
          <ns3:TrackPointExtension>
            <ns3:atemp>25.0</ns3:atemp>
            <ns3:hr>133</ns3:hr>
          </ns3:TrackPointExtension>
        </extensions>
      </trkpt>
      <trkpt lat="-22.12094225920736789703369140625" lon="166.448364593088626861572265625">
        <ele>199.8000030517578125</ele>
        <time>2016-08-12T23:22:10.000Z</time>
        <extensions>
          <ns3:TrackPointExtension>
            <ns3:atemp>25.0</ns3:atemp>
            <ns3:hr>133</ns3:hr>
          </ns3:TrackPointExtension>
        </extensions>
      </trkpt>
      <trkpt lat="-22.1209319494664669036865234375" lon="166.44834673963487148284912109375">
        <ele>199.399993896484375</ele>
        <time>2016-08-12T23:22:11.000Z</time>
        <extensions>
          <ns3:TrackPointExtension>
            <ns3:atemp>25.0</ns3:atemp>
            <ns3:hr>133</ns3:hr>
          </ns3:TrackPointExtension>
        </extensions>
      </trkpt>
      <trkpt lat="-22.12091292254626750946044921875" lon="166.44833014346659183502197265625">
        <ele>199</ele>
        <time>2016-08-12T23:22:12.000Z</time>
        <extensions>
          <ns3:TrackPointExtension>
            <ns3:atemp>25.0</ns3:atemp>
            <ns3:hr>133</ns3:hr>
          </ns3:TrackPointExtension>
        </extensions>
      </trkpt>
      <trkpt lat="-22.12089280597865581512451171875" lon="166.44831455312669277191162109375">
        <ele>198.8000030517578125</ele>
        <time>2016-08-12T23:22:13.000Z</time>
        <extensions>
          <ns3:TrackPointExtension>
            <ns3:atemp>25.0</ns3:atemp>
            <ns3:hr>133</ns3:hr>
          </ns3:TrackPointExtension>
        </extensions>
      </trkpt>
      <trkpt lat="-22.12086615152657032012939453125" lon="166.448302567005157470703125">
        <ele>199.1999969482421875</ele>
        <time>2016-08-12T23:22:14.000Z</time>
        <extensions>
          <ns3:TrackPointExtension>
            <ns3:atemp>25.0</ns3:atemp>
            <ns3:hr>132</ns3:hr>
          </ns3:TrackPointExtension>
        </extensions>
      </trkpt>
      <trkpt lat="-22.12083949707448482513427734375" lon="166.4482933469116687774658203125">
        <ele>199</ele>
        <time>2016-08-12T23:22:15.000Z</time>
        <extensions>
          <ns3:TrackPointExtension>
            <ns3:atemp>25.0</ns3:atemp>
            <ns3:hr>132</ns3:hr>
          </ns3:TrackPointExtension>
        </extensions>
      </trkpt>
      <trkpt lat="-22.12081384845077991485595703125" lon="166.44828370772302150726318359375">
        <ele>198.600006103515625</ele>
        <time>2016-08-12T23:22:16.000Z</time>
        <extensions>
          <ns3:TrackPointExtension>
            <ns3:atemp>25.0</ns3:atemp>
            <ns3:hr>132</ns3:hr>
          </ns3:TrackPointExtension>
        </extensions>
      </trkpt>
      <trkpt lat="-22.1207924745976924896240234375" lon="166.44827096723020076751708984375">
        <ele>198.399993896484375</ele>
        <time>2016-08-12T23:22:17.000Z</time>
        <extensions>
          <ns3:TrackPointExtension>
            <ns3:atemp>25.0</ns3:atemp>
            <ns3:hr>132</ns3:hr>
          </ns3:TrackPointExtension>
        </extensions>
      </trkpt>
      <trkpt lat="-22.1207743696868419647216796875" lon="166.44825705327093601226806640625">
        <ele>198.600006103515625</ele>
        <time>2016-08-12T23:22:18.000Z</time>
        <extensions>
          <ns3:TrackPointExtension>
            <ns3:atemp>25.0</ns3:atemp>
            <ns3:hr>132</ns3:hr>
          </ns3:TrackPointExtension>
        </extensions>
      </trkpt>
      <trkpt lat="-22.12075106799602508544921875" lon="166.44824431277811527252197265625">
        <ele>198</ele>
        <time>2016-08-12T23:22:19.000Z</time>
        <extensions>
          <ns3:TrackPointExtension>
            <ns3:atemp>25.0</ns3:atemp>
            <ns3:hr>132</ns3:hr>
          </ns3:TrackPointExtension>
        </extensions>
      </trkpt>
      <trkpt lat="-22.12073028087615966796875" lon="166.44823190756142139434814453125">
        <ele>197.600006103515625</ele>
        <time>2016-08-12T23:22:20.000Z</time>
        <extensions>
          <ns3:TrackPointExtension>
            <ns3:atemp>25.0</ns3:atemp>
            <ns3:hr>133</ns3:hr>
          </ns3:TrackPointExtension>
        </extensions>
      </trkpt>
      <trkpt lat="-22.12070387788116931915283203125" lon="166.44822168163955211639404296875">
        <ele>197.8000030517578125</ele>
        <time>2016-08-12T23:22:21.000Z</time>
        <extensions>
          <ns3:TrackPointExtension>
            <ns3:atemp>25.0</ns3:atemp>
            <ns3:hr>132</ns3:hr>
          </ns3:TrackPointExtension>
        </extensions>
      </trkpt>
      <trkpt lat="-22.1206806600093841552734375" lon="166.44822251982986927032470703125">
        <ele>198</ele>
        <time>2016-08-12T23:22:22.000Z</time>
        <extensions>
          <ns3:TrackPointExtension>
            <ns3:atemp>25.0</ns3:atemp>
            <ns3:hr>132</ns3:hr>
          </ns3:TrackPointExtension>
        </extensions>
      </trkpt>
      <trkpt lat="-22.1206553466618061065673828125" lon="166.4482175745069980621337890625">
        <ele>197.600006103515625</ele>
        <time>2016-08-12T23:22:23.000Z</time>
        <extensions>
          <ns3:TrackPointExtension>
            <ns3:atemp>25.0</ns3:atemp>
            <ns3:hr>132</ns3:hr>
          </ns3:TrackPointExtension>
        </extensions>
      </trkpt>
      <trkpt lat="-22.12062659673392772674560546875" lon="166.448211707174777984619140625">
        <ele>197.600006103515625</ele>
        <time>2016-08-12T23:22:24.000Z</time>
        <extensions>
          <ns3:TrackPointExtension>
            <ns3:atemp>25.0</ns3:atemp>
            <ns3:hr>132</ns3:hr>
          </ns3:TrackPointExtension>
        </extensions>
      </trkpt>
      <trkpt lat="-22.1205986849963665008544921875" lon="166.44820877350866794586181640625">
        <ele>197.8000030517578125</ele>
        <time>2016-08-12T23:22:25.000Z</time>
        <extensions>
          <ns3:TrackPointExtension>
            <ns3:atemp>25.0</ns3:atemp>
            <ns3:hr>132</ns3:hr>
          </ns3:TrackPointExtension>
        </extensions>
      </trkpt>
      <trkpt lat="-22.1205752156674861907958984375" lon="166.44820575602352619171142578125">
        <ele>198</ele>
        <time>2016-08-12T23:22:26.000Z</time>
        <extensions>
          <ns3:TrackPointExtension>
            <ns3:atemp>25.0</ns3:atemp>
            <ns3:hr>132</ns3:hr>
          </ns3:TrackPointExtension>
        </extensions>
      </trkpt>
      <trkpt lat="-22.12055468000471591949462890625" lon="166.44820039160549640655517578125">
        <ele>197.1999969482421875</ele>
        <time>2016-08-12T23:22:27.000Z</time>
        <extensions>
          <ns3:TrackPointExtension>
            <ns3:atemp>25.0</ns3:atemp>
            <ns3:hr>132</ns3:hr>
          </ns3:TrackPointExtension>
        </extensions>
      </trkpt>
      <trkpt lat="-22.12052986957132816314697265625" lon="166.44819921813905239105224609375">
        <ele>196.8000030517578125</ele>
        <time>2016-08-12T23:22:28.000Z</time>
        <extensions>
          <ns3:TrackPointExtension>
            <ns3:atemp>25.0</ns3:atemp>
            <ns3:hr>132</ns3:hr>
          </ns3:TrackPointExtension>
        </extensions>
      </trkpt>
      <trkpt lat="-22.12050086818635463714599609375" lon="166.4482058398425579071044921875">
        <ele>196.600006103515625</ele>
        <time>2016-08-12T23:22:29.000Z</time>
        <extensions>
          <ns3:TrackPointExtension>
            <ns3:atemp>25.0</ns3:atemp>
            <ns3:hr>133</ns3:hr>
          </ns3:TrackPointExtension>
        </extensions>
      </trkpt>
      <trkpt lat="-22.12047505192458629608154296875" lon="166.44821346737444400787353515625">
        <ele>196.600006103515625</ele>
        <time>2016-08-12T23:22:30.000Z</time>
        <extensions>
          <ns3:TrackPointExtension>
            <ns3:atemp>25.0</ns3:atemp>
            <ns3:hr>132</ns3:hr>
          </ns3:TrackPointExtension>
        </extensions>
      </trkpt>
      <trkpt lat="-22.12044772692024707794189453125" lon="166.44822319038212299346923828125">
        <ele>196.600006103515625</ele>
        <time>2016-08-12T23:22:31.000Z</time>
        <extensions>
          <ns3:TrackPointExtension>
            <ns3:atemp>25.0</ns3:atemp>
            <ns3:hr>133</ns3:hr>
          </ns3:TrackPointExtension>
        </extensions>
      </trkpt>
      <trkpt lat="-22.120410762727260589599609375" lon="166.44823081791400909423828125">
        <ele>196.600006103515625</ele>
        <time>2016-08-12T23:22:32.000Z</time>
        <extensions>
          <ns3:TrackPointExtension>
            <ns3:atemp>25.0</ns3:atemp>
            <ns3:hr>133</ns3:hr>
          </ns3:TrackPointExtension>
        </extensions>
      </trkpt>
      <trkpt lat="-22.1203775703907012939453125" lon="166.448236517608165740966796875">
        <ele>196.600006103515625</ele>
        <time>2016-08-12T23:22:33.000Z</time>
        <extensions>
          <ns3:TrackPointExtension>
            <ns3:atemp>25.0</ns3:atemp>
            <ns3:hr>133</ns3:hr>
          </ns3:TrackPointExtension>
        </extensions>
      </trkpt>
      <trkpt lat="-22.12033675052225589752197265625" lon="166.44824112765491008758544921875">
        <ele>197.600006103515625</ele>
        <time>2016-08-12T23:22:34.000Z</time>
        <extensions>
          <ns3:TrackPointExtension>
            <ns3:atemp>25.0</ns3:atemp>
            <ns3:hr>133</ns3:hr>
          </ns3:TrackPointExtension>
        </extensions>
      </trkpt>
      <trkpt lat="-22.12030909024178981781005859375" lon="166.4482500962913036346435546875">
        <ele>197.1999969482421875</ele>
        <time>2016-08-12T23:22:35.000Z</time>
        <extensions>
          <ns3:TrackPointExtension>
            <ns3:atemp>25.0</ns3:atemp>
            <ns3:hr>133</ns3:hr>
          </ns3:TrackPointExtension>
        </extensions>
      </trkpt>
      <trkpt lat="-22.120283357799053192138671875" lon="166.448256969451904296875">
        <ele>196.8000030517578125</ele>
        <time>2016-08-12T23:22:36.000Z</time>
        <extensions>
          <ns3:TrackPointExtension>
            <ns3:atemp>25.0</ns3:atemp>
            <ns3:hr>133</ns3:hr>
          </ns3:TrackPointExtension>
        </extensions>
      </trkpt>
      <trkpt lat="-22.12026332505047321319580078125" lon="166.44826325587928295135498046875">
        <ele>196.600006103515625</ele>
        <time>2016-08-12T23:22:37.000Z</time>
        <extensions>
          <ns3:TrackPointExtension>
            <ns3:atemp>25.0</ns3:atemp>
            <ns3:hr>133</ns3:hr>
          </ns3:TrackPointExtension>
        </extensions>
      </trkpt>
      <trkpt lat="-22.1202416159212589263916015625" lon="166.44826979376375675201416015625">
        <ele>196.8000030517578125</ele>
        <time>2016-08-12T23:22:38.000Z</time>
        <extensions>
          <ns3:TrackPointExtension>
            <ns3:atemp>25.0</ns3:atemp>
            <ns3:hr>134</ns3:hr>
          </ns3:TrackPointExtension>
        </extensions>
      </trkpt>
      <trkpt lat="-22.12021370418369770050048828125" lon="166.4482732303440570831298828125">
        <ele>197.600006103515625</ele>
        <time>2016-08-12T23:22:39.000Z</time>
        <extensions>
          <ns3:TrackPointExtension>
            <ns3:atemp>25.0</ns3:atemp>
            <ns3:hr>134</ns3:hr>
          </ns3:TrackPointExtension>
        </extensions>
      </trkpt>
      <trkpt lat="-22.12017439305782318115234375" lon="166.4482682012021541595458984375">
        <ele>197</ele>
        <time>2016-08-12T23:22:40.000Z</time>
        <extensions>
          <ns3:TrackPointExtension>
            <ns3:atemp>25.0</ns3:atemp>
            <ns3:hr>134</ns3:hr>
          </ns3:TrackPointExtension>
        </extensions>
      </trkpt>
      <trkpt lat="-22.1201329864561557769775390625" lon="166.4482676982879638671875">
        <ele>196.8000030517578125</ele>
        <time>2016-08-12T23:22:41.000Z</time>
        <extensions>
          <ns3:TrackPointExtension>
            <ns3:atemp>25.0</ns3:atemp>
            <ns3:hr>135</ns3:hr>
          </ns3:TrackPointExtension>
        </extensions>
      </trkpt>
      <trkpt lat="-22.12007640860974788665771484375" lon="166.44826560281217098236083984375">
        <ele>196.8000030517578125</ele>
        <time>2016-08-12T23:22:42.000Z</time>
        <extensions>
          <ns3:TrackPointExtension>
            <ns3:atemp>25.0</ns3:atemp>
            <ns3:hr>135</ns3:hr>
          </ns3:TrackPointExtension>
        </extensions>
      </trkpt>
      <trkpt lat="-22.12002963759005069732666015625" lon="166.4482609927654266357421875">
        <ele>197.600006103515625</ele>
        <time>2016-08-12T23:22:43.000Z</time>
        <extensions>
          <ns3:TrackPointExtension>
            <ns3:atemp>25.0</ns3:atemp>
            <ns3:hr>135</ns3:hr>
          </ns3:TrackPointExtension>
        </extensions>
      </trkpt>
      <trkpt lat="-22.119992338120937347412109375" lon="166.4482564665377140045166015625">
        <ele>197</ele>
        <time>2016-08-12T23:22:44.000Z</time>
        <extensions>
          <ns3:TrackPointExtension>
            <ns3:atemp>25.0</ns3:atemp>
            <ns3:hr>135</ns3:hr>
          </ns3:TrackPointExtension>
        </extensions>
      </trkpt>
      <trkpt lat="-22.11997012607753276824951171875" lon="166.44825202412903308868408203125">
        <ele>196.8000030517578125</ele>
        <time>2016-08-12T23:22:45.000Z</time>
        <extensions>
          <ns3:TrackPointExtension>
            <ns3:atemp>25.0</ns3:atemp>
            <ns3:hr>135</ns3:hr>
          </ns3:TrackPointExtension>
        </extensions>
      </trkpt>
      <trkpt lat="-22.1199351735413074493408203125" lon="166.44824045710265636444091796875">
        <ele>196.8000030517578125</ele>
        <time>2016-08-12T23:22:46.000Z</time>
        <extensions>
          <ns3:TrackPointExtension>
            <ns3:atemp>25.0</ns3:atemp>
            <ns3:hr>135</ns3:hr>
          </ns3:TrackPointExtension>
        </extensions>
      </trkpt>
      <trkpt lat="-22.11990441195666790008544921875" lon="166.44824012182652950286865234375">
        <ele>196.600006103515625</ele>
        <time>2016-08-12T23:22:47.000Z</time>
        <extensions>
          <ns3:TrackPointExtension>
            <ns3:atemp>25.0</ns3:atemp>
            <ns3:hr>135</ns3:hr>
          </ns3:TrackPointExtension>
        </extensions>
      </trkpt>
      <trkpt lat="-22.11989418603479862213134765625" lon="166.4482507668435573577880859375">
        <ele>196.1999969482421875</ele>
        <time>2016-08-12T23:22:48.000Z</time>
        <extensions>
          <ns3:TrackPointExtension>
            <ns3:atemp>25.0</ns3:atemp>
            <ns3:hr>135</ns3:hr>
          </ns3:TrackPointExtension>
        </extensions>
      </trkpt>
      <trkpt lat="-22.11987909860908985137939453125" lon="166.4482594840228557586669921875">
        <ele>196</ele>
        <time>2016-08-12T23:22:49.000Z</time>
        <extensions>
          <ns3:TrackPointExtension>
            <ns3:atemp>25.0</ns3:atemp>
            <ns3:hr>135</ns3:hr>
          </ns3:TrackPointExtension>
        </extensions>
      </trkpt>
      <trkpt lat="-22.119841463863849639892578125" lon="166.44827063195407390594482421875">
        <ele>196.8000030517578125</ele>
        <time>2016-08-12T23:22:50.000Z</time>
        <extensions>
          <ns3:TrackPointExtension>
            <ns3:atemp>25.0</ns3:atemp>
            <ns3:hr>136</ns3:hr>
          </ns3:TrackPointExtension>
        </extensions>
      </trkpt>
      <trkpt lat="-22.1198131330311298370361328125" lon="166.44828404299914836883544921875">
        <ele>197.1999969482421875</ele>
        <time>2016-08-12T23:22:51.000Z</time>
        <extensions>
          <ns3:TrackPointExtension>
            <ns3:atemp>25.0</ns3:atemp>
            <ns3:hr>135</ns3:hr>
          </ns3:TrackPointExtension>
        </extensions>
      </trkpt>
      <trkpt lat="-22.11978337727487087249755859375" lon="166.4482940174639225006103515625">
        <ele>196.399993896484375</ele>
        <time>2016-08-12T23:22:52.000Z</time>
        <extensions>
          <ns3:TrackPointExtension>
            <ns3:atemp>25.0</ns3:atemp>
            <ns3:hr>136</ns3:hr>
          </ns3:TrackPointExtension>
        </extensions>
      </trkpt>
      <trkpt lat="-22.11974121630191802978515625" lon="166.44830298610031604766845703125">
        <ele>195.399993896484375</ele>
        <time>2016-08-12T23:22:53.000Z</time>
        <extensions>
          <ns3:TrackPointExtension>
            <ns3:atemp>25.0</ns3:atemp>
            <ns3:hr>136</ns3:hr>
          </ns3:TrackPointExtension>
        </extensions>
      </trkpt>
      <trkpt lat="-22.11970861069858074188232421875" lon="166.44831052981317043304443359375">
        <ele>194.8000030517578125</ele>
        <time>2016-08-12T23:22:54.000Z</time>
        <extensions>
          <ns3:TrackPointExtension>
            <ns3:atemp>25.0</ns3:atemp>
            <ns3:hr>136</ns3:hr>
          </ns3:TrackPointExtension>
        </extensions>
      </trkpt>
      <trkpt lat="-22.1196748316287994384765625" lon="166.44832058809697628021240234375">
        <ele>194.399993896484375</ele>
        <time>2016-08-12T23:22:55.000Z</time>
        <extensions>
          <ns3:TrackPointExtension>
            <ns3:atemp>25.0</ns3:atemp>
            <ns3:hr>136</ns3:hr>
          </ns3:TrackPointExtension>
        </extensions>
      </trkpt>
      <trkpt lat="-22.11965362541377544403076171875" lon="166.44832528196275234222412109375">
        <ele>194.399993896484375</ele>
        <time>2016-08-12T23:22:56.000Z</time>
        <extensions>
          <ns3:TrackPointExtension>
            <ns3:atemp>25.0</ns3:atemp>
            <ns3:hr>136</ns3:hr>
          </ns3:TrackPointExtension>
        </extensions>
      </trkpt>
      <trkpt lat="-22.11962864734232425689697265625" lon="166.44832008518278598785400390625">
        <ele>194.1999969482421875</ele>
        <time>2016-08-12T23:22:57.000Z</time>
        <extensions>
          <ns3:TrackPointExtension>
            <ns3:atemp>25.0</ns3:atemp>
            <ns3:hr>137</ns3:hr>
          </ns3:TrackPointExtension>
        </extensions>
      </trkpt>
      <trkpt lat="-22.11961708031594753265380859375" lon="166.448305584490299224853515625">
        <ele>193.8000030517578125</ele>
        <time>2016-08-12T23:22:58.000Z</time>
        <extensions>
          <ns3:TrackPointExtension>
            <ns3:atemp>25.0</ns3:atemp>
            <ns3:hr>137</ns3:hr>
          </ns3:TrackPointExtension>
        </extensions>
      </trkpt>
      <trkpt lat="-22.11961255408823490142822265625" lon="166.4482797682285308837890625">
        <ele>193.600006103515625</ele>
        <time>2016-08-12T23:22:59.000Z</time>
        <extensions>
          <ns3:TrackPointExtension>
            <ns3:atemp>25.0</ns3:atemp>
            <ns3:hr>136</ns3:hr>
          </ns3:TrackPointExtension>
        </extensions>
      </trkpt>
      <trkpt lat="-22.11961104534566402435302734375" lon="166.44824783317744731903076171875">
        <ele>193.600006103515625</ele>
        <time>2016-08-12T23:23:00.000Z</time>
        <extensions>
          <ns3:TrackPointExtension>
            <ns3:atemp>25.0</ns3:atemp>
            <ns3:hr>137</ns3:hr>
          </ns3:TrackPointExtension>
        </extensions>
      </trkpt>
      <trkpt lat="-22.119606435298919677734375" lon="166.44821832887828350067138671875">
        <ele>193.1999969482421875</ele>
        <time>2016-08-12T23:23:01.000Z</time>
        <extensions>
          <ns3:TrackPointExtension>
            <ns3:atemp>25.0</ns3:atemp>
            <ns3:hr>136</ns3:hr>
          </ns3:TrackPointExtension>
        </extensions>
      </trkpt>
      <trkpt lat="-22.11960668675601482391357421875" lon="166.448189914226531982421875">
        <ele>192.600006103515625</ele>
        <time>2016-08-12T23:23:02.000Z</time>
        <extensions>
          <ns3:TrackPointExtension>
            <ns3:atemp>25.0</ns3:atemp>
            <ns3:hr>137</ns3:hr>
          </ns3:TrackPointExtension>
        </extensions>
      </trkpt>
      <trkpt lat="-22.11961724795401096343994140625" lon="166.44816686399281024932861328125">
        <ele>193</ele>
        <time>2016-08-12T23:23:03.000Z</time>
        <extensions>
          <ns3:TrackPointExtension>
            <ns3:atemp>25.0</ns3:atemp>
            <ns3:hr>136</ns3:hr>
          </ns3:TrackPointExtension>
        </extensions>
      </trkpt>
      <trkpt lat="-22.11962278001010417938232421875" lon="166.448144651949405670166015625">
        <ele>192.600006103515625</ele>
        <time>2016-08-12T23:23:04.000Z</time>
        <extensions>
          <ns3:TrackPointExtension>
            <ns3:atemp>25.0</ns3:atemp>
            <ns3:hr>137</ns3:hr>
          </ns3:TrackPointExtension>
        </extensions>
      </trkpt>
      <trkpt lat="-22.11963015608489513397216796875" lon="166.4481297321617603302001953125">
        <ele>192.399993896484375</ele>
        <time>2016-08-12T23:23:05.000Z</time>
        <extensions>
          <ns3:TrackPointExtension>
            <ns3:atemp>25.0</ns3:atemp>
            <ns3:hr>136</ns3:hr>
          </ns3:TrackPointExtension>
        </extensions>
      </trkpt>
      <trkpt lat="-22.11963954381644725799560546875" lon="166.44811858423054218292236328125">
        <ele>192.399993896484375</ele>
        <time>2016-08-12T23:23:06.000Z</time>
        <extensions>
          <ns3:TrackPointExtension>
            <ns3:atemp>25.0</ns3:atemp>
            <ns3:hr>137</ns3:hr>
          </ns3:TrackPointExtension>
        </extensions>
      </trkpt>
      <trkpt lat="-22.11965261958539485931396484375" lon="166.44810651428997516632080078125">
        <ele>193.1999969482421875</ele>
        <time>2016-08-12T23:23:07.000Z</time>
        <extensions>
          <ns3:TrackPointExtension>
            <ns3:atemp>25.0</ns3:atemp>
            <ns3:hr>137</ns3:hr>
          </ns3:TrackPointExtension>
        </extensions>
      </trkpt>
      <trkpt lat="-22.1196817047894001007080078125" lon="166.4481012336909770965576171875">
        <ele>193</ele>
        <time>2016-08-12T23:23:08.000Z</time>
        <extensions>
          <ns3:TrackPointExtension>
            <ns3:atemp>25.0</ns3:atemp>
            <ns3:hr>137</ns3:hr>
          </ns3:TrackPointExtension>
        </extensions>
      </trkpt>
      <trkpt lat="-22.11970291100442409515380859375" lon="166.4480878226459026336669921875">
        <ele>192.399993896484375</ele>
        <time>2016-08-12T23:23:09.000Z</time>
        <extensions>
          <ns3:TrackPointExtension>
            <ns3:atemp>25.0</ns3:atemp>
            <ns3:hr>137</ns3:hr>
          </ns3:TrackPointExtension>
        </extensions>
      </trkpt>
      <trkpt lat="-22.11970475502312183380126953125" lon="166.4480683766305446624755859375">
        <ele>192</ele>
        <time>2016-08-12T23:23:10.000Z</time>
        <extensions>
          <ns3:TrackPointExtension>
            <ns3:atemp>24.0</ns3:atemp>
            <ns3:hr>137</ns3:hr>
          </ns3:TrackPointExtension>
        </extensions>
      </trkpt>
      <trkpt lat="-22.11969964206218719482421875" lon="166.4480469189584255218505859375">
        <ele>192.8000030517578125</ele>
        <time>2016-08-12T23:23:11.000Z</time>
        <extensions>
          <ns3:TrackPointExtension>
            <ns3:atemp>24.0</ns3:atemp>
            <ns3:hr>136</ns3:hr>
          </ns3:TrackPointExtension>
        </extensions>
      </trkpt>
      <trkpt lat="-22.11970492266118526458740234375" lon="166.4480276405811309814453125">
        <ele>192.1999969482421875</ele>
        <time>2016-08-12T23:23:12.000Z</time>
        <extensions>
          <ns3:TrackPointExtension>
            <ns3:atemp>24.0</ns3:atemp>
            <ns3:hr>137</ns3:hr>
          </ns3:TrackPointExtension>
        </extensions>
      </trkpt>
      <trkpt lat="-22.11969184689223766326904296875" lon="166.44800425507128238677978515625">
        <ele>192.1999969482421875</ele>
        <time>2016-08-12T23:23:13.000Z</time>
        <extensions>
          <ns3:TrackPointExtension>
            <ns3:atemp>24.0</ns3:atemp>
            <ns3:hr>137</ns3:hr>
          </ns3:TrackPointExtension>
        </extensions>
      </trkpt>
      <trkpt lat="-22.11970224045217037200927734375" lon="166.4479845575988292694091796875">
        <ele>192.399993896484375</ele>
        <time>2016-08-12T23:23:14.000Z</time>
        <extensions>
          <ns3:TrackPointExtension>
            <ns3:atemp>24.0</ns3:atemp>
            <ns3:hr>137</ns3:hr>
          </ns3:TrackPointExtension>
        </extensions>
      </trkpt>
      <trkpt lat="-22.11973945610225200653076171875" lon="166.447969637811183929443359375">
        <ele>193.1999969482421875</ele>
        <time>2016-08-12T23:23:15.000Z</time>
        <extensions>
          <ns3:TrackPointExtension>
            <ns3:atemp>24.0</ns3:atemp>
            <ns3:hr>137</ns3:hr>
          </ns3:TrackPointExtension>
        </extensions>
      </trkpt>
      <trkpt lat="-22.119763679802417755126953125" lon="166.44794239662587642669677734375">
        <ele>193</ele>
        <time>2016-08-12T23:23:16.000Z</time>
        <extensions>
          <ns3:TrackPointExtension>
            <ns3:atemp>24.0</ns3:atemp>
            <ns3:hr>137</ns3:hr>
          </ns3:TrackPointExtension>
        </extensions>
      </trkpt>
      <trkpt lat="-22.11977801285684108734130859375" lon="166.44791926257312297821044921875">
        <ele>192.600006103515625</ele>
        <time>2016-08-12T23:23:17.000Z</time>
        <extensions>
          <ns3:TrackPointExtension>
            <ns3:atemp>24.0</ns3:atemp>
            <ns3:hr>137</ns3:hr>
          </ns3:TrackPointExtension>
        </extensions>
      </trkpt>
      <trkpt lat="-22.11981103755533695220947265625" lon="166.44789663143455982208251953125">
        <ele>192.399993896484375</ele>
        <time>2016-08-12T23:23:18.000Z</time>
        <extensions>
          <ns3:TrackPointExtension>
            <ns3:atemp>24.0</ns3:atemp>
            <ns3:hr>138</ns3:hr>
          </ns3:TrackPointExtension>
        </extensions>
      </trkpt>
      <trkpt lat="-22.11981925182044506072998046875" lon="166.44786964170634746551513671875">
        <ele>192.8000030517578125</ele>
        <time>2016-08-12T23:23:19.000Z</time>
        <extensions>
          <ns3:TrackPointExtension>
            <ns3:atemp>24.0</ns3:atemp>
            <ns3:hr>138</ns3:hr>
          </ns3:TrackPointExtension>
        </extensions>
      </trkpt>
      <trkpt lat="-22.119838111102581024169921875" lon="166.44784768112003803253173828125">
        <ele>192.600006103515625</ele>
        <time>2016-08-12T23:23:20.000Z</time>
        <extensions>
          <ns3:TrackPointExtension>
            <ns3:atemp>24.0</ns3:atemp>
            <ns3:hr>138</ns3:hr>
          </ns3:TrackPointExtension>
        </extensions>
      </trkpt>
      <trkpt lat="-22.119856886565685272216796875" lon="166.44782169722020626068115234375">
        <ele>192.399993896484375</ele>
        <time>2016-08-12T23:23:21.000Z</time>
        <extensions>
          <ns3:TrackPointExtension>
            <ns3:atemp>24.0</ns3:atemp>
            <ns3:hr>138</ns3:hr>
          </ns3:TrackPointExtension>
        </extensions>
      </trkpt>
      <trkpt lat="-22.11987071670591831207275390625" lon="166.44779621623456478118896484375">
        <ele>192.600006103515625</ele>
        <time>2016-08-12T23:23:22.000Z</time>
        <extensions>
          <ns3:TrackPointExtension>
            <ns3:atemp>24.0</ns3:atemp>
            <ns3:hr>138</ns3:hr>
          </ns3:TrackPointExtension>
        </extensions>
      </trkpt>
      <trkpt lat="-22.11986887268722057342529296875" lon="166.447767131030559539794921875">
        <ele>192.399993896484375</ele>
        <time>2016-08-12T23:23:23.000Z</time>
        <extensions>
          <ns3:TrackPointExtension>
            <ns3:atemp>24.0</ns3:atemp>
            <ns3:hr>138</ns3:hr>
          </ns3:TrackPointExtension>
        </extensions>
      </trkpt>
      <trkpt lat="-22.1198768354952335357666015625" lon="166.4477327652275562286376953125">
        <ele>192.1999969482421875</ele>
        <time>2016-08-12T23:23:24.000Z</time>
        <extensions>
          <ns3:TrackPointExtension>
            <ns3:atemp>24.0</ns3:atemp>
            <ns3:hr>138</ns3:hr>
          </ns3:TrackPointExtension>
        </extensions>
      </trkpt>
      <trkpt lat="-22.11990960873663425445556640625" lon="166.44770435057580471038818359375">
        <ele>192</ele>
        <time>2016-08-12T23:23:25.000Z</time>
        <extensions>
          <ns3:TrackPointExtension>
            <ns3:atemp>24.0</ns3:atemp>
            <ns3:hr>138</ns3:hr>
          </ns3:TrackPointExtension>
        </extensions>
      </trkpt>
      <trkpt lat="-22.11991296149790287017822265625" lon="166.44767601974308490753173828125">
        <ele>191.399993896484375</ele>
        <time>2016-08-12T23:23:26.000Z</time>
        <extensions>
          <ns3:TrackPointExtension>
            <ns3:atemp>24.0</ns3:atemp>
            <ns3:hr>138</ns3:hr>
          </ns3:TrackPointExtension>
        </extensions>
      </trkpt>
      <trkpt lat="-22.11993827484548091888427734375" lon="166.447653472423553466796875">
        <ele>191</ele>
        <time>2016-08-12T23:23:27.000Z</time>
        <extensions>
          <ns3:TrackPointExtension>
            <ns3:atemp>24.0</ns3:atemp>
            <ns3:hr>137</ns3:hr>
          </ns3:TrackPointExtension>
        </extensions>
      </trkpt>
      <trkpt lat="-22.11996476165950298309326171875" lon="166.44763226620852947235107421875">
        <ele>190.600006103515625</ele>
        <time>2016-08-12T23:23:28.000Z</time>
        <extensions>
          <ns3:TrackPointExtension>
            <ns3:atemp>24.0</ns3:atemp>
            <ns3:hr>137</ns3:hr>
          </ns3:TrackPointExtension>
        </extensions>
      </trkpt>
      <trkpt lat="-22.1199767477810382843017578125" lon="166.44760946743190288543701171875">
        <ele>190</ele>
        <time>2016-08-12T23:23:29.000Z</time>
        <extensions>
          <ns3:TrackPointExtension>
            <ns3:atemp>24.0</ns3:atemp>
            <ns3:hr>137</ns3:hr>
          </ns3:TrackPointExtension>
        </extensions>
      </trkpt>
      <trkpt lat="-22.1200045756995677947998046875" lon="166.44758583046495914459228515625">
        <ele>189.8000030517578125</ele>
        <time>2016-08-12T23:23:30.000Z</time>
        <extensions>
          <ns3:TrackPointExtension>
            <ns3:atemp>24.0</ns3:atemp>
            <ns3:hr>137</ns3:hr>
          </ns3:TrackPointExtension>
        </extensions>
      </trkpt>
      <trkpt lat="-22.120032571256160736083984375" lon="166.44756303168833255767822265625">
        <ele>189.399993896484375</ele>
        <time>2016-08-12T23:23:31.000Z</time>
        <extensions>
          <ns3:TrackPointExtension>
            <ns3:atemp>24.0</ns3:atemp>
            <ns3:hr>138</ns3:hr>
          </ns3:TrackPointExtension>
        </extensions>
      </trkpt>
      <trkpt lat="-22.12005008943378925323486328125" lon="166.4475433342158794403076171875">
        <ele>188.8000030517578125</ele>
        <time>2016-08-12T23:23:32.000Z</time>
        <extensions>
          <ns3:TrackPointExtension>
            <ns3:atemp>24.0</ns3:atemp>
            <ns3:hr>138</ns3:hr>
          </ns3:TrackPointExtension>
        </extensions>
      </trkpt>
      <trkpt lat="-22.1200664341449737548828125" lon="166.4475225470960140228271484375">
        <ele>188.399993896484375</ele>
        <time>2016-08-12T23:23:33.000Z</time>
        <extensions>
          <ns3:TrackPointExtension>
            <ns3:atemp>24.0</ns3:atemp>
            <ns3:hr>138</ns3:hr>
          </ns3:TrackPointExtension>
        </extensions>
      </trkpt>
      <trkpt lat="-22.12008847855031490325927734375" lon="166.44750469364225864410400390625">
        <ele>188.1999969482421875</ele>
        <time>2016-08-12T23:23:34.000Z</time>
        <extensions>
          <ns3:TrackPointExtension>
            <ns3:atemp>24.0</ns3:atemp>
            <ns3:hr>138</ns3:hr>
          </ns3:TrackPointExtension>
        </extensions>
      </trkpt>
      <trkpt lat="-22.1201225928962230682373046875" lon="166.44748985767364501953125">
        <ele>187.600006103515625</ele>
        <time>2016-08-12T23:23:35.000Z</time>
        <extensions>
          <ns3:TrackPointExtension>
            <ns3:atemp>24.0</ns3:atemp>
            <ns3:hr>138</ns3:hr>
          </ns3:TrackPointExtension>
        </extensions>
      </trkpt>
      <trkpt lat="-22.12016106583178043365478515625" lon="166.44747518934309482574462890625">
        <ele>187.1999969482421875</ele>
        <time>2016-08-12T23:23:36.000Z</time>
        <extensions>
          <ns3:TrackPointExtension>
            <ns3:atemp>24.0</ns3:atemp>
            <ns3:hr>138</ns3:hr>
          </ns3:TrackPointExtension>
        </extensions>
      </trkpt>
      <trkpt lat="-22.12019241414964199066162109375" lon="166.44746236503124237060546875">
        <ele>187.399993896484375</ele>
        <time>2016-08-12T23:23:37.000Z</time>
        <extensions>
          <ns3:TrackPointExtension>
            <ns3:atemp>24.0</ns3:atemp>
            <ns3:hr>138</ns3:hr>
          </ns3:TrackPointExtension>
        </extensions>
      </trkpt>
      <trkpt lat="-22.120228372514247894287109375" lon="166.4474501274526119232177734375">
        <ele>187</ele>
        <time>2016-08-12T23:23:38.000Z</time>
        <extensions>
          <ns3:TrackPointExtension>
            <ns3:atemp>24.0</ns3:atemp>
            <ns3:hr>138</ns3:hr>
          </ns3:TrackPointExtension>
        </extensions>
      </trkpt>
      <trkpt lat="-22.1202583797276020050048828125" lon="166.44743428565561771392822265625">
        <ele>186.8000030517578125</ele>
        <time>2016-08-12T23:23:39.000Z</time>
        <extensions>
          <ns3:TrackPointExtension>
            <ns3:atemp>24.0</ns3:atemp>
            <ns3:hr>138</ns3:hr>
          </ns3:TrackPointExtension>
        </extensions>
      </trkpt>
      <trkpt lat="-22.1202828548848628997802734375" lon="166.44741483964025974273681640625">
        <ele>186.399993896484375</ele>
        <time>2016-08-12T23:23:40.000Z</time>
        <extensions>
          <ns3:TrackPointExtension>
            <ns3:atemp>24.0</ns3:atemp>
            <ns3:hr>138</ns3:hr>
          </ns3:TrackPointExtension>
        </extensions>
      </trkpt>
      <trkpt lat="-22.12030716240406036376953125" lon="166.447393633425235748291015625">
        <ele>186.600006103515625</ele>
        <time>2016-08-12T23:23:41.000Z</time>
        <extensions>
          <ns3:TrackPointExtension>
            <ns3:atemp>24.0</ns3:atemp>
            <ns3:hr>137</ns3:hr>
          </ns3:TrackPointExtension>
        </extensions>
      </trkpt>
      <trkpt lat="-22.12032820098102092742919921875" lon="166.44736974500119686126708984375">
        <ele>186</ele>
        <time>2016-08-12T23:23:42.000Z</time>
        <extensions>
          <ns3:TrackPointExtension>
            <ns3:atemp>24.0</ns3:atemp>
            <ns3:hr>137</ns3:hr>
          </ns3:TrackPointExtension>
        </extensions>
      </trkpt>
      <trkpt lat="-22.120345048606395721435546875" lon="166.447342000901699066162109375">
        <ele>185.600006103515625</ele>
        <time>2016-08-12T23:23:43.000Z</time>
        <extensions>
          <ns3:TrackPointExtension>
            <ns3:atemp>24.0</ns3:atemp>
            <ns3:hr>137</ns3:hr>
          </ns3:TrackPointExtension>
        </extensions>
      </trkpt>
      <trkpt lat="-22.1203727088868618011474609375" lon="166.44732146523892879486083984375">
        <ele>185.399993896484375</ele>
        <time>2016-08-12T23:23:44.000Z</time>
        <extensions>
          <ns3:TrackPointExtension>
            <ns3:atemp>24.0</ns3:atemp>
            <ns3:hr>137</ns3:hr>
          </ns3:TrackPointExtension>
        </extensions>
      </trkpt>
      <trkpt lat="-22.12040162645280361175537109375" lon="166.44730470143258571624755859375">
        <ele>185.399993896484375</ele>
        <time>2016-08-12T23:23:45.000Z</time>
        <extensions>
          <ns3:TrackPointExtension>
            <ns3:atemp>24.0</ns3:atemp>
            <ns3:hr>137</ns3:hr>
          </ns3:TrackPointExtension>
        </extensions>
      </trkpt>
      <trkpt lat="-22.12042526341974735260009765625" lon="166.44728324376046657562255859375">
        <ele>185.399993896484375</ele>
        <time>2016-08-12T23:23:46.000Z</time>
        <extensions>
          <ns3:TrackPointExtension>
            <ns3:atemp>24.0</ns3:atemp>
            <ns3:hr>137</ns3:hr>
          </ns3:TrackPointExtension>
        </extensions>
      </trkpt>
      <trkpt lat="-22.1204444579780101776123046875" lon="166.4472603611648082733154296875">
        <ele>185.399993896484375</ele>
        <time>2016-08-12T23:23:47.000Z</time>
        <extensions>
          <ns3:TrackPointExtension>
            <ns3:atemp>24.0</ns3:atemp>
            <ns3:hr>137</ns3:hr>
          </ns3:TrackPointExtension>
        </extensions>
      </trkpt>
      <trkpt lat="-22.12046298198401927947998046875" lon="166.4472362212836742401123046875">
        <ele>185.399993896484375</ele>
        <time>2016-08-12T23:23:48.000Z</time>
        <extensions>
          <ns3:TrackPointExtension>
            <ns3:atemp>24.0</ns3:atemp>
            <ns3:hr>137</ns3:hr>
          </ns3:TrackPointExtension>
        </extensions>
      </trkpt>
      <trkpt lat="-22.1204796619713306427001953125" lon="166.44721400924026966094970703125">
        <ele>185.1999969482421875</ele>
        <time>2016-08-12T23:23:49.000Z</time>
        <extensions>
          <ns3:TrackPointExtension>
            <ns3:atemp>24.0</ns3:atemp>
            <ns3:hr>137</ns3:hr>
          </ns3:TrackPointExtension>
        </extensions>
      </trkpt>
      <trkpt lat="-22.120489887893199920654296875" lon="166.44719171337783336639404296875">
        <ele>184.8000030517578125</ele>
        <time>2016-08-12T23:23:50.000Z</time>
        <extensions>
          <ns3:TrackPointExtension>
            <ns3:atemp>24.0</ns3:atemp>
            <ns3:hr>137</ns3:hr>
          </ns3:TrackPointExtension>
        </extensions>
      </trkpt>
      <trkpt lat="-22.120503969490528106689453125" lon="166.44716757349669933319091796875">
        <ele>185.8000030517578125</ele>
        <time>2016-08-12T23:23:51.000Z</time>
        <extensions>
          <ns3:TrackPointExtension>
            <ns3:atemp>24.0</ns3:atemp>
            <ns3:hr>137</ns3:hr>
          </ns3:TrackPointExtension>
        </extensions>
      </trkpt>
      <trkpt lat="-22.1205269359052181243896484375" lon="166.44714527763426303863525390625">
        <ele>185.8000030517578125</ele>
        <time>2016-08-12T23:23:52.000Z</time>
        <extensions>
          <ns3:TrackPointExtension>
            <ns3:atemp>24.0</ns3:atemp>
            <ns3:hr>136</ns3:hr>
          </ns3:TrackPointExtension>
        </extensions>
      </trkpt>
      <trkpt lat="-22.1205460466444492340087890625" lon="166.447116695344448089599609375">
        <ele>185.399993896484375</ele>
        <time>2016-08-12T23:23:53.000Z</time>
        <extensions>
          <ns3:TrackPointExtension>
            <ns3:atemp>24.0</ns3:atemp>
            <ns3:hr>136</ns3:hr>
          </ns3:TrackPointExtension>
        </extensions>
      </trkpt>
      <trkpt lat="-22.12056406773626804351806640625" lon="166.44708911888301372528076171875">
        <ele>185.1999969482421875</ele>
        <time>2016-08-12T23:23:54.000Z</time>
        <extensions>
          <ns3:TrackPointExtension>
            <ns3:atemp>24.0</ns3:atemp>
            <ns3:hr>136</ns3:hr>
          </ns3:TrackPointExtension>
        </extensions>
      </trkpt>
      <trkpt lat="-22.120581082999706268310546875" lon="166.4470628835260868072509765625">
        <ele>185</ele>
        <time>2016-08-12T23:23:55.000Z</time>
        <extensions>
          <ns3:TrackPointExtension>
            <ns3:atemp>24.0</ns3:atemp>
            <ns3:hr>136</ns3:hr>
          </ns3:TrackPointExtension>
        </extensions>
      </trkpt>
      <trkpt lat="-22.12059684097766876220703125" lon="166.44703933037817478179931640625">
        <ele>185.8000030517578125</ele>
        <time>2016-08-12T23:23:56.000Z</time>
        <extensions>
          <ns3:TrackPointExtension>
            <ns3:atemp>24.0</ns3:atemp>
            <ns3:hr>136</ns3:hr>
          </ns3:TrackPointExtension>
        </extensions>
      </trkpt>
      <trkpt lat="-22.1206184662878513336181640625" lon="166.4470223151147365570068359375">
        <ele>185.399993896484375</ele>
        <time>2016-08-12T23:23:57.000Z</time>
        <extensions>
          <ns3:TrackPointExtension>
            <ns3:atemp>24.0</ns3:atemp>
            <ns3:hr>137</ns3:hr>
          </ns3:TrackPointExtension>
        </extensions>
      </trkpt>
      <trkpt lat="-22.1206369064748287200927734375" lon="166.44700027070939540863037109375">
        <ele>185.1999969482421875</ele>
        <time>2016-08-12T23:23:58.000Z</time>
        <extensions>
          <ns3:TrackPointExtension>
            <ns3:atemp>24.0</ns3:atemp>
            <ns3:hr>136</ns3:hr>
          </ns3:TrackPointExtension>
        </extensions>
      </trkpt>
      <trkpt lat="-22.12065241299569606781005859375" lon="166.4469793997704982757568359375">
        <ele>185</ele>
        <time>2016-08-12T23:23:59.000Z</time>
        <extensions>
          <ns3:TrackPointExtension>
            <ns3:atemp>24.0</ns3:atemp>
            <ns3:hr>137</ns3:hr>
          </ns3:TrackPointExtension>
        </extensions>
      </trkpt>
      <trkpt lat="-22.12066733278334140777587890625" lon="166.4469569362699985504150390625">
        <ele>185.399993896484375</ele>
        <time>2016-08-12T23:24:00.000Z</time>
        <extensions>
          <ns3:TrackPointExtension>
            <ns3:atemp>24.0</ns3:atemp>
            <ns3:hr>136</ns3:hr>
          </ns3:TrackPointExtension>
        </extensions>
      </trkpt>
      <trkpt lat="-22.12067998945713043212890625" lon="166.4469327963888645172119140625">
        <ele>185.8000030517578125</ele>
        <time>2016-08-12T23:24:01.000Z</time>
        <extensions>
          <ns3:TrackPointExtension>
            <ns3:atemp>24.0</ns3:atemp>
            <ns3:hr>137</ns3:hr>
          </ns3:TrackPointExtension>
        </extensions>
      </trkpt>
      <trkpt lat="-22.12068937718868255615234375" lon="166.44690639339387416839599609375">
        <ele>185.8000030517578125</ele>
        <time>2016-08-12T23:24:02.000Z</time>
        <extensions>
          <ns3:TrackPointExtension>
            <ns3:atemp>24.0</ns3:atemp>
            <ns3:hr>137</ns3:hr>
          </ns3:TrackPointExtension>
        </extensions>
      </trkpt>
      <trkpt lat="-22.12069482542574405670166015625" lon="166.4468778111040592193603515625">
        <ele>185.8000030517578125</ele>
        <time>2016-08-12T23:24:03.000Z</time>
        <extensions>
          <ns3:TrackPointExtension>
            <ns3:atemp>24.0</ns3:atemp>
            <ns3:hr>137</ns3:hr>
          </ns3:TrackPointExtension>
        </extensions>
      </trkpt>
      <trkpt lat="-22.12070438079535961151123046875" lon="166.44685593433678150177001953125">
        <ele>186.1999969482421875</ele>
        <time>2016-08-12T23:24:04.000Z</time>
        <extensions>
          <ns3:TrackPointExtension>
            <ns3:atemp>24.0</ns3:atemp>
            <ns3:hr>138</ns3:hr>
          </ns3:TrackPointExtension>
        </extensions>
      </trkpt>
      <trkpt lat="-22.12071410380303859710693359375" lon="166.44682659767568111419677734375">
        <ele>187</ele>
        <time>2016-08-12T23:24:05.000Z</time>
        <extensions>
          <ns3:TrackPointExtension>
            <ns3:atemp>24.0</ns3:atemp>
            <ns3:hr>138</ns3:hr>
          </ns3:TrackPointExtension>
        </extensions>
      </trkpt>
      <trkpt lat="-22.12072852067649364471435546875" lon="166.44679927267134189605712890625">
        <ele>186.1999969482421875</ele>
        <time>2016-08-12T23:24:06.000Z</time>
        <extensions>
          <ns3:TrackPointExtension>
            <ns3:atemp>24.0</ns3:atemp>
            <ns3:hr>138</ns3:hr>
          </ns3:TrackPointExtension>
        </extensions>
      </trkpt>
      <trkpt lat="-22.1207458712160587310791015625" lon="166.44677580334246158599853515625">
        <ele>185.600006103515625</ele>
        <time>2016-08-12T23:24:07.000Z</time>
        <extensions>
          <ns3:TrackPointExtension>
            <ns3:atemp>24.0</ns3:atemp>
            <ns3:hr>138</ns3:hr>
          </ns3:TrackPointExtension>
        </extensions>
      </trkpt>
      <trkpt lat="-22.1207566000521183013916015625" lon="166.446751914918422698974609375">
        <ele>184.1999969482421875</ele>
        <time>2016-08-12T23:24:08.000Z</time>
        <extensions>
          <ns3:TrackPointExtension>
            <ns3:atemp>24.0</ns3:atemp>
            <ns3:hr>139</ns3:hr>
          </ns3:TrackPointExtension>
        </extensions>
      </trkpt>
      <trkpt lat="-22.1207666583359241485595703125" lon="166.446729786694049835205078125">
        <ele>183</ele>
        <time>2016-08-12T23:24:09.000Z</time>
        <extensions>
          <ns3:TrackPointExtension>
            <ns3:atemp>24.0</ns3:atemp>
            <ns3:hr>139</ns3:hr>
          </ns3:TrackPointExtension>
        </extensions>
      </trkpt>
      <trkpt lat="-22.12077646516263484954833984375" lon="166.446705646812915802001953125">
        <ele>182.600006103515625</ele>
        <time>2016-08-12T23:24:10.000Z</time>
        <extensions>
          <ns3:TrackPointExtension>
            <ns3:atemp>24.0</ns3:atemp>
            <ns3:hr>139</ns3:hr>
          </ns3:TrackPointExtension>
        </extensions>
      </trkpt>
      <trkpt lat="-22.1207783930003643035888671875" lon="166.44667957909405231475830078125">
        <ele>182.8000030517578125</ele>
        <time>2016-08-12T23:24:11.000Z</time>
        <extensions>
          <ns3:TrackPointExtension>
            <ns3:atemp>24.0</ns3:atemp>
            <ns3:hr>139</ns3:hr>
          </ns3:TrackPointExtension>
        </extensions>
      </trkpt>
      <trkpt lat="-22.120782248675823211669921875" lon="166.44665158353745937347412109375">
        <ele>183.1999969482421875</ele>
        <time>2016-08-12T23:24:12.000Z</time>
        <extensions>
          <ns3:TrackPointExtension>
            <ns3:atemp>24.0</ns3:atemp>
            <ns3:hr>140</ns3:hr>
          </ns3:TrackPointExtension>
        </extensions>
      </trkpt>
      <trkpt lat="-22.12076984345912933349609375" lon="166.44661772064864635467529296875">
        <ele>183.399993896484375</ele>
        <time>2016-08-12T23:24:13.000Z</time>
        <extensions>
          <ns3:TrackPointExtension>
            <ns3:atemp>24.0</ns3:atemp>
            <ns3:hr>140</ns3:hr>
          </ns3:TrackPointExtension>
        </extensions>
      </trkpt>
      <trkpt lat="-22.1207686699926853179931640625" lon="166.44659408368170261383056640625">
        <ele>184</ele>
        <time>2016-08-12T23:24:14.000Z</time>
        <extensions>
          <ns3:TrackPointExtension>
            <ns3:atemp>24.0</ns3:atemp>
            <ns3:hr>140</ns3:hr>
          </ns3:TrackPointExtension>
        </extensions>
      </trkpt>
      <trkpt lat="-22.1207596175372600555419921875" lon="166.44656508229672908782958984375">
        <ele>184.8000030517578125</ele>
        <time>2016-08-12T23:24:15.000Z</time>
        <extensions>
          <ns3:TrackPointExtension>
            <ns3:atemp>24.0</ns3:atemp>
            <ns3:hr>141</ns3:hr>
          </ns3:TrackPointExtension>
        </extensions>
      </trkpt>
      <trkpt lat="-22.1207562647759914398193359375" lon="166.44653993658721446990966796875">
        <ele>185.399993896484375</ele>
        <time>2016-08-12T23:24:16.000Z</time>
        <extensions>
          <ns3:TrackPointExtension>
            <ns3:atemp>24.0</ns3:atemp>
            <ns3:hr>141</ns3:hr>
          </ns3:TrackPointExtension>
        </extensions>
      </trkpt>
      <trkpt lat="-22.12075115181505680084228515625" lon="166.44651495851576328277587890625">
        <ele>185.600006103515625</ele>
        <time>2016-08-12T23:24:17.000Z</time>
        <extensions>
          <ns3:TrackPointExtension>
            <ns3:atemp>24.0</ns3:atemp>
            <ns3:hr>141</ns3:hr>
          </ns3:TrackPointExtension>
        </extensions>
      </trkpt>
      <trkpt lat="-22.12074930779635906219482421875" lon="166.44648746587336063385009765625">
        <ele>186.1999969482421875</ele>
        <time>2016-08-12T23:24:18.000Z</time>
        <extensions>
          <ns3:TrackPointExtension>
            <ns3:atemp>24.0</ns3:atemp>
            <ns3:hr>142</ns3:hr>
          </ns3:TrackPointExtension>
        </extensions>
      </trkpt>
      <trkpt lat="-22.12074838578701019287109375" lon="166.4464613981544971466064453125">
        <ele>186.399993896484375</ele>
        <time>2016-08-12T23:24:19.000Z</time>
        <extensions>
          <ns3:TrackPointExtension>
            <ns3:atemp>24.0</ns3:atemp>
            <ns3:hr>142</ns3:hr>
          </ns3:TrackPointExtension>
        </extensions>
      </trkpt>
      <trkpt lat="-22.12074645794928073883056640625" lon="166.44643197767436504364013671875">
        <ele>186.1999969482421875</ele>
        <time>2016-08-12T23:24:20.000Z</time>
        <extensions>
          <ns3:TrackPointExtension>
            <ns3:atemp>24.0</ns3:atemp>
            <ns3:hr>142</ns3:hr>
          </ns3:TrackPointExtension>
        </extensions>
      </trkpt>
      <trkpt lat="-22.120751403272151947021484375" lon="166.44640532322227954864501953125">
        <ele>185.8000030517578125</ele>
        <time>2016-08-12T23:24:21.000Z</time>
        <extensions>
          <ns3:TrackPointExtension>
            <ns3:atemp>24.0</ns3:atemp>
            <ns3:hr>143</ns3:hr>
          </ns3:TrackPointExtension>
        </extensions>
      </trkpt>
      <trkpt lat="-22.12075819261372089385986328125" lon="166.446384452283382415771484375">
        <ele>185.399993896484375</ele>
        <time>2016-08-12T23:24:22.000Z</time>
        <extensions>
          <ns3:TrackPointExtension>
            <ns3:atemp>24.0</ns3:atemp>
            <ns3:hr>143</ns3:hr>
          </ns3:TrackPointExtension>
        </extensions>
      </trkpt>
      <trkpt lat="-22.12076313793659210205078125" lon="166.4463591389358043670654296875">
        <ele>185.1999969482421875</ele>
        <time>2016-08-12T23:24:23.000Z</time>
        <extensions>
          <ns3:TrackPointExtension>
            <ns3:atemp>24.0</ns3:atemp>
            <ns3:hr>143</ns3:hr>
          </ns3:TrackPointExtension>
        </extensions>
      </trkpt>
      <trkpt lat="-22.12076523341238498687744140625" lon="166.44633508287370204925537109375">
        <ele>185</ele>
        <time>2016-08-12T23:24:24.000Z</time>
        <extensions>
          <ns3:TrackPointExtension>
            <ns3:atemp>24.0</ns3:atemp>
            <ns3:hr>144</ns3:hr>
          </ns3:TrackPointExtension>
        </extensions>
      </trkpt>
      <trkpt lat="-22.12076573632657527923583984375" lon="166.4463101886212825775146484375">
        <ele>185</ele>
        <time>2016-08-12T23:24:25.000Z</time>
        <extensions>
          <ns3:TrackPointExtension>
            <ns3:atemp>24.0</ns3:atemp>
            <ns3:hr>144</ns3:hr>
          </ns3:TrackPointExtension>
        </extensions>
      </trkpt>
      <trkpt lat="-22.12076774798333644866943359375" lon="166.44628311507403850555419921875">
        <ele>185</ele>
        <time>2016-08-12T23:24:26.000Z</time>
        <extensions>
          <ns3:TrackPointExtension>
            <ns3:atemp>24.0</ns3:atemp>
            <ns3:hr>144</ns3:hr>
          </ns3:TrackPointExtension>
        </extensions>
      </trkpt>
      <trkpt lat="-22.120769508183002471923828125" lon="166.44625847227871417999267578125">
        <ele>185</ele>
        <time>2016-08-12T23:24:27.000Z</time>
        <extensions>
          <ns3:TrackPointExtension>
            <ns3:atemp>24.0</ns3:atemp>
            <ns3:hr>144</ns3:hr>
          </ns3:TrackPointExtension>
        </extensions>
      </trkpt>
      <trkpt lat="-22.1207706816494464874267578125" lon="166.446234919130802154541015625">
        <ele>185</ele>
        <time>2016-08-12T23:24:28.000Z</time>
        <extensions>
          <ns3:TrackPointExtension>
            <ns3:atemp>24.0</ns3:atemp>
            <ns3:hr>145</ns3:hr>
          </ns3:TrackPointExtension>
        </extensions>
      </trkpt>
      <trkpt lat="-22.1207679994404315948486328125" lon="166.44620583392679691314697265625">
        <ele>185</ele>
        <time>2016-08-12T23:24:29.000Z</time>
        <extensions>
          <ns3:TrackPointExtension>
            <ns3:atemp>24.0</ns3:atemp>
            <ns3:hr>145</ns3:hr>
          </ns3:TrackPointExtension>
        </extensions>
      </trkpt>
      <trkpt lat="-22.120762132108211517333984375" lon="166.44617985002696514129638671875">
        <ele>184.8000030517578125</ele>
        <time>2016-08-12T23:24:30.000Z</time>
        <extensions>
          <ns3:TrackPointExtension>
            <ns3:atemp>24.0</ns3:atemp>
            <ns3:hr>144</ns3:hr>
          </ns3:TrackPointExtension>
        </extensions>
      </trkpt>
      <trkpt lat="-22.1207606233656406402587890625" lon="166.44615202210843563079833984375">
        <ele>184.8000030517578125</ele>
        <time>2016-08-12T23:24:31.000Z</time>
        <extensions>
          <ns3:TrackPointExtension>
            <ns3:atemp>24.0</ns3:atemp>
            <ns3:hr>145</ns3:hr>
          </ns3:TrackPointExtension>
        </extensions>
      </trkpt>
      <trkpt lat="-22.1207485534250736236572265625" lon="166.44612100906670093536376953125">
        <ele>184.8000030517578125</ele>
        <time>2016-08-12T23:24:32.000Z</time>
        <extensions>
          <ns3:TrackPointExtension>
            <ns3:atemp>24.0</ns3:atemp>
            <ns3:hr>145</ns3:hr>
          </ns3:TrackPointExtension>
        </extensions>
      </trkpt>
      <trkpt lat="-22.1207381598651409149169921875" lon="166.4460952766239643096923828125">
        <ele>184.8000030517578125</ele>
        <time>2016-08-12T23:24:33.000Z</time>
        <extensions>
          <ns3:TrackPointExtension>
            <ns3:atemp>24.0</ns3:atemp>
            <ns3:hr>145</ns3:hr>
          </ns3:TrackPointExtension>
        </extensions>
      </trkpt>
      <trkpt lat="-22.12072198279201984405517578125" lon="166.4460667781531810760498046875">
        <ele>184.399993896484375</ele>
        <time>2016-08-12T23:24:34.000Z</time>
        <extensions>
          <ns3:TrackPointExtension>
            <ns3:atemp>24.0</ns3:atemp>
            <ns3:hr>145</ns3:hr>
          </ns3:TrackPointExtension>
        </extensions>
      </trkpt>
      <trkpt lat="-22.12069918401539325714111328125" lon="166.44603970460593700408935546875">
        <ele>184.1999969482421875</ele>
        <time>2016-08-12T23:24:35.000Z</time>
        <extensions>
          <ns3:TrackPointExtension>
            <ns3:atemp>24.0</ns3:atemp>
            <ns3:hr>146</ns3:hr>
          </ns3:TrackPointExtension>
        </extensions>
      </trkpt>
      <trkpt lat="-22.12068426422774791717529296875" lon="166.44601472653448581695556640625">
        <ele>184.1999969482421875</ele>
        <time>2016-08-12T23:24:36.000Z</time>
        <extensions>
          <ns3:TrackPointExtension>
            <ns3:atemp>24.0</ns3:atemp>
            <ns3:hr>146</ns3:hr>
          </ns3:TrackPointExtension>
        </extensions>
      </trkpt>
      <trkpt lat="-22.12066548876464366912841796875" lon="166.445987485349178314208984375">
        <ele>184.399993896484375</ele>
        <time>2016-08-12T23:24:37.000Z</time>
        <extensions>
          <ns3:TrackPointExtension>
            <ns3:atemp>24.0</ns3:atemp>
            <ns3:hr>146</ns3:hr>
          </ns3:TrackPointExtension>
        </extensions>
      </trkpt>
      <trkpt lat="-22.12065048515796661376953125" lon="166.4459635131061077117919921875">
        <ele>184.1999969482421875</ele>
        <time>2016-08-12T23:24:38.000Z</time>
        <extensions>
          <ns3:TrackPointExtension>
            <ns3:atemp>24.0</ns3:atemp>
            <ns3:hr>146</ns3:hr>
          </ns3:TrackPointExtension>
        </extensions>
      </trkpt>
      <trkpt lat="-22.120632715523242950439453125" lon="166.44594146870076656341552734375">
        <ele>183.600006103515625</ele>
        <time>2016-08-12T23:24:39.000Z</time>
        <extensions>
          <ns3:TrackPointExtension>
            <ns3:atemp>24.0</ns3:atemp>
            <ns3:hr>146</ns3:hr>
          </ns3:TrackPointExtension>
        </extensions>
      </trkpt>
      <trkpt lat="-22.12061016820371150970458984375" lon="166.445918418467044830322265625">
        <ele>183.600006103515625</ele>
        <time>2016-08-12T23:24:40.000Z</time>
        <extensions>
          <ns3:TrackPointExtension>
            <ns3:atemp>24.0</ns3:atemp>
            <ns3:hr>146</ns3:hr>
          </ns3:TrackPointExtension>
        </extensions>
      </trkpt>
      <trkpt lat="-22.1205936558544635772705078125" lon="166.4458954520523548126220703125">
        <ele>183.399993896484375</ele>
        <time>2016-08-12T23:24:41.000Z</time>
        <extensions>
          <ns3:TrackPointExtension>
            <ns3:atemp>24.0</ns3:atemp>
            <ns3:hr>146</ns3:hr>
          </ns3:TrackPointExtension>
        </extensions>
      </trkpt>
      <trkpt lat="-22.12057747878134250640869140625" lon="166.44587122835218906402587890625">
        <ele>183</ele>
        <time>2016-08-12T23:24:42.000Z</time>
        <extensions>
          <ns3:TrackPointExtension>
            <ns3:atemp>24.0</ns3:atemp>
            <ns3:hr>145</ns3:hr>
          </ns3:TrackPointExtension>
        </extensions>
      </trkpt>
      <trkpt lat="-22.1205614693462848663330078125" lon="166.4458481781184673309326171875">
        <ele>182.8000030517578125</ele>
        <time>2016-08-12T23:24:43.000Z</time>
        <extensions>
          <ns3:TrackPointExtension>
            <ns3:atemp>24.0</ns3:atemp>
            <ns3:hr>145</ns3:hr>
          </ns3:TrackPointExtension>
        </extensions>
      </trkpt>
      <trkpt lat="-22.1205440349876880645751953125" lon="166.4458267204463481903076171875">
        <ele>182.8000030517578125</ele>
        <time>2016-08-12T23:24:44.000Z</time>
        <extensions>
          <ns3:TrackPointExtension>
            <ns3:atemp>24.0</ns3:atemp>
            <ns3:hr>146</ns3:hr>
          </ns3:TrackPointExtension>
        </extensions>
      </trkpt>
      <trkpt lat="-22.12052576243877410888671875" lon="166.4458072744309902191162109375">
        <ele>183</ele>
        <time>2016-08-12T23:24:45.000Z</time>
        <extensions>
          <ns3:TrackPointExtension>
            <ns3:atemp>24.0</ns3:atemp>
            <ns3:hr>145</ns3:hr>
          </ns3:TrackPointExtension>
        </extensions>
      </trkpt>
      <trkpt lat="-22.1205064840614795684814453125" lon="166.44578992389142513275146484375">
        <ele>182.8000030517578125</ele>
        <time>2016-08-12T23:24:46.000Z</time>
        <extensions>
          <ns3:TrackPointExtension>
            <ns3:atemp>24.0</ns3:atemp>
            <ns3:hr>145</ns3:hr>
          </ns3:TrackPointExtension>
        </extensions>
      </trkpt>
      <trkpt lat="-22.12048544548451900482177734375" lon="166.445770226418972015380859375">
        <ele>182.399993896484375</ele>
        <time>2016-08-12T23:24:47.000Z</time>
        <extensions>
          <ns3:TrackPointExtension>
            <ns3:atemp>24.0</ns3:atemp>
            <ns3:hr>145</ns3:hr>
          </ns3:TrackPointExtension>
        </extensions>
      </trkpt>
      <trkpt lat="-22.1204618923366069793701171875" lon="166.44574935548007488250732421875">
        <ele>182.399993896484375</ele>
        <time>2016-08-12T23:24:48.000Z</time>
        <extensions>
          <ns3:TrackPointExtension>
            <ns3:atemp>24.0</ns3:atemp>
            <ns3:hr>145</ns3:hr>
          </ns3:TrackPointExtension>
        </extensions>
      </trkpt>
      <trkpt lat="-22.12044588290154933929443359375" lon="166.44572488032281398773193359375">
        <ele>182</ele>
        <time>2016-08-12T23:24:49.000Z</time>
        <extensions>
          <ns3:TrackPointExtension>
            <ns3:atemp>24.0</ns3:atemp>
            <ns3:hr>145</ns3:hr>
          </ns3:TrackPointExtension>
        </extensions>
      </trkpt>
      <trkpt lat="-22.12042828090488910675048828125" lon="166.4457016624510288238525390625">
        <ele>181.8000030517578125</ele>
        <time>2016-08-12T23:24:50.000Z</time>
        <extensions>
          <ns3:TrackPointExtension>
            <ns3:atemp>24.0</ns3:atemp>
            <ns3:hr>145</ns3:hr>
          </ns3:TrackPointExtension>
        </extensions>
      </trkpt>
      <trkpt lat="-22.1204112656414508819580078125" lon="166.4456751756370067596435546875">
        <ele>181.600006103515625</ele>
        <time>2016-08-12T23:24:51.000Z</time>
        <extensions>
          <ns3:TrackPointExtension>
            <ns3:atemp>24.0</ns3:atemp>
            <ns3:hr>145</ns3:hr>
          </ns3:TrackPointExtension>
        </extensions>
      </trkpt>
      <trkpt lat="-22.12039835751056671142578125" lon="166.4456463418900966644287109375">
        <ele>181.600006103515625</ele>
        <time>2016-08-12T23:24:52.000Z</time>
        <extensions>
          <ns3:TrackPointExtension>
            <ns3:atemp>24.0</ns3:atemp>
            <ns3:hr>144</ns3:hr>
          </ns3:TrackPointExtension>
        </extensions>
      </trkpt>
      <trkpt lat="-22.120386622846126556396484375" lon="166.44562329165637493133544921875">
        <ele>181.600006103515625</ele>
        <time>2016-08-12T23:24:53.000Z</time>
        <extensions>
          <ns3:TrackPointExtension>
            <ns3:atemp>24.0</ns3:atemp>
            <ns3:hr>144</ns3:hr>
          </ns3:TrackPointExtension>
        </extensions>
      </trkpt>
      <trkpt lat="-22.1203737147152423858642578125" lon="166.44559822976589202880859375">
        <ele>181.600006103515625</ele>
        <time>2016-08-12T23:24:54.000Z</time>
        <extensions>
          <ns3:TrackPointExtension>
            <ns3:atemp>24.0</ns3:atemp>
            <ns3:hr>144</ns3:hr>
          </ns3:TrackPointExtension>
        </extensions>
      </trkpt>
      <trkpt lat="-22.120361812412738800048828125" lon="166.44556864164769649505615234375">
        <ele>181.399993896484375</ele>
        <time>2016-08-12T23:24:55.000Z</time>
        <extensions>
          <ns3:TrackPointExtension>
            <ns3:atemp>24.0</ns3:atemp>
            <ns3:hr>144</ns3:hr>
          </ns3:TrackPointExtension>
        </extensions>
      </trkpt>
      <trkpt lat="-22.1203549392521381378173828125" lon="166.44554383121430873870849609375">
        <ele>181</ele>
        <time>2016-08-12T23:24:56.000Z</time>
        <extensions>
          <ns3:TrackPointExtension>
            <ns3:atemp>24.0</ns3:atemp>
            <ns3:hr>143</ns3:hr>
          </ns3:TrackPointExtension>
        </extensions>
      </trkpt>
      <trkpt lat="-22.12034496478736400604248046875" lon="166.4455179311335086822509765625">
        <ele>180.8000030517578125</ele>
        <time>2016-08-12T23:24:57.000Z</time>
        <extensions>
          <ns3:TrackPointExtension>
            <ns3:atemp>24.0</ns3:atemp>
            <ns3:hr>143</ns3:hr>
          </ns3:TrackPointExtension>
        </extensions>
      </trkpt>
      <trkpt lat="-22.12033976800739765167236328125" lon="166.44549152813851833343505859375">
        <ele>180.600006103515625</ele>
        <time>2016-08-12T23:24:58.000Z</time>
        <extensions>
          <ns3:TrackPointExtension>
            <ns3:atemp>24.0</ns3:atemp>
            <ns3:hr>143</ns3:hr>
          </ns3:TrackPointExtension>
        </extensions>
      </trkpt>
      <trkpt lat="-22.1203375048935413360595703125" lon="166.44547258503735065460205078125">
        <ele>180.1999969482421875</ele>
        <time>2016-08-12T23:24:59.000Z</time>
        <extensions>
          <ns3:TrackPointExtension>
            <ns3:atemp>24.0</ns3:atemp>
            <ns3:hr>143</ns3:hr>
          </ns3:TrackPointExtension>
        </extensions>
      </trkpt>
      <trkpt lat="-22.12033934891223907470703125" lon="166.44545380957424640655517578125">
        <ele>180</ele>
        <time>2016-08-12T23:25:00.000Z</time>
        <extensions>
          <ns3:TrackPointExtension>
            <ns3:atemp>24.0</ns3:atemp>
            <ns3:hr>142</ns3:hr>
          </ns3:TrackPointExtension>
        </extensions>
      </trkpt>
      <trkpt lat="-22.12034680880606174468994140625" lon="166.44543067552149295806884765625">
        <ele>179.600006103515625</ele>
        <time>2016-08-12T23:25:01.000Z</time>
        <extensions>
          <ns3:TrackPointExtension>
            <ns3:atemp>24.0</ns3:atemp>
            <ns3:hr>142</ns3:hr>
          </ns3:TrackPointExtension>
        </extensions>
      </trkpt>
      <trkpt lat="-22.12034781463444232940673828125" lon="166.4454093016684055328369140625">
        <ele>179.399993896484375</ele>
        <time>2016-08-12T23:25:02.000Z</time>
        <extensions>
          <ns3:TrackPointExtension>
            <ns3:atemp>24.0</ns3:atemp>
            <ns3:hr>142</ns3:hr>
          </ns3:TrackPointExtension>
        </extensions>
      </trkpt>
      <trkpt lat="-22.120365165174007415771484375" lon="166.4453831501305103302001953125">
        <ele>179.1999969482421875</ele>
        <time>2016-08-12T23:25:03.000Z</time>
        <extensions>
          <ns3:TrackPointExtension>
            <ns3:atemp>24.0</ns3:atemp>
            <ns3:hr>141</ns3:hr>
          </ns3:TrackPointExtension>
        </extensions>
      </trkpt>
      <trkpt lat="-22.1203686855733394622802734375" lon="166.4453502930700778961181640625">
        <ele>178.8000030517578125</ele>
        <time>2016-08-12T23:25:04.000Z</time>
        <extensions>
          <ns3:TrackPointExtension>
            <ns3:atemp>24.0</ns3:atemp>
            <ns3:hr>141</ns3:hr>
          </ns3:TrackPointExtension>
        </extensions>
      </trkpt>
      <trkpt lat="-22.120377235114574432373046875" lon="166.4453217945992946624755859375">
        <ele>178.399993896484375</ele>
        <time>2016-08-12T23:25:05.000Z</time>
        <extensions>
          <ns3:TrackPointExtension>
            <ns3:atemp>24.0</ns3:atemp>
            <ns3:hr>141</ns3:hr>
          </ns3:TrackPointExtension>
        </extensions>
      </trkpt>
      <trkpt lat="-22.12038754485547542572021484375" lon="166.445294134318828582763671875">
        <ele>178.399993896484375</ele>
        <time>2016-08-12T23:25:06.000Z</time>
        <extensions>
          <ns3:TrackPointExtension>
            <ns3:atemp>24.0</ns3:atemp>
            <ns3:hr>140</ns3:hr>
          </ns3:TrackPointExtension>
        </extensions>
      </trkpt>
      <trkpt lat="-22.1203934960067272186279296875" lon="166.445263959467411041259765625">
        <ele>178.399993896484375</ele>
        <time>2016-08-12T23:25:07.000Z</time>
        <extensions>
          <ns3:TrackPointExtension>
            <ns3:atemp>24.0</ns3:atemp>
            <ns3:hr>140</ns3:hr>
          </ns3:TrackPointExtension>
        </extensions>
      </trkpt>
      <trkpt lat="-22.12039626203477382659912109375" lon="166.44523923285305500030517578125">
        <ele>178</ele>
        <time>2016-08-12T23:25:08.000Z</time>
        <extensions>
          <ns3:TrackPointExtension>
            <ns3:atemp>24.0</ns3:atemp>
            <ns3:hr>140</ns3:hr>
          </ns3:TrackPointExtension>
        </extensions>
      </trkpt>
      <trkpt lat="-22.12039433419704437255859375" lon="166.44521207548677921295166015625">
        <ele>177.600006103515625</ele>
        <time>2016-08-12T23:25:09.000Z</time>
        <extensions>
          <ns3:TrackPointExtension>
            <ns3:atemp>24.0</ns3:atemp>
            <ns3:hr>139</ns3:hr>
          </ns3:TrackPointExtension>
        </extensions>
      </trkpt>
      <trkpt lat="-22.12039995007216930389404296875" lon="166.44518206827342510223388671875">
        <ele>177.399993896484375</ele>
        <time>2016-08-12T23:25:10.000Z</time>
        <extensions>
          <ns3:TrackPointExtension>
            <ns3:atemp>24.0</ns3:atemp>
            <ns3:hr>139</ns3:hr>
          </ns3:TrackPointExtension>
        </extensions>
      </trkpt>
      <trkpt lat="-22.120403386652469635009765625" lon="166.445155330002307891845703125">
        <ele>177</ele>
        <time>2016-08-12T23:25:11.000Z</time>
        <extensions>
          <ns3:TrackPointExtension>
            <ns3:atemp>24.0</ns3:atemp>
            <ns3:hr>139</ns3:hr>
          </ns3:TrackPointExtension>
        </extensions>
      </trkpt>
      <trkpt lat="-22.1204089187085628509521484375" lon="166.44512725062668323516845703125">
        <ele>176.399993896484375</ele>
        <time>2016-08-12T23:25:12.000Z</time>
        <extensions>
          <ns3:TrackPointExtension>
            <ns3:atemp>24.0</ns3:atemp>
            <ns3:hr>138</ns3:hr>
          </ns3:TrackPointExtension>
        </extensions>
      </trkpt>
      <trkpt lat="-22.12040908634662628173828125" lon="166.44510294310748577117919921875">
        <ele>176.399993896484375</ele>
        <time>2016-08-12T23:25:13.000Z</time>
        <extensions>
          <ns3:TrackPointExtension>
            <ns3:atemp>24.0</ns3:atemp>
            <ns3:hr>138</ns3:hr>
          </ns3:TrackPointExtension>
        </extensions>
      </trkpt>
      <trkpt lat="-22.12040531449019908905029296875" lon="166.44507586956024169921875">
        <ele>176.600006103515625</ele>
        <time>2016-08-12T23:25:14.000Z</time>
        <extensions>
          <ns3:TrackPointExtension>
            <ns3:atemp>24.0</ns3:atemp>
            <ns3:hr>137</ns3:hr>
          </ns3:TrackPointExtension>
        </extensions>
      </trkpt>
      <trkpt lat="-22.12039961479604244232177734375" lon="166.44504569470882415771484375">
        <ele>176.1999969482421875</ele>
        <time>2016-08-12T23:25:15.000Z</time>
        <extensions>
          <ns3:TrackPointExtension>
            <ns3:atemp>24.0</ns3:atemp>
            <ns3:hr>136</ns3:hr>
          </ns3:TrackPointExtension>
        </extensions>
      </trkpt>
      <trkpt lat="-22.12038905359804630279541015625" lon="166.44502029754221439361572265625">
        <ele>175.8000030517578125</ele>
        <time>2016-08-12T23:25:16.000Z</time>
        <extensions>
          <ns3:TrackPointExtension>
            <ns3:atemp>24.0</ns3:atemp>
            <ns3:hr>136</ns3:hr>
          </ns3:TrackPointExtension>
        </extensions>
      </trkpt>
      <trkpt lat="-22.12038150988519191741943359375" lon="166.44499414600431919097900390625">
        <ele>175.600006103515625</ele>
        <time>2016-08-12T23:25:17.000Z</time>
        <extensions>
          <ns3:TrackPointExtension>
            <ns3:atemp>24.0</ns3:atemp>
            <ns3:hr>134</ns3:hr>
          </ns3:TrackPointExtension>
        </extensions>
      </trkpt>
      <trkpt lat="-22.12037622928619384765625" lon="166.4449687488377094268798828125">
        <ele>175.600006103515625</ele>
        <time>2016-08-12T23:25:18.000Z</time>
        <extensions>
          <ns3:TrackPointExtension>
            <ns3:atemp>24.0</ns3:atemp>
            <ns3:hr>134</ns3:hr>
          </ns3:TrackPointExtension>
        </extensions>
      </trkpt>
      <trkpt lat="-22.1203706972301006317138671875" lon="166.44494351930916309356689453125">
        <ele>175.600006103515625</ele>
        <time>2016-08-12T23:25:19.000Z</time>
        <extensions>
          <ns3:TrackPointExtension>
            <ns3:atemp>24.0</ns3:atemp>
            <ns3:hr>133</ns3:hr>
          </ns3:TrackPointExtension>
        </extensions>
      </trkpt>
      <trkpt lat="-22.12035988457500934600830078125" lon="166.44491560757160186767578125">
        <ele>175.600006103515625</ele>
        <time>2016-08-12T23:25:20.000Z</time>
        <extensions>
          <ns3:TrackPointExtension>
            <ns3:atemp>24.0</ns3:atemp>
            <ns3:hr>132</ns3:hr>
          </ns3:TrackPointExtension>
        </extensions>
      </trkpt>
      <trkpt lat="-22.12035301141440868377685546875" lon="166.44488685764372348785400390625">
        <ele>175.1999969482421875</ele>
        <time>2016-08-12T23:25:21.000Z</time>
        <extensions>
          <ns3:TrackPointExtension>
            <ns3:atemp>24.0</ns3:atemp>
            <ns3:hr>132</ns3:hr>
          </ns3:TrackPointExtension>
        </extensions>
      </trkpt>
      <trkpt lat="-22.1203482337296009063720703125" lon="166.44485835917294025421142578125">
        <ele>175.1999969482421875</ele>
        <time>2016-08-12T23:25:22.000Z</time>
        <extensions>
          <ns3:TrackPointExtension>
            <ns3:atemp>24.0</ns3:atemp>
            <ns3:hr>131</ns3:hr>
          </ns3:TrackPointExtension>
        </extensions>
      </trkpt>
      <trkpt lat="-22.1203442104160785675048828125" lon="166.44482952542603015899658203125">
        <ele>175.399993896484375</ele>
        <time>2016-08-12T23:25:23.000Z</time>
        <extensions>
          <ns3:TrackPointExtension>
            <ns3:atemp>24.0</ns3:atemp>
            <ns3:hr>130</ns3:hr>
          </ns3:TrackPointExtension>
        </extensions>
      </trkpt>
      <trkpt lat="-22.1203432045876979827880859375" lon="166.444800607860088348388671875">
        <ele>175.1999969482421875</ele>
        <time>2016-08-12T23:25:24.000Z</time>
        <extensions>
          <ns3:TrackPointExtension>
            <ns3:atemp>24.0</ns3:atemp>
            <ns3:hr>129</ns3:hr>
          </ns3:TrackPointExtension>
        </extensions>
      </trkpt>
      <trkpt lat="-22.120335996150970458984375" lon="166.44477076828479766845703125">
        <ele>174.8000030517578125</ele>
        <time>2016-08-12T23:25:25.000Z</time>
        <extensions>
          <ns3:TrackPointExtension>
            <ns3:atemp>24.0</ns3:atemp>
            <ns3:hr>129</ns3:hr>
          </ns3:TrackPointExtension>
        </extensions>
      </trkpt>
      <trkpt lat="-22.12032736279070377349853515625" lon="166.4447434432804584503173828125">
        <ele>174.600006103515625</ele>
        <time>2016-08-12T23:25:26.000Z</time>
        <extensions>
          <ns3:TrackPointExtension>
            <ns3:atemp>24.0</ns3:atemp>
            <ns3:hr>128</ns3:hr>
          </ns3:TrackPointExtension>
        </extensions>
      </trkpt>
      <trkpt lat="-22.1203158795833587646484375" lon="166.444713771343231201171875">
        <ele>174.399993896484375</ele>
        <time>2016-08-12T23:25:27.000Z</time>
        <extensions>
          <ns3:TrackPointExtension>
            <ns3:atemp>24.0</ns3:atemp>
            <ns3:hr>128</ns3:hr>
          </ns3:TrackPointExtension>
        </extensions>
      </trkpt>
      <trkpt lat="-22.12030909024178981781005859375" lon="166.44468368031084537506103515625">
        <ele>174.8000030517578125</ele>
        <time>2016-08-12T23:25:28.000Z</time>
        <extensions>
          <ns3:TrackPointExtension>
            <ns3:atemp>24.0</ns3:atemp>
            <ns3:hr>128</ns3:hr>
          </ns3:TrackPointExtension>
        </extensions>
      </trkpt>
      <trkpt lat="-22.12030112743377685546875" lon="166.4446556009352207183837890625">
        <ele>174.600006103515625</ele>
        <time>2016-08-12T23:25:29.000Z</time>
        <extensions>
          <ns3:TrackPointExtension>
            <ns3:atemp>24.0</ns3:atemp>
            <ns3:hr>129</ns3:hr>
          </ns3:TrackPointExtension>
        </extensions>
      </trkpt>
      <trkpt lat="-22.12029241025447845458984375" lon="166.44462718628346920013427734375">
        <ele>174.399993896484375</ele>
        <time>2016-08-12T23:25:30.000Z</time>
        <extensions>
          <ns3:TrackPointExtension>
            <ns3:atemp>24.0</ns3:atemp>
            <ns3:hr>129</ns3:hr>
          </ns3:TrackPointExtension>
        </extensions>
      </trkpt>
      <trkpt lat="-22.12028436362743377685546875" lon="166.44460120238363742828369140625">
        <ele>174.1999969482421875</ele>
        <time>2016-08-12T23:25:31.000Z</time>
        <extensions>
          <ns3:TrackPointExtension>
            <ns3:atemp>24.0</ns3:atemp>
            <ns3:hr>130</ns3:hr>
          </ns3:TrackPointExtension>
        </extensions>
      </trkpt>
      <trkpt lat="-22.1202764846384525299072265625" lon="166.44457572139799594879150390625">
        <ele>174.1999969482421875</ele>
        <time>2016-08-12T23:25:32.000Z</time>
        <extensions>
          <ns3:TrackPointExtension>
            <ns3:atemp>24.0</ns3:atemp>
            <ns3:hr>131</ns3:hr>
          </ns3:TrackPointExtension>
        </extensions>
      </trkpt>
      <trkpt lat="-22.12026961147785186767578125" lon="166.444543786346912384033203125">
        <ele>174.399993896484375</ele>
        <time>2016-08-12T23:25:33.000Z</time>
        <extensions>
          <ns3:TrackPointExtension>
            <ns3:atemp>24.0</ns3:atemp>
            <ns3:hr>132</ns3:hr>
          </ns3:TrackPointExtension>
        </extensions>
      </trkpt>
      <trkpt lat="-22.120262570679187774658203125" lon="166.4445167966187000274658203125">
        <ele>174</ele>
        <time>2016-08-12T23:25:34.000Z</time>
        <extensions>
          <ns3:TrackPointExtension>
            <ns3:atemp>24.0</ns3:atemp>
            <ns3:hr>132</ns3:hr>
          </ns3:TrackPointExtension>
        </extensions>
      </trkpt>
      <trkpt lat="-22.12024773471057415008544921875" lon="166.4444869570434093475341796875">
        <ele>173.8000030517578125</ele>
        <time>2016-08-12T23:25:35.000Z</time>
        <extensions>
          <ns3:TrackPointExtension>
            <ns3:atemp>24.0</ns3:atemp>
            <ns3:hr>133</ns3:hr>
          </ns3:TrackPointExtension>
        </extensions>
      </trkpt>
      <trkpt lat="-22.12023985572159290313720703125" lon="166.4444601349532604217529296875">
        <ele>173.8000030517578125</ele>
        <time>2016-08-12T23:25:36.000Z</time>
        <extensions>
          <ns3:TrackPointExtension>
            <ns3:atemp>24.0</ns3:atemp>
            <ns3:hr>134</ns3:hr>
          </ns3:TrackPointExtension>
        </extensions>
      </trkpt>
      <trkpt lat="-22.1202339045703411102294921875" lon="166.44443306140601634979248046875">
        <ele>173.600006103515625</ele>
        <time>2016-08-12T23:25:37.000Z</time>
        <extensions>
          <ns3:TrackPointExtension>
            <ns3:atemp>24.0</ns3:atemp>
            <ns3:hr>134</ns3:hr>
          </ns3:TrackPointExtension>
        </extensions>
      </trkpt>
      <trkpt lat="-22.12022476829588413238525390625" lon="166.44440196454524993896484375">
        <ele>173.399993896484375</ele>
        <time>2016-08-12T23:25:38.000Z</time>
        <extensions>
          <ns3:TrackPointExtension>
            <ns3:atemp>24.0</ns3:atemp>
            <ns3:hr>135</ns3:hr>
          </ns3:TrackPointExtension>
        </extensions>
      </trkpt>
      <trkpt lat="-22.12022342719137668609619140625" lon="166.4443717896938323974609375">
        <ele>173</ele>
        <time>2016-08-12T23:25:39.000Z</time>
        <extensions>
          <ns3:TrackPointExtension>
            <ns3:atemp>24.0</ns3:atemp>
            <ns3:hr>135</ns3:hr>
          </ns3:TrackPointExtension>
        </extensions>
      </trkpt>
      <trkpt lat="-22.1202112734317779541015625" lon="166.44434320740401744842529296875">
        <ele>173</ele>
        <time>2016-08-12T23:25:40.000Z</time>
        <extensions>
          <ns3:TrackPointExtension>
            <ns3:atemp>24.0</ns3:atemp>
            <ns3:hr>135</ns3:hr>
          </ns3:TrackPointExtension>
        </extensions>
      </trkpt>
      <trkpt lat="-22.1201987005770206451416015625" lon="166.44431571476161479949951171875">
        <ele>172.8000030517578125</ele>
        <time>2016-08-12T23:25:41.000Z</time>
        <extensions>
          <ns3:TrackPointExtension>
            <ns3:atemp>24.0</ns3:atemp>
            <ns3:hr>136</ns3:hr>
          </ns3:TrackPointExtension>
        </extensions>
      </trkpt>
      <trkpt lat="-22.12018503807485103607177734375" lon="166.44428704865276813507080078125">
        <ele>172.399993896484375</ele>
        <time>2016-08-12T23:25:42.000Z</time>
        <extensions>
          <ns3:TrackPointExtension>
            <ns3:atemp>24.0</ns3:atemp>
            <ns3:hr>136</ns3:hr>
          </ns3:TrackPointExtension>
        </extensions>
      </trkpt>
      <trkpt lat="-22.12017573416233062744140625" lon="166.4442606456577777862548828125">
        <ele>172.399993896484375</ele>
        <time>2016-08-12T23:25:43.000Z</time>
        <extensions>
          <ns3:TrackPointExtension>
            <ns3:atemp>24.0</ns3:atemp>
            <ns3:hr>136</ns3:hr>
          </ns3:TrackPointExtension>
        </extensions>
      </trkpt>
      <trkpt lat="-22.12016458623111248016357421875" lon="166.4442368410527706146240234375">
        <ele>172.1999969482421875</ele>
        <time>2016-08-12T23:25:44.000Z</time>
        <extensions>
          <ns3:TrackPointExtension>
            <ns3:atemp>24.0</ns3:atemp>
            <ns3:hr>136</ns3:hr>
          </ns3:TrackPointExtension>
        </extensions>
      </trkpt>
      <trkpt lat="-22.12015318684279918670654296875" lon="166.44421043805778026580810546875">
        <ele>172.1999969482421875</ele>
        <time>2016-08-12T23:25:45.000Z</time>
        <extensions>
          <ns3:TrackPointExtension>
            <ns3:atemp>24.0</ns3:atemp>
            <ns3:hr>136</ns3:hr>
          </ns3:TrackPointExtension>
        </extensions>
      </trkpt>
      <trkpt lat="-22.12014564312994480133056640625" lon="166.4441831968724727630615234375">
        <ele>172</ele>
        <time>2016-08-12T23:25:46.000Z</time>
        <extensions>
          <ns3:TrackPointExtension>
            <ns3:atemp>24.0</ns3:atemp>
            <ns3:hr>136</ns3:hr>
          </ns3:TrackPointExtension>
        </extensions>
      </trkpt>
      <trkpt lat="-22.12013374082744121551513671875" lon="166.4441557042300701141357421875">
        <ele>171.8000030517578125</ele>
        <time>2016-08-12T23:25:47.000Z</time>
        <extensions>
          <ns3:TrackPointExtension>
            <ns3:atemp>24.0</ns3:atemp>
            <ns3:hr>136</ns3:hr>
          </ns3:TrackPointExtension>
        </extensions>
      </trkpt>
      <trkpt lat="-22.12012116797268390655517578125" lon="166.4441245235502719879150390625">
        <ele>171.600006103515625</ele>
        <time>2016-08-12T23:25:48.000Z</time>
        <extensions>
          <ns3:TrackPointExtension>
            <ns3:atemp>24.0</ns3:atemp>
            <ns3:hr>136</ns3:hr>
          </ns3:TrackPointExtension>
        </extensions>
      </trkpt>
      <trkpt lat="-22.12011077441275119781494140625" lon="166.444097198545932769775390625">
        <ele>171.600006103515625</ele>
        <time>2016-08-12T23:25:49.000Z</time>
        <extensions>
          <ns3:TrackPointExtension>
            <ns3:atemp>24.0</ns3:atemp>
            <ns3:hr>136</ns3:hr>
          </ns3:TrackPointExtension>
        </extensions>
      </trkpt>
      <trkpt lat="-22.12010490708053112030029296875" lon="166.44406802952289581298828125">
        <ele>171.1999969482421875</ele>
        <time>2016-08-12T23:25:50.000Z</time>
        <extensions>
          <ns3:TrackPointExtension>
            <ns3:atemp>24.0</ns3:atemp>
            <ns3:hr>135</ns3:hr>
          </ns3:TrackPointExtension>
        </extensions>
      </trkpt>
      <trkpt lat="-22.1201026439666748046875" lon="166.4440396986901760101318359375">
        <ele>171.1999969482421875</ele>
        <time>2016-08-12T23:25:51.000Z</time>
        <extensions>
          <ns3:TrackPointExtension>
            <ns3:atemp>24.0</ns3:atemp>
            <ns3:hr>135</ns3:hr>
          </ns3:TrackPointExtension>
        </extensions>
      </trkpt>
      <trkpt lat="-22.12009660899639129638671875" lon="166.444016061723232269287109375">
        <ele>170.8000030517578125</ele>
        <time>2016-08-12T23:25:52.000Z</time>
        <extensions>
          <ns3:TrackPointExtension>
            <ns3:atemp>24.0</ns3:atemp>
            <ns3:hr>135</ns3:hr>
          </ns3:TrackPointExtension>
        </extensions>
      </trkpt>
      <trkpt lat="-22.12009183131158351898193359375" lon="166.4439887367188930511474609375">
        <ele>170.399993896484375</ele>
        <time>2016-08-12T23:25:53.000Z</time>
        <extensions>
          <ns3:TrackPointExtension>
            <ns3:atemp>24.0</ns3:atemp>
            <ns3:hr>135</ns3:hr>
          </ns3:TrackPointExtension>
        </extensions>
      </trkpt>
      <trkpt lat="-22.12009183131158351898193359375" lon="166.44396048970520496368408203125">
        <ele>170.399993896484375</ele>
        <time>2016-08-12T23:25:54.000Z</time>
        <extensions>
          <ns3:TrackPointExtension>
            <ns3:atemp>24.0</ns3:atemp>
            <ns3:hr>135</ns3:hr>
          </ns3:TrackPointExtension>
        </extensions>
      </trkpt>
      <trkpt lat="-22.1200937591493129730224609375" lon="166.44393316470086574554443359375">
        <ele>170.1999969482421875</ele>
        <time>2016-08-12T23:25:55.000Z</time>
        <extensions>
          <ns3:TrackPointExtension>
            <ns3:atemp>24.0</ns3:atemp>
            <ns3:hr>135</ns3:hr>
          </ns3:TrackPointExtension>
        </extensions>
      </trkpt>
      <trkpt lat="-22.120092250406742095947265625" lon="166.44390148110687732696533203125">
        <ele>169.8000030517578125</ele>
        <time>2016-08-12T23:25:56.000Z</time>
        <extensions>
          <ns3:TrackPointExtension>
            <ns3:atemp>24.0</ns3:atemp>
            <ns3:hr>134</ns3:hr>
          </ns3:TrackPointExtension>
        </extensions>
      </trkpt>
      <trkpt lat="-22.1200873889029026031494140625" lon="166.44387331791222095489501953125">
        <ele>169.600006103515625</ele>
        <time>2016-08-12T23:25:57.000Z</time>
        <extensions>
          <ns3:TrackPointExtension>
            <ns3:atemp>24.0</ns3:atemp>
            <ns3:hr>134</ns3:hr>
          </ns3:TrackPointExtension>
        </extensions>
      </trkpt>
      <trkpt lat="-22.12008185684680938720703125" lon="166.4438452385365962982177734375">
        <ele>169.399993896484375</ele>
        <time>2016-08-12T23:25:58.000Z</time>
        <extensions>
          <ns3:TrackPointExtension>
            <ns3:atemp>24.0</ns3:atemp>
            <ns3:hr>134</ns3:hr>
          </ns3:TrackPointExtension>
        </extensions>
      </trkpt>
      <trkpt lat="-22.12006400339305400848388671875" lon="166.44381548278033733367919921875">
        <ele>169.1999969482421875</ele>
        <time>2016-08-12T23:25:59.000Z</time>
        <extensions>
          <ns3:TrackPointExtension>
            <ns3:atemp>24.0</ns3:atemp>
            <ns3:hr>134</ns3:hr>
          </ns3:TrackPointExtension>
        </extensions>
      </trkpt>
      <trkpt lat="-22.12005025707185268402099609375" lon="166.44378614611923694610595703125">
        <ele>169</ele>
        <time>2016-08-12T23:26:00.000Z</time>
        <extensions>
          <ns3:TrackPointExtension>
            <ns3:atemp>24.0</ns3:atemp>
            <ns3:hr>134</ns3:hr>
          </ns3:TrackPointExtension>
        </extensions>
      </trkpt>
      <trkpt lat="-22.1200350858271121978759765625" lon="166.4437570609152317047119140625">
        <ele>168.8000030517578125</ele>
        <time>2016-08-12T23:26:01.000Z</time>
        <extensions>
          <ns3:TrackPointExtension>
            <ns3:atemp>24.0</ns3:atemp>
            <ns3:hr>134</ns3:hr>
          </ns3:TrackPointExtension>
        </extensions>
      </trkpt>
      <trkpt lat="-22.12001907639205455780029296875" lon="166.4437325857579708099365234375">
        <ele>168.600006103515625</ele>
        <time>2016-08-12T23:26:02.000Z</time>
        <extensions>
          <ns3:TrackPointExtension>
            <ns3:atemp>24.0</ns3:atemp>
            <ns3:hr>134</ns3:hr>
          </ns3:TrackPointExtension>
        </extensions>
      </trkpt>
      <trkpt lat="-22.1200018934905529022216796875" lon="166.4437064342200756072998046875">
        <ele>168.399993896484375</ele>
        <time>2016-08-12T23:26:03.000Z</time>
        <extensions>
          <ns3:TrackPointExtension>
            <ns3:atemp>24.0</ns3:atemp>
            <ns3:hr>134</ns3:hr>
          </ns3:TrackPointExtension>
        </extensions>
      </trkpt>
      <trkpt lat="-22.11998404003679752349853515625" lon="166.443681456148624420166015625">
        <ele>168.399993896484375</ele>
        <time>2016-08-12T23:26:04.000Z</time>
        <extensions>
          <ns3:TrackPointExtension>
            <ns3:atemp>24.0</ns3:atemp>
            <ns3:hr>134</ns3:hr>
          </ns3:TrackPointExtension>
        </extensions>
      </trkpt>
      <trkpt lat="-22.119966186583042144775390625" lon="166.443655304610729217529296875">
        <ele>168.1999969482421875</ele>
        <time>2016-08-12T23:26:05.000Z</time>
        <extensions>
          <ns3:TrackPointExtension>
            <ns3:atemp>24.0</ns3:atemp>
            <ns3:hr>134</ns3:hr>
          </ns3:TrackPointExtension>
        </extensions>
      </trkpt>
      <trkpt lat="-22.11994397453963756561279296875" lon="166.44363082945346832275390625">
        <ele>168</ele>
        <time>2016-08-12T23:26:06.000Z</time>
        <extensions>
          <ns3:TrackPointExtension>
            <ns3:atemp>24.0</ns3:atemp>
            <ns3:hr>134</ns3:hr>
          </ns3:TrackPointExtension>
        </extensions>
      </trkpt>
      <trkpt lat="-22.1199254505336284637451171875" lon="166.4436095394194126129150390625">
        <ele>167.8000030517578125</ele>
        <time>2016-08-12T23:26:07.000Z</time>
        <extensions>
          <ns3:TrackPointExtension>
            <ns3:atemp>24.0</ns3:atemp>
            <ns3:hr>134</ns3:hr>
          </ns3:TrackPointExtension>
        </extensions>
      </trkpt>
      <trkpt lat="-22.1199123747646808624267578125" lon="166.44358615390956401824951171875">
        <ele>167.399993896484375</ele>
        <time>2016-08-12T23:26:08.000Z</time>
        <extensions>
          <ns3:TrackPointExtension>
            <ns3:atemp>24.0</ns3:atemp>
            <ns3:hr>134</ns3:hr>
          </ns3:TrackPointExtension>
        </extensions>
      </trkpt>
      <trkpt lat="-22.11990172974765300750732421875" lon="166.44355748780071735382080078125">
        <ele>167.1999969482421875</ele>
        <time>2016-08-12T23:26:09.000Z</time>
        <extensions>
          <ns3:TrackPointExtension>
            <ns3:atemp>24.0</ns3:atemp>
            <ns3:hr>133</ns3:hr>
          </ns3:TrackPointExtension>
        </extensions>
      </trkpt>
      <trkpt lat="-22.1198932640254497528076171875" lon="166.44352429546415805816650390625">
        <ele>167</ele>
        <time>2016-08-12T23:26:10.000Z</time>
        <extensions>
          <ns3:TrackPointExtension>
            <ns3:atemp>24.0</ns3:atemp>
            <ns3:hr>133</ns3:hr>
          </ns3:TrackPointExtension>
        </extensions>
      </trkpt>
      <trkpt lat="-22.11988739669322967529296875" lon="166.44349462352693080902099609375">
        <ele>166.600006103515625</ele>
        <time>2016-08-12T23:26:11.000Z</time>
        <extensions>
          <ns3:TrackPointExtension>
            <ns3:atemp>24.0</ns3:atemp>
            <ns3:hr>133</ns3:hr>
          </ns3:TrackPointExtension>
        </extensions>
      </trkpt>
      <trkpt lat="-22.119882367551326751708984375" lon="166.4434640295803546905517578125">
        <ele>166.1999969482421875</ele>
        <time>2016-08-12T23:26:12.000Z</time>
        <extensions>
          <ns3:TrackPointExtension>
            <ns3:atemp>24.0</ns3:atemp>
            <ns3:hr>133</ns3:hr>
          </ns3:TrackPointExtension>
        </extensions>
      </trkpt>
      <trkpt lat="-22.1198754943907260894775390625" lon="166.443431675434112548828125">
        <ele>165.8000030517578125</ele>
        <time>2016-08-12T23:26:13.000Z</time>
        <extensions>
          <ns3:TrackPointExtension>
            <ns3:atemp>24.0</ns3:atemp>
            <ns3:hr>133</ns3:hr>
          </ns3:TrackPointExtension>
        </extensions>
      </trkpt>
      <trkpt lat="-22.11987239308655261993408203125" lon="166.443404518067836761474609375">
        <ele>165.399993896484375</ele>
        <time>2016-08-12T23:26:14.000Z</time>
        <extensions>
          <ns3:TrackPointExtension>
            <ns3:atemp>24.0</ns3:atemp>
            <ns3:hr>133</ns3:hr>
          </ns3:TrackPointExtension>
        </extensions>
      </trkpt>
      <trkpt lat="-22.11987524293363094329833984375" lon="166.4433758519589900970458984375">
        <ele>164.8000030517578125</ele>
        <time>2016-08-12T23:26:15.000Z</time>
        <extensions>
          <ns3:TrackPointExtension>
            <ns3:atemp>24.0</ns3:atemp>
            <ns3:hr>133</ns3:hr>
          </ns3:TrackPointExtension>
        </extensions>
      </trkpt>
      <trkpt lat="-22.11988069117069244384765625" lon="166.4433486945927143096923828125">
        <ele>164</ele>
        <time>2016-08-12T23:26:16.000Z</time>
        <extensions>
          <ns3:TrackPointExtension>
            <ns3:atemp>24.0</ns3:atemp>
            <ns3:hr>133</ns3:hr>
          </ns3:TrackPointExtension>
        </extensions>
      </trkpt>
      <trkpt lat="-22.1198741532862186431884765625" lon="166.44331994466483592987060546875">
        <ele>163.600006103515625</ele>
        <time>2016-08-12T23:26:17.000Z</time>
        <extensions>
          <ns3:TrackPointExtension>
            <ns3:atemp>24.0</ns3:atemp>
            <ns3:hr>132</ns3:hr>
          </ns3:TrackPointExtension>
        </extensions>
      </trkpt>
      <trkpt lat="-22.119868285953998565673828125" lon="166.4432916976511478424072265625">
        <ele>163.399993896484375</ele>
        <time>2016-08-12T23:26:18.000Z</time>
        <extensions>
          <ns3:TrackPointExtension>
            <ns3:atemp>24.0</ns3:atemp>
            <ns3:hr>132</ns3:hr>
          </ns3:TrackPointExtension>
        </extensions>
      </trkpt>
      <trkpt lat="-22.11987205781042575836181640625" lon="166.44326261244714260101318359375">
        <ele>163.1999969482421875</ele>
        <time>2016-08-12T23:26:19.000Z</time>
        <extensions>
          <ns3:TrackPointExtension>
            <ns3:atemp>24.0</ns3:atemp>
            <ns3:hr>133</ns3:hr>
          </ns3:TrackPointExtension>
        </extensions>
      </trkpt>
      <trkpt lat="-22.119874991476535797119140625" lon="166.4432343654334545135498046875">
        <ele>163</ele>
        <time>2016-08-12T23:26:20.000Z</time>
        <extensions>
          <ns3:TrackPointExtension>
            <ns3:atemp>24.0</ns3:atemp>
            <ns3:hr>132</ns3:hr>
          </ns3:TrackPointExtension>
        </extensions>
      </trkpt>
      <trkpt lat="-22.11987323127686977386474609375" lon="166.443202681839466094970703125">
        <ele>162.600006103515625</ele>
        <time>2016-08-12T23:26:21.000Z</time>
        <extensions>
          <ns3:TrackPointExtension>
            <ns3:atemp>24.0</ns3:atemp>
            <ns3:hr>132</ns3:hr>
          </ns3:TrackPointExtension>
        </extensions>
      </trkpt>
      <trkpt lat="-22.1198761649429798126220703125" lon="166.44318046979606151580810546875">
        <ele>162.1999969482421875</ele>
        <time>2016-08-12T23:26:22.000Z</time>
        <extensions>
          <ns3:TrackPointExtension>
            <ns3:atemp>24.0</ns3:atemp>
            <ns3:hr>132</ns3:hr>
          </ns3:TrackPointExtension>
        </extensions>
      </trkpt>
      <trkpt lat="-22.11987406946718692779541015625" lon="166.44315205514430999755859375">
        <ele>161.8000030517578125</ele>
        <time>2016-08-12T23:26:23.000Z</time>
        <extensions>
          <ns3:TrackPointExtension>
            <ns3:atemp>24.0</ns3:atemp>
            <ns3:hr>132</ns3:hr>
          </ns3:TrackPointExtension>
        </extensions>
      </trkpt>
      <trkpt lat="-22.11988815106451511383056640625" lon="166.44312649033963680267333984375">
        <ele>161.600006103515625</ele>
        <time>2016-08-12T23:26:24.000Z</time>
        <extensions>
          <ns3:TrackPointExtension>
            <ns3:atemp>24.0</ns3:atemp>
            <ns3:hr>132</ns3:hr>
          </ns3:TrackPointExtension>
        </extensions>
      </trkpt>
      <trkpt lat="-22.11989133618772029876708984375" lon="166.4431015960872173309326171875">
        <ele>161.1999969482421875</ele>
        <time>2016-08-12T23:26:25.000Z</time>
        <extensions>
          <ns3:TrackPointExtension>
            <ns3:atemp>24.0</ns3:atemp>
            <ns3:hr>133</ns3:hr>
          </ns3:TrackPointExtension>
        </extensions>
      </trkpt>
      <trkpt lat="-22.1199055016040802001953125" lon="166.44308022223412990570068359375">
        <ele>161</ele>
        <time>2016-08-12T23:26:26.000Z</time>
        <extensions>
          <ns3:TrackPointExtension>
            <ns3:atemp>24.0</ns3:atemp>
            <ns3:hr>133</ns3:hr>
          </ns3:TrackPointExtension>
        </extensions>
      </trkpt>
      <trkpt lat="-22.11990751326084136962890625" lon="166.443055160343647003173828125">
        <ele>160.600006103515625</ele>
        <time>2016-08-12T23:26:27.000Z</time>
        <extensions>
          <ns3:TrackPointExtension>
            <ns3:atemp>24.0</ns3:atemp>
            <ns3:hr>133</ns3:hr>
          </ns3:TrackPointExtension>
        </extensions>
      </trkpt>
      <trkpt lat="-22.1199083514511585235595703125" lon="166.44302909262478351593017578125">
        <ele>160.1999969482421875</ele>
        <time>2016-08-12T23:26:28.000Z</time>
        <extensions>
          <ns3:TrackPointExtension>
            <ns3:atemp>24.0</ns3:atemp>
            <ns3:hr>133</ns3:hr>
          </ns3:TrackPointExtension>
        </extensions>
      </trkpt>
      <trkpt lat="-22.11990407668054103851318359375" lon="166.44300185143947601318359375">
        <ele>160</ele>
        <time>2016-08-12T23:26:29.000Z</time>
        <extensions>
          <ns3:TrackPointExtension>
            <ns3:atemp>24.0</ns3:atemp>
            <ns3:hr>132</ns3:hr>
          </ns3:TrackPointExtension>
        </extensions>
      </trkpt>
      <trkpt lat="-22.1198974549770355224609375" lon="166.44297645427286624908447265625">
        <ele>159.8000030517578125</ele>
        <time>2016-08-12T23:26:30.000Z</time>
        <extensions>
          <ns3:TrackPointExtension>
            <ns3:atemp>24.0</ns3:atemp>
            <ns3:hr>132</ns3:hr>
          </ns3:TrackPointExtension>
        </extensions>
      </trkpt>
      <trkpt lat="-22.1198895759880542755126953125" lon="166.4429534040391445159912109375">
        <ele>159.399993896484375</ele>
        <time>2016-08-12T23:26:31.000Z</time>
        <extensions>
          <ns3:TrackPointExtension>
            <ns3:atemp>24.0</ns3:atemp>
            <ns3:hr>132</ns3:hr>
          </ns3:TrackPointExtension>
        </extensions>
      </trkpt>
      <trkpt lat="-22.1198795177042484283447265625" lon="166.4429262466728687286376953125">
        <ele>159</ele>
        <time>2016-08-12T23:26:32.000Z</time>
        <extensions>
          <ns3:TrackPointExtension>
            <ns3:atemp>24.0</ns3:atemp>
            <ns3:hr>132</ns3:hr>
          </ns3:TrackPointExtension>
        </extensions>
      </trkpt>
      <trkpt lat="-22.1198706328868865966796875" lon="166.442897580564022064208984375">
        <ele>158.600006103515625</ele>
        <time>2016-08-12T23:26:33.000Z</time>
        <extensions>
          <ns3:TrackPointExtension>
            <ns3:atemp>24.0</ns3:atemp>
            <ns3:hr>132</ns3:hr>
          </ns3:TrackPointExtension>
        </extensions>
      </trkpt>
      <trkpt lat="-22.11986216716468334197998046875" lon="166.44286883063614368438720703125">
        <ele>158.1999969482421875</ele>
        <time>2016-08-12T23:26:34.000Z</time>
        <extensions>
          <ns3:TrackPointExtension>
            <ns3:atemp>24.0</ns3:atemp>
            <ns3:hr>132</ns3:hr>
          </ns3:TrackPointExtension>
        </extensions>
      </trkpt>
      <trkpt lat="-22.119859568774700164794921875" lon="166.44283999688923358917236328125">
        <ele>157.8000030517578125</ele>
        <time>2016-08-12T23:26:35.000Z</time>
        <extensions>
          <ns3:TrackPointExtension>
            <ns3:atemp>24.0</ns3:atemp>
            <ns3:hr>132</ns3:hr>
          </ns3:TrackPointExtension>
        </extensions>
      </trkpt>
      <trkpt lat="-22.1198607422411441802978515625" lon="166.44281166605651378631591796875">
        <ele>157.600006103515625</ele>
        <time>2016-08-12T23:26:36.000Z</time>
        <extensions>
          <ns3:TrackPointExtension>
            <ns3:atemp>24.0</ns3:atemp>
            <ns3:hr>132</ns3:hr>
          </ns3:TrackPointExtension>
        </extensions>
      </trkpt>
      <trkpt lat="-22.11985646747052669525146484375" lon="166.44278325140476226806640625">
        <ele>156.8000030517578125</ele>
        <time>2016-08-12T23:26:37.000Z</time>
        <extensions>
          <ns3:TrackPointExtension>
            <ns3:atemp>24.0</ns3:atemp>
            <ns3:hr>132</ns3:hr>
          </ns3:TrackPointExtension>
        </extensions>
      </trkpt>
      <trkpt lat="-22.11985361762344837188720703125" lon="166.44275299273431301116943359375">
        <ele>156.399993896484375</ele>
        <time>2016-08-12T23:26:38.000Z</time>
        <extensions>
          <ns3:TrackPointExtension>
            <ns3:atemp>24.0</ns3:atemp>
            <ns3:hr>132</ns3:hr>
          </ns3:TrackPointExtension>
        </extensions>
      </trkpt>
      <trkpt lat="-22.11984590627253055572509765625" lon="166.44272181205451488494873046875">
        <ele>156.1999969482421875</ele>
        <time>2016-08-12T23:26:39.000Z</time>
        <extensions>
          <ns3:TrackPointExtension>
            <ns3:atemp>24.0</ns3:atemp>
            <ns3:hr>132</ns3:hr>
          </ns3:TrackPointExtension>
        </extensions>
      </trkpt>
      <trkpt lat="-22.11983953602612018585205078125" lon="166.4426922239363193511962890625">
        <ele>155.600006103515625</ele>
        <time>2016-08-12T23:26:40.000Z</time>
        <extensions>
          <ns3:TrackPointExtension>
            <ns3:atemp>24.0</ns3:atemp>
            <ns3:hr>131</ns3:hr>
          </ns3:TrackPointExtension>
        </extensions>
      </trkpt>
      <trkpt lat="-22.11982704699039459228515625" lon="166.4426603727042675018310546875">
        <ele>155.1999969482421875</ele>
        <time>2016-08-12T23:26:41.000Z</time>
        <extensions>
          <ns3:TrackPointExtension>
            <ns3:atemp>24.0</ns3:atemp>
            <ns3:hr>131</ns3:hr>
          </ns3:TrackPointExtension>
        </extensions>
      </trkpt>
      <trkpt lat="-22.1198322437703609466552734375" lon="166.44264302216470241546630859375">
        <ele>154.8000030517578125</ele>
        <time>2016-08-12T23:26:42.000Z</time>
        <extensions>
          <ns3:TrackPointExtension>
            <ns3:atemp>24.0</ns3:atemp>
            <ns3:hr>132</ns3:hr>
          </ns3:TrackPointExtension>
        </extensions>
      </trkpt>
      <trkpt lat="-22.119831740856170654296875" lon="166.44261150620877742767333984375">
        <ele>154.1999969482421875</ele>
        <time>2016-08-12T23:26:43.000Z</time>
        <extensions>
          <ns3:TrackPointExtension>
            <ns3:atemp>24.0</ns3:atemp>
            <ns3:hr>132</ns3:hr>
          </ns3:TrackPointExtension>
        </extensions>
      </trkpt>
      <trkpt lat="-22.11983215995132923126220703125" lon="166.44257965497672557830810546875">
        <ele>153.600006103515625</ele>
        <time>2016-08-12T23:26:44.000Z</time>
        <extensions>
          <ns3:TrackPointExtension>
            <ns3:atemp>24.0</ns3:atemp>
            <ns3:hr>132</ns3:hr>
          </ns3:TrackPointExtension>
        </extensions>
      </trkpt>
      <trkpt lat="-22.11983433924615383148193359375" lon="166.44254981540143489837646484375">
        <ele>153.1999969482421875</ele>
        <time>2016-08-12T23:26:45.000Z</time>
        <extensions>
          <ns3:TrackPointExtension>
            <ns3:atemp>24.0</ns3:atemp>
            <ns3:hr>132</ns3:hr>
          </ns3:TrackPointExtension>
        </extensions>
      </trkpt>
      <trkpt lat="-22.119834423065185546875" lon="166.442519724369049072265625">
        <ele>152.600006103515625</ele>
        <time>2016-08-12T23:26:46.000Z</time>
        <extensions>
          <ns3:TrackPointExtension>
            <ns3:atemp>24.0</ns3:atemp>
            <ns3:hr>132</ns3:hr>
          </ns3:TrackPointExtension>
        </extensions>
      </trkpt>
      <trkpt lat="-22.11983635090291500091552734375" lon="166.44249047152698040008544921875">
        <ele>152</ele>
        <time>2016-08-12T23:26:47.000Z</time>
        <extensions>
          <ns3:TrackPointExtension>
            <ns3:atemp>24.0</ns3:atemp>
            <ns3:hr>131</ns3:hr>
          </ns3:TrackPointExtension>
        </extensions>
      </trkpt>
      <trkpt lat="-22.11983333341777324676513671875" lon="166.44246163778007030487060546875">
        <ele>151.600006103515625</ele>
        <time>2016-08-12T23:26:48.000Z</time>
        <extensions>
          <ns3:TrackPointExtension>
            <ns3:atemp>24.0</ns3:atemp>
            <ns3:hr>131</ns3:hr>
          </ns3:TrackPointExtension>
        </extensions>
      </trkpt>
      <trkpt lat="-22.11983601562678813934326171875" lon="166.44243481568992137908935546875">
        <ele>151</ele>
        <time>2016-08-12T23:26:49.000Z</time>
        <extensions>
          <ns3:TrackPointExtension>
            <ns3:atemp>24.0</ns3:atemp>
            <ns3:hr>132</ns3:hr>
          </ns3:TrackPointExtension>
        </extensions>
      </trkpt>
      <trkpt lat="-22.11983568035066127777099609375" lon="166.4424115978181362152099609375">
        <ele>150.600006103515625</ele>
        <time>2016-08-12T23:26:50.000Z</time>
        <extensions>
          <ns3:TrackPointExtension>
            <ns3:atemp>24.0</ns3:atemp>
            <ns3:hr>131</ns3:hr>
          </ns3:TrackPointExtension>
        </extensions>
      </trkpt>
      <trkpt lat="-22.119832076132297515869140625" lon="166.442390643060207366943359375">
        <ele>150</ele>
        <time>2016-08-12T23:26:51.000Z</time>
        <extensions>
          <ns3:TrackPointExtension>
            <ns3:atemp>24.0</ns3:atemp>
            <ns3:hr>132</ns3:hr>
          </ns3:TrackPointExtension>
        </extensions>
      </trkpt>
      <trkpt lat="-22.11982981301844120025634765625" lon="166.44236071966588497161865234375">
        <ele>149.399993896484375</ele>
        <time>2016-08-12T23:26:52.000Z</time>
        <extensions>
          <ns3:TrackPointExtension>
            <ns3:atemp>24.0</ns3:atemp>
            <ns3:hr>132</ns3:hr>
          </ns3:TrackPointExtension>
        </extensions>
      </trkpt>
      <trkpt lat="-22.11983383633196353912353515625" lon="166.44233406521379947662353515625">
        <ele>149</ele>
        <time>2016-08-12T23:26:53.000Z</time>
        <extensions>
          <ns3:TrackPointExtension>
            <ns3:atemp>24.0</ns3:atemp>
            <ns3:hr>132</ns3:hr>
          </ns3:TrackPointExtension>
        </extensions>
      </trkpt>
      <trkpt lat="-22.1198303997516632080078125" lon="166.44230606965720653533935546875">
        <ele>148.8000030517578125</ele>
        <time>2016-08-12T23:26:54.000Z</time>
        <extensions>
          <ns3:TrackPointExtension>
            <ns3:atemp>24.0</ns3:atemp>
            <ns3:hr>131</ns3:hr>
          </ns3:TrackPointExtension>
        </extensions>
      </trkpt>
      <trkpt lat="-22.119841463863849639892578125" lon="166.442283354699611663818359375">
        <ele>148.399993896484375</ele>
        <time>2016-08-12T23:26:55.000Z</time>
        <extensions>
          <ns3:TrackPointExtension>
            <ns3:atemp>24.0</ns3:atemp>
            <ns3:hr>132</ns3:hr>
          </ns3:TrackPointExtension>
        </extensions>
      </trkpt>
      <trkpt lat="-22.11984045803546905517578125" lon="166.44225778989493846893310546875">
        <ele>147.8000030517578125</ele>
        <time>2016-08-12T23:26:56.000Z</time>
        <extensions>
          <ns3:TrackPointExtension>
            <ns3:atemp>24.0</ns3:atemp>
            <ns3:hr>132</ns3:hr>
          </ns3:TrackPointExtension>
        </extensions>
      </trkpt>
      <trkpt lat="-22.1198459900915622711181640625" lon="166.4422282017767429351806640625">
        <ele>147.600006103515625</ele>
        <time>2016-08-12T23:26:57.000Z</time>
        <extensions>
          <ns3:TrackPointExtension>
            <ns3:atemp>24.0</ns3:atemp>
            <ns3:hr>132</ns3:hr>
          </ns3:TrackPointExtension>
        </extensions>
      </trkpt>
      <trkpt lat="-22.11984976194798946380615234375" lon="166.44219844602048397064208984375">
        <ele>147.1999969482421875</ele>
        <time>2016-08-12T23:26:58.000Z</time>
        <extensions>
          <ns3:TrackPointExtension>
            <ns3:atemp>24.0</ns3:atemp>
            <ns3:hr>132</ns3:hr>
          </ns3:TrackPointExtension>
        </extensions>
      </trkpt>
      <trkpt lat="-22.11985847912728786468505859375" lon="166.442176401615142822265625">
        <ele>146.600006103515625</ele>
        <time>2016-08-12T23:26:59.000Z</time>
        <extensions>
          <ns3:TrackPointExtension>
            <ns3:atemp>24.0</ns3:atemp>
            <ns3:hr>132</ns3:hr>
          </ns3:TrackPointExtension>
        </extensions>
      </trkpt>
      <trkpt lat="-22.119872309267520904541015625" lon="166.44215201027691364288330078125">
        <ele>146.600006103515625</ele>
        <time>2016-08-12T23:27:00.000Z</time>
        <extensions>
          <ns3:TrackPointExtension>
            <ns3:atemp>24.0</ns3:atemp>
            <ns3:hr>132</ns3:hr>
          </ns3:TrackPointExtension>
        </extensions>
      </trkpt>
      <trkpt lat="-22.1198786795139312744140625" lon="166.44212451763451099395751953125">
        <ele>146.399993896484375</ele>
        <time>2016-08-12T23:27:01.000Z</time>
        <extensions>
          <ns3:TrackPointExtension>
            <ns3:atemp>24.0</ns3:atemp>
            <ns3:hr>132</ns3:hr>
          </ns3:TrackPointExtension>
        </extensions>
      </trkpt>
      <trkpt lat="-22.11988043971359729766845703125" lon="166.44209635443985462188720703125">
        <ele>145.8000030517578125</ele>
        <time>2016-08-12T23:27:02.000Z</time>
        <extensions>
          <ns3:TrackPointExtension>
            <ns3:atemp>24.0</ns3:atemp>
            <ns3:hr>132</ns3:hr>
          </ns3:TrackPointExtension>
        </extensions>
      </trkpt>
      <trkpt lat="-22.1198885701596736907958984375" lon="166.442069113254547119140625">
        <ele>145.399993896484375</ele>
        <time>2016-08-12T23:27:03.000Z</time>
        <extensions>
          <ns3:TrackPointExtension>
            <ns3:atemp>24.0</ns3:atemp>
            <ns3:hr>132</ns3:hr>
          </ns3:TrackPointExtension>
        </extensions>
      </trkpt>
      <trkpt lat="-22.11990139447152614593505859375" lon="166.44204539246857166290283203125">
        <ele>145.1999969482421875</ele>
        <time>2016-08-12T23:27:04.000Z</time>
        <extensions>
          <ns3:TrackPointExtension>
            <ns3:atemp>24.0</ns3:atemp>
            <ns3:hr>132</ns3:hr>
          </ns3:TrackPointExtension>
        </extensions>
      </trkpt>
      <trkpt lat="-22.119914554059505462646484375" lon="166.44201890565454959869384765625">
        <ele>144.399993896484375</ele>
        <time>2016-08-12T23:27:05.000Z</time>
        <extensions>
          <ns3:TrackPointExtension>
            <ns3:atemp>24.0</ns3:atemp>
            <ns3:hr>132</ns3:hr>
          </ns3:TrackPointExtension>
        </extensions>
      </trkpt>
      <trkpt lat="-22.11991664953529834747314453125" lon="166.44198806025087833404541015625">
        <ele>143.8000030517578125</ele>
        <time>2016-08-12T23:27:06.000Z</time>
        <extensions>
          <ns3:TrackPointExtension>
            <ns3:atemp>24.0</ns3:atemp>
            <ns3:hr>132</ns3:hr>
          </ns3:TrackPointExtension>
        </extensions>
      </trkpt>
      <trkpt lat="-22.11992804892361164093017578125" lon="166.44196257926523685455322265625">
        <ele>143.1999969482421875</ele>
        <time>2016-08-12T23:27:07.000Z</time>
        <extensions>
          <ns3:TrackPointExtension>
            <ns3:atemp>24.0</ns3:atemp>
            <ns3:hr>132</ns3:hr>
          </ns3:TrackPointExtension>
        </extensions>
      </trkpt>
      <trkpt lat="-22.1199428848922252655029296875" lon="166.4419376850128173828125">
        <ele>142.600006103515625</ele>
        <time>2016-08-12T23:27:08.000Z</time>
        <extensions>
          <ns3:TrackPointExtension>
            <ns3:atemp>24.0</ns3:atemp>
            <ns3:hr>132</ns3:hr>
          </ns3:TrackPointExtension>
        </extensions>
      </trkpt>
      <trkpt lat="-22.1199599839746952056884765625" lon="166.4419127069413661956787109375">
        <ele>142.1999969482421875</ele>
        <time>2016-08-12T23:27:09.000Z</time>
        <extensions>
          <ns3:TrackPointExtension>
            <ns3:atemp>24.0</ns3:atemp>
            <ns3:hr>132</ns3:hr>
          </ns3:TrackPointExtension>
        </extensions>
      </trkpt>
      <trkpt lat="-22.119977585971355438232421875" lon="166.44189284183084964752197265625">
        <ele>141.8000030517578125</ele>
        <time>2016-08-12T23:27:10.000Z</time>
        <extensions>
          <ns3:TrackPointExtension>
            <ns3:atemp>24.0</ns3:atemp>
            <ns3:hr>132</ns3:hr>
          </ns3:TrackPointExtension>
        </extensions>
      </trkpt>
      <trkpt lat="-22.1199851296842098236083984375" lon="166.44186652265489101409912109375">
        <ele>141.399993896484375</ele>
        <time>2016-08-12T23:27:11.000Z</time>
        <extensions>
          <ns3:TrackPointExtension>
            <ns3:atemp>24.0</ns3:atemp>
            <ns3:hr>132</ns3:hr>
          </ns3:TrackPointExtension>
        </extensions>
      </trkpt>
      <trkpt lat="-22.1199975349009037017822265625" lon="166.44184154458343982696533203125">
        <ele>141</ele>
        <time>2016-08-12T23:27:12.000Z</time>
        <extensions>
          <ns3:TrackPointExtension>
            <ns3:atemp>24.0</ns3:atemp>
            <ns3:hr>132</ns3:hr>
          </ns3:TrackPointExtension>
        </extensions>
      </trkpt>
      <trkpt lat="-22.12000683881342411041259765625" lon="166.441812627017498016357421875">
        <ele>140.600006103515625</ele>
        <time>2016-08-12T23:27:13.000Z</time>
        <extensions>
          <ns3:TrackPointExtension>
            <ns3:atemp>24.0</ns3:atemp>
            <ns3:hr>132</ns3:hr>
          </ns3:TrackPointExtension>
        </extensions>
      </trkpt>
      <trkpt lat="-22.1200246922671794891357421875" lon="166.44178857095539569854736328125">
        <ele>140.1999969482421875</ele>
        <time>2016-08-12T23:27:14.000Z</time>
        <extensions>
          <ns3:TrackPointExtension>
            <ns3:atemp>24.0</ns3:atemp>
            <ns3:hr>132</ns3:hr>
          </ns3:TrackPointExtension>
        </extensions>
      </trkpt>
      <trkpt lat="-22.120037265121936798095703125" lon="166.44176627509295940399169921875">
        <ele>139.8000030517578125</ele>
        <time>2016-08-12T23:27:15.000Z</time>
        <extensions>
          <ns3:TrackPointExtension>
            <ns3:atemp>24.0</ns3:atemp>
            <ns3:hr>132</ns3:hr>
          </ns3:TrackPointExtension>
        </extensions>
      </trkpt>
      <trkpt lat="-22.120054028928279876708984375" lon="166.44174045883119106292724609375">
        <ele>139.399993896484375</ele>
        <time>2016-08-12T23:27:16.000Z</time>
        <extensions>
          <ns3:TrackPointExtension>
            <ns3:atemp>24.0</ns3:atemp>
            <ns3:hr>132</ns3:hr>
          </ns3:TrackPointExtension>
        </extensions>
      </trkpt>
      <trkpt lat="-22.12007255293428897857666015625" lon="166.44171330146491527557373046875">
        <ele>139</ele>
        <time>2016-08-12T23:27:17.000Z</time>
        <extensions>
          <ns3:TrackPointExtension>
            <ns3:atemp>24.0</ns3:atemp>
            <ns3:hr>131</ns3:hr>
          </ns3:TrackPointExtension>
        </extensions>
      </trkpt>
      <trkpt lat="-22.12008428759872913360595703125" lon="166.44168480299413204193115234375">
        <ele>138.600006103515625</ele>
        <time>2016-08-12T23:27:18.000Z</time>
        <extensions>
          <ns3:TrackPointExtension>
            <ns3:atemp>24.0</ns3:atemp>
            <ns3:hr>131</ns3:hr>
          </ns3:TrackPointExtension>
        </extensions>
      </trkpt>
      <trkpt lat="-22.1200924180448055267333984375" lon="166.44165596924722194671630859375">
        <ele>137.8000030517578125</ele>
        <time>2016-08-12T23:27:19.000Z</time>
        <extensions>
          <ns3:TrackPointExtension>
            <ns3:atemp>24.0</ns3:atemp>
            <ns3:hr>131</ns3:hr>
          </ns3:TrackPointExtension>
        </extensions>
      </trkpt>
      <trkpt lat="-22.12011245079338550567626953125" lon="166.44162730313837528228759765625">
        <ele>137.1999969482421875</ele>
        <time>2016-08-12T23:27:20.000Z</time>
        <extensions>
          <ns3:TrackPointExtension>
            <ns3:atemp>24.0</ns3:atemp>
            <ns3:hr>131</ns3:hr>
          </ns3:TrackPointExtension>
        </extensions>
      </trkpt>
      <trkpt lat="-22.12012804113328456878662109375" lon="166.4415992237627506256103515625">
        <ele>137</ele>
        <time>2016-08-12T23:27:21.000Z</time>
        <extensions>
          <ns3:TrackPointExtension>
            <ns3:atemp>24.0</ns3:atemp>
            <ns3:hr>131</ns3:hr>
          </ns3:TrackPointExtension>
        </extensions>
      </trkpt>
      <trkpt lat="-22.12015083990991115570068359375" lon="166.44157332368195056915283203125">
        <ele>136.600006103515625</ele>
        <time>2016-08-12T23:27:22.000Z</time>
        <extensions>
          <ns3:TrackPointExtension>
            <ns3:atemp>24.0</ns3:atemp>
            <ns3:hr>131</ns3:hr>
          </ns3:TrackPointExtension>
        </extensions>
      </trkpt>
      <trkpt lat="-22.1201670169830322265625" lon="166.4415472559630870819091796875">
        <ele>136</ele>
        <time>2016-08-12T23:27:23.000Z</time>
        <extensions>
          <ns3:TrackPointExtension>
            <ns3:atemp>24.0</ns3:atemp>
            <ns3:hr>131</ns3:hr>
          </ns3:TrackPointExtension>
        </extensions>
      </trkpt>
      <trkpt lat="-22.12018311023712158203125" lon="166.4415204338729381561279296875">
        <ele>135.600006103515625</ele>
        <time>2016-08-12T23:27:24.000Z</time>
        <extensions>
          <ns3:TrackPointExtension>
            <ns3:atemp>24.0</ns3:atemp>
            <ns3:hr>131</ns3:hr>
          </ns3:TrackPointExtension>
        </extensions>
      </trkpt>
      <trkpt lat="-22.1202054060995578765869140625" lon="166.441498138010501861572265625">
        <ele>135.1999969482421875</ele>
        <time>2016-08-12T23:27:25.000Z</time>
        <extensions>
          <ns3:TrackPointExtension>
            <ns3:atemp>24.0</ns3:atemp>
            <ns3:hr>132</ns3:hr>
          </ns3:TrackPointExtension>
        </extensions>
      </trkpt>
      <trkpt lat="-22.12021772749722003936767578125" lon="166.44147257320582866668701171875">
        <ele>135</ele>
        <time>2016-08-12T23:27:26.000Z</time>
        <extensions>
          <ns3:TrackPointExtension>
            <ns3:atemp>24.0</ns3:atemp>
            <ns3:hr>131</ns3:hr>
          </ns3:TrackPointExtension>
        </extensions>
      </trkpt>
      <trkpt lat="-22.120227031409740447998046875" lon="166.44144407473504543304443359375">
        <ele>134.399993896484375</ele>
        <time>2016-08-12T23:27:27.000Z</time>
        <extensions>
          <ns3:TrackPointExtension>
            <ns3:atemp>24.0</ns3:atemp>
            <ns3:hr>131</ns3:hr>
          </ns3:TrackPointExtension>
        </extensions>
      </trkpt>
      <trkpt lat="-22.1202375926077365875244140625" lon="166.4414175041019916534423828125">
        <ele>134.1999969482421875</ele>
        <time>2016-08-12T23:27:28.000Z</time>
        <extensions>
          <ns3:TrackPointExtension>
            <ns3:atemp>24.0</ns3:atemp>
            <ns3:hr>131</ns3:hr>
          </ns3:TrackPointExtension>
        </extensions>
      </trkpt>
      <trkpt lat="-22.12025083601474761962890625" lon="166.4413930289447307586669921875">
        <ele>133.8000030517578125</ele>
        <time>2016-08-12T23:27:29.000Z</time>
        <extensions>
          <ns3:TrackPointExtension>
            <ns3:atemp>24.0</ns3:atemp>
            <ns3:hr>132</ns3:hr>
          </ns3:TrackPointExtension>
        </extensions>
      </trkpt>
      <trkpt lat="-22.12026064284145832061767578125" lon="166.441366709768772125244140625">
        <ele>133.399993896484375</ele>
        <time>2016-08-12T23:27:30.000Z</time>
        <extensions>
          <ns3:TrackPointExtension>
            <ns3:atemp>24.0</ns3:atemp>
            <ns3:hr>131</ns3:hr>
          </ns3:TrackPointExtension>
        </extensions>
      </trkpt>
      <trkpt lat="-22.120276987552642822265625" lon="166.4413464255630970001220703125">
        <ele>132.8000030517578125</ele>
        <time>2016-08-12T23:27:31.000Z</time>
        <extensions>
          <ns3:TrackPointExtension>
            <ns3:atemp>24.0</ns3:atemp>
            <ns3:hr>132</ns3:hr>
          </ns3:TrackPointExtension>
        </extensions>
      </trkpt>
      <trkpt lat="-22.12029752321541309356689453125" lon="166.441323123872280120849609375">
        <ele>132.600006103515625</ele>
        <time>2016-08-12T23:27:32.000Z</time>
        <extensions>
          <ns3:TrackPointExtension>
            <ns3:atemp>24.0</ns3:atemp>
            <ns3:hr>131</ns3:hr>
          </ns3:TrackPointExtension>
        </extensions>
      </trkpt>
      <trkpt lat="-22.1203160472214221954345703125" lon="166.4412964694201946258544921875">
        <ele>132</ele>
        <time>2016-08-12T23:27:33.000Z</time>
        <extensions>
          <ns3:TrackPointExtension>
            <ns3:atemp>24.0</ns3:atemp>
            <ns3:hr>131</ns3:hr>
          </ns3:TrackPointExtension>
        </extensions>
      </trkpt>
      <trkpt lat="-22.12033255957067012786865234375" lon="166.441269814968109130859375">
        <ele>131.600006103515625</ele>
        <time>2016-08-12T23:27:34.000Z</time>
        <extensions>
          <ns3:TrackPointExtension>
            <ns3:atemp>24.0</ns3:atemp>
            <ns3:hr>131</ns3:hr>
          </ns3:TrackPointExtension>
        </extensions>
      </trkpt>
      <trkpt lat="-22.12033758871257305145263671875" lon="166.44123922102153301239013671875">
        <ele>131.1999969482421875</ele>
        <time>2016-08-12T23:27:35.000Z</time>
        <extensions>
          <ns3:TrackPointExtension>
            <ns3:atemp>24.0</ns3:atemp>
            <ns3:hr>131</ns3:hr>
          </ns3:TrackPointExtension>
        </extensions>
      </trkpt>
      <trkpt lat="-22.12034865282475948333740234375" lon="166.4412153325974941253662109375">
        <ele>131</ele>
        <time>2016-08-12T23:27:36.000Z</time>
        <extensions>
          <ns3:TrackPointExtension>
            <ns3:atemp>24.0</ns3:atemp>
            <ns3:hr>131</ns3:hr>
          </ns3:TrackPointExtension>
        </extensions>
      </trkpt>
      <trkpt lat="-22.12036189623177051544189453125" lon="166.4411925338208675384521484375">
        <ele>130.600006103515625</ele>
        <time>2016-08-12T23:27:37.000Z</time>
        <extensions>
          <ns3:TrackPointExtension>
            <ns3:atemp>24.0</ns3:atemp>
            <ns3:hr>131</ns3:hr>
          </ns3:TrackPointExtension>
        </extensions>
      </trkpt>
      <trkpt lat="-22.12037681601941585540771484375" lon="166.44116914831101894378662109375">
        <ele>130.399993896484375</ele>
        <time>2016-08-12T23:27:38.000Z</time>
        <extensions>
          <ns3:TrackPointExtension>
            <ns3:atemp>24.0</ns3:atemp>
            <ns3:hr>131</ns3:hr>
          </ns3:TrackPointExtension>
        </extensions>
      </trkpt>
      <trkpt lat="-22.12039022706449031829833984375" lon="166.4411466009914875030517578125">
        <ele>130.1999969482421875</ele>
        <time>2016-08-12T23:27:39.000Z</time>
        <extensions>
          <ns3:TrackPointExtension>
            <ns3:atemp>24.0</ns3:atemp>
            <ns3:hr>131</ns3:hr>
          </ns3:TrackPointExtension>
        </extensions>
      </trkpt>
      <trkpt lat="-22.120410092175006866455078125" lon="166.4411295019090175628662109375">
        <ele>130</ele>
        <time>2016-08-12T23:27:40.000Z</time>
        <extensions>
          <ns3:TrackPointExtension>
            <ns3:atemp>24.0</ns3:atemp>
            <ns3:hr>132</ns3:hr>
          </ns3:TrackPointExtension>
        </extensions>
      </trkpt>
      <trkpt lat="-22.12041847407817840576171875" lon="166.44110410474240779876708984375">
        <ele>129.600006103515625</ele>
        <time>2016-08-12T23:27:41.000Z</time>
        <extensions>
          <ns3:TrackPointExtension>
            <ns3:atemp>24.0</ns3:atemp>
            <ns3:hr>131</ns3:hr>
          </ns3:TrackPointExtension>
        </extensions>
      </trkpt>
      <trkpt lat="-22.12042559869587421417236328125" lon="166.4410778693854808807373046875">
        <ele>129.399993896484375</ele>
        <time>2016-08-12T23:27:42.000Z</time>
        <extensions>
          <ns3:TrackPointExtension>
            <ns3:atemp>24.0</ns3:atemp>
            <ns3:hr>132</ns3:hr>
          </ns3:TrackPointExtension>
        </extensions>
      </trkpt>
      <trkpt lat="-22.120441608130931854248046875" lon="166.4410507120192050933837890625">
        <ele>129.1999969482421875</ele>
        <time>2016-08-12T23:27:43.000Z</time>
        <extensions>
          <ns3:TrackPointExtension>
            <ns3:atemp>24.0</ns3:atemp>
            <ns3:hr>131</ns3:hr>
          </ns3:TrackPointExtension>
        </extensions>
      </trkpt>
      <trkpt lat="-22.1204595454037189483642578125" lon="166.44102699123322963714599609375">
        <ele>128.8000030517578125</ele>
        <time>2016-08-12T23:27:44.000Z</time>
        <extensions>
          <ns3:TrackPointExtension>
            <ns3:atemp>24.0</ns3:atemp>
            <ns3:hr>132</ns3:hr>
          </ns3:TrackPointExtension>
        </extensions>
      </trkpt>
      <trkpt lat="-22.12047304026782512664794921875" lon="166.44100301899015903472900390625">
        <ele>128.1999969482421875</ele>
        <time>2016-08-12T23:27:45.000Z</time>
        <extensions>
          <ns3:TrackPointExtension>
            <ns3:atemp>24.0</ns3:atemp>
            <ns3:hr>132</ns3:hr>
          </ns3:TrackPointExtension>
        </extensions>
      </trkpt>
      <trkpt lat="-22.1204900555312633514404296875" lon="166.4409782923758029937744140625">
        <ele>128</ele>
        <time>2016-08-12T23:27:46.000Z</time>
        <extensions>
          <ns3:TrackPointExtension>
            <ns3:atemp>24.0</ns3:atemp>
            <ns3:hr>132</ns3:hr>
          </ns3:TrackPointExtension>
        </extensions>
      </trkpt>
      <trkpt lat="-22.12049868889153003692626953125" lon="166.4409492909908294677734375">
        <ele>127.8000030517578125</ele>
        <time>2016-08-12T23:27:47.000Z</time>
        <extensions>
          <ns3:TrackPointExtension>
            <ns3:atemp>24.0</ns3:atemp>
            <ns3:hr>132</ns3:hr>
          </ns3:TrackPointExtension>
        </extensions>
      </trkpt>
      <trkpt lat="-22.12050640024244785308837890625" lon="166.44091852940618991851806640625">
        <ele>127.40000152587890625</ele>
        <time>2016-08-12T23:27:48.000Z</time>
        <extensions>
          <ns3:TrackPointExtension>
            <ns3:atemp>24.0</ns3:atemp>
            <ns3:hr>132</ns3:hr>
          </ns3:TrackPointExtension>
        </extensions>
      </trkpt>
      <trkpt lat="-22.12051763199269771575927734375" lon="166.44089019857347011566162109375">
        <ele>127.1999969482421875</ele>
        <time>2016-08-12T23:27:49.000Z</time>
        <extensions>
          <ns3:TrackPointExtension>
            <ns3:atemp>24.0</ns3:atemp>
            <ns3:hr>132</ns3:hr>
          </ns3:TrackPointExtension>
        </extensions>
      </trkpt>
      <trkpt lat="-22.12053623981773853302001953125" lon="166.44086639396846294403076171875">
        <ele>127</ele>
        <time>2016-08-12T23:27:50.000Z</time>
        <extensions>
          <ns3:TrackPointExtension>
            <ns3:atemp>24.0</ns3:atemp>
            <ns3:hr>132</ns3:hr>
          </ns3:TrackPointExtension>
        </extensions>
      </trkpt>
      <trkpt lat="-22.12054730392992496490478515625" lon="166.4408381469547748565673828125">
        <ele>126.40000152587890625</ele>
        <time>2016-08-12T23:27:51.000Z</time>
        <extensions>
          <ns3:TrackPointExtension>
            <ns3:atemp>24.0</ns3:atemp>
            <ns3:hr>132</ns3:hr>
          </ns3:TrackPointExtension>
        </extensions>
      </trkpt>
      <trkpt lat="-22.12056272663176059722900390625" lon="166.4408119954168796539306640625">
        <ele>126</ele>
        <time>2016-08-12T23:27:52.000Z</time>
        <extensions>
          <ns3:TrackPointExtension>
            <ns3:atemp>24.0</ns3:atemp>
            <ns3:hr>132</ns3:hr>
          </ns3:TrackPointExtension>
        </extensions>
      </trkpt>
      <trkpt lat="-22.12057848460972309112548828125" lon="166.44078576005995273590087890625">
        <ele>126</ele>
        <time>2016-08-12T23:27:53.000Z</time>
        <extensions>
          <ns3:TrackPointExtension>
            <ns3:atemp>24.0</ns3:atemp>
            <ns3:hr>132</ns3:hr>
          </ns3:TrackPointExtension>
        </extensions>
      </trkpt>
      <trkpt lat="-22.12059256620705127716064453125" lon="166.44075541757047176361083984375">
        <ele>125.8000030517578125</ele>
        <time>2016-08-12T23:27:54.000Z</time>
        <extensions>
          <ns3:TrackPointExtension>
            <ns3:atemp>24.0</ns3:atemp>
            <ns3:hr>132</ns3:hr>
          </ns3:TrackPointExtension>
        </extensions>
      </trkpt>
      <trkpt lat="-22.120608575642108917236328125" lon="166.44072524271905422210693359375">
        <ele>125.59999847412109375</ele>
        <time>2016-08-12T23:27:55.000Z</time>
        <extensions>
          <ns3:TrackPointExtension>
            <ns3:atemp>24.0</ns3:atemp>
            <ns3:hr>133</ns3:hr>
          </ns3:TrackPointExtension>
        </extensions>
      </trkpt>
      <trkpt lat="-22.120619975030422210693359375" lon="166.440696157515048980712890625">
        <ele>125.40000152587890625</ele>
        <time>2016-08-12T23:27:56.000Z</time>
        <extensions>
          <ns3:TrackPointExtension>
            <ns3:atemp>24.0</ns3:atemp>
            <ns3:hr>132</ns3:hr>
          </ns3:TrackPointExtension>
        </extensions>
      </trkpt>
      <trkpt lat="-22.12063296698033809661865234375" lon="166.44066656939685344696044921875">
        <ele>125</ele>
        <time>2016-08-12T23:27:57.000Z</time>
        <extensions>
          <ns3:TrackPointExtension>
            <ns3:atemp>24.0</ns3:atemp>
            <ns3:hr>133</ns3:hr>
          </ns3:TrackPointExtension>
        </extensions>
      </trkpt>
      <trkpt lat="-22.12064805440604686737060546875" lon="166.4406389929354190826416015625">
        <ele>124.8000030517578125</ele>
        <time>2016-08-12T23:27:58.000Z</time>
        <extensions>
          <ns3:TrackPointExtension>
            <ns3:atemp>24.0</ns3:atemp>
            <ns3:hr>132</ns3:hr>
          </ns3:TrackPointExtension>
        </extensions>
      </trkpt>
      <trkpt lat="-22.12066900916397571563720703125" lon="166.44061292521655559539794921875">
        <ele>124.59999847412109375</ele>
        <time>2016-08-12T23:27:59.000Z</time>
        <extensions>
          <ns3:TrackPointExtension>
            <ns3:atemp>24.0</ns3:atemp>
            <ns3:hr>132</ns3:hr>
          </ns3:TrackPointExtension>
        </extensions>
      </trkpt>
      <trkpt lat="-22.12068761698901653289794921875" lon="166.44058543257415294647216796875">
        <ele>124.8000030517578125</ele>
        <time>2016-08-12T23:28:00.000Z</time>
        <extensions>
          <ns3:TrackPointExtension>
            <ns3:atemp>24.0</ns3:atemp>
            <ns3:hr>132</ns3:hr>
          </ns3:TrackPointExtension>
        </extensions>
      </trkpt>
      <trkpt lat="-22.1207049675285816192626953125" lon="166.44055710174143314361572265625">
        <ele>124</ele>
        <time>2016-08-12T23:28:01.000Z</time>
        <extensions>
          <ns3:TrackPointExtension>
            <ns3:atemp>24.0</ns3:atemp>
            <ns3:hr>132</ns3:hr>
          </ns3:TrackPointExtension>
        </extensions>
      </trkpt>
      <trkpt lat="-22.12072600610554218292236328125" lon="166.440527178347110748291015625">
        <ele>123.59999847412109375</ele>
        <time>2016-08-12T23:28:02.000Z</time>
        <extensions>
          <ns3:TrackPointExtension>
            <ns3:atemp>24.0</ns3:atemp>
            <ns3:hr>132</ns3:hr>
          </ns3:TrackPointExtension>
        </extensions>
      </trkpt>
      <trkpt lat="-22.1207388304173946380615234375" lon="166.440494991838932037353515625">
        <ele>123.59999847412109375</ele>
        <time>2016-08-12T23:28:03.000Z</time>
        <extensions>
          <ns3:TrackPointExtension>
            <ns3:atemp>24.0</ns3:atemp>
            <ns3:hr>133</ns3:hr>
          </ns3:TrackPointExtension>
        </extensions>
      </trkpt>
      <trkpt lat="-22.12075467221438884735107421875" lon="166.44046741537749767303466796875">
        <ele>123.40000152587890625</ele>
        <time>2016-08-12T23:28:04.000Z</time>
        <extensions>
          <ns3:TrackPointExtension>
            <ns3:atemp>24.0</ns3:atemp>
            <ns3:hr>132</ns3:hr>
          </ns3:TrackPointExtension>
        </extensions>
      </trkpt>
      <trkpt lat="-22.12077009491622447967529296875" lon="166.44043573178350925445556640625">
        <ele>123</ele>
        <time>2016-08-12T23:28:05.000Z</time>
        <extensions>
          <ns3:TrackPointExtension>
            <ns3:atemp>24.0</ns3:atemp>
            <ns3:hr>132</ns3:hr>
          </ns3:TrackPointExtension>
        </extensions>
      </trkpt>
      <trkpt lat="-22.12078719399869441986083984375" lon="166.44040639512240886688232421875">
        <ele>122.8000030517578125</ele>
        <time>2016-08-12T23:28:06.000Z</time>
        <extensions>
          <ns3:TrackPointExtension>
            <ns3:atemp>24.0</ns3:atemp>
            <ns3:hr>133</ns3:hr>
          </ns3:TrackPointExtension>
        </extensions>
      </trkpt>
      <trkpt lat="-22.120801694691181182861328125" lon="166.44037730991840362548828125">
        <ele>122.40000152587890625</ele>
        <time>2016-08-12T23:28:07.000Z</time>
        <extensions>
          <ns3:TrackPointExtension>
            <ns3:atemp>24.0</ns3:atemp>
            <ns3:hr>132</ns3:hr>
          </ns3:TrackPointExtension>
        </extensions>
      </trkpt>
      <trkpt lat="-22.12081611156463623046875" lon="166.44034822471439838409423828125">
        <ele>122</ele>
        <time>2016-08-12T23:28:08.000Z</time>
        <extensions>
          <ns3:TrackPointExtension>
            <ns3:atemp>24.0</ns3:atemp>
            <ns3:hr>132</ns3:hr>
          </ns3:TrackPointExtension>
        </extensions>
      </trkpt>
      <trkpt lat="-22.120824158191680908203125" lon="166.4403194747865200042724609375">
        <ele>121.8000030517578125</ele>
        <time>2016-08-12T23:28:09.000Z</time>
        <extensions>
          <ns3:TrackPointExtension>
            <ns3:atemp>24.0</ns3:atemp>
            <ns3:hr>132</ns3:hr>
          </ns3:TrackPointExtension>
        </extensions>
      </trkpt>
      <trkpt lat="-22.12083212099969387054443359375" lon="166.44029173068702220916748046875">
        <ele>121.8000030517578125</ele>
        <time>2016-08-12T23:28:10.000Z</time>
        <extensions>
          <ns3:TrackPointExtension>
            <ns3:atemp>24.0</ns3:atemp>
            <ns3:hr>132</ns3:hr>
          </ns3:TrackPointExtension>
        </extensions>
      </trkpt>
      <trkpt lat="-22.120845951139926910400390625" lon="166.44026591442525386810302734375">
        <ele>121.59999847412109375</ele>
        <time>2016-08-12T23:28:11.000Z</time>
        <extensions>
          <ns3:TrackPointExtension>
            <ns3:atemp>24.0</ns3:atemp>
            <ns3:hr>132</ns3:hr>
          </ns3:TrackPointExtension>
        </extensions>
      </trkpt>
      <trkpt lat="-22.12085969746112823486328125" lon="166.4402411878108978271484375">
        <ele>121.40000152587890625</ele>
        <time>2016-08-12T23:28:12.000Z</time>
        <extensions>
          <ns3:TrackPointExtension>
            <ns3:atemp>24.0</ns3:atemp>
            <ns3:hr>132</ns3:hr>
          </ns3:TrackPointExtension>
        </extensions>
      </trkpt>
      <trkpt lat="-22.12087218649685382843017578125" lon="166.440216042101383209228515625">
        <ele>121.40000152587890625</ele>
        <time>2016-08-12T23:28:13.000Z</time>
        <extensions>
          <ns3:TrackPointExtension>
            <ns3:atemp>24.0</ns3:atemp>
            <ns3:hr>132</ns3:hr>
          </ns3:TrackPointExtension>
        </extensions>
      </trkpt>
      <trkpt lat="-22.1208876930177211761474609375" lon="166.44019299186766147613525390625">
        <ele>121</ele>
        <time>2016-08-12T23:28:14.000Z</time>
        <extensions>
          <ns3:TrackPointExtension>
            <ns3:atemp>24.0</ns3:atemp>
            <ns3:hr>132</ns3:hr>
          </ns3:TrackPointExtension>
        </extensions>
      </trkpt>
      <trkpt lat="-22.12090688757598400115966796875" lon="166.44017186947166919708251953125">
        <ele>120.40000152587890625</ele>
        <time>2016-08-12T23:28:15.000Z</time>
        <extensions>
          <ns3:TrackPointExtension>
            <ns3:atemp>24.0</ns3:atemp>
            <ns3:hr>132</ns3:hr>
          </ns3:TrackPointExtension>
        </extensions>
      </trkpt>
      <trkpt lat="-22.12092700414359569549560546875" lon="166.44015192054212093353271484375">
        <ele>119.8000030517578125</ele>
        <time>2016-08-12T23:28:16.000Z</time>
        <extensions>
          <ns3:TrackPointExtension>
            <ns3:atemp>24.0</ns3:atemp>
            <ns3:hr>132</ns3:hr>
          </ns3:TrackPointExtension>
        </extensions>
      </trkpt>
      <trkpt lat="-22.12094527669250965118408203125" lon="166.44013331271708011627197265625">
        <ele>119.40000152587890625</ele>
        <time>2016-08-12T23:28:17.000Z</time>
        <extensions>
          <ns3:TrackPointExtension>
            <ns3:atemp>24.0</ns3:atemp>
            <ns3:hr>132</ns3:hr>
          </ns3:TrackPointExtension>
        </extensions>
      </trkpt>
      <trkpt lat="-22.12096354924142360687255859375" lon="166.4401169680058956146240234375">
        <ele>119.1999969482421875</ele>
        <time>2016-08-12T23:28:18.000Z</time>
        <extensions>
          <ns3:TrackPointExtension>
            <ns3:atemp>24.0</ns3:atemp>
            <ns3:hr>132</ns3:hr>
          </ns3:TrackPointExtension>
        </extensions>
      </trkpt>
      <trkpt lat="-22.12098282761871814727783203125" lon="166.440098695456981658935546875">
        <ele>119.1999969482421875</ele>
        <time>2016-08-12T23:28:19.000Z</time>
        <extensions>
          <ns3:TrackPointExtension>
            <ns3:atemp>24.0</ns3:atemp>
            <ns3:hr>132</ns3:hr>
          </ns3:TrackPointExtension>
        </extensions>
      </trkpt>
      <trkpt lat="-22.12099456228315830230712890625" lon="166.440078914165496826171875">
        <ele>119.40000152587890625</ele>
        <time>2016-08-12T23:28:20.000Z</time>
        <extensions>
          <ns3:TrackPointExtension>
            <ns3:atemp>24.0</ns3:atemp>
            <ns3:hr>132</ns3:hr>
          </ns3:TrackPointExtension>
        </extensions>
      </trkpt>
      <trkpt lat="-22.12100990116596221923828125" lon="166.44006139598786830902099609375">
        <ele>119</ele>
        <time>2016-08-12T23:28:21.000Z</time>
        <extensions>
          <ns3:TrackPointExtension>
            <ns3:atemp>24.0</ns3:atemp>
            <ns3:hr>132</ns3:hr>
          </ns3:TrackPointExtension>
        </extensions>
      </trkpt>
      <trkpt lat="-22.12102725170552730560302734375" lon="166.44004664383828639984130859375">
        <ele>118.8000030517578125</ele>
        <time>2016-08-12T23:28:22.000Z</time>
        <extensions>
          <ns3:TrackPointExtension>
            <ns3:atemp>24.0</ns3:atemp>
            <ns3:hr>132</ns3:hr>
          </ns3:TrackPointExtension>
        </extensions>
      </trkpt>
      <trkpt lat="-22.12104476988315582275390625" lon="166.44003172405064105987548828125">
        <ele>118.8000030517578125</ele>
        <time>2016-08-12T23:28:23.000Z</time>
        <extensions>
          <ns3:TrackPointExtension>
            <ns3:atemp>24.0</ns3:atemp>
            <ns3:hr>132</ns3:hr>
          </ns3:TrackPointExtension>
        </extensions>
      </trkpt>
      <trkpt lat="-22.1210647188127040863037109375" lon="166.440014205873012542724609375">
        <ele>118.59999847412109375</ele>
        <time>2016-08-12T23:28:24.000Z</time>
        <extensions>
          <ns3:TrackPointExtension>
            <ns3:atemp>24.0</ns3:atemp>
            <ns3:hr>132</ns3:hr>
          </ns3:TrackPointExtension>
        </extensions>
      </trkpt>
      <trkpt lat="-22.1210891939699649810791015625" lon="166.43999886699020862579345703125">
        <ele>118.1999969482421875</ele>
        <time>2016-08-12T23:28:25.000Z</time>
        <extensions>
          <ns3:TrackPointExtension>
            <ns3:atemp>24.0</ns3:atemp>
            <ns3:hr>133</ns3:hr>
          </ns3:TrackPointExtension>
        </extensions>
      </trkpt>
      <trkpt lat="-22.12111224420368671417236328125" lon="166.43998579122126102447509765625">
        <ele>117.8000030517578125</ele>
        <time>2016-08-12T23:28:26.000Z</time>
        <extensions>
          <ns3:TrackPointExtension>
            <ns3:atemp>24.0</ns3:atemp>
            <ns3:hr>132</ns3:hr>
          </ns3:TrackPointExtension>
        </extensions>
      </trkpt>
      <trkpt lat="-22.12113487534224987030029296875" lon="166.43997238017618656158447265625">
        <ele>117.59999847412109375</ele>
        <time>2016-08-12T23:28:27.000Z</time>
        <extensions>
          <ns3:TrackPointExtension>
            <ns3:atemp>24.0</ns3:atemp>
            <ns3:hr>132</ns3:hr>
          </ns3:TrackPointExtension>
        </extensions>
      </trkpt>
      <trkpt lat="-22.12115918286144733428955078125" lon="166.439958550035953521728515625">
        <ele>117.40000152587890625</ele>
        <time>2016-08-12T23:28:28.000Z</time>
        <extensions>
          <ns3:TrackPointExtension>
            <ns3:atemp>24.0</ns3:atemp>
            <ns3:hr>132</ns3:hr>
          </ns3:TrackPointExtension>
        </extensions>
      </trkpt>
      <trkpt lat="-22.12118147872388362884521484375" lon="166.43994220532476902008056640625">
        <ele>117</ele>
        <time>2016-08-12T23:28:29.000Z</time>
        <extensions>
          <ns3:TrackPointExtension>
            <ns3:atemp>24.0</ns3:atemp>
            <ns3:hr>132</ns3:hr>
          </ns3:TrackPointExtension>
        </extensions>
      </trkpt>
      <trkpt lat="-22.1212025173008441925048828125" lon="166.4399275369942188262939453125">
        <ele>116.59999847412109375</ele>
        <time>2016-08-12T23:28:30.000Z</time>
        <extensions>
          <ns3:TrackPointExtension>
            <ns3:atemp>24.0</ns3:atemp>
            <ns3:hr>132</ns3:hr>
          </ns3:TrackPointExtension>
        </extensions>
      </trkpt>
      <trkpt lat="-22.1212216280400753021240234375" lon="166.43990649841725826263427734375">
        <ele>116.59999847412109375</ele>
        <time>2016-08-12T23:28:31.000Z</time>
        <extensions>
          <ns3:TrackPointExtension>
            <ns3:atemp>24.0</ns3:atemp>
            <ns3:hr>132</ns3:hr>
          </ns3:TrackPointExtension>
        </extensions>
      </trkpt>
      <trkpt lat="-22.12124568410217761993408203125" lon="166.4398869685828685760498046875">
        <ele>116.40000152587890625</ele>
        <time>2016-08-12T23:28:32.000Z</time>
        <extensions>
          <ns3:TrackPointExtension>
            <ns3:atemp>24.0</ns3:atemp>
            <ns3:hr>132</ns3:hr>
          </ns3:TrackPointExtension>
        </extensions>
      </trkpt>
      <trkpt lat="-22.121269404888153076171875" lon="166.43986375071108341217041015625">
        <ele>116.1999969482421875</ele>
        <time>2016-08-12T23:28:33.000Z</time>
        <extensions>
          <ns3:TrackPointExtension>
            <ns3:atemp>24.0</ns3:atemp>
            <ns3:hr>133</ns3:hr>
          </ns3:TrackPointExtension>
        </extensions>
      </trkpt>
      <trkpt lat="-22.1212940476834774017333984375" lon="166.4398420415818691253662109375">
        <ele>116.40000152587890625</ele>
        <time>2016-08-12T23:28:34.000Z</time>
        <extensions>
          <ns3:TrackPointExtension>
            <ns3:atemp>24.0</ns3:atemp>
            <ns3:hr>133</ns3:hr>
          </ns3:TrackPointExtension>
        </extensions>
      </trkpt>
      <trkpt lat="-22.12131978012621402740478515625" lon="166.43982016481459140777587890625">
        <ele>116.1999969482421875</ele>
        <time>2016-08-12T23:28:35.000Z</time>
        <extensions>
          <ns3:TrackPointExtension>
            <ns3:atemp>24.0</ns3:atemp>
            <ns3:hr>133</ns3:hr>
          </ns3:TrackPointExtension>
        </extensions>
      </trkpt>
      <trkpt lat="-22.1213389746844768524169921875" lon="166.43979803659021854400634765625">
        <ele>115.59999847412109375</ele>
        <time>2016-08-12T23:28:36.000Z</time>
        <extensions>
          <ns3:TrackPointExtension>
            <ns3:atemp>24.0</ns3:atemp>
            <ns3:hr>132</ns3:hr>
          </ns3:TrackPointExtension>
        </extensions>
      </trkpt>
      <trkpt lat="-22.1213530562818050384521484375" lon="166.43977272324264049530029296875">
        <ele>115</ele>
        <time>2016-08-12T23:28:37.000Z</time>
        <extensions>
          <ns3:TrackPointExtension>
            <ns3:atemp>24.0</ns3:atemp>
            <ns3:hr>133</ns3:hr>
          </ns3:TrackPointExtension>
        </extensions>
      </trkpt>
      <trkpt lat="-22.12136621586978435516357421875" lon="166.4397498406469821929931640625">
        <ele>115</ele>
        <time>2016-08-12T23:28:38.000Z</time>
        <extensions>
          <ns3:TrackPointExtension>
            <ns3:atemp>24.0</ns3:atemp>
            <ns3:hr>133</ns3:hr>
          </ns3:TrackPointExtension>
        </extensions>
      </trkpt>
      <trkpt lat="-22.12137979455292224884033203125" lon="166.43972829915583133697509765625">
        <ele>114.8000030517578125</ele>
        <time>2016-08-12T23:28:39.000Z</time>
        <extensions>
          <ns3:TrackPointExtension>
            <ns3:atemp>24.0</ns3:atemp>
            <ns3:hr>133</ns3:hr>
          </ns3:TrackPointExtension>
        </extensions>
      </trkpt>
      <trkpt lat="-22.121394462883472442626953125" lon="166.43971203826367855072021484375">
        <ele>114.59999847412109375</ele>
        <time>2016-08-12T23:28:40.000Z</time>
        <extensions>
          <ns3:TrackPointExtension>
            <ns3:atemp>24.0</ns3:atemp>
            <ns3:hr>133</ns3:hr>
          </ns3:TrackPointExtension>
        </extensions>
      </trkpt>
      <trkpt lat="-22.1214050240814685821533203125" lon="166.4396941848099231719970703125">
        <ele>114.1999969482421875</ele>
        <time>2016-08-12T23:28:41.000Z</time>
        <extensions>
          <ns3:TrackPointExtension>
            <ns3:atemp>24.0</ns3:atemp>
            <ns3:hr>133</ns3:hr>
          </ns3:TrackPointExtension>
        </extensions>
      </trkpt>
      <trkpt lat="-22.1214263141155242919921875" lon="166.4396740682423114776611328125">
        <ele>114</ele>
        <time>2016-08-12T23:28:42.000Z</time>
        <extensions>
          <ns3:TrackPointExtension>
            <ns3:atemp>24.0</ns3:atemp>
            <ns3:hr>133</ns3:hr>
          </ns3:TrackPointExtension>
        </extensions>
      </trkpt>
      <trkpt lat="-22.1214486099779605865478515625" lon="166.43965244293212890625">
        <ele>113.8000030517578125</ele>
        <time>2016-08-12T23:28:43.000Z</time>
        <extensions>
          <ns3:TrackPointExtension>
            <ns3:atemp>24.0</ns3:atemp>
            <ns3:hr>133</ns3:hr>
          </ns3:TrackPointExtension>
        </extensions>
      </trkpt>
      <trkpt lat="-22.12146596051752567291259765625" lon="166.43963023088872432708740234375">
        <ele>113.40000152587890625</ele>
        <time>2016-08-12T23:28:44.000Z</time>
        <extensions>
          <ns3:TrackPointExtension>
            <ns3:atemp>24.0</ns3:atemp>
            <ns3:hr>133</ns3:hr>
          </ns3:TrackPointExtension>
        </extensions>
      </trkpt>
      <trkpt lat="-22.1214875020086765289306640625" lon="166.43961145542562007904052734375">
        <ele>113.40000152587890625</ele>
        <time>2016-08-12T23:28:45.000Z</time>
        <extensions>
          <ns3:TrackPointExtension>
            <ns3:atemp>24.0</ns3:atemp>
            <ns3:hr>133</ns3:hr>
          </ns3:TrackPointExtension>
        </extensions>
      </trkpt>
      <trkpt lat="-22.12151055224239826202392578125" lon="166.43959586508572101593017578125">
        <ele>113.1999969482421875</ele>
        <time>2016-08-12T23:28:46.000Z</time>
        <extensions>
          <ns3:TrackPointExtension>
            <ns3:atemp>24.0</ns3:atemp>
            <ns3:hr>133</ns3:hr>
          </ns3:TrackPointExtension>
        </extensions>
      </trkpt>
      <trkpt lat="-22.1215401403605937957763671875" lon="166.4395768381655216217041015625">
        <ele>112.8000030517578125</ele>
        <time>2016-08-12T23:28:47.000Z</time>
        <extensions>
          <ns3:TrackPointExtension>
            <ns3:atemp>24.0</ns3:atemp>
            <ns3:hr>133</ns3:hr>
          </ns3:TrackPointExtension>
        </extensions>
      </trkpt>
      <trkpt lat="-22.12156352587044239044189453125" lon="166.4395610801875591278076171875">
        <ele>112.40000152587890625</ele>
        <time>2016-08-12T23:28:48.000Z</time>
        <extensions>
          <ns3:TrackPointExtension>
            <ns3:atemp>24.0</ns3:atemp>
            <ns3:hr>133</ns3:hr>
          </ns3:TrackPointExtension>
        </extensions>
      </trkpt>
      <trkpt lat="-22.1215890906751155853271484375" lon="166.439545489847660064697265625">
        <ele>112.40000152587890625</ele>
        <time>2016-08-12T23:28:49.000Z</time>
        <extensions>
          <ns3:TrackPointExtension>
            <ns3:atemp>24.0</ns3:atemp>
            <ns3:hr>134</ns3:hr>
          </ns3:TrackPointExtension>
        </extensions>
      </trkpt>
      <trkpt lat="-22.1216172538697719573974609375" lon="166.439528726041316986083984375">
        <ele>112</ele>
        <time>2016-08-12T23:28:50.000Z</time>
        <extensions>
          <ns3:TrackPointExtension>
            <ns3:atemp>24.0</ns3:atemp>
            <ns3:hr>134</ns3:hr>
          </ns3:TrackPointExtension>
        </extensions>
      </trkpt>
      <trkpt lat="-22.12163846008479595184326171875" lon="166.43951321952044963836669921875">
        <ele>111.8000030517578125</ele>
        <time>2016-08-12T23:28:51.000Z</time>
        <extensions>
          <ns3:TrackPointExtension>
            <ns3:atemp>24.0</ns3:atemp>
            <ns3:hr>134</ns3:hr>
          </ns3:TrackPointExtension>
        </extensions>
      </trkpt>
      <trkpt lat="-22.12166025303304195404052734375" lon="166.43949628807604312896728515625">
        <ele>111.8000030517578125</ele>
        <time>2016-08-12T23:28:52.000Z</time>
        <extensions>
          <ns3:TrackPointExtension>
            <ns3:atemp>24.0</ns3:atemp>
            <ns3:hr>133</ns3:hr>
          </ns3:TrackPointExtension>
        </extensions>
      </trkpt>
      <trkpt lat="-22.12168573401868343353271484375" lon="166.43948187120258808135986328125">
        <ele>111.1999969482421875</ele>
        <time>2016-08-12T23:28:53.000Z</time>
        <extensions>
          <ns3:TrackPointExtension>
            <ns3:atemp>24.0</ns3:atemp>
            <ns3:hr>133</ns3:hr>
          </ns3:TrackPointExtension>
        </extensions>
      </trkpt>
      <trkpt lat="-22.12171129882335662841796875" lon="166.43946611322462558746337890625">
        <ele>110.59999847412109375</ele>
        <time>2016-08-12T23:28:54.000Z</time>
        <extensions>
          <ns3:TrackPointExtension>
            <ns3:atemp>24.0</ns3:atemp>
            <ns3:hr>133</ns3:hr>
          </ns3:TrackPointExtension>
        </extensions>
      </trkpt>
      <trkpt lat="-22.1217399649322032928466796875" lon="166.4394472539424896240234375">
        <ele>110.8000030517578125</ele>
        <time>2016-08-12T23:28:55.000Z</time>
        <extensions>
          <ns3:TrackPointExtension>
            <ns3:atemp>24.0</ns3:atemp>
            <ns3:hr>133</ns3:hr>
          </ns3:TrackPointExtension>
        </extensions>
      </trkpt>
      <trkpt lat="-22.12175714783370494842529296875" lon="166.43942722119390964508056640625">
        <ele>111</ele>
        <time>2016-08-12T23:28:56.000Z</time>
        <extensions>
          <ns3:TrackPointExtension>
            <ns3:atemp>24.0</ns3:atemp>
            <ns3:hr>134</ns3:hr>
          </ns3:TrackPointExtension>
        </extensions>
      </trkpt>
      <trkpt lat="-22.12178782559931278228759765625" lon="166.43941330723464488983154296875">
        <ele>110.40000152587890625</ele>
        <time>2016-08-12T23:28:57.000Z</time>
        <extensions>
          <ns3:TrackPointExtension>
            <ns3:atemp>24.0</ns3:atemp>
            <ns3:hr>133</ns3:hr>
          </ns3:TrackPointExtension>
        </extensions>
      </trkpt>
      <trkpt lat="-22.12181950919330120086669921875" lon="166.43939637579023838043212890625">
        <ele>109.8000030517578125</ele>
        <time>2016-08-12T23:28:58.000Z</time>
        <extensions>
          <ns3:TrackPointExtension>
            <ns3:atemp>24.0</ns3:atemp>
            <ns3:hr>134</ns3:hr>
          </ns3:TrackPointExtension>
        </extensions>
      </trkpt>
      <trkpt lat="-22.12184700183570384979248046875" lon="166.43938128836452960968017578125">
        <ele>110.40000152587890625</ele>
        <time>2016-08-12T23:28:59.000Z</time>
        <extensions>
          <ns3:TrackPointExtension>
            <ns3:atemp>24.0</ns3:atemp>
            <ns3:hr>134</ns3:hr>
          </ns3:TrackPointExtension>
        </extensions>
      </trkpt>
      <trkpt lat="-22.12188086472451686859130859375" lon="166.43936351872980594635009765625">
        <ele>110.8000030517578125</ele>
        <time>2016-08-12T23:29:00.000Z</time>
        <extensions>
          <ns3:TrackPointExtension>
            <ns3:atemp>24.0</ns3:atemp>
            <ns3:hr>133</ns3:hr>
          </ns3:TrackPointExtension>
        </extensions>
      </trkpt>
      <trkpt lat="-22.12190978229045867919921875" lon="166.43934407271444797515869140625">
        <ele>110.59999847412109375</ele>
        <time>2016-08-12T23:29:01.000Z</time>
        <extensions>
          <ns3:TrackPointExtension>
            <ns3:atemp>24.0</ns3:atemp>
            <ns3:hr>133</ns3:hr>
          </ns3:TrackPointExtension>
        </extensions>
      </trkpt>
      <trkpt lat="-22.1219317428767681121826171875" lon="166.43932680599391460418701171875">
        <ele>110.40000152587890625</ele>
        <time>2016-08-12T23:29:02.000Z</time>
        <extensions>
          <ns3:TrackPointExtension>
            <ns3:atemp>24.0</ns3:atemp>
            <ns3:hr>133</ns3:hr>
          </ns3:TrackPointExtension>
        </extensions>
      </trkpt>
      <trkpt lat="-22.12195697240531444549560546875" lon="166.4393102936446666717529296875">
        <ele>110.40000152587890625</ele>
        <time>2016-08-12T23:29:03.000Z</time>
        <extensions>
          <ns3:TrackPointExtension>
            <ns3:atemp>24.0</ns3:atemp>
            <ns3:hr>133</ns3:hr>
          </ns3:TrackPointExtension>
        </extensions>
      </trkpt>
      <trkpt lat="-22.12197356857359409332275390625" lon="166.4392916858196258544921875">
        <ele>110.59999847412109375</ele>
        <time>2016-08-12T23:29:04.000Z</time>
        <extensions>
          <ns3:TrackPointExtension>
            <ns3:atemp>24.0</ns3:atemp>
            <ns3:hr>133</ns3:hr>
          </ns3:TrackPointExtension>
        </extensions>
      </trkpt>
      <trkpt lat="-22.12199234403669834136962890625" lon="166.43927383236587047576904296875">
        <ele>110.1999969482421875</ele>
        <time>2016-08-12T23:29:05.000Z</time>
        <extensions>
          <ns3:TrackPointExtension>
            <ns3:atemp>24.0</ns3:atemp>
            <ns3:hr>133</ns3:hr>
          </ns3:TrackPointExtension>
        </extensions>
      </trkpt>
      <trkpt lat="-22.12201916612684726715087890625" lon="166.4392579905688762664794921875">
        <ele>110.1999969482421875</ele>
        <time>2016-08-12T23:29:06.000Z</time>
        <extensions>
          <ns3:TrackPointExtension>
            <ns3:atemp>24.0</ns3:atemp>
            <ns3:hr>133</ns3:hr>
          </ns3:TrackPointExtension>
        </extensions>
      </trkpt>
      <trkpt lat="-22.12203995324671268463134765625" lon="166.43924348987638950347900390625">
        <ele>110</ele>
        <time>2016-08-12T23:29:07.000Z</time>
        <extensions>
          <ns3:TrackPointExtension>
            <ns3:atemp>24.0</ns3:atemp>
            <ns3:hr>133</ns3:hr>
          </ns3:TrackPointExtension>
        </extensions>
      </trkpt>
      <trkpt lat="-22.1220678649842739105224609375" lon="166.4392273128032684326171875">
        <ele>109.8000030517578125</ele>
        <time>2016-08-12T23:29:08.000Z</time>
        <extensions>
          <ns3:TrackPointExtension>
            <ns3:atemp>24.0</ns3:atemp>
            <ns3:hr>133</ns3:hr>
          </ns3:TrackPointExtension>
        </extensions>
      </trkpt>
      <trkpt lat="-22.1220869757235050201416015625" lon="166.43921365030109882354736328125">
        <ele>109.59999847412109375</ele>
        <time>2016-08-12T23:29:09.000Z</time>
        <extensions>
          <ns3:TrackPointExtension>
            <ns3:atemp>24.0</ns3:atemp>
            <ns3:hr>133</ns3:hr>
          </ns3:TrackPointExtension>
        </extensions>
      </trkpt>
      <trkpt lat="-22.12211220525205135345458984375" lon="166.43920426256954669952392578125">
        <ele>109.59999847412109375</ele>
        <time>2016-08-12T23:29:10.000Z</time>
        <extensions>
          <ns3:TrackPointExtension>
            <ns3:atemp>24.0</ns3:atemp>
            <ns3:hr>132</ns3:hr>
          </ns3:TrackPointExtension>
        </extensions>
      </trkpt>
      <trkpt lat="-22.12213785387575626373291015625" lon="166.43919722177088260650634765625">
        <ele>109.40000152587890625</ele>
        <time>2016-08-12T23:29:11.000Z</time>
        <extensions>
          <ns3:TrackPointExtension>
            <ns3:atemp>24.0</ns3:atemp>
            <ns3:hr>133</ns3:hr>
          </ns3:TrackPointExtension>
        </extensions>
      </trkpt>
      <trkpt lat="-22.12216165848076343536376953125" lon="166.43919445574283599853515625">
        <ele>109.1999969482421875</ele>
        <time>2016-08-12T23:29:12.000Z</time>
        <extensions>
          <ns3:TrackPointExtension>
            <ns3:atemp>24.0</ns3:atemp>
            <ns3:hr>133</ns3:hr>
          </ns3:TrackPointExtension>
        </extensions>
      </trkpt>
      <trkpt lat="-22.12220088578760623931884765625" lon="166.43919722177088260650634765625">
        <ele>108.59999847412109375</ele>
        <time>2016-08-12T23:29:13.000Z</time>
        <extensions>
          <ns3:TrackPointExtension>
            <ns3:atemp>24.0</ns3:atemp>
            <ns3:hr>133</ns3:hr>
          </ns3:TrackPointExtension>
        </extensions>
      </trkpt>
      <trkpt lat="-22.1222277916967868804931640625" lon="166.43919688649475574493408203125">
        <ele>108.40000152587890625</ele>
        <time>2016-08-12T23:29:14.000Z</time>
        <extensions>
          <ns3:TrackPointExtension>
            <ns3:atemp>24.0</ns3:atemp>
            <ns3:hr>133</ns3:hr>
          </ns3:TrackPointExtension>
        </extensions>
      </trkpt>
      <trkpt lat="-22.12225302122533321380615234375" lon="166.43919822759926319122314453125">
        <ele>108.59999847412109375</ele>
        <time>2016-08-12T23:29:15.000Z</time>
        <extensions>
          <ns3:TrackPointExtension>
            <ns3:atemp>24.0</ns3:atemp>
            <ns3:hr>133</ns3:hr>
          </ns3:TrackPointExtension>
        </extensions>
      </trkpt>
      <trkpt lat="-22.1222750656306743621826171875" lon="166.43919470719993114471435546875">
        <ele>108.8000030517578125</ele>
        <time>2016-08-12T23:29:16.000Z</time>
        <extensions>
          <ns3:TrackPointExtension>
            <ns3:atemp>24.0</ns3:atemp>
            <ns3:hr>133</ns3:hr>
          </ns3:TrackPointExtension>
        </extensions>
      </trkpt>
      <trkpt lat="-22.12230381555855274200439453125" lon="166.43919319845736026763916015625">
        <ele>108.8000030517578125</ele>
        <time>2016-08-12T23:29:17.000Z</time>
        <extensions>
          <ns3:TrackPointExtension>
            <ns3:atemp>24.0</ns3:atemp>
            <ns3:hr>133</ns3:hr>
          </ns3:TrackPointExtension>
        </extensions>
      </trkpt>
      <trkpt lat="-22.12233231402933597564697265625" lon="166.43919202499091625213623046875">
        <ele>108.59999847412109375</ele>
        <time>2016-08-12T23:29:18.000Z</time>
        <extensions>
          <ns3:TrackPointExtension>
            <ns3:atemp>24.0</ns3:atemp>
            <ns3:hr>133</ns3:hr>
          </ns3:TrackPointExtension>
        </extensions>
      </trkpt>
      <trkpt lat="-22.12235813029110431671142578125" lon="166.43918816931545734405517578125">
        <ele>108.40000152587890625</ele>
        <time>2016-08-12T23:29:19.000Z</time>
        <extensions>
          <ns3:TrackPointExtension>
            <ns3:atemp>24.0</ns3:atemp>
            <ns3:hr>133</ns3:hr>
          </ns3:TrackPointExtension>
        </extensions>
      </trkpt>
      <trkpt lat="-22.122381515800952911376953125" lon="166.43918397836387157440185546875">
        <ele>108.59999847412109375</ele>
        <time>2016-08-12T23:29:20.000Z</time>
        <extensions>
          <ns3:TrackPointExtension>
            <ns3:atemp>24.0</ns3:atemp>
            <ns3:hr>133</ns3:hr>
          </ns3:TrackPointExtension>
        </extensions>
      </trkpt>
      <trkpt lat="-22.12240288965404033660888671875" lon="166.43918347544968128204345703125">
        <ele>108.59999847412109375</ele>
        <time>2016-08-12T23:29:21.000Z</time>
        <extensions>
          <ns3:TrackPointExtension>
            <ns3:atemp>24.0</ns3:atemp>
            <ns3:hr>133</ns3:hr>
          </ns3:TrackPointExtension>
        </extensions>
      </trkpt>
      <trkpt lat="-22.12242585606873035430908203125" lon="166.439182721078395843505859375">
        <ele>108.40000152587890625</ele>
        <time>2016-08-12T23:29:22.000Z</time>
        <extensions>
          <ns3:TrackPointExtension>
            <ns3:atemp>24.0</ns3:atemp>
            <ns3:hr>133</ns3:hr>
          </ns3:TrackPointExtension>
        </extensions>
      </trkpt>
      <trkpt lat="-22.12246608920395374298095703125" lon="166.43919420428574085235595703125">
        <ele>108.40000152587890625</ele>
        <time>2016-08-12T23:29:23.000Z</time>
        <extensions>
          <ns3:TrackPointExtension>
            <ns3:atemp>24.0</ns3:atemp>
            <ns3:hr>133</ns3:hr>
          </ns3:TrackPointExtension>
        </extensions>
      </trkpt>
      <trkpt lat="-22.122493498027324676513671875" lon="166.43919772468507289886474609375">
        <ele>108.40000152587890625</ele>
        <time>2016-08-12T23:29:24.000Z</time>
        <extensions>
          <ns3:TrackPointExtension>
            <ns3:atemp>24.0</ns3:atemp>
            <ns3:hr>133</ns3:hr>
          </ns3:TrackPointExtension>
        </extensions>
      </trkpt>
      <trkpt lat="-22.12252258323132991790771484375" lon="166.43920141272246837615966796875">
        <ele>108.1999969482421875</ele>
        <time>2016-08-12T23:29:25.000Z</time>
        <extensions>
          <ns3:TrackPointExtension>
            <ns3:atemp>24.0</ns3:atemp>
            <ns3:hr>134</ns3:hr>
          </ns3:TrackPointExtension>
        </extensions>
      </trkpt>
      <trkpt lat="-22.1225506626069545745849609375" lon="166.4391999877989292144775390625">
        <ele>108</ele>
        <time>2016-08-12T23:29:26.000Z</time>
        <extensions>
          <ns3:TrackPointExtension>
            <ns3:atemp>24.0</ns3:atemp>
            <ns3:hr>134</ns3:hr>
          </ns3:TrackPointExtension>
        </extensions>
      </trkpt>
      <trkpt lat="-22.122609503567218780517578125" lon="166.4391939528286457061767578125">
        <ele>107.8000030517578125</ele>
        <time>2016-08-12T23:29:28.000Z</time>
        <extensions>
          <ns3:TrackPointExtension>
            <ns3:atemp>24.0</ns3:atemp>
            <ns3:hr>134</ns3:hr>
          </ns3:TrackPointExtension>
        </extensions>
      </trkpt>
      <trkpt lat="-22.1226361580193042755126953125" lon="166.4391909353435039520263671875">
        <ele>107.59999847412109375</ele>
        <time>2016-08-12T23:29:29.000Z</time>
        <extensions>
          <ns3:TrackPointExtension>
            <ns3:atemp>24.0</ns3:atemp>
            <ns3:hr>134</ns3:hr>
          </ns3:TrackPointExtension>
        </extensions>
      </trkpt>
      <trkpt lat="-22.12266080081462860107421875" lon="166.43919118680059909820556640625">
        <ele>107.59999847412109375</ele>
        <time>2016-08-12T23:29:30.000Z</time>
        <extensions>
          <ns3:TrackPointExtension>
            <ns3:atemp>24.0</ns3:atemp>
            <ns3:hr>135</ns3:hr>
          </ns3:TrackPointExtension>
        </extensions>
      </trkpt>
      <trkpt lat="-22.12269089184701442718505859375" lon="166.43919185735285282135009765625">
        <ele>107.40000152587890625</ele>
        <time>2016-08-12T23:29:31.000Z</time>
        <extensions>
          <ns3:TrackPointExtension>
            <ns3:atemp>24.0</ns3:atemp>
            <ns3:hr>135</ns3:hr>
          </ns3:TrackPointExtension>
        </extensions>
      </trkpt>
      <trkpt lat="-22.12271536700427532196044921875" lon="166.43918816931545734405517578125">
        <ele>107.1999969482421875</ele>
        <time>2016-08-12T23:29:32.000Z</time>
        <extensions>
          <ns3:TrackPointExtension>
            <ns3:atemp>24.0</ns3:atemp>
            <ns3:hr>135</ns3:hr>
          </ns3:TrackPointExtension>
        </extensions>
      </trkpt>
      <trkpt lat="-22.12273682467639446258544921875" lon="166.43918599002063274383544921875">
        <ele>106.8000030517578125</ele>
        <time>2016-08-12T23:29:33.000Z</time>
        <extensions>
          <ns3:TrackPointExtension>
            <ns3:atemp>24.0</ns3:atemp>
            <ns3:hr>135</ns3:hr>
          </ns3:TrackPointExtension>
        </extensions>
      </trkpt>
      <trkpt lat="-22.1227585338056087493896484375" lon="166.43918615765869617462158203125">
        <ele>106.59999847412109375</ele>
        <time>2016-08-12T23:29:34.000Z</time>
        <extensions>
          <ns3:TrackPointExtension>
            <ns3:atemp>24.0</ns3:atemp>
            <ns3:hr>135</ns3:hr>
          </ns3:TrackPointExtension>
        </extensions>
      </trkpt>
      <trkpt lat="-22.12278275750577449798583984375" lon="166.43918464891612529754638671875">
        <ele>106.40000152587890625</ele>
        <time>2016-08-12T23:29:35.000Z</time>
        <extensions>
          <ns3:TrackPointExtension>
            <ns3:atemp>24.0</ns3:atemp>
            <ns3:hr>135</ns3:hr>
          </ns3:TrackPointExtension>
        </extensions>
      </trkpt>
      <trkpt lat="-22.12280966341495513916015625" lon="166.43918238580226898193359375">
        <ele>106.1999969482421875</ele>
        <time>2016-08-12T23:29:36.000Z</time>
        <extensions>
          <ns3:TrackPointExtension>
            <ns3:atemp>24.0</ns3:atemp>
            <ns3:hr>135</ns3:hr>
          </ns3:TrackPointExtension>
        </extensions>
      </trkpt>
      <trkpt lat="-22.12283723987638950347900390625" lon="166.43918506801128387451171875">
        <ele>106</ele>
        <time>2016-08-12T23:29:37.000Z</time>
        <extensions>
          <ns3:TrackPointExtension>
            <ns3:atemp>24.0</ns3:atemp>
            <ns3:hr>135</ns3:hr>
          </ns3:TrackPointExtension>
        </extensions>
      </trkpt>
      <trkpt lat="-22.1228634752333164215087890625" lon="166.439188420772552490234375">
        <ele>105.59999847412109375</ele>
        <time>2016-08-12T23:29:38.000Z</time>
        <extensions>
          <ns3:TrackPointExtension>
            <ns3:atemp>24.0</ns3:atemp>
            <ns3:hr>135</ns3:hr>
          </ns3:TrackPointExtension>
        </extensions>
      </trkpt>
      <trkpt lat="-22.122900187969207763671875" lon="166.43919579684734344482421875">
        <ele>105.40000152587890625</ele>
        <time>2016-08-12T23:29:39.000Z</time>
        <extensions>
          <ns3:TrackPointExtension>
            <ns3:atemp>24.0</ns3:atemp>
            <ns3:hr>135</ns3:hr>
          </ns3:TrackPointExtension>
        </extensions>
      </trkpt>
      <trkpt lat="-22.12293178774416446685791015625" lon="166.43919982016086578369140625">
        <ele>105.1999969482421875</ele>
        <time>2016-08-12T23:29:40.000Z</time>
        <extensions>
          <ns3:TrackPointExtension>
            <ns3:atemp>24.0</ns3:atemp>
            <ns3:hr>136</ns3:hr>
          </ns3:TrackPointExtension>
        </extensions>
      </trkpt>
      <trkpt lat="-22.1229603700339794158935546875" lon="166.4392070285975933074951171875">
        <ele>104.8000030517578125</ele>
        <time>2016-08-12T23:29:41.000Z</time>
        <extensions>
          <ns3:TrackPointExtension>
            <ns3:atemp>24.0</ns3:atemp>
            <ns3:hr>135</ns3:hr>
          </ns3:TrackPointExtension>
        </extensions>
      </trkpt>
      <trkpt lat="-22.12299180217087268829345703125" lon="166.4392144046723842620849609375">
        <ele>104.59999847412109375</ele>
        <time>2016-08-12T23:29:42.000Z</time>
        <extensions>
          <ns3:TrackPointExtension>
            <ns3:atemp>24.0</ns3:atemp>
            <ns3:hr>136</ns3:hr>
          </ns3:TrackPointExtension>
        </extensions>
      </trkpt>
      <trkpt lat="-22.12301946245133876800537109375" lon="166.4392211101949214935302734375">
        <ele>104.40000152587890625</ele>
        <time>2016-08-12T23:29:43.000Z</time>
        <extensions>
          <ns3:TrackPointExtension>
            <ns3:atemp>24.0</ns3:atemp>
            <ns3:hr>135</ns3:hr>
          </ns3:TrackPointExtension>
        </extensions>
      </trkpt>
      <trkpt lat="-22.12304494343698024749755859375" lon="166.439222283661365509033203125">
        <ele>104</ele>
        <time>2016-08-12T23:29:44.000Z</time>
        <extensions>
          <ns3:TrackPointExtension>
            <ns3:atemp>24.0</ns3:atemp>
            <ns3:hr>136</ns3:hr>
          </ns3:TrackPointExtension>
        </extensions>
      </trkpt>
      <trkpt lat="-22.12308056652545928955078125" lon="166.43923125229775905609130859375">
        <ele>103.59999847412109375</ele>
        <time>2016-08-12T23:29:45.000Z</time>
        <extensions>
          <ns3:TrackPointExtension>
            <ns3:atemp>24.0</ns3:atemp>
            <ns3:hr>135</ns3:hr>
          </ns3:TrackPointExtension>
        </extensions>
      </trkpt>
      <trkpt lat="-22.12311635725200176239013671875" lon="166.43923980183899402618408203125">
        <ele>103.1999969482421875</ele>
        <time>2016-08-12T23:29:46.000Z</time>
        <extensions>
          <ns3:TrackPointExtension>
            <ns3:atemp>24.0</ns3:atemp>
            <ns3:hr>135</ns3:hr>
          </ns3:TrackPointExtension>
        </extensions>
      </trkpt>
      <trkpt lat="-22.12315390817821025848388671875" lon="166.43925011157989501953125">
        <ele>102.8000030517578125</ele>
        <time>2016-08-12T23:29:47.000Z</time>
        <extensions>
          <ns3:TrackPointExtension>
            <ns3:atemp>24.0</ns3:atemp>
            <ns3:hr>135</ns3:hr>
          </ns3:TrackPointExtension>
        </extensions>
      </trkpt>
      <trkpt lat="-22.1231843344867229461669921875" lon="166.43925790674984455108642578125">
        <ele>102.40000152587890625</ele>
        <time>2016-08-12T23:29:48.000Z</time>
        <extensions>
          <ns3:TrackPointExtension>
            <ns3:atemp>24.0</ns3:atemp>
            <ns3:hr>136</ns3:hr>
          </ns3:TrackPointExtension>
        </extensions>
      </trkpt>
      <trkpt lat="-22.12321794591844081878662109375" lon="166.43926461227238178253173828125">
        <ele>102.1999969482421875</ele>
        <time>2016-08-12T23:29:49.000Z</time>
        <extensions>
          <ns3:TrackPointExtension>
            <ns3:atemp>24.0</ns3:atemp>
            <ns3:hr>136</ns3:hr>
          </ns3:TrackPointExtension>
        </extensions>
      </trkpt>
      <trkpt lat="-22.123252563178539276123046875" lon="166.4392690546810626983642578125">
        <ele>102</ele>
        <time>2016-08-12T23:29:50.000Z</time>
        <extensions>
          <ns3:TrackPointExtension>
            <ns3:atemp>24.0</ns3:atemp>
            <ns3:hr>136</ns3:hr>
          </ns3:TrackPointExtension>
        </extensions>
      </trkpt>
      <trkpt lat="-22.1232822351157665252685546875" lon="166.43927483819425106048583984375">
        <ele>101.59999847412109375</ele>
        <time>2016-08-12T23:29:51.000Z</time>
        <extensions>
          <ns3:TrackPointExtension>
            <ns3:atemp>24.0</ns3:atemp>
            <ns3:hr>136</ns3:hr>
          </ns3:TrackPointExtension>
        </extensions>
      </trkpt>
      <trkpt lat="-22.12331064976751804351806640625" lon="166.43928070552647113800048828125">
        <ele>101</ele>
        <time>2016-08-12T23:29:52.000Z</time>
        <extensions>
          <ns3:TrackPointExtension>
            <ns3:atemp>24.0</ns3:atemp>
            <ns3:hr>136</ns3:hr>
          </ns3:TrackPointExtension>
        </extensions>
      </trkpt>
      <trkpt lat="-22.12333629839122295379638671875" lon="166.43928606994450092315673828125">
        <ele>100.8000030517578125</ele>
        <time>2016-08-12T23:29:53.000Z</time>
        <extensions>
          <ns3:TrackPointExtension>
            <ns3:atemp>24.0</ns3:atemp>
            <ns3:hr>136</ns3:hr>
          </ns3:TrackPointExtension>
        </extensions>
      </trkpt>
      <trkpt lat="-22.1233533136546611785888671875" lon="166.439290009438991546630859375">
        <ele>100.40000152587890625</ele>
        <time>2016-08-12T23:29:54.000Z</time>
        <extensions>
          <ns3:TrackPointExtension>
            <ns3:atemp>24.0</ns3:atemp>
            <ns3:hr>136</ns3:hr>
          </ns3:TrackPointExtension>
        </extensions>
      </trkpt>
      <trkpt lat="-22.12338767945766448974609375" lon="166.439300067722797393798828125">
        <ele>100</ele>
        <time>2016-08-12T23:29:55.000Z</time>
        <extensions>
          <ns3:TrackPointExtension>
            <ns3:atemp>24.0</ns3:atemp>
            <ns3:hr>135</ns3:hr>
          </ns3:TrackPointExtension>
        </extensions>
      </trkpt>
      <trkpt lat="-22.12341307662427425384521484375" lon="166.439306437969207763671875">
        <ele>99.59999847412109375</ele>
        <time>2016-08-12T23:29:56.000Z</time>
        <extensions>
          <ns3:TrackPointExtension>
            <ns3:atemp>24.0</ns3:atemp>
            <ns3:hr>135</ns3:hr>
          </ns3:TrackPointExtension>
        </extensions>
      </trkpt>
      <trkpt lat="-22.12344107218086719512939453125" lon="166.43931188620626926422119140625">
        <ele>99.40000152587890625</ele>
        <time>2016-08-12T23:29:57.000Z</time>
        <extensions>
          <ns3:TrackPointExtension>
            <ns3:atemp>24.0</ns3:atemp>
            <ns3:hr>135</ns3:hr>
          </ns3:TrackPointExtension>
        </extensions>
      </trkpt>
      <trkpt lat="-22.12347208522260189056396484375" lon="166.43931641243398189544677734375">
        <ele>99.1999969482421875</ele>
        <time>2016-08-12T23:29:58.000Z</time>
        <extensions>
          <ns3:TrackPointExtension>
            <ns3:atemp>24.0</ns3:atemp>
            <ns3:hr>135</ns3:hr>
          </ns3:TrackPointExtension>
        </extensions>
      </trkpt>
      <trkpt lat="-22.12349521927535533905029296875" lon="166.43932186067104339599609375">
        <ele>99</ele>
        <time>2016-08-12T23:29:59.000Z</time>
        <extensions>
          <ns3:TrackPointExtension>
            <ns3:atemp>24.0</ns3:atemp>
            <ns3:hr>135</ns3:hr>
          </ns3:TrackPointExtension>
        </extensions>
      </trkpt>
      <trkpt lat="-22.1235196106135845184326171875" lon="166.439330577850341796875">
        <ele>98.59999847412109375</ele>
        <time>2016-08-12T23:30:00.000Z</time>
        <extensions>
          <ns3:TrackPointExtension>
            <ns3:atemp>24.0</ns3:atemp>
            <ns3:hr>135</ns3:hr>
          </ns3:TrackPointExtension>
        </extensions>
      </trkpt>
      <trkpt lat="-22.1235434152185916900634765625" lon="166.4393399655818939208984375">
        <ele>98</ele>
        <time>2016-08-12T23:30:01.000Z</time>
        <extensions>
          <ns3:TrackPointExtension>
            <ns3:atemp>24.0</ns3:atemp>
            <ns3:hr>135</ns3:hr>
          </ns3:TrackPointExtension>
        </extensions>
      </trkpt>
      <trkpt lat="-22.12356193922460079193115234375" lon="166.4393468387424945831298828125">
        <ele>97.59999847412109375</ele>
        <time>2016-08-12T23:30:02.000Z</time>
        <extensions>
          <ns3:TrackPointExtension>
            <ns3:atemp>24.0</ns3:atemp>
            <ns3:hr>135</ns3:hr>
          </ns3:TrackPointExtension>
        </extensions>
      </trkpt>
      <trkpt lat="-22.1235896833240985870361328125" lon="166.43935731612145900726318359375">
        <ele>97.1999969482421875</ele>
        <time>2016-08-12T23:30:03.000Z</time>
        <extensions>
          <ns3:TrackPointExtension>
            <ns3:atemp>24.0</ns3:atemp>
            <ns3:hr>135</ns3:hr>
          </ns3:TrackPointExtension>
        </extensions>
      </trkpt>
      <trkpt lat="-22.12361021898686885833740234375" lon="166.4393667876720428466796875">
        <ele>96.8000030517578125</ele>
        <time>2016-08-12T23:30:04.000Z</time>
        <extensions>
          <ns3:TrackPointExtension>
            <ns3:atemp>24.0</ns3:atemp>
            <ns3:hr>134</ns3:hr>
          </ns3:TrackPointExtension>
        </extensions>
      </trkpt>
      <trkpt lat="-22.12363704107701778411865234375" lon="166.4393823780119419097900390625">
        <ele>96.40000152587890625</ele>
        <time>2016-08-12T23:30:05.000Z</time>
        <extensions>
          <ns3:TrackPointExtension>
            <ns3:atemp>24.0</ns3:atemp>
            <ns3:hr>134</ns3:hr>
          </ns3:TrackPointExtension>
        </extensions>
      </trkpt>
      <trkpt lat="-22.12366587482392787933349609375" lon="166.43939989618957042694091796875">
        <ele>95.8000030517578125</ele>
        <time>2016-08-12T23:30:06.000Z</time>
        <extensions>
          <ns3:TrackPointExtension>
            <ns3:atemp>24.0</ns3:atemp>
            <ns3:hr>134</ns3:hr>
          </ns3:TrackPointExtension>
        </extensions>
      </trkpt>
      <trkpt lat="-22.12370141409337520599365234375" lon="166.43941707909107208251953125">
        <ele>95.40000152587890625</ele>
        <time>2016-08-12T23:30:07.000Z</time>
        <extensions>
          <ns3:TrackPointExtension>
            <ns3:atemp>24.0</ns3:atemp>
            <ns3:hr>134</ns3:hr>
          </ns3:TrackPointExtension>
        </extensions>
      </trkpt>
      <trkpt lat="-22.12373829446732997894287109375" lon="166.43943317234516143798828125">
        <ele>95</ele>
        <time>2016-08-12T23:30:08.000Z</time>
        <extensions>
          <ns3:TrackPointExtension>
            <ns3:atemp>24.0</ns3:atemp>
            <ns3:hr>135</ns3:hr>
          </ns3:TrackPointExtension>
        </extensions>
      </trkpt>
      <trkpt lat="-22.1237720735371112823486328125" lon="166.4394499361515045166015625">
        <ele>94.59999847412109375</ele>
        <time>2016-08-12T23:30:09.000Z</time>
        <extensions>
          <ns3:TrackPointExtension>
            <ns3:atemp>24.0</ns3:atemp>
            <ns3:hr>134</ns3:hr>
          </ns3:TrackPointExtension>
        </extensions>
      </trkpt>
      <trkpt lat="-22.1237995661795139312744140625" lon="166.4394584856927394866943359375">
        <ele>94.1999969482421875</ele>
        <time>2016-08-12T23:30:10.000Z</time>
        <extensions>
          <ns3:TrackPointExtension>
            <ns3:atemp>24.0</ns3:atemp>
            <ns3:hr>134</ns3:hr>
          </ns3:TrackPointExtension>
        </extensions>
      </trkpt>
      <trkpt lat="-22.12381674908101558685302734375" lon="166.4394633471965789794921875">
        <ele>94.40000152587890625</ele>
        <time>2016-08-12T23:30:11.000Z</time>
        <extensions>
          <ns3:TrackPointExtension>
            <ns3:atemp>24.0</ns3:atemp>
            <ns3:hr>134</ns3:hr>
          </ns3:TrackPointExtension>
        </extensions>
      </trkpt>
      <trkpt lat="-22.12383619509637355804443359375" lon="166.43947198055684566497802734375">
        <ele>94.1999969482421875</ele>
        <time>2016-08-12T23:30:12.000Z</time>
        <extensions>
          <ns3:TrackPointExtension>
            <ns3:atemp>24.0</ns3:atemp>
            <ns3:hr>135</ns3:hr>
          </ns3:TrackPointExtension>
        </extensions>
      </trkpt>
      <trkpt lat="-22.12385580874979496002197265625" lon="166.43947918899357318878173828125">
        <ele>93.8000030517578125</ele>
        <time>2016-08-12T23:30:13.000Z</time>
        <extensions>
          <ns3:TrackPointExtension>
            <ns3:atemp>24.0</ns3:atemp>
            <ns3:hr>135</ns3:hr>
          </ns3:TrackPointExtension>
        </extensions>
      </trkpt>
      <trkpt lat="-22.1238837204873561859130859375" lon="166.43949377350509166717529296875">
        <ele>93.59999847412109375</ele>
        <time>2016-08-12T23:30:14.000Z</time>
        <extensions>
          <ns3:TrackPointExtension>
            <ns3:atemp>24.0</ns3:atemp>
            <ns3:hr>135</ns3:hr>
          </ns3:TrackPointExtension>
        </extensions>
      </trkpt>
      <trkpt lat="-22.123902998864650726318359375" lon="166.439507938921451568603515625">
        <ele>93.59999847412109375</ele>
        <time>2016-08-12T23:30:15.000Z</time>
        <extensions>
          <ns3:TrackPointExtension>
            <ns3:atemp>24.0</ns3:atemp>
            <ns3:hr>134</ns3:hr>
          </ns3:TrackPointExtension>
        </extensions>
      </trkpt>
      <trkpt lat="-22.12392948567867279052734375" lon="166.43952076323330402374267578125">
        <ele>93.1999969482421875</ele>
        <time>2016-08-12T23:30:16.000Z</time>
        <extensions>
          <ns3:TrackPointExtension>
            <ns3:atemp>24.0</ns3:atemp>
            <ns3:hr>134</ns3:hr>
          </ns3:TrackPointExtension>
        </extensions>
      </trkpt>
      <trkpt lat="-22.1239524520933628082275390625" lon="166.439528055489063262939453125">
        <ele>92.8000030517578125</ele>
        <time>2016-08-12T23:30:17.000Z</time>
        <extensions>
          <ns3:TrackPointExtension>
            <ns3:atemp>24.0</ns3:atemp>
            <ns3:hr>134</ns3:hr>
          </ns3:TrackPointExtension>
        </extensions>
      </trkpt>
      <trkpt lat="-22.12397617287933826446533203125" lon="166.439536772668361663818359375">
        <ele>92.1999969482421875</ele>
        <time>2016-08-12T23:30:18.000Z</time>
        <extensions>
          <ns3:TrackPointExtension>
            <ns3:atemp>24.0</ns3:atemp>
            <ns3:hr>134</ns3:hr>
          </ns3:TrackPointExtension>
        </extensions>
      </trkpt>
      <trkpt lat="-22.12400634773075580596923828125" lon="166.43955227918922901153564453125">
        <ele>91.8000030517578125</ele>
        <time>2016-08-12T23:30:19.000Z</time>
        <extensions>
          <ns3:TrackPointExtension>
            <ns3:atemp>24.0</ns3:atemp>
            <ns3:hr>133</ns3:hr>
          </ns3:TrackPointExtension>
        </extensions>
      </trkpt>
      <trkpt lat="-22.12403249926865100860595703125" lon="166.4395644329488277435302734375">
        <ele>91.8000030517578125</ele>
        <time>2016-08-12T23:30:20.000Z</time>
        <extensions>
          <ns3:TrackPointExtension>
            <ns3:atemp>24.0</ns3:atemp>
            <ns3:hr>134</ns3:hr>
          </ns3:TrackPointExtension>
        </extensions>
      </trkpt>
      <trkpt lat="-22.12406485341489315032958984375" lon="166.43957809545099735260009765625">
        <ele>92</ele>
        <time>2016-08-12T23:30:21.000Z</time>
        <extensions>
          <ns3:TrackPointExtension>
            <ns3:atemp>24.0</ns3:atemp>
            <ns3:hr>133</ns3:hr>
          </ns3:TrackPointExtension>
        </extensions>
      </trkpt>
      <trkpt lat="-22.12409821338951587677001953125" lon="166.43958681263029575347900390625">
        <ele>91.59999847412109375</ele>
        <time>2016-08-12T23:30:22.000Z</time>
        <extensions>
          <ns3:TrackPointExtension>
            <ns3:atemp>24.0</ns3:atemp>
            <ns3:hr>134</ns3:hr>
          </ns3:TrackPointExtension>
        </extensions>
      </trkpt>
      <trkpt lat="-22.12412687949836254119873046875" lon="166.43959603272378444671630859375">
        <ele>90.8000030517578125</ele>
        <time>2016-08-12T23:30:23.000Z</time>
        <extensions>
          <ns3:TrackPointExtension>
            <ns3:atemp>24.0</ns3:atemp>
            <ns3:hr>134</ns3:hr>
          </ns3:TrackPointExtension>
        </extensions>
      </trkpt>
      <trkpt lat="-22.1241586469113826751708984375" lon="166.43960349261760711669921875">
        <ele>90.1999969482421875</ele>
        <time>2016-08-12T23:30:24.000Z</time>
        <extensions>
          <ns3:TrackPointExtension>
            <ns3:atemp>24.0</ns3:atemp>
            <ns3:hr>133</ns3:hr>
          </ns3:TrackPointExtension>
        </extensions>
      </trkpt>
      <trkpt lat="-22.124189324676990509033203125" lon="166.43960709683597087860107421875">
        <ele>90.1999969482421875</ele>
        <time>2016-08-12T23:30:25.000Z</time>
        <extensions>
          <ns3:TrackPointExtension>
            <ns3:atemp>24.0</ns3:atemp>
            <ns3:hr>133</ns3:hr>
          </ns3:TrackPointExtension>
        </extensions>
      </trkpt>
      <trkpt lat="-22.124210111796855926513671875" lon="166.43961095251142978668212890625">
        <ele>89.8000030517578125</ele>
        <time>2016-08-12T23:30:26.000Z</time>
        <extensions>
          <ns3:TrackPointExtension>
            <ns3:atemp>24.0</ns3:atemp>
            <ns3:hr>133</ns3:hr>
          </ns3:TrackPointExtension>
        </extensions>
      </trkpt>
      <trkpt lat="-22.1242364309728145599365234375" lon="166.43961329944431781768798828125">
        <ele>89</ele>
        <time>2016-08-12T23:30:27.000Z</time>
        <extensions>
          <ns3:TrackPointExtension>
            <ns3:atemp>24.0</ns3:atemp>
            <ns3:hr>133</ns3:hr>
          </ns3:TrackPointExtension>
        </extensions>
      </trkpt>
      <trkpt lat="-22.1242712996900081634521484375" lon="166.43962335772812366485595703125">
        <ele>88.59999847412109375</ele>
        <time>2016-08-12T23:30:28.000Z</time>
        <extensions>
          <ns3:TrackPointExtension>
            <ns3:atemp>24.0</ns3:atemp>
            <ns3:hr>133</ns3:hr>
          </ns3:TrackPointExtension>
        </extensions>
      </trkpt>
      <trkpt lat="-22.124301306903362274169921875" lon="166.43962721340358257293701171875">
        <ele>88.8000030517578125</ele>
        <time>2016-08-12T23:30:29.000Z</time>
        <extensions>
          <ns3:TrackPointExtension>
            <ns3:atemp>24.0</ns3:atemp>
            <ns3:hr>133</ns3:hr>
          </ns3:TrackPointExtension>
        </extensions>
      </trkpt>
      <trkpt lat="-22.12433843873441219329833984375" lon="166.4396348409354686737060546875">
        <ele>88.40000152587890625</ele>
        <time>2016-08-12T23:30:30.000Z</time>
        <extensions>
          <ns3:TrackPointExtension>
            <ns3:atemp>24.0</ns3:atemp>
            <ns3:hr>132</ns3:hr>
          </ns3:TrackPointExtension>
        </extensions>
      </trkpt>
      <trkpt lat="-22.1243695355951786041259765625" lon="166.4396391995251178741455078125">
        <ele>88.1999969482421875</ele>
        <time>2016-08-12T23:30:31.000Z</time>
        <extensions>
          <ns3:TrackPointExtension>
            <ns3:atemp>24.0</ns3:atemp>
            <ns3:hr>133</ns3:hr>
          </ns3:TrackPointExtension>
        </extensions>
      </trkpt>
      <trkpt lat="-22.12440264411270618438720703125" lon="166.43964665941894054412841796875">
        <ele>87.40000152587890625</ele>
        <time>2016-08-12T23:30:32.000Z</time>
        <extensions>
          <ns3:TrackPointExtension>
            <ns3:atemp>24.0</ns3:atemp>
            <ns3:hr>133</ns3:hr>
          </ns3:TrackPointExtension>
        </extensions>
      </trkpt>
      <trkpt lat="-22.12443281896412372589111328125" lon="166.4396492578089237213134765625">
        <ele>87.40000152587890625</ele>
        <time>2016-08-12T23:30:33.000Z</time>
        <extensions>
          <ns3:TrackPointExtension>
            <ns3:atemp>24.0</ns3:atemp>
            <ns3:hr>133</ns3:hr>
          </ns3:TrackPointExtension>
        </extensions>
      </trkpt>
      <trkpt lat="-22.12446316145360469818115234375" lon="166.439648084342479705810546875">
        <ele>87.40000152587890625</ele>
        <time>2016-08-12T23:30:34.000Z</time>
        <extensions>
          <ns3:TrackPointExtension>
            <ns3:atemp>24.0</ns3:atemp>
            <ns3:hr>133</ns3:hr>
          </ns3:TrackPointExtension>
        </extensions>
      </trkpt>
      <trkpt lat="-22.1244902350008487701416015625" lon="166.43964950926601886749267578125">
        <ele>87.40000152587890625</ele>
        <time>2016-08-12T23:30:35.000Z</time>
        <extensions>
          <ns3:TrackPointExtension>
            <ns3:atemp>24.0</ns3:atemp>
            <ns3:hr>133</ns3:hr>
          </ns3:TrackPointExtension>
        </extensions>
      </trkpt>
      <trkpt lat="-22.12451948784291744232177734375" lon="166.43965286202728748321533203125">
        <ele>87.40000152587890625</ele>
        <time>2016-08-12T23:30:36.000Z</time>
        <extensions>
          <ns3:TrackPointExtension>
            <ns3:atemp>24.0</ns3:atemp>
            <ns3:hr>133</ns3:hr>
          </ns3:TrackPointExtension>
        </extensions>
      </trkpt>
      <trkpt lat="-22.12454446591436862945556640625" lon="166.43965604715049266815185546875">
        <ele>86.59999847412109375</ele>
        <time>2016-08-12T23:30:37.000Z</time>
        <extensions>
          <ns3:TrackPointExtension>
            <ns3:atemp>24.0</ns3:atemp>
            <ns3:hr>133</ns3:hr>
          </ns3:TrackPointExtension>
        </extensions>
      </trkpt>
      <trkpt lat="-22.12457497604191303253173828125" lon="166.43965353257954120635986328125">
        <ele>86</ele>
        <time>2016-08-12T23:30:38.000Z</time>
        <extensions>
          <ns3:TrackPointExtension>
            <ns3:atemp>24.0</ns3:atemp>
            <ns3:hr>134</ns3:hr>
          </ns3:TrackPointExtension>
        </extensions>
      </trkpt>
      <trkpt lat="-22.12460414506494998931884765625" lon="166.43965453840792179107666015625">
        <ele>85.59999847412109375</ele>
        <time>2016-08-12T23:30:39.000Z</time>
        <extensions>
          <ns3:TrackPointExtension>
            <ns3:atemp>24.0</ns3:atemp>
            <ns3:hr>134</ns3:hr>
          </ns3:TrackPointExtension>
        </extensions>
      </trkpt>
      <trkpt lat="-22.1246347390115261077880859375" lon="166.4396593160927295684814453125">
        <ele>85</ele>
        <time>2016-08-12T23:30:40.000Z</time>
        <extensions>
          <ns3:TrackPointExtension>
            <ns3:atemp>24.0</ns3:atemp>
            <ns3:hr>134</ns3:hr>
          </ns3:TrackPointExtension>
        </extensions>
      </trkpt>
      <trkpt lat="-22.124667428433895111083984375" lon="166.43966593779623508453369140625">
        <ele>84.59999847412109375</ele>
        <time>2016-08-12T23:30:41.000Z</time>
        <extensions>
          <ns3:TrackPointExtension>
            <ns3:atemp>24.0</ns3:atemp>
            <ns3:hr>134</ns3:hr>
          </ns3:TrackPointExtension>
        </extensions>
      </trkpt>
      <trkpt lat="-22.1246954239904880523681640625" lon="166.43966895528137683868408203125">
        <ele>84.1999969482421875</ele>
        <time>2016-08-12T23:30:42.000Z</time>
        <extensions>
          <ns3:TrackPointExtension>
            <ns3:atemp>24.0</ns3:atemp>
            <ns3:hr>134</ns3:hr>
          </ns3:TrackPointExtension>
        </extensions>
      </trkpt>
      <trkpt lat="-22.124717719852924346923828125" lon="166.43967230804264545440673828125">
        <ele>84</ele>
        <time>2016-08-12T23:30:43.000Z</time>
        <extensions>
          <ns3:TrackPointExtension>
            <ns3:atemp>24.0</ns3:atemp>
            <ns3:hr>134</ns3:hr>
          </ns3:TrackPointExtension>
        </extensions>
      </trkpt>
      <trkpt lat="-22.12475619278848171234130859375" lon="166.43968555144965648651123046875">
        <ele>83.40000152587890625</ele>
        <time>2016-08-12T23:30:44.000Z</time>
        <extensions>
          <ns3:TrackPointExtension>
            <ns3:atemp>24.0</ns3:atemp>
            <ns3:hr>134</ns3:hr>
          </ns3:TrackPointExtension>
        </extensions>
      </trkpt>
      <trkpt lat="-22.1247893013060092926025390625" lon="166.4396953582763671875">
        <ele>82.1999969482421875</ele>
        <time>2016-08-12T23:30:45.000Z</time>
        <extensions>
          <ns3:TrackPointExtension>
            <ns3:atemp>24.0</ns3:atemp>
            <ns3:hr>135</ns3:hr>
          </ns3:TrackPointExtension>
        </extensions>
      </trkpt>
      <trkpt lat="-22.12481989525258541107177734375" lon="166.43969980068504810333251953125">
        <ele>81</ele>
        <time>2016-08-12T23:30:46.000Z</time>
        <extensions>
          <ns3:TrackPointExtension>
            <ns3:atemp>24.0</ns3:atemp>
            <ns3:hr>135</ns3:hr>
          </ns3:TrackPointExtension>
        </extensions>
      </trkpt>
      <trkpt lat="-22.1248519979417324066162109375" lon="166.4397055841982364654541015625">
        <ele>80.59999847412109375</ele>
        <time>2016-08-12T23:30:47.000Z</time>
        <extensions>
          <ns3:TrackPointExtension>
            <ns3:atemp>24.0</ns3:atemp>
            <ns3:hr>135</ns3:hr>
          </ns3:TrackPointExtension>
        </extensions>
      </trkpt>
      <trkpt lat="-22.12488343007862567901611328125" lon="166.43971187062561511993408203125">
        <ele>80.8000030517578125</ele>
        <time>2016-08-12T23:30:48.000Z</time>
        <extensions>
          <ns3:TrackPointExtension>
            <ns3:atemp>24.0</ns3:atemp>
            <ns3:hr>135</ns3:hr>
          </ns3:TrackPointExtension>
        </extensions>
      </trkpt>
      <trkpt lat="-22.124916873872280120849609375" lon="166.43971480429172515869140625">
        <ele>80</ele>
        <time>2016-08-12T23:30:49.000Z</time>
        <extensions>
          <ns3:TrackPointExtension>
            <ns3:atemp>24.0</ns3:atemp>
            <ns3:hr>135</ns3:hr>
          </ns3:TrackPointExtension>
        </extensions>
      </trkpt>
      <trkpt lat="-22.1249507367610931396484375" lon="166.43972176127135753631591796875">
        <ele>79</ele>
        <time>2016-08-12T23:30:50.000Z</time>
        <extensions>
          <ns3:TrackPointExtension>
            <ns3:atemp>24.0</ns3:atemp>
            <ns3:hr>135</ns3:hr>
          </ns3:TrackPointExtension>
        </extensions>
      </trkpt>
      <trkpt lat="-22.12497831322252750396728515625" lon="166.43972595222294330596923828125">
        <ele>78.40000152587890625</ele>
        <time>2016-08-12T23:30:51.000Z</time>
        <extensions>
          <ns3:TrackPointExtension>
            <ns3:atemp>24.0</ns3:atemp>
            <ns3:hr>135</ns3:hr>
          </ns3:TrackPointExtension>
        </extensions>
      </trkpt>
      <trkpt lat="-22.12501921691000461578369140625" lon="166.439733915030956268310546875">
        <ele>77.8000030517578125</ele>
        <time>2016-08-12T23:30:52.000Z</time>
        <extensions>
          <ns3:TrackPointExtension>
            <ns3:atemp>24.0</ns3:atemp>
            <ns3:hr>135</ns3:hr>
          </ns3:TrackPointExtension>
        </extensions>
      </trkpt>
      <trkpt lat="-22.12504662573337554931640625" lon="166.43973517231643199920654296875">
        <ele>76.8000030517578125</ele>
        <time>2016-08-12T23:30:53.000Z</time>
        <extensions>
          <ns3:TrackPointExtension>
            <ns3:atemp>24.0</ns3:atemp>
            <ns3:hr>135</ns3:hr>
          </ns3:TrackPointExtension>
        </extensions>
      </trkpt>
      <trkpt lat="-22.12507210671901702880859375" lon="166.43973760306835174560546875">
        <ele>76.40000152587890625</ele>
        <time>2016-08-12T23:30:54.000Z</time>
        <extensions>
          <ns3:TrackPointExtension>
            <ns3:atemp>24.0</ns3:atemp>
            <ns3:hr>135</ns3:hr>
          </ns3:TrackPointExtension>
        </extensions>
      </trkpt>
      <trkpt lat="-22.1251037903130054473876953125" lon="166.4397407881915569305419921875">
        <ele>76.1999969482421875</ele>
        <time>2016-08-12T23:30:55.000Z</time>
        <extensions>
          <ns3:TrackPointExtension>
            <ns3:atemp>24.0</ns3:atemp>
            <ns3:hr>135</ns3:hr>
          </ns3:TrackPointExtension>
        </extensions>
      </trkpt>
      <trkpt lat="-22.12512549944221973419189453125" lon="166.439733244478702545166015625">
        <ele>75</ele>
        <time>2016-08-12T23:30:56.000Z</time>
        <extensions>
          <ns3:TrackPointExtension>
            <ns3:atemp>24.0</ns3:atemp>
            <ns3:hr>135</ns3:hr>
          </ns3:TrackPointExtension>
        </extensions>
      </trkpt>
      <trkpt lat="-22.12515450082719326019287109375" lon="166.43973399884998798370361328125">
        <ele>74.40000152587890625</ele>
        <time>2016-08-12T23:30:57.000Z</time>
        <extensions>
          <ns3:TrackPointExtension>
            <ns3:atemp>24.0</ns3:atemp>
            <ns3:hr>135</ns3:hr>
          </ns3:TrackPointExtension>
        </extensions>
      </trkpt>
      <trkpt lat="-22.12518702261149883270263671875" lon="166.439730226993560791015625">
        <ele>74.40000152587890625</ele>
        <time>2016-08-12T23:30:58.000Z</time>
        <extensions>
          <ns3:TrackPointExtension>
            <ns3:atemp>24.0</ns3:atemp>
            <ns3:hr>135</ns3:hr>
          </ns3:TrackPointExtension>
        </extensions>
      </trkpt>
      <trkpt lat="-22.125219292938709259033203125" lon="166.439730226993560791015625">
        <ele>73.40000152587890625</ele>
        <time>2016-08-12T23:30:59.000Z</time>
        <extensions>
          <ns3:TrackPointExtension>
            <ns3:atemp>24.0</ns3:atemp>
            <ns3:hr>135</ns3:hr>
          </ns3:TrackPointExtension>
        </extensions>
      </trkpt>
      <trkpt lat="-22.12524770759046077728271484375" lon="166.4397226832807064056396484375">
        <ele>73</ele>
        <time>2016-08-12T23:31:00.000Z</time>
        <extensions>
          <ns3:TrackPointExtension>
            <ns3:atemp>24.0</ns3:atemp>
            <ns3:hr>135</ns3:hr>
          </ns3:TrackPointExtension>
        </extensions>
      </trkpt>
      <trkpt lat="-22.12526849471032619476318359375" lon="166.4397119544446468353271484375">
        <ele>73</ele>
        <time>2016-08-12T23:31:01.000Z</time>
        <extensions>
          <ns3:TrackPointExtension>
            <ns3:atemp>24.0</ns3:atemp>
            <ns3:hr>134</ns3:hr>
          </ns3:TrackPointExtension>
        </extensions>
      </trkpt>
      <trkpt lat="-22.12529699318110942840576171875" lon="166.4397059194743633270263671875">
        <ele>72.8000030517578125</ele>
        <time>2016-08-12T23:31:02.000Z</time>
        <extensions>
          <ns3:TrackPointExtension>
            <ns3:atemp>24.0</ns3:atemp>
            <ns3:hr>134</ns3:hr>
          </ns3:TrackPointExtension>
        </extensions>
      </trkpt>
      <trkpt lat="-22.1253254078328609466552734375" lon="166.43969661556184291839599609375">
        <ele>71.59999847412109375</ele>
        <time>2016-08-12T23:31:03.000Z</time>
        <extensions>
          <ns3:TrackPointExtension>
            <ns3:atemp>24.0</ns3:atemp>
            <ns3:hr>134</ns3:hr>
          </ns3:TrackPointExtension>
        </extensions>
      </trkpt>
      <trkpt lat="-22.1253545768558979034423828125" lon="166.43968722783029079437255859375">
        <ele>71.1999969482421875</ele>
        <time>2016-08-12T23:31:04.000Z</time>
        <extensions>
          <ns3:TrackPointExtension>
            <ns3:atemp>24.0</ns3:atemp>
            <ns3:hr>134</ns3:hr>
          </ns3:TrackPointExtension>
        </extensions>
      </trkpt>
      <trkpt lat="-22.12538056075572967529296875" lon="166.43967834301292896270751953125">
        <ele>71.59999847412109375</ele>
        <time>2016-08-12T23:31:05.000Z</time>
        <extensions>
          <ns3:TrackPointExtension>
            <ns3:atemp>24.0</ns3:atemp>
            <ns3:hr>134</ns3:hr>
          </ns3:TrackPointExtension>
        </extensions>
      </trkpt>
      <trkpt lat="-22.1254095621407032012939453125" lon="166.43967591226100921630859375">
        <ele>70.8000030517578125</ele>
        <time>2016-08-12T23:31:06.000Z</time>
        <extensions>
          <ns3:TrackPointExtension>
            <ns3:atemp>24.0</ns3:atemp>
            <ns3:hr>134</ns3:hr>
          </ns3:TrackPointExtension>
        </extensions>
      </trkpt>
      <trkpt lat="-22.125441916286945343017578125" lon="166.43967398442327976226806640625">
        <ele>70.40000152587890625</ele>
        <time>2016-08-12T23:31:07.000Z</time>
        <extensions>
          <ns3:TrackPointExtension>
            <ns3:atemp>24.0</ns3:atemp>
            <ns3:hr>134</ns3:hr>
          </ns3:TrackPointExtension>
        </extensions>
      </trkpt>
      <trkpt lat="-22.1254735998809337615966796875" lon="166.43966627307236194610595703125">
        <ele>70</ele>
        <time>2016-08-12T23:31:08.000Z</time>
        <extensions>
          <ns3:TrackPointExtension>
            <ns3:atemp>24.0</ns3:atemp>
            <ns3:hr>134</ns3:hr>
          </ns3:TrackPointExtension>
        </extensions>
      </trkpt>
      <trkpt lat="-22.12549857795238494873046875" lon="166.43965990282595157623291015625">
        <ele>70.1999969482421875</ele>
        <time>2016-08-12T23:31:09.000Z</time>
        <extensions>
          <ns3:TrackPointExtension>
            <ns3:atemp>24.0</ns3:atemp>
            <ns3:hr>134</ns3:hr>
          </ns3:TrackPointExtension>
        </extensions>
      </trkpt>
      <trkpt lat="-22.12552531622350215911865234375" lon="166.43965185619890689849853515625">
        <ele>69.1999969482421875</ele>
        <time>2016-08-12T23:31:10.000Z</time>
        <extensions>
          <ns3:TrackPointExtension>
            <ns3:atemp>24.0</ns3:atemp>
            <ns3:hr>134</ns3:hr>
          </ns3:TrackPointExtension>
        </extensions>
      </trkpt>
      <trkpt lat="-22.1255587600171566009521484375" lon="166.4396438933908939361572265625">
        <ele>68.59999847412109375</ele>
        <time>2016-08-12T23:31:11.000Z</time>
        <extensions>
          <ns3:TrackPointExtension>
            <ns3:atemp>24.0</ns3:atemp>
            <ns3:hr>134</ns3:hr>
          </ns3:TrackPointExtension>
        </extensions>
      </trkpt>
      <trkpt lat="-22.12558667175471782684326171875" lon="166.4396318234503269195556640625">
        <ele>68.59999847412109375</ele>
        <time>2016-08-12T23:31:12.000Z</time>
        <extensions>
          <ns3:TrackPointExtension>
            <ns3:atemp>24.0</ns3:atemp>
            <ns3:hr>134</ns3:hr>
          </ns3:TrackPointExtension>
        </extensions>
      </trkpt>
      <trkpt lat="-22.12561215274035930633544921875" lon="166.4396217651665210723876953125">
        <ele>69.1999969482421875</ele>
        <time>2016-08-12T23:31:13.000Z</time>
        <extensions>
          <ns3:TrackPointExtension>
            <ns3:atemp>24.0</ns3:atemp>
            <ns3:hr>134</ns3:hr>
          </ns3:TrackPointExtension>
        </extensions>
      </trkpt>
      <trkpt lat="-22.12563914246857166290283203125" lon="166.4396113716065883636474609375">
        <ele>68.59999847412109375</ele>
        <time>2016-08-12T23:31:14.000Z</time>
        <extensions>
          <ns3:TrackPointExtension>
            <ns3:atemp>24.0</ns3:atemp>
            <ns3:hr>134</ns3:hr>
          </ns3:TrackPointExtension>
        </extensions>
      </trkpt>
      <trkpt lat="-22.12566864676773548126220703125" lon="166.43960525281727313995361328125">
        <ele>67.8000030517578125</ele>
        <time>2016-08-12T23:31:15.000Z</time>
        <extensions>
          <ns3:TrackPointExtension>
            <ns3:atemp>24.0</ns3:atemp>
            <ns3:hr>134</ns3:hr>
          </ns3:TrackPointExtension>
        </extensions>
      </trkpt>
      <trkpt lat="-22.12569161318242549896240234375" lon="166.43959435634315013885498046875">
        <ele>67.1999969482421875</ele>
        <time>2016-08-12T23:31:16.000Z</time>
        <extensions>
          <ns3:TrackPointExtension>
            <ns3:atemp>25.0</ns3:atemp>
            <ns3:hr>134</ns3:hr>
          </ns3:TrackPointExtension>
        </extensions>
      </trkpt>
      <trkpt lat="-22.125711478292942047119140625" lon="166.43958069384098052978515625">
        <ele>67.1999969482421875</ele>
        <time>2016-08-12T23:31:17.000Z</time>
        <extensions>
          <ns3:TrackPointExtension>
            <ns3:atemp>25.0</ns3:atemp>
            <ns3:hr>134</ns3:hr>
          </ns3:TrackPointExtension>
        </extensions>
      </trkpt>
      <trkpt lat="-22.12573553435504436492919921875" lon="166.43956862390041351318359375">
        <ele>67</ele>
        <time>2016-08-12T23:31:18.000Z</time>
        <extensions>
          <ns3:TrackPointExtension>
            <ns3:atemp>25.0</ns3:atemp>
            <ns3:hr>134</ns3:hr>
          </ns3:TrackPointExtension>
        </extensions>
      </trkpt>
      <trkpt lat="-22.12576302699744701385498046875" lon="166.43956200219690799713134765625">
        <ele>65.59999847412109375</ele>
        <time>2016-08-12T23:31:19.000Z</time>
        <extensions>
          <ns3:TrackPointExtension>
            <ns3:atemp>25.0</ns3:atemp>
            <ns3:hr>134</ns3:hr>
          </ns3:TrackPointExtension>
        </extensions>
      </trkpt>
      <trkpt lat="-22.125780880451202392578125" lon="166.43955043517053127288818359375">
        <ele>65.40000152587890625</ele>
        <time>2016-08-12T23:31:20.000Z</time>
        <extensions>
          <ns3:TrackPointExtension>
            <ns3:atemp>25.0</ns3:atemp>
            <ns3:hr>134</ns3:hr>
          </ns3:TrackPointExtension>
        </extensions>
      </trkpt>
      <trkpt lat="-22.125805355608463287353515625" lon="166.4395379461348056793212890625">
        <ele>65.59999847412109375</ele>
        <time>2016-08-12T23:31:21.000Z</time>
        <extensions>
          <ns3:TrackPointExtension>
            <ns3:atemp>25.0</ns3:atemp>
            <ns3:hr>134</ns3:hr>
          </ns3:TrackPointExtension>
        </extensions>
      </trkpt>
      <trkpt lat="-22.12582639418542385101318359375" lon="166.43952704966068267822265625">
        <ele>64.8000030517578125</ele>
        <time>2016-08-12T23:31:22.000Z</time>
        <extensions>
          <ns3:TrackPointExtension>
            <ns3:atemp>25.0</ns3:atemp>
            <ns3:hr>134</ns3:hr>
          </ns3:TrackPointExtension>
        </extensions>
      </trkpt>
      <trkpt lat="-22.12585489265620708465576171875" lon="166.43952445127069950103759765625">
        <ele>64.1999969482421875</ele>
        <time>2016-08-12T23:31:23.000Z</time>
        <extensions>
          <ns3:TrackPointExtension>
            <ns3:atemp>25.0</ns3:atemp>
            <ns3:hr>134</ns3:hr>
          </ns3:TrackPointExtension>
        </extensions>
      </trkpt>
      <trkpt lat="-22.1258846484124660491943359375" lon="166.43951900303363800048828125">
        <ele>64</ele>
        <time>2016-08-12T23:31:24.000Z</time>
        <extensions>
          <ns3:TrackPointExtension>
            <ns3:atemp>25.0</ns3:atemp>
            <ns3:hr>135</ns3:hr>
          </ns3:TrackPointExtension>
        </extensions>
      </trkpt>
      <trkpt lat="-22.12591088376939296722412109375" lon="166.43951204605400562286376953125">
        <ele>64.40000152587890625</ele>
        <time>2016-08-12T23:31:25.000Z</time>
        <extensions>
          <ns3:TrackPointExtension>
            <ns3:atemp>25.0</ns3:atemp>
            <ns3:hr>135</ns3:hr>
          </ns3:TrackPointExtension>
        </extensions>
      </trkpt>
      <trkpt lat="-22.125936448574066162109375" lon="166.4395067654550075531005859375">
        <ele>64.8000030517578125</ele>
        <time>2016-08-12T23:31:26.000Z</time>
        <extensions>
          <ns3:TrackPointExtension>
            <ns3:atemp>25.0</ns3:atemp>
            <ns3:hr>135</ns3:hr>
          </ns3:TrackPointExtension>
        </extensions>
      </trkpt>
      <trkpt lat="-22.12595614604651927947998046875" lon="166.43950165249407291412353515625">
        <ele>63.59999847412109375</ele>
        <time>2016-08-12T23:31:27.000Z</time>
        <extensions>
          <ns3:TrackPointExtension>
            <ns3:atemp>25.0</ns3:atemp>
            <ns3:hr>135</ns3:hr>
          </ns3:TrackPointExtension>
        </extensions>
      </trkpt>
      <trkpt lat="-22.12597659789025783538818359375" lon="166.439495198428630828857421875">
        <ele>63.40000152587890625</ele>
        <time>2016-08-12T23:31:28.000Z</time>
        <extensions>
          <ns3:TrackPointExtension>
            <ns3:atemp>25.0</ns3:atemp>
            <ns3:hr>135</ns3:hr>
          </ns3:TrackPointExtension>
        </extensions>
      </trkpt>
      <trkpt lat="-22.1260048449039459228515625" lon="166.43949293531477451324462890625">
        <ele>63</ele>
        <time>2016-08-12T23:31:29.000Z</time>
        <extensions>
          <ns3:TrackPointExtension>
            <ns3:atemp>25.0</ns3:atemp>
            <ns3:hr>134</ns3:hr>
          </ns3:TrackPointExtension>
        </extensions>
      </trkpt>
      <trkpt lat="-22.1260361932218074798583984375" lon="166.43949360586702823638916015625">
        <ele>62.799999237060546875</ele>
        <time>2016-08-12T23:31:30.000Z</time>
        <extensions>
          <ns3:TrackPointExtension>
            <ns3:atemp>25.0</ns3:atemp>
            <ns3:hr>135</ns3:hr>
          </ns3:TrackPointExtension>
        </extensions>
      </trkpt>
      <trkpt lat="-22.12607097811996936798095703125" lon="166.43948958255350589752197265625">
        <ele>61.59999847412109375</ele>
        <time>2016-08-12T23:31:31.000Z</time>
        <extensions>
          <ns3:TrackPointExtension>
            <ns3:atemp>25.0</ns3:atemp>
            <ns3:hr>135</ns3:hr>
          </ns3:TrackPointExtension>
        </extensions>
      </trkpt>
      <trkpt lat="-22.1261012367904186248779296875" lon="166.43948136828839778900146484375">
        <ele>61.40000152587890625</ele>
        <time>2016-08-12T23:31:32.000Z</time>
        <extensions>
          <ns3:TrackPointExtension>
            <ns3:atemp>25.0</ns3:atemp>
            <ns3:hr>135</ns3:hr>
          </ns3:TrackPointExtension>
        </extensions>
      </trkpt>
      <trkpt lat="-22.12612596340477466583251953125" lon="166.4394685439765453338623046875">
        <ele>61.200000762939453125</ele>
        <time>2016-08-12T23:31:33.000Z</time>
        <extensions>
          <ns3:TrackPointExtension>
            <ns3:atemp>25.0</ns3:atemp>
            <ns3:hr>135</ns3:hr>
          </ns3:TrackPointExtension>
        </extensions>
      </trkpt>
      <trkpt lat="-22.12615446187555789947509765625" lon="166.439458318054676055908203125">
        <ele>60.799999237060546875</ele>
        <time>2016-08-12T23:31:34.000Z</time>
        <extensions>
          <ns3:TrackPointExtension>
            <ns3:atemp>25.0</ns3:atemp>
            <ns3:hr>135</ns3:hr>
          </ns3:TrackPointExtension>
        </extensions>
      </trkpt>
    </trkseg>
  </trk>
</gpx>
